<?xml version="1.0" encoding="UTF-8"?>
<gpx version="1.1" creator="https://www.youtrack.es" xsi:schemaLocation="http://www.topografix.com/GPX/1/1 http://www.topografix.com/GPX/1/1/gpx.xsd http://www.garmin.com/xmlschemas/GpxExtensions/v3 http://www.garmin.com/xmlschemas/GpxExtensionsv3.xsd http://www.garmin.com/xmlschemas/TrackPointExtension/v1 http://www.garmin.com/xmlschemas/TrackPointExtensionv1.xsd" xmlns:gpxtpx="http://www.garmin.com/xmlschemas/TrackPointExtension/v1" xmlns:gpxx="http://www.garmin.com/xmlschemas/GpxExtensions/v3" xmlns:xsi="http://www.w3.org/2001/XMLSchema-instance">
  <metadata>
    <link href="https://www.youtrack.es">
      <text>YouTrack.es</text>
    </link>
    <time>2026-05-08T15:06:39Z</time>
  </metadata>
  <trk>
    <src>https://www.youtrack.es</src>
    <link href="https://www.youtrack.es/ruta/1753-test-b">
      <text>YouTrack.es</text>
    </link>
    <trkseg>
      <trkpt lat="47.4992030672729015350341796875" lon="8.73108579777181148529052734375">
        <ele>433</ele>
        <time>2018-08-16T06:07:33.000Z</time>
      </trkpt>
      <trkpt lat="47.499221004545688629150390625" lon="8.73108596540987491607666015625">
        <ele>433</ele>
        <time>2018-08-16T06:07:34.000Z</time>
      </trkpt>
      <trkpt lat="47.49934514053165912628173828125" lon="8.7310766614973545074462890625">
        <ele>433</ele>
        <time>2018-08-16T06:07:40.000Z</time>
      </trkpt>
      <trkpt lat="47.4993723817169666290283203125" lon="8.73107238672673702239990234375">
        <ele>433</ele>
        <time>2018-08-16T06:07:41.000Z</time>
      </trkpt>
      <trkpt lat="47.49951638281345367431640625" lon="8.73106232844293117523193359375">
        <ele>433</ele>
        <time>2018-08-16T06:07:44.000Z</time>
      </trkpt>
      <trkpt lat="47.4995943345129489898681640625" lon="8.73104992322623729705810546875">
        <ele>433</ele>
        <time>2018-08-16T06:07:46.000Z</time>
      </trkpt>
      <trkpt lat="47.499826513230800628662109375" lon="8.73099762015044689178466796875">
        <ele>433</ele>
        <time>2018-08-16T06:07:52.000Z</time>
      </trkpt>
      <trkpt lat="47.499907314777374267578125" lon="8.73096744529902935028076171875">
        <ele>433</ele>
        <time>2018-08-16T06:07:54.000Z</time>
      </trkpt>
      <trkpt lat="47.500031031668186187744140625" lon="8.7309371866285800933837890625">
        <ele>433</ele>
        <time>2018-08-16T06:07:57.000Z</time>
      </trkpt>
      <trkpt lat="47.50041500665247440338134765625" lon="8.7309190817177295684814453125">
        <ele>433</ele>
        <time>2018-08-16T06:08:07.000Z</time>
      </trkpt>
      <trkpt lat="47.5004650466144084930419921875" lon="8.7309484183788299560546875">
        <ele>433</ele>
        <time>2018-08-16T06:08:09.000Z</time>
      </trkpt>
      <trkpt lat="47.50053537078201770782470703125" lon="8.730944730341434478759765625">
        <ele>432.79998779296875</ele>
        <time>2018-08-16T06:08:11.000Z</time>
      </trkpt>
      <trkpt lat="47.50057091005146503448486328125" lon="8.7309425510466098785400390625">
        <ele>432.600006103515625</ele>
        <time>2018-08-16T06:08:12.000Z</time>
      </trkpt>
      <trkpt lat="47.50068758614361286163330078125" lon="8.73093224130570888519287109375">
        <ele>432.600006103515625</ele>
        <time>2018-08-16T06:08:15.000Z</time>
      </trkpt>
      <trkpt lat="47.50085740350186824798583984375" lon="8.730895780026912689208984375">
        <ele>432.600006103515625</ele>
        <time>2018-08-16T06:08:20.000Z</time>
      </trkpt>
      <trkpt lat="47.50091557390987873077392578125" lon="8.73088295571506023406982421875">
        <ele>432.600006103515625</ele>
        <time>2018-08-16T06:08:22.000Z</time>
      </trkpt>
      <trkpt lat="47.50097072683274745941162109375" lon="8.73087130486965179443359375">
        <ele>432.600006103515625</ele>
        <time>2018-08-16T06:08:24.000Z</time>
      </trkpt>
      <trkpt lat="47.50099972821772098541259765625" lon="8.73086568899452686309814453125">
        <ele>432.79998779296875</ele>
        <time>2018-08-16T06:08:25.000Z</time>
      </trkpt>
      <trkpt lat="47.5011657737195491790771484375" lon="8.73081455938518047332763671875">
        <ele>432.79998779296875</ele>
        <time>2018-08-16T06:08:29.000Z</time>
      </trkpt>
      <trkpt lat="47.50119670294225215911865234375" lon="8.73080181889235973358154296875">
        <ele>432.79998779296875</ele>
        <time>2018-08-16T06:08:30.000Z</time>
      </trkpt>
      <trkpt lat="47.50125906430184841156005859375" lon="8.73078455217182636260986328125">
        <ele>432.79998779296875</ele>
        <time>2018-08-16T06:08:32.000Z</time>
      </trkpt>
      <trkpt lat="47.5012941844761371612548828125" lon="8.73078279197216033935546875">
        <ele>432.600006103515625</ele>
        <time>2018-08-16T06:08:33.000Z</time>
      </trkpt>
      <trkpt lat="47.50145570375025272369384765625" lon="8.730760999023914337158203125">
        <ele>432.600006103515625</ele>
        <time>2018-08-16T06:08:37.000Z</time>
      </trkpt>
      <trkpt lat="47.50153901986777782440185546875" lon="8.73073928989470005035400390625">
        <ele>432.600006103515625</ele>
        <time>2018-08-16T06:08:39.000Z</time>
      </trkpt>
      <trkpt lat="47.501720152795314788818359375" lon="8.73069419525563716888427734375">
        <ele>432.600006103515625</ele>
        <time>2018-08-16T06:08:43.000Z</time>
      </trkpt>
      <trkpt lat="47.50176667235791683197021484375" lon="8.73068162240087985992431640625">
        <ele>432.600006103515625</ele>
        <time>2018-08-16T06:08:44.000Z</time>
      </trkpt>
      <trkpt lat="47.50205618329346179962158203125" lon="8.730612806975841522216796875">
        <ele>432.399993896484375</ele>
        <time>2018-08-16T06:08:50.000Z</time>
      </trkpt>
      <trkpt lat="47.50224150717258453369140625" lon="8.7305777706205844879150390625">
        <ele>432.399993896484375</ele>
        <time>2018-08-16T06:08:54.000Z</time>
      </trkpt>
      <trkpt lat="47.5024347938597202301025390625" lon="8.73053678311407566070556640625">
        <ele>432.399993896484375</ele>
        <time>2018-08-16T06:08:58.000Z</time>
      </trkpt>
      <trkpt lat="47.5026316009461879730224609375" lon="8.730504512786865234375">
        <ele>432.20001220703125</ele>
        <time>2018-08-16T06:09:02.000Z</time>
      </trkpt>
      <trkpt lat="47.5027839839458465576171875" lon="8.73047525994479656219482421875">
        <ele>432.20001220703125</ele>
        <time>2018-08-16T06:09:05.000Z</time>
      </trkpt>
      <trkpt lat="47.50334347598254680633544921875" lon="8.7302538938820362091064453125">
        <ele>432.20001220703125</ele>
        <time>2018-08-16T06:09:16.000Z</time>
      </trkpt>
      <trkpt lat="47.503505162894725799560546875" lon="8.7301616929471492767333984375">
        <ele>432.20001220703125</ele>
        <time>2018-08-16T06:09:19.000Z</time>
      </trkpt>
      <trkpt lat="47.50402425415813922882080078125" lon="8.7298031151294708251953125">
        <ele>431.79998779296875</ele>
        <time>2018-08-16T06:09:29.000Z</time>
      </trkpt>
      <trkpt lat="47.5041202269494533538818359375" lon="8.72972155921161174774169921875">
        <ele>431.79998779296875</ele>
        <time>2018-08-16T06:09:31.000Z</time>
      </trkpt>
      <trkpt lat="47.504168339073657989501953125" lon="8.7296886183321475982666015625">
        <ele>431.79998779296875</ele>
        <time>2018-08-16T06:09:32.000Z</time>
      </trkpt>
      <trkpt lat="47.5042633898556232452392578125" lon="8.72964377515017986297607421875">
        <ele>431.79998779296875</ele>
        <time>2018-08-16T06:09:34.000Z</time>
      </trkpt>
      <trkpt lat="47.50434310175478458404541015625" lon="8.729560375213623046875">
        <ele>431.79998779296875</ele>
        <time>2018-08-16T06:09:36.000Z</time>
      </trkpt>
      <trkpt lat="47.5043861009180545806884765625" lon="8.729517795145511627197265625">
        <ele>431.79998779296875</ele>
        <time>2018-08-16T06:09:37.000Z</time>
      </trkpt>
      <trkpt lat="47.5044749490916728973388671875" lon="8.729443363845348358154296875">
        <ele>431.600006103515625</ele>
        <time>2018-08-16T06:09:39.000Z</time>
      </trkpt>
      <trkpt lat="47.50451979227364063262939453125" lon="8.72940673492848873138427734375">
        <ele>431.600006103515625</ele>
        <time>2018-08-16T06:09:40.000Z</time>
      </trkpt>
      <trkpt lat="47.5046405754983425140380859375" lon="8.72930430807173252105712890625">
        <ele>431.79998779296875</ele>
        <time>2018-08-16T06:09:45.000Z</time>
      </trkpt>
      <trkpt lat="47.5046657212078571319580078125" lon="8.72928167693316936492919921875">
        <ele>431.79998779296875</ele>
        <time>2018-08-16T06:09:46.000Z</time>
      </trkpt>
      <trkpt lat="47.5047277472913265228271484375" lon="8.72922652401030063629150390625">
        <ele>431.79998779296875</ele>
        <time>2018-08-16T06:09:48.000Z</time>
      </trkpt>
      <trkpt lat="47.5047981552779674530029296875" lon="8.729164414107799530029296875">
        <ele>431.79998779296875</ele>
        <time>2018-08-16T06:09:50.000Z</time>
      </trkpt>
      <trkpt lat="47.50486697070300579071044921875" lon="8.72910582460463047027587890625">
        <ele>432</ele>
        <time>2018-08-16T06:09:52.000Z</time>
      </trkpt>
      <trkpt lat="47.5049383006989955902099609375" lon="8.72904849238693714141845703125">
        <ele>432</ele>
        <time>2018-08-16T06:09:54.000Z</time>
      </trkpt>
      <trkpt lat="47.5051857344806194305419921875" lon="8.72881815768778324127197265625">
        <ele>433</ele>
        <time>2018-08-16T06:10:01.000Z</time>
      </trkpt>
      <trkpt lat="47.50529981218278408050537109375" lon="8.72873132117092609405517578125">
        <ele>433.399993896484375</ele>
        <time>2018-08-16T06:10:05.000Z</time>
      </trkpt>
      <trkpt lat="47.50538245774805545806884765625" lon="8.72867147438228130340576171875">
        <ele>434</ele>
        <time>2018-08-16T06:10:08.000Z</time>
      </trkpt>
      <trkpt lat="47.5054891593754291534423828125" lon="8.7285875715315341949462890625">
        <ele>434.399993896484375</ele>
        <time>2018-08-16T06:10:11.000Z</time>
      </trkpt>
      <trkpt lat="47.50579602085053920745849609375" lon="8.72817099094390869140625">
        <ele>434.399993896484375</ele>
        <time>2018-08-16T06:10:19.000Z</time>
      </trkpt>
      <trkpt lat="47.505916468799114227294921875" lon="8.7280021794140338897705078125">
        <ele>434.20001220703125</ele>
        <time>2018-08-16T06:10:22.000Z</time>
      </trkpt>
      <trkpt lat="47.50603088177740573883056640625" lon="8.72781719081103801727294921875">
        <ele>433.79998779296875</ele>
        <time>2018-08-16T06:10:25.000Z</time>
      </trkpt>
      <trkpt lat="47.50610900111496448516845703125" lon="8.72769615612924098968505859375">
        <ele>433.600006103515625</ele>
        <time>2018-08-16T06:10:27.000Z</time>
      </trkpt>
      <trkpt lat="47.5061503238976001739501953125" lon="8.72763697989284992218017578125">
        <ele>433.600006103515625</ele>
        <time>2018-08-16T06:10:28.000Z</time>
      </trkpt>
      <trkpt lat="47.5062351487576961517333984375" lon="8.72751049697399139404296875">
        <ele>433.399993896484375</ele>
        <time>2018-08-16T06:10:30.000Z</time>
      </trkpt>
      <trkpt lat="47.506277896463871002197265625" lon="8.72744402848184108734130859375">
        <ele>433.399993896484375</ele>
        <time>2018-08-16T06:10:31.000Z</time>
      </trkpt>
      <trkpt lat="47.5064024515450000762939453125" lon="8.7272394262254238128662109375">
        <ele>432.79998779296875</ele>
        <time>2018-08-16T06:10:34.000Z</time>
      </trkpt>
      <trkpt lat="47.50648568384349346160888671875" lon="8.72710573486983776092529296875">
        <ele>432.79998779296875</ele>
        <time>2018-08-16T06:10:36.000Z</time>
      </trkpt>
      <trkpt lat="47.506714761257171630859375" lon="8.72675855644047260284423828125">
        <ele>431.79998779296875</ele>
        <time>2018-08-16T06:10:41.000Z</time>
      </trkpt>
      <trkpt lat="47.50681375153362751007080078125" lon="8.72661338187754154205322265625">
        <ele>431.399993896484375</ele>
        <time>2018-08-16T06:10:43.000Z</time>
      </trkpt>
      <trkpt lat="47.5069519691169261932373046875" lon="8.72640031389892101287841796875">
        <ele>431.20001220703125</ele>
        <time>2018-08-16T06:10:46.000Z</time>
      </trkpt>
      <trkpt lat="47.50699932686984539031982421875" lon="8.726328648626804351806640625">
        <ele>431</ele>
        <time>2018-08-16T06:10:47.000Z</time>
      </trkpt>
      <trkpt lat="47.50717811286449432373046875" lon="8.72603218071162700653076171875">
        <ele>430.399993896484375</ele>
        <time>2018-08-16T06:10:51.000Z</time>
      </trkpt>
      <trkpt lat="47.50725564546883106231689453125" lon="8.725867308676242828369140625">
        <ele>430.20001220703125</ele>
        <time>2018-08-16T06:10:53.000Z</time>
      </trkpt>
      <trkpt lat="47.50744423829019069671630859375" lon="8.725587017834186553955078125">
        <ele>429.600006103515625</ele>
        <time>2018-08-16T06:10:57.000Z</time>
      </trkpt>
      <trkpt lat="47.50749402679502964019775390625" lon="8.72552029788494110107421875">
        <ele>429.399993896484375</ele>
        <time>2018-08-16T06:10:58.000Z</time>
      </trkpt>
      <trkpt lat="47.50754289329051971435546875" lon="8.725454919040203094482421875">
        <ele>429.399993896484375</ele>
        <time>2018-08-16T06:10:59.000Z</time>
      </trkpt>
      <trkpt lat="47.50759343616664409637451171875" lon="8.72538828290998935699462890625">
        <ele>429.20001220703125</ele>
        <time>2018-08-16T06:11:00.000Z</time>
      </trkpt>
      <trkpt lat="47.50777314417064189910888671875" lon="8.72514269314706325531005859375">
        <ele>428.79998779296875</ele>
        <time>2018-08-16T06:11:04.000Z</time>
      </trkpt>
      <trkpt lat="47.50804237090051174163818359375" lon="8.72478378005325794219970703125">
        <ele>428.600006103515625</ele>
        <time>2018-08-16T06:11:10.000Z</time>
      </trkpt>
      <trkpt lat="47.5084541738033294677734375" lon="8.7242343463003635406494140625">
        <ele>428.600006103515625</ele>
        <time>2018-08-16T06:11:19.000Z</time>
      </trkpt>
      <trkpt lat="47.50849935226142406463623046875" lon="8.72417382895946502685546875">
        <ele>428.600006103515625</ele>
        <time>2018-08-16T06:11:20.000Z</time>
      </trkpt>
      <trkpt lat="47.50859205611050128936767578125" lon="8.7240546382963657379150390625">
        <ele>428.600006103515625</ele>
        <time>2018-08-16T06:11:22.000Z</time>
      </trkpt>
      <trkpt lat="47.50886329449713230133056640625" lon="8.72370637021958827972412109375">
        <ele>429</ele>
        <time>2018-08-16T06:11:28.000Z</time>
      </trkpt>
      <trkpt lat="47.50908373855054378509521484375" lon="8.72341484762728214263916015625">
        <ele>429.600006103515625</ele>
        <time>2018-08-16T06:11:33.000Z</time>
      </trkpt>
      <trkpt lat="47.50934223644435405731201171875" lon="8.7230015359818935394287109375">
        <ele>430</ele>
        <time>2018-08-16T06:11:40.000Z</time>
      </trkpt>
      <trkpt lat="47.50951255671679973602294921875" lon="8.72283649630844593048095703125">
        <ele>430.600006103515625</ele>
        <time>2018-08-16T06:11:44.000Z</time>
      </trkpt>
      <trkpt lat="47.5096040032804012298583984375" lon="8.72278016991913318634033203125">
        <ele>430.79998779296875</ele>
        <time>2018-08-16T06:11:46.000Z</time>
      </trkpt>
      <trkpt lat="47.50969804823398590087890625" lon="8.72272954322397708892822265625">
        <ele>431</ele>
        <time>2018-08-16T06:11:48.000Z</time>
      </trkpt>
      <trkpt lat="47.5099298916757106781005859375" lon="8.7225686945021152496337890625">
        <ele>431.600006103515625</ele>
        <time>2018-08-16T06:11:53.000Z</time>
      </trkpt>
      <trkpt lat="47.51011253334581851959228515625" lon="8.72241673059761524200439453125">
        <ele>432</ele>
        <time>2018-08-16T06:11:57.000Z</time>
      </trkpt>
      <trkpt lat="47.510332725942134857177734375" lon="8.72222109697759151458740234375">
        <ele>433</ele>
        <time>2018-08-16T06:12:02.000Z</time>
      </trkpt>
      <trkpt lat="47.5104224123060703277587890625" lon="8.72215303592383861541748046875">
        <ele>433.20001220703125</ele>
        <time>2018-08-16T06:12:04.000Z</time>
      </trkpt>
      <trkpt lat="47.5105548463761806488037109375" lon="8.72206552885472774505615234375">
        <ele>433.600006103515625</ele>
        <time>2018-08-16T06:12:07.000Z</time>
      </trkpt>
      <trkpt lat="47.510680742561817169189453125" lon="8.72197902761399745941162109375">
        <ele>434.20001220703125</ele>
        <time>2018-08-16T06:12:10.000Z</time>
      </trkpt>
      <trkpt lat="47.510991208255290985107421875" lon="8.72177434153854846954345703125">
        <ele>435.20001220703125</ele>
        <time>2018-08-16T06:12:17.000Z</time>
      </trkpt>
      <trkpt lat="47.5112512148916721343994140625" lon="8.7216168455779552459716796875">
        <ele>436.399993896484375</ele>
        <time>2018-08-16T06:12:23.000Z</time>
      </trkpt>
      <trkpt lat="47.511628903448581695556640625" lon="8.72146655805408954620361328125">
        <ele>437.399993896484375</ele>
        <time>2018-08-16T06:12:31.000Z</time>
      </trkpt>
      <trkpt lat="47.51192084513604640960693359375" lon="8.72138642705976963043212890625">
        <ele>438.399993896484375</ele>
        <time>2018-08-16T06:12:37.000Z</time>
      </trkpt>
      <trkpt lat="47.5121041573584079742431640625" lon="8.721382319927215576171875">
        <ele>439</ele>
        <time>2018-08-16T06:12:41.000Z</time>
      </trkpt>
      <trkpt lat="47.5121931731700897216796875" lon="8.7213935516774654388427734375">
        <ele>439.399993896484375</ele>
        <time>2018-08-16T06:12:43.000Z</time>
      </trkpt>
      <trkpt lat="47.512413449585437774658203125" lon="8.72145675122737884521484375">
        <ele>440.399993896484375</ele>
        <time>2018-08-16T06:12:48.000Z</time>
      </trkpt>
      <trkpt lat="47.51245795749127864837646484375" lon="8.72147946618497371673583984375">
        <ele>440.600006103515625</ele>
        <time>2018-08-16T06:12:49.000Z</time>
      </trkpt>
      <trkpt lat="47.512662224471569061279296875" lon="8.72162665240466594696044921875">
        <ele>441.399993896484375</ele>
        <time>2018-08-16T06:12:54.000Z</time>
      </trkpt>
      <trkpt lat="47.51290328800678253173828125" lon="8.721832931041717529296875">
        <ele>442.600006103515625</ele>
        <time>2018-08-16T06:13:00.000Z</time>
      </trkpt>
      <trkpt lat="47.51308123581111431121826171875" lon="8.721933849155902862548828125">
        <ele>443.399993896484375</ele>
        <time>2018-08-16T06:13:04.000Z</time>
      </trkpt>
      <trkpt lat="47.51313068903982639312744140625" lon="8.72194357216358184814453125">
        <ele>443.600006103515625</ele>
        <time>2018-08-16T06:13:05.000Z</time>
      </trkpt>
      <trkpt lat="47.5133326090872287750244140625" lon="8.72191113419830799102783203125">
        <ele>444.20001220703125</ele>
        <time>2018-08-16T06:13:09.000Z</time>
      </trkpt>
      <trkpt lat="47.51348775811493396759033203125" lon="8.72184022329747676849365234375">
        <ele>444.600006103515625</ele>
        <time>2018-08-16T06:13:12.000Z</time>
      </trkpt>
      <trkpt lat="47.514022104442119598388671875" lon="8.72158340178430080413818359375">
        <ele>445.399993896484375</ele>
        <time>2018-08-16T06:13:22.000Z</time>
      </trkpt>
      <trkpt lat="47.5143468193709850311279296875" lon="8.72142699547111988067626953125">
        <ele>446.20001220703125</ele>
        <time>2018-08-16T06:13:28.000Z</time>
      </trkpt>
      <trkpt lat="47.5145047344267368316650390625" lon="8.72133663855493068695068359375">
        <ele>446.600006103515625</ele>
        <time>2018-08-16T06:13:31.000Z</time>
      </trkpt>
      <trkpt lat="47.514713443815708160400390625" lon="8.7212141789495944976806640625">
        <ele>447</ele>
        <time>2018-08-16T06:13:35.000Z</time>
      </trkpt>
      <trkpt lat="47.51507529057562351226806640625" lon="8.720999769866466522216796875">
        <ele>447.600006103515625</ele>
        <time>2018-08-16T06:13:42.000Z</time>
      </trkpt>
      <trkpt lat="47.51555825583636760711669921875" lon="8.7207129411399364471435546875">
        <ele>448.399993896484375</ele>
        <time>2018-08-16T06:13:51.000Z</time>
      </trkpt>
      <trkpt lat="47.51598707400262355804443359375" lon="8.7204782478511333465576171875">
        <ele>449.600006103515625</ele>
        <time>2018-08-16T06:13:59.000Z</time>
      </trkpt>
      <trkpt lat="47.5164144672453403472900390625" lon="8.7202482484281063079833984375">
        <ele>450.79998779296875</ele>
        <time>2018-08-16T06:14:07.000Z</time>
      </trkpt>
      <trkpt lat="47.51646517775952816009521484375" lon="8.72022821567952632904052734375">
        <ele>450.79998779296875</ele>
        <time>2018-08-16T06:14:08.000Z</time>
      </trkpt>
      <trkpt lat="47.5166246853768825531005859375" lon="8.720240704715251922607421875">
        <ele>451.399993896484375</ele>
        <time>2018-08-16T06:14:11.000Z</time>
      </trkpt>
      <trkpt lat="47.51671881414949893951416015625" lon="8.720293343067169189453125">
        <ele>451.600006103515625</ele>
        <time>2018-08-16T06:14:13.000Z</time>
      </trkpt>
      <trkpt lat="47.51681352965533733367919921875" lon="8.7203531898558139801025390625">
        <ele>451.79998779296875</ele>
        <time>2018-08-16T06:14:15.000Z</time>
      </trkpt>
      <trkpt lat="47.51716389320790767669677734375" lon="8.72051990590989589691162109375">
        <ele>453</ele>
        <time>2018-08-16T06:14:22.000Z</time>
      </trkpt>
      <trkpt lat="47.517523728311061859130859375" lon="8.72068251483142375946044921875">
        <ele>453.79998779296875</ele>
        <time>2018-08-16T06:14:29.000Z</time>
      </trkpt>
      <trkpt lat="47.51789496280252933502197265625" lon="8.720838837325572967529296875">
        <ele>454.79998779296875</ele>
        <time>2018-08-16T06:14:36.000Z</time>
      </trkpt>
      <trkpt lat="47.51828690059483051300048828125" lon="8.72100706212222576141357421875">
        <ele>455.600006103515625</ele>
        <time>2018-08-16T06:14:43.000Z</time>
      </trkpt>
      <trkpt lat="47.5185122899711132049560546875" lon="8.7211072258651256561279296875">
        <ele>455.79998779296875</ele>
        <time>2018-08-16T06:14:47.000Z</time>
      </trkpt>
      <trkpt lat="47.518626786768436431884765625" lon="8.72115575708448886871337890625">
        <ele>456</ele>
        <time>2018-08-16T06:14:49.000Z</time>
      </trkpt>
      <trkpt lat="47.519102878868579864501953125" lon="8.721359856426715850830078125">
        <ele>456.20001220703125</ele>
        <time>2018-08-16T06:14:57.000Z</time>
      </trkpt>
      <trkpt lat="47.5195214711129665374755859375" lon="8.72155666351318359375">
        <ele>456.600006103515625</ele>
        <time>2018-08-16T06:15:04.000Z</time>
      </trkpt>
      <trkpt lat="47.51963722519576549530029296875" lon="8.721614666283130645751953125">
        <ele>456.600006103515625</ele>
        <time>2018-08-16T06:15:06.000Z</time>
      </trkpt>
      <trkpt lat="47.5197538174688816070556640625" lon="8.72166889719665050506591796875">
        <ele>456.79998779296875</ele>
        <time>2018-08-16T06:15:08.000Z</time>
      </trkpt>
      <trkpt lat="47.519868314266204833984375" lon="8.72172363102436065673828125">
        <ele>456.79998779296875</ele>
        <time>2018-08-16T06:15:10.000Z</time>
      </trkpt>
      <trkpt lat="47.5200921110808849334716796875" lon="8.72181843034923076629638671875">
        <ele>457</ele>
        <time>2018-08-16T06:15:14.000Z</time>
      </trkpt>
      <trkpt lat="47.52041908912360668182373046875" lon="8.72187928296625614166259765625">
        <ele>457.79998779296875</ele>
        <time>2018-08-16T06:15:20.000Z</time>
      </trkpt>
      <trkpt lat="47.52068244852125644683837890625" lon="8.7218699790537357330322265625">
        <ele>458.79998779296875</ele>
        <time>2018-08-16T06:15:25.000Z</time>
      </trkpt>
      <trkpt lat="47.52094094641506671905517578125" lon="8.72181725688278675079345703125">
        <ele>459.79998779296875</ele>
        <time>2018-08-16T06:15:30.000Z</time>
      </trkpt>
      <trkpt lat="47.52114295028150081634521484375" lon="8.7217657081782817840576171875">
        <ele>461</ele>
        <time>2018-08-16T06:15:34.000Z</time>
      </trkpt>
      <trkpt lat="47.52140278927981853485107421875" lon="8.72171902097761631011962890625">
        <ele>462.20001220703125</ele>
        <time>2018-08-16T06:15:39.000Z</time>
      </trkpt>
      <trkpt lat="47.5217208825051784515380859375" lon="8.72165112756192684173583984375">
        <ele>463.20001220703125</ele>
        <time>2018-08-16T06:15:45.000Z</time>
      </trkpt>
      <trkpt lat="47.52198348753154277801513671875" lon="8.72160427272319793701171875">
        <ele>464.20001220703125</ele>
        <time>2018-08-16T06:15:50.000Z</time>
      </trkpt>
      <trkpt lat="47.52230334095656871795654296875" lon="8.72159278951585292816162109375">
        <ele>465.20001220703125</ele>
        <time>2018-08-16T06:15:56.000Z</time>
      </trkpt>
      <trkpt lat="47.522679269313812255859375" lon="8.72167141176760196685791015625">
        <ele>466.399993896484375</ele>
        <time>2018-08-16T06:16:03.000Z</time>
      </trkpt>
      <trkpt lat="47.52298948355019092559814453125" lon="8.72181725688278675079345703125">
        <ele>467.399993896484375</ele>
        <time>2018-08-16T06:16:09.000Z</time>
      </trkpt>
      <trkpt lat="47.523314617574214935302734375" lon="8.7220061011612415313720703125">
        <ele>468.399993896484375</ele>
        <time>2018-08-16T06:16:16.000Z</time>
      </trkpt>
      <trkpt lat="47.52353447489440441131591796875" lon="8.7221328355371952056884765625">
        <ele>469.600006103515625</ele>
        <time>2018-08-16T06:16:21.000Z</time>
      </trkpt>
      <trkpt lat="47.5237534940242767333984375" lon="8.72225412167608737945556640625">
        <ele>470.600006103515625</ele>
        <time>2018-08-16T06:16:26.000Z</time>
      </trkpt>
      <trkpt lat="47.52397553063929080963134765625" lon="8.72236710973083972930908203125">
        <ele>471.79998779296875</ele>
        <time>2018-08-16T06:16:31.000Z</time>
      </trkpt>
      <trkpt lat="47.52426085062325000762939453125" lon="8.7225267849862575531005859375">
        <ele>473</ele>
        <time>2018-08-16T06:16:37.000Z</time>
      </trkpt>
      <trkpt lat="47.524408958852291107177734375" lon="8.722607083618640899658203125">
        <ele>474</ele>
        <time>2018-08-16T06:16:40.000Z</time>
      </trkpt>
      <trkpt lat="47.52461674623191356658935546875" lon="8.72272417880594730377197265625">
        <ele>475</ele>
        <time>2018-08-16T06:16:44.000Z</time>
      </trkpt>
      <trkpt lat="47.5248889066278934478759765625" lon="8.72288444079458713531494140625">
        <ele>475.79998779296875</ele>
        <time>2018-08-16T06:16:49.000Z</time>
      </trkpt>
      <trkpt lat="47.52500197850167751312255859375" lon="8.7229505740106105804443359375">
        <ele>476.20001220703125</ele>
        <time>2018-08-16T06:16:51.000Z</time>
      </trkpt>
      <trkpt lat="47.5255638174712657928466796875" lon="8.7232529930770397186279296875">
        <ele>476.399993896484375</ele>
        <time>2018-08-16T06:17:00.000Z</time>
      </trkpt>
      <trkpt lat="47.5257606245577335357666015625" lon="8.7233669869601726531982421875">
        <ele>476.399993896484375</ele>
        <time>2018-08-16T06:17:03.000Z</time>
      </trkpt>
      <trkpt lat="47.52614267170429229736328125" lon="8.7236616946756839752197265625">
        <ele>476</ele>
        <time>2018-08-16T06:17:09.000Z</time>
      </trkpt>
      <trkpt lat="47.52620411105453968048095703125" lon="8.723724894225597381591796875">
        <ele>476</ele>
        <time>2018-08-16T06:17:10.000Z</time>
      </trkpt>
      <trkpt lat="47.52632372081279754638671875" lon="8.72386545874178409576416015625">
        <ele>475.79998779296875</ele>
        <time>2018-08-16T06:17:12.000Z</time>
      </trkpt>
      <trkpt lat="47.5267768464982509613037109375" lon="8.7245285511016845703125">
        <ele>474.79998779296875</ele>
        <time>2018-08-16T06:17:19.000Z</time>
      </trkpt>
      <trkpt lat="47.52685119397938251495361328125" lon="8.7246386893093585968017578125">
        <ele>474.79998779296875</ele>
        <time>2018-08-16T06:17:20.000Z</time>
      </trkpt>
      <trkpt lat="47.52692596055567264556884765625" lon="8.7247546948492527008056640625">
        <ele>474.600006103515625</ele>
        <time>2018-08-16T06:17:21.000Z</time>
      </trkpt>
      <trkpt lat="47.52708010375499725341796875" lon="8.7249957583844661712646484375">
        <ele>474</ele>
        <time>2018-08-16T06:17:23.000Z</time>
      </trkpt>
      <trkpt lat="47.52715713344514369964599609375" lon="8.72512324713170528411865234375">
        <ele>473.600006103515625</ele>
        <time>2018-08-16T06:17:24.000Z</time>
      </trkpt>
      <trkpt lat="47.52723625861108303070068359375" lon="8.72525098733603954315185546875">
        <ele>473.20001220703125</ele>
        <time>2018-08-16T06:17:25.000Z</time>
      </trkpt>
      <trkpt lat="47.527399621903896331787109375" lon="8.72551149688661098480224609375">
        <ele>472</ele>
        <time>2018-08-16T06:17:27.000Z</time>
      </trkpt>
      <trkpt lat="47.527568601071834564208984375" lon="8.72578172944486141204833984375">
        <ele>470.399993896484375</ele>
        <time>2018-08-16T06:17:29.000Z</time>
      </trkpt>
      <trkpt lat="47.52774302847683429718017578125" lon="8.72606034390628337860107421875">
        <ele>468.600006103515625</ele>
        <time>2018-08-16T06:17:31.000Z</time>
      </trkpt>
      <trkpt lat="47.5279218144714832305908203125" lon="8.7263432331383228302001953125">
        <ele>466</ele>
        <time>2018-08-16T06:17:33.000Z</time>
      </trkpt>
      <trkpt lat="47.5280128419399261474609375" lon="8.72648664750158786773681640625">
        <ele>465</ele>
        <time>2018-08-16T06:17:34.000Z</time>
      </trkpt>
      <trkpt lat="47.5281040370464324951171875" lon="8.72663098387420177459716796875">
        <ele>464</ele>
        <time>2018-08-16T06:17:35.000Z</time>
      </trkpt>
      <trkpt lat="47.52828776836395263671875" lon="8.72691932134330272674560546875">
        <ele>462</ele>
        <time>2018-08-16T06:17:37.000Z</time>
      </trkpt>
      <trkpt lat="47.52837837673723697662353515625" lon="8.72706256806850433349609375">
        <ele>461</ele>
        <time>2018-08-16T06:17:38.000Z</time>
      </trkpt>
      <trkpt lat="47.528558336198329925537109375" lon="8.727339841425418853759765625">
        <ele>459</ele>
        <time>2018-08-16T06:17:40.000Z</time>
      </trkpt>
      <trkpt lat="47.52865296788513660430908203125" lon="8.72746800072491168975830078125">
        <ele>457.79998779296875</ele>
        <time>2018-08-16T06:17:41.000Z</time>
      </trkpt>
      <trkpt lat="47.52874852158129215240478515625" lon="8.72758702374994754791259765625">
        <ele>456.79998779296875</ele>
        <time>2018-08-16T06:17:42.000Z</time>
      </trkpt>
      <trkpt lat="47.52884541638195514678955078125" lon="8.72769481502473354339599609375">
        <ele>455.600006103515625</ele>
        <time>2018-08-16T06:17:43.000Z</time>
      </trkpt>
      <trkpt lat="47.52894465811550617218017578125" lon="8.72779170982539653778076171875">
        <ele>454.600006103515625</ele>
        <time>2018-08-16T06:17:44.000Z</time>
      </trkpt>
      <trkpt lat="47.52914867363870143890380859375" lon="8.727950714528560638427734375">
        <ele>452.79998779296875</ele>
        <time>2018-08-16T06:17:46.000Z</time>
      </trkpt>
      <trkpt lat="47.52925294451415538787841796875" lon="8.7280105613172054290771484375">
        <ele>452.20001220703125</ele>
        <time>2018-08-16T06:17:47.000Z</time>
      </trkpt>
      <trkpt lat="47.5293561257421970367431640625" lon="8.728062026202678680419921875">
        <ele>451.600006103515625</ele>
        <time>2018-08-16T06:17:48.000Z</time>
      </trkpt>
      <trkpt lat="47.5295646674931049346923828125" lon="8.7281401455402374267578125">
        <ele>450.600006103515625</ele>
        <time>2018-08-16T06:17:50.000Z</time>
      </trkpt>
      <trkpt lat="47.5297768972814083099365234375" lon="8.7281956337392330169677734375">
        <ele>449.600006103515625</ele>
        <time>2018-08-16T06:17:52.000Z</time>
      </trkpt>
      <trkpt lat="47.53021015785634517669677734375" lon="8.72829244472086429595947265625">
        <ele>448.399993896484375</ele>
        <time>2018-08-16T06:17:56.000Z</time>
      </trkpt>
      <trkpt lat="47.53065490163862705230712890625" lon="8.72839252464473247528076171875">
        <ele>446.79998779296875</ele>
        <time>2018-08-16T06:18:00.000Z</time>
      </trkpt>
      <trkpt lat="47.530881129205226898193359375" lon="8.7284407205879688262939453125">
        <ele>446</ele>
        <time>2018-08-16T06:18:02.000Z</time>
      </trkpt>
      <trkpt lat="47.5311062671244144439697265625" lon="8.728489167988300323486328125">
        <ele>444.79998779296875</ele>
        <time>2018-08-16T06:18:04.000Z</time>
      </trkpt>
      <trkpt lat="47.5313307344913482666015625" lon="8.728539459407329559326171875">
        <ele>443.600006103515625</ele>
        <time>2018-08-16T06:18:06.000Z</time>
      </trkpt>
      <trkpt lat="47.53155612386763095855712890625" lon="8.72858681716024875640869140625">
        <ele>442.399993896484375</ele>
        <time>2018-08-16T06:18:08.000Z</time>
      </trkpt>
      <trkpt lat="47.53188955597579479217529296875" lon="8.72864699922502040863037109375">
        <ele>440.79998779296875</ele>
        <time>2018-08-16T06:18:11.000Z</time>
      </trkpt>
      <trkpt lat="47.5321058928966522216796875" lon="8.72868488542735576629638671875">
        <ele>439.399993896484375</ele>
        <time>2018-08-16T06:18:13.000Z</time>
      </trkpt>
      <trkpt lat="47.53241811878979206085205078125" lon="8.7287324108183383941650390625">
        <ele>438</ele>
        <time>2018-08-16T06:18:16.000Z</time>
      </trkpt>
      <trkpt lat="47.53261576406657695770263671875" lon="8.72875831089913845062255859375">
        <ele>437.399993896484375</ele>
        <time>2018-08-16T06:18:18.000Z</time>
      </trkpt>
      <trkpt lat="47.5328037701547145843505859375" lon="8.72878194786608219146728515625">
        <ele>436.600006103515625</ele>
        <time>2018-08-16T06:18:20.000Z</time>
      </trkpt>
      <trkpt lat="47.53298792056739330291748046875" lon="8.728803656995296478271484375">
        <ele>436.20001220703125</ele>
        <time>2018-08-16T06:18:22.000Z</time>
      </trkpt>
      <trkpt lat="47.53316511400043964385986328125" lon="8.72882612049579620361328125">
        <ele>436</ele>
        <time>2018-08-16T06:18:24.000Z</time>
      </trkpt>
      <trkpt lat="47.5333355180919170379638671875" lon="8.72884581796824932098388671875">
        <ele>436</ele>
        <time>2018-08-16T06:18:26.000Z</time>
      </trkpt>
      <trkpt lat="47.5334183312952518463134765625" lon="8.72885554097592830657958984375">
        <ele>436</ele>
        <time>2018-08-16T06:18:27.000Z</time>
      </trkpt>
      <trkpt lat="47.5335795991122722625732421875" lon="8.728874735534191131591796875">
        <ele>436</ele>
        <time>2018-08-16T06:18:29.000Z</time>
      </trkpt>
      <trkpt lat="47.5338830240070819854736328125" lon="8.728924691677093505859375">
        <ele>436.399993896484375</ele>
        <time>2018-08-16T06:18:33.000Z</time>
      </trkpt>
      <trkpt lat="47.53418661653995513916015625" lon="8.7289902381598949432373046875">
        <ele>437.20001220703125</ele>
        <time>2018-08-16T06:18:37.000Z</time>
      </trkpt>
      <trkpt lat="47.5347720086574554443359375" lon="8.72929827310144901275634765625">
        <ele>437.399993896484375</ele>
        <time>2018-08-16T06:18:44.000Z</time>
      </trkpt>
      <trkpt lat="47.534862197935581207275390625" lon="8.72935962863266468048095703125">
        <ele>437.399993896484375</ele>
        <time>2018-08-16T06:18:45.000Z</time>
      </trkpt>
      <trkpt lat="47.53541045822203159332275390625" lon="8.72974100522696971893310546875">
        <ele>435.79998779296875</ele>
        <time>2018-08-16T06:18:51.000Z</time>
      </trkpt>
      <trkpt lat="47.53549997694790363311767578125" lon="8.7298022769391536712646484375">
        <ele>435.20001220703125</ele>
        <time>2018-08-16T06:18:52.000Z</time>
      </trkpt>
      <trkpt lat="47.53567415289580821990966796875" lon="8.72991367243230342864990234375">
        <ele>433.79998779296875</ele>
        <time>2018-08-16T06:18:54.000Z</time>
      </trkpt>
      <trkpt lat="47.5357585586607456207275390625" lon="8.7299554981291294097900390625">
        <ele>433.399993896484375</ele>
        <time>2018-08-16T06:18:55.000Z</time>
      </trkpt>
      <trkpt lat="47.53591672517359256744384765625" lon="8.7299774587154388427734375">
        <ele>432.600006103515625</ele>
        <time>2018-08-16T06:18:57.000Z</time>
      </trkpt>
      <trkpt lat="47.53612878732383251190185546875" lon="8.7299679033458232879638671875">
        <ele>432</ele>
        <time>2018-08-16T06:19:00.000Z</time>
      </trkpt>
      <trkpt lat="47.53619969822466373443603515625" lon="8.729962371289730072021484375">
        <ele>432</ele>
        <time>2018-08-16T06:19:01.000Z</time>
      </trkpt>
      <trkpt lat="47.53648049198091030120849609375" lon="8.72983169741928577423095703125">
        <ele>431.79998779296875</ele>
        <time>2018-08-16T06:19:05.000Z</time>
      </trkpt>
      <trkpt lat="47.53662784583866596221923828125" lon="8.7297865189611911773681640625">
        <ele>431.79998779296875</ele>
        <time>2018-08-16T06:19:07.000Z</time>
      </trkpt>
      <trkpt lat="47.5369326956570148468017578125" lon="8.7297590263187885284423828125">
        <ele>431.600006103515625</ele>
        <time>2018-08-16T06:19:11.000Z</time>
      </trkpt>
      <trkpt lat="47.5372445024549961090087890625" lon="8.72978107072412967681884765625">
        <ele>431.399993896484375</ele>
        <time>2018-08-16T06:19:15.000Z</time>
      </trkpt>
      <trkpt lat="47.53769519738852977752685546875" lon="8.72984879650175571441650390625">
        <ele>431.399993896484375</ele>
        <time>2018-08-16T06:19:21.000Z</time>
      </trkpt>
      <trkpt lat="47.537979595363140106201171875" lon="8.72988869436085224151611328125">
        <ele>431.79998779296875</ele>
        <time>2018-08-16T06:19:25.000Z</time>
      </trkpt>
      <trkpt lat="47.538520395755767822265625" lon="8.73002615757286548614501953125">
        <ele>432.79998779296875</ele>
        <time>2018-08-16T06:19:33.000Z</time>
      </trkpt>
      <trkpt lat="47.53882776014506816864013671875" lon="8.73022732324898242950439453125">
        <ele>433.20001220703125</ele>
        <time>2018-08-16T06:19:38.000Z</time>
      </trkpt>
      <trkpt lat="47.539131939411163330078125" lon="8.7306049279868602752685546875">
        <ele>433.79998779296875</ele>
        <time>2018-08-16T06:19:44.000Z</time>
      </trkpt>
      <trkpt lat="47.5392551533877849578857421875" lon="8.73083132319152355194091796875">
        <ele>434.399993896484375</ele>
        <time>2018-08-16T06:19:47.000Z</time>
      </trkpt>
      <trkpt lat="47.5394881702959537506103515625" lon="8.731371872127056121826171875">
        <ele>435.20001220703125</ele>
        <time>2018-08-16T06:19:54.000Z</time>
      </trkpt>
      <trkpt lat="47.53952194936573505401611328125" lon="8.7314464710652828216552734375">
        <ele>435.399993896484375</ele>
        <time>2018-08-16T06:19:55.000Z</time>
      </trkpt>
      <trkpt lat="47.53959487192332744598388671875" lon="8.73166213743388652801513671875">
        <ele>435.79998779296875</ele>
        <time>2018-08-16T06:19:58.000Z</time>
      </trkpt>
      <trkpt lat="47.5397141464054584503173828125" lon="8.73192767612636089324951171875">
        <ele>436.399993896484375</ele>
        <time>2018-08-16T06:20:02.000Z</time>
      </trkpt>
      <trkpt lat="47.53983627073466777801513671875" lon="8.732223808765411376953125">
        <ele>437.399993896484375</ele>
        <time>2018-08-16T06:20:06.000Z</time>
      </trkpt>
      <trkpt lat="47.5398656912147998809814453125" lon="8.732298575341701507568359375">
        <ele>437.600006103515625</ele>
        <time>2018-08-16T06:20:07.000Z</time>
      </trkpt>
      <trkpt lat="47.539924867451190948486328125" lon="8.732443749904632568359375">
        <ele>437.79998779296875</ele>
        <time>2018-08-16T06:20:09.000Z</time>
      </trkpt>
      <trkpt lat="47.54001773893833160400390625" lon="8.73261985369026660919189453125">
        <ele>438.399993896484375</ele>
        <time>2018-08-16T06:20:12.000Z</time>
      </trkpt>
      <trkpt lat="47.54004280082881450653076171875" lon="8.73268657363951206207275390625">
        <ele>438.600006103515625</ele>
        <time>2018-08-16T06:20:13.000Z</time>
      </trkpt>
      <trkpt lat="47.54013047553598880767822265625" lon="8.73290450312197208404541015625">
        <ele>439.600006103515625</ele>
        <time>2018-08-16T06:20:16.000Z</time>
      </trkpt>
      <trkpt lat="47.54017003811895847320556640625" lon="8.73297524638473987579345703125">
        <ele>439.79998779296875</ele>
        <time>2018-08-16T06:20:17.000Z</time>
      </trkpt>
      <trkpt lat="47.54035645164549350738525390625" lon="8.73324983753263950347900390625">
        <ele>440</ele>
        <time>2018-08-16T06:20:21.000Z</time>
      </trkpt>
      <trkpt lat="47.54072173498570919036865234375" lon="8.7336227484047412872314453125">
        <ele>440.399993896484375</ele>
        <time>2018-08-16T06:20:28.000Z</time>
      </trkpt>
      <trkpt lat="47.54085819236934185028076171875" lon="8.73383355326950550079345703125">
        <ele>440.600006103515625</ele>
        <time>2018-08-16T06:20:31.000Z</time>
      </trkpt>
      <trkpt lat="47.5410686619579792022705078125" lon="8.7342021055519580841064453125">
        <ele>440.600006103515625</ele>
        <time>2018-08-16T06:20:36.000Z</time>
      </trkpt>
      <trkpt lat="47.54123671911656856536865234375" lon="8.73471583239734172821044921875">
        <ele>440.79998779296875</ele>
        <time>2018-08-16T06:20:42.000Z</time>
      </trkpt>
      <trkpt lat="47.54150929860770702362060546875" lon="8.73546995222568511962890625">
        <ele>441.20001220703125</ele>
        <time>2018-08-16T06:20:51.000Z</time>
      </trkpt>
      <trkpt lat="47.54156881012022495269775390625" lon="8.7356297113001346588134765625">
        <ele>441.399993896484375</ele>
        <time>2018-08-16T06:20:53.000Z</time>
      </trkpt>
      <trkpt lat="47.54165497608482837677001953125" lon="8.7358640693128108978271484375">
        <ele>441.399993896484375</ele>
        <time>2018-08-16T06:20:56.000Z</time>
      </trkpt>
      <trkpt lat="47.541880868375301361083984375" lon="8.73647016473114490509033203125">
        <ele>442.600006103515625</ele>
        <time>2018-08-16T06:21:04.000Z</time>
      </trkpt>
      <trkpt lat="47.5419873185455799102783203125" lon="8.73669329099357128143310546875">
        <ele>443.20001220703125</ele>
        <time>2018-08-16T06:21:07.000Z</time>
      </trkpt>
      <trkpt lat="47.54205889999866485595703125" lon="8.7368393875658512115478515625">
        <ele>443.79998779296875</ele>
        <time>2018-08-16T06:21:09.000Z</time>
      </trkpt>
      <trkpt lat="47.54217130132019519805908203125" lon="8.7370596639811992645263671875">
        <ele>444.399993896484375</ele>
        <time>2018-08-16T06:21:12.000Z</time>
      </trkpt>
      <trkpt lat="47.5422538630664348602294921875" lon="8.73719863593578338623046875">
        <ele>444.79998779296875</ele>
        <time>2018-08-16T06:21:14.000Z</time>
      </trkpt>
      <trkpt lat="47.54266482777893543243408203125" lon="8.73777271248400211334228515625">
        <ele>445.600006103515625</ele>
        <time>2018-08-16T06:21:23.000Z</time>
      </trkpt>
      <trkpt lat="47.54281570203602313995361328125" lon="8.7379414401948451995849609375">
        <ele>445.79998779296875</ele>
        <time>2018-08-16T06:21:26.000Z</time>
      </trkpt>
      <trkpt lat="47.54302206449210643768310546875" lon="8.73815593309700489044189453125">
        <ele>446</ele>
        <time>2018-08-16T06:21:30.000Z</time>
      </trkpt>
      <trkpt lat="47.5431275926530361175537109375" lon="8.73826188035309314727783203125">
        <ele>446</ele>
        <time>2018-08-16T06:21:32.000Z</time>
      </trkpt>
      <trkpt lat="47.54360561259090900421142578125" lon="8.7387588433921337127685546875">
        <ele>446.79998779296875</ele>
        <time>2018-08-16T06:21:41.000Z</time>
      </trkpt>
      <trkpt lat="47.54371306858956813812255859375" lon="8.73886453919112682342529296875">
        <ele>446.79998779296875</ele>
        <time>2018-08-16T06:21:43.000Z</time>
      </trkpt>
      <trkpt lat="47.543871738016605377197265625" lon="8.73902513645589351654052734375">
        <ele>447</ele>
        <time>2018-08-16T06:21:46.000Z</time>
      </trkpt>
      <trkpt lat="47.5441364385187625885009765625" lon="8.7393070198595523834228515625">
        <ele>447.399993896484375</ele>
        <time>2018-08-16T06:21:51.000Z</time>
      </trkpt>
      <trkpt lat="47.54446308128535747528076171875" lon="8.73965159989893436431884765625">
        <ele>447.600006103515625</ele>
        <time>2018-08-16T06:21:57.000Z</time>
      </trkpt>
      <trkpt lat="47.5445156358182430267333984375" lon="8.73971630819141864776611328125">
        <ele>447.600006103515625</ele>
        <time>2018-08-16T06:21:58.000Z</time>
      </trkpt>
      <trkpt lat="47.5448048114776611328125" lon="8.7401670031249523162841796875">
        <ele>447.79998779296875</ele>
        <time>2018-08-16T06:22:04.000Z</time>
      </trkpt>
      <trkpt lat="47.5449162907898426055908203125" lon="8.7404194660484790802001953125">
        <ele>447.79998779296875</ele>
        <time>2018-08-16T06:22:07.000Z</time>
      </trkpt>
      <trkpt lat="47.54503472708165645599365234375" lon="8.74074962921440601348876953125">
        <ele>447.79998779296875</ele>
        <time>2018-08-16T06:22:11.000Z</time>
      </trkpt>
      <trkpt lat="47.545090131461620330810546875" lon="8.7409981526434421539306640625">
        <ele>447.79998779296875</ele>
        <time>2018-08-16T06:22:14.000Z</time>
      </trkpt>
      <trkpt lat="47.5451499782502651214599609375" lon="8.74126176349818706512451171875">
        <ele>447.79998779296875</ele>
        <time>2018-08-16T06:22:17.000Z</time>
      </trkpt>
      <trkpt lat="47.5451979227364063262939453125" lon="8.74144566245377063751220703125">
        <ele>448.20001220703125</ele>
        <time>2018-08-16T06:22:19.000Z</time>
      </trkpt>
      <trkpt lat="47.545279562473297119140625" lon="8.741835169494152069091796875">
        <ele>448.600006103515625</ele>
        <time>2018-08-16T06:22:23.000Z</time>
      </trkpt>
      <trkpt lat="47.5453213043510913848876953125" lon="8.7420271150767803192138671875">
        <ele>449</ele>
        <time>2018-08-16T06:22:25.000Z</time>
      </trkpt>
      <trkpt lat="47.54549807868897914886474609375" lon="8.74278056435286998748779296875">
        <ele>449.20001220703125</ele>
        <time>2018-08-16T06:22:33.000Z</time>
      </trkpt>
      <trkpt lat="47.545594386756420135498046875" lon="8.7431496195495128631591796875">
        <ele>449.399993896484375</ele>
        <time>2018-08-16T06:22:37.000Z</time>
      </trkpt>
      <trkpt lat="47.5457491166889667510986328125" lon="8.743780441582202911376953125">
        <ele>450.399993896484375</ele>
        <time>2018-08-16T06:22:44.000Z</time>
      </trkpt>
      <trkpt lat="47.5457918643951416015625" lon="8.74395922757685184478759765625">
        <ele>450.600006103515625</ele>
        <time>2018-08-16T06:22:46.000Z</time>
      </trkpt>
      <trkpt lat="47.54594449885189533233642578125" lon="8.74457814730703830718994140625">
        <ele>451.600006103515625</ele>
        <time>2018-08-16T06:22:53.000Z</time>
      </trkpt>
      <trkpt lat="47.54601054824888706207275390625" lon="8.74483530409634113311767578125">
        <ele>452</ele>
        <time>2018-08-16T06:22:56.000Z</time>
      </trkpt>
      <trkpt lat="47.54608221352100372314453125" lon="8.7450844980776309967041015625">
        <ele>452.600006103515625</ele>
        <time>2018-08-16T06:22:59.000Z</time>
      </trkpt>
      <trkpt lat="47.54611196927726268768310546875" lon="8.74516320414841175079345703125">
        <ele>452.79998779296875</ele>
        <time>2018-08-16T06:23:00.000Z</time>
      </trkpt>
      <trkpt lat="47.54628337919712066650390625" lon="8.74554810114204883575439453125">
        <ele>453.600006103515625</ele>
        <time>2018-08-16T06:23:05.000Z</time>
      </trkpt>
      <trkpt lat="47.5466040708124637603759765625" lon="8.74603785574436187744140625">
        <ele>454.79998779296875</ele>
        <time>2018-08-16T06:23:12.000Z</time>
      </trkpt>
      <trkpt lat="47.54705577157437801361083984375" lon="8.74662391841411590576171875">
        <ele>455.399993896484375</ele>
        <time>2018-08-16T06:23:21.000Z</time>
      </trkpt>
      <trkpt lat="47.54710723645985126495361328125" lon="8.7466903030872344970703125">
        <ele>455.600006103515625</ele>
        <time>2018-08-16T06:23:22.000Z</time>
      </trkpt>
      <trkpt lat="47.54721142351627349853515625" lon="8.746822066605091094970703125">
        <ele>455.600006103515625</ele>
        <time>2018-08-16T06:23:24.000Z</time>
      </trkpt>
      <trkpt lat="47.54762607626616954803466796875" lon="8.74734635464847087860107421875">
        <ele>456</ele>
        <time>2018-08-16T06:23:32.000Z</time>
      </trkpt>
      <trkpt lat="47.5478392280638217926025390625" lon="8.7476154975593090057373046875">
        <ele>456.399993896484375</ele>
        <time>2018-08-16T06:23:36.000Z</time>
      </trkpt>
      <trkpt lat="47.5479458458721637725830078125" lon="8.74774969182908535003662109375">
        <ele>456.399993896484375</ele>
        <time>2018-08-16T06:23:38.000Z</time>
      </trkpt>
      <trkpt lat="47.54827030934393405914306640625" lon="8.748163171112537384033203125">
        <ele>456.600006103515625</ele>
        <time>2018-08-16T06:23:44.000Z</time>
      </trkpt>
      <trkpt lat="47.54832428880035877227783203125" lon="8.7482330761849880218505859375">
        <ele>456.600006103515625</ele>
        <time>2018-08-16T06:23:45.000Z</time>
      </trkpt>
      <trkpt lat="47.5485496781766414642333984375" lon="8.7485039792954921722412109375">
        <ele>456.600006103515625</ele>
        <time>2018-08-16T06:23:49.000Z</time>
      </trkpt>
      <trkpt lat="47.54891387186944484710693359375" lon="8.74889801256358623504638671875">
        <ele>456.79998779296875</ele>
        <time>2018-08-16T06:23:55.000Z</time>
      </trkpt>
      <trkpt lat="47.54938208498060703277587890625" lon="8.7494132481515407562255859375">
        <ele>457</ele>
        <time>2018-08-16T06:24:03.000Z</time>
      </trkpt>
      <trkpt lat="47.54984929226338863372802734375" lon="8.74992848373949527740478515625">
        <ele>457.20001220703125</ele>
        <time>2018-08-16T06:24:11.000Z</time>
      </trkpt>
      <trkpt lat="47.5500181876122951507568359375" lon="8.7501154839992523193359375">
        <ele>457.20001220703125</ele>
        <time>2018-08-16T06:24:14.000Z</time>
      </trkpt>
      <trkpt lat="47.5502341054379940032958984375" lon="8.75035353004932403564453125">
        <ele>457.399993896484375</ele>
        <time>2018-08-16T06:24:18.000Z</time>
      </trkpt>
      <trkpt lat="47.55028515122830867767333984375" lon="8.75042050145566463470458984375">
        <ele>457.399993896484375</ele>
        <time>2018-08-16T06:24:19.000Z</time>
      </trkpt>
      <trkpt lat="47.5504379533231258392333984375" lon="8.7506162188947200775146484375">
        <ele>458</ele>
        <time>2018-08-16T06:24:22.000Z</time>
      </trkpt>
      <trkpt lat="47.55071011371910572052001953125" lon="8.750922493636608123779296875">
        <ele>458.399993896484375</ele>
        <time>2018-08-16T06:24:27.000Z</time>
      </trkpt>
      <trkpt lat="47.5507638417184352874755859375" lon="8.75098477117717266082763671875">
        <ele>458.399993896484375</ele>
        <time>2018-08-16T06:24:28.000Z</time>
      </trkpt>
      <trkpt lat="47.5510977767407894134521484375" lon="8.75135709531605243682861328125">
        <ele>459</ele>
        <time>2018-08-16T06:24:34.000Z</time>
      </trkpt>
      <trkpt lat="47.5513981841504573822021484375" lon="8.75166303478181362152099609375">
        <ele>459.20001220703125</ele>
        <time>2018-08-16T06:24:39.000Z</time>
      </trkpt>
      <trkpt lat="47.55179389379918575286865234375" lon="8.75196914188563823699951171875">
        <ele>459</ele>
        <time>2018-08-16T06:24:45.000Z</time>
      </trkpt>
      <trkpt lat="47.552143000066280364990234375" lon="8.75214532949030399322509765625">
        <ele>459</ele>
        <time>2018-08-16T06:24:50.000Z</time>
      </trkpt>
      <trkpt lat="47.55228943191468715667724609375" lon="8.7521618418395519256591796875">
        <ele>458.79998779296875</ele>
        <time>2018-08-16T06:24:52.000Z</time>
      </trkpt>
      <trkpt lat="47.55275680683553218841552734375" lon="8.75214926898479461669921875">
        <ele>458.79998779296875</ele>
        <time>2018-08-16T06:24:58.000Z</time>
      </trkpt>
      <trkpt lat="47.5529937632381916046142578125" lon="8.752130158245563507080078125">
        <ele>458.399993896484375</ele>
        <time>2018-08-16T06:25:01.000Z</time>
      </trkpt>
      <trkpt lat="47.5532049871981143951416015625" lon="8.752226717770099639892578125">
        <ele>458</ele>
        <time>2018-08-16T06:25:04.000Z</time>
      </trkpt>
      <trkpt lat="47.55327514372766017913818359375" lon="8.75227910466492176055908203125">
        <ele>457.79998779296875</ele>
        <time>2018-08-16T06:25:05.000Z</time>
      </trkpt>
      <trkpt lat="47.5535027123987674713134765625" lon="8.75241346657276153564453125">
        <ele>457.20001220703125</ele>
        <time>2018-08-16T06:25:08.000Z</time>
      </trkpt>
      <trkpt lat="47.5538621284067630767822265625" lon="8.7525403685867786407470703125">
        <ele>456</ele>
        <time>2018-08-16T06:25:12.000Z</time>
      </trkpt>
      <trkpt lat="47.553964219987392425537109375" lon="8.7525671906769275665283203125">
        <ele>455.79998779296875</ele>
        <time>2018-08-16T06:25:13.000Z</time>
      </trkpt>
      <trkpt lat="47.55416915751993656158447265625" lon="8.75262108631432056427001953125">
        <ele>455</ele>
        <time>2018-08-16T06:25:15.000Z</time>
      </trkpt>
      <trkpt lat="47.5544766895473003387451171875" lon="8.75271881930530071258544921875">
        <ele>453.600006103515625</ele>
        <time>2018-08-16T06:25:18.000Z</time>
      </trkpt>
      <trkpt lat="47.554667294025421142578125" lon="8.7527790851891040802001953125">
        <ele>452.600006103515625</ele>
        <time>2018-08-16T06:25:20.000Z</time>
      </trkpt>
      <trkpt lat="47.5548448227345943450927734375" lon="8.752842955291271209716796875">
        <ele>451.399993896484375</ele>
        <time>2018-08-16T06:25:22.000Z</time>
      </trkpt>
      <trkpt lat="47.55499829538166522979736328125" lon="8.75296424143016338348388671875">
        <ele>450.20001220703125</ele>
        <time>2018-08-16T06:25:24.000Z</time>
      </trkpt>
      <trkpt lat="47.555139027535915374755859375" lon="8.75309969298541545867919921875">
        <ele>449.20001220703125</ele>
        <time>2018-08-16T06:25:26.000Z</time>
      </trkpt>
      <trkpt lat="47.5552055798470973968505859375" lon="8.75317077152431011199951171875">
        <ele>448.79998779296875</ele>
        <time>2018-08-16T06:25:27.000Z</time>
      </trkpt>
      <trkpt lat="47.555284537374973297119140625" lon="8.75352968461811542510986328125">
        <ele>447.79998779296875</ele>
        <time>2018-08-16T06:25:30.000Z</time>
      </trkpt>
      <trkpt lat="47.5552746467292308807373046875" lon="8.75367117114365100860595703125">
        <ele>447.79998779296875</ele>
        <time>2018-08-16T06:25:31.000Z</time>
      </trkpt>
      <trkpt lat="47.5552719645202159881591796875" lon="8.75380964018404483795166015625">
        <ele>447.600006103515625</ele>
        <time>2018-08-16T06:25:32.000Z</time>
      </trkpt>
      <trkpt lat="47.5553366728127002716064453125" lon="8.7543830461800098419189453125">
        <ele>447.399993896484375</ele>
        <time>2018-08-16T06:25:36.000Z</time>
      </trkpt>
      <trkpt lat="47.55535737611353397369384765625" lon="8.7545315735042095184326171875">
        <ele>447.20001220703125</ele>
        <time>2018-08-16T06:25:37.000Z</time>
      </trkpt>
      <trkpt lat="47.5554100982844829559326171875" lon="8.75483122654259204864501953125">
        <ele>445.79998779296875</ele>
        <time>2018-08-16T06:25:39.000Z</time>
      </trkpt>
      <trkpt lat="47.555479668080806732177734375" lon="8.75529608689248561859130859375">
        <ele>444.600006103515625</ele>
        <time>2018-08-16T06:25:42.000Z</time>
      </trkpt>
      <trkpt lat="47.55552400834858417510986328125" lon="8.75578768551349639892578125">
        <ele>443.20001220703125</ele>
        <time>2018-08-16T06:25:45.000Z</time>
      </trkpt>
      <trkpt lat="47.5555348210036754608154296875" lon="8.75612623058259487152099609375">
        <ele>441.79998779296875</ele>
        <time>2018-08-16T06:25:47.000Z</time>
      </trkpt>
      <trkpt lat="47.5555324740707874298095703125" lon="8.75645413063466548919677734375">
        <ele>440.79998779296875</ele>
        <time>2018-08-16T06:25:49.000Z</time>
      </trkpt>
      <trkpt lat="47.55552803166210651397705078125" lon="8.75661372207105159759521484375">
        <ele>440.20001220703125</ele>
        <time>2018-08-16T06:25:50.000Z</time>
      </trkpt>
      <trkpt lat="47.5555130280554294586181640625" lon="8.7569271214306354522705078125">
        <ele>438.79998779296875</ele>
        <time>2018-08-16T06:25:52.000Z</time>
      </trkpt>
      <trkpt lat="47.5554989464581012725830078125" lon="8.757235743105411529541015625">
        <ele>437.600006103515625</ele>
        <time>2018-08-16T06:25:54.000Z</time>
      </trkpt>
      <trkpt lat="47.55548561923205852508544921875" lon="8.75754185020923614501953125">
        <ele>436.600006103515625</ele>
        <time>2018-08-16T06:25:56.000Z</time>
      </trkpt>
      <trkpt lat="47.5554788298904895782470703125" lon="8.75769473612308502197265625">
        <ele>436.20001220703125</ele>
        <time>2018-08-16T06:25:57.000Z</time>
      </trkpt>
      <trkpt lat="47.555471621453762054443359375" lon="8.7578477896749973297119140625">
        <ele>435.79998779296875</ele>
        <time>2018-08-16T06:25:58.000Z</time>
      </trkpt>
      <trkpt lat="47.55545862950384616851806640625" lon="8.75815280713140964508056640625">
        <ele>435.399993896484375</ele>
        <time>2018-08-16T06:26:00.000Z</time>
      </trkpt>
      <trkpt lat="47.555450834333896636962890625" lon="8.75830451957881450653076171875">
        <ele>435</ele>
        <time>2018-08-16T06:26:01.000Z</time>
      </trkpt>
      <trkpt lat="47.5554188154637813568115234375" lon="8.7590537779033184051513671875">
        <ele>433.20001220703125</ele>
        <time>2018-08-16T06:26:06.000Z</time>
      </trkpt>
      <trkpt lat="47.555395849049091339111328125" lon="8.7595013715326786041259765625">
        <ele>432.79998779296875</ele>
        <time>2018-08-16T06:26:09.000Z</time>
      </trkpt>
      <trkpt lat="47.55535662174224853515625" lon="8.76024291850626468658447265625">
        <ele>432</ele>
        <time>2018-08-16T06:26:14.000Z</time>
      </trkpt>
      <trkpt lat="47.5553450547158718109130859375" lon="8.760537207126617431640625">
        <ele>431.79998779296875</ele>
        <time>2018-08-16T06:26:16.000Z</time>
      </trkpt>
      <trkpt lat="47.55532703362405300140380859375" lon="8.7609698809683322906494140625">
        <ele>431</ele>
        <time>2018-08-16T06:26:19.000Z</time>
      </trkpt>
      <trkpt lat="47.555301301181316375732421875" lon="8.76152493059635162353515625">
        <ele>429.79998779296875</ele>
        <time>2018-08-16T06:26:23.000Z</time>
      </trkpt>
      <trkpt lat="47.5552672706544399261474609375" lon="8.76233705319464206695556640625">
        <ele>429.20001220703125</ele>
        <time>2018-08-16T06:26:29.000Z</time>
      </trkpt>
      <trkpt lat="47.55524992011487483978271484375" lon="8.762738294899463653564453125">
        <ele>429</ele>
        <time>2018-08-16T06:26:32.000Z</time>
      </trkpt>
      <trkpt lat="47.5552444718778133392333984375" lon="8.7628705613315105438232421875">
        <ele>428.79998779296875</ele>
        <time>2018-08-16T06:26:33.000Z</time>
      </trkpt>
      <trkpt lat="47.5552230142056941986083984375" lon="8.7633905746042728424072265625">
        <ele>428.399993896484375</ele>
        <time>2018-08-16T06:26:37.000Z</time>
      </trkpt>
      <trkpt lat="47.55520264618098735809326171875" lon="8.7638948298990726470947265625">
        <ele>428.20001220703125</ele>
        <time>2018-08-16T06:26:41.000Z</time>
      </trkpt>
      <trkpt lat="47.55516492761671543121337890625" lon="8.7647655420005321502685546875">
        <ele>428.20001220703125</ele>
        <time>2018-08-16T06:26:48.000Z</time>
      </trkpt>
      <trkpt lat="47.55515067838132381439208984375" lon="8.76552150584757328033447265625">
        <ele>428.20001220703125</ele>
        <time>2018-08-16T06:26:54.000Z</time>
      </trkpt>
      <trkpt lat="47.555188648402690887451171875" lon="8.76644686795771121978759765625">
        <ele>427.79998779296875</ele>
        <time>2018-08-16T06:27:01.000Z</time>
      </trkpt>
      <trkpt lat="47.55519543774425983428955078125" lon="8.7666950561106204986572265625">
        <ele>427.600006103515625</ele>
        <time>2018-08-16T06:27:03.000Z</time>
      </trkpt>
      <trkpt lat="47.55519811995327472686767578125" lon="8.76681282185018062591552734375">
        <ele>427.399993896484375</ele>
        <time>2018-08-16T06:27:04.000Z</time>
      </trkpt>
      <trkpt lat="47.5551995448768138885498046875" lon="8.767636679112911224365234375">
        <ele>426.79998779296875</ele>
        <time>2018-08-16T06:27:11.000Z</time>
      </trkpt>
      <trkpt lat="47.5551834516227245330810546875" lon="8.76786910928785800933837890625">
        <ele>426.600006103515625</ele>
        <time>2018-08-16T06:27:13.000Z</time>
      </trkpt>
      <trkpt lat="47.55517624318599700927734375" lon="8.767986036837100982666015625">
        <ele>426.600006103515625</ele>
        <time>2018-08-16T06:27:14.000Z</time>
      </trkpt>
      <trkpt lat="47.55516341887414455413818359375" lon="8.76821729354560375213623046875">
        <ele>426</ele>
        <time>2018-08-16T06:27:16.000Z</time>
      </trkpt>
      <trkpt lat="47.555145062506198883056640625" lon="8.76844544894993305206298828125">
        <ele>426</ele>
        <time>2018-08-16T06:27:18.000Z</time>
      </trkpt>
      <trkpt lat="47.5551210902631282806396484375" lon="8.76877720467746257781982421875">
        <ele>425.79998779296875</ele>
        <time>2018-08-16T06:27:21.000Z</time>
      </trkpt>
      <trkpt lat="47.555096112191677093505859375" lon="8.769191019237041473388671875">
        <ele>425.399993896484375</ele>
        <time>2018-08-16T06:27:25.000Z</time>
      </trkpt>
      <trkpt lat="47.55513642914593219757080078125" lon="8.7695670314133167266845703125">
        <ele>424.600006103515625</ele>
        <time>2018-08-16T06:27:29.000Z</time>
      </trkpt>
      <trkpt lat="47.55527892149984836578369140625" lon="8.76971103250980377197265625">
        <ele>424.20001220703125</ele>
        <time>2018-08-16T06:27:32.000Z</time>
      </trkpt>
      <trkpt lat="47.5553427077829837799072265625" lon="8.76972385682165622711181640625">
        <ele>424.20001220703125</ele>
        <time>2018-08-16T06:27:33.000Z</time>
      </trkpt>
      <trkpt lat="47.5554089248180389404296875" lon="8.769734166562557220458984375">
        <ele>424.20001220703125</ele>
        <time>2018-08-16T06:27:34.000Z</time>
      </trkpt>
      <trkpt lat="47.5555430352687835693359375" lon="8.769757635891437530517578125">
        <ele>424.20001220703125</ele>
        <time>2018-08-16T06:27:36.000Z</time>
      </trkpt>
      <trkpt lat="47.555677480995655059814453125" lon="8.7697779200971126556396484375">
        <ele>424.20001220703125</ele>
        <time>2018-08-16T06:27:38.000Z</time>
      </trkpt>
      <trkpt lat="47.55587655119597911834716796875" lon="8.76980985514819622039794921875">
        <ele>424.20001220703125</ele>
        <time>2018-08-16T06:27:41.000Z</time>
      </trkpt>
      <trkpt lat="47.5560714304447174072265625" lon="8.769839107990264892578125">
        <ele>424.20001220703125</ele>
        <time>2018-08-16T06:27:44.000Z</time>
      </trkpt>
      <trkpt lat="47.556655816733837127685546875" lon="8.76982427202165126800537109375">
        <ele>425.20001220703125</ele>
        <time>2018-08-16T06:27:52.000Z</time>
      </trkpt>
      <trkpt lat="47.55682772956788539886474609375" lon="8.76982678659260272979736328125">
        <ele>425.20001220703125</ele>
        <time>2018-08-16T06:27:54.000Z</time>
      </trkpt>
      <trkpt lat="47.5574554502964019775390625" lon="8.769899792969226837158203125">
        <ele>424.79998779296875</ele>
        <time>2018-08-16T06:28:01.000Z</time>
      </trkpt>
      <trkpt lat="47.55762887187302112579345703125" lon="8.7699492461979389190673828125">
        <ele>424.20001220703125</ele>
        <time>2018-08-16T06:28:03.000Z</time>
      </trkpt>
      <trkpt lat="47.55779139697551727294921875" lon="8.7700209952890872955322265625">
        <ele>423.399993896484375</ele>
        <time>2018-08-16T06:28:05.000Z</time>
      </trkpt>
      <trkpt lat="47.557869516313076019287109375" lon="8.7700639106333255767822265625">
        <ele>423</ele>
        <time>2018-08-16T06:28:06.000Z</time>
      </trkpt>
      <trkpt lat="47.5580923072993755340576171875" lon="8.77021654509007930755615234375">
        <ele>422</ele>
        <time>2018-08-16T06:28:09.000Z</time>
      </trkpt>
      <trkpt lat="47.558289282023906707763671875" lon="8.77038560807704925537109375">
        <ele>422</ele>
        <time>2018-08-16T06:28:12.000Z</time>
      </trkpt>
      <trkpt lat="47.5587777793407440185546875" lon="8.77081207931041717529296875">
        <ele>422.399993896484375</ele>
        <time>2018-08-16T06:28:21.000Z</time>
      </trkpt>
      <trkpt lat="47.55885095335543155670166015625" lon="8.7708890251815319061279296875">
        <ele>422.79998779296875</ele>
        <time>2018-08-16T06:28:23.000Z</time>
      </trkpt>
      <trkpt lat="47.559018842875957489013671875" lon="8.77099203877151012420654296875">
        <ele>423.79998779296875</ele>
        <time>2018-08-16T06:28:27.000Z</time>
      </trkpt>
      <trkpt lat="47.55915638990700244903564453125" lon="8.7710502929985523223876953125">
        <ele>425.20001220703125</ele>
        <time>2018-08-16T06:28:30.000Z</time>
      </trkpt>
      <trkpt lat="47.55940072238445281982421875" lon="8.7711144983768463134765625">
        <ele>426.20001220703125</ele>
        <time>2018-08-16T06:28:35.000Z</time>
      </trkpt>
      <trkpt lat="47.55973155610263347625732421875" lon="8.7711082957684993743896484375">
        <ele>427.20001220703125</ele>
        <time>2018-08-16T06:28:41.000Z</time>
      </trkpt>
      <trkpt lat="47.5601582787930965423583984375" lon="8.771055154502391815185546875">
        <ele>428.399993896484375</ele>
        <time>2018-08-16T06:28:48.000Z</time>
      </trkpt>
      <trkpt lat="47.5607024319469928741455078125" lon="8.77109907567501068115234375">
        <ele>428.399993896484375</ele>
        <time>2018-08-16T06:28:56.000Z</time>
      </trkpt>
      <trkpt lat="47.56101465784013271331787109375" lon="8.7711954675614833831787109375">
        <ele>428.399993896484375</ele>
        <time>2018-08-16T06:29:00.000Z</time>
      </trkpt>
      <trkpt lat="47.5611845590174198150634765625" lon="8.77125305123627185821533203125">
        <ele>428.20001220703125</ele>
        <time>2018-08-16T06:29:02.000Z</time>
      </trkpt>
      <trkpt lat="47.56136233918368816375732421875" lon="8.77131289802491664886474609375">
        <ele>428</ele>
        <time>2018-08-16T06:29:04.000Z</time>
      </trkpt>
      <trkpt lat="47.5616375170648097991943359375" lon="8.77140291966497898101806640625">
        <ele>427.20001220703125</ele>
        <time>2018-08-16T06:29:07.000Z</time>
      </trkpt>
      <trkpt lat="47.5618165545165538787841796875" lon="8.77146159298717975616455078125">
        <ele>426.399993896484375</ele>
        <time>2018-08-16T06:29:09.000Z</time>
      </trkpt>
      <trkpt lat="47.5619033910334110260009765625" lon="8.77149176783859729766845703125">
        <ele>426</ele>
        <time>2018-08-16T06:29:10.000Z</time>
      </trkpt>
      <trkpt lat="47.5620715320110321044921875" lon="8.7715562246739864349365234375">
        <ele>425</ele>
        <time>2018-08-16T06:29:12.000Z</time>
      </trkpt>
      <trkpt lat="47.56214956752955913543701171875" lon="8.7716041691601276397705078125">
        <ele>424.600006103515625</ele>
        <time>2018-08-16T06:29:13.000Z</time>
      </trkpt>
      <trkpt lat="47.56233631633222103118896484375" lon="8.77183827571570873260498046875">
        <ele>423.399993896484375</ele>
        <time>2018-08-16T06:29:16.000Z</time>
      </trkpt>
      <trkpt lat="47.5627399049699306488037109375" lon="8.77243624068796634674072265625">
        <ele>422.79998779296875</ele>
        <time>2018-08-16T06:29:23.000Z</time>
      </trkpt>
      <trkpt lat="47.56296479143202304840087890625" lon="8.77278408966958522796630859375">
        <ele>422.600006103515625</ele>
        <time>2018-08-16T06:29:27.000Z</time>
      </trkpt>
      <trkpt lat="47.5630721636116504669189453125" lon="8.77295826561748981475830078125">
        <ele>422.399993896484375</ele>
        <time>2018-08-16T06:29:29.000Z</time>
      </trkpt>
      <trkpt lat="47.56317190825939178466796875" lon="8.77312489785254001617431640625">
        <ele>422.399993896484375</ele>
        <time>2018-08-16T06:29:31.000Z</time>
      </trkpt>
      <trkpt lat="47.5632704794406890869140625" lon="8.77326822839677333831787109375">
        <ele>422.399993896484375</ele>
        <time>2018-08-16T06:29:33.000Z</time>
      </trkpt>
      <trkpt lat="47.5633755885064601898193359375" lon="8.77335347235202789306640625">
        <ele>422.399993896484375</ele>
        <time>2018-08-16T06:29:35.000Z</time>
      </trkpt>
      <trkpt lat="47.563469968736171722412109375" lon="8.77340217120945453643798828125">
        <ele>422.399993896484375</ele>
        <time>2018-08-16T06:29:37.000Z</time>
      </trkpt>
      <trkpt lat="47.56353241391479969024658203125" lon="8.77343469299376010894775390625">
        <ele>422.399993896484375</ele>
        <time>2018-08-16T06:29:39.000Z</time>
      </trkpt>
      <trkpt lat="47.56356208585202693939208984375" lon="8.77344408072531223297119140625">
        <ele>422.399993896484375</ele>
        <time>2018-08-16T06:29:40.000Z</time>
      </trkpt>
      <trkpt lat="47.56359628401696681976318359375" lon="8.77344843931496143341064453125">
        <ele>422.600006103515625</ele>
        <time>2018-08-16T06:29:41.000Z</time>
      </trkpt>
      <trkpt lat="47.5636656023561954498291015625" lon="8.7734646163880825042724609375">
        <ele>423.399993896484375</ele>
        <time>2018-08-16T06:29:43.000Z</time>
      </trkpt>
      <trkpt lat="47.56369904614984989166259765625" lon="8.7734783627092838287353515625">
        <ele>423.600006103515625</ele>
        <time>2018-08-16T06:29:44.000Z</time>
      </trkpt>
      <trkpt lat="47.563733160495758056640625" lon="8.7734924443066120147705078125">
        <ele>423.79998779296875</ele>
        <time>2018-08-16T06:29:45.000Z</time>
      </trkpt>
      <trkpt lat="47.56376777775585651397705078125" lon="8.77350367605686187744140625">
        <ele>424</ele>
        <time>2018-08-16T06:29:46.000Z</time>
      </trkpt>
      <trkpt lat="47.56387062370777130126953125" lon="8.77355556003749370574951171875">
        <ele>424.600006103515625</ele>
        <time>2018-08-16T06:29:49.000Z</time>
      </trkpt>
      <trkpt lat="47.56393239833414554595947265625" lon="8.773604929447174072265625">
        <ele>424.79998779296875</ele>
        <time>2018-08-16T06:29:51.000Z</time>
      </trkpt>
      <trkpt lat="47.5640421174466609954833984375" lon="8.77371699549257755279541015625">
        <ele>425.79998779296875</ele>
        <time>2018-08-16T06:29:55.000Z</time>
      </trkpt>
      <trkpt lat="47.56412266753613948822021484375" lon="8.77380081452429294586181640625">
        <ele>426.79998779296875</ele>
        <time>2018-08-16T06:29:58.000Z</time>
      </trkpt>
      <trkpt lat="47.56425208412110805511474609375" lon="8.7739564664661884307861328125">
        <ele>428</ele>
        <time>2018-08-16T06:30:03.000Z</time>
      </trkpt>
      <trkpt lat="47.56430019624531269073486328125" lon="8.77401857636868953704833984375">
        <ele>429.20001220703125</ele>
        <time>2018-08-16T06:30:05.000Z</time>
      </trkpt>
      <trkpt lat="47.5643970072269439697265625" lon="8.77413491718471050262451171875">
        <ele>430.399993896484375</ele>
        <time>2018-08-16T06:30:09.000Z</time>
      </trkpt>
      <trkpt lat="47.5644846819341182708740234375" lon="8.77424254082143306732177734375">
        <ele>431.600006103515625</ele>
        <time>2018-08-16T06:30:13.000Z</time>
      </trkpt>
      <trkpt lat="47.5645711831748485565185546875" lon="8.77434857189655303955078125">
        <ele>432.600006103515625</ele>
        <time>2018-08-16T06:30:17.000Z</time>
      </trkpt>
      <trkpt lat="47.56465810351073741912841796875" lon="8.77445225603878498077392578125">
        <ele>433.600006103515625</ele>
        <time>2018-08-16T06:30:21.000Z</time>
      </trkpt>
      <trkpt lat="47.56474577821791172027587890625" lon="8.7745502404868602752685546875">
        <ele>435</ele>
        <time>2018-08-16T06:30:25.000Z</time>
      </trkpt>
      <trkpt lat="47.5648353807628154754638671875" lon="8.774640597403049468994140625">
        <ele>436.20001220703125</ele>
        <time>2018-08-16T06:30:29.000Z</time>
      </trkpt>
      <trkpt lat="47.56491794250905513763427734375" lon="8.77473522908985614776611328125">
        <ele>437.399993896484375</ele>
        <time>2018-08-16T06:30:33.000Z</time>
      </trkpt>
      <trkpt lat="47.56498566828668117523193359375" lon="8.77480588853359222412109375">
        <ele>438.399993896484375</ele>
        <time>2018-08-16T06:30:36.000Z</time>
      </trkpt>
      <trkpt lat="47.5650455988943576812744140625" lon="8.77488392405211925506591796875">
        <ele>439.399993896484375</ele>
        <time>2018-08-16T06:30:39.000Z</time>
      </trkpt>
      <trkpt lat="47.5651284120976924896240234375" lon="8.7749736942350864410400390625">
        <ele>440.600006103515625</ele>
        <time>2018-08-16T06:30:43.000Z</time>
      </trkpt>
      <trkpt lat="47.5652092136442661285400390625" lon="8.7750712595880031585693359375">
        <ele>441.79998779296875</ele>
        <time>2018-08-16T06:30:47.000Z</time>
      </trkpt>
      <trkpt lat="47.56530066020786762237548828125" lon="8.7751671485602855682373046875">
        <ele>443</ele>
        <time>2018-08-16T06:30:51.000Z</time>
      </trkpt>
      <trkpt lat="47.56536369211971759796142578125" lon="8.77523462288081645965576171875">
        <ele>444</ele>
        <time>2018-08-16T06:30:54.000Z</time>
      </trkpt>
      <trkpt lat="47.56541951559484004974365234375" lon="8.7752975709736347198486328125">
        <ele>445.20001220703125</ele>
        <time>2018-08-16T06:30:57.000Z</time>
      </trkpt>
      <trkpt lat="47.56550182588398456573486328125" lon="8.77538851462304592132568359375">
        <ele>446.600006103515625</ele>
        <time>2018-08-16T06:31:01.000Z</time>
      </trkpt>
      <trkpt lat="47.5655686296522617340087890625" lon="8.7754477746784687042236328125">
        <ele>447.79998779296875</ele>
        <time>2018-08-16T06:31:04.000Z</time>
      </trkpt>
      <trkpt lat="47.56566259078681468963623046875" lon="8.775521032512187957763671875">
        <ele>449.20001220703125</ele>
        <time>2018-08-16T06:31:08.000Z</time>
      </trkpt>
      <trkpt lat="47.56578714586794376373291015625" lon="8.775568641722202301025390625">
        <ele>450.20001220703125</ele>
        <time>2018-08-16T06:31:12.000Z</time>
      </trkpt>
      <trkpt lat="47.56592947058379650115966796875" lon="8.77561390399932861328125">
        <ele>451.399993896484375</ele>
        <time>2018-08-16T06:31:16.000Z</time>
      </trkpt>
      <trkpt lat="47.56619609892368316650390625" lon="8.77570048905909061431884765625">
        <ele>452.20001220703125</ele>
        <time>2018-08-16T06:31:22.000Z</time>
      </trkpt>
      <trkpt lat="47.566249072551727294921875" lon="8.7757203541696071624755859375">
        <ele>452.399993896484375</ele>
        <time>2018-08-16T06:31:23.000Z</time>
      </trkpt>
      <trkpt lat="47.56642467342317104339599609375" lon="8.77578229643404483795166015625">
        <ele>452.399993896484375</ele>
        <time>2018-08-16T06:31:26.000Z</time>
      </trkpt>
      <trkpt lat="47.5667045451700687408447265625" lon="8.77587416209280490875244140625">
        <ele>452.399993896484375</ele>
        <time>2018-08-16T06:31:30.000Z</time>
      </trkpt>
      <trkpt lat="47.56694837473332881927490234375" lon="8.77595655620098114013671875">
        <ele>451.79998779296875</ele>
        <time>2018-08-16T06:31:33.000Z</time>
      </trkpt>
      <trkpt lat="47.567125819623470306396484375" lon="8.77601313404738903045654296875">
        <ele>451.399993896484375</ele>
        <time>2018-08-16T06:31:35.000Z</time>
      </trkpt>
      <trkpt lat="47.56721709854900836944580078125" lon="8.77603995613753795623779296875">
        <ele>451</ele>
        <time>2018-08-16T06:31:36.000Z</time>
      </trkpt>
      <trkpt lat="47.56730963476002216339111328125" lon="8.7760677002370357513427734375">
        <ele>450.600006103515625</ele>
        <time>2018-08-16T06:31:37.000Z</time>
      </trkpt>
      <trkpt lat="47.56740367971360683441162109375" lon="8.7760958634316921234130859375">
        <ele>450.20001220703125</ele>
        <time>2018-08-16T06:31:38.000Z</time>
      </trkpt>
      <trkpt lat="47.56749973632395267486572265625" lon="8.77612444572150707244873046875">
        <ele>449.79998779296875</ele>
        <time>2018-08-16T06:31:39.000Z</time>
      </trkpt>
      <trkpt lat="47.5676936097443103790283203125" lon="8.77618730999529361724853515625">
        <ele>449</ele>
        <time>2018-08-16T06:31:41.000Z</time>
      </trkpt>
      <trkpt lat="47.567793019115924835205078125" lon="8.77621815539896488189697265625">
        <ele>448.399993896484375</ele>
        <time>2018-08-16T06:31:42.000Z</time>
      </trkpt>
      <trkpt lat="47.5678914226591587066650390625" lon="8.7762487493455410003662109375">
        <ele>447.79998779296875</ele>
        <time>2018-08-16T06:31:43.000Z</time>
      </trkpt>
      <trkpt lat="47.567991502583026885986328125" lon="8.77627867273986339569091796875">
        <ele>447.399993896484375</ele>
        <time>2018-08-16T06:31:44.000Z</time>
      </trkpt>
      <trkpt lat="47.568194009363651275634765625" lon="8.77632804214954376220703125">
        <ele>446.399993896484375</ele>
        <time>2018-08-16T06:31:46.000Z</time>
      </trkpt>
      <trkpt lat="47.5682969391345977783203125" lon="8.7763540260493755340576171875">
        <ele>446</ele>
        <time>2018-08-16T06:31:47.000Z</time>
      </trkpt>
      <trkpt lat="47.56839911453425884246826171875" lon="8.77638076432049274444580078125">
        <ele>445.79998779296875</ele>
        <time>2018-08-16T06:31:48.000Z</time>
      </trkpt>
      <trkpt lat="47.5686052255332469940185546875" lon="8.77643407322466373443603515625">
        <ele>444.600006103515625</ele>
        <time>2018-08-16T06:31:50.000Z</time>
      </trkpt>
      <trkpt lat="47.56871025077998638153076171875" lon="8.7764606438577175140380859375">
        <ele>444</ele>
        <time>2018-08-16T06:31:51.000Z</time>
      </trkpt>
      <trkpt lat="47.56881770677864551544189453125" lon="8.77648838795721530914306640625">
        <ele>443.399993896484375</ele>
        <time>2018-08-16T06:31:52.000Z</time>
      </trkpt>
      <trkpt lat="47.5690425932407379150390625" lon="8.7765481509268283843994140625">
        <ele>442.600006103515625</ele>
        <time>2018-08-16T06:31:54.000Z</time>
      </trkpt>
      <trkpt lat="47.56916019134223461151123046875" lon="8.77657924778759479522705078125">
        <ele>442.20001220703125</ele>
        <time>2018-08-16T06:31:55.000Z</time>
      </trkpt>
      <trkpt lat="47.56928038783371448516845703125" lon="8.7766108475625514984130859375">
        <ele>441.79998779296875</ele>
        <time>2018-08-16T06:31:56.000Z</time>
      </trkpt>
      <trkpt lat="47.5694008357822895050048828125" lon="8.7766430340707302093505859375">
        <ele>441.20001220703125</ele>
        <time>2018-08-16T06:31:57.000Z</time>
      </trkpt>
      <trkpt lat="47.56952161900699138641357421875" lon="8.77667547203600406646728515625">
        <ele>441</ele>
        <time>2018-08-16T06:31:58.000Z</time>
      </trkpt>
      <trkpt lat="47.56988505832850933074951171875" lon="8.7767690978944301605224609375">
        <ele>439.600006103515625</ele>
        <time>2018-08-16T06:32:01.000Z</time>
      </trkpt>
      <trkpt lat="47.57012880407273769378662109375" lon="8.77682735212147235870361328125">
        <ele>438.399993896484375</ele>
        <time>2018-08-16T06:32:03.000Z</time>
      </trkpt>
      <trkpt lat="47.57037288509309291839599609375" lon="8.77688862383365631103515625">
        <ele>437</ele>
        <time>2018-08-16T06:32:05.000Z</time>
      </trkpt>
      <trkpt lat="47.570494674146175384521484375" lon="8.77692206762731075286865234375">
        <ele>436.600006103515625</ele>
        <time>2018-08-16T06:32:06.000Z</time>
      </trkpt>
      <trkpt lat="47.57061512209475040435791015625" lon="8.77695492468774318695068359375">
        <ele>436</ele>
        <time>2018-08-16T06:32:07.000Z</time>
      </trkpt>
      <trkpt lat="47.5708555988967418670654296875" lon="8.77701678313314914703369140625">
        <ele>434.600006103515625</ele>
        <time>2018-08-16T06:32:09.000Z</time>
      </trkpt>
      <trkpt lat="47.57097587920725345611572265625" lon="8.7770457006990909576416015625">
        <ele>434</ele>
        <time>2018-08-16T06:32:10.000Z</time>
      </trkpt>
      <trkpt lat="47.5710966624319553375244140625" lon="8.77707042731344699859619140625">
        <ele>433.399993896484375</ele>
        <time>2018-08-16T06:32:11.000Z</time>
      </trkpt>
      <trkpt lat="47.5713427551090717315673828125" lon="8.77710127271711826324462890625">
        <ele>432.20001220703125</ele>
        <time>2018-08-16T06:32:13.000Z</time>
      </trkpt>
      <trkpt lat="47.5715958885848522186279296875" lon="8.7771281786262989044189453125">
        <ele>431.20001220703125</ele>
        <time>2018-08-16T06:32:15.000Z</time>
      </trkpt>
      <trkpt lat="47.57184910587966442108154296875" lon="8.77711887471377849578857421875">
        <ele>430</ele>
        <time>2018-08-16T06:32:17.000Z</time>
      </trkpt>
      <trkpt lat="47.5720967911183834075927734375" lon="8.77706707455217838287353515625">
        <ele>429</ele>
        <time>2018-08-16T06:32:19.000Z</time>
      </trkpt>
      <trkpt lat="47.57232083939015865325927734375" lon="8.77700605429708957672119140625">
        <ele>427.79998779296875</ele>
        <time>2018-08-16T06:32:21.000Z</time>
      </trkpt>
      <trkpt lat="47.57252099923789501190185546875" lon="8.77697453834116458892822265625">
        <ele>426</ele>
        <time>2018-08-16T06:32:23.000Z</time>
      </trkpt>
      <trkpt lat="47.57261051796376705169677734375" lon="8.776979148387908935546875">
        <ele>423.600006103515625</ele>
        <time>2018-08-16T06:32:24.000Z</time>
      </trkpt>
      <trkpt lat="47.57269567809998989105224609375" lon="8.77700337208807468414306640625">
        <ele>422.399993896484375</ele>
        <time>2018-08-16T06:32:25.000Z</time>
      </trkpt>
      <trkpt lat="47.5727810896933078765869140625" lon="8.7770564295351505279541015625">
        <ele>421.20001220703125</ele>
        <time>2018-08-16T06:32:26.000Z</time>
      </trkpt>
      <trkpt lat="47.57286046631634235382080078125" lon="8.777134716510772705078125">
        <ele>420</ele>
        <time>2018-08-16T06:32:27.000Z</time>
      </trkpt>
      <trkpt lat="47.57293338887393474578857421875" lon="8.777228258550167083740234375">
        <ele>418.79998779296875</ele>
        <time>2018-08-16T06:32:28.000Z</time>
      </trkpt>
      <trkpt lat="47.5729980133473873138427734375" lon="8.77733143977820873260498046875">
        <ele>417.79998779296875</ele>
        <time>2018-08-16T06:32:29.000Z</time>
      </trkpt>
      <trkpt lat="47.5730617158114910125732421875" lon="8.77744308672845363616943359375">
        <ele>416.600006103515625</ele>
        <time>2018-08-16T06:32:30.000Z</time>
      </trkpt>
      <trkpt lat="47.5731170363724231719970703125" lon="8.77755825407803058624267578125">
        <ele>415.399993896484375</ele>
        <time>2018-08-16T06:32:31.000Z</time>
      </trkpt>
      <trkpt lat="47.57316456176340579986572265625" lon="8.7776783667504787445068359375">
        <ele>414</ele>
        <time>2018-08-16T06:32:32.000Z</time>
      </trkpt>
      <trkpt lat="47.57319934666156768798828125" lon="8.777811639010906219482421875">
        <ele>413</ele>
        <time>2018-08-16T06:32:33.000Z</time>
      </trkpt>
      <trkpt lat="47.57321736775338649749755859375" lon="8.77796150743961334228515625">
        <ele>412</ele>
        <time>2018-08-16T06:32:34.000Z</time>
      </trkpt>
      <trkpt lat="47.57322222925722599029541015625" lon="8.77812017686665058135986328125">
        <ele>410.79998779296875</ele>
        <time>2018-08-16T06:32:35.000Z</time>
      </trkpt>
      <trkpt lat="47.57322055287659168243408203125" lon="8.7782785110175609588623046875">
        <ele>409.79998779296875</ele>
        <time>2018-08-16T06:32:36.000Z</time>
      </trkpt>
      <trkpt lat="47.573217116296291351318359375" lon="8.7784267030656337738037109375">
        <ele>408.79998779296875</ele>
        <time>2018-08-16T06:32:37.000Z</time>
      </trkpt>
      <trkpt lat="47.5732156075537204742431640625" lon="8.77856374718248844146728515625">
        <ele>407.79998779296875</ele>
        <time>2018-08-16T06:32:38.000Z</time>
      </trkpt>
      <trkpt lat="47.5732102431356906890869140625" lon="8.77869685180485248565673828125">
        <ele>406.79998779296875</ele>
        <time>2018-08-16T06:32:39.000Z</time>
      </trkpt>
      <trkpt lat="47.57319532334804534912109375" lon="8.77883079461753368377685546875">
        <ele>405.600006103515625</ele>
        <time>2018-08-16T06:32:40.000Z</time>
      </trkpt>
      <trkpt lat="47.57317109964787960052490234375" lon="8.77897127531468868255615234375">
        <ele>404.600006103515625</ele>
        <time>2018-08-16T06:32:41.000Z</time>
      </trkpt>
      <trkpt lat="47.5731441937386989593505859375" lon="8.779115192592144012451171875">
        <ele>403.399993896484375</ele>
        <time>2018-08-16T06:32:42.000Z</time>
      </trkpt>
      <trkpt lat="47.57312022149562835693359375" lon="8.7792630493640899658203125">
        <ele>402.20001220703125</ele>
        <time>2018-08-16T06:32:43.000Z</time>
      </trkpt>
      <trkpt lat="47.573103122413158416748046875" lon="8.77941920422017574310302734375">
        <ele>401.20001220703125</ele>
        <time>2018-08-16T06:32:44.000Z</time>
      </trkpt>
      <trkpt lat="47.57309817709028720855712890625" lon="8.77958315424621105194091796875">
        <ele>400</ele>
        <time>2018-08-16T06:32:45.000Z</time>
      </trkpt>
      <trkpt lat="47.5731110014021396636962890625" lon="8.77974844537675380706787109375">
        <ele>398.79998779296875</ele>
        <time>2018-08-16T06:32:46.000Z</time>
      </trkpt>
      <trkpt lat="47.573136650025844573974609375" lon="8.7799123115837574005126953125">
        <ele>397.600006103515625</ele>
        <time>2018-08-16T06:32:47.000Z</time>
      </trkpt>
      <trkpt lat="47.57320110686123371124267578125" lon="8.78023543395102024078369140625">
        <ele>395.79998779296875</ele>
        <time>2018-08-16T06:32:49.000Z</time>
      </trkpt>
      <trkpt lat="47.57326732389628887176513671875" lon="8.7805329076945781707763671875">
        <ele>393.600006103515625</ele>
        <time>2018-08-16T06:32:51.000Z</time>
      </trkpt>
      <trkpt lat="47.57331602275371551513671875" lon="8.78077673725783824920654296875">
        <ele>391.79998779296875</ele>
        <time>2018-08-16T06:32:53.000Z</time>
      </trkpt>
      <trkpt lat="47.57342004217207431793212890625" lon="8.7809365801513195037841796875">
        <ele>390.20001220703125</ele>
        <time>2018-08-16T06:32:55.000Z</time>
      </trkpt>
      <trkpt lat="47.57357058115303516387939453125" lon="8.7810130231082439422607421875">
        <ele>388.399993896484375</ele>
        <time>2018-08-16T06:32:57.000Z</time>
      </trkpt>
      <trkpt lat="47.5736528076231479644775390625" lon="8.78104068338871002197265625">
        <ele>387.79998779296875</ele>
        <time>2018-08-16T06:32:58.000Z</time>
      </trkpt>
      <trkpt lat="47.573740147054195404052734375" lon="8.78106708638370037078857421875">
        <ele>387.20001220703125</ele>
        <time>2018-08-16T06:32:59.000Z</time>
      </trkpt>
      <trkpt lat="47.5739220343530178070068359375" lon="8.7811079062521457672119140625">
        <ele>386.20001220703125</ele>
        <time>2018-08-16T06:33:01.000Z</time>
      </trkpt>
      <trkpt lat="47.57411062717437744140625" lon="8.78114017657935619354248046875">
        <ele>385</ele>
        <time>2018-08-16T06:33:03.000Z</time>
      </trkpt>
      <trkpt lat="47.57430349476635456085205078125" lon="8.78117479383945465087890625">
        <ele>384.399993896484375</ele>
        <time>2018-08-16T06:33:05.000Z</time>
      </trkpt>
      <trkpt lat="47.5745023973286151885986328125" lon="8.78121678717434406280517578125">
        <ele>383.79998779296875</ele>
        <time>2018-08-16T06:33:07.000Z</time>
      </trkpt>
      <trkpt lat="47.5748152099549770355224609375" lon="8.78127680160105228424072265625">
        <ele>382.399993896484375</ele>
        <time>2018-08-16T06:33:10.000Z</time>
      </trkpt>
      <trkpt lat="47.575030960142612457275390625" lon="8.78131519071757793426513671875">
        <ele>381.20001220703125</ele>
        <time>2018-08-16T06:33:12.000Z</time>
      </trkpt>
      <trkpt lat="47.57524947635829448699951171875" lon="8.78135072998702526092529296875">
        <ele>380</ele>
        <time>2018-08-16T06:33:14.000Z</time>
      </trkpt>
      <trkpt lat="47.57546841166913509368896484375" lon="8.781379647552967071533203125">
        <ele>378.79998779296875</ele>
        <time>2018-08-16T06:33:16.000Z</time>
      </trkpt>
      <trkpt lat="47.57568147964775562286376953125" lon="8.78139800392091274261474609375">
        <ele>377.20001220703125</ele>
        <time>2018-08-16T06:33:18.000Z</time>
      </trkpt>
      <trkpt lat="47.5758860819041728973388671875" lon="8.7814146839082241058349609375">
        <ele>376.20001220703125</ele>
        <time>2018-08-16T06:33:20.000Z</time>
      </trkpt>
      <trkpt lat="47.57618472911417484283447265625" lon="8.781450726091861724853515625">
        <ele>374.79998779296875</ele>
        <time>2018-08-16T06:33:23.000Z</time>
      </trkpt>
      <trkpt lat="47.5762843899428844451904296875" lon="8.78146313130855560302734375">
        <ele>374.20001220703125</ele>
        <time>2018-08-16T06:33:24.000Z</time>
      </trkpt>
      <trkpt lat="47.576483376324176788330078125" lon="8.78148484043776988983154296875">
        <ele>373.600006103515625</ele>
        <time>2018-08-16T06:33:26.000Z</time>
      </trkpt>
      <trkpt lat="47.57667758502066135406494140625" lon="8.7815026938915252685546875">
        <ele>373</ele>
        <time>2018-08-16T06:33:28.000Z</time>
      </trkpt>
      <trkpt lat="47.5769586302340030670166015625" lon="8.781529851257801055908203125">
        <ele>372.600006103515625</ele>
        <time>2018-08-16T06:33:31.000Z</time>
      </trkpt>
      <trkpt lat="47.5775768794119358062744140625" lon="8.7816094793379306793212890625">
        <ele>371.600006103515625</ele>
        <time>2018-08-16T06:33:38.000Z</time>
      </trkpt>
      <trkpt lat="47.577759437263011932373046875" lon="8.781628422439098358154296875">
        <ele>371.399993896484375</ele>
        <time>2018-08-16T06:33:40.000Z</time>
      </trkpt>
      <trkpt lat="47.5778508000075817108154296875" lon="8.78163822926580905914306640625">
        <ele>371.20001220703125</ele>
        <time>2018-08-16T06:33:41.000Z</time>
      </trkpt>
      <trkpt lat="47.57846695370972156524658203125" lon="8.781706206500530242919921875">
        <ele>370.20001220703125</ele>
        <time>2018-08-16T06:33:48.000Z</time>
      </trkpt>
      <trkpt lat="47.57855169475078582763671875" lon="8.78171525895595550537109375">
        <ele>370.20001220703125</ele>
        <time>2018-08-16T06:33:49.000Z</time>
      </trkpt>
      <trkpt lat="47.57913239300251007080078125" lon="8.78177669830620288848876953125">
        <ele>369.399993896484375</ele>
        <time>2018-08-16T06:33:56.000Z</time>
      </trkpt>
      <trkpt lat="47.57929776795208454132080078125" lon="8.78178893588483333587646484375">
        <ele>369</ele>
        <time>2018-08-16T06:33:58.000Z</time>
      </trkpt>
      <trkpt lat="47.57937739603221416473388671875" lon="8.7818042747676372528076171875">
        <ele>369</ele>
        <time>2018-08-16T06:33:59.000Z</time>
      </trkpt>
      <trkpt lat="47.579923979938030242919921875" lon="8.78187627531588077545166015625">
        <ele>368.20001220703125</ele>
        <time>2018-08-16T06:34:06.000Z</time>
      </trkpt>
      <trkpt lat="47.580092288553714752197265625" lon="8.781897313892841339111328125">
        <ele>368.20001220703125</ele>
        <time>2018-08-16T06:34:08.000Z</time>
      </trkpt>
      <trkpt lat="47.58026654832065105438232421875" lon="8.78192086704075336456298828125">
        <ele>368</ele>
        <time>2018-08-16T06:34:10.000Z</time>
      </trkpt>
      <trkpt lat="47.58044206537306308746337890625" lon="8.78194148652255535125732421875">
        <ele>367.79998779296875</ele>
        <time>2018-08-16T06:34:12.000Z</time>
      </trkpt>
      <trkpt lat="47.580622695386409759521484375" lon="8.7819528020918369293212890625">
        <ele>367.600006103515625</ele>
        <time>2018-08-16T06:34:14.000Z</time>
      </trkpt>
      <trkpt lat="47.58117757737636566162109375" lon="8.78197987563908100128173828125">
        <ele>367.399993896484375</ele>
        <time>2018-08-16T06:34:20.000Z</time>
      </trkpt>
      <trkpt lat="47.5816350616514682769775390625" lon="8.78199479542672634124755859375">
        <ele>366.79998779296875</ele>
        <time>2018-08-16T06:34:25.000Z</time>
      </trkpt>
      <trkpt lat="47.58207100443542003631591796875" lon="8.7820007465779781341552734375">
        <ele>366.399993896484375</ele>
        <time>2018-08-16T06:34:30.000Z</time>
      </trkpt>
      <trkpt lat="47.5825822167098522186279296875" lon="8.7820087932050228118896484375">
        <ele>365.79998779296875</ele>
        <time>2018-08-16T06:34:36.000Z</time>
      </trkpt>
      <trkpt lat="47.5831612385809421539306640625" lon="8.78202228806912899017333984375">
        <ele>365.399993896484375</ele>
        <time>2018-08-16T06:34:43.000Z</time>
      </trkpt>
      <trkpt lat="47.5837330520153045654296875" lon="8.782032430171966552734375">
        <ele>365.20001220703125</ele>
        <time>2018-08-16T06:34:50.000Z</time>
      </trkpt>
      <trkpt lat="47.58429740555584430694580078125" lon="8.78204877488315105438232421875">
        <ele>365.20001220703125</ele>
        <time>2018-08-16T06:34:57.000Z</time>
      </trkpt>
      <trkpt lat="47.58486234582960605621337890625" lon="8.7820674665272235870361328125">
        <ele>365</ele>
        <time>2018-08-16T06:35:04.000Z</time>
      </trkpt>
      <trkpt lat="47.585436590015888214111328125" lon="8.78208347596228122711181640625">
        <ele>365</ele>
        <time>2018-08-16T06:35:11.000Z</time>
      </trkpt>
      <trkpt lat="47.585850320756435394287109375" lon="8.782101161777973175048828125">
        <ele>365.20001220703125</ele>
        <time>2018-08-16T06:35:16.000Z</time>
      </trkpt>
      <trkpt lat="47.5863326154649257659912109375" lon="8.78210711292922496795654296875">
        <ele>365.20001220703125</ele>
        <time>2018-08-16T06:35:22.000Z</time>
      </trkpt>
      <trkpt lat="47.58663855493068695068359375" lon="8.7821184284985065460205078125">
        <ele>365.20001220703125</ele>
        <time>2018-08-16T06:35:26.000Z</time>
      </trkpt>
      <trkpt lat="47.58686251938343048095703125" lon="8.7821197696030139923095703125">
        <ele>365.20001220703125</ele>
        <time>2018-08-16T06:35:29.000Z</time>
      </trkpt>
      <trkpt lat="47.5872234441339969635009765625" lon="8.782133348286151885986328125">
        <ele>365.399993896484375</ele>
        <time>2018-08-16T06:35:34.000Z</time>
      </trkpt>
      <trkpt lat="47.58729477412998676300048828125" lon="8.7821361981332302093505859375">
        <ele>365.399993896484375</ele>
        <time>2018-08-16T06:35:35.000Z</time>
      </trkpt>
      <trkpt lat="47.58776843547821044921875" lon="8.782193362712860107421875">
        <ele>365.79998779296875</ele>
        <time>2018-08-16T06:35:42.000Z</time>
      </trkpt>
      <trkpt lat="47.58794219233095645904541015625" lon="8.78225044347345829010009765625">
        <ele>366</ele>
        <time>2018-08-16T06:35:45.000Z</time>
      </trkpt>
      <trkpt lat="47.58826422505080699920654296875" lon="8.78241221420466899871826171875">
        <ele>367</ele>
        <time>2018-08-16T06:35:51.000Z</time>
      </trkpt>
      <trkpt lat="47.58850193582475185394287109375" lon="8.78253643400967121124267578125">
        <ele>368.20001220703125</ele>
        <time>2018-08-16T06:35:55.000Z</time>
      </trkpt>
      <trkpt lat="47.58874970488250255584716796875" lon="8.7826629169285297393798828125">
        <ele>368.79998779296875</ele>
        <time>2018-08-16T06:35:59.000Z</time>
      </trkpt>
      <trkpt lat="47.5888109765946865081787109375" lon="8.78269694745540618896484375">
        <ele>368.79998779296875</ele>
        <time>2018-08-16T06:36:00.000Z</time>
      </trkpt>
      <trkpt lat="47.5889370404183864593505859375" lon="8.78276391886174678802490234375">
        <ele>369.20001220703125</ele>
        <time>2018-08-16T06:36:02.000Z</time>
      </trkpt>
      <trkpt lat="47.58906469680368900299072265625" lon="8.7828288786113262176513671875">
        <ele>369.20001220703125</ele>
        <time>2018-08-16T06:36:04.000Z</time>
      </trkpt>
      <trkpt lat="47.5896317325532436370849609375" lon="8.78311009146273136138916015625">
        <ele>369.20001220703125</ele>
        <time>2018-08-16T06:36:12.000Z</time>
      </trkpt>
      <trkpt lat="47.5900833494961261749267578125" lon="8.7833482213318347930908203125">
        <ele>368.79998779296875</ele>
        <time>2018-08-16T06:36:18.000Z</time>
      </trkpt>
      <trkpt lat="47.5903649814426898956298828125" lon="8.7834749557077884674072265625">
        <ele>368.20001220703125</ele>
        <time>2018-08-16T06:36:22.000Z</time>
      </trkpt>
      <trkpt lat="47.59078198112547397613525390625" lon="8.78329432569444179534912109375">
        <ele>368.20001220703125</ele>
        <time>2018-08-16T06:36:29.000Z</time>
      </trkpt>
      <trkpt lat="47.591071911156177520751953125" lon="8.7831442058086395263671875">
        <ele>369.600006103515625</ele>
        <time>2018-08-16T06:36:37.000Z</time>
      </trkpt>
      <trkpt lat="47.59112731553614139556884765625" lon="8.78314512781798839569091796875">
        <ele>370.20001220703125</ele>
        <time>2018-08-16T06:36:39.000Z</time>
      </trkpt>
      <trkpt lat="47.5911964662373065948486328125" lon="8.78315501846373081207275390625">
        <ele>371</ele>
        <time>2018-08-16T06:36:42.000Z</time>
      </trkpt>
      <trkpt lat="47.59121867828071117401123046875" lon="8.7831601314246654510498046875">
        <ele>371.399993896484375</ele>
        <time>2018-08-16T06:36:43.000Z</time>
      </trkpt>
      <trkpt lat="47.5913102924823760986328125" lon="8.78317262046039104461669921875">
        <ele>372.79998779296875</ele>
        <time>2018-08-16T06:36:47.000Z</time>
      </trkpt>
      <trkpt lat="47.59140257723629474639892578125" lon="8.783183433115482330322265625">
        <ele>374</ele>
        <time>2018-08-16T06:36:51.000Z</time>
      </trkpt>
      <trkpt lat="47.59147281758487224578857421875" lon="8.78318913280963897705078125">
        <ele>375</ele>
        <time>2018-08-16T06:36:54.000Z</time>
      </trkpt>
      <trkpt lat="47.5915421359241008758544921875" lon="8.783183433115482330322265625">
        <ele>376.20001220703125</ele>
        <time>2018-08-16T06:36:57.000Z</time>
      </trkpt>
      <trkpt lat="47.59163743816316127777099609375" lon="8.7831723690032958984375">
        <ele>377.600006103515625</ele>
        <time>2018-08-16T06:37:01.000Z</time>
      </trkpt>
      <trkpt lat="47.59170482866466045379638671875" lon="8.78316474147140979766845703125">
        <ele>378.600006103515625</ele>
        <time>2018-08-16T06:37:04.000Z</time>
      </trkpt>
      <trkpt lat="47.591794766485691070556640625" lon="8.7831483967602252960205078125">
        <ele>379.79998779296875</ele>
        <time>2018-08-16T06:37:08.000Z</time>
      </trkpt>
      <trkpt lat="47.5918888114392757415771484375" lon="8.78313607536256313323974609375">
        <ele>381</ele>
        <time>2018-08-16T06:37:12.000Z</time>
      </trkpt>
      <trkpt lat="47.59197925217449665069580078125" lon="8.78312484361231327056884765625">
        <ele>382.20001220703125</ele>
        <time>2018-08-16T06:37:16.000Z</time>
      </trkpt>
      <trkpt lat="47.59207111783325672149658203125" lon="8.7831115163862705230712890625">
        <ele>383.399993896484375</ele>
        <time>2018-08-16T06:37:20.000Z</time>
      </trkpt>
      <trkpt lat="47.5921644084155559539794921875" lon="8.7831014581024646759033203125">
        <ele>384.600006103515625</ele>
        <time>2018-08-16T06:37:24.000Z</time>
      </trkpt>
      <trkpt lat="47.59228250943124294281005859375" lon="8.78310120664536952972412109375">
        <ele>385.79998779296875</ele>
        <time>2018-08-16T06:37:29.000Z</time>
      </trkpt>
      <trkpt lat="47.5923900492489337921142578125" lon="8.7831272743642330169677734375">
        <ele>387</ele>
        <time>2018-08-16T06:37:33.000Z</time>
      </trkpt>
      <trkpt lat="47.59249272756278514862060546875" lon="8.78314797766506671905517578125">
        <ele>388.20001220703125</ele>
        <time>2018-08-16T06:37:37.000Z</time>
      </trkpt>
      <trkpt lat="47.59261309169232845306396484375" lon="8.783172704279422760009765625">
        <ele>389.20001220703125</ele>
        <time>2018-08-16T06:37:42.000Z</time>
      </trkpt>
      <trkpt lat="47.5927300192415714263916015625" lon="8.783209584653377532958984375">
        <ele>390.20001220703125</ele>
        <time>2018-08-16T06:37:47.000Z</time>
      </trkpt>
      <trkpt lat="47.59280118159949779510498046875" lon="8.7832255102694034576416015625">
        <ele>391.399993896484375</ele>
        <time>2018-08-16T06:37:50.000Z</time>
      </trkpt>
      <trkpt lat="47.5928956456482410430908203125" lon="8.78325350582599639892578125">
        <ele>392.399993896484375</ele>
        <time>2018-08-16T06:37:54.000Z</time>
      </trkpt>
      <trkpt lat="47.59296714328229427337646484375" lon="8.78327789716422557830810546875">
        <ele>393.399993896484375</ele>
        <time>2018-08-16T06:37:57.000Z</time>
      </trkpt>
      <trkpt lat="47.5930813886225223541259765625" lon="8.78330622799694538116455078125">
        <ele>394.600006103515625</ele>
        <time>2018-08-16T06:38:02.000Z</time>
      </trkpt>
      <trkpt lat="47.5931705720722675323486328125" lon="8.783279992640018463134765625">
        <ele>395.79998779296875</ele>
        <time>2018-08-16T06:38:06.000Z</time>
      </trkpt>
      <trkpt lat="47.593188844621181488037109375" lon="8.78325761295855045318603515625">
        <ele>396</ele>
        <time>2018-08-16T06:38:07.000Z</time>
      </trkpt>
      <trkpt lat="47.593219690024852752685546875" lon="8.78314965404570102691650390625">
        <ele>396.79998779296875</ele>
        <time>2018-08-16T06:38:10.000Z</time>
      </trkpt>
      <trkpt lat="47.59322480298578739166259765625" lon="8.78310455940663814544677734375">
        <ele>397.20001220703125</ele>
        <time>2018-08-16T06:38:11.000Z</time>
      </trkpt>
      <trkpt lat="47.59323519654572010040283203125" lon="8.7830154597759246826171875">
        <ele>397.79998779296875</ele>
        <time>2018-08-16T06:38:13.000Z</time>
      </trkpt>
      <trkpt lat="47.593259923160076141357421875" lon="8.78284706734120845794677734375">
        <ele>398.79998779296875</ele>
        <time>2018-08-16T06:38:17.000Z</time>
      </trkpt>
      <trkpt lat="47.59328867308795452117919921875" lon="8.78263399936258792877197265625">
        <ele>399.79998779296875</ele>
        <time>2018-08-16T06:38:22.000Z</time>
      </trkpt>
      <trkpt lat="47.59332303889095783233642578125" lon="8.78241799771785736083984375">
        <ele>401</ele>
        <time>2018-08-16T06:38:27.000Z</time>
      </trkpt>
      <trkpt lat="47.5933514535427093505859375" lon="8.782204091548919677734375">
        <ele>402.20001220703125</ele>
        <time>2018-08-16T06:38:32.000Z</time>
      </trkpt>
      <trkpt lat="47.59338037110865116119384765625" lon="8.78198959864675998687744140625">
        <ele>403.20001220703125</ele>
        <time>2018-08-16T06:38:37.000Z</time>
      </trkpt>
      <trkpt lat="47.59341523982584476470947265625" lon="8.7817730940878391265869140625">
        <ele>404.399993896484375</ele>
        <time>2018-08-16T06:38:42.000Z</time>
      </trkpt>
      <trkpt lat="47.5934330932796001434326171875" lon="8.7816356308758258819580078125">
        <ele>405.600006103515625</ele>
        <time>2018-08-16T06:38:45.000Z</time>
      </trkpt>
      <trkpt lat="47.5934609211981296539306640625" lon="8.7814529053866863250732421875">
        <ele>406.79998779296875</ele>
        <time>2018-08-16T06:38:49.000Z</time>
      </trkpt>
      <trkpt lat="47.59351481683552265167236328125" lon="8.78122575581073760986328125">
        <ele>407.79998779296875</ele>
        <time>2018-08-16T06:38:54.000Z</time>
      </trkpt>
      <trkpt lat="47.59362394921481609344482421875" lon="8.781118802726268768310546875">
        <ele>408.399993896484375</ele>
        <time>2018-08-16T06:38:58.000Z</time>
      </trkpt>
      <trkpt lat="47.5937542878091335296630859375" lon="8.781102709472179412841796875">
        <ele>409.20001220703125</ele>
        <time>2018-08-16T06:39:02.000Z</time>
      </trkpt>
      <trkpt lat="47.593951933085918426513671875" lon="8.78108368255198001861572265625">
        <ele>410.20001220703125</ele>
        <time>2018-08-16T06:39:08.000Z</time>
      </trkpt>
      <trkpt lat="47.59408168494701385498046875" lon="8.7810706906020641326904296875">
        <ele>411.20001220703125</ele>
        <time>2018-08-16T06:39:12.000Z</time>
      </trkpt>
      <trkpt lat="47.59428930468857288360595703125" lon="8.78104613162577152252197265625">
        <ele>412.399993896484375</ele>
        <time>2018-08-16T06:39:19.000Z</time>
      </trkpt>
      <trkpt lat="47.5944379158318042755126953125" lon="8.78104696981608867645263671875">
        <ele>413.600006103515625</ele>
        <time>2018-08-16T06:39:23.000Z</time>
      </trkpt>
      <trkpt lat="47.59456305764615535736083984375" lon="8.7810146994888782501220703125">
        <ele>414.600006103515625</ele>
        <time>2018-08-16T06:39:27.000Z</time>
      </trkpt>
      <trkpt lat="47.5946417637169361114501953125" lon="8.7810011208057403564453125">
        <ele>415.600006103515625</ele>
        <time>2018-08-16T06:39:30.000Z</time>
      </trkpt>
      <trkpt lat="47.59472407400608062744140625" lon="8.78100690431892871856689453125">
        <ele>417</ele>
        <time>2018-08-16T06:39:33.000Z</time>
      </trkpt>
      <trkpt lat="47.59480613283812999725341796875" lon="8.78101545386016368865966796875">
        <ele>418</ele>
        <time>2018-08-16T06:39:36.000Z</time>
      </trkpt>
      <trkpt lat="47.5948910415172576904296875" lon="8.781030289828777313232421875">
        <ele>419</ele>
        <time>2018-08-16T06:39:39.000Z</time>
      </trkpt>
      <trkpt lat="47.5950055383145809173583984375" lon="8.7810556031763553619384765625">
        <ele>420</ele>
        <time>2018-08-16T06:39:43.000Z</time>
      </trkpt>
      <trkpt lat="47.5951217114925384521484375" lon="8.78108133561909198760986328125">
        <ele>421</ele>
        <time>2018-08-16T06:39:47.000Z</time>
      </trkpt>
      <trkpt lat="47.59523612447082996368408203125" lon="8.78110329620540142059326171875">
        <ele>422.20001220703125</ele>
        <time>2018-08-16T06:39:51.000Z</time>
      </trkpt>
      <trkpt lat="47.59535682387650012969970703125" lon="8.78112760372459888458251953125">
        <ele>423.20001220703125</ele>
        <time>2018-08-16T06:39:55.000Z</time>
      </trkpt>
      <trkpt lat="47.5954802893102169036865234375" lon="8.781183175742626190185546875">
        <ele>424.399993896484375</ele>
        <time>2018-08-16T06:39:59.000Z</time>
      </trkpt>
      <trkpt lat="47.5956341810524463653564453125" lon="8.78129490651190280914306640625">
        <ele>425.600006103515625</ele>
        <time>2018-08-16T06:40:04.000Z</time>
      </trkpt>
      <trkpt lat="47.59577709250152111053466796875" lon="8.78139180131256580352783203125">
        <ele>426.600006103515625</ele>
        <time>2018-08-16T06:40:09.000Z</time>
      </trkpt>
      <trkpt lat="47.5958933494985103607177734375" lon="8.78145835362374782562255859375">
        <ele>427.79998779296875</ele>
        <time>2018-08-16T06:40:13.000Z</time>
      </trkpt>
      <trkpt lat="47.5959540344774723052978515625" lon="8.7815509736537933349609375">
        <ele>428.79998779296875</ele>
        <time>2018-08-16T06:40:16.000Z</time>
      </trkpt>
      <trkpt lat="47.595962919294834136962890625" lon="8.781596906483173370361328125">
        <ele>429.20001220703125</ele>
        <time>2018-08-16T06:40:17.000Z</time>
      </trkpt>
      <trkpt lat="47.59597339667379856109619140625" lon="8.78174149431288242340087890625">
        <ele>430</ele>
        <time>2018-08-16T06:40:20.000Z</time>
      </trkpt>
      <trkpt lat="47.5959758274257183074951171875" lon="8.78178943879902362823486328125">
        <ele>430.399993896484375</ele>
        <time>2018-08-16T06:40:21.000Z</time>
      </trkpt>
      <trkpt lat="47.595995105803012847900390625" lon="8.781973756849765777587890625">
        <ele>431.399993896484375</ele>
        <time>2018-08-16T06:40:25.000Z</time>
      </trkpt>
      <trkpt lat="47.596003152430057525634765625" lon="8.78224767744541168212890625">
        <ele>432.399993896484375</ele>
        <time>2018-08-16T06:40:31.000Z</time>
      </trkpt>
      <trkpt lat="47.596034668385982513427734375" lon="8.7824094481766223907470703125">
        <ele>433.600006103515625</ele>
        <time>2018-08-16T06:40:35.000Z</time>
      </trkpt>
      <trkpt lat="47.59602452628314495086669921875" lon="8.78260952420532703399658203125">
        <ele>434.399993896484375</ele>
        <time>2018-08-16T06:40:40.000Z</time>
      </trkpt>
      <trkpt lat="47.59600306861102581024169921875" lon="8.78274966962635517120361328125">
        <ele>435.600006103515625</ele>
        <time>2018-08-16T06:40:43.000Z</time>
      </trkpt>
      <trkpt lat="47.5959399528801441192626953125" lon="8.78297346644103527069091796875">
        <ele>436.600006103515625</ele>
        <time>2018-08-16T06:40:48.000Z</time>
      </trkpt>
      <trkpt lat="47.59589879773557186126708984375" lon="8.78314219415187835693359375">
        <ele>437.79998779296875</ele>
        <time>2018-08-16T06:40:52.000Z</time>
      </trkpt>
      <trkpt lat="47.595854289829730987548828125" lon="8.78335819579660892486572265625">
        <ele>438.79998779296875</ele>
        <time>2018-08-16T06:40:57.000Z</time>
      </trkpt>
      <trkpt lat="47.5958464108407497406005859375" lon="8.783546201884746551513671875">
        <ele>439.79998779296875</ele>
        <time>2018-08-16T06:41:01.000Z</time>
      </trkpt>
      <trkpt lat="47.59586057625710964202880859375" lon="8.78370068036019802093505859375">
        <ele>440.79998779296875</ele>
        <time>2018-08-16T06:41:06.000Z</time>
      </trkpt>
      <trkpt lat="47.595961578190326690673828125" lon="8.78348392434418201446533203125">
        <ele>441.79998779296875</ele>
        <time>2018-08-16T06:41:12.000Z</time>
      </trkpt>
      <trkpt lat="47.5959842093288898468017578125" lon="8.78342424519360065460205078125">
        <ele>441.79998779296875</ele>
        <time>2018-08-16T06:41:13.000Z</time>
      </trkpt>
      <trkpt lat="47.596095688641071319580078125" lon="8.7831388413906097412109375">
        <ele>442</ele>
        <time>2018-08-16T06:41:18.000Z</time>
      </trkpt>
      <trkpt lat="47.5961142964661121368408203125" lon="8.78309123218059539794921875">
        <ele>442.20001220703125</ele>
        <time>2018-08-16T06:41:19.000Z</time>
      </trkpt>
      <trkpt lat="47.59626911021769046783447265625" lon="8.78271304070949554443359375">
        <ele>443</ele>
        <time>2018-08-16T06:41:27.000Z</time>
      </trkpt>
      <trkpt lat="47.59637053124606609344482421875" lon="8.78248262219130992889404296875">
        <ele>444</ele>
        <time>2018-08-16T06:41:32.000Z</time>
      </trkpt>
      <trkpt lat="47.59648720733821392059326171875" lon="8.78222110681235790252685546875">
        <ele>445.20001220703125</ele>
        <time>2018-08-16T06:41:38.000Z</time>
      </trkpt>
      <trkpt lat="47.5965719483792781829833984375" lon="8.78200116567313671112060546875">
        <ele>446.20001220703125</ele>
        <time>2018-08-16T06:41:43.000Z</time>
      </trkpt>
      <trkpt lat="47.59664361365139484405517578125" lon="8.78181986510753631591796875">
        <ele>447.20001220703125</ele>
        <time>2018-08-16T06:41:47.000Z</time>
      </trkpt>
      <trkpt lat="47.59671200998127460479736328125" lon="8.78163604997098445892333984375">
        <ele>448.399993896484375</ele>
        <time>2018-08-16T06:41:51.000Z</time>
      </trkpt>
      <trkpt lat="47.59678225032985210418701171875" lon="8.7814542464911937713623046875">
        <ele>449.600006103515625</ele>
        <time>2018-08-16T06:41:55.000Z</time>
      </trkpt>
      <trkpt lat="47.59685182012617588043212890625" lon="8.7812678329646587371826171875">
        <ele>450.600006103515625</ele>
        <time>2018-08-16T06:41:59.000Z</time>
      </trkpt>
      <trkpt lat="47.59692348539829254150390625" lon="8.7810815870761871337890625">
        <ele>451.600006103515625</ele>
        <time>2018-08-16T06:42:03.000Z</time>
      </trkpt>
      <trkpt lat="47.59699615649878978729248046875" lon="8.78089911304414272308349609375">
        <ele>452.79998779296875</ele>
        <time>2018-08-16T06:42:07.000Z</time>
      </trkpt>
      <trkpt lat="47.5970835797488689422607421875" lon="8.78067053854465484619140625">
        <ele>454</ele>
        <time>2018-08-16T06:42:12.000Z</time>
      </trkpt>
      <trkpt lat="47.59717050008475780487060546875" lon="8.78044766373932361602783203125">
        <ele>455.20001220703125</ele>
        <time>2018-08-16T06:42:17.000Z</time>
      </trkpt>
      <trkpt lat="47.59725339710712432861328125" lon="8.78027969039976596832275390625">
        <ele>456.20001220703125</ele>
        <time>2018-08-16T06:42:21.000Z</time>
      </trkpt>
      <trkpt lat="47.597343921661376953125" lon="8.78011674620211124420166015625">
        <ele>457.399993896484375</ele>
        <time>2018-08-16T06:42:25.000Z</time>
      </trkpt>
      <trkpt lat="47.597458250820636749267578125" lon="8.77991306595504283905029296875">
        <ele>458.600006103515625</ele>
        <time>2018-08-16T06:42:30.000Z</time>
      </trkpt>
      <trkpt lat="47.5975767709314823150634765625" lon="8.7797069549560546875">
        <ele>459.600006103515625</ele>
        <time>2018-08-16T06:42:35.000Z</time>
      </trkpt>
      <trkpt lat="47.59767458774149417877197265625" lon="8.7795384787023067474365234375">
        <ele>460.79998779296875</ele>
        <time>2018-08-16T06:42:39.000Z</time>
      </trkpt>
      <trkpt lat="47.59777148254215717315673828125" lon="8.7793631292879581451416015625">
        <ele>461.79998779296875</ele>
        <time>2018-08-16T06:42:43.000Z</time>
      </trkpt>
      <trkpt lat="47.597866952419281005859375" lon="8.77918786369264125823974609375">
        <ele>462.79998779296875</ele>
        <time>2018-08-16T06:42:47.000Z</time>
      </trkpt>
      <trkpt lat="47.5979941897094249725341796875" lon="8.77898384816944599151611328125">
        <ele>463.79998779296875</ele>
        <time>2018-08-16T06:42:52.000Z</time>
      </trkpt>
      <trkpt lat="47.598143555223941802978515625" lon="8.7787371687591075897216796875">
        <ele>465</ele>
        <time>2018-08-16T06:42:58.000Z</time>
      </trkpt>
      <trkpt lat="47.59828872978687286376953125" lon="8.7784830294549465179443359375">
        <ele>466.20001220703125</ele>
        <time>2018-08-16T06:43:04.000Z</time>
      </trkpt>
      <trkpt lat="47.59841336868703365325927734375" lon="8.77826736308634281158447265625">
        <ele>467.20001220703125</ele>
        <time>2018-08-16T06:43:09.000Z</time>
      </trkpt>
      <trkpt lat="47.59846047498285770416259765625" lon="8.77817885018885135650634765625">
        <ele>467.399993896484375</ele>
        <time>2018-08-16T06:43:11.000Z</time>
      </trkpt>
      <trkpt lat="47.59851043112576007843017578125" lon="8.77809369005262851715087890625">
        <ele>468.399993896484375</ele>
        <time>2018-08-16T06:43:13.000Z</time>
      </trkpt>
      <trkpt lat="47.59856139309704303741455078125" lon="8.7780129723250865936279296875">
        <ele>468.399993896484375</ele>
        <time>2018-08-16T06:43:15.000Z</time>
      </trkpt>
      <trkpt lat="47.5986587069928646087646484375" lon="8.777832426130771636962890625">
        <ele>469.20001220703125</ele>
        <time>2018-08-16T06:43:19.000Z</time>
      </trkpt>
      <trkpt lat="47.5988055579364299774169921875" lon="8.7775653786957263946533203125">
        <ele>470.399993896484375</ele>
        <time>2018-08-16T06:43:25.000Z</time>
      </trkpt>
      <trkpt lat="47.59887923486530780792236328125" lon="8.777431435883045196533203125">
        <ele>470.79998779296875</ele>
        <time>2018-08-16T06:43:28.000Z</time>
      </trkpt>
      <trkpt lat="47.5989752076566219329833984375" lon="8.7772592715919017791748046875">
        <ele>471.600006103515625</ele>
        <time>2018-08-16T06:43:32.000Z</time>
      </trkpt>
      <trkpt lat="47.59910135529935359954833984375" lon="8.7770624645054340362548828125">
        <ele>472.399993896484375</ele>
        <time>2018-08-16T06:43:37.000Z</time>
      </trkpt>
      <trkpt lat="47.599124573171138763427734375" lon="8.7770195491611957550048828125">
        <ele>472.600006103515625</ele>
        <time>2018-08-16T06:43:38.000Z</time>
      </trkpt>
      <trkpt lat="47.59924317710101604461669921875" lon="8.77680673263967037200927734375">
        <ele>473.600006103515625</ele>
        <time>2018-08-16T06:43:43.000Z</time>
      </trkpt>
      <trkpt lat="47.5993688218295574188232421875" lon="8.77659165300428867340087890625">
        <ele>474.600006103515625</ele>
        <time>2018-08-16T06:43:48.000Z</time>
      </trkpt>
      <trkpt lat="47.5994566641747951507568359375" lon="8.7764837779104709625244140625">
        <ele>475.20001220703125</ele>
        <time>2018-08-16T06:43:51.000Z</time>
      </trkpt>
      <trkpt lat="47.599526233971118927001953125" lon="8.77643357031047344207763671875">
        <ele>475.79998779296875</ele>
        <time>2018-08-16T06:43:53.000Z</time>
      </trkpt>
      <trkpt lat="47.5997097976505756378173828125" lon="8.77634505741298198699951171875">
        <ele>477</ele>
        <time>2018-08-16T06:43:58.000Z</time>
      </trkpt>
      <trkpt lat="47.599790096282958984375" lon="8.77633399330079555511474609375">
        <ele>477.79998779296875</ele>
        <time>2018-08-16T06:44:00.000Z</time>
      </trkpt>
      <trkpt lat="47.59986880235373973846435546875" lon="8.776329718530178070068359375">
        <ele>478.399993896484375</ele>
        <time>2018-08-16T06:44:02.000Z</time>
      </trkpt>
      <trkpt lat="47.60003509931266307830810546875" lon="8.77632477320730686187744140625">
        <ele>479.399993896484375</ele>
        <time>2018-08-16T06:44:06.000Z</time>
      </trkpt>
      <trkpt lat="47.6002204231917858123779296875" lon="8.77632225863635540008544921875">
        <ele>480.399993896484375</ele>
        <time>2018-08-16T06:44:10.000Z</time>
      </trkpt>
      <trkpt lat="47.60027063079178333282470703125" lon="8.77631672658026218414306640625">
        <ele>480.399993896484375</ele>
        <time>2018-08-16T06:44:11.000Z</time>
      </trkpt>
      <trkpt lat="47.60053650476038455963134765625" lon="8.7761863879859447479248046875">
        <ele>481</ele>
        <time>2018-08-16T06:44:16.000Z</time>
      </trkpt>
      <trkpt lat="47.600648403167724609375" lon="8.77606895752251148223876953125">
        <ele>481</ele>
        <time>2018-08-16T06:44:18.000Z</time>
      </trkpt>
      <trkpt lat="47.60093598626554012298583984375" lon="8.77571356482803821563720703125">
        <ele>481.20001220703125</ele>
        <time>2018-08-16T06:44:23.000Z</time>
      </trkpt>
      <trkpt lat="47.60105852968990802764892578125" lon="8.77558515407145023345947265625">
        <ele>481</ele>
        <time>2018-08-16T06:44:25.000Z</time>
      </trkpt>
      <trkpt lat="47.60150746442377567291259765625" lon="8.7750769592821598052978515625">
        <ele>478.79998779296875</ele>
        <time>2018-08-16T06:44:31.000Z</time>
      </trkpt>
      <trkpt lat="47.6017650403082370758056640625" lon="8.774760626256465911865234375">
        <ele>477.399993896484375</ele>
        <time>2018-08-16T06:44:34.000Z</time>
      </trkpt>
      <trkpt lat="47.60194860398769378662109375" lon="8.7745391763746738433837890625">
        <ele>476</ele>
        <time>2018-08-16T06:44:36.000Z</time>
      </trkpt>
      <trkpt lat="47.60204189456999301910400390625" lon="8.7744255177676677703857421875">
        <ele>475.600006103515625</ele>
        <time>2018-08-16T06:44:37.000Z</time>
      </trkpt>
      <trkpt lat="47.6021355204284191131591796875" lon="8.77431244589388370513916015625">
        <ele>475</ele>
        <time>2018-08-16T06:44:38.000Z</time>
      </trkpt>
      <trkpt lat="47.6023229397833347320556640625" lon="8.774087727069854736328125">
        <ele>473.79998779296875</ele>
        <time>2018-08-16T06:44:40.000Z</time>
      </trkpt>
      <trkpt lat="47.60250641964375972747802734375" lon="8.7738699652254581451416015625">
        <ele>472.399993896484375</ele>
        <time>2018-08-16T06:44:42.000Z</time>
      </trkpt>
      <trkpt lat="47.6027685217559337615966796875" lon="8.7735581584274768829345703125">
        <ele>470.79998779296875</ele>
        <time>2018-08-16T06:44:45.000Z</time>
      </trkpt>
      <trkpt lat="47.6029341481626033782958984375" lon="8.773358166217803955078125">
        <ele>469.20001220703125</ele>
        <time>2018-08-16T06:44:47.000Z</time>
      </trkpt>
      <trkpt lat="47.603093571960926055908203125" lon="8.7731611914932727813720703125">
        <ele>468.399993896484375</ele>
        <time>2018-08-16T06:44:49.000Z</time>
      </trkpt>
      <trkpt lat="47.603172026574611663818359375" lon="8.77306605689227581024169921875">
        <ele>468</ele>
        <time>2018-08-16T06:44:50.000Z</time>
      </trkpt>
      <trkpt lat="47.6034789718687534332275390625" lon="8.7727050483226776123046875">
        <ele>467</ele>
        <time>2018-08-16T06:44:54.000Z</time>
      </trkpt>
      <trkpt lat="47.60362557135522365570068359375" lon="8.77253531478345394134521484375">
        <ele>466.79998779296875</ele>
        <time>2018-08-16T06:44:56.000Z</time>
      </trkpt>
      <trkpt lat="47.60383545421063899993896484375" lon="8.77229760400950908660888671875">
        <ele>466.600006103515625</ele>
        <time>2018-08-16T06:44:59.000Z</time>
      </trkpt>
      <trkpt lat="47.6039735041558742523193359375" lon="8.77216081134974956512451171875">
        <ele>466.399993896484375</ele>
        <time>2018-08-16T06:45:01.000Z</time>
      </trkpt>
      <trkpt lat="47.60422370396554470062255859375" lon="8.77183039672672748565673828125">
        <ele>466</ele>
        <time>2018-08-16T06:45:05.000Z</time>
      </trkpt>
      <trkpt lat="47.60429142974317073822021484375" lon="8.7717501819133758544921875">
        <ele>466</ele>
        <time>2018-08-16T06:45:06.000Z</time>
      </trkpt>
      <trkpt lat="47.604431323707103729248046875" lon="8.7715843878686428070068359375">
        <ele>466</ele>
        <time>2018-08-16T06:45:08.000Z</time>
      </trkpt>
      <trkpt lat="47.60450340807437896728515625" lon="8.77150006592273712158203125">
        <ele>466</ele>
        <time>2018-08-16T06:45:09.000Z</time>
      </trkpt>
      <trkpt lat="47.60487598367035388946533203125" lon="8.771080635488033294677734375">
        <ele>465.20001220703125</ele>
        <time>2018-08-16T06:45:14.000Z</time>
      </trkpt>
      <trkpt lat="47.60502316989004611968994140625" lon="8.77089832909405231475830078125">
        <ele>464.79998779296875</ele>
        <time>2018-08-16T06:45:16.000Z</time>
      </trkpt>
      <trkpt lat="47.60527228005230426788330078125" lon="8.77045727334916591644287109375">
        <ele>464.20001220703125</ele>
        <time>2018-08-16T06:45:20.000Z</time>
      </trkpt>
      <trkpt lat="47.60537956841289997100830078125" lon="8.7702132761478424072265625">
        <ele>463.79998779296875</ele>
        <time>2018-08-16T06:45:22.000Z</time>
      </trkpt>
      <trkpt lat="47.60552474297583103179931640625" lon="8.76984514296054840087890625">
        <ele>463</ele>
        <time>2018-08-16T06:45:25.000Z</time>
      </trkpt>
      <trkpt lat="47.6055690832436084747314453125" lon="8.7697412073612213134765625">
        <ele>462.600006103515625</ele>
        <time>2018-08-16T06:45:26.000Z</time>
      </trkpt>
      <trkpt lat="47.60566002689301967620849609375" lon="8.76955135725438594818115234375">
        <ele>461.79998779296875</ele>
        <time>2018-08-16T06:45:28.000Z</time>
      </trkpt>
      <trkpt lat="47.60570369660854339599609375" lon="8.769458569586277008056640625">
        <ele>461.399993896484375</ele>
        <time>2018-08-16T06:45:29.000Z</time>
      </trkpt>
      <trkpt lat="47.60583378374576568603515625" lon="8.76918607391417026519775390625">
        <ele>460.600006103515625</ele>
        <time>2018-08-16T06:45:32.000Z</time>
      </trkpt>
      <trkpt lat="47.60587267577648162841796875" lon="8.7690947949886322021484375">
        <ele>460.600006103515625</ele>
        <time>2018-08-16T06:45:33.000Z</time>
      </trkpt>
      <trkpt lat="47.6059080474078655242919921875" lon="8.7690061144530773162841796875">
        <ele>460.399993896484375</ele>
        <time>2018-08-16T06:45:34.000Z</time>
      </trkpt>
      <trkpt lat="47.6059734262526035308837890625" lon="8.76886571757495403289794921875">
        <ele>460.399993896484375</ele>
        <time>2018-08-16T06:45:36.000Z</time>
      </trkpt>
      <trkpt lat="47.60605682618916034698486328125" lon="8.76882992684841156005859375">
        <ele>460.20001220703125</ele>
        <time>2018-08-16T06:45:38.000Z</time>
      </trkpt>
      <trkpt lat="47.60611985810101032257080078125" lon="8.76893989741802215576171875">
        <ele>460</ele>
        <time>2018-08-16T06:45:40.000Z</time>
      </trkpt>
      <trkpt lat="47.60613410733640193939208984375" lon="8.76902413554489612579345703125">
        <ele>460</ele>
        <time>2018-08-16T06:45:41.000Z</time>
      </trkpt>
      <trkpt lat="47.60614626109600067138671875" lon="8.76911181025207042694091796875">
        <ele>460</ele>
        <time>2018-08-16T06:45:42.000Z</time>
      </trkpt>
      <trkpt lat="47.6061616837978363037109375" lon="8.76920149661600589752197265625">
        <ele>460</ele>
        <time>2018-08-16T06:45:43.000Z</time>
      </trkpt>
      <trkpt lat="47.60617484338581562042236328125" lon="8.7692890875041484832763671875">
        <ele>460</ele>
        <time>2018-08-16T06:45:44.000Z</time>
      </trkpt>
      <trkpt lat="47.60619588196277618408203125" lon="8.76937173306941986083984375">
        <ele>460</ele>
        <time>2018-08-16T06:45:45.000Z</time>
      </trkpt>
      <trkpt lat="47.6062989793717861175537109375" lon="8.76969301141798496246337890625">
        <ele>460</ele>
        <time>2018-08-16T06:45:49.000Z</time>
      </trkpt>
      <trkpt lat="47.606429569423198699951171875" lon="8.76988529227674007415771484375">
        <ele>460</ele>
        <time>2018-08-16T06:45:52.000Z</time>
      </trkpt>
      <trkpt lat="47.60647843591868877410888671875" lon="8.7699329853057861328125">
        <ele>460</ele>
        <time>2018-08-16T06:45:53.000Z</time>
      </trkpt>
      <trkpt lat="47.60669100098311901092529296875" lon="8.7701024673879146575927734375">
        <ele>460.20001220703125</ele>
        <time>2018-08-16T06:45:58.000Z</time>
      </trkpt>
      <trkpt lat="47.60675118304789066314697265625" lon="8.7701292894780635833740234375">
        <ele>460.399993896484375</ele>
        <time>2018-08-16T06:46:00.000Z</time>
      </trkpt>
      <trkpt lat="47.60679728351533412933349609375" lon="8.7701542675495147705078125">
        <ele>460.600006103515625</ele>
        <time>2018-08-16T06:46:02.000Z</time>
      </trkpt>
      <trkpt lat="47.6068421266973018646240234375" lon="8.7701859511435031890869140625">
        <ele>461</ele>
        <time>2018-08-16T06:46:04.000Z</time>
      </trkpt>
      <trkpt lat="47.60687439702451229095458984375" lon="8.77019911073148250579833984375">
        <ele>461.20001220703125</ele>
        <time>2018-08-16T06:46:05.000Z</time>
      </trkpt>
      <trkpt lat="47.60690708644688129425048828125" lon="8.7702057324349880218505859375">
        <ele>461.399993896484375</ele>
        <time>2018-08-16T06:46:06.000Z</time>
      </trkpt>
      <trkpt lat="47.60696877725422382354736328125" lon="8.7702097557485103607177734375">
        <ele>462</ele>
        <time>2018-08-16T06:46:08.000Z</time>
      </trkpt>
      <trkpt lat="47.60703113861382007598876953125" lon="8.7702161259949207305908203125">
        <ele>462.399993896484375</ele>
        <time>2018-08-16T06:46:10.000Z</time>
      </trkpt>
      <trkpt lat="47.60710171423852443695068359375" lon="8.77022610045969486236572265625">
        <ele>462.79998779296875</ele>
        <time>2018-08-16T06:46:12.000Z</time>
      </trkpt>
      <trkpt lat="47.6072122715413570404052734375" lon="8.770249821245670318603515625">
        <ele>463.399993896484375</ele>
        <time>2018-08-16T06:46:15.000Z</time>
      </trkpt>
      <trkpt lat="47.60724538005888462066650390625" lon="8.7702623941004276275634765625">
        <ele>463.600006103515625</ele>
        <time>2018-08-16T06:46:16.000Z</time>
      </trkpt>
      <trkpt lat="47.60738485492765903472900390625" lon="8.77030338160693645477294921875">
        <ele>464.79998779296875</ele>
        <time>2018-08-16T06:46:20.000Z</time>
      </trkpt>
      <trkpt lat="47.60748560540378093719482421875" lon="8.7703120149672031402587890625">
        <ele>465.79998779296875</ele>
        <time>2018-08-16T06:46:23.000Z</time>
      </trkpt>
      <trkpt lat="47.60763547383248805999755859375" lon="8.770318217575550079345703125">
        <ele>467.20001220703125</ele>
        <time>2018-08-16T06:46:27.000Z</time>
      </trkpt>
      <trkpt lat="47.607834041118621826171875" lon="8.77028502523899078369140625">
        <ele>468.20001220703125</ele>
        <time>2018-08-16T06:46:32.000Z</time>
      </trkpt>
      <trkpt lat="47.607977204024791717529296875" lon="8.77024956978857517242431640625">
        <ele>469.399993896484375</ele>
        <time>2018-08-16T06:46:36.000Z</time>
      </trkpt>
      <trkpt lat="47.6081470213830471038818359375" lon="8.77026918344199657440185546875">
        <ele>470.399993896484375</ele>
        <time>2018-08-16T06:46:41.000Z</time>
      </trkpt>
      <trkpt lat="47.60829110629856586456298828125" lon="8.77034562639892101287841796875">
        <ele>471.399993896484375</ele>
        <time>2018-08-16T06:46:45.000Z</time>
      </trkpt>
      <trkpt lat="47.60849512182176113128662109375" lon="8.7704675830900669097900390625">
        <ele>472.600006103515625</ele>
        <time>2018-08-16T06:46:50.000Z</time>
      </trkpt>
      <trkpt lat="47.60863040573894977569580078125" lon="8.7705400027334690093994140625">
        <ele>473.600006103515625</ele>
        <time>2018-08-16T06:46:53.000Z</time>
      </trkpt>
      <trkpt lat="47.6089278794825077056884765625" lon="8.77070990391075611114501953125">
        <ele>474.600006103515625</ele>
        <time>2018-08-16T06:46:59.000Z</time>
      </trkpt>
      <trkpt lat="47.60931663215160369873046875" lon="8.77095884643495082855224609375">
        <ele>475.20001220703125</ele>
        <time>2018-08-16T06:47:06.000Z</time>
      </trkpt>
      <trkpt lat="47.60955576784908771514892578125" lon="8.77113930881023406982421875">
        <ele>475.20001220703125</ele>
        <time>2018-08-16T06:47:10.000Z</time>
      </trkpt>
      <trkpt lat="47.60977839119732379913330078125" lon="8.77134240232408046722412109375">
        <ele>475.20001220703125</ele>
        <time>2018-08-16T06:47:14.000Z</time>
      </trkpt>
      <trkpt lat="47.60998525656759738922119140625" lon="8.77154557965695858001708984375">
        <ele>475.20001220703125</ele>
        <time>2018-08-16T06:47:18.000Z</time>
      </trkpt>
      <trkpt lat="47.6102535612881183624267578125" lon="8.77176870591938495635986328125">
        <ele>475.600006103515625</ele>
        <time>2018-08-16T06:47:23.000Z</time>
      </trkpt>
      <trkpt lat="47.61049655266106128692626953125" lon="8.77190566621720790863037109375">
        <ele>476.399993896484375</ele>
        <time>2018-08-16T06:47:27.000Z</time>
      </trkpt>
      <trkpt lat="47.61062848381698131561279296875" lon="8.7719464860856533050537109375">
        <ele>476.79998779296875</ele>
        <time>2018-08-16T06:47:29.000Z</time>
      </trkpt>
      <trkpt lat="47.6109733991324901580810546875" lon="8.771987892687320709228515625">
        <ele>477.20001220703125</ele>
        <time>2018-08-16T06:47:34.000Z</time>
      </trkpt>
      <trkpt lat="47.61104456149041652679443359375" lon="8.7719888985157012939453125">
        <ele>477.20001220703125</ele>
        <time>2018-08-16T06:47:35.000Z</time>
      </trkpt>
      <trkpt lat="47.6112600602209568023681640625" lon="8.772000968456268310546875">
        <ele>477.20001220703125</ele>
        <time>2018-08-16T06:47:38.000Z</time>
      </trkpt>
      <trkpt lat="47.61140699498355388641357421875" lon="8.7720021419227123260498046875">
        <ele>477.20001220703125</ele>
        <time>2018-08-16T06:47:40.000Z</time>
      </trkpt>
      <trkpt lat="47.61155652813613414764404296875" lon="8.77200641669332981109619140625">
        <ele>477.20001220703125</ele>
        <time>2018-08-16T06:47:42.000Z</time>
      </trkpt>
      <trkpt lat="47.61171184480190277099609375" lon="8.772014714777469635009765625">
        <ele>476.79998779296875</ele>
        <time>2018-08-16T06:47:44.000Z</time>
      </trkpt>
      <trkpt lat="47.6118695922195911407470703125" lon="8.772017061710357666015625">
        <ele>476.20001220703125</ele>
        <time>2018-08-16T06:47:46.000Z</time>
      </trkpt>
      <trkpt lat="47.61202960275113582611083984375" lon="8.7720242701470851898193359375">
        <ele>475.600006103515625</ele>
        <time>2018-08-16T06:47:48.000Z</time>
      </trkpt>
      <trkpt lat="47.6121113263070583343505859375" lon="8.7720289640128612518310546875">
        <ele>475.600006103515625</ele>
        <time>2018-08-16T06:47:49.000Z</time>
      </trkpt>
      <trkpt lat="47.6121939718723297119140625" lon="8.77203424461185932159423828125">
        <ele>475.399993896484375</ele>
        <time>2018-08-16T06:47:50.000Z</time>
      </trkpt>
      <trkpt lat="47.6123629510402679443359375" lon="8.7720500864088535308837890625">
        <ele>475.20001220703125</ele>
        <time>2018-08-16T06:47:52.000Z</time>
      </trkpt>
      <trkpt lat="47.61253519915044307708740234375" lon="8.77208889462053775787353515625">
        <ele>474.600006103515625</ele>
        <time>2018-08-16T06:47:54.000Z</time>
      </trkpt>
      <trkpt lat="47.61279855854809284210205078125" lon="8.7722096778452396392822265625">
        <ele>474</ele>
        <time>2018-08-16T06:47:57.000Z</time>
      </trkpt>
      <trkpt lat="47.6128868199884891510009765625" lon="8.772270195186138153076171875">
        <ele>473.79998779296875</ele>
        <time>2018-08-16T06:47:58.000Z</time>
      </trkpt>
      <trkpt lat="47.6129739917814731597900390625" lon="8.772345967590808868408203125">
        <ele>473.600006103515625</ele>
        <time>2018-08-16T06:47:59.000Z</time>
      </trkpt>
      <trkpt lat="47.6132288016378879547119140625" lon="8.77263070084154605865478515625">
        <ele>472.600006103515625</ele>
        <time>2018-08-16T06:48:02.000Z</time>
      </trkpt>
      <trkpt lat="47.61331521905958652496337890625" lon="8.77273413352668285369873046875">
        <ele>472.399993896484375</ele>
        <time>2018-08-16T06:48:03.000Z</time>
      </trkpt>
      <trkpt lat="47.6135697774589061737060546875" lon="8.77307259477674961090087890625">
        <ele>470.600006103515625</ele>
        <time>2018-08-16T06:48:06.000Z</time>
      </trkpt>
      <trkpt lat="47.61373867280781269073486328125" lon="8.77329907380044460296630859375">
        <ele>469.399993896484375</ele>
        <time>2018-08-16T06:48:08.000Z</time>
      </trkpt>
      <trkpt lat="47.6139070652425289154052734375" lon="8.77352069132030010223388671875">
        <ele>468.20001220703125</ele>
        <time>2018-08-16T06:48:10.000Z</time>
      </trkpt>
      <trkpt lat="47.61406942270696163177490234375" lon="8.77373727969825267791748046875">
        <ele>466.20001220703125</ele>
        <time>2018-08-16T06:48:12.000Z</time>
      </trkpt>
      <trkpt lat="47.61422398500144481658935546875" lon="8.7739427201449871063232421875">
        <ele>465.20001220703125</ele>
        <time>2018-08-16T06:48:14.000Z</time>
      </trkpt>
      <trkpt lat="47.6143697462975978851318359375" lon="8.774132989346981048583984375">
        <ele>464.20001220703125</ele>
        <time>2018-08-16T06:48:16.000Z</time>
      </trkpt>
      <trkpt lat="47.61457300744950771331787109375" lon="8.77439458854496479034423828125">
        <ele>463.399993896484375</ele>
        <time>2018-08-16T06:48:19.000Z</time>
      </trkpt>
      <trkpt lat="47.6146352849900722503662109375" lon="8.77447807230055332183837890625">
        <ele>463.399993896484375</ele>
        <time>2018-08-16T06:48:20.000Z</time>
      </trkpt>
      <trkpt lat="47.61469588615000247955322265625" lon="8.77455987967550754547119140625">
        <ele>463.399993896484375</ele>
        <time>2018-08-16T06:48:21.000Z</time>
      </trkpt>
      <trkpt lat="47.6148773543536663055419921875" lon="8.77479323185980319976806640625">
        <ele>463.20001220703125</ele>
        <time>2018-08-16T06:48:24.000Z</time>
      </trkpt>
      <trkpt lat="47.61500232852995395660400390625" lon="8.77495785243809223175048828125">
        <ele>463.20001220703125</ele>
        <time>2018-08-16T06:48:26.000Z</time>
      </trkpt>
      <trkpt lat="47.61513845063745975494384765625" lon="8.77513504587113857269287109375">
        <ele>463.20001220703125</ele>
        <time>2018-08-16T06:48:28.000Z</time>
      </trkpt>
      <trkpt lat="47.61521187610924243927001953125" lon="8.7752288393676280975341796875">
        <ele>463.20001220703125</ele>
        <time>2018-08-16T06:48:29.000Z</time>
      </trkpt>
      <trkpt lat="47.6153631694614887237548828125" lon="8.77542941831052303314208984375">
        <ele>463</ele>
        <time>2018-08-16T06:48:31.000Z</time>
      </trkpt>
      <trkpt lat="47.61559023521840572357177734375" lon="8.77577139995992183685302734375">
        <ele>463</ele>
        <time>2018-08-16T06:48:34.000Z</time>
      </trkpt>
      <trkpt lat="47.61566600762307643890380859375" lon="8.7758926860988140106201171875">
        <ele>462.79998779296875</ele>
        <time>2018-08-16T06:48:35.000Z</time>
      </trkpt>
      <trkpt lat="47.61574245058000087738037109375" lon="8.77601564861834049224853515625">
        <ele>462.399993896484375</ele>
        <time>2018-08-16T06:48:36.000Z</time>
      </trkpt>
      <trkpt lat="47.61581696569919586181640625" lon="8.7761371023952960968017578125">
        <ele>462</ele>
        <time>2018-08-16T06:48:37.000Z</time>
      </trkpt>
      <trkpt lat="47.61596448719501495361328125" lon="8.7763716280460357666015625">
        <ele>460.20001220703125</ele>
        <time>2018-08-16T06:48:39.000Z</time>
      </trkpt>
      <trkpt lat="47.61610253714025020599365234375" lon="8.77659919671714305877685546875">
        <ele>458.79998779296875</ele>
        <time>2018-08-16T06:48:41.000Z</time>
      </trkpt>
      <trkpt lat="47.61624234728515148162841796875" lon="8.7768073193728923797607421875">
        <ele>457.399993896484375</ele>
        <time>2018-08-16T06:48:43.000Z</time>
      </trkpt>
      <trkpt lat="47.616390287876129150390625" lon="8.7769833393394947052001953125">
        <ele>456.600006103515625</ele>
        <time>2018-08-16T06:48:45.000Z</time>
      </trkpt>
      <trkpt lat="47.61646740138530731201171875" lon="8.777059949934482574462890625">
        <ele>456.399993896484375</ele>
        <time>2018-08-16T06:48:46.000Z</time>
      </trkpt>
      <trkpt lat="47.6169895939528942108154296875" lon="8.7773632071912288665771484375">
        <ele>455.79998779296875</ele>
        <time>2018-08-16T06:48:52.000Z</time>
      </trkpt>
      <trkpt lat="47.6172888278961181640625" lon="8.7774248979985713958740234375">
        <ele>455.600006103515625</ele>
        <time>2018-08-16T06:48:55.000Z</time>
      </trkpt>
      <trkpt lat="47.617495693266391754150390625" lon="8.7774577550590038299560546875">
        <ele>455.399993896484375</ele>
        <time>2018-08-16T06:48:57.000Z</time>
      </trkpt>
      <trkpt lat="47.6178194023668766021728515625" lon="8.7775539793074131011962890625">
        <ele>454.20001220703125</ele>
        <time>2018-08-16T06:49:00.000Z</time>
      </trkpt>
      <trkpt lat="47.6181409321725368499755859375" lon="8.77773980610072612762451171875">
        <ele>452.79998779296875</ele>
        <time>2018-08-16T06:49:03.000Z</time>
      </trkpt>
      <trkpt lat="47.6183454506099224090576171875" lon="8.7778956256806850433349609375">
        <ele>451.399993896484375</ele>
        <time>2018-08-16T06:49:05.000Z</time>
      </trkpt>
      <trkpt lat="47.61844418942928314208984375" lon="8.77797625958919525146484375">
        <ele>450</ele>
        <time>2018-08-16T06:49:06.000Z</time>
      </trkpt>
      <trkpt lat="47.618640325963497161865234375" lon="8.7781262956559658050537109375">
        <ele>448.399993896484375</ele>
        <time>2018-08-16T06:49:08.000Z</time>
      </trkpt>
      <trkpt lat="47.618834115564823150634765625" lon="8.7782526947557926177978515625">
        <ele>446.79998779296875</ele>
        <time>2018-08-16T06:49:10.000Z</time>
      </trkpt>
      <trkpt lat="47.61912412941455841064453125" lon="8.778425194323062896728515625">
        <ele>445.20001220703125</ele>
        <time>2018-08-16T06:49:13.000Z</time>
      </trkpt>
      <trkpt lat="47.61941640637814998626708984375" lon="8.77857833169400691986083984375">
        <ele>444.600006103515625</ele>
        <time>2018-08-16T06:49:16.000Z</time>
      </trkpt>
      <trkpt lat="47.61961229145526885986328125" lon="8.7786691077053546905517578125">
        <ele>444.20001220703125</ele>
        <time>2018-08-16T06:49:18.000Z</time>
      </trkpt>
      <trkpt lat="47.61991563253104686737060546875" lon="8.7788166292011737823486328125">
        <ele>443.399993896484375</ele>
        <time>2018-08-16T06:49:21.000Z</time>
      </trkpt>
      <trkpt lat="47.620122246444225311279296875" lon="8.77891226671636104583740234375">
        <ele>443</ele>
        <time>2018-08-16T06:49:23.000Z</time>
      </trkpt>
      <trkpt lat="47.6204524934291839599609375" lon="8.77906917594373226165771484375">
        <ele>441.399993896484375</ele>
        <time>2018-08-16T06:49:26.000Z</time>
      </trkpt>
      <trkpt lat="47.62068693526089191436767578125" lon="8.77917964942753314971923828125">
        <ele>440</ele>
        <time>2018-08-16T06:49:28.000Z</time>
      </trkpt>
      <trkpt lat="47.62092481367290019989013671875" lon="8.7792903743684291839599609375">
        <ele>438.399993896484375</ele>
        <time>2018-08-16T06:49:30.000Z</time>
      </trkpt>
      <trkpt lat="47.621164955198764801025390625" lon="8.7794052064418792724609375">
        <ele>436.79998779296875</ele>
        <time>2018-08-16T06:49:32.000Z</time>
      </trkpt>
      <trkpt lat="47.62128892354667186737060546875" lon="8.77946379594504833221435546875">
        <ele>435.399993896484375</ele>
        <time>2018-08-16T06:49:33.000Z</time>
      </trkpt>
      <trkpt lat="47.62154038064181804656982421875" lon="8.7795894406735897064208984375">
        <ele>433.600006103515625</ele>
        <time>2018-08-16T06:49:35.000Z</time>
      </trkpt>
      <trkpt lat="47.6217991299927234649658203125" lon="8.77969983033835887908935546875">
        <ele>431.600006103515625</ele>
        <time>2018-08-16T06:49:37.000Z</time>
      </trkpt>
      <trkpt lat="47.62191832065582275390625" lon="8.7797383032739162445068359375">
        <ele>430.399993896484375</ele>
        <time>2018-08-16T06:49:38.000Z</time>
      </trkpt>
      <trkpt lat="47.6220264472067356109619140625" lon="8.77976587973535060882568359375">
        <ele>429.20001220703125</ele>
        <time>2018-08-16T06:49:39.000Z</time>
      </trkpt>
      <trkpt lat="47.6221253536641597747802734375" lon="8.77977912314236164093017578125">
        <ele>428.20001220703125</ele>
        <time>2018-08-16T06:49:40.000Z</time>
      </trkpt>
      <trkpt lat="47.6222133636474609375" lon="8.77977912314236164093017578125">
        <ele>427</ele>
        <time>2018-08-16T06:49:41.000Z</time>
      </trkpt>
      <trkpt lat="47.62236549519002437591552734375" lon="8.77972329966723918914794921875">
        <ele>425.20001220703125</ele>
        <time>2018-08-16T06:49:43.000Z</time>
      </trkpt>
      <trkpt lat="47.62247781269252300262451171875" lon="8.77958365716040134429931640625">
        <ele>423.20001220703125</ele>
        <time>2018-08-16T06:49:45.000Z</time>
      </trkpt>
      <trkpt lat="47.6225109212100505828857421875" lon="8.7794915400445461273193359375">
        <ele>422</ele>
        <time>2018-08-16T06:49:46.000Z</time>
      </trkpt>
      <trkpt lat="47.62253263033926486968994140625" lon="8.7793986685574054718017578125">
        <ele>421</ele>
        <time>2018-08-16T06:49:47.000Z</time>
      </trkpt>
      <trkpt lat="47.622554339468479156494140625" lon="8.7793175317347049713134765625">
        <ele>420.20001220703125</ele>
        <time>2018-08-16T06:49:48.000Z</time>
      </trkpt>
      <trkpt lat="47.622626088559627532958984375" lon="8.77922290004789829254150390625">
        <ele>419</ele>
        <time>2018-08-16T06:49:50.000Z</time>
      </trkpt>
      <trkpt lat="47.62271971441805362701416015625" lon="8.7792166136205196380615234375">
        <ele>418.600006103515625</ele>
        <time>2018-08-16T06:49:52.000Z</time>
      </trkpt>
      <trkpt lat="47.622822560369968414306640625" lon="8.77927168272435665130615234375">
        <ele>418.399993896484375</ele>
        <time>2018-08-16T06:49:54.000Z</time>
      </trkpt>
      <trkpt lat="47.62287578545510768890380859375" lon="8.779318369925022125244140625">
        <ele>418.399993896484375</ele>
        <time>2018-08-16T06:49:55.000Z</time>
      </trkpt>
      <trkpt lat="47.62298827059566974639892578125" lon="8.77941451035439968109130859375">
        <ele>418.399993896484375</ele>
        <time>2018-08-16T06:49:57.000Z</time>
      </trkpt>
      <trkpt lat="47.62304526753723621368408203125" lon="8.77946480177342891693115234375">
        <ele>418.399993896484375</ele>
        <time>2018-08-16T06:49:58.000Z</time>
      </trkpt>
      <trkpt lat="47.623523287475109100341796875" lon="8.7799186818301677703857421875">
        <ele>418.20001220703125</ele>
        <time>2018-08-16T06:50:06.000Z</time>
      </trkpt>
      <trkpt lat="47.62371581979095935821533203125" lon="8.78008313477039337158203125">
        <ele>417.79998779296875</ele>
        <time>2018-08-16T06:50:09.000Z</time>
      </trkpt>
      <trkpt lat="47.62384339235723018646240234375" lon="8.780192770063877105712890625">
        <ele>417.399993896484375</ele>
        <time>2018-08-16T06:50:11.000Z</time>
      </trkpt>
      <trkpt lat="47.62403282336890697479248046875" lon="8.78034926019608974456787109375">
        <ele>416.79998779296875</ele>
        <time>2018-08-16T06:50:14.000Z</time>
      </trkpt>
      <trkpt lat="47.6240940950810909271240234375" lon="8.78040340729057788848876953125">
        <ele>416.79998779296875</ele>
        <time>2018-08-16T06:50:15.000Z</time>
      </trkpt>
      <trkpt lat="47.6241547800600528717041015625" lon="8.78046040423214435577392578125">
        <ele>416.600006103515625</ele>
        <time>2018-08-16T06:50:16.000Z</time>
      </trkpt>
      <trkpt lat="47.62462676502764225006103515625" lon="8.78087296150624752044677734375">
        <ele>416.600006103515625</ele>
        <time>2018-08-16T06:50:24.000Z</time>
      </trkpt>
      <trkpt lat="47.6247395016252994537353515625" lon="8.78097304143011569976806640625">
        <ele>416.600006103515625</ele>
        <time>2018-08-16T06:50:26.000Z</time>
      </trkpt>
      <trkpt lat="47.6252507977187633514404296875" lon="8.7814207188785076141357421875">
        <ele>417</ele>
        <time>2018-08-16T06:50:35.000Z</time>
      </trkpt>
      <trkpt lat="47.62542572803795337677001953125" lon="8.78157653845846652984619140625">
        <ele>417</ele>
        <time>2018-08-16T06:50:38.000Z</time>
      </trkpt>
      <trkpt lat="47.6257892511785030364990234375" lon="8.78189488314092159271240234375">
        <ele>417</ele>
        <time>2018-08-16T06:50:44.000Z</time>
      </trkpt>
      <trkpt lat="47.62626743875443935394287109375" lon="8.7823021598160266876220703125">
        <ele>417</ele>
        <time>2018-08-16T06:50:52.000Z</time>
      </trkpt>
      <trkpt lat="47.62667798437178134918212890625" lon="8.7826619111001491546630859375">
        <ele>417.399993896484375</ele>
        <time>2018-08-16T06:50:59.000Z</time>
      </trkpt>
      <trkpt lat="47.6269204728305339813232421875" lon="8.78287129104137420654296875">
        <ele>417.79998779296875</ele>
        <time>2018-08-16T06:51:03.000Z</time>
      </trkpt>
      <trkpt lat="47.62722096405923366546630859375" lon="8.7831346504390239715576171875">
        <ele>418.20001220703125</ele>
        <time>2018-08-16T06:51:08.000Z</time>
      </trkpt>
      <trkpt lat="47.627703845500946044921875" lon="8.7835483811795711517333984375">
        <ele>418.399993896484375</ele>
        <time>2018-08-16T06:51:16.000Z</time>
      </trkpt>
      <trkpt lat="47.6281893253326416015625" lon="8.7839725054800510406494140625">
        <ele>418.79998779296875</ele>
        <time>2018-08-16T06:51:24.000Z</time>
      </trkpt>
      <trkpt lat="47.62837179936468601226806640625" lon="8.7841334380209445953369140625">
        <ele>418.79998779296875</ele>
        <time>2018-08-16T06:51:27.000Z</time>
      </trkpt>
      <trkpt lat="47.62849333696067333221435546875" lon="8.78423745743930339813232421875">
        <ele>419</ele>
        <time>2018-08-16T06:51:29.000Z</time>
      </trkpt>
      <trkpt lat="47.6287339814007282257080078125" lon="8.78444666974246501922607421875">
        <ele>419.399993896484375</ele>
        <time>2018-08-16T06:51:33.000Z</time>
      </trkpt>
      <trkpt lat="47.62921686284244060516357421875" lon="8.784862495958805084228515625">
        <ele>419.600006103515625</ele>
        <time>2018-08-16T06:51:41.000Z</time>
      </trkpt>
      <trkpt lat="47.62951634824275970458984375" lon="8.78512174822390079498291015625">
        <ele>419.600006103515625</ele>
        <time>2018-08-16T06:51:46.000Z</time>
      </trkpt>
      <trkpt lat="47.6299852319061756134033203125" lon="8.78551284782588481903076171875">
        <ele>420</ele>
        <time>2018-08-16T06:51:54.000Z</time>
      </trkpt>
      <trkpt lat="47.63046258129179477691650390625" lon="8.78590327687561511993408203125">
        <ele>420.399993896484375</ele>
        <time>2018-08-16T06:52:02.000Z</time>
      </trkpt>
      <trkpt lat="47.630929537117481231689453125" lon="8.78631130792200565338134765625">
        <ele>420.600006103515625</ele>
        <time>2018-08-16T06:52:10.000Z</time>
      </trkpt>
      <trkpt lat="47.6312210597097873687744140625" lon="8.78657030873000621795654296875">
        <ele>420.79998779296875</ele>
        <time>2018-08-16T06:52:15.000Z</time>
      </trkpt>
      <trkpt lat="47.6313985884189605712890625" lon="8.7867207638919353485107421875">
        <ele>420.79998779296875</ele>
        <time>2018-08-16T06:52:18.000Z</time>
      </trkpt>
      <trkpt lat="47.6316227205097675323486328125" lon="8.7869202531874179840087890625">
        <ele>421</ele>
        <time>2018-08-16T06:52:22.000Z</time>
      </trkpt>
      <trkpt lat="47.6320924423635005950927734375" lon="8.78731973469257354736328125">
        <ele>421.600006103515625</ele>
        <time>2018-08-16T06:52:30.000Z</time>
      </trkpt>
      <trkpt lat="47.63256610371172428131103515625" lon="8.78772466443479061126708984375">
        <ele>422</ele>
        <time>2018-08-16T06:52:38.000Z</time>
      </trkpt>
      <trkpt lat="47.632680349051952362060546875" lon="8.7878208048641681671142578125">
        <ele>422</ele>
        <time>2018-08-16T06:52:40.000Z</time>
      </trkpt>
      <trkpt lat="47.6329507492482662200927734375" lon="8.78806882537901401519775390625">
        <ele>422.399993896484375</ele>
        <time>2018-08-16T06:52:45.000Z</time>
      </trkpt>
      <trkpt lat="47.63300321996212005615234375" lon="8.78811643458902835845947265625">
        <ele>422.399993896484375</ele>
        <time>2018-08-16T06:52:46.000Z</time>
      </trkpt>
      <trkpt lat="47.63305543921887874603271484375" lon="8.7881654687225818634033203125">
        <ele>422.399993896484375</ele>
        <time>2018-08-16T06:52:47.000Z</time>
      </trkpt>
      <trkpt lat="47.63328979723155498504638671875" lon="8.788394965231418609619140625">
        <ele>422.399993896484375</ele>
        <time>2018-08-16T06:52:51.000Z</time>
      </trkpt>
      <trkpt lat="47.63337244279682636260986328125" lon="8.78856939263641834259033203125">
        <ele>422.399993896484375</ele>
        <time>2018-08-16T06:52:53.000Z</time>
      </trkpt>
      <trkpt lat="47.63350755907595157623291015625" lon="8.78889150917530059814453125">
        <ele>421.20001220703125</ele>
        <time>2018-08-16T06:52:57.000Z</time>
      </trkpt>
      <trkpt lat="47.63355173170566558837890625" lon="8.78893978893756866455078125">
        <ele>421</ele>
        <time>2018-08-16T06:52:58.000Z</time>
      </trkpt>
      <trkpt lat="47.63365055434405803680419921875" lon="8.788962252438068389892578125">
        <ele>420.399993896484375</ele>
        <time>2018-08-16T06:53:00.000Z</time>
      </trkpt>
      <trkpt lat="47.6336953975260257720947265625" lon="8.78896082751452922821044921875">
        <ele>420.20001220703125</ele>
        <time>2018-08-16T06:53:01.000Z</time>
      </trkpt>
      <trkpt lat="47.6337366364896297454833984375" lon="8.7889557145535945892333984375">
        <ele>420.20001220703125</ele>
        <time>2018-08-16T06:53:02.000Z</time>
      </trkpt>
      <trkpt lat="47.63377376832067966461181640625" lon="8.7889563851058483123779296875">
        <ele>420.20001220703125</ele>
        <time>2018-08-16T06:53:03.000Z</time>
      </trkpt>
      <trkpt lat="47.6338103972375392913818359375" lon="8.78895965404808521270751953125">
        <ele>420.20001220703125</ele>
        <time>2018-08-16T06:53:04.000Z</time>
      </trkpt>
      <trkpt lat="47.63388373889029026031494140625" lon="8.78897306509315967559814453125">
        <ele>420.20001220703125</ele>
        <time>2018-08-16T06:53:06.000Z</time>
      </trkpt>
      <trkpt lat="47.63401868753135204315185546875" lon="8.78903307951986789703369140625">
        <ele>421.20001220703125</ele>
        <time>2018-08-16T06:53:10.000Z</time>
      </trkpt>
      <trkpt lat="47.63408415019512176513671875" lon="8.78908705897629261016845703125">
        <ele>422.20001220703125</ele>
        <time>2018-08-16T06:53:12.000Z</time>
      </trkpt>
      <trkpt lat="47.63425354845821857452392578125" lon="8.78919552080333232879638671875">
        <ele>423</ele>
        <time>2018-08-16T06:53:16.000Z</time>
      </trkpt>
      <trkpt lat="47.63435329310595989227294921875" lon="8.78925494849681854248046875">
        <ele>423.20001220703125</ele>
        <time>2018-08-16T06:53:18.000Z</time>
      </trkpt>
      <trkpt lat="47.634403668344020843505859375" lon="8.78928822465240955352783203125">
        <ele>423.20001220703125</ele>
        <time>2018-08-16T06:53:19.000Z</time>
      </trkpt>
      <trkpt lat="47.6345582306385040283203125" lon="8.78940221853554248809814453125">
        <ele>423.399993896484375</ele>
        <time>2018-08-16T06:53:22.000Z</time>
      </trkpt>
      <trkpt lat="47.63504580594599246978759765625" lon="8.78980170004069805145263671875">
        <ele>423.600006103515625</ele>
        <time>2018-08-16T06:53:31.000Z</time>
      </trkpt>
      <trkpt lat="47.635217048227787017822265625" lon="8.78995240665972232818603515625">
        <ele>423.79998779296875</ele>
        <time>2018-08-16T06:53:34.000Z</time>
      </trkpt>
      <trkpt lat="47.6356185413897037506103515625" lon="8.7903030216693878173828125">
        <ele>424</ele>
        <time>2018-08-16T06:53:41.000Z</time>
      </trkpt>
      <trkpt lat="47.63605951331555843353271484375" lon="8.7906867451965808868408203125">
        <ele>424.20001220703125</ele>
        <time>2018-08-16T06:53:49.000Z</time>
      </trkpt>
      <trkpt lat="47.636163868010044097900390625" lon="8.79077483899891376495361328125">
        <ele>424.399993896484375</ele>
        <time>2018-08-16T06:53:51.000Z</time>
      </trkpt>
      <trkpt lat="47.63621239922940731048583984375" lon="8.7908208556473255157470703125">
        <ele>424.399993896484375</ele>
        <time>2018-08-16T06:53:52.000Z</time>
      </trkpt>
      <trkpt lat="47.63630510307848453521728515625" lon="8.79090274684131145477294921875">
        <ele>424.600006103515625</ele>
        <time>2018-08-16T06:53:54.000Z</time>
      </trkpt>
      <trkpt lat="47.63637400232255458831787109375" lon="8.79096695221960544586181640625">
        <ele>424.79998779296875</ele>
        <time>2018-08-16T06:53:57.000Z</time>
      </trkpt>
      <trkpt lat="47.6364476792514324188232421875" lon="8.79103752784430980682373046875">
        <ele>425</ele>
        <time>2018-08-16T06:54:01.000Z</time>
      </trkpt>
      <trkpt lat="47.6364751718938350677490234375" lon="8.79106619395315647125244140625">
        <ele>425</ele>
        <time>2018-08-16T06:54:02.000Z</time>
      </trkpt>
      <trkpt lat="47.636509872972965240478515625" lon="8.7910934351384639739990234375">
        <ele>425</ele>
        <time>2018-08-16T06:54:03.000Z</time>
      </trkpt>
      <trkpt lat="47.6365895010530948638916015625" lon="8.79114045761525630950927734375">
        <ele>425</ele>
        <time>2018-08-16T06:54:05.000Z</time>
      </trkpt>
      <trkpt lat="47.63667927123606204986572265625" lon="8.79117566160857677459716796875">
        <ele>425.20001220703125</ele>
        <time>2018-08-16T06:54:07.000Z</time>
      </trkpt>
      <trkpt lat="47.6368352584540843963623046875" lon="8.79118605516850948333740234375">
        <ele>425.20001220703125</ele>
        <time>2018-08-16T06:54:10.000Z</time>
      </trkpt>
      <trkpt lat="47.63689200393855571746826171875" lon="8.791178762912750244140625">
        <ele>425.399993896484375</ele>
        <time>2018-08-16T06:54:11.000Z</time>
      </trkpt>
      <trkpt lat="47.63700884766876697540283203125" lon="8.7911571376025676727294921875">
        <ele>425.399993896484375</ele>
        <time>2018-08-16T06:54:13.000Z</time>
      </trkpt>
      <trkpt lat="47.6371869631111621856689453125" lon="8.7911081872880458831787109375">
        <ele>425.399993896484375</ele>
        <time>2018-08-16T06:54:16.000Z</time>
      </trkpt>
      <trkpt lat="47.637425847351551055908203125" lon="8.7909831292927265167236328125">
        <ele>425.600006103515625</ele>
        <time>2018-08-16T06:54:20.000Z</time>
      </trkpt>
      <trkpt lat="47.6379725150763988494873046875" lon="8.7906522117555141448974609375">
        <ele>425.79998779296875</ele>
        <time>2018-08-16T06:54:29.000Z</time>
      </trkpt>
      <trkpt lat="47.63808961026370525360107421875" lon="8.79057602025568485260009765625">
        <ele>425.79998779296875</ele>
        <time>2018-08-16T06:54:31.000Z</time>
      </trkpt>
      <trkpt lat="47.63842958025634288787841796875" lon="8.79039446823298931121826171875">
        <ele>425.79998779296875</ele>
        <time>2018-08-16T06:54:37.000Z</time>
      </trkpt>
      <trkpt lat="47.63865002430975437164306640625" lon="8.79032070748507976531982421875">
        <ele>426.20001220703125</ele>
        <time>2018-08-16T06:54:41.000Z</time>
      </trkpt>
      <trkpt lat="47.638810537755489349365234375" lon="8.79031165502965450286865234375">
        <ele>426.600006103515625</ele>
        <time>2018-08-16T06:54:44.000Z</time>
      </trkpt>
      <trkpt lat="47.63899904675781726837158203125" lon="8.79029522649943828582763671875">
        <ele>427.20001220703125</ele>
        <time>2018-08-16T06:54:48.000Z</time>
      </trkpt>
      <trkpt lat="47.63921387493610382080078125" lon="8.7902783788740634918212890625">
        <ele>428.399993896484375</ele>
        <time>2018-08-16T06:54:53.000Z</time>
      </trkpt>
      <trkpt lat="47.63940037228167057037353515625" lon="8.79027343355119228363037109375">
        <ele>429.79998779296875</ele>
        <time>2018-08-16T06:54:57.000Z</time>
      </trkpt>
      <trkpt lat="47.6395003683865070343017578125" lon="8.79025080241262912750244140625">
        <ele>430.399993896484375</ele>
        <time>2018-08-16T06:54:59.000Z</time>
      </trkpt>
      <trkpt lat="47.639604471623897552490234375" lon="8.79021626897156238555908203125">
        <ele>430.79998779296875</ele>
        <time>2018-08-16T06:55:01.000Z</time>
      </trkpt>
      <trkpt lat="47.63982298783957958221435546875" lon="8.7901420891284942626953125">
        <ele>431.79998779296875</ele>
        <time>2018-08-16T06:55:05.000Z</time>
      </trkpt>
      <trkpt lat="47.6398752070963382720947265625" lon="8.7901171110570430755615234375">
        <ele>432</ele>
        <time>2018-08-16T06:55:06.000Z</time>
      </trkpt>
      <trkpt lat="47.64012314379215240478515625" lon="8.78999230451881885528564453125">
        <ele>432.79998779296875</ele>
        <time>2018-08-16T06:55:11.000Z</time>
      </trkpt>
      <trkpt lat="47.6401769556105136871337890625" lon="8.7899766303598880767822265625">
        <ele>433</ele>
        <time>2018-08-16T06:55:12.000Z</time>
      </trkpt>
      <trkpt lat="47.6406218670308589935302734375" lon="8.789794743061065673828125">
        <ele>434</ele>
        <time>2018-08-16T06:55:20.000Z</time>
      </trkpt>
      <trkpt lat="47.6409568078815937042236328125" lon="8.7896892987191677093505859375">
        <ele>434.600006103515625</ele>
        <time>2018-08-16T06:55:26.000Z</time>
      </trkpt>
      <trkpt lat="47.64118085615336894989013671875" lon="8.7895964272320270538330078125">
        <ele>435</ele>
        <time>2018-08-16T06:55:30.000Z</time>
      </trkpt>
      <trkpt lat="47.6413497515022754669189453125" lon="8.7895144522190093994140625">
        <ele>435.20001220703125</ele>
        <time>2018-08-16T06:55:33.000Z</time>
      </trkpt>
      <trkpt lat="47.641871273517608642578125" lon="8.789384700357913970947265625">
        <ele>435.79998779296875</ele>
        <time>2018-08-16T06:55:41.000Z</time>
      </trkpt>
      <trkpt lat="47.6420722715556621551513671875" lon="8.78937690518796443939208984375">
        <ele>435.79998779296875</ele>
        <time>2018-08-16T06:55:44.000Z</time>
      </trkpt>
      <trkpt lat="47.6424015127122402191162109375" lon="8.7893560342490673065185546875">
        <ele>436</ele>
        <time>2018-08-16T06:55:49.000Z</time>
      </trkpt>
      <trkpt lat="47.64295689761638641357421875" lon="8.789351843297481536865234375">
        <ele>436.20001220703125</ele>
        <time>2018-08-16T06:55:58.000Z</time>
      </trkpt>
      <trkpt lat="47.64325537718832492828369140625" lon="8.789318986237049102783203125">
        <ele>437.20001220703125</ele>
        <time>2018-08-16T06:56:03.000Z</time>
      </trkpt>
      <trkpt lat="47.64356173574924468994140625" lon="8.7892366759479045867919921875">
        <ele>437.79998779296875</ele>
        <time>2018-08-16T06:56:08.000Z</time>
      </trkpt>
      <trkpt lat="47.64374077320098876953125" lon="8.7891669385135173797607421875">
        <ele>438</ele>
        <time>2018-08-16T06:56:11.000Z</time>
      </trkpt>
      <trkpt lat="47.64379936270415782928466796875" lon="8.78913735039532184600830078125">
        <ele>438.20001220703125</ele>
        <time>2018-08-16T06:56:12.000Z</time>
      </trkpt>
      <trkpt lat="47.64397923834621906280517578125" lon="8.7890438921749591827392578125">
        <ele>438.399993896484375</ele>
        <time>2018-08-16T06:56:15.000Z</time>
      </trkpt>
      <trkpt lat="47.64410211704671382904052734375" lon="8.78897474147379398345947265625">
        <ele>438.79998779296875</ele>
        <time>2018-08-16T06:56:17.000Z</time>
      </trkpt>
      <trkpt lat="47.644221894443035125732421875" lon="8.7888853065669536590576171875">
        <ele>439.20001220703125</ele>
        <time>2018-08-16T06:56:19.000Z</time>
      </trkpt>
      <trkpt lat="47.64474249444901943206787109375" lon="8.7884702347218990325927734375">
        <ele>440.399993896484375</ele>
        <time>2018-08-16T06:56:28.000Z</time>
      </trkpt>
      <trkpt lat="47.6450964622199535369873046875" lon="8.7882278300821781158447265625">
        <ele>440.600006103515625</ele>
        <time>2018-08-16T06:56:34.000Z</time>
      </trkpt>
      <trkpt lat="47.6454827003180980682373046875" lon="8.7880554981529712677001953125">
        <ele>440.79998779296875</ele>
        <time>2018-08-16T06:56:40.000Z</time>
      </trkpt>
      <trkpt lat="47.6456893980503082275390625" lon="8.7879931367933750152587890625">
        <ele>440.79998779296875</ele>
        <time>2018-08-16T06:56:43.000Z</time>
      </trkpt>
      <trkpt lat="47.64627504162490367889404296875" lon="8.7878124229609966278076171875">
        <ele>440.79998779296875</ele>
        <time>2018-08-16T06:56:51.000Z</time>
      </trkpt>
      <trkpt lat="47.6466873474419116973876953125" lon="8.787671439349651336669921875">
        <ele>440.600006103515625</ele>
        <time>2018-08-16T06:56:56.000Z</time>
      </trkpt>
      <trkpt lat="47.64685858972370624542236328125" lon="8.7875737063586711883544921875">
        <ele>440.20001220703125</ele>
        <time>2018-08-16T06:56:58.000Z</time>
      </trkpt>
      <trkpt lat="47.64694307930767536163330078125" lon="8.78750975243747234344482421875">
        <ele>439.79998779296875</ele>
        <time>2018-08-16T06:56:59.000Z</time>
      </trkpt>
      <trkpt lat="47.64710837043821811676025390625" lon="8.7873520888388156890869140625">
        <ele>439.20001220703125</ele>
        <time>2018-08-16T06:57:01.000Z</time>
      </trkpt>
      <trkpt lat="47.64718615449965000152587890625" lon="8.78725863061845302581787109375">
        <ele>438.79998779296875</ele>
        <time>2018-08-16T06:57:02.000Z</time>
      </trkpt>
      <trkpt lat="47.64732730574905872344970703125" lon="8.7870416231453418731689453125">
        <ele>438</ele>
        <time>2018-08-16T06:57:04.000Z</time>
      </trkpt>
      <trkpt lat="47.647444568574428558349609375" lon="8.7868444807827472686767578125">
        <ele>437</ele>
        <time>2018-08-16T06:57:06.000Z</time>
      </trkpt>
      <trkpt lat="47.647539116442203521728515625" lon="8.7866966240108013153076171875">
        <ele>436.20001220703125</ele>
        <time>2018-08-16T06:57:08.000Z</time>
      </trkpt>
      <trkpt lat="47.64759267680346965789794921875" lon="8.78666485659778118133544921875">
        <ele>435.600006103515625</ele>
        <time>2018-08-16T06:57:09.000Z</time>
      </trkpt>
      <trkpt lat="47.6476505957543849945068359375" lon="8.78666368313133716583251953125">
        <ele>435.20001220703125</ele>
        <time>2018-08-16T06:57:10.000Z</time>
      </trkpt>
      <trkpt lat="47.64770465902984142303466796875" lon="8.7866895832121372222900390625">
        <ele>434.399993896484375</ele>
        <time>2018-08-16T06:57:11.000Z</time>
      </trkpt>
      <trkpt lat="47.6477535255253314971923828125" lon="8.78673543222248554229736328125">
        <ele>433.79998779296875</ele>
        <time>2018-08-16T06:57:12.000Z</time>
      </trkpt>
      <trkpt lat="47.6478014700114727020263671875" lon="8.7867864780128002166748046875">
        <ele>433.20001220703125</ele>
        <time>2018-08-16T06:57:13.000Z</time>
      </trkpt>
      <trkpt lat="47.647899203002452850341796875" lon="8.786886893212795257568359375">
        <ele>432.600006103515625</ele>
        <time>2018-08-16T06:57:15.000Z</time>
      </trkpt>
      <trkpt lat="47.64808335341513156890869140625" lon="8.7870791740715503692626953125">
        <ele>432.399993896484375</ele>
        <time>2018-08-16T06:57:19.000Z</time>
      </trkpt>
      <trkpt lat="47.648127190768718719482421875" lon="8.78712502308189868927001953125">
        <ele>432.399993896484375</ele>
        <time>2018-08-16T06:57:20.000Z</time>
      </trkpt>
      <trkpt lat="47.64830815605819225311279296875" lon="8.78730707801878452301025390625">
        <ele>432.399993896484375</ele>
        <time>2018-08-16T06:57:24.000Z</time>
      </trkpt>
      <trkpt lat="47.6483543403446674346923828125" lon="8.7873541004955768585205078125">
        <ele>432.600006103515625</ele>
        <time>2018-08-16T06:57:25.000Z</time>
      </trkpt>
      <trkpt lat="47.64840270392596721649169921875" lon="8.78740078769624233245849609375">
        <ele>432.600006103515625</ele>
        <time>2018-08-16T06:57:26.000Z</time>
      </trkpt>
      <trkpt lat="47.64850278384983539581298828125" lon="8.7874947488307952880859375">
        <ele>432.79998779296875</ele>
        <time>2018-08-16T06:57:28.000Z</time>
      </trkpt>
      <trkpt lat="47.649006955325603485107421875" lon="8.78796421922743320465087890625">
        <ele>434.399993896484375</ele>
        <time>2018-08-16T06:57:38.000Z</time>
      </trkpt>
      <trkpt lat="47.64915472827851772308349609375" lon="8.78810822032392024993896484375">
        <ele>434.79998779296875</ele>
        <time>2018-08-16T06:57:41.000Z</time>
      </trkpt>
      <trkpt lat="47.64930845238268375396728515625" lon="8.788245432078838348388671875">
        <ele>435.399993896484375</ele>
        <time>2018-08-16T06:57:44.000Z</time>
      </trkpt>
      <trkpt lat="47.6495251245796680450439453125" lon="8.7884196080267429351806640625">
        <ele>436</ele>
        <time>2018-08-16T06:57:48.000Z</time>
      </trkpt>
      <trkpt lat="47.6496397890150547027587890625" lon="8.78849714063107967376708984375">
        <ele>436.600006103515625</ele>
        <time>2018-08-16T06:57:50.000Z</time>
      </trkpt>
      <trkpt lat="47.64987305738031864166259765625" lon="8.78865136764943599700927734375">
        <ele>437.399993896484375</ele>
        <time>2018-08-16T06:57:54.000Z</time>
      </trkpt>
      <trkpt lat="47.64999157749116420745849609375" lon="8.7887226976454257965087890625">
        <ele>437.600006103515625</ele>
        <time>2018-08-16T06:57:56.000Z</time>
      </trkpt>
      <trkpt lat="47.650357447564601898193359375" lon="8.7889107875525951385498046875">
        <ele>438.79998779296875</ele>
        <time>2018-08-16T06:58:02.000Z</time>
      </trkpt>
      <trkpt lat="47.65081233344972133636474609375" lon="8.7890665233135223388671875">
        <ele>439.79998779296875</ele>
        <time>2018-08-16T06:58:09.000Z</time>
      </trkpt>
      <trkpt lat="47.65121818520128726959228515625" lon="8.78916266374289989471435546875">
        <ele>440.79998779296875</ele>
        <time>2018-08-16T06:58:15.000Z</time>
      </trkpt>
      <trkpt lat="47.651779353618621826171875" lon="8.7892784178256988525390625">
        <ele>441.399993896484375</ele>
        <time>2018-08-16T06:58:23.000Z</time>
      </trkpt>
      <trkpt lat="47.65233113430440425872802734375" lon="8.78939601592719554901123046875">
        <ele>441.399993896484375</ele>
        <time>2018-08-16T06:58:31.000Z</time>
      </trkpt>
      <trkpt lat="47.652469016611576080322265625" lon="8.7894261069595813751220703125">
        <ele>441.399993896484375</ele>
        <time>2018-08-16T06:58:33.000Z</time>
      </trkpt>
      <trkpt lat="47.652679570019245147705078125" lon="8.78947346471250057220458984375">
        <ele>441.600006103515625</ele>
        <time>2018-08-16T06:58:36.000Z</time>
      </trkpt>
      <trkpt lat="47.65302331186830997467041015625" lon="8.7895873747766017913818359375">
        <ele>441.79998779296875</ele>
        <time>2018-08-16T06:58:41.000Z</time>
      </trkpt>
      <trkpt lat="47.65308802016079425811767578125" lon="8.78962651826441287994384765625">
        <ele>441.79998779296875</ele>
        <time>2018-08-16T06:58:42.000Z</time>
      </trkpt>
      <trkpt lat="47.65315138734877109527587890625" lon="8.78967194817960262298583984375">
        <ele>442</ele>
        <time>2018-08-16T06:58:43.000Z</time>
      </trkpt>
      <trkpt lat="47.65356847085058689117431640625" lon="8.79020285792648792266845703125">
        <ele>442.20001220703125</ele>
        <time>2018-08-16T06:58:51.000Z</time>
      </trkpt>
      <trkpt lat="47.6537791080772876739501953125" lon="8.79084692336618900299072265625">
        <ele>443</ele>
        <time>2018-08-16T06:58:58.000Z</time>
      </trkpt>
      <trkpt lat="47.65400533564388751983642578125" lon="8.791570700705051422119140625">
        <ele>443.79998779296875</ele>
        <time>2018-08-16T06:59:06.000Z</time>
      </trkpt>
      <trkpt lat="47.654044143855571746826171875" lon="8.791652508080005645751953125">
        <ele>444</ele>
        <time>2018-08-16T06:59:07.000Z</time>
      </trkpt>
      <trkpt lat="47.65449576079845428466796875" lon="8.79222205840051174163818359375">
        <ele>444.79998779296875</ele>
        <time>2018-08-16T06:59:16.000Z</time>
      </trkpt>
      <trkpt lat="47.6547423563897609710693359375" lon="8.79236488603055477142333984375">
        <ele>445</ele>
        <time>2018-08-16T06:59:20.000Z</time>
      </trkpt>
      <trkpt lat="47.65530888922512531280517578125" lon="8.792646937072277069091796875">
        <ele>446.20001220703125</ele>
        <time>2018-08-16T06:59:29.000Z</time>
      </trkpt>
      <trkpt lat="47.65556654892861843109130859375" lon="8.79279009997844696044921875">
        <ele>446.399993896484375</ele>
        <time>2018-08-16T06:59:33.000Z</time>
      </trkpt>
      <trkpt lat="47.65601950697600841522216796875" lon="8.79301833920180797576904296875">
        <ele>447</ele>
        <time>2018-08-16T06:59:40.000Z</time>
      </trkpt>
      <trkpt lat="47.65626442618668079376220703125" lon="8.793151862919330596923828125">
        <ele>447.399993896484375</ele>
        <time>2018-08-16T06:59:44.000Z</time>
      </trkpt>
      <trkpt lat="47.656604982912540435791015625" lon="8.79335378296673297882080078125">
        <ele>448</ele>
        <time>2018-08-16T06:59:50.000Z</time>
      </trkpt>
      <trkpt lat="47.656753174960613250732421875" lon="8.79347934387624263763427734375">
        <ele>448.399993896484375</ele>
        <time>2018-08-16T06:59:53.000Z</time>
      </trkpt>
      <trkpt lat="47.6569907180964946746826171875" lon="8.793761730194091796875">
        <ele>448.79998779296875</ele>
        <time>2018-08-16T06:59:58.000Z</time>
      </trkpt>
      <trkpt lat="47.657132036983966827392578125" lon="8.79397035576403141021728515625">
        <ele>449.20001220703125</ele>
        <time>2018-08-16T07:00:01.000Z</time>
      </trkpt>
      <trkpt lat="47.6571754552423954010009765625" lon="8.79404537379741668701171875">
        <ele>449.399993896484375</ele>
        <time>2018-08-16T07:00:02.000Z</time>
      </trkpt>
      <trkpt lat="47.65725667588412761688232421875" lon="8.79419960081577301025390625">
        <ele>449.600006103515625</ele>
        <time>2018-08-16T07:00:04.000Z</time>
      </trkpt>
      <trkpt lat="47.65739128924906253814697265625" lon="8.79443890415132045745849609375">
        <ele>450</ele>
        <time>2018-08-16T07:00:07.000Z</time>
      </trkpt>
      <trkpt lat="47.6574768684804439544677734375" lon="8.794604949653148651123046875">
        <ele>450.20001220703125</ele>
        <time>2018-08-16T07:00:09.000Z</time>
      </trkpt>
      <trkpt lat="47.6576508767902851104736328125" lon="8.79502412863075733184814453125">
        <ele>450.600006103515625</ele>
        <time>2018-08-16T07:00:14.000Z</time>
      </trkpt>
      <trkpt lat="47.65777249820530414581298828125" lon="8.7953618355095386505126953125">
        <ele>451.20001220703125</ele>
        <time>2018-08-16T07:00:18.000Z</time>
      </trkpt>
      <trkpt lat="47.65785656869411468505859375" lon="8.79563533701002597808837890625">
        <ele>451.399993896484375</ele>
        <time>2018-08-16T07:00:21.000Z</time>
      </trkpt>
      <trkpt lat="47.657963521778583526611328125" lon="8.796154595911502838134765625">
        <ele>452</ele>
        <time>2018-08-16T07:00:26.000Z</time>
      </trkpt>
      <trkpt lat="47.6581777632236480712890625" lon="8.79698130302131175994873046875">
        <ele>452.79998779296875</ele>
        <time>2018-08-16T07:00:34.000Z</time>
      </trkpt>
      <trkpt lat="47.65821757726371288299560546875" lon="8.7971802055835723876953125">
        <ele>453.20001220703125</ele>
        <time>2018-08-16T07:00:36.000Z</time>
      </trkpt>
      <trkpt lat="47.65831598080694675445556640625" lon="8.79760743118822574615478515625">
        <ele>453.600006103515625</ele>
        <time>2018-08-16T07:00:40.000Z</time>
      </trkpt>
      <trkpt lat="47.65840147621929645538330078125" lon="8.7980128638446331024169921875">
        <ele>453.79998779296875</ele>
        <time>2018-08-16T07:00:44.000Z</time>
      </trkpt>
      <trkpt lat="47.65841404907405376434326171875" lon="8.79811227321624755859375">
        <ele>454</ele>
        <time>2018-08-16T07:00:45.000Z</time>
      </trkpt>
      <trkpt lat="47.65845478512346744537353515625" lon="8.7986321188509464263916015625">
        <ele>454.600006103515625</ele>
        <time>2018-08-16T07:00:50.000Z</time>
      </trkpt>
      <trkpt lat="47.65846836380660533905029296875" lon="8.79917467944324016571044921875">
        <ele>455</ele>
        <time>2018-08-16T07:00:55.000Z</time>
      </trkpt>
      <trkpt lat="47.658504657447338104248046875" lon="8.7996210157871246337890625">
        <ele>455.600006103515625</ele>
        <time>2018-08-16T07:00:59.000Z</time>
      </trkpt>
      <trkpt lat="47.6585219241678714752197265625" lon="8.80004589445888996124267578125">
        <ele>456</ele>
        <time>2018-08-16T07:01:03.000Z</time>
      </trkpt>
      <trkpt lat="47.65852016396820545196533203125" lon="8.8003497384488582611083984375">
        <ele>456.20001220703125</ele>
        <time>2018-08-16T07:01:06.000Z</time>
      </trkpt>
      <trkpt lat="47.658510692417621612548828125" lon="8.800545372068881988525390625">
        <ele>456.600006103515625</ele>
        <time>2018-08-16T07:01:08.000Z</time>
      </trkpt>
      <trkpt lat="47.658391334116458892822265625" lon="8.80133100785315036773681640625">
        <ele>457.20001220703125</ele>
        <time>2018-08-16T07:01:16.000Z</time>
      </trkpt>
      <trkpt lat="47.65824222005903720855712890625" lon="8.80178631283342838287353515625">
        <ele>457.600006103515625</ele>
        <time>2018-08-16T07:01:21.000Z</time>
      </trkpt>
      <trkpt lat="47.6579958759248256683349609375" lon="8.802378661930561065673828125">
        <ele>458.20001220703125</ele>
        <time>2018-08-16T07:01:28.000Z</time>
      </trkpt>
      <trkpt lat="47.6577152498066425323486328125" lon="8.80310629494488239288330078125">
        <ele>459</ele>
        <time>2018-08-16T07:01:36.000Z</time>
      </trkpt>
      <trkpt lat="47.65768448822200298309326171875" lon="8.80320503376424312591552734375">
        <ele>459.20001220703125</ele>
        <time>2018-08-16T07:01:37.000Z</time>
      </trkpt>
      <trkpt lat="47.65749773941934108734130859375" lon="8.80401112139225006103515625">
        <ele>460</ele>
        <time>2018-08-16T07:01:45.000Z</time>
      </trkpt>
      <trkpt lat="47.657489776611328125" lon="8.80423299036920070648193359375">
        <ele>460</ele>
        <time>2018-08-16T07:01:47.000Z</time>
      </trkpt>
      <trkpt lat="47.657484747469425201416015625" lon="8.80434128455817699432373046875">
        <ele>460</ele>
        <time>2018-08-16T07:01:48.000Z</time>
      </trkpt>
      <trkpt lat="47.6573883555829524993896484375" lon="8.8051254115998744964599609375">
        <ele>460.79998779296875</ele>
        <time>2018-08-16T07:01:55.000Z</time>
      </trkpt>
      <trkpt lat="47.65732205472886562347412109375" lon="8.80571055226027965545654296875">
        <ele>460.79998779296875</ele>
        <time>2018-08-16T07:02:00.000Z</time>
      </trkpt>
      <trkpt lat="47.65725919045507907867431640625" lon="8.8063882291316986083984375">
        <ele>460.79998779296875</ele>
        <time>2018-08-16T07:02:05.000Z</time>
      </trkpt>
      <trkpt lat="47.65722298063337802886962890625" lon="8.806664161384105682373046875">
        <ele>460.79998779296875</ele>
        <time>2018-08-16T07:02:07.000Z</time>
      </trkpt>
      <trkpt lat="47.6571174524724483489990234375" lon="8.80747678689658641815185546875">
        <ele>460.600006103515625</ele>
        <time>2018-08-16T07:02:13.000Z</time>
      </trkpt>
      <trkpt lat="47.6570852659642696380615234375" lon="8.8082817010581493377685546875">
        <ele>459.79998779296875</ele>
        <time>2018-08-16T07:02:19.000Z</time>
      </trkpt>
      <trkpt lat="47.65707311220467090606689453125" lon="8.80897044204175472259521484375">
        <ele>459.600006103515625</ele>
        <time>2018-08-16T07:02:24.000Z</time>
      </trkpt>
      <trkpt lat="47.657060958445072174072265625" lon="8.80969044752418994903564453125">
        <ele>458.79998779296875</ele>
        <time>2018-08-16T07:02:29.000Z</time>
      </trkpt>
      <trkpt lat="47.6570507325232028961181640625" lon="8.810429982841014862060546875">
        <ele>457.79998779296875</ele>
        <time>2018-08-16T07:02:34.000Z</time>
      </trkpt>
      <trkpt lat="47.65704209916293621063232421875" lon="8.81103389896452426910400390625">
        <ele>456.600006103515625</ele>
        <time>2018-08-16T07:02:38.000Z</time>
      </trkpt>
      <trkpt lat="47.657036483287811279296875" lon="8.81134134717285633087158203125">
        <ele>456.20001220703125</ele>
        <time>2018-08-16T07:02:40.000Z</time>
      </trkpt>
      <trkpt lat="47.65703120268881320953369140625" lon="8.81165063939988613128662109375">
        <ele>455.399993896484375</ele>
        <time>2018-08-16T07:02:42.000Z</time>
      </trkpt>
      <trkpt lat="47.6570182107388973236083984375" lon="8.81226369179785251617431640625">
        <ele>454.20001220703125</ele>
        <time>2018-08-16T07:02:46.000Z</time>
      </trkpt>
      <trkpt lat="47.65701360069215297698974609375" lon="8.81257080473005771636962890625">
        <ele>453.79998779296875</ele>
        <time>2018-08-16T07:02:48.000Z</time>
      </trkpt>
      <trkpt lat="47.65701091848313808441162109375" lon="8.81272469647228717803955078125">
        <ele>453.399993896484375</ele>
        <time>2018-08-16T07:02:49.000Z</time>
      </trkpt>
      <trkpt lat="47.6570083200931549072265625" lon="8.81287825293838977813720703125">
        <ele>453</ele>
        <time>2018-08-16T07:02:50.000Z</time>
      </trkpt>
      <trkpt lat="47.65700572170317173004150390625" lon="8.813031725585460662841796875">
        <ele>452.79998779296875</ele>
        <time>2018-08-16T07:02:51.000Z</time>
      </trkpt>
      <trkpt lat="47.657001279294490814208984375" lon="8.81334043107926845550537109375">
        <ele>452.20001220703125</ele>
        <time>2018-08-16T07:02:53.000Z</time>
      </trkpt>
      <trkpt lat="47.65699951909482479095458984375" lon="8.813496418297290802001953125">
        <ele>452</ele>
        <time>2018-08-16T07:02:54.000Z</time>
      </trkpt>
      <trkpt lat="47.65700320713222026824951171875" lon="8.81396689452230930328369140625">
        <ele>450.79998779296875</ele>
        <time>2018-08-16T07:02:57.000Z</time>
      </trkpt>
      <trkpt lat="47.657037489116191864013671875" lon="8.8142710737884044647216796875">
        <ele>450</ele>
        <time>2018-08-16T07:02:59.000Z</time>
      </trkpt>
      <trkpt lat="47.65706892125308513641357421875" lon="8.81441717036068439483642578125">
        <ele>449.600006103515625</ele>
        <time>2018-08-16T07:03:00.000Z</time>
      </trkpt>
      <trkpt lat="47.6571080647408962249755859375" lon="8.814560584723949432373046875">
        <ele>449.20001220703125</ele>
        <time>2018-08-16T07:03:01.000Z</time>
      </trkpt>
      <trkpt lat="47.65719431452453136444091796875" lon="8.81484129466116428375244140625">
        <ele>448.399993896484375</ele>
        <time>2018-08-16T07:03:03.000Z</time>
      </trkpt>
      <trkpt lat="47.65736698172986507415771484375" lon="8.8154100067913532257080078125">
        <ele>447.20001220703125</ele>
        <time>2018-08-16T07:03:07.000Z</time>
      </trkpt>
      <trkpt lat="47.65754677355289459228515625" lon="8.81596446968615055084228515625">
        <ele>445.79998779296875</ele>
        <time>2018-08-16T07:03:11.000Z</time>
      </trkpt>
      <trkpt lat="47.6576341129839420318603515625" lon="8.816247694194316864013671875">
        <ele>444.79998779296875</ele>
        <time>2018-08-16T07:03:13.000Z</time>
      </trkpt>
      <trkpt lat="47.6577544771134853363037109375" lon="8.81667106412351131439208984375">
        <ele>443.600006103515625</ele>
        <time>2018-08-16T07:03:16.000Z</time>
      </trkpt>
      <trkpt lat="47.65778523869812488555908203125" lon="8.81680659949779510498046875">
        <ele>443.20001220703125</ele>
        <time>2018-08-16T07:03:17.000Z</time>
      </trkpt>
      <trkpt lat="47.65781625173985958099365234375" lon="8.8170806877315044403076171875">
        <ele>442.20001220703125</ele>
        <time>2018-08-16T07:03:19.000Z</time>
      </trkpt>
      <trkpt lat="47.657809965312480926513671875" lon="8.8173589669167995452880859375">
        <ele>441.399993896484375</ele>
        <time>2018-08-16T07:03:21.000Z</time>
      </trkpt>
      <trkpt lat="47.65780451707541942596435546875" lon="8.81749500520527362823486328125">
        <ele>441</ele>
        <time>2018-08-16T07:03:22.000Z</time>
      </trkpt>
      <trkpt lat="47.65779764391481876373291015625" lon="8.81786531768739223480224609375">
        <ele>439.600006103515625</ele>
        <time>2018-08-16T07:03:25.000Z</time>
      </trkpt>
      <trkpt lat="47.6578084565699100494384765625" lon="8.817973695695400238037109375">
        <ele>439.20001220703125</ele>
        <time>2018-08-16T07:03:26.000Z</time>
      </trkpt>
      <trkpt lat="47.657838128507137298583984375" lon="8.81805575452744960784912109375">
        <ele>438.399993896484375</ele>
        <time>2018-08-16T07:03:27.000Z</time>
      </trkpt>
      <trkpt lat="47.657948434352874755859375" lon="8.81809883750975131988525390625">
        <ele>436.79998779296875</ele>
        <time>2018-08-16T07:03:29.000Z</time>
      </trkpt>
      <trkpt lat="47.6580086164176464080810546875" lon="8.81808869540691375732421875">
        <ele>435.79998779296875</ele>
        <time>2018-08-16T07:03:30.000Z</time>
      </trkpt>
      <trkpt lat="47.65807424671947956085205078125" lon="8.81806832738220691680908203125">
        <ele>435.20001220703125</ele>
        <time>2018-08-16T07:03:31.000Z</time>
      </trkpt>
      <trkpt lat="47.65814264304935932159423828125" lon="8.818048126995563507080078125">
        <ele>434.79998779296875</ele>
        <time>2018-08-16T07:03:32.000Z</time>
      </trkpt>
      <trkpt lat="47.6582141406834125518798828125" lon="8.8180348835885524749755859375">
        <ele>434.399993896484375</ele>
        <time>2018-08-16T07:03:33.000Z</time>
      </trkpt>
      <trkpt lat="47.65836325474083423614501953125" lon="8.81801937706768512725830078125">
        <ele>434</ele>
        <time>2018-08-16T07:03:35.000Z</time>
      </trkpt>
      <trkpt lat="47.65851044096052646636962890625" lon="8.81799079477787017822265625">
        <ele>433.600006103515625</ele>
        <time>2018-08-16T07:03:37.000Z</time>
      </trkpt>
      <trkpt lat="47.65858872793614864349365234375" lon="8.81797696463763713836669921875">
        <ele>433.20001220703125</ele>
        <time>2018-08-16T07:03:38.000Z</time>
      </trkpt>
      <trkpt lat="47.65866684727370738983154296875" lon="8.81796103902161121368408203125">
        <ele>433</ele>
        <time>2018-08-16T07:03:39.000Z</time>
      </trkpt>
      <trkpt lat="47.6587452180683612823486328125" lon="8.81794025190174579620361328125">
        <ele>432.79998779296875</ele>
        <time>2018-08-16T07:03:40.000Z</time>
      </trkpt>
      <trkpt lat="47.6588243432343006134033203125" lon="8.81792181171476840972900390625">
        <ele>432.399993896484375</ele>
        <time>2018-08-16T07:03:41.000Z</time>
      </trkpt>
      <trkpt lat="47.65890321694314479827880859375" lon="8.81789959967136383056640625">
        <ele>432.20001220703125</ele>
        <time>2018-08-16T07:03:42.000Z</time>
      </trkpt>
      <trkpt lat="47.65898401848971843719482421875" lon="8.817873112857341766357421875">
        <ele>432</ele>
        <time>2018-08-16T07:03:43.000Z</time>
      </trkpt>
      <trkpt lat="47.6590674184262752532958984375" lon="8.817846961319446563720703125">
        <ele>431.600006103515625</ele>
        <time>2018-08-16T07:03:44.000Z</time>
      </trkpt>
      <trkpt lat="47.65915132127702236175537109375" lon="8.81782525219023227691650390625">
        <ele>431.399993896484375</ele>
        <time>2018-08-16T07:03:45.000Z</time>
      </trkpt>
      <trkpt lat="47.6593203842639923095703125" lon="8.8177914731204509735107421875">
        <ele>430.600006103515625</ele>
        <time>2018-08-16T07:03:47.000Z</time>
      </trkpt>
      <trkpt lat="47.65940629877150058746337890625" lon="8.81777211092412471771240234375">
        <ele>430.399993896484375</ele>
        <time>2018-08-16T07:03:48.000Z</time>
      </trkpt>
      <trkpt lat="47.6594932191073894500732421875" lon="8.817751407623291015625">
        <ele>430</ele>
        <time>2018-08-16T07:03:49.000Z</time>
      </trkpt>
      <trkpt lat="47.6596658863127231597900390625" lon="8.81771159358322620391845703125">
        <ele>429.399993896484375</ele>
        <time>2018-08-16T07:03:51.000Z</time>
      </trkpt>
      <trkpt lat="47.65975289046764373779296875" lon="8.81769499741494655609130859375">
        <ele>429.20001220703125</ele>
        <time>2018-08-16T07:03:52.000Z</time>
      </trkpt>
      <trkpt lat="47.6599203608930110931396484375" lon="8.8176650740206241607666015625">
        <ele>428.600006103515625</ele>
        <time>2018-08-16T07:03:54.000Z</time>
      </trkpt>
      <trkpt lat="47.6600839756429195404052734375" lon="8.81763380952179431915283203125">
        <ele>428.20001220703125</ele>
        <time>2018-08-16T07:03:56.000Z</time>
      </trkpt>
      <trkpt lat="47.66038496978580951690673828125" lon="8.8175732083618640899658203125">
        <ele>427.600006103515625</ele>
        <time>2018-08-16T07:04:00.000Z</time>
      </trkpt>
      <trkpt lat="47.66049946658313274383544921875" lon="8.8175380043685436248779296875">
        <ele>427.399993896484375</ele>
        <time>2018-08-16T07:04:02.000Z</time>
      </trkpt>
      <trkpt lat="47.660613544285297393798828125" lon="8.81749886088073253631591796875">
        <ele>427.20001220703125</ele>
        <time>2018-08-16T07:04:06.000Z</time>
      </trkpt>
      <trkpt lat="47.66066459007561206817626953125" lon="8.8174550235271453857421875">
        <ele>427.20001220703125</ele>
        <time>2018-08-16T07:04:10.000Z</time>
      </trkpt>
      <trkpt lat="47.6606110297143459320068359375" lon="8.81740800105035305023193359375">
        <ele>427.20001220703125</ele>
        <time>2018-08-16T07:04:20.000Z</time>
      </trkpt>
      <trkpt lat="47.6605577208101749420166015625" lon="8.81745661608874797821044921875">
        <ele>427.20001220703125</ele>
        <time>2018-08-16T07:04:22.000Z</time>
      </trkpt>
      <trkpt lat="47.660502232611179351806640625" lon="8.81746239960193634033203125">
        <ele>427.399993896484375</ele>
        <time>2018-08-16T07:04:24.000Z</time>
      </trkpt>
      <trkpt lat="47.66041003167629241943359375" lon="8.81749433465301990509033203125">
        <ele>427.20001220703125</ele>
        <time>2018-08-16T07:04:27.000Z</time>
      </trkpt>
      <trkpt lat="47.66038245521485805511474609375" lon="8.8174831867218017578125">
        <ele>427.20001220703125</ele>
        <time>2018-08-16T07:04:28.000Z</time>
      </trkpt>
      <trkpt lat="47.6603116281330585479736328125" lon="8.81735905073583126068115234375">
        <ele>427.20001220703125</ele>
        <time>2018-08-16T07:04:33.000Z</time>
      </trkpt>
      <trkpt lat="47.6602878235280513763427734375" lon="8.8173029758036136627197265625">
        <ele>427.20001220703125</ele>
        <time>2018-08-16T07:04:35.000Z</time>
      </trkpt>
      <trkpt lat="47.660264186561107635498046875" lon="8.8172399438917636871337890625">
        <ele>427.20001220703125</ele>
        <time>2018-08-16T07:04:37.000Z</time>
      </trkpt>
      <trkpt lat="47.66024398617446422576904296875" lon="8.8171692006289958953857421875">
        <ele>427.20001220703125</ele>
        <time>2018-08-16T07:04:39.000Z</time>
      </trkpt>
      <trkpt lat="47.6602485962212085723876953125" lon="8.8170508481562137603759765625">
        <ele>427.399993896484375</ele>
        <time>2018-08-16T07:04:43.000Z</time>
      </trkpt>
      <trkpt lat="47.66028924845159053802490234375" lon="8.8169462420046329498291015625">
        <ele>428.20001220703125</ele>
        <time>2018-08-16T07:04:47.000Z</time>
      </trkpt>
      <trkpt lat="47.66032512299716472625732421875" lon="8.8168879039585590362548828125">
        <ele>428.600006103515625</ele>
        <time>2018-08-16T07:04:49.000Z</time>
      </trkpt>
      <trkpt lat="47.6603817008435726165771484375" lon="8.8168024085462093353271484375">
        <ele>429.20001220703125</ele>
        <time>2018-08-16T07:04:52.000Z</time>
      </trkpt>
      <trkpt lat="47.66047918237745761871337890625" lon="8.8166967965662479400634765625">
        <ele>430</ele>
        <time>2018-08-16T07:04:56.000Z</time>
      </trkpt>
      <trkpt lat="47.6605057530105113983154296875" lon="8.81667173467576503753662109375">
        <ele>430.399993896484375</ele>
        <time>2018-08-16T07:04:57.000Z</time>
      </trkpt>
      <trkpt lat="47.66064950264990329742431640625" lon="8.81655874662101268768310546875">
        <ele>431.399993896484375</ele>
        <time>2018-08-16T07:05:02.000Z</time>
      </trkpt>
      <trkpt lat="47.66081160865724086761474609375" lon="8.8164832256734371185302734375">
        <ele>432.600006103515625</ele>
        <time>2018-08-16T07:05:07.000Z</time>
      </trkpt>
      <trkpt lat="47.66084563918411731719970703125" lon="8.816462270915508270263671875">
        <ele>432.79998779296875</ele>
        <time>2018-08-16T07:05:08.000Z</time>
      </trkpt>
      <trkpt lat="47.66101512126624584197998046875" lon="8.8163779489696025848388671875">
        <ele>434</ele>
        <time>2018-08-16T07:05:12.000Z</time>
      </trkpt>
      <trkpt lat="47.66125760972499847412109375" lon="8.81625565700232982635498046875">
        <ele>435</ele>
        <time>2018-08-16T07:05:17.000Z</time>
      </trkpt>
      <trkpt lat="47.6615259982645511627197265625" lon="8.81612892262637615203857421875">
        <ele>435.20001220703125</ele>
        <time>2018-08-16T07:05:22.000Z</time>
      </trkpt>
      <trkpt lat="47.6616275869309902191162109375" lon="8.8160825707018375396728515625">
        <ele>435.20001220703125</ele>
        <time>2018-08-16T07:05:24.000Z</time>
      </trkpt>
      <trkpt lat="47.6617177762091159820556640625" lon="8.8161100633442401885986328125">
        <ele>435.20001220703125</ele>
        <time>2018-08-16T07:05:26.000Z</time>
      </trkpt>
      <trkpt lat="47.66177619807422161102294921875" lon="8.81631181575357913970947265625">
        <ele>434.600006103515625</ele>
        <time>2018-08-16T07:05:29.000Z</time>
      </trkpt>
      <trkpt lat="47.66186906956136226654052734375" lon="8.81672286428511142730712890625">
        <ele>434.20001220703125</ele>
        <time>2018-08-16T07:05:34.000Z</time>
      </trkpt>
      <trkpt lat="47.6618845760822296142578125" lon="8.8168134726583957672119140625">
        <ele>434.20001220703125</ele>
        <time>2018-08-16T07:05:35.000Z</time>
      </trkpt>
      <trkpt lat="47.66192355193197727203369140625" lon="8.81700935773551464080810546875">
        <ele>434.20001220703125</ele>
        <time>2018-08-16T07:05:37.000Z</time>
      </trkpt>
      <trkpt lat="47.6619491167366504669189453125" lon="8.81712100468575954437255859375">
        <ele>434.20001220703125</ele>
        <time>2018-08-16T07:05:38.000Z</time>
      </trkpt>
      <trkpt lat="47.662056572735309600830078125" lon="8.81760631687939167022705078125">
        <ele>433.79998779296875</ele>
        <time>2018-08-16T07:05:42.000Z</time>
      </trkpt>
      <trkpt lat="47.66214047558605670928955078125" lon="8.81798601709306240081787109375">
        <ele>432.79998779296875</ele>
        <time>2018-08-16T07:05:45.000Z</time>
      </trkpt>
      <trkpt lat="47.6621945388615131378173828125" lon="8.81824158132076263427734375">
        <ele>432.20001220703125</ele>
        <time>2018-08-16T07:05:47.000Z</time>
      </trkpt>
      <trkpt lat="47.66222328878939151763916015625" lon="8.81836538203060626983642578125">
        <ele>431.600006103515625</ele>
        <time>2018-08-16T07:05:48.000Z</time>
      </trkpt>
      <trkpt lat="47.66227827407419681549072265625" lon="8.8186128996312618255615234375">
        <ele>430.600006103515625</ele>
        <time>2018-08-16T07:05:50.000Z</time>
      </trkpt>
      <trkpt lat="47.6622994802892208099365234375" lon="8.8187315873801708221435546875">
        <ele>430</ele>
        <time>2018-08-16T07:05:51.000Z</time>
      </trkpt>
      <trkpt lat="47.66228699125349521636962890625" lon="8.81896980106830596923828125">
        <ele>429.399993896484375</ele>
        <time>2018-08-16T07:05:53.000Z</time>
      </trkpt>
      <trkpt lat="47.66220686025917530059814453125" lon="8.81917825900018215179443359375">
        <ele>429</ele>
        <time>2018-08-16T07:05:55.000Z</time>
      </trkpt>
      <trkpt lat="47.66215975396335124969482421875" lon="8.819276578724384307861328125">
        <ele>429</ele>
        <time>2018-08-16T07:05:56.000Z</time>
      </trkpt>
      <trkpt lat="47.66197954304516315460205078125" lon="8.8196834363043308258056640625">
        <ele>428.600006103515625</ele>
        <time>2018-08-16T07:06:00.000Z</time>
      </trkpt>
      <trkpt lat="47.66199513338506221771240234375" lon="8.82017469964921474456787109375">
        <ele>428.20001220703125</ele>
        <time>2018-08-16T07:06:04.000Z</time>
      </trkpt>
      <trkpt lat="47.662024386227130889892578125" lon="8.82029707543551921844482421875">
        <ele>428</ele>
        <time>2018-08-16T07:06:05.000Z</time>
      </trkpt>
      <trkpt lat="47.66208247281610965728759765625" lon="8.82054467685520648956298828125">
        <ele>427.79998779296875</ele>
        <time>2018-08-16T07:06:07.000Z</time>
      </trkpt>
      <trkpt lat="47.66219898127019405364990234375" lon="8.82105161435902118682861328125">
        <ele>427</ele>
        <time>2018-08-16T07:06:11.000Z</time>
      </trkpt>
      <trkpt lat="47.6623056828975677490234375" lon="8.821555785834789276123046875">
        <ele>426.399993896484375</ele>
        <time>2018-08-16T07:06:15.000Z</time>
      </trkpt>
      <trkpt lat="47.66235320828855037689208984375" lon="8.821795843541622161865234375">
        <ele>426</ele>
        <time>2018-08-16T07:06:17.000Z</time>
      </trkpt>
      <trkpt lat="47.66241959296166896820068359375" lon="8.822126090526580810546875">
        <ele>425.79998779296875</ele>
        <time>2018-08-16T07:06:20.000Z</time>
      </trkpt>
      <trkpt lat="47.66245965845882892608642578125" lon="8.82232717238366603851318359375">
        <ele>425.79998779296875</ele>
        <time>2018-08-16T07:06:22.000Z</time>
      </trkpt>
      <trkpt lat="47.66254515387117862701416015625" lon="8.82276789285242557525634765625">
        <ele>425.600006103515625</ele>
        <time>2018-08-16T07:06:27.000Z</time>
      </trkpt>
      <trkpt lat="47.66261254437267780303955078125" lon="8.82299521006643772125244140625">
        <ele>426</ele>
        <time>2018-08-16T07:06:30.000Z</time>
      </trkpt>
      <trkpt lat="47.6627484150230884552001953125" lon="8.823242895305156707763671875">
        <ele>427.399993896484375</ele>
        <time>2018-08-16T07:06:34.000Z</time>
      </trkpt>
      <trkpt lat="47.6628624089062213897705078125" lon="8.82340827025473117828369140625">
        <ele>428.600006103515625</ele>
        <time>2018-08-16T07:06:37.000Z</time>
      </trkpt>
      <trkpt lat="47.6629411987960338592529296875" lon="8.823519833385944366455078125">
        <ele>429.79998779296875</ele>
        <time>2018-08-16T07:06:39.000Z</time>
      </trkpt>
      <trkpt lat="47.66310037113726139068603515625" lon="8.823745809495449066162109375">
        <ele>430.600006103515625</ele>
        <time>2018-08-16T07:06:43.000Z</time>
      </trkpt>
      <trkpt lat="47.66318167559802532196044921875" lon="8.8238601386547088623046875">
        <ele>430.79998779296875</ele>
        <time>2018-08-16T07:06:45.000Z</time>
      </trkpt>
      <trkpt lat="47.663592807948589324951171875" lon="8.82439968176186084747314453125">
        <ele>431.399993896484375</ele>
        <time>2018-08-16T07:06:53.000Z</time>
      </trkpt>
      <trkpt lat="47.66372934915125370025634765625" lon="8.8245466165244579315185546875">
        <ele>431.399993896484375</ele>
        <time>2018-08-16T07:06:55.000Z</time>
      </trkpt>
      <trkpt lat="47.663881480693817138671875" lon="8.8246860913932323455810546875">
        <ele>431.20001220703125</ele>
        <time>2018-08-16T07:06:57.000Z</time>
      </trkpt>
      <trkpt lat="47.66403595916926860809326171875" lon="8.82479882799088954925537109375">
        <ele>430.79998779296875</ele>
        <time>2018-08-16T07:06:59.000Z</time>
      </trkpt>
      <trkpt lat="47.664336450397968292236328125" lon="8.82496143691241741180419921875">
        <ele>429.600006103515625</ele>
        <time>2018-08-16T07:07:03.000Z</time>
      </trkpt>
      <trkpt lat="47.66448271460831165313720703125" lon="8.8250253908336162567138671875">
        <ele>428.399993896484375</ele>
        <time>2018-08-16T07:07:05.000Z</time>
      </trkpt>
      <trkpt lat="47.665078081190586090087890625" lon="8.8251993991434574127197265625">
        <ele>427.79998779296875</ele>
        <time>2018-08-16T07:07:13.000Z</time>
      </trkpt>
      <trkpt lat="47.6652319729328155517578125" lon="8.82522446103394031524658203125">
        <ele>427.600006103515625</ele>
        <time>2018-08-16T07:07:15.000Z</time>
      </trkpt>
      <trkpt lat="47.66582071781158447265625" lon="8.82525681518018245697021484375">
        <ele>427.600006103515625</ele>
        <time>2018-08-16T07:07:22.000Z</time>
      </trkpt>
      <trkpt lat="47.66591015271842479705810546875" lon="8.8252590782940387725830078125">
        <ele>427.600006103515625</ele>
        <time>2018-08-16T07:07:23.000Z</time>
      </trkpt>
      <trkpt lat="47.665998749434947967529296875" lon="8.82526067085564136505126953125">
        <ele>427.20001220703125</ele>
        <time>2018-08-16T07:07:24.000Z</time>
      </trkpt>
      <trkpt lat="47.6660864241421222686767578125" lon="8.8252620957791805267333984375">
        <ele>427.20001220703125</ele>
        <time>2018-08-16T07:07:25.000Z</time>
      </trkpt>
      <trkpt lat="47.66626001335680484771728515625" lon="8.8252708129584789276123046875">
        <ele>426.600006103515625</ele>
        <time>2018-08-16T07:07:27.000Z</time>
      </trkpt>
      <trkpt lat="47.66634467057883739471435546875" lon="8.82527793757617473602294921875">
        <ele>426.20001220703125</ele>
        <time>2018-08-16T07:07:28.000Z</time>
      </trkpt>
      <trkpt lat="47.66658673994243144989013671875" lon="8.82531590759754180908203125">
        <ele>425.399993896484375</ele>
        <time>2018-08-16T07:07:31.000Z</time>
      </trkpt>
      <trkpt lat="47.6666620932519435882568359375" lon="8.82533334195613861083984375">
        <ele>424.79998779296875</ele>
        <time>2018-08-16T07:07:32.000Z</time>
      </trkpt>
      <trkpt lat="47.6667340099811553955078125" lon="8.82534943521022796630859375">
        <ele>424.600006103515625</ele>
        <time>2018-08-16T07:07:33.000Z</time>
      </trkpt>
      <trkpt lat="47.66686501912772655487060546875" lon="8.8253834657371044158935546875">
        <ele>424.20001220703125</ele>
        <time>2018-08-16T07:07:35.000Z</time>
      </trkpt>
      <trkpt lat="47.66696845181286334991455078125" lon="8.8254089467227458953857421875">
        <ele>423.79998779296875</ele>
        <time>2018-08-16T07:07:37.000Z</time>
      </trkpt>
      <trkpt lat="47.66703869216144084930419921875" lon="8.8254371099174022674560546875">
        <ele>423.399993896484375</ele>
        <time>2018-08-16T07:07:39.000Z</time>
      </trkpt>
      <trkpt lat="47.66706316731870174407958984375" lon="8.8255433924496173858642578125">
        <ele>422.79998779296875</ele>
        <time>2018-08-16T07:07:43.000Z</time>
      </trkpt>
      <trkpt lat="47.66705579124391078948974609375" lon="8.825565688312053680419921875">
        <ele>422.399993896484375</ele>
        <time>2018-08-16T07:07:44.000Z</time>
      </trkpt>
      <trkpt lat="47.66704472713172435760498046875" lon="8.82558907382190227508544921875">
        <ele>422</ele>
        <time>2018-08-16T07:07:45.000Z</time>
      </trkpt>
      <trkpt lat="47.6670322380959987640380859375" lon="8.82560131140053272247314453125">
        <ele>421.79998779296875</ele>
        <time>2018-08-16T07:07:46.000Z</time>
      </trkpt>
      <trkpt lat="47.66701161861419677734375" lon="8.825620673596858978271484375">
        <ele>421.20001220703125</ele>
        <time>2018-08-16T07:07:48.000Z</time>
      </trkpt>
      <trkpt lat="47.66692805103957653045654296875" lon="8.8257747329771518707275390625">
        <ele>420.79998779296875</ele>
        <time>2018-08-16T07:07:53.000Z</time>
      </trkpt>
      <trkpt lat="47.666889242827892303466796875" lon="8.82585779763758182525634765625">
        <ele>420.600006103515625</ele>
        <time>2018-08-16T07:07:57.000Z</time>
      </trkpt>
      <trkpt lat="47.6668887399137020111083984375" lon="8.82588277570903301239013671875">
        <ele>420.600006103515625</ele>
        <time>2018-08-16T07:07:58.000Z</time>
      </trkpt>
      <trkpt lat="47.66690877266228199005126953125" lon="8.825958631932735443115234375">
        <ele>420.399993896484375</ele>
        <time>2018-08-16T07:08:00.000Z</time>
      </trkpt>
      <trkpt lat="47.66699393279850482940673828125" lon="8.82600397802889347076416015625">
        <ele>420</ele>
        <time>2018-08-16T07:08:02.000Z</time>
      </trkpt>
      <trkpt lat="47.667094767093658447265625" lon="8.82602996192872524261474609375">
        <ele>419.79998779296875</ele>
        <time>2018-08-16T07:08:04.000Z</time>
      </trkpt>
      <trkpt lat="47.667148746550083160400390625" lon="8.8260503299534320831298828125">
        <ele>419.600006103515625</ele>
        <time>2018-08-16T07:08:05.000Z</time>
      </trkpt>
      <trkpt lat="47.66726181842386722564697265625" lon="8.82609349675476551055908203125">
        <ele>419.600006103515625</ele>
        <time>2018-08-16T07:08:07.000Z</time>
      </trkpt>
      <trkpt lat="47.66767890192568302154541015625" lon="8.82631192915141582489013671875">
        <ele>419.399993896484375</ele>
        <time>2018-08-16T07:08:14.000Z</time>
      </trkpt>
      <trkpt lat="47.6677406765520572662353515625" lon="8.82635526359081268310546875">
        <ele>419.399993896484375</ele>
        <time>2018-08-16T07:08:15.000Z</time>
      </trkpt>
      <trkpt lat="47.6682472787797451019287109375" lon="8.82678383029997348785400390625">
        <ele>419</ele>
        <time>2018-08-16T07:08:23.000Z</time>
      </trkpt>
      <trkpt lat="47.66830821521580219268798828125" lon="8.82685021497309207916259765625">
        <ele>419</ele>
        <time>2018-08-16T07:08:24.000Z</time>
      </trkpt>
      <trkpt lat="47.6684896834194660186767578125" lon="8.82706202566623687744140625">
        <ele>418.79998779296875</ele>
        <time>2018-08-16T07:08:27.000Z</time>
      </trkpt>
      <trkpt lat="47.66888790763914585113525390625" lon="8.82766175083816051483154296875">
        <ele>418.399993896484375</ele>
        <time>2018-08-16T07:08:34.000Z</time>
      </trkpt>
      <trkpt lat="47.66914196312427520751953125" lon="8.8281914032995700836181640625">
        <ele>417.79998779296875</ele>
        <time>2018-08-16T07:08:39.000Z</time>
      </trkpt>
      <trkpt lat="47.66938763670623302459716796875" lon="8.82890730164945125579833984375">
        <ele>416.79998779296875</ele>
        <time>2018-08-16T07:08:45.000Z</time>
      </trkpt>
      <trkpt lat="47.66942032612860202789306640625" lon="8.82903252728283405303955078125">
        <ele>416.79998779296875</ele>
        <time>2018-08-16T07:08:46.000Z</time>
      </trkpt>
      <trkpt lat="47.66959450207650661468505859375" lon="8.82981372065842151641845703125">
        <ele>416</ele>
        <time>2018-08-16T07:08:52.000Z</time>
      </trkpt>
      <trkpt lat="47.66962232999503612518310546875" lon="8.82994598709046840667724609375">
        <ele>415.79998779296875</ele>
        <time>2018-08-16T07:08:53.000Z</time>
      </trkpt>
      <trkpt lat="47.66978435218334197998046875" lon="8.830733634531497955322265625">
        <ele>414.79998779296875</ele>
        <time>2018-08-16T07:08:59.000Z</time>
      </trkpt>
      <trkpt lat="47.669816203415393829345703125" lon="8.83086112327873706817626953125">
        <ele>414.600006103515625</ele>
        <time>2018-08-16T07:09:00.000Z</time>
      </trkpt>
      <trkpt lat="47.66988468356430530548095703125" lon="8.8311160169541835784912109375">
        <ele>414.399993896484375</ele>
        <time>2018-08-16T07:09:02.000Z</time>
      </trkpt>
      <trkpt lat="47.6700882799923419952392578125" lon="8.8317218609154224395751953125">
        <ele>413.600006103515625</ele>
        <time>2018-08-16T07:09:07.000Z</time>
      </trkpt>
      <trkpt lat="47.67043185420334339141845703125" lon="8.83249760605394840240478515625">
        <ele>412.600006103515625</ele>
        <time>2018-08-16T07:09:14.000Z</time>
      </trkpt>
      <trkpt lat="47.67048700712621212005615234375" lon="8.83260020054876804351806640625">
        <ele>412.399993896484375</ele>
        <time>2018-08-16T07:09:15.000Z</time>
      </trkpt>
      <trkpt lat="47.6708433218300342559814453125" lon="8.83317218162119388580322265625">
        <ele>411.399993896484375</ele>
        <time>2018-08-16T07:09:21.000Z</time>
      </trkpt>
      <trkpt lat="47.67109653912484645843505859375" lon="8.833507709205150604248046875">
        <ele>411</ele>
        <time>2018-08-16T07:09:25.000Z</time>
      </trkpt>
      <trkpt lat="47.6715641655027866363525390625" lon="8.8340064324438571929931640625">
        <ele>410.79998779296875</ele>
        <time>2018-08-16T07:09:32.000Z</time>
      </trkpt>
      <trkpt lat="47.67205425538122653961181640625" lon="8.83440650068223476409912109375">
        <ele>410.79998779296875</ele>
        <time>2018-08-16T07:09:39.000Z</time>
      </trkpt>
      <trkpt lat="47.6725478656589984893798828125" lon="8.83476675488054752349853515625">
        <ele>411.20001220703125</ele>
        <time>2018-08-16T07:09:46.000Z</time>
      </trkpt>
      <trkpt lat="47.67288506962358951568603515625" lon="8.8350127637386322021484375">
        <ele>411.399993896484375</ele>
        <time>2018-08-16T07:09:51.000Z</time>
      </trkpt>
      <trkpt lat="47.6734127104282379150390625" lon="8.8353656418621540069580078125">
        <ele>411.600006103515625</ele>
        <time>2018-08-16T07:09:59.000Z</time>
      </trkpt>
      <trkpt lat="47.6739463023841381072998046875" lon="8.8356217928230762481689453125">
        <ele>412</ele>
        <time>2018-08-16T07:10:07.000Z</time>
      </trkpt>
      <trkpt lat="47.674050740897655487060546875" lon="8.83566361851990222930908203125">
        <ele>412.20001220703125</ele>
        <time>2018-08-16T07:10:09.000Z</time>
      </trkpt>
      <trkpt lat="47.67445935867726802825927734375" lon="8.83574693463742733001708984375">
        <ele>413</ele>
        <time>2018-08-16T07:10:17.000Z</time>
      </trkpt>
      <trkpt lat="47.67451174557209014892578125" lon="8.83574978448450565338134765625">
        <ele>413</ele>
        <time>2018-08-16T07:10:18.000Z</time>
      </trkpt>
      <trkpt lat="47.6745648868381977081298828125" lon="8.83575833402574062347412109375">
        <ele>413</ele>
        <time>2018-08-16T07:10:19.000Z</time>
      </trkpt>
      <trkpt lat="47.6746185310184955596923828125" lon="8.83577727712690830230712890625">
        <ele>413</ele>
        <time>2018-08-16T07:10:20.000Z</time>
      </trkpt>
      <trkpt lat="47.67470830120146274566650390625" lon="8.83625261485576629638671875">
        <ele>413.20001220703125</ele>
        <time>2018-08-16T07:10:27.000Z</time>
      </trkpt>
      <trkpt lat="47.674425579607486724853515625" lon="8.8363379426300525665283203125">
        <ele>413</ele>
        <time>2018-08-16T07:10:31.000Z</time>
      </trkpt>
      <trkpt lat="47.67434502951800823211669921875" lon="8.8363013975322246551513671875">
        <ele>413</ele>
        <time>2018-08-16T07:10:32.000Z</time>
      </trkpt>
      <trkpt lat="47.6742664910852909088134765625" lon="8.83625789545476436614990234375">
        <ele>413</ele>
        <time>2018-08-16T07:10:33.000Z</time>
      </trkpt>
      <trkpt lat="47.67419658601284027099609375" lon="8.83620995096862316131591796875">
        <ele>413</ele>
        <time>2018-08-16T07:10:34.000Z</time>
      </trkpt>
      <trkpt lat="47.674050740897655487060546875" lon="8.8360412232577800750732421875">
        <ele>412.399993896484375</ele>
        <time>2018-08-16T07:10:37.000Z</time>
      </trkpt>
      <trkpt lat="47.674029283225536346435546875" lon="8.83596687577664852142333984375">
        <ele>412</ele>
        <time>2018-08-16T07:10:38.000Z</time>
      </trkpt>
      <trkpt lat="47.67407462932169437408447265625" lon="8.83574123494327068328857421875">
        <ele>410.600006103515625</ele>
        <time>2018-08-16T07:10:41.000Z</time>
      </trkpt>
      <trkpt lat="47.67410597763955593109130859375" lon="8.83568189106881618499755859375">
        <ele>409.600006103515625</ele>
        <time>2018-08-16T07:10:42.000Z</time>
      </trkpt>
      <trkpt lat="47.67413196153938770294189453125" lon="8.83562673814594745635986328125">
        <ele>409</ele>
        <time>2018-08-16T07:10:43.000Z</time>
      </trkpt>
      <trkpt lat="47.67417806200683116912841796875" lon="8.835551552474498748779296875">
        <ele>408.20001220703125</ele>
        <time>2018-08-16T07:10:45.000Z</time>
      </trkpt>
      <trkpt lat="47.674208991229534149169921875" lon="8.83544233627617359161376953125">
        <ele>407.399993896484375</ele>
        <time>2018-08-16T07:10:47.000Z</time>
      </trkpt>
      <trkpt lat="47.67425953410565853118896484375" lon="8.8353250734508037567138671875">
        <ele>407.20001220703125</ele>
        <time>2018-08-16T07:10:49.000Z</time>
      </trkpt>
      <trkpt lat="47.6743999309837818145751953125" lon="8.83511066436767578125">
        <ele>406.79998779296875</ele>
        <time>2018-08-16T07:10:54.000Z</time>
      </trkpt>
      <trkpt lat="47.67443924210965633392333984375" lon="8.83504503406584262847900390625">
        <ele>406.79998779296875</ele>
        <time>2018-08-16T07:10:55.000Z</time>
      </trkpt>
      <trkpt lat="47.67448785714805126190185546875" lon="8.83497999049723148345947265625">
        <ele>406.79998779296875</ele>
        <time>2018-08-16T07:10:56.000Z</time>
      </trkpt>
      <trkpt lat="47.67453580163419246673583984375" lon="8.83491511456668376922607421875">
        <ele>406.79998779296875</ele>
        <time>2018-08-16T07:10:57.000Z</time>
      </trkpt>
      <trkpt lat="47.67458190210163593292236328125" lon="8.83484856225550174713134765625">
        <ele>406.79998779296875</ele>
        <time>2018-08-16T07:10:58.000Z</time>
      </trkpt>
      <trkpt lat="47.67471919767558574676513671875" lon="8.83463918231427669525146484375">
        <ele>406.600006103515625</ele>
        <time>2018-08-16T07:11:01.000Z</time>
      </trkpt>
      <trkpt lat="47.67490242607891559600830078125" lon="8.83435067720711231231689453125">
        <ele>406.600006103515625</ele>
        <time>2018-08-16T07:11:05.000Z</time>
      </trkpt>
      <trkpt lat="47.6749950461089611053466796875" lon="8.83420114405453205108642578125">
        <ele>406.399993896484375</ele>
        <time>2018-08-16T07:11:07.000Z</time>
      </trkpt>
      <trkpt lat="47.67508967779576778411865234375" lon="8.8340537063777446746826171875">
        <ele>406.399993896484375</ele>
        <time>2018-08-16T07:11:09.000Z</time>
      </trkpt>
      <trkpt lat="47.6754614152014255523681640625" lon="8.83346605114638805389404296875">
        <ele>406.399993896484375</ele>
        <time>2018-08-16T07:11:17.000Z</time>
      </trkpt>
      <trkpt lat="47.6757789216935634613037109375" lon="8.83303991518914699554443359375">
        <ele>406.399993896484375</ele>
        <time>2018-08-16T07:11:23.000Z</time>
      </trkpt>
      <trkpt lat="47.6758937537670135498046875" lon="8.8329006917774677276611328125">
        <ele>406.399993896484375</ele>
        <time>2018-08-16T07:11:25.000Z</time>
      </trkpt>
      <trkpt lat="47.67637051641941070556640625" lon="8.8323466479778289794921875">
        <ele>406</ele>
        <time>2018-08-16T07:11:33.000Z</time>
      </trkpt>
      <trkpt lat="47.67643396742641925811767578125" lon="8.832279928028583526611328125">
        <ele>406</ele>
        <time>2018-08-16T07:11:34.000Z</time>
      </trkpt>
      <trkpt lat="47.6764980889856815338134765625" lon="8.832213543355464935302734375">
        <ele>405.600006103515625</ele>
        <time>2018-08-16T07:11:35.000Z</time>
      </trkpt>
      <trkpt lat="47.6765627972781658172607421875" lon="8.8321443088352680206298828125">
        <ele>405.399993896484375</ele>
        <time>2018-08-16T07:11:36.000Z</time>
      </trkpt>
      <trkpt lat="47.676627002656459808349609375" lon="8.83207507431507110595703125">
        <ele>405.399993896484375</ele>
        <time>2018-08-16T07:11:37.000Z</time>
      </trkpt>
      <trkpt lat="47.676694057881832122802734375" lon="8.8320095278322696685791015625">
        <ele>405.20001220703125</ele>
        <time>2018-08-16T07:11:38.000Z</time>
      </trkpt>
      <trkpt lat="47.67683722078800201416015625" lon="8.83189427666366100311279296875">
        <ele>405</ele>
        <time>2018-08-16T07:11:40.000Z</time>
      </trkpt>
      <trkpt lat="47.67698314972221851348876953125" lon="8.8317807018756866455078125">
        <ele>404.600006103515625</ele>
        <time>2018-08-16T07:11:42.000Z</time>
      </trkpt>
      <trkpt lat="47.67705523408949375152587890625" lon="8.83172580040991306304931640625">
        <ele>404.399993896484375</ele>
        <time>2018-08-16T07:11:43.000Z</time>
      </trkpt>
      <trkpt lat="47.6771984808146953582763671875" lon="8.83162370882928371429443359375">
        <ele>404</ele>
        <time>2018-08-16T07:11:45.000Z</time>
      </trkpt>
      <trkpt lat="47.677467875182628631591796875" lon="8.83144207298755645751953125">
        <ele>403.600006103515625</ele>
        <time>2018-08-16T07:11:49.000Z</time>
      </trkpt>
      <trkpt lat="47.677600644528865814208984375" lon="8.831363283097743988037109375">
        <ele>403.600006103515625</ele>
        <time>2018-08-16T07:11:51.000Z</time>
      </trkpt>
      <trkpt lat="47.677798457443714141845703125" lon="8.83125976659357547760009765625">
        <ele>403.600006103515625</ele>
        <time>2018-08-16T07:11:54.000Z</time>
      </trkpt>
      <trkpt lat="47.6779887266457080841064453125" lon="8.83118323981761932373046875">
        <ele>403.79998779296875</ele>
        <time>2018-08-16T07:11:57.000Z</time>
      </trkpt>
      <trkpt lat="47.678106240928173065185546875" lon="8.83114828728139400482177734375">
        <ele>404.20001220703125</ele>
        <time>2018-08-16T07:11:59.000Z</time>
      </trkpt>
      <trkpt lat="47.67820338718593120574951171875" lon="8.831119202077388763427734375">
        <ele>404.399993896484375</ele>
        <time>2018-08-16T07:12:01.000Z</time>
      </trkpt>
      <trkpt lat="47.67829474993050098419189453125" lon="8.8310932181775569915771484375">
        <ele>404.600006103515625</ele>
        <time>2018-08-16T07:12:03.000Z</time>
      </trkpt>
      <trkpt lat="47.6783984340727329254150390625" lon="8.8310590200126171112060546875">
        <ele>404.79998779296875</ele>
        <time>2018-08-16T07:12:05.000Z</time>
      </trkpt>
      <trkpt lat="47.67845601774752140045166015625" lon="8.83104016073048114776611328125">
        <ele>404.79998779296875</ele>
        <time>2018-08-16T07:12:06.000Z</time>
      </trkpt>
      <trkpt lat="47.6785804890096187591552734375" lon="8.83100353181362152099609375">
        <ele>404.79998779296875</ele>
        <time>2018-08-16T07:12:08.000Z</time>
      </trkpt>
      <trkpt lat="47.67870428971946239471435546875" lon="8.83096807636320590972900390625">
        <ele>405</ele>
        <time>2018-08-16T07:12:10.000Z</time>
      </trkpt>
      <trkpt lat="47.6790384761989116668701171875" lon="8.830890543758869171142578125">
        <ele>405</ele>
        <time>2018-08-16T07:12:15.000Z</time>
      </trkpt>
      <trkpt lat="47.6791722513735294342041015625" lon="8.8308605365455150604248046875">
        <ele>405.20001220703125</ele>
        <time>2018-08-16T07:12:17.000Z</time>
      </trkpt>
      <trkpt lat="47.67972017638385295867919921875" lon="8.83074159733951091766357421875">
        <ele>405.20001220703125</ele>
        <time>2018-08-16T07:12:25.000Z</time>
      </trkpt>
      <trkpt lat="47.6798609085381031036376953125" lon="8.8307076506316661834716796875">
        <ele>405.20001220703125</ele>
        <time>2018-08-16T07:12:27.000Z</time>
      </trkpt>
      <trkpt lat="47.6799256168305873870849609375" lon="8.83069373667240142822265625">
        <ele>405.20001220703125</ele>
        <time>2018-08-16T07:12:28.000Z</time>
      </trkpt>
      <trkpt lat="47.68038419075310230255126953125" lon="8.830521740019321441650390625">
        <ele>405</ele>
        <time>2018-08-16T07:12:35.000Z</time>
      </trkpt>
      <trkpt lat="47.68051209859549999237060546875" lon="8.83044068701565265655517578125">
        <ele>405</ele>
        <time>2018-08-16T07:12:37.000Z</time>
      </trkpt>
      <trkpt lat="47.6810045354068279266357421875" lon="8.8300894014537334442138671875">
        <ele>405.20001220703125</ele>
        <time>2018-08-16T07:12:45.000Z</time>
      </trkpt>
      <trkpt lat="47.6811282522976398468017578125" lon="8.8300018943846225738525390625">
        <ele>405.399993896484375</ele>
        <time>2018-08-16T07:12:47.000Z</time>
      </trkpt>
      <trkpt lat="47.68143829889595508575439453125" lon="8.82980667985975742340087890625">
        <ele>406.20001220703125</ele>
        <time>2018-08-16T07:12:52.000Z</time>
      </trkpt>
      <trkpt lat="47.68173761665821075439453125" lon="8.82961557246744632720947265625">
        <ele>407.20001220703125</ele>
        <time>2018-08-16T07:12:57.000Z</time>
      </trkpt>
      <trkpt lat="47.68204271793365478515625" lon="8.829422034323215484619140625">
        <ele>407.79998779296875</ele>
        <time>2018-08-16T07:13:02.000Z</time>
      </trkpt>
      <trkpt lat="47.68222980201244354248046875" lon="8.82929990999400615692138671875">
        <ele>408.399993896484375</ele>
        <time>2018-08-16T07:13:05.000Z</time>
      </trkpt>
      <trkpt lat="47.68254169262945652008056640625" lon="8.8290996663272380828857421875">
        <ele>409.20001220703125</ele>
        <time>2018-08-16T07:13:10.000Z</time>
      </trkpt>
      <trkpt lat="47.68272927962243556976318359375" lon="8.82897368632256984710693359375">
        <ele>409.399993896484375</ele>
        <time>2018-08-16T07:13:13.000Z</time>
      </trkpt>
      <trkpt lat="47.683207802474498748779296875" lon="8.82855928502976894378662109375">
        <ele>410.399993896484375</ele>
        <time>2018-08-16T07:13:21.000Z</time>
      </trkpt>
      <trkpt lat="47.68326706252992153167724609375" lon="8.8285038806498050689697265625">
        <ele>410.399993896484375</ele>
        <time>2018-08-16T07:13:22.000Z</time>
      </trkpt>
      <trkpt lat="47.68375187180936336517333984375" lon="8.82807984016835689544677734375">
        <ele>411</ele>
        <time>2018-08-16T07:13:30.000Z</time>
      </trkpt>
      <trkpt lat="47.68431714735925197601318359375" lon="8.82778898812830448150634765625">
        <ele>411</ele>
        <time>2018-08-16T07:13:38.000Z</time>
      </trkpt>
      <trkpt lat="47.68446600995957851409912109375" lon="8.82774406112730503082275390625">
        <ele>411</ele>
        <time>2018-08-16T07:13:40.000Z</time>
      </trkpt>
      <trkpt lat="47.684619985520839691162109375" lon="8.82770977914333343505859375">
        <ele>411</ele>
        <time>2018-08-16T07:13:42.000Z</time>
      </trkpt>
      <trkpt lat="47.68500530160963535308837890625" lon="8.8276603259146213531494140625">
        <ele>410.79998779296875</ele>
        <time>2018-08-16T07:13:47.000Z</time>
      </trkpt>
      <trkpt lat="47.68523395992815494537353515625" lon="8.82765747606754302978515625">
        <ele>410.600006103515625</ele>
        <time>2018-08-16T07:13:50.000Z</time>
      </trkpt>
      <trkpt lat="47.68545574508607387542724609375" lon="8.82766711525619029998779296875">
        <ele>410.399993896484375</ele>
        <time>2018-08-16T07:13:53.000Z</time>
      </trkpt>
      <trkpt lat="47.6860480941832065582275390625" lon="8.82769242860376834869384765625">
        <ele>410</ele>
        <time>2018-08-16T07:14:01.000Z</time>
      </trkpt>
      <trkpt lat="47.68659819848835468292236328125" lon="8.82770902477204799652099609375">
        <ele>409.600006103515625</ele>
        <time>2018-08-16T07:14:08.000Z</time>
      </trkpt>
      <trkpt lat="47.68692433834075927734375" lon="8.8277278840541839599609375">
        <ele>409.399993896484375</ele>
        <time>2018-08-16T07:14:12.000Z</time>
      </trkpt>
      <trkpt lat="47.68734586425125598907470703125" lon="8.8277612440288066864013671875">
        <ele>409</ele>
        <time>2018-08-16T07:14:17.000Z</time>
      </trkpt>
      <trkpt lat="47.68793578259646892547607421875" lon="8.827753700315952301025390625">
        <ele>408.399993896484375</ele>
        <time>2018-08-16T07:14:24.000Z</time>
      </trkpt>
      <trkpt lat="47.6881023310124874114990234375" lon="8.82773836143314838409423828125">
        <ele>408.20001220703125</ele>
        <time>2018-08-16T07:14:26.000Z</time>
      </trkpt>
      <trkpt lat="47.68834129907190799713134765625" lon="8.82770516909658908843994140625">
        <ele>408</ele>
        <time>2018-08-16T07:14:29.000Z</time>
      </trkpt>
      <trkpt lat="47.68841958604753017425537109375" lon="8.82769024930894374847412109375">
        <ele>407.79998779296875</ele>
        <time>2018-08-16T07:14:30.000Z</time>
      </trkpt>
      <trkpt lat="47.68857783637940883636474609375" lon="8.82766040973365306854248046875">
        <ele>407.600006103515625</ele>
        <time>2018-08-16T07:14:32.000Z</time>
      </trkpt>
      <trkpt lat="47.6888191513717174530029296875" lon="8.827608861029148101806640625">
        <ele>407.600006103515625</ele>
        <time>2018-08-16T07:14:35.000Z</time>
      </trkpt>
      <trkpt lat="47.68897580914199352264404296875" lon="8.82756292819976806640625">
        <ele>407.399993896484375</ele>
        <time>2018-08-16T07:14:37.000Z</time>
      </trkpt>
      <trkpt lat="47.689056359231472015380859375" lon="8.8275392912328243255615234375">
        <ele>407.399993896484375</ele>
        <time>2018-08-16T07:14:38.000Z</time>
      </trkpt>
      <trkpt lat="47.68913590349256992340087890625" lon="8.82750995457172393798828125">
        <ele>407.20001220703125</ele>
        <time>2018-08-16T07:14:39.000Z</time>
      </trkpt>
      <trkpt lat="47.68929365091025829315185546875" lon="8.827448599040508270263671875">
        <ele>407.20001220703125</ele>
        <time>2018-08-16T07:14:41.000Z</time>
      </trkpt>
      <trkpt lat="47.689839899539947509765625" lon="8.827221281826496124267578125">
        <ele>407.399993896484375</ele>
        <time>2018-08-16T07:14:48.000Z</time>
      </trkpt>
      <trkpt lat="47.690372653305530548095703125" lon="8.826996982097625732421875">
        <ele>407.399993896484375</ele>
        <time>2018-08-16T07:14:55.000Z</time>
      </trkpt>
      <trkpt lat="47.69075025804340839385986328125" lon="8.8268305175006389617919921875">
        <ele>407.399993896484375</ele>
        <time>2018-08-16T07:15:00.000Z</time>
      </trkpt>
      <trkpt lat="47.69127362407743930816650390625" lon="8.82659590803086757659912109375">
        <ele>407.399993896484375</ele>
        <time>2018-08-16T07:15:07.000Z</time>
      </trkpt>
      <trkpt lat="47.69172624684870243072509765625" lon="8.82640278898179531097412109375">
        <ele>407.600006103515625</ele>
        <time>2018-08-16T07:15:13.000Z</time>
      </trkpt>
      <trkpt lat="47.69225296564400196075439453125" lon="8.82616507820785045623779296875">
        <ele>407.600006103515625</ele>
        <time>2018-08-16T07:15:20.000Z</time>
      </trkpt>
      <trkpt lat="47.69255605526268482208251953125" lon="8.826030381023883819580078125">
        <ele>407.600006103515625</ele>
        <time>2018-08-16T07:15:24.000Z</time>
      </trkpt>
      <trkpt lat="47.6928558759391307830810546875" lon="8.825897611677646636962890625">
        <ele>407.600006103515625</ele>
        <time>2018-08-16T07:15:28.000Z</time>
      </trkpt>
      <trkpt lat="47.69337614066898822784423828125" lon="8.82567088119685649871826171875">
        <ele>407.79998779296875</ele>
        <time>2018-08-16T07:15:35.000Z</time>
      </trkpt>
      <trkpt lat="47.69367478787899017333984375" lon="8.82553677074611186981201171875">
        <ele>407.79998779296875</ele>
        <time>2018-08-16T07:15:39.000Z</time>
      </trkpt>
      <trkpt lat="47.69419270567595958709716796875" lon="8.825294785201549530029296875">
        <ele>407.79998779296875</ele>
        <time>2018-08-16T07:15:46.000Z</time>
      </trkpt>
      <trkpt lat="47.69477575086057186126708984375" lon="8.8250491954386234283447265625">
        <ele>408.20001220703125</ele>
        <time>2018-08-16T07:15:54.000Z</time>
      </trkpt>
      <trkpt lat="47.695293836295604705810546875" lon="8.8248215429484844207763671875">
        <ele>408.399993896484375</ele>
        <time>2018-08-16T07:16:01.000Z</time>
      </trkpt>
      <trkpt lat="47.69587813876569271087646484375" lon="8.8245533220469951629638671875">
        <ele>408.600006103515625</ele>
        <time>2018-08-16T07:16:09.000Z</time>
      </trkpt>
      <trkpt lat="47.696404270827770233154296875" lon="8.8243256695568561553955078125">
        <ele>408.79998779296875</ele>
        <time>2018-08-16T07:16:16.000Z</time>
      </trkpt>
      <trkpt lat="47.69692696630954742431640625" lon="8.824092485010623931884765625">
        <ele>409.399993896484375</ele>
        <time>2018-08-16T07:16:23.000Z</time>
      </trkpt>
      <trkpt lat="47.6972262002527713775634765625" lon="8.823962397873401641845703125">
        <ele>409.399993896484375</ele>
        <time>2018-08-16T07:16:27.000Z</time>
      </trkpt>
      <trkpt lat="47.697747386991977691650390625" lon="8.8237287104129791259765625">
        <ele>409.79998779296875</ele>
        <time>2018-08-16T07:16:34.000Z</time>
      </trkpt>
      <trkpt lat="47.69827988930046558380126953125" lon="8.8234965316951274871826171875">
        <ele>410</ele>
        <time>2018-08-16T07:16:41.000Z</time>
      </trkpt>
      <trkpt lat="47.698658667504787445068359375" lon="8.82334289140999317169189453125">
        <ele>410</ele>
        <time>2018-08-16T07:16:46.000Z</time>
      </trkpt>
      <trkpt lat="47.6988050155341625213623046875" lon="8.82327851839363574981689453125">
        <ele>410.20001220703125</ele>
        <time>2018-08-16T07:16:48.000Z</time>
      </trkpt>
      <trkpt lat="47.69917507655918598175048828125" lon="8.8231163285672664642333984375">
        <ele>410.399993896484375</ele>
        <time>2018-08-16T07:16:53.000Z</time>
      </trkpt>
      <trkpt lat="47.6993240229785442352294921875" lon="8.82304650731384754180908203125">
        <ele>410.399993896484375</ele>
        <time>2018-08-16T07:16:55.000Z</time>
      </trkpt>
      <trkpt lat="47.69955058582127094268798828125" lon="8.8229428231716156005859375">
        <ele>410.399993896484375</ele>
        <time>2018-08-16T07:16:58.000Z</time>
      </trkpt>
      <trkpt lat="47.70008183084428310394287109375" lon="8.82270284928381443023681640625">
        <ele>410.600006103515625</ele>
        <time>2018-08-16T07:17:05.000Z</time>
      </trkpt>
      <trkpt lat="47.7003147639334201812744140625" lon="8.8226053677499294281005859375">
        <ele>410.600006103515625</ele>
        <time>2018-08-16T07:17:08.000Z</time>
      </trkpt>
      <trkpt lat="47.7008498646318912506103515625" lon="8.82236556150019168853759765625">
        <ele>411</ele>
        <time>2018-08-16T07:17:15.000Z</time>
      </trkpt>
      <trkpt lat="47.7013933472335338592529296875" lon="8.82210354320704936981201171875">
        <ele>411</ele>
        <time>2018-08-16T07:17:22.000Z</time>
      </trkpt>
      <trkpt lat="47.7019326388835906982421875" lon="8.82178653962910175323486328125">
        <ele>411.20001220703125</ele>
        <time>2018-08-16T07:17:29.000Z</time>
      </trkpt>
      <trkpt lat="47.7022352255880832672119140625" lon="8.8215824402868747711181640625">
        <ele>411.20001220703125</ele>
        <time>2018-08-16T07:17:33.000Z</time>
      </trkpt>
      <trkpt lat="47.7025366388261318206787109375" lon="8.82136861793696880340576171875">
        <ele>411.20001220703125</ele>
        <time>2018-08-16T07:17:37.000Z</time>
      </trkpt>
      <trkpt lat="47.7027612738311290740966796875" lon="8.82120969705283641815185546875">
        <ele>411</ele>
        <time>2018-08-16T07:17:40.000Z</time>
      </trkpt>
      <trkpt lat="47.7032883279025554656982421875" lon="8.8208532147109508514404296875">
        <ele>410.600006103515625</ele>
        <time>2018-08-16T07:17:47.000Z</time>
      </trkpt>
      <trkpt lat="47.70343023352324962615966796875" lon="8.820759840309619903564453125">
        <ele>410.600006103515625</ele>
        <time>2018-08-16T07:17:49.000Z</time>
      </trkpt>
      <trkpt lat="47.70354607142508029937744140625" lon="8.82068817503750324249267578125">
        <ele>410.600006103515625</ele>
        <time>2018-08-16T07:17:51.000Z</time>
      </trkpt>
      <trkpt lat="47.70370599813759326934814453125" lon="8.82062497548758983612060546875">
        <ele>410.20001220703125</ele>
        <time>2018-08-16T07:17:58.000Z</time>
      </trkpt>
      <trkpt lat="47.70381152629852294921875" lon="8.82057686336338520050048828125">
        <ele>409.79998779296875</ele>
        <time>2018-08-16T07:18:03.000Z</time>
      </trkpt>
      <trkpt lat="47.70386592485010623931884765625" lon="8.8205776177346706390380859375">
        <ele>409.79998779296875</ele>
        <time>2018-08-16T07:18:05.000Z</time>
      </trkpt>
      <trkpt lat="47.7039416134357452392578125" lon="8.82058826275169849395751953125">
        <ele>409.79998779296875</ele>
        <time>2018-08-16T07:18:07.000Z</time>
      </trkpt>
      <trkpt lat="47.70398662425577640533447265625" lon="8.82058256305754184722900390625">
        <ele>409.79998779296875</ele>
        <time>2018-08-16T07:18:08.000Z</time>
      </trkpt>
      <trkpt lat="47.7040354907512664794921875" lon="8.8205709122121334075927734375">
        <ele>409.79998779296875</ele>
        <time>2018-08-16T07:18:09.000Z</time>
      </trkpt>
      <trkpt lat="47.70414688624441623687744140625" lon="8.82053327746689319610595703125">
        <ele>409.79998779296875</ele>
        <time>2018-08-16T07:18:11.000Z</time>
      </trkpt>
      <trkpt lat="47.7043283544480800628662109375" lon="8.8204629532992839813232421875">
        <ele>409.79998779296875</ele>
        <time>2018-08-16T07:18:14.000Z</time>
      </trkpt>
      <trkpt lat="47.70452088676393032073974609375" lon="8.820393383502960205078125">
        <ele>409.79998779296875</ele>
        <time>2018-08-16T07:18:17.000Z</time>
      </trkpt>
      <trkpt lat="47.7047249861061573028564453125" lon="8.82033110596239566802978515625">
        <ele>409.79998779296875</ele>
        <time>2018-08-16T07:18:20.000Z</time>
      </trkpt>
      <trkpt lat="47.7052746713161468505859375" lon="8.8202443532645702362060546875">
        <ele>410.20001220703125</ele>
        <time>2018-08-16T07:18:28.000Z</time>
      </trkpt>
      <trkpt lat="47.7055517770349979400634765625" lon="8.82021945901215076446533203125">
        <ele>410.600006103515625</ele>
        <time>2018-08-16T07:18:32.000Z</time>
      </trkpt>
      <trkpt lat="47.70612032152712345123291015625" lon="8.8202849216759204864501953125">
        <ele>411</ele>
        <time>2018-08-16T07:18:40.000Z</time>
      </trkpt>
      <trkpt lat="47.70669414661824703216552734375" lon="8.82049866020679473876953125">
        <ele>411.399993896484375</ele>
        <time>2018-08-16T07:18:48.000Z</time>
      </trkpt>
      <trkpt lat="47.70691408775746822357177734375" lon="8.82057719863951206207275390625">
        <ele>411.79998779296875</ele>
        <time>2018-08-16T07:18:51.000Z</time>
      </trkpt>
      <trkpt lat="47.7071332745254039764404296875" lon="8.8206708244979381561279296875">
        <ele>411.79998779296875</ele>
        <time>2018-08-16T07:18:54.000Z</time>
      </trkpt>
      <trkpt lat="47.70766493864357471466064453125" lon="8.82086687721312046051025390625">
        <ele>411.79998779296875</ele>
        <time>2018-08-16T07:19:01.000Z</time>
      </trkpt>
      <trkpt lat="47.708218730986118316650390625" lon="8.82099143229424953460693359375">
        <ele>412</ele>
        <time>2018-08-16T07:19:08.000Z</time>
      </trkpt>
      <trkpt lat="47.70870479755103588104248046875" lon="8.82106033153831958770751953125">
        <ele>412.20001220703125</ele>
        <time>2018-08-16T07:19:14.000Z</time>
      </trkpt>
      <trkpt lat="47.70884192548692226409912109375" lon="8.82108547724783420562744140625">
        <ele>412.20001220703125</ele>
        <time>2018-08-16T07:19:16.000Z</time>
      </trkpt>
      <trkpt lat="47.70895759575068950653076171875" lon="8.8211143948137760162353515625">
        <ele>412.20001220703125</ele>
        <time>2018-08-16T07:19:18.000Z</time>
      </trkpt>
      <trkpt lat="47.70901710726320743560791015625" lon="8.821118585765361785888671875">
        <ele>412.20001220703125</ele>
        <time>2018-08-16T07:19:19.000Z</time>
      </trkpt>
      <trkpt lat="47.70945715717971324920654296875" lon="8.82119075395166873931884765625">
        <ele>412</ele>
        <time>2018-08-16T07:19:26.000Z</time>
      </trkpt>
      <trkpt lat="47.70972487516701221466064453125" lon="8.82126233540475368499755859375">
        <ele>412</ele>
        <time>2018-08-16T07:19:30.000Z</time>
      </trkpt>
      <trkpt lat="47.71026366390287876129150390625" lon="8.821422345936298370361328125">
        <ele>412</ele>
        <time>2018-08-16T07:19:38.000Z</time>
      </trkpt>
      <trkpt lat="47.710823826491832733154296875" lon="8.82164396345615386962890625">
        <ele>412</ele>
        <time>2018-08-16T07:19:46.000Z</time>
      </trkpt>
      <trkpt lat="47.711254321038722991943359375" lon="8.821990303695201873779296875">
        <ele>412.20001220703125</ele>
        <time>2018-08-16T07:19:53.000Z</time>
      </trkpt>
      <trkpt lat="47.71130637265741825103759765625" lon="8.8220469653606414794921875">
        <ele>412.20001220703125</ele>
        <time>2018-08-16T07:19:54.000Z</time>
      </trkpt>
      <trkpt lat="47.711356915533542633056640625" lon="8.822104297578334808349609375">
        <ele>412.20001220703125</ele>
        <time>2018-08-16T07:19:55.000Z</time>
      </trkpt>
      <trkpt lat="47.71158448420464992523193359375" lon="8.8223917968571186065673828125">
        <ele>412.399993896484375</ele>
        <time>2018-08-16T07:20:00.000Z</time>
      </trkpt>
      <trkpt lat="47.71168313920497894287109375" lon="8.8225815631449222564697265625">
        <ele>412.399993896484375</ele>
        <time>2018-08-16T07:20:03.000Z</time>
      </trkpt>
      <trkpt lat="47.71172697655856609344482421875" lon="8.82262573577463626861572265625">
        <ele>412.399993896484375</ele>
        <time>2018-08-16T07:20:04.000Z</time>
      </trkpt>
      <trkpt lat="47.71177844144403934478759765625" lon="8.82265808992087841033935546875">
        <ele>412.399993896484375</ele>
        <time>2018-08-16T07:20:05.000Z</time>
      </trkpt>
      <trkpt lat="47.7118355222046375274658203125" lon="8.8226824812591075897216796875">
        <ele>412.399993896484375</ele>
        <time>2018-08-16T07:20:06.000Z</time>
      </trkpt>
      <trkpt lat="47.71189310587942600250244140625" lon="8.822705112397670745849609375">
        <ele>412.399993896484375</ele>
        <time>2018-08-16T07:20:07.000Z</time>
      </trkpt>
      <trkpt lat="47.7120474167168140411376953125" lon="8.8227495364844799041748046875">
        <ele>412.399993896484375</ele>
        <time>2018-08-16T07:20:10.000Z</time>
      </trkpt>
      <trkpt lat="47.712142467498779296875" lon="8.8227351196110248565673828125">
        <ele>412.399993896484375</ele>
        <time>2018-08-16T07:20:13.000Z</time>
      </trkpt>
      <trkpt lat="47.71219887770712375640869140625" lon="8.8226888515055179595947265625">
        <ele>412.20001220703125</ele>
        <time>2018-08-16T07:20:15.000Z</time>
      </trkpt>
      <trkpt lat="47.71227431483566761016845703125" lon="8.82266345433890819549560546875">
        <ele>412.20001220703125</ele>
        <time>2018-08-16T07:20:18.000Z</time>
      </trkpt>
      <trkpt lat="47.7123028971254825592041015625" lon="8.82268792949616909027099609375">
        <ele>412</ele>
        <time>2018-08-16T07:20:20.000Z</time>
      </trkpt>
      <trkpt lat="47.71230583079159259796142578125" lon="8.82269396446645259857177734375">
        <ele>412</ele>
        <time>2018-08-16T07:20:22.000Z</time>
      </trkpt>
      <trkpt lat="47.71232930012047290802001953125" lon="8.82275884039700031280517578125">
        <ele>412</ele>
        <time>2018-08-16T07:21:03.000Z</time>
      </trkpt>
      <trkpt lat="47.712335251271724700927734375" lon="8.82274157367646694183349609375">
        <ele>412</ele>
        <time>2018-08-16T07:21:04.000Z</time>
      </trkpt>
      <trkpt lat="47.71244329400360584259033203125" lon="8.822703100740909576416015625">
        <ele>412</ele>
        <time>2018-08-16T07:21:09.000Z</time>
      </trkpt>
      <trkpt lat="47.712528705596923828125" lon="8.82274442352354526519775390625">
        <ele>412</ele>
        <time>2018-08-16T07:21:12.000Z</time>
      </trkpt>
      <trkpt lat="47.71274671889841556549072265625" lon="8.82284869439899921417236328125">
        <ele>412.20001220703125</ele>
        <time>2018-08-16T07:21:18.000Z</time>
      </trkpt>
      <trkpt lat="47.71282701753079891204833984375" lon="8.82290099747478961944580078125">
        <ele>412.20001220703125</ele>
        <time>2018-08-16T07:21:20.000Z</time>
      </trkpt>
      <trkpt lat="47.71287127397954463958740234375" lon="8.8229305855929851531982421875">
        <ele>412.20001220703125</ele>
        <time>2018-08-16T07:21:21.000Z</time>
      </trkpt>
      <trkpt lat="47.71307411603629589080810546875" lon="8.82304005324840545654296875">
        <ele>412.20001220703125</ele>
        <time>2018-08-16T07:21:25.000Z</time>
      </trkpt>
      <trkpt lat="47.7133878506720066070556640625" lon="8.82319821976125240325927734375">
        <ele>412.20001220703125</ele>
        <time>2018-08-16T07:21:31.000Z</time>
      </trkpt>
      <trkpt lat="47.71367526613175868988037109375" lon="8.8233252055943012237548828125">
        <ele>412.399993896484375</ele>
        <time>2018-08-16T07:21:38.000Z</time>
      </trkpt>
      <trkpt lat="47.71374818868935108184814453125" lon="8.8234321586787700653076171875">
        <ele>412.399993896484375</ele>
        <time>2018-08-16T07:21:40.000Z</time>
      </trkpt>
      <trkpt lat="47.7139487676322460174560546875" lon="8.82359803654253482818603515625">
        <ele>412.399993896484375</ele>
        <time>2018-08-16T07:21:44.000Z</time>
      </trkpt>
      <trkpt lat="47.71405697800219058990478515625" lon="8.8236645050346851348876953125">
        <ele>412.399993896484375</ele>
        <time>2018-08-16T07:21:46.000Z</time>
      </trkpt>
      <trkpt lat="47.7141635119915008544921875" lon="8.8237312249839305877685546875">
        <ele>412.399993896484375</ele>
        <time>2018-08-16T07:21:48.000Z</time>
      </trkpt>
      <trkpt lat="47.7147118560969829559326171875" lon="8.8240735419094562530517578125">
        <ele>412.399993896484375</ele>
        <time>2018-08-16T07:21:58.000Z</time>
      </trkpt>
      <trkpt lat="47.7152499742805957794189453125" lon="8.824431784451007843017578125">
        <ele>412.399993896484375</ele>
        <time>2018-08-16T07:22:07.000Z</time>
      </trkpt>
      <trkpt lat="47.71548408083617687225341796875" lon="8.8245952315628528594970703125">
        <ele>412.20001220703125</ele>
        <time>2018-08-16T07:22:11.000Z</time>
      </trkpt>
      <trkpt lat="47.71559874527156352996826171875" lon="8.824675194919109344482421875">
        <ele>412.20001220703125</ele>
        <time>2018-08-16T07:22:13.000Z</time>
      </trkpt>
      <trkpt lat="47.71571240387856960296630859375" lon="8.8247588463127613067626953125">
        <ele>412.20001220703125</ele>
        <time>2018-08-16T07:22:15.000Z</time>
      </trkpt>
      <trkpt lat="47.71582907997071743011474609375" lon="8.82484383881092071533203125">
        <ele>412</ele>
        <time>2018-08-16T07:22:17.000Z</time>
      </trkpt>
      <trkpt lat="47.716185562312602996826171875" lon="8.82510661147534847259521484375">
        <ele>412</ele>
        <time>2018-08-16T07:22:23.000Z</time>
      </trkpt>
      <trkpt lat="47.71636820398271083831787109375" lon="8.8252386264503002166748046875">
        <ele>412</ele>
        <time>2018-08-16T07:22:26.000Z</time>
      </trkpt>
      <trkpt lat="47.71654975600540637969970703125" lon="8.825371898710727691650390625">
        <ele>412</ele>
        <time>2018-08-16T07:22:29.000Z</time>
      </trkpt>
      <trkpt lat="47.71678470075130462646484375" lon="8.825554959475994110107421875">
        <ele>412</ele>
        <time>2018-08-16T07:22:33.000Z</time>
      </trkpt>
      <trkpt lat="47.717193402349948883056640625" lon="8.8258867152035236358642578125">
        <ele>412</ele>
        <time>2018-08-16T07:22:40.000Z</time>
      </trkpt>
      <trkpt lat="47.71754820831120014190673828125" lon="8.82617178373038768768310546875">
        <ele>412</ele>
        <time>2018-08-16T07:22:46.000Z</time>
      </trkpt>
      <trkpt lat="47.71760503761470317840576171875" lon="8.82621771655976772308349609375">
        <ele>412</ele>
        <time>2018-08-16T07:22:47.000Z</time>
      </trkpt>
      <trkpt lat="47.71766203455626964569091796875" lon="8.82626473903656005859375">
        <ele>412</ele>
        <time>2018-08-16T07:22:48.000Z</time>
      </trkpt>
      <trkpt lat="47.71777804009616374969482421875" lon="8.82635434158146381378173828125">
        <ele>412</ele>
        <time>2018-08-16T07:22:50.000Z</time>
      </trkpt>
      <trkpt lat="47.71796696819365024566650390625" lon="8.82642810232937335968017578125">
        <ele>411.79998779296875</ele>
        <time>2018-08-16T07:22:53.000Z</time>
      </trkpt>
      <trkpt lat="47.71815489046275615692138671875" lon="8.8265411742031574249267578125">
        <ele>411.79998779296875</ele>
        <time>2018-08-16T07:22:56.000Z</time>
      </trkpt>
      <trkpt lat="47.71822110749781131744384765625" lon="8.8265679962933063507080078125">
        <ele>411.79998779296875</ele>
        <time>2018-08-16T07:22:57.000Z</time>
      </trkpt>
      <trkpt lat="47.71828615106642246246337890625" lon="8.82660244591534137725830078125">
        <ele>411.79998779296875</ele>
        <time>2018-08-16T07:22:58.000Z</time>
      </trkpt>
      <trkpt lat="47.7183479256927967071533203125" lon="8.8266461156308650970458984375">
        <ele>411.79998779296875</ele>
        <time>2018-08-16T07:22:59.000Z</time>
      </trkpt>
      <trkpt lat="47.7184585668146610260009765625" lon="8.8267443515360355377197265625">
        <ele>411.600006103515625</ele>
        <time>2018-08-16T07:23:01.000Z</time>
      </trkpt>
      <trkpt lat="47.71865294314920902252197265625" lon="8.8269750215113162994384765625">
        <ele>411.600006103515625</ele>
        <time>2018-08-16T07:23:05.000Z</time>
      </trkpt>
      <trkpt lat="47.71874782629311084747314453125" lon="8.8271163403987884521484375">
        <ele>411.399993896484375</ele>
        <time>2018-08-16T07:23:07.000Z</time>
      </trkpt>
      <trkpt lat="47.71879895590245723724365234375" lon="8.82718029431998729705810546875">
        <ele>411.399993896484375</ele>
        <time>2018-08-16T07:23:08.000Z</time>
      </trkpt>
      <trkpt lat="47.71885159425437450408935546875" lon="8.82723963819444179534912109375">
        <ele>411.399993896484375</ele>
        <time>2018-08-16T07:23:09.000Z</time>
      </trkpt>
      <trkpt lat="47.7190164662897586822509765625" lon="8.82738715969026088714599609375">
        <ele>411.399993896484375</ele>
        <time>2018-08-16T07:23:12.000Z</time>
      </trkpt>
      <trkpt lat="47.71912895143032073974609375" lon="8.82746930234134197235107421875">
        <ele>411.399993896484375</ele>
        <time>2018-08-16T07:23:14.000Z</time>
      </trkpt>
      <trkpt lat="47.719186283648014068603515625" lon="8.82750987075269222259521484375">
        <ele>411.399993896484375</ele>
        <time>2018-08-16T07:23:15.000Z</time>
      </trkpt>
      <trkpt lat="47.7192437835037708282470703125" lon="8.82755228318274021148681640625">
        <ele>411.399993896484375</ele>
        <time>2018-08-16T07:23:16.000Z</time>
      </trkpt>
      <trkpt lat="47.71947705186903476715087890625" lon="8.8277119584381580352783203125">
        <ele>411.399993896484375</ele>
        <time>2018-08-16T07:23:20.000Z</time>
      </trkpt>
      <trkpt lat="47.71960294805467128753662109375" lon="8.82774607278406620025634765625">
        <ele>411.399993896484375</ele>
        <time>2018-08-16T07:23:22.000Z</time>
      </trkpt>
      <trkpt lat="47.71980310790240764617919921875" lon="8.82774456404149532318115234375">
        <ele>411.399993896484375</ele>
        <time>2018-08-16T07:23:25.000Z</time>
      </trkpt>
      <trkpt lat="47.7202735841274261474609375" lon="8.8278567977249622344970703125">
        <ele>410.79998779296875</ele>
        <time>2018-08-16T07:23:31.000Z</time>
      </trkpt>
      <trkpt lat="47.72035245783627033233642578125" lon="8.827869705855846405029296875">
        <ele>410.79998779296875</ele>
        <time>2018-08-16T07:23:32.000Z</time>
      </trkpt>
      <trkpt lat="47.720430828630924224853515625" lon="8.82788169197738170623779296875">
        <ele>410.600006103515625</ele>
        <time>2018-08-16T07:23:33.000Z</time>
      </trkpt>
      <trkpt lat="47.720583043992519378662109375" lon="8.8279022276401519775390625">
        <ele>410.20001220703125</ele>
        <time>2018-08-16T07:23:35.000Z</time>
      </trkpt>
      <trkpt lat="47.720658481121063232421875" lon="8.82790985517203807830810546875">
        <ele>409.79998779296875</ele>
        <time>2018-08-16T07:23:36.000Z</time>
      </trkpt>
      <trkpt lat="47.72073333151638507843017578125" lon="8.827919661998748779296875">
        <ele>409.399993896484375</ele>
        <time>2018-08-16T07:23:37.000Z</time>
      </trkpt>
      <trkpt lat="47.7208065055310726165771484375" lon="8.82793282158672809600830078125">
        <ele>409.20001220703125</ele>
        <time>2018-08-16T07:23:38.000Z</time>
      </trkpt>
      <trkpt lat="47.720943801105022430419921875" lon="8.8279714621603488922119140625">
        <ele>409.20001220703125</ele>
        <time>2018-08-16T07:23:40.000Z</time>
      </trkpt>
      <trkpt lat="47.72118486464023590087890625" lon="8.82807045243680477142333984375">
        <ele>409</ele>
        <time>2018-08-16T07:23:44.000Z</time>
      </trkpt>
      <trkpt lat="47.72175307385623455047607421875" lon="8.82827077992260456085205078125">
        <ele>409.79998779296875</ele>
        <time>2018-08-16T07:23:53.000Z</time>
      </trkpt>
      <trkpt lat="47.7223132364451885223388671875" lon="8.82851318456232547760009765625">
        <ele>410</ele>
        <time>2018-08-16T07:24:02.000Z</time>
      </trkpt>
      <trkpt lat="47.722419016063213348388671875" lon="8.82855274714529514312744140625">
        <ele>410</ele>
        <time>2018-08-16T07:24:04.000Z</time>
      </trkpt>
      <trkpt lat="47.7225040085613727569580078125" lon="8.82864410988986492156982421875">
        <ele>410.20001220703125</ele>
        <time>2018-08-16T07:24:06.000Z</time>
      </trkpt>
      <trkpt lat="47.7225841395556926727294921875" lon="8.82876791059970855712890625">
        <ele>410.20001220703125</ele>
        <time>2018-08-16T07:24:08.000Z</time>
      </trkpt>
      <trkpt lat="47.72276041097939014434814453125" lon="8.82903252728283405303955078125">
        <ele>410.399993896484375</ele>
        <time>2018-08-16T07:24:12.000Z</time>
      </trkpt>
      <trkpt lat="47.7228935994207859039306640625" lon="8.829260766506195068359375">
        <ele>410.79998779296875</ele>
        <time>2018-08-16T07:24:15.000Z</time>
      </trkpt>
      <trkpt lat="47.72294179536402225494384765625" lon="8.829334862530231475830078125">
        <ele>410.79998779296875</ele>
        <time>2018-08-16T07:24:16.000Z</time>
      </trkpt>
      <trkpt lat="47.723084874451160430908203125" lon="8.8295553065836429595947265625">
        <ele>410.79998779296875</ele>
        <time>2018-08-16T07:24:19.000Z</time>
      </trkpt>
      <trkpt lat="47.72344068624079227447509765625" lon="8.8302282057702541351318359375">
        <ele>411</ele>
        <time>2018-08-16T07:24:28.000Z</time>
      </trkpt>
      <trkpt lat="47.7235249243676662445068359375" lon="8.830376900732517242431640625">
        <ele>411</ele>
        <time>2018-08-16T07:24:30.000Z</time>
      </trkpt>
      <trkpt lat="47.723648808896541595458984375" lon="8.83061033673584461212158203125">
        <ele>411.20001220703125</ele>
        <time>2018-08-16T07:24:33.000Z</time>
      </trkpt>
      <trkpt lat="47.72377864457666873931884765625" lon="8.83084402419626712799072265625">
        <ele>411.399993896484375</ele>
        <time>2018-08-16T07:24:36.000Z</time>
      </trkpt>
      <trkpt lat="47.72399607114493846893310546875" lon="8.83123914711177349090576171875">
        <ele>411.79998779296875</ele>
        <time>2018-08-16T07:24:41.000Z</time>
      </trkpt>
      <trkpt lat="47.72430921904742717742919921875" lon="8.83174918591976165771484375">
        <ele>412.20001220703125</ele>
        <time>2018-08-16T07:24:48.000Z</time>
      </trkpt>
      <trkpt lat="47.72452580742537975311279296875" lon="8.83203626610338687896728515625">
        <ele>412.399993896484375</ele>
        <time>2018-08-16T07:24:53.000Z</time>
      </trkpt>
      <trkpt lat="47.72460199892520904541015625" lon="8.83213718421757221221923828125">
        <ele>412.600006103515625</ele>
        <time>2018-08-16T07:24:55.000Z</time>
      </trkpt>
      <trkpt lat="47.7246241271495819091796875" lon="8.83219149895012378692626953125">
        <ele>412.600006103515625</ele>
        <time>2018-08-16T07:24:56.000Z</time>
      </trkpt>
      <trkpt lat="47.72467575967311859130859375" lon="8.83238813839852809906005859375">
        <ele>412.600006103515625</ele>
        <time>2018-08-16T07:24:59.000Z</time>
      </trkpt>
      <trkpt lat="47.724782042205333709716796875" lon="8.83254739455878734588623046875">
        <ele>412.79998779296875</ele>
        <time>2018-08-16T07:25:02.000Z</time>
      </trkpt>
      <trkpt lat="47.72482923232018947601318359375" lon="8.83259114809334278106689453125">
        <ele>412.79998779296875</ele>
        <time>2018-08-16T07:25:03.000Z</time>
      </trkpt>
      <trkpt lat="47.72487885318696498870849609375" lon="8.8326363265514373779296875">
        <ele>412.79998779296875</ele>
        <time>2018-08-16T07:25:04.000Z</time>
      </trkpt>
      <trkpt lat="47.7250376902520656585693359375" lon="8.8327830098569393157958984375">
        <ele>412.79998779296875</ele>
        <time>2018-08-16T07:25:07.000Z</time>
      </trkpt>
      <trkpt lat="47.72520826198160648345947265625" lon="8.832931704819202423095703125">
        <ele>412.79998779296875</ele>
        <time>2018-08-16T07:25:10.000Z</time>
      </trkpt>
      <trkpt lat="47.72532259114086627960205078125" lon="8.83302859961986541748046875">
        <ele>413</ele>
        <time>2018-08-16T07:25:12.000Z</time>
      </trkpt>
      <trkpt lat="47.72555778734385967254638671875" lon="8.83322197012603282928466796875">
        <ele>413</ele>
        <time>2018-08-16T07:25:16.000Z</time>
      </trkpt>
      <trkpt lat="47.72580555640161037445068359375" lon="8.83341223932802677154541015625">
        <ele>413</ele>
        <time>2018-08-16T07:25:20.000Z</time>
      </trkpt>
      <trkpt lat="47.72634719498455524444580078125" lon="8.83377081714570522308349609375">
        <ele>412.79998779296875</ele>
        <time>2018-08-16T07:25:28.000Z</time>
      </trkpt>
      <trkpt lat="47.726490609347820281982421875" lon="8.83385312743484973907470703125">
        <ele>412.399993896484375</ele>
        <time>2018-08-16T07:25:30.000Z</time>
      </trkpt>
      <trkpt lat="47.7269871532917022705078125" lon="8.83416225202381610870361328125">
        <ele>412</ele>
        <time>2018-08-16T07:25:37.000Z</time>
      </trkpt>
      <trkpt lat="47.72737934254109859466552734375" lon="8.83444388397037982940673828125">
        <ele>411.20001220703125</ele>
        <time>2018-08-16T07:25:43.000Z</time>
      </trkpt>
      <trkpt lat="47.72743918932974338531494140625" lon="8.8344902358949184417724609375">
        <ele>411</ele>
        <time>2018-08-16T07:25:44.000Z</time>
      </trkpt>
      <trkpt lat="47.72767656482756137847900390625" lon="8.83468025363981723785400390625">
        <ele>411</ele>
        <time>2018-08-16T07:25:48.000Z</time>
      </trkpt>
      <trkpt lat="47.7277363277971744537353515625" lon="8.83472920395433902740478515625">
        <ele>410.79998779296875</ele>
        <time>2018-08-16T07:25:49.000Z</time>
      </trkpt>
      <trkpt lat="47.7278563566505908966064453125" lon="8.83482827804982662200927734375">
        <ele>410.79998779296875</ele>
        <time>2018-08-16T07:25:51.000Z</time>
      </trkpt>
      <trkpt lat="47.72797487676143646240234375" lon="8.83492953144013881683349609375">
        <ele>410.79998779296875</ele>
        <time>2018-08-16T07:25:53.000Z</time>
      </trkpt>
      <trkpt lat="47.72815030999481678009033203125" lon="8.8350793160498142242431640625">
        <ele>410.600006103515625</ele>
        <time>2018-08-16T07:25:56.000Z</time>
      </trkpt>
      <trkpt lat="47.72843395359814167022705078125" lon="8.83532063104212284088134765625">
        <ele>410.600006103515625</ele>
        <time>2018-08-16T07:26:01.000Z</time>
      </trkpt>
      <trkpt lat="47.72854526527225971221923828125" lon="8.8354172743856906890869140625">
        <ele>410.79998779296875</ele>
        <time>2018-08-16T07:26:03.000Z</time>
      </trkpt>
      <trkpt lat="47.72902957163751125335693359375" lon="8.83586277253925800323486328125">
        <ele>411.600006103515625</ele>
        <time>2018-08-16T07:26:12.000Z</time>
      </trkpt>
      <trkpt lat="47.7292289771139621734619140625" lon="8.83607265539467334747314453125">
        <ele>412</ele>
        <time>2018-08-16T07:26:16.000Z</time>
      </trkpt>
      <trkpt lat="47.7293811924755573272705078125" lon="8.836246915161609649658203125">
        <ele>412.20001220703125</ele>
        <time>2018-08-16T07:26:19.000Z</time>
      </trkpt>
      <trkpt lat="47.72972962819039821624755859375" lon="8.8366782478988170623779296875">
        <ele>412.79998779296875</ele>
        <time>2018-08-16T07:26:26.000Z</time>
      </trkpt>
      <trkpt lat="47.72977706976234912872314453125" lon="8.83674320764839649200439453125">
        <ele>412.79998779296875</ele>
        <time>2018-08-16T07:26:27.000Z</time>
      </trkpt>
      <trkpt lat="47.72987522184848785400390625" lon="8.83687346242368221282958984375">
        <ele>412.79998779296875</ele>
        <time>2018-08-16T07:26:29.000Z</time>
      </trkpt>
      <trkpt lat="47.7301570214331150054931640625" lon="8.83728249929845333099365234375">
        <ele>412.79998779296875</ele>
        <time>2018-08-16T07:26:35.000Z</time>
      </trkpt>
      <trkpt lat="47.73020555265247821807861328125" lon="8.83735307492315769195556640625">
        <ele>412.79998779296875</ele>
        <time>2018-08-16T07:26:36.000Z</time>
      </trkpt>
      <trkpt lat="47.7302535809576511383056640625" lon="8.83742666803300380706787109375">
        <ele>412.79998779296875</ele>
        <time>2018-08-16T07:26:37.000Z</time>
      </trkpt>
      <trkpt lat="47.73030295036733150482177734375" lon="8.8374990038573741912841796875">
        <ele>412.600006103515625</ele>
        <time>2018-08-16T07:26:38.000Z</time>
      </trkpt>
      <trkpt lat="47.73066303692758083343505859375" lon="8.83796126581728458404541015625">
        <ele>411.600006103515625</ele>
        <time>2018-08-16T07:26:45.000Z</time>
      </trkpt>
      <trkpt lat="47.73074962198734283447265625" lon="8.83806402795016765594482421875">
        <ele>411.399993896484375</ele>
        <time>2018-08-16T07:26:47.000Z</time>
      </trkpt>
      <trkpt lat="47.730820365250110626220703125" lon="8.838161341845989227294921875">
        <ele>411.20001220703125</ele>
        <time>2018-08-16T07:26:49.000Z</time>
      </trkpt>
      <trkpt lat="47.73085867054760456085205078125" lon="8.838186152279376983642578125">
        <ele>410.600006103515625</ele>
        <time>2018-08-16T07:26:50.000Z</time>
      </trkpt>
      <trkpt lat="47.7309273183345794677734375" lon="8.838165365159511566162109375">
        <ele>410.20001220703125</ele>
        <time>2018-08-16T07:26:52.000Z</time>
      </trkpt>
      <trkpt lat="47.73098138161003589630126953125" lon="8.8380833901464939117431640625">
        <ele>410</ele>
        <time>2018-08-16T07:26:54.000Z</time>
      </trkpt>
      <trkpt lat="47.73101222701370716094970703125" lon="8.8380367867648601531982421875">
        <ele>409.79998779296875</ele>
        <time>2018-08-16T07:26:55.000Z</time>
      </trkpt>
      <trkpt lat="47.7310480177402496337890625" lon="8.83799496106803417205810546875">
        <ele>409.600006103515625</ele>
        <time>2018-08-16T07:26:56.000Z</time>
      </trkpt>
      <trkpt lat="47.73113359697163105010986328125" lon="8.8379237987101078033447265625">
        <ele>409.399993896484375</ele>
        <time>2018-08-16T07:26:58.000Z</time>
      </trkpt>
      <trkpt lat="47.731181122362613677978515625" lon="8.83789069019258022308349609375">
        <ele>409.399993896484375</ele>
        <time>2018-08-16T07:26:59.000Z</time>
      </trkpt>
      <trkpt lat="47.7315549552440643310546875" lon="8.83767242543399333953857421875">
        <ele>409.399993896484375</ele>
        <time>2018-08-16T07:27:06.000Z</time>
      </trkpt>
      <trkpt lat="47.731666266918182373046875" lon="8.8376037776470184326171875">
        <ele>409.399993896484375</ele>
        <time>2018-08-16T07:27:08.000Z</time>
      </trkpt>
      <trkpt lat="47.73177816532552242279052734375" lon="8.837533704936504364013671875">
        <ele>409.399993896484375</ele>
        <time>2018-08-16T07:27:10.000Z</time>
      </trkpt>
      <trkpt lat="47.732308320701122283935546875" lon="8.83719943463802337646484375">
        <ele>409.600006103515625</ele>
        <time>2018-08-16T07:27:19.000Z</time>
      </trkpt>
      <trkpt lat="47.73281668312847614288330078125" lon="8.83680514991283416748046875">
        <ele>409.79998779296875</ele>
        <time>2018-08-16T07:27:28.000Z</time>
      </trkpt>
      <trkpt lat="47.7329264022409915924072265625" lon="8.83671118877828121185302734375">
        <ele>410</ele>
        <time>2018-08-16T07:27:30.000Z</time>
      </trkpt>
      <trkpt lat="47.733231000602245330810546875" lon="8.83680724538862705230712890625">
        <ele>410</ele>
        <time>2018-08-16T07:27:35.000Z</time>
      </trkpt>
      <trkpt lat="47.733345665037631988525390625" lon="8.83691084571182727813720703125">
        <ele>410</ele>
        <time>2018-08-16T07:27:37.000Z</time>
      </trkpt>
      <trkpt lat="47.73381614126265048980712890625" lon="8.8373638875782489776611328125">
        <ele>410</ele>
        <time>2018-08-16T07:27:45.000Z</time>
      </trkpt>
      <trkpt lat="47.73393399082124233245849609375" lon="8.83748777210712432861328125">
        <ele>409.79998779296875</ele>
        <time>2018-08-16T07:27:47.000Z</time>
      </trkpt>
      <trkpt lat="47.7340438775718212127685546875" lon="8.83763420395553112030029296875">
        <ele>409.79998779296875</ele>
        <time>2018-08-16T07:27:49.000Z</time>
      </trkpt>
      <trkpt lat="47.73409374989569187164306640625" lon="8.83771416731178760528564453125">
        <ele>409.79998779296875</ele>
        <time>2018-08-16T07:27:50.000Z</time>
      </trkpt>
      <trkpt lat="47.734175138175487518310546875" lon="8.8378932885825634002685546875">
        <ele>409.79998779296875</ele>
        <time>2018-08-16T07:27:52.000Z</time>
      </trkpt>
      <trkpt lat="47.7342262677848339080810546875" lon="8.83808900602161884307861328125">
        <ele>409.79998779296875</ele>
        <time>2018-08-16T07:27:54.000Z</time>
      </trkpt>
      <trkpt lat="47.73425200022757053375244140625" lon="8.8382959552109241485595703125">
        <ele>409.79998779296875</ele>
        <time>2018-08-16T07:27:56.000Z</time>
      </trkpt>
      <trkpt lat="47.73428804241120815277099609375" lon="8.83859812282025814056396484375">
        <ele>409.79998779296875</ele>
        <time>2018-08-16T07:27:59.000Z</time>
      </trkpt>
      <trkpt lat="47.73438376374542713165283203125" lon="8.839233554899692535400390625">
        <ele>410</ele>
        <time>2018-08-16T07:28:06.000Z</time>
      </trkpt>
      <trkpt lat="47.73441242985427379608154296875" lon="8.83937981911003589630126953125">
        <ele>410.399993896484375</ele>
        <time>2018-08-16T07:28:08.000Z</time>
      </trkpt>
      <trkpt lat="47.73445098660886287689208984375" lon="8.83956187404692173004150390625">
        <ele>410.600006103515625</ele>
        <time>2018-08-16T07:28:11.000Z</time>
      </trkpt>
      <trkpt lat="47.73446179926395416259765625" lon="8.83960269391536712646484375">
        <ele>410.79998779296875</ele>
        <time>2018-08-16T07:28:12.000Z</time>
      </trkpt>
      <trkpt lat="47.73447998799383640289306640625" lon="8.8396601937711238861083984375">
        <ele>411.20001220703125</ele>
        <time>2018-08-16T07:28:14.000Z</time>
      </trkpt>
      <trkpt lat="47.7345402538776397705078125" lon="8.83979975245893001556396484375">
        <ele>411.600006103515625</ele>
        <time>2018-08-16T07:28:18.000Z</time>
      </trkpt>
      <trkpt lat="47.73459632880985736846923828125" lon="8.83990150876343250274658203125">
        <ele>411.600006103515625</ele>
        <time>2018-08-16T07:28:20.000Z</time>
      </trkpt>
      <trkpt lat="47.7346292696893215179443359375" lon="8.83996018208563327789306640625">
        <ele>411.600006103515625</ele>
        <time>2018-08-16T07:28:21.000Z</time>
      </trkpt>
      <trkpt lat="47.73466170765459537506103515625" lon="8.8400236330926418304443359375">
        <ele>411.600006103515625</ele>
        <time>2018-08-16T07:28:22.000Z</time>
      </trkpt>
      <trkpt lat="47.73469657637178897857666015625" lon="8.84009647183120250701904296875">
        <ele>411.600006103515625</ele>
        <time>2018-08-16T07:28:23.000Z</time>
      </trkpt>
      <trkpt lat="47.73477159440517425537109375" lon="8.84025203995406627655029296875">
        <ele>411.79998779296875</ele>
        <time>2018-08-16T07:28:25.000Z</time>
      </trkpt>
      <trkpt lat="47.7348173595964908599853515625" lon="8.84032077156007289886474609375">
        <ele>411.79998779296875</ele>
        <time>2018-08-16T07:28:26.000Z</time>
      </trkpt>
      <trkpt lat="47.7349860034883022308349609375" lon="8.840444572269916534423828125">
        <ele>411.79998779296875</ele>
        <time>2018-08-16T07:28:29.000Z</time>
      </trkpt>
      <trkpt lat="47.73504828102886676788330078125" lon="8.84044096805155277252197265625">
        <ele>411.79998779296875</ele>
        <time>2018-08-16T07:28:30.000Z</time>
      </trkpt>
      <trkpt lat="47.73517233319580554962158203125" lon="8.84037843905389308929443359375">
        <ele>411.79998779296875</ele>
        <time>2018-08-16T07:28:32.000Z</time>
      </trkpt>
      <trkpt lat="47.73523486219346523284912109375" lon="8.84033367969095706939697265625">
        <ele>412</ele>
        <time>2018-08-16T07:28:33.000Z</time>
      </trkpt>
      <trkpt lat="47.73536277003586292266845703125" lon="8.84024566970765590667724609375">
        <ele>412.399993896484375</ele>
        <time>2018-08-16T07:28:35.000Z</time>
      </trkpt>
      <trkpt lat="47.73543083108961582183837890625" lon="8.8402127288281917572021484375">
        <ele>412.79998779296875</ele>
        <time>2018-08-16T07:28:36.000Z</time>
      </trkpt>
      <trkpt lat="47.735711038112640380859375" lon="8.84016503579914569854736328125">
        <ele>413.600006103515625</ele>
        <time>2018-08-16T07:28:40.000Z</time>
      </trkpt>
      <trkpt lat="47.73606332950294017791748046875" lon="8.84016084484755992889404296875">
        <ele>413.79998779296875</ele>
        <time>2018-08-16T07:28:45.000Z</time>
      </trkpt>
      <trkpt lat="47.73663732223212718963623046875" lon="8.84024047292768955230712890625">
        <ele>413.79998779296875</ele>
        <time>2018-08-16T07:28:53.000Z</time>
      </trkpt>
      <trkpt lat="47.7372202835977077484130859375" lon="8.84042076766490936279296875">
        <ele>414.20001220703125</ele>
        <time>2018-08-16T07:29:01.000Z</time>
      </trkpt>
      <trkpt lat="47.73743142373859882354736328125" lon="8.84052394889295101165771484375">
        <ele>414.20001220703125</ele>
        <time>2018-08-16T07:29:04.000Z</time>
      </trkpt>
      <trkpt lat="47.73797021247446537017822265625" lon="8.84071807377040386199951171875">
        <ele>414.399993896484375</ele>
        <time>2018-08-16T07:29:12.000Z</time>
      </trkpt>
      <trkpt lat="47.738168947398662567138671875" lon="8.84078529663383960723876953125">
        <ele>414.20001220703125</ele>
        <time>2018-08-16T07:29:15.000Z</time>
      </trkpt>
      <trkpt lat="47.73837455548346042633056640625" lon="8.8408551178872585296630859375">
        <ele>414.600006103515625</ele>
        <time>2018-08-16T07:29:18.000Z</time>
      </trkpt>
      <trkpt lat="47.73879365064203739166259765625" lon="8.840997107326984405517578125">
        <ele>414.79998779296875</ele>
        <time>2018-08-16T07:29:24.000Z</time>
      </trkpt>
      <trkpt lat="47.7393573336303234100341796875" lon="8.8411944173276424407958984375">
        <ele>414.79998779296875</ele>
        <time>2018-08-16T07:29:32.000Z</time>
      </trkpt>
      <trkpt lat="47.73982915095984935760498046875" lon="8.8413722813129425048828125">
        <ele>415</ele>
        <time>2018-08-16T07:29:39.000Z</time>
      </trkpt>
      <trkpt lat="47.74036324582993984222412109375" lon="8.84156280197203159332275390625">
        <ele>415.399993896484375</ele>
        <time>2018-08-16T07:29:47.000Z</time>
      </trkpt>
      <trkpt lat="47.74087764322757720947265625" lon="8.84183923713862895965576171875">
        <ele>415.79998779296875</ele>
        <time>2018-08-16T07:29:55.000Z</time>
      </trkpt>
      <trkpt lat="47.74107637815177440643310546875" lon="8.8419554941356182098388671875">
        <ele>415.79998779296875</ele>
        <time>2018-08-16T07:29:58.000Z</time>
      </trkpt>
      <trkpt lat="47.74128793738782405853271484375" lon="8.8420084677636623382568359375">
        <ele>415.79998779296875</ele>
        <time>2018-08-16T07:30:01.000Z</time>
      </trkpt>
      <trkpt lat="47.741416431963443756103515625" lon="8.8420812226831912994384765625">
        <ele>415.79998779296875</ele>
        <time>2018-08-16T07:30:03.000Z</time>
      </trkpt>
      <trkpt lat="47.7414786256849765777587890625" lon="8.84212438948452472686767578125">
        <ele>415.79998779296875</ele>
        <time>2018-08-16T07:30:04.000Z</time>
      </trkpt>
      <trkpt lat="47.74153537116944789886474609375" lon="8.842174597084522247314453125">
        <ele>415.79998779296875</ele>
        <time>2018-08-16T07:30:05.000Z</time>
      </trkpt>
      <trkpt lat="47.74163327179849147796630859375" lon="8.84229890070855617523193359375">
        <ele>415.79998779296875</ele>
        <time>2018-08-16T07:30:07.000Z</time>
      </trkpt>
      <trkpt lat="47.74186075665056705474853515625" lon="8.84263216517865657806396484375">
        <ele>415.79998779296875</ele>
        <time>2018-08-16T07:30:13.000Z</time>
      </trkpt>
      <trkpt lat="47.74188020266592502593994140625" lon="8.84270726703107357025146484375">
        <ele>415.79998779296875</ele>
        <time>2018-08-16T07:30:14.000Z</time>
      </trkpt>
      <trkpt lat="47.7419057674705982208251953125" lon="8.84277968667447566986083984375">
        <ele>415.79998779296875</ele>
        <time>2018-08-16T07:30:15.000Z</time>
      </trkpt>
      <trkpt lat="47.74193233810365200042724609375" lon="8.84285294450819492340087890625">
        <ele>415.79998779296875</ele>
        <time>2018-08-16T07:30:16.000Z</time>
      </trkpt>
      <trkpt lat="47.74195899255573749542236328125" lon="8.84292720817029476165771484375">
        <ele>415.79998779296875</ele>
        <time>2018-08-16T07:30:17.000Z</time>
      </trkpt>
      <trkpt lat="47.74198799394071102142333984375" lon="8.8430002145469188690185546875">
        <ele>415.79998779296875</ele>
        <time>2018-08-16T07:30:18.000Z</time>
      </trkpt>
      <trkpt lat="47.7421495132148265838623046875" lon="8.84335904382169246673583984375">
        <ele>416</ele>
        <time>2018-08-16T07:30:23.000Z</time>
      </trkpt>
      <trkpt lat="47.74218061007559299468994140625" lon="8.84343313984572887420654296875">
        <ele>416</ele>
        <time>2018-08-16T07:30:24.000Z</time>
      </trkpt>
      <trkpt lat="47.74233668111264705657958984375" lon="8.8437887839972972869873046875">
        <ele>416</ele>
        <time>2018-08-16T07:30:29.000Z</time>
      </trkpt>
      <trkpt lat="47.74239636026322841644287109375" lon="8.8439337909221649169921875">
        <ele>416.20001220703125</ele>
        <time>2018-08-16T07:30:31.000Z</time>
      </trkpt>
      <trkpt lat="47.7425940893590450286865234375" lon="8.84435498155653476715087890625">
        <ele>416.399993896484375</ele>
        <time>2018-08-16T07:30:37.000Z</time>
      </trkpt>
      <trkpt lat="47.74269140325486660003662109375" lon="8.844566456973552703857421875">
        <ele>416.399993896484375</ele>
        <time>2018-08-16T07:30:40.000Z</time>
      </trkpt>
      <trkpt lat="47.74292877875268459320068359375" lon="8.845097534358501434326171875">
        <ele>416.600006103515625</ele>
        <time>2018-08-16T07:30:47.000Z</time>
      </trkpt>
      <trkpt lat="47.7430839277803897857666015625" lon="8.84541110135614871978759765625">
        <ele>416.79998779296875</ele>
        <time>2018-08-16T07:30:51.000Z</time>
      </trkpt>
      <trkpt lat="47.743124328553676605224609375" lon="8.84549081325531005859375">
        <ele>417</ele>
        <time>2018-08-16T07:30:52.000Z</time>
      </trkpt>
      <trkpt lat="47.74352624081075191497802734375" lon="8.84612976573407649993896484375">
        <ele>417.20001220703125</ele>
        <time>2018-08-16T07:31:01.000Z</time>
      </trkpt>
      <trkpt lat="47.74397333152592182159423828125" lon="8.8467060215771198272705078125">
        <ele>417.20001220703125</ele>
        <time>2018-08-16T07:31:10.000Z</time>
      </trkpt>
      <trkpt lat="47.7444483339786529541015625" lon="8.8471807725727558135986328125">
        <ele>417.79998779296875</ele>
        <time>2018-08-16T07:31:19.000Z</time>
      </trkpt>
      <trkpt lat="47.744721584022045135498046875" lon="8.84740599431097507476806640625">
        <ele>418</ele>
        <time>2018-08-16T07:31:24.000Z</time>
      </trkpt>
      <trkpt lat="47.744943536818027496337890625" lon="8.847577571868896484375">
        <ele>418</ele>
        <time>2018-08-16T07:31:28.000Z</time>
      </trkpt>
      <trkpt lat="47.74511477909982204437255859375" lon="8.847688548266887664794921875">
        <ele>418.20001220703125</ele>
        <time>2018-08-16T07:31:31.000Z</time>
      </trkpt>
      <trkpt lat="47.74544703774154186248779296875" lon="8.847891390323638916015625">
        <ele>418.79998779296875</ele>
        <time>2018-08-16T07:31:37.000Z</time>
      </trkpt>
      <trkpt lat="47.74549833498895168304443359375" lon="8.84799658320844173431396484375">
        <ele>418.79998779296875</ele>
        <time>2018-08-16T07:31:39.000Z</time>
      </trkpt>
      <trkpt lat="47.74549238383769989013671875" lon="8.84805257432162761688232421875">
        <ele>419</ele>
        <time>2018-08-16T07:31:40.000Z</time>
      </trkpt>
      <trkpt lat="47.74546816013753414154052734375" lon="8.84810420684516429901123046875">
        <ele>419</ele>
        <time>2018-08-16T07:31:41.000Z</time>
      </trkpt>
      <trkpt lat="47.74543731473386287689208984375" lon="8.8481534086167812347412109375">
        <ele>419.20001220703125</ele>
        <time>2018-08-16T07:31:42.000Z</time>
      </trkpt>
      <trkpt lat="47.74536942131817340850830078125" lon="8.8482600264251232147216796875">
        <ele>419.399993896484375</ele>
        <time>2018-08-16T07:31:44.000Z</time>
      </trkpt>
      <trkpt lat="47.74528719484806060791015625" lon="8.84837024845182895660400390625">
        <ele>419.399993896484375</ele>
        <time>2018-08-16T07:31:46.000Z</time>
      </trkpt>
      <trkpt lat="47.745195329189300537109375" lon="8.84848088957369327545166015625">
        <ele>419.600006103515625</ele>
        <time>2018-08-16T07:31:48.000Z</time>
      </trkpt>
      <trkpt lat="47.74476089514791965484619140625" lon="8.84899503551423549652099609375">
        <ele>420</ele>
        <time>2018-08-16T07:31:57.000Z</time>
      </trkpt>
      <trkpt lat="47.74471898563206195831298828125" lon="8.84905236773192882537841796875">
        <ele>420</ele>
        <time>2018-08-16T07:31:58.000Z</time>
      </trkpt>
      <trkpt lat="47.7446550317108631134033203125" lon="8.84917088784277439117431640625">
        <ele>420</ele>
        <time>2018-08-16T07:32:00.000Z</time>
      </trkpt>
      <trkpt lat="47.74462544359266757965087890625" lon="8.8492232747375965118408203125">
        <ele>420</ele>
        <time>2018-08-16T07:32:01.000Z</time>
      </trkpt>
      <trkpt lat="47.74456970393657684326171875" lon="8.84932997636497020721435546875">
        <ele>420</ele>
        <time>2018-08-16T07:32:03.000Z</time>
      </trkpt>
      <trkpt lat="47.74462066590785980224609375" lon="8.849606327712535858154296875">
        <ele>419.79998779296875</ele>
        <time>2018-08-16T07:32:08.000Z</time>
      </trkpt>
      <trkpt lat="47.744657881557941436767578125" lon="8.849658630788326263427734375">
        <ele>419.79998779296875</ele>
        <time>2018-08-16T07:32:09.000Z</time>
      </trkpt>
      <trkpt lat="47.74470054544508457183837890625" lon="8.84971034713089466094970703125">
        <ele>419.79998779296875</ele>
        <time>2018-08-16T07:32:10.000Z</time>
      </trkpt>
      <trkpt lat="47.74479274637997150421142578125" lon="8.84981092996895313262939453125">
        <ele>419.600006103515625</ele>
        <time>2018-08-16T07:32:12.000Z</time>
      </trkpt>
      <trkpt lat="47.7448877133429050445556640625" lon="8.8499162904918193817138671875">
        <ele>419.600006103515625</ele>
        <time>2018-08-16T07:32:14.000Z</time>
      </trkpt>
      <trkpt lat="47.745038755238056182861328125" lon="8.850081749260425567626953125">
        <ele>419.600006103515625</ele>
        <time>2018-08-16T07:32:17.000Z</time>
      </trkpt>
      <trkpt lat="47.7450907230377197265625" lon="8.85013815946877002716064453125">
        <ele>419.600006103515625</ele>
        <time>2018-08-16T07:32:18.000Z</time>
      </trkpt>
      <trkpt lat="47.74540009908378124237060546875" lon="8.8504939712584018707275390625">
        <ele>419.600006103515625</ele>
        <time>2018-08-16T07:32:24.000Z</time>
      </trkpt>
      <trkpt lat="47.7454375661909580230712890625" lon="8.85096059180796146392822265625">
        <ele>419.600006103515625</ele>
        <time>2018-08-16T07:32:29.000Z</time>
      </trkpt>
      <trkpt lat="47.74542474187910556793212890625" lon="8.85106050409376621246337890625">
        <ele>419.600006103515625</ele>
        <time>2018-08-16T07:32:30.000Z</time>
      </trkpt>
      <trkpt lat="47.7454439364373683929443359375" lon="8.85136443190276622772216796875">
        <ele>419.600006103515625</ele>
        <time>2018-08-16T07:32:33.000Z</time>
      </trkpt>
      <trkpt lat="47.745705284178256988525390625" lon="8.85181101970374584197998046875">
        <ele>419.79998779296875</ele>
        <time>2018-08-16T07:32:39.000Z</time>
      </trkpt>
      <trkpt lat="47.74582053534686565399169921875" lon="8.8518999516963958740234375">
        <ele>419.79998779296875</ele>
        <time>2018-08-16T07:32:41.000Z</time>
      </trkpt>
      <trkpt lat="47.74599739350378513336181640625" lon="8.8518538512289524078369140625">
        <ele>419.79998779296875</ele>
        <time>2018-08-16T07:32:44.000Z</time>
      </trkpt>
      <trkpt lat="47.74605640210211277008056640625" lon="8.8518300466239452362060546875">
        <ele>419.79998779296875</ele>
        <time>2018-08-16T07:32:45.000Z</time>
      </trkpt>
      <trkpt lat="47.74621523916721343994140625" lon="8.85169132612645626068115234375">
        <ele>420</ele>
        <time>2018-08-16T07:32:48.000Z</time>
      </trkpt>
      <trkpt lat="47.74654439650475978851318359375" lon="8.8518498279154300689697265625">
        <ele>420.399993896484375</ele>
        <time>2018-08-16T07:32:54.000Z</time>
      </trkpt>
      <trkpt lat="47.747002802789211273193359375" lon="8.852344863116741180419921875">
        <ele>420.600006103515625</ele>
        <time>2018-08-16T07:33:03.000Z</time>
      </trkpt>
      <trkpt lat="47.747377641499042510986328125" lon="8.85274543426930904388427734375">
        <ele>420.79998779296875</ele>
        <time>2018-08-16T07:33:10.000Z</time>
      </trkpt>
      <trkpt lat="47.7478518895804882049560546875" lon="8.85325237177312374114990234375">
        <ele>421.399993896484375</ele>
        <time>2018-08-16T07:33:19.000Z</time>
      </trkpt>
      <trkpt lat="47.74801097810268402099609375" lon="8.85342805646359920501708984375">
        <ele>421.399993896484375</ele>
        <time>2018-08-16T07:33:22.000Z</time>
      </trkpt>
      <trkpt lat="47.7481197752058506011962890625" lon="8.853541798889636993408203125">
        <ele>421.399993896484375</ele>
        <time>2018-08-16T07:33:24.000Z</time>
      </trkpt>
      <trkpt lat="47.748288922011852264404296875" lon="8.8536398671567440032958984375">
        <ele>421.600006103515625</ele>
        <time>2018-08-16T07:33:27.000Z</time>
      </trkpt>
      <trkpt lat="47.7484315820038318634033203125" lon="8.85379987768828868865966796875">
        <ele>421.600006103515625</ele>
        <time>2018-08-16T07:33:30.000Z</time>
      </trkpt>
      <trkpt lat="47.74851431138813495635986328125" lon="8.8539228402078151702880859375">
        <ele>421.79998779296875</ele>
        <time>2018-08-16T07:33:32.000Z</time>
      </trkpt>
      <trkpt lat="47.748651690781116485595703125" lon="8.8541612215340137481689453125">
        <ele>422</ele>
        <time>2018-08-16T07:33:36.000Z</time>
      </trkpt>
      <trkpt lat="47.74870642460882663726806640625" lon="8.85419114492833614349365234375">
        <ele>422</ele>
        <time>2018-08-16T07:33:37.000Z</time>
      </trkpt>
      <trkpt lat="47.74876040406525135040283203125" lon="8.85423271916806697845458984375">
        <ele>422</ele>
        <time>2018-08-16T07:33:38.000Z</time>
      </trkpt>
      <trkpt lat="47.74896659888327121734619140625" lon="8.85441443882882595062255859375">
        <ele>422.20001220703125</ele>
        <time>2018-08-16T07:33:42.000Z</time>
      </trkpt>
      <trkpt lat="47.74899803102016448974609375" lon="8.85447294451296329498291015625">
        <ele>422.20001220703125</ele>
        <time>2018-08-16T07:33:43.000Z</time>
      </trkpt>
      <trkpt lat="47.74902778677642345428466796875" lon="8.85453161783516407012939453125">
        <ele>422.20001220703125</ele>
        <time>2018-08-16T07:33:44.000Z</time>
      </trkpt>
      <trkpt lat="47.749155946075916290283203125" lon="8.854661285877227783203125">
        <ele>422.399993896484375</ele>
        <time>2018-08-16T07:33:47.000Z</time>
      </trkpt>
      <trkpt lat="47.74920481257140636444091796875" lon="8.85470579378306865692138671875">
        <ele>422.399993896484375</ele>
        <time>2018-08-16T07:33:48.000Z</time>
      </trkpt>
      <trkpt lat="47.74925493635237216949462890625" lon="8.85475273244082927703857421875">
        <ele>422.399993896484375</ele>
        <time>2018-08-16T07:33:49.000Z</time>
      </trkpt>
      <trkpt lat="47.749352417886257171630859375" lon="8.85485708713531494140625">
        <ele>422.399993896484375</ele>
        <time>2018-08-16T07:33:51.000Z</time>
      </trkpt>
      <trkpt lat="47.749551236629486083984375" lon="8.85506805963814258575439453125">
        <ele>422.600006103515625</ele>
        <time>2018-08-16T07:33:55.000Z</time>
      </trkpt>
      <trkpt lat="47.74960127659142017364501953125" lon="8.85511784814298152923583984375">
        <ele>422.600006103515625</ele>
        <time>2018-08-16T07:33:56.000Z</time>
      </trkpt>
      <trkpt lat="47.74990403093397617340087890625" lon="8.85542747564613819122314453125">
        <ele>422.600006103515625</ele>
        <time>2018-08-16T07:34:02.000Z</time>
      </trkpt>
      <trkpt lat="47.75034718215465545654296875" lon="8.8558991253376007080078125">
        <ele>422.79998779296875</ele>
        <time>2018-08-16T07:34:11.000Z</time>
      </trkpt>
      <trkpt lat="47.75066711939871311187744140625" lon="8.8562570326030254364013671875">
        <ele>423</ele>
        <time>2018-08-16T07:34:18.000Z</time>
      </trkpt>
      <trkpt lat="47.750732414424419403076171875" lon="8.856346718966960906982421875">
        <ele>423</ele>
        <time>2018-08-16T07:34:20.000Z</time>
      </trkpt>
      <trkpt lat="47.75075764395296573638916015625" lon="8.85638133622705936431884765625">
        <ele>423</ele>
        <time>2018-08-16T07:34:21.000Z</time>
      </trkpt>
      <trkpt lat="47.7507882378995418548583984375" lon="8.8564514927566051483154296875">
        <ele>423</ele>
        <time>2018-08-16T07:34:23.000Z</time>
      </trkpt>
      <trkpt lat="47.75082084350287914276123046875" lon="8.85662793181836605072021484375">
        <ele>423</ele>
        <time>2018-08-16T07:34:27.000Z</time>
      </trkpt>
      <trkpt lat="47.7508737333118915557861328125" lon="8.85675667785108089447021484375">
        <ele>423</ele>
        <time>2018-08-16T07:34:30.000Z</time>
      </trkpt>
      <trkpt lat="47.75093081407248973846435546875" lon="8.8568365573883056640625">
        <ele>423</ele>
        <time>2018-08-16T07:34:32.000Z</time>
      </trkpt>
      <trkpt lat="47.7510517649352550506591796875" lon="8.85688927955925464630126953125">
        <ele>422.79998779296875</ele>
        <time>2018-08-16T07:34:35.000Z</time>
      </trkpt>
      <trkpt lat="47.7510983683168888092041015625" lon="8.85687888599932193756103515625">
        <ele>422.79998779296875</ele>
        <time>2018-08-16T07:34:36.000Z</time>
      </trkpt>
      <trkpt lat="47.75114807300269603729248046875" lon="8.85687486268579959869384765625">
        <ele>423</ele>
        <time>2018-08-16T07:34:37.000Z</time>
      </trkpt>
      <trkpt lat="47.75134253315627574920654296875" lon="8.85701031424105167388916015625">
        <ele>423</ele>
        <time>2018-08-16T07:34:41.000Z</time>
      </trkpt>
      <trkpt lat="47.75138611905276775360107421875" lon="8.85706362314522266387939453125">
        <ele>423</ele>
        <time>2018-08-16T07:34:42.000Z</time>
      </trkpt>
      <trkpt lat="47.7514748834073543548583984375" lon="8.85717250406742095947265625">
        <ele>423</ele>
        <time>2018-08-16T07:34:44.000Z</time>
      </trkpt>
      <trkpt lat="47.7516495622694492340087890625" lon="8.85743913240730762481689453125">
        <ele>423.20001220703125</ele>
        <time>2018-08-16T07:34:48.000Z</time>
      </trkpt>
      <trkpt lat="47.75185634382069110870361328125" lon="8.85780726559460163116455078125">
        <ele>423.399993896484375</ele>
        <time>2018-08-16T07:34:53.000Z</time>
      </trkpt>
      <trkpt lat="47.75210713036358356475830078125" lon="8.85823541320860385894775390625">
        <ele>423.600006103515625</ele>
        <time>2018-08-16T07:34:59.000Z</time>
      </trkpt>
      <trkpt lat="47.75230309925973415374755859375" lon="8.8586269319057464599609375">
        <ele>423.600006103515625</ele>
        <time>2018-08-16T07:35:04.000Z</time>
      </trkpt>
      <trkpt lat="47.752585150301456451416015625" lon="8.8591531477868556976318359375">
        <ele>423.600006103515625</ele>
        <time>2018-08-16T07:35:11.000Z</time>
      </trkpt>
      <trkpt lat="47.7529306523501873016357421875" lon="8.8597829639911651611328125">
        <ele>424</ele>
        <time>2018-08-16T07:35:19.000Z</time>
      </trkpt>
      <trkpt lat="47.753025032579898834228515625" lon="8.85993476025760173797607421875">
        <ele>424</ele>
        <time>2018-08-16T07:35:21.000Z</time>
      </trkpt>
      <trkpt lat="47.753106169402599334716796875" lon="8.86010625399649143218994140625">
        <ele>424</ele>
        <time>2018-08-16T07:35:23.000Z</time>
      </trkpt>
      <trkpt lat="47.75313592515885829925537109375" lon="8.8602035678923130035400390625">
        <ele>424</ele>
        <time>2018-08-16T07:35:24.000Z</time>
      </trkpt>
      <trkpt lat="47.7532045729458332061767578125" lon="8.8606079109013080596923828125">
        <ele>424.20001220703125</ele>
        <time>2018-08-16T07:35:28.000Z</time>
      </trkpt>
      <trkpt lat="47.753246985375881195068359375" lon="8.861447274684906005859375">
        <ele>424.399993896484375</ele>
        <time>2018-08-16T07:35:36.000Z</time>
      </trkpt>
      <trkpt lat="47.75324187241494655609130859375" lon="8.862284123897552490234375">
        <ele>425</ele>
        <time>2018-08-16T07:35:44.000Z</time>
      </trkpt>
      <trkpt lat="47.753238938748836517333984375" lon="8.8624965213239192962646484375">
        <ele>425.20001220703125</ele>
        <time>2018-08-16T07:35:46.000Z</time>
      </trkpt>
      <trkpt lat="47.7532370947301387786865234375" lon="8.8633407466113567352294921875">
        <ele>425.600006103515625</ele>
        <time>2018-08-16T07:35:54.000Z</time>
      </trkpt>
      <trkpt lat="47.7532364241778850555419921875" lon="8.86407005600631237030029296875">
        <ele>425.79998779296875</ele>
        <time>2018-08-16T07:36:01.000Z</time>
      </trkpt>
      <trkpt lat="47.75323717854917049407958984375" lon="8.864805735647678375244140625">
        <ele>426.20001220703125</ele>
        <time>2018-08-16T07:36:08.000Z</time>
      </trkpt>
      <trkpt lat="47.7532360889017581939697265625" lon="8.86522273533046245574951171875">
        <ele>426.600006103515625</ele>
        <time>2018-08-16T07:36:12.000Z</time>
      </trkpt>
      <trkpt lat="47.75323902256786823272705078125" lon="8.86605271138250827789306640625">
        <ele>427</ele>
        <time>2018-08-16T07:36:20.000Z</time>
      </trkpt>
      <trkpt lat="47.75322653353214263916015625" lon="8.8665582239627838134765625">
        <ele>427.20001220703125</ele>
        <time>2018-08-16T07:36:25.000Z</time>
      </trkpt>
      <trkpt lat="47.75317498482763767242431640625" lon="8.867363221943378448486328125">
        <ele>427.399993896484375</ele>
        <time>2018-08-16T07:36:33.000Z</time>
      </trkpt>
      <trkpt lat="47.7531234361231327056884765625" lon="8.86773931793868541717529296875">
        <ele>427.399993896484375</ele>
        <time>2018-08-16T07:36:37.000Z</time>
      </trkpt>
      <trkpt lat="47.7531170658767223358154296875" lon="8.8678307645022869110107421875">
        <ele>427.399993896484375</ele>
        <time>2018-08-16T07:36:38.000Z</time>
      </trkpt>
      <trkpt lat="47.75311094708740711212158203125" lon="8.8680039346218109130859375">
        <ele>427.600006103515625</ele>
        <time>2018-08-16T07:36:40.000Z</time>
      </trkpt>
      <trkpt lat="47.75310608558356761932373046875" lon="8.86808549053966999053955078125">
        <ele>427.600006103515625</ele>
        <time>2018-08-16T07:36:41.000Z</time>
      </trkpt>
      <trkpt lat="47.7530966140329837799072265625" lon="8.86823904700577259063720703125">
        <ele>427.600006103515625</ele>
        <time>2018-08-16T07:36:43.000Z</time>
      </trkpt>
      <trkpt lat="47.7530818618834018707275390625" lon="8.86847591958940029144287109375">
        <ele>427.600006103515625</ele>
        <time>2018-08-16T07:36:46.000Z</time>
      </trkpt>
      <trkpt lat="47.753053195774555206298828125" lon="8.868894763290882110595703125">
        <ele>427.600006103515625</ele>
        <time>2018-08-16T07:36:51.000Z</time>
      </trkpt>
      <trkpt lat="47.753040455281734466552734375" lon="8.86906784959137439727783203125">
        <ele>427.600006103515625</ele>
        <time>2018-08-16T07:36:53.000Z</time>
      </trkpt>
      <trkpt lat="47.75303433649241924285888671875" lon="8.86915393173694610595703125">
        <ele>427.600006103515625</ele>
        <time>2018-08-16T07:36:54.000Z</time>
      </trkpt>
      <trkpt lat="47.75302880443632602691650390625" lon="8.86923976242542266845703125">
        <ele>427.600006103515625</ele>
        <time>2018-08-16T07:36:55.000Z</time>
      </trkpt>
      <trkpt lat="47.7530228532850742340087890625" lon="8.86932752095162868499755859375">
        <ele>427.600006103515625</ele>
        <time>2018-08-16T07:36:56.000Z</time>
      </trkpt>
      <trkpt lat="47.75299410335719585418701171875" lon="8.86970152147114276885986328125">
        <ele>427.600006103515625</ele>
        <time>2018-08-16T07:37:00.000Z</time>
      </trkpt>
      <trkpt lat="47.752986140549182891845703125" lon="8.86980176903307437896728515625">
        <ele>427.399993896484375</ele>
        <time>2018-08-16T07:37:01.000Z</time>
      </trkpt>
      <trkpt lat="47.75294314138591289520263671875" lon="8.8703409768640995025634765625">
        <ele>426.79998779296875</ele>
        <time>2018-08-16T07:37:06.000Z</time>
      </trkpt>
      <trkpt lat="47.752923779189586639404296875" lon="8.87057072483003139495849609375">
        <ele>426.399993896484375</ele>
        <time>2018-08-16T07:37:08.000Z</time>
      </trkpt>
      <trkpt lat="47.7529122121632099151611328125" lon="8.87068639509379863739013671875">
        <ele>426.399993896484375</ele>
        <time>2018-08-16T07:37:09.000Z</time>
      </trkpt>
      <trkpt lat="47.75289821438491344451904296875" lon="8.87091857381165027618408203125">
        <ele>426.20001220703125</ele>
        <time>2018-08-16T07:37:11.000Z</time>
      </trkpt>
      <trkpt lat="47.752872146666049957275390625" lon="8.8712743856012821197509765625">
        <ele>425.399993896484375</ele>
        <time>2018-08-16T07:37:14.000Z</time>
      </trkpt>
      <trkpt lat="47.75286083109676837921142578125" lon="8.87139550410211086273193359375">
        <ele>425.20001220703125</ele>
        <time>2018-08-16T07:37:15.000Z</time>
      </trkpt>
      <trkpt lat="47.75285060517489910125732421875" lon="8.871517963707447052001953125">
        <ele>425.20001220703125</ele>
        <time>2018-08-16T07:37:16.000Z</time>
      </trkpt>
      <trkpt lat="47.75279846973717212677001953125" lon="8.87213529087603092193603515625">
        <ele>424</ele>
        <time>2018-08-16T07:37:21.000Z</time>
      </trkpt>
      <trkpt lat="47.75277919135987758636474609375" lon="8.87238490395247936248779296875">
        <ele>423.600006103515625</ele>
        <time>2018-08-16T07:37:23.000Z</time>
      </trkpt>
      <trkpt lat="47.75276024825870990753173828125" lon="8.872633762657642364501953125">
        <ele>423</ele>
        <time>2018-08-16T07:37:25.000Z</time>
      </trkpt>
      <trkpt lat="47.75272454135119915008544921875" lon="8.87311882339417934417724609375">
        <ele>421.79998779296875</ele>
        <time>2018-08-16T07:37:29.000Z</time>
      </trkpt>
      <trkpt lat="47.7526988089084625244140625" lon="8.873475976288318634033203125">
        <ele>421.399993896484375</ele>
        <time>2018-08-16T07:37:32.000Z</time>
      </trkpt>
      <trkpt lat="47.7526748366653919219970703125" lon="8.87371242977678775787353515625">
        <ele>420.79998779296875</ele>
        <time>2018-08-16T07:37:34.000Z</time>
      </trkpt>
      <trkpt lat="47.752657234668731689453125" lon="8.87394427321851253509521484375">
        <ele>420.399993896484375</ele>
        <time>2018-08-16T07:37:36.000Z</time>
      </trkpt>
      <trkpt lat="47.7526154927909374237060546875" lon="8.87449764646589756011962890625">
        <ele>420</ele>
        <time>2018-08-16T07:37:41.000Z</time>
      </trkpt>
      <trkpt lat="47.75258707813918590545654296875" lon="8.87490458786487579345703125">
        <ele>419.600006103515625</ele>
        <time>2018-08-16T07:37:45.000Z</time>
      </trkpt>
      <trkpt lat="47.75255774147808551788330078125" lon="8.87528085149824619293212890625">
        <ele>419.399993896484375</ele>
        <time>2018-08-16T07:37:49.000Z</time>
      </trkpt>
      <trkpt lat="47.75253963656723499298095703125" lon="8.87551085092127323150634765625">
        <ele>419.20001220703125</ele>
        <time>2018-08-16T07:37:52.000Z</time>
      </trkpt>
      <trkpt lat="47.75252823717892169952392578125" lon="8.8757268525660037994384765625">
        <ele>419.20001220703125</ele>
        <time>2018-08-16T07:37:57.000Z</time>
      </trkpt>
      <trkpt lat="47.75253326632082462310791015625" lon="8.8757493160665035247802734375">
        <ele>419.20001220703125</ele>
        <time>2018-08-16T07:37:58.000Z</time>
      </trkpt>
      <trkpt lat="47.7525477670133113861083984375" lon="8.875782676041126251220703125">
        <ele>419.20001220703125</ele>
        <time>2018-08-16T07:38:00.000Z</time>
      </trkpt>
      <trkpt lat="47.75258305482566356658935546875" lon="8.875916115939617156982421875">
        <ele>419</ele>
        <time>2018-08-16T07:38:04.000Z</time>
      </trkpt>
      <trkpt lat="47.7525970526039600372314453125" lon="8.87602306902408599853515625">
        <ele>419</ele>
        <time>2018-08-16T07:38:06.000Z</time>
      </trkpt>
      <trkpt lat="47.752599902451038360595703125" lon="8.8760876096785068511962890625">
        <ele>419</ele>
        <time>2018-08-16T07:38:07.000Z</time>
      </trkpt>
      <trkpt lat="47.7525993995368480682373046875" lon="8.876156844198703765869140625">
        <ele>418.79998779296875</ele>
        <time>2018-08-16T07:38:08.000Z</time>
      </trkpt>
      <trkpt lat="47.7525970526039600372314453125" lon="8.87622557580471038818359375">
        <ele>418.79998779296875</ele>
        <time>2018-08-16T07:38:09.000Z</time>
      </trkpt>
      <trkpt lat="47.75258741341531276702880859375" lon="8.87644551694393157958984375">
        <ele>418.79998779296875</ele>
        <time>2018-08-16T07:38:13.000Z</time>
      </trkpt>
      <trkpt lat="47.7525834739208221435546875" lon="8.8765067048370838165283203125">
        <ele>418.79998779296875</ele>
        <time>2018-08-16T07:38:15.000Z</time>
      </trkpt>
      <trkpt lat="47.75257869623601436614990234375" lon="8.8765593431890010833740234375">
        <ele>418.79998779296875</ele>
        <time>2018-08-16T07:38:18.000Z</time>
      </trkpt>
      <trkpt lat="47.752579115331172943115234375" lon="8.8765744306147098541259765625">
        <ele>418.79998779296875</ele>
        <time>2018-08-16T07:38:19.000Z</time>
      </trkpt>
      <trkpt lat="47.752583138644695281982421875" lon="8.8765881769359111785888671875">
        <ele>418.79998779296875</ele>
        <time>2018-08-16T07:38:21.000Z</time>
      </trkpt>
      <trkpt lat="47.75258339010179042816162109375" lon="8.87658792547881603240966796875">
        <ele>418.600006103515625</ele>
        <time>2018-08-16T07:38:22.000Z</time>
      </trkpt>
      <trkpt lat="47.75257752276957035064697265625" lon="8.87664173729717731475830078125">
        <ele>418.600006103515625</ele>
        <time>2018-08-16T07:38:29.000Z</time>
      </trkpt>
      <trkpt lat="47.75257165543735027313232421875" lon="8.87671281583607196807861328125">
        <ele>418.600006103515625</ele>
        <time>2018-08-16T07:38:31.000Z</time>
      </trkpt>
      <trkpt lat="47.75257048197090625762939453125" lon="8.876761011779308319091796875">
        <ele>418.600006103515625</ele>
        <time>2018-08-16T07:38:32.000Z</time>
      </trkpt>
      <trkpt lat="47.7525772713124752044677734375" lon="8.8768805377185344696044921875">
        <ele>418.600006103515625</ele>
        <time>2018-08-16T07:38:34.000Z</time>
      </trkpt>
      <trkpt lat="47.75261356495320796966552734375" lon="8.87701070867478847503662109375">
        <ele>418.600006103515625</ele>
        <time>2018-08-16T07:38:36.000Z</time>
      </trkpt>
      <trkpt lat="47.75265966542065143585205078125" lon="8.87713794596493244171142578125">
        <ele>418.600006103515625</ele>
        <time>2018-08-16T07:38:38.000Z</time>
      </trkpt>
      <trkpt lat="47.75274029932916164398193359375" lon="8.87716929428279399871826171875">
        <ele>418.600006103515625</ele>
        <time>2018-08-16T07:38:40.000Z</time>
      </trkpt>
      <trkpt lat="47.7528293989598751068115234375" lon="8.8771474175155162811279296875">
        <ele>418.600006103515625</ele>
        <time>2018-08-16T07:38:42.000Z</time>
      </trkpt>
      <trkpt lat="47.75297683663666248321533203125" lon="8.87717180885374546051025390625">
        <ele>418.600006103515625</ele>
        <time>2018-08-16T07:38:45.000Z</time>
      </trkpt>
      <trkpt lat="47.75312863290309906005859375" lon="8.877210952341556549072265625">
        <ele>418.600006103515625</ele>
        <time>2018-08-16T07:38:48.000Z</time>
      </trkpt>
      <trkpt lat="47.753181271255016326904296875" lon="8.8772161491215229034423828125">
        <ele>418.79998779296875</ele>
        <time>2018-08-16T07:38:49.000Z</time>
      </trkpt>
      <trkpt lat="47.7536105923354625701904296875" lon="8.87723274528980255126953125">
        <ele>419.20001220703125</ele>
        <time>2018-08-16T07:38:57.000Z</time>
      </trkpt>
      <trkpt lat="47.75377613492310047149658203125" lon="8.87726266868412494659423828125">
        <ele>419.20001220703125</ele>
        <time>2018-08-16T07:39:00.000Z</time>
      </trkpt>
      <trkpt lat="47.75427200831472873687744140625" lon="8.87734799645841121673583984375">
        <ele>419.399993896484375</ele>
        <time>2018-08-16T07:39:09.000Z</time>
      </trkpt>
      <trkpt lat="47.75464818812906742095947265625" lon="8.8774065859615802764892578125">
        <ele>420</ele>
        <time>2018-08-16T07:39:16.000Z</time>
      </trkpt>
      <trkpt lat="47.755235843360424041748046875" lon="8.8775051571428775787353515625">
        <ele>420.399993896484375</ele>
        <time>2018-08-16T07:39:27.000Z</time>
      </trkpt>
      <trkpt lat="47.75545536540448665618896484375" lon="8.87753927148878574371337890625">
        <ele>420.600006103515625</ele>
        <time>2018-08-16T07:39:31.000Z</time>
      </trkpt>
      <trkpt lat="47.75579743087291717529296875" lon="8.87759710662066936492919921875">
        <ele>420.79998779296875</ele>
        <time>2018-08-16T07:39:37.000Z</time>
      </trkpt>
      <trkpt lat="47.75597068481147289276123046875" lon="8.8776298798620700836181640625">
        <ele>420.600006103515625</ele>
        <time>2018-08-16T07:39:40.000Z</time>
      </trkpt>
      <trkpt lat="47.75614150799810886383056640625" lon="8.87764890678226947784423828125">
        <ele>420.79998779296875</ele>
        <time>2018-08-16T07:39:43.000Z</time>
      </trkpt>
      <trkpt lat="47.75658139027655124664306640625" lon="8.8776974380016326904296875">
        <ele>421.20001220703125</ele>
        <time>2018-08-16T07:39:51.000Z</time>
      </trkpt>
      <trkpt lat="47.75714884512126445770263671875" lon="8.877789974212646484375">
        <ele>421.399993896484375</ele>
        <time>2018-08-16T07:40:01.000Z</time>
      </trkpt>
      <trkpt lat="47.75764689780771732330322265625" lon="8.8778722845017910003662109375">
        <ele>421.79998779296875</ele>
        <time>2018-08-16T07:40:10.000Z</time>
      </trkpt>
      <trkpt lat="47.75789869017899036407470703125" lon="8.87789365835487842559814453125">
        <ele>422</ele>
        <time>2018-08-16T07:40:15.000Z</time>
      </trkpt>
      <trkpt lat="47.75794923305511474609375" lon="8.87790732085704803466796875">
        <ele>422.20001220703125</ele>
        <time>2018-08-16T07:40:16.000Z</time>
      </trkpt>
      <trkpt lat="47.75799893774092197418212890625" lon="8.8779162056744098663330078125">
        <ele>422.20001220703125</ele>
        <time>2018-08-16T07:40:17.000Z</time>
      </trkpt>
      <trkpt lat="47.75819088332355022430419921875" lon="8.8779567740857601165771484375">
        <ele>422.399993896484375</ele>
        <time>2018-08-16T07:40:21.000Z</time>
      </trkpt>
      <trkpt lat="47.75828761048614978790283203125" lon="8.87797814793884754180908203125">
        <ele>423</ele>
        <time>2018-08-16T07:40:23.000Z</time>
      </trkpt>
      <trkpt lat="47.75843295268714427947998046875" lon="8.878017961978912353515625">
        <ele>423.79998779296875</ele>
        <time>2018-08-16T07:40:26.000Z</time>
      </trkpt>
      <trkpt lat="47.75848307646811008453369140625" lon="8.87803665362298488616943359375">
        <ele>424</ele>
        <time>2018-08-16T07:40:27.000Z</time>
      </trkpt>
      <trkpt lat="47.75867334567010402679443359375" lon="8.8781002722680568695068359375">
        <ele>425.20001220703125</ele>
        <time>2018-08-16T07:40:31.000Z</time>
      </trkpt>
      <trkpt lat="47.75876923464238643646240234375" lon="8.8781173713505268096923828125">
        <ele>426</ele>
        <time>2018-08-16T07:40:33.000Z</time>
      </trkpt>
      <trkpt lat="47.75886629708111286163330078125" lon="8.87814763002097606658935546875">
        <ele>426.600006103515625</ele>
        <time>2018-08-16T07:40:35.000Z</time>
      </trkpt>
      <trkpt lat="47.75908020325005054473876953125" lon="8.87818551622331142425537109375">
        <ele>427.79998779296875</ele>
        <time>2018-08-16T07:40:39.000Z</time>
      </trkpt>
      <trkpt lat="47.759259827435016632080078125" lon="8.87821904383599758148193359375">
        <ele>428.79998779296875</ele>
        <time>2018-08-16T07:40:42.000Z</time>
      </trkpt>
      <trkpt lat="47.759832479059696197509765625" lon="8.8783369772136211395263671875">
        <ele>429.20001220703125</ele>
        <time>2018-08-16T07:40:50.000Z</time>
      </trkpt>
      <trkpt lat="47.76019566692411899566650390625" lon="8.87838567607104778289794921875">
        <ele>429</ele>
        <time>2018-08-16T07:40:54.000Z</time>
      </trkpt>
      <trkpt lat="47.760379649698734283447265625" lon="8.8783986680209636688232421875">
        <ele>428.600006103515625</ele>
        <time>2018-08-16T07:40:56.000Z</time>
      </trkpt>
      <trkpt lat="47.76056011207401752471923828125" lon="8.87841400690376758575439453125">
        <ele>427.79998779296875</ele>
        <time>2018-08-16T07:40:58.000Z</time>
      </trkpt>
      <trkpt lat="47.76073311455547809600830078125" lon="8.87844116427004337310791015625">
        <ele>426.79998779296875</ele>
        <time>2018-08-16T07:41:00.000Z</time>
      </trkpt>
      <trkpt lat="47.76080804876983165740966796875" lon="8.87848391197621822357177734375">
        <ele>426.399993896484375</ele>
        <time>2018-08-16T07:41:01.000Z</time>
      </trkpt>
      <trkpt lat="47.7608696557581424713134765625" lon="8.8785575889050960540771484375">
        <ele>426</ele>
        <time>2018-08-16T07:41:02.000Z</time>
      </trkpt>
      <trkpt lat="47.76092438958585262298583984375" lon="8.87863964773714542388916015625">
        <ele>425.79998779296875</ele>
        <time>2018-08-16T07:41:03.000Z</time>
      </trkpt>
      <trkpt lat="47.76098255999386310577392578125" lon="8.87871022336184978485107421875">
        <ele>425.399993896484375</ele>
        <time>2018-08-16T07:41:04.000Z</time>
      </trkpt>
      <trkpt lat="47.76104408316314220428466796875" lon="8.87875883840024471282958984375">
        <ele>425.20001220703125</ele>
        <time>2018-08-16T07:41:05.000Z</time>
      </trkpt>
      <trkpt lat="47.76109655387699604034423828125" lon="8.8787815533578395843505859375">
        <ele>425</ele>
        <time>2018-08-16T07:41:06.000Z</time>
      </trkpt>
      <trkpt lat="47.7611281536519527435302734375" lon="8.8787875883281230926513671875">
        <ele>424.600006103515625</ele>
        <time>2018-08-16T07:41:07.000Z</time>
      </trkpt>
      <trkpt lat="47.76114684529602527618408203125" lon="8.87879102490842342376708984375">
        <ele>424.600006103515625</ele>
        <time>2018-08-16T07:41:08.000Z</time>
      </trkpt>
      <trkpt lat="47.761161513626575469970703125" lon="8.878797478973865509033203125">
        <ele>424.399993896484375</ele>
        <time>2018-08-16T07:41:09.000Z</time>
      </trkpt>
      <trkpt lat="47.76118271984159946441650390625" lon="8.8787998259067535400390625">
        <ele>424.20001220703125</ele>
        <time>2018-08-16T07:41:10.000Z</time>
      </trkpt>
      <trkpt lat="47.76121255941689014434814453125" lon="8.87879647314548492431640625">
        <ele>424</ele>
        <time>2018-08-16T07:41:11.000Z</time>
      </trkpt>
      <trkpt lat="47.7612818777561187744140625" lon="8.87878448702394962310791015625">
        <ele>423.79998779296875</ele>
        <time>2018-08-16T07:41:13.000Z</time>
      </trkpt>
      <trkpt lat="47.7613195963203907012939453125" lon="8.87876587919890880584716796875">
        <ele>423.600006103515625</ele>
        <time>2018-08-16T07:41:14.000Z</time>
      </trkpt>
      <trkpt lat="47.76146653108298778533935546875" lon="8.87845038436353206634521484375">
        <ele>423.20001220703125</ele>
        <time>2018-08-16T07:41:20.000Z</time>
      </trkpt>
      <trkpt lat="47.7614718116819858551025390625" lon="8.878348879516124725341796875">
        <ele>423.20001220703125</ele>
        <time>2018-08-16T07:41:22.000Z</time>
      </trkpt>
      <trkpt lat="47.76148966513574123382568359375" lon="8.8782501406967639923095703125">
        <ele>423.20001220703125</ele>
        <time>2018-08-16T07:41:24.000Z</time>
      </trkpt>
      <trkpt lat="47.76155604980885982513427734375" lon="8.878222815692424774169921875">
        <ele>423.20001220703125</ele>
        <time>2018-08-16T07:41:26.000Z</time>
      </trkpt>
      <trkpt lat="47.76164372451603412628173828125" lon="8.8782514818012714385986328125">
        <ele>423.20001220703125</ele>
        <time>2018-08-16T07:41:28.000Z</time>
      </trkpt>
      <trkpt lat="47.76169066317379474639892578125" lon="8.87826464138925075531005859375">
        <ele>423.20001220703125</ele>
        <time>2018-08-16T07:41:29.000Z</time>
      </trkpt>
      <trkpt lat="47.76188579387962818145751953125" lon="8.87831878848373889923095703125">
        <ele>423.20001220703125</ele>
        <time>2018-08-16T07:41:33.000Z</time>
      </trkpt>
      <trkpt lat="47.761933989822864532470703125" lon="8.8783399946987628936767578125">
        <ele>423.20001220703125</ele>
        <time>2018-08-16T07:41:34.000Z</time>
      </trkpt>
      <trkpt lat="47.76237077079713344573974609375" lon="8.87856974266469478607177734375">
        <ele>423.600006103515625</ele>
        <time>2018-08-16T07:41:43.000Z</time>
      </trkpt>
      <trkpt lat="47.76258283294737339019775390625" lon="8.87877224944531917572021484375">
        <ele>424</ele>
        <time>2018-08-16T07:41:48.000Z</time>
      </trkpt>
      <trkpt lat="47.76262071914970874786376953125" lon="8.87881918810307979583740234375">
        <ele>424</ele>
        <time>2018-08-16T07:41:49.000Z</time>
      </trkpt>
      <trkpt lat="47.7628363855183124542236328125" lon="8.87912613339722156524658203125">
        <ele>424.20001220703125</ele>
        <time>2018-08-16T07:41:55.000Z</time>
      </trkpt>
      <trkpt lat="47.76295113377273082733154296875" lon="8.8792811147868633270263671875">
        <ele>424.20001220703125</ele>
        <time>2018-08-16T07:41:58.000Z</time>
      </trkpt>
      <trkpt lat="47.76303403079509735107421875" lon="8.87937993742525577545166015625">
        <ele>424.399993896484375</ele>
        <time>2018-08-16T07:42:00.000Z</time>
      </trkpt>
      <trkpt lat="47.763235531747341156005859375" lon="8.87963407672941684722900390625">
        <ele>424.600006103515625</ele>
        <time>2018-08-16T07:42:05.000Z</time>
      </trkpt>
      <trkpt lat="47.763278447091579437255859375" lon="8.87968420051038265228271484375">
        <ele>424.600006103515625</ele>
        <time>2018-08-16T07:42:06.000Z</time>
      </trkpt>
      <trkpt lat="47.76332144625484943389892578125" lon="8.87973566539585590362548828125">
        <ele>424.600006103515625</ele>
        <time>2018-08-16T07:42:07.000Z</time>
      </trkpt>
      <trkpt lat="47.763672061264514923095703125" lon="8.88017504476010799407958984375">
        <ele>424.79998779296875</ele>
        <time>2018-08-16T07:42:15.000Z</time>
      </trkpt>
      <trkpt lat="47.76371506042778491973876953125" lon="8.88023338280618190765380859375">
        <ele>424.79998779296875</ele>
        <time>2018-08-16T07:42:16.000Z</time>
      </trkpt>
      <trkpt lat="47.7638345025479793548583984375" lon="8.8804016076028347015380859375">
        <ele>425</ele>
        <time>2018-08-16T07:42:19.000Z</time>
      </trkpt>
      <trkpt lat="47.7639619074761867523193359375" lon="8.88056782074272632598876953125">
        <ele>425</ele>
        <time>2018-08-16T07:42:22.000Z</time>
      </trkpt>
      <trkpt lat="47.7640981972217559814453125" lon="8.88073160313069820404052734375">
        <ele>425</ele>
        <time>2018-08-16T07:42:25.000Z</time>
      </trkpt>
      <trkpt lat="47.76458895765244960784912109375" lon="8.8812273927032947540283203125">
        <ele>425.399993896484375</ele>
        <time>2018-08-16T07:42:35.000Z</time>
      </trkpt>
      <trkpt lat="47.764740921556949615478515625" lon="8.8813558034598827362060546875">
        <ele>425.399993896484375</ele>
        <time>2018-08-16T07:42:38.000Z</time>
      </trkpt>
      <trkpt lat="47.7650005929172039031982421875" lon="8.88155017979443073272705078125">
        <ele>425.399993896484375</ele>
        <time>2018-08-16T07:42:43.000Z</time>
      </trkpt>
      <trkpt lat="47.76525330729782581329345703125" lon="8.88173843733966350555419921875">
        <ele>425.600006103515625</ele>
        <time>2018-08-16T07:42:48.000Z</time>
      </trkpt>
      <trkpt lat="47.7655293233692646026611328125" lon="8.88191998936235904693603515625">
        <ele>425.79998779296875</ele>
        <time>2018-08-16T07:42:53.000Z</time>
      </trkpt>
      <trkpt lat="47.76607322506606578826904296875" lon="8.88224755413830280303955078125">
        <ele>426</ele>
        <time>2018-08-16T07:43:02.000Z</time>
      </trkpt>
      <trkpt lat="47.766255028545856475830078125" lon="8.88236640952527523040771484375">
        <ele>426.20001220703125</ele>
        <time>2018-08-16T07:43:05.000Z</time>
      </trkpt>
      <trkpt lat="47.76655308902263641357421875" lon="8.88255299068987369537353515625">
        <ele>426.20001220703125</ele>
        <time>2018-08-16T07:43:10.000Z</time>
      </trkpt>
      <trkpt lat="47.76709682308137416839599609375" lon="8.882893882691860198974609375">
        <ele>426.399993896484375</ele>
        <time>2018-08-16T07:43:19.000Z</time>
      </trkpt>
      <trkpt lat="47.76762890629470348358154296875" lon="8.88321935199201107025146484375">
        <ele>426.600006103515625</ele>
        <time>2018-08-16T07:43:28.000Z</time>
      </trkpt>
      <trkpt lat="47.767753042280673980712890625" lon="8.8832943700253963470458984375">
        <ele>426.399993896484375</ele>
        <time>2018-08-16T07:43:30.000Z</time>
      </trkpt>
      <trkpt lat="47.767999470233917236328125" lon="8.8834320008754730224609375">
        <ele>426.600006103515625</ele>
        <time>2018-08-16T07:43:34.000Z</time>
      </trkpt>
      <trkpt lat="47.768127880990505218505859375" lon="8.883495368063449859619140625">
        <ele>426.600006103515625</ele>
        <time>2018-08-16T07:43:36.000Z</time>
      </trkpt>
      <trkpt lat="47.76819057762622833251953125" lon="8.88352445326745510101318359375">
        <ele>426.600006103515625</ele>
        <time>2018-08-16T07:43:37.000Z</time>
      </trkpt>
      <trkpt lat="47.76825000531971454620361328125" lon="8.88356217183172702789306640625">
        <ele>426.600006103515625</ele>
        <time>2018-08-16T07:43:38.000Z</time>
      </trkpt>
      <trkpt lat="47.768750153481960296630859375" lon="8.8838894851505756378173828125">
        <ele>426.600006103515625</ele>
        <time>2018-08-16T07:43:46.000Z</time>
      </trkpt>
      <trkpt lat="47.7692632935941219329833984375" lon="8.88418176211416721343994140625">
        <ele>426.79998779296875</ele>
        <time>2018-08-16T07:43:54.000Z</time>
      </trkpt>
      <trkpt lat="47.769441492855548858642578125" lon="8.88430975377559661865234375">
        <ele>426.600006103515625</ele>
        <time>2018-08-16T07:43:57.000Z</time>
      </trkpt>
      <trkpt lat="47.76956512592732906341552734375" lon="8.88438879512250423431396484375">
        <ele>426.600006103515625</ele>
        <time>2018-08-16T07:43:59.000Z</time>
      </trkpt>
      <trkpt lat="47.769878022372722625732421875" lon="8.8845855183899402618408203125">
        <ele>426.79998779296875</ele>
        <time>2018-08-16T07:44:04.000Z</time>
      </trkpt>
      <trkpt lat="47.770423181354999542236328125" lon="8.88497251085937023162841796875">
        <ele>427</ele>
        <time>2018-08-16T07:44:13.000Z</time>
      </trkpt>
      <trkpt lat="47.77090472169220447540283203125" lon="8.88537819497287273406982421875">
        <ele>427</ele>
        <time>2018-08-16T07:44:21.000Z</time>
      </trkpt>
      <trkpt lat="47.77103313244879245758056640625" lon="8.88549922965466976165771484375">
        <ele>427</ele>
        <time>2018-08-16T07:44:23.000Z</time>
      </trkpt>
      <trkpt lat="47.77130185626447200775146484375" lon="8.8857494294643402099609375">
        <ele>427.20001220703125</ele>
        <time>2018-08-16T07:44:27.000Z</time>
      </trkpt>
      <trkpt lat="47.7715069614350795745849609375" lon="8.8859423808753490447998046875">
        <ele>427.399993896484375</ele>
        <time>2018-08-16T07:44:30.000Z</time>
      </trkpt>
      <trkpt lat="47.771782390773296356201171875" lon="8.88619727455079555511474609375">
        <ele>427.600006103515625</ele>
        <time>2018-08-16T07:44:34.000Z</time>
      </trkpt>
      <trkpt lat="47.7721262164413928985595703125" lon="8.886530958116054534912109375">
        <ele>427.600006103515625</ele>
        <time>2018-08-16T07:44:39.000Z</time>
      </trkpt>
      <trkpt lat="47.772603146731853485107421875" lon="8.8870266638696193695068359375">
        <ele>427.399993896484375</ele>
        <time>2018-08-16T07:44:46.000Z</time>
      </trkpt>
      <trkpt lat="47.77308150194585323333740234375" lon="8.88757425360381603240966796875">
        <ele>427.399993896484375</ele>
        <time>2018-08-16T07:44:53.000Z</time>
      </trkpt>
      <trkpt lat="47.7735414169728755950927734375" lon="8.88816316612064838409423828125">
        <ele>427.399993896484375</ele>
        <time>2018-08-16T07:45:00.000Z</time>
      </trkpt>
      <trkpt lat="47.77396361343562602996826171875" lon="8.8887315429747104644775390625">
        <ele>427.600006103515625</ele>
        <time>2018-08-16T07:45:07.000Z</time>
      </trkpt>
      <trkpt lat="47.77429637499153614044189453125" lon="8.8891677372157573699951171875">
        <ele>427.600006103515625</ele>
        <time>2018-08-16T07:45:13.000Z</time>
      </trkpt>
      <trkpt lat="47.7745373547077178955078125" lon="8.8894815556704998016357421875">
        <ele>427.79998779296875</ele>
        <time>2018-08-16T07:45:18.000Z</time>
      </trkpt>
      <trkpt lat="47.77458236552774906158447265625" lon="8.88953897170722484588623046875">
        <ele>427.79998779296875</ele>
        <time>2018-08-16T07:45:19.000Z</time>
      </trkpt>
      <trkpt lat="47.7746280469000339508056640625" lon="8.8895901851356029510498046875">
        <ele>428</ele>
        <time>2018-08-16T07:45:20.000Z</time>
      </trkpt>
      <trkpt lat="47.7746759913861751556396484375" lon="8.88963050208985805511474609375">
        <ele>428</ele>
        <time>2018-08-16T07:45:21.000Z</time>
      </trkpt>
      <trkpt lat="47.77478118427097797393798828125" lon="8.88964894227683544158935546875">
        <ele>428</ele>
        <time>2018-08-16T07:45:23.000Z</time>
      </trkpt>
      <trkpt lat="47.77483231388032436370849609375" lon="8.889637626707553863525390625">
        <ele>428</ele>
        <time>2018-08-16T07:45:24.000Z</time>
      </trkpt>
      <trkpt lat="47.7748808450996875762939453125" lon="8.8896297477185726165771484375">
        <ele>428</ele>
        <time>2018-08-16T07:45:25.000Z</time>
      </trkpt>
      <trkpt lat="47.77502526529133319854736328125" lon="8.8898751698434352874755859375">
        <ele>428</ele>
        <time>2018-08-16T07:45:30.000Z</time>
      </trkpt>
      <trkpt lat="47.77509936131536960601806640625" lon="8.890069462358951568603515625">
        <ele>428</ele>
        <time>2018-08-16T07:45:33.000Z</time>
      </trkpt>
      <trkpt lat="47.775216288864612579345703125" lon="8.89035000465810298919677734375">
        <ele>428</ele>
        <time>2018-08-16T07:45:37.000Z</time>
      </trkpt>
      <trkpt lat="47.775455005466938018798828125" lon="8.8907261006534099578857421875">
        <ele>428</ele>
        <time>2018-08-16T07:45:43.000Z</time>
      </trkpt>
      <trkpt lat="47.77549213729798793792724609375" lon="8.89079022221267223358154296875">
        <ele>428</ele>
        <time>2018-08-16T07:45:44.000Z</time>
      </trkpt>
      <trkpt lat="47.77552817948162555694580078125" lon="8.89085627160966396331787109375">
        <ele>427.79998779296875</ele>
        <time>2018-08-16T07:45:45.000Z</time>
      </trkpt>
      <trkpt lat="47.775604538619518280029296875" lon="8.89098669402301311492919921875">
        <ele>427.79998779296875</ele>
        <time>2018-08-16T07:45:47.000Z</time>
      </trkpt>
      <trkpt lat="47.775676958262920379638671875" lon="8.891126252710819244384765625">
        <ele>427.600006103515625</ele>
        <time>2018-08-16T07:45:49.000Z</time>
      </trkpt>
      <trkpt lat="47.7757505513727664947509765625" lon="8.89127067290246486663818359375">
        <ele>427.600006103515625</ele>
        <time>2018-08-16T07:45:51.000Z</time>
      </trkpt>
      <trkpt lat="47.77581903152167797088623046875" lon="8.89142406173050403594970703125">
        <ele>427.600006103515625</ele>
        <time>2018-08-16T07:45:53.000Z</time>
      </trkpt>
      <trkpt lat="47.775982730090618133544921875" lon="8.891826309263706207275390625">
        <ele>427.399993896484375</ele>
        <time>2018-08-16T07:45:58.000Z</time>
      </trkpt>
      <trkpt lat="47.77601516805589199066162109375" lon="8.891910798847675323486328125">
        <ele>427.399993896484375</ele>
        <time>2018-08-16T07:45:59.000Z</time>
      </trkpt>
      <trkpt lat="47.77610334567725658416748046875" lon="8.89217960648238658905029296875">
        <ele>427.399993896484375</ele>
        <time>2018-08-16T07:46:02.000Z</time>
      </trkpt>
      <trkpt lat="47.77629596181213855743408203125" lon="8.89295325614511966705322265625">
        <ele>427.399993896484375</ele>
        <time>2018-08-16T07:46:10.000Z</time>
      </trkpt>
      <trkpt lat="47.77634717524051666259765625" lon="8.8932581059634685516357421875">
        <ele>427.399993896484375</ele>
        <time>2018-08-16T07:46:13.000Z</time>
      </trkpt>
      <trkpt lat="47.77644314803183078765869140625" lon="8.89397668652236461639404296875">
        <ele>427.600006103515625</ele>
        <time>2018-08-16T07:46:20.000Z</time>
      </trkpt>
      <trkpt lat="47.77642185799777507781982421875" lon="8.89460750855505466461181640625">
        <ele>427.600006103515625</ele>
        <time>2018-08-16T07:46:26.000Z</time>
      </trkpt>
      <trkpt lat="47.77640677057206630706787109375" lon="8.89493004418909549713134765625">
        <ele>427.600006103515625</ele>
        <time>2018-08-16T07:46:29.000Z</time>
      </trkpt>
      <trkpt lat="47.7764050103724002838134765625" lon="8.89526062645018100738525390625">
        <ele>427.600006103515625</ele>
        <time>2018-08-16T07:46:32.000Z</time>
      </trkpt>
      <trkpt lat="47.7763976342976093292236328125" lon="8.89558701775968074798583984375">
        <ele>427.600006103515625</ele>
        <time>2018-08-16T07:46:35.000Z</time>
      </trkpt>
      <trkpt lat="47.77638581581413745880126953125" lon="8.8962202705442905426025390625">
        <ele>427.600006103515625</ele>
        <time>2018-08-16T07:46:41.000Z</time>
      </trkpt>
      <trkpt lat="47.7763627655804157257080078125" lon="8.896832652390003204345703125">
        <ele>427.600006103515625</ele>
        <time>2018-08-16T07:46:47.000Z</time>
      </trkpt>
      <trkpt lat="47.7763305790722370147705078125" lon="8.89764745719730854034423828125">
        <ele>428</ele>
        <time>2018-08-16T07:46:55.000Z</time>
      </trkpt>
      <trkpt lat="47.77631037868559360504150390625" lon="8.89804459176957607269287109375">
        <ele>428.20001220703125</ele>
        <time>2018-08-16T07:46:59.000Z</time>
      </trkpt>
      <trkpt lat="47.77629210613667964935302734375" lon="8.89844105578958988189697265625">
        <ele>428.399993896484375</ele>
        <time>2018-08-16T07:47:03.000Z</time>
      </trkpt>
      <trkpt lat="47.77625195682048797607421875" lon="8.8992478139698505401611328125">
        <ele>428.79998779296875</ele>
        <time>2018-08-16T07:47:11.000Z</time>
      </trkpt>
      <trkpt lat="47.77621666900813579559326171875" lon="8.9000585116446018218994140625">
        <ele>429</ele>
        <time>2018-08-16T07:47:19.000Z</time>
      </trkpt>
      <trkpt lat="47.77620610781013965606689453125" lon="8.90025607310235500335693359375">
        <ele>429</ele>
        <time>2018-08-16T07:47:21.000Z</time>
      </trkpt>
      <trkpt lat="47.77617895044386386871337890625" lon="8.900645412504673004150390625">
        <ele>429</ele>
        <time>2018-08-16T07:47:25.000Z</time>
      </trkpt>
      <trkpt lat="47.77616319246590137481689453125" lon="8.90134454704821109771728515625">
        <ele>429</ele>
        <time>2018-08-16T07:47:32.000Z</time>
      </trkpt>
      <trkpt lat="47.7761735022068023681640625" lon="8.9016468822956085205078125">
        <ele>429</ele>
        <time>2018-08-16T07:47:35.000Z</time>
      </trkpt>
      <trkpt lat="47.77617392130196094512939453125" lon="8.9022637903690338134765625">
        <ele>429</ele>
        <time>2018-08-16T07:47:41.000Z</time>
      </trkpt>
      <trkpt lat="47.77619118802249431610107421875" lon="8.902561180293560028076171875">
        <ele>428.79998779296875</ele>
        <time>2018-08-16T07:47:44.000Z</time>
      </trkpt>
      <trkpt lat="47.776218764483928680419921875" lon="8.90292973257601261138916015625">
        <ele>428.600006103515625</ele>
        <time>2018-08-16T07:47:48.000Z</time>
      </trkpt>
      <trkpt lat="47.77624391019344329833984375" lon="8.90301011502742767333984375">
        <ele>428.600006103515625</ele>
        <time>2018-08-16T07:47:49.000Z</time>
      </trkpt>
      <trkpt lat="47.7764469198882579803466796875" lon="8.903607241809368133544921875">
        <ele>428.399993896484375</ele>
        <time>2018-08-16T07:47:55.000Z</time>
      </trkpt>
      <trkpt lat="47.77653970755636692047119140625" lon="8.9039386622607707977294921875">
        <ele>428.399993896484375</ele>
        <time>2018-08-16T07:47:58.000Z</time>
      </trkpt>
      <trkpt lat="47.7766702137887477874755859375" lon="8.90435851179063320159912109375">
        <ele>427.600006103515625</ele>
        <time>2018-08-16T07:48:02.000Z</time>
      </trkpt>
      <trkpt lat="47.77681899257004261016845703125" lon="8.9047421514987945556640625">
        <ele>427.20001220703125</ele>
        <time>2018-08-16T07:48:06.000Z</time>
      </trkpt>
      <trkpt lat="47.77697690762579441070556640625" lon="8.9051122963428497314453125">
        <ele>427</ele>
        <time>2018-08-16T07:48:10.000Z</time>
      </trkpt>
      <trkpt lat="47.77706240303814411163330078125" lon="8.90528471209108829498291015625">
        <ele>427</ele>
        <time>2018-08-16T07:48:12.000Z</time>
      </trkpt>
      <trkpt lat="47.77720120735466480255126953125" lon="8.90552594326436519622802734375">
        <ele>427</ele>
        <time>2018-08-16T07:48:15.000Z</time>
      </trkpt>
      <trkpt lat="47.77762767858803272247314453125" lon="8.9061343856155872344970703125">
        <ele>427.600006103515625</ele>
        <time>2018-08-16T07:48:23.000Z</time>
      </trkpt>
      <trkpt lat="47.77780503965914249420166015625" lon="8.9063499681651592254638671875">
        <ele>427.79998779296875</ele>
        <time>2018-08-16T07:48:26.000Z</time>
      </trkpt>
      <trkpt lat="47.77828331105411052703857421875" lon="8.906916417181491851806640625">
        <ele>427.79998779296875</ele>
        <time>2018-08-16T07:48:34.000Z</time>
      </trkpt>
      <trkpt lat="47.778458409011363983154296875" lon="8.907127641141414642333984375">
        <ele>427.600006103515625</ele>
        <time>2018-08-16T07:48:37.000Z</time>
      </trkpt>
      <trkpt lat="47.77863048948347568511962890625" lon="8.9073370210826396942138671875">
        <ele>427.399993896484375</ele>
        <time>2018-08-16T07:48:40.000Z</time>
      </trkpt>
      <trkpt lat="47.77868715114891529083251953125" lon="8.90740734525024890899658203125">
        <ele>427.399993896484375</ele>
        <time>2018-08-16T07:48:41.000Z</time>
      </trkpt>
      <trkpt lat="47.7788029052317142486572265625" lon="8.907540701329708099365234375">
        <ele>427.399993896484375</ele>
        <time>2018-08-16T07:48:43.000Z</time>
      </trkpt>
      <trkpt lat="47.77897012419998645782470703125" lon="8.9077440463006496429443359375">
        <ele>427.399993896484375</ele>
        <time>2018-08-16T07:48:46.000Z</time>
      </trkpt>
      <trkpt lat="47.77919392101466655731201171875" lon="8.90801352448761463165283203125">
        <ele>427.600006103515625</ele>
        <time>2018-08-16T07:48:50.000Z</time>
      </trkpt>
      <trkpt lat="47.77936390601098537445068359375" lon="8.90821552835404872894287109375">
        <ele>428</ele>
        <time>2018-08-16T07:48:53.000Z</time>
      </trkpt>
      <trkpt lat="47.77964754961431026458740234375" lon="8.90855155885219573974609375">
        <ele>428.20001220703125</ele>
        <time>2018-08-16T07:48:58.000Z</time>
      </trkpt>
      <trkpt lat="47.7801295928657054901123046875" lon="8.90911188907921314239501953125">
        <ele>428</ele>
        <time>2018-08-16T07:49:06.000Z</time>
      </trkpt>
      <trkpt lat="47.7802539803087711334228515625" lon="8.9092504419386386871337890625">
        <ele>427.79998779296875</ele>
        <time>2018-08-16T07:49:08.000Z</time>
      </trkpt>
      <trkpt lat="47.78061783872544765472412109375" lon="8.9096681959927082061767578125">
        <ele>427.600006103515625</ele>
        <time>2018-08-16T07:49:14.000Z</time>
      </trkpt>
      <trkpt lat="47.78079964220523834228515625" lon="8.90988017432391643524169921875">
        <ele>427.79998779296875</ele>
        <time>2018-08-16T07:49:17.000Z</time>
      </trkpt>
      <trkpt lat="47.78103969991207122802734375" lon="8.91016884706914424896240234375">
        <ele>428</ele>
        <time>2018-08-16T07:49:21.000Z</time>
      </trkpt>
      <trkpt lat="47.78133063577115535736083984375" lon="8.910519964993000030517578125">
        <ele>428</ele>
        <time>2018-08-16T07:49:26.000Z</time>
      </trkpt>
      <trkpt lat="47.78167630545794963836669921875" lon="8.91093092970550060272216796875">
        <ele>428</ele>
        <time>2018-08-16T07:49:32.000Z</time>
      </trkpt>
      <trkpt lat="47.7819058857858180999755859375" lon="8.911202251911163330078125">
        <ele>428.399993896484375</ele>
        <time>2018-08-16T07:49:36.000Z</time>
      </trkpt>
      <trkpt lat="47.78234886936843395233154296875" lon="8.91173039563000202178955078125">
        <ele>428.79998779296875</ele>
        <time>2018-08-16T07:49:44.000Z</time>
      </trkpt>
      <trkpt lat="47.782613150775432586669921875" lon="8.9120476506650447845458984375">
        <ele>429.20001220703125</ele>
        <time>2018-08-16T07:49:49.000Z</time>
      </trkpt>
      <trkpt lat="47.78282378800213336944580078125" lon="8.91230489127337932586669921875">
        <ele>429.399993896484375</ele>
        <time>2018-08-16T07:49:53.000Z</time>
      </trkpt>
      <trkpt lat="47.7832840383052825927734375" lon="8.91285960562527179718017578125">
        <ele>429.79998779296875</ele>
        <time>2018-08-16T07:50:02.000Z</time>
      </trkpt>
      <trkpt lat="47.7835416980087757110595703125" lon="8.9131550677120685577392578125">
        <ele>430</ele>
        <time>2018-08-16T07:50:07.000Z</time>
      </trkpt>
      <trkpt lat="47.7838689275085926055908203125" lon="8.9135198481380939483642578125">
        <ele>430</ele>
        <time>2018-08-16T07:50:14.000Z</time>
      </trkpt>
      <trkpt lat="47.78393841348588466644287109375" lon="8.9136135578155517578125">
        <ele>430</ele>
        <time>2018-08-16T07:50:16.000Z</time>
      </trkpt>
      <trkpt lat="47.78400027193129062652587890625" lon="8.91370818950235843658447265625">
        <ele>430.20001220703125</ele>
        <time>2018-08-16T07:50:18.000Z</time>
      </trkpt>
      <trkpt lat="47.784112505614757537841796875" lon="8.91381983645260334014892578125">
        <ele>430.600006103515625</ele>
        <time>2018-08-16T07:50:21.000Z</time>
      </trkpt>
      <trkpt lat="47.78418970294296741485595703125" lon="8.913895525038242340087890625">
        <ele>431</ele>
        <time>2018-08-16T07:50:23.000Z</time>
      </trkpt>
      <trkpt lat="47.784272767603397369384765625" lon="8.9139724709093570709228515625">
        <ele>431.79998779296875</ele>
        <time>2018-08-16T07:50:25.000Z</time>
      </trkpt>
      <trkpt lat="47.78442590497434139251708984375" lon="8.9141391031444072723388671875">
        <ele>432.79998779296875</ele>
        <time>2018-08-16T07:50:29.000Z</time>
      </trkpt>
      <trkpt lat="47.78464115224778652191162109375" lon="8.91437924467027187347412109375">
        <ele>433.79998779296875</ele>
        <time>2018-08-16T07:50:34.000Z</time>
      </trkpt>
      <trkpt lat="47.78468859381973743438720703125" lon="8.91442819498479366302490234375">
        <ele>433.79998779296875</ele>
        <time>2018-08-16T07:50:35.000Z</time>
      </trkpt>
      <trkpt lat="47.78514473699033260345458984375" lon="8.9149010181427001953125">
        <ele>434.600006103515625</ele>
        <time>2018-08-16T07:50:44.000Z</time>
      </trkpt>
      <trkpt lat="47.7852529473602771759033203125" lon="8.91500755213201045989990234375">
        <ele>434.600006103515625</ele>
        <time>2018-08-16T07:50:46.000Z</time>
      </trkpt>
      <trkpt lat="47.78576449491083621978759765625" lon="8.91546319238841533660888671875">
        <ele>434.600006103515625</ele>
        <time>2018-08-16T07:50:55.000Z</time>
      </trkpt>
      <trkpt lat="47.7860963344573974609375" lon="8.91575387679040431976318359375">
        <ele>434.79998779296875</ele>
        <time>2018-08-16T07:51:01.000Z</time>
      </trkpt>
      <trkpt lat="47.78615106828510761260986328125" lon="8.9158050902187824249267578125">
        <ele>434.79998779296875</ele>
        <time>2018-08-16T07:51:02.000Z</time>
      </trkpt>
      <trkpt lat="47.78626422397792339324951171875" lon="8.91590416431427001953125">
        <ele>434.79998779296875</ele>
        <time>2018-08-16T07:51:04.000Z</time>
      </trkpt>
      <trkpt lat="47.7864991687238216400146484375" lon="8.91609200276434421539306640625">
        <ele>435</ele>
        <time>2018-08-16T07:51:08.000Z</time>
      </trkpt>
      <trkpt lat="47.7865585125982761383056640625" lon="8.91613055951893329620361328125">
        <ele>435</ele>
        <time>2018-08-16T07:51:09.000Z</time>
      </trkpt>
      <trkpt lat="47.7866178564727306365966796875" lon="8.91616693697869777679443359375">
        <ele>435</ele>
        <time>2018-08-16T07:51:10.000Z</time>
      </trkpt>
      <trkpt lat="47.78685615397989749908447265625" lon="8.916335999965667724609375">
        <ele>435</ele>
        <time>2018-08-16T07:51:15.000Z</time>
      </trkpt>
      <trkpt lat="47.78687509708106517791748046875" lon="8.916377238929271697998046875">
        <ele>435</ele>
        <time>2018-08-16T07:51:16.000Z</time>
      </trkpt>
      <trkpt lat="47.78687744401395320892333984375" lon="8.91643448732793331146240234375">
        <ele>435</ele>
        <time>2018-08-16T07:51:17.000Z</time>
      </trkpt>
      <trkpt lat="47.7868713252246379852294921875" lon="8.9164924062788486480712890625">
        <ele>435</ele>
        <time>2018-08-16T07:51:18.000Z</time>
      </trkpt>
      <trkpt lat="47.78686034493148326873779296875" lon="8.9165438711643218994140625">
        <ele>435</ele>
        <time>2018-08-16T07:51:19.000Z</time>
      </trkpt>
      <trkpt lat="47.78682530857622623443603515625" lon="8.91668711788952350616455078125">
        <ele>434.79998779296875</ele>
        <time>2018-08-16T07:51:22.000Z</time>
      </trkpt>
      <trkpt lat="47.786812484264373779296875" lon="8.9167423546314239501953125">
        <ele>434.79998779296875</ele>
        <time>2018-08-16T07:51:23.000Z</time>
      </trkpt>
      <trkpt lat="47.786803431808948516845703125" lon="8.91680211760103702545166015625">
        <ele>434.79998779296875</ele>
        <time>2018-08-16T07:51:24.000Z</time>
      </trkpt>
      <trkpt lat="47.78680804185569286346435546875" lon="8.91686263494193553924560546875">
        <ele>434.79998779296875</ele>
        <time>2018-08-16T07:51:25.000Z</time>
      </trkpt>
      <trkpt lat="47.78686587698757648468017578125" lon="8.9169383235275745391845703125">
        <ele>434.600006103515625</ele>
        <time>2018-08-16T07:51:27.000Z</time>
      </trkpt>
      <trkpt lat="47.7869506180286407470703125" lon="8.9169574342668056488037109375">
        <ele>434.399993896484375</ele>
        <time>2018-08-16T07:51:29.000Z</time>
      </trkpt>
      <trkpt lat="47.78751279227435588836669921875" lon="8.917207382619380950927734375">
        <ele>434.399993896484375</ele>
        <time>2018-08-16T07:51:39.000Z</time>
      </trkpt>
      <trkpt lat="47.7879371680319309234619140625" lon="8.91741852276027202606201171875">
        <ele>434.20001220703125</ele>
        <time>2018-08-16T07:51:46.000Z</time>
      </trkpt>
      <trkpt lat="47.7882449515163898468017578125" lon="8.9175626076757907867431640625">
        <ele>434.20001220703125</ele>
        <time>2018-08-16T07:51:51.000Z</time>
      </trkpt>
      <trkpt lat="47.78878432698547840118408203125" lon="8.91783124767243862152099609375">
        <ele>434.79998779296875</ele>
        <time>2018-08-16T07:52:00.000Z</time>
      </trkpt>
      <trkpt lat="47.78935312293469905853271484375" lon="8.9181218482553958892822265625">
        <ele>435</ele>
        <time>2018-08-16T07:52:09.000Z</time>
      </trkpt>
      <trkpt lat="47.78986911289393901824951171875" lon="8.91838990151882171630859375">
        <ele>435.20001220703125</ele>
        <time>2018-08-16T07:52:17.000Z</time>
      </trkpt>
      <trkpt lat="47.79005971737205982208251953125" lon="8.91848738305270671844482421875">
        <ele>435.20001220703125</ele>
        <time>2018-08-16T07:52:20.000Z</time>
      </trkpt>
      <trkpt lat="47.790450565516948699951171875" lon="8.9186928234994411468505859375">
        <ele>435.20001220703125</ele>
        <time>2018-08-16T07:52:26.000Z</time>
      </trkpt>
      <trkpt lat="47.79083252884447574615478515625" lon="8.91889818012714385986328125">
        <ele>435.20001220703125</ele>
        <time>2018-08-16T07:52:32.000Z</time>
      </trkpt>
      <trkpt lat="47.79089639894664287567138671875" lon="8.9189348928630352020263671875">
        <ele>435.20001220703125</ele>
        <time>2018-08-16T07:52:33.000Z</time>
      </trkpt>
      <trkpt lat="47.7913529612123966217041015625" lon="8.9191762916743755340576171875">
        <ele>435.20001220703125</ele>
        <time>2018-08-16T07:52:40.000Z</time>
      </trkpt>
      <trkpt lat="47.79148044995963573455810546875" lon="8.919245861470699310302734375">
        <ele>435.399993896484375</ele>
        <time>2018-08-16T07:52:42.000Z</time>
      </trkpt>
      <trkpt lat="47.79173576273024082183837890625" lon="8.9193858392536640167236328125">
        <ele>435.600006103515625</ele>
        <time>2018-08-16T07:52:46.000Z</time>
      </trkpt>
      <trkpt lat="47.79179845936596393585205078125" lon="8.91942263580858707427978515625">
        <ele>435.600006103515625</ele>
        <time>2018-08-16T07:52:47.000Z</time>
      </trkpt>
      <trkpt lat="47.79205528087913990020751953125" lon="8.9195678941905498504638671875">
        <ele>435.600006103515625</ele>
        <time>2018-08-16T07:52:51.000Z</time>
      </trkpt>
      <trkpt lat="47.79225812293589115142822265625" lon="8.919688761234283447265625">
        <ele>435.399993896484375</ele>
        <time>2018-08-16T07:52:54.000Z</time>
      </trkpt>
      <trkpt lat="47.7923279441893100738525390625" lon="8.91972840763628482818603515625">
        <ele>435.399993896484375</ele>
        <time>2018-08-16T07:52:55.000Z</time>
      </trkpt>
      <trkpt lat="47.79246591031551361083984375" lon="8.91980954445898532867431640625">
        <ele>435.399993896484375</ele>
        <time>2018-08-16T07:52:57.000Z</time>
      </trkpt>
      <trkpt lat="47.79260136187076568603515625" lon="8.91988967545330524444580078125">
        <ele>435.399993896484375</ele>
        <time>2018-08-16T07:52:59.000Z</time>
      </trkpt>
      <trkpt lat="47.79266665689647197723388671875" lon="8.91993108205497264862060546875">
        <ele>435.399993896484375</ele>
        <time>2018-08-16T07:53:00.000Z</time>
      </trkpt>
      <trkpt lat="47.79279490001499652862548828125" lon="8.920015990734100341796875">
        <ele>435.399993896484375</ele>
        <time>2018-08-16T07:53:02.000Z</time>
      </trkpt>
      <trkpt lat="47.79298667795956134796142578125" lon="8.9201432280242443084716796875">
        <ele>435.399993896484375</ele>
        <time>2018-08-16T07:53:05.000Z</time>
      </trkpt>
      <trkpt lat="47.793049626052379608154296875" lon="8.92018538899719715118408203125">
        <ele>435.399993896484375</ele>
        <time>2018-08-16T07:53:06.000Z</time>
      </trkpt>
      <trkpt lat="47.7931129932403564453125" lon="8.920224197208881378173828125">
        <ele>435.399993896484375</ele>
        <time>2018-08-16T07:53:07.000Z</time>
      </trkpt>
      <trkpt lat="47.7934041805565357208251953125" lon="8.92035570926964282989501953125">
        <ele>435.399993896484375</ele>
        <time>2018-08-16T07:53:12.000Z</time>
      </trkpt>
      <trkpt lat="47.7934521250426769256591796875" lon="8.92037699930369853973388671875">
        <ele>435.399993896484375</ele>
        <time>2018-08-16T07:53:13.000Z</time>
      </trkpt>
      <trkpt lat="47.7935768477618694305419921875" lon="8.92048713751137256622314453125">
        <ele>435.600006103515625</ele>
        <time>2018-08-16T07:53:16.000Z</time>
      </trkpt>
      <trkpt lat="47.7936164103448390960693359375" lon="8.92052418552339076995849609375">
        <ele>435.600006103515625</ele>
        <time>2018-08-16T07:53:17.000Z</time>
      </trkpt>
      <trkpt lat="47.79365957714617252349853515625" lon="8.92055201344192028045654296875">
        <ele>435.600006103515625</ele>
        <time>2018-08-16T07:53:18.000Z</time>
      </trkpt>
      <trkpt lat="47.7937072701752185821533203125" lon="8.92056827433407306671142578125">
        <ele>436</ele>
        <time>2018-08-16T07:53:19.000Z</time>
      </trkpt>
      <trkpt lat="47.79375764541327953338623046875" lon="8.9205774106085300445556640625">
        <ele>436.399993896484375</ele>
        <time>2018-08-16T07:53:20.000Z</time>
      </trkpt>
      <trkpt lat="47.79380843974649906158447265625" lon="8.92057866789400577545166015625">
        <ele>436.600006103515625</ele>
        <time>2018-08-16T07:53:21.000Z</time>
      </trkpt>
      <trkpt lat="47.79390717856585979461669921875" lon="8.92058637924492359161376953125">
        <ele>437</ele>
        <time>2018-08-16T07:53:23.000Z</time>
      </trkpt>
      <trkpt lat="47.79399552382528781890869140625" lon="8.92061471007764339447021484375">
        <ele>437.600006103515625</ele>
        <time>2018-08-16T07:53:25.000Z</time>
      </trkpt>
      <trkpt lat="47.794274054467678070068359375" lon="8.92073105089366436004638671875">
        <ele>438.600006103515625</ele>
        <time>2018-08-16T07:53:31.000Z</time>
      </trkpt>
      <trkpt lat="47.79432199895381927490234375" lon="8.92074546776711940765380859375">
        <ele>438.79998779296875</ele>
        <time>2018-08-16T07:53:32.000Z</time>
      </trkpt>
      <trkpt lat="47.79437220655381679534912109375" lon="8.9207589626312255859375">
        <ele>439.600006103515625</ele>
        <time>2018-08-16T07:53:33.000Z</time>
      </trkpt>
      <trkpt lat="47.79462902806699275970458984375" lon="8.92082509584724903106689453125">
        <ele>440.79998779296875</ele>
        <time>2018-08-16T07:53:38.000Z</time>
      </trkpt>
      <trkpt lat="47.7948510646820068359375" lon="8.9208781532943248748779296875">
        <ele>441.600006103515625</ele>
        <time>2018-08-16T07:53:42.000Z</time>
      </trkpt>
      <trkpt lat="47.79496715404093265533447265625" lon="8.92090003006160259246826171875">
        <ele>441.79998779296875</ele>
        <time>2018-08-16T07:53:44.000Z</time>
      </trkpt>
      <trkpt lat="47.79534618370234966278076171875" lon="8.92096524126827716827392578125">
        <ele>442.399993896484375</ele>
        <time>2018-08-16T07:53:50.000Z</time>
      </trkpt>
      <trkpt lat="47.7959093637764453887939453125" lon="8.921146206557750701904296875">
        <ele>442.20001220703125</ele>
        <time>2018-08-16T07:53:58.000Z</time>
      </trkpt>
      <trkpt lat="47.796052359044551849365234375" lon="8.9212010242044925689697265625">
        <ele>441.600006103515625</ele>
        <time>2018-08-16T07:54:00.000Z</time>
      </trkpt>
      <trkpt lat="47.7961980365216732025146484375" lon="8.921249806880950927734375">
        <ele>441.399993896484375</ele>
        <time>2018-08-16T07:54:02.000Z</time>
      </trkpt>
      <trkpt lat="47.7967763878405094146728515625" lon="8.9213830791413784027099609375">
        <ele>440.79998779296875</ele>
        <time>2018-08-16T07:54:10.000Z</time>
      </trkpt>
      <trkpt lat="47.796916030347347259521484375" lon="8.9214152656495571136474609375">
        <ele>440.79998779296875</ele>
        <time>2018-08-16T07:54:12.000Z</time>
      </trkpt>
      <trkpt lat="47.7969832532107830047607421875" lon="8.921427838504314422607421875">
        <ele>440.79998779296875</ele>
        <time>2018-08-16T07:54:13.000Z</time>
      </trkpt>
      <trkpt lat="47.7971140109002590179443359375" lon="8.9214514754712581634521484375">
        <ele>440.79998779296875</ele>
        <time>2018-08-16T07:54:15.000Z</time>
      </trkpt>
      <trkpt lat="47.7971767075359821319580078125" lon="8.9214632101356983184814453125">
        <ele>440.79998779296875</ele>
        <time>2018-08-16T07:54:16.000Z</time>
      </trkpt>
      <trkpt lat="47.79735767282545566558837890625" lon="8.921489529311656951904296875">
        <ele>440.79998779296875</ele>
        <time>2018-08-16T07:54:19.000Z</time>
      </trkpt>
      <trkpt lat="47.797484658658504486083984375" lon="8.92193175852298736572265625">
        <ele>441</ele>
        <time>2018-08-16T07:54:25.000Z</time>
      </trkpt>
      <trkpt lat="47.79749513603746891021728515625" lon="8.9221921004354953765869140625">
        <ele>441.20001220703125</ele>
        <time>2018-08-16T07:54:28.000Z</time>
      </trkpt>
      <trkpt lat="47.79751709662377834320068359375" lon="8.92236283980309963226318359375">
        <ele>441.600006103515625</ele>
        <time>2018-08-16T07:54:30.000Z</time>
      </trkpt>
      <trkpt lat="47.79753117822110652923583984375" lon="8.92244598828256130218505859375">
        <ele>441.79998779296875</ele>
        <time>2018-08-16T07:54:31.000Z</time>
      </trkpt>
      <trkpt lat="47.79760812409222126007080078125" lon="8.9227754808962345123291015625">
        <ele>442.399993896484375</ele>
        <time>2018-08-16T07:54:35.000Z</time>
      </trkpt>
      <trkpt lat="47.7976303361356258392333984375" lon="8.92285452224314212799072265625">
        <ele>442.600006103515625</ele>
        <time>2018-08-16T07:54:36.000Z</time>
      </trkpt>
      <trkpt lat="47.797648608684539794921875" lon="8.9229394309222698211669921875">
        <ele>443</ele>
        <time>2018-08-16T07:54:37.000Z</time>
      </trkpt>
      <trkpt lat="47.7977828867733478546142578125" lon="8.92345651052892208099365234375">
        <ele>444</ele>
        <time>2018-08-16T07:54:43.000Z</time>
      </trkpt>
      <trkpt lat="47.79793820343911647796630859375" lon="8.9240411482751369476318359375">
        <ele>444.79998779296875</ele>
        <time>2018-08-16T07:54:50.000Z</time>
      </trkpt>
      <trkpt lat="47.79796033166348934173583984375" lon="8.92426821403205394744873046875">
        <ele>445</ele>
        <time>2018-08-16T07:54:53.000Z</time>
      </trkpt>
      <trkpt lat="47.79797114431858062744140625" lon="8.92433476634323596954345703125">
        <ele>445</ele>
        <time>2018-08-16T07:54:54.000Z</time>
      </trkpt>
      <trkpt lat="47.79797826893627643585205078125" lon="8.92439830116927623748779296875">
        <ele>445.20001220703125</ele>
        <time>2018-08-16T07:54:55.000Z</time>
      </trkpt>
      <trkpt lat="47.797971479594707489013671875" lon="8.9245333336293697357177734375">
        <ele>445.399993896484375</ele>
        <time>2018-08-16T07:54:57.000Z</time>
      </trkpt>
      <trkpt lat="47.79807046987116336822509765625" lon="8.924860395491123199462890625">
        <ele>446.20001220703125</ele>
        <time>2018-08-16T07:55:02.000Z</time>
      </trkpt>
      <trkpt lat="47.79808203689754009246826171875" lon="8.924928791821002960205078125">
        <ele>446.20001220703125</ele>
        <time>2018-08-16T07:55:03.000Z</time>
      </trkpt>
      <trkpt lat="47.7980980463325977325439453125" lon="8.9250664226710796356201171875">
        <ele>446.600006103515625</ele>
        <time>2018-08-16T07:55:05.000Z</time>
      </trkpt>
      <trkpt lat="47.79812662862241268157958984375" lon="8.9253480546176433563232421875">
        <ele>447.20001220703125</ele>
        <time>2018-08-16T07:55:09.000Z</time>
      </trkpt>
      <trkpt lat="47.7981610782444477081298828125" lon="8.925574533641338348388671875">
        <ele>447.79998779296875</ele>
        <time>2018-08-16T07:55:12.000Z</time>
      </trkpt>
      <trkpt lat="47.798173986375331878662109375" lon="8.9256498031318187713623046875">
        <ele>448.399993896484375</ele>
        <time>2018-08-16T07:55:13.000Z</time>
      </trkpt>
      <trkpt lat="47.79818429611623287200927734375" lon="8.92573135904967784881591796875">
        <ele>449</ele>
        <time>2018-08-16T07:55:14.000Z</time>
      </trkpt>
      <trkpt lat="47.79823140241205692291259765625" lon="8.9259780384600162506103515625">
        <ele>449.600006103515625</ele>
        <time>2018-08-16T07:55:17.000Z</time>
      </trkpt>
      <trkpt lat="47.7982961945235729217529296875" lon="8.9263166673481464385986328125">
        <ele>450</ele>
        <time>2018-08-16T07:55:21.000Z</time>
      </trkpt>
      <trkpt lat="47.7983929216861724853515625" lon="8.92685771919786930084228515625">
        <ele>450.399993896484375</ele>
        <time>2018-08-16T07:55:27.000Z</time>
      </trkpt>
      <trkpt lat="47.79841815121471881866455078125" lon="8.92715871334075927734375">
        <ele>450.600006103515625</ele>
        <time>2018-08-16T07:55:30.000Z</time>
      </trkpt>
      <trkpt lat="47.79845922254025936126708984375" lon="8.9275762997567653656005859375">
        <ele>450.600006103515625</ele>
        <time>2018-08-16T07:55:34.000Z</time>
      </trkpt>
      <trkpt lat="47.79849275015294551849365234375" lon="8.92800872214138507843017578125">
        <ele>450.399993896484375</ele>
        <time>2018-08-16T07:55:38.000Z</time>
      </trkpt>
      <trkpt lat="47.79850901104509830474853515625" lon="8.92822950147092342376708984375">
        <ele>450.20001220703125</ele>
        <time>2018-08-16T07:55:40.000Z</time>
      </trkpt>
      <trkpt lat="47.7985238470137119293212890625" lon="8.9284480176866054534912109375">
        <ele>450.20001220703125</ele>
        <time>2018-08-16T07:55:42.000Z</time>
      </trkpt>
      <trkpt lat="47.79854404740035533905029296875" lon="8.9288868941366672515869140625">
        <ele>449.79998779296875</ele>
        <time>2018-08-16T07:55:46.000Z</time>
      </trkpt>
      <trkpt lat="47.79857086949050426483154296875" lon="8.9291004650294780731201171875">
        <ele>449.79998779296875</ele>
        <time>2018-08-16T07:55:48.000Z</time>
      </trkpt>
      <trkpt lat="47.79867664910852909088134765625" lon="8.92947857268154621124267578125">
        <ele>449.600006103515625</ele>
        <time>2018-08-16T07:55:52.000Z</time>
      </trkpt>
      <trkpt lat="47.7988825924694538116455078125" lon="8.93008307553827762603759765625">
        <ele>449.79998779296875</ele>
        <time>2018-08-16T07:55:59.000Z</time>
      </trkpt>
      <trkpt lat="47.79891796410083770751953125" lon="8.9301609434187412261962890625">
        <ele>449.79998779296875</ele>
        <time>2018-08-16T07:56:00.000Z</time>
      </trkpt>
      <trkpt lat="47.79895660467445850372314453125" lon="8.93023696728050708770751953125">
        <ele>450</ele>
        <time>2018-08-16T07:56:01.000Z</time>
      </trkpt>
      <trkpt lat="47.79899700544774532318115234375" lon="8.930311314761638641357421875">
        <ele>450</ele>
        <time>2018-08-16T07:56:02.000Z</time>
      </trkpt>
      <trkpt lat="47.799152322113513946533203125" lon="8.93061616457998752593994140625">
        <ele>450.600006103515625</ele>
        <time>2018-08-16T07:56:06.000Z</time>
      </trkpt>
      <trkpt lat="47.7993110753595829010009765625" lon="8.930912800133228302001953125">
        <ele>451</ele>
        <time>2018-08-16T07:56:10.000Z</time>
      </trkpt>
      <trkpt lat="47.79954786412417888641357421875" lon="8.93123776651918888092041015625">
        <ele>451.600006103515625</ele>
        <time>2018-08-16T07:56:15.000Z</time>
      </trkpt>
      <trkpt lat="47.7996443398296833038330078125" lon="8.93136215396225452423095703125">
        <ele>452</ele>
        <time>2018-08-16T07:56:17.000Z</time>
      </trkpt>
      <trkpt lat="47.79969178140163421630859375" lon="8.9314269460737705230712890625">
        <ele>452.20001220703125</ele>
        <time>2018-08-16T07:56:18.000Z</time>
      </trkpt>
      <trkpt lat="47.7998854033648967742919921875" lon="8.9316817559301853179931640625">
        <ele>452.600006103515625</ele>
        <time>2018-08-16T07:56:22.000Z</time>
      </trkpt>
      <trkpt lat="47.80019880272448062896728515625" lon="8.93200789578258991241455078125">
        <ele>453.600006103515625</ele>
        <time>2018-08-16T07:56:28.000Z</time>
      </trkpt>
      <trkpt lat="47.80030022375285625457763671875" lon="8.93211652524769306182861328125">
        <ele>453.600006103515625</ele>
        <time>2018-08-16T07:56:30.000Z</time>
      </trkpt>
      <trkpt lat="47.800694592297077178955078125" lon="8.932554982602596282958984375">
        <ele>454.399993896484375</ele>
        <time>2018-08-16T07:56:38.000Z</time>
      </trkpt>
      <trkpt lat="47.8007889725267887115478515625" lon="8.9326637797057628631591796875">
        <ele>454.79998779296875</ele>
        <time>2018-08-16T07:56:40.000Z</time>
      </trkpt>
      <trkpt lat="47.801001705229282379150390625" lon="8.9329108782112598419189453125">
        <ele>455.399993896484375</ele>
        <time>2018-08-16T07:56:45.000Z</time>
      </trkpt>
      <trkpt lat="47.80110538937151432037353515625" lon="8.93308178521692752838134765625">
        <ele>455.79998779296875</ele>
        <time>2018-08-16T07:56:48.000Z</time>
      </trkpt>
      <trkpt lat="47.80131057836115360260009765625" lon="8.93336475826799869537353515625">
        <ele>456.600006103515625</ele>
        <time>2018-08-16T07:56:53.000Z</time>
      </trkpt>
      <trkpt lat="47.8013462014496326446533203125" lon="8.9334292151033878326416015625">
        <ele>456.79998779296875</ele>
        <time>2018-08-16T07:56:54.000Z</time>
      </trkpt>
      <trkpt lat="47.801383920013904571533203125" lon="8.933491073548793792724609375">
        <ele>456.79998779296875</ele>
        <time>2018-08-16T07:56:55.000Z</time>
      </trkpt>
      <trkpt lat="47.801457010209560394287109375" lon="8.93361948430538177490234375">
        <ele>457.20001220703125</ele>
        <time>2018-08-16T07:56:57.000Z</time>
      </trkpt>
      <trkpt lat="47.801532782614231109619140625" lon="8.933743871748447418212890625">
        <ele>457.399993896484375</ele>
        <time>2018-08-16T07:56:59.000Z</time>
      </trkpt>
      <trkpt lat="47.80168256722390651702880859375" lon="8.93398887477815151214599609375">
        <ele>458</ele>
        <time>2018-08-16T07:57:03.000Z</time>
      </trkpt>
      <trkpt lat="47.80196319334208965301513671875" lon="8.9343626238405704498291015625">
        <ele>459</ele>
        <time>2018-08-16T07:57:10.000Z</time>
      </trkpt>
      <trkpt lat="47.8021585755050182342529296875" lon="8.93461525440216064453125">
        <ele>460</ele>
        <time>2018-08-16T07:57:15.000Z</time>
      </trkpt>
      <trkpt lat="47.80219906009733676910400390625" lon="8.93466210924088954925537109375">
        <ele>460.20001220703125</ele>
        <time>2018-08-16T07:57:16.000Z</time>
      </trkpt>
      <trkpt lat="47.80231053940951824188232421875" lon="8.93478356301784515380859375">
        <ele>460.79998779296875</ele>
        <time>2018-08-16T07:57:19.000Z</time>
      </trkpt>
      <trkpt lat="47.8023771755397319793701171875" lon="8.93485791049897670745849609375">
        <ele>461.20001220703125</ele>
        <time>2018-08-16T07:57:21.000Z</time>
      </trkpt>
      <trkpt lat="47.8024945221841335296630859375" lon="8.93507131375372409820556640625">
        <ele>462.20001220703125</ele>
        <time>2018-08-16T07:57:26.000Z</time>
      </trkpt>
      <trkpt lat="47.8025662712752819061279296875" lon="8.93523174338042736053466796875">
        <ele>463.399993896484375</ele>
        <time>2018-08-16T07:57:30.000Z</time>
      </trkpt>
      <trkpt lat="47.80262921936810016632080078125" lon="8.93543894402682781219482421875">
        <ele>464.600006103515625</ele>
        <time>2018-08-16T07:57:35.000Z</time>
      </trkpt>
      <trkpt lat="47.80268370173871517181396484375" lon="8.93560373224318027496337890625">
        <ele>466</ele>
        <time>2018-08-16T07:57:39.000Z</time>
      </trkpt>
      <trkpt lat="47.80271555297076702117919921875" lon="8.9356826059520244598388671875">
        <ele>467</ele>
        <time>2018-08-16T07:57:41.000Z</time>
      </trkpt>
      <trkpt lat="47.80278445221483707427978515625" lon="8.935875557363033294677734375">
        <ele>468</ele>
        <time>2018-08-16T07:57:46.000Z</time>
      </trkpt>
      <trkpt lat="47.8028525970876216888427734375" lon="8.9360557682812213897705078125">
        <ele>469.20001220703125</ele>
        <time>2018-08-16T07:57:51.000Z</time>
      </trkpt>
      <trkpt lat="47.80291579663753509521484375" lon="8.936218880116939544677734375">
        <ele>470.20001220703125</ele>
        <time>2018-08-16T07:57:56.000Z</time>
      </trkpt>
      <trkpt lat="47.80294991098344326019287109375" lon="8.9364235661923885345458984375">
        <ele>471.399993896484375</ele>
        <time>2018-08-16T07:58:01.000Z</time>
      </trkpt>
      <trkpt lat="47.80295108444988727569580078125" lon="8.93650696612894535064697265625">
        <ele>472.600006103515625</ele>
        <time>2018-08-16T07:58:03.000Z</time>
      </trkpt>
      <trkpt lat="47.80293297953903675079345703125" lon="8.93663353286683559417724609375">
        <ele>473.79998779296875</ele>
        <time>2018-08-16T07:58:06.000Z</time>
      </trkpt>
      <trkpt lat="47.802861817181110382080078125" lon="8.9368735067546367645263671875">
        <ele>474.79998779296875</ele>
        <time>2018-08-16T07:58:12.000Z</time>
      </trkpt>
      <trkpt lat="47.80274136923253536224365234375" lon="8.93711934797465801239013671875">
        <ele>476</ele>
        <time>2018-08-16T07:58:19.000Z</time>
      </trkpt>
      <trkpt lat="47.8026898205280303955078125" lon="8.93723149783909320831298828125">
        <ele>477.399993896484375</ele>
        <time>2018-08-16T07:58:22.000Z</time>
      </trkpt>
      <trkpt lat="47.80262368731200695037841796875" lon="8.9373737387359142303466796875">
        <ele>478.600006103515625</ele>
        <time>2018-08-16T07:58:26.000Z</time>
      </trkpt>
      <trkpt lat="47.80250969342887401580810546875" lon="8.93760717473924160003662109375">
        <ele>479.399993896484375</ele>
        <time>2018-08-16T07:58:32.000Z</time>
      </trkpt>
      <trkpt lat="47.802452780306339263916015625" lon="8.93772468902170658111572265625">
        <ele>480.600006103515625</ele>
        <time>2018-08-16T07:58:35.000Z</time>
      </trkpt>
      <trkpt lat="47.80238111503422260284423828125" lon="8.9378779940307140350341796875">
        <ele>481.600006103515625</ele>
        <time>2018-08-16T07:58:39.000Z</time>
      </trkpt>
      <trkpt lat="47.8022953681647777557373046875" lon="8.9380603842437267303466796875">
        <ele>482.600006103515625</ele>
        <time>2018-08-16T07:58:44.000Z</time>
      </trkpt>
      <trkpt lat="47.8022257983684539794921875" lon="8.9382367394864559173583984375">
        <ele>483.79998779296875</ele>
        <time>2018-08-16T07:58:49.000Z</time>
      </trkpt>
      <trkpt lat="47.8021515347063541412353515625" lon="8.9384362287819385528564453125">
        <ele>484.79998779296875</ele>
        <time>2018-08-16T07:58:54.000Z</time>
      </trkpt>
      <trkpt lat="47.80211322940886020660400390625" lon="8.93861333839595317840576171875">
        <ele>486</ele>
        <time>2018-08-16T07:58:58.000Z</time>
      </trkpt>
      <trkpt lat="47.8021024167537689208984375" lon="8.93885440193116664886474609375">
        <ele>487</ele>
        <time>2018-08-16T07:59:03.000Z</time>
      </trkpt>
      <trkpt lat="47.802118174731731414794921875" lon="8.93904768861830234527587890625">
        <ele>488.20001220703125</ele>
        <time>2018-08-16T07:59:07.000Z</time>
      </trkpt>
      <trkpt lat="47.8021371178328990936279296875" lon="8.93928741104900836944580078125">
        <ele>489.399993896484375</ele>
        <time>2018-08-16T07:59:12.000Z</time>
      </trkpt>
      <trkpt lat="47.80215430073440074920654296875" lon="8.9395235292613506317138671875">
        <ele>490.20001220703125</ele>
        <time>2018-08-16T07:59:17.000Z</time>
      </trkpt>
      <trkpt lat="47.80217089690268039703369140625" lon="8.93971354700624942779541015625">
        <ele>491.20001220703125</ele>
        <time>2018-08-16T07:59:21.000Z</time>
      </trkpt>
      <trkpt lat="47.80218279920518398284912109375" lon="8.93995746038854122161865234375">
        <ele>492.399993896484375</ele>
        <time>2018-08-16T07:59:26.000Z</time>
      </trkpt>
      <trkpt lat="47.8022105433046817779541015625" lon="8.9401944167912006378173828125">
        <ele>493.600006103515625</ele>
        <time>2018-08-16T07:59:31.000Z</time>
      </trkpt>
      <trkpt lat="47.80223510228097438812255859375" lon="8.9403377473354339599609375">
        <ele>494.399993896484375</ele>
        <time>2018-08-16T07:59:34.000Z</time>
      </trkpt>
      <trkpt lat="47.80225597321987152099609375" lon="8.940428607165813446044921875">
        <ele>494.600006103515625</ele>
        <time>2018-08-16T07:59:36.000Z</time>
      </trkpt>
      <trkpt lat="47.802342809736728668212890625" lon="8.94069523550570011138916015625">
        <ele>496.20001220703125</ele>
        <time>2018-08-16T07:59:42.000Z</time>
      </trkpt>
      <trkpt lat="47.8024348430335521697998046875" lon="8.94089170731604099273681640625">
        <ele>497.399993896484375</ele>
        <time>2018-08-16T07:59:47.000Z</time>
      </trkpt>
      <trkpt lat="47.80253148637712001800537109375" lon="8.941069655120372772216796875">
        <ele>498.600006103515625</ele>
        <time>2018-08-16T07:59:52.000Z</time>
      </trkpt>
      <trkpt lat="47.80261337757110595703125" lon="8.9411754347383975982666015625">
        <ele>499.399993896484375</ele>
        <time>2018-08-16T07:59:56.000Z</time>
      </trkpt>
      <trkpt lat="47.80265687964856624603271484375" lon="8.941229246556758880615234375">
        <ele>499.79998779296875</ele>
        <time>2018-08-16T07:59:58.000Z</time>
      </trkpt>
      <trkpt lat="47.802819907665252685546875" lon="8.9412890933454036712646484375">
        <ele>500.79998779296875</ele>
        <time>2018-08-16T08:00:03.000Z</time>
      </trkpt>
      <trkpt lat="47.8029357455670833587646484375" lon="8.94127056933939456939697265625">
        <ele>501.399993896484375</ele>
        <time>2018-08-16T08:00:06.000Z</time>
      </trkpt>
      <trkpt lat="47.80300305224955081939697265625" lon="8.94127450883388519287109375">
        <ele>502</ele>
        <time>2018-08-16T08:00:08.000Z</time>
      </trkpt>
      <trkpt lat="47.80312190763652324676513671875" lon="8.94123695790767669677734375">
        <ele>503</ele>
        <time>2018-08-16T08:00:12.000Z</time>
      </trkpt>
      <trkpt lat="47.80325031839311122894287109375" lon="8.94110728986561298370361328125">
        <ele>504.20001220703125</ele>
        <time>2018-08-16T08:00:17.000Z</time>
      </trkpt>
      <trkpt lat="47.803299017250537872314453125" lon="8.94104995764791965484619140625">
        <ele>504.79998779296875</ele>
        <time>2018-08-16T08:00:19.000Z</time>
      </trkpt>
      <trkpt lat="47.80336883850395679473876953125" lon="8.940953649580478668212890625">
        <ele>505.600006103515625</ele>
        <time>2018-08-16T08:00:22.000Z</time>
      </trkpt>
      <trkpt lat="47.80349054373800754547119140625" lon="8.94080520607531070709228515625">
        <ele>506.600006103515625</ele>
        <time>2018-08-16T08:00:27.000Z</time>
      </trkpt>
      <trkpt lat="47.8035824932157993316650390625" lon="8.9406862668693065643310546875">
        <ele>507.79998779296875</ele>
        <time>2018-08-16T08:00:31.000Z</time>
      </trkpt>
      <trkpt lat="47.80370260588824748992919921875" lon="8.94052910618484020233154296875">
        <ele>509</ele>
        <time>2018-08-16T08:00:36.000Z</time>
      </trkpt>
      <trkpt lat="47.80380587093532085418701171875" lon="8.94042097963392734527587890625">
        <ele>510</ele>
        <time>2018-08-16T08:00:40.000Z</time>
      </trkpt>
      <trkpt lat="47.80394618399441242218017578125" lon="8.940317630767822265625">
        <ele>511</ele>
        <time>2018-08-16T08:00:45.000Z</time>
      </trkpt>
      <trkpt lat="47.80408649705350399017333984375" lon="8.940221406519412994384765625">
        <ele>512.20001220703125</ele>
        <time>2018-08-16T08:00:50.000Z</time>
      </trkpt>
      <trkpt lat="47.80421172268688678741455078125" lon="8.9401927404105663299560546875">
        <ele>513.20001220703125</ele>
        <time>2018-08-16T08:00:54.000Z</time>
      </trkpt>
      <trkpt lat="47.8042741678655147552490234375" lon="8.9402014575898647308349609375">
        <ele>514</ele>
        <time>2018-08-16T08:00:56.000Z</time>
      </trkpt>
      <trkpt lat="47.804335020482540130615234375" lon="8.9402390085160732269287109375">
        <ele>514.4000244140625</ele>
        <time>2018-08-16T08:00:58.000Z</time>
      </trkpt>
      <trkpt lat="47.80444105155766010284423828125" lon="8.940363563597202301025390625">
        <ele>515.4000244140625</ele>
        <time>2018-08-16T08:01:02.000Z</time>
      </trkpt>
      <trkpt lat="47.8045115433633327484130859375" lon="8.9405427686870098114013671875">
        <ele>516.4000244140625</ele>
        <time>2018-08-16T08:01:06.000Z</time>
      </trkpt>
      <trkpt lat="47.8045433945953845977783203125" lon="8.94075424410402774810791015625">
        <ele>517.5999755859375</ele>
        <time>2018-08-16T08:01:10.000Z</time>
      </trkpt>
      <trkpt lat="47.8045638464391231536865234375" lon="8.94085080362856388092041015625">
        <ele>518.20001220703125</ele>
        <time>2018-08-16T08:01:12.000Z</time>
      </trkpt>
      <trkpt lat="47.80458681285381317138671875" lon="8.9409437589347362518310546875">
        <ele>518.79998779296875</ele>
        <time>2018-08-16T08:01:14.000Z</time>
      </trkpt>
      <trkpt lat="47.8046451508998870849609375" lon="8.94115456379950046539306640625">
        <ele>519.79998779296875</ele>
        <time>2018-08-16T08:01:19.000Z</time>
      </trkpt>
      <trkpt lat="47.804693095386028289794921875" lon="8.9413212798535823822021484375">
        <ele>520.5999755859375</ele>
        <time>2018-08-16T08:01:23.000Z</time>
      </trkpt>
      <trkpt lat="47.80473140068352222442626953125" lon="8.94143787212669849395751953125">
        <ele>521.79998779296875</ele>
        <time>2018-08-16T08:01:26.000Z</time>
      </trkpt>
      <trkpt lat="47.80479107983410358428955078125" lon="8.9415844716131687164306640625">
        <ele>522.79998779296875</ele>
        <time>2018-08-16T08:01:30.000Z</time>
      </trkpt>
      <trkpt lat="47.8048610687255859375" lon="8.94171967171132564544677734375">
        <ele>524</ele>
        <time>2018-08-16T08:01:34.000Z</time>
      </trkpt>
      <trkpt lat="47.8049480728805065155029296875" lon="8.94184472970664501190185546875">
        <ele>525.20001220703125</ele>
        <time>2018-08-16T08:01:38.000Z</time>
      </trkpt>
      <trkpt lat="47.80500733293592929840087890625" lon="8.94191932864487171173095703125">
        <ele>526.20001220703125</ele>
        <time>2018-08-16T08:01:41.000Z</time>
      </trkpt>
      <trkpt lat="47.80507539398968219757080078125" lon="8.942034244537353515625">
        <ele>527.4000244140625</ele>
        <time>2018-08-16T08:01:45.000Z</time>
      </trkpt>
      <trkpt lat="47.805094085633754730224609375" lon="8.942063413560390472412109375">
        <ele>527.79998779296875</ele>
        <time>2018-08-16T08:01:46.000Z</time>
      </trkpt>
      <trkpt lat="47.8051388449966907501220703125" lon="8.94211647100746631622314453125">
        <ele>528.4000244140625</ele>
        <time>2018-08-16T08:01:48.000Z</time>
      </trkpt>
      <trkpt lat="47.80516080558300018310546875" lon="8.94214731641113758087158203125">
        <ele>528.5999755859375</ele>
        <time>2018-08-16T08:01:49.000Z</time>
      </trkpt>
      <trkpt lat="47.80524722300469875335693359375" lon="8.9422955922782421112060546875">
        <ele>529.5999755859375</ele>
        <time>2018-08-16T08:01:53.000Z</time>
      </trkpt>
      <trkpt lat="47.8052719496190547943115234375" lon="8.94233356229960918426513671875">
        <ele>529.79998779296875</ele>
        <time>2018-08-16T08:01:54.000Z</time>
      </trkpt>
      <trkpt lat="47.80529801733791828155517578125" lon="8.94237262196838855743408203125">
        <ele>529.79998779296875</ele>
        <time>2018-08-16T08:01:55.000Z</time>
      </trkpt>
      <trkpt lat="47.80544905923306941986083984375" lon="8.94264587201178073883056640625">
        <ele>529.79998779296875</ele>
        <time>2018-08-16T08:02:01.000Z</time>
      </trkpt>
      <trkpt lat="47.805474288761615753173828125" lon="8.94269180484116077423095703125">
        <ele>529.79998779296875</ele>
        <time>2018-08-16T08:02:02.000Z</time>
      </trkpt>
      <trkpt lat="47.8055203892290592193603515625" lon="8.9427837543189525604248046875">
        <ele>529.79998779296875</ele>
        <time>2018-08-16T08:02:04.000Z</time>
      </trkpt>
      <trkpt lat="47.8055383265018463134765625" lon="8.9428322017192840576171875">
        <ele>529.79998779296875</ele>
        <time>2018-08-16T08:02:05.000Z</time>
      </trkpt>
      <trkpt lat="47.80555643141269683837890625" lon="8.942880816757678985595703125">
        <ele>529.79998779296875</ele>
        <time>2018-08-16T08:02:06.000Z</time>
      </trkpt>
      <trkpt lat="47.80560261569917201995849609375" lon="8.94297100603580474853515625">
        <ele>529.79998779296875</ele>
        <time>2018-08-16T08:02:08.000Z</time>
      </trkpt>
      <trkpt lat="47.80569179914891719818115234375" lon="8.94311525858938694000244140625">
        <ele>529.5999755859375</ele>
        <time>2018-08-16T08:02:11.000Z</time>
      </trkpt>
      <trkpt lat="47.8057296015322208404541015625" lon="8.94316068850457668304443359375">
        <ele>529.5999755859375</ele>
        <time>2018-08-16T08:02:12.000Z</time>
      </trkpt>
      <trkpt lat="47.8057689964771270751953125" lon="8.94320611841976642608642578125">
        <ele>529.5999755859375</ele>
        <time>2018-08-16T08:02:13.000Z</time>
      </trkpt>
      <trkpt lat="47.8061674721539020538330078125" lon="8.9437419734895229339599609375">
        <ele>529.20001220703125</ele>
        <time>2018-08-16T08:02:22.000Z</time>
      </trkpt>
      <trkpt lat="47.80652940273284912109375" lon="8.9441049098968505859375">
        <ele>529</ele>
        <time>2018-08-16T08:02:30.000Z</time>
      </trkpt>
      <trkpt lat="47.8066418878734111785888671875" lon="8.94422938115894794464111328125">
        <ele>529.20001220703125</ele>
        <time>2018-08-16T08:02:33.000Z</time>
      </trkpt>
      <trkpt lat="47.80682645738124847412109375" lon="8.94442384131252765655517578125">
        <ele>530</ele>
        <time>2018-08-16T08:02:39.000Z</time>
      </trkpt>
      <trkpt lat="47.8068490885198116302490234375" lon="8.944449909031391143798828125">
        <ele>530.20001220703125</ele>
        <time>2018-08-16T08:02:40.000Z</time>
      </trkpt>
      <trkpt lat="47.806935422122478485107421875" lon="8.9445429481565952301025390625">
        <ele>531</ele>
        <time>2018-08-16T08:02:43.000Z</time>
      </trkpt>
      <trkpt lat="47.806967608630657196044921875" lon="8.94457354210317134857177734375">
        <ele>531</ele>
        <time>2018-08-16T08:02:44.000Z</time>
      </trkpt>
      <trkpt lat="47.80699870549142360687255859375" lon="8.9446026273071765899658203125">
        <ele>531.4000244140625</ele>
        <time>2018-08-16T08:02:45.000Z</time>
      </trkpt>
      <trkpt lat="47.80705050565302371978759765625" lon="8.9446623064577579498291015625">
        <ele>532</ele>
        <time>2018-08-16T08:02:47.000Z</time>
      </trkpt>
      <trkpt lat="47.80707263387739658355712890625" lon="8.94468653015792369842529296875">
        <ele>532</ele>
        <time>2018-08-16T08:02:48.000Z</time>
      </trkpt>
      <trkpt lat="47.807097695767879486083984375" lon="8.94471301697194576263427734375">
        <ele>532.20001220703125</ele>
        <time>2018-08-16T08:02:49.000Z</time>
      </trkpt>
      <trkpt lat="47.8072494082152843475341796875" lon="8.94491426646709442138671875">
        <ele>533</ele>
        <time>2018-08-16T08:02:54.000Z</time>
      </trkpt>
      <trkpt lat="47.8072872944176197052001953125" lon="8.9449647255241870880126953125">
        <ele>533.20001220703125</ele>
        <time>2018-08-16T08:02:55.000Z</time>
      </trkpt>
      <trkpt lat="47.80766774900257587432861328125" lon="8.945400752127170562744140625">
        <ele>533.79998779296875</ele>
        <time>2018-08-16T08:03:02.000Z</time>
      </trkpt>
      <trkpt lat="47.8078063018620014190673828125" lon="8.9455385506153106689453125">
        <ele>533.79998779296875</ele>
        <time>2018-08-16T08:03:04.000Z</time>
      </trkpt>
      <trkpt lat="47.8079461120069026947021484375" lon="8.9456597529351711273193359375">
        <ele>533.79998779296875</ele>
        <time>2018-08-16T08:03:06.000Z</time>
      </trkpt>
      <trkpt lat="47.8081536479294300079345703125" lon="8.94579327665269374847412109375">
        <ele>533</ele>
        <time>2018-08-16T08:03:09.000Z</time>
      </trkpt>
      <trkpt lat="47.80835640616714954376220703125" lon="8.94591246731579303741455078125">
        <ele>532</ele>
        <time>2018-08-16T08:03:12.000Z</time>
      </trkpt>
      <trkpt lat="47.8084217011928558349609375" lon="8.94595035351812839508056640625">
        <ele>531.79998779296875</ele>
        <time>2018-08-16T08:03:13.000Z</time>
      </trkpt>
      <trkpt lat="47.80848414637148380279541015625" lon="8.945985473692417144775390625">
        <ele>531.5999755859375</ele>
        <time>2018-08-16T08:03:14.000Z</time>
      </trkpt>
      <trkpt lat="47.808747589588165283203125" lon="8.94614229910075664520263671875">
        <ele>531.5999755859375</ele>
        <time>2018-08-16T08:03:19.000Z</time>
      </trkpt>
      <trkpt lat="47.8087930195033550262451171875" lon="8.946163170039653778076171875">
        <ele>531.5999755859375</ele>
        <time>2018-08-16T08:03:20.000Z</time>
      </trkpt>
      <trkpt lat="47.80883534811437129974365234375" lon="8.946175910532474517822265625">
        <ele>531.5999755859375</ele>
        <time>2018-08-16T08:03:21.000Z</time>
      </trkpt>
      <trkpt lat="47.80887323431670665740966796875" lon="8.94618353806436061859130859375">
        <ele>531.5999755859375</ele>
        <time>2018-08-16T08:03:22.000Z</time>
      </trkpt>
      <trkpt lat="47.808985300362110137939453125" lon="8.94619108177721500396728515625">
        <ele>532.20001220703125</ele>
        <time>2018-08-16T08:03:25.000Z</time>
      </trkpt>
      <trkpt lat="47.80906350351870059967041015625" lon="8.94618907012045383453369140625">
        <ele>533</ele>
        <time>2018-08-16T08:03:27.000Z</time>
      </trkpt>
      <trkpt lat="47.809216640889644622802734375" lon="8.94618705846369266510009765625">
        <ele>534</ele>
        <time>2018-08-16T08:03:31.000Z</time>
      </trkpt>
      <trkpt lat="47.80938327312469482421875" lon="8.94621589221060276031494140625">
        <ele>535.20001220703125</ele>
        <time>2018-08-16T08:03:36.000Z</time>
      </trkpt>
      <trkpt lat="47.80949600972235202789306640625" lon="8.9462344162166118621826171875">
        <ele>536.20001220703125</ele>
        <time>2018-08-16T08:03:39.000Z</time>
      </trkpt>
      <trkpt lat="47.80953682959079742431640625" lon="8.94623927772045135498046875">
        <ele>536.4000244140625</ele>
        <time>2018-08-16T08:03:40.000Z</time>
      </trkpt>
      <trkpt lat="47.8096640668809413909912109375" lon="8.946259729564189910888671875">
        <ele>537.4000244140625</ele>
        <time>2018-08-16T08:03:43.000Z</time>
      </trkpt>
      <trkpt lat="47.8097091615200042724609375" lon="8.9462619088590145111083984375">
        <ele>537.79998779296875</ele>
        <time>2018-08-16T08:03:44.000Z</time>
      </trkpt>
      <trkpt lat="47.809934131801128387451171875" lon="8.94626609981060028076171875">
        <ele>538.79998779296875</ele>
        <time>2018-08-16T08:03:49.000Z</time>
      </trkpt>
      <trkpt lat="47.80998886562883853912353515625" lon="8.94626333378255367279052734375">
        <ele>538.79998779296875</ele>
        <time>2018-08-16T08:03:50.000Z</time>
      </trkpt>
      <trkpt lat="47.81018399633467197418212890625" lon="8.94627749919891357421875">
        <ele>539</ele>
        <time>2018-08-16T08:03:54.000Z</time>
      </trkpt>
      <trkpt lat="47.8102953918278217315673828125" lon="8.94628680311143398284912109375">
        <ele>539</ele>
        <time>2018-08-16T08:03:56.000Z</time>
      </trkpt>
      <trkpt lat="47.81040544621646404266357421875" lon="8.94628579728305339813232421875">
        <ele>539.20001220703125</ele>
        <time>2018-08-16T08:03:58.000Z</time>
      </trkpt>
      <trkpt lat="47.8105160035192966461181640625" lon="8.946273811161518096923828125">
        <ele>539.20001220703125</ele>
        <time>2018-08-16T08:04:00.000Z</time>
      </trkpt>
      <trkpt lat="47.81056688167154788970947265625" lon="8.94626601599156856536865234375">
        <ele>539</ele>
        <time>2018-08-16T08:04:01.000Z</time>
      </trkpt>
      <trkpt lat="47.81071658246219158172607421875" lon="8.94625210203230381011962890625">
        <ele>539</ele>
        <time>2018-08-16T08:04:04.000Z</time>
      </trkpt>
      <trkpt lat="47.810945995151996612548828125" lon="8.94625092856585979461669921875">
        <ele>538.79998779296875</ele>
        <time>2018-08-16T08:04:08.000Z</time>
      </trkpt>
      <trkpt lat="47.811009027063846588134765625" lon="8.9462654292583465576171875">
        <ele>538.79998779296875</ele>
        <time>2018-08-16T08:04:09.000Z</time>
      </trkpt>
      <trkpt lat="47.81127414666116237640380859375" lon="8.94633256830275058746337890625">
        <ele>538.5999755859375</ele>
        <time>2018-08-16T08:04:13.000Z</time>
      </trkpt>
      <trkpt lat="47.81147740781307220458984375" lon="8.94642661325633525848388671875">
        <ele>538.4000244140625</ele>
        <time>2018-08-16T08:04:16.000Z</time>
      </trkpt>
      <trkpt lat="47.81160623766481876373291015625" lon="8.94649953581392765045166015625">
        <ele>538.4000244140625</ele>
        <time>2018-08-16T08:04:18.000Z</time>
      </trkpt>
      <trkpt lat="47.8117384202778339385986328125" lon="8.946577571332454681396484375">
        <ele>538.4000244140625</ele>
        <time>2018-08-16T08:04:20.000Z</time>
      </trkpt>
      <trkpt lat="47.81188099645078182220458984375" lon="8.94665828905999660491943359375">
        <ele>538.4000244140625</ele>
        <time>2018-08-16T08:04:22.000Z</time>
      </trkpt>
      <trkpt lat="47.81204293482005596160888671875" lon="8.94674847833812236785888671875">
        <ele>538.20001220703125</ele>
        <time>2018-08-16T08:04:24.000Z</time>
      </trkpt>
      <trkpt lat="47.8122081421315670013427734375" lon="8.94684034399688243865966796875">
        <ele>537.5999755859375</ele>
        <time>2018-08-16T08:04:26.000Z</time>
      </trkpt>
      <trkpt lat="47.812294475734233856201171875" lon="8.94688443280756473541259765625">
        <ele>537.4000244140625</ele>
        <time>2018-08-16T08:04:27.000Z</time>
      </trkpt>
      <trkpt lat="47.8124736808240413665771484375" lon="8.9469871111214160919189453125">
        <ele>536.5999755859375</ele>
        <time>2018-08-16T08:04:29.000Z</time>
      </trkpt>
      <trkpt lat="47.8125662170350551605224609375" lon="8.9470545016229152679443359375">
        <ele>536.20001220703125</ele>
        <time>2018-08-16T08:04:30.000Z</time>
      </trkpt>
      <trkpt lat="47.812783308327198028564453125" lon="8.94736052490770816802978515625">
        <ele>535</ele>
        <time>2018-08-16T08:04:33.000Z</time>
      </trkpt>
      <trkpt lat="47.8130191750824451446533203125" lon="8.94767032004892826080322265625">
        <ele>533.5999755859375</ele>
        <time>2018-08-16T08:04:36.000Z</time>
      </trkpt>
      <trkpt lat="47.81326082535088062286376953125" lon="8.94796301610767841339111328125">
        <ele>532</ele>
        <time>2018-08-16T08:04:39.000Z</time>
      </trkpt>
      <trkpt lat="47.8134352527558803558349609375" lon="8.94814792089164257049560546875">
        <ele>531</ele>
        <time>2018-08-16T08:04:41.000Z</time>
      </trkpt>
      <trkpt lat="47.81352602876722812652587890625" lon="8.9482400380074977874755859375">
        <ele>529.5999755859375</ele>
        <time>2018-08-16T08:04:42.000Z</time>
      </trkpt>
      <trkpt lat="47.81370900571346282958984375" lon="8.948442041873931884765625">
        <ele>528.4000244140625</ele>
        <time>2018-08-16T08:04:44.000Z</time>
      </trkpt>
      <trkpt lat="47.81379483640193939208984375" lon="8.9485454745590686798095703125">
        <ele>527.5999755859375</ele>
        <time>2018-08-16T08:04:45.000Z</time>
      </trkpt>
      <trkpt lat="47.8138826787471771240234375" lon="8.94863507710397243499755859375">
        <ele>526.79998779296875</ele>
        <time>2018-08-16T08:04:46.000Z</time>
      </trkpt>
      <trkpt lat="47.81396574340760707855224609375" lon="8.94871386699378490447998046875">
        <ele>525.5999755859375</ele>
        <time>2018-08-16T08:04:47.000Z</time>
      </trkpt>
      <trkpt lat="47.814041934907436370849609375" lon="8.9488036371767520904541015625">
        <ele>524.5999755859375</ele>
        <time>2018-08-16T08:04:48.000Z</time>
      </trkpt>
      <trkpt lat="47.8141158632934093475341796875" lon="8.9489012025296688079833984375">
        <ele>523.79998779296875</ele>
        <time>2018-08-16T08:04:49.000Z</time>
      </trkpt>
      <trkpt lat="47.81418518163263797760009765625" lon="8.94901209510862827301025390625">
        <ele>522.79998779296875</ele>
        <time>2018-08-16T08:04:50.000Z</time>
      </trkpt>
      <trkpt lat="47.8142476268112659454345703125" lon="8.94913069903850555419921875">
        <ele>521.5999755859375</ele>
        <time>2018-08-16T08:04:51.000Z</time>
      </trkpt>
      <trkpt lat="47.8143166936933994293212890625" lon="8.9492445252835750579833984375">
        <ele>520.4000244140625</ele>
        <time>2018-08-16T08:04:52.000Z</time>
      </trkpt>
      <trkpt lat="47.81439808197319507598876953125" lon="8.94935675896704196929931640625">
        <ele>519.20001220703125</ele>
        <time>2018-08-16T08:04:53.000Z</time>
      </trkpt>
      <trkpt lat="47.81448726542294025421142578125" lon="8.94945315085351467132568359375">
        <ele>517.79998779296875</ele>
        <time>2018-08-16T08:04:54.000Z</time>
      </trkpt>
      <trkpt lat="47.8145839087665081024169921875" lon="8.9495350420475006103515625">
        <ele>516.4000244140625</ele>
        <time>2018-08-16T08:04:55.000Z</time>
      </trkpt>
      <trkpt lat="47.81467619352042675018310546875" lon="8.94962430931627750396728515625">
        <ele>515</ele>
        <time>2018-08-16T08:04:56.000Z</time>
      </trkpt>
      <trkpt lat="47.81476235948503017425537109375" lon="8.9497335255146026611328125">
        <ele>513.79998779296875</ele>
        <time>2018-08-16T08:04:57.000Z</time>
      </trkpt>
      <trkpt lat="47.8148460946977138519287109375" lon="8.9498595893383026123046875">
        <ele>512.5999755859375</ele>
        <time>2018-08-16T08:04:58.000Z</time>
      </trkpt>
      <trkpt lat="47.81492899172008037567138671875" lon="8.949980624020099639892578125">
        <ele>511.20001220703125</ele>
        <time>2018-08-16T08:04:59.000Z</time>
      </trkpt>
      <trkpt lat="47.81501515768468379974365234375" lon="8.9501011557877063751220703125">
        <ele>510</ele>
        <time>2018-08-16T08:05:00.000Z</time>
      </trkpt>
      <trkpt lat="47.8151015751063823699951171875" lon="8.9502252079546451568603515625">
        <ele>508.600006103515625</ele>
        <time>2018-08-16T08:05:01.000Z</time>
      </trkpt>
      <trkpt lat="47.81518614850938320159912109375" lon="8.9503479190170764923095703125">
        <ele>507.20001220703125</ele>
        <time>2018-08-16T08:05:02.000Z</time>
      </trkpt>
      <trkpt lat="47.81526510603725910186767578125" lon="8.95046853460371494293212890625">
        <ele>506</ele>
        <time>2018-08-16T08:05:03.000Z</time>
      </trkpt>
      <trkpt lat="47.81533517874777317047119140625" lon="8.95059409551322460174560546875">
        <ele>504.79998779296875</ele>
        <time>2018-08-16T08:05:04.000Z</time>
      </trkpt>
      <trkpt lat="47.81539821065962314605712890625" lon="8.95072267390787601470947265625">
        <ele>503.399993896484375</ele>
        <time>2018-08-16T08:05:05.000Z</time>
      </trkpt>
      <trkpt lat="47.81545369885861873626708984375" lon="8.950863070785999298095703125">
        <ele>501.79998779296875</ele>
        <time>2018-08-16T08:05:06.000Z</time>
      </trkpt>
      <trkpt lat="47.815498374402523040771484375" lon="8.95101872272789478302001953125">
        <ele>500.20001220703125</ele>
        <time>2018-08-16T08:05:07.000Z</time>
      </trkpt>
      <trkpt lat="47.81553701497614383697509765625" lon="8.9511887915432453155517578125">
        <ele>498.600006103515625</ele>
        <time>2018-08-16T08:05:08.000Z</time>
      </trkpt>
      <trkpt lat="47.81557020731270313262939453125" lon="8.95136606879532337188720703125">
        <ele>496.600006103515625</ele>
        <time>2018-08-16T08:05:09.000Z</time>
      </trkpt>
      <trkpt lat="47.8155971132218837738037109375" lon="8.95154594443738460540771484375">
        <ele>494.600006103515625</ele>
        <time>2018-08-16T08:05:10.000Z</time>
      </trkpt>
      <trkpt lat="47.81562737189233303070068359375" lon="8.951738141477108001708984375">
        <ele>492.79998779296875</ele>
        <time>2018-08-16T08:05:11.000Z</time>
      </trkpt>
      <trkpt lat="47.81565888784825801849365234375" lon="8.95193151198327541351318359375">
        <ele>489.399993896484375</ele>
        <time>2018-08-16T08:05:12.000Z</time>
      </trkpt>
      <trkpt lat="47.8156893141567707061767578125" lon="8.952111303806304931640625">
        <ele>487.79998779296875</ele>
        <time>2018-08-16T08:05:13.000Z</time>
      </trkpt>
      <trkpt lat="47.81571839936077594757080078125" lon="8.95227936096489429473876953125">
        <ele>486.20001220703125</ele>
        <time>2018-08-16T08:05:14.000Z</time>
      </trkpt>
      <trkpt lat="47.815757878124713897705078125" lon="8.9524390362203121185302734375">
        <ele>484.600006103515625</ele>
        <time>2018-08-16T08:05:15.000Z</time>
      </trkpt>
      <trkpt lat="47.81580925919115543365478515625" lon="8.95258865319192409515380859375">
        <ele>483</ele>
        <time>2018-08-16T08:05:16.000Z</time>
      </trkpt>
      <trkpt lat="47.81587078236043453216552734375" lon="8.9527451433241367340087890625">
        <ele>481.600006103515625</ele>
        <time>2018-08-16T08:05:17.000Z</time>
      </trkpt>
      <trkpt lat="47.81593448482453823089599609375" lon="8.95290917716920375823974609375">
        <ele>480.399993896484375</ele>
        <time>2018-08-16T08:05:18.000Z</time>
      </trkpt>
      <trkpt lat="47.81599667854607105255126953125" lon="8.95307815633714199066162109375">
        <ele>479</ele>
        <time>2018-08-16T08:05:19.000Z</time>
      </trkpt>
      <trkpt lat="47.81605451367795467376708984375" lon="8.95325191318988800048828125">
        <ele>477.399993896484375</ele>
        <time>2018-08-16T08:05:20.000Z</time>
      </trkpt>
      <trkpt lat="47.816112600266933441162109375" lon="8.95342717878520488739013671875">
        <ele>476</ele>
        <time>2018-08-16T08:05:21.000Z</time>
      </trkpt>
      <trkpt lat="47.8161684237420558929443359375" lon="8.9536051265895366668701171875">
        <ele>474.600006103515625</ele>
        <time>2018-08-16T08:05:22.000Z</time>
      </trkpt>
      <trkpt lat="47.81622064299881458282470703125" lon="8.95378575660288333892822265625">
        <ele>473.20001220703125</ele>
        <time>2018-08-16T08:05:23.000Z</time>
      </trkpt>
      <trkpt lat="47.81627847813069820404052734375" lon="8.9539709128439426422119140625">
        <ele>472</ele>
        <time>2018-08-16T08:05:24.000Z</time>
      </trkpt>
      <trkpt lat="47.81634318642318248748779296875" lon="8.954153470695018768310546875">
        <ele>471</ele>
        <time>2018-08-16T08:05:25.000Z</time>
      </trkpt>
      <trkpt lat="47.81641694717109203338623046875" lon="8.95432211458683013916015625">
        <ele>470.20001220703125</ele>
        <time>2018-08-16T08:05:26.000Z</time>
      </trkpt>
      <trkpt lat="47.81649422831833362579345703125" lon="8.9544798620045185089111328125">
        <ele>469.20001220703125</ele>
        <time>2018-08-16T08:05:27.000Z</time>
      </trkpt>
      <trkpt lat="47.8166304342448711395263671875" lon="8.9547412097454071044921875">
        <ele>467.399993896484375</ele>
        <time>2018-08-16T08:05:29.000Z</time>
      </trkpt>
      <trkpt lat="47.81674400903284549713134765625" lon="8.95494312979280948638916015625">
        <ele>465.600006103515625</ele>
        <time>2018-08-16T08:05:31.000Z</time>
      </trkpt>
      <trkpt lat="47.81686269678175449371337890625" lon="8.95515452139079570770263671875">
        <ele>463.79998779296875</ele>
        <time>2018-08-16T08:05:33.000Z</time>
      </trkpt>
      <trkpt lat="47.81692807562649250030517578125" lon="8.955267928540706634521484375">
        <ele>462.600006103515625</ele>
        <time>2018-08-16T08:05:34.000Z</time>
      </trkpt>
      <trkpt lat="47.81706587411463260650634765625" lon="8.955499269068241119384765625">
        <ele>461.399993896484375</ele>
        <time>2018-08-16T08:05:36.000Z</time>
      </trkpt>
      <trkpt lat="47.81719713471829891204833984375" lon="8.95574628375470638275146484375">
        <ele>459.399993896484375</ele>
        <time>2018-08-16T08:05:38.000Z</time>
      </trkpt>
      <trkpt lat="47.8172528743743896484375" lon="8.9558853395283222198486328125">
        <ele>458.399993896484375</ele>
        <time>2018-08-16T08:05:39.000Z</time>
      </trkpt>
      <trkpt lat="47.8173024952411651611328125" lon="8.95603612996637821197509765625">
        <ele>456.79998779296875</ele>
        <time>2018-08-16T08:05:40.000Z</time>
      </trkpt>
      <trkpt lat="47.81740969978272914886474609375" lon="8.95635816268622875213623046875">
        <ele>455.399993896484375</ele>
        <time>2018-08-16T08:05:42.000Z</time>
      </trkpt>
      <trkpt lat="47.8175272978842258453369140625" lon="8.95670936442911624908447265625">
        <ele>453.79998779296875</ele>
        <time>2018-08-16T08:05:44.000Z</time>
      </trkpt>
      <trkpt lat="47.8176538646221160888671875" lon="8.957078754901885986328125">
        <ele>452.20001220703125</ele>
        <time>2018-08-16T08:05:46.000Z</time>
      </trkpt>
      <trkpt lat="47.8177817724645137786865234375" lon="8.95746105350553989410400390625">
        <ele>450.600006103515625</ele>
        <time>2018-08-16T08:05:48.000Z</time>
      </trkpt>
      <trkpt lat="47.817845642566680908203125" lon="8.9576549269258975982666015625">
        <ele>449.600006103515625</ele>
        <time>2018-08-16T08:05:49.000Z</time>
      </trkpt>
      <trkpt lat="47.8179088421165943145751953125" lon="8.9578423462808132171630859375">
        <ele>448.399993896484375</ele>
        <time>2018-08-16T08:05:50.000Z</time>
      </trkpt>
      <trkpt lat="47.81797028146684169769287109375" lon="8.958019874989986419677734375">
        <ele>447.20001220703125</ele>
        <time>2018-08-16T08:05:51.000Z</time>
      </trkpt>
      <trkpt lat="47.8180275298655033111572265625" lon="8.95818759687244892120361328125">
        <ele>446</ele>
        <time>2018-08-16T08:05:52.000Z</time>
      </trkpt>
      <trkpt lat="47.81807824037969112396240234375" lon="8.95834333263337612152099609375">
        <ele>444.600006103515625</ele>
        <time>2018-08-16T08:05:53.000Z</time>
      </trkpt>
      <trkpt lat="47.81812350265681743621826171875" lon="8.9584847353398799896240234375">
        <ele>443.20001220703125</ele>
        <time>2018-08-16T08:05:54.000Z</time>
      </trkpt>
      <trkpt lat="47.81816507689654827117919921875" lon="8.9586114697158336639404296875">
        <ele>441.79998779296875</ele>
        <time>2018-08-16T08:05:55.000Z</time>
      </trkpt>
      <trkpt lat="47.818202711641788482666015625" lon="8.95872504450380802154541015625">
        <ele>440.600006103515625</ele>
        <time>2018-08-16T08:05:56.000Z</time>
      </trkpt>
      <trkpt lat="47.8182367421686649322509765625" lon="8.9588250406086444854736328125">
        <ele>439.20001220703125</ele>
        <time>2018-08-16T08:05:57.000Z</time>
      </trkpt>
      <trkpt lat="47.81825996004045009613037109375" lon="8.95891648717224597930908203125">
        <ele>437.600006103515625</ele>
        <time>2018-08-16T08:05:58.000Z</time>
      </trkpt>
      <trkpt lat="47.818264067173004150390625" lon="8.9590054191648960113525390625">
        <ele>436.20001220703125</ele>
        <time>2018-08-16T08:05:59.000Z</time>
      </trkpt>
      <trkpt lat="47.8182466328144073486328125" lon="8.95908898673951625823974609375">
        <ele>435</ele>
        <time>2018-08-16T08:06:00.000Z</time>
      </trkpt>
      <trkpt lat="47.818208746612071990966796875" lon="8.95916425622999668121337890625">
        <ele>433.79998779296875</ele>
        <time>2018-08-16T08:06:01.000Z</time>
      </trkpt>
      <trkpt lat="47.8181623108685016632080078125" lon="8.9592324011027812957763671875">
        <ele>432.600006103515625</ele>
        <time>2018-08-16T08:06:02.000Z</time>
      </trkpt>
      <trkpt lat="47.81811260618269443511962890625" lon="8.9592957682907581329345703125">
        <ele>431.399993896484375</ele>
        <time>2018-08-16T08:06:03.000Z</time>
      </trkpt>
      <trkpt lat="47.81806231476366519927978515625" lon="8.959354944527149200439453125">
        <ele>430</ele>
        <time>2018-08-16T08:06:04.000Z</time>
      </trkpt>
      <trkpt lat="47.81795770861208438873291015625" lon="8.9594674296677112579345703125">
        <ele>428.399993896484375</ele>
        <time>2018-08-16T08:06:06.000Z</time>
      </trkpt>
      <trkpt lat="47.81790238805115222930908203125" lon="8.95952484570443630218505859375">
        <ele>426.79998779296875</ele>
        <time>2018-08-16T08:06:07.000Z</time>
      </trkpt>
      <trkpt lat="47.81779266893863677978515625" lon="8.959651999175548553466796875">
        <ele>425.79998779296875</ele>
        <time>2018-08-16T08:06:09.000Z</time>
      </trkpt>
      <trkpt lat="47.81740534119307994842529296875" lon="8.960059694945812225341796875">
        <ele>424.600006103515625</ele>
        <time>2018-08-16T08:06:16.000Z</time>
      </trkpt>
      <trkpt lat="47.81728698872029781341552734375" lon="8.96016396582126617431640625">
        <ele>423.79998779296875</ele>
        <time>2018-08-16T08:06:18.000Z</time>
      </trkpt>
      <trkpt lat="47.81722563318908214569091796875" lon="8.96020864136517047882080078125">
        <ele>423.20001220703125</ele>
        <time>2018-08-16T08:06:19.000Z</time>
      </trkpt>
      <trkpt lat="47.81704173423349857330322265625" lon="8.9603398181498050689697265625">
        <ele>422</ele>
        <time>2018-08-16T08:06:22.000Z</time>
      </trkpt>
      <trkpt lat="47.81657637096941471099853515625" lon="8.96065623499453067779541015625">
        <ele>421</ele>
        <time>2018-08-16T08:06:30.000Z</time>
      </trkpt>
      <trkpt lat="47.81651669181883335113525390625" lon="8.9606948755681514739990234375">
        <ele>420.79998779296875</ele>
        <time>2018-08-16T08:06:31.000Z</time>
      </trkpt>
      <trkpt lat="47.816456593573093414306640625" lon="8.96073133684694766998291015625">
        <ele>420.79998779296875</ele>
        <time>2018-08-16T08:06:32.000Z</time>
      </trkpt>
      <trkpt lat="47.81639515422284603118896484375" lon="8.96076704375445842742919921875">
        <ele>420.79998779296875</ele>
        <time>2018-08-16T08:06:33.000Z</time>
      </trkpt>
      <trkpt lat="47.81633312813937664031982421875" lon="8.96080694161355495452880859375">
        <ele>420.600006103515625</ele>
        <time>2018-08-16T08:06:34.000Z</time>
      </trkpt>
      <trkpt lat="47.81627194024622440338134765625" lon="8.96084432490170001983642578125">
        <ele>420.600006103515625</ele>
        <time>2018-08-16T08:06:35.000Z</time>
      </trkpt>
      <trkpt lat="47.81621008180081844329833984375" lon="8.96087550558149814605712890625">
        <ele>420.600006103515625</ele>
        <time>2018-08-16T08:06:36.000Z</time>
      </trkpt>
      <trkpt lat="47.8159265220165252685546875" lon="8.96103677339851856231689453125">
        <ele>420.600006103515625</ele>
        <time>2018-08-16T08:06:41.000Z</time>
      </trkpt>
      <trkpt lat="47.81577019952237606048583984375" lon="8.96115177311003208160400390625">
        <ele>420.79998779296875</ele>
        <time>2018-08-16T08:06:44.000Z</time>
      </trkpt>
      <trkpt lat="47.81568001024425029754638671875" lon="8.96122855134308338165283203125">
        <ele>421</ele>
        <time>2018-08-16T08:06:46.000Z</time>
      </trkpt>
      <trkpt lat="47.81554120592772960662841796875" lon="8.9613768272101879119873046875">
        <ele>421.399993896484375</ele>
        <time>2018-08-16T08:06:50.000Z</time>
      </trkpt>
      <trkpt lat="47.81550181098282337188720703125" lon="8.9614981971681118011474609375">
        <ele>421.79998779296875</ele>
        <time>2018-08-16T08:06:52.000Z</time>
      </trkpt>
      <trkpt lat="47.81548990868031978607177734375" lon="8.9615756459534168243408203125">
        <ele>422.20001220703125</ele>
        <time>2018-08-16T08:06:53.000Z</time>
      </trkpt>
      <trkpt lat="47.8155079297721385955810546875" lon="8.961867503821849822998046875">
        <ele>422.399993896484375</ele>
        <time>2018-08-16T08:06:56.000Z</time>
      </trkpt>
      <trkpt lat="47.81552880071103572845458984375" lon="8.96270628087222576141357421875">
        <ele>422</ele>
        <time>2018-08-16T08:07:03.000Z</time>
      </trkpt>
      <trkpt lat="47.81550650484859943389892578125" lon="8.96294751204550266265869140625">
        <ele>421.20001220703125</ele>
        <time>2018-08-16T08:07:05.000Z</time>
      </trkpt>
      <trkpt lat="47.81548865139484405517578125" lon="8.963063098490238189697265625">
        <ele>420.600006103515625</ele>
        <time>2018-08-16T08:07:06.000Z</time>
      </trkpt>
      <trkpt lat="47.81545252539217472076416015625" lon="8.9632875658571720123291015625">
        <ele>420.20001220703125</ele>
        <time>2018-08-16T08:07:08.000Z</time>
      </trkpt>
      <trkpt lat="47.815420925617218017578125" lon="8.96345595829188823699951171875">
        <ele>419.399993896484375</ele>
        <time>2018-08-16T08:07:10.000Z</time>
      </trkpt>
      <trkpt lat="47.8152960352599620819091796875" lon="8.96376608870923519134521484375">
        <ele>418.600006103515625</ele>
        <time>2018-08-16T08:07:16.000Z</time>
      </trkpt>
      <trkpt lat="47.81521079130470752716064453125" lon="8.96384303458034992218017578125">
        <ele>418.600006103515625</ele>
        <time>2018-08-16T08:07:18.000Z</time>
      </trkpt>
      <trkpt lat="47.8151646070182323455810546875" lon="8.96388092078268527984619140625">
        <ele>418.399993896484375</ele>
        <time>2018-08-16T08:07:19.000Z</time>
      </trkpt>
      <trkpt lat="47.815072238445281982421875" lon="8.96394789218902587890625">
        <ele>418.399993896484375</ele>
        <time>2018-08-16T08:07:21.000Z</time>
      </trkpt>
      <trkpt lat="47.814976684749126434326171875" lon="8.96400346420705318450927734375">
        <ele>418.20001220703125</ele>
        <time>2018-08-16T08:07:23.000Z</time>
      </trkpt>
      <trkpt lat="47.81488641165196895599365234375" lon="8.9640511572360992431640625">
        <ele>418.20001220703125</ele>
        <time>2018-08-16T08:07:25.000Z</time>
      </trkpt>
      <trkpt lat="47.81480376608669757843017578125" lon="8.9641026221215724945068359375">
        <ele>418.20001220703125</ele>
        <time>2018-08-16T08:07:27.000Z</time>
      </trkpt>
      <trkpt lat="47.81470469199120998382568359375" lon="8.96437662653625011444091796875">
        <ele>418.79998779296875</ele>
        <time>2018-08-16T08:07:33.000Z</time>
      </trkpt>
      <trkpt lat="47.8147880919277667999267578125" lon="8.9645850844681262969970703125">
        <ele>419</ele>
        <time>2018-08-16T08:07:36.000Z</time>
      </trkpt>
      <trkpt lat="47.81494013965129852294921875" lon="8.9649223722517490386962890625">
        <ele>419.20001220703125</ele>
        <time>2018-08-16T08:07:40.000Z</time>
      </trkpt>
      <trkpt lat="47.81504684127867221832275390625" lon="8.9651057682931423187255859375">
        <ele>419.20001220703125</ele>
        <time>2018-08-16T08:07:42.000Z</time>
      </trkpt>
      <trkpt lat="47.815337441861629486083984375" lon="8.9656187407672405242919921875">
        <ele>418.600006103515625</ele>
        <time>2018-08-16T08:07:47.000Z</time>
      </trkpt>
      <trkpt lat="47.81543559394776821136474609375" lon="8.96582719869911670684814453125">
        <ele>417.600006103515625</ele>
        <time>2018-08-16T08:07:49.000Z</time>
      </trkpt>
      <trkpt lat="47.81548035331070423126220703125" lon="8.9659315533936023712158203125">
        <ele>417.20001220703125</ele>
        <time>2018-08-16T08:07:50.000Z</time>
      </trkpt>
      <trkpt lat="47.81551555730402469635009765625" lon="8.966039679944515228271484375">
        <ele>416.600006103515625</ele>
        <time>2018-08-16T08:07:51.000Z</time>
      </trkpt>
      <trkpt lat="47.81563592143356800079345703125" lon="8.96634042263031005859375">
        <ele>415.399993896484375</ele>
        <time>2018-08-16T08:07:54.000Z</time>
      </trkpt>
      <trkpt lat="47.815765924751758575439453125" lon="8.96674786694347858428955078125">
        <ele>414.600006103515625</ele>
        <time>2018-08-16T08:07:58.000Z</time>
      </trkpt>
      <trkpt lat="47.81579442322254180908203125" lon="8.9668488688766956329345703125">
        <ele>414.600006103515625</ele>
        <time>2018-08-16T08:07:59.000Z</time>
      </trkpt>
      <trkpt lat="47.81585301272571086883544921875" lon="8.9670315943658351898193359375">
        <ele>414.600006103515625</ele>
        <time>2018-08-16T08:08:01.000Z</time>
      </trkpt>
      <trkpt lat="47.81593163497745990753173828125" lon="8.96725513972342014312744140625">
        <ele>414.600006103515625</ele>
        <time>2018-08-16T08:08:04.000Z</time>
      </trkpt>
      <trkpt lat="47.81604780815541744232177734375" lon="8.96742562763392925262451171875">
        <ele>414.600006103515625</ele>
        <time>2018-08-16T08:08:08.000Z</time>
      </trkpt>
      <trkpt lat="47.81611100770533084869384765625" lon="8.96745412610471248626708984375">
        <ele>414.79998779296875</ele>
        <time>2018-08-16T08:08:10.000Z</time>
      </trkpt>
      <trkpt lat="47.8161385841667652130126953125" lon="8.9674530364573001861572265625">
        <ele>415</ele>
        <time>2018-08-16T08:08:11.000Z</time>
      </trkpt>
      <trkpt lat="47.816164903342723846435546875" lon="8.9674446545541286468505859375">
        <ele>415.20001220703125</ele>
        <time>2018-08-16T08:08:12.000Z</time>
      </trkpt>
      <trkpt lat="47.81619273126125335693359375" lon="8.9674285613000392913818359375">
        <ele>415.600006103515625</ele>
        <time>2018-08-16T08:08:13.000Z</time>
      </trkpt>
      <trkpt lat="47.8162193857133388519287109375" lon="8.96741339005529880523681640625">
        <ele>416</ele>
        <time>2018-08-16T08:08:14.000Z</time>
      </trkpt>
      <trkpt lat="47.816272191703319549560546875" lon="8.967379443347454071044921875">
        <ele>416.79998779296875</ele>
        <time>2018-08-16T08:08:16.000Z</time>
      </trkpt>
      <trkpt lat="47.8162966668605804443359375" lon="8.96736259572207927703857421875">
        <ele>417.20001220703125</ele>
        <time>2018-08-16T08:08:17.000Z</time>
      </trkpt>
      <trkpt lat="47.81634167768061161041259765625" lon="8.96731833927333354949951171875">
        <ele>418</ele>
        <time>2018-08-16T08:08:19.000Z</time>
      </trkpt>
      <trkpt lat="47.81640822999179363250732421875" lon="8.96723384968936443328857421875">
        <ele>419.20001220703125</ele>
        <time>2018-08-16T08:08:22.000Z</time>
      </trkpt>
      <trkpt lat="47.8164554201066493988037109375" lon="8.967179618775844573974609375">
        <ele>420.399993896484375</ele>
        <time>2018-08-16T08:08:24.000Z</time>
      </trkpt>
      <trkpt lat="47.8165402449667453765869140625" lon="8.967062272131443023681640625">
        <ele>421.399993896484375</ele>
        <time>2018-08-16T08:08:28.000Z</time>
      </trkpt>
      <trkpt lat="47.8166049532592296600341796875" lon="8.9669668860733509063720703125">
        <ele>422.600006103515625</ele>
        <time>2018-08-16T08:08:31.000Z</time>
      </trkpt>
      <trkpt lat="47.81667745672166347503662109375" lon="8.966865800321102142333984375">
        <ele>423.600006103515625</ele>
        <time>2018-08-16T08:08:34.000Z</time>
      </trkpt>
      <trkpt lat="47.8167692385613918304443359375" lon="8.96672171540558338165283203125">
        <ele>424.79998779296875</ele>
        <time>2018-08-16T08:08:38.000Z</time>
      </trkpt>
      <trkpt lat="47.81684610061347484588623046875" lon="8.96661476232111454010009765625">
        <ele>425.600006103515625</ele>
        <time>2018-08-16T08:08:41.000Z</time>
      </trkpt>
      <trkpt lat="47.81687275506556034088134765625" lon="8.96658123470842838287353515625">
        <ele>426</ele>
        <time>2018-08-16T08:08:42.000Z</time>
      </trkpt>
      <trkpt lat="47.8169807977974414825439453125" lon="8.96642734296619892120361328125">
        <ele>427.20001220703125</ele>
        <time>2018-08-16T08:08:46.000Z</time>
      </trkpt>
      <trkpt lat="47.81712354160845279693603515625" lon="8.96622768603265285491943359375">
        <ele>428.20001220703125</ele>
        <time>2018-08-16T08:08:51.000Z</time>
      </trkpt>
      <trkpt lat="47.81728279776871204376220703125" lon="8.965994417667388916015625">
        <ele>429.20001220703125</ele>
        <time>2018-08-16T08:08:56.000Z</time>
      </trkpt>
      <trkpt lat="47.81774061731994152069091796875" lon="8.96545990370213985443115234375">
        <ele>429.600006103515625</ele>
        <time>2018-08-16T08:09:05.000Z</time>
      </trkpt>
      <trkpt lat="47.8178042359650135040283203125" lon="8.96541397087275981903076171875">
        <ele>429.600006103515625</ele>
        <time>2018-08-16T08:09:06.000Z</time>
      </trkpt>
      <trkpt lat="47.81793474219739437103271484375" lon="8.96535093896090984344482421875">
        <ele>429.20001220703125</ele>
        <time>2018-08-16T08:09:08.000Z</time>
      </trkpt>
      <trkpt lat="47.81812987290322780609130859375" lon="8.965304754674434661865234375">
        <ele>429</ele>
        <time>2018-08-16T08:09:11.000Z</time>
      </trkpt>
      <trkpt lat="47.81824805773794651031494140625" lon="8.96530416794121265411376953125">
        <ele>429</ele>
        <time>2018-08-16T08:09:13.000Z</time>
      </trkpt>
      <trkpt lat="47.81835869885981082916259765625" lon="8.96532093174755573272705078125">
        <ele>428.79998779296875</ele>
        <time>2018-08-16T08:09:15.000Z</time>
      </trkpt>
      <trkpt lat="47.81861166469752788543701171875" lon="8.96540022455155849456787109375">
        <ele>429.399993896484375</ele>
        <time>2018-08-16T08:09:20.000Z</time>
      </trkpt>
      <trkpt lat="47.8188407421112060546875" lon="8.96548555232584476470947265625">
        <ele>430.399993896484375</ele>
        <time>2018-08-16T08:09:24.000Z</time>
      </trkpt>
      <trkpt lat="47.8189009241759777069091796875" lon="8.965511284768581390380859375">
        <ele>430.600006103515625</ele>
        <time>2018-08-16T08:09:25.000Z</time>
      </trkpt>
      <trkpt lat="47.81936050392687320709228515625" lon="8.9658309705555438995361328125">
        <ele>431.600006103515625</ele>
        <time>2018-08-16T08:09:33.000Z</time>
      </trkpt>
      <trkpt lat="47.81946058385074138641357421875" lon="8.96593473851680755615234375">
        <ele>431.79998779296875</ele>
        <time>2018-08-16T08:09:35.000Z</time>
      </trkpt>
      <trkpt lat="47.819554544985294342041015625" lon="8.9660465531051158905029296875">
        <ele>431.79998779296875</ele>
        <time>2018-08-16T08:09:37.000Z</time>
      </trkpt>
      <trkpt lat="47.81984028406441211700439453125" lon="8.96636967547237873077392578125">
        <ele>432.20001220703125</ele>
        <time>2018-08-16T08:09:43.000Z</time>
      </trkpt>
      <trkpt lat="47.819996438920497894287109375" lon="8.96651216782629489898681640625">
        <ele>432.79998779296875</ele>
        <time>2018-08-16T08:09:46.000Z</time>
      </trkpt>
      <trkpt lat="47.8201618976891040802001953125" lon="8.966641835868358612060546875">
        <ele>433.20001220703125</ele>
        <time>2018-08-16T08:09:49.000Z</time>
      </trkpt>
      <trkpt lat="47.82022048719227313995361328125" lon="8.96668248809874057769775390625">
        <ele>433.20001220703125</ele>
        <time>2018-08-16T08:09:50.000Z</time>
      </trkpt>
      <trkpt lat="47.8202805854380130767822265625" lon="8.9667212963104248046875">
        <ele>433.399993896484375</ele>
        <time>2018-08-16T08:09:51.000Z</time>
      </trkpt>
      <trkpt lat="47.82052692957222461700439453125" lon="8.96686588414013385772705078125">
        <ele>433.600006103515625</ele>
        <time>2018-08-16T08:09:55.000Z</time>
      </trkpt>
      <trkpt lat="47.8207208029925823211669921875" lon="8.96695942617952823638916015625">
        <ele>433.79998779296875</ele>
        <time>2018-08-16T08:09:58.000Z</time>
      </trkpt>
      <trkpt lat="47.821113578975200653076171875" lon="8.96711868233978748321533203125">
        <ele>434.20001220703125</ele>
        <time>2018-08-16T08:10:04.000Z</time>
      </trkpt>
      <trkpt lat="47.82123796641826629638671875" lon="8.967164196074008941650390625">
        <ele>434.399993896484375</ele>
        <time>2018-08-16T08:10:06.000Z</time>
      </trkpt>
      <trkpt lat="47.8213467635214328765869140625" lon="8.96725128404796123504638671875">
        <ele>434.399993896484375</ele>
        <time>2018-08-16T08:10:08.000Z</time>
      </trkpt>
      <trkpt lat="47.82147022895514965057373046875" lon="8.96727592684328556060791015625">
        <ele>434.399993896484375</ele>
        <time>2018-08-16T08:10:10.000Z</time>
      </trkpt>
      <trkpt lat="47.821598388254642486572265625" lon="8.9672823809087276458740234375">
        <ele>434.399993896484375</ele>
        <time>2018-08-16T08:10:12.000Z</time>
      </trkpt>
      <trkpt lat="47.82166284509003162384033203125" lon="8.96728900261223316192626953125">
        <ele>434.399993896484375</ele>
        <time>2018-08-16T08:10:13.000Z</time>
      </trkpt>
      <trkpt lat="47.82172855921089649200439453125" lon="8.96729503758251667022705078125">
        <ele>434.399993896484375</ele>
        <time>2018-08-16T08:10:14.000Z</time>
      </trkpt>
      <trkpt lat="47.82179611735045909881591796875" lon="8.96730073727667331695556640625">
        <ele>434.399993896484375</ele>
        <time>2018-08-16T08:10:15.000Z</time>
      </trkpt>
      <trkpt lat="47.8221987001597881317138671875" lon="8.96736024878919124603271484375">
        <ele>434.399993896484375</ele>
        <time>2018-08-16T08:10:21.000Z</time>
      </trkpt>
      <trkpt lat="47.82246331684291362762451171875" lon="8.96743685938417911529541015625">
        <ele>434.399993896484375</ele>
        <time>2018-08-16T08:10:25.000Z</time>
      </trkpt>
      <trkpt lat="47.8227871097624301910400390625" lon="8.96759661845862865447998046875">
        <ele>434.20001220703125</ele>
        <time>2018-08-16T08:10:30.000Z</time>
      </trkpt>
      <trkpt lat="47.8229772113263607025146484375" lon="8.96771145053207874298095703125">
        <ele>434</ele>
        <time>2018-08-16T08:10:33.000Z</time>
      </trkpt>
      <trkpt lat="47.8232880122959613800048828125" lon="8.9679415337741374969482421875">
        <ele>433.79998779296875</ele>
        <time>2018-08-16T08:10:38.000Z</time>
      </trkpt>
      <trkpt lat="47.823785059154033660888671875" lon="8.9683185517787933349609375">
        <ele>433.399993896484375</ele>
        <time>2018-08-16T08:10:46.000Z</time>
      </trkpt>
      <trkpt lat="47.8240785934031009674072265625" lon="8.9685411751270294189453125">
        <ele>433.399993896484375</ele>
        <time>2018-08-16T08:10:51.000Z</time>
      </trkpt>
      <trkpt lat="47.8245999477803707122802734375" lon="8.9689051173627376556396484375">
        <ele>433.79998779296875</ele>
        <time>2018-08-16T08:11:00.000Z</time>
      </trkpt>
      <trkpt lat="47.82512876205146312713623046875" lon="8.96931423805654048919677734375">
        <ele>434</ele>
        <time>2018-08-16T08:11:09.000Z</time>
      </trkpt>
      <trkpt lat="47.82558255828917026519775390625" lon="8.96977507509291172027587890625">
        <ele>434</ele>
        <time>2018-08-16T08:11:17.000Z</time>
      </trkpt>
      <trkpt lat="47.82604071311652660369873046875" lon="8.97035300731658935546875">
        <ele>434.399993896484375</ele>
        <time>2018-08-16T08:11:26.000Z</time>
      </trkpt>
      <trkpt lat="47.826490737497806549072265625" lon="8.97092758677899837493896484375">
        <ele>434.600006103515625</ele>
        <time>2018-08-16T08:11:35.000Z</time>
      </trkpt>
      <trkpt lat="47.8267447091639041900634765625" lon="8.97124492563307285308837890625">
        <ele>434.600006103515625</ele>
        <time>2018-08-16T08:11:40.000Z</time>
      </trkpt>
      <trkpt lat="47.827015109360218048095703125" lon="8.9715249650180339813232421875">
        <ele>434.399993896484375</ele>
        <time>2018-08-16T08:11:45.000Z</time>
      </trkpt>
      <trkpt lat="47.8271768800914287567138671875" lon="8.97169436328113079071044921875">
        <ele>434</ele>
        <time>2018-08-16T08:11:48.000Z</time>
      </trkpt>
      <trkpt lat="47.827646099030971527099609375" lon="8.97213256917893886566162109375">
        <ele>433.79998779296875</ele>
        <time>2018-08-16T08:11:56.000Z</time>
      </trkpt>
      <trkpt lat="47.8279936127364635467529296875" lon="8.97239592857658863067626953125">
        <ele>434</ele>
        <time>2018-08-16T08:12:02.000Z</time>
      </trkpt>
      <trkpt lat="47.82850935123860836029052734375" lon="8.97281820885837078094482421875">
        <ele>434.79998779296875</ele>
        <time>2018-08-16T08:12:11.000Z</time>
      </trkpt>
      <trkpt lat="47.8288002870976924896240234375" lon="8.97306731902062892913818359375">
        <ele>435.20001220703125</ele>
        <time>2018-08-16T08:12:16.000Z</time>
      </trkpt>
      <trkpt lat="47.829256765544414520263671875" lon="8.97351801395416259765625">
        <ele>435.600006103515625</ele>
        <time>2018-08-16T08:12:24.000Z</time>
      </trkpt>
      <trkpt lat="47.8294349648058414459228515625" lon="8.9737156592309474945068359375">
        <ele>435.79998779296875</ele>
        <time>2018-08-16T08:12:27.000Z</time>
      </trkpt>
      <trkpt lat="47.829718105494976043701171875" lon="8.97407658398151397705078125">
        <ele>436.20001220703125</ele>
        <time>2018-08-16T08:12:32.000Z</time>
      </trkpt>
      <trkpt lat="47.830058075487613677978515625" lon="8.97461704909801483154296875">
        <ele>436.79998779296875</ele>
        <time>2018-08-16T08:12:39.000Z</time>
      </trkpt>
      <trkpt lat="47.83018288202583789825439453125" lon="8.9748566038906574249267578125">
        <ele>437.20001220703125</ele>
        <time>2018-08-16T08:12:42.000Z</time>
      </trkpt>
      <trkpt lat="47.830371558666229248046875" lon="8.97529003210365772247314453125">
        <ele>437.600006103515625</ele>
        <time>2018-08-16T08:12:47.000Z</time>
      </trkpt>
      <trkpt lat="47.830568365752696990966796875" lon="8.975853212177753448486328125">
        <ele>438</ele>
        <time>2018-08-16T08:12:53.000Z</time>
      </trkpt>
      <trkpt lat="47.830627374351024627685546875" lon="8.976040966808795928955078125">
        <ele>438.20001220703125</ele>
        <time>2018-08-16T08:12:55.000Z</time>
      </trkpt>
      <trkpt lat="47.830856703221797943115234375" lon="8.976790644228458404541015625">
        <ele>439.399993896484375</ele>
        <time>2018-08-16T08:13:03.000Z</time>
      </trkpt>
      <trkpt lat="47.83114160411059856414794921875" lon="8.97753202356398105621337890625">
        <ele>440.20001220703125</ele>
        <time>2018-08-16T08:13:12.000Z</time>
      </trkpt>
      <trkpt lat="47.8311802446842193603515625" lon="8.9776028506457805633544921875">
        <ele>440.399993896484375</ele>
        <time>2018-08-16T08:13:13.000Z</time>
      </trkpt>
      <trkpt lat="47.8314489684998989105224609375" lon="8.97803627885878086090087890625">
        <ele>441.399993896484375</ele>
        <time>2018-08-16T08:13:20.000Z</time>
      </trkpt>
      <trkpt lat="47.8317352943122386932373046875" lon="8.97833081893622875213623046875">
        <ele>442.600006103515625</ele>
        <time>2018-08-16T08:13:27.000Z</time>
      </trkpt>
      <trkpt lat="47.83189161680638790130615234375" lon="8.9784812740981578826904296875">
        <ele>443.600006103515625</ele>
        <time>2018-08-16T08:13:31.000Z</time>
      </trkpt>
      <trkpt lat="47.8320501185953617095947265625" lon="8.9786294661462306976318359375">
        <ele>445</ele>
        <time>2018-08-16T08:13:35.000Z</time>
      </trkpt>
      <trkpt lat="47.83220794983208179473876953125" lon="8.97879903204739093780517578125">
        <ele>446.20001220703125</ele>
        <time>2018-08-16T08:13:39.000Z</time>
      </trkpt>
      <trkpt lat="47.83240274526178836822509765625" lon="8.97903020493686199188232421875">
        <ele>447.20001220703125</ele>
        <time>2018-08-16T08:13:44.000Z</time>
      </trkpt>
      <trkpt lat="47.8326769173145294189453125" lon="8.9794042892754077911376953125">
        <ele>448.20001220703125</ele>
        <time>2018-08-16T08:13:51.000Z</time>
      </trkpt>
      <trkpt lat="47.83271790482103824615478515625" lon="8.97945709526538848876953125">
        <ele>448.20001220703125</ele>
        <time>2018-08-16T08:13:52.000Z</time>
      </trkpt>
      <trkpt lat="47.8329317271709442138671875" lon="8.97970662452280521392822265625">
        <ele>448.600006103515625</ele>
        <time>2018-08-16T08:13:57.000Z</time>
      </trkpt>
      <trkpt lat="47.83301915042102336883544921875" lon="8.9798089675605297088623046875">
        <ele>448.79998779296875</ele>
        <time>2018-08-16T08:13:59.000Z</time>
      </trkpt>
      <trkpt lat="47.83315208740532398223876953125" lon="8.97995271719992160797119140625">
        <ele>449.20001220703125</ele>
        <time>2018-08-16T08:14:02.000Z</time>
      </trkpt>
      <trkpt lat="47.83329105935990810394287109375" lon="8.98007391951978206634521484375">
        <ele>449.399993896484375</ele>
        <time>2018-08-16T08:14:05.000Z</time>
      </trkpt>
      <trkpt lat="47.833477556705474853515625" lon="8.9802082814276218414306640625">
        <ele>449.600006103515625</ele>
        <time>2018-08-16T08:14:09.000Z</time>
      </trkpt>
      <trkpt lat="47.83364863134920597076416015625" lon="8.9803348481655120849609375">
        <ele>450.20001220703125</ele>
        <time>2018-08-16T08:14:13.000Z</time>
      </trkpt>
      <trkpt lat="47.833680398762226104736328125" lon="8.98037918843328952789306640625">
        <ele>450.399993896484375</ele>
        <time>2018-08-16T08:14:14.000Z</time>
      </trkpt>
      <trkpt lat="47.83377536572515964508056640625" lon="8.98051028139889240264892578125">
        <ele>450.79998779296875</ele>
        <time>2018-08-16T08:14:17.000Z</time>
      </trkpt>
      <trkpt lat="47.83381693996489048004150390625" lon="8.98053131997585296630859375">
        <ele>451</ele>
        <time>2018-08-16T08:14:18.000Z</time>
      </trkpt>
      <trkpt lat="47.833905704319477081298828125" lon="8.98055369965732097625732421875">
        <ele>451.20001220703125</ele>
        <time>2018-08-16T08:14:20.000Z</time>
      </trkpt>
      <trkpt lat="47.833949290215969085693359375" lon="8.9805670268833637237548828125">
        <ele>451.20001220703125</ele>
        <time>2018-08-16T08:14:21.000Z</time>
      </trkpt>
      <trkpt lat="47.8339943848550319671630859375" lon="8.980594016611576080322265625">
        <ele>451.399993896484375</ele>
        <time>2018-08-16T08:14:22.000Z</time>
      </trkpt>
      <trkpt lat="47.834140397608280181884765625" lon="8.98075989447534084320068359375">
        <ele>452.20001220703125</ele>
        <time>2018-08-16T08:14:26.000Z</time>
      </trkpt>
      <trkpt lat="47.8342057764530181884765625" lon="8.9808533526957035064697265625">
        <ele>452.600006103515625</ele>
        <time>2018-08-16T08:14:28.000Z</time>
      </trkpt>
      <trkpt lat="47.83433443866670131683349609375" lon="8.98105443455278873443603515625">
        <ele>453.600006103515625</ele>
        <time>2018-08-16T08:14:32.000Z</time>
      </trkpt>
      <trkpt lat="47.83445597626268863677978515625" lon="8.98125979118049144744873046875">
        <ele>454.79998779296875</ele>
        <time>2018-08-16T08:14:36.000Z</time>
      </trkpt>
      <trkpt lat="47.83461187966167926788330078125" lon="8.981552235782146453857421875">
        <ele>455.79998779296875</ele>
        <time>2018-08-16T08:14:41.000Z</time>
      </trkpt>
      <trkpt lat="47.8348097763955593109130859375" lon="8.9819909445941448211669921875">
        <ele>457</ele>
        <time>2018-08-16T08:14:48.000Z</time>
      </trkpt>
      <trkpt lat="47.8349220938980579376220703125" lon="8.98225128650665283203125">
        <ele>457.399993896484375</ele>
        <time>2018-08-16T08:14:52.000Z</time>
      </trkpt>
      <trkpt lat="47.8349723853170871734619140625" lon="8.98238095454871654510498046875">
        <ele>457.600006103515625</ele>
        <time>2018-08-16T08:14:54.000Z</time>
      </trkpt>
      <trkpt lat="47.835039608180522918701171875" lon="8.9825599081814289093017578125">
        <ele>457.79998779296875</ele>
        <time>2018-08-16T08:14:57.000Z</time>
      </trkpt>
      <trkpt lat="47.835120074450969696044921875" lon="8.98277498781681060791015625">
        <ele>457.79998779296875</ele>
        <time>2018-08-16T08:15:00.000Z</time>
      </trkpt>
      <trkpt lat="47.8351876325905323028564453125" lon="8.98293097503483295440673828125">
        <ele>457.79998779296875</ele>
        <time>2018-08-16T08:15:02.000Z</time>
      </trkpt>
      <trkpt lat="47.83526063896715641021728515625" lon="8.98309173993766307830810546875">
        <ele>457.79998779296875</ele>
        <time>2018-08-16T08:15:04.000Z</time>
      </trkpt>
      <trkpt lat="47.835295759141445159912109375" lon="8.98317388258874416351318359375">
        <ele>458</ele>
        <time>2018-08-16T08:15:05.000Z</time>
      </trkpt>
      <trkpt lat="47.8354692645370960235595703125" lon="8.98355727083981037139892578125">
        <ele>458.20001220703125</ele>
        <time>2018-08-16T08:15:10.000Z</time>
      </trkpt>
      <trkpt lat="47.83570253290235996246337890625" lon="8.9839979074895381927490234375">
        <ele>459</ele>
        <time>2018-08-16T08:15:17.000Z</time>
      </trkpt>
      <trkpt lat="47.83592901192605495452880859375" lon="8.9845236204564571380615234375">
        <ele>460</ele>
        <time>2018-08-16T08:15:26.000Z</time>
      </trkpt>
      <trkpt lat="47.83599422313272953033447265625" lon="8.98469000123441219329833984375">
        <ele>461.20001220703125</ele>
        <time>2018-08-16T08:15:29.000Z</time>
      </trkpt>
      <trkpt lat="47.83608240075409412384033203125" lon="8.984910361468791961669921875">
        <ele>462</ele>
        <time>2018-08-16T08:15:33.000Z</time>
      </trkpt>
      <trkpt lat="47.83610436134040355682373046875" lon="8.9849645085632801055908203125">
        <ele>462.20001220703125</ele>
        <time>2018-08-16T08:15:34.000Z</time>
      </trkpt>
      <trkpt lat="47.83618030138313770294189453125" lon="8.98518637754023075103759765625">
        <ele>463.20001220703125</ele>
        <time>2018-08-16T08:15:38.000Z</time>
      </trkpt>
      <trkpt lat="47.83626361750066280364990234375" lon="8.98541889153420925140380859375">
        <ele>464.20001220703125</ele>
        <time>2018-08-16T08:15:42.000Z</time>
      </trkpt>
      <trkpt lat="47.8364117257297039031982421875" lon="8.98585206829011440277099609375">
        <ele>465.399993896484375</ele>
        <time>2018-08-16T08:15:49.000Z</time>
      </trkpt>
      <trkpt lat="47.83652010373771190643310546875" lon="8.986252807080745697021484375">
        <ele>466.600006103515625</ele>
        <time>2018-08-16T08:15:55.000Z</time>
      </trkpt>
      <trkpt lat="47.83662990666925907135009765625" lon="8.9867444895207881927490234375">
        <ele>467.20001220703125</ele>
        <time>2018-08-16T08:16:02.000Z</time>
      </trkpt>
      <trkpt lat="47.83666393719613552093505859375" lon="8.98689025081694126129150390625">
        <ele>467.399993896484375</ele>
        <time>2018-08-16T08:16:04.000Z</time>
      </trkpt>
      <trkpt lat="47.8366923518478870391845703125" lon="8.987028300762176513671875">
        <ele>467.399993896484375</ele>
        <time>2018-08-16T08:16:06.000Z</time>
      </trkpt>
      <trkpt lat="47.836705930531024932861328125" lon="8.98709007538855075836181640625">
        <ele>467.399993896484375</ele>
        <time>2018-08-16T08:16:07.000Z</time>
      </trkpt>
      <trkpt lat="47.8367163240909576416015625" lon="8.9871454797685146331787109375">
        <ele>467.399993896484375</ele>
        <time>2018-08-16T08:16:08.000Z</time>
      </trkpt>
      <trkpt lat="47.8367319144308567047119140625" lon="8.98720406927168369293212890625">
        <ele>467.399993896484375</ele>
        <time>2018-08-16T08:16:10.000Z</time>
      </trkpt>
      <trkpt lat="47.83673887141048908233642578125" lon="8.9872115291655063629150390625">
        <ele>467.399993896484375</ele>
        <time>2018-08-16T08:16:11.000Z</time>
      </trkpt>
      <trkpt lat="47.83674490638077259063720703125" lon="8.98721245117485523223876953125">
        <ele>467.399993896484375</ele>
        <time>2018-08-16T08:16:12.000Z</time>
      </trkpt>
      <trkpt lat="47.836756221950054168701171875" lon="8.98720742203295230865478515625">
        <ele>467.399993896484375</ele>
        <time>2018-08-16T08:16:13.000Z</time>
      </trkpt>
      <trkpt lat="47.836768291890621185302734375" lon="8.9871964417397975921630859375">
        <ele>467.20001220703125</ele>
        <time>2018-08-16T08:16:15.000Z</time>
      </trkpt>
      <trkpt lat="47.83676929771900177001953125" lon="8.9871957711875438690185546875">
        <ele>467</ele>
        <time>2018-08-16T08:16:16.000Z</time>
      </trkpt>
      <trkpt lat="47.836747504770755767822265625" lon="8.98726307787001132965087890625">
        <ele>466.600006103515625</ele>
        <time>2018-08-16T08:16:29.000Z</time>
      </trkpt>
      <trkpt lat="47.8367641009390354156494140625" lon="8.987354524433612823486328125">
        <ele>466.600006103515625</ele>
        <time>2018-08-16T08:16:31.000Z</time>
      </trkpt>
      <trkpt lat="47.8367932699620723724365234375" lon="8.98753901012241840362548828125">
        <ele>466.600006103515625</ele>
        <time>2018-08-16T08:16:34.000Z</time>
      </trkpt>
      <trkpt lat="47.8368053399026393890380859375" lon="8.98760807700455188751220703125">
        <ele>466.600006103515625</ele>
        <time>2018-08-16T08:16:35.000Z</time>
      </trkpt>
      <trkpt lat="47.83681447617709636688232421875" lon="8.98767949081957340240478515625">
        <ele>466.600006103515625</ele>
        <time>2018-08-16T08:16:36.000Z</time>
      </trkpt>
      <trkpt lat="47.836849428713321685791015625" lon="8.98790580220520496368408203125">
        <ele>466.399993896484375</ele>
        <time>2018-08-16T08:16:39.000Z</time>
      </trkpt>
      <trkpt lat="47.8368586488068103790283203125" lon="8.987985514104366302490234375">
        <ele>466.399993896484375</ele>
        <time>2018-08-16T08:16:40.000Z</time>
      </trkpt>
      <trkpt lat="47.83684800378978252410888671875" lon="8.98815876804292201995849609375">
        <ele>466</ele>
        <time>2018-08-16T08:16:42.000Z</time>
      </trkpt>
      <trkpt lat="47.8366299904882907867431640625" lon="8.98854215629398822784423828125">
        <ele>465.399993896484375</ele>
        <time>2018-08-16T08:16:47.000Z</time>
      </trkpt>
      <trkpt lat="47.83657860942184925079345703125" lon="8.98861105553805828094482421875">
        <ele>465.20001220703125</ele>
        <time>2018-08-16T08:16:48.000Z</time>
      </trkpt>
      <trkpt lat="47.83654625527560710906982421875" lon="8.98869571276009082794189453125">
        <ele>465</ele>
        <time>2018-08-16T08:16:49.000Z</time>
      </trkpt>
      <trkpt lat="47.8365320898592472076416015625" lon="8.98888531140983104705810546875">
        <ele>464.399993896484375</ele>
        <time>2018-08-16T08:16:51.000Z</time>
      </trkpt>
      <trkpt lat="47.83653636462986469268798828125" lon="8.98898203857243061065673828125">
        <ele>464</ele>
        <time>2018-08-16T08:16:52.000Z</time>
      </trkpt>
      <trkpt lat="47.8365438245236873626708984375" lon="8.989077843725681304931640625">
        <ele>463.600006103515625</ele>
        <time>2018-08-16T08:16:53.000Z</time>
      </trkpt>
      <trkpt lat="47.83657324500381946563720703125" lon="8.98911966942250728607177734375">
        <ele>463.20001220703125</ele>
        <time>2018-08-16T08:16:54.000Z</time>
      </trkpt>
      <trkpt lat="47.836606688797473907470703125" lon="8.9891470782458782196044921875">
        <ele>462.79998779296875</ele>
        <time>2018-08-16T08:16:55.000Z</time>
      </trkpt>
      <trkpt lat="47.83668874762952327728271484375" lon="8.98913425393402576446533203125">
        <ele>461.79998779296875</ele>
        <time>2018-08-16T08:16:57.000Z</time>
      </trkpt>
      <trkpt lat="47.83673174679279327392578125" lon="8.98911547847092151641845703125">
        <ele>461.399993896484375</ele>
        <time>2018-08-16T08:16:58.000Z</time>
      </trkpt>
      <trkpt lat="47.83677323721349239349365234375" lon="8.9890961162745952606201171875">
        <ele>461</ele>
        <time>2018-08-16T08:16:59.000Z</time>
      </trkpt>
      <trkpt lat="47.8368155658245086669921875" lon="8.98907943628728389739990234375">
        <ele>460.79998779296875</ele>
        <time>2018-08-16T08:17:00.000Z</time>
      </trkpt>
      <trkpt lat="47.836854122579097747802734375" lon="8.98906082846224308013916015625">
        <ele>460.79998779296875</ele>
        <time>2018-08-16T08:17:01.000Z</time>
      </trkpt>
      <trkpt lat="47.83692595548927783966064453125" lon="8.9890206791460514068603515625">
        <ele>460.79998779296875</ele>
        <time>2018-08-16T08:17:03.000Z</time>
      </trkpt>
      <trkpt lat="47.83700290136039257049560546875" lon="8.9889854751527309417724609375">
        <ele>460.600006103515625</ele>
        <time>2018-08-16T08:17:05.000Z</time>
      </trkpt>
      <trkpt lat="47.837044894695281982421875" lon="8.98897348903119564056396484375">
        <ele>460.600006103515625</ele>
        <time>2018-08-16T08:17:06.000Z</time>
      </trkpt>
      <trkpt lat="47.83735477365553379058837890625" lon="8.98891464807093143463134765625">
        <ele>462</ele>
        <time>2018-08-16T08:17:13.000Z</time>
      </trkpt>
      <trkpt lat="47.83750078640878200531005859375" lon="8.988916911184787750244140625">
        <ele>462.399993896484375</ele>
        <time>2018-08-16T08:17:16.000Z</time>
      </trkpt>
      <trkpt lat="47.83781158737838268280029296875" lon="8.9889864809811115264892578125">
        <ele>463</ele>
        <time>2018-08-16T08:17:22.000Z</time>
      </trkpt>
      <trkpt lat="47.83826538361608982086181640625" lon="8.9891920052468776702880859375">
        <ele>463.399993896484375</ele>
        <time>2018-08-16T08:17:31.000Z</time>
      </trkpt>
      <trkpt lat="47.838575430214405059814453125" lon="8.98945142515003681182861328125">
        <ele>463.600006103515625</ele>
        <time>2018-08-16T08:17:37.000Z</time>
      </trkpt>
      <trkpt lat="47.8387382067739963531494140625" lon="8.9896114356815814971923828125">
        <ele>463.600006103515625</ele>
        <time>2018-08-16T08:17:40.000Z</time>
      </trkpt>
      <trkpt lat="47.83884624950587749481201171875" lon="8.98972995579242706298828125">
        <ele>463.600006103515625</ele>
        <time>2018-08-16T08:17:42.000Z</time>
      </trkpt>
      <trkpt lat="47.83895169384777545928955078125" lon="8.98985241539776325225830078125">
        <ele>463.600006103515625</ele>
        <time>2018-08-16T08:17:44.000Z</time>
      </trkpt>
      <trkpt lat="47.83914280124008655548095703125" lon="8.99013270623981952667236328125">
        <ele>463.20001220703125</ele>
        <time>2018-08-16T08:17:48.000Z</time>
      </trkpt>
      <trkpt lat="47.839190326631069183349609375" lon="8.99020579643547534942626953125">
        <ele>463.20001220703125</ele>
        <time>2018-08-16T08:17:49.000Z</time>
      </trkpt>
      <trkpt lat="47.8392364270985126495361328125" lon="8.99028073064982891082763671875">
        <ele>463.20001220703125</ele>
        <time>2018-08-16T08:17:50.000Z</time>
      </trkpt>
      <trkpt lat="47.8393232636153697967529296875" lon="8.99043847806751728057861328125">
        <ele>463</ele>
        <time>2018-08-16T08:17:52.000Z</time>
      </trkpt>
      <trkpt lat="47.83949584700167179107666015625" lon="8.990776352584362030029296875">
        <ele>462.79998779296875</ele>
        <time>2018-08-16T08:17:56.000Z</time>
      </trkpt>
      <trkpt lat="47.839658372104167938232421875" lon="8.99115680716931819915771484375">
        <ele>462.399993896484375</ele>
        <time>2018-08-16T08:18:00.000Z</time>
      </trkpt>
      <trkpt lat="47.83973825164139270782470703125" lon="8.991362750530242919921875">
        <ele>462</ele>
        <time>2018-08-16T08:18:02.000Z</time>
      </trkpt>
      <trkpt lat="47.83985978923738002777099609375" lon="8.99168528616428375244140625">
        <ele>461.20001220703125</ele>
        <time>2018-08-16T08:18:05.000Z</time>
      </trkpt>
      <trkpt lat="47.84000814892351627349853515625" lon="8.99214033968746662139892578125">
        <ele>460.20001220703125</ele>
        <time>2018-08-16T08:18:09.000Z</time>
      </trkpt>
      <trkpt lat="47.84011778421700000762939453125" lon="8.99251568131148815155029296875">
        <ele>459.399993896484375</ele>
        <time>2018-08-16T08:18:12.000Z</time>
      </trkpt>
      <trkpt lat="47.84015692770481109619140625" lon="8.99264149367809295654296875">
        <ele>459</ele>
        <time>2018-08-16T08:18:13.000Z</time>
      </trkpt>
      <trkpt lat="47.8402757830917835235595703125" lon="8.99302546866238117218017578125">
        <ele>457.79998779296875</ele>
        <time>2018-08-16T08:18:16.000Z</time>
      </trkpt>
      <trkpt lat="47.84031827934086322784423828125" lon="8.99315186776220798492431640625">
        <ele>457</ele>
        <time>2018-08-16T08:18:17.000Z</time>
      </trkpt>
      <trkpt lat="47.840360105037689208984375" lon="8.993276171386241912841796875">
        <ele>456.79998779296875</ele>
        <time>2018-08-16T08:18:18.000Z</time>
      </trkpt>
      <trkpt lat="47.84051097929477691650390625" lon="8.99363902397453784942626953125">
        <ele>455.399993896484375</ele>
        <time>2018-08-16T08:18:21.000Z</time>
      </trkpt>
      <trkpt lat="47.8406395576894283294677734375" lon="8.99385787546634674072265625">
        <ele>454.79998779296875</ele>
        <time>2018-08-16T08:18:23.000Z</time>
      </trkpt>
      <trkpt lat="47.84071340225636959075927734375" lon="8.9939535968005657196044921875">
        <ele>454.20001220703125</ele>
        <time>2018-08-16T08:18:24.000Z</time>
      </trkpt>
      <trkpt lat="47.84094440750777721405029296875" lon="8.994200527667999267578125">
        <ele>452.79998779296875</ele>
        <time>2018-08-16T08:18:27.000Z</time>
      </trkpt>
      <trkpt lat="47.8410221077501773834228515625" lon="8.9942617155611515045166015625">
        <ele>452.399993896484375</ele>
        <time>2018-08-16T08:18:28.000Z</time>
      </trkpt>
      <trkpt lat="47.8411743231117725372314453125" lon="8.99435282684862613677978515625">
        <ele>451.600006103515625</ele>
        <time>2018-08-16T08:18:30.000Z</time>
      </trkpt>
      <trkpt lat="47.84157355315983295440673828125" lon="8.99454628117382526397705078125">
        <ele>450.600006103515625</ele>
        <time>2018-08-16T08:18:36.000Z</time>
      </trkpt>
      <trkpt lat="47.84179567359387874603271484375" lon="8.99479036219418048858642578125">
        <ele>450.399993896484375</ele>
        <time>2018-08-16T08:18:42.000Z</time>
      </trkpt>
      <trkpt lat="47.84184378571808338165283203125" lon="8.9947897754609584808349609375">
        <ele>450.399993896484375</ele>
        <time>2018-08-16T08:18:43.000Z</time>
      </trkpt>
      <trkpt lat="47.84189307130873203277587890625" lon="8.99478784762322902679443359375">
        <ele>450.399993896484375</ele>
        <time>2018-08-16T08:18:44.000Z</time>
      </trkpt>
      <trkpt lat="47.84198225475847721099853515625" lon="8.99483554065227508544921875">
        <ele>450.600006103515625</ele>
        <time>2018-08-16T08:18:46.000Z</time>
      </trkpt>
      <trkpt lat="47.84202131442725658416748046875" lon="8.99488172493875026702880859375">
        <ele>450.600006103515625</ele>
        <time>2018-08-16T08:18:47.000Z</time>
      </trkpt>
      <trkpt lat="47.842059619724750518798828125" lon="8.99493075907230377197265625">
        <ele>450.79998779296875</ele>
        <time>2018-08-16T08:18:48.000Z</time>
      </trkpt>
      <trkpt lat="47.8421343863010406494140625" lon="8.99502857588231563568115234375">
        <ele>450.79998779296875</ele>
        <time>2018-08-16T08:18:50.000Z</time>
      </trkpt>
      <trkpt lat="47.8421677462756633758544921875" lon="8.9950791187584400177001953125">
        <ele>451</ele>
        <time>2018-08-16T08:18:51.000Z</time>
      </trkpt>
      <trkpt lat="47.8422297723591327667236328125" lon="8.99519093334674835205078125">
        <ele>451</ele>
        <time>2018-08-16T08:18:53.000Z</time>
      </trkpt>
      <trkpt lat="47.84226288087666034698486328125" lon="8.995246924459934234619140625">
        <ele>451.20001220703125</ele>
        <time>2018-08-16T08:18:54.000Z</time>
      </trkpt>
      <trkpt lat="47.8423360548913478851318359375" lon="8.9953490160405635833740234375">
        <ele>451.399993896484375</ele>
        <time>2018-08-16T08:18:56.000Z</time>
      </trkpt>
      <trkpt lat="47.842373438179492950439453125" lon="8.995397798717021942138671875">
        <ele>451.600006103515625</ele>
        <time>2018-08-16T08:18:57.000Z</time>
      </trkpt>
      <trkpt lat="47.842526324093341827392578125" lon="8.9955582283437252044677734375">
        <ele>452.600006103515625</ele>
        <time>2018-08-16T08:19:01.000Z</time>
      </trkpt>
      <trkpt lat="47.842562533915042877197265625" lon="8.99559385143220424652099609375">
        <ele>452.79998779296875</ele>
        <time>2018-08-16T08:19:02.000Z</time>
      </trkpt>
      <trkpt lat="47.84269966185092926025390625" lon="8.995712287724018096923828125">
        <ele>453.79998779296875</ele>
        <time>2018-08-16T08:19:06.000Z</time>
      </trkpt>
      <trkpt lat="47.84273511730134487152099609375" lon="8.99574321694672107696533203125">
        <ele>454</ele>
        <time>2018-08-16T08:19:07.000Z</time>
      </trkpt>
      <trkpt lat="47.84283737652003765106201171875" lon="8.99583474732935428619384765625">
        <ele>454.79998779296875</ele>
        <time>2018-08-16T08:19:10.000Z</time>
      </trkpt>
      <trkpt lat="47.84290962852537631988525390625" lon="8.99589157663285732269287109375">
        <ele>455.399993896484375</ele>
        <time>2018-08-16T08:19:12.000Z</time>
      </trkpt>
      <trkpt lat="47.843003086745738983154296875" lon="8.9959776587784290313720703125">
        <ele>456.600006103515625</ele>
        <time>2018-08-16T08:19:15.000Z</time>
      </trkpt>
      <trkpt lat="47.8431380353868007659912109375" lon="8.99609307758510112762451171875">
        <ele>457.79998779296875</ele>
        <time>2018-08-16T08:19:19.000Z</time>
      </trkpt>
      <trkpt lat="47.84325697459280490875244140625" lon="8.99617874063551425933837890625">
        <ele>458.79998779296875</ele>
        <time>2018-08-16T08:19:22.000Z</time>
      </trkpt>
      <trkpt lat="47.84333291463553905487060546875" lon="8.9962405152618885040283203125">
        <ele>459.20001220703125</ele>
        <time>2018-08-16T08:19:24.000Z</time>
      </trkpt>
      <trkpt lat="47.84340734593570232391357421875" lon="8.9962966740131378173828125">
        <ele>460</ele>
        <time>2018-08-16T08:19:26.000Z</time>
      </trkpt>
      <trkpt lat="47.84363198094069957733154296875" lon="8.996480740606784820556640625">
        <ele>461.20001220703125</ele>
        <time>2018-08-16T08:19:32.000Z</time>
      </trkpt>
      <trkpt lat="47.84378671087324619293212890625" lon="8.99660906754434108734130859375">
        <ele>462.399993896484375</ele>
        <time>2018-08-16T08:19:36.000Z</time>
      </trkpt>
      <trkpt lat="47.84393590874969959259033203125" lon="8.99674854241311550140380859375">
        <ele>463.399993896484375</ele>
        <time>2018-08-16T08:19:40.000Z</time>
      </trkpt>
      <trkpt lat="47.8439718671143054962158203125" lon="8.996786512434482574462890625">
        <ele>463.79998779296875</ele>
        <time>2018-08-16T08:19:41.000Z</time>
      </trkpt>
      <trkpt lat="47.8441076539456844329833984375" lon="8.996962197124958038330078125">
        <ele>464.399993896484375</ele>
        <time>2018-08-16T08:19:45.000Z</time>
      </trkpt>
      <trkpt lat="47.84428359009325504302978515625" lon="8.9972939528524875640869140625">
        <ele>465.399993896484375</ele>
        <time>2018-08-16T08:19:51.000Z</time>
      </trkpt>
      <trkpt lat="47.84430940635502338409423828125" lon="8.9973549731075763702392578125">
        <ele>465.600006103515625</ele>
        <time>2018-08-16T08:19:52.000Z</time>
      </trkpt>
      <trkpt lat="47.844507806003093719482421875" lon="8.99787825532257556915283203125">
        <ele>466.600006103515625</ele>
        <time>2018-08-16T08:20:00.000Z</time>
      </trkpt>
      <trkpt lat="47.844530604779720306396484375" lon="8.99794665165245532989501953125">
        <ele>466.600006103515625</ele>
        <time>2018-08-16T08:20:01.000Z</time>
      </trkpt>
      <trkpt lat="47.84460277296602725982666015625" lon="8.998241610825061798095703125">
        <ele>467</ele>
        <time>2018-08-16T08:20:05.000Z</time>
      </trkpt>
      <trkpt lat="47.8447322733700275421142578125" lon="8.9985146932303905487060546875">
        <ele>467.20001220703125</ele>
        <time>2018-08-16T08:20:09.000Z</time>
      </trkpt>
      <trkpt lat="47.8447641246020793914794921875" lon="8.998584263026714324951171875">
        <ele>467.20001220703125</ele>
        <time>2018-08-16T08:20:10.000Z</time>
      </trkpt>
      <trkpt lat="47.8448278270661830902099609375" lon="8.99872449226677417755126953125">
        <ele>467.20001220703125</ele>
        <time>2018-08-16T08:20:12.000Z</time>
      </trkpt>
      <trkpt lat="47.84485691227018833160400390625" lon="8.9987993426620960235595703125">
        <ele>467.20001220703125</ele>
        <time>2018-08-16T08:20:13.000Z</time>
      </trkpt>
      <trkpt lat="47.84488792531192302703857421875" lon="8.998874612152576446533203125">
        <ele>467.399993896484375</ele>
        <time>2018-08-16T08:20:14.000Z</time>
      </trkpt>
      <trkpt lat="47.8449880890548229217529296875" lon="8.999108634889125823974609375">
        <ele>467.399993896484375</ele>
        <time>2018-08-16T08:20:17.000Z</time>
      </trkpt>
      <trkpt lat="47.84512915648519992828369140625" lon="8.99942622520029544830322265625">
        <ele>467.399993896484375</ele>
        <time>2018-08-16T08:20:21.000Z</time>
      </trkpt>
      <trkpt lat="47.84524315036833286285400390625" lon="8.99965723045170307159423828125">
        <ele>467.399993896484375</ele>
        <time>2018-08-16T08:20:24.000Z</time>
      </trkpt>
      <trkpt lat="47.8454963676631450653076171875" lon="9.00021278299391269683837890625">
        <ele>467.600006103515625</ele>
        <time>2018-08-16T08:20:31.000Z</time>
      </trkpt>
      <trkpt lat="47.845646403729915618896484375" lon="9.00053598918020725250244140625">
        <ele>467.79998779296875</ele>
        <time>2018-08-16T08:20:35.000Z</time>
      </trkpt>
      <trkpt lat="47.84594781696796417236328125" lon="9.0011865086853504180908203125">
        <ele>468</ele>
        <time>2018-08-16T08:20:43.000Z</time>
      </trkpt>
      <trkpt lat="47.846140600740909576416015625" lon="9.0015994012355804443359375">
        <ele>468.399993896484375</ele>
        <time>2018-08-16T08:20:48.000Z</time>
      </trkpt>
      <trkpt lat="47.84626004286110401153564453125" lon="9.00184675119817256927490234375">
        <ele>468.399993896484375</ele>
        <time>2018-08-16T08:20:51.000Z</time>
      </trkpt>
      <trkpt lat="47.8463374078273773193359375" lon="9.002012126147747039794921875">
        <ele>468.399993896484375</ele>
        <time>2018-08-16T08:20:53.000Z</time>
      </trkpt>
      <trkpt lat="47.84645165316760540008544921875" lon="9.00226132012903690338134765625">
        <ele>468.600006103515625</ele>
        <time>2018-08-16T08:20:56.000Z</time>
      </trkpt>
      <trkpt lat="47.84676848910748958587646484375" lon="9.002929441630840301513671875">
        <ele>469</ele>
        <time>2018-08-16T08:21:04.000Z</time>
      </trkpt>
      <trkpt lat="47.84709018655121326446533203125" lon="9.0036061964929103851318359375">
        <ele>469.20001220703125</ele>
        <time>2018-08-16T08:21:12.000Z</time>
      </trkpt>
      <trkpt lat="47.847419343888759613037109375" lon="9.00425948202610015869140625">
        <ele>469.399993896484375</ele>
        <time>2018-08-16T08:21:20.000Z</time>
      </trkpt>
      <trkpt lat="47.847586311399936676025390625" lon="9.004443548619747161865234375">
        <ele>469.399993896484375</ele>
        <time>2018-08-16T08:21:23.000Z</time>
      </trkpt>
      <trkpt lat="47.84789719618856906890869140625" lon="9.00464764796197414398193359375">
        <ele>469.399993896484375</ele>
        <time>2018-08-16T08:21:28.000Z</time>
      </trkpt>
      <trkpt lat="47.847978584468364715576171875" lon="9.004795253276824951171875">
        <ele>469.20001220703125</ele>
        <time>2018-08-16T08:21:30.000Z</time>
      </trkpt>
      <trkpt lat="47.84798990003764629364013671875" lon="9.0049808286130428314208984375">
        <ele>469.20001220703125</ele>
        <time>2018-08-16T08:21:32.000Z</time>
      </trkpt>
      <trkpt lat="47.8479810990393161773681640625" lon="9.0050817467272281646728515625">
        <ele>469.20001220703125</ele>
        <time>2018-08-16T08:21:33.000Z</time>
      </trkpt>
      <trkpt lat="47.84797129221260547637939453125" lon="9.00528903119266033172607421875">
        <ele>469</ele>
        <time>2018-08-16T08:21:35.000Z</time>
      </trkpt>
      <trkpt lat="47.8479735553264617919921875" lon="9.005393050611019134521484375">
        <ele>469</ele>
        <time>2018-08-16T08:21:36.000Z</time>
      </trkpt>
      <trkpt lat="47.8480545245110988616943359375" lon="9.0057881735265254974365234375">
        <ele>468.600006103515625</ele>
        <time>2018-08-16T08:21:40.000Z</time>
      </trkpt>
      <trkpt lat="47.848093248903751373291015625" lon="9.0058763511478900909423828125">
        <ele>468.600006103515625</ele>
        <time>2018-08-16T08:21:41.000Z</time>
      </trkpt>
      <trkpt lat="47.84813582897186279296875" lon="9.00596394203603267669677734375">
        <ele>468.399993896484375</ele>
        <time>2018-08-16T08:21:42.000Z</time>
      </trkpt>
      <trkpt lat="47.84818083979189395904541015625" lon="9.00605245493352413177490234375">
        <ele>468.399993896484375</ele>
        <time>2018-08-16T08:21:43.000Z</time>
      </trkpt>
      <trkpt lat="47.84822878427803516387939453125" lon="9.0061395429074764251708984375">
        <ele>468.399993896484375</ele>
        <time>2018-08-16T08:21:44.000Z</time>
      </trkpt>
      <trkpt lat="47.8482811711728572845458984375" lon="9.00622646324336528778076171875">
        <ele>468.399993896484375</ele>
        <time>2018-08-16T08:21:45.000Z</time>
      </trkpt>
      <trkpt lat="47.8483892977237701416015625" lon="9.0064111165702342987060546875">
        <ele>468.20001220703125</ele>
        <time>2018-08-16T08:21:47.000Z</time>
      </trkpt>
      <trkpt lat="47.8484823368489742279052734375" lon="9.0066186524927616119384765625">
        <ele>468.20001220703125</ele>
        <time>2018-08-16T08:21:49.000Z</time>
      </trkpt>
      <trkpt lat="47.848560623824596405029296875" lon="9.00684303604066371917724609375">
        <ele>467.79998779296875</ele>
        <time>2018-08-16T08:21:51.000Z</time>
      </trkpt>
      <trkpt lat="47.8486208058893680572509765625" lon="9.00708510540425777435302734375">
        <ele>467.600006103515625</ele>
        <time>2018-08-16T08:21:53.000Z</time>
      </trkpt>
      <trkpt lat="47.84869615919888019561767578125" lon="9.0074907056987285614013671875">
        <ele>466.79998779296875</ele>
        <time>2018-08-16T08:21:56.000Z</time>
      </trkpt>
      <trkpt lat="47.84871728159487247467041015625" lon="9.00763898156583309173583984375">
        <ele>466.399993896484375</ele>
        <time>2018-08-16T08:21:57.000Z</time>
      </trkpt>
      <trkpt lat="47.8487406671047210693359375" lon="9.00778700597584247589111328125">
        <ele>466.20001220703125</ele>
        <time>2018-08-16T08:21:58.000Z</time>
      </trkpt>
      <trkpt lat="47.84881534986197948455810546875" lon="9.00844800285995006561279296875">
        <ele>465</ele>
        <time>2018-08-16T08:22:03.000Z</time>
      </trkpt>
      <trkpt lat="47.84882658161222934722900390625" lon="9.00866190902888774871826171875">
        <ele>464.600006103515625</ele>
        <time>2018-08-16T08:22:05.000Z</time>
      </trkpt>
      <trkpt lat="47.848866395652294158935546875" lon="9.00873097591102123260498046875">
        <ele>464.20001220703125</ele>
        <time>2018-08-16T08:22:06.000Z</time>
      </trkpt>
      <trkpt lat="47.8489228896796703338623046875" lon="9.00875980965793132781982421875">
        <ele>464</ele>
        <time>2018-08-16T08:22:07.000Z</time>
      </trkpt>
      <trkpt lat="47.849052809178829193115234375" lon="9.008751846849918365478515625">
        <ele>463.600006103515625</ele>
        <time>2018-08-16T08:22:09.000Z</time>
      </trkpt>
      <trkpt lat="47.84917828626930713653564453125" lon="9.00879970751702785491943359375">
        <ele>463.600006103515625</ele>
        <time>2018-08-16T08:22:11.000Z</time>
      </trkpt>
      <trkpt lat="47.84923997707664966583251953125" lon="9.00883340276777744293212890625">
        <ele>463.399993896484375</ele>
        <time>2018-08-16T08:22:12.000Z</time>
      </trkpt>
      <trkpt lat="47.84929923713207244873046875" lon="9.00887380354106426239013671875">
        <ele>463.399993896484375</ele>
        <time>2018-08-16T08:22:13.000Z</time>
      </trkpt>
      <trkpt lat="47.84945824183523654937744140625" lon="9.00903456844389438629150390625">
        <ele>463.399993896484375</ele>
        <time>2018-08-16T08:22:16.000Z</time>
      </trkpt>
      <trkpt lat="47.8495511971414089202880859375" lon="9.0091392584145069122314453125">
        <ele>463.399993896484375</ele>
        <time>2018-08-16T08:22:18.000Z</time>
      </trkpt>
      <trkpt lat="47.84959738142788410186767578125" lon="9.00918133556842803955078125">
        <ele>463.399993896484375</ele>
        <time>2018-08-16T08:22:19.000Z</time>
      </trkpt>
      <trkpt lat="47.84964733757078647613525390625" lon="9.00920371524989604949951171875">
        <ele>463.399993896484375</ele>
        <time>2018-08-16T08:22:20.000Z</time>
      </trkpt>
      <trkpt lat="47.84990348853170871734619140625" lon="9.00913364253938198089599609375">
        <ele>463.600006103515625</ele>
        <time>2018-08-16T08:22:25.000Z</time>
      </trkpt>
      <trkpt lat="47.84995579160749912261962890625" lon="9.00916800834238529205322265625">
        <ele>463.600006103515625</ele>
        <time>2018-08-16T08:22:26.000Z</time>
      </trkpt>
      <trkpt lat="47.8500048257410526275634765625" lon="9.00921192951500415802001953125">
        <ele>463.600006103515625</ele>
        <time>2018-08-16T08:22:27.000Z</time>
      </trkpt>
      <trkpt lat="47.8501017205417156219482421875" lon="9.0092944912612438201904296875">
        <ele>463.79998779296875</ele>
        <time>2018-08-16T08:22:29.000Z</time>
      </trkpt>
      <trkpt lat="47.85058267414569854736328125" lon="9.0096996724605560302734375">
        <ele>464</ele>
        <time>2018-08-16T08:22:39.000Z</time>
      </trkpt>
      <trkpt lat="47.8508681617677211761474609375" lon="9.0099437534809112548828125">
        <ele>464.399993896484375</ele>
        <time>2018-08-16T08:22:45.000Z</time>
      </trkpt>
      <trkpt lat="47.8511434234678745269775390625" lon="9.01018456555902957916259765625">
        <ele>465</ele>
        <time>2018-08-16T08:22:51.000Z</time>
      </trkpt>
      <trkpt lat="47.85118692554533481597900390625" lon="9.01021935045719146728515625">
        <ele>465.20001220703125</ele>
        <time>2018-08-16T08:22:52.000Z</time>
      </trkpt>
      <trkpt lat="47.8512999974191188812255859375" lon="9.01027970016002655029296875">
        <ele>466.20001220703125</ele>
        <time>2018-08-16T08:22:57.000Z</time>
      </trkpt>
      <trkpt lat="47.85133293829858303070068359375" lon="9.01023418642580509185791015625">
        <ele>467.399993896484375</ele>
        <time>2018-08-16T08:23:02.000Z</time>
      </trkpt>
      <trkpt lat="47.85139312036335468292236328125" lon="9.01016679592430591583251953125">
        <ele>468</ele>
        <time>2018-08-16T08:23:06.000Z</time>
      </trkpt>
      <trkpt lat="47.85147048532962799072265625" lon="9.01011566631495952606201171875">
        <ele>468</ele>
        <time>2018-08-16T08:23:10.000Z</time>
      </trkpt>
      <trkpt lat="47.8516097925603389739990234375" lon="9.00995917618274688720703125">
        <ele>468.20001220703125</ele>
        <time>2018-08-16T08:23:14.000Z</time>
      </trkpt>
      <trkpt lat="47.851839624345302581787109375" lon="9.00995456613600254058837890625">
        <ele>468.600006103515625</ele>
        <time>2018-08-16T08:23:19.000Z</time>
      </trkpt>
      <trkpt lat="47.85191413946449756622314453125" lon="9.01004232466220855712890625">
        <ele>468.600006103515625</ele>
        <time>2018-08-16T08:23:21.000Z</time>
      </trkpt>
      <trkpt lat="47.85194582305848598480224609375" lon="9.0100870840251445770263671875">
        <ele>468.600006103515625</ele>
        <time>2018-08-16T08:23:22.000Z</time>
      </trkpt>
      <trkpt lat="47.852038443088531494140625" lon="9.01021809317171573638916015625">
        <ele>468.79998779296875</ele>
        <time>2018-08-16T08:23:25.000Z</time>
      </trkpt>
      <trkpt lat="47.85209544003009796142578125" lon="9.0103197656571865081787109375">
        <ele>469</ele>
        <time>2018-08-16T08:23:27.000Z</time>
      </trkpt>
      <trkpt lat="47.85220683552324771881103515625" lon="9.01050291024148464202880859375">
        <ele>469.79998779296875</ele>
        <time>2018-08-16T08:23:31.000Z</time>
      </trkpt>
      <trkpt lat="47.85227657295763492584228515625" lon="9.0106315724551677703857421875">
        <ele>470.79998779296875</ele>
        <time>2018-08-16T08:23:34.000Z</time>
      </trkpt>
      <trkpt lat="47.852393500506877899169921875" lon="9.0107961930334568023681640625">
        <ele>472</ele>
        <time>2018-08-16T08:23:38.000Z</time>
      </trkpt>
      <trkpt lat="47.85249232314527034759521484375" lon="9.010934494435787200927734375">
        <ele>472.79998779296875</ele>
        <time>2018-08-16T08:23:41.000Z</time>
      </trkpt>
      <trkpt lat="47.852526605129241943359375" lon="9.01098319329321384429931640625">
        <ele>473.20001220703125</ele>
        <time>2018-08-16T08:23:42.000Z</time>
      </trkpt>
      <trkpt lat="47.85269265063107013702392578125" lon="9.01122408919036388397216796875">
        <ele>474</ele>
        <time>2018-08-16T08:23:47.000Z</time>
      </trkpt>
      <trkpt lat="47.8528835065662860870361328125" lon="9.011503793299198150634765625">
        <ele>475.20001220703125</ele>
        <time>2018-08-16T08:23:53.000Z</time>
      </trkpt>
      <trkpt lat="47.85304066725075244903564453125" lon="9.0117386542260646820068359375">
        <ele>476.20001220703125</ele>
        <time>2018-08-16T08:23:58.000Z</time>
      </trkpt>
      <trkpt lat="47.8531966544687747955322265625" lon="9.01197217404842376708984375">
        <ele>477</ele>
        <time>2018-08-16T08:24:03.000Z</time>
      </trkpt>
      <trkpt lat="47.8532234765589237213134765625" lon="9.01202036999166011810302734375">
        <ele>477.20001220703125</ele>
        <time>2018-08-16T08:24:04.000Z</time>
      </trkpt>
      <trkpt lat="47.85332389175891876220703125" lon="9.01223092339932918548583984375">
        <ele>477.79998779296875</ele>
        <time>2018-08-16T08:24:08.000Z</time>
      </trkpt>
      <trkpt lat="47.85336303524672985076904296875" lon="9.0123428218066692352294921875">
        <ele>478.20001220703125</ele>
        <time>2018-08-16T08:24:10.000Z</time>
      </trkpt>
      <trkpt lat="47.8534179367125034332275390625" lon="9.012525714933872222900390625">
        <ele>478.600006103515625</ele>
        <time>2018-08-16T08:24:13.000Z</time>
      </trkpt>
      <trkpt lat="47.85345858894288539886474609375" lon="9.0127694606781005859375">
        <ele>479.399993896484375</ele>
        <time>2018-08-16T08:24:17.000Z</time>
      </trkpt>
      <trkpt lat="47.8535225428640842437744140625" lon="9.01308855973184108734130859375">
        <ele>480.20001220703125</ele>
        <time>2018-08-16T08:24:22.000Z</time>
      </trkpt>
      <trkpt lat="47.85353922285139560699462890625" lon="9.0131543576717376708984375">
        <ele>480.399993896484375</ele>
        <time>2018-08-16T08:24:23.000Z</time>
      </trkpt>
      <trkpt lat="47.8535738401114940643310546875" lon="9.013288803398609161376953125">
        <ele>481</ele>
        <time>2018-08-16T08:24:25.000Z</time>
      </trkpt>
      <trkpt lat="47.85365724004805088043212890625" lon="9.01348871178925037384033203125">
        <ele>481.399993896484375</ele>
        <time>2018-08-16T08:24:28.000Z</time>
      </trkpt>
      <trkpt lat="47.8537498600780963897705078125" lon="9.0136988461017608642578125">
        <ele>482</ele>
        <time>2018-08-16T08:24:31.000Z</time>
      </trkpt>
      <trkpt lat="47.85386293195188045501708984375" lon="9.01386120356619358062744140625">
        <ele>482.20001220703125</ele>
        <time>2018-08-16T08:24:34.000Z</time>
      </trkpt>
      <trkpt lat="47.85400726832449436187744140625" lon="9.0140668116509914398193359375">
        <ele>483.399993896484375</ele>
        <time>2018-08-16T08:24:38.000Z</time>
      </trkpt>
      <trkpt lat="47.85408069379627704620361328125" lon="9.01414618827402591705322265625">
        <ele>484</ele>
        <time>2018-08-16T08:24:40.000Z</time>
      </trkpt>
      <trkpt lat="47.8541461564600467681884765625" lon="9.0142237208783626556396484375">
        <ele>484.600006103515625</ele>
        <time>2018-08-16T08:24:42.000Z</time>
      </trkpt>
      <trkpt lat="47.8540760837495326995849609375" lon="9.01456109248101711273193359375">
        <ele>486</ele>
        <time>2018-08-16T08:24:48.000Z</time>
      </trkpt>
      <trkpt lat="47.8540301509201526641845703125" lon="9.01466754265129566192626953125">
        <ele>486.399993896484375</ele>
        <time>2018-08-16T08:24:50.000Z</time>
      </trkpt>
      <trkpt lat="47.85405068658292293548583984375" lon="9.01485152542591094970703125">
        <ele>487</ele>
        <time>2018-08-16T08:24:53.000Z</time>
      </trkpt>
      <trkpt lat="47.85416610538959503173828125" lon="9.01499041356146335601806640625">
        <ele>487.399993896484375</ele>
        <time>2018-08-16T08:24:56.000Z</time>
      </trkpt>
      <trkpt lat="47.854350171983242034912109375" lon="9.0151588059961795806884765625">
        <ele>488</ele>
        <time>2018-08-16T08:25:00.000Z</time>
      </trkpt>
      <trkpt lat="47.85447481088340282440185546875" lon="9.01531211100518703460693359375">
        <ele>488.399993896484375</ele>
        <time>2018-08-16T08:25:03.000Z</time>
      </trkpt>
      <trkpt lat="47.8548265993595123291015625" lon="9.0158446133136749267578125">
        <ele>489</ele>
        <time>2018-08-16T08:25:12.000Z</time>
      </trkpt>
      <trkpt lat="47.85486347973346710205078125" lon="9.01590404100716114044189453125">
        <ele>489</ele>
        <time>2018-08-16T08:25:13.000Z</time>
      </trkpt>
      <trkpt lat="47.8552262485027313232421875" lon="9.01652765460312366485595703125">
        <ele>489.600006103515625</ele>
        <time>2018-08-16T08:25:23.000Z</time>
      </trkpt>
      <trkpt lat="47.855364382266998291015625" lon="9.01676586829125881195068359375">
        <ele>490.399993896484375</ele>
        <time>2018-08-16T08:25:27.000Z</time>
      </trkpt>
      <trkpt lat="47.8556270711123943328857421875" lon="9.017215557396411895751953125">
        <ele>491.399993896484375</ele>
        <time>2018-08-16T08:25:35.000Z</time>
      </trkpt>
      <trkpt lat="47.8557573258876800537109375" lon="9.0174356661736965179443359375">
        <ele>492.20001220703125</ele>
        <time>2018-08-16T08:25:39.000Z</time>
      </trkpt>
      <trkpt lat="47.85581574775278568267822265625" lon="9.0175483189523220062255859375">
        <ele>492.399993896484375</ele>
        <time>2018-08-16T08:25:41.000Z</time>
      </trkpt>
      <trkpt lat="47.85586955957114696502685546875" lon="9.01766491122543811798095703125">
        <ele>493</ele>
        <time>2018-08-16T08:25:43.000Z</time>
      </trkpt>
      <trkpt lat="47.8558973036706447601318359375" lon="9.0177219919860363006591796875">
        <ele>493.20001220703125</ele>
        <time>2018-08-16T08:25:44.000Z</time>
      </trkpt>
      <trkpt lat="47.85596184432506561279296875" lon="9.01782131753861904144287109375">
        <ele>493.79998779296875</ele>
        <time>2018-08-16T08:25:46.000Z</time>
      </trkpt>
      <trkpt lat="47.85609687678515911102294921875" lon="9.0180136822164058685302734375">
        <ele>495</ele>
        <time>2018-08-16T08:25:50.000Z</time>
      </trkpt>
      <trkpt lat="47.85625822842121124267578125" lon="9.0182210505008697509765625">
        <ele>496.20001220703125</ele>
        <time>2018-08-16T08:25:55.000Z</time>
      </trkpt>
      <trkpt lat="47.8563851304352283477783203125" lon="9.0183663927018642425537109375">
        <ele>497.399993896484375</ele>
        <time>2018-08-16T08:25:59.000Z</time>
      </trkpt>
      <trkpt lat="47.85651563666760921478271484375" lon="9.01847141794860363006591796875">
        <ele>498.600006103515625</ele>
        <time>2018-08-16T08:26:03.000Z</time>
      </trkpt>
      <trkpt lat="47.85662342794239521026611328125" lon="9.01853662915527820587158203125">
        <ele>499.600006103515625</ele>
        <time>2018-08-16T08:26:06.000Z</time>
      </trkpt>
      <trkpt lat="47.8567685186862945556640625" lon="9.018605612218379974365234375">
        <ele>500.600006103515625</ele>
        <time>2018-08-16T08:26:10.000Z</time>
      </trkpt>
      <trkpt lat="47.8569437004625797271728515625" lon="9.0187113918364048004150390625">
        <ele>501.79998779296875</ele>
        <time>2018-08-16T08:26:15.000Z</time>
      </trkpt>
      <trkpt lat="47.8570811636745929718017578125" lon="9.0187828056514263153076171875">
        <ele>503</ele>
        <time>2018-08-16T08:26:19.000Z</time>
      </trkpt>
      <trkpt lat="47.85718015395104885101318359375" lon="9.01883862912654876708984375">
        <ele>504</ele>
        <time>2018-08-16T08:26:22.000Z</time>
      </trkpt>
      <trkpt lat="47.85728191025555133819580078125" lon="9.0188996493816375732421875">
        <ele>505.20001220703125</ele>
        <time>2018-08-16T08:26:25.000Z</time>
      </trkpt>
      <trkpt lat="47.857415266335010528564453125" lon="9.01898221112787723541259765625">
        <ele>506.20001220703125</ele>
        <time>2018-08-16T08:26:29.000Z</time>
      </trkpt>
      <trkpt lat="47.8575448505580425262451171875" lon="9.019059576094150543212890625">
        <ele>507.20001220703125</ele>
        <time>2018-08-16T08:26:33.000Z</time>
      </trkpt>
      <trkpt lat="47.857634536921977996826171875" lon="9.019110538065433502197265625">
        <ele>508.399993896484375</ele>
        <time>2018-08-16T08:26:36.000Z</time>
      </trkpt>
      <trkpt lat="47.8577564097940921783447265625" lon="9.01917784474790096282958984375">
        <ele>509.600006103515625</ele>
        <time>2018-08-16T08:26:40.000Z</time>
      </trkpt>
      <trkpt lat="47.857911475002765655517578125" lon="9.01926350779831409454345703125">
        <ele>510.79998779296875</ele>
        <time>2018-08-16T08:26:45.000Z</time>
      </trkpt>
      <trkpt lat="47.8580682165920734405517578125" lon="9.01935361325740814208984375">
        <ele>512</ele>
        <time>2018-08-16T08:26:50.000Z</time>
      </trkpt>
      <trkpt lat="47.85821783356368541717529296875" lon="9.0194355882704257965087890625">
        <ele>513.20001220703125</ele>
        <time>2018-08-16T08:26:55.000Z</time>
      </trkpt>
      <trkpt lat="47.85838966257870197296142578125" lon="9.01950155384838581085205078125">
        <ele>514.4000244140625</ele>
        <time>2018-08-16T08:27:00.000Z</time>
      </trkpt>
      <trkpt lat="47.85852377302944660186767578125" lon="9.01955402456223964691162109375">
        <ele>515.4000244140625</ele>
        <time>2018-08-16T08:27:04.000Z</time>
      </trkpt>
      <trkpt lat="47.85862904973328113555908203125" lon="9.019581936299800872802734375">
        <ele>516.4000244140625</ele>
        <time>2018-08-16T08:27:07.000Z</time>
      </trkpt>
      <trkpt lat="47.85877791233360767364501953125" lon="9.0195970237255096435546875">
        <ele>517.5999755859375</ele>
        <time>2018-08-16T08:27:11.000Z</time>
      </trkpt>
      <trkpt lat="47.85892912186682224273681640625" lon="9.019585959613323211669921875">
        <ele>518.5999755859375</ele>
        <time>2018-08-16T08:27:15.000Z</time>
      </trkpt>
      <trkpt lat="47.85907379351556301116943359375" lon="9.019561149179935455322265625">
        <ele>519.79998779296875</ele>
        <time>2018-08-16T08:27:19.000Z</time>
      </trkpt>
      <trkpt lat="47.8592607937753200531005859375" lon="9.019523598253726959228515625">
        <ele>521</ele>
        <time>2018-08-16T08:27:24.000Z</time>
      </trkpt>
      <trkpt lat="47.85941409878432750701904296875" lon="9.01948981918394565582275390625">
        <ele>522</ele>
        <time>2018-08-16T08:27:28.000Z</time>
      </trkpt>
      <trkpt lat="47.8596037812530994415283203125" lon="9.01945964433252811431884765625">
        <ele>523</ele>
        <time>2018-08-16T08:27:33.000Z</time>
      </trkpt>
      <trkpt lat="47.85976328887045383453369140625" lon="9.01944589801132678985595703125">
        <ele>524</ele>
        <time>2018-08-16T08:27:37.000Z</time>
      </trkpt>
      <trkpt lat="47.8599756024777889251708984375" lon="9.0194674395024776458740234375">
        <ele>525</ele>
        <time>2018-08-16T08:27:42.000Z</time>
      </trkpt>
      <trkpt lat="47.86024357192218303680419921875" lon="9.01955402456223964691162109375">
        <ele>526.4000244140625</ele>
        <time>2018-08-16T08:27:49.000Z</time>
      </trkpt>
      <trkpt lat="47.860365025699138641357421875" lon="9.01963122189044952392578125">
        <ele>527.20001220703125</ele>
        <time>2018-08-16T08:27:53.000Z</time>
      </trkpt>
      <trkpt lat="47.86038405261933803558349609375" lon="9.01968226768076419830322265625">
        <ele>527.20001220703125</ele>
        <time>2018-08-16T08:27:54.000Z</time>
      </trkpt>
      <trkpt lat="47.86039930768311023712158203125" lon="9.01974814943969249725341796875">
        <ele>527.5999755859375</ele>
        <time>2018-08-16T08:27:55.000Z</time>
      </trkpt>
      <trkpt lat="47.8605348430573940277099609375" lon="9.019933640956878662109375">
        <ele>528.5999755859375</ele>
        <time>2018-08-16T08:27:59.000Z</time>
      </trkpt>
      <trkpt lat="47.860583961009979248046875" lon="9.01995652355253696441650390625">
        <ele>528.79998779296875</ele>
        <time>2018-08-16T08:28:00.000Z</time>
      </trkpt>
      <trkpt lat="47.8606300614774227142333984375" lon="9.01998518966138362884521484375">
        <ele>529</ele>
        <time>2018-08-16T08:28:01.000Z</time>
      </trkpt>
      <trkpt lat="47.860923595726490020751953125" lon="9.0202778019011020660400390625">
        <ele>529.5999755859375</ele>
        <time>2018-08-16T08:28:08.000Z</time>
      </trkpt>
      <trkpt lat="47.86119994707405567169189453125" lon="9.02060159482061862945556640625">
        <ele>530.79998779296875</ele>
        <time>2018-08-16T08:28:15.000Z</time>
      </trkpt>
      <trkpt lat="47.8613230772316455841064453125" lon="9.0207424946129322052001953125">
        <ele>531.20001220703125</ele>
        <time>2018-08-16T08:28:18.000Z</time>
      </trkpt>
      <trkpt lat="47.861602194607257843017578125" lon="9.02097224257886409759521484375">
        <ele>531.5999755859375</ele>
        <time>2018-08-16T08:28:24.000Z</time>
      </trkpt>
      <trkpt lat="47.86169548518955707550048828125" lon="9.02104516513645648956298828125">
        <ele>531.79998779296875</ele>
        <time>2018-08-16T08:28:26.000Z</time>
      </trkpt>
      <trkpt lat="47.862003184854984283447265625" lon="9.0212224423885345458984375">
        <ele>532.79998779296875</ele>
        <time>2018-08-16T08:28:32.000Z</time>
      </trkpt>
      <trkpt lat="47.8620569966733455657958984375" lon="9.021244905889034271240234375">
        <ele>533</ele>
        <time>2018-08-16T08:28:33.000Z</time>
      </trkpt>
      <trkpt lat="47.8621103055775165557861328125" lon="9.0212672017514705657958984375">
        <ele>533.20001220703125</ele>
        <time>2018-08-16T08:28:34.000Z</time>
      </trkpt>
      <trkpt lat="47.86249428056180477142333984375" lon="9.021412543952465057373046875">
        <ele>533.5999755859375</ele>
        <time>2018-08-16T08:28:41.000Z</time>
      </trkpt>
      <trkpt lat="47.862911783158779144287109375" lon="9.02158462442457675933837890625">
        <ele>533.79998779296875</ele>
        <time>2018-08-16T08:28:48.000Z</time>
      </trkpt>
      <trkpt lat="47.86303214728832244873046875" lon="9.0216349996626377105712890625">
        <ele>533.79998779296875</ele>
        <time>2018-08-16T08:28:50.000Z</time>
      </trkpt>
      <trkpt lat="47.8631446324288845062255859375" lon="9.02169526554644107818603515625">
        <ele>533.79998779296875</ele>
        <time>2018-08-16T08:28:52.000Z</time>
      </trkpt>
      <trkpt lat="47.86319869570434093475341796875" lon="9.0217241831123828887939453125">
        <ele>533.79998779296875</ele>
        <time>2018-08-16T08:28:53.000Z</time>
      </trkpt>
      <trkpt lat="47.86325233988463878631591796875" lon="9.02175687253475189208984375">
        <ele>533.79998779296875</ele>
        <time>2018-08-16T08:28:54.000Z</time>
      </trkpt>
      <trkpt lat="47.863306738436222076416015625" lon="9.0217935852706432342529296875">
        <ele>534</ele>
        <time>2018-08-16T08:28:55.000Z</time>
      </trkpt>
      <trkpt lat="47.8634185530245304107666015625" lon="9.02187195606529712677001953125">
        <ele>534</ele>
        <time>2018-08-16T08:28:57.000Z</time>
      </trkpt>
      <trkpt lat="47.8635312058031558990478515625" lon="9.0219538472592830657958984375">
        <ele>534</ele>
        <time>2018-08-16T08:28:59.000Z</time>
      </trkpt>
      <trkpt lat="47.8637449443340301513671875" lon="9.02213229797780513763427734375">
        <ele>534.20001220703125</ele>
        <time>2018-08-16T08:29:03.000Z</time>
      </trkpt>
      <trkpt lat="47.8637947328388690948486328125" lon="9.022175632417201995849609375">
        <ele>534.4000244140625</ele>
        <time>2018-08-16T08:29:04.000Z</time>
      </trkpt>
      <trkpt lat="47.86389405839145183563232421875" lon="9.022254757583141326904296875">
        <ele>534.5999755859375</ele>
        <time>2018-08-16T08:29:06.000Z</time>
      </trkpt>
      <trkpt lat="47.86398894153535366058349609375" lon="9.0223340503871440887451171875">
        <ele>534.79998779296875</ele>
        <time>2018-08-16T08:29:08.000Z</time>
      </trkpt>
      <trkpt lat="47.86407678388059139251708984375" lon="9.02241694740951061248779296875">
        <ele>535</ele>
        <time>2018-08-16T08:29:10.000Z</time>
      </trkpt>
      <trkpt lat="47.864116095006465911865234375" lon="9.02246019802987575531005859375">
        <ele>535.20001220703125</ele>
        <time>2018-08-16T08:29:11.000Z</time>
      </trkpt>
      <trkpt lat="47.86428398452699184417724609375" lon="9.02268282137811183929443359375">
        <ele>536</ele>
        <time>2018-08-16T08:29:16.000Z</time>
      </trkpt>
      <trkpt lat="47.86431633867323398590087890625" lon="9.02272154577076435089111328125">
        <ele>536.20001220703125</ele>
        <time>2018-08-16T08:29:17.000Z</time>
      </trkpt>
      <trkpt lat="47.86440468393266201019287109375" lon="9.02284811250865459442138671875">
        <ele>536.79998779296875</ele>
        <time>2018-08-16T08:29:20.000Z</time>
      </trkpt>
      <trkpt lat="47.86446721293032169342041015625" lon="9.0229403972625732421875">
        <ele>537.5999755859375</ele>
        <time>2018-08-16T08:29:22.000Z</time>
      </trkpt>
      <trkpt lat="47.8645749203860759735107421875" lon="9.02307408861815929412841796875">
        <ele>538.79998779296875</ele>
        <time>2018-08-16T08:29:25.000Z</time>
      </trkpt>
      <trkpt lat="47.86474876105785369873046875" lon="9.0232996456325054168701171875">
        <ele>539.79998779296875</ele>
        <time>2018-08-16T08:29:30.000Z</time>
      </trkpt>
      <trkpt lat="47.8649621643126010894775390625" lon="9.023552946746349334716796875">
        <ele>540.79998779296875</ele>
        <time>2018-08-16T08:29:36.000Z</time>
      </trkpt>
      <trkpt lat="47.865115888416767120361328125" lon="9.02370943687856197357177734375">
        <ele>542</ele>
        <time>2018-08-16T08:29:40.000Z</time>
      </trkpt>
      <trkpt lat="47.8652736358344554901123046875" lon="9.0238605625927448272705078125">
        <ele>542.79998779296875</ele>
        <time>2018-08-16T08:29:44.000Z</time>
      </trkpt>
      <trkpt lat="47.865361981093883514404296875" lon="9.0239366702735424041748046875">
        <ele>543.20001220703125</ele>
        <time>2018-08-16T08:29:46.000Z</time>
      </trkpt>
      <trkpt lat="47.86564084701240062713623046875" lon="9.02414177544414997100830078125">
        <ele>544</ele>
        <time>2018-08-16T08:29:52.000Z</time>
      </trkpt>
      <trkpt lat="47.8657876141369342803955078125" lon="9.02423732914030551910400390625">
        <ele>544</ele>
        <time>2018-08-16T08:29:55.000Z</time>
      </trkpt>
      <trkpt lat="47.86588526330888271331787109375" lon="9.0243115089833736419677734375">
        <ele>544.20001220703125</ele>
        <time>2018-08-16T08:29:57.000Z</time>
      </trkpt>
      <trkpt lat="47.86597662605345249176025390625" lon="9.02438166551291942596435546875">
        <ele>544.20001220703125</ele>
        <time>2018-08-16T08:29:59.000Z</time>
      </trkpt>
      <trkpt lat="47.86609196104109287261962890625" lon="9.02445861138403415679931640625">
        <ele>544.20001220703125</ele>
        <time>2018-08-16T08:30:02.000Z</time>
      </trkpt>
      <trkpt lat="47.8661245666444301605224609375" lon="9.02448107488453388214111328125">
        <ele>544.4000244140625</ele>
        <time>2018-08-16T08:30:03.000Z</time>
      </trkpt>
      <trkpt lat="47.8661580942571163177490234375" lon="9.0245036222040653228759765625">
        <ele>544.4000244140625</ele>
        <time>2018-08-16T08:30:04.000Z</time>
      </trkpt>
      <trkpt lat="47.86621903069317340850830078125" lon="9.02456824667751789093017578125">
        <ele>544.4000244140625</ele>
        <time>2018-08-16T08:30:06.000Z</time>
      </trkpt>
      <trkpt lat="47.866261191666126251220703125" lon="9.0246635489165782928466796875">
        <ele>544.5999755859375</ele>
        <time>2018-08-16T08:30:08.000Z</time>
      </trkpt>
      <trkpt lat="47.86628776229918003082275390625" lon="9.02469481341540813446044921875">
        <ele>544.79998779296875</ele>
        <time>2018-08-16T08:30:09.000Z</time>
      </trkpt>
      <trkpt lat="47.86633486859500408172607421875" lon="9.0246541611850261688232421875">
        <ele>545</ele>
        <time>2018-08-16T08:30:11.000Z</time>
      </trkpt>
      <trkpt lat="47.8663803823292255401611328125" lon="9.02459540404379367828369140625">
        <ele>545.4000244140625</ele>
        <time>2018-08-16T08:30:13.000Z</time>
      </trkpt>
      <trkpt lat="47.86644391715526580810546875" lon="9.0245924703776836395263671875">
        <ele>545.5999755859375</ele>
        <time>2018-08-16T08:30:15.000Z</time>
      </trkpt>
      <trkpt lat="47.866479791700839996337890625" lon="9.02460982091724872589111328125">
        <ele>545.79998779296875</ele>
        <time>2018-08-16T08:30:16.000Z</time>
      </trkpt>
      <trkpt lat="47.86655514501035213470458984375" lon="9.02464468963444232940673828125">
        <ele>546</ele>
        <time>2018-08-16T08:30:18.000Z</time>
      </trkpt>
      <trkpt lat="47.8668155707418918609619140625" lon="9.0247456915676593780517578125">
        <ele>547</ele>
        <time>2018-08-16T08:30:24.000Z</time>
      </trkpt>
      <trkpt lat="47.86699418909847736358642578125" lon="9.02480042539536952972412109375">
        <ele>548</ele>
        <time>2018-08-16T08:30:28.000Z</time>
      </trkpt>
      <trkpt lat="47.86704003810882568359375" lon="9.024816267192363739013671875">
        <ele>548.20001220703125</ele>
        <time>2018-08-16T08:30:29.000Z</time>
      </trkpt>
      <trkpt lat="47.867265008389949798583984375" lon="9.0248838253319263458251953125">
        <ele>549.20001220703125</ele>
        <time>2018-08-16T08:30:34.000Z</time>
      </trkpt>
      <trkpt lat="47.8673986159265041351318359375" lon="9.0248979069292545318603515625">
        <ele>549.79998779296875</ele>
        <time>2018-08-16T08:30:37.000Z</time>
      </trkpt>
      <trkpt lat="47.8675344027578830718994140625" lon="9.02490721084177494049072265625">
        <ele>550.4000244140625</ele>
        <time>2018-08-16T08:30:40.000Z</time>
      </trkpt>
      <trkpt lat="47.86773414351046085357666015625" lon="9.024915508925914764404296875">
        <ele>551.5999755859375</ele>
        <time>2018-08-16T08:30:45.000Z</time>
      </trkpt>
      <trkpt lat="47.86777387373149394989013671875" lon="9.024918191134929656982421875">
        <ele>551.79998779296875</ele>
        <time>2018-08-16T08:30:46.000Z</time>
      </trkpt>
      <trkpt lat="47.8678415156900882720947265625" lon="9.02492992579936981201171875">
        <ele>552.4000244140625</ele>
        <time>2018-08-16T08:30:48.000Z</time>
      </trkpt>
      <trkpt lat="47.8678755462169647216796875" lon="9.0249364636838436126708984375">
        <ele>552.5999755859375</ele>
        <time>2018-08-16T08:30:49.000Z</time>
      </trkpt>
      <trkpt lat="47.8679613769054412841796875" lon="9.0249448455870151519775390625">
        <ele>553.4000244140625</ele>
        <time>2018-08-16T08:30:51.000Z</time>
      </trkpt>
      <trkpt lat="47.86800437606871128082275390625" lon="9.0249461866915225982666015625">
        <ele>553.5999755859375</ele>
        <time>2018-08-16T08:30:52.000Z</time>
      </trkpt>
      <trkpt lat="47.8681999258697032928466796875" lon="9.02493394911289215087890625">
        <ele>554.79998779296875</ele>
        <time>2018-08-16T08:30:57.000Z</time>
      </trkpt>
      <trkpt lat="47.86839924752712249755859375" lon="9.0249374695122241973876953125">
        <ele>556</ele>
        <time>2018-08-16T08:31:02.000Z</time>
      </trkpt>
      <trkpt lat="47.868642993271350860595703125" lon="9.02500662021338939666748046875">
        <ele>557.20001220703125</ele>
        <time>2018-08-16T08:31:08.000Z</time>
      </trkpt>
      <trkpt lat="47.8688597492873668670654296875" lon="9.02505171485245227813720703125">
        <ele>558</ele>
        <time>2018-08-16T08:31:13.000Z</time>
      </trkpt>
      <trkpt lat="47.86894499324262142181396484375" lon="9.02507451362907886505126953125">
        <ele>558.20001220703125</ele>
        <time>2018-08-16T08:31:15.000Z</time>
      </trkpt>
      <trkpt lat="47.86920416168868541717529296875" lon="9.02519202791154384613037109375">
        <ele>559.20001220703125</ele>
        <time>2018-08-16T08:31:20.000Z</time>
      </trkpt>
      <trkpt lat="47.8696402721107006072998046875" lon="9.02533586136996746063232421875">
        <ele>560.20001220703125</ele>
        <time>2018-08-16T08:31:28.000Z</time>
      </trkpt>
      <trkpt lat="47.87009499035775661468505859375" lon="9.0255231969058513641357421875">
        <ele>561.20001220703125</ele>
        <time>2018-08-16T08:31:36.000Z</time>
      </trkpt>
      <trkpt lat="47.87053118459880352020263671875" lon="9.025812037289142608642578125">
        <ele>562.20001220703125</ele>
        <time>2018-08-16T08:31:44.000Z</time>
      </trkpt>
      <trkpt lat="47.8706360422074794769287109375" lon="9.02589661069214344024658203125">
        <ele>562.4000244140625</ele>
        <time>2018-08-16T08:31:46.000Z</time>
      </trkpt>
      <trkpt lat="47.8710915148258209228515625" lon="9.02637387625873088836669921875">
        <ele>563</ele>
        <time>2018-08-16T08:31:55.000Z</time>
      </trkpt>
      <trkpt lat="47.871276251971721649169921875" lon="9.0266205556690692901611328125">
        <ele>563.20001220703125</ele>
        <time>2018-08-16T08:31:59.000Z</time>
      </trkpt>
      <trkpt lat="47.8714078478515148162841796875" lon="9.026815183460712432861328125">
        <ele>563.5999755859375</ele>
        <time>2018-08-16T08:32:02.000Z</time>
      </trkpt>
      <trkpt lat="47.87160960026085376739501953125" lon="9.0271694026887416839599609375">
        <ele>564</ele>
        <time>2018-08-16T08:32:07.000Z</time>
      </trkpt>
      <trkpt lat="47.87164715118706226348876953125" lon="9.02724559418857097625732421875">
        <ele>564.20001220703125</ele>
        <time>2018-08-16T08:32:08.000Z</time>
      </trkpt>
      <trkpt lat="47.87182501517236232757568359375" lon="9.027639292180538177490234375">
        <ele>564.20001220703125</ele>
        <time>2018-08-16T08:32:13.000Z</time>
      </trkpt>
      <trkpt lat="47.87197538651525974273681640625" lon="9.02805897407233715057373046875">
        <ele>564.5999755859375</ele>
        <time>2018-08-16T08:32:18.000Z</time>
      </trkpt>
      <trkpt lat="47.87210145033895969390869140625" lon="9.02851293794810771942138671875">
        <ele>565.20001220703125</ele>
        <time>2018-08-16T08:32:23.000Z</time>
      </trkpt>
      <trkpt lat="47.87219566293060779571533203125" lon="9.02897193096578121185302734375">
        <ele>565.5999755859375</ele>
        <time>2018-08-16T08:32:28.000Z</time>
      </trkpt>
      <trkpt lat="47.8722099959850311279296875" lon="9.02906396426260471343994140625">
        <ele>565.5999755859375</ele>
        <time>2018-08-16T08:32:29.000Z</time>
      </trkpt>
      <trkpt lat="47.872272692620754241943359375" lon="9.02952932752668857574462890625">
        <ele>566.4000244140625</ele>
        <time>2018-08-16T08:32:34.000Z</time>
      </trkpt>
      <trkpt lat="47.8723030351102352142333984375" lon="9.02990248985588550567626953125">
        <ele>566.79998779296875</ele>
        <time>2018-08-16T08:32:38.000Z</time>
      </trkpt>
      <trkpt lat="47.8723387420177459716796875" lon="9.03045393526554107666015625">
        <ele>567.79998779296875</ele>
        <time>2018-08-16T08:32:44.000Z</time>
      </trkpt>
      <trkpt lat="47.87235081195831298828125" lon="9.030817039310932159423828125">
        <ele>568</ele>
        <time>2018-08-16T08:32:48.000Z</time>
      </trkpt>
      <trkpt lat="47.8723667375743389129638671875" lon="9.0310827456414699554443359375">
        <ele>568.20001220703125</ele>
        <time>2018-08-16T08:32:51.000Z</time>
      </trkpt>
      <trkpt lat="47.8724057972431182861328125" lon="9.03168733231723308563232421875">
        <ele>568.79998779296875</ele>
        <time>2018-08-16T08:32:58.000Z</time>
      </trkpt>
      <trkpt lat="47.87246639840304851531982421875" lon="9.0322126261889934539794921875">
        <ele>569.79998779296875</ele>
        <time>2018-08-16T08:33:04.000Z</time>
      </trkpt>
      <trkpt lat="47.8725984133780002593994140625" lon="9.0328466333448886871337890625">
        <ele>570.5999755859375</ele>
        <time>2018-08-16T08:33:12.000Z</time>
      </trkpt>
      <trkpt lat="47.87271969951689243316650390625" lon="9.03326799161732196807861328125">
        <ele>572</ele>
        <time>2018-08-16T08:33:18.000Z</time>
      </trkpt>
      <trkpt lat="47.8727854974567890167236328125" lon="9.03346815146505832672119140625">
        <ele>572.4000244140625</ele>
        <time>2018-08-16T08:33:21.000Z</time>
      </trkpt>
      <trkpt lat="47.87288683466613292694091796875" lon="9.03371793217957019805908203125">
        <ele>573.20001220703125</ele>
        <time>2018-08-16T08:33:25.000Z</time>
      </trkpt>
      <trkpt lat="47.87301172502338886260986328125" lon="9.0339848957955837249755859375">
        <ele>574.20001220703125</ele>
        <time>2018-08-16T08:33:30.000Z</time>
      </trkpt>
      <trkpt lat="47.87303812801837921142578125" lon="9.03403426520526409149169921875">
        <ele>574.4000244140625</ele>
        <time>2018-08-16T08:33:31.000Z</time>
      </trkpt>
      <trkpt lat="47.87314382381737232208251953125" lon="9.03422486968338489532470703125">
        <ele>575.4000244140625</ele>
        <time>2018-08-16T08:33:35.000Z</time>
      </trkpt>
      <trkpt lat="47.87322680465877056121826171875" lon="9.03436057269573211669921875">
        <ele>576.20001220703125</ele>
        <time>2018-08-16T08:33:38.000Z</time>
      </trkpt>
      <trkpt lat="47.87325345911085605621337890625" lon="9.0344033204019069671630859375">
        <ele>576.4000244140625</ele>
        <time>2018-08-16T08:33:39.000Z</time>
      </trkpt>
      <trkpt lat="47.87335605360567569732666015625" lon="9.03459752909839153289794921875">
        <ele>578</ele>
        <time>2018-08-16T08:33:43.000Z</time>
      </trkpt>
      <trkpt lat="47.87346116267144680023193359375" lon="9.0347657538950443267822265625">
        <ele>579</ele>
        <time>2018-08-16T08:33:47.000Z</time>
      </trkpt>
      <trkpt lat="47.87356543354690074920654296875" lon="9.03491537086665630340576171875">
        <ele>580.20001220703125</ele>
        <time>2018-08-16T08:33:51.000Z</time>
      </trkpt>
      <trkpt lat="47.8736920841038227081298828125" lon="9.03507538139820098876953125">
        <ele>581.4000244140625</ele>
        <time>2018-08-16T08:33:56.000Z</time>
      </trkpt>
      <trkpt lat="47.873794175684452056884765625" lon="9.035199098289012908935546875">
        <ele>582.5999755859375</ele>
        <time>2018-08-16T08:34:00.000Z</time>
      </trkpt>
      <trkpt lat="47.87389970384538173675537109375" lon="9.0353115834295749664306640625">
        <ele>583.79998779296875</ele>
        <time>2018-08-16T08:34:04.000Z</time>
      </trkpt>
      <trkpt lat="47.87400280125439167022705078125" lon="9.0354188717901706695556640625">
        <ele>584.79998779296875</ele>
        <time>2018-08-16T08:34:08.000Z</time>
      </trkpt>
      <trkpt lat="47.8741078265011310577392578125" lon="9.0355186164379119873046875">
        <ele>586</ele>
        <time>2018-08-16T08:34:12.000Z</time>
      </trkpt>
      <trkpt lat="47.87418938241899013519287109375" lon="9.03558776713907718658447265625">
        <ele>587.20001220703125</ele>
        <time>2018-08-16T08:34:15.000Z</time>
      </trkpt>
      <trkpt lat="47.874298430979251861572265625" lon="9.03567125089466571807861328125">
        <ele>588.20001220703125</ele>
        <time>2018-08-16T08:34:19.000Z</time>
      </trkpt>
      <trkpt lat="47.8744112513959407806396484375" lon="9.03574769385159015655517578125">
        <ele>589.4000244140625</ele>
        <time>2018-08-16T08:34:23.000Z</time>
      </trkpt>
      <trkpt lat="47.87452675402164459228515625" lon="9.035823047161102294921875">
        <ele>590.4000244140625</ele>
        <time>2018-08-16T08:34:27.000Z</time>
      </trkpt>
      <trkpt lat="47.87464234046638011932373046875" lon="9.03588700108230113983154296875">
        <ele>591.4000244140625</ele>
        <time>2018-08-16T08:34:31.000Z</time>
      </trkpt>
      <trkpt lat="47.87475348450243473052978515625" lon="9.03594114817678928375244140625">
        <ele>592.5999755859375</ele>
        <time>2018-08-16T08:34:35.000Z</time>
      </trkpt>
      <trkpt lat="47.874891199171543121337890625" lon="9.03600074350833892822265625">
        <ele>593.5999755859375</ele>
        <time>2018-08-16T08:34:40.000Z</time>
      </trkpt>
      <trkpt lat="47.87497476674616336822509765625" lon="9.03602899052202701568603515625">
        <ele>594.79998779296875</ele>
        <time>2018-08-16T08:34:43.000Z</time>
      </trkpt>
      <trkpt lat="47.875111140310764312744140625" lon="9.0360837243497371673583984375">
        <ele>596</ele>
        <time>2018-08-16T08:34:48.000Z</time>
      </trkpt>
      <trkpt lat="47.875229828059673309326171875" lon="9.03612010180950164794921875">
        <ele>597.20001220703125</ele>
        <time>2018-08-16T08:34:52.000Z</time>
      </trkpt>
      <trkpt lat="47.87537525407969951629638671875" lon="9.03615790419280529022216796875">
        <ele>598.4000244140625</ele>
        <time>2018-08-16T08:34:57.000Z</time>
      </trkpt>
      <trkpt lat="47.87548656575381755828857421875" lon="9.036180786788463592529296875">
        <ele>599.4000244140625</ele>
        <time>2018-08-16T08:35:01.000Z</time>
      </trkpt>
      <trkpt lat="47.87560726515948772430419921875" lon="9.03621054254472255706787109375">
        <ele>600.5999755859375</ele>
        <time>2018-08-16T08:35:05.000Z</time>
      </trkpt>
      <trkpt lat="47.87576165981590747833251953125" lon="9.03623946011066436767578125">
        <ele>601.79998779296875</ele>
        <time>2018-08-16T08:35:10.000Z</time>
      </trkpt>
      <trkpt lat="47.87588571198284626007080078125" lon="9.03625614009797573089599609375">
        <ele>603</ele>
        <time>2018-08-16T08:35:14.000Z</time>
      </trkpt>
      <trkpt lat="47.8760080039501190185546875" lon="9.0362728200852870941162109375">
        <ele>604.20001220703125</ele>
        <time>2018-08-16T08:35:18.000Z</time>
      </trkpt>
      <trkpt lat="47.8761328943073749542236328125" lon="9.0362926013767719268798828125">
        <ele>605.4000244140625</ele>
        <time>2018-08-16T08:35:22.000Z</time>
      </trkpt>
      <trkpt lat="47.87629508413374423980712890625" lon="9.0363093651831150054931640625">
        <ele>606.5999755859375</ele>
        <time>2018-08-16T08:35:27.000Z</time>
      </trkpt>
      <trkpt lat="47.87642785347998142242431640625" lon="9.0363221056759357452392578125">
        <ele>607.5999755859375</ele>
        <time>2018-08-16T08:35:31.000Z</time>
      </trkpt>
      <trkpt lat="47.87656523287296295166015625" lon="9.036332666873931884765625">
        <ele>608.79998779296875</ele>
        <time>2018-08-16T08:35:35.000Z</time>
      </trkpt>
      <trkpt lat="47.87674351595342159271240234375" lon="9.03635420836508274078369140625">
        <ele>610.20001220703125</ele>
        <time>2018-08-16T08:35:40.000Z</time>
      </trkpt>
      <trkpt lat="47.8769191168248653411865234375" lon="9.03637365438044071197509765625">
        <ele>611.4000244140625</ele>
        <time>2018-08-16T08:35:45.000Z</time>
      </trkpt>
      <trkpt lat="47.87709672935307025909423828125" lon="9.03639075346291065216064453125">
        <ele>612.5999755859375</ele>
        <time>2018-08-16T08:35:50.000Z</time>
      </trkpt>
      <trkpt lat="47.87727442570030689239501953125" lon="9.036419503390789031982421875">
        <ele>613.5999755859375</ele>
        <time>2018-08-16T08:35:55.000Z</time>
      </trkpt>
      <trkpt lat="47.87745631299912929534912109375" lon="9.03645177371799945831298828125">
        <ele>614.79998779296875</ele>
        <time>2018-08-16T08:36:00.000Z</time>
      </trkpt>
      <trkpt lat="47.8776101209223270416259765625" lon="9.03649158775806427001953125">
        <ele>615.5999755859375</ele>
        <time>2018-08-16T08:36:04.000Z</time>
      </trkpt>
      <trkpt lat="47.877692095935344696044921875" lon="9.0365128777921199798583984375">
        <ele>616</ele>
        <time>2018-08-16T08:36:06.000Z</time>
      </trkpt>
      <trkpt lat="47.8778585605323314666748046875" lon="9.0365567989647388458251953125">
        <ele>617</ele>
        <time>2018-08-16T08:36:10.000Z</time>
      </trkpt>
      <trkpt lat="47.877901978790760040283203125" lon="9.0365698747336864471435546875">
        <ele>617.20001220703125</ele>
        <time>2018-08-16T08:36:11.000Z</time>
      </trkpt>
      <trkpt lat="47.87803499959409236907958984375" lon="9.0366156399250030517578125">
        <ele>617.79998779296875</ele>
        <time>2018-08-16T08:36:14.000Z</time>
      </trkpt>
      <trkpt lat="47.8781784139573574066162109375" lon="9.03665830381214618682861328125">
        <ele>618.4000244140625</ele>
        <time>2018-08-16T08:36:17.000Z</time>
      </trkpt>
      <trkpt lat="47.8784838505089282989501953125" lon="9.03677363879978656768798828125">
        <ele>619.20001220703125</ele>
        <time>2018-08-16T08:36:23.000Z</time>
      </trkpt>
      <trkpt lat="47.87853891961276531219482421875" lon="9.0367961861193180084228515625">
        <ele>619.4000244140625</ele>
        <time>2018-08-16T08:36:24.000Z</time>
      </trkpt>
      <trkpt lat="47.879068739712238311767578125" lon="9.0370474755764007568359375">
        <ele>620.4000244140625</ele>
        <time>2018-08-16T08:36:33.000Z</time>
      </trkpt>
      <trkpt lat="47.87913168780505657196044921875" lon="9.03707941062748432159423828125">
        <ele>620.20001220703125</ele>
        <time>2018-08-16T08:36:34.000Z</time>
      </trkpt>
      <trkpt lat="47.87925825454294681549072265625" lon="9.0371405147016048431396484375">
        <ele>620.4000244140625</ele>
        <time>2018-08-16T08:36:36.000Z</time>
      </trkpt>
      <trkpt lat="47.87981129251420497894287109375" lon="9.03745659627020359039306640625">
        <ele>620.79998779296875</ele>
        <time>2018-08-16T08:36:45.000Z</time>
      </trkpt>
      <trkpt lat="47.8801163099706172943115234375" lon="9.0376665629446506500244140625">
        <ele>621</ele>
        <time>2018-08-16T08:36:50.000Z</time>
      </trkpt>
      <trkpt lat="47.88059265352785587310791015625" lon="9.0380501188337802886962890625">
        <ele>621</ele>
        <time>2018-08-16T08:36:58.000Z</time>
      </trkpt>
      <trkpt lat="47.8807099163532257080078125" lon="9.03814860619604587554931640625">
        <ele>621.4000244140625</ele>
        <time>2018-08-16T08:37:00.000Z</time>
      </trkpt>
      <trkpt lat="47.8808264248073101043701171875" lon="9.03825589455664157867431640625">
        <ele>621.79998779296875</ele>
        <time>2018-08-16T08:37:02.000Z</time>
      </trkpt>
      <trkpt lat="47.88111316971480846405029296875" lon="9.03853702358901500701904296875">
        <ele>622</ele>
        <time>2018-08-16T08:37:07.000Z</time>
      </trkpt>
      <trkpt lat="47.88139714859426021575927734375" lon="9.038827456533908843994140625">
        <ele>622</ele>
        <time>2018-08-16T08:37:12.000Z</time>
      </trkpt>
      <trkpt lat="47.881624884903430938720703125" lon="9.0390639938414096832275390625">
        <ele>622</ele>
        <time>2018-08-16T08:37:16.000Z</time>
      </trkpt>
      <trkpt lat="47.88173661567270755767822265625" lon="9.03918293304741382598876953125">
        <ele>622.20001220703125</ele>
        <time>2018-08-16T08:37:18.000Z</time>
      </trkpt>
      <trkpt lat="47.88217783905565738677978515625" lon="9.039658270776271820068359375">
        <ele>623</ele>
        <time>2018-08-16T08:37:26.000Z</time>
      </trkpt>
      <trkpt lat="47.8823931701481342315673828125" lon="9.039887599647045135498046875">
        <ele>623.4000244140625</ele>
        <time>2018-08-16T08:37:30.000Z</time>
      </trkpt>
      <trkpt lat="47.8827846050262451171875" lon="9.0402662940323352813720703125">
        <ele>624.4000244140625</ele>
        <time>2018-08-16T08:37:37.000Z</time>
      </trkpt>
      <trkpt lat="47.88289817981421947479248046875" lon="9.04036528430879116058349609375">
        <ele>624.79998779296875</ele>
        <time>2018-08-16T08:37:39.000Z</time>
      </trkpt>
      <trkpt lat="47.88307000882923603057861328125" lon="9.04050392098724842071533203125">
        <ele>625.20001220703125</ele>
        <time>2018-08-16T08:37:42.000Z</time>
      </trkpt>
      <trkpt lat="47.88312801159918308258056640625" lon="9.04054834507405757904052734375">
        <ele>625.4000244140625</ele>
        <time>2018-08-16T08:37:43.000Z</time>
      </trkpt>
      <trkpt lat="47.8832451067864894866943359375" lon="9.040635265409946441650390625">
        <ele>625.5999755859375</ele>
        <time>2018-08-16T08:37:45.000Z</time>
      </trkpt>
      <trkpt lat="47.88371893577277660369873046875" lon="9.0409318171441555023193359375">
        <ele>626.4000244140625</ele>
        <time>2018-08-16T08:37:53.000Z</time>
      </trkpt>
      <trkpt lat="47.88377710618078708648681640625" lon="9.04097313992679119110107421875">
        <ele>626.4000244140625</ele>
        <time>2018-08-16T08:37:54.000Z</time>
      </trkpt>
      <trkpt lat="47.88383376784622669219970703125" lon="9.041017480194568634033203125">
        <ele>626.5999755859375</ele>
        <time>2018-08-16T08:37:55.000Z</time>
      </trkpt>
      <trkpt lat="47.88399763405323028564453125" lon="9.04115326702594757080078125">
        <ele>626.79998779296875</ele>
        <time>2018-08-16T08:37:58.000Z</time>
      </trkpt>
      <trkpt lat="47.88409545086324214935302734375" lon="9.04139139689505100250244140625">
        <ele>627.20001220703125</ele>
        <time>2018-08-16T08:38:01.000Z</time>
      </trkpt>
      <trkpt lat="47.88409947417676448822021484375" lon="9.04169817455112934112548828125">
        <ele>627.4000244140625</ele>
        <time>2018-08-16T08:38:04.000Z</time>
      </trkpt>
      <trkpt lat="47.8840935230255126953125" lon="9.04191660694777965545654296875">
        <ele>627.4000244140625</ele>
        <time>2018-08-16T08:38:06.000Z</time>
      </trkpt>
      <trkpt lat="47.8840936906635761260986328125" lon="9.04226772487163543701171875">
        <ele>627.4000244140625</ele>
        <time>2018-08-16T08:38:09.000Z</time>
      </trkpt>
      <trkpt lat="47.88409930653870105743408203125" lon="9.0423906035721302032470703125">
        <ele>627.4000244140625</ele>
        <time>2018-08-16T08:38:10.000Z</time>
      </trkpt>
      <trkpt lat="47.884130738675594329833984375" lon="9.0427708066999912261962890625">
        <ele>627.4000244140625</ele>
        <time>2018-08-16T08:38:13.000Z</time>
      </trkpt>
      <trkpt lat="47.88416233845055103302001953125" lon="9.0430373512208461761474609375">
        <ele>627.4000244140625</ele>
        <time>2018-08-16T08:38:15.000Z</time>
      </trkpt>
      <trkpt lat="47.8842911683022975921630859375" lon="9.04372542165219783782958984375">
        <ele>626.5999755859375</ele>
        <time>2018-08-16T08:38:20.000Z</time>
      </trkpt>
      <trkpt lat="47.8843582235276699066162109375" lon="9.04399909079074859619140625">
        <ele>626</ele>
        <time>2018-08-16T08:38:22.000Z</time>
      </trkpt>
      <trkpt lat="47.88442636840045452117919921875" lon="9.0442681498825550079345703125">
        <ele>625.4000244140625</ele>
        <time>2018-08-16T08:38:24.000Z</time>
      </trkpt>
      <trkpt lat="47.8845261968672275543212890625" lon="9.0446637757122516632080078125">
        <ele>624.79998779296875</ele>
        <time>2018-08-16T08:38:27.000Z</time>
      </trkpt>
      <trkpt lat="47.8845932520925998687744140625" lon="9.04492051340639591217041015625">
        <ele>624</ele>
        <time>2018-08-16T08:38:29.000Z</time>
      </trkpt>
      <trkpt lat="47.88465586490929126739501953125" lon="9.04517582617700099945068359375">
        <ele>623.79998779296875</ele>
        <time>2018-08-16T08:38:31.000Z</time>
      </trkpt>
      <trkpt lat="47.88474203087389469146728515625" lon="9.04555820859968662261962890625">
        <ele>623.79998779296875</ele>
        <time>2018-08-16T08:38:34.000Z</time>
      </trkpt>
      <trkpt lat="47.88491226732730865478515625" lon="9.046331606805324554443359375">
        <ele>623.79998779296875</ele>
        <time>2018-08-16T08:38:41.000Z</time>
      </trkpt>
      <trkpt lat="47.8850069828331470489501953125" lon="9.046777188777923583984375">
        <ele>624.79998779296875</ele>
        <time>2018-08-16T08:38:47.000Z</time>
      </trkpt>
      <trkpt lat="47.885021902620792388916015625" lon="9.04684281907975673675537109375">
        <ele>625.4000244140625</ele>
        <time>2018-08-16T08:38:48.000Z</time>
      </trkpt>
      <trkpt lat="47.8850710205733776092529296875" lon="9.04703577049076557159423828125">
        <ele>626.4000244140625</ele>
        <time>2018-08-16T08:38:51.000Z</time>
      </trkpt>
      <trkpt lat="47.8851194679737091064453125" lon="9.04723408631980419158935546875">
        <ele>627.5999755859375</ele>
        <time>2018-08-16T08:38:54.000Z</time>
      </trkpt>
      <trkpt lat="47.885167412459850311279296875" lon="9.04743324033915996551513671875">
        <ele>628.79998779296875</ele>
        <time>2018-08-16T08:38:57.000Z</time>
      </trkpt>
      <trkpt lat="47.88520286791026592254638671875" lon="9.04755880124866962432861328125">
        <ele>629.79998779296875</ele>
        <time>2018-08-16T08:38:59.000Z</time>
      </trkpt>
      <trkpt lat="47.885265983641147613525390625" lon="9.0478096716105937957763671875">
        <ele>631</ele>
        <time>2018-08-16T08:39:03.000Z</time>
      </trkpt>
      <trkpt lat="47.885313928127288818359375" lon="9.04799264855682849884033203125">
        <ele>632</ele>
        <time>2018-08-16T08:39:06.000Z</time>
      </trkpt>
      <trkpt lat="47.88537888787686824798583984375" lon="9.0482398308813571929931640625">
        <ele>633</ele>
        <time>2018-08-16T08:39:10.000Z</time>
      </trkpt>
      <trkpt lat="47.88544745184481143951416015625" lon="9.04849036596715450286865234375">
        <ele>634</ele>
        <time>2018-08-16T08:39:14.000Z</time>
      </trkpt>
      <trkpt lat="47.88546488620340824127197265625" lon="9.04855155386030673980712890625">
        <ele>634.20001220703125</ele>
        <time>2018-08-16T08:39:15.000Z</time>
      </trkpt>
      <trkpt lat="47.8855528123676776885986328125" lon="9.0488486923277378082275390625">
        <ele>635.5999755859375</ele>
        <time>2018-08-16T08:39:20.000Z</time>
      </trkpt>
      <trkpt lat="47.885626740753650665283203125" lon="9.0490941144526004791259765625">
        <ele>636.5999755859375</ele>
        <time>2018-08-16T08:39:24.000Z</time>
      </trkpt>
      <trkpt lat="47.88570259697735309600830078125" lon="9.04933693818747997283935546875">
        <ele>637.79998779296875</ele>
        <time>2018-08-16T08:39:28.000Z</time>
      </trkpt>
      <trkpt lat="47.885776273906230926513671875" lon="9.04957129620015621185302734375">
        <ele>639</ele>
        <time>2018-08-16T08:39:32.000Z</time>
      </trkpt>
      <trkpt lat="47.88588331080973148345947265625" lon="9.0498743019998073577880859375">
        <ele>640.20001220703125</ele>
        <time>2018-08-16T08:39:37.000Z</time>
      </trkpt>
      <trkpt lat="47.88598188199102878570556640625" lon="9.0501844324171543121337890625">
        <ele>641.4000244140625</ele>
        <time>2018-08-16T08:39:42.000Z</time>
      </trkpt>
      <trkpt lat="47.88609788753092288970947265625" lon="9.05049464665353298187255859375">
        <ele>642.4000244140625</ele>
        <time>2018-08-16T08:39:47.000Z</time>
      </trkpt>
      <trkpt lat="47.8861975483596324920654296875" lon="9.0507926233112812042236328125">
        <ele>643.5999755859375</ele>
        <time>2018-08-16T08:39:52.000Z</time>
      </trkpt>
      <trkpt lat="47.8862790204584598541259765625" lon="9.05103578232228755950927734375">
        <ele>644.5999755859375</ele>
        <time>2018-08-16T08:39:56.000Z</time>
      </trkpt>
      <trkpt lat="47.8863018192350864410400390625" lon="9.05109613202512264251708984375">
        <ele>645.20001220703125</ele>
        <time>2018-08-16T08:39:57.000Z</time>
      </trkpt>
      <trkpt lat="47.8864003904163837432861328125" lon="9.0513327531516551971435546875">
        <ele>646</ele>
        <time>2018-08-16T08:40:01.000Z</time>
      </trkpt>
      <trkpt lat="47.88642226718366146087646484375" lon="9.0513919293880462646484375">
        <ele>646.20001220703125</ele>
        <time>2018-08-16T08:40:02.000Z</time>
      </trkpt>
      <trkpt lat="47.88658202625811100006103515625" lon="9.05175461433827877044677734375">
        <ele>646.79998779296875</ele>
        <time>2018-08-16T08:40:08.000Z</time>
      </trkpt>
      <trkpt lat="47.88666182197630405426025390625" lon="9.0519379265606403350830078125">
        <ele>647.4000244140625</ele>
        <time>2018-08-16T08:40:11.000Z</time>
      </trkpt>
      <trkpt lat="47.88671110756695270538330078125" lon="9.052056781947612762451171875">
        <ele>647.5999755859375</ele>
        <time>2018-08-16T08:40:13.000Z</time>
      </trkpt>
      <trkpt lat="47.886737845838069915771484375" lon="9.0521112643182277679443359375">
        <ele>647.79998779296875</ele>
        <time>2018-08-16T08:40:14.000Z</time>
      </trkpt>
      <trkpt lat="47.8869090043008327484130859375" lon="9.05251401476562023162841796875">
        <ele>649</ele>
        <time>2018-08-16T08:40:21.000Z</time>
      </trkpt>
      <trkpt lat="47.88703523576259613037109375" lon="9.052790701389312744140625">
        <ele>650</ele>
        <time>2018-08-16T08:40:26.000Z</time>
      </trkpt>
      <trkpt lat="47.88705526851117610931396484375" lon="9.0528515540063381195068359375">
        <ele>650.20001220703125</ele>
        <time>2018-08-16T08:40:27.000Z</time>
      </trkpt>
      <trkpt lat="47.88716054521501064300537109375" lon="9.05314634554088115692138671875">
        <ele>651.20001220703125</ele>
        <time>2018-08-16T08:40:32.000Z</time>
      </trkpt>
      <trkpt lat="47.8873183764517307281494140625" lon="9.053527303040027618408203125">
        <ele>651.79998779296875</ele>
        <time>2018-08-16T08:40:38.000Z</time>
      </trkpt>
      <trkpt lat="47.88741485215723514556884765625" lon="9.0537397004663944244384765625">
        <ele>652.20001220703125</ele>
        <time>2018-08-16T08:40:41.000Z</time>
      </trkpt>
      <trkpt lat="47.8876439295709133148193359375" lon="9.0541976876556873321533203125">
        <ele>652.79998779296875</ele>
        <time>2018-08-16T08:40:47.000Z</time>
      </trkpt>
      <trkpt lat="47.88781735114753246307373046875" lon="9.05456238426268100738525390625">
        <ele>653</ele>
        <time>2018-08-16T08:40:51.000Z</time>
      </trkpt>
      <trkpt lat="47.88796705193817615509033203125" lon="9.05487737618386745452880859375">
        <ele>653</ele>
        <time>2018-08-16T08:40:54.000Z</time>
      </trkpt>
      <trkpt lat="47.88829880766570568084716796875" lon="9.055607020854949951171875">
        <ele>651.5999755859375</ele>
        <time>2018-08-16T08:41:00.000Z</time>
      </trkpt>
      <trkpt lat="47.88835697807371616363525390625" lon="9.05573937110602855682373046875">
        <ele>651.20001220703125</ele>
        <time>2018-08-16T08:41:01.000Z</time>
      </trkpt>
      <trkpt lat="47.88841548375785350799560546875" lon="9.0558703802525997161865234375">
        <ele>650.5999755859375</ele>
        <time>2018-08-16T08:41:02.000Z</time>
      </trkpt>
      <trkpt lat="47.8884794376790523529052734375" lon="9.05600088648498058319091796875">
        <ele>650.4000244140625</ele>
        <time>2018-08-16T08:41:03.000Z</time>
      </trkpt>
      <trkpt lat="47.88866375572979450225830078125" lon="9.05639232136309146881103515625">
        <ele>649.20001220703125</ele>
        <time>2018-08-16T08:41:06.000Z</time>
      </trkpt>
      <trkpt lat="47.8887265361845493316650390625" lon="9.05652089975774288177490234375">
        <ele>648.5999755859375</ele>
        <time>2018-08-16T08:41:07.000Z</time>
      </trkpt>
      <trkpt lat="47.8888549469411373138427734375" lon="9.05676640570163726806640625">
        <ele>647.79998779296875</ele>
        <time>2018-08-16T08:41:09.000Z</time>
      </trkpt>
      <trkpt lat="47.88897807709872722625732421875" lon="9.0570133365690708160400390625">
        <ele>646.79998779296875</ele>
        <time>2018-08-16T08:41:11.000Z</time>
      </trkpt>
      <trkpt lat="47.88904027082026004791259765625" lon="9.05713311396539211273193359375">
        <ele>646.4000244140625</ele>
        <time>2018-08-16T08:41:12.000Z</time>
      </trkpt>
      <trkpt lat="47.88909994997084140777587890625" lon="9.05725263990461826324462890625">
        <ele>646</ele>
        <time>2018-08-16T08:41:13.000Z</time>
      </trkpt>
      <trkpt lat="47.88915862329304218292236328125" lon="9.0573734231293201446533203125">
        <ele>645.5999755859375</ele>
        <time>2018-08-16T08:41:14.000Z</time>
      </trkpt>
      <trkpt lat="47.889216206967830657958984375" lon="9.05749169178307056427001953125">
        <ele>645.20001220703125</ele>
        <time>2018-08-16T08:41:15.000Z</time>
      </trkpt>
      <trkpt lat="47.88932609371840953826904296875" lon="9.0577204339206218719482421875">
        <ele>645</ele>
        <time>2018-08-16T08:41:17.000Z</time>
      </trkpt>
      <trkpt lat="47.88937923498451709747314453125" lon="9.0578307397663593292236328125">
        <ele>645</ele>
        <time>2018-08-16T08:41:18.000Z</time>
      </trkpt>
      <trkpt lat="47.8895653970539569854736328125" lon="9.05824556015431880950927734375">
        <ele>645</ele>
        <time>2018-08-16T08:41:22.000Z</time>
      </trkpt>
      <trkpt lat="47.88979925215244293212890625" lon="9.058765657246112823486328125">
        <ele>645.5999755859375</ele>
        <time>2018-08-16T08:41:28.000Z</time>
      </trkpt>
      <trkpt lat="47.8898366354405879974365234375" lon="9.05884302221238613128662109375">
        <ele>645.79998779296875</ele>
        <time>2018-08-16T08:41:29.000Z</time>
      </trkpt>
      <trkpt lat="47.88994316942989826202392578125" lon="9.0590722672641277313232421875">
        <ele>646.4000244140625</ele>
        <time>2018-08-16T08:41:32.000Z</time>
      </trkpt>
      <trkpt lat="47.8901105560362339019775390625" lon="9.059437215328216552734375">
        <ele>647.4000244140625</ele>
        <time>2018-08-16T08:41:37.000Z</time>
      </trkpt>
      <trkpt lat="47.8901400603353977203369140625" lon="9.05950636602938175201416015625">
        <ele>647.5999755859375</ele>
        <time>2018-08-16T08:41:38.000Z</time>
      </trkpt>
      <trkpt lat="47.8901712410151958465576171875" lon="9.05957023613154888153076171875">
        <ele>648</ele>
        <time>2018-08-16T08:41:39.000Z</time>
      </trkpt>
      <trkpt lat="47.89020317606627941131591796875" lon="9.05963527970016002655029296875">
        <ele>648.20001220703125</ele>
        <time>2018-08-16T08:41:40.000Z</time>
      </trkpt>
      <trkpt lat="47.89025723934173583984375" lon="9.05976000241935253143310546875">
        <ele>648.5999755859375</ele>
        <time>2018-08-16T08:41:42.000Z</time>
      </trkpt>
      <trkpt lat="47.89032270200550556182861328125" lon="9.05993870459496974945068359375">
        <ele>649.20001220703125</ele>
        <time>2018-08-16T08:41:45.000Z</time>
      </trkpt>
      <trkpt lat="47.89034784771502017974853515625" lon="9.05999201349914073944091796875">
        <ele>649.5999755859375</ele>
        <time>2018-08-16T08:41:46.000Z</time>
      </trkpt>
      <trkpt lat="47.89037324488162994384765625" lon="9.06004138290882110595703125">
        <ele>649.79998779296875</ele>
        <time>2018-08-16T08:41:47.000Z</time>
      </trkpt>
      <trkpt lat="47.89046443998813629150390625" lon="9.06025134958326816558837890625">
        <ele>650.5999755859375</ele>
        <time>2018-08-16T08:41:51.000Z</time>
      </trkpt>
      <trkpt lat="47.89048665203154087066650390625" lon="9.06030382029712200164794921875">
        <ele>651</ele>
        <time>2018-08-16T08:41:52.000Z</time>
      </trkpt>
      <trkpt lat="47.89058472029864788055419921875" lon="9.06051940284669399261474609375">
        <ele>652</ele>
        <time>2018-08-16T08:41:56.000Z</time>
      </trkpt>
      <trkpt lat="47.8906526975333690643310546875" lon="9.0606427006423473358154296875">
        <ele>652.79998779296875</ele>
        <time>2018-08-16T08:41:59.000Z</time>
      </trkpt>
      <trkpt lat="47.89066971279680728912353515625" lon="9.06067983247339725494384765625">
        <ele>653.20001220703125</ele>
        <time>2018-08-16T08:42:00.000Z</time>
      </trkpt>
      <trkpt lat="47.89070458151400089263916015625" lon="9.06075811944901943206787109375">
        <ele>653.5999755859375</ele>
        <time>2018-08-16T08:42:02.000Z</time>
      </trkpt>
      <trkpt lat="47.89075403474271297454833984375" lon="9.0608646534383296966552734375">
        <ele>654.20001220703125</ele>
        <time>2018-08-16T08:42:05.000Z</time>
      </trkpt>
      <trkpt lat="47.890822850167751312255859375" lon="9.06101678498089313507080078125">
        <ele>655.4000244140625</ele>
        <time>2018-08-16T08:42:09.000Z</time>
      </trkpt>
      <trkpt lat="47.8908625803887844085693359375" lon="9.061089791357517242431640625">
        <ele>655.5999755859375</ele>
        <time>2018-08-16T08:42:11.000Z</time>
      </trkpt>
      <trkpt lat="47.89092284627258777618408203125" lon="9.06120705418288707733154296875">
        <ele>656.5999755859375</ele>
        <time>2018-08-16T08:42:14.000Z</time>
      </trkpt>
      <trkpt lat="47.89098436944186687469482421875" lon="9.06137133948504924774169921875">
        <ele>657.79998779296875</ele>
        <time>2018-08-16T08:42:18.000Z</time>
      </trkpt>
      <trkpt lat="47.89106114767491817474365234375" lon="9.06154065392911434173583984375">
        <ele>659</ele>
        <time>2018-08-16T08:42:22.000Z</time>
      </trkpt>
      <trkpt lat="47.89111596532166004180908203125" lon="9.06167040579020977020263671875">
        <ele>660.4000244140625</ele>
        <time>2018-08-16T08:42:25.000Z</time>
      </trkpt>
      <trkpt lat="47.89119978435337543487548828125" lon="9.06183720566332340240478515625">
        <ele>661.5999755859375</ele>
        <time>2018-08-16T08:42:29.000Z</time>
      </trkpt>
      <trkpt lat="47.891270108520984649658203125" lon="9.06200953759253025054931640625">
        <ele>662.79998779296875</ele>
        <time>2018-08-16T08:42:33.000Z</time>
      </trkpt>
      <trkpt lat="47.89132718928158283233642578125" lon="9.062137864530086517333984375">
        <ele>663.79998779296875</ele>
        <time>2018-08-16T08:42:36.000Z</time>
      </trkpt>
      <trkpt lat="47.89140329696238040924072265625" lon="9.06230273656547069549560546875">
        <ele>665</ele>
        <time>2018-08-16T08:42:40.000Z</time>
      </trkpt>
      <trkpt lat="47.89148275740444660186767578125" lon="9.062440954148769378662109375">
        <ele>666</ele>
        <time>2018-08-16T08:42:44.000Z</time>
      </trkpt>
      <trkpt lat="47.891505472362041473388671875" lon="9.062474481761455535888671875">
        <ele>666.4000244140625</ele>
        <time>2018-08-16T08:42:45.000Z</time>
      </trkpt>
      <trkpt lat="47.8915716893970966339111328125" lon="9.0626035630702972412109375">
        <ele>667.20001220703125</ele>
        <time>2018-08-16T08:42:48.000Z</time>
      </trkpt>
      <trkpt lat="47.8916685841977596282958984375" lon="9.06276960857212543487548828125">
        <ele>668.4000244140625</ele>
        <time>2018-08-16T08:42:52.000Z</time>
      </trkpt>
      <trkpt lat="47.891729772090911865234375" lon="9.062902629375457763671875">
        <ele>669.5999755859375</ele>
        <time>2018-08-16T08:42:55.000Z</time>
      </trkpt>
      <trkpt lat="47.8918147645890712738037109375" lon="9.06307018361985683441162109375">
        <ele>670.5999755859375</ele>
        <time>2018-08-16T08:42:59.000Z</time>
      </trkpt>
      <trkpt lat="47.8919508866965770721435546875" lon="9.063344858586788177490234375">
        <ele>671.4000244140625</ele>
        <time>2018-08-16T08:43:05.000Z</time>
      </trkpt>
      <trkpt lat="47.89211399853229522705078125" lon="9.06370620243251323699951171875">
        <ele>672.79998779296875</ele>
        <time>2018-08-16T08:43:12.000Z</time>
      </trkpt>
      <trkpt lat="47.89221013896167278289794921875" lon="9.06394324265420436859130859375">
        <ele>673.79998779296875</ele>
        <time>2018-08-16T08:43:16.000Z</time>
      </trkpt>
      <trkpt lat="47.89232849143445491790771484375" lon="9.0642683766782283782958984375">
        <ele>674.79998779296875</ele>
        <time>2018-08-16T08:43:21.000Z</time>
      </trkpt>
      <trkpt lat="47.89237895049154758453369140625" lon="9.064410030841827392578125">
        <ele>675</ele>
        <time>2018-08-16T08:43:23.000Z</time>
      </trkpt>
      <trkpt lat="47.89244818501174449920654296875" lon="9.064649753272533416748046875">
        <ele>675</ele>
        <time>2018-08-16T08:43:26.000Z</time>
      </trkpt>
      <trkpt lat="47.89254826493561267852783203125" lon="9.065000116825103759765625">
        <ele>675</ele>
        <time>2018-08-16T08:43:30.000Z</time>
      </trkpt>
      <trkpt lat="47.892605178058147430419921875" lon="9.0651900507509708404541015625">
        <ele>675</ele>
        <time>2018-08-16T08:43:32.000Z</time>
      </trkpt>
      <trkpt lat="47.89263434708118438720703125" lon="9.065290130674839019775390625">
        <ele>675</ele>
        <time>2018-08-16T08:43:33.000Z</time>
      </trkpt>
      <trkpt lat="47.8926988877356052398681640625" lon="9.06549523584544658660888671875">
        <ele>675</ele>
        <time>2018-08-16T08:43:35.000Z</time>
      </trkpt>
      <trkpt lat="47.89277340285480022430419921875" lon="9.06570889055728912353515625">
        <ele>674.79998779296875</ele>
        <time>2018-08-16T08:43:37.000Z</time>
      </trkpt>
      <trkpt lat="47.8929188288748264312744140625" lon="9.06602363102138042449951171875">
        <ele>674.4000244140625</ele>
        <time>2018-08-16T08:43:40.000Z</time>
      </trkpt>
      <trkpt lat="47.8931779973208904266357421875" lon="9.06644222326576709747314453125">
        <ele>673.79998779296875</ele>
        <time>2018-08-16T08:43:44.000Z</time>
      </trkpt>
      <trkpt lat="47.89340171031653881072998046875" lon="9.06676878221333026885986328125">
        <ele>673.20001220703125</ele>
        <time>2018-08-16T08:43:47.000Z</time>
      </trkpt>
      <trkpt lat="47.893471531569957733154296875" lon="9.066888727247714996337890625">
        <ele>672.79998779296875</ele>
        <time>2018-08-16T08:43:48.000Z</time>
      </trkpt>
      <trkpt lat="47.89353825151920318603515625" lon="9.067015461623668670654296875">
        <ele>672</ele>
        <time>2018-08-16T08:43:49.000Z</time>
      </trkpt>
      <trkpt lat="47.8936006128787994384765625" lon="9.0671490691602230072021484375">
        <ele>671.5999755859375</ele>
        <time>2018-08-16T08:43:50.000Z</time>
      </trkpt>
      <trkpt lat="47.8937097452580928802490234375" lon="9.06743824481964111328125">
        <ele>671</ele>
        <time>2018-08-16T08:43:52.000Z</time>
      </trkpt>
      <trkpt lat="47.89379498921334743499755859375" lon="9.06775181181728839874267578125">
        <ele>669.79998779296875</ele>
        <time>2018-08-16T08:43:54.000Z</time>
      </trkpt>
      <trkpt lat="47.8938525728881359100341796875" lon="9.06808541156351566314697265625">
        <ele>668.79998779296875</ele>
        <time>2018-08-16T08:43:56.000Z</time>
      </trkpt>
      <trkpt lat="47.89388350211083889007568359375" lon="9.06843258999288082122802734375">
        <ele>667.79998779296875</ele>
        <time>2018-08-16T08:43:58.000Z</time>
      </trkpt>
      <trkpt lat="47.89389071054756641387939453125" lon="9.06878982670605182647705078125">
        <ele>666.5999755859375</ele>
        <time>2018-08-16T08:44:00.000Z</time>
      </trkpt>
      <trkpt lat="47.8938897885382175445556640625" lon="9.069152176380157470703125">
        <ele>665.20001220703125</ele>
        <time>2018-08-16T08:44:02.000Z</time>
      </trkpt>
      <trkpt lat="47.8938988409936428070068359375" lon="9.06952374614775180816650390625">
        <ele>664</ele>
        <time>2018-08-16T08:44:04.000Z</time>
      </trkpt>
      <trkpt lat="47.8939323686063289642333984375" lon="9.06990361399948596954345703125">
        <ele>663</ele>
        <time>2018-08-16T08:44:06.000Z</time>
      </trkpt>
      <trkpt lat="47.89396614767611026763916015625" lon="9.07009388320147991180419921875">
        <ele>662.4000244140625</ele>
        <time>2018-08-16T08:44:07.000Z</time>
      </trkpt>
      <trkpt lat="47.89401166141033172607421875" lon="9.07028063200414180755615234375">
        <ele>662</ele>
        <time>2018-08-16T08:44:08.000Z</time>
      </trkpt>
      <trkpt lat="47.8941249847412109375" lon="9.070651195943355560302734375">
        <ele>661</ele>
        <time>2018-08-16T08:44:10.000Z</time>
      </trkpt>
      <trkpt lat="47.89418793283402919769287109375" lon="9.0708391182124614715576171875">
        <ele>660.20001220703125</ele>
        <time>2018-08-16T08:44:11.000Z</time>
      </trkpt>
      <trkpt lat="47.89432120509445667266845703125" lon="9.07122812233865261077880859375">
        <ele>658.79998779296875</ele>
        <time>2018-08-16T08:44:13.000Z</time>
      </trkpt>
      <trkpt lat="47.89445682428777217864990234375" lon="9.0716397576034069061279296875">
        <ele>657.4000244140625</ele>
        <time>2018-08-16T08:44:15.000Z</time>
      </trkpt>
      <trkpt lat="47.89452706463634967803955078125" lon="9.07185114920139312744140625">
        <ele>655.79998779296875</ele>
        <time>2018-08-16T08:44:16.000Z</time>
      </trkpt>
      <trkpt lat="47.89459638297557830810546875" lon="9.0720665641129016876220703125">
        <ele>654.5999755859375</ele>
        <time>2018-08-16T08:44:17.000Z</time>
      </trkpt>
      <trkpt lat="47.8946649469435214996337890625" lon="9.072281979024410247802734375">
        <ele>653.20001220703125</ele>
        <time>2018-08-16T08:44:18.000Z</time>
      </trkpt>
      <trkpt lat="47.8947259671986103057861328125" lon="9.0724880062043666839599609375">
        <ele>651.79998779296875</ele>
        <time>2018-08-16T08:44:19.000Z</time>
      </trkpt>
      <trkpt lat="47.89477902464568614959716796875" lon="9.0726831369102001190185546875">
        <ele>650.20001220703125</ele>
        <time>2018-08-16T08:44:20.000Z</time>
      </trkpt>
      <trkpt lat="47.8948278911411762237548828125" lon="9.07287064008414745330810546875">
        <ele>648.79998779296875</ele>
        <time>2018-08-16T08:44:21.000Z</time>
      </trkpt>
      <trkpt lat="47.89487935602664947509765625" lon="9.07305068336427211761474609375">
        <ele>647.5999755859375</ele>
        <time>2018-08-16T08:44:22.000Z</time>
      </trkpt>
      <trkpt lat="47.89494163356721401214599609375" lon="9.0732197463512420654296875">
        <ele>646.20001220703125</ele>
        <time>2018-08-16T08:44:23.000Z</time>
      </trkpt>
      <trkpt lat="47.895020507276058197021484375" lon="9.073367603123188018798828125">
        <ele>644.5999755859375</ele>
        <time>2018-08-16T08:44:24.000Z</time>
      </trkpt>
      <trkpt lat="47.89511212147772312164306640625" lon="9.0734928287565708160400390625">
        <ele>643.20001220703125</ele>
        <time>2018-08-16T08:44:25.000Z</time>
      </trkpt>
      <trkpt lat="47.89522075094282627105712890625" lon="9.073586203157901763916015625">
        <ele>641.79998779296875</ele>
        <time>2018-08-16T08:44:26.000Z</time>
      </trkpt>
      <trkpt lat="47.895346395671367645263671875" lon="9.0736396797001361846923828125">
        <ele>640.5999755859375</ele>
        <time>2018-08-16T08:44:27.000Z</time>
      </trkpt>
      <trkpt lat="47.89547723717987537384033203125" lon="9.073651917278766632080078125">
        <ele>639.4000244140625</ele>
        <time>2018-08-16T08:44:28.000Z</time>
      </trkpt>
      <trkpt lat="47.89560531266033649444580078125" lon="9.0736319683492183685302734375">
        <ele>638.20001220703125</ele>
        <time>2018-08-16T08:44:29.000Z</time>
      </trkpt>
      <trkpt lat="47.89572970010340213775634765625" lon="9.07359349541366100311279296875">
        <ele>637</ele>
        <time>2018-08-16T08:44:30.000Z</time>
      </trkpt>
      <trkpt lat="47.89585207588970661163330078125" lon="9.07354655675590038299560546875">
        <ele>636</ele>
        <time>2018-08-16T08:44:31.000Z</time>
      </trkpt>
      <trkpt lat="47.895972691476345062255859375" lon="9.07349743880331516265869140625">
        <ele>635</ele>
        <time>2018-08-16T08:44:32.000Z</time>
      </trkpt>
      <trkpt lat="47.89609313942492008209228515625" lon="9.07346257008612155914306640625">
        <ele>634</ele>
        <time>2018-08-16T08:44:33.000Z</time>
      </trkpt>
      <trkpt lat="47.89621702395379543304443359375" lon="9.073457457125186920166015625">
        <ele>633.4000244140625</ele>
        <time>2018-08-16T08:44:34.000Z</time>
      </trkpt>
      <trkpt lat="47.89644568227231502532958984375" lon="9.07357170246541500091552734375">
        <ele>632</ele>
        <time>2018-08-16T08:44:36.000Z</time>
      </trkpt>
      <trkpt lat="47.89654978550970554351806640625" lon="9.073659293353557586669921875">
        <ele>631.4000244140625</ele>
        <time>2018-08-16T08:44:37.000Z</time>
      </trkpt>
      <trkpt lat="47.89665087126195430755615234375" lon="9.07375275157392024993896484375">
        <ele>630.79998779296875</ele>
        <time>2018-08-16T08:44:38.000Z</time>
      </trkpt>
      <trkpt lat="47.89683594368398189544677734375" lon="9.07396883703768253326416015625">
        <ele>629.4000244140625</ele>
        <time>2018-08-16T08:44:40.000Z</time>
      </trkpt>
      <trkpt lat="47.8969609178602695465087890625" lon="9.07426354475319385528564453125">
        <ele>628.20001220703125</ele>
        <time>2018-08-16T08:44:42.000Z</time>
      </trkpt>
      <trkpt lat="47.896991260349750518798828125" lon="9.07460519112646579742431640625">
        <ele>627</ele>
        <time>2018-08-16T08:44:44.000Z</time>
      </trkpt>
      <trkpt lat="47.89698028005659580230712890625" lon="9.07495019026100635528564453125">
        <ele>626.5999755859375</ele>
        <time>2018-08-16T08:44:46.000Z</time>
      </trkpt>
      <trkpt lat="47.8969659470021724700927734375" lon="9.07529267482459545135498046875">
        <ele>625.79998779296875</ele>
        <time>2018-08-16T08:44:48.000Z</time>
      </trkpt>
      <trkpt lat="47.89697340689599514007568359375" lon="9.07562577165663242340087890625">
        <ele>625.20001220703125</ele>
        <time>2018-08-16T08:44:50.000Z</time>
      </trkpt>
      <trkpt lat="47.89700031280517578125" lon="9.07578385435044765472412109375">
        <ele>624.79998779296875</ele>
        <time>2018-08-16T08:44:51.000Z</time>
      </trkpt>
      <trkpt lat="47.89716619066894054412841796875" lon="9.0762109123170375823974609375">
        <ele>624</ele>
        <time>2018-08-16T08:44:54.000Z</time>
      </trkpt>
      <trkpt lat="47.897353358566761016845703125" lon="9.07663729973137378692626953125">
        <ele>623.79998779296875</ele>
        <time>2018-08-16T08:44:57.000Z</time>
      </trkpt>
      <trkpt lat="47.89761361666023731231689453125" lon="9.07724197022616863250732421875">
        <ele>622.20001220703125</ele>
        <time>2018-08-16T08:45:02.000Z</time>
      </trkpt>
      <trkpt lat="47.8976834379136562347412109375" lon="9.077446572482585906982421875">
        <ele>621</ele>
        <time>2018-08-16T08:45:05.000Z</time>
      </trkpt>
      <trkpt lat="47.89770514704287052154541015625" lon="9.07751035876572132110595703125">
        <ele>620.5999755859375</ele>
        <time>2018-08-16T08:45:06.000Z</time>
      </trkpt>
      <trkpt lat="47.8977803327143192291259765625" lon="9.0776016376912593841552734375">
        <ele>620.20001220703125</ele>
        <time>2018-08-16T08:45:08.000Z</time>
      </trkpt>
      <trkpt lat="47.8978309594094753265380859375" lon="9.0776251070201396942138671875">
        <ele>619.79998779296875</ele>
        <time>2018-08-16T08:45:09.000Z</time>
      </trkpt>
      <trkpt lat="47.8978819213807582855224609375" lon="9.0776509232819080352783203125">
        <ele>619.4000244140625</ele>
        <time>2018-08-16T08:45:10.000Z</time>
      </trkpt>
      <trkpt lat="47.8979323804378509521484375" lon="9.07768755219876766204833984375">
        <ele>619.20001220703125</ele>
        <time>2018-08-16T08:45:11.000Z</time>
      </trkpt>
      <trkpt lat="47.897979654371738433837890625" lon="9.07773734070360660552978515625">
        <ele>619</ele>
        <time>2018-08-16T08:45:12.000Z</time>
      </trkpt>
      <trkpt lat="47.8980287723243236541748046875" lon="9.07779132016003131866455078125">
        <ele>618.79998779296875</ele>
        <time>2018-08-16T08:45:13.000Z</time>
      </trkpt>
      <trkpt lat="47.89813178591430187225341796875" lon="9.07790464349091053009033203125">
        <ele>618.5999755859375</ele>
        <time>2018-08-16T08:45:15.000Z</time>
      </trkpt>
      <trkpt lat="47.8982406668365001678466796875" lon="9.07802157104015350341796875">
        <ele>618.4000244140625</ele>
        <time>2018-08-16T08:45:17.000Z</time>
      </trkpt>
      <trkpt lat="47.89865045808255672454833984375" lon="9.07847025431692600250244140625">
        <ele>618.4000244140625</ele>
        <time>2018-08-16T08:45:24.000Z</time>
      </trkpt>
      <trkpt lat="47.89890191517770290374755859375" lon="9.07873780466616153717041015625">
        <ele>619</ele>
        <time>2018-08-16T08:45:28.000Z</time>
      </trkpt>
      <trkpt lat="47.89940080605447292327880859375" lon="9.079125635325908660888671875">
        <ele>619</ele>
        <time>2018-08-16T08:45:35.000Z</time>
      </trkpt>
      <trkpt lat="47.89994470775127410888671875" lon="9.0793645195662975311279296875">
        <ele>618.5999755859375</ele>
        <time>2018-08-16T08:45:42.000Z</time>
      </trkpt>
      <trkpt lat="47.9005064629018306732177734375" lon="9.0795378573238849639892578125">
        <ele>618.4000244140625</ele>
        <time>2018-08-16T08:45:49.000Z</time>
      </trkpt>
      <trkpt lat="47.90058516897261142730712890625" lon="9.07957750372588634490966796875">
        <ele>618.4000244140625</ele>
        <time>2018-08-16T08:45:50.000Z</time>
      </trkpt>
      <trkpt lat="47.90079505182802677154541015625" lon="9.07976224087178707122802734375">
        <ele>618.4000244140625</ele>
        <time>2018-08-16T08:45:53.000Z</time>
      </trkpt>
      <trkpt lat="47.90103645063936710357666015625" lon="9.08036649227142333984375">
        <ele>618.5999755859375</ele>
        <time>2018-08-16T08:45:59.000Z</time>
      </trkpt>
      <trkpt lat="47.90111473761498928070068359375" lon="9.0808075480163097381591796875">
        <ele>618.79998779296875</ele>
        <time>2018-08-16T08:46:03.000Z</time>
      </trkpt>
      <trkpt lat="47.9011912643909454345703125" lon="9.0812299959361553192138671875">
        <ele>619.5999755859375</ele>
        <time>2018-08-16T08:46:07.000Z</time>
      </trkpt>
      <trkpt lat="47.9012098722159862518310546875" lon="9.08133250661194324493408203125">
        <ele>619.79998779296875</ele>
        <time>2018-08-16T08:46:08.000Z</time>
      </trkpt>
      <trkpt lat="47.90131422691047191619873046875" lon="9.08191680908203125">
        <ele>621</ele>
        <time>2018-08-16T08:46:14.000Z</time>
      </trkpt>
      <trkpt lat="47.9013785161077976226806640625" lon="9.082278572022914886474609375">
        <ele>622</ele>
        <time>2018-08-16T08:46:18.000Z</time>
      </trkpt>
      <trkpt lat="47.9014720581471920013427734375" lon="9.08279548399150371551513671875">
        <ele>623.20001220703125</ele>
        <time>2018-08-16T08:46:24.000Z</time>
      </trkpt>
      <trkpt lat="47.9015642590820789337158203125" lon="9.083295129239559173583984375">
        <ele>624.4000244140625</ele>
        <time>2018-08-16T08:46:30.000Z</time>
      </trkpt>
      <trkpt lat="47.90163910947740077972412109375" lon="9.08370022661983966827392578125">
        <ele>625.4000244140625</ele>
        <time>2018-08-16T08:46:35.000Z</time>
      </trkpt>
      <trkpt lat="47.90168269537389278411865234375" lon="9.08393986523151397705078125">
        <ele>626.4000244140625</ele>
        <time>2018-08-16T08:46:38.000Z</time>
      </trkpt>
      <trkpt lat="47.9017717950046062469482421875" lon="9.0844072401523590087890625">
        <ele>627.5999755859375</ele>
        <time>2018-08-16T08:46:44.000Z</time>
      </trkpt>
      <trkpt lat="47.90183122269809246063232421875" lon="9.08472214825451374053955078125">
        <ele>628.5999755859375</ele>
        <time>2018-08-16T08:46:48.000Z</time>
      </trkpt>
      <trkpt lat="47.90193767286837100982666015625" lon="9.08529035747051239013671875">
        <ele>629.79998779296875</ele>
        <time>2018-08-16T08:46:55.000Z</time>
      </trkpt>
      <trkpt lat="47.90205082856118679046630859375" lon="9.0858997218310832977294921875">
        <ele>630.79998779296875</ele>
        <time>2018-08-16T08:47:02.000Z</time>
      </trkpt>
      <trkpt lat="47.90220555849373340606689453125" lon="9.086725004017353057861328125">
        <ele>631.79998779296875</ele>
        <time>2018-08-16T08:47:11.000Z</time>
      </trkpt>
      <trkpt lat="47.902241013944149017333984375" lon="9.08691016025841236114501953125">
        <ele>631.79998779296875</ele>
        <time>2018-08-16T08:47:13.000Z</time>
      </trkpt>
      <trkpt lat="47.9024017788469791412353515625" lon="9.087752960622310638427734375">
        <ele>632.5999755859375</ele>
        <time>2018-08-16T08:47:22.000Z</time>
      </trkpt>
      <trkpt lat="47.902489788830280303955078125" lon="9.08821924589574337005615234375">
        <ele>633</ele>
        <time>2018-08-16T08:47:27.000Z</time>
      </trkpt>
      <trkpt lat="47.90250764228403568267822265625" lon="9.08830993808805942535400390625">
        <ele>633.20001220703125</ele>
        <time>2018-08-16T08:47:28.000Z</time>
      </trkpt>
      <trkpt lat="47.902655415236949920654296875" lon="9.08910320140421390533447265625">
        <ele>634</ele>
        <time>2018-08-16T08:47:37.000Z</time>
      </trkpt>
      <trkpt lat="47.9026718437671661376953125" lon="9.0891894511878490447998046875">
        <ele>634</ele>
        <time>2018-08-16T08:47:38.000Z</time>
      </trkpt>
      <trkpt lat="47.90278650820255279541015625" lon="9.08979655243456363677978515625">
        <ele>635.20001220703125</ele>
        <time>2018-08-16T08:47:45.000Z</time>
      </trkpt>
      <trkpt lat="47.90287091396749019622802734375" lon="9.09024246968328952789306640625">
        <ele>636.4000244140625</ele>
        <time>2018-08-16T08:47:50.000Z</time>
      </trkpt>
      <trkpt lat="47.90295909158885478973388671875" lon="9.09070531837642192840576171875">
        <ele>637.4000244140625</ele>
        <time>2018-08-16T08:47:55.000Z</time>
      </trkpt>
      <trkpt lat="47.90306788869202136993408203125" lon="9.0912627987563610076904296875">
        <ele>638.4000244140625</ele>
        <time>2018-08-16T08:48:01.000Z</time>
      </trkpt>
      <trkpt lat="47.90322773158550262451171875" lon="9.0921060182154178619384765625">
        <ele>639.4000244140625</ele>
        <time>2018-08-16T08:48:10.000Z</time>
      </trkpt>
      <trkpt lat="47.9032634384930133819580078125" lon="9.09229452721774578094482421875">
        <ele>639.5999755859375</ele>
        <time>2018-08-16T08:48:12.000Z</time>
      </trkpt>
      <trkpt lat="47.903429567813873291015625" lon="9.09315065480768680572509765625">
        <ele>640.4000244140625</ele>
        <time>2018-08-16T08:48:21.000Z</time>
      </trkpt>
      <trkpt lat="47.903484888374805450439453125" lon="9.09344553016126155853271484375">
        <ele>640.79998779296875</ele>
        <time>2018-08-16T08:48:24.000Z</time>
      </trkpt>
      <trkpt lat="47.90364305488765239715576171875" lon="9.0942269749939441680908203125">
        <ele>641.5999755859375</ele>
        <time>2018-08-16T08:48:32.000Z</time>
      </trkpt>
      <trkpt lat="47.90366451255977153778076171875" lon="9.09432227723300457000732421875">
        <ele>641.79998779296875</ele>
        <time>2018-08-16T08:48:33.000Z</time>
      </trkpt>
      <trkpt lat="47.90388076566159725189208984375" lon="9.0950636565685272216796875">
        <ele>642.4000244140625</ele>
        <time>2018-08-16T08:48:41.000Z</time>
      </trkpt>
      <trkpt lat="47.90416876785457134246826171875" lon="9.09574854187667369842529296875">
        <ele>642.79998779296875</ele>
        <time>2018-08-16T08:48:49.000Z</time>
      </trkpt>
      <trkpt lat="47.90448761545121669769287109375" lon="9.096452035009860992431640625">
        <ele>643.20001220703125</ele>
        <time>2018-08-16T08:48:57.000Z</time>
      </trkpt>
      <trkpt lat="47.904812581837177276611328125" lon="9.09714831970632076263427734375">
        <ele>644</ele>
        <time>2018-08-16T08:49:05.000Z</time>
      </trkpt>
      <trkpt lat="47.9050843231379985809326171875" lon="9.097732789814472198486328125">
        <ele>645</ele>
        <time>2018-08-16T08:49:12.000Z</time>
      </trkpt>
      <trkpt lat="47.905123718082904815673828125" lon="9.09781451337039470672607421875">
        <ele>645.20001220703125</ele>
        <time>2018-08-16T08:49:13.000Z</time>
      </trkpt>
      <trkpt lat="47.90527618490159511566162109375" lon="9.09814576618373394012451171875">
        <ele>645.79998779296875</ele>
        <time>2018-08-16T08:49:17.000Z</time>
      </trkpt>
      <trkpt lat="47.9053518734872341156005859375" lon="9.098313488066196441650390625">
        <ele>646.20001220703125</ele>
        <time>2018-08-16T08:49:19.000Z</time>
      </trkpt>
      <trkpt lat="47.90562084876000881195068359375" lon="9.09888521768152713775634765625">
        <ele>647.4000244140625</ele>
        <time>2018-08-16T08:49:26.000Z</time>
      </trkpt>
      <trkpt lat="47.90587850846350193023681640625" lon="9.0994492359459400177001953125">
        <ele>648.5999755859375</ele>
        <time>2018-08-16T08:49:33.000Z</time>
      </trkpt>
      <trkpt lat="47.9061008803546428680419921875" lon="9.09992725588381290435791015625">
        <ele>649.79998779296875</ele>
        <time>2018-08-16T08:49:39.000Z</time>
      </trkpt>
      <trkpt lat="47.90636993944644927978515625" lon="9.10052664577960968017578125">
        <ele>651</ele>
        <time>2018-08-16T08:49:46.000Z</time>
      </trkpt>
      <trkpt lat="47.9065474681556224822998046875" lon="9.10087935626506805419921875">
        <ele>651.20001220703125</ele>
        <time>2018-08-16T08:49:50.000Z</time>
      </trkpt>
      <trkpt lat="47.90673329494893550872802734375" lon="9.10110407508909702301025390625">
        <ele>651.20001220703125</ele>
        <time>2018-08-16T08:49:53.000Z</time>
      </trkpt>
      <trkpt lat="47.9068783856928348541259765625" lon="9.1012235172092914581298828125">
        <ele>651.20001220703125</ele>
        <time>2018-08-16T08:49:55.000Z</time>
      </trkpt>
      <trkpt lat="47.90709975175559520721435546875" lon="9.1014132834970951080322265625">
        <ele>651.20001220703125</ele>
        <time>2018-08-16T08:49:58.000Z</time>
      </trkpt>
      <trkpt lat="47.9072592593729496002197265625" lon="9.10153658129274845123291015625">
        <ele>650.79998779296875</ele>
        <time>2018-08-16T08:50:00.000Z</time>
      </trkpt>
      <trkpt lat="47.907426394522190093994140625" lon="9.10167655907571315765380859375">
        <ele>650.4000244140625</ele>
        <time>2018-08-16T08:50:02.000Z</time>
      </trkpt>
      <trkpt lat="47.90751700289547443389892578125" lon="9.101750738918781280517578125">
        <ele>650</ele>
        <time>2018-08-16T08:50:03.000Z</time>
      </trkpt>
      <trkpt lat="47.9077990539371967315673828125" lon="9.10196690820157527923583984375">
        <ele>648.79998779296875</ele>
        <time>2018-08-16T08:50:06.000Z</time>
      </trkpt>
      <trkpt lat="47.907893098890781402587890625" lon="9.10205039195716381072998046875">
        <ele>648.4000244140625</ele>
        <time>2018-08-16T08:50:07.000Z</time>
      </trkpt>
      <trkpt lat="47.9079868085682392120361328125" lon="9.1021411679685115814208984375">
        <ele>647.79998779296875</ele>
        <time>2018-08-16T08:50:08.000Z</time>
      </trkpt>
      <trkpt lat="47.90807942859828472137451171875" lon="9.1022407449781894683837890625">
        <ele>647.20001220703125</ele>
        <time>2018-08-16T08:50:09.000Z</time>
      </trkpt>
      <trkpt lat="47.9081655107438564300537109375" lon="9.10234811715781688690185546875">
        <ele>646.5999755859375</ele>
        <time>2018-08-16T08:50:10.000Z</time>
      </trkpt>
      <trkpt lat="47.90824974887073040008544921875" lon="9.102462865412235260009765625">
        <ele>646</ele>
        <time>2018-08-16T08:50:11.000Z</time>
      </trkpt>
      <trkpt lat="47.90833507664501667022705078125" lon="9.10258658230304718017578125">
        <ele>645.4000244140625</ele>
        <time>2018-08-16T08:50:12.000Z</time>
      </trkpt>
      <trkpt lat="47.9084930755198001861572265625" lon="9.102843068540096282958984375">
        <ele>644.20001220703125</ele>
        <time>2018-08-16T08:50:14.000Z</time>
      </trkpt>
      <trkpt lat="47.90863732807338237762451171875" lon="9.10308840684592723846435546875">
        <ele>643.20001220703125</ele>
        <time>2018-08-16T08:50:16.000Z</time>
      </trkpt>
      <trkpt lat="47.908765487372875213623046875" lon="9.103319831192493438720703125">
        <ele>641.79998779296875</ele>
        <time>2018-08-16T08:50:18.000Z</time>
      </trkpt>
      <trkpt lat="47.90888560004532337188720703125" lon="9.10353432409465312957763671875">
        <ele>640.4000244140625</ele>
        <time>2018-08-16T08:50:20.000Z</time>
      </trkpt>
      <trkpt lat="47.90899657644331455230712890625" lon="9.1037364117801189422607421875">
        <ele>639.5999755859375</ele>
        <time>2018-08-16T08:50:22.000Z</time>
      </trkpt>
      <trkpt lat="47.90904854424297809600830078125" lon="9.10383422859013080596923828125">
        <ele>639.5999755859375</ele>
        <time>2018-08-16T08:50:23.000Z</time>
      </trkpt>
      <trkpt lat="47.9090982489287853240966796875" lon="9.10392944701015949249267578125">
        <ele>639.4000244140625</ele>
        <time>2018-08-16T08:50:24.000Z</time>
      </trkpt>
      <trkpt lat="47.9091451875865459442138671875" lon="9.10402290523052215576171875">
        <ele>639.4000244140625</ele>
        <time>2018-08-16T08:50:25.000Z</time>
      </trkpt>
      <trkpt lat="47.9091927967965602874755859375" lon="9.10411200486123561859130859375">
        <ele>639.4000244140625</ele>
        <time>2018-08-16T08:50:26.000Z</time>
      </trkpt>
      <trkpt lat="47.9092394001781940460205078125" lon="9.10419858992099761962890625">
        <ele>639.4000244140625</ele>
        <time>2018-08-16T08:50:27.000Z</time>
      </trkpt>
      <trkpt lat="47.9093265719711780548095703125" lon="9.10436631180346012115478515625">
        <ele>639.4000244140625</ele>
        <time>2018-08-16T08:50:29.000Z</time>
      </trkpt>
      <trkpt lat="47.9093694873154163360595703125" lon="9.10444560460746288299560546875">
        <ele>639.4000244140625</ele>
        <time>2018-08-16T08:50:30.000Z</time>
      </trkpt>
      <trkpt lat="47.909452803432941436767578125" lon="9.1046024300158023834228515625">
        <ele>639.79998779296875</ele>
        <time>2018-08-16T08:50:32.000Z</time>
      </trkpt>
      <trkpt lat="47.909534610807895660400390625" lon="9.10475405864417552947998046875">
        <ele>640.20001220703125</ele>
        <time>2018-08-16T08:50:34.000Z</time>
      </trkpt>
      <trkpt lat="47.90961633436381816864013671875" lon="9.104907698929309844970703125">
        <ele>640.5999755859375</ele>
        <time>2018-08-16T08:50:36.000Z</time>
      </trkpt>
      <trkpt lat="47.90978682227432727813720703125" lon="9.1052211821079254150390625">
        <ele>641.5999755859375</ele>
        <time>2018-08-16T08:50:40.000Z</time>
      </trkpt>
      <trkpt lat="47.910149507224559783935546875" lon="9.1058650799095630645751953125">
        <ele>642</ele>
        <time>2018-08-16T08:50:48.000Z</time>
      </trkpt>
      <trkpt lat="47.9103401117026805877685546875" lon="9.106209911406040191650390625">
        <ele>642</ele>
        <time>2018-08-16T08:50:52.000Z</time>
      </trkpt>
      <trkpt lat="47.91068561375141143798828125" lon="9.10694106481969356536865234375">
        <ele>641.4000244140625</ele>
        <time>2018-08-16T08:51:00.000Z</time>
      </trkpt>
      <trkpt lat="47.9108383320271968841552734375" lon="9.1073044203221797943115234375">
        <ele>641.20001220703125</ele>
        <time>2018-08-16T08:51:04.000Z</time>
      </trkpt>
      <trkpt lat="47.9110170342028141021728515625" lon="9.10778428427875041961669921875">
        <ele>641.20001220703125</ele>
        <time>2018-08-16T08:51:09.000Z</time>
      </trkpt>
      <trkpt lat="47.91124820709228515625" lon="9.1085100732743740081787109375">
        <ele>641.79998779296875</ele>
        <time>2018-08-16T08:51:16.000Z</time>
      </trkpt>
      <trkpt lat="47.911387346684932708740234375" lon="9.10897501744329929351806640625">
        <ele>641.79998779296875</ele>
        <time>2018-08-16T08:51:20.000Z</time>
      </trkpt>
      <trkpt lat="47.91150025092065334320068359375" lon="9.1093620099127292633056640625">
        <ele>641.79998779296875</ele>
        <time>2018-08-16T08:51:23.000Z</time>
      </trkpt>
      <trkpt lat="47.91157887317240238189697265625" lon="9.10963819362223148345947265625">
        <ele>641.79998779296875</ele>
        <time>2018-08-16T08:51:25.000Z</time>
      </trkpt>
      <trkpt lat="47.911739386618137359619140625" lon="9.110193662345409393310546875">
        <ele>640.5999755859375</ele>
        <time>2018-08-16T08:51:29.000Z</time>
      </trkpt>
      <trkpt lat="47.9117764346301555633544921875" lon="9.1103307902812957763671875">
        <ele>640.20001220703125</ele>
        <time>2018-08-16T08:51:30.000Z</time>
      </trkpt>
      <trkpt lat="47.91181004606187343597412109375" lon="9.110468924045562744140625">
        <ele>639.4000244140625</ele>
        <time>2018-08-16T08:51:31.000Z</time>
      </trkpt>
      <trkpt lat="47.9118414781987667083740234375" lon="9.110607393085956573486328125">
        <ele>639</ele>
        <time>2018-08-16T08:51:32.000Z</time>
      </trkpt>
      <trkpt lat="47.911898307502269744873046875" lon="9.11088173277676105499267578125">
        <ele>638.4000244140625</ele>
        <time>2018-08-16T08:51:34.000Z</time>
      </trkpt>
      <trkpt lat="47.91192202828824520111083984375" lon="9.1110165975987911224365234375">
        <ele>638</ele>
        <time>2018-08-16T08:51:35.000Z</time>
      </trkpt>
      <trkpt lat="47.91198103688657283782958984375" lon="9.11140568554401397705078125">
        <ele>637.4000244140625</ele>
        <time>2018-08-16T08:51:38.000Z</time>
      </trkpt>
      <trkpt lat="47.91202562861144542694091796875" lon="9.1120083443820476531982421875">
        <ele>637.4000244140625</ele>
        <time>2018-08-16T08:51:43.000Z</time>
      </trkpt>
      <trkpt lat="47.91202696971595287322998046875" lon="9.11233850754797458648681640625">
        <ele>637.79998779296875</ele>
        <time>2018-08-16T08:51:46.000Z</time>
      </trkpt>
      <trkpt lat="47.91202043183147907257080078125" lon="9.11264880560338497161865234375">
        <ele>638.4000244140625</ele>
        <time>2018-08-16T08:51:49.000Z</time>
      </trkpt>
      <trkpt lat="47.91199780069291591644287109375" lon="9.1129501350224018096923828125">
        <ele>639.20001220703125</ele>
        <time>2018-08-16T08:51:52.000Z</time>
      </trkpt>
      <trkpt lat="47.911944575607776641845703125" lon="9.11344056017696857452392578125">
        <ele>640.4000244140625</ele>
        <time>2018-08-16T08:51:57.000Z</time>
      </trkpt>
      <trkpt lat="47.91188456118106842041015625" lon="9.1139237768948078155517578125">
        <ele>641.79998779296875</ele>
        <time>2018-08-16T08:52:02.000Z</time>
      </trkpt>
      <trkpt lat="47.91180937550961971282958984375" lon="9.11449550651013851165771484375">
        <ele>642.79998779296875</ele>
        <time>2018-08-16T08:52:08.000Z</time>
      </trkpt>
      <trkpt lat="47.9117398895323276519775390625" lon="9.11515750922262668609619140625">
        <ele>644</ele>
        <time>2018-08-16T08:52:15.000Z</time>
      </trkpt>
      <trkpt lat="47.91170678101480007171630859375" lon="9.11582822911441326141357421875">
        <ele>645</ele>
        <time>2018-08-16T08:52:22.000Z</time>
      </trkpt>
      <trkpt lat="47.9117162525653839111328125" lon="9.1163042373955249786376953125">
        <ele>646</ele>
        <time>2018-08-16T08:52:27.000Z</time>
      </trkpt>
      <trkpt lat="47.91174910962581634521484375" lon="9.11677815020084381103515625">
        <ele>647.20001220703125</ele>
        <time>2018-08-16T08:52:32.000Z</time>
      </trkpt>
      <trkpt lat="47.91186846792697906494140625" lon="9.11761659197509288787841796875">
        <ele>648.4000244140625</ele>
        <time>2018-08-16T08:52:41.000Z</time>
      </trkpt>
      <trkpt lat="47.9119782708585262298583984375" lon="9.11816812120378017425537109375">
        <ele>649.4000244140625</ele>
        <time>2018-08-16T08:52:47.000Z</time>
      </trkpt>
      <trkpt lat="47.91209838353097438812255859375" lon="9.1187245957553386688232421875">
        <ele>650.4000244140625</ele>
        <time>2018-08-16T08:52:53.000Z</time>
      </trkpt>
      <trkpt lat="47.91221790947020053863525390625" lon="9.11927503533661365509033203125">
        <ele>651.4000244140625</ele>
        <time>2018-08-16T08:52:59.000Z</time>
      </trkpt>
      <trkpt lat="47.9123806022107601165771484375" lon="9.1200261376798152923583984375">
        <ele>652.5999755859375</ele>
        <time>2018-08-16T08:53:07.000Z</time>
      </trkpt>
      <trkpt lat="47.91254413314163684844970703125" lon="9.12084094248712062835693359375">
        <ele>653.5999755859375</ele>
        <time>2018-08-16T08:53:15.000Z</time>
      </trkpt>
      <trkpt lat="47.9126055724918842315673828125" lon="9.121165908873081207275390625">
        <ele>653.5999755859375</ele>
        <time>2018-08-16T08:53:18.000Z</time>
      </trkpt>
      <trkpt lat="47.91262485086917877197265625" lon="9.12127814255654811859130859375">
        <ele>653.5999755859375</ele>
        <time>2018-08-16T08:53:19.000Z</time>
      </trkpt>
      <trkpt lat="47.91266315616667270660400390625" lon="9.121508896350860595703125">
        <ele>653.5999755859375</ele>
        <time>2018-08-16T08:53:21.000Z</time>
      </trkpt>
      <trkpt lat="47.9126800037920475006103515625" lon="9.12162959575653076171875">
        <ele>653.5999755859375</ele>
        <time>2018-08-16T08:53:22.000Z</time>
      </trkpt>
      <trkpt lat="47.9126964323222637176513671875" lon="9.1217529773712158203125">
        <ele>653.4000244140625</ele>
        <time>2018-08-16T08:53:23.000Z</time>
      </trkpt>
      <trkpt lat="47.91274311952292919158935546875" lon="9.12213795818388462066650390625">
        <ele>653.20001220703125</ele>
        <time>2018-08-16T08:53:26.000Z</time>
      </trkpt>
      <trkpt lat="47.91276642121374607086181640625" lon="9.12241305224597454071044921875">
        <ele>652.79998779296875</ele>
        <time>2018-08-16T08:53:28.000Z</time>
      </trkpt>
      <trkpt lat="47.9127852804958820343017578125" lon="9.12269837222993373870849609375">
        <ele>652.4000244140625</ele>
        <time>2018-08-16T08:53:30.000Z</time>
      </trkpt>
      <trkpt lat="47.91279659606516361236572265625" lon="9.12298101000487804412841796875">
        <ele>651.79998779296875</ele>
        <time>2018-08-16T08:53:32.000Z</time>
      </trkpt>
      <trkpt lat="47.9127983562648296356201171875" lon="9.12323548458516597747802734375">
        <ele>651.20001220703125</ele>
        <time>2018-08-16T08:53:34.000Z</time>
      </trkpt>
      <trkpt lat="47.91279374621808528900146484375" lon="9.1234306991100311279296875">
        <ele>650.4000244140625</ele>
        <time>2018-08-16T08:53:36.000Z</time>
      </trkpt>
      <trkpt lat="47.91279056109488010406494140625" lon="9.1234923899173736572265625">
        <ele>649.79998779296875</ele>
        <time>2018-08-16T08:53:37.000Z</time>
      </trkpt>
      <trkpt lat="47.91278821416199207305908203125" lon="9.123571850359439849853515625">
        <ele>649</ele>
        <time>2018-08-16T08:53:39.000Z</time>
      </trkpt>
      <trkpt lat="47.9127856157720088958740234375" lon="9.1236052103340625762939453125">
        <ele>648.5999755859375</ele>
        <time>2018-08-16T08:53:40.000Z</time>
      </trkpt>
      <trkpt lat="47.9127869568765163421630859375" lon="9.12368995137512683868408203125">
        <ele>647.5999755859375</ele>
        <time>2018-08-16T08:53:42.000Z</time>
      </trkpt>
      <trkpt lat="47.91279089637100696563720703125" lon="9.12374317646026611328125">
        <ele>647.20001220703125</ele>
        <time>2018-08-16T08:53:43.000Z</time>
      </trkpt>
      <trkpt lat="47.91279383003711700439453125" lon="9.12380327470600605010986328125">
        <ele>646.79998779296875</ele>
        <time>2018-08-16T08:53:44.000Z</time>
      </trkpt>
      <trkpt lat="47.91279491968452930450439453125" lon="9.12387167103588581085205078125">
        <ele>646.4000244140625</ele>
        <time>2018-08-16T08:53:45.000Z</time>
      </trkpt>
      <trkpt lat="47.91279894299805164337158203125" lon="9.12394744344055652618408203125">
        <ele>646</ele>
        <time>2018-08-16T08:53:46.000Z</time>
      </trkpt>
      <trkpt lat="47.9128509946167469024658203125" lon="9.1241996549069881439208984375">
        <ele>645.5999755859375</ele>
        <time>2018-08-16T08:53:49.000Z</time>
      </trkpt>
      <trkpt lat="47.912987954914569854736328125" lon="9.12487129680812358856201171875">
        <ele>645</ele>
        <time>2018-08-16T08:53:55.000Z</time>
      </trkpt>
      <trkpt lat="47.913013435900211334228515625" lon="9.12499777972698211669921875">
        <ele>644.79998779296875</ele>
        <time>2018-08-16T08:53:56.000Z</time>
      </trkpt>
      <trkpt lat="47.9130410961806774139404296875" lon="9.12512652575969696044921875">
        <ele>644.5999755859375</ele>
        <time>2018-08-16T08:53:57.000Z</time>
      </trkpt>
      <trkpt lat="47.9130796529352664947509765625" lon="9.1252520866692066192626953125">
        <ele>644</ele>
        <time>2018-08-16T08:53:58.000Z</time>
      </trkpt>
      <trkpt lat="47.91325223632156848907470703125" lon="9.1255816631019115447998046875">
        <ele>642.79998779296875</ele>
        <time>2018-08-16T08:54:01.000Z</time>
      </trkpt>
      <trkpt lat="47.91331727989017963409423828125" lon="9.125681407749652862548828125">
        <ele>642.4000244140625</ele>
        <time>2018-08-16T08:54:02.000Z</time>
      </trkpt>
      <trkpt lat="47.9134504683315753936767578125" lon="9.1258733533322811126708984375">
        <ele>641.4000244140625</ele>
        <time>2018-08-16T08:54:04.000Z</time>
      </trkpt>
      <trkpt lat="47.9136415757238864898681640625" lon="9.1261590085923671722412109375">
        <ele>640.4000244140625</ele>
        <time>2018-08-16T08:54:07.000Z</time>
      </trkpt>
      <trkpt lat="47.9138159193098545074462890625" lon="9.12642681039869785308837890625">
        <ele>639.4000244140625</ele>
        <time>2018-08-16T08:54:10.000Z</time>
      </trkpt>
      <trkpt lat="47.91392228566110134124755859375" lon="9.126587994396686553955078125">
        <ele>638.20001220703125</ele>
        <time>2018-08-16T08:54:14.000Z</time>
      </trkpt>
      <trkpt lat="47.91394340805709362030029296875" lon="9.12661490030586719512939453125">
        <ele>637.5999755859375</ele>
        <time>2018-08-16T08:54:16.000Z</time>
      </trkpt>
      <trkpt lat="47.9139496944844722747802734375" lon="9.126633591949939727783203125">
        <ele>637.20001220703125</ele>
        <time>2018-08-16T08:54:17.000Z</time>
      </trkpt>
      <trkpt lat="47.913954220712184906005859375" lon="9.12665965966880321502685546875">
        <ele>637</ele>
        <time>2018-08-16T08:54:18.000Z</time>
      </trkpt>
      <trkpt lat="47.91397173888981342315673828125" lon="9.1267366893589496612548828125">
        <ele>636.5999755859375</ele>
        <time>2018-08-16T08:54:20.000Z</time>
      </trkpt>
      <trkpt lat="47.91399068199098110198974609375" lon="9.12678237073123455047607421875">
        <ele>636.20001220703125</ele>
        <time>2018-08-16T08:54:21.000Z</time>
      </trkpt>
      <trkpt lat="47.91401557624340057373046875" lon="9.126830063760280609130859375">
        <ele>636</ele>
        <time>2018-08-16T08:54:22.000Z</time>
      </trkpt>
      <trkpt lat="47.9140405543148517608642578125" lon="9.1268795169889926910400390625">
        <ele>636</ele>
        <time>2018-08-16T08:54:23.000Z</time>
      </trkpt>
      <trkpt lat="47.9140631854534149169921875" lon="9.126932658255100250244140625">
        <ele>635.79998779296875</ele>
        <time>2018-08-16T08:54:24.000Z</time>
      </trkpt>
      <trkpt lat="47.9140819609165191650390625" lon="9.1269901581108570098876953125">
        <ele>635.79998779296875</ele>
        <time>2018-08-16T08:54:25.000Z</time>
      </trkpt>
      <trkpt lat="47.91418480686843395233154296875" lon="9.1274977661669254302978515625">
        <ele>635.79998779296875</ele>
        <time>2018-08-16T08:54:33.000Z</time>
      </trkpt>
      <trkpt lat="47.91422654874622821807861328125" lon="9.12772826850414276123046875">
        <ele>636.20001220703125</ele>
        <time>2018-08-16T08:54:37.000Z</time>
      </trkpt>
      <trkpt lat="47.914245240390300750732421875" lon="9.12783497013151645660400390625">
        <ele>636.4000244140625</ele>
        <time>2018-08-16T08:54:39.000Z</time>
      </trkpt>
      <trkpt lat="47.91425605304539203643798828125" lon="9.12793873809278011322021484375">
        <ele>636.79998779296875</ele>
        <time>2018-08-16T08:54:41.000Z</time>
      </trkpt>
      <trkpt lat="47.914261333644390106201171875" lon="9.127989448606967926025390625">
        <ele>637</ele>
        <time>2018-08-16T08:54:42.000Z</time>
      </trkpt>
      <trkpt lat="47.91428572498261928558349609375" lon="9.128134958446025848388671875">
        <ele>637.5999755859375</ele>
        <time>2018-08-16T08:54:45.000Z</time>
      </trkpt>
      <trkpt lat="47.914307601749897003173828125" lon="9.12828591652214527130126953125">
        <ele>638.5999755859375</ele>
        <time>2018-08-16T08:54:48.000Z</time>
      </trkpt>
      <trkpt lat="47.91433517821133136749267578125" lon="9.12847836501896381378173828125">
        <ele>639.79998779296875</ele>
        <time>2018-08-16T08:54:52.000Z</time>
      </trkpt>
      <trkpt lat="47.914356887340545654296875" lon="9.1286712326109409332275390625">
        <ele>640.79998779296875</ele>
        <time>2018-08-16T08:54:56.000Z</time>
      </trkpt>
      <trkpt lat="47.91439737193286418914794921875" lon="9.12885672412812709808349609375">
        <ele>642</ele>
        <time>2018-08-16T08:55:00.000Z</time>
      </trkpt>
      <trkpt lat="47.914480268955230712890625" lon="9.12901036441326141357421875">
        <ele>643.20001220703125</ele>
        <time>2018-08-16T08:55:04.000Z</time>
      </trkpt>
      <trkpt lat="47.91462318040430545806884765625" lon="9.12904380820691585540771484375">
        <ele>644.20001220703125</ele>
        <time>2018-08-16T08:55:08.000Z</time>
      </trkpt>
      <trkpt lat="47.9148023016750812530517578125" lon="9.12893551401793956756591796875">
        <ele>645.20001220703125</ele>
        <time>2018-08-16T08:55:13.000Z</time>
      </trkpt>
      <trkpt lat="47.91490531526505947113037109375" lon="9.1288848035037517547607421875">
        <ele>646.20001220703125</ele>
        <time>2018-08-16T08:55:16.000Z</time>
      </trkpt>
      <trkpt lat="47.91507228277623653411865234375" lon="9.12882797420024871826171875">
        <ele>647</ele>
        <time>2018-08-16T08:55:21.000Z</time>
      </trkpt>
      <trkpt lat="47.91518208570778369903564453125" lon="9.12880257703363895416259765625">
        <ele>647.20001220703125</ele>
        <time>2018-08-16T08:55:24.000Z</time>
      </trkpt>
      <trkpt lat="47.91528870351612567901611328125" lon="9.12879520095884799957275390625">
        <ele>647.5999755859375</ele>
        <time>2018-08-16T08:55:27.000Z</time>
      </trkpt>
      <trkpt lat="47.91534754447638988494873046875" lon="9.1288090310990810394287109375">
        <ele>647.79998779296875</ele>
        <time>2018-08-16T08:55:29.000Z</time>
      </trkpt>
      <trkpt lat="47.91537989862263202667236328125" lon="9.1288713924586772918701171875">
        <ele>648</ele>
        <time>2018-08-16T08:55:31.000Z</time>
      </trkpt>
      <trkpt lat="47.915432453155517578125" lon="9.1289920918643474578857421875">
        <ele>648.20001220703125</ele>
        <time>2018-08-16T08:55:34.000Z</time>
      </trkpt>
      <trkpt lat="47.91552565991878509521484375" lon="9.12914137355983257293701171875">
        <ele>648.4000244140625</ele>
        <time>2018-08-16T08:55:38.000Z</time>
      </trkpt>
      <trkpt lat="47.91560855694115161895751953125" lon="9.12930012680590152740478515625">
        <ele>648.5999755859375</ele>
        <time>2018-08-16T08:55:42.000Z</time>
      </trkpt>
      <trkpt lat="47.91572012007236480712890625" lon="9.12949693389236927032470703125">
        <ele>649</ele>
        <time>2018-08-16T08:55:47.000Z</time>
      </trkpt>
      <trkpt lat="47.9157650470733642578125" lon="9.1295855306088924407958984375">
        <ele>649.4000244140625</ele>
        <time>2018-08-16T08:55:49.000Z</time>
      </trkpt>
      <trkpt lat="47.91580997407436370849609375" lon="9.1296820901334285736083984375">
        <ele>649.5999755859375</ele>
        <time>2018-08-16T08:55:51.000Z</time>
      </trkpt>
      <trkpt lat="47.915939055383205413818359375" lon="9.12995022721588611602783203125">
        <ele>650.4000244140625</ele>
        <time>2018-08-16T08:55:56.000Z</time>
      </trkpt>
      <trkpt lat="47.9161258041858673095703125" lon="9.1303373873233795166015625">
        <ele>650.5999755859375</ele>
        <time>2018-08-16T08:56:02.000Z</time>
      </trkpt>
      <trkpt lat="47.916196882724761962890625" lon="9.13047728128731250762939453125">
        <ele>650.5999755859375</ele>
        <time>2018-08-16T08:56:04.000Z</time>
      </trkpt>
      <trkpt lat="47.91623166762292385101318359375" lon="9.130551628768444061279296875">
        <ele>650.5999755859375</ele>
        <time>2018-08-16T08:56:05.000Z</time>
      </trkpt>
      <trkpt lat="47.9162972979247570037841796875" lon="9.13070979528129100799560546875">
        <ele>650.5999755859375</ele>
        <time>2018-08-16T08:56:07.000Z</time>
      </trkpt>
      <trkpt lat="47.91652017273008823394775390625" lon="9.13120281882584095001220703125">
        <ele>649.20001220703125</ele>
        <time>2018-08-16T08:56:13.000Z</time>
      </trkpt>
      <trkpt lat="47.91663584299385547637939453125" lon="9.13146517239511013031005859375">
        <ele>648.5999755859375</ele>
        <time>2018-08-16T08:56:16.000Z</time>
      </trkpt>
      <trkpt lat="47.91676291264593601226806640625" lon="9.13175719790160655975341796875">
        <ele>648.20001220703125</ele>
        <time>2018-08-16T08:56:19.000Z</time>
      </trkpt>
      <trkpt lat="47.917010597884654998779296875" lon="9.13230353035032749176025390625">
        <ele>647</ele>
        <time>2018-08-16T08:56:24.000Z</time>
      </trkpt>
      <trkpt lat="47.9171193949878215789794921875" lon="9.13254559971392154693603515625">
        <ele>646.20001220703125</ele>
        <time>2018-08-16T08:56:26.000Z</time>
      </trkpt>
      <trkpt lat="47.917172200977802276611328125" lon="9.1326724179089069366455078125">
        <ele>645.5999755859375</ele>
        <time>2018-08-16T08:56:27.000Z</time>
      </trkpt>
      <trkpt lat="47.9173416830599308013916015625" lon="9.13305647671222686767578125">
        <ele>644.4000244140625</ele>
        <time>2018-08-16T08:56:30.000Z</time>
      </trkpt>
      <trkpt lat="47.9174617119133472442626953125" lon="9.13332092575728893280029296875">
        <ele>643.20001220703125</ele>
        <time>2018-08-16T08:56:32.000Z</time>
      </trkpt>
      <trkpt lat="47.917520217597484588623046875" lon="9.133457131683826446533203125">
        <ele>642.79998779296875</ele>
        <time>2018-08-16T08:56:33.000Z</time>
      </trkpt>
      <trkpt lat="47.91763379238545894622802734375" lon="9.133728034794330596923828125">
        <ele>641.79998779296875</ele>
        <time>2018-08-16T08:56:35.000Z</time>
      </trkpt>
      <trkpt lat="47.9177480377256870269775390625" lon="9.1339833475649356842041015625">
        <ele>640.79998779296875</ele>
        <time>2018-08-16T08:56:37.000Z</time>
      </trkpt>
      <trkpt lat="47.91780226863920688629150390625" lon="9.13411066867411136627197265625">
        <ele>639.79998779296875</ele>
        <time>2018-08-16T08:56:38.000Z</time>
      </trkpt>
      <trkpt lat="47.917907796800136566162109375" lon="9.13436472415924072265625">
        <ele>638.4000244140625</ele>
        <time>2018-08-16T08:56:40.000Z</time>
      </trkpt>
      <trkpt lat="47.9180139116942882537841796875" lon="9.13461307995021343231201171875">
        <ele>637.4000244140625</ele>
        <time>2018-08-16T08:56:42.000Z</time>
      </trkpt>
      <trkpt lat="47.91806495748460292816162109375" lon="9.134738557040691375732421875">
        <ele>637.20001220703125</ele>
        <time>2018-08-16T08:56:43.000Z</time>
      </trkpt>
      <trkpt lat="47.9181802086532115936279296875" lon="9.13497098721563816070556640625">
        <ele>636.5999755859375</ele>
        <time>2018-08-16T08:56:45.000Z</time>
      </trkpt>
      <trkpt lat="47.9183364473283290863037109375" lon="9.1351306624710559844970703125">
        <ele>636</ele>
        <time>2018-08-16T08:56:47.000Z</time>
      </trkpt>
      <trkpt lat="47.9185171611607074737548828125" lon="9.13520618341863155364990234375">
        <ele>635.79998779296875</ele>
        <time>2018-08-16T08:56:49.000Z</time>
      </trkpt>
      <trkpt lat="47.91877808980643749237060546875" lon="9.1352661140263080596923828125">
        <ele>635.20001220703125</ele>
        <time>2018-08-16T08:56:52.000Z</time>
      </trkpt>
      <trkpt lat="47.918860651552677154541015625" lon="9.13527332246303558349609375">
        <ele>635</ele>
        <time>2018-08-16T08:56:53.000Z</time>
      </trkpt>
      <trkpt lat="47.9189399443566799163818359375" lon="9.135287068784236907958984375">
        <ele>634.5999755859375</ele>
        <time>2018-08-16T08:56:54.000Z</time>
      </trkpt>
      <trkpt lat="47.91907380335032939910888671875" lon="9.13538672961294651031494140625">
        <ele>633.79998779296875</ele>
        <time>2018-08-16T08:56:56.000Z</time>
      </trkpt>
      <trkpt lat="47.919124849140644073486328125" lon="9.135673977434635162353515625">
        <ele>633.4000244140625</ele>
        <time>2018-08-16T08:56:59.000Z</time>
      </trkpt>
      <trkpt lat="47.91912225075066089630126953125" lon="9.13577380590140819549560546875">
        <ele>633.4000244140625</ele>
        <time>2018-08-16T08:57:00.000Z</time>
      </trkpt>
      <trkpt lat="47.919121496379375457763671875" lon="9.13596826605498790740966796875">
        <ele>633.20001220703125</ele>
        <time>2018-08-16T08:57:02.000Z</time>
      </trkpt>
      <trkpt lat="47.919123172760009765625" lon="9.13615199737250804901123046875">
        <ele>633.20001220703125</ele>
        <time>2018-08-16T08:57:04.000Z</time>
      </trkpt>
      <trkpt lat="47.9191256873309612274169921875" lon="9.1363195516169071197509765625">
        <ele>633.20001220703125</ele>
        <time>2018-08-16T08:57:06.000Z</time>
      </trkpt>
      <trkpt lat="47.9191245138645172119140625" lon="9.1363993473351001739501953125">
        <ele>633.20001220703125</ele>
        <time>2018-08-16T08:57:07.000Z</time>
      </trkpt>
      <trkpt lat="47.9191246815025806427001953125" lon="9.136791788041591644287109375">
        <ele>633.5999755859375</ele>
        <time>2018-08-16T08:57:12.000Z</time>
      </trkpt>
      <trkpt lat="47.91912426240742206573486328125" lon="9.13693268783390522003173828125">
        <ele>634</ele>
        <time>2018-08-16T08:57:14.000Z</time>
      </trkpt>
      <trkpt lat="47.9191271960735321044921875" lon="9.13700066506862640380859375">
        <ele>634</ele>
        <time>2018-08-16T08:57:15.000Z</time>
      </trkpt>
      <trkpt lat="47.9191360808908939361572265625" lon="9.13712681271135807037353515625">
        <ele>634.4000244140625</ele>
        <time>2018-08-16T08:57:17.000Z</time>
      </trkpt>
      <trkpt lat="47.9191513359546661376953125" lon="9.13729880936443805694580078125">
        <ele>634.79998779296875</ele>
        <time>2018-08-16T08:57:20.000Z</time>
      </trkpt>
      <trkpt lat="47.91918293572962284088134765625" lon="9.13752730004489421844482421875">
        <ele>635.5999755859375</ele>
        <time>2018-08-16T08:57:24.000Z</time>
      </trkpt>
      <trkpt lat="47.9191981069743633270263671875" lon="9.1376395337283611297607421875">
        <ele>635.79998779296875</ele>
        <time>2018-08-16T08:57:26.000Z</time>
      </trkpt>
      <trkpt lat="47.919220738112926483154296875" lon="9.1379147954285144805908203125">
        <ele>637</ele>
        <time>2018-08-16T08:57:31.000Z</time>
      </trkpt>
      <trkpt lat="47.91925250552594661712646484375" lon="9.13816600106656551361083984375">
        <ele>638.4000244140625</ele>
        <time>2018-08-16T08:57:36.000Z</time>
      </trkpt>
      <trkpt lat="47.91928536258637905120849609375" lon="9.13841192610561847686767578125">
        <ele>639.4000244140625</ele>
        <time>2018-08-16T08:57:41.000Z</time>
      </trkpt>
      <trkpt lat="47.91930279694497585296630859375" lon="9.13854771293699741363525390625">
        <ele>640.20001220703125</ele>
        <time>2018-08-16T08:57:44.000Z</time>
      </trkpt>
      <trkpt lat="47.91931428015232086181640625" lon="9.1386383213102817535400390625">
        <ele>640.5999755859375</ele>
        <time>2018-08-16T08:57:46.000Z</time>
      </trkpt>
      <trkpt lat="47.91933783330023288726806640625" lon="9.13882532157003879547119140625">
        <ele>641.79998779296875</ele>
        <time>2018-08-16T08:57:50.000Z</time>
      </trkpt>
      <trkpt lat="47.9193670861423015594482421875" lon="9.1390572488307952880859375">
        <ele>643</ele>
        <time>2018-08-16T08:57:55.000Z</time>
      </trkpt>
      <trkpt lat="47.9193965904414653778076171875" lon="9.13929102011024951934814453125">
        <ele>644.20001220703125</ele>
        <time>2018-08-16T08:58:00.000Z</time>
      </trkpt>
      <trkpt lat="47.91943271644413471221923828125" lon="9.13947961293160915374755859375">
        <ele>645.20001220703125</ele>
        <time>2018-08-16T08:58:04.000Z</time>
      </trkpt>
      <trkpt lat="47.91947999037802219390869140625" lon="9.139659404754638671875">
        <ele>646.20001220703125</ele>
        <time>2018-08-16T08:58:08.000Z</time>
      </trkpt>
      <trkpt lat="47.919556684792041778564453125" lon="9.13988093845546245574951171875">
        <ele>647.4000244140625</ele>
        <time>2018-08-16T08:58:13.000Z</time>
      </trkpt>
      <trkpt lat="47.9196520708501338958740234375" lon="9.14010691456496715545654296875">
        <ele>648.5999755859375</ele>
        <time>2018-08-16T08:58:18.000Z</time>
      </trkpt>
      <trkpt lat="47.91973915882408618927001953125" lon="9.140287376940250396728515625">
        <ele>649.5999755859375</ele>
        <time>2018-08-16T08:58:22.000Z</time>
      </trkpt>
      <trkpt lat="47.9198720119893550872802734375" lon="9.14049181155860424041748046875">
        <ele>650.79998779296875</ele>
        <time>2018-08-16T08:58:27.000Z</time>
      </trkpt>
      <trkpt lat="47.92006555013358592987060546875" lon="9.1407175362110137939453125">
        <ele>652.20001220703125</ele>
        <time>2018-08-16T08:58:33.000Z</time>
      </trkpt>
      <trkpt lat="47.920335866510868072509765625" lon="9.14094376377761363983154296875">
        <ele>653.20001220703125</ele>
        <time>2018-08-16T08:58:40.000Z</time>
      </trkpt>
      <trkpt lat="47.92066569440066814422607421875" lon="9.14119220338761806488037109375">
        <ele>653.79998779296875</ele>
        <time>2018-08-16T08:58:47.000Z</time>
      </trkpt>
      <trkpt lat="47.92090214788913726806640625" lon="9.1413156688213348388671875">
        <ele>653.79998779296875</ele>
        <time>2018-08-16T08:58:51.000Z</time>
      </trkpt>
      <trkpt lat="47.921421825885772705078125" lon="9.141519181430339813232421875">
        <ele>653.79998779296875</ele>
        <time>2018-08-16T08:58:58.000Z</time>
      </trkpt>
      <trkpt lat="47.92167328298091888427734375" lon="9.1416145674884319305419921875">
        <ele>653.79998779296875</ele>
        <time>2018-08-16T08:59:01.000Z</time>
      </trkpt>
      <trkpt lat="47.9217589460313320159912109375" lon="9.14164759218692779541015625">
        <ele>653.5999755859375</ele>
        <time>2018-08-16T08:59:02.000Z</time>
      </trkpt>
      <trkpt lat="47.92193186469376087188720703125" lon="9.14171397686004638671875">
        <ele>653.4000244140625</ele>
        <time>2018-08-16T08:59:04.000Z</time>
      </trkpt>
      <trkpt lat="47.922439388930797576904296875" lon="9.14189913310110569000244140625">
        <ele>652.20001220703125</ele>
        <time>2018-08-16T08:59:10.000Z</time>
      </trkpt>
      <trkpt lat="47.9225183464586734771728515625" lon="9.1419314034283161163330078125">
        <ele>652</ele>
        <time>2018-08-16T08:59:11.000Z</time>
      </trkpt>
      <trkpt lat="47.9226732440292835235595703125" lon="9.141992591321468353271484375">
        <ele>651.4000244140625</ele>
        <time>2018-08-16T08:59:13.000Z</time>
      </trkpt>
      <trkpt lat="47.9229649342596530914306640625" lon="9.14210264571011066436767578125">
        <ele>651.20001220703125</ele>
        <time>2018-08-16T08:59:17.000Z</time>
      </trkpt>
      <trkpt lat="47.92316769249737262725830078125" lon="9.14218076504766941070556640625">
        <ele>651.20001220703125</ele>
        <time>2018-08-16T08:59:20.000Z</time>
      </trkpt>
      <trkpt lat="47.92336131446063518524169921875" lon="9.14225318469107151031494140625">
        <ele>651.20001220703125</ele>
        <time>2018-08-16T08:59:23.000Z</time>
      </trkpt>
      <trkpt lat="47.92355217039585113525390625" lon="9.1423266939818859100341796875">
        <ele>651.5999755859375</ele>
        <time>2018-08-16T08:59:26.000Z</time>
      </trkpt>
      <trkpt lat="47.9237454570829868316650390625" lon="9.14240472950041294097900390625">
        <ele>652</ele>
        <time>2018-08-16T08:59:29.000Z</time>
      </trkpt>
      <trkpt lat="47.9238788969814777374267578125" lon="9.1424527578055858612060546875">
        <ele>652.4000244140625</ele>
        <time>2018-08-16T08:59:31.000Z</time>
      </trkpt>
      <trkpt lat="47.924216687679290771484375" lon="9.142592065036296844482421875">
        <ele>653.20001220703125</ele>
        <time>2018-08-16T08:59:36.000Z</time>
      </trkpt>
      <trkpt lat="47.92463318444788455963134765625" lon="9.1428705118596553802490234375">
        <ele>653.5999755859375</ele>
        <time>2018-08-16T08:59:42.000Z</time>
      </trkpt>
      <trkpt lat="47.92514213360846042633056640625" lon="9.14338541217148303985595703125">
        <ele>653.5999755859375</ele>
        <time>2018-08-16T08:59:49.000Z</time>
      </trkpt>
      <trkpt lat="47.92529284022748470306396484375" lon="9.143570400774478912353515625">
        <ele>653.5999755859375</ele>
        <time>2018-08-16T08:59:51.000Z</time>
      </trkpt>
      <trkpt lat="47.92576231062412261962890625" lon="9.1441668570041656494140625">
        <ele>652.4000244140625</ele>
        <time>2018-08-16T08:59:57.000Z</time>
      </trkpt>
      <trkpt lat="47.9258375801146030426025390625" lon="9.1442655958235263824462890625">
        <ele>652.20001220703125</ele>
        <time>2018-08-16T08:59:58.000Z</time>
      </trkpt>
      <trkpt lat="47.92598015628755092620849609375" lon="9.144458211958408355712890625">
        <ele>651.5999755859375</ele>
        <time>2018-08-16T09:00:00.000Z</time>
      </trkpt>
      <trkpt lat="47.926046289503574371337890625" lon="9.14455250836908817291259765625">
        <ele>651</ele>
        <time>2018-08-16T09:00:01.000Z</time>
      </trkpt>
      <trkpt lat="47.926107309758663177490234375" lon="9.1446464695036411285400390625">
        <ele>650.79998779296875</ele>
        <time>2018-08-16T09:00:02.000Z</time>
      </trkpt>
      <trkpt lat="47.92616405524313449859619140625" lon="9.14473925717175006866455078125">
        <ele>650.79998779296875</ele>
        <time>2018-08-16T09:00:03.000Z</time>
      </trkpt>
      <trkpt lat="47.926271259784698486328125" lon="9.14491779170930385589599609375">
        <ele>650.5999755859375</ele>
        <time>2018-08-16T09:00:05.000Z</time>
      </trkpt>
      <trkpt lat="47.92636220343410968780517578125" lon="9.1451014392077922821044921875">
        <ele>650.5999755859375</ele>
        <time>2018-08-16T09:00:07.000Z</time>
      </trkpt>
      <trkpt lat="47.92644451372325420379638671875" lon="9.145283997058868408203125">
        <ele>650.5999755859375</ele>
        <time>2018-08-16T09:00:09.000Z</time>
      </trkpt>
      <trkpt lat="47.92660678736865520477294921875" lon="9.1456338576972484588623046875">
        <ele>651</ele>
        <time>2018-08-16T09:00:13.000Z</time>
      </trkpt>
      <trkpt lat="47.9267285764217376708984375" lon="9.1458963789045810699462890625">
        <ele>651.5999755859375</ele>
        <time>2018-08-16T09:00:16.000Z</time>
      </trkpt>
      <trkpt lat="47.92689126916229724884033203125" lon="9.14625420235097408294677734375">
        <ele>652</ele>
        <time>2018-08-16T09:00:20.000Z</time>
      </trkpt>
      <trkpt lat="47.92710475623607635498046875" lon="9.14671788923442363739013671875">
        <ele>652</ele>
        <time>2018-08-16T09:00:25.000Z</time>
      </trkpt>
      <trkpt lat="47.92745000682771205902099609375" lon="9.1474212147295475006103515625">
        <ele>652</ele>
        <time>2018-08-16T09:00:32.000Z</time>
      </trkpt>
      <trkpt lat="47.92762116529047489166259765625" lon="9.147747941315174102783203125">
        <ele>651.79998779296875</ele>
        <time>2018-08-16T09:00:35.000Z</time>
      </trkpt>
      <trkpt lat="47.9277355782687664031982421875" lon="9.14796419441699981689453125">
        <ele>651.20001220703125</ele>
        <time>2018-08-16T09:00:37.000Z</time>
      </trkpt>
      <trkpt lat="47.9278455488383769989013671875" lon="9.14817516691982746124267578125">
        <ele>650.5999755859375</ele>
        <time>2018-08-16T09:00:39.000Z</time>
      </trkpt>
      <trkpt lat="47.9278991930186748504638671875" lon="9.1482754983007907867431640625">
        <ele>650.4000244140625</ele>
        <time>2018-08-16T09:00:40.000Z</time>
      </trkpt>
      <trkpt lat="47.927951999008655548095703125" lon="9.148371219635009765625">
        <ele>650</ele>
        <time>2018-08-16T09:00:41.000Z</time>
      </trkpt>
      <trkpt lat="47.92800388298928737640380859375" lon="9.14846710860729217529296875">
        <ele>649.5999755859375</ele>
        <time>2018-08-16T09:00:42.000Z</time>
      </trkpt>
      <trkpt lat="47.92805367149412631988525390625" lon="9.14856324903666973114013671875">
        <ele>649.20001220703125</ele>
        <time>2018-08-16T09:00:43.000Z</time>
      </trkpt>
      <trkpt lat="47.92810379527509212493896484375" lon="9.1486568748950958251953125">
        <ele>649</ele>
        <time>2018-08-16T09:00:44.000Z</time>
      </trkpt>
      <trkpt lat="47.92820320464670658111572265625" lon="9.14883683435618877410888671875">
        <ele>649</ele>
        <time>2018-08-16T09:00:46.000Z</time>
      </trkpt>
      <trkpt lat="47.928252406418323516845703125" lon="9.1489212401211261749267578125">
        <ele>649</ele>
        <time>2018-08-16T09:00:47.000Z</time>
      </trkpt>
      <trkpt lat="47.92849053628742694854736328125" lon="9.14932005107402801513671875">
        <ele>649</ele>
        <time>2018-08-16T09:00:52.000Z</time>
      </trkpt>
      <trkpt lat="47.9288064502179622650146484375" lon="9.14980410598218441009521484375">
        <ele>649.79998779296875</ele>
        <time>2018-08-16T09:00:59.000Z</time>
      </trkpt>
      <trkpt lat="47.92884123511612415313720703125" lon="9.14987736381590366363525390625">
        <ele>650</ele>
        <time>2018-08-16T09:01:00.000Z</time>
      </trkpt>
      <trkpt lat="47.92892019264400005340576171875" lon="9.15001868270337581634521484375">
        <ele>650.20001220703125</ele>
        <time>2018-08-16T09:01:02.000Z</time>
      </trkpt>
      <trkpt lat="47.92899596504867076873779296875" lon="9.1501429863274097442626953125">
        <ele>650.5999755859375</ele>
        <time>2018-08-16T09:01:04.000Z</time>
      </trkpt>
      <trkpt lat="47.9291873238980770111083984375" lon="9.15047868154942989349365234375">
        <ele>651.5999755859375</ele>
        <time>2018-08-16T09:01:09.000Z</time>
      </trkpt>
      <trkpt lat="47.92926653288304805755615234375" lon="9.15060994215309619903564453125">
        <ele>652</ele>
        <time>2018-08-16T09:01:11.000Z</time>
      </trkpt>
      <trkpt lat="47.929375581443309783935546875" lon="9.15080892853438854217529296875">
        <ele>652.4000244140625</ele>
        <time>2018-08-16T09:01:14.000Z</time>
      </trkpt>
      <trkpt lat="47.92944791726768016815185546875" lon="9.1509483195841312408447265625">
        <ele>652.5999755859375</ele>
        <time>2018-08-16T09:01:16.000Z</time>
      </trkpt>
      <trkpt lat="47.92960683815181255340576171875" lon="9.15119759738445281982421875">
        <ele>653</ele>
        <time>2018-08-16T09:01:20.000Z</time>
      </trkpt>
      <trkpt lat="47.92976173572242259979248046875" lon="9.15147210471332073211669921875">
        <ele>653.79998779296875</ele>
        <time>2018-08-16T09:01:24.000Z</time>
      </trkpt>
      <trkpt lat="47.92983666993677616119384765625" lon="9.1516071371734142303466796875">
        <ele>654.20001220703125</ele>
        <time>2018-08-16T09:01:26.000Z</time>
      </trkpt>
      <trkpt lat="47.929958961904048919677734375" lon="9.151800759136676788330078125">
        <ele>654.4000244140625</ele>
        <time>2018-08-16T09:01:29.000Z</time>
      </trkpt>
      <trkpt lat="47.9299976862967014312744140625" lon="9.151865132153034210205078125">
        <ele>654.5999755859375</ele>
        <time>2018-08-16T09:01:30.000Z</time>
      </trkpt>
      <trkpt lat="47.93025995604693889617919921875" lon="9.15230962447822093963623046875">
        <ele>655.5999755859375</ele>
        <time>2018-08-16T09:01:37.000Z</time>
      </trkpt>
      <trkpt lat="47.93052465654909610748291015625" lon="9.1527930088341236114501953125">
        <ele>656.79998779296875</ele>
        <time>2018-08-16T09:01:44.000Z</time>
      </trkpt>
      <trkpt lat="47.93075918219983577728271484375" lon="9.1532446257770061492919921875">
        <ele>657.4000244140625</ele>
        <time>2018-08-16T09:01:50.000Z</time>
      </trkpt>
      <trkpt lat="47.93079455383121967315673828125" lon="9.15331779979169368743896484375">
        <ele>657.5999755859375</ele>
        <time>2018-08-16T09:01:51.000Z</time>
      </trkpt>
      <trkpt lat="47.931023798882961273193359375" lon="9.15379389189183712005615234375">
        <ele>658.5999755859375</ele>
        <time>2018-08-16T09:01:57.000Z</time>
      </trkpt>
      <trkpt lat="47.93130266480147838592529296875" lon="9.15448598563671112060546875">
        <ele>659.4000244140625</ele>
        <time>2018-08-16T09:02:05.000Z</time>
      </trkpt>
      <trkpt lat="47.93133518658578395843505859375" lon="9.15457785129547119140625">
        <ele>659.4000244140625</ele>
        <time>2018-08-16T09:02:06.000Z</time>
      </trkpt>
      <trkpt lat="47.93152327649295330047607421875" lon="9.1551583819091320037841796875">
        <ele>659.4000244140625</ele>
        <time>2018-08-16T09:02:12.000Z</time>
      </trkpt>
      <trkpt lat="47.9316036589443683624267578125" lon="9.15546499192714691162109375">
        <ele>659.4000244140625</ele>
        <time>2018-08-16T09:02:15.000Z</time>
      </trkpt>
      <trkpt lat="47.93178412131965160369873046875" lon="9.1562419943511486053466796875">
        <ele>659.20001220703125</ele>
        <time>2018-08-16T09:02:22.000Z</time>
      </trkpt>
      <trkpt lat="47.931956537067890167236328125" lon="9.15705445222556591033935546875">
        <ele>658.5999755859375</ele>
        <time>2018-08-16T09:02:29.000Z</time>
      </trkpt>
      <trkpt lat="47.932027615606784820556640625" lon="9.1573941707611083984375">
        <ele>658.20001220703125</ele>
        <time>2018-08-16T09:02:32.000Z</time>
      </trkpt>
      <trkpt lat="47.93207245878875255584716796875" lon="9.15761536918580532073974609375">
        <ele>658.20001220703125</ele>
        <time>2018-08-16T09:02:34.000Z</time>
      </trkpt>
      <trkpt lat="47.932118140161037445068359375" lon="9.1578348912298679351806640625">
        <ele>658</ele>
        <time>2018-08-16T09:02:36.000Z</time>
      </trkpt>
      <trkpt lat="47.93213884346187114715576171875" lon="9.15794678963720798492431640625">
        <ele>658</ele>
        <time>2018-08-16T09:02:37.000Z</time>
      </trkpt>
      <trkpt lat="47.93215929530560970306396484375" lon="9.1580612026154994964599609375">
        <ele>658</ele>
        <time>2018-08-16T09:02:38.000Z</time>
      </trkpt>
      <trkpt lat="47.93222752399742603302001953125" lon="9.1583991609513759613037109375">
        <ele>658</ele>
        <time>2018-08-16T09:02:41.000Z</time>
      </trkpt>
      <trkpt lat="47.93236255645751953125" lon="9.15894306264817714691162109375">
        <ele>657.5999755859375</ele>
        <time>2018-08-16T09:02:46.000Z</time>
      </trkpt>
      <trkpt lat="47.932556681334972381591796875" lon="9.159342460334300994873046875">
        <ele>657.4000244140625</ele>
        <time>2018-08-16T09:02:51.000Z</time>
      </trkpt>
      <trkpt lat="47.93247328139841556549072265625" lon="9.15975384414196014404296875">
        <ele>657.4000244140625</ele>
        <time>2018-08-16T09:02:55.000Z</time>
      </trkpt>
      <trkpt lat="47.93244637548923492431640625" lon="9.1598659940063953399658203125">
        <ele>657.4000244140625</ele>
        <time>2018-08-16T09:02:56.000Z</time>
      </trkpt>
      <trkpt lat="47.93240270577371120452880859375" lon="9.16010227985680103302001953125">
        <ele>657.20001220703125</ele>
        <time>2018-08-16T09:02:58.000Z</time>
      </trkpt>
      <trkpt lat="47.93237320147454738616943359375" lon="9.1603538207709789276123046875">
        <ele>657.20001220703125</ele>
        <time>2018-08-16T09:03:00.000Z</time>
      </trkpt>
      <trkpt lat="47.93236188590526580810546875" lon="9.16048206388950347900390625">
        <ele>657</ele>
        <time>2018-08-16T09:03:01.000Z</time>
      </trkpt>
      <trkpt lat="47.93231855146586894989013671875" lon="9.1611506044864654541015625">
        <ele>656.5999755859375</ele>
        <time>2018-08-16T09:03:06.000Z</time>
      </trkpt>
      <trkpt lat="47.9323124326765537261962890625" lon="9.16128764860332012176513671875">
        <ele>656.20001220703125</ele>
        <time>2018-08-16T09:03:07.000Z</time>
      </trkpt>
      <trkpt lat="47.93230681680142879486083984375" lon="9.16156190447509288787841796875">
        <ele>655.5999755859375</ele>
        <time>2018-08-16T09:03:09.000Z</time>
      </trkpt>
      <trkpt lat="47.93230597861111164093017578125" lon="9.16169752366840839385986328125">
        <ele>655.4000244140625</ele>
        <time>2018-08-16T09:03:10.000Z</time>
      </trkpt>
      <trkpt lat="47.9323063977062702178955078125" lon="9.16183213703334331512451171875">
        <ele>655.20001220703125</ele>
        <time>2018-08-16T09:03:11.000Z</time>
      </trkpt>
      <trkpt lat="47.9323080740869045257568359375" lon="9.161966331303119659423828125">
        <ele>655</ele>
        <time>2018-08-16T09:03:12.000Z</time>
      </trkpt>
      <trkpt lat="47.932334728538990020751953125" lon="9.16249631904065608978271484375">
        <ele>654</ele>
        <time>2018-08-16T09:03:16.000Z</time>
      </trkpt>
      <trkpt lat="47.9323469661176204681396484375" lon="9.1626258194446563720703125">
        <ele>653.79998779296875</ele>
        <time>2018-08-16T09:03:17.000Z</time>
      </trkpt>
      <trkpt lat="47.9323617182672023773193359375" lon="9.16275389492511749267578125">
        <ele>653.5999755859375</ele>
        <time>2018-08-16T09:03:18.000Z</time>
      </trkpt>
      <trkpt lat="47.93239465914666652679443359375" lon="9.16300199925899505615234375">
        <ele>653</ele>
        <time>2018-08-16T09:03:20.000Z</time>
      </trkpt>
      <trkpt lat="47.932433970272541046142578125" lon="9.1632405482232570648193359375">
        <ele>652.5999755859375</ele>
        <time>2018-08-16T09:03:22.000Z</time>
      </trkpt>
      <trkpt lat="47.93245433829724788665771484375" lon="9.1633565537631511688232421875">
        <ele>652</ele>
        <time>2018-08-16T09:03:23.000Z</time>
      </trkpt>
      <trkpt lat="47.93247596360743045806884765625" lon="9.16347004473209381103515625">
        <ele>652</ele>
        <time>2018-08-16T09:03:24.000Z</time>
      </trkpt>
      <trkpt lat="47.932499349117279052734375" lon="9.16358135640621185302734375">
        <ele>652</ele>
        <time>2018-08-16T09:03:25.000Z</time>
      </trkpt>
      <trkpt lat="47.9325243271887302398681640625" lon="9.16369124315679073333740234375">
        <ele>652</ele>
        <time>2018-08-16T09:03:26.000Z</time>
      </trkpt>
      <trkpt lat="47.93257671408355236053466796875" lon="9.16390716098248958587646484375">
        <ele>651.79998779296875</ele>
        <time>2018-08-16T09:03:28.000Z</time>
      </trkpt>
      <trkpt lat="47.9326044581830501556396484375" lon="9.1640130244195461273193359375">
        <ele>651.79998779296875</ele>
        <time>2018-08-16T09:03:29.000Z</time>
      </trkpt>
      <trkpt lat="47.932842336595058441162109375" lon="9.16473613120615482330322265625">
        <ele>652</ele>
        <time>2018-08-16T09:03:36.000Z</time>
      </trkpt>
      <trkpt lat="47.9331028461456298828125" lon="9.16536192409694194793701171875">
        <ele>652</ele>
        <time>2018-08-16T09:03:42.000Z</time>
      </trkpt>
      <trkpt lat="47.93335405178368091583251953125" lon="9.16593767702579498291015625">
        <ele>651.5999755859375</ele>
        <time>2018-08-16T09:03:47.000Z</time>
      </trkpt>
      <trkpt lat="47.93361774645745754241943359375" lon="9.16654544882476329803466796875">
        <ele>650.5999755859375</ele>
        <time>2018-08-16T09:03:52.000Z</time>
      </trkpt>
      <trkpt lat="47.93371916748583316802978515625" lon="9.166781902313232421875">
        <ele>650</ele>
        <time>2018-08-16T09:03:54.000Z</time>
      </trkpt>
      <trkpt lat="47.9337688721716403961181640625" lon="9.16689748875796794891357421875">
        <ele>649.5999755859375</ele>
        <time>2018-08-16T09:03:55.000Z</time>
      </trkpt>
      <trkpt lat="47.93395972810685634613037109375" lon="9.16733644902706146240234375">
        <ele>648.4000244140625</ele>
        <time>2018-08-16T09:03:59.000Z</time>
      </trkpt>
      <trkpt lat="47.93426834978163242340087890625" lon="9.16803876869380474090576171875">
        <ele>647.5999755859375</ele>
        <time>2018-08-16T09:04:06.000Z</time>
      </trkpt>
      <trkpt lat="47.9343944974243640899658203125" lon="9.168328531086444854736328125">
        <ele>647.5999755859375</ele>
        <time>2018-08-16T09:04:09.000Z</time>
      </trkpt>
      <trkpt lat="47.934478484094142913818359375" lon="9.16852408088743686676025390625">
        <ele>647.5999755859375</ele>
        <time>2018-08-16T09:04:11.000Z</time>
      </trkpt>
      <trkpt lat="47.93456238694489002227783203125" lon="9.16872172616422176361083984375">
        <ele>647.79998779296875</ele>
        <time>2018-08-16T09:04:13.000Z</time>
      </trkpt>
      <trkpt lat="47.93473270721733570098876953125" lon="9.1691139154136180877685546875">
        <ele>648</ele>
        <time>2018-08-16T09:04:17.000Z</time>
      </trkpt>
      <trkpt lat="47.93493370525538921356201171875" lon="9.1695821285247802734375">
        <ele>648</ele>
        <time>2018-08-16T09:04:22.000Z</time>
      </trkpt>
      <trkpt lat="47.93496572412550449371337890625" lon="9.16967189870774745941162109375">
        <ele>648</ele>
        <time>2018-08-16T09:04:23.000Z</time>
      </trkpt>
      <trkpt lat="47.93500612489879131317138671875" lon="9.169827215373516082763671875">
        <ele>648</ele>
        <time>2018-08-16T09:04:25.000Z</time>
      </trkpt>
      <trkpt lat="47.9350345395505428314208984375" lon="9.1699497587978839874267578125">
        <ele>648</ele>
        <time>2018-08-16T09:04:27.000Z</time>
      </trkpt>
      <trkpt lat="47.935100756585597991943359375" lon="9.1699992120265960693359375">
        <ele>648</ele>
        <time>2018-08-16T09:04:29.000Z</time>
      </trkpt>
      <trkpt lat="47.93524199165403842926025390625" lon="9.1699080169200897216796875">
        <ele>647.5999755859375</ele>
        <time>2018-08-16T09:04:32.000Z</time>
      </trkpt>
      <trkpt lat="47.93529731221497058868408203125" lon="9.16986300610005855560302734375">
        <ele>647.4000244140625</ele>
        <time>2018-08-16T09:04:33.000Z</time>
      </trkpt>
      <trkpt lat="47.93535497970879077911376953125" lon="9.1698173247277736663818359375">
        <ele>647.20001220703125</ele>
        <time>2018-08-16T09:04:34.000Z</time>
      </trkpt>
      <trkpt lat="47.9355959594249725341796875" lon="9.169609285891056060791015625">
        <ele>646.79998779296875</ele>
        <time>2018-08-16T09:04:38.000Z</time>
      </trkpt>
      <trkpt lat="47.93572344817221164703369140625" lon="9.1694877482950687408447265625">
        <ele>646.79998779296875</ele>
        <time>2018-08-16T09:04:40.000Z</time>
      </trkpt>
      <trkpt lat="47.93597809039056301116943359375" lon="9.16918977163732051849365234375">
        <ele>646.4000244140625</ele>
        <time>2018-08-16T09:04:44.000Z</time>
      </trkpt>
      <trkpt lat="47.93628654442727565765380859375" lon="9.16882515884935855865478515625">
        <ele>645.20001220703125</ele>
        <time>2018-08-16T09:04:49.000Z</time>
      </trkpt>
      <trkpt lat="47.936545126140117645263671875" lon="9.16861988604068756103515625">
        <ele>644.79998779296875</ele>
        <time>2018-08-16T09:04:53.000Z</time>
      </trkpt>
      <trkpt lat="47.9366740398108959197998046875" lon="9.1685553453862667083740234375">
        <ele>644.5999755859375</ele>
        <time>2018-08-16T09:04:55.000Z</time>
      </trkpt>
      <trkpt lat="47.936735562980175018310546875" lon="9.16853229515254497528076171875">
        <ele>644.5999755859375</ele>
        <time>2018-08-16T09:04:56.000Z</time>
      </trkpt>
      <trkpt lat="47.93684846721589565277099609375" lon="9.1685097478330135345458984375">
        <ele>644.5999755859375</ele>
        <time>2018-08-16T09:04:58.000Z</time>
      </trkpt>
      <trkpt lat="47.936951480805873870849609375" lon="9.168522655963897705078125">
        <ele>644.5999755859375</ele>
        <time>2018-08-16T09:05:00.000Z</time>
      </trkpt>
      <trkpt lat="47.9370445199310779571533203125" lon="9.16856531985104084014892578125">
        <ele>644.79998779296875</ele>
        <time>2018-08-16T09:05:02.000Z</time>
      </trkpt>
      <trkpt lat="47.9371296800673007965087890625" lon="9.1686394996941089630126953125">
        <ele>644.79998779296875</ele>
        <time>2018-08-16T09:05:04.000Z</time>
      </trkpt>
      <trkpt lat="47.9372118227183818817138671875" lon="9.1687179543077945709228515625">
        <ele>645.20001220703125</ele>
        <time>2018-08-16T09:05:06.000Z</time>
      </trkpt>
      <trkpt lat="47.93725549243390560150146484375" lon="9.16875206865370273590087890625">
        <ele>645.5999755859375</ele>
        <time>2018-08-16T09:05:07.000Z</time>
      </trkpt>
      <trkpt lat="47.93740133754909038543701171875" lon="9.168817698955535888671875">
        <ele>646.4000244140625</ele>
        <time>2018-08-16T09:05:10.000Z</time>
      </trkpt>
      <trkpt lat="47.93755455873906612396240234375" lon="9.16880940087139606475830078125">
        <ele>647.4000244140625</ele>
        <time>2018-08-16T09:05:13.000Z</time>
      </trkpt>
      <trkpt lat="47.93760552071034908294677734375" lon="9.1687990911304950714111328125">
        <ele>647.5999755859375</ele>
        <time>2018-08-16T09:05:14.000Z</time>
      </trkpt>
      <trkpt lat="47.9377532936632633209228515625" lon="9.168771766126155853271484375">
        <ele>648.20001220703125</ele>
        <time>2018-08-16T09:05:17.000Z</time>
      </trkpt>
      <trkpt lat="47.93784993700683116912841796875" lon="9.16874821297824382781982421875">
        <ele>648.79998779296875</ele>
        <time>2018-08-16T09:05:19.000Z</time>
      </trkpt>
      <trkpt lat="47.938092760741710662841796875" lon="9.16869993321597576141357421875">
        <ele>649.79998779296875</ele>
        <time>2018-08-16T09:05:24.000Z</time>
      </trkpt>
      <trkpt lat="47.93823433108627796173095703125" lon="9.16867797262966632843017578125">
        <ele>650.5999755859375</ele>
        <time>2018-08-16T09:05:27.000Z</time>
      </trkpt>
      <trkpt lat="47.938280515372753143310546875" lon="9.16866774670779705047607421875">
        <ele>650.79998779296875</ele>
        <time>2018-08-16T09:05:28.000Z</time>
      </trkpt>
      <trkpt lat="47.9384738020598888397216796875" lon="9.16862768121063709259033203125">
        <ele>652</ele>
        <time>2018-08-16T09:05:32.000Z</time>
      </trkpt>
      <trkpt lat="47.938662730157375335693359375" lon="9.16857420466840267181396484375">
        <ele>653</ele>
        <time>2018-08-16T09:05:36.000Z</time>
      </trkpt>
      <trkpt lat="47.93890169821679592132568359375" lon="9.16852894239127635955810546875">
        <ele>654.4000244140625</ele>
        <time>2018-08-16T09:05:41.000Z</time>
      </trkpt>
      <trkpt lat="47.9390964098274707794189453125" lon="9.16849516332149505615234375">
        <ele>655.20001220703125</ele>
        <time>2018-08-16T09:05:45.000Z</time>
      </trkpt>
      <trkpt lat="47.9391445219516754150390625" lon="9.1684792377054691314697265625">
        <ele>655.4000244140625</ele>
        <time>2018-08-16T09:05:46.000Z</time>
      </trkpt>
      <trkpt lat="47.93919523246586322784423828125" lon="9.16846859268844127655029296875">
        <ele>655.79998779296875</ele>
        <time>2018-08-16T09:05:47.000Z</time>
      </trkpt>
      <trkpt lat="47.93940377421677112579345703125" lon="9.1684462130069732666015625">
        <ele>656.5999755859375</ele>
        <time>2018-08-16T09:05:51.000Z</time>
      </trkpt>
      <trkpt lat="47.93968356214463710784912109375" lon="9.16839122772216796875">
        <ele>657.79998779296875</ele>
        <time>2018-08-16T09:05:57.000Z</time>
      </trkpt>
      <trkpt lat="47.939830832183361053466796875" lon="9.16835300624370574951171875">
        <ele>658.20001220703125</ele>
        <time>2018-08-16T09:06:00.000Z</time>
      </trkpt>
      <trkpt lat="47.94009444303810596466064453125" lon="9.1682958416640758514404296875">
        <ele>658.79998779296875</ele>
        <time>2018-08-16T09:06:05.000Z</time>
      </trkpt>
      <trkpt lat="47.94019795954227447509765625" lon="9.16828058660030364990234375">
        <ele>658.79998779296875</ele>
        <time>2018-08-16T09:06:07.000Z</time>
      </trkpt>
      <trkpt lat="47.940282784402370452880859375" lon="9.16835878975689411163330078125">
        <ele>659</ele>
        <time>2018-08-16T09:06:09.000Z</time>
      </trkpt>
      <trkpt lat="47.9403329081833362579345703125" lon="9.1684919781982898712158203125">
        <ele>659</ele>
        <time>2018-08-16T09:06:11.000Z</time>
      </trkpt>
      <trkpt lat="47.940387725830078125" lon="9.168695993721485137939453125">
        <ele>659</ele>
        <time>2018-08-16T09:06:14.000Z</time>
      </trkpt>
      <trkpt lat="47.94042100198566913604736328125" lon="9.1688270866870880126953125">
        <ele>659</ele>
        <time>2018-08-16T09:06:16.000Z</time>
      </trkpt>
      <trkpt lat="47.940451763570308685302734375" lon="9.16895658709108829498291015625">
        <ele>659</ele>
        <time>2018-08-16T09:06:18.000Z</time>
      </trkpt>
      <trkpt lat="47.94049275107681751251220703125" lon="9.1691457666456699371337890625">
        <ele>659</ele>
        <time>2018-08-16T09:06:21.000Z</time>
      </trkpt>
      <trkpt lat="47.940556369721889495849609375" lon="9.16928381659090518951416015625">
        <ele>658.79998779296875</ele>
        <time>2018-08-16T09:06:25.000Z</time>
      </trkpt>
      <trkpt lat="47.9405719600617885589599609375" lon="9.169284403324127197265625">
        <ele>658.79998779296875</ele>
        <time>2018-08-16T09:06:26.000Z</time>
      </trkpt>
      <trkpt lat="47.94065485708415508270263671875" lon="9.1691112332046031951904296875">
        <ele>658.4000244140625</ele>
        <time>2018-08-16T09:06:31.000Z</time>
      </trkpt>
      <trkpt lat="47.940669022500514984130859375" lon="9.16905247606337070465087890625">
        <ele>658.4000244140625</ele>
        <time>2018-08-16T09:06:32.000Z</time>
      </trkpt>
      <trkpt lat="47.94068804942071437835693359375" lon="9.1689891926944255828857421875">
        <ele>658.4000244140625</ele>
        <time>2018-08-16T09:06:33.000Z</time>
      </trkpt>
      <trkpt lat="47.9407865367829799652099609375" lon="9.168803952634334564208984375">
        <ele>658.4000244140625</ele>
        <time>2018-08-16T09:06:36.000Z</time>
      </trkpt>
      <trkpt lat="47.9408235847949981689453125" lon="9.168735556304454803466796875">
        <ele>658.4000244140625</ele>
        <time>2018-08-16T09:06:37.000Z</time>
      </trkpt>
      <trkpt lat="47.940902374684810638427734375" lon="9.16859214194118976593017578125">
        <ele>658.4000244140625</ele>
        <time>2018-08-16T09:06:39.000Z</time>
      </trkpt>
      <trkpt lat="47.9413266666233539581298828125" lon="9.16796299628913402557373046875">
        <ele>658.79998779296875</ele>
        <time>2018-08-16T09:06:48.000Z</time>
      </trkpt>
      <trkpt lat="47.94170762412250041961669921875" lon="9.1675367765128612518310546875">
        <ele>659</ele>
        <time>2018-08-16T09:06:55.000Z</time>
      </trkpt>
      <trkpt lat="47.9418185167014598846435546875" lon="9.16742169298231601715087890625">
        <ele>659</ele>
        <time>2018-08-16T09:06:57.000Z</time>
      </trkpt>
      <trkpt lat="47.94234297238290309906005859375" lon="9.16699069552123546600341796875">
        <ele>659.20001220703125</ele>
        <time>2018-08-16T09:07:06.000Z</time>
      </trkpt>
      <trkpt lat="47.94258604757487773895263671875" lon="9.1668296791613101959228515625">
        <ele>659.5999755859375</ele>
        <time>2018-08-16T09:07:10.000Z</time>
      </trkpt>
      <trkpt lat="47.94309197925031185150146484375" lon="9.16654947213828563690185546875">
        <ele>659.79998779296875</ele>
        <time>2018-08-16T09:07:18.000Z</time>
      </trkpt>
      <trkpt lat="47.94328543357551097869873046875" lon="9.1664518229663372039794921875">
        <ele>660</ele>
        <time>2018-08-16T09:07:21.000Z</time>
      </trkpt>
      <trkpt lat="47.9438291676342487335205078125" lon="9.1661789081990718841552734375">
        <ele>660.20001220703125</ele>
        <time>2018-08-16T09:07:29.000Z</time>
      </trkpt>
      <trkpt lat="47.9443012364208698272705078125" lon="9.16592116467654705047607421875">
        <ele>660.4000244140625</ele>
        <time>2018-08-16T09:07:36.000Z</time>
      </trkpt>
      <trkpt lat="47.94442654587328433990478515625" lon="9.16584388352930545806884765625">
        <ele>660.4000244140625</ele>
        <time>2018-08-16T09:07:38.000Z</time>
      </trkpt>
      <trkpt lat="47.94467984698712825775146484375" lon="9.1656800173223018646240234375">
        <ele>660.5999755859375</ele>
        <time>2018-08-16T09:07:42.000Z</time>
      </trkpt>
      <trkpt lat="47.944752015173435211181640625" lon="9.16565529070794582366943359375">
        <ele>660.5999755859375</ele>
        <time>2018-08-16T09:07:43.000Z</time>
      </trkpt>
      <trkpt lat="47.944823764264583587646484375" lon="9.1656334139406681060791015625">
        <ele>660.5999755859375</ele>
        <time>2018-08-16T09:07:44.000Z</time>
      </trkpt>
      <trkpt lat="47.94496449641883373260498046875" lon="9.165583290159702301025390625">
        <ele>660.5999755859375</ele>
        <time>2018-08-16T09:07:46.000Z</time>
      </trkpt>
      <trkpt lat="47.94503339566290378570556640625" lon="9.16555101983249187469482421875">
        <ele>660.5999755859375</ele>
        <time>2018-08-16T09:07:47.000Z</time>
      </trkpt>
      <trkpt lat="47.9453151114284992218017578125" lon="9.16540534235537052154541015625">
        <ele>660.5999755859375</ele>
        <time>2018-08-16T09:07:51.000Z</time>
      </trkpt>
      <trkpt lat="47.94538476504385471343994140625" lon="9.1653697192668914794921875">
        <ele>660.5999755859375</ele>
        <time>2018-08-16T09:07:52.000Z</time>
      </trkpt>
      <trkpt lat="47.9454532451927661895751953125" lon="9.1653350181877613067626953125">
        <ele>660.5999755859375</ele>
        <time>2018-08-16T09:07:53.000Z</time>
      </trkpt>
      <trkpt lat="47.94558676891028881072998046875" lon="9.16526821441948413848876953125">
        <ele>660.5999755859375</ele>
        <time>2018-08-16T09:07:55.000Z</time>
      </trkpt>
      <trkpt lat="47.946028746664524078369140625" lon="9.1650436632335186004638671875">
        <ele>660.4000244140625</ele>
        <time>2018-08-16T09:08:02.000Z</time>
      </trkpt>
      <trkpt lat="47.94608700089156627655029296875" lon="9.16500695049762725830078125">
        <ele>660.4000244140625</ele>
        <time>2018-08-16T09:08:03.000Z</time>
      </trkpt>
      <trkpt lat="47.9461419023573398590087890625" lon="9.16496378369629383087158203125">
        <ele>660.4000244140625</ele>
        <time>2018-08-16T09:08:04.000Z</time>
      </trkpt>
      <trkpt lat="47.94624424539506435394287109375" lon="9.164932183921337127685546875">
        <ele>660.4000244140625</ele>
        <time>2018-08-16T09:08:06.000Z</time>
      </trkpt>
      <trkpt lat="47.9463363625109195709228515625" lon="9.1650279052555561065673828125">
        <ele>660.4000244140625</ele>
        <time>2018-08-16T09:08:09.000Z</time>
      </trkpt>
      <trkpt lat="47.94637642800807952880859375" lon="9.16504944674670696258544921875">
        <ele>660.4000244140625</ele>
        <time>2018-08-16T09:08:10.000Z</time>
      </trkpt>
      <trkpt lat="47.946421690285205841064453125" lon="9.16504642926156520843505859375">
        <ele>660.4000244140625</ele>
        <time>2018-08-16T09:08:11.000Z</time>
      </trkpt>
      <trkpt lat="47.9464723169803619384765625" lon="9.16502882726490497589111328125">
        <ele>660.4000244140625</ele>
        <time>2018-08-16T09:08:12.000Z</time>
      </trkpt>
      <trkpt lat="47.94652923010289669036865234375" lon="9.16500695049762725830078125">
        <ele>660.4000244140625</ele>
        <time>2018-08-16T09:08:13.000Z</time>
      </trkpt>
      <trkpt lat="47.9468553699553012847900390625" lon="9.164956994354724884033203125">
        <ele>660.4000244140625</ele>
        <time>2018-08-16T09:08:18.000Z</time>
      </trkpt>
      <trkpt lat="47.94698000885546207427978515625" lon="9.16504450142383575439453125">
        <ele>660.4000244140625</ele>
        <time>2018-08-16T09:08:20.000Z</time>
      </trkpt>
      <trkpt lat="47.9470649175345897674560546875" lon="9.16532537899911403656005859375">
        <ele>660.4000244140625</ele>
        <time>2018-08-16T09:08:23.000Z</time>
      </trkpt>
      <trkpt lat="47.9470964334905147552490234375" lon="9.165528975427150726318359375">
        <ele>660.4000244140625</ele>
        <time>2018-08-16T09:08:25.000Z</time>
      </trkpt>
      <trkpt lat="47.9471313022077083587646484375" lon="9.165732152760028839111328125">
        <ele>660.20001220703125</ele>
        <time>2018-08-16T09:08:27.000Z</time>
      </trkpt>
      <trkpt lat="47.94714865274727344512939453125" lon="9.1658318974077701568603515625">
        <ele>660</ele>
        <time>2018-08-16T09:08:28.000Z</time>
      </trkpt>
      <trkpt lat="47.94724990613758563995361328125" lon="9.16631947271525859832763671875">
        <ele>659.79998779296875</ele>
        <time>2018-08-16T09:08:33.000Z</time>
      </trkpt>
      <trkpt lat="47.94727404601871967315673828125" lon="9.1664132662117481231689453125">
        <ele>659.79998779296875</ele>
        <time>2018-08-16T09:08:34.000Z</time>
      </trkpt>
      <trkpt lat="47.94747571460902690887451171875" lon="9.167166464030742645263671875">
        <ele>660</ele>
        <time>2018-08-16T09:08:42.000Z</time>
      </trkpt>
      <trkpt lat="47.94755467213690280914306640625" lon="9.16744985617697238922119140625">
        <ele>660</ele>
        <time>2018-08-16T09:08:45.000Z</time>
      </trkpt>
      <trkpt lat="47.94763262383639812469482421875" lon="9.1677354276180267333984375">
        <ele>660.20001220703125</ele>
        <time>2018-08-16T09:08:48.000Z</time>
      </trkpt>
      <trkpt lat="47.9478464461863040924072265625" lon="9.16849306784570217132568359375">
        <ele>660.4000244140625</ele>
        <time>2018-08-16T09:08:56.000Z</time>
      </trkpt>
      <trkpt lat="47.947981394827365875244140625" lon="9.1689781285822391510009765625">
        <ele>660.20001220703125</ele>
        <time>2018-08-16T09:09:01.000Z</time>
      </trkpt>
      <trkpt lat="47.948293201625347137451171875" lon="9.16971783153712749481201171875">
        <ele>660.20001220703125</ele>
        <time>2018-08-16T09:09:09.000Z</time>
      </trkpt>
      <trkpt lat="47.94873668812215328216552734375" lon="9.17026500217616558074951171875">
        <ele>660.20001220703125</ele>
        <time>2018-08-16T09:09:17.000Z</time>
      </trkpt>
      <trkpt lat="47.9491922445595264434814453125" lon="9.17076959274709224700927734375">
        <ele>660.5999755859375</ele>
        <time>2018-08-16T09:09:25.000Z</time>
      </trkpt>
      <trkpt lat="47.94965500943362712860107421875" lon="9.17128642089664936065673828125">
        <ele>661.20001220703125</ele>
        <time>2018-08-16T09:09:33.000Z</time>
      </trkpt>
      <trkpt lat="47.949718125164508819580078125" lon="9.17133822105824947357177734375">
        <ele>661.20001220703125</ele>
        <time>2018-08-16T09:09:34.000Z</time>
      </trkpt>
      <trkpt lat="47.95025716535747051239013671875" lon="9.17163468897342681884765625">
        <ele>661.5999755859375</ele>
        <time>2018-08-16T09:09:42.000Z</time>
      </trkpt>
      <trkpt lat="47.9508096165955066680908203125" lon="9.17196082882583141326904296875">
        <ele>661.79998779296875</ele>
        <time>2018-08-16T09:09:50.000Z</time>
      </trkpt>
      <trkpt lat="47.95130842365324497222900390625" lon="9.17247329838573932647705078125">
        <ele>661.79998779296875</ele>
        <time>2018-08-16T09:09:58.000Z</time>
      </trkpt>
      <trkpt lat="47.95166649855673313140869140625" lon="9.1731025278568267822265625">
        <ele>661.5999755859375</ele>
        <time>2018-08-16T09:10:05.000Z</time>
      </trkpt>
      <trkpt lat="47.95205240137875080108642578125" lon="9.173746593296527862548828125">
        <ele>661.4000244140625</ele>
        <time>2018-08-16T09:10:12.000Z</time>
      </trkpt>
      <trkpt lat="47.952454984188079833984375" lon="9.17435721494257450103759765625">
        <ele>661.4000244140625</ele>
        <time>2018-08-16T09:10:19.000Z</time>
      </trkpt>
      <trkpt lat="47.9528953693807125091552734375" lon="9.1749929822981357574462890625">
        <ele>662</ele>
        <time>2018-08-16T09:10:27.000Z</time>
      </trkpt>
      <trkpt lat="47.9530006460845470428466796875" lon="9.17514159344136714935302734375">
        <ele>662.4000244140625</ele>
        <time>2018-08-16T09:10:29.000Z</time>
      </trkpt>
      <trkpt lat="47.95333047397434711456298828125" lon="9.1755481995642185211181640625">
        <ele>663.5999755859375</ele>
        <time>2018-08-16T09:10:35.000Z</time>
      </trkpt>
      <trkpt lat="47.95378544367849826812744140625" lon="9.175887666642665863037109375">
        <ele>664.5999755859375</ele>
        <time>2018-08-16T09:10:42.000Z</time>
      </trkpt>
      <trkpt lat="47.9543705843389034271240234375" lon="9.1761912591755390167236328125">
        <ele>665</ele>
        <time>2018-08-16T09:10:50.000Z</time>
      </trkpt>
      <trkpt lat="47.9546019248664379119873046875" lon="9.17630030773580074310302734375">
        <ele>665</ele>
        <time>2018-08-16T09:10:53.000Z</time>
      </trkpt>
      <trkpt lat="47.95516745187342166900634765625" lon="9.1765758208930492401123046875">
        <ele>664.79998779296875</ele>
        <time>2018-08-16T09:11:00.000Z</time>
      </trkpt>
      <trkpt lat="47.95533676631748676300048828125" lon="9.17665687389671802520751953125">
        <ele>664.5999755859375</ele>
        <time>2018-08-16T09:11:02.000Z</time>
      </trkpt>
      <trkpt lat="47.95568176545202732086181640625" lon="9.17681948281824588775634765625">
        <ele>664.20001220703125</ele>
        <time>2018-08-16T09:11:06.000Z</time>
      </trkpt>
      <trkpt lat="47.9560231603682041168212890625" lon="9.17699282057583332061767578125">
        <ele>663.20001220703125</ele>
        <time>2018-08-16T09:11:10.000Z</time>
      </trkpt>
      <trkpt lat="47.9564754478633403778076171875" lon="9.177254922688007354736328125">
        <ele>662.20001220703125</ele>
        <time>2018-08-16T09:11:15.000Z</time>
      </trkpt>
      <trkpt lat="47.95666211284697055816650390625" lon="9.17740948498249053955078125">
        <ele>661.79998779296875</ele>
        <time>2018-08-16T09:11:17.000Z</time>
      </trkpt>
      <trkpt lat="47.95675816945731639862060546875" lon="9.17749640531837940216064453125">
        <ele>661.4000244140625</ele>
        <time>2018-08-16T09:11:18.000Z</time>
      </trkpt>
      <trkpt lat="47.95685489661991596221923828125" lon="9.17758625932037830352783203125">
        <ele>661</ele>
        <time>2018-08-16T09:11:19.000Z</time>
      </trkpt>
      <trkpt lat="47.9569517076015472412109375" lon="9.1776782087981700897216796875">
        <ele>660.79998779296875</ele>
        <time>2018-08-16T09:11:20.000Z</time>
      </trkpt>
      <trkpt lat="47.95722621493041515350341796875" lon="9.1779605112969875335693359375">
        <ele>659.79998779296875</ele>
        <time>2018-08-16T09:11:23.000Z</time>
      </trkpt>
      <trkpt lat="47.95738463290035724639892578125" lon="9.17817098088562488555908203125">
        <ele>658.5999755859375</ele>
        <time>2018-08-16T09:11:25.000Z</time>
      </trkpt>
      <trkpt lat="47.95745193958282470703125" lon="9.17828732170164585113525390625">
        <ele>658.20001220703125</ele>
        <time>2018-08-16T09:11:26.000Z</time>
      </trkpt>
      <trkpt lat="47.95756484381854534149169921875" lon="9.1785318218171596527099609375">
        <ele>657</ele>
        <time>2018-08-16T09:11:28.000Z</time>
      </trkpt>
      <trkpt lat="47.957653105258941650390625" lon="9.17879308573901653289794921875">
        <ele>656.20001220703125</ele>
        <time>2018-08-16T09:11:30.000Z</time>
      </trkpt>
      <trkpt lat="47.95768738724291324615478515625" lon="9.17892669327557086944580078125">
        <ele>656</ele>
        <time>2018-08-16T09:11:31.000Z</time>
      </trkpt>
      <trkpt lat="47.95773834921419620513916015625" lon="9.1791960038244724273681640625">
        <ele>655.20001220703125</ele>
        <time>2018-08-16T09:11:33.000Z</time>
      </trkpt>
      <trkpt lat="47.95775838196277618408203125" lon="9.17932651005685329437255859375">
        <ele>655</ele>
        <time>2018-08-16T09:11:34.000Z</time>
      </trkpt>
      <trkpt lat="47.95779366977512836456298828125" lon="9.17957327328622341156005859375">
        <ele>654.79998779296875</ele>
        <time>2018-08-16T09:11:36.000Z</time>
      </trkpt>
      <trkpt lat="47.95782535336911678314208984375" lon="9.17979807592928409576416015625">
        <ele>654.79998779296875</ele>
        <time>2018-08-16T09:11:38.000Z</time>
      </trkpt>
      <trkpt lat="47.957869358360767364501953125" lon="9.18010435067117214202880859375">
        <ele>654.79998779296875</ele>
        <time>2018-08-16T09:11:41.000Z</time>
      </trkpt>
      <trkpt lat="47.9579030536115169525146484375" lon="9.1802947036921977996826171875">
        <ele>654.79998779296875</ele>
        <time>2018-08-16T09:11:43.000Z</time>
      </trkpt>
      <trkpt lat="47.9579610563814640045166015625" lon="9.1805642656981945037841796875">
        <ele>655</ele>
        <time>2018-08-16T09:11:46.000Z</time>
      </trkpt>
      <trkpt lat="47.95806960202753543853759765625" lon="9.18098746798932552337646484375">
        <ele>656</ele>
        <time>2018-08-16T09:11:51.000Z</time>
      </trkpt>
      <trkpt lat="47.9581384174525737762451171875" lon="9.1812415234744548797607421875">
        <ele>657</ele>
        <time>2018-08-16T09:11:54.000Z</time>
      </trkpt>
      <trkpt lat="47.95818996615707874298095703125" lon="9.1814058087766170501708984375">
        <ele>657.4000244140625</ele>
        <time>2018-08-16T09:11:56.000Z</time>
      </trkpt>
      <trkpt lat="47.95824327506124973297119140625" lon="9.181571938097476959228515625">
        <ele>658</ele>
        <time>2018-08-16T09:11:58.000Z</time>
      </trkpt>
      <trkpt lat="47.95836464501917362213134765625" lon="9.1819157637655735015869140625">
        <ele>658.79998779296875</ele>
        <time>2018-08-16T09:12:02.000Z</time>
      </trkpt>
      <trkpt lat="47.95855742879211902618408203125" lon="9.18247022666037082672119140625">
        <ele>659.4000244140625</ele>
        <time>2018-08-16T09:12:08.000Z</time>
      </trkpt>
      <trkpt lat="47.9588280804455280303955078125" lon="9.183252342045307159423828125">
        <ele>659.5999755859375</ele>
        <time>2018-08-16T09:12:16.000Z</time>
      </trkpt>
      <trkpt lat="47.9590584151446819305419921875" lon="9.18389162980020046234130859375">
        <ele>659.4000244140625</ele>
        <time>2018-08-16T09:12:22.000Z</time>
      </trkpt>
      <trkpt lat="47.959237955510616302490234375" lon="9.1843431629240512847900390625">
        <ele>658.4000244140625</ele>
        <time>2018-08-16T09:12:26.000Z</time>
      </trkpt>
      <trkpt lat="47.959288246929645538330078125" lon="9.18445539660751819610595703125">
        <ele>658.20001220703125</ele>
        <time>2018-08-16T09:12:27.000Z</time>
      </trkpt>
      <trkpt lat="47.95944674871861934661865234375" lon="9.184795282781124114990234375">
        <ele>657.5999755859375</ele>
        <time>2018-08-16T09:12:30.000Z</time>
      </trkpt>
      <trkpt lat="47.95955479145050048828125" lon="9.18502335436642169952392578125">
        <ele>657</ele>
        <time>2018-08-16T09:12:32.000Z</time>
      </trkpt>
      <trkpt lat="47.959771044552326202392578125" lon="9.18547849170863628387451171875">
        <ele>656</ele>
        <time>2018-08-16T09:12:36.000Z</time>
      </trkpt>
      <trkpt lat="47.95998067595064640045166015625" lon="9.185916446149349212646484375">
        <ele>654.79998779296875</ele>
        <time>2018-08-16T09:12:40.000Z</time>
      </trkpt>
      <trkpt lat="47.9602234996855258941650390625" lon="9.18642447330057621002197265625">
        <ele>654</ele>
        <time>2018-08-16T09:12:45.000Z</time>
      </trkpt>
      <trkpt lat="47.96035802923142910003662109375" lon="9.1867053508758544921875">
        <ele>654</ele>
        <time>2018-08-16T09:12:48.000Z</time>
      </trkpt>
      <trkpt lat="47.9605664871633052825927734375" lon="9.1871427185833454132080078125">
        <ele>654</ele>
        <time>2018-08-16T09:12:53.000Z</time>
      </trkpt>
      <trkpt lat="47.96072901226580142974853515625" lon="9.18748310767114162445068359375">
        <ele>654.5999755859375</ele>
        <time>2018-08-16T09:12:57.000Z</time>
      </trkpt>
      <trkpt lat="47.96098231337964534759521484375" lon="9.18799943290650844573974609375">
        <ele>655.5999755859375</ele>
        <time>2018-08-16T09:13:03.000Z</time>
      </trkpt>
      <trkpt lat="47.96111189760267734527587890625" lon="9.1882642172276973724365234375">
        <ele>656</ele>
        <time>2018-08-16T09:13:06.000Z</time>
      </trkpt>
      <trkpt lat="47.9614663682878017425537109375" lon="9.18897542171180248260498046875">
        <ele>656.4000244140625</ele>
        <time>2018-08-16T09:13:14.000Z</time>
      </trkpt>
      <trkpt lat="47.9617999680340290069580078125" lon="9.189593084156513214111328125">
        <ele>656.4000244140625</ele>
        <time>2018-08-16T09:13:21.000Z</time>
      </trkpt>
      <trkpt lat="47.962185032665729522705078125" lon="9.19017001055181026458740234375">
        <ele>655.79998779296875</ele>
        <time>2018-08-16T09:13:28.000Z</time>
      </trkpt>
      <trkpt lat="47.96261745505034923553466796875" lon="9.190739728510379791259765625">
        <ele>655.4000244140625</ele>
        <time>2018-08-16T09:13:35.000Z</time>
      </trkpt>
      <trkpt lat="47.9630148410797119140625" lon="9.19123350642621517181396484375">
        <ele>655</ele>
        <time>2018-08-16T09:13:41.000Z</time>
      </trkpt>
      <trkpt lat="47.9631484486162662506103515625" lon="9.1914007253944873809814453125">
        <ele>655</ele>
        <time>2018-08-16T09:13:43.000Z</time>
      </trkpt>
      <trkpt lat="47.963609285652637481689453125" lon="9.1919763945043087005615234375">
        <ele>654</ele>
        <time>2018-08-16T09:13:50.000Z</time>
      </trkpt>
      <trkpt lat="47.96399409882724285125732421875" lon="9.19245667755603790283203125">
        <ele>653.20001220703125</ele>
        <time>2018-08-16T09:13:56.000Z</time>
      </trkpt>
      <trkpt lat="47.9644147865474224090576171875" lon="9.19297660700976848602294921875">
        <ele>653.20001220703125</ele>
        <time>2018-08-16T09:14:03.000Z</time>
      </trkpt>
      <trkpt lat="47.96475970186293125152587890625" lon="9.19340257532894611358642578125">
        <ele>654.20001220703125</ele>
        <time>2018-08-16T09:14:09.000Z</time>
      </trkpt>
      <trkpt lat="47.96510218642652034759521484375" lon="9.1938412003219127655029296875">
        <ele>655.20001220703125</ele>
        <time>2018-08-16T09:14:15.000Z</time>
      </trkpt>
      <trkpt lat="47.9654983989894390106201171875" lon="9.1944218985736370086669921875">
        <ele>655.5999755859375</ele>
        <time>2018-08-16T09:14:22.000Z</time>
      </trkpt>
      <trkpt lat="47.96565975062549114227294921875" lon="9.19473445974290370941162109375">
        <ele>655.5999755859375</ele>
        <time>2018-08-16T09:14:25.000Z</time>
      </trkpt>
      <trkpt lat="47.9658190906047821044921875" lon="9.19509731233119964599609375">
        <ele>655.5999755859375</ele>
        <time>2018-08-16T09:14:28.000Z</time>
      </trkpt>
      <trkpt lat="47.96591824851930141448974609375" lon="9.19536611996591091156005859375">
        <ele>655.5999755859375</ele>
        <time>2018-08-16T09:14:30.000Z</time>
      </trkpt>
      <trkpt lat="47.96596636064350605010986328125" lon="9.195504672825336456298828125">
        <ele>655.4000244140625</ele>
        <time>2018-08-16T09:14:31.000Z</time>
      </trkpt>
      <trkpt lat="47.96606409363448619842529296875" lon="9.1957881487905979156494140625">
        <ele>654.79998779296875</ele>
        <time>2018-08-16T09:14:33.000Z</time>
      </trkpt>
      <trkpt lat="47.9661141335964202880859375" lon="9.1959313116967678070068359375">
        <ele>654.4000244140625</ele>
        <time>2018-08-16T09:14:34.000Z</time>
      </trkpt>
      <trkpt lat="47.96616551466286182403564453125" lon="9.1960741393268108367919921875">
        <ele>653.79998779296875</ele>
        <time>2018-08-16T09:14:35.000Z</time>
      </trkpt>
      <trkpt lat="47.96626945026218891143798828125" lon="9.19636323116719722747802734375">
        <ele>652.79998779296875</ele>
        <time>2018-08-16T09:14:37.000Z</time>
      </trkpt>
      <trkpt lat="47.9663215018808841705322265625" lon="9.19651125557720661163330078125">
        <ele>652.20001220703125</ele>
        <time>2018-08-16T09:14:38.000Z</time>
      </trkpt>
      <trkpt lat="47.9663741402328014373779296875" lon="9.1966618783771991729736328125">
        <ele>651.79998779296875</ele>
        <time>2018-08-16T09:14:39.000Z</time>
      </trkpt>
      <trkpt lat="47.96642853878438472747802734375" lon="9.196814596652984619140625">
        <ele>651.20001220703125</ele>
        <time>2018-08-16T09:14:40.000Z</time>
      </trkpt>
      <trkpt lat="47.96654605306684970855712890625" lon="9.19712648726999759674072265625">
        <ele>650</ele>
        <time>2018-08-16T09:14:42.000Z</time>
      </trkpt>
      <trkpt lat="47.96667848713696002960205078125" lon="9.19743963517248630523681640625">
        <ele>648.79998779296875</ele>
        <time>2018-08-16T09:14:44.000Z</time>
      </trkpt>
      <trkpt lat="47.966750152409076690673828125" lon="9.19759176671504974365234375">
        <ele>648.4000244140625</ele>
        <time>2018-08-16T09:14:45.000Z</time>
      </trkpt>
      <trkpt lat="47.96682500280439853668212890625" lon="9.1977381147444248199462890625">
        <ele>647.79998779296875</ele>
        <time>2018-08-16T09:14:46.000Z</time>
      </trkpt>
      <trkpt lat="47.9669786430895328521728515625" lon="9.19801865704357624053955078125">
        <ele>645.5999755859375</ele>
        <time>2018-08-16T09:14:48.000Z</time>
      </trkpt>
      <trkpt lat="47.96713127754628658294677734375" lon="9.19829140417277812957763671875">
        <ele>644</ele>
        <time>2018-08-16T09:14:50.000Z</time>
      </trkpt>
      <trkpt lat="47.96728131361305713653564453125" lon="9.19855794869363307952880859375">
        <ele>642.4000244140625</ele>
        <time>2018-08-16T09:14:52.000Z</time>
      </trkpt>
      <trkpt lat="47.96735524199903011322021484375" lon="9.19868837110698223114013671875">
        <ele>641.5999755859375</ele>
        <time>2018-08-16T09:14:53.000Z</time>
      </trkpt>
      <trkpt lat="47.96742849983274936676025390625" lon="9.1988166980445384979248046875">
        <ele>641</ele>
        <time>2018-08-16T09:14:54.000Z</time>
      </trkpt>
      <trkpt lat="47.9676424898207187652587890625" lon="9.19919312931597232818603515625">
        <ele>639.5999755859375</ele>
        <time>2018-08-16T09:14:57.000Z</time>
      </trkpt>
      <trkpt lat="47.96784885227680206298828125" lon="9.1995519585907459259033203125">
        <ele>638.4000244140625</ele>
        <time>2018-08-16T09:15:00.000Z</time>
      </trkpt>
      <trkpt lat="47.96810592524707317352294921875" lon="9.19998790137469768524169921875">
        <ele>637.20001220703125</ele>
        <time>2018-08-16T09:15:04.000Z</time>
      </trkpt>
      <trkpt lat="47.96816862188279628753662109375" lon="9.20008613727986812591552734375">
        <ele>636.79998779296875</ele>
        <time>2018-08-16T09:15:05.000Z</time>
      </trkpt>
      <trkpt lat="47.96822997741401195526123046875" lon="9.20018001459538936614990234375">
        <ele>636.5999755859375</ele>
        <time>2018-08-16T09:15:06.000Z</time>
      </trkpt>
      <trkpt lat="47.96829015947878360748291015625" lon="9.2002697847783565521240234375">
        <ele>636.4000244140625</ele>
        <time>2018-08-16T09:15:07.000Z</time>
      </trkpt>
      <trkpt lat="47.9683492518961429595947265625" lon="9.2003552801907062530517578125">
        <ele>636.4000244140625</ele>
        <time>2018-08-16T09:15:08.000Z</time>
      </trkpt>
      <trkpt lat="47.96840666793286800384521484375" lon="9.2004380933940410614013671875">
        <ele>636.4000244140625</ele>
        <time>2018-08-16T09:15:09.000Z</time>
      </trkpt>
      <trkpt lat="47.96846265904605388641357421875" lon="9.200517721474170684814453125">
        <ele>636.20001220703125</ele>
        <time>2018-08-16T09:15:10.000Z</time>
      </trkpt>
      <trkpt lat="47.96851831488311290740966796875" lon="9.2005933262407779693603515625">
        <ele>636.20001220703125</ele>
        <time>2018-08-16T09:15:11.000Z</time>
      </trkpt>
      <trkpt lat="47.96857279725372791290283203125" lon="9.2006667517125606536865234375">
        <ele>636.20001220703125</ele>
        <time>2018-08-16T09:15:12.000Z</time>
      </trkpt>
      <trkpt lat="47.96862627379596233367919921875" lon="9.200739003717899322509765625">
        <ele>636.20001220703125</ele>
        <time>2018-08-16T09:15:13.000Z</time>
      </trkpt>
      <trkpt lat="47.96873138286173343658447265625" lon="9.2008773051202297210693359375">
        <ele>636.20001220703125</ele>
        <time>2018-08-16T09:15:15.000Z</time>
      </trkpt>
      <trkpt lat="47.968834228813648223876953125" lon="9.2010080628097057342529296875">
        <ele>636.4000244140625</ele>
        <time>2018-08-16T09:15:17.000Z</time>
      </trkpt>
      <trkpt lat="47.9690806567668914794921875" lon="9.2013104818761348724365234375">
        <ele>638</ele>
        <time>2018-08-16T09:15:22.000Z</time>
      </trkpt>
      <trkpt lat="47.9691753722727298736572265625" lon="9.20142103917896747589111328125">
        <ele>638.20001220703125</ele>
        <time>2018-08-16T09:15:24.000Z</time>
      </trkpt>
      <trkpt lat="47.9693601094186305999755859375" lon="9.20164299197494983673095703125">
        <ele>639</ele>
        <time>2018-08-16T09:15:28.000Z</time>
      </trkpt>
      <trkpt lat="47.96945624984800815582275390625" lon="9.20175346545875072479248046875">
        <ele>639.5999755859375</ele>
        <time>2018-08-16T09:15:30.000Z</time>
      </trkpt>
      <trkpt lat="47.96965305693447589874267578125" lon="9.2019786871969699859619140625">
        <ele>640.4000244140625</ele>
        <time>2018-08-16T09:15:34.000Z</time>
      </trkpt>
      <trkpt lat="47.96980409882962703704833984375" lon="9.20215177349746227264404296875">
        <ele>640.5999755859375</ele>
        <time>2018-08-16T09:15:37.000Z</time>
      </trkpt>
      <trkpt lat="47.97024632804095745086669921875" lon="9.2027126066386699676513671875">
        <ele>641.4000244140625</ele>
        <time>2018-08-16T09:15:46.000Z</time>
      </trkpt>
      <trkpt lat="47.9703397862613201141357421875" lon="9.2028527520596981048583984375">
        <ele>641.5999755859375</ele>
        <time>2018-08-16T09:15:48.000Z</time>
      </trkpt>
      <trkpt lat="47.97070347703993320465087890625" lon="9.20344677753746509552001953125">
        <ele>642</ele>
        <time>2018-08-16T09:15:56.000Z</time>
      </trkpt>
      <trkpt lat="47.97107613645493984222412109375" lon="9.20406837947666645050048828125">
        <ele>642.20001220703125</ele>
        <time>2018-08-16T09:16:04.000Z</time>
      </trkpt>
      <trkpt lat="47.9712198860943317413330078125" lon="9.2043175734579563140869140625">
        <ele>642.4000244140625</ele>
        <time>2018-08-16T09:16:07.000Z</time>
      </trkpt>
      <trkpt lat="47.971561364829540252685546875" lon="9.2049435339868068695068359375">
        <ele>642.4000244140625</ele>
        <time>2018-08-16T09:16:14.000Z</time>
      </trkpt>
      <trkpt lat="47.9717130772769451141357421875" lon="9.20522575266659259796142578125">
        <ele>642.4000244140625</ele>
        <time>2018-08-16T09:16:17.000Z</time>
      </trkpt>
      <trkpt lat="47.97196947969496250152587890625" lon="9.2057039402425289154052734375">
        <ele>641.79998779296875</ele>
        <time>2018-08-16T09:16:22.000Z</time>
      </trkpt>
      <trkpt lat="47.97212756238877773284912109375" lon="9.20599672012031078338623046875">
        <ele>641.20001220703125</ele>
        <time>2018-08-16T09:16:25.000Z</time>
      </trkpt>
      <trkpt lat="47.97229168005287647247314453125" lon="9.20629092492163181304931640625">
        <ele>641</ele>
        <time>2018-08-16T09:16:28.000Z</time>
      </trkpt>
      <trkpt lat="47.97240852378308773040771484375" lon="9.20648186467587947845458984375">
        <ele>640.79998779296875</ele>
        <time>2018-08-16T09:16:30.000Z</time>
      </trkpt>
      <trkpt lat="47.97265537083148956298828125" lon="9.20685720629990100860595703125">
        <ele>640.4000244140625</ele>
        <time>2018-08-16T09:16:34.000Z</time>
      </trkpt>
      <trkpt lat="47.972782440483570098876953125" lon="9.20704814605414867401123046875">
        <ele>640.4000244140625</ele>
        <time>2018-08-16T09:16:36.000Z</time>
      </trkpt>
      <trkpt lat="47.9731135256588459014892578125" lon="9.20753329060971736907958984375">
        <ele>639.5999755859375</ele>
        <time>2018-08-16T09:16:41.000Z</time>
      </trkpt>
      <trkpt lat="47.9731805808842182159423828125" lon="9.2076294310390949249267578125">
        <ele>639.20001220703125</ele>
        <time>2018-08-16T09:16:42.000Z</time>
      </trkpt>
      <trkpt lat="47.9732469655573368072509765625" lon="9.207726158201694488525390625">
        <ele>638.79998779296875</ele>
        <time>2018-08-16T09:16:43.000Z</time>
      </trkpt>
      <trkpt lat="47.973312176764011383056640625" lon="9.2078237235546112060546875">
        <ele>638.5999755859375</ele>
        <time>2018-08-16T09:16:44.000Z</time>
      </trkpt>
      <trkpt lat="47.973377220332622528076171875" lon="9.207920618355274200439453125">
        <ele>638.20001220703125</ele>
        <time>2018-08-16T09:16:45.000Z</time>
      </trkpt>
      <trkpt lat="47.97350755892693996429443359375" lon="9.2081095464527606964111328125">
        <ele>636.79998779296875</ele>
        <time>2018-08-16T09:16:47.000Z</time>
      </trkpt>
      <trkpt lat="47.97369732521474361419677734375" lon="9.20838740654289722442626953125">
        <ele>635.79998779296875</ele>
        <time>2018-08-16T09:16:50.000Z</time>
      </trkpt>
      <trkpt lat="47.97393880784511566162109375" lon="9.20873559080064296722412109375">
        <ele>634.5999755859375</ele>
        <time>2018-08-16T09:16:54.000Z</time>
      </trkpt>
      <trkpt lat="47.97405053861439228057861328125" lon="9.2089004628360271453857421875">
        <ele>634.20001220703125</ele>
        <time>2018-08-16T09:16:56.000Z</time>
      </trkpt>
      <trkpt lat="47.97415682114660739898681640625" lon="9.2090556956827640533447265625">
        <ele>633.5999755859375</ele>
        <time>2018-08-16T09:16:58.000Z</time>
      </trkpt>
      <trkpt lat="47.97426360659301280975341796875" lon="9.20918419025838375091552734375">
        <ele>633.20001220703125</ele>
        <time>2018-08-16T09:17:00.000Z</time>
      </trkpt>
      <trkpt lat="47.9743869043886661529541015625" lon="9.209244288504123687744140625">
        <ele>633</ele>
        <time>2018-08-16T09:17:02.000Z</time>
      </trkpt>
      <trkpt lat="47.9744519479572772979736328125" lon="9.20924789272248744964599609375">
        <ele>633</ele>
        <time>2018-08-16T09:17:03.000Z</time>
      </trkpt>
      <trkpt lat="47.97451724298298358917236328125" lon="9.20923934318125247955322265625">
        <ele>633</ele>
        <time>2018-08-16T09:17:04.000Z</time>
      </trkpt>
      <trkpt lat="47.97458295710384845733642578125" lon="9.20922744087874889373779296875">
        <ele>633</ele>
        <time>2018-08-16T09:17:05.000Z</time>
      </trkpt>
      <trkpt lat="47.97464883886277675628662109375" lon="9.209211766719818115234375">
        <ele>633</ele>
        <time>2018-08-16T09:17:06.000Z</time>
      </trkpt>
      <trkpt lat="47.97478177584707736968994140625" lon="9.20918318443000316619873046875">
        <ele>633</ele>
        <time>2018-08-16T09:17:08.000Z</time>
      </trkpt>
      <trkpt lat="47.974848411977291107177734375" lon="9.20916910283267498016357421875">
        <ele>633</ele>
        <time>2018-08-16T09:17:09.000Z</time>
      </trkpt>
      <trkpt lat="47.9752596281468868255615234375" lon="9.209174215793609619140625">
        <ele>633</ele>
        <time>2018-08-16T09:17:15.000Z</time>
      </trkpt>
      <trkpt lat="47.97532659955322742462158203125" lon="9.2091955058276653289794921875">
        <ele>633</ele>
        <time>2018-08-16T09:17:16.000Z</time>
      </trkpt>
      <trkpt lat="47.9753944091498851776123046875" lon="9.2092162929475307464599609375">
        <ele>633</ele>
        <time>2018-08-16T09:17:17.000Z</time>
      </trkpt>
      <trkpt lat="47.9755315370857715606689453125" lon="9.20926365070044994354248046875">
        <ele>633</ele>
        <time>2018-08-16T09:17:19.000Z</time>
      </trkpt>
      <trkpt lat="47.97597502358257770538330078125" lon="9.20940161682665348052978515625">
        <ele>633.20001220703125</ele>
        <time>2018-08-16T09:17:25.000Z</time>
      </trkpt>
      <trkpt lat="47.9760522209107875823974609375" lon="9.2094271816313266754150390625">
        <ele>633.20001220703125</ele>
        <time>2018-08-16T09:17:26.000Z</time>
      </trkpt>
      <trkpt lat="47.97629018314182758331298828125" lon="9.20950572006404399871826171875">
        <ele>633.20001220703125</ele>
        <time>2018-08-16T09:17:29.000Z</time>
      </trkpt>
      <trkpt lat="47.9768595658242702484130859375" lon="9.20968224294483661651611328125">
        <ele>632.5999755859375</ele>
        <time>2018-08-16T09:17:36.000Z</time>
      </trkpt>
      <trkpt lat="47.97693894244730472564697265625" lon="9.20970772393047809600830078125">
        <ele>632.5999755859375</ele>
        <time>2018-08-16T09:17:37.000Z</time>
      </trkpt>
      <trkpt lat="47.977096773684024810791015625" lon="9.20975969173014163970947265625">
        <ele>632.5999755859375</ele>
        <time>2018-08-16T09:17:39.000Z</time>
      </trkpt>
      <trkpt lat="47.977642603218555450439453125" lon="9.20993889681994915008544921875">
        <ele>632</ele>
        <time>2018-08-16T09:17:46.000Z</time>
      </trkpt>
      <trkpt lat="47.9777208901941776275634765625" lon="9.209971167147159576416015625">
        <ele>632</ele>
        <time>2018-08-16T09:17:47.000Z</time>
      </trkpt>
      <trkpt lat="47.97780009917914867401123046875" lon="9.21000544913113117218017578125">
        <ele>632</ele>
        <time>2018-08-16T09:17:48.000Z</time>
      </trkpt>
      <trkpt lat="47.97819673083722591400146484375" lon="9.21022958122193813323974609375">
        <ele>631.5999755859375</ele>
        <time>2018-08-16T09:17:53.000Z</time>
      </trkpt>
      <trkpt lat="47.97827702946960926055908203125" lon="9.21027920208871364593505859375">
        <ele>631.4000244140625</ele>
        <time>2018-08-16T09:17:54.000Z</time>
      </trkpt>
      <trkpt lat="47.9784383811056613922119140625" lon="9.2103877477347850799560546875">
        <ele>631.5999755859375</ele>
        <time>2018-08-16T09:17:56.000Z</time>
      </trkpt>
      <trkpt lat="47.97860392369329929351806640625" lon="9.210519008338451385498046875">
        <ele>631.4000244140625</ele>
        <time>2018-08-16T09:17:58.000Z</time>
      </trkpt>
      <trkpt lat="47.97868740744888782501220703125" lon="9.21059218235313892364501953125">
        <ele>631.4000244140625</ele>
        <time>2018-08-16T09:17:59.000Z</time>
      </trkpt>
      <trkpt lat="47.97893634997308254241943359375" lon="9.21082553453743457794189453125">
        <ele>630.5999755859375</ele>
        <time>2018-08-16T09:18:02.000Z</time>
      </trkpt>
      <trkpt lat="47.97909669578075408935546875" lon="9.21099619008600711822509765625">
        <ele>630</ele>
        <time>2018-08-16T09:18:04.000Z</time>
      </trkpt>
      <trkpt lat="47.97925234772264957427978515625" lon="9.21118528582155704498291015625">
        <ele>629.4000244140625</ele>
        <time>2018-08-16T09:18:06.000Z</time>
      </trkpt>
      <trkpt lat="47.97940154559910297393798828125" lon="9.2113912291824817657470703125">
        <ele>628.79998779296875</ele>
        <time>2018-08-16T09:18:08.000Z</time>
      </trkpt>
      <trkpt lat="47.97947329469025135040283203125" lon="9.21150078065693378448486328125">
        <ele>628.5999755859375</ele>
        <time>2018-08-16T09:18:09.000Z</time>
      </trkpt>
      <trkpt lat="47.9795437864959239959716796875" lon="9.2116138525307178497314453125">
        <ele>628</ele>
        <time>2018-08-16T09:18:10.000Z</time>
      </trkpt>
      <trkpt lat="47.9796809144318103790283203125" lon="9.21184879727661609649658203125">
        <ele>627.79998779296875</ele>
        <time>2018-08-16T09:18:12.000Z</time>
      </trkpt>
      <trkpt lat="47.97981418669223785400390625" lon="9.21209237538278102874755859375">
        <ele>627</ele>
        <time>2018-08-16T09:18:14.000Z</time>
      </trkpt>
      <trkpt lat="47.97987747006118297576904296875" lon="9.2122196964919567108154296875">
        <ele>626.5999755859375</ele>
        <time>2018-08-16T09:18:15.000Z</time>
      </trkpt>
      <trkpt lat="47.97999867238104343414306640625" lon="9.21247936785221099853515625">
        <ele>625.79998779296875</ele>
        <time>2018-08-16T09:18:17.000Z</time>
      </trkpt>
      <trkpt lat="47.9800554178655147552490234375" lon="9.21261104755103588104248046875">
        <ele>625.4000244140625</ele>
        <time>2018-08-16T09:18:18.000Z</time>
      </trkpt>
      <trkpt lat="47.98021123744547367095947265625" lon="9.213021509349346160888671875">
        <ele>624.20001220703125</ele>
        <time>2018-08-16T09:18:21.000Z</time>
      </trkpt>
      <trkpt lat="47.98038910143077373504638671875" lon="9.21359323896467685699462890625">
        <ele>622.79998779296875</ele>
        <time>2018-08-16T09:18:25.000Z</time>
      </trkpt>
      <trkpt lat="47.9804896004498004913330078125" lon="9.21402691863477230072021484375">
        <ele>621.79998779296875</ele>
        <time>2018-08-16T09:18:28.000Z</time>
      </trkpt>
      <trkpt lat="47.980563528835773468017578125" lon="9.2144729197025299072265625">
        <ele>620.5999755859375</ele>
        <time>2018-08-16T09:18:31.000Z</time>
      </trkpt>
      <trkpt lat="47.98058574087917804718017578125" lon="9.2146279849112033843994140625">
        <ele>620.20001220703125</ele>
        <time>2018-08-16T09:18:32.000Z</time>
      </trkpt>
      <trkpt lat="47.980621196329593658447265625" lon="9.21494607813656330108642578125">
        <ele>619.5999755859375</ele>
        <time>2018-08-16T09:18:34.000Z</time>
      </trkpt>
      <trkpt lat="47.98064642585813999176025390625" lon="9.21527263708412647247314453125">
        <ele>619</ele>
        <time>2018-08-16T09:18:36.000Z</time>
      </trkpt>
      <trkpt lat="47.9806543886661529541015625" lon="9.2154371738433837890625">
        <ele>618.5999755859375</ele>
        <time>2018-08-16T09:18:37.000Z</time>
      </trkpt>
      <trkpt lat="47.980657406151294708251953125" lon="9.215927012264728546142578125">
        <ele>617.5999755859375</ele>
        <time>2018-08-16T09:18:40.000Z</time>
      </trkpt>
      <trkpt lat="47.9806498624384403228759765625" lon="9.2160897888243198394775390625">
        <ele>617.20001220703125</ele>
        <time>2018-08-16T09:18:41.000Z</time>
      </trkpt>
      <trkpt lat="47.9806248843669891357421875" lon="9.2164175212383270263671875">
        <ele>616.4000244140625</ele>
        <time>2018-08-16T09:18:43.000Z</time>
      </trkpt>
      <trkpt lat="47.980611808598041534423828125" lon="9.21658138744533061981201171875">
        <ele>616.20001220703125</ele>
        <time>2018-08-16T09:18:44.000Z</time>
      </trkpt>
      <trkpt lat="47.9805613495409488677978515625" lon="9.217227883636951446533203125">
        <ele>615</ele>
        <time>2018-08-16T09:18:48.000Z</time>
      </trkpt>
      <trkpt lat="47.9805318452417850494384765625" lon="9.21754463575780391693115234375">
        <ele>613.79998779296875</ele>
        <time>2018-08-16T09:18:50.000Z</time>
      </trkpt>
      <trkpt lat="47.98049186356365680694580078125" lon="9.2180283553898334503173828125">
        <ele>612.5999755859375</ele>
        <time>2018-08-16T09:18:53.000Z</time>
      </trkpt>
      <trkpt lat="47.98046202398836612701416015625" lon="9.21835432760417461395263671875">
        <ele>612</ele>
        <time>2018-08-16T09:18:55.000Z</time>
      </trkpt>
      <trkpt lat="47.98043310642242431640625" lon="9.21868038363754749298095703125">
        <ele>611.4000244140625</ele>
        <time>2018-08-16T09:18:57.000Z</time>
      </trkpt>
      <trkpt lat="47.98039128072559833526611328125" lon="9.21917307190597057342529296875">
        <ele>610</ele>
        <time>2018-08-16T09:19:00.000Z</time>
      </trkpt>
      <trkpt lat="47.980363704264163970947265625" lon="9.21949929557740688323974609375">
        <ele>609</ele>
        <time>2018-08-16T09:19:02.000Z</time>
      </trkpt>
      <trkpt lat="47.98034928739070892333984375" lon="9.21966223977506160736083984375">
        <ele>608.5999755859375</ele>
        <time>2018-08-16T09:19:03.000Z</time>
      </trkpt>
      <trkpt lat="47.9803058691322803497314453125" lon="9.2201617173850536346435546875">
        <ele>607.79998779296875</ele>
        <time>2018-08-16T09:19:06.000Z</time>
      </trkpt>
      <trkpt lat="47.9802907817065715789794921875" lon="9.22033078037202358245849609375">
        <ele>607.4000244140625</ele>
        <time>2018-08-16T09:19:07.000Z</time>
      </trkpt>
      <trkpt lat="47.9802606068551540374755859375" lon="9.22067158855497837066650390625">
        <ele>606.4000244140625</ele>
        <time>2018-08-16T09:19:09.000Z</time>
      </trkpt>
      <trkpt lat="47.98022917471826076507568359375" lon="9.22100384719669818878173828125">
        <ele>605.4000244140625</ele>
        <time>2018-08-16T09:19:11.000Z</time>
      </trkpt>
      <trkpt lat="47.9802143387496471405029296875" lon="9.2211672104895114898681640625">
        <ele>604.79998779296875</ele>
        <time>2018-08-16T09:19:12.000Z</time>
      </trkpt>
      <trkpt lat="47.98019933514297008514404296875" lon="9.2213301546871662139892578125">
        <ele>604.4000244140625</ele>
        <time>2018-08-16T09:19:13.000Z</time>
      </trkpt>
      <trkpt lat="47.98018525354564189910888671875" lon="9.2214922606945037841796875">
        <ele>604</ele>
        <time>2018-08-16T09:19:14.000Z</time>
      </trkpt>
      <trkpt lat="47.98017150722444057464599609375" lon="9.2216533608734607696533203125">
        <ele>603.5999755859375</ele>
        <time>2018-08-16T09:19:15.000Z</time>
      </trkpt>
      <trkpt lat="47.98015742562711238861083984375" lon="9.2218132875859737396240234375">
        <ele>603.20001220703125</ele>
        <time>2018-08-16T09:19:16.000Z</time>
      </trkpt>
      <trkpt lat="47.980143092572689056396484375" lon="9.22197279520332813262939453125">
        <ele>602.5999755859375</ele>
        <time>2018-08-16T09:19:17.000Z</time>
      </trkpt>
      <trkpt lat="47.980130016803741455078125" lon="9.22213263809680938720703125">
        <ele>602.20001220703125</ele>
        <time>2018-08-16T09:19:18.000Z</time>
      </trkpt>
      <trkpt lat="47.98010260798037052154541015625" lon="9.2224503122270107269287109375">
        <ele>601.4000244140625</ele>
        <time>2018-08-16T09:19:20.000Z</time>
      </trkpt>
      <trkpt lat="47.98006170429289340972900390625" lon="9.22308675013482570648193359375">
        <ele>600.4000244140625</ele>
        <time>2018-08-16T09:19:24.000Z</time>
      </trkpt>
      <trkpt lat="47.98005918972194194793701171875" lon="9.22324567101895809173583984375">
        <ele>600</ele>
        <time>2018-08-16T09:19:25.000Z</time>
      </trkpt>
      <trkpt lat="47.98007905483245849609375" lon="9.22372226603329181671142578125">
        <ele>599.20001220703125</ele>
        <time>2018-08-16T09:19:28.000Z</time>
      </trkpt>
      <trkpt lat="47.9802200384438037872314453125" lon="9.2244829237461090087890625">
        <ele>598.5999755859375</ele>
        <time>2018-08-16T09:19:33.000Z</time>
      </trkpt>
      <trkpt lat="47.98026504926383495330810546875" lon="9.22462298534810543060302734375">
        <ele>598.4000244140625</ele>
        <time>2018-08-16T09:19:34.000Z</time>
      </trkpt>
      <trkpt lat="47.98031844198703765869140625" lon="9.224757514894008636474609375">
        <ele>598.20001220703125</ele>
        <time>2018-08-16T09:19:35.000Z</time>
      </trkpt>
      <trkpt lat="47.9804497025907039642333984375" lon="9.22500050626695156097412109375">
        <ele>597.5999755859375</ele>
        <time>2018-08-16T09:19:37.000Z</time>
      </trkpt>
      <trkpt lat="47.98052631318569183349609375" lon="9.22510326839983463287353515625">
        <ele>597.4000244140625</ele>
        <time>2018-08-16T09:19:38.000Z</time>
      </trkpt>
      <trkpt lat="47.980607114732265472412109375" lon="9.22519530169665813446044921875">
        <ele>597.20001220703125</ele>
        <time>2018-08-16T09:19:39.000Z</time>
      </trkpt>
      <trkpt lat="47.9806917719542980194091796875" lon="9.22527710907161235809326171875">
        <ele>597.20001220703125</ele>
        <time>2018-08-16T09:19:40.000Z</time>
      </trkpt>
      <trkpt lat="47.98077818937599658966064453125" lon="9.225353300571441650390625">
        <ele>597</ele>
        <time>2018-08-16T09:19:41.000Z</time>
      </trkpt>
      <trkpt lat="47.9808674566447734832763671875" lon="9.22542060725390911102294921875">
        <ele>596.79998779296875</ele>
        <time>2018-08-16T09:19:42.000Z</time>
      </trkpt>
      <trkpt lat="47.98105881549417972564697265625" lon="9.22552219592034816741943359375">
        <ele>596.79998779296875</ele>
        <time>2018-08-16T09:19:44.000Z</time>
      </trkpt>
      <trkpt lat="47.98115688376128673553466796875" lon="9.2255651950836181640625">
        <ele>596.5999755859375</ele>
        <time>2018-08-16T09:19:45.000Z</time>
      </trkpt>
      <trkpt lat="47.98135771416127681732177734375" lon="9.225637279450893402099609375">
        <ele>596.20001220703125</ele>
        <time>2018-08-16T09:19:47.000Z</time>
      </trkpt>
      <trkpt lat="47.98146047629415988922119140625" lon="9.22566778957843780517578125">
        <ele>596</ele>
        <time>2018-08-16T09:19:48.000Z</time>
      </trkpt>
      <trkpt lat="47.9816701076924800872802734375" lon="9.22571129165589809417724609375">
        <ele>595.79998779296875</ele>
        <time>2018-08-16T09:19:50.000Z</time>
      </trkpt>
      <trkpt lat="47.98177563585340976715087890625" lon="9.22572772018611431121826171875">
        <ele>595.79998779296875</ele>
        <time>2018-08-16T09:19:51.000Z</time>
      </trkpt>
      <trkpt lat="47.982303611934185028076171875" lon="9.22579427249729633331298828125">
        <ele>594.79998779296875</ele>
        <time>2018-08-16T09:19:56.000Z</time>
      </trkpt>
      <trkpt lat="47.9828127287328243255615234375" lon="9.2258723080158233642578125">
        <ele>594</ele>
        <time>2018-08-16T09:20:01.000Z</time>
      </trkpt>
      <trkpt lat="47.982915826141834259033203125" lon="9.22588898800313472747802734375">
        <ele>593.79998779296875</ele>
        <time>2018-08-16T09:20:02.000Z</time>
      </trkpt>
      <trkpt lat="47.98301934264600276947021484375" lon="9.2259043268859386444091796875">
        <ele>593.4000244140625</ele>
        <time>2018-08-16T09:20:03.000Z</time>
      </trkpt>
      <trkpt lat="47.9832279682159423828125" lon="9.2259331606328487396240234375">
        <ele>592.4000244140625</ele>
        <time>2018-08-16T09:20:05.000Z</time>
      </trkpt>
      <trkpt lat="47.98384412191808223724365234375" lon="9.2260240204632282257080078125">
        <ele>592</ele>
        <time>2018-08-16T09:20:11.000Z</time>
      </trkpt>
      <trkpt lat="47.98433932475745677947998046875" lon="9.22609350644052028656005859375">
        <ele>591.5999755859375</ele>
        <time>2018-08-16T09:20:16.000Z</time>
      </trkpt>
      <trkpt lat="47.98452288843691349029541015625" lon="9.22612317837774753570556640625">
        <ele>591.5999755859375</ele>
        <time>2018-08-16T09:20:18.000Z</time>
      </trkpt>
      <trkpt lat="47.9846088029444217681884765625" lon="9.22614178620278835296630859375">
        <ele>591.4000244140625</ele>
        <time>2018-08-16T09:20:19.000Z</time>
      </trkpt>
      <trkpt lat="47.984921447932720184326171875" lon="9.2262650839984416961669921875">
        <ele>591</ele>
        <time>2018-08-16T09:20:23.000Z</time>
      </trkpt>
      <trkpt lat="47.98512202687561511993408203125" lon="9.22654126770794391632080078125">
        <ele>590.5999755859375</ele>
        <time>2018-08-16T09:20:27.000Z</time>
      </trkpt>
      <trkpt lat="47.985152788460254669189453125" lon="9.22660614363849163055419921875">
        <ele>590.5999755859375</ele>
        <time>2018-08-16T09:20:28.000Z</time>
      </trkpt>
      <trkpt lat="47.9851760901510715484619140625" lon="9.22666330821812152862548828125">
        <ele>590.4000244140625</ele>
        <time>2018-08-16T09:20:29.000Z</time>
      </trkpt>
      <trkpt lat="47.9852900840342044830322265625" lon="9.22695927321910858154296875">
        <ele>590</ele>
        <time>2018-08-16T09:20:38.000Z</time>
      </trkpt>
      <trkpt lat="47.98561354167759418487548828125" lon="9.22689816914498805999755859375">
        <ele>590</ele>
        <time>2018-08-16T09:20:44.000Z</time>
      </trkpt>
      <trkpt lat="47.985819987952709197998046875" lon="9.2267897911369800567626953125">
        <ele>590</ele>
        <time>2018-08-16T09:20:47.000Z</time>
      </trkpt>
      <trkpt lat="47.986127100884914398193359375" lon="9.22666900791227817535400390625">
        <ele>589.79998779296875</ele>
        <time>2018-08-16T09:20:51.000Z</time>
      </trkpt>
      <trkpt lat="47.986452318727970123291015625" lon="9.2265789024531841278076171875">
        <ele>589.5999755859375</ele>
        <time>2018-08-16T09:20:55.000Z</time>
      </trkpt>
      <trkpt lat="47.9870338551700115203857421875" lon="9.22653137706220149993896484375">
        <ele>589.5999755859375</ele>
        <time>2018-08-16T09:21:02.000Z</time>
      </trkpt>
      <trkpt lat="47.9876199178397655487060546875" lon="9.22655233182013034820556640625">
        <ele>589.4000244140625</ele>
        <time>2018-08-16T09:21:09.000Z</time>
      </trkpt>
      <trkpt lat="47.988022752106189727783203125" lon="9.2265943251550197601318359375">
        <ele>589</ele>
        <time>2018-08-16T09:21:14.000Z</time>
      </trkpt>
      <trkpt lat="47.9881806671619415283203125" lon="9.2266154475510120391845703125">
        <ele>588.79998779296875</ele>
        <time>2018-08-16T09:21:16.000Z</time>
      </trkpt>
      <trkpt lat="47.98825887031853199005126953125" lon="9.22662760131061077117919921875">
        <ele>588.79998779296875</ele>
        <time>2018-08-16T09:21:17.000Z</time>
      </trkpt>
      <trkpt lat="47.98841468989849090576171875" lon="9.22665107063949108123779296875">
        <ele>588.79998779296875</ele>
        <time>2018-08-16T09:21:19.000Z</time>
      </trkpt>
      <trkpt lat="47.98872825689613819122314453125" lon="9.226705469191074371337890625">
        <ele>588.5999755859375</ele>
        <time>2018-08-16T09:21:23.000Z</time>
      </trkpt>
      <trkpt lat="47.98927291296422481536865234375" lon="9.226833544671535491943359375">
        <ele>588.4000244140625</ele>
        <time>2018-08-16T09:21:30.000Z</time>
      </trkpt>
      <trkpt lat="47.98981723375618457794189453125" lon="9.2270238138735294342041015625">
        <ele>588.20001220703125</ele>
        <time>2018-08-16T09:21:37.000Z</time>
      </trkpt>
      <trkpt lat="47.99021135084331035614013671875" lon="9.22718902118504047393798828125">
        <ele>588</ele>
        <time>2018-08-16T09:21:42.000Z</time>
      </trkpt>
      <trkpt lat="47.99075282178819179534912109375" lon="9.22749211080372333526611328125">
        <ele>587.79998779296875</ele>
        <time>2018-08-16T09:21:49.000Z</time>
      </trkpt>
      <trkpt lat="47.99105406738817691802978515625" lon="9.2276920191943645477294921875">
        <ele>587.5999755859375</ele>
        <time>2018-08-16T09:21:53.000Z</time>
      </trkpt>
      <trkpt lat="47.99156033433973789215087890625" lon="9.228087477385997772216796875">
        <ele>587.5999755859375</ele>
        <time>2018-08-16T09:22:00.000Z</time>
      </trkpt>
      <trkpt lat="47.99203944392502307891845703125" lon="9.22856046818196773529052734375">
        <ele>587.4000244140625</ele>
        <time>2018-08-16T09:22:07.000Z</time>
      </trkpt>
      <trkpt lat="47.99217087216675281524658203125" lon="9.22870136797428131103515625">
        <ele>587.4000244140625</ele>
        <time>2018-08-16T09:22:09.000Z</time>
      </trkpt>
      <trkpt lat="47.99242216162383556365966796875" lon="9.22898308373987674713134765625">
        <ele>587.20001220703125</ele>
        <time>2018-08-16T09:22:13.000Z</time>
      </trkpt>
      <trkpt lat="47.99247312359511852264404296875" lon="9.2290659807622432708740234375">
        <ele>587.20001220703125</ele>
        <time>2018-08-16T09:22:14.000Z</time>
      </trkpt>
      <trkpt lat="47.99249525181949138641357421875" lon="9.22948323190212249755859375">
        <ele>587.20001220703125</ele>
        <time>2018-08-16T09:22:18.000Z</time>
      </trkpt>
      <trkpt lat="47.99250480718910694122314453125" lon="9.22968481667339801788330078125">
        <ele>587.20001220703125</ele>
        <time>2018-08-16T09:22:20.000Z</time>
      </trkpt>
      <trkpt lat="47.9925179667770862579345703125" lon="9.229783304035663604736328125">
        <ele>587.20001220703125</ele>
        <time>2018-08-16T09:22:21.000Z</time>
      </trkpt>
      <trkpt lat="47.99256247468292713165283203125" lon="9.22997365705668926239013671875">
        <ele>587.20001220703125</ele>
        <time>2018-08-16T09:22:23.000Z</time>
      </trkpt>
      <trkpt lat="47.9926758818328380584716796875" lon="9.230214469134807586669921875">
        <ele>587.5999755859375</ele>
        <time>2018-08-16T09:22:26.000Z</time>
      </trkpt>
      <trkpt lat="47.99292993731796741485595703125" lon="9.23056089319288730621337890625">
        <ele>588.79998779296875</ele>
        <time>2018-08-16T09:22:31.000Z</time>
      </trkpt>
      <trkpt lat="47.99329136498272418975830078125" lon="9.23102843575179576873779296875">
        <ele>590</ele>
        <time>2018-08-16T09:22:38.000Z</time>
      </trkpt>
      <trkpt lat="47.99356184899806976318359375" lon="9.2315460182726383209228515625">
        <ele>590.20001220703125</ele>
        <time>2018-08-16T09:22:45.000Z</time>
      </trkpt>
      <trkpt lat="47.99361222423613071441650390625" lon="9.231701754033565521240234375">
        <ele>590.5999755859375</ele>
        <time>2018-08-16T09:22:47.000Z</time>
      </trkpt>
      <trkpt lat="47.9936833865940570831298828125" lon="9.2319218628108501434326171875">
        <ele>591</ele>
        <time>2018-08-16T09:22:50.000Z</time>
      </trkpt>
      <trkpt lat="47.99375471659004688262939453125" lon="9.23247582279145717620849609375">
        <ele>592</ele>
        <time>2018-08-16T09:22:57.000Z</time>
      </trkpt>
      <trkpt lat="47.9937661997973918914794921875" lon="9.2328753881156444549560546875">
        <ele>592.79998779296875</ele>
        <time>2018-08-16T09:23:02.000Z</time>
      </trkpt>
      <trkpt lat="47.99376309849321842193603515625" lon="9.23295979388058185577392578125">
        <ele>593</ele>
        <time>2018-08-16T09:23:03.000Z</time>
      </trkpt>
      <trkpt lat="47.9937531240284442901611328125" lon="9.23312357626855373382568359375">
        <ele>593.20001220703125</ele>
        <time>2018-08-16T09:23:05.000Z</time>
      </trkpt>
      <trkpt lat="47.9937407188117504119873046875" lon="9.23320521600544452667236328125">
        <ele>593.20001220703125</ele>
        <time>2018-08-16T09:23:06.000Z</time>
      </trkpt>
      <trkpt lat="47.99368011765182018280029296875" lon="9.2335388995707035064697265625">
        <ele>594.4000244140625</ele>
        <time>2018-08-16T09:23:10.000Z</time>
      </trkpt>
      <trkpt lat="47.99365949817001819610595703125" lon="9.2336207069456577301025390625">
        <ele>594.5999755859375</ele>
        <time>2018-08-16T09:23:11.000Z</time>
      </trkpt>
      <trkpt lat="47.99346134997904300689697265625" lon="9.23418656922876834869384765625">
        <ele>595.5999755859375</ele>
        <time>2018-08-16T09:23:18.000Z</time>
      </trkpt>
      <trkpt lat="47.99342866055667400360107421875" lon="9.234263598918914794921875">
        <ele>595.5999755859375</ele>
        <time>2018-08-16T09:23:19.000Z</time>
      </trkpt>
      <trkpt lat="47.993267476558685302734375" lon="9.23464405350387096405029296875">
        <ele>596.4000244140625</ele>
        <time>2018-08-16T09:23:24.000Z</time>
      </trkpt>
      <trkpt lat="47.99323730170726776123046875" lon="9.234720580279827117919921875">
        <ele>596.5999755859375</ele>
        <time>2018-08-16T09:23:25.000Z</time>
      </trkpt>
      <trkpt lat="47.9930805601179599761962890625" lon="9.23513590358197689056396484375">
        <ele>597.5999755859375</ele>
        <time>2018-08-16T09:23:30.000Z</time>
      </trkpt>
      <trkpt lat="47.99299514852464199066162109375" lon="9.2355378158390522003173828125">
        <ele>597.5999755859375</ele>
        <time>2018-08-16T09:23:34.000Z</time>
      </trkpt>
      <trkpt lat="47.9928881116211414337158203125" lon="9.23607744276523590087890625">
        <ele>597.5999755859375</ele>
        <time>2018-08-16T09:23:39.000Z</time>
      </trkpt>
      <trkpt lat="47.99286187626421451568603515625" lon="9.23619235865771770477294921875">
        <ele>597.5999755859375</ele>
        <time>2018-08-16T09:23:40.000Z</time>
      </trkpt>
      <trkpt lat="47.99283404834568500518798828125" lon="9.23631004057824611663818359375">
        <ele>597.4000244140625</ele>
        <time>2018-08-16T09:23:41.000Z</time>
      </trkpt>
      <trkpt lat="47.9928026162087917327880859375" lon="9.2364293150603771209716796875">
        <ele>597.4000244140625</ele>
        <time>2018-08-16T09:23:42.000Z</time>
      </trkpt>
      <trkpt lat="47.9927322082221508026123046875" lon="9.23667029477655887603759765625">
        <ele>597.4000244140625</ele>
        <time>2018-08-16T09:23:44.000Z</time>
      </trkpt>
      <trkpt lat="47.9925545118749141693115234375" lon="9.2372882924973964691162109375">
        <ele>596.5999755859375</ele>
        <time>2018-08-16T09:23:49.000Z</time>
      </trkpt>
      <trkpt lat="47.99244848079979419708251953125" lon="9.2376564256846904754638671875">
        <ele>595.79998779296875</ele>
        <time>2018-08-16T09:23:52.000Z</time>
      </trkpt>
      <trkpt lat="47.99241394735872745513916015625" lon="9.2377767898142337799072265625">
        <ele>595.4000244140625</ele>
        <time>2018-08-16T09:23:53.000Z</time>
      </trkpt>
      <trkpt lat="47.99234353937208652496337890625" lon="9.238008968532085418701171875">
        <ele>595.20001220703125</ele>
        <time>2018-08-16T09:23:55.000Z</time>
      </trkpt>
      <trkpt lat="47.99227036535739898681640625" lon="9.238224215805530548095703125">
        <ele>595</ele>
        <time>2018-08-16T09:23:57.000Z</time>
      </trkpt>
      <trkpt lat="47.992160730063915252685546875" lon="9.238521941006183624267578125">
        <ele>595</ele>
        <time>2018-08-16T09:24:00.000Z</time>
      </trkpt>
      <trkpt lat="47.9920241050422191619873046875" lon="9.2388872243463993072509765625">
        <ele>594.79998779296875</ele>
        <time>2018-08-16T09:24:04.000Z</time>
      </trkpt>
      <trkpt lat="47.991958223283290863037109375" lon="9.23905863426625728607177734375">
        <ele>595</ele>
        <time>2018-08-16T09:24:06.000Z</time>
      </trkpt>
      <trkpt lat="47.9919235222041606903076171875" lon="9.23914027400314807891845703125">
        <ele>595</ele>
        <time>2018-08-16T09:24:07.000Z</time>
      </trkpt>
      <trkpt lat="47.99184347502887248992919921875" lon="9.2392878793179988861083984375">
        <ele>595.20001220703125</ele>
        <time>2018-08-16T09:24:09.000Z</time>
      </trkpt>
      <trkpt lat="47.9917587339878082275390625" lon="9.23942978493869304656982421875">
        <ele>595.4000244140625</ele>
        <time>2018-08-16T09:24:11.000Z</time>
      </trkpt>
      <trkpt lat="47.99163476563990116119384765625" lon="9.23965509049594402313232421875">
        <ele>595.79998779296875</ele>
        <time>2018-08-16T09:24:14.000Z</time>
      </trkpt>
      <trkpt lat="47.9915510304272174835205078125" lon="9.23981015570461750030517578125">
        <ele>596</ele>
        <time>2018-08-16T09:24:16.000Z</time>
      </trkpt>
      <trkpt lat="47.99138515256345272064208984375" lon="9.24014157615602016448974609375">
        <ele>596.5999755859375</ele>
        <time>2018-08-16T09:24:20.000Z</time>
      </trkpt>
      <trkpt lat="47.99124852754175662994384765625" lon="9.240701906383037567138671875">
        <ele>597.20001220703125</ele>
        <time>2018-08-16T09:24:26.000Z</time>
      </trkpt>
      <trkpt lat="47.99123511649668216705322265625" lon="9.24088723026216030120849609375">
        <ele>597.4000244140625</ele>
        <time>2018-08-16T09:24:28.000Z</time>
      </trkpt>
      <trkpt lat="47.99124701879918575286865234375" lon="9.24106827937066555023193359375">
        <ele>597.79998779296875</ele>
        <time>2018-08-16T09:24:30.000Z</time>
      </trkpt>
      <trkpt lat="47.99129211343824863433837890625" lon="9.2413283698260784149169921875">
        <ele>598.4000244140625</ele>
        <time>2018-08-16T09:24:33.000Z</time>
      </trkpt>
      <trkpt lat="47.9913698136806488037109375" lon="9.2415724508464336395263671875">
        <ele>598.79998779296875</ele>
        <time>2018-08-16T09:24:36.000Z</time>
      </trkpt>
      <trkpt lat="47.99163778312504291534423828125" lon="9.242354147136211395263671875">
        <ele>600</ele>
        <time>2018-08-16T09:24:46.000Z</time>
      </trkpt>
      <trkpt lat="47.99164985306560993194580078125" lon="9.24243520013988018035888671875">
        <ele>600</ele>
        <time>2018-08-16T09:24:47.000Z</time>
      </trkpt>
      <trkpt lat="47.99166158773005008697509765625" lon="9.24268414266407489776611328125">
        <ele>600.4000244140625</ele>
        <time>2018-08-16T09:24:50.000Z</time>
      </trkpt>
      <trkpt lat="47.99160425551235675811767578125" lon="9.24293090589344501495361328125">
        <ele>601.20001220703125</ele>
        <time>2018-08-16T09:24:53.000Z</time>
      </trkpt>
      <trkpt lat="47.99152630381286144256591796875" lon="9.24308362416923046112060546875">
        <ele>601.79998779296875</ele>
        <time>2018-08-16T09:24:55.000Z</time>
      </trkpt>
      <trkpt lat="47.99111257307231426239013671875" lon="9.24366884864866733551025390625">
        <ele>602.20001220703125</ele>
        <time>2018-08-16T09:25:03.000Z</time>
      </trkpt>
      <trkpt lat="47.9908808134496212005615234375" lon="9.2439874447882175445556640625">
        <ele>601.79998779296875</ele>
        <time>2018-08-16T09:25:07.000Z</time>
      </trkpt>
      <trkpt lat="47.99082205630838871002197265625" lon="9.2440715990960597991943359375">
        <ele>601.5999755859375</ele>
        <time>2018-08-16T09:25:08.000Z</time>
      </trkpt>
      <trkpt lat="47.9907081462442874908447265625" lon="9.2442519776523113250732421875">
        <ele>601.20001220703125</ele>
        <time>2018-08-16T09:25:10.000Z</time>
      </trkpt>
      <trkpt lat="47.9905975051224231719970703125" lon="9.2444467730820178985595703125">
        <ele>600.5999755859375</ele>
        <time>2018-08-16T09:25:12.000Z</time>
      </trkpt>
      <trkpt lat="47.99054964445531368255615234375" lon="9.24455163069069385528564453125">
        <ele>600.4000244140625</ele>
        <time>2018-08-16T09:25:13.000Z</time>
      </trkpt>
      <trkpt lat="47.990505807101726531982421875" lon="9.24466453492641448974609375">
        <ele>600.20001220703125</ele>
        <time>2018-08-16T09:25:14.000Z</time>
      </trkpt>
      <trkpt lat="47.99040379934012889862060546875" lon="9.24520173110067844390869140625">
        <ele>599.20001220703125</ele>
        <time>2018-08-16T09:25:18.000Z</time>
      </trkpt>
      <trkpt lat="47.99039608798921108245849609375" lon="9.24535361118614673614501953125">
        <ele>598.79998779296875</ele>
        <time>2018-08-16T09:25:19.000Z</time>
      </trkpt>
      <trkpt lat="47.99039189703762531280517578125" lon="9.245671369135379791259765625">
        <ele>598</ele>
        <time>2018-08-16T09:25:21.000Z</time>
      </trkpt>
      <trkpt lat="47.990390472114086151123046875" lon="9.24583674408495426177978515625">
        <ele>597.5999755859375</ele>
        <time>2018-08-16T09:25:22.000Z</time>
      </trkpt>
      <trkpt lat="47.99038770608603954315185546875" lon="9.24600488506257534027099609375">
        <ele>597.20001220703125</ele>
        <time>2018-08-16T09:25:23.000Z</time>
      </trkpt>
      <trkpt lat="47.99038485623896121978759765625" lon="9.24617595970630645751953125">
        <ele>596.79998779296875</ele>
        <time>2018-08-16T09:25:24.000Z</time>
      </trkpt>
      <trkpt lat="47.99038250930607318878173828125" lon="9.24634770490229129791259765625">
        <ele>596.20001220703125</ele>
        <time>2018-08-16T09:25:25.000Z</time>
      </trkpt>
      <trkpt lat="47.9903792403638362884521484375" lon="9.24651936627924442291259765625">
        <ele>595.5999755859375</ele>
        <time>2018-08-16T09:25:26.000Z</time>
      </trkpt>
      <trkpt lat="47.99037328921258449554443359375" lon="9.24669002182781696319580078125">
        <ele>594.79998779296875</ele>
        <time>2018-08-16T09:25:27.000Z</time>
      </trkpt>
      <trkpt lat="47.99036465585231781005859375" lon="9.2468590848147869110107421875">
        <ele>594.20001220703125</ele>
        <time>2018-08-16T09:25:28.000Z</time>
      </trkpt>
      <trkpt lat="47.99034445546567440032958984375" lon="9.24719125963747501373291015625">
        <ele>593</ele>
        <time>2018-08-16T09:25:30.000Z</time>
      </trkpt>
      <trkpt lat="47.99032115377485752105712890625" lon="9.2475128732621669769287109375">
        <ele>592</ele>
        <time>2018-08-16T09:25:32.000Z</time>
      </trkpt>
      <trkpt lat="47.990295253694057464599609375" lon="9.247819148004055023193359375">
        <ele>591</ele>
        <time>2018-08-16T09:25:34.000Z</time>
      </trkpt>
      <trkpt lat="47.990255691111087799072265625" lon="9.24826095812022686004638671875">
        <ele>590.20001220703125</ele>
        <time>2018-08-16T09:25:37.000Z</time>
      </trkpt>
      <trkpt lat="47.9901837743818759918212890625" lon="9.24910417757928371429443359375">
        <ele>589.20001220703125</ele>
        <time>2018-08-16T09:25:43.000Z</time>
      </trkpt>
      <trkpt lat="47.99011118710041046142578125" lon="9.2500006221234798431396484375">
        <ele>589</ele>
        <time>2018-08-16T09:25:50.000Z</time>
      </trkpt>
      <trkpt lat="47.9900704510509967803955078125" lon="9.25049322657287120819091796875">
        <ele>589</ele>
        <time>2018-08-16T09:25:54.000Z</time>
      </trkpt>
      <trkpt lat="47.9899832792580127716064453125" lon="9.2513103783130645751953125">
        <ele>589</ele>
        <time>2018-08-16T09:26:01.000Z</time>
      </trkpt>
      <trkpt lat="47.9898803494870662689208984375" lon="9.2521899752318859100341796875">
        <ele>589.20001220703125</ele>
        <time>2018-08-16T09:26:09.000Z</time>
      </trkpt>
      <trkpt lat="47.98973408527672290802001953125" lon="9.2530268244445323944091796875">
        <ele>589.4000244140625</ele>
        <time>2018-08-16T09:26:17.000Z</time>
      </trkpt>
      <trkpt lat="47.98969276249408721923828125" lon="9.25322321243584156036376953125">
        <ele>589.5999755859375</ele>
        <time>2018-08-16T09:26:19.000Z</time>
      </trkpt>
      <trkpt lat="47.9895112104713916778564453125" lon="9.25401446409523487091064453125">
        <ele>590.4000244140625</ele>
        <time>2018-08-16T09:26:27.000Z</time>
      </trkpt>
      <trkpt lat="47.989300154149532318115234375" lon="9.25482449121773242950439453125">
        <ele>590.5999755859375</ele>
        <time>2018-08-16T09:26:35.000Z</time>
      </trkpt>
      <trkpt lat="47.98910024575889110565185546875" lon="9.2556037567555904388427734375">
        <ele>590.79998779296875</ele>
        <time>2018-08-16T09:26:43.000Z</time>
      </trkpt>
      <trkpt lat="47.98898398876190185546875" lon="9.25609409809112548828125">
        <ele>591.20001220703125</ele>
        <time>2018-08-16T09:26:48.000Z</time>
      </trkpt>
      <trkpt lat="47.98892565071582794189453125" lon="9.25629082135856151580810546875">
        <ele>591.5999755859375</ele>
        <time>2018-08-16T09:26:50.000Z</time>
      </trkpt>
      <trkpt lat="47.98870897851884365081787109375" lon="9.25684168003499507904052734375">
        <ele>592.20001220703125</ele>
        <time>2018-08-16T09:26:56.000Z</time>
      </trkpt>
      <trkpt lat="47.98843908123672008514404296875" lon="9.25744970329105854034423828125">
        <ele>592.5999755859375</ele>
        <time>2018-08-16T09:27:03.000Z</time>
      </trkpt>
      <trkpt lat="47.9883176274597644805908203125" lon="9.2577035911381244659423828125">
        <ele>592.79998779296875</ele>
        <time>2018-08-16T09:27:06.000Z</time>
      </trkpt>
      <trkpt lat="47.98796215094625949859619140625" lon="9.25835813395678997039794921875">
        <ele>593</ele>
        <time>2018-08-16T09:27:14.000Z</time>
      </trkpt>
      <trkpt lat="47.98782502301037311553955078125" lon="9.25858377479016780853271484375">
        <ele>593</ele>
        <time>2018-08-16T09:27:17.000Z</time>
      </trkpt>
      <trkpt lat="47.98773399554193019866943359375" lon="9.25873280502855777740478515625">
        <ele>593.20001220703125</ele>
        <time>2018-08-16T09:27:19.000Z</time>
      </trkpt>
      <trkpt lat="47.98752344213426113128662109375" lon="9.2590229026973247528076171875">
        <ele>593.20001220703125</ele>
        <time>2018-08-16T09:27:23.000Z</time>
      </trkpt>
      <trkpt lat="47.98740861006081104278564453125" lon="9.25916296429932117462158203125">
        <ele>593.20001220703125</ele>
        <time>2018-08-16T09:27:25.000Z</time>
      </trkpt>
      <trkpt lat="47.9873010702431201934814453125" lon="9.2593068815767765045166015625">
        <ele>593.4000244140625</ele>
        <time>2018-08-16T09:27:27.000Z</time>
      </trkpt>
      <trkpt lat="47.98715145327150821685791015625" lon="9.25954434089362621307373046875">
        <ele>593.5999755859375</ele>
        <time>2018-08-16T09:27:30.000Z</time>
      </trkpt>
      <trkpt lat="47.98710820265114307403564453125" lon="9.25962765701115131378173828125">
        <ele>593.5999755859375</ele>
        <time>2018-08-16T09:27:31.000Z</time>
      </trkpt>
      <trkpt lat="47.98707232810556888580322265625" lon="9.25971281714737415313720703125">
        <ele>593.79998779296875</ele>
        <time>2018-08-16T09:27:32.000Z</time>
      </trkpt>
      <trkpt lat="47.98695364035665988922119140625" lon="9.26015965640544891357421875">
        <ele>594</ele>
        <time>2018-08-16T09:27:37.000Z</time>
      </trkpt>
      <trkpt lat="47.98693637363612651824951171875" lon="9.26033626310527324676513671875">
        <ele>594</ele>
        <time>2018-08-16T09:27:39.000Z</time>
      </trkpt>
      <trkpt lat="47.98692245967686176300048828125" lon="9.26055620424449443817138671875">
        <ele>594.20001220703125</ele>
        <time>2018-08-16T09:27:42.000Z</time>
      </trkpt>
      <trkpt lat="47.98692497424781322479248046875" lon="9.26062091253697872161865234375">
        <ele>594.4000244140625</ele>
        <time>2018-08-16T09:27:43.000Z</time>
      </trkpt>
      <trkpt lat="47.98692363314330577850341796875" lon="9.26068310625851154327392578125">
        <ele>594.79998779296875</ele>
        <time>2018-08-16T09:27:44.000Z</time>
      </trkpt>
      <trkpt lat="47.98692447133362293243408203125" lon="9.2607874609529972076416015625">
        <ele>595.4000244140625</ele>
        <time>2018-08-16T09:27:46.000Z</time>
      </trkpt>
      <trkpt lat="47.9869285784661769866943359375" lon="9.26088293083012104034423828125">
        <ele>596.20001220703125</ele>
        <time>2018-08-16T09:27:48.000Z</time>
      </trkpt>
      <trkpt lat="47.98693872056901454925537109375" lon="9.2610414326190948486328125">
        <ele>596.79998779296875</ele>
        <time>2018-08-16T09:27:51.000Z</time>
      </trkpt>
      <trkpt lat="47.98695288598537445068359375" lon="9.2611492238938808441162109375">
        <ele>597.20001220703125</ele>
        <time>2018-08-16T09:27:53.000Z</time>
      </trkpt>
      <trkpt lat="47.98696788959205150604248046875" lon="9.26126162521541118621826171875">
        <ele>597.79998779296875</ele>
        <time>2018-08-16T09:27:55.000Z</time>
      </trkpt>
      <trkpt lat="47.987024970352649688720703125" lon="9.26149145700037479400634765625">
        <ele>598.20001220703125</ele>
        <time>2018-08-16T09:27:59.000Z</time>
      </trkpt>
      <trkpt lat="47.98715514130890369415283203125" lon="9.26179437898099422454833984375">
        <ele>599.5999755859375</ele>
        <time>2018-08-16T09:28:04.000Z</time>
      </trkpt>
      <trkpt lat="47.98726108856499195098876953125" lon="9.26199018023908138275146484375">
        <ele>600.20001220703125</ele>
        <time>2018-08-16T09:28:07.000Z</time>
      </trkpt>
      <trkpt lat="47.98732764087617397308349609375" lon="9.262125380337238311767578125">
        <ele>600.4000244140625</ele>
        <time>2018-08-16T09:28:09.000Z</time>
      </trkpt>
      <trkpt lat="47.9873540438711643218994140625" lon="9.2621989734470844268798828125">
        <ele>600.5999755859375</ele>
        <time>2018-08-16T09:28:10.000Z</time>
      </trkpt>
      <trkpt lat="47.98751480877399444580078125" lon="9.26260407082736492156982421875">
        <ele>601.5999755859375</ele>
        <time>2018-08-16T09:28:16.000Z</time>
      </trkpt>
      <trkpt lat="47.987538278102874755859375" lon="9.26267347298562526702880859375">
        <ele>601.5999755859375</ele>
        <time>2018-08-16T09:28:17.000Z</time>
      </trkpt>
      <trkpt lat="47.98771329224109649658203125" lon="9.26315476186573505401611328125">
        <ele>602.79998779296875</ele>
        <time>2018-08-16T09:28:24.000Z</time>
      </trkpt>
      <trkpt lat="47.9878472350537776947021484375" lon="9.26351954229176044464111328125">
        <ele>603.79998779296875</ele>
        <time>2018-08-16T09:28:29.000Z</time>
      </trkpt>
      <trkpt lat="47.98808075487613677978515625" lon="9.2641496099531650543212890625">
        <ele>604.5999755859375</ele>
        <time>2018-08-16T09:28:37.000Z</time>
      </trkpt>
      <trkpt lat="47.9882465489208698272705078125" lon="9.2645455710589885711669921875">
        <ele>604.5999755859375</ele>
        <time>2018-08-16T09:28:42.000Z</time>
      </trkpt>
      <trkpt lat="47.98836372792720794677734375" lon="9.264764674007892608642578125">
        <ele>604.79998779296875</ele>
        <time>2018-08-16T09:28:45.000Z</time>
      </trkpt>
      <trkpt lat="47.98840806819498538970947265625" lon="9.2648251913487911224365234375">
        <ele>605</ele>
        <time>2018-08-16T09:28:46.000Z</time>
      </trkpt>
      <trkpt lat="47.988834790885448455810546875" lon="9.26514680497348308563232421875">
        <ele>605.20001220703125</ele>
        <time>2018-08-16T09:28:55.000Z</time>
      </trkpt>
      <trkpt lat="47.98893093131482601165771484375" lon="9.2652734555304050445556640625">
        <ele>605.79998779296875</ele>
        <time>2018-08-16T09:28:58.000Z</time>
      </trkpt>
      <trkpt lat="47.988954819738864898681640625" lon="9.2653197236359119415283203125">
        <ele>606</ele>
        <time>2018-08-16T09:28:59.000Z</time>
      </trkpt>
      <trkpt lat="47.98905263654887676239013671875" lon="9.26550990901887416839599609375">
        <ele>607.20001220703125</ele>
        <time>2018-08-16T09:29:03.000Z</time>
      </trkpt>
      <trkpt lat="47.98913679085671901702880859375" lon="9.265645109117031097412109375">
        <ele>608.4000244140625</ele>
        <time>2018-08-16T09:29:06.000Z</time>
      </trkpt>
      <trkpt lat="47.98922798596322536468505859375" lon="9.2657586000859737396240234375">
        <ele>609.20001220703125</ele>
        <time>2018-08-16T09:29:09.000Z</time>
      </trkpt>
      <trkpt lat="47.98929302953183650970458984375" lon="9.2658238112926483154296875">
        <ele>609.5999755859375</ele>
        <time>2018-08-16T09:29:11.000Z</time>
      </trkpt>
      <trkpt lat="47.9893606714904308319091796875" lon="9.26589312963187694549560546875">
        <ele>610</ele>
        <time>2018-08-16T09:29:13.000Z</time>
      </trkpt>
      <trkpt lat="47.9895276390016078948974609375" lon="9.26600175909698009490966796875">
        <ele>610.79998779296875</ele>
        <time>2018-08-16T09:29:17.000Z</time>
      </trkpt>
      <trkpt lat="47.98978571780025959014892578125" lon="9.26608608104288578033447265625">
        <ele>611.79998779296875</ele>
        <time>2018-08-16T09:29:23.000Z</time>
      </trkpt>
      <trkpt lat="47.99000012688338756561279296875" lon="9.2661156691610813140869140625">
        <ele>612.79998779296875</ele>
        <time>2018-08-16T09:29:28.000Z</time>
      </trkpt>
      <trkpt lat="47.9901976883411407470703125" lon="9.26612799055874347686767578125">
        <ele>613.79998779296875</ele>
        <time>2018-08-16T09:29:33.000Z</time>
      </trkpt>
      <trkpt lat="47.99034227617084980010986328125" lon="9.26611684262752532958984375">
        <ele>614.79998779296875</ele>
        <time>2018-08-16T09:29:37.000Z</time>
      </trkpt>
      <trkpt lat="47.99048996530473232269287109375" lon="9.26609513349831104278564453125">
        <ele>616.4000244140625</ele>
        <time>2018-08-16T09:29:41.000Z</time>
      </trkpt>
      <trkpt lat="47.990605048835277557373046875" lon="9.2660732567310333251953125">
        <ele>617.20001220703125</ele>
        <time>2018-08-16T09:29:44.000Z</time>
      </trkpt>
      <trkpt lat="47.99071996472775936126708984375" lon="9.2660499550402164459228515625">
        <ele>618.4000244140625</ele>
        <time>2018-08-16T09:29:47.000Z</time>
      </trkpt>
      <trkpt lat="47.99086933024227619171142578125" lon="9.266000501811504364013671875">
        <ele>619.5999755859375</ele>
        <time>2018-08-16T09:29:51.000Z</time>
      </trkpt>
      <trkpt lat="47.990995980799198150634765625" lon="9.26597611047327518463134765625">
        <ele>620.20001220703125</ele>
        <time>2018-08-16T09:29:54.000Z</time>
      </trkpt>
      <trkpt lat="47.9910789616405963897705078125" lon="9.26594526506960391998291015625">
        <ele>620.79998779296875</ele>
        <time>2018-08-16T09:29:56.000Z</time>
      </trkpt>
      <trkpt lat="47.991293035447597503662109375" lon="9.26588776521384716033935546875">
        <ele>622.20001220703125</ele>
        <time>2018-08-16T09:30:01.000Z</time>
      </trkpt>
      <trkpt lat="47.991507947444915771484375" lon="9.26581853069365024566650390625">
        <ele>623.5999755859375</ele>
        <time>2018-08-16T09:30:06.000Z</time>
      </trkpt>
      <trkpt lat="47.99169092439115047454833984375" lon="9.2657435126602649688720703125">
        <ele>624.4000244140625</ele>
        <time>2018-08-16T09:30:10.000Z</time>
      </trkpt>
      <trkpt lat="47.99178496934473514556884765625" lon="9.2657019384205341339111328125">
        <ele>625</ele>
        <time>2018-08-16T09:30:12.000Z</time>
      </trkpt>
      <trkpt lat="47.99199099652469158172607421875" lon="9.26565147936344146728515625">
        <ele>625.5999755859375</ele>
        <time>2018-08-16T09:30:16.000Z</time>
      </trkpt>
      <trkpt lat="47.992313615977764129638671875" lon="9.26563027314841747283935546875">
        <ele>626.79998779296875</ele>
        <time>2018-08-16T09:30:22.000Z</time>
      </trkpt>
      <trkpt lat="47.99252894707024097442626953125" lon="9.26563136279582977294921875">
        <ele>627.5999755859375</ele>
        <time>2018-08-16T09:30:26.000Z</time>
      </trkpt>
      <trkpt lat="47.99258418381214141845703125" lon="9.2656305246055126190185546875">
        <ele>628</ele>
        <time>2018-08-16T09:30:27.000Z</time>
      </trkpt>
      <trkpt lat="47.99275978468358516693115234375" lon="9.2656372301280498504638671875">
        <ele>628.4000244140625</ele>
        <time>2018-08-16T09:30:30.000Z</time>
      </trkpt>
      <trkpt lat="47.99301677383482456207275390625" lon="9.26565022207796573638916015625">
        <ele>628.4000244140625</ele>
        <time>2018-08-16T09:30:34.000Z</time>
      </trkpt>
      <trkpt lat="47.9932994954288005828857421875" lon="9.26569095812737941741943359375">
        <ele>628.4000244140625</ele>
        <time>2018-08-16T09:30:38.000Z</time>
      </trkpt>
      <trkpt lat="47.99367995001375675201416015625" lon="9.2658098973333835601806640625">
        <ele>628.4000244140625</ele>
        <time>2018-08-16T09:30:43.000Z</time>
      </trkpt>
      <trkpt lat="47.99383518286049365997314453125" lon="9.26587904803454875946044921875">
        <ele>628.20001220703125</ele>
        <time>2018-08-16T09:30:45.000Z</time>
      </trkpt>
      <trkpt lat="47.9942285455763339996337890625" lon="9.2660854943096637725830078125">
        <ele>626.79998779296875</ele>
        <time>2018-08-16T09:30:50.000Z</time>
      </trkpt>
      <trkpt lat="47.9943076707422733306884765625" lon="9.26613570190966129302978515625">
        <ele>626.5999755859375</ele>
        <time>2018-08-16T09:30:51.000Z</time>
      </trkpt>
      <trkpt lat="47.99446382559835910797119140625" lon="9.2662450857460498809814453125">
        <ele>626.4000244140625</ele>
        <time>2018-08-16T09:30:53.000Z</time>
      </trkpt>
      <trkpt lat="47.9946179687976837158203125" lon="9.26635824143886566162109375">
        <ele>626</ele>
        <time>2018-08-16T09:30:55.000Z</time>
      </trkpt>
      <trkpt lat="47.9947700165212154388427734375" lon="9.266478605568408966064453125">
        <ele>625.79998779296875</ele>
        <time>2018-08-16T09:30:57.000Z</time>
      </trkpt>
      <trkpt lat="47.99491703510284423828125" lon="9.2666071839630603790283203125">
        <ele>625.20001220703125</ele>
        <time>2018-08-16T09:30:59.000Z</time>
      </trkpt>
      <trkpt lat="47.995132617652416229248046875" lon="9.26680357195436954498291015625">
        <ele>624.5999755859375</ele>
        <time>2018-08-16T09:31:02.000Z</time>
      </trkpt>
      <trkpt lat="47.99541332758963108062744140625" lon="9.2670866288244724273681640625">
        <ele>624.4000244140625</ele>
        <time>2018-08-16T09:31:06.000Z</time>
      </trkpt>
      <trkpt lat="47.9957728274166584014892578125" lon="9.26743858493864536285400390625">
        <ele>623.79998779296875</ele>
        <time>2018-08-16T09:31:11.000Z</time>
      </trkpt>
      <trkpt lat="47.99598078243434429168701171875" lon="9.26765735261142253875732421875">
        <ele>623.5999755859375</ele>
        <time>2018-08-16T09:31:14.000Z</time>
      </trkpt>
      <trkpt lat="47.99604599364101886749267578125" lon="9.26773346029222011566162109375">
        <ele>623.5999755859375</ele>
        <time>2018-08-16T09:31:15.000Z</time>
      </trkpt>
      <trkpt lat="47.9961101152002811431884765625" lon="9.26780789159238338470458984375">
        <ele>623.5999755859375</ele>
        <time>2018-08-16T09:31:16.000Z</time>
      </trkpt>
      <trkpt lat="47.996173985302448272705078125" lon="9.267880059778690338134765625">
        <ele>623.5999755859375</ele>
        <time>2018-08-16T09:31:17.000Z</time>
      </trkpt>
      <trkpt lat="47.99641161225736141204833984375" lon="9.268170408904552459716796875">
        <ele>623.5999755859375</ele>
        <time>2018-08-16T09:31:21.000Z</time>
      </trkpt>
      <trkpt lat="47.99679432995617389678955078125" lon="9.26866619847714900970458984375">
        <ele>624</ele>
        <time>2018-08-16T09:31:28.000Z</time>
      </trkpt>
      <trkpt lat="47.99707462079823017120361328125" lon="9.26898538134992122650146484375">
        <ele>624.79998779296875</ele>
        <time>2018-08-16T09:31:33.000Z</time>
      </trkpt>
      <trkpt lat="47.99730218946933746337890625" lon="9.26920942962169647216796875">
        <ele>625.20001220703125</ele>
        <time>2018-08-16T09:31:37.000Z</time>
      </trkpt>
      <trkpt lat="47.99741350114345550537109375" lon="9.2693232558667659759521484375">
        <ele>625.79998779296875</ele>
        <time>2018-08-16T09:31:39.000Z</time>
      </trkpt>
      <trkpt lat="47.99752875231206417083740234375" lon="9.269435070455074310302734375">
        <ele>626.20001220703125</ele>
        <time>2018-08-16T09:31:41.000Z</time>
      </trkpt>
      <trkpt lat="47.99770242534577846527099609375" lon="9.26960111595690250396728515625">
        <ele>627</ele>
        <time>2018-08-16T09:31:44.000Z</time>
      </trkpt>
      <trkpt lat="47.99799210391938686370849609375" lon="9.26986548118293285369873046875">
        <ele>628.20001220703125</ele>
        <time>2018-08-16T09:31:49.000Z</time>
      </trkpt>
      <trkpt lat="47.9983541183173656463623046875" lon="9.270123057067394256591796875">
        <ele>628.79998779296875</ele>
        <time>2018-08-16T09:31:55.000Z</time>
      </trkpt>
      <trkpt lat="47.99841572530567646026611328125" lon="9.27016035653650760650634765625">
        <ele>629.20001220703125</ele>
        <time>2018-08-16T09:31:56.000Z</time>
      </trkpt>
      <trkpt lat="47.9988506622612476348876953125" lon="9.27039764821529388427734375">
        <ele>630.4000244140625</ele>
        <time>2018-08-16T09:32:03.000Z</time>
      </trkpt>
      <trkpt lat="47.99940277822315692901611328125" lon="9.2706898413598537445068359375">
        <ele>631.4000244140625</ele>
        <time>2018-08-16T09:32:12.000Z</time>
      </trkpt>
      <trkpt lat="47.99952364526689052581787109375" lon="9.27076511085033416748046875">
        <ele>631.5999755859375</ele>
        <time>2018-08-16T09:32:14.000Z</time>
      </trkpt>
      <trkpt lat="47.9999607615172863006591796875" lon="9.2710462398827075958251953125">
        <ele>632.4000244140625</ele>
        <time>2018-08-16T09:32:21.000Z</time>
      </trkpt>
      <trkpt lat="48.00042050890624523162841796875" lon="9.27132778801023960113525390625">
        <ele>633.4000244140625</ele>
        <time>2018-08-16T09:32:28.000Z</time>
      </trkpt>
      <trkpt lat="48.00048530101776123046875" lon="9.27136726677417755126953125">
        <ele>633.4000244140625</ele>
        <time>2018-08-16T09:32:29.000Z</time>
      </trkpt>
      <trkpt lat="48.00104496069252490997314453125" lon="9.27169910632073879241943359375">
        <ele>634.4000244140625</ele>
        <time>2018-08-16T09:32:38.000Z</time>
      </trkpt>
      <trkpt lat="48.00110849551856517791748046875" lon="9.2717379145324230194091796875">
        <ele>634.4000244140625</ele>
        <time>2018-08-16T09:32:39.000Z</time>
      </trkpt>
      <trkpt lat="48.00163135863840579986572265625" lon="9.272053241729736328125">
        <ele>635.4000244140625</ele>
        <time>2018-08-16T09:32:47.000Z</time>
      </trkpt>
      <trkpt lat="48.00169941969215869903564453125" lon="9.272096492350101470947265625">
        <ele>635.4000244140625</ele>
        <time>2018-08-16T09:32:48.000Z</time>
      </trkpt>
      <trkpt lat="48.00219194032251834869384765625" lon="9.2723860032856464385986328125">
        <ele>635.79998779296875</ele>
        <time>2018-08-16T09:32:55.000Z</time>
      </trkpt>
      <trkpt lat="48.00226503051817417144775390625" lon="9.27242648787796497344970703125">
        <ele>635.79998779296875</ele>
        <time>2018-08-16T09:32:56.000Z</time>
      </trkpt>
      <trkpt lat="48.00241540186107158660888671875" lon="9.2725040204823017120361328125">
        <ele>635.79998779296875</ele>
        <time>2018-08-16T09:32:58.000Z</time>
      </trkpt>
      <trkpt lat="48.00249117426574230194091796875" lon="9.27254199050366878509521484375">
        <ele>635.79998779296875</ele>
        <time>2018-08-16T09:32:59.000Z</time>
      </trkpt>
      <trkpt lat="48.00264623947441577911376953125" lon="9.27262078039348125457763671875">
        <ele>635.79998779296875</ele>
        <time>2018-08-16T09:33:01.000Z</time>
      </trkpt>
      <trkpt lat="48.0028059147298336029052734375" lon="9.272699654102325439453125">
        <ele>635.79998779296875</ele>
        <time>2018-08-16T09:33:03.000Z</time>
      </trkpt>
      <trkpt lat="48.0029690265655517578125" lon="9.27277500741183757781982421875">
        <ele>635.79998779296875</ele>
        <time>2018-08-16T09:33:05.000Z</time>
      </trkpt>
      <trkpt lat="48.00305108539760112762451171875" lon="9.27281540818512439727783203125">
        <ele>635.79998779296875</ele>
        <time>2018-08-16T09:33:06.000Z</time>
      </trkpt>
      <trkpt lat="48.003132641315460205078125" lon="9.272852204740047454833984375">
        <ele>635.79998779296875</ele>
        <time>2018-08-16T09:33:07.000Z</time>
      </trkpt>
      <trkpt lat="48.00321511924266815185546875" lon="9.27288942039012908935546875">
        <ele>635.5999755859375</ele>
        <time>2018-08-16T09:33:08.000Z</time>
      </trkpt>
      <trkpt lat="48.003550730645656585693359375" lon="9.27304901182651519775390625">
        <ele>635.20001220703125</ele>
        <time>2018-08-16T09:33:12.000Z</time>
      </trkpt>
      <trkpt lat="48.003634549677371978759765625" lon="9.27308782003819942474365234375">
        <ele>635</ele>
        <time>2018-08-16T09:33:13.000Z</time>
      </trkpt>
      <trkpt lat="48.0039847455918788909912109375" lon="9.2732473276555538177490234375">
        <ele>634.5999755859375</ele>
        <time>2018-08-16T09:33:17.000Z</time>
      </trkpt>
      <trkpt lat="48.00406965427100658416748046875" lon="9.273287393152713775634765625">
        <ele>634.5999755859375</ele>
        <time>2018-08-16T09:33:18.000Z</time>
      </trkpt>
      <trkpt lat="48.00415531732141971588134765625" lon="9.27332569845020771026611328125">
        <ele>634.4000244140625</ele>
        <time>2018-08-16T09:33:19.000Z</time>
      </trkpt>
      <trkpt lat="48.0043210275471210479736328125" lon="9.2733955197036266326904296875">
        <ele>634.20001220703125</ele>
        <time>2018-08-16T09:33:21.000Z</time>
      </trkpt>
      <trkpt lat="48.00448707304894924163818359375" lon="9.2734709568321704864501953125">
        <ele>634</ele>
        <time>2018-08-16T09:33:23.000Z</time>
      </trkpt>
      <trkpt lat="48.00457122735679149627685546875" lon="9.273510016500949859619140625">
        <ele>633.79998779296875</ele>
        <time>2018-08-16T09:33:24.000Z</time>
      </trkpt>
      <trkpt lat="48.0047454871237277984619140625" lon="9.27358545362949371337890625">
        <ele>633.79998779296875</ele>
        <time>2018-08-16T09:33:26.000Z</time>
      </trkpt>
      <trkpt lat="48.00483274273574352264404296875" lon="9.27362702786922454833984375">
        <ele>633.79998779296875</ele>
        <time>2018-08-16T09:33:27.000Z</time>
      </trkpt>
      <trkpt lat="48.00491790287196636199951171875" lon="9.2736687697470188140869140625">
        <ele>633.5999755859375</ele>
        <time>2018-08-16T09:33:28.000Z</time>
      </trkpt>
      <trkpt lat="48.00515779294073581695556640625" lon="9.273801706731319427490234375">
        <ele>633.5999755859375</ele>
        <time>2018-08-16T09:33:31.000Z</time>
      </trkpt>
      <trkpt lat="48.00523348152637481689453125" lon="9.27384219132363796234130859375">
        <ele>633.4000244140625</ele>
        <time>2018-08-16T09:33:32.000Z</time>
      </trkpt>
      <trkpt lat="48.0053104273974895477294921875" lon="9.2738803289830684661865234375">
        <ele>633.4000244140625</ele>
        <time>2018-08-16T09:33:33.000Z</time>
      </trkpt>
      <trkpt lat="48.0056322924792766571044921875" lon="9.27402575500309467315673828125">
        <ele>633.20001220703125</ele>
        <time>2018-08-16T09:33:37.000Z</time>
      </trkpt>
      <trkpt lat="48.00570965744554996490478515625" lon="9.2740684188902378082275390625">
        <ele>633</ele>
        <time>2018-08-16T09:33:38.000Z</time>
      </trkpt>
      <trkpt lat="48.00578978843986988067626953125" lon="9.27411443553864955902099609375">
        <ele>632.4000244140625</ele>
        <time>2018-08-16T09:33:39.000Z</time>
      </trkpt>
      <trkpt lat="48.00587126053869724273681640625" lon="9.27415869198739528656005859375">
        <ele>632</ele>
        <time>2018-08-16T09:33:40.000Z</time>
      </trkpt>
      <trkpt lat="48.00595273263752460479736328125" lon="9.27420009858906269073486328125">
        <ele>631.5999755859375</ele>
        <time>2018-08-16T09:33:41.000Z</time>
      </trkpt>
      <trkpt lat="48.0060342885553836822509765625" lon="9.274238236248493194580078125">
        <ele>631.4000244140625</ele>
        <time>2018-08-16T09:33:42.000Z</time>
      </trkpt>
      <trkpt lat="48.00635120831429958343505859375" lon="9.27438651211559772491455078125">
        <ele>630.79998779296875</ele>
        <time>2018-08-16T09:33:46.000Z</time>
      </trkpt>
      <trkpt lat="48.006506524980068206787109375" lon="9.2744632065296173095703125">
        <ele>630.4000244140625</ele>
        <time>2018-08-16T09:33:48.000Z</time>
      </trkpt>
      <trkpt lat="48.00658254884183406829833984375" lon="9.27449631504714488983154296875">
        <ele>629.79998779296875</ele>
        <time>2018-08-16T09:33:49.000Z</time>
      </trkpt>
      <trkpt lat="48.00673208199441432952880859375" lon="9.27456974051892757415771484375">
        <ele>629.20001220703125</ele>
        <time>2018-08-16T09:33:51.000Z</time>
      </trkpt>
      <trkpt lat="48.0068765021860599517822265625" lon="9.27463126368820667266845703125">
        <ele>628</ele>
        <time>2018-08-16T09:33:53.000Z</time>
      </trkpt>
      <trkpt lat="48.007040955126285552978515625" lon="9.27471357397735118865966796875">
        <ele>627.4000244140625</ele>
        <time>2018-08-16T09:33:56.000Z</time>
      </trkpt>
      <trkpt lat="48.00710993818938732147216796875" lon="9.2747440002858638763427734375">
        <ele>627</ele>
        <time>2018-08-16T09:33:58.000Z</time>
      </trkpt>
      <trkpt lat="48.00730012357234954833984375" lon="9.2748227901756763458251953125">
        <ele>626.20001220703125</ele>
        <time>2018-08-16T09:34:04.000Z</time>
      </trkpt>
      <trkpt lat="48.00735351629555225372314453125" lon="9.27484366111457347869873046875">
        <ele>626.20001220703125</ele>
        <time>2018-08-16T09:34:05.000Z</time>
      </trkpt>
      <trkpt lat="48.007411770522594451904296875" lon="9.2748693935573101043701171875">
        <ele>626</ele>
        <time>2018-08-16T09:34:06.000Z</time>
      </trkpt>
      <trkpt lat="48.0074742995202541351318359375" lon="9.27489898167550563812255859375">
        <ele>626</ele>
        <time>2018-08-16T09:34:07.000Z</time>
      </trkpt>
      <trkpt lat="48.00753674469888210296630859375" lon="9.27492898888885974884033203125">
        <ele>626</ele>
        <time>2018-08-16T09:34:08.000Z</time>
      </trkpt>
      <trkpt lat="48.007662557065486907958984375" lon="9.2749910987913608551025390625">
        <ele>625.79998779296875</ele>
        <time>2018-08-16T09:34:10.000Z</time>
      </trkpt>
      <trkpt lat="48.0077904649078845977783203125" lon="9.2750611715018749237060546875">
        <ele>625.5999755859375</ele>
        <time>2018-08-16T09:34:12.000Z</time>
      </trkpt>
      <trkpt lat="48.00792164169251918792724609375" lon="9.27513367496430873870849609375">
        <ele>625.20001220703125</ele>
        <time>2018-08-16T09:34:14.000Z</time>
      </trkpt>
      <trkpt lat="48.007988445460796356201171875" lon="9.27516938187181949615478515625">
        <ele>625.20001220703125</ele>
        <time>2018-08-16T09:34:15.000Z</time>
      </trkpt>
      <trkpt lat="48.008182235062122344970703125" lon="9.27526912651956081390380859375">
        <ele>625.20001220703125</ele>
        <time>2018-08-16T09:34:18.000Z</time>
      </trkpt>
      <trkpt lat="48.0087050981819629669189453125" lon="9.27552795968949794769287109375">
        <ele>625.4000244140625</ele>
        <time>2018-08-16T09:34:26.000Z</time>
      </trkpt>
      <trkpt lat="48.00890140235424041748046875" lon="9.27562233991920948028564453125">
        <ele>625.5999755859375</ele>
        <time>2018-08-16T09:34:29.000Z</time>
      </trkpt>
      <trkpt lat="48.0093620717525482177734375" lon="9.27585602737963199615478515625">
        <ele>626.5999755859375</ele>
        <time>2018-08-16T09:34:36.000Z</time>
      </trkpt>
      <trkpt lat="48.0096348188817501068115234375" lon="9.27598276175558567047119140625">
        <ele>626.5999755859375</ele>
        <time>2018-08-16T09:34:40.000Z</time>
      </trkpt>
      <trkpt lat="48.010101355612277984619140625" lon="9.27623991854488849639892578125">
        <ele>626.5999755859375</ele>
        <time>2018-08-16T09:34:47.000Z</time>
      </trkpt>
      <trkpt lat="48.01024250686168670654296875" lon="9.2763134278357028961181640625">
        <ele>626.5999755859375</ele>
        <time>2018-08-16T09:34:49.000Z</time>
      </trkpt>
      <trkpt lat="48.0103898607194423675537109375" lon="9.276390038430690765380859375">
        <ele>626.4000244140625</ele>
        <time>2018-08-16T09:34:51.000Z</time>
      </trkpt>
      <trkpt lat="48.010465800762176513671875" lon="9.27642951719462871551513671875">
        <ele>626.4000244140625</ele>
        <time>2018-08-16T09:34:52.000Z</time>
      </trkpt>
      <trkpt lat="48.01092370413243770599365234375" lon="9.27666001953184604644775390625">
        <ele>626.20001220703125</ele>
        <time>2018-08-16T09:34:58.000Z</time>
      </trkpt>
      <trkpt lat="48.0109987221658229827880859375" lon="9.27669723518192768096923828125">
        <ele>625.79998779296875</ele>
        <time>2018-08-16T09:34:59.000Z</time>
      </trkpt>
      <trkpt lat="48.01115001551806926727294921875" lon="9.2767752707004547119140625">
        <ele>625.4000244140625</ele>
        <time>2018-08-16T09:35:01.000Z</time>
      </trkpt>
      <trkpt lat="48.01130466163158416748046875" lon="9.276857078075408935546875">
        <ele>625.20001220703125</ele>
        <time>2018-08-16T09:35:03.000Z</time>
      </trkpt>
      <trkpt lat="48.01169919781386852264404296875" lon="9.27706520073115825653076171875">
        <ele>624.4000244140625</ele>
        <time>2018-08-16T09:35:08.000Z</time>
      </trkpt>
      <trkpt lat="48.0120147764682769775390625" lon="9.277233593165874481201171875">
        <ele>624</ele>
        <time>2018-08-16T09:35:12.000Z</time>
      </trkpt>
      <trkpt lat="48.0120930634438991546630859375" lon="9.27728346548974514007568359375">
        <ele>623.79998779296875</ele>
        <time>2018-08-16T09:35:13.000Z</time>
      </trkpt>
      <trkpt lat="48.01239154301583766937255859375" lon="9.27747524343430995941162109375">
        <ele>623.5999755859375</ele>
        <time>2018-08-16T09:35:17.000Z</time>
      </trkpt>
      <trkpt lat="48.01253722049295902252197265625" lon="9.2775807715952396392822265625">
        <ele>623.5999755859375</ele>
        <time>2018-08-16T09:35:19.000Z</time>
      </trkpt>
      <trkpt lat="48.01290317438542842864990234375" lon="9.27785955369472503662109375">
        <ele>623.4000244140625</ele>
        <time>2018-08-16T09:35:24.000Z</time>
      </trkpt>
      <trkpt lat="48.01321632228791713714599609375" lon="9.2781054787337779998779296875">
        <ele>623</ele>
        <time>2018-08-16T09:35:28.000Z</time>
      </trkpt>
      <trkpt lat="48.01329947076737880706787109375" lon="9.2781691811978816986083984375">
        <ele>623</ele>
        <time>2018-08-16T09:35:29.000Z</time>
      </trkpt>
      <trkpt lat="48.0138091742992401123046875" lon="9.27855768240988254547119140625">
        <ele>622</ele>
        <time>2018-08-16T09:35:35.000Z</time>
      </trkpt>
      <trkpt lat="48.0138928256928920745849609375" lon="9.27862272597849369049072265625">
        <ele>621.79998779296875</ele>
        <time>2018-08-16T09:35:36.000Z</time>
      </trkpt>
      <trkpt lat="48.01414067856967449188232421875" lon="9.2788212932646274566650390625">
        <ele>621.20001220703125</ele>
        <time>2018-08-16T09:35:39.000Z</time>
      </trkpt>
      <trkpt lat="48.014225251972675323486328125" lon="9.2788873426616191864013671875">
        <ele>621</ele>
        <time>2018-08-16T09:35:40.000Z</time>
      </trkpt>
      <trkpt lat="48.01431116648018360137939453125" lon="9.2789532244205474853515625">
        <ele>620.79998779296875</ele>
        <time>2018-08-16T09:35:41.000Z</time>
      </trkpt>
      <trkpt lat="48.01448735408484935760498046875" lon="9.2790868319571018218994140625">
        <ele>620.79998779296875</ele>
        <time>2018-08-16T09:35:43.000Z</time>
      </trkpt>
      <trkpt lat="48.0147578381001949310302734375" lon="9.2793004028499126434326171875">
        <ele>620.20001220703125</ele>
        <time>2018-08-16T09:35:46.000Z</time>
      </trkpt>
      <trkpt lat="48.014939725399017333984375" lon="9.2794526182115077972412109375">
        <ele>619.4000244140625</ele>
        <time>2018-08-16T09:35:48.000Z</time>
      </trkpt>
      <trkpt lat="48.01511817611753940582275390625" lon="9.2795951105654239654541015625">
        <ele>618.79998779296875</ele>
        <time>2018-08-16T09:35:50.000Z</time>
      </trkpt>
      <trkpt lat="48.01529050804674625396728515625" lon="9.27975528873503208160400390625">
        <ele>617.79998779296875</ele>
        <time>2018-08-16T09:35:52.000Z</time>
      </trkpt>
      <trkpt lat="48.0154595710337162017822265625" lon="9.27992292679846286773681640625">
        <ele>617.4000244140625</ele>
        <time>2018-08-16T09:35:54.000Z</time>
      </trkpt>
      <trkpt lat="48.01554028876125812530517578125" lon="9.2800061590969562530517578125">
        <ele>617</ele>
        <time>2018-08-16T09:35:55.000Z</time>
      </trkpt>
      <trkpt lat="48.01561991684138774871826171875" lon="9.2800852842628955841064453125">
        <ele>616.4000244140625</ele>
        <time>2018-08-16T09:35:56.000Z</time>
      </trkpt>
      <trkpt lat="48.01569853909313678741455078125" lon="9.28016197867691516876220703125">
        <ele>615.79998779296875</ele>
        <time>2018-08-16T09:35:57.000Z</time>
      </trkpt>
      <trkpt lat="48.01585209555923938751220703125" lon="9.28031687624752521514892578125">
        <ele>615.20001220703125</ele>
        <time>2018-08-16T09:35:59.000Z</time>
      </trkpt>
      <trkpt lat="48.0160030536353588104248046875" lon="9.2804606258869171142578125">
        <ele>614.5999755859375</ele>
        <time>2018-08-16T09:36:01.000Z</time>
      </trkpt>
      <trkpt lat="48.01630069501698017120361328125" lon="9.2807484604418277740478515625">
        <ele>614.20001220703125</ele>
        <time>2018-08-16T09:36:05.000Z</time>
      </trkpt>
      <trkpt lat="48.01637403666973114013671875" lon="9.280821382999420166015625">
        <ele>614.20001220703125</ele>
        <time>2018-08-16T09:36:06.000Z</time>
      </trkpt>
      <trkpt lat="48.01652767695486545562744140625" lon="9.2809643782675266265869140625">
        <ele>614.20001220703125</ele>
        <time>2018-08-16T09:36:08.000Z</time>
      </trkpt>
      <trkpt lat="48.016925565898418426513671875" lon="9.28133745677769184112548828125">
        <ele>614</ele>
        <time>2018-08-16T09:36:13.000Z</time>
      </trkpt>
      <trkpt lat="48.01725690253078937530517578125" lon="9.2816567234694957733154296875">
        <ele>614</ele>
        <time>2018-08-16T09:36:17.000Z</time>
      </trkpt>
      <trkpt lat="48.0173411406576633453369140625" lon="9.281738698482513427734375">
        <ele>614</ele>
        <time>2018-08-16T09:36:18.000Z</time>
      </trkpt>
      <trkpt lat="48.01742671988904476165771484375" lon="9.28181874565780162811279296875">
        <ele>613.79998779296875</ele>
        <time>2018-08-16T09:36:19.000Z</time>
      </trkpt>
      <trkpt lat="48.01751271821558475494384765625" lon="9.28189703263342380523681640625">
        <ele>613.79998779296875</ele>
        <time>2018-08-16T09:36:20.000Z</time>
      </trkpt>
      <trkpt lat="48.017860986292362213134765625" lon="9.282217808067798614501953125">
        <ele>613</ele>
        <time>2018-08-16T09:36:24.000Z</time>
      </trkpt>
      <trkpt lat="48.01813356578350067138671875" lon="9.2824741266667842864990234375">
        <ele>612</ele>
        <time>2018-08-16T09:36:27.000Z</time>
      </trkpt>
      <trkpt lat="48.01822886802256107330322265625" lon="9.28255953826010227203369140625">
        <ele>611.79998779296875</ele>
        <time>2018-08-16T09:36:28.000Z</time>
      </trkpt>
      <trkpt lat="48.0186094902455806732177734375" lon="9.28290202282369136810302734375">
        <ele>610.4000244140625</ele>
        <time>2018-08-16T09:36:32.000Z</time>
      </trkpt>
      <trkpt lat="48.01869993098080158233642578125" lon="9.28300528787076473236083984375">
        <ele>610</ele>
        <time>2018-08-16T09:36:33.000Z</time>
      </trkpt>
      <trkpt lat="48.0187865160405635833740234375" lon="9.28312313742935657501220703125">
        <ele>609.20001220703125</ele>
        <time>2018-08-16T09:36:34.000Z</time>
      </trkpt>
      <trkpt lat="48.018938563764095306396484375" lon="9.28341248072683811187744140625">
        <ele>607.4000244140625</ele>
        <time>2018-08-16T09:36:36.000Z</time>
      </trkpt>
      <trkpt lat="48.0190020985901355743408203125" lon="9.28357693366706371307373046875">
        <ele>606.79998779296875</ele>
        <time>2018-08-16T09:36:37.000Z</time>
      </trkpt>
      <trkpt lat="48.0190609395503997802734375" lon="9.28375261835753917694091796875">
        <ele>606</ele>
        <time>2018-08-16T09:36:38.000Z</time>
      </trkpt>
      <trkpt lat="48.0191838182508945465087890625" lon="9.2841206677258014678955078125">
        <ele>604.79998779296875</ele>
        <time>2018-08-16T09:36:40.000Z</time>
      </trkpt>
      <trkpt lat="48.01932035945355892181396484375" lon="9.28448352031409740447998046875">
        <ele>603.20001220703125</ele>
        <time>2018-08-16T09:36:42.000Z</time>
      </trkpt>
      <trkpt lat="48.019391186535358428955078125" lon="9.28466607816517353057861328125">
        <ele>602.20001220703125</ele>
        <time>2018-08-16T09:36:43.000Z</time>
      </trkpt>
      <trkpt lat="48.019462935626506805419921875" lon="9.2848498933017253875732421875">
        <ele>601</ele>
        <time>2018-08-16T09:36:44.000Z</time>
      </trkpt>
      <trkpt lat="48.01953636109828948974609375" lon="9.28503504954278469085693359375">
        <ele>599.4000244140625</ele>
        <time>2018-08-16T09:36:45.000Z</time>
      </trkpt>
      <trkpt lat="48.01961020566523075103759765625" lon="9.28521911613643169403076171875">
        <ele>598.4000244140625</ele>
        <time>2018-08-16T09:36:46.000Z</time>
      </trkpt>
      <trkpt lat="48.01975093781948089599609375" lon="9.28559244610369205474853515625">
        <ele>596.4000244140625</ele>
        <time>2018-08-16T09:36:48.000Z</time>
      </trkpt>
      <trkpt lat="48.0198919214308261871337890625" lon="9.28595689125359058380126953125">
        <ele>594.5999755859375</ele>
        <time>2018-08-16T09:36:50.000Z</time>
      </trkpt>
      <trkpt lat="48.02005293779075145721435546875" lon="9.28629803471267223358154296875">
        <ele>592.79998779296875</ele>
        <time>2018-08-16T09:36:52.000Z</time>
      </trkpt>
      <trkpt lat="48.02023650147020816802978515625" lon="9.286607243120670318603515625">
        <ele>591.4000244140625</ele>
        <time>2018-08-16T09:36:54.000Z</time>
      </trkpt>
      <trkpt lat="48.020431883633136749267578125" lon="9.2868813313543796539306640625">
        <ele>590</ele>
        <time>2018-08-16T09:36:56.000Z</time>
      </trkpt>
      <trkpt lat="48.02063313312828540802001953125" lon="9.28712331689894199371337890625">
        <ele>588.5999755859375</ele>
        <time>2018-08-16T09:36:58.000Z</time>
      </trkpt>
      <trkpt lat="48.02083480171859264373779296875" lon="9.28733705542981624603271484375">
        <ele>587.20001220703125</ele>
        <time>2018-08-16T09:37:00.000Z</time>
      </trkpt>
      <trkpt lat="48.0210405774414539337158203125" lon="9.28752413950860500335693359375">
        <ele>586</ele>
        <time>2018-08-16T09:37:02.000Z</time>
      </trkpt>
      <trkpt lat="48.02124316804111003875732421875" lon="9.287690855562686920166015625">
        <ele>584.79998779296875</ele>
        <time>2018-08-16T09:37:04.000Z</time>
      </trkpt>
      <trkpt lat="48.0215428210794925689697265625" lon="9.287924878299236297607421875">
        <ele>583.5999755859375</ele>
        <time>2018-08-16T09:37:07.000Z</time>
      </trkpt>
      <trkpt lat="48.0216440744698047637939453125" lon="9.28800174035131931304931640625">
        <ele>583.4000244140625</ele>
        <time>2018-08-16T09:37:08.000Z</time>
      </trkpt>
      <trkpt lat="48.02174574695527553558349609375" lon="9.2880780994892120361328125">
        <ele>583</ele>
        <time>2018-08-16T09:37:09.000Z</time>
      </trkpt>
      <trkpt lat="48.02184549160301685333251953125" lon="9.28815747611224651336669921875">
        <ele>582.79998779296875</ele>
        <time>2018-08-16T09:37:10.000Z</time>
      </trkpt>
      <trkpt lat="48.02194255404174327850341796875" lon="9.28824146278202533721923828125">
        <ele>582.5999755859375</ele>
        <time>2018-08-16T09:37:11.000Z</time>
      </trkpt>
      <trkpt lat="48.0222938396036624908447265625" lon="9.28860221989452838897705078125">
        <ele>581.4000244140625</ele>
        <time>2018-08-16T09:37:15.000Z</time>
      </trkpt>
      <trkpt lat="48.02237170748412609100341796875" lon="9.2887012101709842681884765625">
        <ele>581</ele>
        <time>2018-08-16T09:37:16.000Z</time>
      </trkpt>
      <trkpt lat="48.022601790726184844970703125" lon="9.288998432457447052001953125">
        <ele>580.5999755859375</ele>
        <time>2018-08-16T09:37:19.000Z</time>
      </trkpt>
      <trkpt lat="48.02267798222601413726806640625" lon="9.289098344743251800537109375">
        <ele>580.4000244140625</ele>
        <time>2018-08-16T09:37:20.000Z</time>
      </trkpt>
      <trkpt lat="48.0227528326213359832763671875" lon="9.2891992628574371337890625">
        <ele>580</ele>
        <time>2018-08-16T09:37:21.000Z</time>
      </trkpt>
      <trkpt lat="48.0228279344737529754638671875" lon="9.28929942660033702850341796875">
        <ele>579.5999755859375</ele>
        <time>2018-08-16T09:37:22.000Z</time>
      </trkpt>
      <trkpt lat="48.023051060736179351806640625" lon="9.28959899581968784332275390625">
        <ele>579</ele>
        <time>2018-08-16T09:37:25.000Z</time>
      </trkpt>
      <trkpt lat="48.023190535604953765869140625" lon="9.2898052744567394256591796875">
        <ele>578.5999755859375</ele>
        <time>2018-08-16T09:37:27.000Z</time>
      </trkpt>
      <trkpt lat="48.02344459109008312225341796875" lon="9.290225207805633544921875">
        <ele>578.4000244140625</ele>
        <time>2018-08-16T09:37:31.000Z</time>
      </trkpt>
      <trkpt lat="48.0235611833631992340087890625" lon="9.2904409579932689666748046875">
        <ele>578.4000244140625</ele>
        <time>2018-08-16T09:37:33.000Z</time>
      </trkpt>
      <trkpt lat="48.0236741714179515838623046875" lon="9.290656037628650665283203125">
        <ele>578.20001220703125</ele>
        <time>2018-08-16T09:37:35.000Z</time>
      </trkpt>
      <trkpt lat="48.0240436457097530364990234375" lon="9.2914040386676788330078125">
        <ele>577.5999755859375</ele>
        <time>2018-08-16T09:37:42.000Z</time>
      </trkpt>
      <trkpt lat="48.02413341589272022247314453125" lon="9.2917512170970439910888671875">
        <ele>577.5999755859375</ele>
        <time>2018-08-16T09:37:45.000Z</time>
      </trkpt>
      <trkpt lat="48.02421279251575469970703125" lon="9.292199313640594482421875">
        <ele>577.5999755859375</ele>
        <time>2018-08-16T09:37:49.000Z</time>
      </trkpt>
      <trkpt lat="48.0242940969765186309814453125" lon="9.2928765714168548583984375">
        <ele>578.4000244140625</ele>
        <time>2018-08-16T09:37:56.000Z</time>
      </trkpt>
      <trkpt lat="48.02431798540055751800537109375" lon="9.29305217228829860687255859375">
        <ele>578.79998779296875</ele>
        <time>2018-08-16T09:37:58.000Z</time>
      </trkpt>
      <trkpt lat="48.02434028126299381256103515625" lon="9.29321779869496822357177734375">
        <ele>579.20001220703125</ele>
        <time>2018-08-16T09:38:00.000Z</time>
      </trkpt>
      <trkpt lat="48.0244027264416217803955078125" lon="9.29355508647859096527099609375">
        <ele>580.20001220703125</ele>
        <time>2018-08-16T09:38:04.000Z</time>
      </trkpt>
      <trkpt lat="48.0244724638760089874267578125" lon="9.2938958108425140380859375">
        <ele>581.79998779296875</ele>
        <time>2018-08-16T09:38:08.000Z</time>
      </trkpt>
      <trkpt lat="48.0245514214038848876953125" lon="9.29431021213531494140625">
        <ele>582.5999755859375</ele>
        <time>2018-08-16T09:38:13.000Z</time>
      </trkpt>
      <trkpt lat="48.02457447163760662078857421875" lon="9.29447625763714313507080078125">
        <ele>582.79998779296875</ele>
        <time>2018-08-16T09:38:15.000Z</time>
      </trkpt>
      <trkpt lat="48.02466281689703464508056640625" lon="9.29488026537001132965087890625">
        <ele>583.5999755859375</ele>
        <time>2018-08-16T09:38:20.000Z</time>
      </trkpt>
      <trkpt lat="48.025015778839588165283203125" lon="9.295054860413074493408203125">
        <ele>583.79998779296875</ele>
        <time>2018-08-16T09:38:26.000Z</time>
      </trkpt>
      <trkpt lat="48.02516472525894641876220703125" lon="9.2950406111776828765869140625">
        <ele>583.79998779296875</ele>
        <time>2018-08-16T09:38:28.000Z</time>
      </trkpt>
      <trkpt lat="48.02524200640618801116943359375" lon="9.295031391084194183349609375">
        <ele>583.79998779296875</ele>
        <time>2018-08-16T09:38:29.000Z</time>
      </trkpt>
      <trkpt lat="48.02540101110935211181640625" lon="9.29500901140272617340087890625">
        <ele>583.79998779296875</ele>
        <time>2018-08-16T09:38:31.000Z</time>
      </trkpt>
      <trkpt lat="48.02563712932169437408447265625" lon="9.2949541099369525909423828125">
        <ele>583</ele>
        <time>2018-08-16T09:38:34.000Z</time>
      </trkpt>
      <trkpt lat="48.025956563651561737060546875" lon="9.29491027258336544036865234375">
        <ele>581.79998779296875</ele>
        <time>2018-08-16T09:38:38.000Z</time>
      </trkpt>
      <trkpt lat="48.0262707173824310302734375" lon="9.29494748823344707489013671875">
        <ele>580.5999755859375</ele>
        <time>2018-08-16T09:38:42.000Z</time>
      </trkpt>
      <trkpt lat="48.0264210887253284454345703125" lon="9.2950080893933773040771484375">
        <ele>580.4000244140625</ele>
        <time>2018-08-16T09:38:44.000Z</time>
      </trkpt>
      <trkpt lat="48.0267939157783985137939453125" lon="9.29546968080103397369384765625">
        <ele>579.4000244140625</ele>
        <time>2018-08-16T09:38:50.000Z</time>
      </trkpt>
      <trkpt lat="48.02696549333631992340087890625" lon="9.29579556919634342193603515625">
        <ele>578.4000244140625</ele>
        <time>2018-08-16T09:38:53.000Z</time>
      </trkpt>
      <trkpt lat="48.0270232446491718292236328125" lon="9.2959009297192096710205078125">
        <ele>578</ele>
        <time>2018-08-16T09:38:54.000Z</time>
      </trkpt>
      <trkpt lat="48.02707931958138942718505859375" lon="9.296001680195331573486328125">
        <ele>577.5999755859375</ele>
        <time>2018-08-16T09:38:55.000Z</time>
      </trkpt>
      <trkpt lat="48.02713816054165363311767578125" lon="9.29609195329248905181884765625">
        <ele>577</ele>
        <time>2018-08-16T09:38:56.000Z</time>
      </trkpt>
      <trkpt lat="48.027208149433135986328125" lon="9.29616152308881282806396484375">
        <ele>576.5999755859375</ele>
        <time>2018-08-16T09:38:57.000Z</time>
      </trkpt>
      <trkpt lat="48.02728937007486820220947265625" lon="9.29620242677628993988037109375">
        <ele>576.20001220703125</ele>
        <time>2018-08-16T09:38:58.000Z</time>
      </trkpt>
      <trkpt lat="48.02737654186785221099853515625" lon="9.29620611481368541717529296875">
        <ele>575.79998779296875</ele>
        <time>2018-08-16T09:38:59.000Z</time>
      </trkpt>
      <trkpt lat="48.0274658091366291046142578125" lon="9.2961761914193630218505859375">
        <ele>575.4000244140625</ele>
        <time>2018-08-16T09:39:00.000Z</time>
      </trkpt>
      <trkpt lat="48.02763889543712139129638671875" lon="9.29607586003839969635009765625">
        <ele>574.79998779296875</ele>
        <time>2018-08-16T09:39:02.000Z</time>
      </trkpt>
      <trkpt lat="48.02781499922275543212890625" lon="9.2959813959896564483642578125">
        <ele>573.79998779296875</ele>
        <time>2018-08-16T09:39:04.000Z</time>
      </trkpt>
      <trkpt lat="48.02790158428251743316650390625" lon="9.2959394864737987518310546875">
        <ele>573.20001220703125</ele>
        <time>2018-08-16T09:39:05.000Z</time>
      </trkpt>
      <trkpt lat="48.027981631457805633544921875" lon="9.2959106527268886566162109375">
        <ele>572.79998779296875</ele>
        <time>2018-08-16T09:39:06.000Z</time>
      </trkpt>
      <trkpt lat="48.0280548892915248870849609375" lon="9.29590637795627117156982421875">
        <ele>572.5999755859375</ele>
        <time>2018-08-16T09:39:07.000Z</time>
      </trkpt>
      <trkpt lat="48.02821959368884563446044921875" lon="9.2959763668477535247802734375">
        <ele>571.5999755859375</ele>
        <time>2018-08-16T09:39:10.000Z</time>
      </trkpt>
      <trkpt lat="48.0282770097255706787109375" lon="9.2959807254374027252197265625">
        <ele>571.20001220703125</ele>
        <time>2018-08-16T09:39:11.000Z</time>
      </trkpt>
      <trkpt lat="48.02838656120002269744873046875" lon="9.2959488742053508758544921875">
        <ele>570.20001220703125</ele>
        <time>2018-08-16T09:39:13.000Z</time>
      </trkpt>
      <trkpt lat="48.02843735553324222564697265625" lon="9.29592800326645374298095703125">
        <ele>569.79998779296875</ele>
        <time>2018-08-16T09:39:14.000Z</time>
      </trkpt>
      <trkpt lat="48.0284863896667957305908203125" lon="9.29590151645243167877197265625">
        <ele>569.4000244140625</ele>
        <time>2018-08-16T09:39:15.000Z</time>
      </trkpt>
      <trkpt lat="48.02853249013423919677734375" lon="9.29586413316428661346435546875">
        <ele>569</ele>
        <time>2018-08-16T09:39:16.000Z</time>
      </trkpt>
      <trkpt lat="48.0286379344761371612548828125" lon="9.2957188747823238372802734375">
        <ele>568</ele>
        <time>2018-08-16T09:39:19.000Z</time>
      </trkpt>
      <trkpt lat="48.02867825143039226531982421875" lon="9.295712672173976898193359375">
        <ele>567.79998779296875</ele>
        <time>2018-08-16T09:39:20.000Z</time>
      </trkpt>
      <trkpt lat="48.028770871460437774658203125" lon="9.29584837518632411956787109375">
        <ele>567.5999755859375</ele>
        <time>2018-08-16T09:39:23.000Z</time>
      </trkpt>
      <trkpt lat="48.028790652751922607421875" lon="9.295921213924884796142578125">
        <ele>567.4000244140625</ele>
        <time>2018-08-16T09:39:24.000Z</time>
      </trkpt>
      <trkpt lat="48.02880867384374141693115234375" lon="9.29599941708147525787353515625">
        <ele>567.4000244140625</ele>
        <time>2018-08-16T09:39:25.000Z</time>
      </trkpt>
      <trkpt lat="48.02882912568747997283935546875" lon="9.29607686586678028106689453125">
        <ele>567.4000244140625</ele>
        <time>2018-08-16T09:39:26.000Z</time>
      </trkpt>
      <trkpt lat="48.02885024808347225189208984375" lon="9.296153895556926727294921875">
        <ele>567.4000244140625</ele>
        <time>2018-08-16T09:39:27.000Z</time>
      </trkpt>
      <trkpt lat="48.02889266051352024078369140625" lon="9.2963089607656002044677734375">
        <ele>567.4000244140625</ele>
        <time>2018-08-16T09:39:29.000Z</time>
      </trkpt>
      <trkpt lat="48.02891227416694164276123046875" lon="9.2963864095509052276611328125">
        <ele>567.20001220703125</ele>
        <time>2018-08-16T09:39:30.000Z</time>
      </trkpt>
      <trkpt lat="48.02896575070917606353759765625" lon="9.29660559631884098052978515625">
        <ele>567.20001220703125</ele>
        <time>2018-08-16T09:39:33.000Z</time>
      </trkpt>
      <trkpt lat="48.02901118062436580657958984375" lon="9.2967535369098186492919921875">
        <ele>567.20001220703125</ele>
        <time>2018-08-16T09:39:35.000Z</time>
      </trkpt>
      <trkpt lat="48.029035739600658416748046875" lon="9.29682939313352108001708984375">
        <ele>567.20001220703125</ele>
        <time>2018-08-16T09:39:36.000Z</time>
      </trkpt>
      <trkpt lat="48.02913825027644634246826171875" lon="9.29714463651180267333984375">
        <ele>567.4000244140625</ele>
        <time>2018-08-16T09:39:40.000Z</time>
      </trkpt>
      <trkpt lat="48.0291904695332050323486328125" lon="9.297293834388256072998046875">
        <ele>567.4000244140625</ele>
        <time>2018-08-16T09:39:42.000Z</time>
      </trkpt>
      <trkpt lat="48.0292159505188465118408203125" lon="9.297367595136165618896484375">
        <ele>567.4000244140625</ele>
        <time>2018-08-16T09:39:43.000Z</time>
      </trkpt>
      <trkpt lat="48.029266409575939178466796875" lon="9.29751620627939701080322265625">
        <ele>567.4000244140625</ele>
        <time>2018-08-16T09:39:45.000Z</time>
      </trkpt>
      <trkpt lat="48.029383085668087005615234375" lon="9.2976819165050983428955078125">
        <ele>567.4000244140625</ele>
        <time>2018-08-16T09:39:48.000Z</time>
      </trkpt>
      <trkpt lat="48.0295307748019695281982421875" lon="9.29776154458522796630859375">
        <ele>567.4000244140625</ele>
        <time>2018-08-16T09:39:51.000Z</time>
      </trkpt>
      <trkpt lat="48.02958366461098194122314453125" lon="9.2977710999548435211181640625">
        <ele>567.4000244140625</ele>
        <time>2018-08-16T09:39:52.000Z</time>
      </trkpt>
      <trkpt lat="48.029688186943531036376953125" lon="9.29778425954282283782958984375">
        <ele>567.20001220703125</ele>
        <time>2018-08-16T09:39:54.000Z</time>
      </trkpt>
      <trkpt lat="48.029946349561214447021484375" lon="9.2978425137698650360107421875">
        <ele>567</ele>
        <time>2018-08-16T09:39:59.000Z</time>
      </trkpt>
      <trkpt lat="48.02999471314251422882080078125" lon="9.29785483516752719879150390625">
        <ele>567</ele>
        <time>2018-08-16T09:40:00.000Z</time>
      </trkpt>
      <trkpt lat="48.030292354524135589599609375" lon="9.29795122705399990081787109375">
        <ele>566.79998779296875</ele>
        <time>2018-08-16T09:40:07.000Z</time>
      </trkpt>
      <trkpt lat="48.03032822906970977783203125" lon="9.297967068850994110107421875">
        <ele>566.79998779296875</ele>
        <time>2018-08-16T09:40:08.000Z</time>
      </trkpt>
      <trkpt lat="48.030400313436985015869140625" lon="9.297993890941143035888671875">
        <ele>566.79998779296875</ele>
        <time>2018-08-16T09:40:10.000Z</time>
      </trkpt>
      <trkpt lat="48.0304786004126071929931640625" lon="9.29802498780190944671630859375">
        <ele>566.79998779296875</ele>
        <time>2018-08-16T09:40:12.000Z</time>
      </trkpt>
      <trkpt lat="48.03052361123263835906982421875" lon="9.2980383150279521942138671875">
        <ele>566.79998779296875</ele>
        <time>2018-08-16T09:40:13.000Z</time>
      </trkpt>
      <trkpt lat="48.0307920835912227630615234375" lon="9.29814669303596019744873046875">
        <ele>567</ele>
        <time>2018-08-16T09:40:19.000Z</time>
      </trkpt>
      <trkpt lat="48.0308356694877147674560546875" lon="9.29816312156617641448974609375">
        <ele>567</ele>
        <time>2018-08-16T09:40:20.000Z</time>
      </trkpt>
      <trkpt lat="48.03102183155715465545654296875" lon="9.2982361279428005218505859375">
        <ele>567</ele>
        <time>2018-08-16T09:40:24.000Z</time>
      </trkpt>
      <trkpt lat="48.03107128478586673736572265625" lon="9.298254735767841339111328125">
        <ele>566.79998779296875</ele>
        <time>2018-08-16T09:40:25.000Z</time>
      </trkpt>
      <trkpt lat="48.031171448528766632080078125" lon="9.29830058477818965911865234375">
        <ele>566.79998779296875</ele>
        <time>2018-08-16T09:40:27.000Z</time>
      </trkpt>
      <trkpt lat="48.03122148849070072174072265625" lon="9.2983229644596576690673828125">
        <ele>566.79998779296875</ele>
        <time>2018-08-16T09:40:28.000Z</time>
      </trkpt>
      <trkpt lat="48.03132173605263233184814453125" lon="9.29836797527968883514404296875">
        <ele>566.79998779296875</ele>
        <time>2018-08-16T09:40:30.000Z</time>
      </trkpt>
      <trkpt lat="48.031420893967151641845703125" lon="9.2984077893197536468505859375">
        <ele>566.79998779296875</ele>
        <time>2018-08-16T09:40:32.000Z</time>
      </trkpt>
      <trkpt lat="48.0315172858536243438720703125" lon="9.298447854816913604736328125">
        <ele>566.79998779296875</ele>
        <time>2018-08-16T09:40:34.000Z</time>
      </trkpt>
      <trkpt lat="48.03156548179686069488525390625" lon="9.29846688173711299896240234375">
        <ele>566.5999755859375</ele>
        <time>2018-08-16T09:40:35.000Z</time>
      </trkpt>
      <trkpt lat="48.0316604487597942352294921875" lon="9.29849873296916484832763671875">
        <ele>566.5999755859375</ele>
        <time>2018-08-16T09:40:37.000Z</time>
      </trkpt>
      <trkpt lat="48.0317067168653011322021484375" lon="9.2985184304416179656982421875">
        <ele>566.5999755859375</ele>
        <time>2018-08-16T09:40:38.000Z</time>
      </trkpt>
      <trkpt lat="48.03180118091404438018798828125" lon="9.29856310598552227020263671875">
        <ele>566.4000244140625</ele>
        <time>2018-08-16T09:40:40.000Z</time>
      </trkpt>
      <trkpt lat="48.03184962831437587738037109375" lon="9.29858070798218250274658203125">
        <ele>566.4000244140625</ele>
        <time>2018-08-16T09:40:41.000Z</time>
      </trkpt>
      <trkpt lat="48.03210259415209293365478515625" lon="9.29864625446498394012451171875">
        <ele>566.4000244140625</ele>
        <time>2018-08-16T09:40:46.000Z</time>
      </trkpt>
      <trkpt lat="48.03225514478981494903564453125" lon="9.29865815676748752593994140625">
        <ele>566.4000244140625</ele>
        <time>2018-08-16T09:40:49.000Z</time>
      </trkpt>
      <trkpt lat="48.032335527241230010986328125" lon="9.298687241971492767333984375">
        <ele>566.4000244140625</ele>
        <time>2018-08-16T09:40:51.000Z</time>
      </trkpt>
      <trkpt lat="48.03237785585224628448486328125" lon="9.298701323568820953369140625">
        <ele>566.4000244140625</ele>
        <time>2018-08-16T09:40:52.000Z</time>
      </trkpt>
      <trkpt lat="48.0325093679130077362060546875" lon="9.29872772656381130218505859375">
        <ele>566.20001220703125</ele>
        <time>2018-08-16T09:40:55.000Z</time>
      </trkpt>
      <trkpt lat="48.032562173902988433837890625" lon="9.29881255142390727996826171875">
        <ele>566.20001220703125</ele>
        <time>2018-08-16T09:40:57.000Z</time>
      </trkpt>
      <trkpt lat="48.032595030963420867919921875" lon="9.2988617531955242156982421875">
        <ele>566.20001220703125</ele>
        <time>2018-08-16T09:40:58.000Z</time>
      </trkpt>
      <trkpt lat="48.03263668902218341827392578125" lon="9.29890324361622333526611328125">
        <ele>566.20001220703125</ele>
        <time>2018-08-16T09:40:59.000Z</time>
      </trkpt>
      <trkpt lat="48.0327219329774379730224609375" lon="9.29903031326830387115478515625">
        <ele>566.20001220703125</ele>
        <time>2018-08-16T09:41:01.000Z</time>
      </trkpt>
      <trkpt lat="48.0327769182622432708740234375" lon="9.29909753613173961639404296875">
        <ele>566.20001220703125</ele>
        <time>2018-08-16T09:41:02.000Z</time>
      </trkpt>
      <trkpt lat="48.03317346610128879547119140625" lon="9.29926584474742412567138671875">
        <ele>565.5999755859375</ele>
        <time>2018-08-16T09:41:08.000Z</time>
      </trkpt>
      <trkpt lat="48.033309839665889739990234375" lon="9.29931848309934139251708984375">
        <ele>565</ele>
        <time>2018-08-16T09:41:10.000Z</time>
      </trkpt>
      <trkpt lat="48.03358183242380619049072265625" lon="9.2994333989918231964111328125">
        <ele>564.4000244140625</ele>
        <time>2018-08-16T09:41:14.000Z</time>
      </trkpt>
      <trkpt lat="48.0337170325219631195068359375" lon="9.29950204677879810333251953125">
        <ele>564.4000244140625</ele>
        <time>2018-08-16T09:41:16.000Z</time>
      </trkpt>
      <trkpt lat="48.0339205451309680938720703125" lon="9.29962844587862491607666015625">
        <ele>564.20001220703125</ele>
        <time>2018-08-16T09:41:19.000Z</time>
      </trkpt>
      <trkpt lat="48.034117519855499267578125" lon="9.2997872829437255859375">
        <ele>564.20001220703125</ele>
        <time>2018-08-16T09:41:22.000Z</time>
      </trkpt>
      <trkpt lat="48.03458615206182003021240234375" lon="9.300343506038188934326171875">
        <ele>564</ele>
        <time>2018-08-16T09:41:30.000Z</time>
      </trkpt>
      <trkpt lat="48.03504313342273235321044921875" lon="9.30092864669859409332275390625">
        <ele>563.79998779296875</ele>
        <time>2018-08-16T09:41:38.000Z</time>
      </trkpt>
      <trkpt lat="48.03520590998232364654541015625" lon="9.30115495808422565460205078125">
        <ele>563.4000244140625</ele>
        <time>2018-08-16T09:41:41.000Z</time>
      </trkpt>
      <trkpt lat="48.0353545211255550384521484375" lon="9.30137221701443195343017578125">
        <ele>563.4000244140625</ele>
        <time>2018-08-16T09:41:44.000Z</time>
      </trkpt>
      <trkpt lat="48.03545367904007434844970703125" lon="9.301511608064174652099609375">
        <ele>563.20001220703125</ele>
        <time>2018-08-16T09:41:46.000Z</time>
      </trkpt>
      <trkpt lat="48.0355523340404033660888671875" lon="9.3016539327800273895263671875">
        <ele>563</ele>
        <time>2018-08-16T09:41:48.000Z</time>
      </trkpt>
      <trkpt lat="48.03564864210784435272216796875" lon="9.30180321447551250457763671875">
        <ele>562.79998779296875</ele>
        <time>2018-08-16T09:41:50.000Z</time>
      </trkpt>
      <trkpt lat="48.0359315313398838043212890625" lon="9.30230109952390193939208984375">
        <ele>562.4000244140625</ele>
        <time>2018-08-16T09:41:56.000Z</time>
      </trkpt>
      <trkpt lat="48.03603152744472026824951171875" lon="9.3024706654250621795654296875">
        <ele>562.20001220703125</ele>
        <time>2018-08-16T09:41:58.000Z</time>
      </trkpt>
      <trkpt lat="48.03637200035154819488525390625" lon="9.30310643278062343597412109375">
        <ele>562</ele>
        <time>2018-08-16T09:42:05.000Z</time>
      </trkpt>
      <trkpt lat="48.03651181049644947052001953125" lon="9.3033899925649166107177734375">
        <ele>562</ele>
        <time>2018-08-16T09:42:08.000Z</time>
      </trkpt>
      <trkpt lat="48.0368280597031116485595703125" lon="9.30405828170478343963623046875">
        <ele>561.79998779296875</ele>
        <time>2018-08-16T09:42:15.000Z</time>
      </trkpt>
      <trkpt lat="48.03691984154284000396728515625" lon="9.3042496405541896820068359375">
        <ele>561.79998779296875</ele>
        <time>2018-08-16T09:42:17.000Z</time>
      </trkpt>
      <trkpt lat="48.037109859287738800048828125" lon="9.3046311847865581512451171875">
        <ele>561.79998779296875</ele>
        <time>2018-08-16T09:42:21.000Z</time>
      </trkpt>
      <trkpt lat="48.0373474024236202239990234375" lon="9.30509579367935657501220703125">
        <ele>561.79998779296875</ele>
        <time>2018-08-16T09:42:26.000Z</time>
      </trkpt>
      <trkpt lat="48.03767639212310314178466796875" lon="9.30574840866029262542724609375">
        <ele>561.5999755859375</ele>
        <time>2018-08-16T09:42:33.000Z</time>
      </trkpt>
      <trkpt lat="48.038015775382518768310546875" lon="9.30641728453338146209716796875">
        <ele>561.5999755859375</ele>
        <time>2018-08-16T09:42:40.000Z</time>
      </trkpt>
      <trkpt lat="48.0383098125457763671875" lon="9.3070160038769245147705078125">
        <ele>561.4000244140625</ele>
        <time>2018-08-16T09:42:46.000Z</time>
      </trkpt>
      <trkpt lat="48.03855095990002155303955078125" lon="9.30752973072230815887451171875">
        <ele>561.20001220703125</ele>
        <time>2018-08-16T09:42:51.000Z</time>
      </trkpt>
      <trkpt lat="48.038838542997837066650390625" lon="9.30815066210925579071044921875">
        <ele>561.20001220703125</ele>
        <time>2018-08-16T09:42:57.000Z</time>
      </trkpt>
      <trkpt lat="48.038983047008514404296875" lon="9.308458864688873291015625">
        <ele>561.4000244140625</ele>
        <time>2018-08-16T09:43:00.000Z</time>
      </trkpt>
      <trkpt lat="48.039312623441219329833984375" lon="9.30917962454259395599365234375">
        <ele>561.20001220703125</ele>
        <time>2018-08-16T09:43:07.000Z</time>
      </trkpt>
      <trkpt lat="48.03956986404955387115478515625" lon="9.30995914153754711151123046875">
        <ele>561</ele>
        <time>2018-08-16T09:43:14.000Z</time>
      </trkpt>
      <trkpt lat="48.03965292870998382568359375" lon="9.310313276946544647216796875">
        <ele>561</ele>
        <time>2018-08-16T09:43:17.000Z</time>
      </trkpt>
      <trkpt lat="48.03970347158610820770263671875" lon="9.31054604239761829376220703125">
        <ele>561</ele>
        <time>2018-08-16T09:43:19.000Z</time>
      </trkpt>
      <trkpt lat="48.03975342772901058197021484375" lon="9.3107781372964382171630859375">
        <ele>561</ele>
        <time>2018-08-16T09:43:21.000Z</time>
      </trkpt>
      <trkpt lat="48.03991444408893585205078125" lon="9.31160467676818370819091796875">
        <ele>560.79998779296875</ele>
        <time>2018-08-16T09:43:28.000Z</time>
      </trkpt>
      <trkpt lat="48.04007696919143199920654296875" lon="9.3124110996723175048828125">
        <ele>560.5999755859375</ele>
        <time>2018-08-16T09:43:35.000Z</time>
      </trkpt>
      <trkpt lat="48.0402505584061145782470703125" lon="9.313050471246242523193359375">
        <ele>560.20001220703125</ele>
        <time>2018-08-16T09:43:41.000Z</time>
      </trkpt>
      <trkpt lat="48.0403839983046054840087890625" lon="9.3134851567447185516357421875">
        <ele>560.20001220703125</ele>
        <time>2018-08-16T09:43:45.000Z</time>
      </trkpt>
      <trkpt lat="48.04066412150859832763671875" lon="9.3142438866198062896728515625">
        <ele>559.5999755859375</ele>
        <time>2018-08-16T09:43:52.000Z</time>
      </trkpt>
      <trkpt lat="48.0410186760127544403076171875" lon="9.31495844386518001556396484375">
        <ele>559.20001220703125</ele>
        <time>2018-08-16T09:43:59.000Z</time>
      </trkpt>
      <trkpt lat="48.04139904677867889404296875" lon="9.31561700999736785888671875">
        <ele>559.20001220703125</ele>
        <time>2018-08-16T09:44:06.000Z</time>
      </trkpt>
      <trkpt lat="48.04178821854293346405029296875" lon="9.31625596247613430023193359375">
        <ele>559.20001220703125</ele>
        <time>2018-08-16T09:44:13.000Z</time>
      </trkpt>
      <trkpt lat="48.04201486520469188690185546875" lon="9.3166328966617584228515625">
        <ele>559</ele>
        <time>2018-08-16T09:44:17.000Z</time>
      </trkpt>
      <trkpt lat="48.0424127541482448577880859375" lon="9.31730587966740131378173828125">
        <ele>558.79998779296875</ele>
        <time>2018-08-16T09:44:24.000Z</time>
      </trkpt>
      <trkpt lat="48.0425213836133480072021484375" lon="9.31750503368675708770751953125">
        <ele>558.79998779296875</ele>
        <time>2018-08-16T09:44:26.000Z</time>
      </trkpt>
      <trkpt lat="48.04283536970615386962890625" lon="9.3181005679070949554443359375">
        <ele>558.5999755859375</ele>
        <time>2018-08-16T09:44:32.000Z</time>
      </trkpt>
      <trkpt lat="48.043175674974918365478515625" lon="9.3188130296766757965087890625">
        <ele>558.5999755859375</ele>
        <time>2018-08-16T09:44:39.000Z</time>
      </trkpt>
      <trkpt lat="48.04337189532816410064697265625" lon="9.3192287720739841461181640625">
        <ele>558.4000244140625</ele>
        <time>2018-08-16T09:44:43.000Z</time>
      </trkpt>
      <trkpt lat="48.043561913073062896728515625" lon="9.31963822804391384124755859375">
        <ele>558.20001220703125</ele>
        <time>2018-08-16T09:44:47.000Z</time>
      </trkpt>
      <trkpt lat="48.04364942014217376708984375" lon="9.3198326043784618377685546875">
        <ele>558</ele>
        <time>2018-08-16T09:44:49.000Z</time>
      </trkpt>
      <trkpt lat="48.04372586309909820556640625" lon="9.320015497505664825439453125">
        <ele>558</ele>
        <time>2018-08-16T09:44:51.000Z</time>
      </trkpt>
      <trkpt lat="48.0437622405588626861572265625" lon="9.32009973563253879547119140625">
        <ele>557.79998779296875</ele>
        <time>2018-08-16T09:44:52.000Z</time>
      </trkpt>
      <trkpt lat="48.04386441595852375030517578125" lon="9.32035974226891994476318359375">
        <ele>557.79998779296875</ele>
        <time>2018-08-16T09:44:55.000Z</time>
      </trkpt>
      <trkpt lat="48.043959550559520721435546875" lon="9.32062880136072635650634765625">
        <ele>557.79998779296875</ele>
        <time>2018-08-16T09:44:58.000Z</time>
      </trkpt>
      <trkpt lat="48.044020570814609527587890625" lon="9.32080331258475780487060546875">
        <ele>557.79998779296875</ele>
        <time>2018-08-16T09:45:00.000Z</time>
      </trkpt>
      <trkpt lat="48.0441548489034175872802734375" lon="9.3212451227009296417236328125">
        <ele>557.79998779296875</ele>
        <time>2018-08-16T09:45:05.000Z</time>
      </trkpt>
      <trkpt lat="48.0444388277828693389892578125" lon="9.32195314206182956695556640625">
        <ele>557.5999755859375</ele>
        <time>2018-08-16T09:45:13.000Z</time>
      </trkpt>
      <trkpt lat="48.0445350520312786102294921875" lon="9.3222365342080593109130859375">
        <ele>557.5999755859375</ele>
        <time>2018-08-16T09:45:16.000Z</time>
      </trkpt>
      <trkpt lat="48.04475189186632633209228515625" lon="9.3228100240230560302734375">
        <ele>557.5999755859375</ele>
        <time>2018-08-16T09:45:22.000Z</time>
      </trkpt>
      <trkpt lat="48.04479128681123256683349609375" lon="9.3229003809392452239990234375">
        <ele>557.5999755859375</ele>
        <time>2018-08-16T09:45:23.000Z</time>
      </trkpt>
      <trkpt lat="48.04500930011272430419921875" lon="9.32332433760166168212890625">
        <ele>557.5999755859375</ele>
        <time>2018-08-16T09:45:28.000Z</time>
      </trkpt>
      <trkpt lat="48.0450998246669769287109375" lon="9.32349608279764652252197265625">
        <ele>557.79998779296875</ele>
        <time>2018-08-16T09:45:30.000Z</time>
      </trkpt>
      <trkpt lat="48.04514735005795955657958984375" lon="9.32358182966709136962890625">
        <ele>557.79998779296875</ele>
        <time>2018-08-16T09:45:31.000Z</time>
      </trkpt>
      <trkpt lat="48.0452890880405902862548828125" lon="9.323832951486110687255859375">
        <ele>557.5999755859375</ele>
        <time>2018-08-16T09:45:34.000Z</time>
      </trkpt>
      <trkpt lat="48.0454231984913349151611328125" lon="9.324092455208301544189453125">
        <ele>557.4000244140625</ele>
        <time>2018-08-16T09:45:37.000Z</time>
      </trkpt>
      <trkpt lat="48.04550961591303348541259765625" lon="9.3242669664323329925537109375">
        <ele>557.5999755859375</ele>
        <time>2018-08-16T09:45:39.000Z</time>
      </trkpt>
      <trkpt lat="48.0456411279737949371337890625" lon="9.32453325949609279632568359375">
        <ele>557.4000244140625</ele>
        <time>2018-08-16T09:45:42.000Z</time>
      </trkpt>
      <trkpt lat="48.045727796852588653564453125" lon="9.32471648789942264556884765625">
        <ele>557.4000244140625</ele>
        <time>2018-08-16T09:45:44.000Z</time>
      </trkpt>
      <trkpt lat="48.04598386399447917938232421875" lon="9.32527757249772548675537109375">
        <ele>557.20001220703125</ele>
        <time>2018-08-16T09:45:50.000Z</time>
      </trkpt>
      <trkpt lat="48.04615460336208343505859375" lon="9.32568895630538463592529296875">
        <ele>557.20001220703125</ele>
        <time>2018-08-16T09:45:55.000Z</time>
      </trkpt>
      <trkpt lat="48.0462043918669223785400390625" lon="9.32582289911806583404541015625">
        <ele>557.20001220703125</ele>
        <time>2018-08-16T09:45:57.000Z</time>
      </trkpt>
      <trkpt lat="48.0464462935924530029296875" lon="9.32634852826595306396484375">
        <ele>557</ele>
        <time>2018-08-16T09:46:10.000Z</time>
      </trkpt>
      <trkpt lat="48.04651745595037937164306640625" lon="9.326457493007183074951171875">
        <ele>557</ele>
        <time>2018-08-16T09:46:13.000Z</time>
      </trkpt>
      <trkpt lat="48.046584762632846832275390625" lon="9.32657157070934772491455078125">
        <ele>557</ele>
        <time>2018-08-16T09:46:16.000Z</time>
      </trkpt>
      <trkpt lat="48.0466311983764171600341796875" lon="9.3266179226338863372802734375">
        <ele>557</ele>
        <time>2018-08-16T09:46:18.000Z</time>
      </trkpt>
      <trkpt lat="48.0466566793620586395263671875" lon="9.32661809027194976806640625">
        <ele>557</ele>
        <time>2018-08-16T09:46:19.000Z</time>
      </trkpt>
      <trkpt lat="48.0467227287590503692626953125" lon="9.32650434784591197967529296875">
        <ele>557</ele>
        <time>2018-08-16T09:46:23.000Z</time>
      </trkpt>
      <trkpt lat="48.04671895690262317657470703125" lon="9.32646646164357662200927734375">
        <ele>557</ele>
        <time>2018-08-16T09:46:24.000Z</time>
      </trkpt>
      <trkpt lat="48.04666564799845218658447265625" lon="9.32626814581453800201416015625">
        <ele>557</ele>
        <time>2018-08-16T09:46:29.000Z</time>
      </trkpt>
      <trkpt lat="48.0466493032872676849365234375" lon="9.32618835009634494781494140625">
        <ele>557.20001220703125</ele>
        <time>2018-08-16T09:46:31.000Z</time>
      </trkpt>
      <trkpt lat="48.046649135649204254150390625" lon="9.326148368418216705322265625">
        <ele>557.20001220703125</ele>
        <time>2018-08-16T09:46:32.000Z</time>
      </trkpt>
      <trkpt lat="48.04665609262883663177490234375" lon="9.326074607670307159423828125">
        <ele>557.20001220703125</ele>
        <time>2018-08-16T09:46:34.000Z</time>
      </trkpt>
      <trkpt lat="48.04666447453200817108154296875" lon="9.32604736648499965667724609375">
        <ele>557.20001220703125</ele>
        <time>2018-08-16T09:46:35.000Z</time>
      </trkpt>
      <trkpt lat="48.04669615812599658966064453125" lon="9.32604233734309673309326171875">
        <ele>557.4000244140625</ele>
        <time>2018-08-16T09:46:38.000Z</time>
      </trkpt>
      <trkpt lat="48.04669615812599658966064453125" lon="9.3260385654866695404052734375">
        <ele>557.4000244140625</ele>
        <time>2018-08-16T09:46:39.000Z</time>
      </trkpt>
      <trkpt lat="48.04669464938342571258544921875" lon="9.3260328657925128936767578125">
        <ele>557.4000244140625</ele>
        <time>2018-08-16T09:46:40.000Z</time>
      </trkpt>
      <trkpt lat="48.0467069707810878753662109375" lon="9.3262571655213832855224609375">
        <ele>560</ele>
        <time>2018-08-16T10:24:43.000Z</time>
      </trkpt>
      <trkpt lat="48.046706132590770721435546875" lon="9.3263076245784759521484375">
        <ele>560</ele>
        <time>2018-08-16T10:24:45.000Z</time>
      </trkpt>
      <trkpt lat="48.04671728052198886871337890625" lon="9.32637291960418224334716796875">
        <ele>560</ele>
        <time>2018-08-16T10:24:48.000Z</time>
      </trkpt>
      <trkpt lat="48.04672884754836559295654296875" lon="9.3263996578752994537353515625">
        <ele>560</ele>
        <time>2018-08-16T10:24:50.000Z</time>
      </trkpt>
      <trkpt lat="48.04674795828759670257568359375" lon="9.326405189931392669677734375">
        <ele>560</ele>
        <time>2018-08-16T10:24:52.000Z</time>
      </trkpt>
      <trkpt lat="48.0467612855136394500732421875" lon="9.3264056928455829620361328125">
        <ele>560</ele>
        <time>2018-08-16T10:24:54.000Z</time>
      </trkpt>
      <trkpt lat="48.04676908068358898162841796875" lon="9.326417259871959686279296875">
        <ele>560</ele>
        <time>2018-08-16T10:24:55.000Z</time>
      </trkpt>
      <trkpt lat="48.046800680458545684814453125" lon="9.32648574002087116241455078125">
        <ele>560</ele>
        <time>2018-08-16T10:24:58.000Z</time>
      </trkpt>
      <trkpt lat="48.04679296910762786865234375" lon="9.3265481851994991302490234375">
        <ele>560</ele>
        <time>2018-08-16T10:25:00.000Z</time>
      </trkpt>
      <trkpt lat="48.04679590277373790740966796875" lon="9.32657442055642604827880859375">
        <ele>560</ele>
        <time>2018-08-16T10:25:01.000Z</time>
      </trkpt>
      <trkpt lat="48.04697141982614994049072265625" lon="9.32683610357344150543212890625">
        <ele>560</ele>
        <time>2018-08-16T10:25:09.000Z</time>
      </trkpt>
      <trkpt lat="48.04700410924851894378662109375" lon="9.32686912827193737030029296875">
        <ele>560</ele>
        <time>2018-08-16T10:25:10.000Z</time>
      </trkpt>
      <trkpt lat="48.0470419116318225860595703125" lon="9.3268985487520694732666015625">
        <ele>560</ele>
        <time>2018-08-16T10:25:11.000Z</time>
      </trkpt>
      <trkpt lat="48.0470792949199676513671875" lon="9.3269325792789459228515625">
        <ele>560</ele>
        <time>2018-08-16T10:25:12.000Z</time>
      </trkpt>
      <trkpt lat="48.0474103800952434539794921875" lon="9.32722804136574268341064453125">
        <ele>560.20001220703125</ele>
        <time>2018-08-16T10:25:20.000Z</time>
      </trkpt>
      <trkpt lat="48.04761632345616817474365234375" lon="9.32748352177441120147705078125">
        <ele>560.20001220703125</ele>
        <time>2018-08-16T10:25:25.000Z</time>
      </trkpt>
      <trkpt lat="48.0477751605212688446044921875" lon="9.3276773951947689056396484375">
        <ele>559.79998779296875</ele>
        <time>2018-08-16T10:25:29.000Z</time>
      </trkpt>
      <trkpt lat="48.04781581275165081024169921875" lon="9.32772223837673664093017578125">
        <ele>559.5999755859375</ele>
        <time>2018-08-16T10:25:30.000Z</time>
      </trkpt>
      <trkpt lat="48.0478972010314464569091796875" lon="9.3278071470558643341064453125">
        <ele>559.4000244140625</ele>
        <time>2018-08-16T10:25:32.000Z</time>
      </trkpt>
      <trkpt lat="48.04797775112092494964599609375" lon="9.3279008567333221435546875">
        <ele>559.20001220703125</ele>
        <time>2018-08-16T10:25:34.000Z</time>
      </trkpt>
      <trkpt lat="48.04834554903209209442138671875" lon="9.32854332961142063140869140625">
        <ele>559.20001220703125</ele>
        <time>2018-08-16T10:25:45.000Z</time>
      </trkpt>
      <trkpt lat="48.04840900003910064697265625" lon="9.32866998016834259033203125">
        <ele>559.20001220703125</ele>
        <time>2018-08-16T10:25:47.000Z</time>
      </trkpt>
      <trkpt lat="48.048438839614391326904296875" lon="9.32873259298503398895263671875">
        <ele>559.20001220703125</ele>
        <time>2018-08-16T10:25:48.000Z</time>
      </trkpt>
      <trkpt lat="48.0484946630895137786865234375" lon="9.32885907590389251708984375">
        <ele>559</ele>
        <time>2018-08-16T10:25:50.000Z</time>
      </trkpt>
      <trkpt lat="48.04852291010320186614990234375" lon="9.32892403565347194671630859375">
        <ele>559</ele>
        <time>2018-08-16T10:25:51.000Z</time>
      </trkpt>
      <trkpt lat="48.0486555956304073333740234375" lon="9.32922209613025188446044921875">
        <ele>559</ele>
        <time>2018-08-16T10:25:56.000Z</time>
      </trkpt>
      <trkpt lat="48.0487038753926753997802734375" lon="9.32932921685278415679931640625">
        <ele>559</ele>
        <time>2018-08-16T10:25:58.000Z</time>
      </trkpt>
      <trkpt lat="48.048821054399013519287109375" lon="9.3295234255492687225341796875">
        <ele>559</ele>
        <time>2018-08-16T10:26:02.000Z</time>
      </trkpt>
      <trkpt lat="48.04888400249183177947998046875" lon="9.32959894649684429168701171875">
        <ele>558.79998779296875</ele>
        <time>2018-08-16T10:26:04.000Z</time>
      </trkpt>
      <trkpt lat="48.0490559153258800506591796875" lon="9.329788126051425933837890625">
        <ele>558.79998779296875</ele>
        <time>2018-08-16T10:26:09.000Z</time>
      </trkpt>
      <trkpt lat="48.04909204132854938507080078125" lon="9.32982525788247585296630859375">
        <ele>558.79998779296875</ele>
        <time>2018-08-16T10:26:10.000Z</time>
      </trkpt>
      <trkpt lat="48.0491263233125209808349609375" lon="9.3298633955419063568115234375">
        <ele>558.79998779296875</ele>
        <time>2018-08-16T10:26:11.000Z</time>
      </trkpt>
      <trkpt lat="48.0491581745445728302001953125" lon="9.32990170083940029144287109375">
        <ele>558.79998779296875</ele>
        <time>2018-08-16T10:26:12.000Z</time>
      </trkpt>
      <trkpt lat="48.0491893552243709564208984375" lon="9.32993858121335506439208984375">
        <ele>558.79998779296875</ele>
        <time>2018-08-16T10:26:13.000Z</time>
      </trkpt>
      <trkpt lat="48.04925716482102870941162109375" lon="9.3300099112093448638916015625">
        <ele>558.79998779296875</ele>
        <time>2018-08-16T10:26:15.000Z</time>
      </trkpt>
      <trkpt lat="48.04929220117628574371337890625" lon="9.33004469610750675201416015625">
        <ele>558.79998779296875</ele>
        <time>2018-08-16T10:26:16.000Z</time>
      </trkpt>
      <trkpt lat="48.049333356320858001708984375" lon="9.330076463520526885986328125">
        <ele>558.79998779296875</ele>
        <time>2018-08-16T10:26:17.000Z</time>
      </trkpt>
      <trkpt lat="48.04940284229815006256103515625" lon="9.33015382848680019378662109375">
        <ele>558.79998779296875</ele>
        <time>2018-08-16T10:26:19.000Z</time>
      </trkpt>
      <trkpt lat="48.04946713149547576904296875" lon="9.33023043908178806304931640625">
        <ele>558.5999755859375</ele>
        <time>2018-08-16T10:26:21.000Z</time>
      </trkpt>
      <trkpt lat="48.04954265244305133819580078125" lon="9.33030880987644195556640625">
        <ele>558.5999755859375</ele>
        <time>2018-08-16T10:26:23.000Z</time>
      </trkpt>
      <trkpt lat="48.04976225830614566802978515625" lon="9.33052799664437770843505859375">
        <ele>558.4000244140625</ele>
        <time>2018-08-16T10:26:29.000Z</time>
      </trkpt>
      <trkpt lat="48.0498719774186611175537109375" lon="9.33065087534487247467041015625">
        <ele>558.4000244140625</ele>
        <time>2018-08-16T10:26:32.000Z</time>
      </trkpt>
      <trkpt lat="48.04993241094052791595458984375" lon="9.33075807988643646240234375">
        <ele>558.4000244140625</ele>
        <time>2018-08-16T10:26:34.000Z</time>
      </trkpt>
      <trkpt lat="48.04996325634419918060302734375" lon="9.33081381954252719879150390625">
        <ele>558.4000244140625</ele>
        <time>2018-08-16T10:26:35.000Z</time>
      </trkpt>
      <trkpt lat="48.0500216782093048095703125" lon="9.33092613704502582550048828125">
        <ele>558.4000244140625</ele>
        <time>2018-08-16T10:26:37.000Z</time>
      </trkpt>
      <trkpt lat="48.05007289163768291473388671875" lon="9.3310385383665561676025390625">
        <ele>558.20001220703125</ele>
        <time>2018-08-16T10:26:39.000Z</time>
      </trkpt>
      <trkpt lat="48.0501911602914333343505859375" lon="9.33127708733081817626953125">
        <ele>558.4000244140625</ele>
        <time>2018-08-16T10:26:43.000Z</time>
      </trkpt>
      <trkpt lat="48.05025972425937652587890625" lon="9.33139652945101261138916015625">
        <ele>558.4000244140625</ele>
        <time>2018-08-16T10:26:45.000Z</time>
      </trkpt>
      <trkpt lat="48.05042174644768238067626953125" lon="9.331684112548828125">
        <ele>558.20001220703125</ele>
        <time>2018-08-16T10:26:50.000Z</time>
      </trkpt>
      <trkpt lat="48.050563819706439971923828125" lon="9.33191411197185516357421875">
        <ele>558.20001220703125</ele>
        <time>2018-08-16T10:26:54.000Z</time>
      </trkpt>
      <trkpt lat="48.050736822187900543212890625" lon="9.33218861930072307586669921875">
        <ele>558.20001220703125</ele>
        <time>2018-08-16T10:26:59.000Z</time>
      </trkpt>
      <trkpt lat="48.05087126791477203369140625" lon="9.3324091471731662750244140625">
        <ele>558.20001220703125</ele>
        <time>2018-08-16T10:27:03.000Z</time>
      </trkpt>
      <trkpt lat="48.05091041140258312225341796875" lon="9.33246321044862270355224609375">
        <ele>558.20001220703125</ele>
        <time>2018-08-16T10:27:04.000Z</time>
      </trkpt>
      <trkpt lat="48.0509492196142673492431640625" lon="9.3325201235711574554443359375">
        <ele>558.20001220703125</ele>
        <time>2018-08-16T10:27:05.000Z</time>
      </trkpt>
      <trkpt lat="48.05116019211709499359130859375" lon="9.332795552909374237060546875">
        <ele>558.20001220703125</ele>
        <time>2018-08-16T10:27:10.000Z</time>
      </trkpt>
      <trkpt lat="48.05120612494647502899169921875" lon="9.33285095728933811187744140625">
        <ele>558.20001220703125</ele>
        <time>2018-08-16T10:27:11.000Z</time>
      </trkpt>
      <trkpt lat="48.05125155486166477203369140625" lon="9.3329043500125408172607421875">
        <ele>558.20001220703125</ele>
        <time>2018-08-16T10:27:12.000Z</time>
      </trkpt>
      <trkpt lat="48.05145733058452606201171875" lon="9.3331943638622760772705078125">
        <ele>558</ele>
        <time>2018-08-16T10:27:17.000Z</time>
      </trkpt>
      <trkpt lat="48.05150167085230350494384765625" lon="9.333246834576129913330078125">
        <ele>558</ele>
        <time>2018-08-16T10:27:18.000Z</time>
      </trkpt>
      <trkpt lat="48.0515486933290958404541015625" lon="9.3332982994616031646728515625">
        <ele>558</ele>
        <time>2018-08-16T10:27:19.000Z</time>
      </trkpt>
      <trkpt lat="48.051656819880008697509765625" lon="9.33350474573671817779541015625">
        <ele>557.79998779296875</ele>
        <time>2018-08-16T10:27:22.000Z</time>
      </trkpt>
      <trkpt lat="48.051921688020229339599609375" lon="9.33410908095538616180419921875">
        <ele>557.5999755859375</ele>
        <time>2018-08-16T10:27:30.000Z</time>
      </trkpt>
      <trkpt lat="48.05225486867129802703857421875" lon="9.334756918251514434814453125">
        <ele>557.5999755859375</ele>
        <time>2018-08-16T10:27:39.000Z</time>
      </trkpt>
      <trkpt lat="48.05240674875676631927490234375" lon="9.33503997512161731719970703125">
        <ele>557.79998779296875</ele>
        <time>2018-08-16T10:27:43.000Z</time>
      </trkpt>
      <trkpt lat="48.05275619029998779296875" lon="9.33573223650455474853515625">
        <ele>557.79998779296875</ele>
        <time>2018-08-16T10:27:53.000Z</time>
      </trkpt>
      <trkpt lat="48.0528522469103336334228515625" lon="9.3359228409826755523681640625">
        <ele>557.79998779296875</ele>
        <time>2018-08-16T10:27:57.000Z</time>
      </trkpt>
      <trkpt lat="48.05287647061049938201904296875" lon="9.3359674327075481414794921875">
        <ele>557.79998779296875</ele>
        <time>2018-08-16T10:27:59.000Z</time>
      </trkpt>
      <trkpt lat="48.05288183502852916717529296875" lon="9.3359858728945255279541015625">
        <ele>557.79998779296875</ele>
        <time>2018-08-16T10:28:00.000Z</time>
      </trkpt>
      <trkpt lat="48.05288535542786121368408203125" lon="9.33603675104677677154541015625">
        <ele>557.79998779296875</ele>
        <time>2018-08-16T10:28:02.000Z</time>
      </trkpt>
      <trkpt lat="48.05290077812969684600830078125" lon="9.3361243419349193572998046875">
        <ele>557.5999755859375</ele>
        <time>2018-08-16T10:28:04.000Z</time>
      </trkpt>
      <trkpt lat="48.05291418917477130889892578125" lon="9.336176812648773193359375">
        <ele>557.5999755859375</ele>
        <time>2018-08-16T10:28:05.000Z</time>
      </trkpt>
      <trkpt lat="48.0530235730111598968505859375" lon="9.336493313312530517578125">
        <ele>557.5999755859375</ele>
        <time>2018-08-16T10:28:13.000Z</time>
      </trkpt>
      <trkpt lat="48.053040169179439544677734375" lon="9.33652709238231182098388671875">
        <ele>557.5999755859375</ele>
        <time>2018-08-16T10:28:15.000Z</time>
      </trkpt>
      <trkpt lat="48.0530550889670848846435546875" lon="9.33654167689383029937744140625">
        <ele>557.5999755859375</ele>
        <time>2018-08-16T10:28:16.000Z</time>
      </trkpt>
      <trkpt lat="48.053125999867916107177734375" lon="9.33661929331719875335693359375">
        <ele>557.5999755859375</ele>
        <time>2018-08-16T10:28:22.000Z</time>
      </trkpt>
      <trkpt lat="48.05315257050096988677978515625" lon="9.33684610761702060699462890625">
        <ele>557.5999755859375</ele>
        <time>2018-08-16T10:28:26.000Z</time>
      </trkpt>
      <trkpt lat="48.05317671038210391998291015625" lon="9.3370396457612514495849609375">
        <ele>557.79998779296875</ele>
        <time>2018-08-16T10:28:29.000Z</time>
      </trkpt>
      <trkpt lat="48.05320370011031627655029296875" lon="9.3373159132897853851318359375">
        <ele>557.79998779296875</ele>
        <time>2018-08-16T10:28:33.000Z</time>
      </trkpt>
      <trkpt lat="48.0532183684408664703369140625" lon="9.33745647780597209930419921875">
        <ele>557.79998779296875</ele>
        <time>2018-08-16T10:28:35.000Z</time>
      </trkpt>
      <trkpt lat="48.05321878753602504730224609375" lon="9.3375273048877716064453125">
        <ele>557.79998779296875</ele>
        <time>2018-08-16T10:28:36.000Z</time>
      </trkpt>
      <trkpt lat="48.05321761406958103179931640625" lon="9.33759980835020542144775390625">
        <ele>557.79998779296875</ele>
        <time>2018-08-16T10:28:37.000Z</time>
      </trkpt>
      <trkpt lat="48.05321828462183475494384765625" lon="9.33774682693183422088623046875">
        <ele>557.79998779296875</ele>
        <time>2018-08-16T10:28:39.000Z</time>
      </trkpt>
      <trkpt lat="48.05323353968560695648193359375" lon="9.33819542638957500457763671875">
        <ele>558</ele>
        <time>2018-08-16T10:28:45.000Z</time>
      </trkpt>
      <trkpt lat="48.05326891131699085235595703125" lon="9.33867705054581165313720703125">
        <ele>558.20001220703125</ele>
        <time>2018-08-16T10:28:51.000Z</time>
      </trkpt>
      <trkpt lat="48.05332548916339874267578125" lon="9.3395119719207286834716796875">
        <ele>558.4000244140625</ele>
        <time>2018-08-16T10:29:01.000Z</time>
      </trkpt>
      <trkpt lat="48.0533434264361858367919921875" lon="9.3399257026612758636474609375">
        <ele>558.20001220703125</ele>
        <time>2018-08-16T10:29:06.000Z</time>
      </trkpt>
      <trkpt lat="48.05334770120680332183837890625" lon="9.34000625275075435638427734375">
        <ele>558.20001220703125</ele>
        <time>2018-08-16T10:29:07.000Z</time>
      </trkpt>
      <trkpt lat="48.053360022604465484619140625" lon="9.3401671014726161956787109375">
        <ele>558.20001220703125</ele>
        <time>2018-08-16T10:29:09.000Z</time>
      </trkpt>
      <trkpt lat="48.05340201593935489654541015625" lon="9.34072659350931644439697265625">
        <ele>558</ele>
        <time>2018-08-16T10:29:16.000Z</time>
      </trkpt>
      <trkpt lat="48.05342179723083972930908203125" lon="9.34087327681481838226318359375">
        <ele>558</ele>
        <time>2018-08-16T10:29:18.000Z</time>
      </trkpt>
      <trkpt lat="48.0534544028341770172119140625" lon="9.3410069681704044342041015625">
        <ele>557.79998779296875</ele>
        <time>2018-08-16T10:29:20.000Z</time>
      </trkpt>
      <trkpt lat="48.053475357592105865478515625" lon="9.3410666473209857940673828125">
        <ele>557.79998779296875</ele>
        <time>2018-08-16T10:29:21.000Z</time>
      </trkpt>
      <trkpt lat="48.0535144172608852386474609375" lon="9.34118843637406826019287109375">
        <ele>557.79998779296875</ele>
        <time>2018-08-16T10:29:23.000Z</time>
      </trkpt>
      <trkpt lat="48.05353696458041667938232421875" lon="9.3412476964294910430908203125">
        <ele>557.79998779296875</ele>
        <time>2018-08-16T10:29:24.000Z</time>
      </trkpt>
      <trkpt lat="48.05356395430862903594970703125" lon="9.3413010053336620330810546875">
        <ele>557.79998779296875</ele>
        <time>2018-08-16T10:29:25.000Z</time>
      </trkpt>
      <trkpt lat="48.05359102785587310791015625" lon="9.3413536436855792999267578125">
        <ele>557.79998779296875</ele>
        <time>2018-08-16T10:29:26.000Z</time>
      </trkpt>
      <trkpt lat="48.05368247441947460174560546875" lon="9.34159152209758758544921875">
        <ele>557.79998779296875</ele>
        <time>2018-08-16T10:29:30.000Z</time>
      </trkpt>
      <trkpt lat="48.0536971427500247955322265625" lon="9.3416517041623592376708984375">
        <ele>557.79998779296875</ele>
        <time>2018-08-16T10:29:31.000Z</time>
      </trkpt>
      <trkpt lat="48.05368850938975811004638671875" lon="9.3418582342565059661865234375">
        <ele>558</ele>
        <time>2018-08-16T10:29:34.000Z</time>
      </trkpt>
      <trkpt lat="48.05368113331496715545654296875" lon="9.34193551540374755859375">
        <ele>558</ele>
        <time>2018-08-16T10:29:35.000Z</time>
      </trkpt>
      <trkpt lat="48.0536756850779056549072265625" lon="9.3420218490064144134521484375">
        <ele>558</ele>
        <time>2018-08-16T10:29:36.000Z</time>
      </trkpt>
      <trkpt lat="48.0536949634552001953125" lon="9.34250204823911190032958984375">
        <ele>557.79998779296875</ele>
        <time>2018-08-16T10:29:41.000Z</time>
      </trkpt>
      <trkpt lat="48.05370762012898921966552734375" lon="9.3426015414297580718994140625">
        <ele>557.79998779296875</ele>
        <time>2018-08-16T10:29:42.000Z</time>
      </trkpt>
      <trkpt lat="48.05373963899910449981689453125" lon="9.3427871167659759521484375">
        <ele>557.20001220703125</ele>
        <time>2018-08-16T10:29:44.000Z</time>
      </trkpt>
      <trkpt lat="48.05381658487021923065185546875" lon="9.34294662438333034515380859375">
        <ele>556.20001220703125</ele>
        <time>2018-08-16T10:29:47.000Z</time>
      </trkpt>
      <trkpt lat="48.05384374223649501800537109375" lon="9.342974536120891571044921875">
        <ele>555.79998779296875</ele>
        <time>2018-08-16T10:29:48.000Z</time>
      </trkpt>
      <trkpt lat="48.05386972613632678985595703125" lon="9.3430018611252307891845703125">
        <ele>555.4000244140625</ele>
        <time>2018-08-16T10:29:49.000Z</time>
      </trkpt>
      <trkpt lat="48.05389638058841228485107421875" lon="9.34302977286279201507568359375">
        <ele>554.79998779296875</ele>
        <time>2018-08-16T10:29:50.000Z</time>
      </trkpt>
      <trkpt lat="48.0539425648748874664306640625" lon="9.3430856801569461822509765625">
        <ele>554</ele>
        <time>2018-08-16T10:29:52.000Z</time>
      </trkpt>
      <trkpt lat="48.0539616756141185760498046875" lon="9.34311526827514171600341796875">
        <ele>553.5999755859375</ele>
        <time>2018-08-16T10:29:53.000Z</time>
      </trkpt>
      <trkpt lat="48.05401590652763843536376953125" lon="9.34319724328815937042236328125">
        <ele>552.5999755859375</ele>
        <time>2018-08-16T10:29:56.000Z</time>
      </trkpt>
      <trkpt lat="48.05403702892363071441650390625" lon="9.34321467764675617218017578125">
        <ele>552.4000244140625</ele>
        <time>2018-08-16T10:29:57.000Z</time>
      </trkpt>
      <trkpt lat="48.054067455232143402099609375" lon="9.34327083639800548553466796875">
        <ele>552</ele>
        <time>2018-08-16T10:30:00.000Z</time>
      </trkpt>
      <trkpt lat="48.0540652759373188018798828125" lon="9.343261532485485076904296875">
        <ele>552</ele>
        <time>2018-08-16T10:30:01.000Z</time>
      </trkpt>
      <trkpt lat="48.0540615878999233245849609375" lon="9.3432446010410785675048828125">
        <ele>552</ele>
        <time>2018-08-16T10:30:03.000Z</time>
      </trkpt>
      <trkpt lat="48.05405245162546634674072265625" lon="9.34322389774024486541748046875">
        <ele>552</ele>
        <time>2018-08-16T10:30:05.000Z</time>
      </trkpt>
      <trkpt lat="48.05403199978172779083251953125" lon="9.34320864267647266387939453125">
        <ele>552</ele>
        <time>2018-08-16T10:30:06.000Z</time>
      </trkpt>
      <trkpt lat="48.053985647857189178466796875" lon="9.34316170401871204376220703125">
        <ele>551.79998779296875</ele>
        <time>2018-08-16T10:30:08.000Z</time>
      </trkpt>
      <trkpt lat="48.05390694178640842437744140625" lon="9.3430875241756439208984375">
        <ele>551.79998779296875</ele>
        <time>2018-08-16T10:30:10.000Z</time>
      </trkpt>
      <trkpt lat="48.05385966785252094268798828125" lon="9.343042261898517608642578125">
        <ele>551.79998779296875</ele>
        <time>2018-08-16T10:30:11.000Z</time>
      </trkpt>
      <trkpt lat="48.0536924488842487335205078125" lon="9.34282206930220127105712890625">
        <ele>551.79998779296875</ele>
        <time>2018-08-16T10:30:16.000Z</time>
      </trkpt>
      <trkpt lat="48.05367509834468364715576171875" lon="9.34276825748383998870849609375">
        <ele>551.79998779296875</ele>
        <time>2018-08-16T10:30:17.000Z</time>
      </trkpt>
      <trkpt lat="48.0536616034805774688720703125" lon="9.34270975179970264434814453125">
        <ele>552</ele>
        <time>2018-08-16T10:30:18.000Z</time>
      </trkpt>
      <trkpt lat="48.05364995263516902923583984375" lon="9.3426541797816753387451171875">
        <ele>552</ele>
        <time>2018-08-16T10:30:19.000Z</time>
      </trkpt>
      <trkpt lat="48.05363654159009456634521484375" lon="9.3425978533923625946044921875">
        <ele>552.20001220703125</ele>
        <time>2018-08-16T10:30:20.000Z</time>
      </trkpt>
      <trkpt lat="48.0536212027072906494140625" lon="9.342490397393703460693359375">
        <ele>552.20001220703125</ele>
        <time>2018-08-16T10:30:22.000Z</time>
      </trkpt>
      <trkpt lat="48.05361558683216571807861328125" lon="9.3424355797469615936279296875">
        <ele>552.4000244140625</ele>
        <time>2018-08-16T10:30:23.000Z</time>
      </trkpt>
      <trkpt lat="48.0536076240241527557373046875" lon="9.3423842824995517730712890625">
        <ele>552.5999755859375</ele>
        <time>2018-08-16T10:30:24.000Z</time>
      </trkpt>
      <trkpt lat="48.05359446443617343902587890625" lon="9.34227104298770427703857421875">
        <ele>552.79998779296875</ele>
        <time>2018-08-16T10:30:26.000Z</time>
      </trkpt>
      <trkpt lat="48.05360988713800907135009765625" lon="9.34209200553596019744873046875">
        <ele>553.5999755859375</ele>
        <time>2018-08-16T10:30:29.000Z</time>
      </trkpt>
      <trkpt lat="48.053628243505954742431640625" lon="9.34193526394665241241455078125">
        <ele>554.4000244140625</ele>
        <time>2018-08-16T10:30:32.000Z</time>
      </trkpt>
      <trkpt lat="48.05362899787724018096923828125" lon="9.3418853916227817535400390625">
        <ele>554.79998779296875</ele>
        <time>2018-08-16T10:30:33.000Z</time>
      </trkpt>
      <trkpt lat="48.053658418357372283935546875" lon="9.34179536998271942138671875">
        <ele>555.20001220703125</ele>
        <time>2018-08-16T10:30:35.000Z</time>
      </trkpt>
      <trkpt lat="48.053696639835834503173828125" lon="9.34181724674999713897705078125">
        <ele>556</ele>
        <time>2018-08-16T10:30:38.000Z</time>
      </trkpt>
      <trkpt lat="48.05372673086822032928466796875" lon="9.34192386455833911895751953125">
        <ele>556.5999755859375</ele>
        <time>2018-08-16T10:30:41.000Z</time>
      </trkpt>
      <trkpt lat="48.05373913608491420745849609375" lon="9.3419688753783702850341796875">
        <ele>557</ele>
        <time>2018-08-16T10:30:42.000Z</time>
      </trkpt>
      <trkpt lat="48.0537782795727252960205078125" lon="9.34217582456767559051513671875">
        <ele>557.79998779296875</ele>
        <time>2018-08-16T10:30:46.000Z</time>
      </trkpt>
      <trkpt lat="48.0538114719092845916748046875" lon="9.34235787950456142425537109375">
        <ele>558</ele>
        <time>2018-08-16T10:30:49.000Z</time>
      </trkpt>
      <trkpt lat="48.053857572376728057861328125" lon="9.3427654914557933807373046875">
        <ele>558.20001220703125</ele>
        <time>2018-08-16T10:30:55.000Z</time>
      </trkpt>
      <trkpt lat="48.05388799868524074554443359375" lon="9.34316908009350299835205078125">
        <ele>558.4000244140625</ele>
        <time>2018-08-16T10:31:01.000Z</time>
      </trkpt>
      <trkpt lat="48.05389939807355403900146484375" lon="9.34329531155526638031005859375">
        <ele>558.20001220703125</ele>
        <time>2018-08-16T10:31:03.000Z</time>
      </trkpt>
      <trkpt lat="48.05390275083482265472412109375" lon="9.343421794474124908447265625">
        <ele>558.20001220703125</ele>
        <time>2018-08-16T10:31:05.000Z</time>
      </trkpt>
      <trkpt lat="48.05388514883816242218017578125" lon="9.3436325155198574066162109375">
        <ele>558.20001220703125</ele>
        <time>2018-08-16T10:31:08.000Z</time>
      </trkpt>
      <trkpt lat="48.0538812093436717987060546875" lon="9.3437807075679302215576171875">
        <ele>558.20001220703125</ele>
        <time>2018-08-16T10:31:10.000Z</time>
      </trkpt>
      <trkpt lat="48.0538852326571941375732421875" lon="9.34393283911049365997314453125">
        <ele>558</ele>
        <time>2018-08-16T10:31:12.000Z</time>
      </trkpt>
      <trkpt lat="48.053921945393085479736328125" lon="9.3444083444774150848388671875">
        <ele>557.5999755859375</ele>
        <time>2018-08-16T10:31:18.000Z</time>
      </trkpt>
      <trkpt lat="48.05393979884684085845947265625" lon="9.34457288123667240142822265625">
        <ele>557.5999755859375</ele>
        <time>2018-08-16T10:31:20.000Z</time>
      </trkpt>
      <trkpt lat="48.05396921932697296142578125" lon="9.34490849263966083526611328125">
        <ele>557.4000244140625</ele>
        <time>2018-08-16T10:31:24.000Z</time>
      </trkpt>
      <trkpt lat="48.0539747513830661773681640625" lon="9.3449974246323108673095703125">
        <ele>557.4000244140625</ele>
        <time>2018-08-16T10:31:25.000Z</time>
      </trkpt>
      <trkpt lat="48.05399009026587009429931640625" lon="9.3451734445989131927490234375">
        <ele>557.4000244140625</ele>
        <time>2018-08-16T10:31:27.000Z</time>
      </trkpt>
      <trkpt lat="48.05400283075869083404541015625" lon="9.34535139240324497222900390625">
        <ele>557.4000244140625</ele>
        <time>2018-08-16T10:31:29.000Z</time>
      </trkpt>
      <trkpt lat="48.05401909165084362030029296875" lon="9.34562145732343196868896484375">
        <ele>557.20001220703125</ele>
        <time>2018-08-16T10:31:32.000Z</time>
      </trkpt>
      <trkpt lat="48.0540226958692073822021484375" lon="9.34571282006800174713134765625">
        <ele>557.20001220703125</ele>
        <time>2018-08-16T10:31:33.000Z</time>
      </trkpt>
      <trkpt lat="48.0540508590638637542724609375" lon="9.3462721444666385650634765625">
        <ele>556.79998779296875</ele>
        <time>2018-08-16T10:31:39.000Z</time>
      </trkpt>
      <trkpt lat="48.05408413521945476531982421875" lon="9.34673557989299297332763671875">
        <ele>556.5999755859375</ele>
        <time>2018-08-16T10:31:44.000Z</time>
      </trkpt>
      <trkpt lat="48.05411464534699916839599609375" lon="9.34721267782151699066162109375">
        <ele>556.4000244140625</ele>
        <time>2018-08-16T10:31:49.000Z</time>
      </trkpt>
      <trkpt lat="48.05412822403013706207275390625" lon="9.3474077247083187103271484375">
        <ele>556</ele>
        <time>2018-08-16T10:31:51.000Z</time>
      </trkpt>
      <trkpt lat="48.0541353486478328704833984375" lon="9.34750537388026714324951171875">
        <ele>556</ele>
        <time>2018-08-16T10:31:52.000Z</time>
      </trkpt>
      <trkpt lat="48.0541495978832244873046875" lon="9.3477014265954494476318359375">
        <ele>555.79998779296875</ele>
        <time>2018-08-16T10:31:54.000Z</time>
      </trkpt>
      <trkpt lat="48.05417180992662906646728515625" lon="9.348107613623142242431640625">
        <ele>555.4000244140625</ele>
        <time>2018-08-16T10:31:58.000Z</time>
      </trkpt>
      <trkpt lat="48.05417801253497600555419921875" lon="9.348210878670215606689453125">
        <ele>555.4000244140625</ele>
        <time>2018-08-16T10:31:59.000Z</time>
      </trkpt>
      <trkpt lat="48.054191172122955322265625" lon="9.34841766022145748138427734375">
        <ele>555.4000244140625</ele>
        <time>2018-08-16T10:32:01.000Z</time>
      </trkpt>
      <trkpt lat="48.0542141385376453399658203125" lon="9.34873164631426334381103515625">
        <ele>555.20001220703125</ele>
        <time>2018-08-16T10:32:04.000Z</time>
      </trkpt>
      <trkpt lat="48.05423534475266933441162109375" lon="9.34904730878770351409912109375">
        <ele>555</ele>
        <time>2018-08-16T10:32:07.000Z</time>
      </trkpt>
      <trkpt lat="48.054273985326290130615234375" lon="9.349899329245090484619140625">
        <ele>554.79998779296875</ele>
        <time>2018-08-16T10:32:15.000Z</time>
      </trkpt>
      <trkpt lat="48.05428110994398593902587890625" lon="9.35000536032021045684814453125">
        <ele>554.79998779296875</ele>
        <time>2018-08-16T10:32:16.000Z</time>
      </trkpt>
      <trkpt lat="48.05433802306652069091796875" lon="9.35084204189479351043701171875">
        <ele>554.79998779296875</ele>
        <time>2018-08-16T10:32:24.000Z</time>
      </trkpt>
      <trkpt lat="48.0543516017496585845947265625" lon="9.3510484881699085235595703125">
        <ele>554.79998779296875</ele>
        <time>2018-08-16T10:32:26.000Z</time>
      </trkpt>
      <trkpt lat="48.05436660535633563995361328125" lon="9.35125560499727725982666015625">
        <ele>554.79998779296875</ele>
        <time>2018-08-16T10:32:28.000Z</time>
      </trkpt>
      <trkpt lat="48.0543878115713596343994140625" lon="9.35156933963298797607421875">
        <ele>554.79998779296875</ele>
        <time>2018-08-16T10:32:31.000Z</time>
      </trkpt>
      <trkpt lat="48.05441136471927165985107421875" lon="9.35188273899257183074951171875">
        <ele>554.79998779296875</ele>
        <time>2018-08-16T10:32:34.000Z</time>
      </trkpt>
      <trkpt lat="48.0544714629650115966796875" lon="9.3527030758559703826904296875">
        <ele>554.5999755859375</ele>
        <time>2018-08-16T10:32:42.000Z</time>
      </trkpt>
      <trkpt lat="48.05453290231525897979736328125" lon="9.35351922176778316497802734375">
        <ele>554.5999755859375</ele>
        <time>2018-08-16T10:32:50.000Z</time>
      </trkpt>
      <trkpt lat="48.05459660477936267852783203125" lon="9.3543683923780918121337890625">
        <ele>554.79998779296875</ele>
        <time>2018-08-16T10:32:58.000Z</time>
      </trkpt>
      <trkpt lat="48.05463901720941066741943359375" lon="9.354798384010791778564453125">
        <ele>555</ele>
        <time>2018-08-16T10:33:02.000Z</time>
      </trkpt>
      <trkpt lat="48.05473574437201023101806640625" lon="9.3556483089923858642578125">
        <ele>555.20001220703125</ele>
        <time>2018-08-16T10:33:10.000Z</time>
      </trkpt>
      <trkpt lat="48.0547814257442951202392578125" lon="9.3560591898858547210693359375">
        <ele>555.20001220703125</ele>
        <time>2018-08-16T10:33:14.000Z</time>
      </trkpt>
      <trkpt lat="48.0548159591853618621826171875" lon="9.35636320151388645172119140625">
        <ele>555.20001220703125</ele>
        <time>2018-08-16T10:33:17.000Z</time>
      </trkpt>
      <trkpt lat="48.05488075129687786102294921875" lon="9.3568608351051807403564453125">
        <ele>555.20001220703125</ele>
        <time>2018-08-16T10:33:22.000Z</time>
      </trkpt>
      <trkpt lat="48.05495099164545536041259765625" lon="9.3572557903826236724853515625">
        <ele>555.20001220703125</ele>
        <time>2018-08-16T10:33:26.000Z</time>
      </trkpt>
      <trkpt lat="48.05506892502307891845703125" lon="9.35804746113717555999755859375">
        <ele>555.20001220703125</ele>
        <time>2018-08-16T10:33:34.000Z</time>
      </trkpt>
      <trkpt lat="48.05513656698167324066162109375" lon="9.3584983237087726593017578125">
        <ele>555.20001220703125</ele>
        <time>2018-08-16T10:33:39.000Z</time>
      </trkpt>
      <trkpt lat="48.0551861040294170379638671875" lon="9.35874148271977901458740234375">
        <ele>555</ele>
        <time>2018-08-16T10:33:42.000Z</time>
      </trkpt>
      <trkpt lat="48.05522943846881389617919921875" lon="9.35887089930474758148193359375">
        <ele>554.79998779296875</ele>
        <time>2018-08-16T10:33:44.000Z</time>
      </trkpt>
      <trkpt lat="48.05524863302707672119140625" lon="9.358944408595561981201171875">
        <ele>554.79998779296875</ele>
        <time>2018-08-16T10:33:46.000Z</time>
      </trkpt>
      <trkpt lat="48.05525190196931362152099609375" lon="9.35895807109773159027099609375">
        <ele>554.5999755859375</ele>
        <time>2018-08-16T10:33:48.000Z</time>
      </trkpt>
      <trkpt lat="48.05523664690554141998291015625" lon="9.35899444855749607086181640625">
        <ele>554.5999755859375</ele>
        <time>2018-08-16T10:34:36.000Z</time>
      </trkpt>
      <trkpt lat="48.05523698218166828155517578125" lon="9.35902244411408901214599609375">
        <ele>554.5999755859375</ele>
        <time>2018-08-16T10:34:37.000Z</time>
      </trkpt>
      <trkpt lat="48.05525626055896282196044921875" lon="9.359120428562164306640625">
        <ele>554.79998779296875</ele>
        <time>2018-08-16T10:34:40.000Z</time>
      </trkpt>
      <trkpt lat="48.0552799813449382781982421875" lon="9.35930139385163784027099609375">
        <ele>554.79998779296875</ele>
        <time>2018-08-16T10:34:44.000Z</time>
      </trkpt>
      <trkpt lat="48.05530806072056293487548828125" lon="9.3594957701861858367919921875">
        <ele>554.5999755859375</ele>
        <time>2018-08-16T10:34:47.000Z</time>
      </trkpt>
      <trkpt lat="48.055328093469142913818359375" lon="9.359647817909717559814453125">
        <ele>554.5999755859375</ele>
        <time>2018-08-16T10:34:49.000Z</time>
      </trkpt>
      <trkpt lat="48.0554617010056972503662109375" lon="9.360453151166439056396484375">
        <ele>554.5999755859375</ele>
        <time>2018-08-16T10:34:58.000Z</time>
      </trkpt>
      <trkpt lat="48.05555297993123531341552734375" lon="9.36092354357242584228515625">
        <ele>554.5999755859375</ele>
        <time>2018-08-16T10:35:03.000Z</time>
      </trkpt>
      <trkpt lat="48.05561282671988010406494140625" lon="9.36130844056606292724609375">
        <ele>554.5999755859375</ele>
        <time>2018-08-16T10:35:07.000Z</time>
      </trkpt>
      <trkpt lat="48.055687509477138519287109375" lon="9.3618014641106128692626953125">
        <ele>554.20001220703125</ele>
        <time>2018-08-16T10:35:12.000Z</time>
      </trkpt>
      <trkpt lat="48.05576571263372898101806640625" lon="9.3623201362788677215576171875">
        <ele>554.20001220703125</ele>
        <time>2018-08-16T10:35:17.000Z</time>
      </trkpt>
      <trkpt lat="48.055834360420703887939453125" lon="9.36275440268218517303466796875">
        <ele>554</ele>
        <time>2018-08-16T10:35:21.000Z</time>
      </trkpt>
      <trkpt lat="48.05591650307178497314453125" lon="9.36330710537731647491455078125">
        <ele>554</ele>
        <time>2018-08-16T10:35:26.000Z</time>
      </trkpt>
      <trkpt lat="48.05597794242203235626220703125" lon="9.36374363489449024200439453125">
        <ele>554</ele>
        <time>2018-08-16T10:35:30.000Z</time>
      </trkpt>
      <trkpt lat="48.05602203123271465301513671875" lon="9.364059381186962127685546875">
        <ele>553.79998779296875</ele>
        <time>2018-08-16T10:35:33.000Z</time>
      </trkpt>
      <trkpt lat="48.05605203844606876373291015625" lon="9.3642637319862842559814453125">
        <ele>553.79998779296875</ele>
        <time>2018-08-16T10:35:35.000Z</time>
      </trkpt>
      <trkpt lat="48.05606930516660213470458984375" lon="9.36436456628143787384033203125">
        <ele>553.79998779296875</ele>
        <time>2018-08-16T10:35:36.000Z</time>
      </trkpt>
      <trkpt lat="48.0561734922230243682861328125" lon="9.36511047184467315673828125">
        <ele>553.5999755859375</ele>
        <time>2018-08-16T10:35:43.000Z</time>
      </trkpt>
      <trkpt lat="48.05621691048145294189453125" lon="9.36544398777186870574951171875">
        <ele>553.4000244140625</ele>
        <time>2018-08-16T10:35:46.000Z</time>
      </trkpt>
      <trkpt lat="48.0563112907111644744873046875" lon="9.36610012315213680267333984375">
        <ele>553</ele>
        <time>2018-08-16T10:35:52.000Z</time>
      </trkpt>
      <trkpt lat="48.0563877336680889129638671875" lon="9.36664201319217681884765625">
        <ele>552.79998779296875</ele>
        <time>2018-08-16T10:35:57.000Z</time>
      </trkpt>
      <trkpt lat="48.056402988731861114501953125" lon="9.36675240285694599151611328125">
        <ele>552.79998779296875</ele>
        <time>2018-08-16T10:35:58.000Z</time>
      </trkpt>
      <trkpt lat="48.0564795993268489837646484375" lon="9.36729990877211093902587890625">
        <ele>552.5999755859375</ele>
        <time>2018-08-16T10:36:03.000Z</time>
      </trkpt>
      <trkpt lat="48.05649845860898494720458984375" lon="9.36740778386592864990234375">
        <ele>552.5999755859375</ele>
        <time>2018-08-16T10:36:04.000Z</time>
      </trkpt>
      <trkpt lat="48.05657372809946537017822265625" lon="9.36794833280146121978759765625">
        <ele>552.5999755859375</ele>
        <time>2018-08-16T10:36:09.000Z</time>
      </trkpt>
      <trkpt lat="48.05664262734353542327880859375" lon="9.36836675740778446197509765625">
        <ele>552.5999755859375</ele>
        <time>2018-08-16T10:36:13.000Z</time>
      </trkpt>
      <trkpt lat="48.056701719760894775390625" lon="9.36878199689090251922607421875">
        <ele>552.4000244140625</ele>
        <time>2018-08-16T10:36:17.000Z</time>
      </trkpt>
      <trkpt lat="48.0568302981555461883544921875" lon="9.36962060630321502685546875">
        <ele>552.20001220703125</ele>
        <time>2018-08-16T10:36:25.000Z</time>
      </trkpt>
      <trkpt lat="48.05687681771814823150634765625" lon="9.3699342571198940277099609375">
        <ele>552.20001220703125</ele>
        <time>2018-08-16T10:36:28.000Z</time>
      </trkpt>
      <trkpt lat="48.05701025761663913726806640625" lon="9.3707835115492343902587890625">
        <ele>552.20001220703125</ele>
        <time>2018-08-16T10:36:36.000Z</time>
      </trkpt>
      <trkpt lat="48.05706071667373180389404296875" lon="9.3711026944220066070556640625">
        <ele>552.20001220703125</ele>
        <time>2018-08-16T10:36:39.000Z</time>
      </trkpt>
      <trkpt lat="48.05715442635118961334228515625" lon="9.371743239462375640869140625">
        <ele>551.79998779296875</ele>
        <time>2018-08-16T10:36:45.000Z</time>
      </trkpt>
      <trkpt lat="48.05717043578624725341796875" lon="9.3718533776700496673583984375">
        <ele>551.79998779296875</ele>
        <time>2018-08-16T10:36:46.000Z</time>
      </trkpt>
      <trkpt lat="48.057220391929149627685546875" lon="9.3721846304833889007568359375">
        <ele>551.5999755859375</ele>
        <time>2018-08-16T10:36:49.000Z</time>
      </trkpt>
      <trkpt lat="48.057362549006938934326171875" lon="9.37307856045663356781005859375">
        <ele>551.79998779296875</ele>
        <time>2018-08-16T10:36:57.000Z</time>
      </trkpt>
      <trkpt lat="48.05747478269040584564208984375" lon="9.37388598918914794921875">
        <ele>551.5999755859375</ele>
        <time>2018-08-16T10:37:04.000Z</time>
      </trkpt>
      <trkpt lat="48.05760872550308704376220703125" lon="9.37477254308760166168212890625">
        <ele>551.20001220703125</ele>
        <time>2018-08-16T10:37:12.000Z</time>
      </trkpt>
      <trkpt lat="48.05770847015082836151123046875" lon="9.3754160217940807342529296875">
        <ele>551</ele>
        <time>2018-08-16T10:37:18.000Z</time>
      </trkpt>
      <trkpt lat="48.05783285759389400482177734375" lon="9.37627005390822887420654296875">
        <ele>551</ele>
        <time>2018-08-16T10:37:26.000Z</time>
      </trkpt>
      <trkpt lat="48.05789572186768054962158203125" lon="9.3766853772103786468505859375">
        <ele>551</ele>
        <time>2018-08-16T10:37:30.000Z</time>
      </trkpt>
      <trkpt lat="48.0579256452620029449462890625" lon="9.3768919073045253753662109375">
        <ele>551</ele>
        <time>2018-08-16T10:37:32.000Z</time>
      </trkpt>
      <trkpt lat="48.05805020034313201904296875" lon="9.377725906670093536376953125">
        <ele>550.4000244140625</ele>
        <time>2018-08-16T10:37:40.000Z</time>
      </trkpt>
      <trkpt lat="48.05817014537751674652099609375" lon="9.37854766845703125">
        <ele>550.20001220703125</ele>
        <time>2018-08-16T10:37:48.000Z</time>
      </trkpt>
      <trkpt lat="48.05826569907367229461669921875" lon="9.379157535731792449951171875">
        <ele>550</ele>
        <time>2018-08-16T10:37:54.000Z</time>
      </trkpt>
      <trkpt lat="48.058326132595539093017578125" lon="9.37957470305263996124267578125">
        <ele>550</ele>
        <time>2018-08-16T10:37:58.000Z</time>
      </trkpt>
      <trkpt lat="48.05835655890405178070068359375" lon="9.3797803111374378204345703125">
        <ele>550</ele>
        <time>2018-08-16T10:38:00.000Z</time>
      </trkpt>
      <trkpt lat="48.0584652721881866455078125" lon="9.38050492666661739349365234375">
        <ele>550.20001220703125</ele>
        <time>2018-08-16T10:38:07.000Z</time>
      </trkpt>
      <trkpt lat="48.058531321585178375244140625" lon="9.38091379590332508087158203125">
        <ele>550.20001220703125</ele>
        <time>2018-08-16T10:38:11.000Z</time>
      </trkpt>
      <trkpt lat="48.05855856277048587799072265625" lon="9.38111462630331516265869140625">
        <ele>550.5999755859375</ele>
        <time>2018-08-16T10:38:13.000Z</time>
      </trkpt>
      <trkpt lat="48.058585636317729949951171875" lon="9.3813145346939563751220703125">
        <ele>550.5999755859375</ele>
        <time>2018-08-16T10:38:15.000Z</time>
      </trkpt>
      <trkpt lat="48.05859602987766265869140625" lon="9.38141520135104656219482421875">
        <ele>550.5999755859375</ele>
        <time>2018-08-16T10:38:16.000Z</time>
      </trkpt>
      <trkpt lat="48.05857398547232151031494140625" lon="9.3816122598946094512939453125">
        <ele>550.5999755859375</ele>
        <time>2018-08-16T10:38:18.000Z</time>
      </trkpt>
      <trkpt lat="48.05851212702691555023193359375" lon="9.38179540447890758514404296875">
        <ele>550.5999755859375</ele>
        <time>2018-08-16T10:38:20.000Z</time>
      </trkpt>
      <trkpt lat="48.05877481587231159210205078125" lon="9.382125400006771087646484375">
        <ele>550.5999755859375</ele>
        <time>2018-08-16T10:38:27.000Z</time>
      </trkpt>
      <trkpt lat="48.05890942923724651336669921875" lon="9.3821185268461704254150390625">
        <ele>550.79998779296875</ele>
        <time>2018-08-16T10:38:29.000Z</time>
      </trkpt>
      <trkpt lat="48.0591158755123615264892578125" lon="9.3821212090551853179931640625">
        <ele>551</ele>
        <time>2018-08-16T10:38:32.000Z</time>
      </trkpt>
      <trkpt lat="48.0591859482228755950927734375" lon="9.3821349553763866424560546875">
        <ele>551</ele>
        <time>2018-08-16T10:38:33.000Z</time>
      </trkpt>
      <trkpt lat="48.05944017134606838226318359375" lon="9.38254751265048980712890625">
        <ele>551</ele>
        <time>2018-08-16T10:38:38.000Z</time>
      </trkpt>
      <trkpt lat="48.05951611138880252838134765625" lon="9.38290516845881938934326171875">
        <ele>551</ele>
        <time>2018-08-16T10:38:41.000Z</time>
      </trkpt>
      <trkpt lat="48.05955500341951847076416015625" lon="9.38314690254628658294677734375">
        <ele>550.79998779296875</ele>
        <time>2018-08-16T10:38:43.000Z</time>
      </trkpt>
      <trkpt lat="48.05965206585824489593505859375" lon="9.38373506069183349609375">
        <ele>550</ele>
        <time>2018-08-16T10:38:48.000Z</time>
      </trkpt>
      <trkpt lat="48.05970688350498676300048828125" lon="9.384069330990314483642578125">
        <ele>549</ele>
        <time>2018-08-16T10:38:51.000Z</time>
      </trkpt>
      <trkpt lat="48.0597247369587421417236328125" lon="9.38417653553187847137451171875">
        <ele>549</ele>
        <time>2018-08-16T10:38:52.000Z</time>
      </trkpt>
      <trkpt lat="48.05976153351366519927978515625" lon="9.38437920995056629180908203125">
        <ele>548.79998779296875</ele>
        <time>2018-08-16T10:38:54.000Z</time>
      </trkpt>
      <trkpt lat="48.05987485684454441070556640625" lon="9.38492738641798496246337890625">
        <ele>548.79998779296875</ele>
        <time>2018-08-16T10:39:00.000Z</time>
      </trkpt>
      <trkpt lat="48.0599285848438739776611328125" lon="9.3851484172046184539794921875">
        <ele>548.79998779296875</ele>
        <time>2018-08-16T10:39:03.000Z</time>
      </trkpt>
      <trkpt lat="48.05999119766056537628173828125" lon="9.3854397721588611602783203125">
        <ele>549.4000244140625</ele>
        <time>2018-08-16T10:39:07.000Z</time>
      </trkpt>
      <trkpt lat="48.060038723051548004150390625" lon="9.3856962583959102630615234375">
        <ele>549.5999755859375</ele>
        <time>2018-08-16T10:39:10.000Z</time>
      </trkpt>
      <trkpt lat="48.06007635779678821563720703125" lon="9.3858930654823780059814453125">
        <ele>550</ele>
        <time>2018-08-16T10:39:12.000Z</time>
      </trkpt>
      <trkpt lat="48.06010083295404911041259765625" lon="9.3859966658055782318115234375">
        <ele>549.79998779296875</ele>
        <time>2018-08-16T10:39:13.000Z</time>
      </trkpt>
      <trkpt lat="48.0601525492966175079345703125" lon="9.386205710470676422119140625">
        <ele>550</ele>
        <time>2018-08-16T10:39:15.000Z</time>
      </trkpt>
      <trkpt lat="48.0602900125086307525634765625" lon="9.38673703931272029876708984375">
        <ele>550</ele>
        <time>2018-08-16T10:39:20.000Z</time>
      </trkpt>
      <trkpt lat="48.06034642271697521209716796875" lon="9.38694826327264308929443359375">
        <ele>550</ele>
        <time>2018-08-16T10:39:22.000Z</time>
      </trkpt>
      <trkpt lat="48.060428313910961151123046875" lon="9.38725881278514862060546875">
        <ele>549.5999755859375</ele>
        <time>2018-08-16T10:39:25.000Z</time>
      </trkpt>
      <trkpt lat="48.06065596640110015869140625" lon="9.388094656169414520263671875">
        <ele>549.5999755859375</ele>
        <time>2018-08-16T10:39:33.000Z</time>
      </trkpt>
      <trkpt lat="48.06087196804583072662353515625" lon="9.38891683705151081085205078125">
        <ele>549.20001220703125</ele>
        <time>2018-08-16T10:39:41.000Z</time>
      </trkpt>
      <trkpt lat="48.06108235381543636322021484375" lon="9.38971043564379215240478515625">
        <ele>548.79998779296875</ele>
        <time>2018-08-16T10:39:49.000Z</time>
      </trkpt>
      <trkpt lat="48.0611603893339633941650390625" lon="9.39000765793025493621826171875">
        <ele>548.5999755859375</ele>
        <time>2018-08-16T10:39:52.000Z</time>
      </trkpt>
      <trkpt lat="48.06124680675566196441650390625" lon="9.39030203036963939666748046875">
        <ele>548.5999755859375</ele>
        <time>2018-08-16T10:39:55.000Z</time>
      </trkpt>
      <trkpt lat="48.0613947473466396331787109375" lon="9.39078331924974918365478515625">
        <ele>548.5999755859375</ele>
        <time>2018-08-16T10:40:00.000Z</time>
      </trkpt>
      <trkpt lat="48.0615154467523097991943359375" lon="9.39116545021533966064453125">
        <ele>548.79998779296875</ele>
        <time>2018-08-16T10:40:04.000Z</time>
      </trkpt>
      <trkpt lat="48.06157805956900119781494140625" lon="9.39135345630347728729248046875">
        <ele>549</ele>
        <time>2018-08-16T10:40:06.000Z</time>
      </trkpt>
      <trkpt lat="48.06166942231357097625732421875" lon="9.39163307659327983856201171875">
        <ele>549</ele>
        <time>2018-08-16T10:40:09.000Z</time>
      </trkpt>
      <trkpt lat="48.06193646974861621856689453125" lon="9.39243975095450878143310546875">
        <ele>549</ele>
        <time>2018-08-16T10:40:18.000Z</time>
      </trkpt>
      <trkpt lat="48.0620487034320831298828125" lon="9.39278139732778072357177734375">
        <ele>548.79998779296875</ele>
        <time>2018-08-16T10:40:22.000Z</time>
      </trkpt>
      <trkpt lat="48.0622500367462635040283203125" lon="9.39336544834077358245849609375">
        <ele>548.4000244140625</ele>
        <time>2018-08-16T10:40:29.000Z</time>
      </trkpt>
      <trkpt lat="48.06248783133924007415771484375" lon="9.39409953542053699493408203125">
        <ele>548.20001220703125</ele>
        <time>2018-08-16T10:40:37.000Z</time>
      </trkpt>
      <trkpt lat="48.06254868395626544952392578125" lon="9.39429164864122867584228515625">
        <ele>548.20001220703125</ele>
        <time>2018-08-16T10:40:39.000Z</time>
      </trkpt>
      <trkpt lat="48.0627915076911449432373046875" lon="9.39506135880947113037109375">
        <ele>547.79998779296875</ele>
        <time>2018-08-16T10:40:47.000Z</time>
      </trkpt>
      <trkpt lat="48.062881194055080413818359375" lon="9.3953518755733966827392578125">
        <ele>547.79998779296875</ele>
        <time>2018-08-16T10:40:50.000Z</time>
      </trkpt>
      <trkpt lat="48.06300155818462371826171875" lon="9.3957394547760486602783203125">
        <ele>547.5999755859375</ele>
        <time>2018-08-16T10:40:54.000Z</time>
      </trkpt>
      <trkpt lat="48.0631160549819469451904296875" lon="9.396129548549652099609375">
        <ele>547.5999755859375</ele>
        <time>2018-08-16T10:40:58.000Z</time>
      </trkpt>
      <trkpt lat="48.063259385526180267333984375" lon="9.3966141901910305023193359375">
        <ele>547.4000244140625</ele>
        <time>2018-08-16T10:41:03.000Z</time>
      </trkpt>
      <trkpt lat="48.0634898878633975982666015625" lon="9.39739177934825420379638671875">
        <ele>547.5999755859375</ele>
        <time>2018-08-16T10:41:11.000Z</time>
      </trkpt>
      <trkpt lat="48.06375718675553798675537109375" lon="9.39816878177225589752197265625">
        <ele>547.5999755859375</ele>
        <time>2018-08-16T10:41:19.000Z</time>
      </trkpt>
      <trkpt lat="48.06402758695185184478759765625" lon="9.39886875450611114501953125">
        <ele>547.4000244140625</ele>
        <time>2018-08-16T10:41:26.000Z</time>
      </trkpt>
      <trkpt lat="48.0641783773899078369140625" lon="9.39927066676318645477294921875">
        <ele>547.20001220703125</ele>
        <time>2018-08-16T10:41:30.000Z</time>
      </trkpt>
      <trkpt lat="48.06445757858455181121826171875" lon="9.39997642301023006439208984375">
        <ele>547.20001220703125</ele>
        <time>2018-08-16T10:41:37.000Z</time>
      </trkpt>
      <trkpt lat="48.06462337262928485870361328125" lon="9.400383196771144866943359375">
        <ele>547.4000244140625</ele>
        <time>2018-08-16T10:41:41.000Z</time>
      </trkpt>
      <trkpt lat="48.06470501236617565155029296875" lon="9.400581680238246917724609375">
        <ele>547.4000244140625</ele>
        <time>2018-08-16T10:41:43.000Z</time>
      </trkpt>
      <trkpt lat="48.064984381198883056640625" lon="9.40127176232635974884033203125">
        <ele>547.5999755859375</ele>
        <time>2018-08-16T10:41:50.000Z</time>
      </trkpt>
      <trkpt lat="48.0651404522359371185302734375" lon="9.40166973508894443511962890625">
        <ele>547.5999755859375</ele>
        <time>2018-08-16T10:41:54.000Z</time>
      </trkpt>
      <trkpt lat="48.06543373502790927886962890625" lon="9.40246618352830410003662109375">
        <ele>547.79998779296875</ele>
        <time>2018-08-16T10:42:02.000Z</time>
      </trkpt>
      <trkpt lat="48.0656938254833221435546875" lon="9.403245784342288970947265625">
        <ele>547.79998779296875</ele>
        <time>2018-08-16T10:42:10.000Z</time>
      </trkpt>
      <trkpt lat="48.06594184599816799163818359375" lon="9.40407752059400081634521484375">
        <ele>547.79998779296875</ele>
        <time>2018-08-16T10:42:18.000Z</time>
      </trkpt>
      <trkpt lat="48.06599917821586132049560546875" lon="9.40429444424808025360107421875">
        <ele>547.5999755859375</ele>
        <time>2018-08-16T10:42:20.000Z</time>
      </trkpt>
      <trkpt lat="48.06607595644891262054443359375" lon="9.4046242721378803253173828125">
        <ele>547.4000244140625</ele>
        <time>2018-08-16T10:42:23.000Z</time>
      </trkpt>
      <trkpt lat="48.06614066474139690399169921875" lon="9.404960386455059051513671875">
        <ele>547.20001220703125</ele>
        <time>2018-08-16T10:42:26.000Z</time>
      </trkpt>
      <trkpt lat="48.06626806966960430145263671875" lon="9.4057212956249713897705078125">
        <ele>547.20001220703125</ele>
        <time>2018-08-16T10:42:33.000Z</time>
      </trkpt>
      <trkpt lat="48.06629933416843414306640625" lon="9.40592388622462749481201171875">
        <ele>547.20001220703125</ele>
        <time>2018-08-16T10:42:35.000Z</time>
      </trkpt>
      <trkpt lat="48.06634895503520965576171875" lon="9.40621440298855304718017578125">
        <ele>547.4000244140625</ele>
        <time>2018-08-16T10:42:38.000Z</time>
      </trkpt>
      <trkpt lat="48.06638742797076702117919921875" lon="9.4063958711922168731689453125">
        <ele>547.4000244140625</ele>
        <time>2018-08-16T10:42:40.000Z</time>
      </trkpt>
      <trkpt lat="48.0664118193089962005615234375" lon="9.40646032802760601043701171875">
        <ele>547.4000244140625</ele>
        <time>2018-08-16T10:42:41.000Z</time>
      </trkpt>
      <trkpt lat="48.0664416588842868804931640625" lon="9.40649284981191158294677734375">
        <ele>547.4000244140625</ele>
        <time>2018-08-16T10:42:42.000Z</time>
      </trkpt>
      <trkpt lat="48.06647376157343387603759765625" lon="9.406493604183197021484375">
        <ele>547.4000244140625</ele>
        <time>2018-08-16T10:42:43.000Z</time>
      </trkpt>
      <trkpt lat="48.066537044942378997802734375" lon="9.40642562694847583770751953125">
        <ele>547.4000244140625</ele>
        <time>2018-08-16T10:42:45.000Z</time>
      </trkpt>
      <trkpt lat="48.06656646542251110076904296875" lon="9.40638137049973011016845703125">
        <ele>547.20001220703125</ele>
        <time>2018-08-16T10:42:46.000Z</time>
      </trkpt>
      <trkpt lat="48.0666022561490535736083984375" lon="9.406338036060333251953125">
        <ele>547.20001220703125</ele>
        <time>2018-08-16T10:42:47.000Z</time>
      </trkpt>
      <trkpt lat="48.06664106436073780059814453125" lon="9.406289756298065185546875">
        <ele>547.20001220703125</ele>
        <time>2018-08-16T10:42:48.000Z</time>
      </trkpt>
      <trkpt lat="48.0667330138385295867919921875" lon="9.40618070773780345916748046875">
        <ele>547.20001220703125</ele>
        <time>2018-08-16T10:42:50.000Z</time>
      </trkpt>
      <trkpt lat="48.0670471675693988800048828125" lon="9.40582640469074249267578125">
        <ele>547</ele>
        <time>2018-08-16T10:42:57.000Z</time>
      </trkpt>
      <trkpt lat="48.0672017298638820648193359375" lon="9.40567963756620883941650390625">
        <ele>547</ele>
        <time>2018-08-16T10:43:00.000Z</time>
      </trkpt>
      <trkpt lat="48.06771696545183658599853515625" lon="9.4052731990814208984375">
        <ele>547.20001220703125</ele>
        <time>2018-08-16T10:43:09.000Z</time>
      </trkpt>
      <trkpt lat="48.06777630932629108428955078125" lon="9.4052317924797534942626953125">
        <ele>547.20001220703125</ele>
        <time>2018-08-16T10:43:10.000Z</time>
      </trkpt>
      <trkpt lat="48.0678905546665191650390625" lon="9.4051511585712432861328125">
        <ele>547.20001220703125</ele>
        <time>2018-08-16T10:43:12.000Z</time>
      </trkpt>
      <trkpt lat="48.068002872169017791748046875" lon="9.4050732068717479705810546875">
        <ele>547.20001220703125</ele>
        <time>2018-08-16T10:43:14.000Z</time>
      </trkpt>
      <trkpt lat="48.0680536665022373199462890625" lon="9.405046887695789337158203125">
        <ele>547</ele>
        <time>2018-08-16T10:43:15.000Z</time>
      </trkpt>
      <trkpt lat="48.06818266399204730987548828125" lon="9.405254758894443511962890625">
        <ele>547</ele>
        <time>2018-08-16T10:43:20.000Z</time>
      </trkpt>
      <trkpt lat="48.068220131099224090576171875" lon="9.4054195471107959747314453125">
        <ele>547</ele>
        <time>2018-08-16T10:43:22.000Z</time>
      </trkpt>
      <trkpt lat="48.06826665066182613372802734375" lon="9.40559967420995235443115234375">
        <ele>547</ele>
        <time>2018-08-16T10:43:24.000Z</time>
      </trkpt>
      <trkpt lat="48.06828626431524753570556640625" lon="9.4056951440870761871337890625">
        <ele>547</ele>
        <time>2018-08-16T10:43:25.000Z</time>
      </trkpt>
      <trkpt lat="48.06827939115464687347412109375" lon="9.4058832339942455291748046875">
        <ele>547</ele>
        <time>2018-08-16T10:43:27.000Z</time>
      </trkpt>
      <trkpt lat="48.06824862957000732421875" lon="9.40596126951277256011962890625">
        <ele>547</ele>
        <time>2018-08-16T10:43:28.000Z</time>
      </trkpt>
      <trkpt lat="48.0682028643786907196044921875" lon="9.40602664835751056671142578125">
        <ele>546.79998779296875</ele>
        <time>2018-08-16T10:43:29.000Z</time>
      </trkpt>
      <trkpt lat="48.06814645417034626007080078125" lon="9.40607459284365177154541015625">
        <ele>546.79998779296875</ele>
        <time>2018-08-16T10:43:30.000Z</time>
      </trkpt>
      <trkpt lat="48.068019635975360870361328125" lon="9.4061400555074214935302734375">
        <ele>546.5999755859375</ele>
        <time>2018-08-16T10:43:32.000Z</time>
      </trkpt>
      <trkpt lat="48.06795853190124034881591796875" lon="9.40617986954748630523681640625">
        <ele>546.4000244140625</ele>
        <time>2018-08-16T10:43:33.000Z</time>
      </trkpt>
      <trkpt lat="48.06789935566484928131103515625" lon="9.406224377453327178955078125">
        <ele>546.4000244140625</ele>
        <time>2018-08-16T10:43:34.000Z</time>
      </trkpt>
      <trkpt lat="48.06779139675199985504150390625" lon="9.4063261337578296661376953125">
        <ele>546</ele>
        <time>2018-08-16T10:43:36.000Z</time>
      </trkpt>
      <trkpt lat="48.06773875840008258819580078125" lon="9.40647055394947528839111328125">
        <ele>546</ele>
        <time>2018-08-16T10:43:38.000Z</time>
      </trkpt>
      <trkpt lat="48.067735992372035980224609375" lon="9.406552612781524658203125">
        <ele>546</ele>
        <time>2018-08-16T10:43:39.000Z</time>
      </trkpt>
      <trkpt lat="48.0677599646151065826416015625" lon="9.40671748481690883636474609375">
        <ele>546</ele>
        <time>2018-08-16T10:43:41.000Z</time>
      </trkpt>
      <trkpt lat="48.06780916638672351837158203125" lon="9.40698302350938320159912109375">
        <ele>546</ele>
        <time>2018-08-16T10:43:44.000Z</time>
      </trkpt>
      <trkpt lat="48.0678193084895610809326171875" lon="9.40707639791071414947509765625">
        <ele>546.20001220703125</ele>
        <time>2018-08-16T10:43:45.000Z</time>
      </trkpt>
      <trkpt lat="48.0677710287272930145263671875" lon="9.40734478645026683807373046875">
        <ele>546.4000244140625</ele>
        <time>2018-08-16T10:43:48.000Z</time>
      </trkpt>
      <trkpt lat="48.0676862038671970367431640625" lon="9.407492391765117645263671875">
        <ele>546.5999755859375</ele>
        <time>2018-08-16T10:43:50.000Z</time>
      </trkpt>
      <trkpt lat="48.0675480701029300689697265625" lon="9.40770168788731098175048828125">
        <ele>546.79998779296875</ele>
        <time>2018-08-16T10:43:53.000Z</time>
      </trkpt>
      <trkpt lat="48.067524097859859466552734375" lon="9.408145509660243988037109375">
        <ele>546.79998779296875</ele>
        <time>2018-08-16T10:43:58.000Z</time>
      </trkpt>
      <trkpt lat="48.0675956793129444122314453125" lon="9.40831457264721393585205078125">
        <ele>547</ele>
        <time>2018-08-16T10:44:00.000Z</time>
      </trkpt>
      <trkpt lat="48.06789399124681949615478515625" lon="9.40901848487555980682373046875">
        <ele>547</ele>
        <time>2018-08-16T10:44:08.000Z</time>
      </trkpt>
      <trkpt lat="48.06814695708453655242919921875" lon="9.40953615121543407440185546875">
        <ele>547</ele>
        <time>2018-08-16T10:44:14.000Z</time>
      </trkpt>
      <trkpt lat="48.06836756877601146697998046875" lon="9.4099487923085689544677734375">
        <ele>547</ele>
        <time>2018-08-16T10:44:19.000Z</time>
      </trkpt>
      <trkpt lat="48.06878666393458843231201171875" lon="9.41049302928149700164794921875">
        <ele>546.79998779296875</ele>
        <time>2018-08-16T10:44:27.000Z</time>
      </trkpt>
      <trkpt lat="48.0692318268120288848876953125" lon="9.41098722629249095916748046875">
        <ele>546.5999755859375</ele>
        <time>2018-08-16T10:44:35.000Z</time>
      </trkpt>
      <trkpt lat="48.0696764029562473297119140625" lon="9.41147781908512115478515625">
        <ele>546.4000244140625</ele>
        <time>2018-08-16T10:44:43.000Z</time>
      </trkpt>
      <trkpt lat="48.0698955059051513671875" lon="9.41172701306641101837158203125">
        <ele>546.20001220703125</ele>
        <time>2018-08-16T10:44:47.000Z</time>
      </trkpt>
      <trkpt lat="48.07034946978092193603515625" lon="9.4122380577027797698974609375">
        <ele>546.4000244140625</ele>
        <time>2018-08-16T10:44:55.000Z</time>
      </trkpt>
      <trkpt lat="48.07052171789109706878662109375" lon="9.41242941655218601226806640625">
        <ele>546.4000244140625</ele>
        <time>2018-08-16T10:44:58.000Z</time>
      </trkpt>
      <trkpt lat="48.0706362985074520111083984375" lon="9.41255598329007625579833984375">
        <ele>546.4000244140625</ele>
        <time>2018-08-16T10:45:00.000Z</time>
      </trkpt>
      <trkpt lat="48.0708622746169567108154296875" lon="9.4128076918423175811767578125">
        <ele>546</ele>
        <time>2018-08-16T10:45:04.000Z</time>
      </trkpt>
      <trkpt lat="48.07130777277052402496337890625" lon="9.4133035652339458465576171875">
        <ele>545.79998779296875</ele>
        <time>2018-08-16T10:45:12.000Z</time>
      </trkpt>
      <trkpt lat="48.07175335474312305450439453125" lon="9.41380036063492298126220703125">
        <ele>546.4000244140625</ele>
        <time>2018-08-16T10:45:20.000Z</time>
      </trkpt>
      <trkpt lat="48.072202205657958984375" lon="9.4142974913120269775390625">
        <ele>547</ele>
        <time>2018-08-16T10:45:28.000Z</time>
      </trkpt>
      <trkpt lat="48.07242524810135364532470703125" lon="9.414555989205837249755859375">
        <ele>546.79998779296875</ele>
        <time>2018-08-16T10:45:32.000Z</time>
      </trkpt>
      <trkpt lat="48.072596155107021331787109375" lon="9.41474634222686290740966796875">
        <ele>546</ele>
        <time>2018-08-16T10:45:35.000Z</time>
      </trkpt>
      <trkpt lat="48.0730063654482364654541015625" lon="9.41519938409328460693359375">
        <ele>545.79998779296875</ele>
        <time>2018-08-16T10:45:42.000Z</time>
      </trkpt>
      <trkpt lat="48.07306445203721523284912109375" lon="9.415262080729007720947265625">
        <ele>545.5999755859375</ele>
        <time>2018-08-16T10:45:43.000Z</time>
      </trkpt>
      <trkpt lat="48.07318196631968021392822265625" lon="9.41538420505821704864501953125">
        <ele>545.5999755859375</ele>
        <time>2018-08-16T10:45:45.000Z</time>
      </trkpt>
      <trkpt lat="48.0734167434275150299072265625" lon="9.4156387634575366973876953125">
        <ele>545.4000244140625</ele>
        <time>2018-08-16T10:45:49.000Z</time>
      </trkpt>
      <trkpt lat="48.07371203787624835968017578125" lon="9.4159626401960849761962890625">
        <ele>545.4000244140625</ele>
        <time>2018-08-16T10:45:54.000Z</time>
      </trkpt>
      <trkpt lat="48.07382049970328807830810546875" lon="9.4160987623035907745361328125">
        <ele>545.4000244140625</ele>
        <time>2018-08-16T10:45:56.000Z</time>
      </trkpt>
      <trkpt lat="48.0738589726388454437255859375" lon="9.41618467681109905242919921875">
        <ele>545.4000244140625</ele>
        <time>2018-08-16T10:45:57.000Z</time>
      </trkpt>
      <trkpt lat="48.0738891474902629852294921875" lon="9.41638450138270854949951171875">
        <ele>545.20001220703125</ele>
        <time>2018-08-16T10:45:59.000Z</time>
      </trkpt>
      <trkpt lat="48.07384246028959751129150390625" lon="9.41668977029621601104736328125">
        <ele>545.20001220703125</ele>
        <time>2018-08-16T10:46:02.000Z</time>
      </trkpt>
      <trkpt lat="48.0737959407269954681396484375" lon="9.41688716411590576171875">
        <ele>545.20001220703125</ele>
        <time>2018-08-16T10:46:04.000Z</time>
      </trkpt>
      <trkpt lat="48.0737479962408542633056640625" lon="9.41708455793559551239013671875">
        <ele>545.4000244140625</ele>
        <time>2018-08-16T10:46:06.000Z</time>
      </trkpt>
      <trkpt lat="48.07360609062016010284423828125" lon="9.41767917014658451080322265625">
        <ele>545.79998779296875</ele>
        <time>2018-08-16T10:46:12.000Z</time>
      </trkpt>
      <trkpt lat="48.0734184198081493377685546875" lon="9.4184933044016361236572265625">
        <ele>546</ele>
        <time>2018-08-16T10:46:20.000Z</time>
      </trkpt>
      <trkpt lat="48.0732430703938007354736328125" lon="9.419248513877391815185546875">
        <ele>546</ele>
        <time>2018-08-16T10:46:28.000Z</time>
      </trkpt>
      <trkpt lat="48.073231838643550872802734375" lon="9.4193910062313079833984375">
        <ele>546</ele>
        <time>2018-08-16T10:46:30.000Z</time>
      </trkpt>
      <trkpt lat="48.073276095092296600341796875" lon="9.4194793514907360076904296875">
        <ele>546</ele>
        <time>2018-08-16T10:46:32.000Z</time>
      </trkpt>
      <trkpt lat="48.07336653582751750946044921875" lon="9.4195132143795490264892578125">
        <ele>546.20001220703125</ele>
        <time>2018-08-16T10:46:34.000Z</time>
      </trkpt>
      <trkpt lat="48.073416911065578460693359375" lon="9.41951514221727848052978515625">
        <ele>546.20001220703125</ele>
        <time>2018-08-16T10:46:35.000Z</time>
      </trkpt>
      <trkpt lat="48.07352445088326930999755859375" lon="9.4195195846259593963623046875">
        <ele>546.4000244140625</ele>
        <time>2018-08-16T10:46:37.000Z</time>
      </trkpt>
      <trkpt lat="48.07376668788492679595947265625" lon="9.41952771507203578948974609375">
        <ele>546.4000244140625</ele>
        <time>2018-08-16T10:46:41.000Z</time>
      </trkpt>
      <trkpt lat="48.07429390959441661834716796875" lon="9.4195376895368099212646484375">
        <ele>546.5999755859375</ele>
        <time>2018-08-16T10:46:49.000Z</time>
      </trkpt>
      <trkpt lat="48.0745620466768741607666015625" lon="9.41954196430742740631103515625">
        <ele>546.20001220703125</ele>
        <time>2018-08-16T10:46:53.000Z</time>
      </trkpt>
      <trkpt lat="48.07497091591358184814453125" lon="9.4195296429097652435302734375">
        <ele>546.20001220703125</ele>
        <time>2018-08-16T10:46:59.000Z</time>
      </trkpt>
      <trkpt lat="48.07552638463675975799560546875" lon="9.4194736517965793609619140625">
        <ele>546</ele>
        <time>2018-08-16T10:47:07.000Z</time>
      </trkpt>
      <trkpt lat="48.07606659829616546630859375" lon="9.41932671703398227691650390625">
        <ele>546</ele>
        <time>2018-08-16T10:47:15.000Z</time>
      </trkpt>
      <trkpt lat="48.0763956718146800994873046875" lon="9.419198222458362579345703125">
        <ele>545.79998779296875</ele>
        <time>2018-08-16T10:47:20.000Z</time>
      </trkpt>
      <trkpt lat="48.0767567642033100128173828125" lon="9.41947055049240589141845703125">
        <ele>545.5999755859375</ele>
        <time>2018-08-16T10:47:26.000Z</time>
      </trkpt>
      <trkpt lat="48.0770849995315074920654296875" lon="9.41989132203161716461181640625">
        <ele>545.20001220703125</ele>
        <time>2018-08-16T10:47:32.000Z</time>
      </trkpt>
      <trkpt lat="48.07720343582332134246826171875" lon="9.42001118324697017669677734375">
        <ele>545.4000244140625</ele>
        <time>2018-08-16T10:47:34.000Z</time>
      </trkpt>
      <trkpt lat="48.07732765562832355499267578125" lon="9.42012115381658077239990234375">
        <ele>545.4000244140625</ele>
        <time>2018-08-16T10:47:36.000Z</time>
      </trkpt>
      <trkpt lat="48.077839203178882598876953125" lon="9.42051175050437450408935546875">
        <ele>545.20001220703125</ele>
        <time>2018-08-16T10:47:44.000Z</time>
      </trkpt>
      <trkpt lat="48.0780331604182720184326171875" lon="9.42065457813441753387451171875">
        <ele>545.20001220703125</ele>
        <time>2018-08-16T10:47:47.000Z</time>
      </trkpt>
      <trkpt lat="48.07856080122292041778564453125" lon="9.4210534729063510894775390625">
        <ele>545.4000244140625</ele>
        <time>2018-08-16T10:47:55.000Z</time>
      </trkpt>
      <trkpt lat="48.07909254916012287139892578125" lon="9.42146661691367626190185546875">
        <ele>545.79998779296875</ele>
        <time>2018-08-16T10:48:03.000Z</time>
      </trkpt>
      <trkpt lat="48.07962027378380298614501953125" lon="9.42186106927692890167236328125">
        <ele>546</ele>
        <time>2018-08-16T10:48:11.000Z</time>
      </trkpt>
      <trkpt lat="48.08006686158478260040283203125" lon="9.42220397293567657470703125">
        <ele>545.79998779296875</ele>
        <time>2018-08-16T10:48:18.000Z</time>
      </trkpt>
      <trkpt lat="48.08050339110195636749267578125" lon="9.42253916524350643157958984375">
        <ele>545.5999755859375</ele>
        <time>2018-08-16T10:48:25.000Z</time>
      </trkpt>
      <trkpt lat="48.08100194670259952545166015625" lon="9.42292087711393833160400390625">
        <ele>544.5999755859375</ele>
        <time>2018-08-16T10:48:33.000Z</time>
      </trkpt>
      <trkpt lat="48.08119338937103748321533203125" lon="9.42306487821042537689208984375">
        <ele>544.4000244140625</ele>
        <time>2018-08-16T10:48:36.000Z</time>
      </trkpt>
      <trkpt lat="48.08151952922344207763671875" lon="9.42330929450690746307373046875">
        <ele>544.4000244140625</ele>
        <time>2018-08-16T10:48:41.000Z</time>
      </trkpt>
      <trkpt lat="48.081842400133609771728515625" lon="9.42355656065046787261962890625">
        <ele>544.4000244140625</ele>
        <time>2018-08-16T10:48:46.000Z</time>
      </trkpt>
      <trkpt lat="48.08222721330821514129638671875" lon="9.4238600693643093109130859375">
        <ele>544.4000244140625</ele>
        <time>2018-08-16T10:48:52.000Z</time>
      </trkpt>
      <trkpt lat="48.08267849497497081756591796875" lon="9.42421537823975086212158203125">
        <ele>544.4000244140625</ele>
        <time>2018-08-16T10:48:59.000Z</time>
      </trkpt>
      <trkpt lat="48.08320538140833377838134765625" lon="9.42462734878063201904296875">
        <ele>544.20001220703125</ele>
        <time>2018-08-16T10:49:07.000Z</time>
      </trkpt>
      <trkpt lat="48.08333882130682468414306640625" lon="9.42472902126610279083251953125">
        <ele>544.20001220703125</ele>
        <time>2018-08-16T10:49:09.000Z</time>
      </trkpt>
      <trkpt lat="48.08354132808744907379150390625" lon="9.424882493913173675537109375">
        <ele>544</ele>
        <time>2018-08-16T10:49:12.000Z</time>
      </trkpt>
      <trkpt lat="48.08395405299961566925048828125" lon="9.4251857511699199676513671875">
        <ele>544</ele>
        <time>2018-08-16T10:49:18.000Z</time>
      </trkpt>
      <trkpt lat="48.08415723033249378204345703125" lon="9.42533369176089763641357421875">
        <ele>543.79998779296875</ele>
        <time>2018-08-16T10:49:21.000Z</time>
      </trkpt>
      <trkpt lat="48.084222190082073211669921875" lon="9.4253884255886077880859375">
        <ele>543.79998779296875</ele>
        <time>2018-08-16T10:49:22.000Z</time>
      </trkpt>
      <trkpt lat="48.0844208411872386932373046875" lon="9.42554173059761524200439453125">
        <ele>543.79998779296875</ele>
        <time>2018-08-16T10:49:25.000Z</time>
      </trkpt>
      <trkpt lat="48.084554113447666168212890625" lon="9.42564868368208408355712890625">
        <ele>543.79998779296875</ele>
        <time>2018-08-16T10:49:27.000Z</time>
      </trkpt>
      <trkpt lat="48.0847604759037494659423828125" lon="9.4258056767284870147705078125">
        <ele>543.5999755859375</ele>
        <time>2018-08-16T10:49:30.000Z</time>
      </trkpt>
      <trkpt lat="48.08530303649604320526123046875" lon="9.42623105831444263458251953125">
        <ele>543.79998779296875</ele>
        <time>2018-08-16T10:49:38.000Z</time>
      </trkpt>
      <trkpt lat="48.085372857749462127685546875" lon="9.42628419958055019378662109375">
        <ele>543.79998779296875</ele>
        <time>2018-08-16T10:49:39.000Z</time>
      </trkpt>
      <trkpt lat="48.08558332733809947967529296875" lon="9.4264443777501583099365234375">
        <ele>543.79998779296875</ele>
        <time>2018-08-16T10:49:42.000Z</time>
      </trkpt>
      <trkpt lat="48.0857227183878421783447265625" lon="9.4265551865100860595703125">
        <ele>543.79998779296875</ele>
        <time>2018-08-16T10:49:44.000Z</time>
      </trkpt>
      <trkpt lat="48.086000494658946990966796875" lon="9.42676615901291370391845703125">
        <ele>543.5999755859375</ele>
        <time>2018-08-16T10:49:48.000Z</time>
      </trkpt>
      <trkpt lat="48.08613468892872333526611328125" lon="9.42687311209738254547119140625">
        <ele>543.5999755859375</ele>
        <time>2018-08-16T10:49:50.000Z</time>
      </trkpt>
      <trkpt lat="48.08665721677243709564208984375" lon="9.42731115035712718963623046875">
        <ele>543.4000244140625</ele>
        <time>2018-08-16T10:49:58.000Z</time>
      </trkpt>
      <trkpt lat="48.08691185899078845977783203125" lon="9.42751332186162471771240234375">
        <ele>543.4000244140625</ele>
        <time>2018-08-16T10:50:02.000Z</time>
      </trkpt>
      <trkpt lat="48.08741368353366851806640625" lon="9.42790274508297443389892578125">
        <ele>543.4000244140625</ele>
        <time>2018-08-16T10:50:10.000Z</time>
      </trkpt>
      <trkpt lat="48.087596409022808074951171875" lon="9.42804909311234951019287109375">
        <ele>543.4000244140625</ele>
        <time>2018-08-16T10:50:13.000Z</time>
      </trkpt>
      <trkpt lat="48.0880823917686939239501953125" lon="9.42843264900147914886474609375">
        <ele>543.4000244140625</ele>
        <time>2018-08-16T10:50:21.000Z</time>
      </trkpt>
      <trkpt lat="48.0885822884738445281982421875" lon="9.42882659845054149627685546875">
        <ele>543.4000244140625</ele>
        <time>2018-08-16T10:50:29.000Z</time>
      </trkpt>
      <trkpt lat="48.089028708636760711669921875" lon="9.42917377687990665435791015625">
        <ele>543</ele>
        <time>2018-08-16T10:50:36.000Z</time>
      </trkpt>
      <trkpt lat="48.08922392316162586212158203125" lon="9.42932465113699436187744140625">
        <ele>543</ele>
        <time>2018-08-16T10:50:39.000Z</time>
      </trkpt>
      <trkpt lat="48.08961401693522930145263671875" lon="9.4296288304030895233154296875">
        <ele>543</ele>
        <time>2018-08-16T10:50:45.000Z</time>
      </trkpt>
      <trkpt lat="48.0901336111128330230712890625" lon="9.43003644235432147979736328125">
        <ele>543.4000244140625</ele>
        <time>2018-08-16T10:50:53.000Z</time>
      </trkpt>
      <trkpt lat="48.09040040709078311920166015625" lon="9.43024029023945331573486328125">
        <ele>543.4000244140625</ele>
        <time>2018-08-16T10:50:57.000Z</time>
      </trkpt>
      <trkpt lat="48.09060241095721721649169921875" lon="9.43039602600038051605224609375">
        <ele>543.20001220703125</ele>
        <time>2018-08-16T10:51:00.000Z</time>
      </trkpt>
      <trkpt lat="48.0909845419228076934814453125" lon="9.43070464767515659332275390625">
        <ele>542.79998779296875</ele>
        <time>2018-08-16T10:51:06.000Z</time>
      </trkpt>
      <trkpt lat="48.09151805005967617034912109375" lon="9.43112893961369991302490234375">
        <ele>542.4000244140625</ele>
        <time>2018-08-16T10:51:15.000Z</time>
      </trkpt>
      <trkpt lat="48.09181158430874347686767578125" lon="9.43136547692120075225830078125">
        <ele>542.4000244140625</ele>
        <time>2018-08-16T10:51:20.000Z</time>
      </trkpt>
      <trkpt lat="48.091983161866664886474609375" lon="9.43150796927511692047119140625">
        <ele>542.4000244140625</ele>
        <time>2018-08-16T10:51:23.000Z</time>
      </trkpt>
      <trkpt lat="48.09245447628200054168701171875" lon="9.43190258927643299102783203125">
        <ele>542.4000244140625</ele>
        <time>2018-08-16T10:51:31.000Z</time>
      </trkpt>
      <trkpt lat="48.0929874815046787261962890625" lon="9.432334341108798980712890625">
        <ele>542.4000244140625</ele>
        <time>2018-08-16T10:51:40.000Z</time>
      </trkpt>
      <trkpt lat="48.09346214868128299713134765625" lon="9.43271848373115062713623046875">
        <ele>542.4000244140625</ele>
        <time>2018-08-16T10:51:48.000Z</time>
      </trkpt>
      <trkpt lat="48.09396003372967243194580078125" lon="9.43310690112411975860595703125">
        <ele>542.4000244140625</ele>
        <time>2018-08-16T10:51:56.000Z</time>
      </trkpt>
      <trkpt lat="48.094448111951351165771484375" lon="9.4334905408322811126708984375">
        <ele>542.20001220703125</ele>
        <time>2018-08-16T10:52:04.000Z</time>
      </trkpt>
      <trkpt lat="48.09450837783515453338623046875" lon="9.43353789858520030975341796875">
        <ele>542.20001220703125</ele>
        <time>2018-08-16T10:52:05.000Z</time>
      </trkpt>
      <trkpt lat="48.09498983435332775115966796875" lon="9.43393017165362834930419921875">
        <ele>541.79998779296875</ele>
        <time>2018-08-16T10:52:13.000Z</time>
      </trkpt>
      <trkpt lat="48.09504599310457706451416015625" lon="9.43398901261389255523681640625">
        <ele>541.79998779296875</ele>
        <time>2018-08-16T10:52:14.000Z</time>
      </trkpt>
      <trkpt lat="48.09528755955398082733154296875" lon="9.434493519365787506103515625">
        <ele>541.79998779296875</ele>
        <time>2018-08-16T10:52:20.000Z</time>
      </trkpt>
      <trkpt lat="48.095540106296539306640625" lon="9.435254596173763275146484375">
        <ele>541.5999755859375</ele>
        <time>2018-08-16T10:52:28.000Z</time>
      </trkpt>
      <trkpt lat="48.09579147957265377044677734375" lon="9.436010308563709259033203125">
        <ele>541.5999755859375</ele>
        <time>2018-08-16T10:52:36.000Z</time>
      </trkpt>
      <trkpt lat="48.09604293666779994964599609375" lon="9.436751268804073333740234375">
        <ele>541.79998779296875</ele>
        <time>2018-08-16T10:52:44.000Z</time>
      </trkpt>
      <trkpt lat="48.09623949229717254638671875" lon="9.437332637608051300048828125">
        <ele>541.79998779296875</ele>
        <time>2018-08-16T10:52:50.000Z</time>
      </trkpt>
      <trkpt lat="48.09643520973622798919677734375" lon="9.43800394423305988311767578125">
        <ele>541.20001220703125</ele>
        <time>2018-08-16T10:52:57.000Z</time>
      </trkpt>
      <trkpt lat="48.0966255627572536468505859375" lon="9.4387699663639068603515625">
        <ele>541</ele>
        <time>2018-08-16T10:53:05.000Z</time>
      </trkpt>
      <trkpt lat="48.096758164465427398681640625" lon="9.43923600018024444580078125">
        <ele>540.5999755859375</ele>
        <time>2018-08-16T10:53:10.000Z</time>
      </trkpt>
      <trkpt lat="48.097013644874095916748046875" lon="9.43998140282928943634033203125">
        <ele>540.20001220703125</ele>
        <time>2018-08-16T10:53:18.000Z</time>
      </trkpt>
      <trkpt lat="48.0970488488674163818359375" lon="9.44007276557385921478271484375">
        <ele>540.20001220703125</ele>
        <time>2018-08-16T10:53:19.000Z</time>
      </trkpt>
      <trkpt lat="48.0973197519779205322265625" lon="9.440840296447277069091796875">
        <ele>539.79998779296875</ele>
        <time>2018-08-16T10:53:27.000Z</time>
      </trkpt>
      <trkpt lat="48.09745277278125286102294921875" lon="9.44122041575610637664794921875">
        <ele>539.79998779296875</ele>
        <time>2018-08-16T10:53:31.000Z</time>
      </trkpt>
      <trkpt lat="48.09768562205135822296142578125" lon="9.441861547529697418212890625">
        <ele>540</ele>
        <time>2018-08-16T10:53:38.000Z</time>
      </trkpt>
      <trkpt lat="48.09787354432046413421630859375" lon="9.4423026032745838165283203125">
        <ele>540</ele>
        <time>2018-08-16T10:53:43.000Z</time>
      </trkpt>
      <trkpt lat="48.09829565696418285369873046875" lon="9.4428987242281436920166015625">
        <ele>540</ele>
        <time>2018-08-16T10:53:51.000Z</time>
      </trkpt>
      <trkpt lat="48.0986238084733486175537109375" lon="9.44323693402111530303955078125">
        <ele>540</ele>
        <time>2018-08-16T10:53:57.000Z</time>
      </trkpt>
      <trkpt lat="48.09866580180823802947998046875" lon="9.44326811470091342926025390625">
        <ele>540</ele>
        <time>2018-08-16T10:53:58.000Z</time>
      </trkpt>
      <trkpt lat="48.098708130419254302978515625" lon="9.44329015910625457763671875">
        <ele>540</ele>
        <time>2018-08-16T10:53:59.000Z</time>
      </trkpt>
      <trkpt lat="48.09879085980355739593505859375" lon="9.44333399645984172821044921875">
        <ele>540</ele>
        <time>2018-08-16T10:54:01.000Z</time>
      </trkpt>
      <trkpt lat="48.0988216213881969451904296875" lon="9.44354304112493991851806640625">
        <ele>540</ele>
        <time>2018-08-16T10:54:04.000Z</time>
      </trkpt>
      <trkpt lat="48.098828159272670745849609375" lon="9.4437105953693389892578125">
        <ele>540</ele>
        <time>2018-08-16T10:54:06.000Z</time>
      </trkpt>
      <trkpt lat="48.09883310459554195404052734375" lon="9.44379751570522785186767578125">
        <ele>540</ele>
        <time>2018-08-16T10:54:07.000Z</time>
      </trkpt>
      <trkpt lat="48.0988424085080623626708984375" lon="9.4438849389553070068359375">
        <ele>540</ele>
        <time>2018-08-16T10:54:08.000Z</time>
      </trkpt>
      <trkpt lat="48.0988598428666591644287109375" lon="9.44406640715897083282470703125">
        <ele>540</ele>
        <time>2018-08-16T10:54:10.000Z</time>
      </trkpt>
      <trkpt lat="48.09887937270104885101318359375" lon="9.444253407418727874755859375">
        <ele>540</ele>
        <time>2018-08-16T10:54:12.000Z</time>
      </trkpt>
      <trkpt lat="48.09892840683460235595703125" lon="9.44463268853724002838134765625">
        <ele>539.79998779296875</ele>
        <time>2018-08-16T10:54:16.000Z</time>
      </trkpt>
      <trkpt lat="48.098968304693698883056640625" lon="9.4448235444724559783935546875">
        <ele>539.79998779296875</ele>
        <time>2018-08-16T10:54:18.000Z</time>
      </trkpt>
      <trkpt lat="48.09915815480053424835205078125" lon="9.44559141062200069427490234375">
        <ele>539.79998779296875</ele>
        <time>2018-08-16T10:54:26.000Z</time>
      </trkpt>
      <trkpt lat="48.099331073462963104248046875" lon="9.44615970365703105926513671875">
        <ele>539.5999755859375</ele>
        <time>2018-08-16T10:54:32.000Z</time>
      </trkpt>
      <trkpt lat="48.0993979610502719879150390625" lon="9.4463433511555194854736328125">
        <ele>539.5999755859375</ele>
        <time>2018-08-16T10:54:34.000Z</time>
      </trkpt>
      <trkpt lat="48.099682442843914031982421875" lon="9.447089843451976776123046875">
        <ele>539.5999755859375</ele>
        <time>2018-08-16T10:54:42.000Z</time>
      </trkpt>
      <trkpt lat="48.09976131655275821685791015625" lon="9.44726963527500629425048828125">
        <ele>539.79998779296875</ele>
        <time>2018-08-16T10:54:44.000Z</time>
      </trkpt>
      <trkpt lat="48.09987212531268596649169921875" lon="9.447543136775493621826171875">
        <ele>539.79998779296875</ele>
        <time>2018-08-16T10:54:47.000Z</time>
      </trkpt>
      <trkpt lat="48.10001880861818790435791015625" lon="9.44791923277080059051513671875">
        <ele>539.79998779296875</ele>
        <time>2018-08-16T10:54:51.000Z</time>
      </trkpt>
      <trkpt lat="48.10024042613804340362548828125" lon="9.448500685393810272216796875">
        <ele>539.5999755859375</ele>
        <time>2018-08-16T10:54:57.000Z</time>
      </trkpt>
      <trkpt lat="48.1004148535430431365966796875" lon="9.44900435395538806915283203125">
        <ele>539.5999755859375</ele>
        <time>2018-08-16T10:55:02.000Z</time>
      </trkpt>
      <trkpt lat="48.1006244011223316192626953125" lon="9.4498077593743801116943359375">
        <ele>539.4000244140625</ele>
        <time>2018-08-16T10:55:10.000Z</time>
      </trkpt>
      <trkpt lat="48.100647367537021636962890625" lon="9.4501447118818759918212890625">
        <ele>539.4000244140625</ele>
        <time>2018-08-16T10:55:14.000Z</time>
      </trkpt>
      <trkpt lat="48.10067896731197834014892578125" lon="9.45039675571024417877197265625">
        <ele>539.79998779296875</ele>
        <time>2018-08-16T10:55:17.000Z</time>
      </trkpt>
      <trkpt lat="48.10069053433835506439208984375" lon="9.45048526860773563385009765625">
        <ele>540</ele>
        <time>2018-08-16T10:55:18.000Z</time>
      </trkpt>
      <trkpt lat="48.1007538177073001861572265625" lon="9.4513688050210475921630859375">
        <ele>541.4000244140625</ele>
        <time>2018-08-16T10:55:27.000Z</time>
      </trkpt>
      <trkpt lat="48.10070260427892208099365234375" lon="9.45224395953118801116943359375">
        <ele>541</ele>
        <time>2018-08-16T10:55:35.000Z</time>
      </trkpt>
      <trkpt lat="48.100539408624172210693359375" lon="9.4531145878136157989501953125">
        <ele>540.5999755859375</ele>
        <time>2018-08-16T10:55:43.000Z</time>
      </trkpt>
      <trkpt lat="48.1002958305180072784423828125" lon="9.45395302958786487579345703125">
        <ele>540.4000244140625</ele>
        <time>2018-08-16T10:55:51.000Z</time>
      </trkpt>
      <trkpt lat="48.10008670203387737274169921875" lon="9.45466666482388973236083984375">
        <ele>540.4000244140625</ele>
        <time>2018-08-16T10:55:58.000Z</time>
      </trkpt>
      <trkpt lat="48.1000091694295406341552734375" lon="9.454965479671955108642578125">
        <ele>540.4000244140625</ele>
        <time>2018-08-16T10:56:01.000Z</time>
      </trkpt>
      <trkpt lat="48.0998428724706172943115234375" lon="9.45573024451732635498046875">
        <ele>540.5999755859375</ele>
        <time>2018-08-16T10:56:09.000Z</time>
      </trkpt>
      <trkpt lat="48.09984714724123477935791015625" lon="9.45582018233835697174072265625">
        <ele>540.5999755859375</ele>
        <time>2018-08-16T10:56:10.000Z</time>
      </trkpt>
      <trkpt lat="48.09987145476043224334716796875" lon="9.4558993913233280181884765625">
        <ele>540.79998779296875</ele>
        <time>2018-08-16T10:56:11.000Z</time>
      </trkpt>
      <trkpt lat="48.10001746751368045806884765625" lon="9.456018917262554168701171875">
        <ele>541</ele>
        <time>2018-08-16T10:56:14.000Z</time>
      </trkpt>
      <trkpt lat="48.10019901953637599945068359375" lon="9.45611187256872653961181640625">
        <ele>541.20001220703125</ele>
        <time>2018-08-16T10:56:17.000Z</time>
      </trkpt>
      <trkpt lat="48.10071400366723537445068359375" lon="9.45647950284183025360107421875">
        <ele>541.4000244140625</ele>
        <time>2018-08-16T10:56:25.000Z</time>
      </trkpt>
      <trkpt lat="48.1012242101132869720458984375" lon="9.456746466457843780517578125">
        <ele>541.4000244140625</ele>
        <time>2018-08-16T10:56:32.000Z</time>
      </trkpt>
      <trkpt lat="48.10152336023747920989990234375" lon="9.45689440704882144927978515625">
        <ele>540.79998779296875</ele>
        <time>2018-08-16T10:56:36.000Z</time>
      </trkpt>
      <trkpt lat="48.10203465633094310760498046875" lon="9.45718542672693729400634765625">
        <ele>540.20001220703125</ele>
        <time>2018-08-16T10:56:43.000Z</time>
      </trkpt>
      <trkpt lat="48.1026166118681430816650390625" lon="9.45747074671089649200439453125">
        <ele>540</ele>
        <time>2018-08-16T10:56:51.000Z</time>
      </trkpt>
      <trkpt lat="48.103200159966945648193359375" lon="9.45771181024610996246337890625">
        <ele>540.20001220703125</ele>
        <time>2018-08-16T10:56:59.000Z</time>
      </trkpt>
      <trkpt lat="48.103776834905147552490234375" lon="9.45794231258332729339599609375">
        <ele>540.20001220703125</ele>
        <time>2018-08-16T10:57:07.000Z</time>
      </trkpt>
      <trkpt lat="48.1043523363769054412841796875" lon="9.4582560472190380096435546875">
        <ele>540.4000244140625</ele>
        <time>2018-08-16T10:57:15.000Z</time>
      </trkpt>
      <trkpt lat="48.1048540771007537841796875" lon="9.45857346989214420318603515625">
        <ele>540</ele>
        <time>2018-08-16T10:57:22.000Z</time>
      </trkpt>
      <trkpt lat="48.10507158748805522918701171875" lon="9.4586949236690998077392578125">
        <ele>539.5999755859375</ele>
        <time>2018-08-16T10:57:25.000Z</time>
      </trkpt>
      <trkpt lat="48.105144761502742767333984375" lon="9.45873272605240345001220703125">
        <ele>539.5999755859375</ele>
        <time>2018-08-16T10:57:26.000Z</time>
      </trkpt>
      <trkpt lat="48.10572537593543529510498046875" lon="9.4590298645198345184326171875">
        <ele>539.4000244140625</ele>
        <time>2018-08-16T10:57:34.000Z</time>
      </trkpt>
      <trkpt lat="48.10624756850302219390869140625" lon="9.4592900387942790985107421875">
        <ele>539.20001220703125</ele>
        <time>2018-08-16T10:57:41.000Z</time>
      </trkpt>
      <trkpt lat="48.1067616306245326995849609375" lon="9.45954241789877414703369140625">
        <ele>539.20001220703125</ele>
        <time>2018-08-16T10:57:48.000Z</time>
      </trkpt>
      <trkpt lat="48.107339479029178619384765625" lon="9.45982974953949451446533203125">
        <ele>539</ele>
        <time>2018-08-16T10:57:56.000Z</time>
      </trkpt>
      <trkpt lat="48.10789528302848339080810546875" lon="9.460109286010265350341796875">
        <ele>539.20001220703125</ele>
        <time>2018-08-16T10:58:04.000Z</time>
      </trkpt>
      <trkpt lat="48.108324520289897918701171875" lon="9.46032159961760044097900390625">
        <ele>539.4000244140625</ele>
        <time>2018-08-16T10:58:10.000Z</time>
      </trkpt>
      <trkpt lat="48.10860808007419109344482421875" lon="9.46045923046767711639404296875">
        <ele>539.4000244140625</ele>
        <time>2018-08-16T10:58:14.000Z</time>
      </trkpt>
      <trkpt lat="48.10889138840138912200927734375" lon="9.4605979509651660919189453125">
        <ele>539.20001220703125</ele>
        <time>2018-08-16T10:58:18.000Z</time>
      </trkpt>
      <trkpt lat="48.109440319240093231201171875" lon="9.4608554430305957794189453125">
        <ele>539</ele>
        <time>2018-08-16T10:58:26.000Z</time>
      </trkpt>
      <trkpt lat="48.10992152430117130279541015625" lon="9.46108167059719562530517578125">
        <ele>538.79998779296875</ele>
        <time>2018-08-16T10:58:33.000Z</time>
      </trkpt>
      <trkpt lat="48.110132999718189239501953125" lon="9.46118359453976154327392578125">
        <ele>538.5999755859375</ele>
        <time>2018-08-16T10:58:36.000Z</time>
      </trkpt>
      <trkpt lat="48.11067991890013217926025390625" lon="9.4614612869918346405029296875">
        <ele>538</ele>
        <time>2018-08-16T10:58:44.000Z</time>
      </trkpt>
      <trkpt lat="48.11088443733751773834228515625" lon="9.46156547404825687408447265625">
        <ele>537.79998779296875</ele>
        <time>2018-08-16T10:58:47.000Z</time>
      </trkpt>
      <trkpt lat="48.111023493111133575439453125" lon="9.46163588203489780426025390625">
        <ele>537.79998779296875</ele>
        <time>2018-08-16T10:58:49.000Z</time>
      </trkpt>
      <trkpt lat="48.111236058175563812255859375" lon="9.46173705160617828369140625">
        <ele>537.5999755859375</ele>
        <time>2018-08-16T10:58:52.000Z</time>
      </trkpt>
      <trkpt lat="48.111307136714458465576171875" lon="9.461772255599498748779296875">
        <ele>537.5999755859375</ele>
        <time>2018-08-16T10:58:53.000Z</time>
      </trkpt>
      <trkpt lat="48.11166462488472461700439453125" lon="9.46195154450833797454833984375">
        <ele>537.5999755859375</ele>
        <time>2018-08-16T10:58:58.000Z</time>
      </trkpt>
      <trkpt lat="48.1122326664626598358154296875" lon="9.46223116479814052581787109375">
        <ele>537.20001220703125</ele>
        <time>2018-08-16T10:59:06.000Z</time>
      </trkpt>
      <trkpt lat="48.112508095800876617431640625" lon="9.462371058762073516845703125">
        <ele>537</ele>
        <time>2018-08-16T10:59:10.000Z</time>
      </trkpt>
      <trkpt lat="48.11271387152373790740966796875" lon="9.4624744914472103118896484375">
        <ele>537</ele>
        <time>2018-08-16T10:59:13.000Z</time>
      </trkpt>
      <trkpt lat="48.113128356635570526123046875" lon="9.46267792023718357086181640625">
        <ele>536.79998779296875</ele>
        <time>2018-08-16T10:59:19.000Z</time>
      </trkpt>
      <trkpt lat="48.113686926662921905517578125" lon="9.46294848807156085968017578125">
        <ele>536.79998779296875</ele>
        <time>2018-08-16T10:59:27.000Z</time>
      </trkpt>
      <trkpt lat="48.1141836382448673248291015625" lon="9.4631986878812313079833984375">
        <ele>536.79998779296875</ele>
        <time>2018-08-16T10:59:34.000Z</time>
      </trkpt>
      <trkpt lat="48.1146754883229732513427734375" lon="9.46344561874866485595703125">
        <ele>536.5999755859375</ele>
        <time>2018-08-16T10:59:41.000Z</time>
      </trkpt>
      <trkpt lat="48.11524671502411365509033203125" lon="9.463726580142974853515625">
        <ele>536.4000244140625</ele>
        <time>2018-08-16T10:59:49.000Z</time>
      </trkpt>
      <trkpt lat="48.11582338996231555938720703125" lon="9.46399413049221038818359375">
        <ele>536.4000244140625</ele>
        <time>2018-08-16T10:59:57.000Z</time>
      </trkpt>
      <trkpt lat="48.11589731834828853607177734375" lon="9.46401013992726802825927734375">
        <ele>536.20001220703125</ele>
        <time>2018-08-16T10:59:58.000Z</time>
      </trkpt>
      <trkpt lat="48.116322197020053863525390625" lon="9.46399421431124210357666015625">
        <ele>536</ele>
        <time>2018-08-16T11:00:04.000Z</time>
      </trkpt>
      <trkpt lat="48.11650215648114681243896484375" lon="9.46397040970623493194580078125">
        <ele>536</ele>
        <time>2018-08-16T11:00:07.000Z</time>
      </trkpt>
      <trkpt lat="48.1166207604110240936279296875" lon="9.46401332505047321319580078125">
        <ele>536</ele>
        <time>2018-08-16T11:00:09.000Z</time>
      </trkpt>
      <trkpt lat="48.1168058328330516815185546875" lon="9.46427752263844013214111328125">
        <ele>536</ele>
        <time>2018-08-16T11:00:13.000Z</time>
      </trkpt>
      <trkpt lat="48.11683827079832553863525390625" lon="9.4643681310117244720458984375">
        <ele>536.20001220703125</ele>
        <time>2018-08-16T11:00:14.000Z</time>
      </trkpt>
      <trkpt lat="48.1168775819242000579833984375" lon="9.46445236913859844207763671875">
        <ele>536.20001220703125</ele>
        <time>2018-08-16T11:00:15.000Z</time>
      </trkpt>
      <trkpt lat="48.11732433736324310302734375" lon="9.464518837630748748779296875">
        <ele>536.5999755859375</ele>
        <time>2018-08-16T11:00:22.000Z</time>
      </trkpt>
      <trkpt lat="48.117466159164905548095703125" lon="9.46445949375629425048828125">
        <ele>536.5999755859375</ele>
        <time>2018-08-16T11:00:24.000Z</time>
      </trkpt>
      <trkpt lat="48.1178413331508636474609375" lon="9.46458019316196441650390625">
        <ele>536.5999755859375</ele>
        <time>2018-08-16T11:00:29.000Z</time>
      </trkpt>
      <trkpt lat="48.1182776950299739837646484375" lon="9.4647847115993499755859375">
        <ele>535.5999755859375</ele>
        <time>2018-08-16T11:00:35.000Z</time>
      </trkpt>
      <trkpt lat="48.11834986321628093719482421875" lon="9.4648163951933383941650390625">
        <ele>535.4000244140625</ele>
        <time>2018-08-16T11:00:36.000Z</time>
      </trkpt>
      <trkpt lat="48.1184932775795459747314453125" lon="9.464888982474803924560546875">
        <ele>535.20001220703125</ele>
        <time>2018-08-16T11:00:38.000Z</time>
      </trkpt>
      <trkpt lat="48.118781782686710357666015625" lon="9.46503457613289356231689453125">
        <ele>535.20001220703125</ele>
        <time>2018-08-16T11:00:42.000Z</time>
      </trkpt>
      <trkpt lat="48.119217641651630401611328125" lon="9.46523993276059627532958984375">
        <ele>535.20001220703125</ele>
        <time>2018-08-16T11:00:48.000Z</time>
      </trkpt>
      <trkpt lat="48.11979473568499088287353515625" lon="9.46552827022969722747802734375">
        <ele>535</ele>
        <time>2018-08-16T11:00:56.000Z</time>
      </trkpt>
      <trkpt lat="48.12001098878681659698486328125" lon="9.46563740260899066925048828125">
        <ele>535</ele>
        <time>2018-08-16T11:00:59.000Z</time>
      </trkpt>
      <trkpt lat="48.12037124298512935638427734375" lon="9.46582113392651081085205078125">
        <ele>535</ele>
        <time>2018-08-16T11:01:04.000Z</time>
      </trkpt>
      <trkpt lat="48.1209421344101428985595703125" lon="9.4660994969308376312255859375">
        <ele>535</ele>
        <time>2018-08-16T11:01:12.000Z</time>
      </trkpt>
      <trkpt lat="48.1213709525763988494873046875" lon="9.46625514887273311614990234375">
        <ele>535</ele>
        <time>2018-08-16T11:01:18.000Z</time>
      </trkpt>
      <trkpt lat="48.12173657119274139404296875" lon="9.46637400425970554351806640625">
        <ele>535</ele>
        <time>2018-08-16T11:01:23.000Z</time>
      </trkpt>
      <trkpt lat="48.12229589559137821197509765625" lon="9.46662764064967632293701171875">
        <ele>535.4000244140625</ele>
        <time>2018-08-16T11:01:31.000Z</time>
      </trkpt>
      <trkpt lat="48.12271398492157459259033203125" lon="9.46683199144899845123291015625">
        <ele>535.4000244140625</ele>
        <time>2018-08-16T11:01:37.000Z</time>
      </trkpt>
      <trkpt lat="48.12328311614692211151123046875" lon="9.4671093486249446868896484375">
        <ele>535.20001220703125</ele>
        <time>2018-08-16T11:01:45.000Z</time>
      </trkpt>
      <trkpt lat="48.12349475920200347900390625" lon="9.46722912602126598358154296875">
        <ele>535.20001220703125</ele>
        <time>2018-08-16T11:01:48.000Z</time>
      </trkpt>
      <trkpt lat="48.1236344017088413238525390625" lon="9.467302970588207244873046875">
        <ele>535.20001220703125</ele>
        <time>2018-08-16T11:01:50.000Z</time>
      </trkpt>
      <trkpt lat="48.12377261929214000701904296875" lon="9.4673782400786876678466796875">
        <ele>535.20001220703125</ele>
        <time>2018-08-16T11:01:52.000Z</time>
      </trkpt>
      <trkpt lat="48.12397479079663753509521484375" lon="9.46749734692275524139404296875">
        <ele>535.20001220703125</ele>
        <time>2018-08-16T11:01:55.000Z</time>
      </trkpt>
      <trkpt lat="48.1245064549148082733154296875" lon="9.4678580202162265777587890625">
        <ele>535.20001220703125</ele>
        <time>2018-08-16T11:02:03.000Z</time>
      </trkpt>
      <trkpt lat="48.124860338866710662841796875" lon="9.46805088780820369720458984375">
        <ele>535.20001220703125</ele>
        <time>2018-08-16T11:02:08.000Z</time>
      </trkpt>
      <trkpt lat="48.1254319846630096435546875" lon="9.46833855472505092620849609375">
        <ele>535.20001220703125</ele>
        <time>2018-08-16T11:02:16.000Z</time>
      </trkpt>
      <trkpt lat="48.12578804790973663330078125" lon="9.468514658510684967041015625">
        <ele>535</ele>
        <time>2018-08-16T11:02:21.000Z</time>
      </trkpt>
      <trkpt lat="48.12635391019284725189208984375" lon="9.46880475617945194244384765625">
        <ele>535</ele>
        <time>2018-08-16T11:02:29.000Z</time>
      </trkpt>
      <trkpt lat="48.126564882695674896240234375" lon="9.46890416555106639862060546875">
        <ele>535</ele>
        <time>2018-08-16T11:02:32.000Z</time>
      </trkpt>
      <trkpt lat="48.12678205780684947967529296875" lon="9.46900391019880771636962890625">
        <ele>534.79998779296875</ele>
        <time>2018-08-16T11:02:35.000Z</time>
      </trkpt>
      <trkpt lat="48.12707039527595043182373046875" lon="9.4691169820725917816162109375">
        <ele>534.79998779296875</ele>
        <time>2018-08-16T11:02:39.000Z</time>
      </trkpt>
      <trkpt lat="48.12729016877710819244384765625" lon="9.4692034833133220672607421875">
        <ele>534.5999755859375</ele>
        <time>2018-08-16T11:02:42.000Z</time>
      </trkpt>
      <trkpt lat="48.1275111995637416839599609375" lon="9.46930062957108020782470703125">
        <ele>534.4000244140625</ele>
        <time>2018-08-16T11:02:45.000Z</time>
      </trkpt>
      <trkpt lat="48.128083683550357818603515625" lon="9.46960799396038055419921875">
        <ele>534.20001220703125</ele>
        <time>2018-08-16T11:02:53.000Z</time>
      </trkpt>
      <trkpt lat="48.1285515613853931427001953125" lon="9.46999163366854190826416015625">
        <ele>534.4000244140625</ele>
        <time>2018-08-16T11:03:00.000Z</time>
      </trkpt>
      <trkpt lat="48.12906880863010883331298828125" lon="9.47038994170725345611572265625">
        <ele>534.5999755859375</ele>
        <time>2018-08-16T11:03:08.000Z</time>
      </trkpt>
      <trkpt lat="48.1292019970715045928955078125" lon="9.47040997445583343505859375">
        <ele>534.5999755859375</ele>
        <time>2018-08-16T11:03:10.000Z</time>
      </trkpt>
      <trkpt lat="48.12965554185211658477783203125" lon="9.4708181731402873992919921875">
        <ele>534.5999755859375</ele>
        <time>2018-08-16T11:03:19.000Z</time>
      </trkpt>
      <trkpt lat="48.12972678802907466888427734375" lon="9.47098455391824245452880859375">
        <ele>534.4000244140625</ele>
        <time>2018-08-16T11:03:21.000Z</time>
      </trkpt>
      <trkpt lat="48.1299580447375774383544921875" lon="9.47116308845579624176025390625">
        <ele>534.4000244140625</ele>
        <time>2018-08-16T11:03:25.000Z</time>
      </trkpt>
      <trkpt lat="48.1304602883756160736083984375" lon="9.4714733026921749114990234375">
        <ele>534.4000244140625</ele>
        <time>2018-08-16T11:03:32.000Z</time>
      </trkpt>
      <trkpt lat="48.1306819058954715728759765625" lon="9.47161830961704254150390625">
        <ele>534.4000244140625</ele>
        <time>2018-08-16T11:03:35.000Z</time>
      </trkpt>
      <trkpt lat="48.13119512982666492462158203125" lon="9.4719504006206989288330078125">
        <ele>534.4000244140625</ele>
        <time>2018-08-16T11:03:42.000Z</time>
      </trkpt>
      <trkpt lat="48.13170240260660648345947265625" lon="9.4722897000610828399658203125">
        <ele>534</ele>
        <time>2018-08-16T11:03:49.000Z</time>
      </trkpt>
      <trkpt lat="48.132145218551158905029296875" lon="9.47257560677826404571533203125">
        <ele>533.5999755859375</ele>
        <time>2018-08-16T11:03:55.000Z</time>
      </trkpt>
      <trkpt lat="48.1323636509478092193603515625" lon="9.4727252237498760223388671875">
        <ele>533.5999755859375</ele>
        <time>2018-08-16T11:03:58.000Z</time>
      </trkpt>
      <trkpt lat="48.1328786350786685943603515625" lon="9.4730702228844165802001953125">
        <ele>533.4000244140625</ele>
        <time>2018-08-16T11:04:05.000Z</time>
      </trkpt>
      <trkpt lat="48.1333855725824832916259765625" lon="9.47340390644967555999755859375">
        <ele>533.4000244140625</ele>
        <time>2018-08-16T11:04:12.000Z</time>
      </trkpt>
      <trkpt lat="48.1338863074779510498046875" lon="9.47373046539723873138427734375">
        <ele>533.4000244140625</ele>
        <time>2018-08-16T11:04:19.000Z</time>
      </trkpt>
      <trkpt lat="48.134104572236537933349609375" lon="9.473872371017932891845703125">
        <ele>533.4000244140625</ele>
        <time>2018-08-16T11:04:22.000Z</time>
      </trkpt>
      <trkpt lat="48.13446507789194583892822265625" lon="9.47410899214446544647216796875">
        <ele>533.4000244140625</ele>
        <time>2018-08-16T11:04:27.000Z</time>
      </trkpt>
      <trkpt lat="48.134893476963043212890625" lon="9.47438626550137996673583984375">
        <ele>533</ele>
        <time>2018-08-16T11:04:33.000Z</time>
      </trkpt>
      <trkpt lat="48.1353266537189483642578125" lon="9.4746658019721508026123046875">
        <ele>533</ele>
        <time>2018-08-16T11:04:39.000Z</time>
      </trkpt>
      <trkpt lat="48.13569420017302036285400390625" lon="9.4749031774699687957763671875">
        <ele>533</ele>
        <time>2018-08-16T11:04:44.000Z</time>
      </trkpt>
      <trkpt lat="48.13620432280004024505615234375" lon="9.47523451410233974456787109375">
        <ele>532.79998779296875</ele>
        <time>2018-08-16T11:04:51.000Z</time>
      </trkpt>
      <trkpt lat="48.13672215677797794342041015625" lon="9.4755685329437255859375">
        <ele>532.5999755859375</ele>
        <time>2018-08-16T11:04:58.000Z</time>
      </trkpt>
      <trkpt lat="48.13723881728947162628173828125" lon="9.4758982770144939422607421875">
        <ele>532.5999755859375</ele>
        <time>2018-08-16T11:05:05.000Z</time>
      </trkpt>
      <trkpt lat="48.13775061629712581634521484375" lon="9.47622408159077167510986328125">
        <ele>532.5999755859375</ele>
        <time>2018-08-16T11:05:12.000Z</time>
      </trkpt>
      <trkpt lat="48.1382531113922595977783203125" lon="9.4765515625476837158203125">
        <ele>532.79998779296875</ele>
        <time>2018-08-16T11:05:19.000Z</time>
      </trkpt>
      <trkpt lat="48.13847028650343418121337890625" lon="9.4766937196254730224609375">
        <ele>532.79998779296875</ele>
        <time>2018-08-16T11:05:22.000Z</time>
      </trkpt>
      <trkpt lat="48.138978816568851470947265625" lon="9.4770209491252899169921875">
        <ele>532.79998779296875</ele>
        <time>2018-08-16T11:05:29.000Z</time>
      </trkpt>
      <trkpt lat="48.13949002884328365325927734375" lon="9.477353207767009735107421875">
        <ele>532.79998779296875</ele>
        <time>2018-08-16T11:05:36.000Z</time>
      </trkpt>
      <trkpt lat="48.1400042586028575897216796875" lon="9.47768052108585834503173828125">
        <ele>532.5999755859375</ele>
        <time>2018-08-16T11:05:43.000Z</time>
      </trkpt>
      <trkpt lat="48.140224702656269073486328125" lon="9.47781622409820556640625">
        <ele>532.5999755859375</ele>
        <time>2018-08-16T11:05:46.000Z</time>
      </trkpt>
      <trkpt lat="48.14074295572936534881591796875" lon="9.478135742247104644775390625">
        <ele>532.4000244140625</ele>
        <time>2018-08-16T11:05:53.000Z</time>
      </trkpt>
      <trkpt lat="48.14127101562917232513427734375" lon="9.47847068309783935546875">
        <ele>532.4000244140625</ele>
        <time>2018-08-16T11:06:00.000Z</time>
      </trkpt>
      <trkpt lat="48.14164149574935436248779296875" lon="9.47871702723205089569091796875">
        <ele>532.20001220703125</ele>
        <time>2018-08-16T11:06:05.000Z</time>
      </trkpt>
      <trkpt lat="48.14193905331194400787353515625" lon="9.47891282849013805389404296875">
        <ele>532.20001220703125</ele>
        <time>2018-08-16T11:06:09.000Z</time>
      </trkpt>
      <trkpt lat="48.14246174879372119903564453125" lon="9.47925279848277568817138671875">
        <ele>531.79998779296875</ele>
        <time>2018-08-16T11:06:16.000Z</time>
      </trkpt>
      <trkpt lat="48.1429788284003734588623046875" lon="9.47958581149578094482421875">
        <ele>531.5999755859375</ele>
        <time>2018-08-16T11:06:23.000Z</time>
      </trkpt>
      <trkpt lat="48.1434804014861583709716796875" lon="9.4799054972827434539794921875">
        <ele>531.5999755859375</ele>
        <time>2018-08-16T11:06:30.000Z</time>
      </trkpt>
      <trkpt lat="48.14404643140733242034912109375" lon="9.4802736304700374603271484375">
        <ele>531.79998779296875</ele>
        <time>2018-08-16T11:06:38.000Z</time>
      </trkpt>
      <trkpt lat="48.144260756671428680419921875" lon="9.4804134406149387359619140625">
        <ele>531.79998779296875</ele>
        <time>2018-08-16T11:06:41.000Z</time>
      </trkpt>
      <trkpt lat="48.14476124010980129241943359375" lon="9.480731785297393798828125">
        <ele>531.79998779296875</ele>
        <time>2018-08-16T11:06:48.000Z</time>
      </trkpt>
      <trkpt lat="48.1449043191969394683837890625" lon="9.48081267066299915313720703125">
        <ele>531.79998779296875</ele>
        <time>2018-08-16T11:06:50.000Z</time>
      </trkpt>
      <trkpt lat="48.14511361531913280487060546875" lon="9.48093353770673274993896484375">
        <ele>531.5999755859375</ele>
        <time>2018-08-16T11:06:53.000Z</time>
      </trkpt>
      <trkpt lat="48.14540681429207324981689453125" lon="9.48112196289002895355224609375">
        <ele>531.5999755859375</ele>
        <time>2018-08-16T11:06:57.000Z</time>
      </trkpt>
      <trkpt lat="48.145554922521114349365234375" lon="9.48122464120388031005859375">
        <ele>531.4000244140625</ele>
        <time>2018-08-16T11:06:59.000Z</time>
      </trkpt>
      <trkpt lat="48.145922385156154632568359375" lon="9.48149780742824077606201171875">
        <ele>531.20001220703125</ele>
        <time>2018-08-16T11:07:04.000Z</time>
      </trkpt>
      <trkpt lat="48.14599656499922275543212890625" lon="9.4815547205507755279541015625">
        <ele>531.20001220703125</ele>
        <time>2018-08-16T11:07:05.000Z</time>
      </trkpt>
      <trkpt lat="48.1462906859815120697021484375" lon="9.4817746616899967193603515625">
        <ele>531.20001220703125</ele>
        <time>2018-08-16T11:07:09.000Z</time>
      </trkpt>
      <trkpt lat="48.146435357630252838134765625" lon="9.4818846322596073150634765625">
        <ele>531.20001220703125</ele>
        <time>2018-08-16T11:07:11.000Z</time>
      </trkpt>
      <trkpt lat="48.1467195041477680206298828125" lon="9.48210616596043109893798828125">
        <ele>531.20001220703125</ele>
        <time>2018-08-16T11:07:15.000Z</time>
      </trkpt>
      <trkpt lat="48.147217892110347747802734375" lon="9.4825112633407115936279296875">
        <ele>531.20001220703125</ele>
        <time>2018-08-16T11:07:22.000Z</time>
      </trkpt>
      <trkpt lat="48.1475583650171756744384765625" lon="9.4827825017273426055908203125">
        <ele>531</ele>
        <time>2018-08-16T11:07:27.000Z</time>
      </trkpt>
      <trkpt lat="48.1480190344154834747314453125" lon="9.48320520110428333282470703125">
        <ele>530.79998779296875</ele>
        <time>2018-08-16T11:07:34.000Z</time>
      </trkpt>
      <trkpt lat="48.14816177822649478912353515625" lon="9.483243338763713836669921875">
        <ele>530.79998779296875</ele>
        <time>2018-08-16T11:07:36.000Z</time>
      </trkpt>
      <trkpt lat="48.14858657307922840118408203125" lon="9.483096487820148468017578125">
        <ele>530.5999755859375</ele>
        <time>2018-08-16T11:07:44.000Z</time>
      </trkpt>
      <trkpt lat="48.14866418950259685516357421875" lon="9.4831980764865875244140625">
        <ele>530.5999755859375</ele>
        <time>2018-08-16T11:07:46.000Z</time>
      </trkpt>
      <trkpt lat="48.14879335463047027587890625" lon="9.48336797766387462615966796875">
        <ele>530.79998779296875</ele>
        <time>2018-08-16T11:07:50.000Z</time>
      </trkpt>
      <trkpt lat="48.14880969934165477752685546875" lon="9.48340971954166889190673828125">
        <ele>530.79998779296875</ele>
        <time>2018-08-16T11:07:51.000Z</time>
      </trkpt>
      <trkpt lat="48.1487898342311382293701171875" lon="9.48355388827621936798095703125">
        <ele>531.20001220703125</ele>
        <time>2018-08-16T11:07:54.000Z</time>
      </trkpt>
      <trkpt lat="48.14876812510192394256591796875" lon="9.4836012460291385650634765625">
        <ele>531.4000244140625</ele>
        <time>2018-08-16T11:07:55.000Z</time>
      </trkpt>
      <trkpt lat="48.1487430632114410400390625" lon="9.4836542196571826934814453125">
        <ele>531.5999755859375</ele>
        <time>2018-08-16T11:07:56.000Z</time>
      </trkpt>
      <trkpt lat="48.1486295722424983978271484375" lon="9.483909197151660919189453125">
        <ele>532.20001220703125</ele>
        <time>2018-08-16T11:08:00.000Z</time>
      </trkpt>
      <trkpt lat="48.14860132522881031036376953125" lon="9.4839841313660144805908203125">
        <ele>532.4000244140625</ele>
        <time>2018-08-16T11:08:01.000Z</time>
      </trkpt>
      <trkpt lat="48.148347437381744384765625" lon="9.4846196472644805908203125">
        <ele>532.79998779296875</ele>
        <time>2018-08-16T11:08:09.000Z</time>
      </trkpt>
      <trkpt lat="48.14837384037673473358154296875" lon="9.4847830943763256072998046875">
        <ele>533</ele>
        <time>2018-08-16T11:08:11.000Z</time>
      </trkpt>
      <trkpt lat="48.1485192663967609405517578125" lon="9.484959281980991363525390625">
        <ele>533</ele>
        <time>2018-08-16T11:08:14.000Z</time>
      </trkpt>
      <trkpt lat="48.14868606626987457275390625" lon="9.48514846153557300567626953125">
        <ele>532.79998779296875</ele>
        <time>2018-08-16T11:08:17.000Z</time>
      </trkpt>
      <trkpt lat="48.1491105258464813232421875" lon="9.4857802055776119232177734375">
        <ele>532.4000244140625</ele>
        <time>2018-08-16T11:08:25.000Z</time>
      </trkpt>
      <trkpt lat="48.14947941340506076812744140625" lon="9.486404992640018463134765625">
        <ele>532</ele>
        <time>2018-08-16T11:08:32.000Z</time>
      </trkpt>
      <trkpt lat="48.1498509831726551055908203125" lon="9.48703606612980365753173828125">
        <ele>531.79998779296875</ele>
        <time>2018-08-16T11:08:39.000Z</time>
      </trkpt>
      <trkpt lat="48.15023127011954784393310546875" lon="9.487683735787868499755859375">
        <ele>531.79998779296875</ele>
        <time>2018-08-16T11:08:46.000Z</time>
      </trkpt>
      <trkpt lat="48.150391280651092529296875" lon="9.48796830140054225921630859375">
        <ele>531.4000244140625</ele>
        <time>2018-08-16T11:08:49.000Z</time>
      </trkpt>
      <trkpt lat="48.15076955594122409820556640625" lon="9.48862309567630290985107421875">
        <ele>531.4000244140625</ele>
        <time>2018-08-16T11:08:56.000Z</time>
      </trkpt>
      <trkpt lat="48.15114590339362621307373046875" lon="9.48925517499446868896484375">
        <ele>532</ele>
        <time>2018-08-16T11:09:03.000Z</time>
      </trkpt>
      <trkpt lat="48.15130918286740779876708984375" lon="9.48952700011432170867919921875">
        <ele>532</ele>
        <time>2018-08-16T11:09:06.000Z</time>
      </trkpt>
      <trkpt lat="48.15157740376889705657958984375" lon="9.48998012579977512359619140625">
        <ele>532.4000244140625</ele>
        <time>2018-08-16T11:09:11.000Z</time>
      </trkpt>
      <trkpt lat="48.15178292803466320037841796875" lon="9.49034306220710277557373046875">
        <ele>532.4000244140625</ele>
        <time>2018-08-16T11:09:15.000Z</time>
      </trkpt>
      <trkpt lat="48.15206640399992465972900390625" lon="9.490888305008411407470703125">
        <ele>532.79998779296875</ele>
        <time>2018-08-16T11:09:21.000Z</time>
      </trkpt>
      <trkpt lat="48.152204789221286773681640625" lon="9.49116834439337253570556640625">
        <ele>532.79998779296875</ele>
        <time>2018-08-16T11:09:24.000Z</time>
      </trkpt>
      <trkpt lat="48.15253092907369136810302734375" lon="9.49187275953590869903564453125">
        <ele>533.79998779296875</ele>
        <time>2018-08-16T11:09:32.000Z</time>
      </trkpt>
      <trkpt lat="48.15267660655081272125244140625" lon="9.49220518581569194793701171875">
        <ele>534.20001220703125</ele>
        <time>2018-08-16T11:09:36.000Z</time>
      </trkpt>
      <trkpt lat="48.15279093571007251739501953125" lon="9.49245010502636432647705078125">
        <ele>534.5999755859375</ele>
        <time>2018-08-16T11:09:39.000Z</time>
      </trkpt>
      <trkpt lat="48.15315236337482929229736328125" lon="9.49317245744168758392333984375">
        <ele>535.4000244140625</ele>
        <time>2018-08-16T11:09:48.000Z</time>
      </trkpt>
      <trkpt lat="48.15324305556714534759521484375" lon="9.4933287799358367919921875">
        <ele>536</ele>
        <time>2018-08-16T11:09:50.000Z</time>
      </trkpt>
      <trkpt lat="48.153567351400852203369140625" lon="9.49387653730809688568115234375">
        <ele>536.5999755859375</ele>
        <time>2018-08-16T11:09:57.000Z</time>
      </trkpt>
      <trkpt lat="48.1537116877734661102294921875" lon="9.4941087998449802398681640625">
        <ele>537.20001220703125</ele>
        <time>2018-08-16T11:10:00.000Z</time>
      </trkpt>
      <trkpt lat="48.1541155278682708740234375" lon="9.4946982152760028839111328125">
        <ele>537.79998779296875</ele>
        <time>2018-08-16T11:10:08.000Z</time>
      </trkpt>
      <trkpt lat="48.15422574989497661590576171875" lon="9.4948375225067138671875">
        <ele>538.20001220703125</ele>
        <time>2018-08-16T11:10:10.000Z</time>
      </trkpt>
      <trkpt lat="48.15461433492600917816162109375" lon="9.49529123492538928985595703125">
        <ele>539.20001220703125</ele>
        <time>2018-08-16T11:10:17.000Z</time>
      </trkpt>
      <trkpt lat="48.15507466904819011688232421875" lon="9.49578777886927127838134765625">
        <ele>540.20001220703125</ele>
        <time>2018-08-16T11:10:25.000Z</time>
      </trkpt>
      <trkpt lat="48.155133761465549468994140625" lon="9.49584745801985263824462890625">
        <ele>540.4000244140625</ele>
        <time>2018-08-16T11:10:26.000Z</time>
      </trkpt>
      <trkpt lat="48.15559585578739643096923828125" lon="9.49628331698477268218994140625">
        <ele>541.20001220703125</ele>
        <time>2018-08-16T11:10:34.000Z</time>
      </trkpt>
      <trkpt lat="48.15581328235566616058349609375" lon="9.4964728318154811859130859375">
        <ele>541.4000244140625</ele>
        <time>2018-08-16T11:10:38.000Z</time>
      </trkpt>
      <trkpt lat="48.1560093350708484649658203125" lon="9.49666611850261688232421875">
        <ele>541.5999755859375</ele>
        <time>2018-08-16T11:10:42.000Z</time>
      </trkpt>
      <trkpt lat="48.15614403225481510162353515625" lon="9.4968138076364994049072265625">
        <ele>541.5999755859375</ele>
        <time>2018-08-16T11:10:45.000Z</time>
      </trkpt>
      <trkpt lat="48.156228102743625640869140625" lon="9.49690307490527629852294921875">
        <ele>541.5999755859375</ele>
        <time>2018-08-16T11:10:47.000Z</time>
      </trkpt>
      <trkpt lat="48.15626598894596099853515625" lon="9.496955461800098419189453125">
        <ele>541.5999755859375</ele>
        <time>2018-08-16T11:10:48.000Z</time>
      </trkpt>
      <trkpt lat="48.15636430867016315460205078125" lon="9.49723206460475921630859375">
        <ele>541.79998779296875</ele>
        <time>2018-08-16T11:10:52.000Z</time>
      </trkpt>
      <trkpt lat="48.1563938967883586883544921875" lon="9.49730138294398784637451171875">
        <ele>541.79998779296875</ele>
        <time>2018-08-16T11:10:53.000Z</time>
      </trkpt>
      <trkpt lat="48.1564378179609775543212890625" lon="9.4973589666187763214111328125">
        <ele>541.79998779296875</ele>
        <time>2018-08-16T11:10:54.000Z</time>
      </trkpt>
      <trkpt lat="48.156486935913562774658203125" lon="9.4974057376384735107421875">
        <ele>541.79998779296875</ele>
        <time>2018-08-16T11:10:55.000Z</time>
      </trkpt>
      <trkpt lat="48.15653647296130657196044921875" lon="9.4974508322775363922119140625">
        <ele>541.79998779296875</ele>
        <time>2018-08-16T11:10:56.000Z</time>
      </trkpt>
      <trkpt lat="48.1565836630761623382568359375" lon="9.4975024648010730743408203125">
        <ele>541.79998779296875</ele>
        <time>2018-08-16T11:10:57.000Z</time>
      </trkpt>
      <trkpt lat="48.15666832029819488525390625" lon="9.4976342283189296722412109375">
        <ele>541.79998779296875</ele>
        <time>2018-08-16T11:10:59.000Z</time>
      </trkpt>
      <trkpt lat="48.15685196779668331146240234375" lon="9.49803496710956096649169921875">
        <ele>542</ele>
        <time>2018-08-16T11:11:04.000Z</time>
      </trkpt>
      <trkpt lat="48.157027065753936767578125" lon="9.4984911940991878509521484375">
        <ele>542.20001220703125</ele>
        <time>2018-08-16T11:11:09.000Z</time>
      </trkpt>
      <trkpt lat="48.157272823154926300048828125" lon="9.499283619225025177001953125">
        <ele>542.20001220703125</ele>
        <time>2018-08-16T11:11:17.000Z</time>
      </trkpt>
      <trkpt lat="48.15750072710216045379638671875" lon="9.50007478706538677215576171875">
        <ele>542.20001220703125</ele>
        <time>2018-08-16T11:11:25.000Z</time>
      </trkpt>
      <trkpt lat="48.1575858034193515777587890625" lon="9.50037368573248386383056640625">
        <ele>542.4000244140625</ele>
        <time>2018-08-16T11:11:28.000Z</time>
      </trkpt>
      <trkpt lat="48.15781471319496631622314453125" lon="9.50118756853044033050537109375">
        <ele>542.4000244140625</ele>
        <time>2018-08-16T11:11:36.000Z</time>
      </trkpt>
      <trkpt lat="48.15789953805506229400634765625" lon="9.50149635784327983856201171875">
        <ele>542.4000244140625</ele>
        <time>2018-08-16T11:11:39.000Z</time>
      </trkpt>
      <trkpt lat="48.1580105982720851898193359375" lon="9.50191008858382701873779296875">
        <ele>542.5999755859375</ele>
        <time>2018-08-16T11:11:43.000Z</time>
      </trkpt>
      <trkpt lat="48.15817781724035739898681640625" lon="9.50251467525959014892578125">
        <ele>542.79998779296875</ele>
        <time>2018-08-16T11:11:49.000Z</time>
      </trkpt>
      <trkpt lat="48.15826733596622943878173828125" lon="9.50283260084688663482666015625">
        <ele>542.79998779296875</ele>
        <time>2018-08-16T11:11:52.000Z</time>
      </trkpt>
      <trkpt lat="48.158389292657375335693359375" lon="9.503256641328334808349609375">
        <ele>542.79998779296875</ele>
        <time>2018-08-16T11:11:56.000Z</time>
      </trkpt>
      <trkpt lat="48.15851124934852123260498046875" lon="9.50368152000010013580322265625">
        <ele>542.5999755859375</ele>
        <time>2018-08-16T11:12:00.000Z</time>
      </trkpt>
      <trkpt lat="48.1586399115622043609619140625" lon="9.50410044752061367034912109375">
        <ele>542.5999755859375</ele>
        <time>2018-08-16T11:12:04.000Z</time>
      </trkpt>
      <trkpt lat="48.15874032676219940185546875" lon="9.50441636145114898681640625">
        <ele>542.5999755859375</ele>
        <time>2018-08-16T11:12:07.000Z</time>
      </trkpt>
      <trkpt lat="48.158955909311771392822265625" lon="9.50504508800804615020751953125">
        <ele>542.79998779296875</ele>
        <time>2018-08-16T11:12:13.000Z</time>
      </trkpt>
      <trkpt lat="48.1589932925999164581298828125" lon="9.50514885596930980682373046875">
        <ele>542.79998779296875</ele>
        <time>2018-08-16T11:12:14.000Z</time>
      </trkpt>
      <trkpt lat="48.15921549685299396514892578125" lon="9.50575503520667552947998046875">
        <ele>543.5999755859375</ele>
        <time>2018-08-16T11:12:20.000Z</time>
      </trkpt>
      <trkpt lat="48.15947097726166248321533203125" lon="9.50640580616891384124755859375">
        <ele>544.20001220703125</ele>
        <time>2018-08-16T11:12:27.000Z</time>
      </trkpt>
      <trkpt lat="48.1596060097217559814453125" lon="9.5067889429628849029541015625">
        <ele>544.20001220703125</ele>
        <time>2018-08-16T11:12:31.000Z</time>
      </trkpt>
      <trkpt lat="48.15971455536782741546630859375" lon="9.50707501731812953948974609375">
        <ele>544.20001220703125</ele>
        <time>2018-08-16T11:12:34.000Z</time>
      </trkpt>
      <trkpt lat="48.160005994141101837158203125" lon="9.50785654596984386444091796875">
        <ele>544</ele>
        <time>2018-08-16T11:12:42.000Z</time>
      </trkpt>
      <trkpt lat="48.16015250980854034423828125" lon="9.5082386769354343414306640625">
        <ele>543.79998779296875</ele>
        <time>2018-08-16T11:12:46.000Z</time>
      </trkpt>
      <trkpt lat="48.16043573431670665740966796875" lon="9.508998580276966094970703125">
        <ele>543.79998779296875</ele>
        <time>2018-08-16T11:12:54.000Z</time>
      </trkpt>
      <trkpt lat="48.1607270054519176483154296875" lon="9.50978404842317104339599609375">
        <ele>543.79998779296875</ele>
        <time>2018-08-16T11:13:02.000Z</time>
      </trkpt>
      <trkpt lat="48.16092230379581451416015625" lon="9.51029031537473201751708984375">
        <ele>543.4000244140625</ele>
        <time>2018-08-16T11:13:07.000Z</time>
      </trkpt>
      <trkpt lat="48.161086924374103546142578125" lon="9.5106855221092700958251953125">
        <ele>543</ele>
        <time>2018-08-16T11:13:11.000Z</time>
      </trkpt>
      <trkpt lat="48.16139915026724338531494140625" lon="9.51135179959237575531005859375">
        <ele>543</ele>
        <time>2018-08-16T11:13:18.000Z</time>
      </trkpt>
      <trkpt lat="48.16153409890830516815185546875" lon="9.51162018813192844390869140625">
        <ele>543</ele>
        <time>2018-08-16T11:13:21.000Z</time>
      </trkpt>
      <trkpt lat="48.1617221049964427947998046875" lon="9.51195965521037578582763671875">
        <ele>542.79998779296875</ele>
        <time>2018-08-16T11:13:25.000Z</time>
      </trkpt>
      <trkpt lat="48.16201086156070232391357421875" lon="9.51248302124440670013427734375">
        <ele>542.5999755859375</ele>
        <time>2018-08-16T11:13:31.000Z</time>
      </trkpt>
      <trkpt lat="48.16216492094099521636962890625" lon="9.51274202205240726470947265625">
        <ele>542.4000244140625</ele>
        <time>2018-08-16T11:13:34.000Z</time>
      </trkpt>
      <trkpt lat="48.162553422152996063232421875" lon="9.5133979059755802154541015625">
        <ele>541.79998779296875</ele>
        <time>2018-08-16T11:13:42.000Z</time>
      </trkpt>
      <trkpt lat="48.162706308066844940185546875" lon="9.5136671327054500579833984375">
        <ele>541.79998779296875</ele>
        <time>2018-08-16T11:13:45.000Z</time>
      </trkpt>
      <trkpt lat="48.16295919008553028106689453125" lon="9.51411749236285686492919921875">
        <ele>542</ele>
        <time>2018-08-16T11:13:50.000Z</time>
      </trkpt>
      <trkpt lat="48.163350038230419158935546875" lon="9.5148271881043910980224609375">
        <ele>542.4000244140625</ele>
        <time>2018-08-16T11:13:58.000Z</time>
      </trkpt>
      <trkpt lat="48.1636938638985157012939453125" lon="9.51550235040485858917236328125">
        <ele>542.4000244140625</ele>
        <time>2018-08-16T11:14:05.000Z</time>
      </trkpt>
      <trkpt lat="48.16402788273990154266357421875" lon="9.51616452075541019439697265625">
        <ele>541.5999755859375</ele>
        <time>2018-08-16T11:14:12.000Z</time>
      </trkpt>
      <trkpt lat="48.16437221132218837738037109375" lon="9.5168485678732395172119140625">
        <ele>541</ele>
        <time>2018-08-16T11:14:19.000Z</time>
      </trkpt>
      <trkpt lat="48.16451378166675567626953125" lon="9.5171320438385009765625">
        <ele>540.5999755859375</ele>
        <time>2018-08-16T11:14:22.000Z</time>
      </trkpt>
      <trkpt lat="48.16455929540097713470458984375" lon="9.51722516678273677825927734375">
        <ele>540.5999755859375</ele>
        <time>2018-08-16T11:14:23.000Z</time>
      </trkpt>
      <trkpt lat="48.16473229788243770599365234375" lon="9.5176022686064243316650390625">
        <ele>540.20001220703125</ele>
        <time>2018-08-16T11:14:27.000Z</time>
      </trkpt>
      <trkpt lat="48.1647754646837711334228515625" lon="9.5176948048174381256103515625">
        <ele>540.20001220703125</ele>
        <time>2018-08-16T11:14:28.000Z</time>
      </trkpt>
      <trkpt lat="48.16481494344770908355712890625" lon="9.51777921058237552642822265625">
        <ele>540</ele>
        <time>2018-08-16T11:14:29.000Z</time>
      </trkpt>
      <trkpt lat="48.16487931646406650543212890625" lon="9.517900831997394561767578125">
        <ele>539.5999755859375</ele>
        <time>2018-08-16T11:14:31.000Z</time>
      </trkpt>
      <trkpt lat="48.16497235558927059173583984375" lon="9.51802463270723819732666015625">
        <ele>539.20001220703125</ele>
        <time>2018-08-16T11:14:34.000Z</time>
      </trkpt>
      <trkpt lat="48.16500286571681499481201171875" lon="9.51808623969554901123046875">
        <ele>539.20001220703125</ele>
        <time>2018-08-16T11:14:35.000Z</time>
      </trkpt>
      <trkpt lat="48.16506891511380672454833984375" lon="9.51823719777166843414306640625">
        <ele>539</ele>
        <time>2018-08-16T11:14:37.000Z</time>
      </trkpt>
      <trkpt lat="48.16513739526271820068359375" lon="9.518411122262477874755859375">
        <ele>538.4000244140625</ele>
        <time>2018-08-16T11:14:39.000Z</time>
      </trkpt>
      <trkpt lat="48.1652922928333282470703125" lon="9.51879710890352725982666015625">
        <ele>538</ele>
        <time>2018-08-16T11:14:43.000Z</time>
      </trkpt>
      <trkpt lat="48.1654612720012664794921875" lon="9.51921452768146991729736328125">
        <ele>537.5999755859375</ele>
        <time>2018-08-16T11:14:47.000Z</time>
      </trkpt>
      <trkpt lat="48.16550628282129764556884765625" lon="9.519319720566272735595703125">
        <ele>537.4000244140625</ele>
        <time>2018-08-16T11:14:48.000Z</time>
      </trkpt>
      <trkpt lat="48.165845833718776702880859375" lon="9.52001231722533702850341796875">
        <ele>536.4000244140625</ele>
        <time>2018-08-16T11:14:55.000Z</time>
      </trkpt>
      <trkpt lat="48.1660361029207706451416015625" lon="9.5204001478850841522216796875">
        <ele>535.5999755859375</ele>
        <time>2018-08-16T11:14:59.000Z</time>
      </trkpt>
      <trkpt lat="48.16617985256016254425048828125" lon="9.52069468796253204345703125">
        <ele>535.20001220703125</ele>
        <time>2018-08-16T11:15:02.000Z</time>
      </trkpt>
      <trkpt lat="48.1663586385548114776611328125" lon="9.5211059041321277618408203125">
        <ele>535</ele>
        <time>2018-08-16T11:15:06.000Z</time>
      </trkpt>
      <trkpt lat="48.16642577759921550750732421875" lon="9.5213214866816997528076171875">
        <ele>535</ele>
        <time>2018-08-16T11:15:08.000Z</time>
      </trkpt>
      <trkpt lat="48.1665829382836818695068359375" lon="9.52195088379085063934326171875">
        <ele>534.79998779296875</ele>
        <time>2018-08-16T11:15:14.000Z</time>
      </trkpt>
      <trkpt lat="48.1665906496345996856689453125" lon="9.52214819379150867462158203125">
        <ele>534.79998779296875</ele>
        <time>2018-08-16T11:15:16.000Z</time>
      </trkpt>
      <trkpt lat="48.16658503375947475433349609375" lon="9.52243284322321414947509765625">
        <ele>534.79998779296875</ele>
        <time>2018-08-16T11:15:19.000Z</time>
      </trkpt>
      <trkpt lat="48.16658486612141132354736328125" lon="9.52262026257812976837158203125">
        <ele>535</ele>
        <time>2018-08-16T11:15:21.000Z</time>
      </trkpt>
      <trkpt lat="48.166574724018573760986328125" lon="9.522883705794811248779296875">
        <ele>535.5999755859375</ele>
        <time>2018-08-16T11:15:24.000Z</time>
      </trkpt>
      <trkpt lat="48.1665916554629802703857421875" lon="9.523050673305988311767578125">
        <ele>536.4000244140625</ele>
        <time>2018-08-16T11:15:26.000Z</time>
      </trkpt>
      <trkpt lat="48.1665990315377712249755859375" lon="9.52313440851867198944091796875">
        <ele>536.5999755859375</ele>
        <time>2018-08-16T11:15:27.000Z</time>
      </trkpt>
      <trkpt lat="48.16663582809269428253173828125" lon="9.52338770963251590728759765625">
        <ele>537.4000244140625</ele>
        <time>2018-08-16T11:15:30.000Z</time>
      </trkpt>
      <trkpt lat="48.1666841916739940643310546875" lon="9.523634724318981170654296875">
        <ele>538.4000244140625</ele>
        <time>2018-08-16T11:15:33.000Z</time>
      </trkpt>
      <trkpt lat="48.166698776185512542724609375" lon="9.52398709952831268310546875">
        <ele>539</ele>
        <time>2018-08-16T11:15:37.000Z</time>
      </trkpt>
      <trkpt lat="48.1666563637554645538330078125" lon="9.524331428110599517822265625">
        <ele>539.5999755859375</ele>
        <time>2018-08-16T11:15:41.000Z</time>
      </trkpt>
      <trkpt lat="48.16664907149970531463623046875" lon="9.52441650442779064178466796875">
        <ele>539.5999755859375</ele>
        <time>2018-08-16T11:15:42.000Z</time>
      </trkpt>
      <trkpt lat="48.166690729558467864990234375" lon="9.52503073029220104217529296875">
        <ele>540.5999755859375</ele>
        <time>2018-08-16T11:15:49.000Z</time>
      </trkpt>
      <trkpt lat="48.166810087859630584716796875" lon="9.525633640587329864501953125">
        <ele>541.4000244140625</ele>
        <time>2018-08-16T11:15:56.000Z</time>
      </trkpt>
      <trkpt lat="48.1668374128639698028564453125" lon="9.52571519650518894195556640625">
        <ele>541.5999755859375</ele>
        <time>2018-08-16T11:15:57.000Z</time>
      </trkpt>
      <trkpt lat="48.166985101997852325439453125" lon="9.5258835889399051666259765625">
        <ele>542.20001220703125</ele>
        <time>2018-08-16T11:16:00.000Z</time>
      </trkpt>
      <trkpt lat="48.16722725518047809600830078125" lon="9.52606941573321819305419921875">
        <ele>542.79998779296875</ele>
        <time>2018-08-16T11:16:04.000Z</time>
      </trkpt>
      <trkpt lat="48.167739808559417724609375" lon="9.52652974985539913177490234375">
        <ele>543</ele>
        <time>2018-08-16T11:16:12.000Z</time>
      </trkpt>
      <trkpt lat="48.16785656847059726715087890625" lon="9.52666671015322208404541015625">
        <ele>542.79998779296875</ele>
        <time>2018-08-16T11:16:14.000Z</time>
      </trkpt>
      <trkpt lat="48.1680142320692539215087890625" lon="9.52690743841230869293212890625">
        <ele>542.5999755859375</ele>
        <time>2018-08-16T11:16:17.000Z</time>
      </trkpt>
      <trkpt lat="48.168154545128345489501953125" lon="9.52716861851513385772705078125">
        <ele>542</ele>
        <time>2018-08-16T11:16:20.000Z</time>
      </trkpt>
      <trkpt lat="48.16846023313701152801513671875" lon="9.5277876220643520355224609375">
        <ele>542</ele>
        <time>2018-08-16T11:16:27.000Z</time>
      </trkpt>
      <trkpt lat="48.16883272491395473480224609375" lon="9.5284732617437839508056640625">
        <ele>542.4000244140625</ele>
        <time>2018-08-16T11:16:35.000Z</time>
      </trkpt>
      <trkpt lat="48.1692507304251194000244140625" lon="9.5290328375995159149169921875">
        <ele>543.20001220703125</ele>
        <time>2018-08-16T11:16:43.000Z</time>
      </trkpt>
      <trkpt lat="48.169543929398059844970703125" lon="9.529432319104671478271484375">
        <ele>543.5999755859375</ele>
        <time>2018-08-16T11:16:49.000Z</time>
      </trkpt>
      <trkpt lat="48.16958944313228130340576171875" lon="9.529496692121028900146484375">
        <ele>543.79998779296875</ele>
        <time>2018-08-16T11:16:50.000Z</time>
      </trkpt>
      <trkpt lat="48.169714920222759246826171875" lon="9.52968268655240535736083984375">
        <ele>544.20001220703125</ele>
        <time>2018-08-16T11:16:53.000Z</time>
      </trkpt>
      <trkpt lat="48.1698331050574779510498046875" lon="9.52986105345189571380615234375">
        <ele>544.79998779296875</ele>
        <time>2018-08-16T11:16:56.000Z</time>
      </trkpt>
      <trkpt lat="48.16994366236031055450439453125" lon="9.5300299488008022308349609375">
        <ele>545.79998779296875</ele>
        <time>2018-08-16T11:16:59.000Z</time>
      </trkpt>
      <trkpt lat="48.169977106153964996337890625" lon="9.53008568845689296722412109375">
        <ele>546</ele>
        <time>2018-08-16T11:17:00.000Z</time>
      </trkpt>
      <trkpt lat="48.17010643891990184783935546875" lon="9.5302934758365154266357421875">
        <ele>547</ele>
        <time>2018-08-16T11:17:04.000Z</time>
      </trkpt>
      <trkpt lat="48.17013862542808055877685546875" lon="9.53034368343651294708251953125">
        <ele>547.4000244140625</ele>
        <time>2018-08-16T11:17:05.000Z</time>
      </trkpt>
      <trkpt lat="48.1702029146254062652587890625" lon="9.530447535216808319091796875">
        <ele>548</ele>
        <time>2018-08-16T11:17:07.000Z</time>
      </trkpt>
      <trkpt lat="48.170235268771648406982421875" lon="9.5304983295500278472900390625">
        <ele>548.4000244140625</ele>
        <time>2018-08-16T11:17:08.000Z</time>
      </trkpt>
      <trkpt lat="48.17036694847047328948974609375" lon="9.530715756118297576904296875">
        <ele>549.4000244140625</ele>
        <time>2018-08-16T11:17:12.000Z</time>
      </trkpt>
      <trkpt lat="48.17047675140202045440673828125" lon="9.5308973081409931182861328125">
        <ele>550.4000244140625</ele>
        <time>2018-08-16T11:17:15.000Z</time>
      </trkpt>
      <trkpt lat="48.17058471031486988067626953125" lon="9.5310786925256252288818359375">
        <ele>551.5999755859375</ele>
        <time>2018-08-16T11:17:18.000Z</time>
      </trkpt>
      <trkpt lat="48.170831389725208282470703125" lon="9.53153341077268123626708984375">
        <ele>552.5999755859375</ele>
        <time>2018-08-16T11:17:25.000Z</time>
      </trkpt>
      <trkpt lat="48.17106868140399456024169921875" lon="9.5320813357830047607421875">
        <ele>553.79998779296875</ele>
        <time>2018-08-16T11:17:33.000Z</time>
      </trkpt>
      <trkpt lat="48.1712607108056545257568359375" lon="9.53256656415760517120361328125">
        <ele>555</ele>
        <time>2018-08-16T11:17:40.000Z</time>
      </trkpt>
      <trkpt lat="48.171409405767917633056640625" lon="9.53292497433722019195556640625">
        <ele>556</ele>
        <time>2018-08-16T11:17:45.000Z</time>
      </trkpt>
      <trkpt lat="48.17170335911214351654052734375" lon="9.53355445526540279388427734375">
        <ele>557.20001220703125</ele>
        <time>2018-08-16T11:17:54.000Z</time>
      </trkpt>
      <trkpt lat="48.17205204628407955169677734375" lon="9.5341518335044384002685546875">
        <ele>558.20001220703125</ele>
        <time>2018-08-16T11:18:03.000Z</time>
      </trkpt>
      <trkpt lat="48.17212480120360851287841796875" lon="9.53430396504700183868408203125">
        <ele>558.4000244140625</ele>
        <time>2018-08-16T11:18:05.000Z</time>
      </trkpt>
      <trkpt lat="48.17241900600492954254150390625" lon="9.5349457673728466033935546875">
        <ele>559</ele>
        <time>2018-08-16T11:18:13.000Z</time>
      </trkpt>
      <trkpt lat="48.17249746061861515045166015625" lon="9.5351053588092327117919921875">
        <ele>559.20001220703125</ele>
        <time>2018-08-16T11:18:15.000Z</time>
      </trkpt>
      <trkpt lat="48.17265965044498443603515625" lon="9.53542345203459262847900390625">
        <ele>559.20001220703125</ele>
        <time>2018-08-16T11:18:19.000Z</time>
      </trkpt>
      <trkpt lat="48.17270047031342983245849609375" lon="9.53550324775278568267822265625">
        <ele>559.4000244140625</ele>
        <time>2018-08-16T11:18:20.000Z</time>
      </trkpt>
      <trkpt lat="48.17295041866600513458251953125" lon="9.5359764061868190765380859375">
        <ele>559.5999755859375</ele>
        <time>2018-08-16T11:18:26.000Z</time>
      </trkpt>
      <trkpt lat="48.17319584079086780548095703125" lon="9.53645576722919940948486328125">
        <ele>560</ele>
        <time>2018-08-16T11:18:32.000Z</time>
      </trkpt>
      <trkpt lat="48.17340354435145854949951171875" lon="9.536860026419162750244140625">
        <ele>560.20001220703125</ele>
        <time>2018-08-16T11:18:37.000Z</time>
      </trkpt>
      <trkpt lat="48.17370043136179447174072265625" lon="9.53743728809058666229248046875">
        <ele>560.5999755859375</ele>
        <time>2018-08-16T11:18:44.000Z</time>
      </trkpt>
      <trkpt lat="48.17404056899249553680419921875" lon="9.53808152116835117340087890625">
        <ele>561.4000244140625</ele>
        <time>2018-08-16T11:18:52.000Z</time>
      </trkpt>
      <trkpt lat="48.17418373189866542816162109375" lon="9.53830112703144550323486328125">
        <ele>561.5999755859375</ele>
        <time>2018-08-16T11:18:55.000Z</time>
      </trkpt>
      <trkpt lat="48.1744113005697727203369140625" lon="9.53854453749954700469970703125">
        <ele>562</ele>
        <time>2018-08-16T11:18:59.000Z</time>
      </trkpt>
      <trkpt lat="48.17453929223120212554931640625" lon="9.53863732516765594482421875">
        <ele>562.20001220703125</ele>
        <time>2018-08-16T11:19:01.000Z</time>
      </trkpt>
      <trkpt lat="48.1746731512248516082763671875" lon="9.538709409534931182861328125">
        <ele>562.20001220703125</ele>
        <time>2018-08-16T11:19:03.000Z</time>
      </trkpt>
      <trkpt lat="48.17509174346923828125" lon="9.53890294767916202545166015625">
        <ele>562.5999755859375</ele>
        <time>2018-08-16T11:19:09.000Z</time>
      </trkpt>
      <trkpt lat="48.175230212509632110595703125" lon="9.5389764569699764251708984375">
        <ele>562.5999755859375</ele>
        <time>2018-08-16T11:19:11.000Z</time>
      </trkpt>
      <trkpt lat="48.17543984390795230865478515625" lon="9.53910947777330875396728515625">
        <ele>562.5999755859375</ele>
        <time>2018-08-16T11:19:14.000Z</time>
      </trkpt>
      <trkpt lat="48.1757718510925769805908203125" lon="9.53941826708614826202392578125">
        <ele>562.5999755859375</ele>
        <time>2018-08-16T11:19:19.000Z</time>
      </trkpt>
      <trkpt lat="48.17592532373964786529541015625" lon="9.539428912103176116943359375">
        <ele>562.4000244140625</ele>
        <time>2018-08-16T11:19:21.000Z</time>
      </trkpt>
      <trkpt lat="48.176093213260173797607421875" lon="9.5393553189933300018310546875">
        <ele>562.4000244140625</ele>
        <time>2018-08-16T11:19:23.000Z</time>
      </trkpt>
      <trkpt lat="48.17618164233863353729248046875" lon="9.53931986354291439056396484375">
        <ele>562.20001220703125</ele>
        <time>2018-08-16T11:19:24.000Z</time>
      </trkpt>
      <trkpt lat="48.17653317935764789581298828125" lon="9.5394532196223735809326171875">
        <ele>561.5999755859375</ele>
        <time>2018-08-16T11:19:28.000Z</time>
      </trkpt>
      <trkpt lat="48.17660241387784481048583984375" lon="9.5395437441766262054443359375">
        <ele>561.4000244140625</ele>
        <time>2018-08-16T11:19:29.000Z</time>
      </trkpt>
      <trkpt lat="48.17667089402675628662109375" lon="9.53963737003505229949951171875">
        <ele>561.20001220703125</ele>
        <time>2018-08-16T11:19:30.000Z</time>
      </trkpt>
      <trkpt lat="48.17674222402274608612060546875" lon="9.53973091207444667816162109375">
        <ele>561</ele>
        <time>2018-08-16T11:19:31.000Z</time>
      </trkpt>
      <trkpt lat="48.17681749351322650909423828125" lon="9.53981925733387470245361328125">
        <ele>560.5999755859375</ele>
        <time>2018-08-16T11:19:32.000Z</time>
      </trkpt>
      <trkpt lat="48.1768953613936901092529296875" lon="9.5399041660130023956298828125">
        <ele>560</ele>
        <time>2018-08-16T11:19:33.000Z</time>
      </trkpt>
      <trkpt lat="48.17705084569752216339111328125" lon="9.5400724746286869049072265625">
        <ele>559.79998779296875</ele>
        <time>2018-08-16T11:19:35.000Z</time>
      </trkpt>
      <trkpt lat="48.177127875387668609619140625" lon="9.54015545547008514404296875">
        <ele>559.5999755859375</ele>
        <time>2018-08-16T11:19:36.000Z</time>
      </trkpt>
      <trkpt lat="48.17754663527011871337890625" lon="9.54071360640227794647216796875">
        <ele>559.20001220703125</ele>
        <time>2018-08-16T11:19:42.000Z</time>
      </trkpt>
      <trkpt lat="48.177732713520526885986328125" lon="9.54100043512880802154541015625">
        <ele>559</ele>
        <time>2018-08-16T11:19:45.000Z</time>
      </trkpt>
      <trkpt lat="48.17809305153787136077880859375" lon="9.541533105075359344482421875">
        <ele>559</ele>
        <time>2018-08-16T11:19:51.000Z</time>
      </trkpt>
      <trkpt lat="48.1784855760633945465087890625" lon="9.5421069301664829254150390625">
        <ele>559.20001220703125</ele>
        <time>2018-08-16T11:19:58.000Z</time>
      </trkpt>
      <trkpt lat="48.178874664008617401123046875" lon="9.542717300355434417724609375">
        <ele>560</ele>
        <time>2018-08-16T11:20:06.000Z</time>
      </trkpt>
      <trkpt lat="48.1789204291999340057373046875" lon="9.54278913326561450958251953125">
        <ele>560</ele>
        <time>2018-08-16T11:20:07.000Z</time>
      </trkpt>
      <trkpt lat="48.1792674399912357330322265625" lon="9.54346203245222568511962890625">
        <ele>561</ele>
        <time>2018-08-16T11:20:16.000Z</time>
      </trkpt>
      <trkpt lat="48.17934346385300159454345703125" lon="9.54362849704921245574951171875">
        <ele>561.20001220703125</ele>
        <time>2018-08-16T11:20:18.000Z</time>
      </trkpt>
      <trkpt lat="48.17945594899356365203857421875" lon="9.543890096247196197509765625">
        <ele>561.4000244140625</ele>
        <time>2018-08-16T11:20:21.000Z</time>
      </trkpt>
      <trkpt lat="48.17975602112710475921630859375" lon="9.5445348322391510009765625">
        <ele>562.20001220703125</ele>
        <time>2018-08-16T11:20:29.000Z</time>
      </trkpt>
      <trkpt lat="48.17983833141624927520751953125" lon="9.54466030932962894439697265625">
        <ele>562.5999755859375</ele>
        <time>2018-08-16T11:20:31.000Z</time>
      </trkpt>
      <trkpt lat="48.17989029921591281890869140625" lon="9.544689394533634185791015625">
        <ele>562.79998779296875</ele>
        <time>2018-08-16T11:20:32.000Z</time>
      </trkpt>
      <trkpt lat="48.180099762976169586181640625" lon="9.54487605951726436614990234375">
        <ele>563</ele>
        <time>2018-08-16T11:20:37.000Z</time>
      </trkpt>
      <trkpt lat="48.18015852011740207672119140625" lon="9.54502291046082973480224609375">
        <ele>563</ele>
        <time>2018-08-16T11:20:39.000Z</time>
      </trkpt>
      <trkpt lat="48.18023018538951873779296875" lon="9.54516473226249217987060546875">
        <ele>563.20001220703125</ele>
        <time>2018-08-16T11:20:41.000Z</time>
      </trkpt>
      <trkpt lat="48.18031643517315387725830078125" lon="9.54529188573360443115234375">
        <ele>563.4000244140625</ele>
        <time>2018-08-16T11:20:43.000Z</time>
      </trkpt>
      <trkpt lat="48.18066964857280254364013671875" lon="9.54583025537431240081787109375">
        <ele>563.5999755859375</ele>
        <time>2018-08-16T11:20:52.000Z</time>
      </trkpt>
      <trkpt lat="48.18080828525125980377197265625" lon="9.54605002887547016143798828125">
        <ele>564.4000244140625</ele>
        <time>2018-08-16T11:20:56.000Z</time>
      </trkpt>
      <trkpt lat="48.18096837960183620452880859375" lon="9.54630718566477298736572265625">
        <ele>565.5999755859375</ele>
        <time>2018-08-16T11:21:01.000Z</time>
      </trkpt>
      <trkpt lat="48.181107938289642333984375" lon="9.54657373018562793731689453125">
        <ele>566.79998779296875</ele>
        <time>2018-08-16T11:21:06.000Z</time>
      </trkpt>
      <trkpt lat="48.18124984391033649444580078125" lon="9.54686257056891918182373046875">
        <ele>567.5999755859375</ele>
        <time>2018-08-16T11:21:11.000Z</time>
      </trkpt>
      <trkpt lat="48.18129778839647769927978515625" lon="9.5469898916780948638916015625">
        <ele>568</ele>
        <time>2018-08-16T11:21:13.000Z</time>
      </trkpt>
      <trkpt lat="48.1813488341867923736572265625" lon="9.5471124351024627685546875">
        <ele>568.4000244140625</ele>
        <time>2018-08-16T11:21:15.000Z</time>
      </trkpt>
      <trkpt lat="48.18141077645123004913330078125" lon="9.5473067276179790496826171875">
        <ele>569</ele>
        <time>2018-08-16T11:21:18.000Z</time>
      </trkpt>
      <trkpt lat="48.18154103122651576995849609375" lon="9.5477735996246337890625">
        <ele>570.20001220703125</ele>
        <time>2018-08-16T11:21:26.000Z</time>
      </trkpt>
      <trkpt lat="48.18159467540681362152099609375" lon="9.5479953847825527191162109375">
        <ele>571.4000244140625</ele>
        <time>2018-08-16T11:21:30.000Z</time>
      </trkpt>
      <trkpt lat="48.18163541145622730255126953125" lon="9.54816126264631748199462890625">
        <ele>572</ele>
        <time>2018-08-16T11:21:33.000Z</time>
      </trkpt>
      <trkpt lat="48.18167782388627529144287109375" lon="9.54832152463495731353759765625">
        <ele>572.5999755859375</ele>
        <time>2018-08-16T11:21:36.000Z</time>
      </trkpt>
      <trkpt lat="48.18174353800714015960693359375" lon="9.5485868118703365325927734375">
        <ele>573.79998779296875</ele>
        <time>2018-08-16T11:21:41.000Z</time>
      </trkpt>
      <trkpt lat="48.1818121857941150665283203125" lon="9.54883717931807041168212890625">
        <ele>575</ele>
        <time>2018-08-16T11:21:46.000Z</time>
      </trkpt>
      <trkpt lat="48.18187697790563106536865234375" lon="9.549022503197193145751953125">
        <ele>576</ele>
        <time>2018-08-16T11:21:50.000Z</time>
      </trkpt>
      <trkpt lat="48.18193070590496063232421875" lon="9.54921939410269260406494140625">
        <ele>577.20001220703125</ele>
        <time>2018-08-16T11:21:54.000Z</time>
      </trkpt>
      <trkpt lat="48.1819452904164791107177734375" lon="9.549331627786159515380859375">
        <ele>577.79998779296875</ele>
        <time>2018-08-16T11:21:56.000Z</time>
      </trkpt>
      <trkpt lat="48.18195509724318981170654296875" lon="9.5493901334702968597412109375">
        <ele>578</ele>
        <time>2018-08-16T11:21:57.000Z</time>
      </trkpt>
      <trkpt lat="48.1819654069840908050537109375" lon="9.54944889061152935028076171875">
        <ele>578.4000244140625</ele>
        <time>2018-08-16T11:21:58.000Z</time>
      </trkpt>
      <trkpt lat="48.18201963789761066436767578125" lon="9.5497401617467403411865234375">
        <ele>579.20001220703125</ele>
        <time>2018-08-16T11:22:03.000Z</time>
      </trkpt>
      <trkpt lat="48.182107396423816680908203125" lon="9.55014777369797229766845703125">
        <ele>580.4000244140625</ele>
        <time>2018-08-16T11:22:10.000Z</time>
      </trkpt>
      <trkpt lat="48.18217621184885501861572265625" lon="9.55045857466757297515869140625">
        <ele>581.5999755859375</ele>
        <time>2018-08-16T11:22:15.000Z</time>
      </trkpt>
      <trkpt lat="48.18223572336137294769287109375" lon="9.550726711750030517578125">
        <ele>582.5999755859375</ele>
        <time>2018-08-16T11:22:19.000Z</time>
      </trkpt>
      <trkpt lat="48.1822973303496837615966796875" lon="9.55100624822080135345458984375">
        <ele>583.5999755859375</ele>
        <time>2018-08-16T11:22:23.000Z</time>
      </trkpt>
      <trkpt lat="48.18236346356570720672607421875" lon="9.55129575915634632110595703125">
        <ele>584.5999755859375</ele>
        <time>2018-08-16T11:22:27.000Z</time>
      </trkpt>
      <trkpt lat="48.1824713386595249176025390625" lon="9.55175491981208324432373046875">
        <ele>585</ele>
        <time>2018-08-16T11:22:33.000Z</time>
      </trkpt>
      <trkpt lat="48.1825001724064350128173828125" lon="9.5519154332578182220458984375">
        <ele>585.20001220703125</ele>
        <time>2018-08-16T11:22:35.000Z</time>
      </trkpt>
      <trkpt lat="48.1825256533920764923095703125" lon="9.5520756952464580535888671875">
        <ele>585.20001220703125</ele>
        <time>2018-08-16T11:22:37.000Z</time>
      </trkpt>
      <trkpt lat="48.18255356512963771820068359375" lon="9.55223704688251018524169921875">
        <ele>585.20001220703125</ele>
        <time>2018-08-16T11:22:39.000Z</time>
      </trkpt>
      <trkpt lat="48.18257167004048824310302734375" lon="9.55231717787683010101318359375">
        <ele>585.20001220703125</ele>
        <time>2018-08-16T11:22:40.000Z</time>
      </trkpt>
      <trkpt lat="48.1826622784137725830078125" lon="9.55261565744876861572265625">
        <ele>585.4000244140625</ele>
        <time>2018-08-16T11:22:44.000Z</time>
      </trkpt>
      <trkpt lat="48.1826859153807163238525390625" lon="9.55284272320568561553955078125">
        <ele>585.4000244140625</ele>
        <time>2018-08-16T11:22:47.000Z</time>
      </trkpt>
      <trkpt lat="48.182696811854839324951171875" lon="9.55328729934990406036376953125">
        <ele>585.4000244140625</ele>
        <time>2018-08-16T11:22:52.000Z</time>
      </trkpt>
      <trkpt lat="48.18278004415333271026611328125" lon="9.5541088096797466278076171875">
        <ele>585.20001220703125</ele>
        <time>2018-08-16T11:23:00.000Z</time>
      </trkpt>
      <trkpt lat="48.1828683055937290191650390625" lon="9.55467953346669673919677734375">
        <ele>585</ele>
        <time>2018-08-16T11:23:05.000Z</time>
      </trkpt>
      <trkpt lat="48.18291231058537960052490234375" lon="9.55490802414715290069580078125">
        <ele>584.4000244140625</ele>
        <time>2018-08-16T11:23:07.000Z</time>
      </trkpt>
      <trkpt lat="48.18305580876767635345458984375" lon="9.55545100383460521697998046875">
        <ele>584.20001220703125</ele>
        <time>2018-08-16T11:23:12.000Z</time>
      </trkpt>
      <trkpt lat="48.1832027435302734375" lon="9.5559511519968509674072265625">
        <ele>583.4000244140625</ele>
        <time>2018-08-16T11:23:17.000Z</time>
      </trkpt>
      <trkpt lat="48.18325429223477840423583984375" lon="9.55613882280886173248291015625">
        <ele>583.4000244140625</ele>
        <time>2018-08-16T11:23:19.000Z</time>
      </trkpt>
      <trkpt lat="48.1833460740745067596435546875" lon="9.5564909465610980987548828125">
        <ele>583.4000244140625</ele>
        <time>2018-08-16T11:23:23.000Z</time>
      </trkpt>
      <trkpt lat="48.183400891721248626708984375" lon="9.55674550496041774749755859375">
        <ele>583.4000244140625</ele>
        <time>2018-08-16T11:23:26.000Z</time>
      </trkpt>
      <trkpt lat="48.18342980928719043731689453125" lon="9.55691934563219547271728515625">
        <ele>583.4000244140625</ele>
        <time>2018-08-16T11:23:28.000Z</time>
      </trkpt>
      <trkpt lat="48.183468282222747802734375" lon="9.55717541277408599853515625">
        <ele>584.20001220703125</ele>
        <time>2018-08-16T11:23:31.000Z</time>
      </trkpt>
      <trkpt lat="48.1834788434207439422607421875" lon="9.55725261010229587554931640625">
        <ele>584.5999755859375</ele>
        <time>2018-08-16T11:23:32.000Z</time>
      </trkpt>
      <trkpt lat="48.18351857364177703857421875" lon="9.557724930346012115478515625">
        <ele>585.5999755859375</ele>
        <time>2018-08-16T11:23:38.000Z</time>
      </trkpt>
      <trkpt lat="48.18352670408785343170166015625" lon="9.557962976396083831787109375">
        <ele>586.4000244140625</ele>
        <time>2018-08-16T11:23:41.000Z</time>
      </trkpt>
      <trkpt lat="48.18352536298334598541259765625" lon="9.55804252065718173980712890625">
        <ele>586.5999755859375</ele>
        <time>2018-08-16T11:23:42.000Z</time>
      </trkpt>
      <trkpt lat="48.18351848982274532318115234375" lon="9.5583631284534931182861328125">
        <ele>587.5999755859375</ele>
        <time>2018-08-16T11:23:46.000Z</time>
      </trkpt>
      <trkpt lat="48.1835113652050495147705078125" lon="9.55844284035265445709228515625">
        <ele>587.79998779296875</ele>
        <time>2018-08-16T11:23:47.000Z</time>
      </trkpt>
      <trkpt lat="48.18347289226949214935302734375" lon="9.55885187722742557525634765625">
        <ele>588.79998779296875</ele>
        <time>2018-08-16T11:23:52.000Z</time>
      </trkpt>
      <trkpt lat="48.18339116871356964111328125" lon="9.559465348720550537109375">
        <ele>589.79998779296875</ele>
        <time>2018-08-16T11:23:59.000Z</time>
      </trkpt>
      <trkpt lat="48.18339125253260135650634765625" lon="9.559551179409027099609375">
        <ele>590</ele>
        <time>2018-08-16T11:24:00.000Z</time>
      </trkpt>
      <trkpt lat="48.18334666080772876739501953125" lon="9.559843875467777252197265625">
        <ele>590.5999755859375</ele>
        <time>2018-08-16T11:24:04.000Z</time>
      </trkpt>
      <trkpt lat="48.1832738220691680908203125" lon="9.560155011713504791259765625">
        <ele>590.79998779296875</ele>
        <time>2018-08-16T11:24:08.000Z</time>
      </trkpt>
      <trkpt lat="48.18326510488986968994140625" lon="9.5603539980947971343994140625">
        <ele>590.79998779296875</ele>
        <time>2018-08-16T11:24:10.000Z</time>
      </trkpt>
      <trkpt lat="48.18327256478369235992431640625" lon="9.56066739745438098907470703125">
        <ele>590.79998779296875</ele>
        <time>2018-08-16T11:24:13.000Z</time>
      </trkpt>
      <trkpt lat="48.1832778453826904296875" lon="9.5607751049101352691650390625">
        <ele>590.79998779296875</ele>
        <time>2018-08-16T11:24:14.000Z</time>
      </trkpt>
      <trkpt lat="48.18329117260873317718505859375" lon="9.56110476516187191009521484375">
        <ele>590.4000244140625</ele>
        <time>2018-08-16T11:24:17.000Z</time>
      </trkpt>
      <trkpt lat="48.183329142630100250244140625" lon="9.56189811229705810546875">
        <ele>589.5999755859375</ele>
        <time>2018-08-16T11:24:24.000Z</time>
      </trkpt>
      <trkpt lat="48.183338530361652374267578125" lon="9.5621262677013874053955078125">
        <ele>589.5999755859375</ele>
        <time>2018-08-16T11:24:26.000Z</time>
      </trkpt>
      <trkpt lat="48.1833752430975437164306640625" lon="9.563033021986484527587890625">
        <ele>589</ele>
        <time>2018-08-16T11:24:34.000Z</time>
      </trkpt>
      <trkpt lat="48.18339628167450428009033203125" lon="9.563484303653240203857421875">
        <ele>588.79998779296875</ele>
        <time>2018-08-16T11:24:38.000Z</time>
      </trkpt>
      <trkpt lat="48.1834275461733341217041015625" lon="9.56394539214670658111572265625">
        <ele>588.20001220703125</ele>
        <time>2018-08-16T11:24:42.000Z</time>
      </trkpt>
      <trkpt lat="48.183453194797039031982421875" lon="9.56417405046522617340087890625">
        <ele>587.79998779296875</ele>
        <time>2018-08-16T11:24:44.000Z</time>
      </trkpt>
      <trkpt lat="48.18346501328051090240478515625" lon="9.5642864517867565155029296875">
        <ele>587.5999755859375</ele>
        <time>2018-08-16T11:24:45.000Z</time>
      </trkpt>
      <trkpt lat="48.18347926251590251922607421875" lon="9.5644851028919219970703125">
        <ele>587.4000244140625</ele>
        <time>2018-08-16T11:24:47.000Z</time>
      </trkpt>
      <trkpt lat="48.18347540684044361114501953125" lon="9.56465341150760650634765625">
        <ele>587.20001220703125</ele>
        <time>2018-08-16T11:24:49.000Z</time>
      </trkpt>
      <trkpt lat="48.18346953950822353363037109375" lon="9.56473329104483127593994140625">
        <ele>587.20001220703125</ele>
        <time>2018-08-16T11:24:50.000Z</time>
      </trkpt>
      <trkpt lat="48.1834563799202442169189453125" lon="9.5648171938955783843994140625">
        <ele>587.20001220703125</ele>
        <time>2018-08-16T11:24:51.000Z</time>
      </trkpt>
      <trkpt lat="48.18343944847583770751953125" lon="9.56490746699273586273193359375">
        <ele>587</ele>
        <time>2018-08-16T11:24:52.000Z</time>
      </trkpt>
      <trkpt lat="48.1834215112030506134033203125" lon="9.56509857438504695892333984375">
        <ele>586.79998779296875</ele>
        <time>2018-08-16T11:24:54.000Z</time>
      </trkpt>
      <trkpt lat="48.1833876483142375946044921875" lon="9.5653955452144145965576171875">
        <ele>586.5999755859375</ele>
        <time>2018-08-16T11:24:57.000Z</time>
      </trkpt>
      <trkpt lat="48.18336962722241878509521484375" lon="9.56549453549087047576904296875">
        <ele>586.4000244140625</ele>
        <time>2018-08-16T11:24:58.000Z</time>
      </trkpt>
      <trkpt lat="48.1833185814321041107177734375" lon="9.56568279303610324859619140625">
        <ele>586.20001220703125</ele>
        <time>2018-08-16T11:25:00.000Z</time>
      </trkpt>
      <trkpt lat="48.1832290627062320709228515625" lon="9.5659430511295795440673828125">
        <ele>586</ele>
        <time>2018-08-16T11:25:03.000Z</time>
      </trkpt>
      <trkpt lat="48.183123283088207244873046875" lon="9.566419310867786407470703125">
        <ele>586</ele>
        <time>2018-08-16T11:25:08.000Z</time>
      </trkpt>
      <trkpt lat="48.18310660310089588165283203125" lon="9.56652349792420864105224609375">
        <ele>586</ele>
        <time>2018-08-16T11:25:09.000Z</time>
      </trkpt>
      <trkpt lat="48.18306938745081424713134765625" lon="9.566846452653408050537109375">
        <ele>586</ele>
        <time>2018-08-16T11:25:12.000Z</time>
      </trkpt>
      <trkpt lat="48.18305614404380321502685546875" lon="9.56707251258194446563720703125">
        <ele>585.79998779296875</ele>
        <time>2018-08-16T11:25:14.000Z</time>
      </trkpt>
      <trkpt lat="48.18305455148220062255859375" lon="9.56718801520764827728271484375">
        <ele>585.79998779296875</ele>
        <time>2018-08-16T11:25:15.000Z</time>
      </trkpt>
      <trkpt lat="48.18303770385682582855224609375" lon="9.5675399713218212127685546875">
        <ele>585.5999755859375</ele>
        <time>2018-08-16T11:25:18.000Z</time>
      </trkpt>
      <trkpt lat="48.1830138154327869415283203125" lon="9.56777508370578289031982421875">
        <ele>585.5999755859375</ele>
        <time>2018-08-16T11:25:20.000Z</time>
      </trkpt>
      <trkpt lat="48.18300451152026653289794921875" lon="9.56789343617856502532958984375">
        <ele>585.4000244140625</ele>
        <time>2018-08-16T11:25:21.000Z</time>
      </trkpt>
      <trkpt lat="48.1829732470214366912841796875" lon="9.568249918520450592041015625">
        <ele>585</ele>
        <time>2018-08-16T11:25:24.000Z</time>
      </trkpt>
      <trkpt lat="48.1829675473272800445556640625" lon="9.5683684386312961578369140625">
        <ele>584.79998779296875</ele>
        <time>2018-08-16T11:25:25.000Z</time>
      </trkpt>
      <trkpt lat="48.18297383375465869903564453125" lon="9.56848771311342716217041015625">
        <ele>584.79998779296875</ele>
        <time>2018-08-16T11:25:26.000Z</time>
      </trkpt>
      <trkpt lat="48.1830352731049060821533203125" lon="9.5687010325491428375244140625">
        <ele>584.5999755859375</ele>
        <time>2018-08-16T11:25:28.000Z</time>
      </trkpt>
      <trkpt lat="48.18318354897201061248779296875" lon="9.568805806338787078857421875">
        <ele>584.4000244140625</ele>
        <time>2018-08-16T11:25:30.000Z</time>
      </trkpt>
      <trkpt lat="48.183343224227428436279296875" lon="9.56879298202693462371826171875">
        <ele>584.20001220703125</ele>
        <time>2018-08-16T11:25:32.000Z</time>
      </trkpt>
      <trkpt lat="48.18366517312824726104736328125" lon="9.56872877664864063262939453125">
        <ele>583.79998779296875</ele>
        <time>2018-08-16T11:25:36.000Z</time>
      </trkpt>
      <trkpt lat="48.18382543511688709259033203125" lon="9.56873732618987560272216796875">
        <ele>583.5999755859375</ele>
        <time>2018-08-16T11:25:38.000Z</time>
      </trkpt>
      <trkpt lat="48.1839794106781482696533203125" lon="9.5687882043421268463134765625">
        <ele>583.20001220703125</ele>
        <time>2018-08-16T11:25:40.000Z</time>
      </trkpt>
      <trkpt lat="48.1843069754540920257568359375" lon="9.56921978853642940521240234375">
        <ele>583.20001220703125</ele>
        <time>2018-08-16T11:25:46.000Z</time>
      </trkpt>
      <trkpt lat="48.18435114808380603790283203125" lon="9.56931115128099918365478515625">
        <ele>583.20001220703125</ele>
        <time>2018-08-16T11:25:47.000Z</time>
      </trkpt>
      <trkpt lat="48.1845265813171863555908203125" lon="9.5695100538432598114013671875">
        <ele>583.20001220703125</ele>
        <time>2018-08-16T11:25:50.000Z</time>
      </trkpt>
      <trkpt lat="48.1846680678427219390869140625" lon="9.56957819871604442596435546875">
        <ele>583.4000244140625</ele>
        <time>2018-08-16T11:25:52.000Z</time>
      </trkpt>
      <trkpt lat="48.18502957932651042938232421875" lon="9.56968314014375209808349609375">
        <ele>584</ele>
        <time>2018-08-16T11:25:57.000Z</time>
      </trkpt>
      <trkpt lat="48.1851763464510440826416015625" lon="9.56972169689834117889404296875">
        <ele>584.20001220703125</ele>
        <time>2018-08-16T11:25:59.000Z</time>
      </trkpt>
      <trkpt lat="48.185393773019313812255859375" lon="9.569799900054931640625">
        <ele>584.5999755859375</ele>
        <time>2018-08-16T11:26:02.000Z</time>
      </trkpt>
      <trkpt lat="48.1857798434793949127197265625" lon="9.57006342709064483642578125">
        <ele>585.4000244140625</ele>
        <time>2018-08-16T11:26:08.000Z</time>
      </trkpt>
      <trkpt lat="48.186040185391902923583984375" lon="9.57037045620381832122802734375">
        <ele>586</ele>
        <time>2018-08-16T11:26:13.000Z</time>
      </trkpt>
      <trkpt lat="48.1861295364797115325927734375" lon="9.5705165527760982513427734375">
        <ele>586.4000244140625</ele>
        <time>2018-08-16T11:26:15.000Z</time>
      </trkpt>
      <trkpt lat="48.186431787908077239990234375" lon="9.57115919329226016998291015625">
        <ele>587.5999755859375</ele>
        <time>2018-08-16T11:26:23.000Z</time>
      </trkpt>
      <trkpt lat="48.186651729047298431396484375" lon="9.5716390572488307952880859375">
        <ele>588.5999755859375</ele>
        <time>2018-08-16T11:26:29.000Z</time>
      </trkpt>
      <trkpt lat="48.18706554360687732696533203125" lon="9.57224029116332530975341796875">
        <ele>589.4000244140625</ele>
        <time>2018-08-16T11:26:38.000Z</time>
      </trkpt>
      <trkpt lat="48.18711818195879459381103515625" lon="9.5722925104200839996337890625">
        <ele>589.5999755859375</ele>
        <time>2018-08-16T11:26:39.000Z</time>
      </trkpt>
      <trkpt lat="48.1875410489737987518310546875" lon="9.5726167224347591400146484375">
        <ele>590.5999755859375</ele>
        <time>2018-08-16T11:26:47.000Z</time>
      </trkpt>
      <trkpt lat="48.18759812973439693450927734375" lon="9.572839178144931793212890625">
        <ele>591</ele>
        <time>2018-08-16T11:26:50.000Z</time>
      </trkpt>
      <trkpt lat="48.18761539645493030548095703125" lon="9.572913944721221923828125">
        <ele>591.20001220703125</ele>
        <time>2018-08-16T11:26:51.000Z</time>
      </trkpt>
      <trkpt lat="48.187752105295658111572265625" lon="9.57322952337563037872314453125">
        <ele>592.20001220703125</ele>
        <time>2018-08-16T11:26:56.000Z</time>
      </trkpt>
      <trkpt lat="48.187875486910343170166015625" lon="9.5735296793282032012939453125">
        <ele>593.20001220703125</ele>
        <time>2018-08-16T11:27:01.000Z</time>
      </trkpt>
      <trkpt lat="48.18792670033872127532958984375" lon="9.5736475288867950439453125">
        <ele>594</ele>
        <time>2018-08-16T11:27:03.000Z</time>
      </trkpt>
      <trkpt lat="48.1879524327814579010009765625" lon="9.5737067051231861114501953125">
        <ele>594.20001220703125</ele>
        <time>2018-08-16T11:27:04.000Z</time>
      </trkpt>
      <trkpt lat="48.1880654208362102508544921875" lon="9.5739621855318546295166015625">
        <ele>595.5999755859375</ele>
        <time>2018-08-16T11:27:08.000Z</time>
      </trkpt>
      <trkpt lat="48.188216798007488250732421875" lon="9.57425362430512905120849609375">
        <ele>596.5999755859375</ele>
        <time>2018-08-16T11:27:12.000Z</time>
      </trkpt>
      <trkpt lat="48.18859071470797061920166015625" lon="9.57485854625701904296875">
        <ele>596.5999755859375</ele>
        <time>2018-08-16T11:27:19.000Z</time>
      </trkpt>
      <trkpt lat="48.18882792256772518157958984375" lon="9.57522341050207614898681640625">
        <ele>596.20001220703125</ele>
        <time>2018-08-16T11:27:23.000Z</time>
      </trkpt>
      <trkpt lat="48.1889855861663818359375" lon="9.57550973631441593170166015625">
        <ele>595.20001220703125</ele>
        <time>2018-08-16T11:27:26.000Z</time>
      </trkpt>
      <trkpt lat="48.18903378210961818695068359375" lon="9.5756073854863643646240234375">
        <ele>594.79998779296875</ele>
        <time>2018-08-16T11:27:27.000Z</time>
      </trkpt>
      <trkpt lat="48.18915867246687412261962890625" lon="9.5759057812392711639404296875">
        <ele>594.20001220703125</ele>
        <time>2018-08-16T11:27:30.000Z</time>
      </trkpt>
      <trkpt lat="48.18919479846954345703125" lon="9.57600980065762996673583984375">
        <ele>594.20001220703125</ele>
        <time>2018-08-16T11:27:31.000Z</time>
      </trkpt>
      <trkpt lat="48.18922589533030986785888671875" lon="9.576118849217891693115234375">
        <ele>594</ele>
        <time>2018-08-16T11:27:32.000Z</time>
      </trkpt>
      <trkpt lat="48.189280293881893157958984375" lon="9.57673718221485614776611328125">
        <ele>594</ele>
        <time>2018-08-16T11:27:37.000Z</time>
      </trkpt>
      <trkpt lat="48.189315833151340484619140625" lon="9.5774212293326854705810546875">
        <ele>593.4000244140625</ele>
        <time>2018-08-16T11:27:42.000Z</time>
      </trkpt>
      <trkpt lat="48.18934877403080463409423828125" lon="9.57770998589694499969482421875">
        <ele>593</ele>
        <time>2018-08-16T11:27:44.000Z</time>
      </trkpt>
      <trkpt lat="48.18945790641009807586669921875" lon="9.57829437218606472015380859375">
        <ele>591.79998779296875</ele>
        <time>2018-08-16T11:27:48.000Z</time>
      </trkpt>
      <trkpt lat="48.18952160887420177459716796875" lon="9.57859159447252750396728515625">
        <ele>591.4000244140625</ele>
        <time>2018-08-16T11:27:50.000Z</time>
      </trkpt>
      <trkpt lat="48.1895547173917293548583984375" lon="9.57873961888253688812255859375">
        <ele>591.4000244140625</ele>
        <time>2018-08-16T11:27:51.000Z</time>
      </trkpt>
      <trkpt lat="48.18958832882344722747802734375" lon="9.57888680510222911834716796875">
        <ele>591.20001220703125</ele>
        <time>2018-08-16T11:27:52.000Z</time>
      </trkpt>
      <trkpt lat="48.1896536238491535186767578125" lon="9.57917782478034496307373046875">
        <ele>590.5999755859375</ele>
        <time>2018-08-16T11:27:54.000Z</time>
      </trkpt>
      <trkpt lat="48.18971715867519378662109375" lon="9.5794657431542873382568359375">
        <ele>590</ele>
        <time>2018-08-16T11:27:56.000Z</time>
      </trkpt>
      <trkpt lat="48.18974657915532588958740234375" lon="9.579607062041759490966796875">
        <ele>589.5999755859375</ele>
        <time>2018-08-16T11:27:57.000Z</time>
      </trkpt>
      <trkpt lat="48.18980609066784381866455078125" lon="9.57988324575126171112060546875">
        <ele>588.5999755859375</ele>
        <time>2018-08-16T11:27:59.000Z</time>
      </trkpt>
      <trkpt lat="48.18988303653895854949951171875" lon="9.5802985690534114837646484375">
        <ele>587.4000244140625</ele>
        <time>2018-08-16T11:28:02.000Z</time>
      </trkpt>
      <trkpt lat="48.18989954888820648193359375" lon="9.5804400555789470672607421875">
        <ele>587</ele>
        <time>2018-08-16T11:28:03.000Z</time>
      </trkpt>
      <trkpt lat="48.18991052918136119842529296875" lon="9.5805810391902923583984375">
        <ele>586.79998779296875</ele>
        <time>2018-08-16T11:28:04.000Z</time>
      </trkpt>
      <trkpt lat="48.18992410786449909210205078125" lon="9.58086342550814151763916015625">
        <ele>586.20001220703125</ele>
        <time>2018-08-16T11:28:06.000Z</time>
      </trkpt>
      <trkpt lat="48.18997708149254322052001953125" lon="9.58140917122364044189453125">
        <ele>585.20001220703125</ele>
        <time>2018-08-16T11:28:10.000Z</time>
      </trkpt>
      <trkpt lat="48.1900425441563129425048828125" lon="9.58179851062595844268798828125">
        <ele>584.79998779296875</ele>
        <time>2018-08-16T11:28:13.000Z</time>
      </trkpt>
      <trkpt lat="48.19015695713460445404052734375" lon="9.58229891024529933929443359375">
        <ele>584.4000244140625</ele>
        <time>2018-08-16T11:28:17.000Z</time>
      </trkpt>
      <trkpt lat="48.1902222521603107452392578125" lon="9.58255070261657238006591796875">
        <ele>584.4000244140625</ele>
        <time>2018-08-16T11:28:19.000Z</time>
      </trkpt>
      <trkpt lat="48.190308250486850738525390625" lon="9.58280048333108425140380859375">
        <ele>584.20001220703125</ele>
        <time>2018-08-16T11:28:21.000Z</time>
      </trkpt>
      <trkpt lat="48.190481252968311309814453125" lon="9.58315260708332061767578125">
        <ele>584.20001220703125</ele>
        <time>2018-08-16T11:28:24.000Z</time>
      </trkpt>
      <trkpt lat="48.1908592768013477325439453125" lon="9.583696089684963226318359375">
        <ele>583.4000244140625</ele>
        <time>2018-08-16T11:28:29.000Z</time>
      </trkpt>
      <trkpt lat="48.19092541001737117767333984375" lon="9.5838273502886295318603515625">
        <ele>583</ele>
        <time>2018-08-16T11:28:30.000Z</time>
      </trkpt>
      <trkpt lat="48.19104325957596302032470703125" lon="9.58411417901515960693359375">
        <ele>582.4000244140625</ele>
        <time>2018-08-16T11:28:32.000Z</time>
      </trkpt>
      <trkpt lat="48.1911523081362247467041015625" lon="9.58442221395671367645263671875">
        <ele>581.5999755859375</ele>
        <time>2018-08-16T11:28:34.000Z</time>
      </trkpt>
      <trkpt lat="48.19120402447879314422607421875" lon="9.584581889212131500244140625">
        <ele>581</ele>
        <time>2018-08-16T11:28:35.000Z</time>
      </trkpt>
      <trkpt lat="48.191252388060092926025390625" lon="9.58474491722881793975830078125">
        <ele>580.4000244140625</ele>
        <time>2018-08-16T11:28:36.000Z</time>
      </trkpt>
      <trkpt lat="48.19133184850215911865234375" lon="9.585084132850170135498046875">
        <ele>579.20001220703125</ele>
        <time>2018-08-16T11:28:38.000Z</time>
      </trkpt>
      <trkpt lat="48.19138222374022006988525390625" lon="9.58543340675532817840576171875">
        <ele>577.79998779296875</ele>
        <time>2018-08-16T11:28:40.000Z</time>
      </trkpt>
      <trkpt lat="48.1914024241268634796142578125" lon="9.58578209392726421356201171875">
        <ele>576.5999755859375</ele>
        <time>2018-08-16T11:28:42.000Z</time>
      </trkpt>
      <trkpt lat="48.191399239003658294677734375" lon="9.58595459349453449249267578125">
        <ele>576</ele>
        <time>2018-08-16T11:28:43.000Z</time>
      </trkpt>
      <trkpt lat="48.19138574413955211639404296875" lon="9.5861239917576313018798828125">
        <ele>575.5999755859375</ele>
        <time>2018-08-16T11:28:44.000Z</time>
      </trkpt>
      <trkpt lat="48.1913343630731105804443359375" lon="9.58645013161003589630126953125">
        <ele>574</ele>
        <time>2018-08-16T11:28:46.000Z</time>
      </trkpt>
      <trkpt lat="48.1912994943559169769287109375" lon="9.58660595118999481201171875">
        <ele>573.4000244140625</ele>
        <time>2018-08-16T11:28:47.000Z</time>
      </trkpt>
      <trkpt lat="48.19122078828513622283935546875" lon="9.58690392784774303436279296875">
        <ele>572.5999755859375</ele>
        <time>2018-08-16T11:28:49.000Z</time>
      </trkpt>
      <trkpt lat="48.191087432205677032470703125" lon="9.587333835661411285400390625">
        <ele>571.20001220703125</ele>
        <time>2018-08-16T11:28:52.000Z</time>
      </trkpt>
      <trkpt lat="48.1910399906337261199951171875" lon="9.58747322671115398406982421875">
        <ele>570.5999755859375</ele>
        <time>2018-08-16T11:28:53.000Z</time>
      </trkpt>
      <trkpt lat="48.1909417547285556793212890625" lon="9.58774748258292675018310546875">
        <ele>570.20001220703125</ele>
        <time>2018-08-16T11:28:55.000Z</time>
      </trkpt>
      <trkpt lat="48.1908348016440868377685546875" lon="9.58801276981830596923828125">
        <ele>569.4000244140625</ele>
        <time>2018-08-16T11:28:57.000Z</time>
      </trkpt>
      <trkpt lat="48.19072240032255649566650390625" lon="9.588263891637325286865234375">
        <ele>569</ele>
        <time>2018-08-16T11:28:59.000Z</time>
      </trkpt>
      <trkpt lat="48.19047882221639156341552734375" lon="9.58871827460825443267822265625">
        <ele>568</ele>
        <time>2018-08-16T11:29:03.000Z</time>
      </trkpt>
      <trkpt lat="48.19028084166347980499267578125" lon="9.5890164189040660858154296875">
        <ele>566.79998779296875</ele>
        <time>2018-08-16T11:29:06.000Z</time>
      </trkpt>
      <trkpt lat="48.19009811617434024810791015625" lon="9.58931053988635540008544921875">
        <ele>566.20001220703125</ele>
        <time>2018-08-16T11:29:09.000Z</time>
      </trkpt>
      <trkpt lat="48.19005620665848255157470703125" lon="9.58943040110170841217041015625">
        <ele>566</ele>
        <time>2018-08-16T11:29:10.000Z</time>
      </trkpt>
      <trkpt lat="48.190050758421421051025390625" lon="9.58955847658216953277587890625">
        <ele>565.79998779296875</ele>
        <time>2018-08-16T11:29:11.000Z</time>
      </trkpt>
      <trkpt lat="48.19008621387183666229248046875" lon="9.58966962061822414398193359375">
        <ele>565.5999755859375</ele>
        <time>2018-08-16T11:29:12.000Z</time>
      </trkpt>
      <trkpt lat="48.19021009840071201324462890625" lon="9.58982996642589569091796875">
        <ele>565.20001220703125</ele>
        <time>2018-08-16T11:29:14.000Z</time>
      </trkpt>
      <trkpt lat="48.19026843644678592681884765625" lon="9.589914791285991668701171875">
        <ele>564.79998779296875</ele>
        <time>2018-08-16T11:29:15.000Z</time>
      </trkpt>
      <trkpt lat="48.19031990133225917816162109375" lon="9.5900078304111957550048828125">
        <ele>564.79998779296875</ele>
        <time>2018-08-16T11:29:16.000Z</time>
      </trkpt>
      <trkpt lat="48.1903711147606372833251953125" lon="9.59010061807930469512939453125">
        <ele>564.5999755859375</ele>
        <time>2018-08-16T11:29:17.000Z</time>
      </trkpt>
      <trkpt lat="48.19042618386447429656982421875" lon="9.590192399919033050537109375">
        <ele>564.5999755859375</ele>
        <time>2018-08-16T11:29:18.000Z</time>
      </trkpt>
      <trkpt lat="48.19059767760336399078369140625" lon="9.590490795671939849853515625">
        <ele>563.4000244140625</ele>
        <time>2018-08-16T11:29:21.000Z</time>
      </trkpt>
      <trkpt lat="48.19072055630385875701904296875" lon="9.59068265743553638458251953125">
        <ele>563</ele>
        <time>2018-08-16T11:29:23.000Z</time>
      </trkpt>
      <trkpt lat="48.1910388171672821044921875" lon="9.591166041791439056396484375">
        <ele>562.20001220703125</ele>
        <time>2018-08-16T11:29:28.000Z</time>
      </trkpt>
      <trkpt lat="48.1913152523338794708251953125" lon="9.591544568538665771484375">
        <ele>561.5999755859375</ele>
        <time>2018-08-16T11:29:33.000Z</time>
      </trkpt>
      <trkpt lat="48.191355653107166290283203125" lon="9.591575078666210174560546875">
        <ele>561.4000244140625</ele>
        <time>2018-08-16T11:29:34.000Z</time>
      </trkpt>
      <trkpt lat="48.1914304196834564208984375" lon="9.5916661061346530914306640625">
        <ele>560.79998779296875</ele>
        <time>2018-08-16T11:29:36.000Z</time>
      </trkpt>
      <trkpt lat="48.19146931171417236328125" lon="9.5917282998561859130859375">
        <ele>560.4000244140625</ele>
        <time>2018-08-16T11:29:37.000Z</time>
      </trkpt>
      <trkpt lat="48.191512562334537506103515625" lon="9.59179678000509738922119140625">
        <ele>560</ele>
        <time>2018-08-16T11:29:38.000Z</time>
      </trkpt>
      <trkpt lat="48.1916069425642490386962890625" lon="9.5919541083276271820068359375">
        <ele>559.4000244140625</ele>
        <time>2018-08-16T11:29:40.000Z</time>
      </trkpt>
      <trkpt lat="48.191657401621341705322265625" lon="9.5920355804264545440673828125">
        <ele>559</ele>
        <time>2018-08-16T11:29:41.000Z</time>
      </trkpt>
      <trkpt lat="48.1917102076113224029541015625" lon="9.59212166257202625274658203125">
        <ele>559</ele>
        <time>2018-08-16T11:29:42.000Z</time>
      </trkpt>
      <trkpt lat="48.191884048283100128173828125" lon="9.59238301031291484832763671875">
        <ele>558.20001220703125</ele>
        <time>2018-08-16T11:29:45.000Z</time>
      </trkpt>
      <trkpt lat="48.19200776517391204833984375" lon="9.59255718626081943511962890625">
        <ele>557.5999755859375</ele>
        <time>2018-08-16T11:29:47.000Z</time>
      </trkpt>
      <trkpt lat="48.19207012653350830078125" lon="9.59264435805380344390869140625">
        <ele>557.4000244140625</ele>
        <time>2018-08-16T11:29:48.000Z</time>
      </trkpt>
      <trkpt lat="48.19218839518725872039794921875" lon="9.59282440133392810821533203125">
        <ele>557</ele>
        <time>2018-08-16T11:29:50.000Z</time>
      </trkpt>
      <trkpt lat="48.1922892294824123382568359375" lon="9.593025483191013336181640625">
        <ele>556.5999755859375</ele>
        <time>2018-08-16T11:29:52.000Z</time>
      </trkpt>
      <trkpt lat="48.19236089475452899932861328125" lon="9.59325506351888179779052734375">
        <ele>555.79998779296875</ele>
        <time>2018-08-16T11:29:54.000Z</time>
      </trkpt>
      <trkpt lat="48.1923918239772319793701171875" lon="9.59376283921301364898681640625">
        <ele>555</ele>
        <time>2018-08-16T11:29:58.000Z</time>
      </trkpt>
      <trkpt lat="48.1923780776560306549072265625" lon="9.5938785932958126068115234375">
        <ele>554.79998779296875</ele>
        <time>2018-08-16T11:29:59.000Z</time>
      </trkpt>
      <trkpt lat="48.19245435297489166259765625" lon="9.59415243007242679595947265625">
        <ele>553.5999755859375</ele>
        <time>2018-08-16T11:30:03.000Z</time>
      </trkpt>
      <trkpt lat="48.192498274147510528564453125" lon="9.59417606703937053680419921875">
        <ele>553.4000244140625</ele>
        <time>2018-08-16T11:30:04.000Z</time>
      </trkpt>
      <trkpt lat="48.1925416924059391021728515625" lon="9.5941944234073162078857421875">
        <ele>553</ele>
        <time>2018-08-16T11:30:05.000Z</time>
      </trkpt>
      <trkpt lat="48.192586787045001983642578125" lon="9.59419752471148967742919921875">
        <ele>552.5999755859375</ele>
        <time>2018-08-16T11:30:06.000Z</time>
      </trkpt>
      <trkpt lat="48.19268703460693359375" lon="9.59417221136391162872314453125">
        <ele>552.20001220703125</ele>
        <time>2018-08-16T11:30:08.000Z</time>
      </trkpt>
      <trkpt lat="48.19273992441594600677490234375" lon="9.59415410645306110382080078125">
        <ele>552</ele>
        <time>2018-08-16T11:30:09.000Z</time>
      </trkpt>
      <trkpt lat="48.19279356859624385833740234375" lon="9.59413683973252773284912109375">
        <ele>551.79998779296875</ele>
        <time>2018-08-16T11:30:10.000Z</time>
      </trkpt>
      <trkpt lat="48.19284721277654170989990234375" lon="9.5941189862787723541259765625">
        <ele>551.79998779296875</ele>
        <time>2018-08-16T11:30:11.000Z</time>
      </trkpt>
      <trkpt lat="48.19317779503762722015380859375" lon="9.59400977008044719696044921875">
        <ele>551.5999755859375</ele>
        <time>2018-08-16T11:30:17.000Z</time>
      </trkpt>
      <trkpt lat="48.19341056048870086669921875" lon="9.59394715726375579833984375">
        <ele>551.5999755859375</ele>
        <time>2018-08-16T11:30:21.000Z</time>
      </trkpt>
      <trkpt lat="48.1934707425534725189208984375" lon="9.59394422359764575958251953125">
        <ele>551.5999755859375</ele>
        <time>2018-08-16T11:30:22.000Z</time>
      </trkpt>
      <trkpt lat="48.19353117607533931732177734375" lon="9.59395662881433963775634765625">
        <ele>551.5999755859375</ele>
        <time>2018-08-16T11:30:23.000Z</time>
      </trkpt>
      <trkpt lat="48.193729408085346221923828125" lon="9.59418914280831813812255859375">
        <ele>552</ele>
        <time>2018-08-16T11:30:27.000Z</time>
      </trkpt>
      <trkpt lat="48.19377039559185504913330078125" lon="9.59427111782133579254150390625">
        <ele>552</ele>
        <time>2018-08-16T11:30:28.000Z</time>
      </trkpt>
      <trkpt lat="48.19398681633174419403076171875" lon="9.5947013609111309051513671875">
        <ele>552</ele>
        <time>2018-08-16T11:30:33.000Z</time>
      </trkpt>
      <trkpt lat="48.19437540136277675628662109375" lon="9.59536914713680744171142578125">
        <ele>552</ele>
        <time>2018-08-16T11:30:41.000Z</time>
      </trkpt>
      <trkpt lat="48.19462987594306468963623046875" lon="9.5959098637104034423828125">
        <ele>551.79998779296875</ele>
        <time>2018-08-16T11:30:47.000Z</time>
      </trkpt>
      <trkpt lat="48.19465435110032558441162109375" lon="9.5960146375000476837158203125">
        <ele>551.5999755859375</ele>
        <time>2018-08-16T11:30:48.000Z</time>
      </trkpt>
      <trkpt lat="48.194753341376781463623046875" lon="9.59677328355610370635986328125">
        <ele>551</ele>
        <time>2018-08-16T11:30:55.000Z</time>
      </trkpt>
      <trkpt lat="48.19479164667427539825439453125" lon="9.59731810726225376129150390625">
        <ele>550.5999755859375</ele>
        <time>2018-08-16T11:31:00.000Z</time>
      </trkpt>
      <trkpt lat="48.19480539299547672271728515625" lon="9.597750194370746612548828125">
        <ele>550.4000244140625</ele>
        <time>2018-08-16T11:31:04.000Z</time>
      </trkpt>
      <trkpt lat="48.194846212863922119140625" lon="9.59858092479407787322998046875">
        <ele>550.4000244140625</ele>
        <time>2018-08-16T11:31:12.000Z</time>
      </trkpt>
      <trkpt lat="48.19498929195106029510498046875" lon="9.59938206709921360015869140625">
        <ele>550.5999755859375</ele>
        <time>2018-08-16T11:31:20.000Z</time>
      </trkpt>
      <trkpt lat="48.19519967772066593170166015625" lon="9.6002067625522613525390625">
        <ele>550.5999755859375</ele>
        <time>2018-08-16T11:31:29.000Z</time>
      </trkpt>
      <trkpt lat="48.195248879492282867431640625" lon="9.60038739256560802459716796875">
        <ele>550.5999755859375</ele>
        <time>2018-08-16T11:31:31.000Z</time>
      </trkpt>
      <trkpt lat="48.19546387530863285064697265625" lon="9.601200520992279052734375">
        <ele>550.5999755859375</ele>
        <time>2018-08-16T11:31:39.000Z</time>
      </trkpt>
      <trkpt lat="48.195697478950023651123046875" lon="9.6019996516406536102294921875">
        <ele>549.5999755859375</ele>
        <time>2018-08-16T11:31:46.000Z</time>
      </trkpt>
      <trkpt lat="48.19576629437506198883056640625" lon="9.6022390387952327728271484375">
        <ele>549.20001220703125</ele>
        <time>2018-08-16T11:31:48.000Z</time>
      </trkpt>
      <trkpt lat="48.19587391801178455352783203125" lon="9.60259418003261089324951171875">
        <ele>548.5999755859375</ele>
        <time>2018-08-16T11:31:51.000Z</time>
      </trkpt>
      <trkpt lat="48.19601322524249553680419921875" lon="9.60306071676313877105712890625">
        <ele>547.79998779296875</ele>
        <time>2018-08-16T11:31:55.000Z</time>
      </trkpt>
      <trkpt lat="48.196050189435482025146484375" lon="9.6031704358756542205810546875">
        <ele>547.5999755859375</ele>
        <time>2018-08-16T11:31:56.000Z</time>
      </trkpt>
      <trkpt lat="48.196134008467197418212890625" lon="9.603372104465961456298828125">
        <ele>547.4000244140625</ele>
        <time>2018-08-16T11:31:58.000Z</time>
      </trkpt>
      <trkpt lat="48.1963152252137660980224609375" lon="9.603600762784481048583984375">
        <ele>547</ele>
        <time>2018-08-16T11:32:01.000Z</time>
      </trkpt>
      <trkpt lat="48.19646048359572887420654296875" lon="9.60370528511703014373779296875">
        <ele>547</ele>
        <time>2018-08-16T11:32:03.000Z</time>
      </trkpt>
      <trkpt lat="48.1968389265239238739013671875" lon="9.60392891429364681243896484375">
        <ele>546.4000244140625</ele>
        <time>2018-08-16T11:32:08.000Z</time>
      </trkpt>
      <trkpt lat="48.197133801877498626708984375" lon="9.60413779132068157196044921875">
        <ele>545.5999755859375</ele>
        <time>2018-08-16T11:32:12.000Z</time>
      </trkpt>
      <trkpt lat="48.19744326174259185791015625" lon="9.60468328557908535003662109375">
        <ele>545.4000244140625</ele>
        <time>2018-08-16T11:32:18.000Z</time>
      </trkpt>
      <trkpt lat="48.19747335277497768402099609375" lon="9.6047925017774105072021484375">
        <ele>545.4000244140625</ele>
        <time>2018-08-16T11:32:19.000Z</time>
      </trkpt>
      <trkpt lat="48.19752397947013378143310546875" lon="9.60526934824883937835693359375">
        <ele>545.20001220703125</ele>
        <time>2018-08-16T11:32:23.000Z</time>
      </trkpt>
      <trkpt lat="48.19756203331053256988525390625" lon="9.6061480231583118438720703125">
        <ele>544.79998779296875</ele>
        <time>2018-08-16T11:32:30.000Z</time>
      </trkpt>
      <trkpt lat="48.19760310463607311248779296875" lon="9.606356061995029449462890625">
        <ele>544.5999755859375</ele>
        <time>2018-08-16T11:32:32.000Z</time>
      </trkpt>
      <trkpt lat="48.19764266721904277801513671875" lon="9.606450609862804412841796875">
        <ele>544.5999755859375</ele>
        <time>2018-08-16T11:32:33.000Z</time>
      </trkpt>
      <trkpt lat="48.197691030800342559814453125" lon="9.60654138587415218353271484375">
        <ele>544.4000244140625</ele>
        <time>2018-08-16T11:32:34.000Z</time>
      </trkpt>
      <trkpt lat="48.19791675545275211334228515625" lon="9.6068792603909969329833984375">
        <ele>543.20001220703125</ele>
        <time>2018-08-16T11:32:38.000Z</time>
      </trkpt>
      <trkpt lat="48.19803242571651935577392578125" lon="9.60703759454190731048583984375">
        <ele>542.20001220703125</ele>
        <time>2018-08-16T11:32:40.000Z</time>
      </trkpt>
      <trkpt lat="48.19813082925975322723388671875" lon="9.60721394978463649749755859375">
        <ele>541.79998779296875</ele>
        <time>2018-08-16T11:32:42.000Z</time>
      </trkpt>
      <trkpt lat="48.198204673826694488525390625" lon="9.607595242559909820556640625">
        <ele>541.5999755859375</ele>
        <time>2018-08-16T11:32:46.000Z</time>
      </trkpt>
      <trkpt lat="48.19821867160499095916748046875" lon="9.6076762117445468902587890625">
        <ele>541.4000244140625</ele>
        <time>2018-08-16T11:32:47.000Z</time>
      </trkpt>
      <trkpt lat="48.19828958250582218170166015625" lon="9.6077781356871128082275390625">
        <ele>541.4000244140625</ele>
        <time>2018-08-16T11:32:49.000Z</time>
      </trkpt>
      <trkpt lat="48.198487646877765655517578125" lon="9.60792993195354938507080078125">
        <ele>541</ele>
        <time>2018-08-16T11:32:53.000Z</time>
      </trkpt>
      <trkpt lat="48.19853416644036769866943359375" lon="9.60797552950680255889892578125">
        <ele>540.79998779296875</ele>
        <time>2018-08-16T11:32:54.000Z</time>
      </trkpt>
      <trkpt lat="48.19862100295722484588623046875" lon="9.6080839075148105621337890625">
        <ele>541</ele>
        <time>2018-08-16T11:32:56.000Z</time>
      </trkpt>
      <trkpt lat="48.19900237955152988433837890625" lon="9.60872822441160678863525390625">
        <ele>541.20001220703125</ele>
        <time>2018-08-16T11:33:06.000Z</time>
      </trkpt>
      <trkpt lat="48.199103884398937225341796875" lon="9.6089355088770389556884765625">
        <ele>541.79998779296875</ele>
        <time>2018-08-16T11:33:09.000Z</time>
      </trkpt>
      <trkpt lat="48.199250064790248870849609375" lon="9.609191827476024627685546875">
        <ele>542.5999755859375</ele>
        <time>2018-08-16T11:33:13.000Z</time>
      </trkpt>
      <trkpt lat="48.19950110279023647308349609375" lon="9.6095105074346065521240234375">
        <ele>543.4000244140625</ele>
        <time>2018-08-16T11:33:19.000Z</time>
      </trkpt>
      <trkpt lat="48.19959548301994800567626953125" lon="9.60959692485630512237548828125">
        <ele>543.79998779296875</ele>
        <time>2018-08-16T11:33:21.000Z</time>
      </trkpt>
      <trkpt lat="48.199746608734130859375" lon="9.6097126789391040802001953125">
        <ele>544.20001220703125</ele>
        <time>2018-08-16T11:33:24.000Z</time>
      </trkpt>
      <trkpt lat="48.1998525559902191162109375" lon="9.60977696813642978668212890625">
        <ele>544.79998779296875</ele>
        <time>2018-08-16T11:33:26.000Z</time>
      </trkpt>
      <trkpt lat="48.20013091899454593658447265625" lon="9.60989154875278472900390625">
        <ele>546</ele>
        <time>2018-08-16T11:33:31.000Z</time>
      </trkpt>
      <trkpt lat="48.2003667019307613372802734375" lon="9.60996774025261402130126953125">
        <ele>547</ele>
        <time>2018-08-16T11:33:35.000Z</time>
      </trkpt>
      <trkpt lat="48.20094756782054901123046875" lon="9.610132277011871337890625">
        <ele>547.5999755859375</ele>
        <time>2018-08-16T11:33:44.000Z</time>
      </trkpt>
      <trkpt lat="48.20139038376510143280029296875" lon="9.61025842465460300445556640625">
        <ele>547.5999755859375</ele>
        <time>2018-08-16T11:33:50.000Z</time>
      </trkpt>
      <trkpt lat="48.20147085003554821014404296875" lon="9.6102813072502613067626953125">
        <ele>547.5999755859375</ele>
        <time>2018-08-16T11:33:51.000Z</time>
      </trkpt>
      <trkpt lat="48.2016353867948055267333984375" lon="9.61032807826995849609375">
        <ele>547.4000244140625</ele>
        <time>2018-08-16T11:33:53.000Z</time>
      </trkpt>
      <trkpt lat="48.20212145335972309112548828125" lon="9.61046813987195491790771484375">
        <ele>545.79998779296875</ele>
        <time>2018-08-16T11:33:59.000Z</time>
      </trkpt>
      <trkpt lat="48.2024088688194751739501953125" lon="9.6105582453310489654541015625">
        <ele>545.20001220703125</ele>
        <time>2018-08-16T11:34:03.000Z</time>
      </trkpt>
      <trkpt lat="48.202651105821132659912109375" lon="9.61067031137645244598388671875">
        <ele>545.20001220703125</ele>
        <time>2018-08-16T11:34:07.000Z</time>
      </trkpt>
      <trkpt lat="48.203018568456172943115234375" lon="9.61092688143253326416015625">
        <ele>546</ele>
        <time>2018-08-16T11:34:14.000Z</time>
      </trkpt>
      <trkpt lat="48.20320372469723224639892578125" lon="9.611109606921672821044921875">
        <ele>547</ele>
        <time>2018-08-16T11:34:18.000Z</time>
      </trkpt>
      <trkpt lat="48.2035421021282672882080078125" lon="9.61156298406422138214111328125">
        <ele>548</ele>
        <time>2018-08-16T11:34:26.000Z</time>
      </trkpt>
      <trkpt lat="48.20368970744311809539794921875" lon="9.61183623410761356353759765625">
        <ele>548.5999755859375</ele>
        <time>2018-08-16T11:34:30.000Z</time>
      </trkpt>
      <trkpt lat="48.20379196666181087493896484375" lon="9.61205868981778621673583984375">
        <ele>548.79998779296875</ele>
        <time>2018-08-16T11:34:33.000Z</time>
      </trkpt>
      <trkpt lat="48.20389053784310817718505859375" lon="9.61228676140308380126953125">
        <ele>549</ele>
        <time>2018-08-16T11:34:36.000Z</time>
      </trkpt>
      <trkpt lat="48.20417166687548160552978515625" lon="9.6130054257810115814208984375">
        <ele>549.79998779296875</ele>
        <time>2018-08-16T11:34:45.000Z</time>
      </trkpt>
      <trkpt lat="48.20433964021503925323486328125" lon="9.61348378099501132965087890625">
        <ele>550</ele>
        <time>2018-08-16T11:34:51.000Z</time>
      </trkpt>
      <trkpt lat="48.20436545647680759429931640625" lon="9.613560140132904052734375">
        <ele>550</ele>
        <time>2018-08-16T11:34:52.000Z</time>
      </trkpt>
      <trkpt lat="48.2045965455472469329833984375" lon="9.614222981035709381103515625">
        <ele>551</ele>
        <time>2018-08-16T11:35:01.000Z</time>
      </trkpt>
      <trkpt lat="48.2048885710537433624267578125" lon="9.61496167816221714019775390625">
        <ele>551.79998779296875</ele>
        <time>2018-08-16T11:35:10.000Z</time>
      </trkpt>
      <trkpt lat="48.2050840370357036590576171875" lon="9.615364931523799896240234375">
        <ele>552</ele>
        <time>2018-08-16T11:35:15.000Z</time>
      </trkpt>
      <trkpt lat="48.2054612226784229278564453125" lon="9.61594353429973125457763671875">
        <ele>551.79998779296875</ele>
        <time>2018-08-16T11:35:23.000Z</time>
      </trkpt>
      <trkpt lat="48.20555350743234157562255859375" lon="9.6161037124693393707275390625">
        <ele>551.79998779296875</ele>
        <time>2018-08-16T11:35:25.000Z</time>
      </trkpt>
      <trkpt lat="48.20570924319326877593994140625" lon="9.61646388284862041473388671875">
        <ele>551.79998779296875</ele>
        <time>2018-08-16T11:35:29.000Z</time>
      </trkpt>
      <trkpt lat="48.20581133477389812469482421875" lon="9.61674350313842296600341796875">
        <ele>551.5999755859375</ele>
        <time>2018-08-16T11:35:32.000Z</time>
      </trkpt>
      <trkpt lat="48.2059041224420070648193359375" lon="9.61702513508498668670654296875">
        <ele>551.5999755859375</ele>
        <time>2018-08-16T11:35:35.000Z</time>
      </trkpt>
      <trkpt lat="48.20604502223432064056396484375" lon="9.6174927614629268646240234375">
        <ele>551.79998779296875</ele>
        <time>2018-08-16T11:35:40.000Z</time>
      </trkpt>
      <trkpt lat="48.206352889537811279296875" lon="9.6182511560618877410888671875">
        <ele>552.20001220703125</ele>
        <time>2018-08-16T11:35:49.000Z</time>
      </trkpt>
      <trkpt lat="48.20639873854815959930419921875" lon="9.61832684464752674102783203125">
        <ele>552.20001220703125</ele>
        <time>2018-08-16T11:35:50.000Z</time>
      </trkpt>
      <trkpt lat="48.2068169116973876953125" lon="9.61885708384215831756591796875">
        <ele>552.4000244140625</ele>
        <time>2018-08-16T11:35:58.000Z</time>
      </trkpt>
      <trkpt lat="48.20721857249736785888671875" lon="9.61928523145616054534912109375">
        <ele>552.5999755859375</ele>
        <time>2018-08-16T11:36:05.000Z</time>
      </trkpt>
      <trkpt lat="48.20727732963860034942626953125" lon="9.61934424005448818206787109375">
        <ele>552.5999755859375</ele>
        <time>2018-08-16T11:36:06.000Z</time>
      </trkpt>
      <trkpt lat="48.20733658969402313232421875" lon="9.61940291337668895721435546875">
        <ele>552.5999755859375</ele>
        <time>2018-08-16T11:36:07.000Z</time>
      </trkpt>
      <trkpt lat="48.2073981128633022308349609375" lon="9.61945840157568454742431640625">
        <ele>552.5999755859375</ele>
        <time>2018-08-16T11:36:08.000Z</time>
      </trkpt>
      <trkpt lat="48.20746173150837421417236328125" lon="9.6195114590227603912353515625">
        <ele>552.5999755859375</ele>
        <time>2018-08-16T11:36:09.000Z</time>
      </trkpt>
      <trkpt lat="48.2077374123036861419677734375" lon="9.61970332078635692596435546875">
        <ele>552.4000244140625</ele>
        <time>2018-08-16T11:36:13.000Z</time>
      </trkpt>
      <trkpt lat="48.20813010446727275848388671875" lon="9.6198941767215728759765625">
        <ele>551.79998779296875</ele>
        <time>2018-08-16T11:36:18.000Z</time>
      </trkpt>
      <trkpt lat="48.2082155160605907440185546875" lon="9.61993047036230564117431640625">
        <ele>551.4000244140625</ele>
        <time>2018-08-16T11:36:19.000Z</time>
      </trkpt>
      <trkpt lat="48.20830210112035274505615234375" lon="9.61996684782207012176513671875">
        <ele>551.20001220703125</ele>
        <time>2018-08-16T11:36:20.000Z</time>
      </trkpt>
      <trkpt lat="48.20838935673236846923828125" lon="9.6200029738247394561767578125">
        <ele>550.79998779296875</ele>
        <time>2018-08-16T11:36:21.000Z</time>
      </trkpt>
      <trkpt lat="48.208766542375087738037109375" lon="9.62016801349818706512451171875">
        <ele>549.79998779296875</ele>
        <time>2018-08-16T11:36:25.000Z</time>
      </trkpt>
      <trkpt lat="48.209176920354366302490234375" lon="9.6204026229679584503173828125">
        <ele>548.5999755859375</ele>
        <time>2018-08-16T11:36:29.000Z</time>
      </trkpt>
      <trkpt lat="48.20928311906754970550537109375" lon="9.62046758271753787994384765625">
        <ele>548.20001220703125</ele>
        <time>2018-08-16T11:36:30.000Z</time>
      </trkpt>
      <trkpt lat="48.209388144314289093017578125" lon="9.62053799070417881011962890625">
        <ele>547.4000244140625</ele>
        <time>2018-08-16T11:36:31.000Z</time>
      </trkpt>
      <trkpt lat="48.20949040353298187255859375" lon="9.62061091326177120208740234375">
        <ele>546.79998779296875</ele>
        <time>2018-08-16T11:36:32.000Z</time>
      </trkpt>
      <trkpt lat="48.209586627781391143798828125" lon="9.6206827461719512939453125">
        <ele>546.20001220703125</ele>
        <time>2018-08-16T11:36:33.000Z</time>
      </trkpt>
      <trkpt lat="48.20976398885250091552734375" lon="9.62082431651651859283447265625">
        <ele>544.5999755859375</ele>
        <time>2018-08-16T11:36:35.000Z</time>
      </trkpt>
      <trkpt lat="48.2098409347236156463623046875" lon="9.6208974905312061309814453125">
        <ele>544</ele>
        <time>2018-08-16T11:36:36.000Z</time>
      </trkpt>
      <trkpt lat="48.2099054753780364990234375" lon="9.620980806648731231689453125">
        <ele>543.20001220703125</ele>
        <time>2018-08-16T11:36:37.000Z</time>
      </trkpt>
      <trkpt lat="48.20995752699673175811767578125" lon="9.62107594124972820281982421875">
        <ele>542.20001220703125</ele>
        <time>2018-08-16T11:36:38.000Z</time>
      </trkpt>
      <trkpt lat="48.2100055553019046783447265625" lon="9.621177278459072113037109375">
        <ele>541.5999755859375</ele>
        <time>2018-08-16T11:36:39.000Z</time>
      </trkpt>
      <trkpt lat="48.2100561819970607757568359375" lon="9.62128079496324062347412109375">
        <ele>541.20001220703125</ele>
        <time>2018-08-16T11:36:40.000Z</time>
      </trkpt>
      <trkpt lat="48.2101098261773586273193359375" lon="9.62138506583869457244873046875">
        <ele>540.5999755859375</ele>
        <time>2018-08-16T11:36:41.000Z</time>
      </trkpt>
      <trkpt lat="48.210164643824100494384765625" lon="9.62149034254252910614013671875">
        <ele>540.20001220703125</ele>
        <time>2018-08-16T11:36:42.000Z</time>
      </trkpt>
      <trkpt lat="48.21021803654730319976806640625" lon="9.6215982176363468170166015625">
        <ele>539.5999755859375</ele>
        <time>2018-08-16T11:36:43.000Z</time>
      </trkpt>
      <trkpt lat="48.21026765741407871246337890625" lon="9.62171095423400402069091796875">
        <ele>539</ele>
        <time>2018-08-16T11:36:44.000Z</time>
      </trkpt>
      <trkpt lat="48.21031409315764904022216796875" lon="9.62182737886905670166015625">
        <ele>538.4000244140625</ele>
        <time>2018-08-16T11:36:45.000Z</time>
      </trkpt>
      <trkpt lat="48.210359103977680206298828125" lon="9.62194598279893398284912109375">
        <ele>538</ele>
        <time>2018-08-16T11:36:46.000Z</time>
      </trkpt>
      <trkpt lat="48.21045038290321826934814453125" lon="9.6221842803061008453369140625">
        <ele>537.5999755859375</ele>
        <time>2018-08-16T11:36:48.000Z</time>
      </trkpt>
      <trkpt lat="48.21054585278034210205078125" lon="9.62242039851844310760498046875">
        <ele>537.20001220703125</ele>
        <time>2018-08-16T11:36:50.000Z</time>
      </trkpt>
      <trkpt lat="48.21063830517232418060302734375" lon="9.62265995331108570098876953125">
        <ele>537</ele>
        <time>2018-08-16T11:36:52.000Z</time>
      </trkpt>
      <trkpt lat="48.2106858305633068084716796875" lon="9.62277889251708984375">
        <ele>536.79998779296875</ele>
        <time>2018-08-16T11:36:53.000Z</time>
      </trkpt>
      <trkpt lat="48.21082790382206439971923828125" lon="9.62313403375446796417236328125">
        <ele>536.5999755859375</ele>
        <time>2018-08-16T11:36:56.000Z</time>
      </trkpt>
      <trkpt lat="48.21107600815594196319580078125" lon="9.6238730661571025848388671875">
        <ele>536.4000244140625</ele>
        <time>2018-08-16T11:37:02.000Z</time>
      </trkpt>
      <trkpt lat="48.21134171448647975921630859375" lon="9.6246328018605709075927734375">
        <ele>536.4000244140625</ele>
        <time>2018-08-16T11:37:09.000Z</time>
      </trkpt>
      <trkpt lat="48.21171118877828121185302734375" lon="9.62522682733833789825439453125">
        <ele>537.20001220703125</ele>
        <time>2018-08-16T11:37:18.000Z</time>
      </trkpt>
      <trkpt lat="48.211785368621349334716796875" lon="9.62531349621713161468505859375">
        <ele>537.79998779296875</ele>
        <time>2018-08-16T11:37:20.000Z</time>
      </trkpt>
      <trkpt lat="48.21188184432685375213623046875" lon="9.6254207007586956024169921875">
        <ele>539</ele>
        <time>2018-08-16T11:37:23.000Z</time>
      </trkpt>
      <trkpt lat="48.2120038010179996490478515625" lon="9.625572077929973602294921875">
        <ele>540</ele>
        <time>2018-08-16T11:37:27.000Z</time>
      </trkpt>
      <trkpt lat="48.21210782043635845184326171875" lon="9.6256939508020877838134765625">
        <ele>541.20001220703125</ele>
        <time>2018-08-16T11:37:30.000Z</time>
      </trkpt>
      <trkpt lat="48.2121781446039676666259765625" lon="9.62578020058572292327880859375">
        <ele>541.79998779296875</ele>
        <time>2018-08-16T11:37:32.000Z</time>
      </trkpt>
      <trkpt lat="48.212212510406970977783203125" lon="9.62582596577703952789306640625">
        <ele>542.20001220703125</ele>
        <time>2018-08-16T11:37:33.000Z</time>
      </trkpt>
      <trkpt lat="48.2123390771448612213134765625" lon="9.62600600905716419219970703125">
        <ele>543.4000244140625</ele>
        <time>2018-08-16T11:37:37.000Z</time>
      </trkpt>
      <trkpt lat="48.21245281957089900970458984375" lon="9.6262013912200927734375">
        <ele>544.4000244140625</ele>
        <time>2018-08-16T11:37:41.000Z</time>
      </trkpt>
      <trkpt lat="48.21256689727306365966796875" lon="9.62642141617834568023681640625">
        <ele>545.4000244140625</ele>
        <time>2018-08-16T11:37:45.000Z</time>
      </trkpt>
      <trkpt lat="48.21271701715886592864990234375" lon="9.62670137174427509307861328125">
        <ele>546.79998779296875</ele>
        <time>2018-08-16T11:37:50.000Z</time>
      </trkpt>
      <trkpt lat="48.21286202408373355865478515625" lon="9.626998007297515869140625">
        <ele>548</ele>
        <time>2018-08-16T11:37:55.000Z</time>
      </trkpt>
      <trkpt lat="48.2129368744790554046630859375" lon="9.6271946467459201812744140625">
        <ele>548.79998779296875</ele>
        <time>2018-08-16T11:37:58.000Z</time>
      </trkpt>
      <trkpt lat="48.21295715868473052978515625" lon="9.6272660605609416961669921875">
        <ele>549</ele>
        <time>2018-08-16T11:37:59.000Z</time>
      </trkpt>
      <trkpt lat="48.213027901947498321533203125" lon="9.62763109244406223297119140625">
        <ele>550.20001220703125</ele>
        <time>2018-08-16T11:38:04.000Z</time>
      </trkpt>
      <trkpt lat="48.21311029605567455291748046875" lon="9.6279674582183361053466796875">
        <ele>551</ele>
        <time>2018-08-16T11:38:09.000Z</time>
      </trkpt>
      <trkpt lat="48.21313393302261829376220703125" lon="9.6280304901301860809326171875">
        <ele>551.4000244140625</ele>
        <time>2018-08-16T11:38:10.000Z</time>
      </trkpt>
      <trkpt lat="48.213241137564182281494140625" lon="9.62826778180897235870361328125">
        <ele>552.4000244140625</ele>
        <time>2018-08-16T11:38:14.000Z</time>
      </trkpt>
      <trkpt lat="48.2132609188556671142578125" lon="9.628334082663059234619140625">
        <ele>552.79998779296875</ele>
        <time>2018-08-16T11:38:15.000Z</time>
      </trkpt>
      <trkpt lat="48.21328036487102508544921875" lon="9.62849258445203304290771484375">
        <ele>553.4000244140625</ele>
        <time>2018-08-16T11:38:17.000Z</time>
      </trkpt>
      <trkpt lat="48.21335814893245697021484375" lon="9.62905886583030223846435546875">
        <ele>554.4000244140625</ele>
        <time>2018-08-16T11:38:24.000Z</time>
      </trkpt>
      <trkpt lat="48.21349401958286762237548828125" lon="9.62985455989837646484375">
        <ele>554.79998779296875</ele>
        <time>2018-08-16T11:38:33.000Z</time>
      </trkpt>
      <trkpt lat="48.21357498876750469207763671875" lon="9.63033802807331085205078125">
        <ele>554.79998779296875</ele>
        <time>2018-08-16T11:38:38.000Z</time>
      </trkpt>
      <trkpt lat="48.2136664353311061859130859375" lon="9.63104722090065479278564453125">
        <ele>554.79998779296875</ele>
        <time>2018-08-16T11:38:45.000Z</time>
      </trkpt>
      <trkpt lat="48.2137080095708370208740234375" lon="9.631572179496288299560546875">
        <ele>554.79998779296875</ele>
        <time>2018-08-16T11:38:50.000Z</time>
      </trkpt>
      <trkpt lat="48.21372292935848236083984375" lon="9.63178801350295543670654296875">
        <ele>554.5999755859375</ele>
        <time>2018-08-16T11:38:52.000Z</time>
      </trkpt>
      <trkpt lat="48.2137356698513031005859375" lon="9.63200627826154232025146484375">
        <ele>554.5999755859375</ele>
        <time>2018-08-16T11:38:54.000Z</time>
      </trkpt>
      <trkpt lat="48.21377883665263652801513671875" lon="9.63287363760173320770263671875">
        <ele>554.20001220703125</ele>
        <time>2018-08-16T11:39:02.000Z</time>
      </trkpt>
      <trkpt lat="48.21380934678018093109130859375" lon="9.63375155813992023468017578125">
        <ele>554.20001220703125</ele>
        <time>2018-08-16T11:39:10.000Z</time>
      </trkpt>
      <trkpt lat="48.21382024325430393218994140625" lon="9.63397250510752201080322265625">
        <ele>554</ele>
        <time>2018-08-16T11:39:12.000Z</time>
      </trkpt>
      <trkpt lat="48.21386014111340045928955078125" lon="9.63475721888244152069091796875">
        <ele>554</ele>
        <time>2018-08-16T11:39:19.000Z</time>
      </trkpt>
      <trkpt lat="48.2138924114406108856201171875" lon="9.6352865360677242279052734375">
        <ele>553.5999755859375</ele>
        <time>2018-08-16T11:39:24.000Z</time>
      </trkpt>
      <trkpt lat="48.21388293989002704620361328125" lon="9.63537580333650112152099609375">
        <ele>553.5999755859375</ele>
        <time>2018-08-16T11:39:25.000Z</time>
      </trkpt>
      <trkpt lat="48.21380381472408771514892578125" lon="9.63547873310744762420654296875">
        <ele>553.4000244140625</ele>
        <time>2018-08-16T11:39:27.000Z</time>
      </trkpt>
      <trkpt lat="48.2137442193925380706787109375" lon="9.635489881038665771484375">
        <ele>553.4000244140625</ele>
        <time>2018-08-16T11:39:28.000Z</time>
      </trkpt>
      <trkpt lat="48.21367909200489521026611328125" lon="9.63549197651445865631103515625">
        <ele>553.20001220703125</ele>
        <time>2018-08-16T11:39:29.000Z</time>
      </trkpt>
      <trkpt lat="48.21360985748469829559326171875" lon="9.6354934014379978179931640625">
        <ele>553</ele>
        <time>2018-08-16T11:39:30.000Z</time>
      </trkpt>
      <trkpt lat="48.21346401236951351165771484375" lon="9.63550153188407421112060546875">
        <ele>553</ele>
        <time>2018-08-16T11:39:32.000Z</time>
      </trkpt>
      <trkpt lat="48.21338756941258907318115234375" lon="9.63550756685435771942138671875">
        <ele>552.4000244140625</ele>
        <time>2018-08-16T11:39:33.000Z</time>
      </trkpt>
      <trkpt lat="48.2132292352616786956787109375" lon="9.635513685643672943115234375">
        <ele>552</ele>
        <time>2018-08-16T11:39:35.000Z</time>
      </trkpt>
      <trkpt lat="48.21306603960692882537841796875" lon="9.63552449829876422882080078125">
        <ele>551.79998779296875</ele>
        <time>2018-08-16T11:39:37.000Z</time>
      </trkpt>
      <trkpt lat="48.2129831425845623016357421875" lon="9.6355306170880794525146484375">
        <ele>551.79998779296875</ele>
        <time>2018-08-16T11:39:38.000Z</time>
      </trkpt>
      <trkpt lat="48.21259279735386371612548828125" lon="9.6355624683201313018798828125">
        <ele>551.4000244140625</ele>
        <time>2018-08-16T11:39:43.000Z</time>
      </trkpt>
      <trkpt lat="48.21247628889977931976318359375" lon="9.6358363889157772064208984375">
        <ele>550.79998779296875</ele>
        <time>2018-08-16T11:39:47.000Z</time>
      </trkpt>
      <trkpt lat="48.21248198859393596649169921875" lon="9.6359356306493282318115234375">
        <ele>550.5999755859375</ele>
        <time>2018-08-16T11:39:48.000Z</time>
      </trkpt>
      <trkpt lat="48.2124872691929340362548828125" lon="9.636038057506084442138671875">
        <ele>550.4000244140625</ele>
        <time>2018-08-16T11:39:49.000Z</time>
      </trkpt>
      <trkpt lat="48.2124909572303295135498046875" lon="9.6361428312957286834716796875">
        <ele>550.20001220703125</ele>
        <time>2018-08-16T11:39:50.000Z</time>
      </trkpt>
      <trkpt lat="48.2125000096857547760009765625" lon="9.636358916759490966796875">
        <ele>549.4000244140625</ele>
        <time>2018-08-16T11:39:52.000Z</time>
      </trkpt>
      <trkpt lat="48.212510906159877777099609375" lon="9.63657776825129985809326171875">
        <ele>549</ele>
        <time>2018-08-16T11:39:54.000Z</time>
      </trkpt>
      <trkpt lat="48.21252976544201374053955078125" lon="9.63702569715678691864013671875">
        <ele>548.79998779296875</ele>
        <time>2018-08-16T11:39:58.000Z</time>
      </trkpt>
      <trkpt lat="48.212535046041011810302734375" lon="9.6371392719447612762451171875">
        <ele>548.79998779296875</ele>
        <time>2018-08-16T11:39:59.000Z</time>
      </trkpt>
      <trkpt lat="48.2125399075448513031005859375" lon="9.637253098189830780029296875">
        <ele>548.79998779296875</ele>
        <time>2018-08-16T11:40:00.000Z</time>
      </trkpt>
      <trkpt lat="48.2125509716570377349853515625" lon="9.63748485781252384185791015625">
        <ele>548.79998779296875</ele>
        <time>2018-08-16T11:40:02.000Z</time>
      </trkpt>
      <trkpt lat="48.21256815455853939056396484375" lon="9.63784427382051944732666015625">
        <ele>548.5999755859375</ele>
        <time>2018-08-16T11:40:05.000Z</time>
      </trkpt>
      <trkpt lat="48.21259648539125919342041015625" lon="9.63846403174102306365966796875">
        <ele>548</ele>
        <time>2018-08-16T11:40:10.000Z</time>
      </trkpt>
      <trkpt lat="48.21260168217122554779052734375" lon="9.6385864913463592529296875">
        <ele>547.79998779296875</ele>
        <time>2018-08-16T11:40:11.000Z</time>
      </trkpt>
      <trkpt lat="48.21261626668274402618408203125" lon="9.63895085267722606658935546875">
        <ele>547.20001220703125</ele>
        <time>2018-08-16T11:40:14.000Z</time>
      </trkpt>
      <trkpt lat="48.2126270793378353118896484375" lon="9.63919174857437610626220703125">
        <ele>546.79998779296875</ele>
        <time>2018-08-16T11:40:16.000Z</time>
      </trkpt>
      <trkpt lat="48.2126502133905887603759765625" lon="9.63966951705515384674072265625">
        <ele>546</ele>
        <time>2018-08-16T11:40:20.000Z</time>
      </trkpt>
      <trkpt lat="48.2126612775027751922607421875" lon="9.639911167323589324951171875">
        <ele>545.5999755859375</ele>
        <time>2018-08-16T11:40:22.000Z</time>
      </trkpt>
      <trkpt lat="48.21266756393015384674072265625" lon="9.64003295637667179107666015625">
        <ele>545.4000244140625</ele>
        <time>2018-08-16T11:40:23.000Z</time>
      </trkpt>
      <trkpt lat="48.21267460472881793975830078125" lon="9.6401555836200714111328125">
        <ele>545</ele>
        <time>2018-08-16T11:40:24.000Z</time>
      </trkpt>
      <trkpt lat="48.2126867584884166717529296875" lon="9.64040075428783893585205078125">
        <ele>544.79998779296875</ele>
        <time>2018-08-16T11:40:26.000Z</time>
      </trkpt>
      <trkpt lat="48.2126931287348270416259765625" lon="9.64052229188382625579833984375">
        <ele>544.5999755859375</ele>
        <time>2018-08-16T11:40:27.000Z</time>
      </trkpt>
      <trkpt lat="48.21270360611379146575927734375" lon="9.64076251722872257232666015625">
        <ele>543.79998779296875</ele>
        <time>2018-08-16T11:40:29.000Z</time>
      </trkpt>
      <trkpt lat="48.21270897053182125091552734375" lon="9.64088120497763156890869140625">
        <ele>543.4000244140625</ele>
        <time>2018-08-16T11:40:30.000Z</time>
      </trkpt>
      <trkpt lat="48.2127142511308193206787109375" lon="9.64100123383104801177978515625">
        <ele>543.20001220703125</ele>
        <time>2018-08-16T11:40:31.000Z</time>
      </trkpt>
      <trkpt lat="48.21272456087172031402587890625" lon="9.64124430902302265167236328125">
        <ele>542.5999755859375</ele>
        <time>2018-08-16T11:40:33.000Z</time>
      </trkpt>
      <trkpt lat="48.21274350397288799285888671875" lon="9.6416108496487140655517578125">
        <ele>542</ele>
        <time>2018-08-16T11:40:36.000Z</time>
      </trkpt>
      <trkpt lat="48.21275599300861358642578125" lon="9.641853757202625274658203125">
        <ele>541.5999755859375</ele>
        <time>2018-08-16T11:40:38.000Z</time>
      </trkpt>
      <trkpt lat="48.2127625308930873870849609375" lon="9.6419749595224857330322265625">
        <ele>541.4000244140625</ele>
        <time>2018-08-16T11:40:39.000Z</time>
      </trkpt>
      <trkpt lat="48.21278683841228485107421875" lon="9.64245951734483242034912109375">
        <ele>540.4000244140625</ele>
        <time>2018-08-16T11:40:43.000Z</time>
      </trkpt>
      <trkpt lat="48.21280159056186676025390625" lon="9.64270041324198246002197265625">
        <ele>540</ele>
        <time>2018-08-16T11:40:45.000Z</time>
      </trkpt>
      <trkpt lat="48.212838135659694671630859375" lon="9.6431846357882022857666015625">
        <ele>539.4000244140625</ele>
        <time>2018-08-16T11:40:49.000Z</time>
      </trkpt>
      <trkpt lat="48.2128503732383251190185546875" lon="9.6433063410222530364990234375">
        <ele>539.20001220703125</ele>
        <time>2018-08-16T11:40:50.000Z</time>
      </trkpt>
      <trkpt lat="48.21290242485702037811279296875" lon="9.6436746418476104736328125">
        <ele>538.20001220703125</ele>
        <time>2018-08-16T11:40:53.000Z</time>
      </trkpt>
      <trkpt lat="48.21296445094048976898193359375" lon="9.64404881000518798828125">
        <ele>537.79998779296875</ele>
        <time>2018-08-16T11:40:56.000Z</time>
      </trkpt>
      <trkpt lat="48.2130113057792186737060546875" lon="9.6443011052906513214111328125">
        <ele>537</ele>
        <time>2018-08-16T11:40:58.000Z</time>
      </trkpt>
      <trkpt lat="48.21308732964098453521728515625" lon="9.64468189515173435211181640625">
        <ele>536.5999755859375</ele>
        <time>2018-08-16T11:41:01.000Z</time>
      </trkpt>
      <trkpt lat="48.21314013563096523284912109375" lon="9.64493486098945140838623046875">
        <ele>536</ele>
        <time>2018-08-16T11:41:03.000Z</time>
      </trkpt>
      <trkpt lat="48.21316896937787532806396484375" lon="9.645060002803802490234375">
        <ele>535.79998779296875</ele>
        <time>2018-08-16T11:41:04.000Z</time>
      </trkpt>
      <trkpt lat="48.21329033933579921722412109375" lon="9.64555428363382816314697265625">
        <ele>534.5999755859375</ele>
        <time>2018-08-16T11:41:08.000Z</time>
      </trkpt>
      <trkpt lat="48.2134873978793621063232421875" lon="9.6462742052972316741943359375">
        <ele>533.4000244140625</ele>
        <time>2018-08-16T11:41:14.000Z</time>
      </trkpt>
      <trkpt lat="48.21362125687301158905029296875" lon="9.64677862823009490966796875">
        <ele>532</ele>
        <time>2018-08-16T11:41:18.000Z</time>
      </trkpt>
      <trkpt lat="48.21368512697517871856689453125" lon="9.64704508893191814422607421875">
        <ele>531.5999755859375</ele>
        <time>2018-08-16T11:41:20.000Z</time>
      </trkpt>
      <trkpt lat="48.213750086724758148193359375" lon="9.64732018299400806427001953125">
        <ele>531</ele>
        <time>2018-08-16T11:41:22.000Z</time>
      </trkpt>
      <trkpt lat="48.21378327906131744384765625" lon="9.6474607475101947784423828125">
        <ele>530.79998779296875</ele>
        <time>2018-08-16T11:41:23.000Z</time>
      </trkpt>
      <trkpt lat="48.21388344280421733856201171875" lon="9.64789199642837047576904296875">
        <ele>529.5999755859375</ele>
        <time>2018-08-16T11:41:26.000Z</time>
      </trkpt>
      <trkpt lat="48.213951922953128814697265625" lon="9.6481882967054843902587890625">
        <ele>528.79998779296875</ele>
        <time>2018-08-16T11:41:28.000Z</time>
      </trkpt>
      <trkpt lat="48.21405828930437564849853515625" lon="9.6486462838947772979736328125">
        <ele>527.79998779296875</ele>
        <time>2018-08-16T11:41:31.000Z</time>
      </trkpt>
      <trkpt lat="48.2140929065644741058349609375" lon="9.64880009181797504425048828125">
        <ele>527</ele>
        <time>2018-08-16T11:41:32.000Z</time>
      </trkpt>
      <trkpt lat="48.2141586206853389739990234375" lon="9.64910452254116535186767578125">
        <ele>525.4000244140625</ele>
        <time>2018-08-16T11:41:34.000Z</time>
      </trkpt>
      <trkpt lat="48.21423313580453395843505859375" lon="9.649392105638980865478515625">
        <ele>524.4000244140625</ele>
        <time>2018-08-16T11:41:36.000Z</time>
      </trkpt>
      <trkpt lat="48.21435601450502872467041015625" lon="9.64979100041091442108154296875">
        <ele>523</ele>
        <time>2018-08-16T11:41:39.000Z</time>
      </trkpt>
      <trkpt lat="48.21443178690969944000244140625" lon="9.6500487439334392547607421875">
        <ele>522.5999755859375</ele>
        <time>2018-08-16T11:41:41.000Z</time>
      </trkpt>
      <trkpt lat="48.2145817391574382781982421875" lon="9.650823064148426055908203125">
        <ele>521.79998779296875</ele>
        <time>2018-08-16T11:41:47.000Z</time>
      </trkpt>
      <trkpt lat="48.21465072222054004669189453125" lon="9.6513244695961475372314453125">
        <ele>520.79998779296875</ele>
        <time>2018-08-16T11:41:51.000Z</time>
      </trkpt>
      <trkpt lat="48.21469900198280811309814453125" lon="9.65170609764754772186279296875">
        <ele>520.20001220703125</ele>
        <time>2018-08-16T11:41:54.000Z</time>
      </trkpt>
      <trkpt lat="48.21473889984190464019775390625" lon="9.651964008808135986328125">
        <ele>520</ele>
        <time>2018-08-16T11:41:56.000Z</time>
      </trkpt>
      <trkpt lat="48.21478717960417270660400390625" lon="9.6522183157503604888916015625">
        <ele>519.4000244140625</ele>
        <time>2018-08-16T11:41:58.000Z</time>
      </trkpt>
      <trkpt lat="48.214813582599163055419921875" lon="9.6523430384695529937744140625">
        <ele>519.20001220703125</ele>
        <time>2018-08-16T11:41:59.000Z</time>
      </trkpt>
      <trkpt lat="48.2148680649697780609130859375" lon="9.65258753858506679534912109375">
        <ele>519</ele>
        <time>2018-08-16T11:42:01.000Z</time>
      </trkpt>
      <trkpt lat="48.21495682932436466217041015625" lon="9.65294477529823780059814453125">
        <ele>518.5999755859375</ele>
        <time>2018-08-16T11:42:04.000Z</time>
      </trkpt>
      <trkpt lat="48.2149884290993213653564453125" lon="9.65306430123746395111083984375">
        <ele>518.4000244140625</ele>
        <time>2018-08-16T11:42:05.000Z</time>
      </trkpt>
      <trkpt lat="48.215071745216846466064453125" lon="9.65343989431858062744140625">
        <ele>517.4000244140625</ele>
        <time>2018-08-16T11:42:08.000Z</time>
      </trkpt>
      <trkpt lat="48.21506646461784839630126953125" lon="9.653575681149959564208984375">
        <ele>517.4000244140625</ele>
        <time>2018-08-16T11:42:09.000Z</time>
      </trkpt>
      <trkpt lat="48.21499052457511425018310546875" lon="9.6539818681776523590087890625">
        <ele>516.79998779296875</ele>
        <time>2018-08-16T11:42:12.000Z</time>
      </trkpt>
      <trkpt lat="48.2149748504161834716796875" lon="9.65412545017898082733154296875">
        <ele>516.5999755859375</ele>
        <time>2018-08-16T11:42:13.000Z</time>
      </trkpt>
      <trkpt lat="48.21496319957077503204345703125" lon="9.65427112765610218048095703125">
        <ele>516.4000244140625</ele>
        <time>2018-08-16T11:42:14.000Z</time>
      </trkpt>
      <trkpt lat="48.21495615877211093902587890625" lon="9.65441512875258922576904296875">
        <ele>516.20001220703125</ele>
        <time>2018-08-16T11:42:15.000Z</time>
      </trkpt>
      <trkpt lat="48.21501114405691623687744140625" lon="9.6548224054276943206787109375">
        <ele>514.79998779296875</ele>
        <time>2018-08-16T11:42:18.000Z</time>
      </trkpt>
      <trkpt lat="48.21509328670799732208251953125" lon="9.65505919419229030609130859375">
        <ele>513.79998779296875</ele>
        <time>2018-08-16T11:42:20.000Z</time>
      </trkpt>
      <trkpt lat="48.2151282392442226409912109375" lon="9.65517503209412097930908203125">
        <ele>513.20001220703125</ele>
        <time>2018-08-16T11:42:21.000Z</time>
      </trkpt>
      <trkpt lat="48.215156234800815582275390625" lon="9.65528835542500019073486328125">
        <ele>512.79998779296875</ele>
        <time>2018-08-16T11:42:22.000Z</time>
      </trkpt>
      <trkpt lat="48.21517827920615673065185546875" lon="9.65539849363267421722412109375">
        <ele>512.20001220703125</ele>
        <time>2018-08-16T11:42:23.000Z</time>
      </trkpt>
      <trkpt lat="48.21519403718411922454833984375" lon="9.6555036865174770355224609375">
        <ele>511.79998779296875</ele>
        <time>2018-08-16T11:42:24.000Z</time>
      </trkpt>
      <trkpt lat="48.21521784178912639617919921875" lon="9.655685238540172576904296875">
        <ele>511.20001220703125</ele>
        <time>2018-08-16T11:42:26.000Z</time>
      </trkpt>
      <trkpt lat="48.21522823534905910491943359375" lon="9.6557568199932575225830078125">
        <ele>511</ele>
        <time>2018-08-16T11:42:27.000Z</time>
      </trkpt>
      <trkpt lat="48.21524533443152904510498046875" lon="9.6559137292206287384033203125">
        <ele>510.79998779296875</ele>
        <time>2018-08-16T11:42:30.000Z</time>
      </trkpt>
      <trkpt lat="48.21525773964822292327880859375" lon="9.65596863068640232086181640625">
        <ele>510.79998779296875</ele>
        <time>2018-08-16T11:42:31.000Z</time>
      </trkpt>
      <trkpt lat="48.2152698934078216552734375" lon="9.65603149496018886566162109375">
        <ele>510.600006103515625</ele>
        <time>2018-08-16T11:42:32.000Z</time>
      </trkpt>
      <trkpt lat="48.2152817957103252410888671875" lon="9.65609930455684661865234375">
        <ele>510.600006103515625</ele>
        <time>2018-08-16T11:42:33.000Z</time>
      </trkpt>
      <trkpt lat="48.2153133116662502288818359375" lon="9.65624607168138027191162109375">
        <ele>510.600006103515625</ele>
        <time>2018-08-16T11:42:35.000Z</time>
      </trkpt>
      <trkpt lat="48.21535279043018817901611328125" lon="9.65640834532678127288818359375">
        <ele>510.600006103515625</ele>
        <time>2018-08-16T11:42:37.000Z</time>
      </trkpt>
      <trkpt lat="48.2153763435781002044677734375" lon="9.65649333782494068145751953125">
        <ele>510.600006103515625</ele>
        <time>2018-08-16T11:42:38.000Z</time>
      </trkpt>
      <trkpt lat="48.215396292507648468017578125" lon="9.6565819345414638519287109375">
        <ele>510.600006103515625</ele>
        <time>2018-08-16T11:42:39.000Z</time>
      </trkpt>
      <trkpt lat="48.2154769264161586761474609375" lon="9.65705961920320987701416015625">
        <ele>510.600006103515625</ele>
        <time>2018-08-16T11:42:44.000Z</time>
      </trkpt>
      <trkpt lat="48.2154856435954570770263671875" lon="9.65737544931471347808837890625">
        <ele>510.600006103515625</ele>
        <time>2018-08-16T11:42:47.000Z</time>
      </trkpt>
      <trkpt lat="48.21547835133969783782958984375" lon="9.65748257003724575042724609375">
        <ele>510.600006103515625</ele>
        <time>2018-08-16T11:42:48.000Z</time>
      </trkpt>
      <trkpt lat="48.21545085869729518890380859375" lon="9.657693207263946533203125">
        <ele>510.600006103515625</ele>
        <time>2018-08-16T11:42:50.000Z</time>
      </trkpt>
      <trkpt lat="48.21530199609696865081787109375" lon="9.65844514779746532440185546875">
        <ele>510.20001220703125</ele>
        <time>2018-08-16T11:42:57.000Z</time>
      </trkpt>
      <trkpt lat="48.215230666100978851318359375" lon="9.6588748879730701446533203125">
        <ele>509.600006103515625</ele>
        <time>2018-08-16T11:43:01.000Z</time>
      </trkpt>
      <trkpt lat="48.2151651196181774139404296875" lon="9.65930563397705554962158203125">
        <ele>509.399993896484375</ele>
        <time>2018-08-16T11:43:05.000Z</time>
      </trkpt>
      <trkpt lat="48.214967809617519378662109375" lon="9.66012471355497837066650390625">
        <ele>509.20001220703125</ele>
        <time>2018-08-16T11:43:13.000Z</time>
      </trkpt>
      <trkpt lat="48.21490251459181308746337890625" lon="9.66042973101139068603515625">
        <ele>509.20001220703125</ele>
        <time>2018-08-16T11:43:16.000Z</time>
      </trkpt>
      <trkpt lat="48.2149347849190235137939453125" lon="9.66085259802639484405517578125">
        <ele>509.20001220703125</ele>
        <time>2018-08-16T11:43:20.000Z</time>
      </trkpt>
      <trkpt lat="48.2152030058205127716064453125" lon="9.6616186201572418212890625">
        <ele>509.20001220703125</ele>
        <time>2018-08-16T11:43:28.000Z</time>
      </trkpt>
      <trkpt lat="48.215552866458892822265625" lon="9.66230065561830997467041015625">
        <ele>509.20001220703125</ele>
        <time>2018-08-16T11:43:36.000Z</time>
      </trkpt>
      <trkpt lat="48.2157632522284984588623046875" lon="9.66275210492312908172607421875">
        <ele>509.20001220703125</ele>
        <time>2018-08-16T11:43:41.000Z</time>
      </trkpt>
      <trkpt lat="48.21596793830394744873046875" lon="9.66322249732911586761474609375">
        <ele>509</ele>
        <time>2018-08-16T11:43:46.000Z</time>
      </trkpt>
      <trkpt lat="48.2163040526211261749267578125" lon="9.66398290358483791351318359375">
        <ele>508.79998779296875</ele>
        <time>2018-08-16T11:43:54.000Z</time>
      </trkpt>
      <trkpt lat="48.2166406698524951934814453125" lon="9.6647569723427295684814453125">
        <ele>508.79998779296875</ele>
        <time>2018-08-16T11:44:02.000Z</time>
      </trkpt>
      <trkpt lat="48.21692305617034435272216796875" lon="9.66546566225588321685791015625">
        <ele>509</ele>
        <time>2018-08-16T11:44:09.000Z</time>
      </trkpt>
      <trkpt lat="48.21722321212291717529296875" lon="9.66617309488356113433837890625">
        <ele>509</ele>
        <time>2018-08-16T11:44:16.000Z</time>
      </trkpt>
      <trkpt lat="48.21755270473659038543701171875" lon="9.6668742410838603973388671875">
        <ele>508.79998779296875</ele>
        <time>2018-08-16T11:44:23.000Z</time>
      </trkpt>
      <trkpt lat="48.2178815267980098724365234375" lon="9.66758242808282375335693359375">
        <ele>508.600006103515625</ele>
        <time>2018-08-16T11:44:30.000Z</time>
      </trkpt>
      <trkpt lat="48.21802712045609951019287109375" lon="9.66789071448147296905517578125">
        <ele>508.600006103515625</ele>
        <time>2018-08-16T11:44:33.000Z</time>
      </trkpt>
      <trkpt lat="48.21835954673588275909423828125" lon="9.66861826367676258087158203125">
        <ele>508.399993896484375</ele>
        <time>2018-08-16T11:44:40.000Z</time>
      </trkpt>
      <trkpt lat="48.2184055633842945098876953125" lon="9.6687236241996288299560546875">
        <ele>508.399993896484375</ele>
        <time>2018-08-16T11:44:41.000Z</time>
      </trkpt>
      <trkpt lat="48.2187230698764324188232421875" lon="9.66946098022162914276123046875">
        <ele>508.20001220703125</ele>
        <time>2018-08-16T11:44:48.000Z</time>
      </trkpt>
      <trkpt lat="48.2188531570136547088623046875" lon="9.66976189054548740386962890625">
        <ele>508</ele>
        <time>2018-08-16T11:44:51.000Z</time>
      </trkpt>
      <trkpt lat="48.21917317807674407958984375" lon="9.67046814970672130584716796875">
        <ele>507.79998779296875</ele>
        <time>2018-08-16T11:44:58.000Z</time>
      </trkpt>
      <trkpt lat="48.21948339231312274932861328125" lon="9.6711766719818115234375">
        <ele>507.600006103515625</ele>
        <time>2018-08-16T11:45:05.000Z</time>
      </trkpt>
      <trkpt lat="48.21973283775150775909423828125" lon="9.671759717166423797607421875">
        <ele>507.79998779296875</ele>
        <time>2018-08-16T11:45:11.000Z</time>
      </trkpt>
      <trkpt lat="48.2198901660740375518798828125" lon="9.67213430441915988922119140625">
        <ele>507.79998779296875</ele>
        <time>2018-08-16T11:45:15.000Z</time>
      </trkpt>
      <trkpt lat="48.22008781135082244873046875" lon="9.67259329743683338165283203125">
        <ele>507.79998779296875</ele>
        <time>2018-08-16T11:45:20.000Z</time>
      </trkpt>
      <trkpt lat="48.22040523402392864227294921875" lon="9.67334917746484279632568359375">
        <ele>507.600006103515625</ele>
        <time>2018-08-16T11:45:28.000Z</time>
      </trkpt>
      <trkpt lat="48.22068653069436550140380859375" lon="9.6740122698247432708740234375">
        <ele>507.600006103515625</ele>
        <time>2018-08-16T11:45:35.000Z</time>
      </trkpt>
      <trkpt lat="48.221003450453281402587890625" lon="9.67476102523505687713623046875">
        <ele>507.600006103515625</ele>
        <time>2018-08-16T11:45:43.000Z</time>
      </trkpt>
      <trkpt lat="48.22132456116378307342529296875" lon="9.67552612535655498504638671875">
        <ele>507.600006103515625</ele>
        <time>2018-08-16T11:45:51.000Z</time>
      </trkpt>
      <trkpt lat="48.22162278927862644195556640625" lon="9.676297344267368316650390625">
        <ele>507.600006103515625</ele>
        <time>2018-08-16T11:45:59.000Z</time>
      </trkpt>
      <trkpt lat="48.2219128869473934173583984375" lon="9.67706269584596157073974609375">
        <ele>507.79998779296875</ele>
        <time>2018-08-16T11:46:07.000Z</time>
      </trkpt>
      <trkpt lat="48.22206434793770313262939453125" lon="9.67745027504861354827880859375">
        <ele>507.79998779296875</ele>
        <time>2018-08-16T11:46:11.000Z</time>
      </trkpt>
      <trkpt lat="48.222141377627849578857421875" lon="9.6776453219354152679443359375">
        <ele>507.600006103515625</ele>
        <time>2018-08-16T11:46:13.000Z</time>
      </trkpt>
      <trkpt lat="48.22244622744619846343994140625" lon="9.6784422732889652252197265625">
        <ele>507.20001220703125</ele>
        <time>2018-08-16T11:46:21.000Z</time>
      </trkpt>
      <trkpt lat="48.22248629294335842132568359375" lon="9.67854260466992855072021484375">
        <ele>507.20001220703125</ele>
        <time>2018-08-16T11:46:22.000Z</time>
      </trkpt>
      <trkpt lat="48.2225649990141391754150390625" lon="9.6787423454225063323974609375">
        <ele>507</ele>
        <time>2018-08-16T11:46:24.000Z</time>
      </trkpt>
      <trkpt lat="48.22260447777807712554931640625" lon="9.678843431174755096435546875">
        <ele>507</ele>
        <time>2018-08-16T11:46:25.000Z</time>
      </trkpt>
      <trkpt lat="48.222910501062870025634765625" lon="9.6796288155019283294677734375">
        <ele>507.20001220703125</ele>
        <time>2018-08-16T11:46:33.000Z</time>
      </trkpt>
      <trkpt lat="48.2229485549032688140869140625" lon="9.67972428537905216217041015625">
        <ele>507.20001220703125</ele>
        <time>2018-08-16T11:46:34.000Z</time>
      </trkpt>
      <trkpt lat="48.223061375319957733154296875" lon="9.6800105273723602294921875">
        <ele>507</ele>
        <time>2018-08-16T11:46:37.000Z</time>
      </trkpt>
      <trkpt lat="48.2231379859149456024169921875" lon="9.68019987456500530242919921875">
        <ele>507</ele>
        <time>2018-08-16T11:46:39.000Z</time>
      </trkpt>
      <trkpt lat="48.223249129951000213623046875" lon="9.68048301525413990020751953125">
        <ele>507.20001220703125</ele>
        <time>2018-08-16T11:46:42.000Z</time>
      </trkpt>
      <trkpt lat="48.2235071249306201934814453125" lon="9.6811556629836559295654296875">
        <ele>506.79998779296875</ele>
        <time>2018-08-16T11:46:49.000Z</time>
      </trkpt>
      <trkpt lat="48.223583064973354339599609375" lon="9.681351967155933380126953125">
        <ele>506.79998779296875</ele>
        <time>2018-08-16T11:46:51.000Z</time>
      </trkpt>
      <trkpt lat="48.22389193810522556304931640625" lon="9.6821393631398677825927734375">
        <ele>506.600006103515625</ele>
        <time>2018-08-16T11:46:59.000Z</time>
      </trkpt>
      <trkpt lat="48.2240700535476207733154296875" lon="9.68261285685002803802490234375">
        <ele>506.600006103515625</ele>
        <time>2018-08-16T11:47:04.000Z</time>
      </trkpt>
      <trkpt lat="48.22410232387483119964599609375" lon="9.68270287849009037017822265625">
        <ele>506.600006103515625</ele>
        <time>2018-08-16T11:47:05.000Z</time>
      </trkpt>
      <trkpt lat="48.224173150956630706787109375" lon="9.6829752065241336822509765625">
        <ele>506.600006103515625</ele>
        <time>2018-08-16T11:47:08.000Z</time>
      </trkpt>
      <trkpt lat="48.224294520914554595947265625" lon="9.68327678740024566650390625">
        <ele>506.600006103515625</ele>
        <time>2018-08-16T11:47:13.000Z</time>
      </trkpt>
      <trkpt lat="48.22439686395227909088134765625" lon="9.683269076049327850341796875">
        <ele>506.600006103515625</ele>
        <time>2018-08-16T11:47:15.000Z</time>
      </trkpt>
      <trkpt lat="48.2245209999382495880126953125" lon="9.6832568384706974029541015625">
        <ele>506.399993896484375</ele>
        <time>2018-08-16T11:47:17.000Z</time>
      </trkpt>
      <trkpt lat="48.2245878875255584716796875" lon="9.68325356952846050262451171875">
        <ele>506.399993896484375</ele>
        <time>2018-08-16T11:47:18.000Z</time>
      </trkpt>
      <trkpt lat="48.22465653531253337860107421875" lon="9.683256335556507110595703125">
        <ele>506.399993896484375</ele>
        <time>2018-08-16T11:47:19.000Z</time>
      </trkpt>
      <trkpt lat="48.22479584254324436187744140625" lon="9.68328257091343402862548828125">
        <ele>506.20001220703125</ele>
        <time>2018-08-16T11:47:21.000Z</time>
      </trkpt>
      <trkpt lat="48.22501561604440212249755859375" lon="9.6833498775959014892578125">
        <ele>506.20001220703125</ele>
        <time>2018-08-16T11:47:24.000Z</time>
      </trkpt>
      <trkpt lat="48.22530529461801052093505859375" lon="9.68348356895148754119873046875">
        <ele>506.20001220703125</ele>
        <time>2018-08-16T11:47:28.000Z</time>
      </trkpt>
      <trkpt lat="48.22551660239696502685546875" lon="9.683607704937458038330078125">
        <ele>506.20001220703125</ele>
        <time>2018-08-16T11:47:31.000Z</time>
      </trkpt>
      <trkpt lat="48.226004429161548614501953125" lon="9.68403493054211139678955078125">
        <ele>506</ele>
        <time>2018-08-16T11:47:39.000Z</time>
      </trkpt>
      <trkpt lat="48.22640080936253070831298828125" lon="9.68456181697547435760498046875">
        <ele>506.399993896484375</ele>
        <time>2018-08-16T11:47:47.000Z</time>
      </trkpt>
      <trkpt lat="48.22658571414649486541748046875" lon="9.68486172147095203399658203125">
        <ele>506.600006103515625</ele>
        <time>2018-08-16T11:47:51.000Z</time>
      </trkpt>
      <trkpt lat="48.22697513736784458160400390625" lon="9.68548349104821681976318359375">
        <ele>506.20001220703125</ele>
        <time>2018-08-16T11:47:59.000Z</time>
      </trkpt>
      <trkpt lat="48.227171860635280609130859375" lon="9.685793705284595489501953125">
        <ele>506</ele>
        <time>2018-08-16T11:48:03.000Z</time>
      </trkpt>
      <trkpt lat="48.22731846012175083160400390625" lon="9.68603049404919147491455078125">
        <ele>505.79998779296875</ele>
        <time>2018-08-16T11:48:06.000Z</time>
      </trkpt>
      <trkpt lat="48.2276645489037036895751953125" lon="9.68658822588622570037841796875">
        <ele>505.600006103515625</ele>
        <time>2018-08-16T11:48:13.000Z</time>
      </trkpt>
      <trkpt lat="48.2281134836375713348388671875" lon="9.6871586143970489501953125">
        <ele>505.399993896484375</ele>
        <time>2018-08-16T11:48:21.000Z</time>
      </trkpt>
      <trkpt lat="48.22860809974372386932373046875" lon="9.68762506730854511260986328125">
        <ele>505.20001220703125</ele>
        <time>2018-08-16T11:48:29.000Z</time>
      </trkpt>
      <trkpt lat="48.22879065759479999542236328125" lon="9.6877894364297389984130859375">
        <ele>505.20001220703125</ele>
        <time>2018-08-16T11:48:32.000Z</time>
      </trkpt>
      <trkpt lat="48.2288490794599056243896484375" lon="9.68784115277230739593505859375">
        <ele>505.20001220703125</ele>
        <time>2018-08-16T11:48:33.000Z</time>
      </trkpt>
      <trkpt lat="48.228963576257228851318359375" lon="9.68794609420001506805419921875">
        <ele>505</ele>
        <time>2018-08-16T11:48:35.000Z</time>
      </trkpt>
      <trkpt lat="48.22924579493701457977294921875" lon="9.6882051788270473480224609375">
        <ele>505.20001220703125</ele>
        <time>2018-08-16T11:48:40.000Z</time>
      </trkpt>
      <trkpt lat="48.22946791537106037139892578125" lon="9.688402153551578521728515625">
        <ele>505.20001220703125</ele>
        <time>2018-08-16T11:48:44.000Z</time>
      </trkpt>
      <trkpt lat="48.22954670526087284088134765625" lon="9.68851438723504543304443359375">
        <ele>505.399993896484375</ele>
        <time>2018-08-16T11:48:46.000Z</time>
      </trkpt>
      <trkpt lat="48.22960655204951763153076171875" lon="9.68862779438495635986328125">
        <ele>505.399993896484375</ele>
        <time>2018-08-16T11:48:48.000Z</time>
      </trkpt>
      <trkpt lat="48.2297261618077754974365234375" lon="9.6887741424143314361572265625">
        <ele>505.600006103515625</ele>
        <time>2018-08-16T11:48:51.000Z</time>
      </trkpt>
      <trkpt lat="48.22983101941645145416259765625" lon="9.68885578215122222900390625">
        <ele>505.79998779296875</ele>
        <time>2018-08-16T11:48:53.000Z</time>
      </trkpt>
      <trkpt lat="48.22988550178706645965576171875" lon="9.68889676965773105621337890625">
        <ele>505.79998779296875</ele>
        <time>2018-08-16T11:48:54.000Z</time>
      </trkpt>
      <trkpt lat="48.229940570890903472900390625" lon="9.688939265906810760498046875">
        <ele>505.79998779296875</ele>
        <time>2018-08-16T11:48:55.000Z</time>
      </trkpt>
      <trkpt lat="48.22999614290893077850341796875" lon="9.6889840252697467803955078125">
        <ele>505.79998779296875</ele>
        <time>2018-08-16T11:48:56.000Z</time>
      </trkpt>
      <trkpt lat="48.23025262914597988128662109375" lon="9.6892106719315052032470703125">
        <ele>506.399993896484375</ele>
        <time>2018-08-16T11:49:01.000Z</time>
      </trkpt>
      <trkpt lat="48.23031800799071788787841796875" lon="9.68960814177989959716796875">
        <ele>507</ele>
        <time>2018-08-16T11:49:06.000Z</time>
      </trkpt>
      <trkpt lat="48.23032001964747905731201171875" lon="9.68969129025936126708984375">
        <ele>507</ele>
        <time>2018-08-16T11:49:07.000Z</time>
      </trkpt>
      <trkpt lat="48.2304138131439685821533203125" lon="9.6902310848236083984375">
        <ele>507.79998779296875</ele>
        <time>2018-08-16T11:49:16.000Z</time>
      </trkpt>
      <trkpt lat="48.2305609993636608123779296875" lon="9.6906010620296001434326171875">
        <ele>508</ele>
        <time>2018-08-16T11:49:21.000Z</time>
      </trkpt>
      <trkpt lat="48.2307675294578075408935546875" lon="9.69114026986062526702880859375">
        <ele>508</ele>
        <time>2018-08-16T11:49:27.000Z</time>
      </trkpt>
      <trkpt lat="48.2309646718204021453857421875" lon="9.69164251349866390228271484375">
        <ele>507.399993896484375</ele>
        <time>2018-08-16T11:49:32.000Z</time>
      </trkpt>
      <trkpt lat="48.231089897453784942626953125" lon="9.69195717014372348785400390625">
        <ele>507</ele>
        <time>2018-08-16T11:49:35.000Z</time>
      </trkpt>
      <trkpt lat="48.23130941949784755706787109375" lon="9.6924936957657337188720703125">
        <ele>506.399993896484375</ele>
        <time>2018-08-16T11:49:40.000Z</time>
      </trkpt>
      <trkpt lat="48.23140312917530536651611328125" lon="9.69270869158208370208740234375">
        <ele>506</ele>
        <time>2018-08-16T11:49:42.000Z</time>
      </trkpt>
      <trkpt lat="48.23159373365342617034912109375" lon="9.69312326051294803619384765625">
        <ele>505.20001220703125</ele>
        <time>2018-08-16T11:49:46.000Z</time>
      </trkpt>
      <trkpt lat="48.2316412590444087982177734375" lon="9.69322334043681621551513671875">
        <ele>505</ele>
        <time>2018-08-16T11:49:47.000Z</time>
      </trkpt>
      <trkpt lat="48.2317807339131832122802734375" lon="9.6935141086578369140625">
        <ele>504.399993896484375</ele>
        <time>2018-08-16T11:49:50.000Z</time>
      </trkpt>
      <trkpt lat="48.23187083937227725982666015625" lon="9.69369842670857906341552734375">
        <ele>504.399993896484375</ele>
        <time>2018-08-16T11:49:52.000Z</time>
      </trkpt>
      <trkpt lat="48.231909982860088348388671875" lon="9.69379180110991001129150390625">
        <ele>504.399993896484375</ele>
        <time>2018-08-16T11:49:53.000Z</time>
      </trkpt>
      <trkpt lat="48.2320390641689300537109375" lon="9.69416278414428234100341796875">
        <ele>504.399993896484375</ele>
        <time>2018-08-16T11:49:57.000Z</time>
      </trkpt>
      <trkpt lat="48.23211207054555416107177734375" lon="9.69434282742440700531005859375">
        <ele>504.399993896484375</ele>
        <time>2018-08-16T11:49:59.000Z</time>
      </trkpt>
      <trkpt lat="48.2321495376527309417724609375" lon="9.69443301670253276824951171875">
        <ele>504.399993896484375</ele>
        <time>2018-08-16T11:50:00.000Z</time>
      </trkpt>
      <trkpt lat="48.23218700475990772247314453125" lon="9.69452287070453166961669921875">
        <ele>504.399993896484375</ele>
        <time>2018-08-16T11:50:01.000Z</time>
      </trkpt>
      <trkpt lat="48.23222338221967220306396484375" lon="9.69461448490619659423828125">
        <ele>504.399993896484375</ele>
        <time>2018-08-16T11:50:02.000Z</time>
      </trkpt>
      <trkpt lat="48.2323610968887805938720703125" lon="9.69498974271118640899658203125">
        <ele>504.600006103515625</ele>
        <time>2018-08-16T11:50:06.000Z</time>
      </trkpt>
      <trkpt lat="48.232551701366901397705078125" lon="9.69554764218628406524658203125">
        <ele>504.79998779296875</ele>
        <time>2018-08-16T11:50:12.000Z</time>
      </trkpt>
      <trkpt lat="48.23277331888675689697265625" lon="9.69629933126270771026611328125">
        <ele>505</ele>
        <time>2018-08-16T11:50:20.000Z</time>
      </trkpt>
      <trkpt lat="48.23284531943500041961669921875" lon="9.69659437425434589385986328125">
        <ele>505</ele>
        <time>2018-08-16T11:50:23.000Z</time>
      </trkpt>
      <trkpt lat="48.2329873926937580108642578125" lon="9.69718672335147857666015625">
        <ele>505</ele>
        <time>2018-08-16T11:50:29.000Z</time>
      </trkpt>
      <trkpt lat="48.23310415260493755340576171875" lon="9.6977873705327510833740234375">
        <ele>505.20001220703125</ele>
        <time>2018-08-16T11:50:35.000Z</time>
      </trkpt>
      <trkpt lat="48.23320356197655200958251953125" lon="9.6983756124973297119140625">
        <ele>505.399993896484375</ele>
        <time>2018-08-16T11:50:41.000Z</time>
      </trkpt>
      <trkpt lat="48.2332532666623592376708984375" lon="9.69866286031901836395263671875">
        <ele>505.399993896484375</ele>
        <time>2018-08-16T11:50:44.000Z</time>
      </trkpt>
      <trkpt lat="48.2333116047084331512451171875" lon="9.69916158355772495269775390625">
        <ele>505.399993896484375</ele>
        <time>2018-08-16T11:50:49.000Z</time>
      </trkpt>
      <trkpt lat="48.23333633132278919219970703125" lon="9.69937540590763092041015625">
        <ele>505.399993896484375</ele>
        <time>2018-08-16T11:50:51.000Z</time>
      </trkpt>
      <trkpt lat="48.23343842290341854095458984375" lon="9.70012843608856201171875">
        <ele>505.20001220703125</ele>
        <time>2018-08-16T11:50:58.000Z</time>
      </trkpt>
      <trkpt lat="48.23346708901226520538330078125" lon="9.7003441862761974334716796875">
        <ele>505.20001220703125</ele>
        <time>2018-08-16T11:51:00.000Z</time>
      </trkpt>
      <trkpt lat="48.2335416041314601898193359375" lon="9.7010013274848461151123046875">
        <ele>505.20001220703125</ele>
        <time>2018-08-16T11:51:06.000Z</time>
      </trkpt>
      <trkpt lat="48.23357219807803630828857421875" lon="9.70130517147481441497802734375">
        <ele>505</ele>
        <time>2018-08-16T11:51:09.000Z</time>
      </trkpt>
      <trkpt lat="48.23359767906367778778076171875" lon="9.70166333019733428955078125">
        <ele>505.399993896484375</ele>
        <time>2018-08-16T11:51:13.000Z</time>
      </trkpt>
      <trkpt lat="48.233542107045650482177734375" lon="9.70200623385608196258544921875">
        <ele>505.399993896484375</ele>
        <time>2018-08-16T11:51:17.000Z</time>
      </trkpt>
      <trkpt lat="48.23360421694815158843994140625" lon="9.7021441161632537841796875">
        <ele>505.399993896484375</ele>
        <time>2018-08-16T11:51:19.000Z</time>
      </trkpt>
      <trkpt lat="48.233630619943141937255859375" lon="9.7022237442433834075927734375">
        <ele>505.399993896484375</ele>
        <time>2018-08-16T11:51:20.000Z</time>
      </trkpt>
      <trkpt lat="48.23365299962460994720458984375" lon="9.70240764319896697998046875">
        <ele>505.399993896484375</ele>
        <time>2018-08-16T11:51:22.000Z</time>
      </trkpt>
      <trkpt lat="48.23368853889405727386474609375" lon="9.70269572921097278594970703125">
        <ele>505.399993896484375</ele>
        <time>2018-08-16T11:51:25.000Z</time>
      </trkpt>
      <trkpt lat="48.23380521498620510101318359375" lon="9.70354087650775909423828125">
        <ele>505.20001220703125</ele>
        <time>2018-08-16T11:51:33.000Z</time>
      </trkpt>
      <trkpt lat="48.233914934098720550537109375" lon="9.70441418699920177459716796875">
        <ele>504.20001220703125</ele>
        <time>2018-08-16T11:51:41.000Z</time>
      </trkpt>
      <trkpt lat="48.23394787497818470001220703125" lon="9.70472431741654872894287109375">
        <ele>504.20001220703125</ele>
        <time>2018-08-16T11:51:44.000Z</time>
      </trkpt>
      <trkpt lat="48.23399917222559452056884765625" lon="9.70507644116878509521484375">
        <ele>504.20001220703125</ele>
        <time>2018-08-16T11:51:48.000Z</time>
      </trkpt>
      <trkpt lat="48.234222047030925750732421875" lon="9.7051020897924900054931640625">
        <ele>504.399993896484375</ele>
        <time>2018-08-16T11:51:52.000Z</time>
      </trkpt>
      <trkpt lat="48.23440619744360446929931640625" lon="9.7050248086452484130859375">
        <ele>504.399993896484375</ele>
        <time>2018-08-16T11:51:55.000Z</time>
      </trkpt>
      <trkpt lat="48.234937191009521484375" lon="9.70485541038215160369873046875">
        <ele>504.600006103515625</ele>
        <time>2018-08-16T11:52:03.000Z</time>
      </trkpt>
      <trkpt lat="48.23529384098947048187255859375" lon="9.70473471097648143768310546875">
        <ele>504.600006103515625</ele>
        <time>2018-08-16T11:52:08.000Z</time>
      </trkpt>
      <trkpt lat="48.23551051318645477294921875" lon="9.70466380007565021514892578125">
        <ele>504.600006103515625</ele>
        <time>2018-08-16T11:52:11.000Z</time>
      </trkpt>
      <trkpt lat="48.23587202467024326324462890625" lon="9.7045505605638027191162109375">
        <ele>504.399993896484375</ele>
        <time>2018-08-16T11:52:16.000Z</time>
      </trkpt>
      <trkpt lat="48.23601476848125457763671875" lon="9.70450471155345439910888671875">
        <ele>504.399993896484375</ele>
        <time>2018-08-16T11:52:18.000Z</time>
      </trkpt>
      <trkpt lat="48.23622171767055988311767578125" lon="9.7044400870800018310546875">
        <ele>504.399993896484375</ele>
        <time>2018-08-16T11:52:21.000Z</time>
      </trkpt>
      <trkpt lat="48.23635800741612911224365234375" lon="9.70439641736447811126708984375">
        <ele>504.399993896484375</ele>
        <time>2018-08-16T11:52:23.000Z</time>
      </trkpt>
      <trkpt lat="48.23663595132529735565185546875" lon="9.7043279372155666351318359375">
        <ele>504.399993896484375</ele>
        <time>2018-08-16T11:52:27.000Z</time>
      </trkpt>
      <trkpt lat="48.23719871230423450469970703125" lon="9.70426364801824092864990234375">
        <ele>504.20001220703125</ele>
        <time>2018-08-16T11:52:35.000Z</time>
      </trkpt>
      <trkpt lat="48.23765904642641544342041015625" lon="9.70417077653110027313232421875">
        <ele>504.20001220703125</ele>
        <time>2018-08-16T11:52:42.000Z</time>
      </trkpt>
      <trkpt lat="48.23772174306213855743408203125" lon="9.70418234355747699737548828125">
        <ele>504.20001220703125</ele>
        <time>2018-08-16T11:52:43.000Z</time>
      </trkpt>
      <trkpt lat="48.23790949769318103790283203125" lon="9.70444067381322383880615234375">
        <ele>504.20001220703125</ele>
        <time>2018-08-16T11:52:47.000Z</time>
      </trkpt>
      <trkpt lat="48.23795090429484844207763671875" lon="9.7045284323394298553466796875">
        <ele>504.20001220703125</ele>
        <time>2018-08-16T11:52:48.000Z</time>
      </trkpt>
      <trkpt lat="48.23799449019134044647216796875" lon="9.70461518503725528717041015625">
        <ele>504.20001220703125</ele>
        <time>2018-08-16T11:52:49.000Z</time>
      </trkpt>
      <trkpt lat="48.23817336000502109527587890625" lon="9.70494769513607025146484375">
        <ele>504</ele>
        <time>2018-08-16T11:52:53.000Z</time>
      </trkpt>
      <trkpt lat="48.23821895755827426910400390625" lon="9.70502790994942188262939453125">
        <ele>504</ele>
        <time>2018-08-16T11:52:54.000Z</time>
      </trkpt>
      <trkpt lat="48.238264806568622589111328125" lon="9.70510753802955150604248046875">
        <ele>503.79998779296875</ele>
        <time>2018-08-16T11:52:55.000Z</time>
      </trkpt>
      <trkpt lat="48.23831073939800262451171875" lon="9.70518917776644229888916015625">
        <ele>503.600006103515625</ele>
        <time>2018-08-16T11:52:56.000Z</time>
      </trkpt>
      <trkpt lat="48.23835625313222408294677734375" lon="9.70527299679815769195556640625">
        <ele>503.399993896484375</ele>
        <time>2018-08-16T11:52:57.000Z</time>
      </trkpt>
      <trkpt lat="48.2384455204010009765625" lon="9.70544666983187198638916015625">
        <ele>503.20001220703125</ele>
        <time>2018-08-16T11:52:59.000Z</time>
      </trkpt>
      <trkpt lat="48.2384884357452392578125" lon="9.7055379487574100494384765625">
        <ele>503</ele>
        <time>2018-08-16T11:53:00.000Z</time>
      </trkpt>
      <trkpt lat="48.2385301776230335235595703125" lon="9.70563165843486785888671875">
        <ele>503</ele>
        <time>2018-08-16T11:53:01.000Z</time>
      </trkpt>
      <trkpt lat="48.2387638650834560394287109375" lon="9.7062182240188121795654296875">
        <ele>503</ele>
        <time>2018-08-16T11:53:07.000Z</time>
      </trkpt>
      <trkpt lat="48.23883645236492156982421875" lon="9.7064177133142948150634765625">
        <ele>502.79998779296875</ele>
        <time>2018-08-16T11:53:09.000Z</time>
      </trkpt>
      <trkpt lat="48.23906905017793178558349609375" lon="9.70711433328688144683837890625">
        <ele>502.600006103515625</ele>
        <time>2018-08-16T11:53:16.000Z</time>
      </trkpt>
      <trkpt lat="48.23921740986406803131103515625" lon="9.707493446767330169677734375">
        <ele>502.600006103515625</ele>
        <time>2018-08-16T11:53:20.000Z</time>
      </trkpt>
      <trkpt lat="48.23930047452449798583984375" lon="9.7076739929616451263427734375">
        <ele>502.600006103515625</ele>
        <time>2018-08-16T11:53:22.000Z</time>
      </trkpt>
      <trkpt lat="48.23958478868007659912109375" lon="9.7084193117916584014892578125">
        <ele>502.399993896484375</ele>
        <time>2018-08-16T11:53:30.000Z</time>
      </trkpt>
      <trkpt lat="48.23961286805570125579833984375" lon="9.7085128538310527801513671875">
        <ele>502.399993896484375</ele>
        <time>2018-08-16T11:53:31.000Z</time>
      </trkpt>
      <trkpt lat="48.23964622803032398223876953125" lon="9.70860027708113193511962890625">
        <ele>502.399993896484375</ele>
        <time>2018-08-16T11:53:32.000Z</time>
      </trkpt>
      <trkpt lat="48.2398662529885768890380859375" lon="9.70870890654623508453369140625">
        <ele>502.399993896484375</ele>
        <time>2018-08-16T11:53:36.000Z</time>
      </trkpt>
      <trkpt lat="48.2399232499301433563232421875" lon="9.70869432203471660614013671875">
        <ele>502.399993896484375</ele>
        <time>2018-08-16T11:53:37.000Z</time>
      </trkpt>
      <trkpt lat="48.240039087831974029541015625" lon="9.7086707688868045806884765625">
        <ele>502.399993896484375</ele>
        <time>2018-08-16T11:53:39.000Z</time>
      </trkpt>
      <trkpt lat="48.2401502318680286407470703125" lon="9.70864386297762393951416015625">
        <ele>502.399993896484375</ele>
        <time>2018-08-16T11:53:41.000Z</time>
      </trkpt>
      <trkpt lat="48.24020563624799251556396484375" lon="9.70863179303705692291259765625">
        <ele>502.399993896484375</ele>
        <time>2018-08-16T11:53:42.000Z</time>
      </trkpt>
      <trkpt lat="48.24026045389473438262939453125" lon="9.70862139947712421417236328125">
        <ele>502.399993896484375</ele>
        <time>2018-08-16T11:53:43.000Z</time>
      </trkpt>
      <trkpt lat="48.24031560681760311126708984375" lon="9.70861083827912807464599609375">
        <ele>502.399993896484375</ele>
        <time>2018-08-16T11:53:44.000Z</time>
      </trkpt>
      <trkpt lat="48.24037143029272556304931640625" lon="9.7086028754711151123046875">
        <ele>502.399993896484375</ele>
        <time>2018-08-16T11:53:45.000Z</time>
      </trkpt>
      <trkpt lat="48.24042842723429203033447265625" lon="9.70859273336827754974365234375">
        <ele>502.399993896484375</ele>
        <time>2018-08-16T11:53:46.000Z</time>
      </trkpt>
      <trkpt lat="48.240591622889041900634765625" lon="9.7083700262010097503662109375">
        <ele>502.600006103515625</ele>
        <time>2018-08-16T11:53:50.000Z</time>
      </trkpt>
      <trkpt lat="48.24061383493244647979736328125" lon="9.70829106867313385009765625">
        <ele>502.600006103515625</ele>
        <time>2018-08-16T11:53:51.000Z</time>
      </trkpt>
      <trkpt lat="48.2407121546566486358642578125" lon="9.7079723887145519256591796875">
        <ele>502.79998779296875</ele>
        <time>2018-08-16T11:53:55.000Z</time>
      </trkpt>
      <trkpt lat="48.24076898396015167236328125" lon="9.7078091092407703399658203125">
        <ele>502.79998779296875</ele>
        <time>2018-08-16T11:53:57.000Z</time>
      </trkpt>
      <trkpt lat="48.2408715784549713134765625" lon="9.7075643576681613922119140625">
        <ele>502.79998779296875</ele>
        <time>2018-08-16T11:54:00.000Z</time>
      </trkpt>
      <trkpt lat="48.24105153791606426239013671875" lon="9.70702816732227802276611328125">
        <ele>502.79998779296875</ele>
        <time>2018-08-16T11:54:06.000Z</time>
      </trkpt>
      <trkpt lat="48.241099901497364044189453125" lon="9.7068532370030879974365234375">
        <ele>502.79998779296875</ele>
        <time>2018-08-16T11:54:08.000Z</time>
      </trkpt>
      <trkpt lat="48.24116737581789493560791015625" lon="9.7067365609109401702880859375">
        <ele>502.79998779296875</ele>
        <time>2018-08-16T11:54:10.000Z</time>
      </trkpt>
      <trkpt lat="48.24124566279351711273193359375" lon="9.7067600302398204803466796875">
        <ele>502.79998779296875</ele>
        <time>2018-08-16T11:54:12.000Z</time>
      </trkpt>
      <trkpt lat="48.2413166575133800506591796875" lon="9.70695725642144680023193359375">
        <ele>502.79998779296875</ele>
        <time>2018-08-16T11:54:15.000Z</time>
      </trkpt>
      <trkpt lat="48.24136803857982158660888671875" lon="9.7071124054491519927978515625">
        <ele>502.79998779296875</ele>
        <time>2018-08-16T11:54:17.000Z</time>
      </trkpt>
      <trkpt lat="48.2413974590599536895751953125" lon="9.7071925364434719085693359375">
        <ele>502.79998779296875</ele>
        <time>2018-08-16T11:54:18.000Z</time>
      </trkpt>
      <trkpt lat="48.2414846308529376983642578125" lon="9.70744826830923557281494140625">
        <ele>502.79998779296875</ele>
        <time>2018-08-16T11:54:21.000Z</time>
      </trkpt>
      <trkpt lat="48.2417645864188671112060546875" lon="9.70816810615360736846923828125">
        <ele>502.79998779296875</ele>
        <time>2018-08-16T11:54:29.000Z</time>
      </trkpt>
      <trkpt lat="48.24191302992403507232666015625" lon="9.70853984355926513671875">
        <ele>502.79998779296875</ele>
        <time>2018-08-16T11:54:33.000Z</time>
      </trkpt>
      <trkpt lat="48.2421498186886310577392578125" lon="9.70911006443202495574951171875">
        <ele>503</ele>
        <time>2018-08-16T11:54:39.000Z</time>
      </trkpt>
      <trkpt lat="48.24227831326425075531005859375" lon="9.70939672552049160003662109375">
        <ele>503</ele>
        <time>2018-08-16T11:54:42.000Z</time>
      </trkpt>
      <trkpt lat="48.2426017709076404571533203125" lon="9.71004414372146129608154296875">
        <ele>503</ele>
        <time>2018-08-16T11:54:49.000Z</time>
      </trkpt>
      <trkpt lat="48.24284635484218597412109375" lon="9.71051285974681377410888671875">
        <ele>502.79998779296875</ele>
        <time>2018-08-16T11:54:54.000Z</time>
      </trkpt>
      <trkpt lat="48.24318238534033298492431640625" lon="9.71102549694478511810302734375">
        <ele>503</ele>
        <time>2018-08-16T11:55:00.000Z</time>
      </trkpt>
      <trkpt lat="48.243565857410430908203125" lon="9.7116047702729701995849609375">
        <ele>503</ele>
        <time>2018-08-16T11:55:07.000Z</time>
      </trkpt>
      <trkpt lat="48.24366887100040912628173828125" lon="9.71177391707897186279296875">
        <ele>503</ele>
        <time>2018-08-16T11:55:09.000Z</time>
      </trkpt>
      <trkpt lat="48.24371815659105777740478515625" lon="9.711860753595829010009765625">
        <ele>503</ele>
        <time>2018-08-16T11:55:10.000Z</time>
      </trkpt>
      <trkpt lat="48.24376677162945270538330078125" lon="9.71194951795041561126708984375">
        <ele>503</ele>
        <time>2018-08-16T11:55:11.000Z</time>
      </trkpt>
      <trkpt lat="48.24381454847753047943115234375" lon="9.71203786320984363555908203125">
        <ele>503</ele>
        <time>2018-08-16T11:55:12.000Z</time>
      </trkpt>
      <trkpt lat="48.2440800033509731292724609375" lon="9.7125666774809360504150390625">
        <ele>503</ele>
        <time>2018-08-16T11:55:18.000Z</time>
      </trkpt>
      <trkpt lat="48.24421755038201808929443359375" lon="9.71281939186155796051025390625">
        <ele>502.79998779296875</ele>
        <time>2018-08-16T11:55:21.000Z</time>
      </trkpt>
      <trkpt lat="48.2443157024681568145751953125" lon="9.7129804082214832305908203125">
        <ele>502.79998779296875</ele>
        <time>2018-08-16T11:55:23.000Z</time>
      </trkpt>
      <trkpt lat="48.2443646527826786041259765625" lon="9.7130598686635494232177734375">
        <ele>502.79998779296875</ele>
        <time>2018-08-16T11:55:24.000Z</time>
      </trkpt>
      <trkpt lat="48.2445125095546245574951171875" lon="9.71330369822680950164794921875">
        <ele>502.79998779296875</ele>
        <time>2018-08-16T11:55:27.000Z</time>
      </trkpt>
      <trkpt lat="48.2446167804300785064697265625" lon="9.7134585119783878326416015625">
        <ele>502.600006103515625</ele>
        <time>2018-08-16T11:55:29.000Z</time>
      </trkpt>
      <trkpt lat="48.24483864940702915191650390625" lon="9.71373788081109523773193359375">
        <ele>502.600006103515625</ele>
        <time>2018-08-16T11:55:33.000Z</time>
      </trkpt>
      <trkpt lat="48.2449550740420818328857421875" lon="9.71387006342411041259765625">
        <ele>502.600006103515625</ele>
        <time>2018-08-16T11:55:35.000Z</time>
      </trkpt>
      <trkpt lat="48.245142661035060882568359375" lon="9.71405052579939365386962890625">
        <ele>502.600006103515625</ele>
        <time>2018-08-16T11:55:38.000Z</time>
      </trkpt>
      <trkpt lat="48.24568212032318115234375" lon="9.71448588185012340545654296875">
        <ele>502.20001220703125</ele>
        <time>2018-08-16T11:55:46.000Z</time>
      </trkpt>
      <trkpt lat="48.2462405227124691009521484375" lon="9.7147919051349163055419921875">
        <ele>502</ele>
        <time>2018-08-16T11:55:54.000Z</time>
      </trkpt>
      <trkpt lat="48.2465318776667118072509765625" lon="9.7149141132831573486328125">
        <ele>502</ele>
        <time>2018-08-16T11:55:58.000Z</time>
      </trkpt>
      <trkpt lat="48.24694342911243438720703125" lon="9.71507026813924312591552734375">
        <ele>501.79998779296875</ele>
        <time>2018-08-16T11:56:04.000Z</time>
      </trkpt>
      <trkpt lat="48.24706437997519969940185546875" lon="9.7151332162320613861083984375">
        <ele>501.79998779296875</ele>
        <time>2018-08-16T11:56:06.000Z</time>
      </trkpt>
      <trkpt lat="48.24718206189572811126708984375" lon="9.715188033878803253173828125">
        <ele>501.79998779296875</ele>
        <time>2018-08-16T11:56:08.000Z</time>
      </trkpt>
      <trkpt lat="48.24724090285599231719970703125" lon="9.71521695144474506378173828125">
        <ele>501.79998779296875</ele>
        <time>2018-08-16T11:56:09.000Z</time>
      </trkpt>
      <trkpt lat="48.24730074964463710784912109375" lon="9.715242348611354827880859375">
        <ele>501.79998779296875</ele>
        <time>2018-08-16T11:56:10.000Z</time>
      </trkpt>
      <trkpt lat="48.24746754951775074005126953125" lon="9.71530630253255367279052734375">
        <ele>501.79998779296875</ele>
        <time>2018-08-16T11:56:13.000Z</time>
      </trkpt>
      <trkpt lat="48.2476104609668254852294921875" lon="9.7153330408036708831787109375">
        <ele>501.79998779296875</ele>
        <time>2018-08-16T11:56:16.000Z</time>
      </trkpt>
      <trkpt lat="48.2476527057588100433349609375" lon="9.71537101082503795623779296875">
        <ele>501.79998779296875</ele>
        <time>2018-08-16T11:56:17.000Z</time>
      </trkpt>
      <trkpt lat="48.2477311603724956512451171875" lon="9.7154929675161838531494140625">
        <ele>502</ele>
        <time>2018-08-16T11:56:19.000Z</time>
      </trkpt>
      <trkpt lat="48.2478206790983676910400390625" lon="9.71562347374856472015380859375">
        <ele>502</ele>
        <time>2018-08-16T11:56:21.000Z</time>
      </trkpt>
      <trkpt lat="48.24791707098484039306640625" lon="9.7157457657158374786376953125">
        <ele>502</ele>
        <time>2018-08-16T11:56:23.000Z</time>
      </trkpt>
      <trkpt lat="48.24801606126129627227783203125" lon="9.7158657945692539215087890625">
        <ele>502</ele>
        <time>2018-08-16T11:56:25.000Z</time>
      </trkpt>
      <trkpt lat="48.24811915867030620574951171875" lon="9.71598775126039981842041015625">
        <ele>502</ele>
        <time>2018-08-16T11:56:27.000Z</time>
      </trkpt>
      <trkpt lat="48.24821990914642810821533203125" lon="9.71611381508409976959228515625">
        <ele>502</ele>
        <time>2018-08-16T11:56:29.000Z</time>
      </trkpt>
      <trkpt lat="48.24831948615610599517822265625" lon="9.7162349335849285125732421875">
        <ele>502</ele>
        <time>2018-08-16T11:56:31.000Z</time>
      </trkpt>
      <trkpt lat="48.24836927466094493865966796875" lon="9.7162949480116367340087890625">
        <ele>502</ele>
        <time>2018-08-16T11:56:32.000Z</time>
      </trkpt>
      <trkpt lat="48.24877479113638401031494140625" lon="9.71679040230810642242431640625">
        <ele>501.79998779296875</ele>
        <time>2018-08-16T11:56:40.000Z</time>
      </trkpt>
      <trkpt lat="48.2489879429340362548828125" lon="9.71705040894448757171630859375">
        <ele>501.79998779296875</ele>
        <time>2018-08-16T11:56:44.000Z</time>
      </trkpt>
      <trkpt lat="48.2493153400719165802001953125" lon="9.71744368784129619598388671875">
        <ele>501.399993896484375</ele>
        <time>2018-08-16T11:56:50.000Z</time>
      </trkpt>
      <trkpt lat="48.24964919127523899078369140625" lon="9.717857837677001953125">
        <ele>501.399993896484375</ele>
        <time>2018-08-16T11:56:56.000Z</time>
      </trkpt>
      <trkpt lat="48.2499723136425018310546875" lon="9.7182529605925083160400390625">
        <ele>501.600006103515625</ele>
        <time>2018-08-16T11:57:02.000Z</time>
      </trkpt>
      <trkpt lat="48.25007113628089427947998046875" lon="9.7184008173644542694091796875">
        <ele>501.600006103515625</ele>
        <time>2018-08-16T11:57:04.000Z</time>
      </trkpt>
      <trkpt lat="48.2501649297773838043212890625" lon="9.719121493399143218994140625">
        <ele>501.399993896484375</ele>
        <time>2018-08-16T11:57:11.000Z</time>
      </trkpt>
      <trkpt lat="48.25013299472630023956298828125" lon="9.71953488886356353759765625">
        <ele>501.20001220703125</ele>
        <time>2018-08-16T11:57:15.000Z</time>
      </trkpt>
      <trkpt lat="48.2501414604485034942626953125" lon="9.719737730920314788818359375">
        <ele>501.20001220703125</ele>
        <time>2018-08-16T11:57:17.000Z</time>
      </trkpt>
      <trkpt lat="48.250226788222789764404296875" lon="9.7202887572348117828369140625">
        <ele>501</ele>
        <time>2018-08-16T11:57:23.000Z</time>
      </trkpt>
      <trkpt lat="48.2502514310181140899658203125" lon="9.72037517465651035308837890625">
        <ele>501</ele>
        <time>2018-08-16T11:57:24.000Z</time>
      </trkpt>
      <trkpt lat="48.2502718828618526458740234375" lon="9.7204637713730335235595703125">
        <ele>501</ele>
        <time>2018-08-16T11:57:25.000Z</time>
      </trkpt>
      <trkpt lat="48.25022586621344089508056640625" lon="9.72085797227919101715087890625">
        <ele>501</ele>
        <time>2018-08-16T11:57:29.000Z</time>
      </trkpt>
      <trkpt lat="48.25019401498138904571533203125" lon="9.72095905803143978118896484375">
        <ele>501</ele>
        <time>2018-08-16T11:57:30.000Z</time>
      </trkpt>
      <trkpt lat="48.2501277141273021697998046875" lon="9.7211641632020473480224609375">
        <ele>500.600006103515625</ele>
        <time>2018-08-16T11:57:32.000Z</time>
      </trkpt>
      <trkpt lat="48.25006694532930850982666015625" lon="9.7213767282664775848388671875">
        <ele>500.600006103515625</ele>
        <time>2018-08-16T11:57:34.000Z</time>
      </trkpt>
      <trkpt lat="48.24991188012063503265380859375" lon="9.72190772183239459991455078125">
        <ele>500.399993896484375</ele>
        <time>2018-08-16T11:57:39.000Z</time>
      </trkpt>
      <trkpt lat="48.249820433557033538818359375" lon="9.7222229652106761932373046875">
        <ele>500.399993896484375</ele>
        <time>2018-08-16T11:57:42.000Z</time>
      </trkpt>
      <trkpt lat="48.2496995665132999420166015625" lon="9.7226308286190032958984375">
        <ele>500.399993896484375</ele>
        <time>2018-08-16T11:57:46.000Z</time>
      </trkpt>
      <trkpt lat="48.249461352825164794921875" lon="9.723433144390583038330078125">
        <ele>500.399993896484375</ele>
        <time>2018-08-16T11:57:54.000Z</time>
      </trkpt>
      <trkpt lat="48.24939639307558536529541015625" lon="9.7236312925815582275390625">
        <ele>500.399993896484375</ele>
        <time>2018-08-16T11:57:56.000Z</time>
      </trkpt>
      <trkpt lat="48.2491314411163330078125" lon="9.7244280762970447540283203125">
        <ele>500.399993896484375</ele>
        <time>2018-08-16T11:58:04.000Z</time>
      </trkpt>
      <trkpt lat="48.24893253855407238006591796875" lon="9.72501908428966999053955078125">
        <ele>500.600006103515625</ele>
        <time>2018-08-16T11:58:10.000Z</time>
      </trkpt>
      <trkpt lat="48.248676471412181854248046875" lon="9.7257695160806179046630859375">
        <ele>500.79998779296875</ele>
        <time>2018-08-16T11:58:18.000Z</time>
      </trkpt>
      <trkpt lat="48.24839944951236248016357421875" lon="9.72656068392097949981689453125">
        <ele>501.399993896484375</ele>
        <time>2018-08-16T11:58:26.000Z</time>
      </trkpt>
      <trkpt lat="48.24828729964792728424072265625" lon="9.72686109133064746856689453125">
        <ele>501.399993896484375</ele>
        <time>2018-08-16T11:58:29.000Z</time>
      </trkpt>
      <trkpt lat="48.2480151392519474029541015625" lon="9.7275729663670063018798828125">
        <ele>501.20001220703125</ele>
        <time>2018-08-16T11:58:37.000Z</time>
      </trkpt>
      <trkpt lat="48.247953951358795166015625" lon="9.7277218289673328399658203125">
        <ele>501.20001220703125</ele>
        <time>2018-08-16T11:58:39.000Z</time>
      </trkpt>
      <trkpt lat="48.24793391861021518707275390625" lon="9.72779533825814723968505859375">
        <ele>501.20001220703125</ele>
        <time>2018-08-16T11:58:40.000Z</time>
      </trkpt>
      <trkpt lat="48.2479982078075408935546875" lon="9.72798409871757030487060546875">
        <ele>501.399993896484375</ele>
        <time>2018-08-16T11:58:43.000Z</time>
      </trkpt>
      <trkpt lat="48.24810373596847057342529296875" lon="9.7280569374561309814453125">
        <ele>501.79998779296875</ele>
        <time>2018-08-16T11:58:45.000Z</time>
      </trkpt>
      <trkpt lat="48.248158134520053863525390625" lon="9.72809993661940097808837890625">
        <ele>502</ele>
        <time>2018-08-16T11:58:46.000Z</time>
      </trkpt>
      <trkpt lat="48.24827774427831172943115234375" lon="9.72819264046847820281982421875">
        <ele>502</ele>
        <time>2018-08-16T11:58:48.000Z</time>
      </trkpt>
      <trkpt lat="48.2483986951410770416259765625" lon="9.72827545367181301116943359375">
        <ele>502</ele>
        <time>2018-08-16T11:58:50.000Z</time>
      </trkpt>
      <trkpt lat="48.24864705093204975128173828125" lon="9.7284446842968463897705078125">
        <ele>502.20001220703125</ele>
        <time>2018-08-16T11:58:54.000Z</time>
      </trkpt>
      <trkpt lat="48.24870924465358257293701171875" lon="9.72848684526979923248291015625">
        <ele>502.20001220703125</ele>
        <time>2018-08-16T11:58:55.000Z</time>
      </trkpt>
      <trkpt lat="48.249217607080936431884765625" lon="9.7288334369659423828125">
        <ele>502.600006103515625</ele>
        <time>2018-08-16T11:59:03.000Z</time>
      </trkpt>
      <trkpt lat="48.24965857900679111480712890625" lon="9.729139544069766998291015625">
        <ele>502.600006103515625</ele>
        <time>2018-08-16T11:59:10.000Z</time>
      </trkpt>
      <trkpt lat="48.24991757981479167938232421875" lon="9.72931497730314731597900390625">
        <ele>502.399993896484375</ele>
        <time>2018-08-16T11:59:14.000Z</time>
      </trkpt>
      <trkpt lat="48.24998463504016399383544921875" lon="9.7293579764664173126220703125">
        <ele>502.399993896484375</ele>
        <time>2018-08-16T11:59:15.000Z</time>
      </trkpt>
      <trkpt lat="48.2505087554454803466796875" lon="9.72972284071147441864013671875">
        <ele>502.399993896484375</ele>
        <time>2018-08-16T11:59:23.000Z</time>
      </trkpt>
      <trkpt lat="48.25063674710690975189208984375" lon="9.7298193164169788360595703125">
        <ele>502.399993896484375</ele>
        <time>2018-08-16T11:59:25.000Z</time>
      </trkpt>
      <trkpt lat="48.25113035738468170166015625" lon="9.73022910766303539276123046875">
        <ele>502.399993896484375</ele>
        <time>2018-08-16T11:59:33.000Z</time>
      </trkpt>
      <trkpt lat="48.25130872428417205810546875" lon="9.7304040379822254180908203125">
        <ele>502.399993896484375</ele>
        <time>2018-08-16T11:59:36.000Z</time>
      </trkpt>
      <trkpt lat="48.25179043225944042205810546875" lon="9.73089873790740966796875">
        <ele>502.399993896484375</ele>
        <time>2018-08-16T11:59:44.000Z</time>
      </trkpt>
      <trkpt lat="48.252278007566928863525390625" lon="9.73136384971439838409423828125">
        <ele>502.399993896484375</ele>
        <time>2018-08-16T11:59:52.000Z</time>
      </trkpt>
      <trkpt lat="48.25278100557625293731689453125" lon="9.73182653076946735382080078125">
        <ele>502.399993896484375</ele>
        <time>2018-08-16T12:00:00.000Z</time>
      </trkpt>
      <trkpt lat="48.25331292115151882171630859375" lon="9.7322889603674411773681640625">
        <ele>502.20001220703125</ele>
        <time>2018-08-16T12:00:08.000Z</time>
      </trkpt>
      <trkpt lat="48.253776691854000091552734375" lon="9.7326959855854511260986328125">
        <ele>502.20001220703125</ele>
        <time>2018-08-16T12:00:15.000Z</time>
      </trkpt>
      <trkpt lat="48.25384165160357952117919921875" lon="9.732747115194797515869140625">
        <ele>502.20001220703125</ele>
        <time>2018-08-16T12:00:16.000Z</time>
      </trkpt>
      <trkpt lat="48.25417139567434787750244140625" lon="9.73297116346657276153564453125">
        <ele>502.20001220703125</ele>
        <time>2018-08-16T12:00:21.000Z</time>
      </trkpt>
      <trkpt lat="48.25472024269402027130126953125" lon="9.7333222813904285430908203125">
        <ele>502</ele>
        <time>2018-08-16T12:00:29.000Z</time>
      </trkpt>
      <trkpt lat="48.25500438921153545379638671875" lon="9.73349369131028652191162109375">
        <ele>502</ele>
        <time>2018-08-16T12:00:33.000Z</time>
      </trkpt>
      <trkpt lat="48.255213685333728790283203125" lon="9.7336354292929172515869140625">
        <ele>502</ele>
        <time>2018-08-16T12:00:36.000Z</time>
      </trkpt>
      <trkpt lat="48.25534720905125141143798828125" lon="9.73374665714800357818603515625">
        <ele>502</ele>
        <time>2018-08-16T12:00:38.000Z</time>
      </trkpt>
      <trkpt lat="48.255539238452911376953125" lon="9.7339247725903987884521484375">
        <ele>502</ele>
        <time>2018-08-16T12:00:41.000Z</time>
      </trkpt>
      <trkpt lat="48.25573059730231761932373046875" lon="9.73412015475332736968994140625">
        <ele>502.20001220703125</ele>
        <time>2018-08-16T12:00:44.000Z</time>
      </trkpt>
      <trkpt lat="48.25617969967424869537353515625" lon="9.7345902957022190093994140625">
        <ele>502.20001220703125</ele>
        <time>2018-08-16T12:00:51.000Z</time>
      </trkpt>
      <trkpt lat="48.2563749141991138458251953125" lon="9.73478986881673336029052734375">
        <ele>502.20001220703125</ele>
        <time>2018-08-16T12:00:54.000Z</time>
      </trkpt>
      <trkpt lat="48.2566116191446781158447265625" lon="9.73506487905979156494140625">
        <ele>502.20001220703125</ele>
        <time>2018-08-16T12:00:58.000Z</time>
      </trkpt>
      <trkpt lat="48.25669728219509124755859375" lon="9.7352072037756443023681640625">
        <ele>502.20001220703125</ele>
        <time>2018-08-16T12:01:00.000Z</time>
      </trkpt>
      <trkpt lat="48.25698855333030223846435546875" lon="9.7352762706577777862548828125">
        <ele>502.20001220703125</ele>
        <time>2018-08-16T12:01:05.000Z</time>
      </trkpt>
      <trkpt lat="48.2571242563426494598388671875" lon="9.7352447547018527984619140625">
        <ele>502.20001220703125</ele>
        <time>2018-08-16T12:01:07.000Z</time>
      </trkpt>
      <trkpt lat="48.25719441287219524383544921875" lon="9.73523142747581005096435546875">
        <ele>502.20001220703125</ele>
        <time>2018-08-16T12:01:08.000Z</time>
      </trkpt>
      <trkpt lat="48.25733036734163761138916015625" lon="9.7352050244808197021484375">
        <ele>502.20001220703125</ele>
        <time>2018-08-16T12:01:10.000Z</time>
      </trkpt>
      <trkpt lat="48.25782255269587039947509765625" lon="9.735268391668796539306640625">
        <ele>502.600006103515625</ele>
        <time>2018-08-16T12:01:18.000Z</time>
      </trkpt>
      <trkpt lat="48.2580452598631381988525390625" lon="9.735375344753265380859375">
        <ele>503.600006103515625</ele>
        <time>2018-08-16T12:01:22.000Z</time>
      </trkpt>
      <trkpt lat="48.2582108862698078155517578125" lon="9.73547793924808502197265625">
        <ele>504.399993896484375</ele>
        <time>2018-08-16T12:01:25.000Z</time>
      </trkpt>
      <trkpt lat="48.258265368640422821044921875" lon="9.73552093841135501861572265625">
        <ele>504.79998779296875</ele>
        <time>2018-08-16T12:01:26.000Z</time>
      </trkpt>
      <trkpt lat="48.25842403806746006011962890625" lon="9.735678099095821380615234375">
        <ele>505.79998779296875</ele>
        <time>2018-08-16T12:01:29.000Z</time>
      </trkpt>
      <trkpt lat="48.2587952725589275360107421875" lon="9.73614203743636608123779296875">
        <ele>506.600006103515625</ele>
        <time>2018-08-16T12:01:36.000Z</time>
      </trkpt>
      <trkpt lat="48.2588398642838001251220703125" lon="9.7362240962684154510498046875">
        <ele>506.600006103515625</ele>
        <time>2018-08-16T12:01:37.000Z</time>
      </trkpt>
      <trkpt lat="48.25898210518062114715576171875" lon="9.7364949993789196014404296875">
        <ele>506.600006103515625</ele>
        <time>2018-08-16T12:01:40.000Z</time>
      </trkpt>
      <trkpt lat="48.25937949120998382568359375" lon="9.73722833208739757537841796875">
        <ele>504.600006103515625</ele>
        <time>2018-08-16T12:01:47.000Z</time>
      </trkpt>
      <trkpt lat="48.25955106876790523529052734375" lon="9.73770157434046268463134765625">
        <ele>503.399993896484375</ele>
        <time>2018-08-16T12:01:51.000Z</time>
      </trkpt>
      <trkpt lat="48.25965751893818378448486328125" lon="9.7380087710916996002197265625">
        <ele>502.20001220703125</ele>
        <time>2018-08-16T12:01:54.000Z</time>
      </trkpt>
      <trkpt lat="48.2596854306757450103759765625" lon="9.73808093927800655364990234375">
        <ele>501.79998779296875</ele>
        <time>2018-08-16T12:01:55.000Z</time>
      </trkpt>
      <trkpt lat="48.25975106097757816314697265625" lon="9.7381608188152313232421875">
        <ele>501.399993896484375</ele>
        <time>2018-08-16T12:01:57.000Z</time>
      </trkpt>
      <trkpt lat="48.2598294317722320556640625" lon="9.7382035665214061737060546875">
        <ele>501.20001220703125</ele>
        <time>2018-08-16T12:01:59.000Z</time>
      </trkpt>
      <trkpt lat="48.25986840762197971343994140625" lon="9.7382370941340923309326171875">
        <ele>501</ele>
        <time>2018-08-16T12:02:00.000Z</time>
      </trkpt>
      <trkpt lat="48.259902857244014739990234375" lon="9.7382893972098827362060546875">
        <ele>501</ele>
        <time>2018-08-16T12:02:01.000Z</time>
      </trkpt>
      <trkpt lat="48.2599439285695552825927734375" lon="9.73842157982289791107177734375">
        <ele>500.79998779296875</ele>
        <time>2018-08-16T12:02:03.000Z</time>
      </trkpt>
      <trkpt lat="48.25995759107172489166259765625" lon="9.7384934127330780029296875">
        <ele>500.79998779296875</ele>
        <time>2018-08-16T12:02:04.000Z</time>
      </trkpt>
      <trkpt lat="48.25997066684067249298095703125" lon="9.73856725730001926422119140625">
        <ele>500.79998779296875</ele>
        <time>2018-08-16T12:02:05.000Z</time>
      </trkpt>
      <trkpt lat="48.2599876821041107177734375" lon="9.73864017985761165618896484375">
        <ele>500.79998779296875</ele>
        <time>2018-08-16T12:02:06.000Z</time>
      </trkpt>
      <trkpt lat="48.2600257359445095062255859375" lon="9.73877697251737117767333984375">
        <ele>500.79998779296875</ele>
        <time>2018-08-16T12:02:08.000Z</time>
      </trkpt>
      <trkpt lat="48.260085582733154296875" lon="9.73895500414073467254638671875">
        <ele>501</ele>
        <time>2018-08-16T12:02:11.000Z</time>
      </trkpt>
      <trkpt lat="48.26012321747839450836181640625" lon="9.73907050676643848419189453125">
        <ele>501.20001220703125</ele>
        <time>2018-08-16T12:02:13.000Z</time>
      </trkpt>
      <trkpt lat="48.2601588405668735504150390625" lon="9.7391916252672672271728515625">
        <ele>501.399993896484375</ele>
        <time>2018-08-16T12:02:15.000Z</time>
      </trkpt>
      <trkpt lat="48.2602064497768878936767578125" lon="9.73931240849196910858154296875">
        <ele>501.79998779296875</ele>
        <time>2018-08-16T12:02:17.000Z</time>
      </trkpt>
      <trkpt lat="48.2602550648152828216552734375" lon="9.7394335269927978515625">
        <ele>502.20001220703125</ele>
        <time>2018-08-16T12:02:19.000Z</time>
      </trkpt>
      <trkpt lat="48.26034315861761569976806640625" lon="9.73967961966991424560546875">
        <ele>502.79998779296875</ele>
        <time>2018-08-16T12:02:23.000Z</time>
      </trkpt>
      <trkpt lat="48.260429240763187408447265625" lon="9.739919006824493408203125">
        <ele>503.20001220703125</ele>
        <time>2018-08-16T12:02:27.000Z</time>
      </trkpt>
      <trkpt lat="48.260450698435306549072265625" lon="9.73998078145086765289306640625">
        <ele>503.20001220703125</ele>
        <time>2018-08-16T12:02:28.000Z</time>
      </trkpt>
      <trkpt lat="48.26053895987570285797119140625" lon="9.7402282990515232086181640625">
        <ele>504</ele>
        <time>2018-08-16T12:02:32.000Z</time>
      </trkpt>
      <trkpt lat="48.26056058518588542938232421875" lon="9.74028990603983402252197265625">
        <ele>504.399993896484375</ele>
        <time>2018-08-16T12:02:33.000Z</time>
      </trkpt>
      <trkpt lat="48.26067508198320865631103515625" lon="9.74060137756168842315673828125">
        <ele>505.399993896484375</ele>
        <time>2018-08-16T12:02:38.000Z</time>
      </trkpt>
      <trkpt lat="48.2608169876039028167724609375" lon="9.74097646772861480712890625">
        <ele>506.600006103515625</ele>
        <time>2018-08-16T12:02:44.000Z</time>
      </trkpt>
      <trkpt lat="48.26095134951174259185791015625" lon="9.74133982323110103607177734375">
        <ele>507.79998779296875</ele>
        <time>2018-08-16T12:02:50.000Z</time>
      </trkpt>
      <trkpt lat="48.26105779968202114105224609375" lon="9.7416274063289165496826171875">
        <ele>508.600006103515625</ele>
        <time>2018-08-16T12:02:55.000Z</time>
      </trkpt>
      <trkpt lat="48.26107867062091827392578125" lon="9.74168381653726100921630859375">
        <ele>508.79998779296875</ele>
        <time>2018-08-16T12:02:56.000Z</time>
      </trkpt>
      <trkpt lat="48.26120339334011077880859375" lon="9.74202479235827922821044921875">
        <ele>509.79998779296875</ele>
        <time>2018-08-16T12:03:02.000Z</time>
      </trkpt>
      <trkpt lat="48.26128779910504817962646484375" lon="9.7422699630260467529296875">
        <ele>510.79998779296875</ele>
        <time>2018-08-16T12:03:06.000Z</time>
      </trkpt>
      <trkpt lat="48.261355273425579071044921875" lon="9.7424491681158542633056640625">
        <ele>511.399993896484375</ele>
        <time>2018-08-16T12:03:09.000Z</time>
      </trkpt>
      <trkpt lat="48.26142199337482452392578125" lon="9.7426285408437252044677734375">
        <ele>512</ele>
        <time>2018-08-16T12:03:12.000Z</time>
      </trkpt>
      <trkpt lat="48.2615089975297451019287109375" lon="9.74286801181733608245849609375">
        <ele>512.79998779296875</ele>
        <time>2018-08-16T12:03:16.000Z</time>
      </trkpt>
      <trkpt lat="48.26153330504894256591796875" lon="9.74292450584471225738525390625">
        <ele>513</ele>
        <time>2018-08-16T12:03:17.000Z</time>
      </trkpt>
      <trkpt lat="48.26160396449267864227294921875" lon="9.7430987656116485595703125">
        <ele>514.20001220703125</ele>
        <time>2018-08-16T12:03:20.000Z</time>
      </trkpt>
      <trkpt lat="48.261689879000186920166015625" lon="9.74332683719694614410400390625">
        <ele>515.4000244140625</ele>
        <time>2018-08-16T12:03:24.000Z</time>
      </trkpt>
      <trkpt lat="48.2617550902068614959716796875" lon="9.7434965707361698150634765625">
        <ele>516.20001220703125</ele>
        <time>2018-08-16T12:03:27.000Z</time>
      </trkpt>
      <trkpt lat="48.26177470386028289794921875" lon="9.74355566315352916717529296875">
        <ele>516.5999755859375</ele>
        <time>2018-08-16T12:03:28.000Z</time>
      </trkpt>
      <trkpt lat="48.2618875242769718170166015625" lon="9.74386763758957386016845703125">
        <ele>517.5999755859375</ele>
        <time>2018-08-16T12:03:33.000Z</time>
      </trkpt>
      <trkpt lat="48.26214744709432125091552734375" lon="9.744583033025264739990234375">
        <ele>518.5999755859375</ele>
        <time>2018-08-16T12:03:43.000Z</time>
      </trkpt>
      <trkpt lat="48.262288011610507965087890625" lon="9.7449627332389354705810546875">
        <ele>518.5999755859375</ele>
        <time>2018-08-16T12:03:48.000Z</time>
      </trkpt>
      <trkpt lat="48.26238985173404216766357421875" lon="9.7452485561370849609375">
        <ele>518.5999755859375</ele>
        <time>2018-08-16T12:03:52.000Z</time>
      </trkpt>
      <trkpt lat="48.2625755108892917633056640625" lon="9.74576580338180065155029296875">
        <ele>519.79998779296875</ele>
        <time>2018-08-16T12:04:00.000Z</time>
      </trkpt>
      <trkpt lat="48.2626868225634098052978515625" lon="9.74607777781784534454345703125">
        <ele>520.79998779296875</ele>
        <time>2018-08-16T12:04:05.000Z</time>
      </trkpt>
      <trkpt lat="48.26277910731732845306396484375" lon="9.746325798332691192626953125">
        <ele>521.20001220703125</ele>
        <time>2018-08-16T12:04:09.000Z</time>
      </trkpt>
      <trkpt lat="48.2628239504992961883544921875" lon="9.7464503534138202667236328125">
        <ele>521.5999755859375</ele>
        <time>2018-08-16T12:04:11.000Z</time>
      </trkpt>
      <trkpt lat="48.26284616254270076751708984375" lon="9.7465145587921142578125">
        <ele>521.79998779296875</ele>
        <time>2018-08-16T12:04:12.000Z</time>
      </trkpt>
      <trkpt lat="48.26293484307825565338134765625" lon="9.74676358513534069061279296875">
        <ele>523</ele>
        <time>2018-08-16T12:04:16.000Z</time>
      </trkpt>
      <trkpt lat="48.26304875314235687255859375" lon="9.7470773197710514068603515625">
        <ele>524</ele>
        <time>2018-08-16T12:04:21.000Z</time>
      </trkpt>
      <trkpt lat="48.2631863839924335479736328125" lon="9.74746095947921276092529296875">
        <ele>525.20001220703125</ele>
        <time>2018-08-16T12:04:27.000Z</time>
      </trkpt>
      <trkpt lat="48.2633104361593723297119140625" lon="9.7477899491786956787109375">
        <ele>525.79998779296875</ele>
        <time>2018-08-16T12:04:32.000Z</time>
      </trkpt>
      <trkpt lat="48.26343775726854801177978515625" lon="9.74813394248485565185546875">
        <ele>526.4000244140625</ele>
        <time>2018-08-16T12:04:37.000Z</time>
      </trkpt>
      <trkpt lat="48.263591229915618896484375" lon="9.74854054860770702362060546875">
        <ele>527.4000244140625</ele>
        <time>2018-08-16T12:04:43.000Z</time>
      </trkpt>
      <trkpt lat="48.2637898810207843780517578125" lon="9.7490510903298854827880859375">
        <ele>528.4000244140625</ele>
        <time>2018-08-16T12:04:51.000Z</time>
      </trkpt>
      <trkpt lat="48.26392675749957561492919921875" lon="9.74942743778228759765625">
        <ele>529.5999755859375</ele>
        <time>2018-08-16T12:04:57.000Z</time>
      </trkpt>
      <trkpt lat="48.2640527375042438507080078125" lon="9.74977386184036731719970703125">
        <ele>530.5999755859375</ele>
        <time>2018-08-16T12:05:03.000Z</time>
      </trkpt>
      <trkpt lat="48.2641345448791980743408203125" lon="9.749987684190273284912109375">
        <ele>531.5999755859375</ele>
        <time>2018-08-16T12:05:07.000Z</time>
      </trkpt>
      <trkpt lat="48.26422490179538726806640625" lon="9.75023805163800716400146484375">
        <ele>532.5999755859375</ele>
        <time>2018-08-16T12:05:12.000Z</time>
      </trkpt>
      <trkpt lat="48.2642736844718456268310546875" lon="9.75039303302764892578125">
        <ele>533.5999755859375</ele>
        <time>2018-08-16T12:05:15.000Z</time>
      </trkpt>
      <trkpt lat="48.26432548463344573974609375" lon="9.7506040893495082855224609375">
        <ele>534.79998779296875</ele>
        <time>2018-08-16T12:05:19.000Z</time>
      </trkpt>
      <trkpt lat="48.26435859315097332000732421875" lon="9.75081841461360454559326171875">
        <ele>535.79998779296875</ele>
        <time>2018-08-16T12:05:23.000Z</time>
      </trkpt>
      <trkpt lat="48.2643746025860309600830078125" lon="9.751002900302410125732421875">
        <ele>537</ele>
        <time>2018-08-16T12:05:27.000Z</time>
      </trkpt>
      <trkpt lat="48.264407627284526824951171875" lon="9.7512632422149181365966796875">
        <ele>538.20001220703125</ele>
        <time>2018-08-16T12:05:33.000Z</time>
      </trkpt>
      <trkpt lat="48.26445045880973339080810546875" lon="9.75153137929737567901611328125">
        <ele>539.20001220703125</ele>
        <time>2018-08-16T12:05:39.000Z</time>
      </trkpt>
      <trkpt lat="48.26450142078101634979248046875" lon="9.75189314223825931549072265625">
        <ele>540.20001220703125</ele>
        <time>2018-08-16T12:05:45.000Z</time>
      </trkpt>
      <trkpt lat="48.26455238275229930877685546875" lon="9.752233363687992095947265625">
        <ele>541.20001220703125</ele>
        <time>2018-08-16T12:05:50.000Z</time>
      </trkpt>
      <trkpt lat="48.264604099094867706298828125" lon="9.7525936178863048553466796875">
        <ele>542.4000244140625</ele>
        <time>2018-08-16T12:05:55.000Z</time>
      </trkpt>
      <trkpt lat="48.2646632753312587738037109375" lon="9.75305805914103984832763671875">
        <ele>543.5999755859375</ele>
        <time>2018-08-16T12:06:01.000Z</time>
      </trkpt>
      <trkpt lat="48.26473561115562915802001953125" lon="9.7535558603703975677490234375">
        <ele>544.4000244140625</ele>
        <time>2018-08-16T12:06:07.000Z</time>
      </trkpt>
      <trkpt lat="48.26477517373859882354736328125" lon="9.75382064469158649444580078125">
        <ele>544.5999755859375</ele>
        <time>2018-08-16T12:06:10.000Z</time>
      </trkpt>
      <trkpt lat="48.264840133488178253173828125" lon="9.75427762605249881744384765625">
        <ele>544.5999755859375</ele>
        <time>2018-08-16T12:06:15.000Z</time>
      </trkpt>
      <trkpt lat="48.2648800313472747802734375" lon="9.75455649197101593017578125">
        <ele>544.5999755859375</ele>
        <time>2018-08-16T12:06:18.000Z</time>
      </trkpt>
      <trkpt lat="48.26490509323775768280029296875" lon="9.75474424660205841064453125">
        <ele>544.5999755859375</ele>
        <time>2018-08-16T12:06:20.000Z</time>
      </trkpt>
      <trkpt lat="48.26495689339935779571533203125" lon="9.7551289759576320648193359375">
        <ele>544.5999755859375</ele>
        <time>2018-08-16T12:06:24.000Z</time>
      </trkpt>
      <trkpt lat="48.26499628834426403045654296875" lon="9.75543030537664890289306640625">
        <ele>544.5999755859375</ele>
        <time>2018-08-16T12:06:27.000Z</time>
      </trkpt>
      <trkpt lat="48.2650257088243961334228515625" lon="9.75563599728047847747802734375">
        <ele>544.5999755859375</ele>
        <time>2018-08-16T12:06:29.000Z</time>
      </trkpt>
      <trkpt lat="48.26503953896462917327880859375" lon="9.7557405196130275726318359375">
        <ele>544.5999755859375</ele>
        <time>2018-08-16T12:06:30.000Z</time>
      </trkpt>
      <trkpt lat="48.2650528661906719207763671875" lon="9.75584529340267181396484375">
        <ele>544.5999755859375</ele>
        <time>2018-08-16T12:06:31.000Z</time>
      </trkpt>
      <trkpt lat="48.26510810293257236480712890625" lon="9.756266735494136810302734375">
        <ele>544.4000244140625</ele>
        <time>2018-08-16T12:06:35.000Z</time>
      </trkpt>
      <trkpt lat="48.26519091613590717315673828125" lon="9.756905771791934967041015625">
        <ele>544.20001220703125</ele>
        <time>2018-08-16T12:06:41.000Z</time>
      </trkpt>
      <trkpt lat="48.2652325741946697235107421875" lon="9.7572234459221363067626953125">
        <ele>543.79998779296875</ele>
        <time>2018-08-16T12:06:44.000Z</time>
      </trkpt>
      <trkpt lat="48.26524690724909305572509765625" lon="9.7573290579020977020263671875">
        <ele>543.4000244140625</ele>
        <time>2018-08-16T12:06:45.000Z</time>
      </trkpt>
      <trkpt lat="48.26532351784408092498779296875" lon="9.7578584589064121246337890625">
        <ele>543</ele>
        <time>2018-08-16T12:06:50.000Z</time>
      </trkpt>
      <trkpt lat="48.26535184867680072784423828125" lon="9.7580723650753498077392578125">
        <ele>543</ele>
        <time>2018-08-16T12:06:52.000Z</time>
      </trkpt>
      <trkpt lat="48.26540851034224033355712890625" lon="9.758498668670654296875">
        <ele>543</ele>
        <time>2018-08-16T12:06:56.000Z</time>
      </trkpt>
      <trkpt lat="48.26551361940801143646240234375" lon="9.7593135572969913482666015625">
        <ele>543</ele>
        <time>2018-08-16T12:07:04.000Z</time>
      </trkpt>
      <trkpt lat="48.26557011343538761138916015625" lon="9.75971479900181293487548828125">
        <ele>543</ele>
        <time>2018-08-16T12:07:08.000Z</time>
      </trkpt>
      <trkpt lat="48.2656349055469036102294921875" lon="9.76011293940246105194091796875">
        <ele>542.79998779296875</ele>
        <time>2018-08-16T12:07:12.000Z</time>
      </trkpt>
      <trkpt lat="48.265783600509166717529296875" lon="9.7609300911426544189453125">
        <ele>542.79998779296875</ele>
        <time>2018-08-16T12:07:20.000Z</time>
      </trkpt>
      <trkpt lat="48.26593858189880847930908203125" lon="9.7617506794631481170654296875">
        <ele>543</ele>
        <time>2018-08-16T12:07:28.000Z</time>
      </trkpt>
      <trkpt lat="48.26597797684371471405029296875" lon="9.76195662282407283782958984375">
        <ele>543</ele>
        <time>2018-08-16T12:07:30.000Z</time>
      </trkpt>
      <trkpt lat="48.2661358080804347991943359375" lon="9.762818701565265655517578125">
        <ele>543</ele>
        <time>2018-08-16T12:07:38.000Z</time>
      </trkpt>
      <trkpt lat="48.26617511920630931854248046875" lon="9.76304526440799236297607421875">
        <ele>542.5999755859375</ele>
        <time>2018-08-16T12:07:40.000Z</time>
      </trkpt>
      <trkpt lat="48.2662159390747547149658203125" lon="9.76328465156257152557373046875">
        <ele>542.4000244140625</ele>
        <time>2018-08-16T12:07:42.000Z</time>
      </trkpt>
      <trkpt lat="48.266361616551876068115234375" lon="9.764068610966205596923828125">
        <ele>542</ele>
        <time>2018-08-16T12:07:48.000Z</time>
      </trkpt>
      <trkpt lat="48.2663865946233272552490234375" lon="9.76420666091144084930419921875">
        <ele>541.4000244140625</ele>
        <time>2018-08-16T12:07:49.000Z</time>
      </trkpt>
      <trkpt lat="48.26643479056656360626220703125" lon="9.7644878737628459930419921875">
        <ele>540.5999755859375</ele>
        <time>2018-08-16T12:07:51.000Z</time>
      </trkpt>
      <trkpt lat="48.26645775698125362396240234375" lon="9.764629192650318145751953125">
        <ele>540.4000244140625</ele>
        <time>2018-08-16T12:07:52.000Z</time>
      </trkpt>
      <trkpt lat="48.26648273505270481109619140625" lon="9.7647701762616634368896484375">
        <ele>540</ele>
        <time>2018-08-16T12:07:53.000Z</time>
      </trkpt>
      <trkpt lat="48.26653470285236835479736328125" lon="9.76504803635179996490478515625">
        <ele>539.4000244140625</ele>
        <time>2018-08-16T12:07:55.000Z</time>
      </trkpt>
      <trkpt lat="48.2665575854480266571044921875" lon="9.76518382318317890167236328125">
        <ele>539.20001220703125</ele>
        <time>2018-08-16T12:07:56.000Z</time>
      </trkpt>
      <trkpt lat="48.26657979749143123626708984375" lon="9.76531776599586009979248046875">
        <ele>539</ele>
        <time>2018-08-16T12:07:57.000Z</time>
      </trkpt>
      <trkpt lat="48.26662405394017696380615234375" lon="9.76557634770870208740234375">
        <ele>538.20001220703125</ele>
        <time>2018-08-16T12:07:59.000Z</time>
      </trkpt>
      <trkpt lat="48.26664450578391551971435546875" lon="9.7657039202749729156494140625">
        <ele>538</ele>
        <time>2018-08-16T12:08:00.000Z</time>
      </trkpt>
      <trkpt lat="48.26674827374517917633056640625" lon="9.7663211636245250701904296875">
        <ele>537.79998779296875</ele>
        <time>2018-08-16T12:08:05.000Z</time>
      </trkpt>
      <trkpt lat="48.2667879201471805572509765625" lon="9.7665520012378692626953125">
        <ele>537.5999755859375</ele>
        <time>2018-08-16T12:08:07.000Z</time>
      </trkpt>
      <trkpt lat="48.26680778525769710540771484375" lon="9.766663648188114166259765625">
        <ele>537.20001220703125</ele>
        <time>2018-08-16T12:08:08.000Z</time>
      </trkpt>
      <trkpt lat="48.266828320920467376708984375" lon="9.76677127182483673095703125">
        <ele>537</ele>
        <time>2018-08-16T12:08:09.000Z</time>
      </trkpt>
      <trkpt lat="48.266864530742168426513671875" lon="9.76698190905153751373291015625">
        <ele>537</ele>
        <time>2018-08-16T12:08:11.000Z</time>
      </trkpt>
      <trkpt lat="48.2668985612690448760986328125" lon="9.76718525402247905731201171875">
        <ele>536.79998779296875</ele>
        <time>2018-08-16T12:08:13.000Z</time>
      </trkpt>
      <trkpt lat="48.266946338117122650146484375" lon="9.767468981444835662841796875">
        <ele>536.79998779296875</ele>
        <time>2018-08-16T12:08:16.000Z</time>
      </trkpt>
      <trkpt lat="48.26697693206369876861572265625" lon="9.76765371859073638916015625">
        <ele>537.20001220703125</ele>
        <time>2018-08-16T12:08:18.000Z</time>
      </trkpt>
      <trkpt lat="48.2670491002500057220458984375" lon="9.768098630011081695556640625">
        <ele>538.20001220703125</ele>
        <time>2018-08-16T12:08:23.000Z</time>
      </trkpt>
      <trkpt lat="48.26709981076419353485107421875" lon="9.76844991557300090789794921875">
        <ele>539</ele>
        <time>2018-08-16T12:08:27.000Z</time>
      </trkpt>
      <trkpt lat="48.2671242021024227142333984375" lon="9.76863004267215728759765625">
        <ele>539.4000244140625</ele>
        <time>2018-08-16T12:08:29.000Z</time>
      </trkpt>
      <trkpt lat="48.26718698255717754364013671875" lon="9.76915709674358367919921875">
        <ele>540.5999755859375</ele>
        <time>2018-08-16T12:08:35.000Z</time>
      </trkpt>
      <trkpt lat="48.26724515296518802642822265625" lon="9.76971021853387355804443359375">
        <ele>540.79998779296875</ele>
        <time>2018-08-16T12:08:41.000Z</time>
      </trkpt>
      <trkpt lat="48.26733492314815521240234375" lon="9.7704916633665561676025390625">
        <ele>540.4000244140625</ele>
        <time>2018-08-16T12:08:49.000Z</time>
      </trkpt>
      <trkpt lat="48.26734707690775394439697265625" lon="9.7705915756523609161376953125">
        <ele>540.4000244140625</ele>
        <time>2018-08-16T12:08:50.000Z</time>
      </trkpt>
      <trkpt lat="48.26735847629606723785400390625" lon="9.770691655576229095458984375">
        <ele>540.20001220703125</ele>
        <time>2018-08-16T12:08:51.000Z</time>
      </trkpt>
      <trkpt lat="48.267446570098400115966796875" lon="9.77150646038353443145751953125">
        <ele>540</ele>
        <time>2018-08-16T12:08:59.000Z</time>
      </trkpt>
      <trkpt lat="48.267507590353488922119140625" lon="9.77210090495645999908447265625">
        <ele>540.20001220703125</ele>
        <time>2018-08-16T12:09:05.000Z</time>
      </trkpt>
      <trkpt lat="48.2675878889858722686767578125" lon="9.77296155877411365509033203125">
        <ele>540.79998779296875</ele>
        <time>2018-08-16T12:09:14.000Z</time>
      </trkpt>
      <trkpt lat="48.26760850846767425537109375" lon="9.77314260788261890411376953125">
        <ele>540.79998779296875</ele>
        <time>2018-08-16T12:09:16.000Z</time>
      </trkpt>
      <trkpt lat="48.26763642020523548126220703125" lon="9.77342122234404087066650390625">
        <ele>541</ele>
        <time>2018-08-16T12:09:19.000Z</time>
      </trkpt>
      <trkpt lat="48.26766039244830608367919921875" lon="9.77372280322015285491943359375">
        <ele>541</ele>
        <time>2018-08-16T12:09:22.000Z</time>
      </trkpt>
      <trkpt lat="48.26769123785197734832763671875" lon="9.77403930388391017913818359375">
        <ele>541</ele>
        <time>2018-08-16T12:09:25.000Z</time>
      </trkpt>
      <trkpt lat="48.267710097134113311767578125" lon="9.77425723336637020111083984375">
        <ele>540.79998779296875</ele>
        <time>2018-08-16T12:09:27.000Z</time>
      </trkpt>
      <trkpt lat="48.26774454675614833831787109375" lon="9.7747017256915569305419921875">
        <ele>540.5999755859375</ele>
        <time>2018-08-16T12:09:31.000Z</time>
      </trkpt>
      <trkpt lat="48.26777321286499500274658203125" lon="9.7750433720648288726806640625">
        <ele>540.4000244140625</ele>
        <time>2018-08-16T12:09:34.000Z</time>
      </trkpt>
      <trkpt lat="48.26778830029070377349853515625" lon="9.7752733714878559112548828125">
        <ele>539.79998779296875</ele>
        <time>2018-08-16T12:09:36.000Z</time>
      </trkpt>
      <trkpt lat="48.2678014598786830902099609375" lon="9.7755040414631366729736328125">
        <ele>539.4000244140625</ele>
        <time>2018-08-16T12:09:38.000Z</time>
      </trkpt>
      <trkpt lat="48.26781445182859897613525390625" lon="9.7757357172667980194091796875">
        <ele>539.4000244140625</ele>
        <time>2018-08-16T12:09:40.000Z</time>
      </trkpt>
      <trkpt lat="48.26782702468335628509521484375" lon="9.77608800865709781646728515625">
        <ele>539</ele>
        <time>2018-08-16T12:09:43.000Z</time>
      </trkpt>
      <trkpt lat="48.2678286172449588775634765625" lon="9.77644809521734714508056640625">
        <ele>538.4000244140625</ele>
        <time>2018-08-16T12:09:46.000Z</time>
      </trkpt>
      <trkpt lat="48.26778042130172252655029296875" lon="9.77693994529545307159423828125">
        <ele>537.5999755859375</ele>
        <time>2018-08-16T12:09:50.000Z</time>
      </trkpt>
      <trkpt lat="48.26776566915214061737060546875" lon="9.77706651203334331512451171875">
        <ele>537.4000244140625</ele>
        <time>2018-08-16T12:09:51.000Z</time>
      </trkpt>
      <trkpt lat="48.2677511684596538543701171875" lon="9.777194671332836151123046875">
        <ele>537.20001220703125</ele>
        <time>2018-08-16T12:09:52.000Z</time>
      </trkpt>
      <trkpt lat="48.26771051622927188873291015625" lon="9.77758317254483699798583984375">
        <ele>536.4000244140625</ele>
        <time>2018-08-16T12:09:55.000Z</time>
      </trkpt>
      <trkpt lat="48.26769526116549968719482421875" lon="9.77771543897688388824462890625">
        <ele>536.20001220703125</ele>
        <time>2018-08-16T12:09:56.000Z</time>
      </trkpt>
      <trkpt lat="48.2676800899207592010498046875" lon="9.7778492979705333709716796875">
        <ele>536.20001220703125</ele>
        <time>2018-08-16T12:09:57.000Z</time>
      </trkpt>
      <trkpt lat="48.26760188676416873931884765625" lon="9.77862537838518619537353515625">
        <ele>534.5999755859375</ele>
        <time>2018-08-16T12:10:03.000Z</time>
      </trkpt>
      <trkpt lat="48.2675624080002307891845703125" lon="9.7788796015083789825439453125">
        <ele>533.79998779296875</ele>
        <time>2018-08-16T12:10:05.000Z</time>
      </trkpt>
      <trkpt lat="48.2675461471080780029296875" lon="9.77900893427431583404541015625">
        <ele>533.5999755859375</ele>
        <time>2018-08-16T12:10:06.000Z</time>
      </trkpt>
      <trkpt lat="48.2674812711775302886962890625" lon="9.77953800000250339508056640625">
        <ele>532.4000244140625</ele>
        <time>2018-08-16T12:10:10.000Z</time>
      </trkpt>
      <trkpt lat="48.26741178520023822784423828125" lon="9.78010863997042179107666015625">
        <ele>531.4000244140625</ele>
        <time>2018-08-16T12:10:14.000Z</time>
      </trkpt>
      <trkpt lat="48.2673749886453151702880859375" lon="9.78040359914302825927734375">
        <ele>530.79998779296875</ele>
        <time>2018-08-16T12:10:16.000Z</time>
      </trkpt>
      <trkpt lat="48.2673391140997409820556640625" lon="9.78067877702414989471435546875">
        <ele>530.20001220703125</ele>
        <time>2018-08-16T12:10:18.000Z</time>
      </trkpt>
      <trkpt lat="48.26730944216251373291015625" lon="9.7809405438601970672607421875">
        <ele>529.79998779296875</ele>
        <time>2018-08-16T12:10:20.000Z</time>
      </trkpt>
      <trkpt lat="48.2673035748302936553955078125" lon="9.78106199763715267181396484375">
        <ele>529.4000244140625</ele>
        <time>2018-08-16T12:10:21.000Z</time>
      </trkpt>
      <trkpt lat="48.26729846186935901641845703125" lon="9.78117330931127071380615234375">
        <ele>529</ele>
        <time>2018-08-16T12:10:22.000Z</time>
      </trkpt>
      <trkpt lat="48.26728907413780689239501953125" lon="9.7813656739890575408935546875">
        <ele>527.79998779296875</ele>
        <time>2018-08-16T12:10:24.000Z</time>
      </trkpt>
      <trkpt lat="48.2672859728336334228515625" lon="9.7815095074474811553955078125">
        <ele>525.79998779296875</ele>
        <time>2018-08-16T12:10:26.000Z</time>
      </trkpt>
      <trkpt lat="48.2672913372516632080078125" lon="9.78157781995832920074462890625">
        <ele>524.79998779296875</ele>
        <time>2018-08-16T12:10:27.000Z</time>
      </trkpt>
      <trkpt lat="48.26730365864932537078857421875" lon="9.78165308944880962371826171875">
        <ele>524</ele>
        <time>2018-08-16T12:10:28.000Z</time>
      </trkpt>
      <trkpt lat="48.26732260175049304962158203125" lon="9.78173506446182727813720703125">
        <ele>523</ele>
        <time>2018-08-16T12:10:29.000Z</time>
      </trkpt>
      <trkpt lat="48.26734472997486591339111328125" lon="9.781822152435779571533203125">
        <ele>521.4000244140625</ele>
        <time>2018-08-16T12:10:30.000Z</time>
      </trkpt>
      <trkpt lat="48.26739183627068996429443359375" lon="9.78201200254261493682861328125">
        <ele>520.20001220703125</ele>
        <time>2018-08-16T12:10:32.000Z</time>
      </trkpt>
      <trkpt lat="48.267478756606578826904296875" lon="9.78231743909418582916259765625">
        <ele>519.20001220703125</ele>
        <time>2018-08-16T12:10:35.000Z</time>
      </trkpt>
      <trkpt lat="48.26752292923629283905029296875" lon="9.7824992425739765167236328125">
        <ele>518.79998779296875</ele>
        <time>2018-08-16T12:10:37.000Z</time>
      </trkpt>
      <trkpt lat="48.2674189098179340362548828125" lon="9.78266897611320018768310546875">
        <ele>518</ele>
        <time>2018-08-16T12:10:40.000Z</time>
      </trkpt>
      <trkpt lat="48.26729527674615383148193359375" lon="9.78272094391286373138427734375">
        <ele>517</ele>
        <time>2018-08-16T12:10:42.000Z</time>
      </trkpt>
      <trkpt lat="48.2672298140823841094970703125" lon="9.7827498614788055419921875">
        <ele>516.5999755859375</ele>
        <time>2018-08-16T12:10:43.000Z</time>
      </trkpt>
      <trkpt lat="48.26710517518222332000732421875" lon="9.78283091448247432708740234375">
        <ele>516.20001220703125</ele>
        <time>2018-08-16T12:10:45.000Z</time>
      </trkpt>
      <trkpt lat="48.26702772639691829681396484375" lon="9.78301481343805789947509765625">
        <ele>515</ele>
        <time>2018-08-16T12:10:47.000Z</time>
      </trkpt>
      <trkpt lat="48.26700090430676937103271484375" lon="9.78327247314155101776123046875">
        <ele>514.20001220703125</ele>
        <time>2018-08-16T12:10:49.000Z</time>
      </trkpt>
      <trkpt lat="48.26699285767972469329833984375" lon="9.783406667411327362060546875">
        <ele>513.79998779296875</ele>
        <time>2018-08-16T12:10:50.000Z</time>
      </trkpt>
      <trkpt lat="48.2669971324503421783447265625" lon="9.78407629765570163726806640625">
        <ele>512.4000244140625</ele>
        <time>2018-08-16T12:10:55.000Z</time>
      </trkpt>
      <trkpt lat="48.2670185901224613189697265625" lon="9.7843399085104465484619140625">
        <ele>511.20001220703125</ele>
        <time>2018-08-16T12:10:57.000Z</time>
      </trkpt>
      <trkpt lat="48.2670688815414905548095703125" lon="9.78486084379255771636962890625">
        <ele>510.20001220703125</ele>
        <time>2018-08-16T12:11:01.000Z</time>
      </trkpt>
      <trkpt lat="48.267094194889068603515625" lon="9.78498506359755992889404296875">
        <ele>509.79998779296875</ele>
        <time>2018-08-16T12:11:02.000Z</time>
      </trkpt>
      <trkpt lat="48.267282284796237945556640625" lon="9.78525311686098575592041015625">
        <ele>508.79998779296875</ele>
        <time>2018-08-16T12:11:05.000Z</time>
      </trkpt>
      <trkpt lat="48.2674645073711872100830078125" lon="9.7853447310626506805419921875">
        <ele>508.20001220703125</ele>
        <time>2018-08-16T12:11:07.000Z</time>
      </trkpt>
      <trkpt lat="48.26775309629738330841064453125" lon="9.7854816913604736328125">
        <ele>507.79998779296875</ele>
        <time>2018-08-16T12:11:10.000Z</time>
      </trkpt>
      <trkpt lat="48.26783691532909870147705078125" lon="9.78553826920688152313232421875">
        <ele>507.600006103515625</ele>
        <time>2018-08-16T12:11:11.000Z</time>
      </trkpt>
      <trkpt lat="48.26803757809102535247802734375" lon="9.7857064940035343170166015625">
        <ele>506.600006103515625</ele>
        <time>2018-08-16T12:11:14.000Z</time>
      </trkpt>
      <trkpt lat="48.2680814154446125030517578125" lon="9.78575737215578556060791015625">
        <ele>506</ele>
        <time>2018-08-16T12:11:15.000Z</time>
      </trkpt>
      <trkpt lat="48.2681065611541271209716796875" lon="9.7858077473938465118408203125">
        <ele>505.399993896484375</ele>
        <time>2018-08-16T12:11:16.000Z</time>
      </trkpt>
      <trkpt lat="48.26813824474811553955078125" lon="9.78600799106061458587646484375">
        <ele>504.20001220703125</ele>
        <time>2018-08-16T12:11:19.000Z</time>
      </trkpt>
      <trkpt lat="48.2681370712816715240478515625" lon="9.7861775569617748260498046875">
        <ele>503.20001220703125</ele>
        <time>2018-08-16T12:11:21.000Z</time>
      </trkpt>
      <trkpt lat="48.2681384123861789703369140625" lon="9.7862684167921543121337890625">
        <ele>502.600006103515625</ele>
        <time>2018-08-16T12:11:22.000Z</time>
      </trkpt>
      <trkpt lat="48.2681337185204029083251953125" lon="9.786460362374782562255859375">
        <ele>501.600006103515625</ele>
        <time>2018-08-16T12:11:24.000Z</time>
      </trkpt>
      <trkpt lat="48.26812676154077053070068359375" lon="9.78655985556542873382568359375">
        <ele>501.399993896484375</ele>
        <time>2018-08-16T12:11:25.000Z</time>
      </trkpt>
      <trkpt lat="48.2681040465831756591796875" lon="9.7867629490792751312255859375">
        <ele>501.20001220703125</ele>
        <time>2018-08-16T12:11:27.000Z</time>
      </trkpt>
      <trkpt lat="48.2680136896669864654541015625" lon="9.78727935813367366790771484375">
        <ele>500.79998779296875</ele>
        <time>2018-08-16T12:11:32.000Z</time>
      </trkpt>
      <trkpt lat="48.26796901412308216094970703125" lon="9.78748857043683528900146484375">
        <ele>500.600006103515625</ele>
        <time>2018-08-16T12:11:34.000Z</time>
      </trkpt>
      <trkpt lat="48.26792743988335132598876953125" lon="9.78770348243415355682373046875">
        <ele>500.399993896484375</ele>
        <time>2018-08-16T12:11:36.000Z</time>
      </trkpt>
      <trkpt lat="48.26788536272943019866943359375" lon="9.7880311310291290283203125">
        <ele>500.399993896484375</ele>
        <time>2018-08-16T12:11:39.000Z</time>
      </trkpt>
      <trkpt lat="48.26786935329437255859375" lon="9.78823958896100521087646484375">
        <ele>500.399993896484375</ele>
        <time>2018-08-16T12:11:41.000Z</time>
      </trkpt>
      <trkpt lat="48.26800019480288028717041015625" lon="9.7884426824748516082763671875">
        <ele>500.399993896484375</ele>
        <time>2018-08-16T12:11:45.000Z</time>
      </trkpt>
      <trkpt lat="48.26803757809102535247802734375" lon="9.78847444988787174224853515625">
        <ele>500.399993896484375</ele>
        <time>2018-08-16T12:11:46.000Z</time>
      </trkpt>
      <trkpt lat="48.26805853284895420074462890625" lon="9.78860336355865001678466796875">
        <ele>500.399993896484375</ele>
        <time>2018-08-16T12:11:48.000Z</time>
      </trkpt>
      <trkpt lat="48.2680488936603069305419921875" lon="9.78904458694159984588623046875">
        <ele>500.399993896484375</ele>
        <time>2018-08-16T12:11:53.000Z</time>
      </trkpt>
      <trkpt lat="48.2680441997945308685302734375" lon="9.789641797542572021484375">
        <ele>499.600006103515625</ele>
        <time>2018-08-16T12:11:59.000Z</time>
      </trkpt>
      <trkpt lat="48.26804445125162601470947265625" lon="9.78974330238997936248779296875">
        <ele>499.399993896484375</ele>
        <time>2018-08-16T12:12:00.000Z</time>
      </trkpt>
      <trkpt lat="48.268038332462310791015625" lon="9.79035283438861370086669921875">
        <ele>499.399993896484375</ele>
        <time>2018-08-16T12:12:06.000Z</time>
      </trkpt>
      <trkpt lat="48.26793037354946136474609375" lon="9.7906048782169818878173828125">
        <ele>499.20001220703125</ele>
        <time>2018-08-16T12:12:09.000Z</time>
      </trkpt>
      <trkpt lat="48.2678913138806819915771484375" lon="9.790688194334506988525390625">
        <ele>499.20001220703125</ele>
        <time>2018-08-16T12:12:10.000Z</time>
      </trkpt>
      <trkpt lat="48.26784395612776279449462890625" lon="9.79109580628573894500732421875">
        <ele>499</ele>
        <time>2018-08-16T12:12:14.000Z</time>
      </trkpt>
      <trkpt lat="48.2678380049765110015869140625" lon="9.79193600825965404510498046875">
        <ele>498.79998779296875</ele>
        <time>2018-08-16T12:12:22.000Z</time>
      </trkpt>
      <trkpt lat="48.26786692254245281219482421875" lon="9.79277604259550571441650390625">
        <ele>498.600006103515625</ele>
        <time>2018-08-16T12:12:30.000Z</time>
      </trkpt>
      <trkpt lat="48.26787312515079975128173828125" lon="9.79288232512772083282470703125">
        <ele>498.399993896484375</ele>
        <time>2018-08-16T12:12:31.000Z</time>
      </trkpt>
      <trkpt lat="48.26794655062258243560791015625" lon="9.79373794980347156524658203125">
        <ele>498.20001220703125</ele>
        <time>2018-08-16T12:12:39.000Z</time>
      </trkpt>
      <trkpt lat="48.26807923614978790283203125" lon="9.794595502316951751708984375">
        <ele>498</ele>
        <time>2018-08-16T12:12:47.000Z</time>
      </trkpt>
      <trkpt lat="48.26819096691906452178955078125" lon="9.795338474214076995849609375">
        <ele>498</ele>
        <time>2018-08-16T12:12:54.000Z</time>
      </trkpt>
      <trkpt lat="48.26832021586596965789794921875" lon="9.79620289988815784454345703125">
        <ele>497.79998779296875</ele>
        <time>2018-08-16T12:13:02.000Z</time>
      </trkpt>
      <trkpt lat="48.26845985837280750274658203125" lon="9.79692860506474971771240234375">
        <ele>497.600006103515625</ele>
        <time>2018-08-16T12:13:09.000Z</time>
      </trkpt>
      <trkpt lat="48.26855608262121677398681640625" lon="9.79720436967909336090087890625">
        <ele>497.600006103515625</ele>
        <time>2018-08-16T12:13:12.000Z</time>
      </trkpt>
      <trkpt lat="48.26865456998348236083984375" lon="9.7980330884456634521484375">
        <ele>497.600006103515625</ele>
        <time>2018-08-16T12:13:20.000Z</time>
      </trkpt>
      <trkpt lat="48.2687382213771343231201171875" lon="9.79885644279420375823974609375">
        <ele>497.79998779296875</ele>
        <time>2018-08-16T12:13:28.000Z</time>
      </trkpt>
      <trkpt lat="48.2688290812075138092041015625" lon="9.79969136416912078857421875">
        <ele>497.79998779296875</ele>
        <time>2018-08-16T12:13:36.000Z</time>
      </trkpt>
      <trkpt lat="48.26892052777111530303955078125" lon="9.80054271407425403594970703125">
        <ele>497.399993896484375</ele>
        <time>2018-08-16T12:13:44.000Z</time>
      </trkpt>
      <trkpt lat="48.26896914280951023101806640625" lon="9.80097052641212940216064453125">
        <ele>497.20001220703125</ele>
        <time>2018-08-16T12:13:48.000Z</time>
      </trkpt>
      <trkpt lat="48.26905824244022369384765625" lon="9.80182447470724582672119140625">
        <ele>497</ele>
        <time>2018-08-16T12:13:56.000Z</time>
      </trkpt>
      <trkpt lat="48.269146420061588287353515625" lon="9.80262997560203075408935546875">
        <ele>496.79998779296875</ele>
        <time>2018-08-16T12:14:04.000Z</time>
      </trkpt>
      <trkpt lat="48.26920333318412303924560546875" lon="9.8032347299158573150634765625">
        <ele>496.600006103515625</ele>
        <time>2018-08-16T12:14:10.000Z</time>
      </trkpt>
      <trkpt lat="48.26922319829463958740234375" lon="9.80355215258896350860595703125">
        <ele>496.399993896484375</ele>
        <time>2018-08-16T12:14:13.000Z</time>
      </trkpt>
      <trkpt lat="48.26922512613236904144287109375" lon="9.80398423969745635986328125">
        <ele>496.399993896484375</ele>
        <time>2018-08-16T12:14:17.000Z</time>
      </trkpt>
      <trkpt lat="48.26925295405089855194091796875" lon="9.80407702736556529998779296875">
        <ele>496.399993896484375</ele>
        <time>2018-08-16T12:14:18.000Z</time>
      </trkpt>
      <trkpt lat="48.26935420744121074676513671875" lon="9.80417476035654544830322265625">
        <ele>496.20001220703125</ele>
        <time>2018-08-16T12:14:20.000Z</time>
      </trkpt>
      <trkpt lat="48.26940064318478107452392578125" lon="9.804200828075408935546875">
        <ele>496.20001220703125</ele>
        <time>2018-08-16T12:14:21.000Z</time>
      </trkpt>
      <trkpt lat="48.26942813582718372344970703125" lon="9.8042316734790802001953125">
        <ele>496.20001220703125</ele>
        <time>2018-08-16T12:14:22.000Z</time>
      </trkpt>
      <trkpt lat="48.2694597356021404266357421875" lon="9.804415069520473480224609375">
        <ele>496.20001220703125</ele>
        <time>2018-08-16T12:14:26.000Z</time>
      </trkpt>
      <trkpt lat="48.26945118606090545654296875" lon="9.8044762574136257171630859375">
        <ele>496.20001220703125</ele>
        <time>2018-08-16T12:14:27.000Z</time>
      </trkpt>
      <trkpt lat="48.26938119716942310333251953125" lon="9.80457457713782787322998046875">
        <ele>496</ele>
        <time>2018-08-16T12:14:29.000Z</time>
      </trkpt>
      <trkpt lat="48.26932721771299839019775390625" lon="9.8046039976179599761962890625">
        <ele>496</ele>
        <time>2018-08-16T12:14:30.000Z</time>
      </trkpt>
      <trkpt lat="48.26911482028663158416748046875" lon="9.80479619465768337249755859375">
        <ele>496</ele>
        <time>2018-08-16T12:14:34.000Z</time>
      </trkpt>
      <trkpt lat="48.2690334320068359375" lon="9.80506022460758686065673828125">
        <ele>496.20001220703125</ele>
        <time>2018-08-16T12:14:37.000Z</time>
      </trkpt>
      <trkpt lat="48.26893075369298458099365234375" lon="9.805425591766834259033203125">
        <ele>496</ele>
        <time>2018-08-16T12:14:41.000Z</time>
      </trkpt>
      <trkpt lat="48.26870528049767017364501953125" lon="9.80616898275911808013916015625">
        <ele>496.399993896484375</ele>
        <time>2018-08-16T12:14:49.000Z</time>
      </trkpt>
      <trkpt lat="48.2685960642993450164794921875" lon="9.80667960830032825469970703125">
        <ele>496.399993896484375</ele>
        <time>2018-08-16T12:14:54.000Z</time>
      </trkpt>
      <trkpt lat="48.2685658894479274749755859375" lon="9.80689443647861480712890625">
        <ele>496.399993896484375</ele>
        <time>2018-08-16T12:14:56.000Z</time>
      </trkpt>
      <trkpt lat="48.26851014979183673858642578125" lon="9.80744965374469757080078125">
        <ele>496.399993896484375</ele>
        <time>2018-08-16T12:15:01.000Z</time>
      </trkpt>
      <trkpt lat="48.26853881590068340301513671875" lon="9.8083617724478244781494140625">
        <ele>496.399993896484375</ele>
        <time>2018-08-16T12:15:09.000Z</time>
      </trkpt>
      <trkpt lat="48.2686922885477542877197265625" lon="9.80924044735729694366455078125">
        <ele>496.399993896484375</ele>
        <time>2018-08-16T12:15:17.000Z</time>
      </trkpt>
      <trkpt lat="48.2688766904175281524658203125" lon="9.8100991733372211456298828125">
        <ele>496.399993896484375</ele>
        <time>2018-08-16T12:15:25.000Z</time>
      </trkpt>
      <trkpt lat="48.26901524327695369720458984375" lon="9.81061357073485851287841796875">
        <ele>496.399993896484375</ele>
        <time>2018-08-16T12:15:30.000Z</time>
      </trkpt>
      <trkpt lat="48.26906318776309490203857421875" lon="9.81095270253717899322509765625">
        <ele>496.399993896484375</ele>
        <time>2018-08-16T12:15:33.000Z</time>
      </trkpt>
      <trkpt lat="48.26914231292903423309326171875" lon="9.8114208318293094635009765625">
        <ele>496.399993896484375</ele>
        <time>2018-08-16T12:15:37.000Z</time>
      </trkpt>
      <trkpt lat="48.2691635191440582275390625" lon="9.811535663902759552001953125">
        <ele>496.20001220703125</ele>
        <time>2018-08-16T12:15:38.000Z</time>
      </trkpt>
      <trkpt lat="48.26921104453504085540771484375" lon="9.81176205910742282867431640625">
        <ele>496.20001220703125</ele>
        <time>2018-08-16T12:15:40.000Z</time>
      </trkpt>
      <trkpt lat="48.26932487078011035919189453125" lon="9.812314845621585845947265625">
        <ele>496.399993896484375</ele>
        <time>2018-08-16T12:15:45.000Z</time>
      </trkpt>
      <trkpt lat="48.26951245777308940887451171875" lon="9.813185222446918487548828125">
        <ele>496.399993896484375</ele>
        <time>2018-08-16T12:15:53.000Z</time>
      </trkpt>
      <trkpt lat="48.26962159015238285064697265625" lon="9.8137385956943035125732421875">
        <ele>496.399993896484375</ele>
        <time>2018-08-16T12:15:58.000Z</time>
      </trkpt>
      <trkpt lat="48.26978319324553012847900390625" lon="9.814513586461544036865234375">
        <ele>496.20001220703125</ele>
        <time>2018-08-16T12:16:05.000Z</time>
      </trkpt>
      <trkpt lat="48.26991696842014789581298828125" lon="9.81515471823513507843017578125">
        <ele>496</ele>
        <time>2018-08-16T12:16:11.000Z</time>
      </trkpt>
      <trkpt lat="48.26996776275336742401123046875" lon="9.8153593204915523529052734375">
        <ele>496</ele>
        <time>2018-08-16T12:16:13.000Z</time>
      </trkpt>
      <trkpt lat="48.2701487280428409576416015625" lon="9.81616239063441753387451171875">
        <ele>496</ele>
        <time>2018-08-16T12:16:21.000Z</time>
      </trkpt>
      <trkpt lat="48.27028334140777587890625" lon="9.8168834857642650604248046875">
        <ele>496.600006103515625</ele>
        <time>2018-08-16T12:16:28.000Z</time>
      </trkpt>
      <trkpt lat="48.270411081612110137939453125" lon="9.81775780208408832550048828125">
        <ele>496.79998779296875</ele>
        <time>2018-08-16T12:16:36.000Z</time>
      </trkpt>
      <trkpt lat="48.2705188728868961334228515625" lon="9.818647205829620361328125">
        <ele>497</ele>
        <time>2018-08-16T12:16:44.000Z</time>
      </trkpt>
      <trkpt lat="48.27053404413163661956787109375" lon="9.81875759549438953399658203125">
        <ele>497</ele>
        <time>2018-08-16T12:16:45.000Z</time>
      </trkpt>
      <trkpt lat="48.27057897113263607025146484375" lon="9.819086752831935882568359375">
        <ele>497.20001220703125</ele>
        <time>2018-08-16T12:16:48.000Z</time>
      </trkpt>
      <trkpt lat="48.27070511877536773681640625" lon="9.81995050795376300811767578125">
        <ele>497.399993896484375</ele>
        <time>2018-08-16T12:16:56.000Z</time>
      </trkpt>
      <trkpt lat="48.270820118486881256103515625" lon="9.82058216817677021026611328125">
        <ele>497.600006103515625</ele>
        <time>2018-08-16T12:17:02.000Z</time>
      </trkpt>
      <trkpt lat="48.2709030993282794952392578125" lon="9.82100863941013813018798828125">
        <ele>497.600006103515625</ele>
        <time>2018-08-16T12:17:06.000Z</time>
      </trkpt>
      <trkpt lat="48.2709235511720180511474609375" lon="9.8211129941046237945556640625">
        <ele>497.600006103515625</ele>
        <time>2018-08-16T12:17:07.000Z</time>
      </trkpt>
      <trkpt lat="48.271017931401729583740234375" lon="9.82171607203781604766845703125">
        <ele>497.79998779296875</ele>
        <time>2018-08-16T12:17:13.000Z</time>
      </trkpt>
      <trkpt lat="48.27102405019104480743408203125" lon="9.82181061990559101104736328125">
        <ele>497.79998779296875</ele>
        <time>2018-08-16T12:17:14.000Z</time>
      </trkpt>
      <trkpt lat="48.2709959708154201507568359375" lon="9.82201874256134033203125">
        <ele>497.79998779296875</ele>
        <time>2018-08-16T12:17:18.000Z</time>
      </trkpt>
      <trkpt lat="48.27098851092159748077392578125" lon="9.82205428183078765869140625">
        <ele>497.79998779296875</ele>
        <time>2018-08-16T12:17:21.000Z</time>
      </trkpt>
      <trkpt lat="48.27098817564547061920166015625" lon="9.8221295513212680816650390625">
        <ele>497.79998779296875</ele>
        <time>2018-08-16T12:17:25.000Z</time>
      </trkpt>
      <trkpt lat="48.2709614373743534088134765625" lon="9.82232275418937206268310546875">
        <ele>497.79998779296875</ele>
        <time>2018-08-16T12:17:29.000Z</time>
      </trkpt>
      <trkpt lat="48.2709537260234355926513671875" lon="9.822393245995044708251953125">
        <ele>497.79998779296875</ele>
        <time>2018-08-16T12:17:30.000Z</time>
      </trkpt>
      <trkpt lat="48.27094526030123233795166015625" lon="9.82255660928785800933837890625">
        <ele>497.79998779296875</ele>
        <time>2018-08-16T12:17:32.000Z</time>
      </trkpt>
      <trkpt lat="48.270944170653820037841796875" lon="9.82274536974728107452392578125">
        <ele>497.79998779296875</ele>
        <time>2018-08-16T12:17:34.000Z</time>
      </trkpt>
      <trkpt lat="48.27096529304981231689453125" lon="9.8230468668043613433837890625">
        <ele>497.79998779296875</ele>
        <time>2018-08-16T12:17:37.000Z</time>
      </trkpt>
      <trkpt lat="48.2711203582584857940673828125" lon="9.8239115439355373382568359375">
        <ele>497.399993896484375</ele>
        <time>2018-08-16T12:17:45.000Z</time>
      </trkpt>
      <trkpt lat="48.2712288200855255126953125" lon="9.8244716227054595947265625">
        <ele>497.20001220703125</ele>
        <time>2018-08-16T12:17:50.000Z</time>
      </trkpt>
      <trkpt lat="48.271376676857471466064453125" lon="9.825249798595905303955078125">
        <ele>497.20001220703125</ele>
        <time>2018-08-16T12:17:57.000Z</time>
      </trkpt>
      <trkpt lat="48.27153182588517665863037109375" lon="9.8260338418185710906982421875">
        <ele>497.20001220703125</ele>
        <time>2018-08-16T12:18:04.000Z</time>
      </trkpt>
      <trkpt lat="48.27167934738099575042724609375" lon="9.82681947760283946990966796875">
        <ele>497.20001220703125</ele>
        <time>2018-08-16T12:18:11.000Z</time>
      </trkpt>
      <trkpt lat="48.27181966044008731842041015625" lon="9.827563203871250152587890625">
        <ele>497.399993896484375</ele>
        <time>2018-08-16T12:18:19.000Z</time>
      </trkpt>
      <trkpt lat="48.271842710673809051513671875" lon="9.82762648724019527435302734375">
        <ele>497.399993896484375</ele>
        <time>2018-08-16T12:18:20.000Z</time>
      </trkpt>
      <trkpt lat="48.27198595739901065826416015625" lon="9.8277088813483715057373046875">
        <ele>497.399993896484375</ele>
        <time>2018-08-16T12:18:23.000Z</time>
      </trkpt>
      <trkpt lat="48.272266499698162078857421875" lon="9.82785682193934917449951171875">
        <ele>497.399993896484375</ele>
        <time>2018-08-16T12:18:28.000Z</time>
      </trkpt>
      <trkpt lat="48.27231385745108127593994140625" lon="9.8279221169650554656982421875">
        <ele>497.399993896484375</ele>
        <time>2018-08-16T12:18:29.000Z</time>
      </trkpt>
      <trkpt lat="48.2723578624427318572998046875" lon="9.82799403369426727294921875">
        <ele>497.399993896484375</ele>
        <time>2018-08-16T12:18:30.000Z</time>
      </trkpt>
      <trkpt lat="48.27264033257961273193359375" lon="9.82861689291894435882568359375">
        <ele>497.399993896484375</ele>
        <time>2018-08-16T12:18:37.000Z</time>
      </trkpt>
      <trkpt lat="48.27289824374020099639892578125" lon="9.82926045544445514678955078125">
        <ele>497.399993896484375</ele>
        <time>2018-08-16T12:18:44.000Z</time>
      </trkpt>
      <trkpt lat="48.27322647906839847564697265625" lon="9.82998079620301723480224609375">
        <ele>497.600006103515625</ele>
        <time>2018-08-16T12:18:52.000Z</time>
      </trkpt>
      <trkpt lat="48.27336796559393405914306640625" lon="9.8301808722317218780517578125">
        <ele>497.600006103515625</ele>
        <time>2018-08-16T12:18:55.000Z</time>
      </trkpt>
      <trkpt lat="48.2734676264226436614990234375" lon="9.830277599394321441650390625">
        <ele>497.79998779296875</ele>
        <time>2018-08-16T12:18:57.000Z</time>
      </trkpt>
      <trkpt lat="48.27363015152513980865478515625" lon="9.83056224882602691650390625">
        <ele>497.79998779296875</ele>
        <time>2018-08-16T12:19:01.000Z</time>
      </trkpt>
      <trkpt lat="48.27371321618556976318359375" lon="9.8307042382657527923583984375">
        <ele>497.79998779296875</ele>
        <time>2018-08-16T12:19:03.000Z</time>
      </trkpt>
      <trkpt lat="48.2738045789301395416259765625" lon="9.83083021827042102813720703125">
        <ele>497.79998779296875</ele>
        <time>2018-08-16T12:19:05.000Z</time>
      </trkpt>
      <trkpt lat="48.27396274544298648834228515625" lon="9.83098737895488739013671875">
        <ele>497.79998779296875</ele>
        <time>2018-08-16T12:19:08.000Z</time>
      </trkpt>
      <trkpt lat="48.27412317506968975067138671875" lon="9.831158705055713653564453125">
        <ele>497.79998779296875</ele>
        <time>2018-08-16T12:19:11.000Z</time>
      </trkpt>
      <trkpt lat="48.2743229158222675323486328125" lon="9.8314453661441802978515625">
        <ele>497.79998779296875</ele>
        <time>2018-08-16T12:19:15.000Z</time>
      </trkpt>
      <trkpt lat="48.27474720776081085205078125" lon="9.8320312611758708953857421875">
        <ele>497.79998779296875</ele>
        <time>2018-08-16T12:19:23.000Z</time>
      </trkpt>
      <trkpt lat="48.275181390345096588134765625" lon="9.8325801081955432891845703125">
        <ele>497.600006103515625</ele>
        <time>2018-08-16T12:19:31.000Z</time>
      </trkpt>
      <trkpt lat="48.2753009162843227386474609375" lon="9.8327028192579746246337890625">
        <ele>497.79998779296875</ele>
        <time>2018-08-16T12:19:33.000Z</time>
      </trkpt>
      <trkpt lat="48.27575974166393280029296875" lon="9.83312032185494899749755859375">
        <ele>497.600006103515625</ele>
        <time>2018-08-16T12:19:40.000Z</time>
      </trkpt>
      <trkpt lat="48.27622904442250728607177734375" lon="9.83359314501285552978515625">
        <ele>497.600006103515625</ele>
        <time>2018-08-16T12:19:47.000Z</time>
      </trkpt>
      <trkpt lat="48.27669122256338596343994140625" lon="9.8340613581240177154541015625">
        <ele>497.399993896484375</ele>
        <time>2018-08-16T12:19:54.000Z</time>
      </trkpt>
      <trkpt lat="48.27712154947221279144287109375" lon="9.83455496840178966522216796875">
        <ele>497.399993896484375</ele>
        <time>2018-08-16T12:20:01.000Z</time>
      </trkpt>
      <trkpt lat="48.277301006019115447998046875" lon="9.83476937748491764068603515625">
        <ele>497.20001220703125</ele>
        <time>2018-08-16T12:20:04.000Z</time>
      </trkpt>
      <trkpt lat="48.27776427380740642547607421875" lon="9.83535124920308589935302734375">
        <ele>497</ele>
        <time>2018-08-16T12:20:12.000Z</time>
      </trkpt>
      <trkpt lat="48.2780377753078937530517578125" lon="9.8357132636010646820068359375">
        <ele>497.20001220703125</ele>
        <time>2018-08-16T12:20:17.000Z</time>
      </trkpt>
      <trkpt lat="48.27814866788685321807861328125" lon="9.835843853652477264404296875">
        <ele>497.20001220703125</ele>
        <time>2018-08-16T12:20:19.000Z</time>
      </trkpt>
      <trkpt lat="48.27846919186413288116455078125" lon="9.8362647928297519683837890625">
        <ele>497.20001220703125</ele>
        <time>2018-08-16T12:20:25.000Z</time>
      </trkpt>
      <trkpt lat="48.27851328067481517791748046875" lon="9.8363586701452732086181640625">
        <ele>497</ele>
        <time>2018-08-16T12:20:26.000Z</time>
      </trkpt>
      <trkpt lat="48.27893170528113842010498046875" lon="9.83702125959098339080810546875">
        <ele>496.79998779296875</ele>
        <time>2018-08-16T12:20:34.000Z</time>
      </trkpt>
      <trkpt lat="48.27918349765241146087646484375" lon="9.8374412767589092254638671875">
        <ele>496.79998779296875</ele>
        <time>2018-08-16T12:20:39.000Z</time>
      </trkpt>
      <trkpt lat="48.27950687147676944732666015625" lon="9.838030524551868438720703125">
        <ele>496.79998779296875</ele>
        <time>2018-08-16T12:20:46.000Z</time>
      </trkpt>
      <trkpt lat="48.27977408654987812042236328125" lon="9.838544167578220367431640625">
        <ele>496.399993896484375</ele>
        <time>2018-08-16T12:20:52.000Z</time>
      </trkpt>
      <trkpt lat="48.27982253395020961761474609375" lon="9.83862538821995258331298828125">
        <ele>496.399993896484375</ele>
        <time>2018-08-16T12:20:53.000Z</time>
      </trkpt>
      <trkpt lat="48.28020441345870494842529296875" lon="9.83926333487033843994140625">
        <ele>495.79998779296875</ele>
        <time>2018-08-16T12:21:01.000Z</time>
      </trkpt>
      <trkpt lat="48.28042016364634037017822265625" lon="9.8395402729511260986328125">
        <ele>495.600006103515625</ele>
        <time>2018-08-16T12:21:05.000Z</time>
      </trkpt>
      <trkpt lat="48.28054857440292835235595703125" lon="9.83962719328701496124267578125">
        <ele>495.600006103515625</ele>
        <time>2018-08-16T12:21:07.000Z</time>
      </trkpt>
      <trkpt lat="48.28079667873680591583251953125" lon="9.83998711220920085906982421875">
        <ele>495.600006103515625</ele>
        <time>2018-08-16T12:21:12.000Z</time>
      </trkpt>
      <trkpt lat="48.28084043227136135101318359375" lon="9.84006933867931365966796875">
        <ele>495.600006103515625</ele>
        <time>2018-08-16T12:21:13.000Z</time>
      </trkpt>
      <trkpt lat="48.2812872715294361114501953125" lon="9.84059597365558147430419921875">
        <ele>495.600006103515625</ele>
        <time>2018-08-16T12:21:21.000Z</time>
      </trkpt>
      <trkpt lat="48.28169890679419040679931640625" lon="9.84103820286691188812255859375">
        <ele>495.399993896484375</ele>
        <time>2018-08-16T12:21:28.000Z</time>
      </trkpt>
      <trkpt lat="48.2822223566472530364990234375" lon="9.84150775708258152008056640625">
        <ele>495.399993896484375</ele>
        <time>2018-08-16T12:21:36.000Z</time>
      </trkpt>
      <trkpt lat="48.28249250538647174835205078125" lon="9.841757453978061676025390625">
        <ele>495.399993896484375</ele>
        <time>2018-08-16T12:21:40.000Z</time>
      </trkpt>
      <trkpt lat="48.28295703046023845672607421875" lon="9.84220345504581928253173828125">
        <ele>495.399993896484375</ele>
        <time>2018-08-16T12:21:47.000Z</time>
      </trkpt>
      <trkpt lat="48.28309818170964717864990234375" lon="9.84230504371225833892822265625">
        <ele>495.399993896484375</ele>
        <time>2018-08-16T12:21:49.000Z</time>
      </trkpt>
      <trkpt lat="48.28346572816371917724609375" lon="9.84291113913059234619140625">
        <ele>495.20001220703125</ele>
        <time>2018-08-16T12:21:56.000Z</time>
      </trkpt>
      <trkpt lat="48.283716849982738494873046875" lon="9.84321154654026031494140625">
        <ele>495.399993896484375</ele>
        <time>2018-08-16T12:22:00.000Z</time>
      </trkpt>
      <trkpt lat="48.2837815582752227783203125" lon="9.843285642564296722412109375">
        <ele>495.399993896484375</ele>
        <time>2018-08-16T12:22:01.000Z</time>
      </trkpt>
      <trkpt lat="48.28403946943581104278564453125" lon="9.84358177520334720611572265625">
        <ele>495.399993896484375</ele>
        <time>2018-08-16T12:22:05.000Z</time>
      </trkpt>
      <trkpt lat="48.28443995676934719085693359375" lon="9.8440150357782840728759765625">
        <ele>495.399993896484375</ele>
        <time>2018-08-16T12:22:11.000Z</time>
      </trkpt>
      <trkpt lat="48.2848975248634815216064453125" lon="9.8445236496627330780029296875">
        <ele>495.600006103515625</ele>
        <time>2018-08-16T12:22:18.000Z</time>
      </trkpt>
      <trkpt lat="48.2850846089422702789306640625" lon="9.8447368852794170379638671875">
        <ele>495.600006103515625</ele>
        <time>2018-08-16T12:22:21.000Z</time>
      </trkpt>
      <trkpt lat="48.2855161093175411224365234375" lon="9.845228232443332672119140625">
        <ele>495.600006103515625</ele>
        <time>2018-08-16T12:22:28.000Z</time>
      </trkpt>
      <trkpt lat="48.2858882658183574676513671875" lon="9.84566199593245983123779296875">
        <ele>495.600006103515625</ele>
        <time>2018-08-16T12:22:34.000Z</time>
      </trkpt>
      <trkpt lat="48.286338038742542266845703125" lon="9.84617530368268489837646484375">
        <ele>495.20001220703125</ele>
        <time>2018-08-16T12:22:41.000Z</time>
      </trkpt>
      <trkpt lat="48.28678227961063385009765625" lon="9.84668257646262645721435546875">
        <ele>494.79998779296875</ele>
        <time>2018-08-16T12:22:48.000Z</time>
      </trkpt>
      <trkpt lat="48.28684472478926181793212890625" lon="9.8467539064586162567138671875">
        <ele>494.600006103515625</ele>
        <time>2018-08-16T12:22:49.000Z</time>
      </trkpt>
      <trkpt lat="48.28716524876654148101806640625" lon="9.84710167162120342254638671875">
        <ele>494.600006103515625</ele>
        <time>2018-08-16T12:22:54.000Z</time>
      </trkpt>
      <trkpt lat="48.2876125909388065338134765625" lon="9.8475749976933002471923828125">
        <ele>494.600006103515625</ele>
        <time>2018-08-16T12:23:01.000Z</time>
      </trkpt>
      <trkpt lat="48.2880316860973834991455078125" lon="9.848037846386432647705078125">
        <ele>494.600006103515625</ele>
        <time>2018-08-16T12:23:08.000Z</time>
      </trkpt>
      <trkpt lat="48.288195468485355377197265625" lon="9.8482318036258220672607421875">
        <ele>494.79998779296875</ele>
        <time>2018-08-16T12:23:11.000Z</time>
      </trkpt>
      <trkpt lat="48.28831784427165985107421875" lon="9.84834395349025726318359375">
        <ele>495</ele>
        <time>2018-08-16T12:23:13.000Z</time>
      </trkpt>
      <trkpt lat="48.28863057307898998260498046875" lon="9.8486549220979213714599609375">
        <ele>495</ele>
        <time>2018-08-16T12:23:18.000Z</time>
      </trkpt>
      <trkpt lat="48.28883425332605838775634765625" lon="9.84882432036101818084716796875">
        <ele>495.20001220703125</ele>
        <time>2018-08-16T12:23:21.000Z</time>
      </trkpt>
      <trkpt lat="48.28905318863689899444580078125" lon="9.84905540943145751953125">
        <ele>495</ele>
        <time>2018-08-16T12:23:25.000Z</time>
      </trkpt>
      <trkpt lat="48.28923624940216541290283203125" lon="9.84930326230823993682861328125">
        <ele>495</ele>
        <time>2018-08-16T12:23:29.000Z</time>
      </trkpt>
      <trkpt lat="48.28937119804322719573974609375" lon="9.84946419484913349151611328125">
        <ele>495</ele>
        <time>2018-08-16T12:23:32.000Z</time>
      </trkpt>
      <trkpt lat="48.28941176645457744598388671875" lon="9.84951465390622615814208984375">
        <ele>495</ele>
        <time>2018-08-16T12:23:33.000Z</time>
      </trkpt>
      <trkpt lat="48.28950363211333751678466796875" lon="9.8497070185840129852294921875">
        <ele>495</ele>
        <time>2018-08-16T12:23:36.000Z</time>
      </trkpt>
      <trkpt lat="48.28970848582684993743896484375" lon="9.84995462000370025634765625">
        <ele>494.79998779296875</ele>
        <time>2018-08-16T12:23:40.000Z</time>
      </trkpt>
      <trkpt lat="48.28982231207191944122314453125" lon="9.8500872217118740081787109375">
        <ele>494.79998779296875</ele>
        <time>2018-08-16T12:23:42.000Z</time>
      </trkpt>
      <trkpt lat="48.289999254047870635986328125" lon="9.85029769130051136016845703125">
        <ele>494.600006103515625</ele>
        <time>2018-08-16T12:23:45.000Z</time>
      </trkpt>
      <trkpt lat="48.29035808332264423370361328125" lon="9.8507353104650974273681640625">
        <ele>493.79998779296875</ele>
        <time>2018-08-16T12:23:51.000Z</time>
      </trkpt>
      <trkpt lat="48.29052806831896305084228515625" lon="9.85095550306141376495361328125">
        <ele>493.600006103515625</ele>
        <time>2018-08-16T12:23:54.000Z</time>
      </trkpt>
      <trkpt lat="48.2908493466675281524658203125" lon="9.85137845389544963836669921875">
        <ele>493.20001220703125</ele>
        <time>2018-08-16T12:24:00.000Z</time>
      </trkpt>
      <trkpt lat="48.2913502492010593414306640625" lon="9.8514112271368503570556640625">
        <ele>492.600006103515625</ele>
        <time>2018-08-16T12:24:07.000Z</time>
      </trkpt>
      <trkpt lat="48.29147639684379100799560546875" lon="9.85132967121899127960205078125">
        <ele>492.20001220703125</ele>
        <time>2018-08-16T12:24:09.000Z</time>
      </trkpt>
      <trkpt lat="48.29159080982208251953125" lon="9.8512320220470428466796875">
        <ele>492</ele>
        <time>2018-08-16T12:24:11.000Z</time>
      </trkpt>
      <trkpt lat="48.29170170240104198455810546875" lon="9.8511453531682491302490234375">
        <ele>492</ele>
        <time>2018-08-16T12:24:13.000Z</time>
      </trkpt>
      <trkpt lat="48.29186665825545787811279296875" lon="9.85117879696190357208251953125">
        <ele>492</ele>
        <time>2018-08-16T12:24:16.000Z</time>
      </trkpt>
      <trkpt lat="48.29194016754627227783203125" lon="9.85132061876356601715087890625">
        <ele>492</ele>
        <time>2018-08-16T12:24:18.000Z</time>
      </trkpt>
      <trkpt lat="48.29204603098332881927490234375" lon="9.85156528651714324951171875">
        <ele>492</ele>
        <time>2018-08-16T12:24:21.000Z</time>
      </trkpt>
      <trkpt lat="48.29217008315026760101318359375" lon="9.851805008947849273681640625">
        <ele>492</ele>
        <time>2018-08-16T12:24:24.000Z</time>
      </trkpt>
      <trkpt lat="48.292355239391326904296875" lon="9.85210197977721691131591796875">
        <ele>492</ele>
        <time>2018-08-16T12:24:28.000Z</time>
      </trkpt>
      <trkpt lat="48.2924987375736236572265625" lon="9.85231555067002773284912109375">
        <ele>492</ele>
        <time>2018-08-16T12:24:31.000Z</time>
      </trkpt>
      <trkpt lat="48.2929032482206821441650390625" lon="9.85285484232008457183837890625">
        <ele>492</ele>
        <time>2018-08-16T12:24:39.000Z</time>
      </trkpt>
      <trkpt lat="48.29305621795356273651123046875" lon="9.853079728782176971435546875">
        <ele>492</ele>
        <time>2018-08-16T12:24:42.000Z</time>
      </trkpt>
      <trkpt lat="48.293331228196620941162109375" lon="9.85359571874141693115234375">
        <ele>492</ele>
        <time>2018-08-16T12:24:48.000Z</time>
      </trkpt>
      <trkpt lat="48.29350121319293975830078125" lon="9.85397131182253360748291015625">
        <ele>492</ele>
        <time>2018-08-16T12:24:52.000Z</time>
      </trkpt>
      <trkpt lat="48.29371310770511627197265625" lon="9.8544364236295223236083984375">
        <ele>492</ele>
        <time>2018-08-16T12:24:57.000Z</time>
      </trkpt>
      <trkpt lat="48.2937915623188018798828125" lon="9.854624681174755096435546875">
        <ele>492</ele>
        <time>2018-08-16T12:24:59.000Z</time>
      </trkpt>
      <trkpt lat="48.29405500553548336029052734375" lon="9.85516238026320934295654296875">
        <ele>492</ele>
        <time>2018-08-16T12:25:05.000Z</time>
      </trkpt>
      <trkpt lat="48.294101022183895111083984375" lon="9.855247624218463897705078125">
        <ele>492</ele>
        <time>2018-08-16T12:25:06.000Z</time>
      </trkpt>
      <trkpt lat="48.2942021079361438751220703125" lon="9.85539120621979236602783203125">
        <ele>492.399993896484375</ele>
        <time>2018-08-16T12:25:08.000Z</time>
      </trkpt>
      <trkpt lat="48.294314928352832794189453125" lon="9.855495058000087738037109375">
        <ele>492.399993896484375</ele>
        <time>2018-08-16T12:25:10.000Z</time>
      </trkpt>
      <trkpt lat="48.294402770698070526123046875" lon="9.85563880763947963714599609375">
        <ele>492.600006103515625</ele>
        <time>2018-08-16T12:25:12.000Z</time>
      </trkpt>
      <trkpt lat="48.29452179372310638427734375" lon="9.85586595721542835235595703125">
        <ele>492.79998779296875</ele>
        <time>2018-08-16T12:25:15.000Z</time>
      </trkpt>
      <trkpt lat="48.29476461745798587799072265625" lon="9.85631874762475490570068359375">
        <ele>492.79998779296875</ele>
        <time>2018-08-16T12:25:21.000Z</time>
      </trkpt>
      <trkpt lat="48.29488598741590976715087890625" lon="9.85655562020838260650634765625">
        <ele>492.79998779296875</ele>
        <time>2018-08-16T12:25:24.000Z</time>
      </trkpt>
      <trkpt lat="48.29505261965095996856689453125" lon="9.8568705283105373382568359375">
        <ele>492.79998779296875</ele>
        <time>2018-08-16T12:25:28.000Z</time>
      </trkpt>
      <trkpt lat="48.29513727687299251556396484375" lon="9.85703540034592151641845703125">
        <ele>492.79998779296875</ele>
        <time>2018-08-16T12:25:30.000Z</time>
      </trkpt>
      <trkpt lat="48.2953534461557865142822265625" lon="9.85743002034723758697509765625">
        <ele>492.600006103515625</ele>
        <time>2018-08-16T12:25:35.000Z</time>
      </trkpt>
      <trkpt lat="48.29568645916879177093505859375" lon="9.85810493119060993194580078125">
        <ele>492.399993896484375</ele>
        <time>2018-08-16T12:25:43.000Z</time>
      </trkpt>
      <trkpt lat="48.2958241738379001617431640625" lon="9.85846518538892269134521484375">
        <ele>492.20001220703125</ele>
        <time>2018-08-16T12:25:47.000Z</time>
      </trkpt>
      <trkpt lat="48.295934312045574188232421875" lon="9.8588456399738788604736328125">
        <ele>492</ele>
        <time>2018-08-16T12:25:51.000Z</time>
      </trkpt>
      <trkpt lat="48.2959830947220325469970703125" lon="9.8590394295752048492431640625">
        <ele>492</ele>
        <time>2018-08-16T12:25:53.000Z</time>
      </trkpt>
      <trkpt lat="48.296095915138721466064453125" lon="9.859524406492710113525390625">
        <ele>491.79998779296875</ele>
        <time>2018-08-16T12:25:58.000Z</time>
      </trkpt>
      <trkpt lat="48.29611636698246002197265625" lon="9.8596241511404514312744140625">
        <ele>491.79998779296875</ele>
        <time>2018-08-16T12:25:59.000Z</time>
      </trkpt>
      <trkpt lat="48.29615098424255847930908203125" lon="9.859825484454631805419921875">
        <ele>491.79998779296875</ele>
        <time>2018-08-16T12:26:01.000Z</time>
      </trkpt>
      <trkpt lat="48.29619088210165500640869140625" lon="9.860025979578495025634765625">
        <ele>491.79998779296875</ele>
        <time>2018-08-16T12:26:03.000Z</time>
      </trkpt>
      <trkpt lat="48.29645943827927112579345703125" lon="9.8607972823083400726318359375">
        <ele>491.20001220703125</ele>
        <time>2018-08-16T12:26:11.000Z</time>
      </trkpt>
      <trkpt lat="48.29681851901113986968994140625" lon="9.86151636578142642974853515625">
        <ele>491</ele>
        <time>2018-08-16T12:26:19.000Z</time>
      </trkpt>
      <trkpt lat="48.297226466238498687744140625" lon="9.862158000469207763671875">
        <ele>491.399993896484375</ele>
        <time>2018-08-16T12:26:27.000Z</time>
      </trkpt>
      <trkpt lat="48.2976329885423183441162109375" lon="9.86277080141007900238037109375">
        <ele>491.399993896484375</ele>
        <time>2018-08-16T12:26:35.000Z</time>
      </trkpt>
      <trkpt lat="48.298019059002399444580078125" lon="9.86341059207916259765625">
        <ele>491.399993896484375</ele>
        <time>2018-08-16T12:26:43.000Z</time>
      </trkpt>
      <trkpt lat="48.2980562746524810791015625" lon="9.8634821735322475433349609375">
        <ele>491.399993896484375</ele>
        <time>2018-08-16T12:26:44.000Z</time>
      </trkpt>
      <trkpt lat="48.29817219637334346771240234375" lon="9.86370303668081760406494140625">
        <ele>491.600006103515625</ele>
        <time>2018-08-16T12:26:47.000Z</time>
      </trkpt>
      <trkpt lat="48.298306055366992950439453125" lon="9.8639163561165332794189453125">
        <ele>491.79998779296875</ele>
        <time>2018-08-16T12:26:50.000Z</time>
      </trkpt>
      <trkpt lat="48.29863035120069980621337890625" lon="9.8644360341131687164306640625">
        <ele>492.79998779296875</ele>
        <time>2018-08-16T12:26:57.000Z</time>
      </trkpt>
      <trkpt lat="48.2987243123352527618408203125" lon="9.86458380706608295440673828125">
        <ele>492.79998779296875</ele>
        <time>2018-08-16T12:26:59.000Z</time>
      </trkpt>
      <trkpt lat="48.29895439557731151580810546875" lon="9.86502922140061855316162109375">
        <ele>493.20001220703125</ele>
        <time>2018-08-16T12:27:04.000Z</time>
      </trkpt>
      <trkpt lat="48.29931967891752719879150390625" lon="9.8657586984336376190185546875">
        <ele>493.20001220703125</ele>
        <time>2018-08-16T12:27:12.000Z</time>
      </trkpt>
      <trkpt lat="48.299547918140888214111328125" lon="9.8662331141531467437744140625">
        <ele>493.20001220703125</ele>
        <time>2018-08-16T12:27:17.000Z</time>
      </trkpt>
      <trkpt lat="48.29963542520999908447265625" lon="9.8664275743067264556884765625">
        <ele>493.20001220703125</ele>
        <time>2018-08-16T12:27:19.000Z</time>
      </trkpt>
      <trkpt lat="48.2999165542423725128173828125" lon="9.86706317402422428131103515625">
        <ele>493</ele>
        <time>2018-08-16T12:27:26.000Z</time>
      </trkpt>
      <trkpt lat="48.300182931125164031982421875" lon="9.86781771294772624969482421875">
        <ele>493</ele>
        <time>2018-08-16T12:27:34.000Z</time>
      </trkpt>
      <trkpt lat="48.3004327118396759033203125" lon="9.86862145364284515380859375">
        <ele>493</ele>
        <time>2018-08-16T12:27:42.000Z</time>
      </trkpt>
      <trkpt lat="48.30062189139425754547119140625" lon="9.8694802634418010711669921875">
        <ele>492.600006103515625</ele>
        <time>2018-08-16T12:27:50.000Z</time>
      </trkpt>
      <trkpt lat="48.30074778757989406585693359375" lon="9.8703325353562831878662109375">
        <ele>492.399993896484375</ele>
        <time>2018-08-16T12:27:58.000Z</time>
      </trkpt>
      <trkpt lat="48.30081014893949031829833984375" lon="9.87099789083003997802734375">
        <ele>492.399993896484375</ele>
        <time>2018-08-16T12:28:04.000Z</time>
      </trkpt>
      <trkpt lat="48.30085046589374542236328125" lon="9.87154045142233371734619140625">
        <ele>492.600006103515625</ele>
        <time>2018-08-16T12:28:09.000Z</time>
      </trkpt>
      <trkpt lat="48.30089614726603031158447265625" lon="9.872417785227298736572265625">
        <ele>492.399993896484375</ele>
        <time>2018-08-16T12:28:17.000Z</time>
      </trkpt>
      <trkpt lat="48.30094878561794757843017578125" lon="9.873321354389190673828125">
        <ele>492.399993896484375</ele>
        <time>2018-08-16T12:28:25.000Z</time>
      </trkpt>
      <trkpt lat="48.30099840648472309112548828125" lon="9.873895347118377685546875">
        <ele>492</ele>
        <time>2018-08-16T12:28:30.000Z</time>
      </trkpt>
      <trkpt lat="48.30106512643396854400634765625" lon="9.87457470037043094635009765625">
        <ele>491.79998779296875</ele>
        <time>2018-08-16T12:28:36.000Z</time>
      </trkpt>
      <trkpt lat="48.30110753886401653289794921875" lon="9.87490394152700901031494140625">
        <ele>491.79998779296875</ele>
        <time>2018-08-16T12:28:39.000Z</time>
      </trkpt>
      <trkpt lat="48.30120359547436237335205078125" lon="9.875719249248504638671875">
        <ele>491.79998779296875</ele>
        <time>2018-08-16T12:28:47.000Z</time>
      </trkpt>
      <trkpt lat="48.30123259685933589935302734375" lon="9.87600825726985931396484375">
        <ele>492.20001220703125</ele>
        <time>2018-08-16T12:28:50.000Z</time>
      </trkpt>
      <trkpt lat="48.3012569881975650787353515625" lon="9.876206405460834503173828125">
        <ele>492.20001220703125</ele>
        <time>2018-08-16T12:28:52.000Z</time>
      </trkpt>
      <trkpt lat="48.30135614611208438873291015625" lon="9.87703294493257999420166015625">
        <ele>491.79998779296875</ele>
        <time>2018-08-16T12:29:00.000Z</time>
      </trkpt>
      <trkpt lat="48.30139487050473690032958984375" lon="9.8773508705198764801025390625">
        <ele>491.79998779296875</ele>
        <time>2018-08-16T12:29:03.000Z</time>
      </trkpt>
      <trkpt lat="48.30150282941758632659912109375" lon="9.8782016336917877197265625">
        <ele>491.600006103515625</ele>
        <time>2018-08-16T12:29:11.000Z</time>
      </trkpt>
      <trkpt lat="48.30159234814345836639404296875" lon="9.8789538256824016571044921875">
        <ele>491.600006103515625</ele>
        <time>2018-08-16T12:29:18.000Z</time>
      </trkpt>
      <trkpt lat="48.3016745746135711669921875" lon="9.8796151578426361083984375">
        <ele>491.600006103515625</ele>
        <time>2018-08-16T12:29:24.000Z</time>
      </trkpt>
      <trkpt lat="48.3016879856586456298828125" lon="9.87972253002226352691650390625">
        <ele>491.399993896484375</ele>
        <time>2018-08-16T12:29:25.000Z</time>
      </trkpt>
      <trkpt lat="48.30171321518719196319580078125" lon="9.8799316585063934326171875">
        <ele>491.399993896484375</ele>
        <time>2018-08-16T12:29:27.000Z</time>
      </trkpt>
      <trkpt lat="48.3017250336706638336181640625" lon="9.88003383390605449676513671875">
        <ele>491.399993896484375</ele>
        <time>2018-08-16T12:29:28.000Z</time>
      </trkpt>
      <trkpt lat="48.3017847128212451934814453125" lon="9.880493581295013427734375">
        <ele>491.20001220703125</ele>
        <time>2018-08-16T12:29:33.000Z</time>
      </trkpt>
      <trkpt lat="48.3017890714108943939208984375" lon="9.8807787336409091949462890625">
        <ele>491.20001220703125</ele>
        <time>2018-08-16T12:29:37.000Z</time>
      </trkpt>
      <trkpt lat="48.30181203782558441162109375" lon="9.8809306137263774871826171875">
        <ele>491.20001220703125</ele>
        <time>2018-08-16T12:29:39.000Z</time>
      </trkpt>
      <trkpt lat="48.30184062011539936065673828125" lon="9.8810915462672710418701171875">
        <ele>491.20001220703125</ele>
        <time>2018-08-16T12:29:41.000Z</time>
      </trkpt>
      <trkpt lat="48.301916979253292083740234375" lon="9.8813922889530658721923828125">
        <ele>491.600006103515625</ele>
        <time>2018-08-16T12:29:45.000Z</time>
      </trkpt>
      <trkpt lat="48.30205301754176616668701171875" lon="9.88203174434602260589599609375">
        <ele>491.79998779296875</ele>
        <time>2018-08-16T12:29:52.000Z</time>
      </trkpt>
      <trkpt lat="48.3021318912506103515625" lon="9.88244011066854000091552734375">
        <ele>491.79998779296875</ele>
        <time>2018-08-16T12:29:56.000Z</time>
      </trkpt>
      <trkpt lat="48.30223088152706623077392578125" lon="9.88295727409422397613525390625">
        <ele>491.600006103515625</ele>
        <time>2018-08-16T12:30:01.000Z</time>
      </trkpt>
      <trkpt lat="48.3023318834602832794189453125" lon="9.88345834426581859588623046875">
        <ele>491.600006103515625</ele>
        <time>2018-08-16T12:30:06.000Z</time>
      </trkpt>
      <trkpt lat="48.3024203963577747344970703125" lon="9.88385279662907123565673828125">
        <ele>491.399993896484375</ele>
        <time>2018-08-16T12:30:10.000Z</time>
      </trkpt>
      <trkpt lat="48.30258711241185665130615234375" lon="9.8846657574176788330078125">
        <ele>491.399993896484375</ele>
        <time>2018-08-16T12:30:18.000Z</time>
      </trkpt>
      <trkpt lat="48.302746117115020751953125" lon="9.8854709230363368988037109375">
        <ele>491.399993896484375</ele>
        <time>2018-08-16T12:30:26.000Z</time>
      </trkpt>
      <trkpt lat="48.3028971590101718902587890625" lon="9.886248596012592315673828125">
        <ele>491.600006103515625</ele>
        <time>2018-08-16T12:30:34.000Z</time>
      </trkpt>
      <trkpt lat="48.30305281095206737518310546875" lon="9.88704127259552478790283203125">
        <ele>491.79998779296875</ele>
        <time>2018-08-16T12:30:42.000Z</time>
      </trkpt>
      <trkpt lat="48.30321860499680042266845703125" lon="9.88785733468830585479736328125">
        <ele>491.79998779296875</ele>
        <time>2018-08-16T12:30:50.000Z</time>
      </trkpt>
      <trkpt lat="48.30338607542216777801513671875" lon="9.88867172040045261383056640625">
        <ele>491.79998779296875</ele>
        <time>2018-08-16T12:30:58.000Z</time>
      </trkpt>
      <trkpt lat="48.30354985781013965606689453125" lon="9.88947696983814239501953125">
        <ele>491.79998779296875</ele>
        <time>2018-08-16T12:31:06.000Z</time>
      </trkpt>
      <trkpt lat="48.30360651947557926177978515625" lon="9.88978005945682525634765625">
        <ele>491.79998779296875</ele>
        <time>2018-08-16T12:31:09.000Z</time>
      </trkpt>
      <trkpt lat="48.30377767793834209442138671875" lon="9.89063761197030544281005859375">
        <ele>491.79998779296875</ele>
        <time>2018-08-16T12:31:18.000Z</time>
      </trkpt>
      <trkpt lat="48.3039227686822414398193359375" lon="9.89145970903337001800537109375">
        <ele>492</ele>
        <time>2018-08-16T12:31:26.000Z</time>
      </trkpt>
      <trkpt lat="48.30403164960443973541259765625" lon="9.8923149146139621734619140625">
        <ele>491.79998779296875</ele>
        <time>2018-08-16T12:31:34.000Z</time>
      </trkpt>
      <trkpt lat="48.30405570566654205322265625" lon="9.892529658973217010498046875">
        <ele>491.79998779296875</ele>
        <time>2018-08-16T12:31:36.000Z</time>
      </trkpt>
      <trkpt lat="48.3040816895663738250732421875" lon="9.89273962564766407012939453125">
        <ele>491</ele>
        <time>2018-08-16T12:31:38.000Z</time>
      </trkpt>
      <trkpt lat="48.3041463978588581085205078125" lon="9.89320582710206508636474609375">
        <ele>490.399993896484375</ele>
        <time>2018-08-16T12:31:43.000Z</time>
      </trkpt>
      <trkpt lat="48.3042131178081035614013671875" lon="9.8933928273618221282958984375">
        <ele>490.399993896484375</ele>
        <time>2018-08-16T12:31:46.000Z</time>
      </trkpt>
      <trkpt lat="48.30426692962646484375" lon="9.893501289188861846923828125">
        <ele>490.399993896484375</ele>
        <time>2018-08-16T12:31:49.000Z</time>
      </trkpt>
      <trkpt lat="48.3042862080037593841552734375" lon="9.8935695178806781768798828125">
        <ele>490.399993896484375</ele>
        <time>2018-08-16T12:31:52.000Z</time>
      </trkpt>
      <trkpt lat="48.30428008921444416046142578125" lon="9.89359726198017597198486328125">
        <ele>490.399993896484375</ele>
        <time>2018-08-16T12:31:53.000Z</time>
      </trkpt>
      <trkpt lat="48.30426533706486225128173828125" lon="9.89362240768969058990478515625">
        <ele>490.399993896484375</ele>
        <time>2018-08-16T12:31:54.000Z</time>
      </trkpt>
      <trkpt lat="48.30423465929925441741943359375" lon="9.89368409849703311920166015625">
        <ele>490.600006103515625</ele>
        <time>2018-08-16T12:31:56.000Z</time>
      </trkpt>
      <trkpt lat="48.3042670972645282745361328125" lon="9.89377294667065143585205078125">
        <ele>490.600006103515625</ele>
        <time>2018-08-16T12:31:58.000Z</time>
      </trkpt>
      <trkpt lat="48.30434136092662811279296875" lon="9.8938595317304134368896484375">
        <ele>490.600006103515625</ele>
        <time>2018-08-16T12:32:00.000Z</time>
      </trkpt>
      <trkpt lat="48.30441637896001338958740234375" lon="9.8939621262252330780029296875">
        <ele>490.600006103515625</ele>
        <time>2018-08-16T12:32:02.000Z</time>
      </trkpt>
      <trkpt lat="48.30442995764315128326416015625" lon="9.89409439265727996826171875">
        <ele>490.79998779296875</ele>
        <time>2018-08-16T12:32:04.000Z</time>
      </trkpt>
      <trkpt lat="48.30441252328455448150634765625" lon="9.894154071807861328125">
        <ele>490.79998779296875</ele>
        <time>2018-08-16T12:32:05.000Z</time>
      </trkpt>
      <trkpt lat="48.30434798263013362884521484375" lon="9.8942385613918304443359375">
        <ele>491</ele>
        <time>2018-08-16T12:32:07.000Z</time>
      </trkpt>
      <trkpt lat="48.3043031394481658935546875" lon="9.8942627012729644775390625">
        <ele>491</ele>
        <time>2018-08-16T12:32:08.000Z</time>
      </trkpt>
      <trkpt lat="48.304255865514278411865234375" lon="9.89429983310401439666748046875">
        <ele>491.399993896484375</ele>
        <time>2018-08-16T12:32:09.000Z</time>
      </trkpt>
      <trkpt lat="48.30418587662279605865478515625" lon="9.894420616328716278076171875">
        <ele>491.399993896484375</ele>
        <time>2018-08-16T12:32:11.000Z</time>
      </trkpt>
      <trkpt lat="48.3041433803737163543701171875" lon="9.8945662938058376312255859375">
        <ele>491.399993896484375</ele>
        <time>2018-08-16T12:32:13.000Z</time>
      </trkpt>
      <trkpt lat="48.30413038842380046844482421875" lon="9.8946387134492397308349609375">
        <ele>491.399993896484375</ele>
        <time>2018-08-16T12:32:14.000Z</time>
      </trkpt>
      <trkpt lat="48.30411865375936031341552734375" lon="9.89502855576574802398681640625">
        <ele>491.399993896484375</ele>
        <time>2018-08-16T12:32:19.000Z</time>
      </trkpt>
      <trkpt lat="48.304119408130645751953125" lon="9.89517674781382083892822265625">
        <ele>491.399993896484375</ele>
        <time>2018-08-16T12:32:21.000Z</time>
      </trkpt>
      <trkpt lat="48.30412435345351696014404296875" lon="9.89524774253368377685546875">
        <ele>491.399993896484375</ele>
        <time>2018-08-16T12:32:22.000Z</time>
      </trkpt>
      <trkpt lat="48.30413273535668849945068359375" lon="9.89531479775905609130859375">
        <ele>491.399993896484375</ele>
        <time>2018-08-16T12:32:23.000Z</time>
      </trkpt>
      <trkpt lat="48.3041489124298095703125" lon="9.89544915966689586639404296875">
        <ele>491.399993896484375</ele>
        <time>2018-08-16T12:32:25.000Z</time>
      </trkpt>
      <trkpt lat="48.30414799042046070098876953125" lon="9.895514957606792449951171875">
        <ele>491.399993896484375</ele>
        <time>2018-08-16T12:32:26.000Z</time>
      </trkpt>
      <trkpt lat="48.304141201078891754150390625" lon="9.8955848626792430877685546875">
        <ele>491.399993896484375</ele>
        <time>2018-08-16T12:32:27.000Z</time>
      </trkpt>
      <trkpt lat="48.30412552691996097564697265625" lon="9.895744621753692626953125">
        <ele>491.399993896484375</ele>
        <time>2018-08-16T12:32:29.000Z</time>
      </trkpt>
      <trkpt lat="48.30406107008457183837890625" lon="9.896388016641139984130859375">
        <ele>491.399993896484375</ele>
        <time>2018-08-16T12:32:36.000Z</time>
      </trkpt>
      <trkpt lat="48.30399158410727977752685546875" lon="9.89690140821039676666259765625">
        <ele>491.399993896484375</ele>
        <time>2018-08-16T12:32:41.000Z</time>
      </trkpt>
      <trkpt lat="48.30389385111629962921142578125" lon="9.89743064157664775848388671875">
        <ele>491.399993896484375</ele>
        <time>2018-08-16T12:32:46.000Z</time>
      </trkpt>
      <trkpt lat="48.30383433960378170013427734375" lon="9.89775502122938632965087890625">
        <ele>491.20001220703125</ele>
        <time>2018-08-16T12:32:49.000Z</time>
      </trkpt>
      <trkpt lat="48.30377700738608837127685546875" lon="9.89807923324406147003173828125">
        <ele>491.20001220703125</ele>
        <time>2018-08-16T12:32:52.000Z</time>
      </trkpt>
      <trkpt lat="48.30365664325654506683349609375" lon="9.8988745920360088348388671875">
        <ele>491.20001220703125</ele>
        <time>2018-08-16T12:32:59.000Z</time>
      </trkpt>
      <trkpt lat="48.303537033498287200927734375" lon="9.8997385986149311065673828125">
        <ele>491.399993896484375</ele>
        <time>2018-08-16T12:33:07.000Z</time>
      </trkpt>
      <trkpt lat="48.3035254664719104766845703125" lon="9.89982618950307369232177734375">
        <ele>491.399993896484375</ele>
        <time>2018-08-16T12:33:08.000Z</time>
      </trkpt>
      <trkpt lat="48.3035123907029628753662109375" lon="9.8999059014022350311279296875">
        <ele>491.399993896484375</ele>
        <time>2018-08-16T12:33:09.000Z</time>
      </trkpt>
      <trkpt lat="48.30350459553301334381103515625" lon="9.90005753003060817718505859375">
        <ele>491.399993896484375</ele>
        <time>2018-08-16T12:33:11.000Z</time>
      </trkpt>
      <trkpt lat="48.30358522944152355194091796875" lon="9.90025668404996395111083984375">
        <ele>491.600006103515625</ele>
        <time>2018-08-16T12:33:14.000Z</time>
      </trkpt>
      <trkpt lat="48.3037544600665569305419921875" lon="9.90071433596312999725341796875">
        <ele>491.600006103515625</ele>
        <time>2018-08-16T12:33:20.000Z</time>
      </trkpt>
      <trkpt lat="48.30378052778542041778564453125" lon="9.900884069502353668212890625">
        <ele>491.79998779296875</ele>
        <time>2018-08-16T12:33:22.000Z</time>
      </trkpt>
      <trkpt lat="48.30374498851597309112548828125" lon="9.901218675076961517333984375">
        <ele>492</ele>
        <time>2018-08-16T12:33:26.000Z</time>
      </trkpt>
      <trkpt lat="48.3037350140511989593505859375" lon="9.90129754878580570220947265625">
        <ele>492</ele>
        <time>2018-08-16T12:33:27.000Z</time>
      </trkpt>
      <trkpt lat="48.303728140890598297119140625" lon="9.90163148380815982818603515625">
        <ele>492.20001220703125</ele>
        <time>2018-08-16T12:33:31.000Z</time>
      </trkpt>
      <trkpt lat="48.30374247394502162933349609375" lon="9.90179501473903656005859375">
        <ele>492.399993896484375</ele>
        <time>2018-08-16T12:33:33.000Z</time>
      </trkpt>
      <trkpt lat="48.303767032921314239501953125" lon="9.90203750319778919219970703125">
        <ele>492.79998779296875</ele>
        <time>2018-08-16T12:33:36.000Z</time>
      </trkpt>
      <trkpt lat="48.30379209481179714202880859375" lon="9.90219575352966785430908203125">
        <ele>493.20001220703125</ele>
        <time>2018-08-16T12:33:38.000Z</time>
      </trkpt>
      <trkpt lat="48.30383299849927425384521484375" lon="9.90243698470294475555419921875">
        <ele>493.79998779296875</ele>
        <time>2018-08-16T12:33:41.000Z</time>
      </trkpt>
      <trkpt lat="48.3040233515202999114990234375" lon="9.902579896152019500732421875">
        <ele>494.399993896484375</ele>
        <time>2018-08-16T12:33:45.000Z</time>
      </trkpt>
      <trkpt lat="48.30409585498273372650146484375" lon="9.90271325223147869110107421875">
        <ele>494.399993896484375</ele>
        <time>2018-08-16T12:33:47.000Z</time>
      </trkpt>
      <trkpt lat="48.304167352616786956787109375" lon="9.90285716950893402099609375">
        <ele>494.600006103515625</ele>
        <time>2018-08-16T12:33:49.000Z</time>
      </trkpt>
      <trkpt lat="48.3045098371803760528564453125" lon="9.90351975895464420318603515625">
        <ele>495.20001220703125</ele>
        <time>2018-08-16T12:33:58.000Z</time>
      </trkpt>
      <trkpt lat="48.30458016134798526763916015625" lon="9.903660826385021209716796875">
        <ele>495.600006103515625</ele>
        <time>2018-08-16T12:34:00.000Z</time>
      </trkpt>
      <trkpt lat="48.30490336753427982330322265625" lon="9.90434311330318450927734375">
        <ele>496.79998779296875</ele>
        <time>2018-08-16T12:34:09.000Z</time>
      </trkpt>
      <trkpt lat="48.30504049547016620635986328125" lon="9.904651232063770294189453125">
        <ele>497.20001220703125</ele>
        <time>2018-08-16T12:34:13.000Z</time>
      </trkpt>
      <trkpt lat="48.30521651543676853179931640625" lon="9.90502967499196529388427734375">
        <ele>497.79998779296875</ele>
        <time>2018-08-16T12:34:18.000Z</time>
      </trkpt>
      <trkpt lat="48.30547870136797428131103515625" lon="9.90577214397490024566650390625">
        <ele>499</ele>
        <time>2018-08-16T12:34:27.000Z</time>
      </trkpt>
      <trkpt lat="48.30568456090986728668212890625" lon="9.906406067311763763427734375">
        <ele>499.600006103515625</ele>
        <time>2018-08-16T12:34:34.000Z</time>
      </trkpt>
      <trkpt lat="48.30589092336595058441162109375" lon="9.9069388210773468017578125">
        <ele>499.600006103515625</ele>
        <time>2018-08-16T12:34:40.000Z</time>
      </trkpt>
      <trkpt lat="48.30596602521836757659912109375" lon="9.90709262900054454803466796875">
        <ele>499.600006103515625</ele>
        <time>2018-08-16T12:34:42.000Z</time>
      </trkpt>
      <trkpt lat="48.306002318859100341796875" lon="9.90716840140521526336669921875">
        <ele>499.600006103515625</ele>
        <time>2018-08-16T12:34:43.000Z</time>
      </trkpt>
      <trkpt lat="48.3060733973979949951171875" lon="9.9073185212910175323486328125">
        <ele>499.600006103515625</ele>
        <time>2018-08-16T12:34:45.000Z</time>
      </trkpt>
      <trkpt lat="48.30630473792552947998046875" lon="9.90774415433406829833984375">
        <ele>499.20001220703125</ele>
        <time>2018-08-16T12:34:51.000Z</time>
      </trkpt>
      <trkpt lat="48.30632711760699748992919921875" lon="9.90782252512872219085693359375">
        <ele>499</ele>
        <time>2018-08-16T12:34:52.000Z</time>
      </trkpt>
      <trkpt lat="48.3063417859375476837158203125" lon="9.90789125673472881317138671875">
        <ele>499</ele>
        <time>2018-08-16T12:34:53.000Z</time>
      </trkpt>
      <trkpt lat="48.306565247476100921630859375" lon="9.90810046903789043426513671875">
        <ele>498.600006103515625</ele>
        <time>2018-08-16T12:34:58.000Z</time>
      </trkpt>
      <trkpt lat="48.3066321350634098052978515625" lon="9.908122681081295013427734375">
        <ele>498.600006103515625</ele>
        <time>2018-08-16T12:34:59.000Z</time>
      </trkpt>
      <trkpt lat="48.30669994466006755828857421875" lon="9.908145479857921600341796875">
        <ele>498.399993896484375</ele>
        <time>2018-08-16T12:35:00.000Z</time>
      </trkpt>
      <trkpt lat="48.30683522857725620269775390625" lon="9.90820708684623241424560546875">
        <ele>498.399993896484375</ele>
        <time>2018-08-16T12:35:02.000Z</time>
      </trkpt>
      <trkpt lat="48.3071152679622173309326171875" lon="9.9083545245230197906494140625">
        <ele>498.20001220703125</ele>
        <time>2018-08-16T12:35:06.000Z</time>
      </trkpt>
      <trkpt lat="48.30732808448374271392822265625" lon="9.90848083980381488800048828125">
        <ele>498.20001220703125</ele>
        <time>2018-08-16T12:35:09.000Z</time>
      </trkpt>
      <trkpt lat="48.30754115246236324310302734375" lon="9.9086069874465465545654296875">
        <ele>498.20001220703125</ele>
        <time>2018-08-16T12:35:12.000Z</time>
      </trkpt>
      <trkpt lat="48.3080500178039073944091796875" lon="9.9089317023754119873046875">
        <ele>498.79998779296875</ele>
        <time>2018-08-16T12:35:19.000Z</time>
      </trkpt>
      <trkpt lat="48.30826685763895511627197265625" lon="9.90909758023917675018310546875">
        <ele>499</ele>
        <time>2018-08-16T12:35:22.000Z</time>
      </trkpt>
      <trkpt lat="48.30860364250838756561279296875" lon="9.90940653719007968902587890625">
        <ele>499.20001220703125</ele>
        <time>2018-08-16T12:35:27.000Z</time>
      </trkpt>
      <trkpt lat="48.30911259166896343231201171875" lon="9.909874163568019866943359375">
        <ele>500</ele>
        <time>2018-08-16T12:35:35.000Z</time>
      </trkpt>
      <trkpt lat="48.30917847342789173126220703125" lon="9.90992923267185688018798828125">
        <ele>500</ele>
        <time>2018-08-16T12:35:36.000Z</time>
      </trkpt>
      <trkpt lat="48.30965372733771800994873046875" lon="9.9103185720741748809814453125">
        <ele>500.79998779296875</ele>
        <time>2018-08-16T12:35:43.000Z</time>
      </trkpt>
      <trkpt lat="48.3101356029510498046875" lon="9.910710342228412628173828125">
        <ele>501</ele>
        <time>2018-08-16T12:35:50.000Z</time>
      </trkpt>
      <trkpt lat="48.31020408309996128082275390625" lon="9.91076708771288394927978515625">
        <ele>501</ele>
        <time>2018-08-16T12:35:51.000Z</time>
      </trkpt>
      <trkpt lat="48.310476243495941162109375" lon="9.91101603023707866668701171875">
        <ele>501.20001220703125</ele>
        <time>2018-08-16T12:35:55.000Z</time>
      </trkpt>
      <trkpt lat="48.31061177887022495269775390625" lon="9.91115282289683818817138671875">
        <ele>501.20001220703125</ele>
        <time>2018-08-16T12:35:57.000Z</time>
      </trkpt>
      <trkpt lat="48.310868851840496063232421875" lon="9.91144736297428607940673828125">
        <ele>501.20001220703125</ele>
        <time>2018-08-16T12:36:01.000Z</time>
      </trkpt>
      <trkpt lat="48.3113032020628452301025390625" lon="9.91199168376624584197998046875">
        <ele>501.399993896484375</ele>
        <time>2018-08-16T12:36:08.000Z</time>
      </trkpt>
      <trkpt lat="48.3114896155893802642822265625" lon="9.91222185082733631134033203125">
        <ele>501.399993896484375</ele>
        <time>2018-08-16T12:36:11.000Z</time>
      </trkpt>
      <trkpt lat="48.3115526475012302398681640625" lon="9.91229712031781673431396484375">
        <ele>501.399993896484375</ele>
        <time>2018-08-16T12:36:12.000Z</time>
      </trkpt>
      <trkpt lat="48.312030248343944549560546875" lon="9.912783019244670867919921875">
        <ele>501.399993896484375</ele>
        <time>2018-08-16T12:36:19.000Z</time>
      </trkpt>
      <trkpt lat="48.31224792636930942535400390625" lon="9.91296909749507904052734375">
        <ele>501.20001220703125</ele>
        <time>2018-08-16T12:36:22.000Z</time>
      </trkpt>
      <trkpt lat="48.312320597469806671142578125" lon="9.9130292795598506927490234375">
        <ele>501.20001220703125</ele>
        <time>2018-08-16T12:36:23.000Z</time>
      </trkpt>
      <trkpt lat="48.312828205525875091552734375" lon="9.9134725145995616912841796875">
        <ele>500.399993896484375</ele>
        <time>2018-08-16T12:36:30.000Z</time>
      </trkpt>
      <trkpt lat="48.31304336898028850555419921875" lon="9.913677871227264404296875">
        <ele>500</ele>
        <time>2018-08-16T12:36:33.000Z</time>
      </trkpt>
      <trkpt lat="48.31333321519196033477783203125" lon="9.91397148929536342620849609375">
        <ele>499.79998779296875</ele>
        <time>2018-08-16T12:36:37.000Z</time>
      </trkpt>
      <trkpt lat="48.31348258070647716522216796875" lon="9.91412705741822719573974609375">
        <ele>499.79998779296875</ele>
        <time>2018-08-16T12:36:39.000Z</time>
      </trkpt>
      <trkpt lat="48.3138610236346721649169921875" lon="9.914574734866619110107421875">
        <ele>499.79998779296875</ele>
        <time>2018-08-16T12:36:44.000Z</time>
      </trkpt>
      <trkpt lat="48.31406294368207454681396484375" lon="9.9148867093026638031005859375">
        <ele>499.600006103515625</ele>
        <time>2018-08-16T12:36:47.000Z</time>
      </trkpt>
      <trkpt lat="48.314183391630649566650390625" lon="9.9151103384792804718017578125">
        <ele>499.600006103515625</ele>
        <time>2018-08-16T12:36:49.000Z</time>
      </trkpt>
      <trkpt lat="48.31450550816953182220458984375" lon="9.915837384760379791259765625">
        <ele>499</ele>
        <time>2018-08-16T12:36:55.000Z</time>
      </trkpt>
      <trkpt lat="48.31471505574882030487060546875" lon="9.91632512770593166351318359375">
        <ele>497.600006103515625</ele>
        <time>2018-08-16T12:36:59.000Z</time>
      </trkpt>
      <trkpt lat="48.31500221975147724151611328125" lon="9.9169986136257648468017578125">
        <ele>496.600006103515625</ele>
        <time>2018-08-16T12:37:05.000Z</time>
      </trkpt>
      <trkpt lat="48.31528821028769016265869140625" lon="9.91765919141471385955810546875">
        <ele>496.600006103515625</ele>
        <time>2018-08-16T12:37:12.000Z</time>
      </trkpt>
      <trkpt lat="48.31543958745896816253662109375" lon="9.91801156662404537200927734375">
        <ele>497.399993896484375</ele>
        <time>2018-08-16T12:37:16.000Z</time>
      </trkpt>
      <trkpt lat="48.3154767192900180816650390625" lon="9.91810091771185398101806640625">
        <ele>497.600006103515625</ele>
        <time>2018-08-16T12:37:17.000Z</time>
      </trkpt>
      <trkpt lat="48.3157848380506038665771484375" lon="9.91880835033953189849853515625">
        <ele>498.600006103515625</ele>
        <time>2018-08-16T12:37:25.000Z</time>
      </trkpt>
      <trkpt lat="48.3158244006335735321044921875" lon="9.9188942648470401763916015625">
        <ele>498.79998779296875</ele>
        <time>2018-08-16T12:37:26.000Z</time>
      </trkpt>
      <trkpt lat="48.31604509614408016204833984375" lon="9.91930070333182811737060546875">
        <ele>499</ele>
        <time>2018-08-16T12:37:31.000Z</time>
      </trkpt>
      <trkpt lat="48.31625363789498805999755859375" lon="9.91959155537188053131103515625">
        <ele>499</ele>
        <time>2018-08-16T12:37:35.000Z</time>
      </trkpt>
      <trkpt lat="48.31654415465891361236572265625" lon="9.919921047985553741455078125">
        <ele>499.20001220703125</ele>
        <time>2018-08-16T12:37:40.000Z</time>
      </trkpt>
      <trkpt lat="48.31704656593501567840576171875" lon="9.9203959666192531585693359375">
        <ele>499.20001220703125</ele>
        <time>2018-08-16T12:37:48.000Z</time>
      </trkpt>
      <trkpt lat="48.31754026003181934356689453125" lon="9.92080056108534336090087890625">
        <ele>499.20001220703125</ele>
        <time>2018-08-16T12:37:55.000Z</time>
      </trkpt>
      <trkpt lat="48.3180818147957324981689453125" lon="9.92109711281955242156982421875">
        <ele>498.399993896484375</ele>
        <time>2018-08-16T12:38:02.000Z</time>
      </trkpt>
      <trkpt lat="48.31861381419003009796142578125" lon="9.9213503301143646240234375">
        <ele>498.20001220703125</ele>
        <time>2018-08-16T12:38:09.000Z</time>
      </trkpt>
      <trkpt lat="48.31915092654526233673095703125" lon="9.92163338698446750640869140625">
        <ele>498.600006103515625</ele>
        <time>2018-08-16T12:38:16.000Z</time>
      </trkpt>
      <trkpt lat="48.31969591788947582244873046875" lon="9.9219623766839504241943359375">
        <ele>498.79998779296875</ele>
        <time>2018-08-16T12:38:23.000Z</time>
      </trkpt>
      <trkpt lat="48.3201528154313564300537109375" lon="9.92227393202483654022216796875">
        <ele>498.79998779296875</ele>
        <time>2018-08-16T12:38:29.000Z</time>
      </trkpt>
      <trkpt lat="48.32045397721230983734130859375" lon="9.9225122295320034027099609375">
        <ele>498.79998779296875</ele>
        <time>2018-08-16T12:38:33.000Z</time>
      </trkpt>
      <trkpt lat="48.3209497667849063873291015625" lon="9.92296476848423480987548828125">
        <ele>498.600006103515625</ele>
        <time>2018-08-16T12:38:40.000Z</time>
      </trkpt>
      <trkpt lat="48.32108597271144390106201171875" lon="9.923084042966365814208984375">
        <ele>498.600006103515625</ele>
        <time>2018-08-16T12:38:42.000Z</time>
      </trkpt>
      <trkpt lat="48.32122880034148693084716796875" lon="9.92321220226585865020751953125">
        <ele>498.399993896484375</ele>
        <time>2018-08-16T12:38:44.000Z</time>
      </trkpt>
      <trkpt lat="48.32137347199022769927978515625" lon="9.92334681563079357147216796875">
        <ele>498.399993896484375</ele>
        <time>2018-08-16T12:38:46.000Z</time>
      </trkpt>
      <trkpt lat="48.3214432932436466217041015625" lon="9.923414289951324462890625">
        <ele>498.399993896484375</ele>
        <time>2018-08-16T12:38:47.000Z</time>
      </trkpt>
      <trkpt lat="48.32164605148136615753173828125" lon="9.92360129021108150482177734375">
        <ele>498.399993896484375</ele>
        <time>2018-08-16T12:38:50.000Z</time>
      </trkpt>
      <trkpt lat="48.3218516595661640167236328125" lon="9.92376892827451229095458984375">
        <ele>498.600006103515625</ele>
        <time>2018-08-16T12:38:53.000Z</time>
      </trkpt>
      <trkpt lat="48.3223267458379268646240234375" lon="9.92415851913392543792724609375">
        <ele>498.79998779296875</ele>
        <time>2018-08-16T12:39:00.000Z</time>
      </trkpt>
      <trkpt lat="48.32279001362621784210205078125" lon="9.92457367479801177978515625">
        <ele>498.600006103515625</ele>
        <time>2018-08-16T12:39:07.000Z</time>
      </trkpt>
      <trkpt lat="48.32325537689030170440673828125" lon="9.92502336390316486358642578125">
        <ele>498.399993896484375</ele>
        <time>2018-08-16T12:39:14.000Z</time>
      </trkpt>
      <trkpt lat="48.3237292058765888214111328125" lon="9.9254807643592357635498046875">
        <ele>498</ele>
        <time>2018-08-16T12:39:21.000Z</time>
      </trkpt>
      <trkpt lat="48.323943614959716796875" lon="9.92566491477191448211669921875">
        <ele>498</ele>
        <time>2018-08-16T12:39:24.000Z</time>
      </trkpt>
      <trkpt lat="48.32431870512664318084716796875" lon="9.92592609487473964691162109375">
        <ele>497.79998779296875</ele>
        <time>2018-08-16T12:39:29.000Z</time>
      </trkpt>
      <trkpt lat="48.32470335066318511962890625" lon="9.92617897689342498779296875">
        <ele>497.399993896484375</ele>
        <time>2018-08-16T12:39:34.000Z</time>
      </trkpt>
      <trkpt lat="48.32517567090690135955810546875" lon="9.926550798118114471435546875">
        <ele>496.79998779296875</ele>
        <time>2018-08-16T12:39:40.000Z</time>
      </trkpt>
      <trkpt lat="48.3256590552628040313720703125" lon="9.9271387048065662384033203125">
        <ele>495.79998779296875</ele>
        <time>2018-08-16T12:39:47.000Z</time>
      </trkpt>
      <trkpt lat="48.32572736777365207672119140625" lon="9.92723333649337291717529296875">
        <ele>495.600006103515625</ele>
        <time>2018-08-16T12:39:48.000Z</time>
      </trkpt>
      <trkpt lat="48.32579844631254673004150390625" lon="9.92732587270438671112060546875">
        <ele>495.600006103515625</ele>
        <time>2018-08-16T12:39:49.000Z</time>
      </trkpt>
      <trkpt lat="48.32622977904975414276123046875" lon="9.9278686009347438812255859375">
        <ele>494.399993896484375</ele>
        <time>2018-08-16T12:39:55.000Z</time>
      </trkpt>
      <trkpt lat="48.32629784010350704193115234375" lon="9.92794387042522430419921875">
        <ele>494</ele>
        <time>2018-08-16T12:39:56.000Z</time>
      </trkpt>
      <trkpt lat="48.32636539824306964874267578125" lon="9.9280204810202121734619140625">
        <ele>493.79998779296875</ele>
        <time>2018-08-16T12:39:57.000Z</time>
      </trkpt>
      <trkpt lat="48.326435387134552001953125" lon="9.9280960857868194580078125">
        <ele>493.399993896484375</ele>
        <time>2018-08-16T12:39:58.000Z</time>
      </trkpt>
      <trkpt lat="48.32665155641734600067138671875" lon="9.92831175215542316436767578125">
        <ele>491.79998779296875</ele>
        <time>2018-08-16T12:40:01.000Z</time>
      </trkpt>
      <trkpt lat="48.32685456611216068267822265625" lon="9.928569830954074859619140625">
        <ele>490.600006103515625</ele>
        <time>2018-08-16T12:40:04.000Z</time>
      </trkpt>
      <trkpt lat="48.32696218974888324737548828125" lon="9.928762614727020263671875">
        <ele>489.79998779296875</ele>
        <time>2018-08-16T12:40:06.000Z</time>
      </trkpt>
      <trkpt lat="48.327008374035358428955078125" lon="9.92885506711900234222412109375">
        <ele>489.399993896484375</ele>
        <time>2018-08-16T12:40:07.000Z</time>
      </trkpt>
      <trkpt lat="48.32713049836456775665283203125" lon="9.9290859885513782501220703125">
        <ele>489</ele>
        <time>2018-08-16T12:40:10.000Z</time>
      </trkpt>
      <trkpt lat="48.32715966738760471343994140625" lon="9.92914591915905475616455078125">
        <ele>488.79998779296875</ele>
        <time>2018-08-16T12:40:11.000Z</time>
      </trkpt>
      <trkpt lat="48.32720828242599964141845703125" lon="9.92924465797841548919677734375">
        <ele>488.20001220703125</ele>
        <time>2018-08-16T12:40:13.000Z</time>
      </trkpt>
      <trkpt lat="48.3272673748433589935302734375" lon="9.92928254418075084686279296875">
        <ele>487.600006103515625</ele>
        <time>2018-08-16T12:40:15.000Z</time>
      </trkpt>
      <trkpt lat="48.327301405370235443115234375" lon="9.92925756610929965972900390625">
        <ele>487.399993896484375</ele>
        <time>2018-08-16T12:40:16.000Z</time>
      </trkpt>
      <trkpt lat="48.32735471427440643310546875" lon="9.92915715090930461883544921875">
        <ele>487.20001220703125</ele>
        <time>2018-08-16T12:40:18.000Z</time>
      </trkpt>
      <trkpt lat="48.32739092409610748291015625" lon="9.92908925749361515045166015625">
        <ele>487.20001220703125</ele>
        <time>2018-08-16T12:40:19.000Z</time>
      </trkpt>
      <trkpt lat="48.3274293132126331329345703125" lon="9.9290214478969573974609375">
        <ele>487.20001220703125</ele>
        <time>2018-08-16T12:40:20.000Z</time>
      </trkpt>
      <trkpt lat="48.3274987153708934783935546875" lon="9.928873591125011444091796875">
        <ele>487</ele>
        <time>2018-08-16T12:40:22.000Z</time>
      </trkpt>
      <trkpt lat="48.32757289521396160125732421875" lon="9.92870754562318325042724609375">
        <ele>487</ele>
        <time>2018-08-16T12:40:24.000Z</time>
      </trkpt>
      <trkpt lat="48.327611200511455535888671875" lon="9.9286192841827869415283203125">
        <ele>487</ele>
        <time>2018-08-16T12:40:25.000Z</time>
      </trkpt>
      <trkpt lat="48.32782016135752201080322265625" lon="9.92795015685260295867919921875">
        <ele>486.600006103515625</ele>
        <time>2018-08-16T12:40:32.000Z</time>
      </trkpt>
      <trkpt lat="48.327870704233646392822265625" lon="9.9277616478502750396728515625">
        <ele>486.399993896484375</ele>
        <time>2018-08-16T12:40:34.000Z</time>
      </trkpt>
      <trkpt lat="48.32789626903831958770751953125" lon="9.9276687763631343841552734375">
        <ele>486.399993896484375</ele>
        <time>2018-08-16T12:40:35.000Z</time>
      </trkpt>
      <trkpt lat="48.3279204927384853363037109375" lon="9.92757431231439113616943359375">
        <ele>486.399993896484375</ele>
        <time>2018-08-16T12:40:36.000Z</time>
      </trkpt>
      <trkpt lat="48.3280495740473270416259765625" lon="9.92710660211741924285888671875">
        <ele>486.79998779296875</ele>
        <time>2018-08-16T12:40:41.000Z</time>
      </trkpt>
      <trkpt lat="48.32822433672845363616943359375" lon="9.926503188908100128173828125">
        <ele>487.399993896484375</ele>
        <time>2018-08-16T12:40:47.000Z</time>
      </trkpt>
      <trkpt lat="48.328255601227283477783203125" lon="9.92640486918389797210693359375">
        <ele>487.399993896484375</ele>
        <time>2018-08-16T12:40:48.000Z</time>
      </trkpt>
      <trkpt lat="48.32828887738287448883056640625" lon="9.9263199605047702789306640625">
        <ele>487.399993896484375</ele>
        <time>2018-08-16T12:40:49.000Z</time>
      </trkpt>
      <trkpt lat="48.3283610455691814422607421875" lon="9.92626187391579151153564453125">
        <ele>487.399993896484375</ele>
        <time>2018-08-16T12:40:51.000Z</time>
      </trkpt>
      <trkpt lat="48.32840588875114917755126953125" lon="9.926446862518787384033203125">
        <ele>487</ele>
        <time>2018-08-16T12:40:54.000Z</time>
      </trkpt>
      <trkpt lat="48.3284291066229343414306640625" lon="9.9266066215932369232177734375">
        <ele>486.79998779296875</ele>
        <time>2018-08-16T12:40:56.000Z</time>
      </trkpt>
      <trkpt lat="48.3285038731992244720458984375" lon="9.9268513731658458709716796875">
        <ele>486.600006103515625</ele>
        <time>2018-08-16T12:40:59.000Z</time>
      </trkpt>
      <trkpt lat="48.328634798526763916015625" lon="9.9270642735064029693603515625">
        <ele>486</ele>
        <time>2018-08-16T12:41:02.000Z</time>
      </trkpt>
      <trkpt lat="48.32874267362058162689208984375" lon="9.92718488909304141998291015625">
        <ele>485.79998779296875</ele>
        <time>2018-08-16T12:41:04.000Z</time>
      </trkpt>
      <trkpt lat="48.32885599695146083831787109375" lon="9.92730022408068180084228515625">
        <ele>485.79998779296875</ele>
        <time>2018-08-16T12:41:06.000Z</time>
      </trkpt>
      <trkpt lat="48.3290760219097137451171875" lon="9.92751396261155605316162109375">
        <ele>485.600006103515625</ele>
        <time>2018-08-16T12:41:10.000Z</time>
      </trkpt>
      <trkpt lat="48.32933845929801464080810546875" lon="9.92775619961321353912353515625">
        <ele>485.399993896484375</ele>
        <time>2018-08-16T12:41:15.000Z</time>
      </trkpt>
      <trkpt lat="48.329394198954105377197265625" lon="9.92779609747231006622314453125">
        <ele>485.399993896484375</ele>
        <time>2018-08-16T12:41:16.000Z</time>
      </trkpt>
      <trkpt lat="48.3295060135424137115478515625" lon="9.9278722889721393585205078125">
        <ele>485.399993896484375</ele>
        <time>2018-08-16T12:41:18.000Z</time>
      </trkpt>
      <trkpt lat="48.329562507569789886474609375" lon="9.92790908552706241607666015625">
        <ele>485.399993896484375</ele>
        <time>2018-08-16T12:41:19.000Z</time>
      </trkpt>
      <trkpt lat="48.3296193368732929229736328125" lon="9.9279485642910003662109375">
        <ele>485.399993896484375</ele>
        <time>2018-08-16T12:41:20.000Z</time>
      </trkpt>
      <trkpt lat="48.3296773396432399749755859375" lon="9.927989132702350616455078125">
        <ele>485.399993896484375</ele>
        <time>2018-08-16T12:41:21.000Z</time>
      </trkpt>
      <trkpt lat="48.33004119805991649627685546875" lon="9.92822977714240550994873046875">
        <ele>485.399993896484375</ele>
        <time>2018-08-16T12:41:27.000Z</time>
      </trkpt>
      <trkpt lat="48.3301024697721004486083984375" lon="9.9282722733914852142333984375">
        <ele>485.399993896484375</ele>
        <time>2018-08-16T12:41:28.000Z</time>
      </trkpt>
      <trkpt lat="48.33061787299811840057373046875" lon="9.92860629223287105560302734375">
        <ele>485.20001220703125</ele>
        <time>2018-08-16T12:41:36.000Z</time>
      </trkpt>
      <trkpt lat="48.3309443481266498565673828125" lon="9.9288308434188365936279296875">
        <ele>485.20001220703125</ele>
        <time>2018-08-16T12:41:41.000Z</time>
      </trkpt>
      <trkpt lat="48.33101064898073673248291015625" lon="9.92887602187693119049072265625">
        <ele>485.20001220703125</ele>
        <time>2018-08-16T12:41:42.000Z</time>
      </trkpt>
      <trkpt lat="48.33156201057136058807373046875" lon="9.9292408861219882965087890625">
        <ele>485.20001220703125</ele>
        <time>2018-08-16T12:41:50.000Z</time>
      </trkpt>
      <trkpt lat="48.33198127336800098419189453125" lon="9.92951740510761737823486328125">
        <ele>485.399993896484375</ele>
        <time>2018-08-16T12:41:56.000Z</time>
      </trkpt>
      <trkpt lat="48.33226441405713558197021484375" lon="9.92970733903348445892333984375">
        <ele>485.399993896484375</ele>
        <time>2018-08-16T12:42:00.000Z</time>
      </trkpt>
      <trkpt lat="48.3324877917766571044921875" lon="9.92983390577137470245361328125">
        <ele>485.399993896484375</ele>
        <time>2018-08-16T12:42:03.000Z</time>
      </trkpt>
      <trkpt lat="48.33286397159099578857421875" lon="9.9300512485206127166748046875">
        <ele>485.399993896484375</ele>
        <time>2018-08-16T12:42:08.000Z</time>
      </trkpt>
      <trkpt lat="48.33316572010517120361328125" lon="9.93023791350424289703369140625">
        <ele>485.20001220703125</ele>
        <time>2018-08-16T12:42:12.000Z</time>
      </trkpt>
      <trkpt lat="48.3336962945759296417236328125" lon="9.93060034699738025665283203125">
        <ele>485.20001220703125</ele>
        <time>2018-08-16T12:42:19.000Z</time>
      </trkpt>
      <trkpt lat="48.33406534977257251739501953125" lon="9.93084694258868694305419921875">
        <ele>485.20001220703125</ele>
        <time>2018-08-16T12:42:24.000Z</time>
      </trkpt>
      <trkpt lat="48.334432058036327362060546875" lon="9.93108750320971012115478515625">
        <ele>485.20001220703125</ele>
        <time>2018-08-16T12:42:29.000Z</time>
      </trkpt>
      <trkpt lat="48.3346578665077686309814453125" lon="9.93124390952289104461669921875">
        <ele>485.20001220703125</ele>
        <time>2018-08-16T12:42:32.000Z</time>
      </trkpt>
      <trkpt lat="48.3352100662887096405029296875" lon="9.9316096119582653045654296875">
        <ele>485.20001220703125</ele>
        <time>2018-08-16T12:42:39.000Z</time>
      </trkpt>
      <trkpt lat="48.335765786468982696533203125" lon="9.93198453448712825775146484375">
        <ele>485</ele>
        <time>2018-08-16T12:42:46.000Z</time>
      </trkpt>
      <trkpt lat="48.335914313793182373046875" lon="9.93208595551550388336181640625">
        <ele>485</ele>
        <time>2018-08-16T12:42:48.000Z</time>
      </trkpt>
      <trkpt lat="48.33598245866596698760986328125" lon="9.9321463890373706817626953125">
        <ele>485</ele>
        <time>2018-08-16T12:42:49.000Z</time>
      </trkpt>
      <trkpt lat="48.33644740283489227294921875" lon="9.93259389884769916534423828125">
        <ele>485</ele>
        <time>2018-08-16T12:42:56.000Z</time>
      </trkpt>
      <trkpt lat="48.3369068987667560577392578125" lon="9.93305590935051441192626953125">
        <ele>484.79998779296875</ele>
        <time>2018-08-16T12:43:03.000Z</time>
      </trkpt>
      <trkpt lat="48.33740654401481151580810546875" lon="9.93357089348137378692626953125">
        <ele>484.79998779296875</ele>
        <time>2018-08-16T12:43:11.000Z</time>
      </trkpt>
      <trkpt lat="48.337913565337657928466796875" lon="9.93409392423927783966064453125">
        <ele>484.600006103515625</ele>
        <time>2018-08-16T12:43:19.000Z</time>
      </trkpt>
      <trkpt lat="48.3382630906999111175537109375" lon="9.934416711330413818359375">
        <ele>484.600006103515625</ele>
        <time>2018-08-16T12:43:24.000Z</time>
      </trkpt>
      <trkpt lat="48.3384020626544952392578125" lon="9.9345573596656322479248046875">
        <ele>484.600006103515625</ele>
        <time>2018-08-16T12:43:26.000Z</time>
      </trkpt>
      <trkpt lat="48.338468782603740692138671875" lon="9.93462583981454372406005859375">
        <ele>484.600006103515625</ele>
        <time>2018-08-16T12:43:27.000Z</time>
      </trkpt>
      <trkpt lat="48.33853407762944698333740234375" lon="9.93469239212572574615478515625">
        <ele>484.600006103515625</ele>
        <time>2018-08-16T12:43:28.000Z</time>
      </trkpt>
      <trkpt lat="48.3389296196401119232177734375" lon="9.9350978247821331024169921875">
        <ele>484.79998779296875</ele>
        <time>2018-08-16T12:43:34.000Z</time>
      </trkpt>
      <trkpt lat="48.33906481973826885223388671875" lon="9.9352334439754486083984375">
        <ele>484.600006103515625</ele>
        <time>2018-08-16T12:43:36.000Z</time>
      </trkpt>
      <trkpt lat="48.3394097350537776947021484375" lon="9.93557609617710113525390625">
        <ele>484.79998779296875</ele>
        <time>2018-08-16T12:43:41.000Z</time>
      </trkpt>
      <trkpt lat="48.3395532332360744476318359375" lon="9.935713224112987518310546875">
        <ele>484.79998779296875</ele>
        <time>2018-08-16T12:43:43.000Z</time>
      </trkpt>
      <trkpt lat="48.34005170501768589019775390625" lon="9.93621873669326305389404296875">
        <ele>484.600006103515625</ele>
        <time>2018-08-16T12:43:50.000Z</time>
      </trkpt>
      <trkpt lat="48.34019151516258716583251953125" lon="9.936355613172054290771484375">
        <ele>484.600006103515625</ele>
        <time>2018-08-16T12:43:52.000Z</time>
      </trkpt>
      <trkpt lat="48.3402606658637523651123046875" lon="9.93642476387321949005126953125">
        <ele>484.600006103515625</ele>
        <time>2018-08-16T12:43:53.000Z</time>
      </trkpt>
      <trkpt lat="48.3404671959578990936279296875" lon="9.936637915670871734619140625">
        <ele>484.399993896484375</ele>
        <time>2018-08-16T12:43:56.000Z</time>
      </trkpt>
      <trkpt lat="48.34060675464570522308349609375" lon="9.9367788992822170257568359375">
        <ele>484.399993896484375</ele>
        <time>2018-08-16T12:43:58.000Z</time>
      </trkpt>
      <trkpt lat="48.34095275960862636566162109375" lon="9.9371269159018993377685546875">
        <ele>484.399993896484375</ele>
        <time>2018-08-16T12:44:03.000Z</time>
      </trkpt>
      <trkpt lat="48.34101880900561809539794921875" lon="9.93719405494630336761474609375">
        <ele>484.399993896484375</ele>
        <time>2018-08-16T12:44:04.000Z</time>
      </trkpt>
      <trkpt lat="48.34115124307572841644287109375" lon="9.9373270757496356964111328125">
        <ele>484.399993896484375</ele>
        <time>2018-08-16T12:44:06.000Z</time>
      </trkpt>
      <trkpt lat="48.3412902988493442535400390625" lon="9.93746076710522174835205078125">
        <ele>484.399993896484375</ele>
        <time>2018-08-16T12:44:08.000Z</time>
      </trkpt>
      <trkpt lat="48.34142616949975490570068359375" lon="9.93759739212691783905029296875">
        <ele>484.20001220703125</ele>
        <time>2018-08-16T12:44:10.000Z</time>
      </trkpt>
      <trkpt lat="48.34155835211277008056640625" lon="9.93773183785378932952880859375">
        <ele>484.20001220703125</ele>
        <time>2018-08-16T12:44:12.000Z</time>
      </trkpt>
      <trkpt lat="48.34168701432645320892333984375" lon="9.93786343373358249664306640625">
        <ele>484</ele>
        <time>2018-08-16T12:44:14.000Z</time>
      </trkpt>
      <trkpt lat="48.3417496271431446075439453125" lon="9.93792705237865447998046875">
        <ele>484</ele>
        <time>2018-08-16T12:44:15.000Z</time>
      </trkpt>
      <trkpt lat="48.34187686443328857421875" lon="9.93804314173758029937744140625">
        <ele>484</ele>
        <time>2018-08-16T12:44:17.000Z</time>
      </trkpt>
      <trkpt lat="48.34207140840590000152587890625" lon="9.93816149421036243438720703125">
        <ele>484</ele>
        <time>2018-08-16T12:44:20.000Z</time>
      </trkpt>
      <trkpt lat="48.3422515355050563812255859375" lon="9.93826207704842090606689453125">
        <ele>484</ele>
        <time>2018-08-16T12:44:23.000Z</time>
      </trkpt>
      <trkpt lat="48.34253006614744663238525390625" lon="9.93842652998864650726318359375">
        <ele>484.20001220703125</ele>
        <time>2018-08-16T12:44:29.000Z</time>
      </trkpt>
      <trkpt lat="48.34255613386631011962890625" lon="9.93844932876527309417724609375">
        <ele>484.20001220703125</ele>
        <time>2018-08-16T12:44:30.000Z</time>
      </trkpt>
      <trkpt lat="48.3425836265087127685546875" lon="9.9384616501629352569580078125">
        <ele>484.399993896484375</ele>
        <time>2018-08-16T12:44:31.000Z</time>
      </trkpt>
      <trkpt lat="48.34267926402390003204345703125" lon="9.93834220804274082183837890625">
        <ele>485</ele>
        <time>2018-08-16T12:44:35.000Z</time>
      </trkpt>
      <trkpt lat="48.342702649533748626708984375" lon="9.93828973732888698577880859375">
        <ele>485.20001220703125</ele>
        <time>2018-08-16T12:44:36.000Z</time>
      </trkpt>
      <trkpt lat="48.34272838197648525238037109375" lon="9.93822955526411533355712890625">
        <ele>485.20001220703125</ele>
        <time>2018-08-16T12:44:37.000Z</time>
      </trkpt>
      <trkpt lat="48.3428097702562808990478515625" lon="9.9380328319966793060302734375">
        <ele>485.399993896484375</ele>
        <time>2018-08-16T12:44:40.000Z</time>
      </trkpt>
      <trkpt lat="48.3428392745554447174072265625" lon="9.937987066805362701416015625">
        <ele>485.399993896484375</ele>
        <time>2018-08-16T12:44:41.000Z</time>
      </trkpt>
      <trkpt lat="48.34290943108499050140380859375" lon="9.9380013160407543182373046875">
        <ele>485.399993896484375</ele>
        <time>2018-08-16T12:44:43.000Z</time>
      </trkpt>
      <trkpt lat="48.34296324290335178375244140625" lon="9.9382148869335651397705078125">
        <ele>485.20001220703125</ele>
        <time>2018-08-16T12:44:46.000Z</time>
      </trkpt>
      <trkpt lat="48.3429666794836521148681640625" lon="9.93829946033656597137451171875">
        <ele>485.20001220703125</ele>
        <time>2018-08-16T12:44:47.000Z</time>
      </trkpt>
      <trkpt lat="48.34296827204525470733642578125" lon="9.93838571012020111083984375">
        <ele>485</ele>
        <time>2018-08-16T12:44:48.000Z</time>
      </trkpt>
      <trkpt lat="48.3429872989654541015625" lon="9.93883942253887653350830078125">
        <ele>484.20001220703125</ele>
        <time>2018-08-16T12:44:53.000Z</time>
      </trkpt>
      <trkpt lat="48.3430055715143680572509765625" lon="9.9389303661882877349853515625">
        <ele>484.20001220703125</ele>
        <time>2018-08-16T12:44:54.000Z</time>
      </trkpt>
      <trkpt lat="48.34314932115375995635986328125" lon="9.9391204677522182464599609375">
        <ele>484</ele>
        <time>2018-08-16T12:44:57.000Z</time>
      </trkpt>
      <trkpt lat="48.34320883266627788543701171875" lon="9.93916480801999568939208984375">
        <ele>484</ele>
        <time>2018-08-16T12:44:58.000Z</time>
      </trkpt>
      <trkpt lat="48.343268930912017822265625" lon="9.93920914828777313232421875">
        <ele>484</ele>
        <time>2018-08-16T12:44:59.000Z</time>
      </trkpt>
      <trkpt lat="48.34339298307895660400390625" lon="9.939293973147869110107421875">
        <ele>483.79998779296875</ele>
        <time>2018-08-16T12:45:01.000Z</time>
      </trkpt>
      <trkpt lat="48.34389195777475833892822265625" lon="9.93965565226972103118896484375">
        <ele>483.79998779296875</ele>
        <time>2018-08-16T12:45:09.000Z</time>
      </trkpt>
      <trkpt lat="48.344207368791103363037109375" lon="9.93988774716854095458984375">
        <ele>483.600006103515625</ele>
        <time>2018-08-16T12:45:14.000Z</time>
      </trkpt>
      <trkpt lat="48.34453694522380828857421875" lon="9.9401242844760417938232421875">
        <ele>483.600006103515625</ele>
        <time>2018-08-16T12:45:19.000Z</time>
      </trkpt>
      <trkpt lat="48.34509442560374736785888671875" lon="9.94041874073445796966552734375">
        <ele>483.600006103515625</ele>
        <time>2018-08-16T12:45:27.000Z</time>
      </trkpt>
      <trkpt lat="48.34567193873226642608642578125" lon="9.940693080425262451171875">
        <ele>484</ele>
        <time>2018-08-16T12:45:35.000Z</time>
      </trkpt>
      <trkpt lat="48.34617443382740020751953125" lon="9.94100530631840229034423828125">
        <ele>484</ele>
        <time>2018-08-16T12:45:42.000Z</time>
      </trkpt>
      <trkpt lat="48.346668295562267303466796875" lon="9.9413839168846607208251953125">
        <ele>484</ele>
        <time>2018-08-16T12:45:49.000Z</time>
      </trkpt>
      <trkpt lat="48.34681548178195953369140625" lon="9.94145424105226993560791015625">
        <ele>484</ele>
        <time>2018-08-16T12:45:51.000Z</time>
      </trkpt>
      <trkpt lat="48.34712804295122623443603515625" lon="9.9414637126028537750244140625">
        <ele>484.20001220703125</ele>
        <time>2018-08-16T12:45:55.000Z</time>
      </trkpt>
      <trkpt lat="48.347690887749195098876953125" lon="9.94132331572473049163818359375">
        <ele>484.399993896484375</ele>
        <time>2018-08-16T12:46:02.000Z</time>
      </trkpt>
      <trkpt lat="48.3482811413705348968505859375" lon="9.9411327950656414031982421875">
        <ele>484.399993896484375</ele>
        <time>2018-08-16T12:46:09.000Z</time>
      </trkpt>
      <trkpt lat="48.348614238202571868896484375" lon="9.94100949726998805999755859375">
        <ele>484.399993896484375</ele>
        <time>2018-08-16T12:46:13.000Z</time>
      </trkpt>
      <trkpt lat="48.34920356981456279754638671875" lon="9.94083398021757602691650390625">
        <ele>484.20001220703125</ele>
        <time>2018-08-16T12:46:20.000Z</time>
      </trkpt>
      <trkpt lat="48.34946550428867340087890625" lon="9.94084320031106472015380859375">
        <ele>484.20001220703125</ele>
        <time>2018-08-16T12:46:23.000Z</time>
      </trkpt>
      <trkpt lat="48.3499414287507534027099609375" lon="9.94136153720319271087646484375">
        <ele>484</ele>
        <time>2018-08-16T12:46:30.000Z</time>
      </trkpt>
      <trkpt lat="48.3502529002726078033447265625" lon="9.94212412275373935699462890625">
        <ele>484</ele>
        <time>2018-08-16T12:46:37.000Z</time>
      </trkpt>
      <trkpt lat="48.35059429518878459930419921875" lon="9.94267213158309459686279296875">
        <ele>484.20001220703125</ele>
        <time>2018-08-16T12:46:43.000Z</time>
      </trkpt>
      <trkpt lat="48.351122438907623291015625" lon="9.943093992769718170166015625">
        <ele>484.399993896484375</ele>
        <time>2018-08-16T12:46:50.000Z</time>
      </trkpt>
      <trkpt lat="48.35165284574031829833984375" lon="9.9435494653880596160888671875">
        <ele>484.600006103515625</ele>
        <time>2018-08-16T12:46:57.000Z</time>
      </trkpt>
      <trkpt lat="48.35219322703778743743896484375" lon="9.94401776231825351715087890625">
        <ele>484.600006103515625</ele>
        <time>2018-08-16T12:47:04.000Z</time>
      </trkpt>
      <trkpt lat="48.35265775211155414581298828125" lon="9.9444339238107204437255859375">
        <ele>484.600006103515625</ele>
        <time>2018-08-16T12:47:10.000Z</time>
      </trkpt>
      <trkpt lat="48.35313166491687297821044921875" lon="9.94483684189617633819580078125">
        <ele>484.600006103515625</ele>
        <time>2018-08-16T12:47:16.000Z</time>
      </trkpt>
      <trkpt lat="48.35361027158796787261962890625" lon="9.94518519379198551177978515625">
        <ele>484.399993896484375</ele>
        <time>2018-08-16T12:47:22.000Z</time>
      </trkpt>
      <trkpt lat="48.35383892990648746490478515625" lon="9.945343025028705596923828125">
        <ele>484.399993896484375</ele>
        <time>2018-08-16T12:47:25.000Z</time>
      </trkpt>
      <trkpt lat="48.35397966206073760986328125" lon="9.945404715836048126220703125">
        <ele>484.600006103515625</ele>
        <time>2018-08-16T12:47:27.000Z</time>
      </trkpt>
      <trkpt lat="48.3540458790957927703857421875" lon="9.9453856050968170166015625">
        <ele>484.600006103515625</ele>
        <time>2018-08-16T12:47:28.000Z</time>
      </trkpt>
      <trkpt lat="48.35417680442333221435546875" lon="9.9451993592083454132080078125">
        <ele>484.79998779296875</ele>
        <time>2018-08-16T12:47:31.000Z</time>
      </trkpt>
      <trkpt lat="48.354228436946868896484375" lon="9.94509902782738208770751953125">
        <ele>485</ele>
        <time>2018-08-16T12:47:34.000Z</time>
      </trkpt>
      <trkpt lat="48.3542467094957828521728515625" lon="9.94507245719432830810546875">
        <ele>485</ele>
        <time>2018-08-16T12:47:36.000Z</time>
      </trkpt>
      <trkpt lat="48.3542646467685699462890625" lon="9.9450464732944965362548828125">
        <ele>485</ele>
        <time>2018-08-16T12:47:37.000Z</time>
      </trkpt>
      <trkpt lat="48.3543174527585506439208984375" lon="9.94499106891453266143798828125">
        <ele>485</ele>
        <time>2018-08-16T12:47:39.000Z</time>
      </trkpt>
      <trkpt lat="48.3543784730136394500732421875" lon="9.94502074085175991058349609375">
        <ele>485</ele>
        <time>2018-08-16T12:47:41.000Z</time>
      </trkpt>
      <trkpt lat="48.35443438030779361724853515625" lon="9.945106990635395050048828125">
        <ele>485</ele>
        <time>2018-08-16T12:47:43.000Z</time>
      </trkpt>
      <trkpt lat="48.3544679917395114898681640625" lon="9.9451544322073459625244140625">
        <ele>485</ele>
        <time>2018-08-16T12:47:44.000Z</time>
      </trkpt>
      <trkpt lat="48.35453462786972522735595703125" lon="9.94525543414056301116943359375">
        <ele>485</ele>
        <time>2018-08-16T12:47:46.000Z</time>
      </trkpt>
      <trkpt lat="48.35460788570344448089599609375" lon="9.94535735808312892913818359375">
        <ele>484.79998779296875</ele>
        <time>2018-08-16T12:47:48.000Z</time>
      </trkpt>
      <trkpt lat="48.35504575632512569427490234375" lon="9.94591743685305118560791015625">
        <ele>484.79998779296875</ele>
        <time>2018-08-16T12:47:58.000Z</time>
      </trkpt>
      <trkpt lat="48.35514231584966182708740234375" lon="9.94602455757558345794677734375">
        <ele>484.79998779296875</ele>
        <time>2018-08-16T12:48:00.000Z</time>
      </trkpt>
      <trkpt lat="48.35518975742161273956298828125" lon="9.946071915328502655029296875">
        <ele>484.79998779296875</ele>
        <time>2018-08-16T12:48:01.000Z</time>
      </trkpt>
      <trkpt lat="48.35534733720123767852783203125" lon="9.94615632109344005584716796875">
        <ele>484.79998779296875</ele>
        <time>2018-08-16T12:48:06.000Z</time>
      </trkpt>
      <trkpt lat="48.3554054237902164459228515625" lon="9.94624550454318523406982421875">
        <ele>484.79998779296875</ele>
        <time>2018-08-16T12:48:11.000Z</time>
      </trkpt>
      <trkpt lat="48.35541875101625919342041015625" lon="9.9462682195007801055908203125">
        <ele>484.79998779296875</ele>
        <time>2018-08-16T12:48:13.000Z</time>
      </trkpt>
      <trkpt lat="48.35546636022627353668212890625" lon="9.94633041322231292724609375">
        <ele>484.79998779296875</ele>
        <time>2018-08-16T12:48:16.000Z</time>
      </trkpt>
      <trkpt lat="48.3554868958890438079833984375" lon="9.946370311081409454345703125">
        <ele>484.79998779296875</ele>
        <time>2018-08-16T12:48:17.000Z</time>
      </trkpt>
      <trkpt lat="48.35554649122059345245361328125" lon="9.9465163238346576690673828125">
        <ele>484.79998779296875</ele>
        <time>2018-08-16T12:48:20.000Z</time>
      </trkpt>
      <trkpt lat="48.35557549260556697845458984375" lon="9.9465615861117839813232421875">
        <ele>484.79998779296875</ele>
        <time>2018-08-16T12:48:21.000Z</time>
      </trkpt>
      <trkpt lat="48.35580280981957912445068359375" lon="9.9468822777271270751953125">
        <ele>484.79998779296875</ele>
        <time>2018-08-16T12:48:27.000Z</time>
      </trkpt>
      <trkpt lat="48.35588495247066020965576171875" lon="9.9470021389424800872802734375">
        <ele>484.79998779296875</ele>
        <time>2018-08-16T12:48:29.000Z</time>
      </trkpt>
      <trkpt lat="48.3559281192719936370849609375" lon="9.94706173427402973175048828125">
        <ele>484.79998779296875</ele>
        <time>2018-08-16T12:48:30.000Z</time>
      </trkpt>
      <trkpt lat="48.3561919815838336944580078125" lon="9.947412014007568359375">
        <ele>484.600006103515625</ele>
        <time>2018-08-16T12:48:36.000Z</time>
      </trkpt>
      <trkpt lat="48.35623397491872310638427734375" lon="9.94747395627200603485107421875">
        <ele>484.600006103515625</ele>
        <time>2018-08-16T12:48:37.000Z</time>
      </trkpt>
      <trkpt lat="48.3564090728759765625" lon="9.94772960431873798370361328125">
        <ele>484.600006103515625</ele>
        <time>2018-08-16T12:48:41.000Z</time>
      </trkpt>
      <trkpt lat="48.3568038605153560638427734375" lon="9.9482725001871585845947265625">
        <ele>484.20001220703125</ele>
        <time>2018-08-16T12:48:49.000Z</time>
      </trkpt>
      <trkpt lat="48.35690536536276340484619140625" lon="9.9484062753617763519287109375">
        <ele>484.20001220703125</ele>
        <time>2018-08-16T12:48:51.000Z</time>
      </trkpt>
      <trkpt lat="48.357050120830535888671875" lon="9.9486010707914829254150390625">
        <ele>484.20001220703125</ele>
        <time>2018-08-16T12:48:54.000Z</time>
      </trkpt>
      <trkpt lat="48.35718984715640544891357421875" lon="9.94879695586860179901123046875">
        <ele>484.20001220703125</ele>
        <time>2018-08-16T12:48:57.000Z</time>
      </trkpt>
      <trkpt lat="48.35739553906023502349853515625" lon="9.9490580521523952484130859375">
        <ele>484.20001220703125</ele>
        <time>2018-08-16T12:49:01.000Z</time>
      </trkpt>
      <trkpt lat="48.35749930702149868011474609375" lon="9.94919811375439167022705078125">
        <ele>484.20001220703125</ele>
        <time>2018-08-16T12:49:03.000Z</time>
      </trkpt>
      <trkpt lat="48.35770650766789913177490234375" lon="9.9494704417884349822998046875">
        <ele>484.20001220703125</ele>
        <time>2018-08-16T12:49:07.000Z</time>
      </trkpt>
      <trkpt lat="48.357810191810131072998046875" lon="9.9496079050004482269287109375">
        <ele>484.399993896484375</ele>
        <time>2018-08-16T12:49:09.000Z</time>
      </trkpt>
      <trkpt lat="48.3582210727035999298095703125" lon="9.95015599764883518218994140625">
        <ele>484.600006103515625</ele>
        <time>2018-08-16T12:49:17.000Z</time>
      </trkpt>
      <trkpt lat="48.3586381562054157257080078125" lon="9.95070450939238071441650390625">
        <ele>484.79998779296875</ele>
        <time>2018-08-16T12:49:25.000Z</time>
      </trkpt>
      <trkpt lat="48.35885130800306797027587890625" lon="9.950932748615741729736328125">
        <ele>485</ele>
        <time>2018-08-16T12:49:29.000Z</time>
      </trkpt>
      <trkpt lat="48.358948789536952972412109375" lon="9.95103232562541961669921875">
        <ele>485</ele>
        <time>2018-08-16T12:49:31.000Z</time>
      </trkpt>
      <trkpt lat="48.3590414933860301971435546875" lon="9.951152019202709197998046875">
        <ele>485.20001220703125</ele>
        <time>2018-08-16T12:49:33.000Z</time>
      </trkpt>
      <trkpt lat="48.3591534756124019622802734375" lon="9.9513691104948520660400390625">
        <ele>485.20001220703125</ele>
        <time>2018-08-16T12:49:36.000Z</time>
      </trkpt>
      <trkpt lat="48.3591997437179088592529296875" lon="9.95143507607281208038330078125">
        <ele>485.20001220703125</ele>
        <time>2018-08-16T12:49:37.000Z</time>
      </trkpt>
      <trkpt lat="48.35930242203176021575927734375" lon="9.95155644603073596954345703125">
        <ele>485.20001220703125</ele>
        <time>2018-08-16T12:49:39.000Z</time>
      </trkpt>
      <trkpt lat="48.35955471731722354888916015625" lon="9.95186909101903438568115234375">
        <ele>485.399993896484375</ele>
        <time>2018-08-16T12:49:44.000Z</time>
      </trkpt>
      <trkpt lat="48.35960735566914081573486328125" lon="9.9519288539886474609375">
        <ele>485.399993896484375</ele>
        <time>2018-08-16T12:49:45.000Z</time>
      </trkpt>
      <trkpt lat="48.3597147278487682342529296875" lon="9.95204879902303218841552734375">
        <ele>485.399993896484375</ele>
        <time>2018-08-16T12:49:47.000Z</time>
      </trkpt>
      <trkpt lat="48.35997280664741992950439453125" lon="9.95236915536224842071533203125">
        <ele>485.600006103515625</ele>
        <time>2018-08-16T12:49:52.000Z</time>
      </trkpt>
      <trkpt lat="48.360224179923534393310546875" lon="9.95269487611949443817138671875">
        <ele>485.600006103515625</ele>
        <time>2018-08-16T12:49:57.000Z</time>
      </trkpt>
      <trkpt lat="48.36031646467745304107666015625" lon="9.95282261632382869720458984375">
        <ele>485.600006103515625</ele>
        <time>2018-08-16T12:49:59.000Z</time>
      </trkpt>
      <trkpt lat="48.36051561869680881500244140625" lon="9.95313593186438083648681640625">
        <ele>485.600006103515625</ele>
        <time>2018-08-16T12:50:04.000Z</time>
      </trkpt>
      <trkpt lat="48.3605525828897953033447265625" lon="9.95319041423499584197998046875">
        <ele>485.600006103515625</ele>
        <time>2018-08-16T12:50:05.000Z</time>
      </trkpt>
      <trkpt lat="48.36062349379062652587890625" lon="9.95321162045001983642578125">
        <ele>485.399993896484375</ele>
        <time>2018-08-16T12:50:07.000Z</time>
      </trkpt>
      <trkpt lat="48.36067487485706806182861328125" lon="9.9531319923698902130126953125">
        <ele>485.399993896484375</ele>
        <time>2018-08-16T12:50:09.000Z</time>
      </trkpt>
      <trkpt lat="48.36070152930915355682373046875" lon="9.9530760012567043304443359375">
        <ele>485.399993896484375</ele>
        <time>2018-08-16T12:50:10.000Z</time>
      </trkpt>
      <trkpt lat="48.36080077104270458221435546875" lon="9.95289109647274017333984375">
        <ele>485.20001220703125</ele>
        <time>2018-08-16T12:50:13.000Z</time>
      </trkpt>
      <trkpt lat="48.36087721399962902069091796875" lon="9.952753297984600067138671875">
        <ele>485.20001220703125</ele>
        <time>2018-08-16T12:50:15.000Z</time>
      </trkpt>
      <trkpt lat="48.36095684207975864410400390625" lon="9.952614493668079376220703125">
        <ele>485</ele>
        <time>2018-08-16T12:50:17.000Z</time>
      </trkpt>
      <trkpt lat="48.36109681986272335052490234375" lon="9.95238424278795719146728515625">
        <ele>484.79998779296875</ele>
        <time>2018-08-16T12:50:20.000Z</time>
      </trkpt>
      <trkpt lat="48.3611470274627208709716796875" lon="9.952304027974605560302734375">
        <ele>484.79998779296875</ele>
        <time>2018-08-16T12:50:21.000Z</time>
      </trkpt>
      <trkpt lat="48.36145095527172088623046875" lon="9.951831959187984466552734375">
        <ele>484.399993896484375</ele>
        <time>2018-08-16T12:50:27.000Z</time>
      </trkpt>
      <trkpt lat="48.36166712455451488494873046875" lon="9.95153934694826602935791015625">
        <ele>484</ele>
        <time>2018-08-16T12:50:31.000Z</time>
      </trkpt>
      <trkpt lat="48.36190450005233287811279296875" lon="9.95125084184110164642333984375">
        <ele>483.79998779296875</ele>
        <time>2018-08-16T12:50:35.000Z</time>
      </trkpt>
      <trkpt lat="48.36229585111141204833984375" lon="9.95094917714595794677734375">
        <ele>483.600006103515625</ele>
        <time>2018-08-16T12:50:41.000Z</time>
      </trkpt>
      <trkpt lat="48.36243222467601299285888671875" lon="9.95088103227317333221435546875">
        <ele>483.600006103515625</ele>
        <time>2018-08-16T12:50:43.000Z</time>
      </trkpt>
      <trkpt lat="48.3625655807554721832275390625" lon="9.95083962567150592803955078125">
        <ele>483.600006103515625</ele>
        <time>2018-08-16T12:50:45.000Z</time>
      </trkpt>
      <trkpt lat="48.362696170806884765625" lon="9.95081146247684955596923828125">
        <ele>483.600006103515625</ele>
        <time>2018-08-16T12:50:47.000Z</time>
      </trkpt>
      <trkpt lat="48.362757526338100433349609375" lon="9.9507874064147472381591796875">
        <ele>483.600006103515625</ele>
        <time>2018-08-16T12:50:48.000Z</time>
      </trkpt>
      <trkpt lat="48.36286925710737705230712890625" lon="9.95070199482142925262451171875">
        <ele>483.600006103515625</ele>
        <time>2018-08-16T12:50:50.000Z</time>
      </trkpt>
      <trkpt lat="48.36294318549335002899169921875" lon="9.95058028958737850189208984375">
        <ele>483.600006103515625</ele>
        <time>2018-08-16T12:50:52.000Z</time>
      </trkpt>
      <trkpt lat="48.36297453381121158599853515625" lon="9.95054240338504314422607421875">
        <ele>483.600006103515625</ele>
        <time>2018-08-16T12:50:53.000Z</time>
      </trkpt>
      <trkpt lat="48.36303454823791980743408203125" lon="9.95055648498237133026123046875">
        <ele>483.600006103515625</ele>
        <time>2018-08-16T12:50:55.000Z</time>
      </trkpt>
      <trkpt lat="48.36306120269000530242919921875" lon="9.95059336535632610321044921875">
        <ele>483.600006103515625</ele>
        <time>2018-08-16T12:50:56.000Z</time>
      </trkpt>
      <trkpt lat="48.36309523321688175201416015625" lon="9.9506392143666744232177734375">
        <ele>483.600006103515625</ele>
        <time>2018-08-16T12:50:57.000Z</time>
      </trkpt>
      <trkpt lat="48.3631325326859951019287109375" lon="9.95069076307117938995361328125">
        <ele>483.600006103515625</ele>
        <time>2018-08-16T12:50:58.000Z</time>
      </trkpt>
      <trkpt lat="48.3631776273250579833984375" lon="9.950744993984699249267578125">
        <ele>483.600006103515625</ele>
        <time>2018-08-16T12:50:59.000Z</time>
      </trkpt>
      <trkpt lat="48.363272845745086669921875" lon="9.9508574791252613067626953125">
        <ele>483.399993896484375</ele>
        <time>2018-08-16T12:51:01.000Z</time>
      </trkpt>
      <trkpt lat="48.36346722207963466644287109375" lon="9.95109862647950649261474609375">
        <ele>483.399993896484375</ele>
        <time>2018-08-16T12:51:05.000Z</time>
      </trkpt>
      <trkpt lat="48.363515250384807586669921875" lon="9.95115947909653186798095703125">
        <ele>483.399993896484375</ele>
        <time>2018-08-16T12:51:06.000Z</time>
      </trkpt>
      <trkpt lat="48.3635663799941539764404296875" lon="9.9512172304093837738037109375">
        <ele>483.399993896484375</ele>
        <time>2018-08-16T12:51:07.000Z</time>
      </trkpt>
      <trkpt lat="48.36361474357545375823974609375" lon="9.95127229951322078704833984375">
        <ele>483.399993896484375</ele>
        <time>2018-08-16T12:51:08.000Z</time>
      </trkpt>
      <trkpt lat="48.36366268806159496307373046875" lon="9.9513213336467742919921875">
        <ele>483.399993896484375</ele>
        <time>2018-08-16T12:51:09.000Z</time>
      </trkpt>
      <trkpt lat="48.3638024143874645233154296875" lon="9.9514328129589557647705078125">
        <ele>483.600006103515625</ele>
        <time>2018-08-16T12:51:12.000Z</time>
      </trkpt>
      <trkpt lat="48.363846838474273681640625" lon="9.95147547684609889984130859375">
        <ele>483.600006103515625</ele>
        <time>2018-08-16T12:51:13.000Z</time>
      </trkpt>
      <trkpt lat="48.36389042437076568603515625" lon="9.9515139497816562652587890625">
        <ele>483.600006103515625</ele>
        <time>2018-08-16T12:51:14.000Z</time>
      </trkpt>
      <trkpt lat="48.36398220621049404144287109375" lon="9.951576478779315948486328125">
        <ele>483.600006103515625</ele>
        <time>2018-08-16T12:51:16.000Z</time>
      </trkpt>
      <trkpt lat="48.364198207855224609375" lon="9.9517154507339000701904296875">
        <ele>483.600006103515625</ele>
        <time>2018-08-16T12:51:20.000Z</time>
      </trkpt>
      <trkpt lat="48.364719562232494354248046875" lon="9.95206371881067752838134765625">
        <ele>483.600006103515625</ele>
        <time>2018-08-16T12:51:29.000Z</time>
      </trkpt>
      <trkpt lat="48.36522960104048252105712890625" lon="9.95238323695957660675048828125">
        <ele>483.600006103515625</ele>
        <time>2018-08-16T12:51:37.000Z</time>
      </trkpt>
      <trkpt lat="48.36554224602878093719482421875" lon="9.95251717977225780487060546875">
        <ele>483.600006103515625</ele>
        <time>2018-08-16T12:51:42.000Z</time>
      </trkpt>
      <trkpt lat="48.36574005894362926483154296875" lon="9.952573589980602264404296875">
        <ele>483.399993896484375</ele>
        <time>2018-08-16T12:51:45.000Z</time>
      </trkpt>
      <trkpt lat="48.3659297414124011993408203125" lon="9.952633939683437347412109375">
        <ele>483.399993896484375</ele>
        <time>2018-08-16T12:51:48.000Z</time>
      </trkpt>
      <trkpt lat="48.36612411774694919586181640625" lon="9.9526911042630672454833984375">
        <ele>483.399993896484375</ele>
        <time>2018-08-16T12:51:51.000Z</time>
      </trkpt>
      <trkpt lat="48.36619310081005096435546875" lon="9.95270778425037860870361328125">
        <ele>483.399993896484375</ele>
        <time>2018-08-16T12:51:52.000Z</time>
      </trkpt>
      <trkpt lat="48.36633131839334964752197265625" lon="9.95274064131081104278564453125">
        <ele>483.20001220703125</ele>
        <time>2018-08-16T12:51:54.000Z</time>
      </trkpt>
      <trkpt lat="48.3666831068694591522216796875" lon="9.95284725911915302276611328125">
        <ele>483.20001220703125</ele>
        <time>2018-08-16T12:51:59.000Z</time>
      </trkpt>
      <trkpt lat="48.366818726062774658203125" lon="9.95287676341831684112548828125">
        <ele>483.20001220703125</ele>
        <time>2018-08-16T12:52:01.000Z</time>
      </trkpt>
      <trkpt lat="48.3668856136500835418701171875" lon="9.9528984725475311279296875">
        <ele>483.20001220703125</ele>
        <time>2018-08-16T12:52:02.000Z</time>
      </trkpt>
      <trkpt lat="48.36695292033255100250244140625" lon="9.9529217742383480072021484375">
        <ele>483</ele>
        <time>2018-08-16T12:52:03.000Z</time>
      </trkpt>
      <trkpt lat="48.367022573947906494140625" lon="9.95294365100562572479248046875">
        <ele>483</ele>
        <time>2018-08-16T12:52:04.000Z</time>
      </trkpt>
      <trkpt lat="48.36709423922002315521240234375" lon="9.95296359993517398834228515625">
        <ele>483</ele>
        <time>2018-08-16T12:52:05.000Z</time>
      </trkpt>
      <trkpt lat="48.36758675985038280487060546875" lon="9.95308698154985904693603515625">
        <ele>482.79998779296875</ele>
        <time>2018-08-16T12:52:12.000Z</time>
      </trkpt>
      <trkpt lat="48.36785967461764812469482421875" lon="9.95316627435386180877685546875">
        <ele>482.600006103515625</ele>
        <time>2018-08-16T12:52:16.000Z</time>
      </trkpt>
      <trkpt lat="48.36797685362398624420166015625" lon="9.9531946890056133270263671875">
        <ele>482.600006103515625</ele>
        <time>2018-08-16T12:52:18.000Z</time>
      </trkpt>
      <trkpt lat="48.36801842786371707916259765625" lon="9.953199215233325958251953125">
        <ele>482.600006103515625</ele>
        <time>2018-08-16T12:52:19.000Z</time>
      </trkpt>
      <trkpt lat="48.3680600859224796295166015625" lon="9.95320382528007030487060546875">
        <ele>482.600006103515625</ele>
        <time>2018-08-16T12:52:20.000Z</time>
      </trkpt>
      <trkpt lat="48.3681009896099567413330078125" lon="9.95321832597255706787109375">
        <ele>482.600006103515625</ele>
        <time>2018-08-16T12:52:21.000Z</time>
      </trkpt>
      <trkpt lat="48.3681801147758960723876953125" lon="9.953244812786579132080078125">
        <ele>482.600006103515625</ele>
        <time>2018-08-16T12:52:23.000Z</time>
      </trkpt>
      <trkpt lat="48.3682800270617008209228515625" lon="9.95327104814350605010986328125">
        <ele>482.600006103515625</ele>
        <time>2018-08-16T12:52:25.000Z</time>
      </trkpt>
      <trkpt lat="48.36833710782229900360107421875" lon="9.95328462682664394378662109375">
        <ele>482.600006103515625</ele>
        <time>2018-08-16T12:52:26.000Z</time>
      </trkpt>
      <trkpt lat="48.3684600703418254852294921875" lon="9.95331027545034885406494140625">
        <ele>482.600006103515625</ele>
        <time>2018-08-16T12:52:28.000Z</time>
      </trkpt>
      <trkpt lat="48.3687926642596721649169921875" lon="9.95338235981762409210205078125">
        <ele>482.600006103515625</ele>
        <time>2018-08-16T12:52:33.000Z</time>
      </trkpt>
      <trkpt lat="48.369356431066989898681640625" lon="9.95353457517921924591064453125">
        <ele>482.600006103515625</ele>
        <time>2018-08-16T12:52:41.000Z</time>
      </trkpt>
      <trkpt lat="48.369725234806537628173828125" lon="9.953642450273036956787109375">
        <ele>482.600006103515625</ele>
        <time>2018-08-16T12:52:46.000Z</time>
      </trkpt>
      <trkpt lat="48.3699332736432552337646484375" lon="9.95370405726134777069091796875">
        <ele>482.600006103515625</ele>
        <time>2018-08-16T12:52:49.000Z</time>
      </trkpt>
      <trkpt lat="48.37000225670635700225830078125" lon="9.95372601784765720367431640625">
        <ele>482.600006103515625</ele>
        <time>2018-08-16T12:52:50.000Z</time>
      </trkpt>
      <trkpt lat="48.37013460695743560791015625" lon="9.95378569699823856353759765625">
        <ele>482.600006103515625</ele>
        <time>2018-08-16T12:52:52.000Z</time>
      </trkpt>
      <trkpt lat="48.37040877901017665863037109375" lon="9.9538706056773662567138671875">
        <ele>482.600006103515625</ele>
        <time>2018-08-16T12:52:56.000Z</time>
      </trkpt>
      <trkpt lat="48.3705458231270313262939453125" lon="9.95390371419489383697509765625">
        <ele>482.600006103515625</ele>
        <time>2018-08-16T12:52:58.000Z</time>
      </trkpt>
      <trkpt lat="48.3707469888031482696533203125" lon="9.95398619212210178375244140625">
        <ele>482.399993896484375</ele>
        <time>2018-08-16T12:53:01.000Z</time>
      </trkpt>
      <trkpt lat="48.37087732739746570587158203125" lon="9.9540759623050689697265625">
        <ele>482.20001220703125</ele>
        <time>2018-08-16T12:53:03.000Z</time>
      </trkpt>
      <trkpt lat="48.3713659085333347320556640625" lon="9.95454375632107257843017578125">
        <ele>482.20001220703125</ele>
        <time>2018-08-16T12:53:12.000Z</time>
      </trkpt>
      <trkpt lat="48.37150831706821918487548828125" lon="9.95468675158917903900146484375">
        <ele>482.399993896484375</ele>
        <time>2018-08-16T12:53:15.000Z</time>
      </trkpt>
      <trkpt lat="48.37163572199642658233642578125" lon="9.9548512883484363555908203125">
        <ele>482.79998779296875</ele>
        <time>2018-08-16T12:53:18.000Z</time>
      </trkpt>
      <trkpt lat="48.37172742001712322235107421875" lon="9.9549961276352405548095703125">
        <ele>483.20001220703125</ele>
        <time>2018-08-16T12:53:20.000Z</time>
      </trkpt>
      <trkpt lat="48.37177720852196216583251953125" lon="9.95506896637380123138427734375">
        <ele>483.399993896484375</ele>
        <time>2018-08-16T12:53:21.000Z</time>
      </trkpt>
      <trkpt lat="48.37206420488655567169189453125" lon="9.9554789252579212188720703125">
        <ele>483.79998779296875</ele>
        <time>2018-08-16T12:53:26.000Z</time>
      </trkpt>
      <trkpt lat="48.37241113185882568359375" lon="9.9560120142996311187744140625">
        <ele>483.79998779296875</ele>
        <time>2018-08-16T12:53:32.000Z</time>
      </trkpt>
      <trkpt lat="48.37247139774262905120849609375" lon="9.9560968391597270965576171875">
        <ele>483.399993896484375</ele>
        <time>2018-08-16T12:53:33.000Z</time>
      </trkpt>
      <trkpt lat="48.3727351762354373931884765625" lon="9.9562862701714038848876953125">
        <ele>482.79998779296875</ele>
        <time>2018-08-16T12:53:37.000Z</time>
      </trkpt>
      <trkpt lat="48.37286752648651599884033203125" lon="9.956364892423152923583984375">
        <ele>482.79998779296875</ele>
        <time>2018-08-16T12:53:39.000Z</time>
      </trkpt>
      <trkpt lat="48.3730213344097137451171875" lon="9.95637235231697559356689453125">
        <ele>482.79998779296875</ele>
        <time>2018-08-16T12:53:41.000Z</time>
      </trkpt>
      <trkpt lat="48.3731795847415924072265625" lon="9.95631267316639423370361328125">
        <ele>482.600006103515625</ele>
        <time>2018-08-16T12:53:43.000Z</time>
      </trkpt>
      <trkpt lat="48.37333003990352153778076171875" lon="9.95621946640312671661376953125">
        <ele>482.600006103515625</ele>
        <time>2018-08-16T12:53:45.000Z</time>
      </trkpt>
      <trkpt lat="48.37347538210451602935791015625" lon="9.95611016638576984405517578125">
        <ele>482.399993896484375</ele>
        <time>2018-08-16T12:53:47.000Z</time>
      </trkpt>
      <trkpt lat="48.37367587722837924957275390625" lon="9.95578712783753871917724609375">
        <ele>482.600006103515625</ele>
        <time>2018-08-16T12:53:51.000Z</time>
      </trkpt>
      <trkpt lat="48.3737235702574253082275390625" lon="9.955723173916339874267578125">
        <ele>482.600006103515625</ele>
        <time>2018-08-16T12:53:52.000Z</time>
      </trkpt>
      <trkpt lat="48.3737788908183574676513671875" lon="9.95567631907761096954345703125">
        <ele>482.79998779296875</ele>
        <time>2018-08-16T12:53:53.000Z</time>
      </trkpt>
      <trkpt lat="48.3738385699689388275146484375" lon="9.95563960634171962738037109375">
        <ele>482.79998779296875</ele>
        <time>2018-08-16T12:53:54.000Z</time>
      </trkpt>
      <trkpt lat="48.37390051223337650299072265625" lon="9.95560817420482635498046875">
        <ele>482.79998779296875</ele>
        <time>2018-08-16T12:53:55.000Z</time>
      </trkpt>
      <trkpt lat="48.37402573786675930023193359375" lon="9.955541454255580902099609375">
        <ele>482.79998779296875</ele>
        <time>2018-08-16T12:53:57.000Z</time>
      </trkpt>
      <trkpt lat="48.37415465153753757476806640625" lon="9.95548881590366363525390625">
        <ele>482.79998779296875</ele>
        <time>2018-08-16T12:53:59.000Z</time>
      </trkpt>
      <trkpt lat="48.37428742088377475738525390625" lon="9.95551320724189281463623046875">
        <ele>483</ele>
        <time>2018-08-16T12:54:01.000Z</time>
      </trkpt>
      <trkpt lat="48.3743441663682460784912109375" lon="9.95556802488863468170166015625">
        <ele>483</ele>
        <time>2018-08-16T12:54:02.000Z</time>
      </trkpt>
      <trkpt lat="48.37447215802967548370361328125" lon="9.95581311173737049102783203125">
        <ele>483.20001220703125</ele>
        <time>2018-08-16T12:54:05.000Z</time>
      </trkpt>
      <trkpt lat="48.374511301517486572265625" lon="9.9558993615210056304931640625">
        <ele>483.20001220703125</ele>
        <time>2018-08-16T12:54:06.000Z</time>
      </trkpt>
      <trkpt lat="48.37459118105471134185791015625" lon="9.95607445947825908660888671875">
        <ele>483.20001220703125</ele>
        <time>2018-08-16T12:54:08.000Z</time>
      </trkpt>
      <trkpt lat="48.3747196756303310394287109375" lon="9.95633111335337162017822265625">
        <ele>483.20001220703125</ele>
        <time>2018-08-16T12:54:11.000Z</time>
      </trkpt>
      <trkpt lat="48.3748068474233150482177734375" lon="9.95650562457740306854248046875">
        <ele>483.20001220703125</ele>
        <time>2018-08-16T12:54:13.000Z</time>
      </trkpt>
      <trkpt lat="48.37494053877890110015869140625" lon="9.95676881633698940277099609375">
        <ele>483</ele>
        <time>2018-08-16T12:54:16.000Z</time>
      </trkpt>
      <trkpt lat="48.3750321529805660247802734375" lon="9.95694651268422603607177734375">
        <ele>483</ele>
        <time>2018-08-16T12:54:18.000Z</time>
      </trkpt>
      <trkpt lat="48.37540246546268463134765625" lon="9.957658387720584869384765625">
        <ele>482.79998779296875</ele>
        <time>2018-08-16T12:54:26.000Z</time>
      </trkpt>
      <trkpt lat="48.37545535527169704437255859375" lon="9.957730472087860107421875">
        <ele>482.79998779296875</ele>
        <time>2018-08-16T12:54:27.000Z</time>
      </trkpt>
      <trkpt lat="48.375686109066009521484375" lon="9.9579437077045440673828125">
        <ele>482.79998779296875</ele>
        <time>2018-08-16T12:54:31.000Z</time>
      </trkpt>
      <trkpt lat="48.3760629594326019287109375" lon="9.958609901368618011474609375">
        <ele>483</ele>
        <time>2018-08-16T12:54:39.000Z</time>
      </trkpt>
      <trkpt lat="48.37630678899586200714111328125" lon="9.959081299602985382080078125">
        <ele>483</ele>
        <time>2018-08-16T12:54:44.000Z</time>
      </trkpt>
      <trkpt lat="48.37664810009300708770751953125" lon="9.9597359262406826019287109375">
        <ele>482.600006103515625</ele>
        <time>2018-08-16T12:54:51.000Z</time>
      </trkpt>
      <trkpt lat="48.37697968818247318267822265625" lon="9.96040656231343746185302734375">
        <ele>482.399993896484375</ele>
        <time>2018-08-16T12:54:58.000Z</time>
      </trkpt>
      <trkpt lat="48.37729752995073795318603515625" lon="9.96108197607100009918212890625">
        <ele>482.399993896484375</ele>
        <time>2018-08-16T12:55:05.000Z</time>
      </trkpt>
      <trkpt lat="48.37747153826057910919189453125" lon="9.96147039346396923065185546875">
        <ele>482.399993896484375</ele>
        <time>2018-08-16T12:55:09.000Z</time>
      </trkpt>
      <trkpt lat="48.37779558263719081878662109375" lon="9.962139017879962921142578125">
        <ele>482.399993896484375</ele>
        <time>2018-08-16T12:55:16.000Z</time>
      </trkpt>
      <trkpt lat="48.37812465615570545196533203125" lon="9.9628140963613986968994140625">
        <ele>482.20001220703125</ele>
        <time>2018-08-16T12:55:23.000Z</time>
      </trkpt>
      <trkpt lat="48.37844568304717540740966796875" lon="9.96348716318607330322265625">
        <ele>482.20001220703125</ele>
        <time>2018-08-16T12:55:30.000Z</time>
      </trkpt>
      <trkpt lat="48.37853905744850635528564453125" lon="9.96367366053164005279541015625">
        <ele>482.20001220703125</ele>
        <time>2018-08-16T12:55:32.000Z</time>
      </trkpt>
      <trkpt lat="48.37889109738171100616455078125" lon="9.96441864408552646636962890625">
        <ele>482.20001220703125</ele>
        <time>2018-08-16T12:55:40.000Z</time>
      </trkpt>
      <trkpt lat="48.37923324666917324066162109375" lon="9.9651523120701313018798828125">
        <ele>482.20001220703125</ele>
        <time>2018-08-16T12:55:48.000Z</time>
      </trkpt>
      <trkpt lat="48.379547484219074249267578125" lon="9.96592755429446697235107421875">
        <ele>481.79998779296875</ele>
        <time>2018-08-16T12:55:56.000Z</time>
      </trkpt>
      <trkpt lat="48.37973297573626041412353515625" lon="9.96644455008208751678466796875">
        <ele>481.600006103515625</ele>
        <time>2018-08-16T12:56:01.000Z</time>
      </trkpt>
      <trkpt lat="48.3798735402524471282958984375" lon="9.96686431579291820526123046875">
        <ele>481.399993896484375</ele>
        <time>2018-08-16T12:56:05.000Z</time>
      </trkpt>
      <trkpt lat="48.38004662655293941497802734375" lon="9.96750150807201862335205078125">
        <ele>481.399993896484375</ele>
        <time>2018-08-16T12:56:11.000Z</time>
      </trkpt>
      <trkpt lat="48.3801353909075260162353515625" lon="9.9678291566669940948486328125">
        <ele>481.399993896484375</ele>
        <time>2018-08-16T12:56:14.000Z</time>
      </trkpt>
      <trkpt lat="48.380309902131557464599609375" lon="9.96849107556045055389404296875">
        <ele>481.399993896484375</ele>
        <time>2018-08-16T12:56:20.000Z</time>
      </trkpt>
      <trkpt lat="48.38051618076860904693603515625" lon="9.96926925145089626312255859375">
        <ele>481.20001220703125</ele>
        <time>2018-08-16T12:56:27.000Z</time>
      </trkpt>
      <trkpt lat="48.3807191066443920135498046875" lon="9.969922117888927459716796875">
        <ele>481.20001220703125</ele>
        <time>2018-08-16T12:56:33.000Z</time>
      </trkpt>
      <trkpt lat="48.380752466619014739990234375" lon="9.97003099881112575531005859375">
        <ele>481.20001220703125</ele>
        <time>2018-08-16T12:56:34.000Z</time>
      </trkpt>
      <trkpt lat="48.38100786320865154266357421875" lon="9.97079241089522838592529296875">
        <ele>481.20001220703125</ele>
        <time>2018-08-16T12:56:41.000Z</time>
      </trkpt>
      <trkpt lat="48.3812806941568851470947265625" lon="9.97153672389686107635498046875">
        <ele>481.20001220703125</ele>
        <time>2018-08-16T12:56:48.000Z</time>
      </trkpt>
      <trkpt lat="48.38136057369410991668701171875" lon="9.97175029478967189788818359375">
        <ele>481.20001220703125</ele>
        <time>2018-08-16T12:56:50.000Z</time>
      </trkpt>
      <trkpt lat="48.3816374279558658599853515625" lon="9.97250072658061981201171875">
        <ele>481</ele>
        <time>2018-08-16T12:56:57.000Z</time>
      </trkpt>
      <trkpt lat="48.38175016455352306365966796875" lon="9.97281320393085479736328125">
        <ele>481</ele>
        <time>2018-08-16T12:57:00.000Z</time>
      </trkpt>
      <trkpt lat="48.38198938407003879547119140625" lon="9.97343991883099079132080078125">
        <ele>481</ele>
        <time>2018-08-16T12:57:06.000Z</time>
      </trkpt>
      <trkpt lat="48.3821540884673595428466796875" lon="9.97386320494115352630615234375">
        <ele>481</ele>
        <time>2018-08-16T12:57:10.000Z</time>
      </trkpt>
      <trkpt lat="48.38248659856617450714111328125" lon="9.974583126604557037353515625">
        <ele>481</ele>
        <time>2018-08-16T12:57:17.000Z</time>
      </trkpt>
      <trkpt lat="48.3826338686048984527587890625" lon="9.9748830311000347137451171875">
        <ele>481</ele>
        <time>2018-08-16T12:57:20.000Z</time>
      </trkpt>
      <trkpt lat="48.38291089050471782684326171875" lon="9.9754362367093563079833984375">
        <ele>480.79998779296875</ele>
        <time>2018-08-16T12:57:26.000Z</time>
      </trkpt>
      <trkpt lat="48.38295162655413150787353515625" lon="9.97552064247429370880126953125">
        <ele>481</ele>
        <time>2018-08-16T12:57:27.000Z</time>
      </trkpt>
      <trkpt lat="48.383299224078655242919921875" lon="9.97622287832200527191162109375">
        <ele>480.600006103515625</ele>
        <time>2018-08-16T12:57:36.000Z</time>
      </trkpt>
      <trkpt lat="48.38339871726930141448974609375" lon="9.97642320580780506134033203125">
        <ele>480.600006103515625</ele>
        <time>2018-08-16T12:57:39.000Z</time>
      </trkpt>
      <trkpt lat="48.383427970111370086669921875" lon="9.97648724354803562164306640625">
        <ele>480.600006103515625</ele>
        <time>2018-08-16T12:57:40.000Z</time>
      </trkpt>
      <trkpt lat="48.38355411775410175323486328125" lon="9.97675110585987567901611328125">
        <ele>480.399993896484375</ele>
        <time>2018-08-16T12:57:44.000Z</time>
      </trkpt>
      <trkpt lat="48.383622430264949798583984375" lon="9.97688890434801578521728515625">
        <ele>480.600006103515625</ele>
        <time>2018-08-16T12:57:46.000Z</time>
      </trkpt>
      <trkpt lat="48.38369845412671566009521484375" lon="9.97703189961612224578857421875">
        <ele>480.600006103515625</ele>
        <time>2018-08-16T12:57:48.000Z</time>
      </trkpt>
      <trkpt lat="48.38400841690599918365478515625" lon="9.97775408439338207244873046875">
        <ele>480.600006103515625</ele>
        <time>2018-08-16T12:57:57.000Z</time>
      </trkpt>
      <trkpt lat="48.38404345326125621795654296875" lon="9.977838657796382904052734375">
        <ele>480.600006103515625</ele>
        <time>2018-08-16T12:57:58.000Z</time>
      </trkpt>
      <trkpt lat="48.38407949544489383697509765625" lon="9.97792239300906658172607421875">
        <ele>480.79998779296875</ele>
        <time>2018-08-16T12:57:59.000Z</time>
      </trkpt>
      <trkpt lat="48.38419080711901187896728515625" lon="9.97818374074995517730712890625">
        <ele>480.79998779296875</ele>
        <time>2018-08-16T12:58:02.000Z</time>
      </trkpt>
      <trkpt lat="48.38434503413736820220947265625" lon="9.97854433022439479827880859375">
        <ele>480.79998779296875</ele>
        <time>2018-08-16T12:58:06.000Z</time>
      </trkpt>
      <trkpt lat="48.38467980735003948211669921875" lon="9.97927657328546047210693359375">
        <ele>480.79998779296875</ele>
        <time>2018-08-16T12:58:14.000Z</time>
      </trkpt>
      <trkpt lat="48.3849958889186382293701171875" lon="9.97994125820696353912353515625">
        <ele>480.600006103515625</ele>
        <time>2018-08-16T12:58:21.000Z</time>
      </trkpt>
      <trkpt lat="48.38522069156169891357421875" lon="9.98043042607605457305908203125">
        <ele>480.600006103515625</ele>
        <time>2018-08-16T12:58:26.000Z</time>
      </trkpt>
      <trkpt lat="48.38553761132061481475830078125" lon="9.9811127968132495880126953125">
        <ele>480.600006103515625</ele>
        <time>2018-08-16T12:58:33.000Z</time>
      </trkpt>
      <trkpt lat="48.38562411256134510040283203125" lon="9.9812982045114040374755859375">
        <ele>480.600006103515625</ele>
        <time>2018-08-16T12:58:35.000Z</time>
      </trkpt>
      <trkpt lat="48.3856652677059173583984375" lon="9.9813914112746715545654296875">
        <ele>480.600006103515625</ele>
        <time>2018-08-16T12:58:36.000Z</time>
      </trkpt>
      <trkpt lat="48.3857834525406360626220703125" lon="9.98166156001389026641845703125">
        <ele>480.600006103515625</ele>
        <time>2018-08-16T12:58:39.000Z</time>
      </trkpt>
      <trkpt lat="48.385865427553653717041015625" lon="9.98183188028633594512939453125">
        <ele>480.399993896484375</ele>
        <time>2018-08-16T12:58:41.000Z</time>
      </trkpt>
      <trkpt lat="48.38601487688720226287841796875" lon="9.98220319859683513641357421875">
        <ele>480.399993896484375</ele>
        <time>2018-08-16T12:58:45.000Z</time>
      </trkpt>
      <trkpt lat="48.38615552522242069244384765625" lon="9.98247192241251468658447265625">
        <ele>480.399993896484375</ele>
        <time>2018-08-16T12:58:48.000Z</time>
      </trkpt>
      <trkpt lat="48.38625736534595489501953125" lon="9.9826480261981487274169921875">
        <ele>480.399993896484375</ele>
        <time>2018-08-16T12:58:50.000Z</time>
      </trkpt>
      <trkpt lat="48.38657931424677371978759765625" lon="9.98318186961114406585693359375">
        <ele>480.20001220703125</ele>
        <time>2018-08-16T12:58:56.000Z</time>
      </trkpt>
      <trkpt lat="48.38686647824943065643310546875" lon="9.9835936725139617919921875">
        <ele>479.79998779296875</ele>
        <time>2018-08-16T12:59:01.000Z</time>
      </trkpt>
      <trkpt lat="48.38698315434157848358154296875" lon="9.9837492406368255615234375">
        <ele>479.79998779296875</ele>
        <time>2018-08-16T12:59:03.000Z</time>
      </trkpt>
      <trkpt lat="48.38743242435157299041748046875" lon="9.98423681594431400299072265625">
        <ele>479.600006103515625</ele>
        <time>2018-08-16T12:59:10.000Z</time>
      </trkpt>
      <trkpt lat="48.3879285492002964019775390625" lon="9.984557591378688812255859375">
        <ele>479.79998779296875</ele>
        <time>2018-08-16T12:59:17.000Z</time>
      </trkpt>
      <trkpt lat="48.388063497841358184814453125" lon="9.9846523068845272064208984375">
        <ele>479.79998779296875</ele>
        <time>2018-08-16T12:59:19.000Z</time>
      </trkpt>
      <trkpt lat="48.38826307095587253570556640625" lon="9.9848065339028835296630859375">
        <ele>480</ele>
        <time>2018-08-16T12:59:22.000Z</time>
      </trkpt>
      <trkpt lat="48.38878761045634746551513671875" lon="9.9852262996137142181396484375">
        <ele>480.20001220703125</ele>
        <time>2018-08-16T12:59:30.000Z</time>
      </trkpt>
      <trkpt lat="48.3890289254486560821533203125" lon="9.9854470789432525634765625">
        <ele>480.399993896484375</ele>
        <time>2018-08-16T12:59:34.000Z</time>
      </trkpt>
      <trkpt lat="48.3892150036990642547607421875" lon="9.9856041558086872100830078125">
        <ele>480.399993896484375</ele>
        <time>2018-08-16T12:59:37.000Z</time>
      </trkpt>
      <trkpt lat="48.3892783708870410919189453125" lon="9.98565134592354297637939453125">
        <ele>480.399993896484375</ele>
        <time>2018-08-16T12:59:38.000Z</time>
      </trkpt>
      <trkpt lat="48.38940535672008991241455078125" lon="9.9857355840504169464111328125">
        <ele>480.399993896484375</ele>
        <time>2018-08-16T12:59:40.000Z</time>
      </trkpt>
      <trkpt lat="48.389660418033599853515625" lon="9.985881261527538299560546875">
        <ele>480.600006103515625</ele>
        <time>2018-08-16T12:59:44.000Z</time>
      </trkpt>
      <trkpt lat="48.389776088297367095947265625" lon="9.9859488196671009063720703125">
        <ele>480.600006103515625</ele>
        <time>2018-08-16T12:59:46.000Z</time>
      </trkpt>
      <trkpt lat="48.38988245464861392974853515625" lon="9.98600489459931850433349609375">
        <ele>480.79998779296875</ele>
        <time>2018-08-16T12:59:48.000Z</time>
      </trkpt>
      <trkpt lat="48.38993157260119915008544921875" lon="9.98602752573788166046142578125">
        <ele>480.79998779296875</ele>
        <time>2018-08-16T12:59:49.000Z</time>
      </trkpt>
      <trkpt lat="48.39011295698583126068115234375" lon="9.98612140305340290069580078125">
        <ele>480.79998779296875</ele>
        <time>2018-08-16T12:59:53.000Z</time>
      </trkpt>
      <trkpt lat="48.39013743214309215545654296875" lon="9.98620740137994289398193359375">
        <ele>480.79998779296875</ele>
        <time>2018-08-16T12:59:55.000Z</time>
      </trkpt>
      <trkpt lat="48.3901061676442623138427734375" lon="9.98632357455790042877197265625">
        <ele>480.79998779296875</ele>
        <time>2018-08-16T12:59:57.000Z</time>
      </trkpt>
      <trkpt lat="48.39006400667130947113037109375" lon="9.98644419014453887939453125">
        <ele>481</ele>
        <time>2018-08-16T12:59:59.000Z</time>
      </trkpt>
      <trkpt lat="48.39004556648433208465576171875" lon="9.986512251198291778564453125">
        <ele>481</ele>
        <time>2018-08-16T13:00:00.000Z</time>
      </trkpt>
      <trkpt lat="48.39001103304326534271240234375" lon="9.98665113933384418487548828125">
        <ele>481</ele>
        <time>2018-08-16T13:00:02.000Z</time>
      </trkpt>
      <trkpt lat="48.389993347227573394775390625" lon="9.98671987093985080718994140625">
        <ele>481</ele>
        <time>2018-08-16T13:00:03.000Z</time>
      </trkpt>
      <trkpt lat="48.38997649960219860076904296875" lon="9.986786507070064544677734375">
        <ele>481.20001220703125</ele>
        <time>2018-08-16T13:00:04.000Z</time>
      </trkpt>
      <trkpt lat="48.38995906524360179901123046875" lon="9.98685515485703945159912109375">
        <ele>481.20001220703125</ele>
        <time>2018-08-16T13:00:05.000Z</time>
      </trkpt>
      <trkpt lat="48.38986694812774658203125" lon="9.98711465857923030853271484375">
        <ele>481.399993896484375</ele>
        <time>2018-08-16T13:00:09.000Z</time>
      </trkpt>
      <trkpt lat="48.3898188360035419464111328125" lon="9.9872433207929134368896484375">
        <ele>481.399993896484375</ele>
        <time>2018-08-16T13:00:11.000Z</time>
      </trkpt>
      <trkpt lat="48.38979561813175678253173828125" lon="9.98731364496052265167236328125">
        <ele>481.399993896484375</ele>
        <time>2018-08-16T13:00:12.000Z</time>
      </trkpt>
      <trkpt lat="48.3897531218826770782470703125" lon="9.9875526130199432373046875">
        <ele>481.399993896484375</ele>
        <time>2018-08-16T13:00:15.000Z</time>
      </trkpt>
      <trkpt lat="48.38971766643226146697998046875" lon="9.9877130426466464996337890625">
        <ele>481.399993896484375</ele>
        <time>2018-08-16T13:00:17.000Z</time>
      </trkpt>
      <trkpt lat="48.3896404691040515899658203125" lon="9.98805041424930095672607421875">
        <ele>481.399993896484375</ele>
        <time>2018-08-16T13:00:21.000Z</time>
      </trkpt>
      <trkpt lat="48.38966418989002704620361328125" lon="9.98832014389336109161376953125">
        <ele>481</ele>
        <time>2018-08-16T13:00:24.000Z</time>
      </trkpt>
      <trkpt lat="48.38968397118151187896728515625" lon="9.98840329237282276153564453125">
        <ele>480.79998779296875</ele>
        <time>2018-08-16T13:00:25.000Z</time>
      </trkpt>
      <trkpt lat="48.389737866818904876708984375" lon="9.9887086451053619384765625">
        <ele>480.600006103515625</ele>
        <time>2018-08-16T13:00:29.000Z</time>
      </trkpt>
      <trkpt lat="48.38974448852241039276123046875" lon="9.98884744942188262939453125">
        <ele>480.600006103515625</ele>
        <time>2018-08-16T13:00:31.000Z</time>
      </trkpt>
      <trkpt lat="48.389741219580173492431640625" lon="9.9889998324215412139892578125">
        <ele>480.600006103515625</ele>
        <time>2018-08-16T13:00:33.000Z</time>
      </trkpt>
      <trkpt lat="48.3897085301578044891357421875" lon="9.98916252516210079193115234375">
        <ele>480.600006103515625</ele>
        <time>2018-08-16T13:00:35.000Z</time>
      </trkpt>
      <trkpt lat="48.389554135501384735107421875" lon="9.98963191173970699310302734375">
        <ele>480.79998779296875</ele>
        <time>2018-08-16T13:00:41.000Z</time>
      </trkpt>
      <trkpt lat="48.38948582299053668975830078125" lon="9.98978312127292156219482421875">
        <ele>480.79998779296875</ele>
        <time>2018-08-16T13:00:43.000Z</time>
      </trkpt>
      <trkpt lat="48.3893246389925479888916015625" lon="9.99029626138508319854736328125">
        <ele>480.79998779296875</ele>
        <time>2018-08-16T13:00:52.000Z</time>
      </trkpt>
      <trkpt lat="48.38935070671141147613525390625" lon="9.9903717823326587677001953125">
        <ele>480.79998779296875</ele>
        <time>2018-08-16T13:00:54.000Z</time>
      </trkpt>
      <trkpt lat="48.38938415050506591796875" lon="9.9904810823500156402587890625">
        <ele>480.79998779296875</ele>
        <time>2018-08-16T13:00:56.000Z</time>
      </trkpt>
      <trkpt lat="48.3894118107855319976806640625" lon="9.99053749255836009979248046875">
        <ele>480.79998779296875</ele>
        <time>2018-08-16T13:00:57.000Z</time>
      </trkpt>
      <trkpt lat="48.3894832246005535125732421875" lon="9.99064746312797069549560546875">
        <ele>480.79998779296875</ele>
        <time>2018-08-16T13:00:59.000Z</time>
      </trkpt>
      <trkpt lat="48.3895207755267620086669921875" lon="9.990705884993076324462890625">
        <ele>480.79998779296875</ele>
        <time>2018-08-16T13:01:00.000Z</time>
      </trkpt>
      <trkpt lat="48.38956092484295368194580078125" lon="9.9907623790204524993896484375">
        <ele>480.79998779296875</ele>
        <time>2018-08-16T13:01:01.000Z</time>
      </trkpt>
      <trkpt lat="48.38977097533643245697021484375" lon="9.9910802207887172698974609375">
        <ele>480.600006103515625</ele>
        <time>2018-08-16T13:01:06.000Z</time>
      </trkpt>
      <trkpt lat="48.38990516960620880126953125" lon="9.99129823409020900726318359375">
        <ele>480.600006103515625</ele>
        <time>2018-08-16T13:01:09.000Z</time>
      </trkpt>
      <trkpt lat="48.39018738828599452972412109375" lon="9.99175219796597957611083984375">
        <ele>480.399993896484375</ele>
        <time>2018-08-16T13:01:15.000Z</time>
      </trkpt>
      <trkpt lat="48.39046365581452846527099609375" lon="9.99219979159533977508544921875">
        <ele>480.399993896484375</ele>
        <time>2018-08-16T13:01:21.000Z</time>
      </trkpt>
      <trkpt lat="48.3905468881130218505859375" lon="9.99235418625175952911376953125">
        <ele>480.20001220703125</ele>
        <time>2018-08-16T13:01:23.000Z</time>
      </trkpt>
      <trkpt lat="48.39076121337711811065673828125" lon="9.99274528585374355316162109375">
        <ele>480.20001220703125</ele>
        <time>2018-08-16T13:01:28.000Z</time>
      </trkpt>
      <trkpt lat="48.39090705849230289459228515625" lon="9.9929963238537311553955078125">
        <ele>480.20001220703125</ele>
        <time>2018-08-16T13:01:31.000Z</time>
      </trkpt>
      <trkpt lat="48.39094326831400394439697265625" lon="9.9931143410503864288330078125">
        <ele>480.20001220703125</ele>
        <time>2018-08-16T13:01:32.000Z</time>
      </trkpt>
      <trkpt lat="48.3912189491093158721923828125" lon="9.99361884780228137969970703125">
        <ele>480.20001220703125</ele>
        <time>2018-08-16T13:01:38.000Z</time>
      </trkpt>
      <trkpt lat="48.391264043748378753662109375" lon="9.99369311146438121795654296875">
        <ele>480.20001220703125</ele>
        <time>2018-08-16T13:01:39.000Z</time>
      </trkpt>
      <trkpt lat="48.39139379560947418212890625" lon="9.99392126686871051788330078125">
        <ele>480.399993896484375</ele>
        <time>2018-08-16T13:01:42.000Z</time>
      </trkpt>
      <trkpt lat="48.391587249934673309326171875" lon="9.99420340172946453094482421875">
        <ele>480.600006103515625</ele>
        <time>2018-08-16T13:01:52.000Z</time>
      </trkpt>
      <trkpt lat="48.39161113835871219635009765625" lon="9.99424782581627368927001953125">
        <ele>480.20001220703125</ele>
        <time>2018-08-16T13:02:05.000Z</time>
      </trkpt>
      <trkpt lat="48.39162723161280155181884765625" lon="9.9942774139344692230224609375">
        <ele>480.20001220703125</ele>
        <time>2018-08-16T13:02:06.000Z</time>
      </trkpt>
      <trkpt lat="48.39164726436138153076171875" lon="9.99430918134748935699462890625">
        <ele>480.20001220703125</ele>
        <time>2018-08-16T13:02:07.000Z</time>
      </trkpt>
      <trkpt lat="48.3917044289410114288330078125" lon="9.99437388963997364044189453125">
        <ele>480.399993896484375</ele>
        <time>2018-08-16T13:02:09.000Z</time>
      </trkpt>
      <trkpt lat="48.39174122549593448638916015625" lon="9.99441194348037242889404296875">
        <ele>480.399993896484375</ele>
        <time>2018-08-16T13:02:10.000Z</time>
      </trkpt>
      <trkpt lat="48.39177777059376239776611328125" lon="9.99445804394781589508056640625">
        <ele>480.399993896484375</ele>
        <time>2018-08-16T13:02:11.000Z</time>
      </trkpt>
      <trkpt lat="48.39184935204684734344482421875" lon="9.994564242660999298095703125">
        <ele>480.399993896484375</ele>
        <time>2018-08-16T13:02:13.000Z</time>
      </trkpt>
      <trkpt lat="48.39219837449491024017333984375" lon="9.99510579742491245269775390625">
        <ele>480.600006103515625</ele>
        <time>2018-08-16T13:02:22.000Z</time>
      </trkpt>
      <trkpt lat="48.39259332977235317230224609375" lon="9.9957412295043468475341796875">
        <ele>480.399993896484375</ele>
        <time>2018-08-16T13:02:32.000Z</time>
      </trkpt>
      <trkpt lat="48.39275996200740337371826171875" lon="9.996001236140727996826171875">
        <ele>480.399993896484375</ele>
        <time>2018-08-16T13:02:36.000Z</time>
      </trkpt>
      <trkpt lat="48.3928554318845272064208984375" lon="9.996138028800487518310546875">
        <ele>480.399993896484375</ele>
        <time>2018-08-16T13:02:38.000Z</time>
      </trkpt>
      <trkpt lat="48.39305274188518524169921875" lon="9.99641236849129199981689453125">
        <ele>480.399993896484375</ele>
        <time>2018-08-16T13:02:42.000Z</time>
      </trkpt>
      <trkpt lat="48.39328802190721035003662109375" lon="9.99675585888326168060302734375">
        <ele>480.600006103515625</ele>
        <time>2018-08-16T13:02:47.000Z</time>
      </trkpt>
      <trkpt lat="48.3936597593128681182861328125" lon="9.9973488785326480865478515625">
        <ele>480.600006103515625</ele>
        <time>2018-08-16T13:02:56.000Z</time>
      </trkpt>
      <trkpt lat="48.3937657065689563751220703125" lon="9.99751827679574489593505859375">
        <ele>480.600006103515625</ele>
        <time>2018-08-16T13:02:59.000Z</time>
      </trkpt>
      <trkpt lat="48.393797390162944793701171875" lon="9.997573681175708770751953125">
        <ele>480.79998779296875</ele>
        <time>2018-08-16T13:03:00.000Z</time>
      </trkpt>
      <trkpt lat="48.3938485197722911834716796875" lon="9.99768356792628765106201171875">
        <ele>480.79998779296875</ele>
        <time>2018-08-16T13:03:02.000Z</time>
      </trkpt>
      <trkpt lat="48.39387525804340839385986328125" lon="9.99772824347019195556640625">
        <ele>480.79998779296875</ele>
        <time>2018-08-16T13:03:03.000Z</time>
      </trkpt>
      <trkpt lat="48.39401104487478733062744140625" lon="9.99793368391692638397216796875">
        <ele>480.79998779296875</ele>
        <time>2018-08-16T13:03:08.000Z</time>
      </trkpt>
      <trkpt lat="48.3940416388213634490966796875" lon="9.9979745037853717803955078125">
        <ele>480.79998779296875</ele>
        <time>2018-08-16T13:03:09.000Z</time>
      </trkpt>
      <trkpt lat="48.39407734572887420654296875" lon="9.9980328418314456939697265625">
        <ele>481</ele>
        <time>2018-08-16T13:03:11.000Z</time>
      </trkpt>
      <trkpt lat="48.3941811136901378631591796875" lon="9.99791658483445644378662109375">
        <ele>481</ele>
        <time>2018-08-16T13:03:16.000Z</time>
      </trkpt>
      <trkpt lat="48.3942525275051593780517578125" lon="9.99779856763780117034912109375">
        <ele>481</ele>
        <time>2018-08-16T13:03:19.000Z</time>
      </trkpt>
      <trkpt lat="48.394332490861415863037109375" lon="9.99767133034765720367431640625">
        <ele>481.20001220703125</ele>
        <time>2018-08-16T13:03:23.000Z</time>
      </trkpt>
      <trkpt lat="48.3943529427051544189453125" lon="9.99764853157103061676025390625">
        <ele>481.20001220703125</ele>
        <time>2018-08-16T13:03:24.000Z</time>
      </trkpt>
      <trkpt lat="48.394394852221012115478515625" lon="9.997623972594738006591796875">
        <ele>481.20001220703125</ele>
        <time>2018-08-16T13:03:26.000Z</time>
      </trkpt>
      <trkpt lat="48.3944173157215118408203125" lon="9.99760779552161693572998046875">
        <ele>481.399993896484375</ele>
        <time>2018-08-16T13:03:28.000Z</time>
      </trkpt>
      <trkpt lat="48.39445914141833782196044921875" lon="9.997621290385723114013671875">
        <ele>481.399993896484375</ele>
        <time>2018-08-16T13:03:30.000Z</time>
      </trkpt>
      <trkpt lat="48.39450423605740070343017578125" lon="9.997673928737640380859375">
        <ele>481.600006103515625</ele>
        <time>2018-08-16T13:03:32.000Z</time>
      </trkpt>
      <trkpt lat="48.39455620385706424713134765625" lon="9.997720532119274139404296875">
        <ele>482</ele>
        <time>2018-08-16T13:03:34.000Z</time>
      </trkpt>
      <trkpt lat="48.3946112729609012603759765625" lon="9.99774207361042499542236328125">
        <ele>482</ele>
        <time>2018-08-16T13:03:36.000Z</time>
      </trkpt>
      <trkpt lat="48.39466315694153308868408203125" lon="9.99776822514832019805908203125">
        <ele>482</ele>
        <time>2018-08-16T13:03:38.000Z</time>
      </trkpt>
      <trkpt lat="48.39470372535288333892822265625" lon="9.9977874197065830230712890625">
        <ele>482</ele>
        <time>2018-08-16T13:03:40.000Z</time>
      </trkpt>
      <trkpt lat="48.39472375810146331787109375" lon="9.9977790378034114837646484375">
        <ele>482</ele>
        <time>2018-08-16T13:03:42.000Z</time>
      </trkpt>
      <trkpt lat="48.39473272673785686492919921875" lon="9.997781552374362945556640625">
        <ele>482</ele>
        <time>2018-08-16T13:03:43.000Z</time>
      </trkpt>
      <trkpt lat="48.39479827322065830230712890625" lon="9.9977518804371356964111328125">
        <ele>482</ele>
        <time>2018-08-16T13:04:24.000Z</time>
      </trkpt>
      <trkpt lat="48.39484873227775096893310546875" lon="9.99776788987219333648681640625">
        <ele>482</ele>
        <time>2018-08-16T13:04:26.000Z</time>
      </trkpt>
      <trkpt lat="48.394890390336513519287109375" lon="9.9977662973105907440185546875">
        <ele>482</ele>
        <time>2018-08-16T13:04:28.000Z</time>
      </trkpt>
      <trkpt lat="48.3949240855872631072998046875" lon="9.997683651745319366455078125">
        <ele>482</ele>
        <time>2018-08-16T13:04:32.000Z</time>
      </trkpt>
      <trkpt lat="48.3949307911098003387451171875" lon="9.99768189154565334320068359375">
        <ele>482</ele>
        <time>2018-08-16T13:04:33.000Z</time>
      </trkpt>
      <trkpt lat="48.39493741281330585479736328125" lon="9.99770703725516796112060546875">
        <ele>482.20001220703125</ele>
        <time>2018-08-16T13:04:37.000Z</time>
      </trkpt>
      <trkpt lat="48.394879661500453948974609375" lon="9.99774165451526641845703125">
        <ele>482.20001220703125</ele>
        <time>2018-08-16T13:04:41.000Z</time>
      </trkpt>
      <trkpt lat="48.39487035758793354034423828125" lon="9.99773888848721981048583984375">
        <ele>482.20001220703125</ele>
        <time>2018-08-16T13:04:42.000Z</time>
      </trkpt>
      <trkpt lat="48.394847810268402099609375" lon="9.9977522157132625579833984375">
        <ele>482.20001220703125</ele>
        <time>2018-08-16T13:04:44.000Z</time>
      </trkpt>
      <trkpt lat="48.3948271907866001129150390625" lon="9.99775364063680171966552734375">
        <ele>482.20001220703125</ele>
        <time>2018-08-16T13:04:45.000Z</time>
      </trkpt>
      <trkpt lat="48.39479676447808742523193359375" lon="9.997764788568019866943359375">
        <ele>482.20001220703125</ele>
        <time>2018-08-16T13:04:47.000Z</time>
      </trkpt>
      <trkpt lat="48.3947311341762542724609375" lon="9.9978601746261119842529296875">
        <ele>482</ele>
        <time>2018-08-16T13:04:51.000Z</time>
      </trkpt>
      <trkpt lat="48.39467556215822696685791015625" lon="9.99796117655932903289794921875">
        <ele>481.79998779296875</ele>
        <time>2018-08-16T13:04:53.000Z</time>
      </trkpt>
      <trkpt lat="48.39462376199662685394287109375" lon="9.99807617627084255218505859375">
        <ele>481.79998779296875</ele>
        <time>2018-08-16T13:04:55.000Z</time>
      </trkpt>
      <trkpt lat="48.394601047039031982421875" lon="9.9981441535055637359619140625">
        <ele>481.79998779296875</ele>
        <time>2018-08-16T13:04:56.000Z</time>
      </trkpt>
      <trkpt lat="48.3945401944220066070556640625" lon="9.99834959395229816436767578125">
        <ele>481.79998779296875</ele>
        <time>2018-08-16T13:04:59.000Z</time>
      </trkpt>
      <trkpt lat="48.39452535845339298248291015625" lon="9.99842134304344654083251953125">
        <ele>481.600006103515625</ele>
        <time>2018-08-16T13:05:00.000Z</time>
      </trkpt>
      <trkpt lat="48.3945170603692531585693359375" lon="9.9986303038895130157470703125">
        <ele>481.600006103515625</ele>
        <time>2018-08-16T13:05:03.000Z</time>
      </trkpt>
      <trkpt lat="48.39452368207275867462158203125" lon="9.99869677238166332244873046875">
        <ele>481.600006103515625</ele>
        <time>2018-08-16T13:05:04.000Z</time>
      </trkpt>
      <trkpt lat="48.39453457854688167572021484375" lon="9.99875863082706928253173828125">
        <ele>481.600006103515625</ele>
        <time>2018-08-16T13:05:05.000Z</time>
      </trkpt>
      <trkpt lat="48.394541032612323760986328125" lon="9.9988178908824920654296875">
        <ele>481.600006103515625</ele>
        <time>2018-08-16T13:05:06.000Z</time>
      </trkpt>
      <trkpt lat="48.39456441812217235565185546875" lon="9.99892509542405605316162109375">
        <ele>481.600006103515625</ele>
        <time>2018-08-16T13:05:08.000Z</time>
      </trkpt>
      <trkpt lat="48.39461001567542552947998046875" lon="9.99902064912021160125732421875">
        <ele>481.600006103515625</ele>
        <time>2018-08-16T13:05:10.000Z</time>
      </trkpt>
      <trkpt lat="48.39475166983902454376220703125" lon="9.99925366602838039398193359375">
        <ele>481.600006103515625</ele>
        <time>2018-08-16T13:05:15.000Z</time>
      </trkpt>
      <trkpt lat="48.3947976864874362945556640625" lon="9.9993323720991611480712890625">
        <ele>481.600006103515625</ele>
        <time>2018-08-16T13:05:17.000Z</time>
      </trkpt>
      <trkpt lat="48.39491880498826503753662109375" lon="9.9995231442153453826904296875">
        <ele>481.600006103515625</ele>
        <time>2018-08-16T13:05:23.000Z</time>
      </trkpt>
      <trkpt lat="48.39497630484402179718017578125" lon="9.99961107037961483001708984375">
        <ele>481.600006103515625</ele>
        <time>2018-08-16T13:05:25.000Z</time>
      </trkpt>
      <trkpt lat="48.3950813300907611846923828125" lon="9.99976965598762035369873046875">
        <ele>481.600006103515625</ele>
        <time>2018-08-16T13:05:28.000Z</time>
      </trkpt>
      <trkpt lat="48.39515467174351215362548828125" lon="9.9998800456523895263671875">
        <ele>481.600006103515625</ele>
        <time>2018-08-16T13:05:30.000Z</time>
      </trkpt>
      <trkpt lat="48.395301438868045806884765625" lon="10.00016511417925357818603515625">
        <ele>481.399993896484375</ele>
        <time>2018-08-16T13:05:35.000Z</time>
      </trkpt>
      <trkpt lat="48.395330607891082763671875" lon="10.00022110529243946075439453125">
        <ele>481.399993896484375</ele>
        <time>2018-08-16T13:05:36.000Z</time>
      </trkpt>
      <trkpt lat="48.3953582681715488433837890625" lon="10.00027441419661045074462890625">
        <ele>481.399993896484375</ele>
        <time>2018-08-16T13:05:37.000Z</time>
      </trkpt>
      <trkpt lat="48.39548827148973941802978515625" lon="10.00047222711145877838134765625">
        <ele>481.399993896484375</ele>
        <time>2018-08-16T13:05:42.000Z</time>
      </trkpt>
      <trkpt lat="48.3955021016299724578857421875" lon="10.0004930980503559112548828125">
        <ele>481.20001220703125</ele>
        <time>2018-08-16T13:05:43.000Z</time>
      </trkpt>
      <trkpt lat="48.39551324956119060516357421875" lon="10.000509358942508697509765625">
        <ele>481.20001220703125</ele>
        <time>2018-08-16T13:05:44.000Z</time>
      </trkpt>
      <trkpt lat="48.39553051628172397613525390625" lon="10.00051564536988735198974609375">
        <ele>481.20001220703125</ele>
        <time>2018-08-16T13:05:45.000Z</time>
      </trkpt>
      <trkpt lat="48.3955540694296360015869140625" lon="10.00045998953282833099365234375">
        <ele>481.20001220703125</ele>
        <time>2018-08-16T13:05:49.000Z</time>
      </trkpt>
      <trkpt lat="48.39554795064032077789306640625" lon="10.00045739114284515380859375">
        <ele>481</ele>
        <time>2018-08-16T13:05:51.000Z</time>
      </trkpt>
      <trkpt lat="48.3954960666596889495849609375" lon="10.00070390291512012481689453125">
        <ele>483.79998779296875</ele>
        <time>2018-08-16T13:46:09.000Z</time>
      </trkpt>
      <trkpt lat="48.39550939388573169708251953125" lon="10.00072921626269817352294921875">
        <ele>484</ele>
        <time>2018-08-16T13:46:10.000Z</time>
      </trkpt>
      <trkpt lat="48.39555365033447742462158203125" lon="10.0008018873631954193115234375">
        <ele>484</ele>
        <time>2018-08-16T13:46:13.000Z</time>
      </trkpt>
      <trkpt lat="48.39556337334215641021728515625" lon="10.0008250214159488677978515625">
        <ele>484</ele>
        <time>2018-08-16T13:46:14.000Z</time>
      </trkpt>
      <trkpt lat="48.395566642284393310546875" lon="10.0008478201925754547119140625">
        <ele>484</ele>
        <time>2018-08-16T13:46:15.000Z</time>
      </trkpt>
      <trkpt lat="48.39559740386903285980224609375" lon="10.00091873109340667724609375">
        <ele>484.20001220703125</ele>
        <time>2018-08-16T13:46:20.000Z</time>
      </trkpt>
      <trkpt lat="48.39561198838055133819580078125" lon="10.00093482434749603271484375">
        <ele>484.20001220703125</ele>
        <time>2018-08-16T13:46:21.000Z</time>
      </trkpt>
      <trkpt lat="48.3956415764987468719482421875" lon="10.00097329728305339813232421875">
        <ele>484.20001220703125</ele>
        <time>2018-08-16T13:46:23.000Z</time>
      </trkpt>
      <trkpt lat="48.3957233838737010955810546875" lon="10.0010794959962368011474609375">
        <ele>484.20001220703125</ele>
        <time>2018-08-16T13:46:28.000Z</time>
      </trkpt>
      <trkpt lat="48.3957642875611782073974609375" lon="10.001100786030292510986328125">
        <ele>484.20001220703125</ele>
        <time>2018-08-16T13:46:30.000Z</time>
      </trkpt>
      <trkpt lat="48.3958048559725284576416015625" lon="10.00115183182060718536376953125">
        <ele>484.20001220703125</ele>
        <time>2018-08-16T13:46:32.000Z</time>
      </trkpt>
      <trkpt lat="48.3958528004586696624755859375" lon="10.00122492201626300811767578125">
        <ele>484.20001220703125</ele>
        <time>2018-08-16T13:46:34.000Z</time>
      </trkpt>
      <trkpt lat="48.3958769403398036956787109375" lon="10.0012628920376300811767578125">
        <ele>484.20001220703125</ele>
        <time>2018-08-16T13:46:35.000Z</time>
      </trkpt>
      <trkpt lat="48.3959010802209377288818359375" lon="10.0013029575347900390625">
        <ele>484.20001220703125</ele>
        <time>2018-08-16T13:46:36.000Z</time>
      </trkpt>
      <trkpt lat="48.39592681266367435455322265625" lon="10.00134176574647426605224609375">
        <ele>484.20001220703125</ele>
        <time>2018-08-16T13:46:37.000Z</time>
      </trkpt>
      <trkpt lat="48.39601113460958003997802734375" lon="10.00146925449371337890625">
        <ele>484.20001220703125</ele>
        <time>2018-08-16T13:46:40.000Z</time>
      </trkpt>
      <trkpt lat="48.396135605871677398681640625" lon="10.00164535827934741973876953125">
        <ele>484.20001220703125</ele>
        <time>2018-08-16T13:46:44.000Z</time>
      </trkpt>
      <trkpt lat="48.3962045051157474517822265625" lon="10.00173739157617092132568359375">
        <ele>484.20001220703125</ele>
        <time>2018-08-16T13:46:46.000Z</time>
      </trkpt>
      <trkpt lat="48.3962363563477993011474609375" lon="10.00178349204361438751220703125">
        <ele>484.20001220703125</ele>
        <time>2018-08-16T13:46:47.000Z</time>
      </trkpt>
      <trkpt lat="48.3963366039097309112548828125" lon="10.00193252228200435638427734375">
        <ele>484.20001220703125</ele>
        <time>2018-08-16T13:46:50.000Z</time>
      </trkpt>
      <trkpt lat="48.39644649066030979156494140625" lon="10.0020953826606273651123046875">
        <ele>484.20001220703125</ele>
        <time>2018-08-16T13:46:53.000Z</time>
      </trkpt>
      <trkpt lat="48.396858461201190948486328125" lon="10.0027079321444034576416015625">
        <ele>484.399993896484375</ele>
        <time>2018-08-16T13:47:04.000Z</time>
      </trkpt>
      <trkpt lat="48.39697438292205333709716796875" lon="10.0028822757303714752197265625">
        <ele>484.399993896484375</ele>
        <time>2018-08-16T13:47:07.000Z</time>
      </trkpt>
      <trkpt lat="48.39716264046728610992431640625" lon="10.0031907297670841217041015625">
        <ele>484.399993896484375</ele>
        <time>2018-08-16T13:47:12.000Z</time>
      </trkpt>
      <trkpt lat="48.3972006104886531829833984375" lon="10.00324957072734832763671875">
        <ele>484.399993896484375</ele>
        <time>2018-08-16T13:47:13.000Z</time>
      </trkpt>
      <trkpt lat="48.3972361497581005096435546875" lon="10.00330866314470767974853515625">
        <ele>484.399993896484375</ele>
        <time>2018-08-16T13:47:14.000Z</time>
      </trkpt>
      <trkpt lat="48.39729909785091876983642578125" lon="10.00342684797942638397216796875">
        <ele>484.399993896484375</ele>
        <time>2018-08-16T13:47:16.000Z</time>
      </trkpt>
      <trkpt lat="48.39749087579548358917236328125" lon="10.0037620402872562408447265625">
        <ele>484.399993896484375</ele>
        <time>2018-08-16T13:47:22.000Z</time>
      </trkpt>
      <trkpt lat="48.39754334650933742523193359375" lon="10.003880560398101806640625">
        <ele>484.399993896484375</ele>
        <time>2018-08-16T13:47:24.000Z</time>
      </trkpt>
      <trkpt lat="48.39760713279247283935546875" lon="10.00405163504183292388916015625">
        <ele>484.399993896484375</ele>
        <time>2018-08-16T13:47:27.000Z</time>
      </trkpt>
      <trkpt lat="48.397647701203823089599609375" lon="10.00412321649491786956787109375">
        <ele>484.20001220703125</ele>
        <time>2018-08-16T13:47:29.000Z</time>
      </trkpt>
      <trkpt lat="48.39767712168395519256591796875" lon="10.00413059256970882415771484375">
        <ele>484.20001220703125</ele>
        <time>2018-08-16T13:47:31.000Z</time>
      </trkpt>
      <trkpt lat="48.397728167474269866943359375" lon="10.0040681473910808563232421875">
        <ele>484.20001220703125</ele>
        <time>2018-08-16T13:47:36.000Z</time>
      </trkpt>
      <trkpt lat="48.39778549969196319580078125" lon="10.004011653363704681396484375">
        <ele>484.20001220703125</ele>
        <time>2018-08-16T13:47:40.000Z</time>
      </trkpt>
      <trkpt lat="48.3978218771517276763916015625" lon="10.00405146740376949310302734375">
        <ele>484.20001220703125</ele>
        <time>2018-08-16T13:47:42.000Z</time>
      </trkpt>
      <trkpt lat="48.39787208475172519683837890625" lon="10.00410913489758968353271484375">
        <ele>484.20001220703125</ele>
        <time>2018-08-16T13:47:45.000Z</time>
      </trkpt>
      <trkpt lat="48.39796562679111957550048828125" lon="10.0040812231600284576416015625">
        <ele>484.20001220703125</ele>
        <time>2018-08-16T13:47:50.000Z</time>
      </trkpt>
      <trkpt lat="48.39802966453135013580322265625" lon="10.004019029438495635986328125">
        <ele>484.600006103515625</ele>
        <time>2018-08-16T13:47:53.000Z</time>
      </trkpt>
      <trkpt lat="48.39825354516506195068359375" lon="10.003842003643512725830078125">
        <ele>485.399993896484375</ele>
        <time>2018-08-16T13:48:00.000Z</time>
      </trkpt>
      <trkpt lat="48.39840902946889400482177734375" lon="10.0037224777042865753173828125">
        <ele>485.79998779296875</ele>
        <time>2018-08-16T13:48:05.000Z</time>
      </trkpt>
      <trkpt lat="48.39852855540812015533447265625" lon="10.00359096564352512359619140625">
        <ele>486.399993896484375</ele>
        <time>2018-08-16T13:48:09.000Z</time>
      </trkpt>
      <trkpt lat="48.3986590616405010223388671875" lon="10.003456771373748779296875">
        <ele>486.79998779296875</ele>
        <time>2018-08-16T13:48:13.000Z</time>
      </trkpt>
      <trkpt lat="48.39895385317504405975341796875" lon="10.0031578727066516876220703125">
        <ele>487.600006103515625</ele>
        <time>2018-08-16T13:48:21.000Z</time>
      </trkpt>
      <trkpt lat="48.39898444712162017822265625" lon="10.0031255185604095458984375">
        <ele>487.600006103515625</ele>
        <time>2018-08-16T13:48:22.000Z</time>
      </trkpt>
      <trkpt lat="48.3990328945219516754150390625" lon="10.0030764006078243255615234375">
        <ele>487.600006103515625</ele>
        <time>2018-08-16T13:48:24.000Z</time>
      </trkpt>
      <trkpt lat="48.399101458489894866943359375" lon="10.0030195713043212890625">
        <ele>487.399993896484375</ele>
        <time>2018-08-16T13:48:30.000Z</time>
      </trkpt>
      <trkpt lat="48.39912417344748973846435546875" lon="10.0030445493757724761962890625">
        <ele>487</ele>
        <time>2018-08-16T13:48:32.000Z</time>
      </trkpt>
      <trkpt lat="48.39913372881710529327392578125" lon="10.00305787660181522369384765625">
        <ele>486.79998779296875</ele>
        <time>2018-08-16T13:48:33.000Z</time>
      </trkpt>
      <trkpt lat="48.39914378710091114044189453125" lon="10.0030693598091602325439453125">
        <ele>486.600006103515625</ele>
        <time>2018-08-16T13:48:34.000Z</time>
      </trkpt>
      <trkpt lat="48.3991599641740322113037109375" lon="10.003083609044551849365234375">
        <ele>486.600006103515625</ele>
        <time>2018-08-16T13:48:36.000Z</time>
      </trkpt>
      <trkpt lat="48.39916289784014225006103515625" lon="10.00308486633002758026123046875">
        <ele>486.399993896484375</ele>
        <time>2018-08-16T13:48:37.000Z</time>
      </trkpt>
      <trkpt lat="48.3992223255336284637451171875" lon="10.003103055059909820556640625">
        <ele>486.20001220703125</ele>
        <time>2018-08-16T13:48:46.000Z</time>
      </trkpt>
      <trkpt lat="48.39925208128988742828369140625" lon="10.0031002052128314971923828125">
        <ele>486.20001220703125</ele>
        <time>2018-08-16T13:48:47.000Z</time>
      </trkpt>
      <trkpt lat="48.39931972324848175048828125" lon="10.00308989547193050384521484375">
        <ele>486.20001220703125</ele>
        <time>2018-08-16T13:48:49.000Z</time>
      </trkpt>
      <trkpt lat="48.39935484342277050018310546875" lon="10.00308302231132984161376953125">
        <ele>486.20001220703125</ele>
        <time>2018-08-16T13:48:50.000Z</time>
      </trkpt>
      <trkpt lat="48.399689532816410064697265625" lon="10.0029992870986461639404296875">
        <ele>485.600006103515625</ele>
        <time>2018-08-16T13:49:00.000Z</time>
      </trkpt>
      <trkpt lat="48.39974745176732540130615234375" lon="10.00299434177577495574951171875">
        <ele>485.399993896484375</ele>
        <time>2018-08-16T13:49:02.000Z</time>
      </trkpt>
      <trkpt lat="48.39978148229420185089111328125" lon="10.00303390435874462127685546875">
        <ele>485.20001220703125</ele>
        <time>2018-08-16T13:49:05.000Z</time>
      </trkpt>
      <trkpt lat="48.39978550560772418975830078125" lon="10.00303910113871097564697265625">
        <ele>485.20001220703125</ele>
        <time>2018-08-16T13:49:06.000Z</time>
      </trkpt>
      <trkpt lat="48.39979925192892551422119140625" lon="10.00306089408695697784423828125">
        <ele>485.20001220703125</ele>
        <time>2018-08-16T13:49:08.000Z</time>
      </trkpt>
      <trkpt lat="48.39980998076498508453369140625" lon="10.00306977890431880950927734375">
        <ele>485.20001220703125</ele>
        <time>2018-08-16T13:49:09.000Z</time>
      </trkpt>
      <trkpt lat="48.3998432569205760955810546875" lon="10.0030764006078243255615234375">
        <ele>485.20001220703125</ele>
        <time>2018-08-16T13:49:11.000Z</time>
      </trkpt>
      <trkpt lat="48.39989882893860340118408203125" lon="10.00307464040815830230712890625">
        <ele>485.20001220703125</ele>
        <time>2018-08-16T13:49:13.000Z</time>
      </trkpt>
      <trkpt lat="48.400061018764972686767578125" lon="10.0031766481697559356689453125">
        <ele>485.79998779296875</ele>
        <time>2018-08-16T13:49:18.000Z</time>
      </trkpt>
      <trkpt lat="48.40012480504810810089111328125" lon="10.00321763567626476287841796875">
        <ele>485.79998779296875</ele>
        <time>2018-08-16T13:49:20.000Z</time>
      </trkpt>
      <trkpt lat="48.40016202069818973541259765625" lon="10.00323859043419361114501953125">
        <ele>485.79998779296875</ele>
        <time>2018-08-16T13:49:21.000Z</time>
      </trkpt>
      <trkpt lat="48.40024508535861968994140625" lon="10.00329114496707916259765625">
        <ele>485.79998779296875</ele>
        <time>2018-08-16T13:49:23.000Z</time>
      </trkpt>
      <trkpt lat="48.40047718025743961334228515625" lon="10.00349205918610095977783203125">
        <ele>485.79998779296875</ele>
        <time>2018-08-16T13:49:29.000Z</time>
      </trkpt>
      <trkpt lat="48.40054574422538280487060546875" lon="10.00356581993401050567626953125">
        <ele>485.600006103515625</ele>
        <time>2018-08-16T13:49:31.000Z</time>
      </trkpt>
      <trkpt lat="48.4006519429385662078857421875" lon="10.0036802329123020172119140625">
        <ele>485.399993896484375</ele>
        <time>2018-08-16T13:49:34.000Z</time>
      </trkpt>
      <trkpt lat="48.40068941004574298858642578125" lon="10.00371065922081470489501953125">
        <ele>485.399993896484375</ele>
        <time>2018-08-16T13:49:35.000Z</time>
      </trkpt>
      <trkpt lat="48.40089149773120880126953125" lon="10.00380939804017543792724609375">
        <ele>485.399993896484375</ele>
        <time>2018-08-16T13:49:40.000Z</time>
      </trkpt>
      <trkpt lat="48.40097422711551189422607421875" lon="10.0038649700582027435302734375">
        <ele>485.399993896484375</ele>
        <time>2018-08-16T13:49:42.000Z</time>
      </trkpt>
      <trkpt lat="48.40101697482168674468994140625" lon="10.003886260092258453369140625">
        <ele>485.399993896484375</ele>
        <time>2018-08-16T13:49:43.000Z</time>
      </trkpt>
      <trkpt lat="48.4010998718440532684326171875" lon="10.00392439775168895721435546875">
        <ele>485.20001220703125</ele>
        <time>2018-08-16T13:49:45.000Z</time>
      </trkpt>
      <trkpt lat="48.40113834477961063385009765625" lon="10.0039380602538585662841796875">
        <ele>485.20001220703125</ele>
        <time>2018-08-16T13:49:46.000Z</time>
      </trkpt>
      <trkpt lat="48.40117338113486766815185546875" lon="10.00393713824450969696044921875">
        <ele>485.20001220703125</ele>
        <time>2018-08-16T13:49:47.000Z</time>
      </trkpt>
      <trkpt lat="48.40122149325907230377197265625" lon="10.003913082182407379150390625">
        <ele>485</ele>
        <time>2018-08-16T13:49:50.000Z</time>
      </trkpt>
      <trkpt lat="48.4012292884290218353271484375" lon="10.00390813685953617095947265625">
        <ele>485</ele>
        <time>2018-08-16T13:49:51.000Z</time>
      </trkpt>
      <trkpt lat="48.40126030147075653076171875" lon="10.0038995034992694854736328125">
        <ele>484.79998779296875</ele>
        <time>2018-08-16T13:49:53.000Z</time>
      </trkpt>
      <trkpt lat="48.401288129389286041259765625" lon="10.0039021857082843780517578125">
        <ele>484.79998779296875</ele>
        <time>2018-08-16T13:49:54.000Z</time>
      </trkpt>
      <trkpt lat="48.40136499144136905670166015625" lon="10.003927163779735565185546875">
        <ele>484.79998779296875</ele>
        <time>2018-08-16T13:49:56.000Z</time>
      </trkpt>
      <trkpt lat="48.4014525823295116424560546875" lon="10.00395096838474273681640625">
        <ele>484.79998779296875</ele>
        <time>2018-08-16T13:49:58.000Z</time>
      </trkpt>
      <trkpt lat="48.4015484713017940521240234375" lon="10.0039749406278133392333984375">
        <ele>484.600006103515625</ele>
        <time>2018-08-16T13:50:00.000Z</time>
      </trkpt>
      <trkpt lat="48.4016966633498668670654296875" lon="10.0040111504495143890380859375">
        <ele>484.600006103515625</ele>
        <time>2018-08-16T13:50:03.000Z</time>
      </trkpt>
      <trkpt lat="48.4017451107501983642578125" lon="10.00402665697038173675537109375">
        <ele>484.600006103515625</ele>
        <time>2018-08-16T13:50:04.000Z</time>
      </trkpt>
      <trkpt lat="48.40179012157022953033447265625" lon="10.004046857357025146484375">
        <ele>484.399993896484375</ele>
        <time>2018-08-16T13:50:05.000Z</time>
      </trkpt>
      <trkpt lat="48.401828594505786895751953125" lon="10.00407032668590545654296875">
        <ele>484.399993896484375</ele>
        <time>2018-08-16T13:50:06.000Z</time>
      </trkpt>
      <trkpt lat="48.40186270885169506072998046875" lon="10.00409404747188091278076171875">
        <ele>484.399993896484375</ele>
        <time>2018-08-16T13:50:07.000Z</time>
      </trkpt>
      <trkpt lat="48.40195205993950366973876953125" lon="10.00420317985117435455322265625">
        <ele>484.399993896484375</ele>
        <time>2018-08-16T13:50:10.000Z</time>
      </trkpt>
      <trkpt lat="48.40200193226337432861328125" lon="10.00430904328823089599609375">
        <ele>484.399993896484375</ele>
        <time>2018-08-16T13:50:12.000Z</time>
      </trkpt>
      <trkpt lat="48.40206555090844631195068359375" lon="10.0044973008334636688232421875">
        <ele>484.399993896484375</ele>
        <time>2018-08-16T13:50:15.000Z</time>
      </trkpt>
      <trkpt lat="48.40217904187738895416259765625" lon="10.0047457404434680938720703125">
        <ele>484.399993896484375</ele>
        <time>2018-08-16T13:50:19.000Z</time>
      </trkpt>
      <trkpt lat="48.40229940600693225860595703125" lon="10.00487239100039005279541015625">
        <ele>484.600006103515625</ele>
        <time>2018-08-16T13:50:22.000Z</time>
      </trkpt>
      <trkpt lat="48.40253711678087711334228515625" lon="10.00506266020238399505615234375">
        <ele>484.399993896484375</ele>
        <time>2018-08-16T13:50:29.000Z</time>
      </trkpt>
      <trkpt lat="48.40271447785198688507080078125" lon="10.0051712058484554290771484375">
        <ele>484.399993896484375</ele>
        <time>2018-08-16T13:50:36.000Z</time>
      </trkpt>
      <trkpt lat="48.40284992940723896026611328125" lon="10.0052935816347599029541015625">
        <ele>484.399993896484375</ele>
        <time>2018-08-16T13:50:40.000Z</time>
      </trkpt>
      <trkpt lat="48.40289787389338016510009765625" lon="10.00532384030520915985107421875">
        <ele>484.399993896484375</ele>
        <time>2018-08-16T13:50:41.000Z</time>
      </trkpt>
      <trkpt lat="48.4029494225978851318359375" lon="10.00535049475729465484619140625">
        <ele>484.399993896484375</ele>
        <time>2018-08-16T13:50:42.000Z</time>
      </trkpt>
      <trkpt lat="48.40305947698652744293212890625" lon="10.00540128909051418304443359375">
        <ele>484.399993896484375</ele>
        <time>2018-08-16T13:50:44.000Z</time>
      </trkpt>
      <trkpt lat="48.40317950583994388580322265625" lon="10.0054514966905117034912109375">
        <ele>484.399993896484375</ele>
        <time>2018-08-16T13:50:46.000Z</time>
      </trkpt>
      <trkpt lat="48.40374578721821308135986328125" lon="10.0057361461222171783447265625">
        <ele>484</ele>
        <time>2018-08-16T13:50:55.000Z</time>
      </trkpt>
      <trkpt lat="48.40399305336177349090576171875" lon="10.00589230097830295562744140625">
        <ele>483.600006103515625</ele>
        <time>2018-08-16T13:50:59.000Z</time>
      </trkpt>
      <trkpt lat="48.40410989709198474884033203125" lon="10.0059815682470798492431640625">
        <ele>483.600006103515625</ele>
        <time>2018-08-16T13:51:01.000Z</time>
      </trkpt>
      <trkpt lat="48.40463963337242603302001953125" lon="10.00638968311250209808349609375">
        <ele>483.399993896484375</ele>
        <time>2018-08-16T13:51:10.000Z</time>
      </trkpt>
      <trkpt lat="48.4048281423747539520263671875" lon="10.00653066672384738922119140625">
        <ele>483.399993896484375</ele>
        <time>2018-08-16T13:51:13.000Z</time>
      </trkpt>
      <trkpt lat="48.405084125697612762451171875" lon="10.00670182518661022186279296875">
        <ele>483.399993896484375</ele>
        <time>2018-08-16T13:51:17.000Z</time>
      </trkpt>
      <trkpt lat="48.40558192692697048187255859375" lon="10.0069696269929409027099609375">
        <ele>483.20001220703125</ele>
        <time>2018-08-16T13:51:25.000Z</time>
      </trkpt>
      <trkpt lat="48.40597487054765224456787109375" lon="10.00703819096088409423828125">
        <ele>483.20001220703125</ele>
        <time>2018-08-16T13:51:31.000Z</time>
      </trkpt>
      <trkpt lat="48.40645649470388889312744140625" lon="10.0071144662797451019287109375">
        <ele>483.20001220703125</ele>
        <time>2018-08-16T13:51:38.000Z</time>
      </trkpt>
      <trkpt lat="48.40659320354461669921875" lon="10.007137097418308258056640625">
        <ele>483.399993896484375</ele>
        <time>2018-08-16T13:51:40.000Z</time>
      </trkpt>
      <trkpt lat="48.406797386705875396728515625" lon="10.00716484151780605316162109375">
        <ele>483.399993896484375</ele>
        <time>2018-08-16T13:51:43.000Z</time>
      </trkpt>
      <trkpt lat="48.40706384740769863128662109375" lon="10.00721127726137638092041015625">
        <ele>483.399993896484375</ele>
        <time>2018-08-16T13:51:47.000Z</time>
      </trkpt>
      <trkpt lat="48.40723400004208087921142578125" lon="10.0075208209455013275146484375">
        <ele>483.399993896484375</ele>
        <time>2018-08-16T13:51:51.000Z</time>
      </trkpt>
      <trkpt lat="48.407471962273120880126953125" lon="10.00829857774078845977783203125">
        <ele>483.399993896484375</ele>
        <time>2018-08-16T13:51:59.000Z</time>
      </trkpt>
      <trkpt lat="48.40750121511518955230712890625" lon="10.00839413143694400787353515625">
        <ele>483.399993896484375</ele>
        <time>2018-08-16T13:52:00.000Z</time>
      </trkpt>
      <trkpt lat="48.40756617486476898193359375" lon="10.00857685692608356475830078125">
        <ele>483.399993896484375</ele>
        <time>2018-08-16T13:52:02.000Z</time>
      </trkpt>
      <trkpt lat="48.40764052234590053558349609375" lon="10.00874734483659267425537109375">
        <ele>483.399993896484375</ele>
        <time>2018-08-16T13:52:04.000Z</time>
      </trkpt>
      <trkpt lat="48.407738842070102691650390625" lon="10.00888698734343051910400390625">
        <ele>483.399993896484375</ele>
        <time>2018-08-16T13:52:06.000Z</time>
      </trkpt>
      <trkpt lat="48.407858870923519134521484375" lon="10.0089786015450954437255859375">
        <ele>483.399993896484375</ele>
        <time>2018-08-16T13:52:08.000Z</time>
      </trkpt>
      <trkpt lat="48.40820345096290111541748046875" lon="10.00897952355444431304931640625">
        <ele>483.20001220703125</ele>
        <time>2018-08-16T13:52:13.000Z</time>
      </trkpt>
      <trkpt lat="48.408272601664066314697265625" lon="10.00895060598850250244140625">
        <ele>483.20001220703125</ele>
        <time>2018-08-16T13:52:14.000Z</time>
      </trkpt>
      <trkpt lat="48.40833990834653377532958984375" lon="10.0089190900325775146484375">
        <ele>483.20001220703125</ele>
        <time>2018-08-16T13:52:15.000Z</time>
      </trkpt>
      <trkpt lat="48.40854384005069732666015625" lon="10.008823536336421966552734375">
        <ele>483.20001220703125</ele>
        <time>2018-08-16T13:52:18.000Z</time>
      </trkpt>
      <trkpt lat="48.408681638538837432861328125" lon="10.0087606720626354217529296875">
        <ele>483.20001220703125</ele>
        <time>2018-08-16T13:52:20.000Z</time>
      </trkpt>
      <trkpt lat="48.40909997932612895965576171875" lon="10.00861692242324352264404296875">
        <ele>483.20001220703125</ele>
        <time>2018-08-16T13:52:26.000Z</time>
      </trkpt>
      <trkpt lat="48.409241549670696258544921875" lon="10.00859362073242664337158203125">
        <ele>483.20001220703125</ele>
        <time>2018-08-16T13:52:28.000Z</time>
      </trkpt>
      <trkpt lat="48.40952686965465545654296875" lon="10.00862312503159046173095703125">
        <ele>483</ele>
        <time>2018-08-16T13:52:32.000Z</time>
      </trkpt>
      <trkpt lat="48.4098029695451259613037109375" lon="10.00880576670169830322265625">
        <ele>483</ele>
        <time>2018-08-16T13:52:36.000Z</time>
      </trkpt>
      <trkpt lat="48.409867174923419952392578125" lon="10.00887474976480007171630859375">
        <ele>483</ele>
        <time>2018-08-16T13:52:37.000Z</time>
      </trkpt>
      <trkpt lat="48.4101613797247409820556640625" lon="10.009286887943744659423828125">
        <ele>483</ele>
        <time>2018-08-16T13:52:42.000Z</time>
      </trkpt>
      <trkpt lat="48.41038928367197513580322265625" lon="10.00964202918112277984619140625">
        <ele>482.79998779296875</ele>
        <time>2018-08-16T13:52:46.000Z</time>
      </trkpt>
      <trkpt lat="48.4106827341020107269287109375" lon="10.0100585259497165679931640625">
        <ele>482.399993896484375</ele>
        <time>2018-08-16T13:52:51.000Z</time>
      </trkpt>
      <trkpt lat="48.410890102386474609375" lon="10.01024502329528331756591796875">
        <ele>482.20001220703125</ele>
        <time>2018-08-16T13:52:54.000Z</time>
      </trkpt>
      <trkpt lat="48.4110470116138458251953125" lon="10.01032389700412750244140625">
        <ele>482</ele>
        <time>2018-08-16T13:52:56.000Z</time>
      </trkpt>
      <trkpt lat="48.41137734241783618927001953125" lon="10.01038533635437488555908203125">
        <ele>481.79998779296875</ele>
        <time>2018-08-16T13:53:00.000Z</time>
      </trkpt>
      <trkpt lat="48.41171077452600002288818359375" lon="10.0103609450161457061767578125">
        <ele>481.399993896484375</ele>
        <time>2018-08-16T13:53:04.000Z</time>
      </trkpt>
      <trkpt lat="48.411793000996112823486328125" lon="10.010351054370403289794921875">
        <ele>481.399993896484375</ele>
        <time>2018-08-16T13:53:05.000Z</time>
      </trkpt>
      <trkpt lat="48.4123507328331470489501953125" lon="10.01032263971865177154541015625">
        <ele>481</ele>
        <time>2018-08-16T13:53:12.000Z</time>
      </trkpt>
      <trkpt lat="48.4124275110661983489990234375" lon="10.01034409739077091217041015625">
        <ele>481</ele>
        <time>2018-08-16T13:53:13.000Z</time>
      </trkpt>
      <trkpt lat="48.41293193399906158447265625" lon="10.01069513149559497833251953125">
        <ele>481</ele>
        <time>2018-08-16T13:53:20.000Z</time>
      </trkpt>
      <trkpt lat="48.4134236164391040802001953125" lon="10.01107432879507541656494140625">
        <ele>481</ele>
        <time>2018-08-16T13:53:27.000Z</time>
      </trkpt>
      <trkpt lat="48.41392192058265209197998046875" lon="10.0114502571523189544677734375">
        <ele>481</ele>
        <time>2018-08-16T13:53:34.000Z</time>
      </trkpt>
      <trkpt lat="48.4141280315816402435302734375" lon="10.011616051197052001953125">
        <ele>481</ele>
        <time>2018-08-16T13:53:37.000Z</time>
      </trkpt>
      <trkpt lat="48.41466204263269901275634765625" lon="10.0120681710541248321533203125">
        <ele>481.20001220703125</ele>
        <time>2018-08-16T13:53:45.000Z</time>
      </trkpt>
      <trkpt lat="48.41485776007175445556640625" lon="10.01225718297064304351806640625">
        <ele>481.20001220703125</ele>
        <time>2018-08-16T13:53:48.000Z</time>
      </trkpt>
      <trkpt lat="48.4151717461645603179931640625" lon="10.01258902251720428466796875">
        <ele>481.600006103515625</ele>
        <time>2018-08-16T13:53:53.000Z</time>
      </trkpt>
      <trkpt lat="48.41564842499792575836181640625" lon="10.01316678710281848907470703125">
        <ele>481.600006103515625</ele>
        <time>2018-08-16T13:54:01.000Z</time>
      </trkpt>
      <trkpt lat="48.41605494730174541473388671875" lon="10.01370482146739959716796875">
        <ele>481.600006103515625</ele>
        <time>2018-08-16T13:54:08.000Z</time>
      </trkpt>
      <trkpt lat="48.41645124368369579315185546875" lon="10.014301948249340057373046875">
        <ele>481.399993896484375</ele>
        <time>2018-08-16T13:54:15.000Z</time>
      </trkpt>
      <trkpt lat="48.41679171659052371978759765625" lon="10.01480586826801300048828125">
        <ele>481.399993896484375</ele>
        <time>2018-08-16T13:54:21.000Z</time>
      </trkpt>
      <trkpt lat="48.41690302826464176177978515625" lon="10.0149760209023952484130859375">
        <ele>481.399993896484375</ele>
        <time>2018-08-16T13:54:23.000Z</time>
      </trkpt>
      <trkpt lat="48.41713034547865390777587890625" lon="10.015289671719074249267578125">
        <ele>481.20001220703125</ele>
        <time>2018-08-16T13:54:27.000Z</time>
      </trkpt>
      <trkpt lat="48.41724551282823085784912109375" lon="10.0154222734272480010986328125">
        <ele>481.20001220703125</ele>
        <time>2018-08-16T13:54:29.000Z</time>
      </trkpt>
      <trkpt lat="48.417361937463283538818359375" lon="10.01553685404360294342041015625">
        <ele>481.20001220703125</ele>
        <time>2018-08-16T13:54:31.000Z</time>
      </trkpt>
      <trkpt lat="48.4175391308963298797607421875" lon="10.01568471081554889678955078125">
        <ele>481</ele>
        <time>2018-08-16T13:54:34.000Z</time>
      </trkpt>
      <trkpt lat="48.41778539121150970458984375" lon="10.0158651731908321380615234375">
        <ele>480.79998779296875</ele>
        <time>2018-08-16T13:54:39.000Z</time>
      </trkpt>
      <trkpt lat="48.41785202734172344207763671875" lon="10.0160269439220428466796875">
        <ele>481</ele>
        <time>2018-08-16T13:54:45.000Z</time>
      </trkpt>
      <trkpt lat="48.4179223515093326568603515625" lon="10.0160157121717929840087890625">
        <ele>481</ele>
        <time>2018-08-16T13:54:47.000Z</time>
      </trkpt>
      <trkpt lat="48.41807934455573558807373046875" lon="10.01608553342521190643310546875">
        <ele>481.20001220703125</ele>
        <time>2018-08-16T13:54:51.000Z</time>
      </trkpt>
      <trkpt lat="48.4181161411106586456298828125" lon="10.0161179713904857635498046875">
        <ele>481.20001220703125</ele>
        <time>2018-08-16T13:54:52.000Z</time>
      </trkpt>
      <trkpt lat="48.4181506745517253875732421875" lon="10.016156025230884552001953125">
        <ele>481.20001220703125</ele>
        <time>2018-08-16T13:54:53.000Z</time>
      </trkpt>
      <trkpt lat="48.4182163886725902557373046875" lon="10.01624730415642261505126953125">
        <ele>481.20001220703125</ele>
        <time>2018-08-16T13:54:55.000Z</time>
      </trkpt>
      <trkpt lat="48.41825134120881557464599609375" lon="10.01629223115742206573486328125">
        <ele>481.20001220703125</ele>
        <time>2018-08-16T13:54:56.000Z</time>
      </trkpt>
      <trkpt lat="48.41831973753869533538818359375" lon="10.0163841806352138519287109375">
        <ele>481.399993896484375</ele>
        <time>2018-08-16T13:54:58.000Z</time>
      </trkpt>
      <trkpt lat="48.4184088371694087982177734375" lon="10.0165177881717681884765625">
        <ele>481.399993896484375</ele>
        <time>2018-08-16T13:55:01.000Z</time>
      </trkpt>
      <trkpt lat="48.41846608556807041168212890625" lon="10.01661191694438457489013671875">
        <ele>481.399993896484375</ele>
        <time>2018-08-16T13:55:03.000Z</time>
      </trkpt>
      <trkpt lat="48.41849491931498050689697265625" lon="10.01665935851633548736572265625">
        <ele>481.399993896484375</ele>
        <time>2018-08-16T13:55:04.000Z</time>
      </trkpt>
      <trkpt lat="48.41852073557674884796142578125" lon="10.01671015284955501556396484375">
        <ele>481.600006103515625</ele>
        <time>2018-08-16T13:55:05.000Z</time>
      </trkpt>
      <trkpt lat="48.418572954833507537841796875" lon="10.01682129688560962677001953125">
        <ele>481.600006103515625</ele>
        <time>2018-08-16T13:55:07.000Z</time>
      </trkpt>
      <trkpt lat="48.4186027944087982177734375" lon="10.01688030548393726348876953125">
        <ele>481.600006103515625</ele>
        <time>2018-08-16T13:55:08.000Z</time>
      </trkpt>
      <trkpt lat="48.4186351485550403594970703125" lon="10.0169380567967891693115234375">
        <ele>481.600006103515625</ele>
        <time>2018-08-16T13:55:09.000Z</time>
      </trkpt>
      <trkpt lat="48.41866792179644107818603515625" lon="10.01699815504252910614013671875">
        <ele>481.79998779296875</ele>
        <time>2018-08-16T13:55:10.000Z</time>
      </trkpt>
      <trkpt lat="48.41873497702181339263916015625" lon="10.0171251408755779266357421875">
        <ele>481.79998779296875</ele>
        <time>2018-08-16T13:55:12.000Z</time>
      </trkpt>
      <trkpt lat="48.41908986680209636688232421875" lon="10.017812959849834442138671875">
        <ele>482.20001220703125</ele>
        <time>2018-08-16T13:55:22.000Z</time>
      </trkpt>
      <trkpt lat="48.41932070441544055938720703125" lon="10.0182516686618328094482421875">
        <ele>482.20001220703125</ele>
        <time>2018-08-16T13:55:28.000Z</time>
      </trkpt>
      <trkpt lat="48.419448025524616241455078125" lon="10.01848460175096988677978515625">
        <ele>482.20001220703125</ele>
        <time>2018-08-16T13:55:31.000Z</time>
      </trkpt>
      <trkpt lat="48.41960887424647808074951171875" lon="10.0188031978905200958251953125">
        <ele>482.399993896484375</ele>
        <time>2018-08-16T13:55:35.000Z</time>
      </trkpt>
      <trkpt lat="48.41965095140039920806884765625" lon="10.01888559199869632720947265625">
        <ele>482.399993896484375</ele>
        <time>2018-08-16T13:55:36.000Z</time>
      </trkpt>
      <trkpt lat="48.42001254670321941375732421875" lon="10.01960643567144870758056640625">
        <ele>482.79998779296875</ele>
        <time>2018-08-16T13:55:45.000Z</time>
      </trkpt>
      <trkpt lat="48.42034547589719295501708984375" lon="10.02024631015956401824951171875">
        <ele>482.600006103515625</ele>
        <time>2018-08-16T13:55:53.000Z</time>
      </trkpt>
      <trkpt lat="48.42067857272922992706298828125" lon="10.02089808695018291473388671875">
        <ele>482.79998779296875</ele>
        <time>2018-08-16T13:56:01.000Z</time>
      </trkpt>
      <trkpt lat="48.4210328757762908935546875" lon="10.021560005843639373779296875">
        <ele>483</ele>
        <time>2018-08-16T13:56:09.000Z</time>
      </trkpt>
      <trkpt lat="48.42139438726007938385009765625" lon="10.02224036492407321929931640625">
        <ele>483</ele>
        <time>2018-08-16T13:56:17.000Z</time>
      </trkpt>
      <trkpt lat="48.42168808914721012115478515625" lon="10.0227289460599422454833984375">
        <ele>483</ele>
        <time>2018-08-16T13:56:23.000Z</time>
      </trkpt>
      <trkpt lat="48.42211841605603694915771484375" lon="10.02333923242986202239990234375">
        <ele>482.79998779296875</ele>
        <time>2018-08-16T13:56:31.000Z</time>
      </trkpt>
      <trkpt lat="48.4225873835384845733642578125" lon="10.023874081671237945556640625">
        <ele>482.399993896484375</ele>
        <time>2018-08-16T13:56:39.000Z</time>
      </trkpt>
      <trkpt lat="48.423067666590213775634765625" lon="10.02440490759909152984619140625">
        <ele>482.20001220703125</ele>
        <time>2018-08-16T13:56:47.000Z</time>
      </trkpt>
      <trkpt lat="48.42318962328135967254638671875" lon="10.0245404429733753204345703125">
        <ele>482.20001220703125</ele>
        <time>2018-08-16T13:56:49.000Z</time>
      </trkpt>
      <trkpt lat="48.4234369732439517974853515625" lon="10.02482534386217594146728515625">
        <ele>482.20001220703125</ele>
        <time>2018-08-16T13:56:53.000Z</time>
      </trkpt>
      <trkpt lat="48.42375054024159908294677734375" lon="10.02519263885915279388427734375">
        <ele>482</ele>
        <time>2018-08-16T13:56:58.000Z</time>
      </trkpt>
      <trkpt lat="48.4238718263804912567138671875" lon="10.02534736879169940948486328125">
        <ele>482.20001220703125</ele>
        <time>2018-08-16T13:57:00.000Z</time>
      </trkpt>
      <trkpt lat="48.42398858629167079925537109375" lon="10.02550511620938777923583984375">
        <ele>482</ele>
        <time>2018-08-16T13:57:02.000Z</time>
      </trkpt>
      <trkpt lat="48.42409755103290081024169921875" lon="10.02566135488450527191162109375">
        <ele>482</ele>
        <time>2018-08-16T13:57:04.000Z</time>
      </trkpt>
      <trkpt lat="48.42414624989032745361328125" lon="10.02574232406914234161376953125">
        <ele>482</ele>
        <time>2018-08-16T13:57:05.000Z</time>
      </trkpt>
      <trkpt lat="48.424187488853931427001953125" lon="10.02603585831820964813232421875">
        <ele>481.79998779296875</ele>
        <time>2018-08-16T13:57:08.000Z</time>
      </trkpt>
      <trkpt lat="48.424163348972797393798828125" lon="10.0261393748223781585693359375">
        <ele>481.79998779296875</ele>
        <time>2018-08-16T13:57:09.000Z</time>
      </trkpt>
      <trkpt lat="48.42414733953773975372314453125" lon="10.02624691464006900787353515625">
        <ele>481.600006103515625</ele>
        <time>2018-08-16T13:57:10.000Z</time>
      </trkpt>
      <trkpt lat="48.4241764247417449951171875" lon="10.0264575518667697906494140625">
        <ele>481.399993896484375</ele>
        <time>2018-08-16T13:57:12.000Z</time>
      </trkpt>
      <trkpt lat="48.42439661733806133270263671875" lon="10.02729616127908229827880859375">
        <ele>480.20001220703125</ele>
        <time>2018-08-16T13:57:20.000Z</time>
      </trkpt>
      <trkpt lat="48.42443458735942840576171875" lon="10.02738920040428638458251953125">
        <ele>480</ele>
        <time>2018-08-16T13:57:21.000Z</time>
      </trkpt>
      <trkpt lat="48.424519412219524383544921875" lon="10.02754996530711650848388671875">
        <ele>479.79998779296875</ele>
        <time>2018-08-16T13:57:23.000Z</time>
      </trkpt>
      <trkpt lat="48.4246211685240268707275390625" lon="10.02770595252513885498046875">
        <ele>479.600006103515625</ele>
        <time>2018-08-16T13:57:25.000Z</time>
      </trkpt>
      <trkpt lat="48.42477279715240001678466796875" lon="10.027942322194576263427734375">
        <ele>479.600006103515625</ele>
        <time>2018-08-16T13:57:28.000Z</time>
      </trkpt>
      <trkpt lat="48.42506733722984790802001953125" lon="10.02843149006366729736328125">
        <ele>479.399993896484375</ele>
        <time>2018-08-16T13:57:34.000Z</time>
      </trkpt>
      <trkpt lat="48.42516205273568630218505859375" lon="10.02858529798686504364013671875">
        <ele>479.399993896484375</ele>
        <time>2018-08-16T13:57:36.000Z</time>
      </trkpt>
      <trkpt lat="48.42520798556506633758544921875" lon="10.02866039983928203582763671875">
        <ele>479.20001220703125</ele>
        <time>2018-08-16T13:57:37.000Z</time>
      </trkpt>
      <trkpt lat="48.42560143209993839263916015625" lon="10.0292976759374141693115234375">
        <ele>479</ele>
        <time>2018-08-16T13:57:45.000Z</time>
      </trkpt>
      <trkpt lat="48.425995968282222747802734375" lon="10.02996864728629589080810546875">
        <ele>478.79998779296875</ele>
        <time>2018-08-16T13:57:53.000Z</time>
      </trkpt>
      <trkpt lat="48.42618464492261409759521484375" lon="10.03030501306056976318359375">
        <ele>478.79998779296875</ele>
        <time>2018-08-16T13:57:57.000Z</time>
      </trkpt>
      <trkpt lat="48.426422774791717529296875" lon="10.03071715123951435089111328125">
        <ele>478.79998779296875</ele>
        <time>2018-08-16T13:58:02.000Z</time>
      </trkpt>
      <trkpt lat="48.42678956687450408935546875" lon="10.03141368739306926727294921875">
        <ele>478.600006103515625</ele>
        <time>2018-08-16T13:58:10.000Z</time>
      </trkpt>
      <trkpt lat="48.4271295368671417236328125" lon="10.03204442560672760009765625">
        <ele>478.600006103515625</ele>
        <time>2018-08-16T13:58:17.000Z</time>
      </trkpt>
      <trkpt lat="48.42746037058532238006591796875" lon="10.03268186934292316436767578125">
        <ele>478.399993896484375</ele>
        <time>2018-08-16T13:58:24.000Z</time>
      </trkpt>
      <trkpt lat="48.4275957383215427398681640625" lon="10.0329645909368991851806640625">
        <ele>478.20001220703125</ele>
        <time>2018-08-16T13:58:27.000Z</time>
      </trkpt>
      <trkpt lat="48.42786052264273166656494140625" lon="10.0335070677101612091064453125">
        <ele>478.20001220703125</ele>
        <time>2018-08-16T13:58:33.000Z</time>
      </trkpt>
      <trkpt lat="48.4281140752136707305908203125" lon="10.03406345844268798828125">
        <ele>478</ele>
        <time>2018-08-16T13:58:39.000Z</time>
      </trkpt>
      <trkpt lat="48.42842764221131801605224609375" lon="10.0348451547324657440185546875">
        <ele>478</ele>
        <time>2018-08-16T13:58:47.000Z</time>
      </trkpt>
      <trkpt lat="48.42867172323167324066162109375" lon="10.03567756153643131256103515625">
        <ele>478</ele>
        <time>2018-08-16T13:58:55.000Z</time>
      </trkpt>
      <trkpt lat="48.4289180673658847808837890625" lon="10.03643277101218700408935546875">
        <ele>478</ele>
        <time>2018-08-16T13:59:02.000Z</time>
      </trkpt>
      <trkpt lat="48.42913658358156681060791015625" lon="10.03718060441315174102783203125">
        <ele>477.79998779296875</ele>
        <time>2018-08-16T13:59:09.000Z</time>
      </trkpt>
      <trkpt lat="48.4293388389050960540771484375" lon="10.03793329931795597076416015625">
        <ele>477.79998779296875</ele>
        <time>2018-08-16T13:59:16.000Z</time>
      </trkpt>
      <trkpt lat="48.42953187413513660430908203125" lon="10.0386709906160831451416015625">
        <ele>478</ele>
        <time>2018-08-16T13:59:23.000Z</time>
      </trkpt>
      <trkpt lat="48.42976681888103485107421875" lon="10.03950675018131732940673828125">
        <ele>478.20001220703125</ele>
        <time>2018-08-16T13:59:31.000Z</time>
      </trkpt>
      <trkpt lat="48.4299765340983867645263671875" lon="10.04032314755022525787353515625">
        <ele>478.600006103515625</ele>
        <time>2018-08-16T13:59:39.000Z</time>
      </trkpt>
      <trkpt lat="48.43006177805364131927490234375" lon="10.0406387262046337127685546875">
        <ele>478.600006103515625</ele>
        <time>2018-08-16T13:59:42.000Z</time>
      </trkpt>
      <trkpt lat="48.43029764480888843536376953125" lon="10.04149041138589382171630859375">
        <ele>478.79998779296875</ele>
        <time>2018-08-16T13:59:50.000Z</time>
      </trkpt>
      <trkpt lat="48.4305387921631336212158203125" lon="10.04231401719152927398681640625">
        <ele>479</ele>
        <time>2018-08-16T13:59:58.000Z</time>
      </trkpt>
      <trkpt lat="48.4306834638118743896484375" lon="10.0428036041557788848876953125">
        <ele>479.20001220703125</ele>
        <time>2018-08-16T14:00:03.000Z</time>
      </trkpt>
      <trkpt lat="48.43092209659516811370849609375" lon="10.04357658326625823974609375">
        <ele>479.20001220703125</ele>
        <time>2018-08-16T14:00:11.000Z</time>
      </trkpt>
      <trkpt lat="48.431013040244579315185546875" lon="10.04386114887893199920654296875">
        <ele>479.20001220703125</ele>
        <time>2018-08-16T14:00:14.000Z</time>
      </trkpt>
      <trkpt lat="48.43121663667261600494384765625" lon="10.044488199055194854736328125">
        <ele>479.20001220703125</ele>
        <time>2018-08-16T14:00:21.000Z</time>
      </trkpt>
      <trkpt lat="48.43126893974840641021728515625" lon="10.0446519814431667327880859375">
        <ele>479</ele>
        <time>2018-08-16T14:00:23.000Z</time>
      </trkpt>
      <trkpt lat="48.4314473904669284820556640625" lon="10.04524089395999908447265625">
        <ele>478.79998779296875</ele>
        <time>2018-08-16T14:00:30.000Z</time>
      </trkpt>
      <trkpt lat="48.43147404491901397705078125" lon="10.04532404243946075439453125">
        <ele>478.79998779296875</ele>
        <time>2018-08-16T14:00:31.000Z</time>
      </trkpt>
      <trkpt lat="48.43152056448161602020263671875" lon="10.04549302160739898681640625">
        <ele>478.600006103515625</ele>
        <time>2018-08-16T14:00:33.000Z</time>
      </trkpt>
      <trkpt lat="48.43156121671199798583984375" lon="10.04563978873193264007568359375">
        <ele>478.600006103515625</ele>
        <time>2018-08-16T14:00:35.000Z</time>
      </trkpt>
      <trkpt lat="48.4316582791507244110107421875" lon="10.04569225944578647613525390625">
        <ele>478.399993896484375</ele>
        <time>2018-08-16T14:00:38.000Z</time>
      </trkpt>
      <trkpt lat="48.4316968359053134918212890625" lon="10.04568077623844146728515625">
        <ele>478.399993896484375</ele>
        <time>2018-08-16T14:00:39.000Z</time>
      </trkpt>
      <trkpt lat="48.43173690140247344970703125" lon="10.0456712208688259124755859375">
        <ele>478.399993896484375</ele>
        <time>2018-08-16T14:00:40.000Z</time>
      </trkpt>
      <trkpt lat="48.43181476928293704986572265625" lon="10.04570835269987583160400390625">
        <ele>478.399993896484375</ele>
        <time>2018-08-16T14:00:42.000Z</time>
      </trkpt>
      <trkpt lat="48.431837819516658782958984375" lon="10.04580415785312652587890625">
        <ele>478.20001220703125</ele>
        <time>2018-08-16T14:00:44.000Z</time>
      </trkpt>
      <trkpt lat="48.4318208880722522735595703125" lon="10.04584749229252338409423828125">
        <ele>478.20001220703125</ele>
        <time>2018-08-16T14:00:45.000Z</time>
      </trkpt>
      <trkpt lat="48.43180621974170207977294921875" lon="10.04593022167682647705078125">
        <ele>478</ele>
        <time>2018-08-16T14:00:47.000Z</time>
      </trkpt>
      <trkpt lat="48.43181493692100048065185546875" lon="10.045978166162967681884765625">
        <ele>478</ele>
        <time>2018-08-16T14:00:48.000Z</time>
      </trkpt>
      <trkpt lat="48.43184226192533969879150390625" lon="10.04610079340636730194091796875">
        <ele>478</ele>
        <time>2018-08-16T14:00:50.000Z</time>
      </trkpt>
      <trkpt lat="48.4318557567894458770751953125" lon="10.0461701117455959320068359375">
        <ele>477.79998779296875</ele>
        <time>2018-08-16T14:00:51.000Z</time>
      </trkpt>
      <trkpt lat="48.43191317282617092132568359375" lon="10.0464064814150333404541015625">
        <ele>477.79998779296875</ele>
        <time>2018-08-16T14:00:54.000Z</time>
      </trkpt>
      <trkpt lat="48.4319566749036312103271484375" lon="10.0465791486203670501708984375">
        <ele>477.79998779296875</ele>
        <time>2018-08-16T14:00:56.000Z</time>
      </trkpt>
      <trkpt lat="48.431979306042194366455078125" lon="10.0466683320701122283935546875">
        <ele>477.79998779296875</ele>
        <time>2018-08-16T14:00:57.000Z</time>
      </trkpt>
      <trkpt lat="48.432036302983760833740234375" lon="10.0468416698276996612548828125">
        <ele>477.79998779296875</ele>
        <time>2018-08-16T14:00:59.000Z</time>
      </trkpt>
      <trkpt lat="48.4320969879627227783203125" lon="10.047013498842716217041015625">
        <ele>477.79998779296875</ele>
        <time>2018-08-16T14:01:01.000Z</time>
      </trkpt>
      <trkpt lat="48.43216697685420513153076171875" lon="10.047399066388607025146484375">
        <ele>477.79998779296875</ele>
        <time>2018-08-16T14:01:05.000Z</time>
      </trkpt>
      <trkpt lat="48.432210981845855712890625" lon="10.04759428091347217559814453125">
        <ele>477.600006103515625</ele>
        <time>2018-08-16T14:01:07.000Z</time>
      </trkpt>
      <trkpt lat="48.4323170967400074005126953125" lon="10.0480927526950836181640625">
        <ele>477.399993896484375</ele>
        <time>2018-08-16T14:01:12.000Z</time>
      </trkpt>
      <trkpt lat="48.4324186854064464569091796875" lon="10.04849701188504695892333984375">
        <ele>477.20001220703125</ele>
        <time>2018-08-16T14:01:16.000Z</time>
      </trkpt>
      <trkpt lat="48.4324699826538562774658203125" lon="10.04869985394179821014404296875">
        <ele>477.20001220703125</ele>
        <time>2018-08-16T14:01:18.000Z</time>
      </trkpt>
      <trkpt lat="48.43257131986320018768310546875" lon="10.04909883253276348114013671875">
        <ele>477</ele>
        <time>2018-08-16T14:01:22.000Z</time>
      </trkpt>
      <trkpt lat="48.43278589658439159393310546875" lon="10.0499139726161956787109375">
        <ele>476.79998779296875</ele>
        <time>2018-08-16T14:01:30.000Z</time>
      </trkpt>
      <trkpt lat="48.4329910017549991607666015625" lon="10.05075191147625446319580078125">
        <ele>476.79998779296875</ele>
        <time>2018-08-16T14:01:38.000Z</time>
      </trkpt>
      <trkpt lat="48.4330875612795352935791015625" lon="10.0511781312525272369384765625">
        <ele>476.79998779296875</ele>
        <time>2018-08-16T14:01:42.000Z</time>
      </trkpt>
      <trkpt lat="48.4333011321723461151123046875" lon="10.052017159759998321533203125">
        <ele>477.20001220703125</ele>
        <time>2018-08-16T14:01:50.000Z</time>
      </trkpt>
      <trkpt lat="48.4335053153336048126220703125" lon="10.05276926793158054351806640625">
        <ele>477.399993896484375</ele>
        <time>2018-08-16T14:01:57.000Z</time>
      </trkpt>
      <trkpt lat="48.4336307086050510406494140625" lon="10.053232200443744659423828125">
        <ele>477.600006103515625</ele>
        <time>2018-08-16T14:02:01.000Z</time>
      </trkpt>
      <trkpt lat="48.4338972531259059906005859375" lon="10.05395673215389251708984375">
        <ele>477.79998779296875</ele>
        <time>2018-08-16T14:02:08.000Z</time>
      </trkpt>
      <trkpt lat="48.43400529585778713226318359375" lon="10.05418874323368072509765625">
        <ele>477.79998779296875</ele>
        <time>2018-08-16T14:02:11.000Z</time>
      </trkpt>
      <trkpt lat="48.43411065638065338134765625" lon="10.0542529486119747161865234375">
        <ele>478</ele>
        <time>2018-08-16T14:02:13.000Z</time>
      </trkpt>
      <trkpt lat="48.43422205187380313873291015625" lon="10.05422956310212612152099609375">
        <ele>478</ele>
        <time>2018-08-16T14:02:15.000Z</time>
      </trkpt>
      <trkpt lat="48.434269912540912628173828125" lon="10.0542055070400238037109375">
        <ele>478</ele>
        <time>2018-08-16T14:02:16.000Z</time>
      </trkpt>
      <trkpt lat="48.434731252491474151611328125" lon="10.0538506172597408294677734375">
        <ele>478.399993896484375</ele>
        <time>2018-08-16T14:02:26.000Z</time>
      </trkpt>
      <trkpt lat="48.43498581089079380035400390625" lon="10.053676776587963104248046875">
        <ele>478.399993896484375</ele>
        <time>2018-08-16T14:02:31.000Z</time>
      </trkpt>
      <trkpt lat="48.4350854717195034027099609375" lon="10.0535770319402217864990234375">
        <ele>478.399993896484375</ele>
        <time>2018-08-16T14:02:33.000Z</time>
      </trkpt>
      <trkpt lat="48.43518379144370555877685546875" lon="10.05347653292119503021240234375">
        <ele>478.399993896484375</ele>
        <time>2018-08-16T14:02:35.000Z</time>
      </trkpt>
      <trkpt lat="48.4352812729775905609130859375" lon="10.05337762646377086639404296875">
        <ele>478.399993896484375</ele>
        <time>2018-08-16T14:02:37.000Z</time>
      </trkpt>
      <trkpt lat="48.43546844087541103363037109375" lon="10.0531706772744655609130859375">
        <ele>479</ele>
        <time>2018-08-16T14:02:41.000Z</time>
      </trkpt>
      <trkpt lat="48.4355659224092960357666015625" lon="10.05306665785610675811767578125">
        <ele>479.20001220703125</ele>
        <time>2018-08-16T14:02:43.000Z</time>
      </trkpt>
      <trkpt lat="48.43566927127540111541748046875" lon="10.05294696427881717681884765625">
        <ele>479.399993896484375</ele>
        <time>2018-08-16T14:02:45.000Z</time>
      </trkpt>
      <trkpt lat="48.4358468838036060333251953125" lon="10.05293070338666439056396484375">
        <ele>479.600006103515625</ele>
        <time>2018-08-16T14:02:48.000Z</time>
      </trkpt>
      <trkpt lat="48.43598074279725551605224609375" lon="10.0531529076397418975830078125">
        <ele>479.600006103515625</ele>
        <time>2018-08-16T14:02:51.000Z</time>
      </trkpt>
      <trkpt lat="48.43617855571210384368896484375" lon="10.05356806330382823944091796875">
        <ele>479</ele>
        <time>2018-08-16T14:02:56.000Z</time>
      </trkpt>
      <trkpt lat="48.43621619045734405517578125" lon="10.0536474399268627166748046875">
        <ele>478.79998779296875</ele>
        <time>2018-08-16T14:02:57.000Z</time>
      </trkpt>
      <trkpt lat="48.4362518973648548126220703125" lon="10.0537305884063243865966796875">
        <ele>478.79998779296875</ele>
        <time>2018-08-16T14:02:58.000Z</time>
      </trkpt>
      <trkpt lat="48.4363172762095928192138671875" lon="10.0538997352123260498046875">
        <ele>478.600006103515625</ele>
        <time>2018-08-16T14:03:00.000Z</time>
      </trkpt>
      <trkpt lat="48.43639279715716838836669921875" lon="10.05404792726039886474609375">
        <ele>478.600006103515625</ele>
        <time>2018-08-16T14:03:02.000Z</time>
      </trkpt>
      <trkpt lat="48.436540067195892333984375" lon="10.05407080985605716705322265625">
        <ele>478.600006103515625</ele>
        <time>2018-08-16T14:03:05.000Z</time>
      </trkpt>
      <trkpt lat="48.4366352856159210205078125" lon="10.0539667904376983642578125">
        <ele>478.79998779296875</ele>
        <time>2018-08-16T14:03:07.000Z</time>
      </trkpt>
      <trkpt lat="48.4367303363978862762451171875" lon="10.05385673604905605316162109375">
        <ele>478.79998779296875</ele>
        <time>2018-08-16T14:03:09.000Z</time>
      </trkpt>
      <trkpt lat="48.4367774426937103271484375" lon="10.053801499307155609130859375">
        <ele>478.79998779296875</ele>
        <time>2018-08-16T14:03:10.000Z</time>
      </trkpt>
      <trkpt lat="48.4369224496185779571533203125" lon="10.05363394506275653839111328125">
        <ele>478.79998779296875</ele>
        <time>2018-08-16T14:03:13.000Z</time>
      </trkpt>
      <trkpt lat="48.43705915845930576324462890625" lon="10.05345406942069530487060546875">
        <ele>478.79998779296875</ele>
        <time>2018-08-16T14:03:16.000Z</time>
      </trkpt>
      <trkpt lat="48.437149934470653533935546875" lon="10.053349547088146209716796875">
        <ele>478.79998779296875</ele>
        <time>2018-08-16T14:03:18.000Z</time>
      </trkpt>
      <trkpt lat="48.437194190919399261474609375" lon="10.05329866893589496612548828125">
        <ele>479</ele>
        <time>2018-08-16T14:03:19.000Z</time>
      </trkpt>
      <trkpt lat="48.437328301370143890380859375" lon="10.05316087044775485992431640625">
        <ele>479</ele>
        <time>2018-08-16T14:03:22.000Z</time>
      </trkpt>
      <trkpt lat="48.43746065162122249603271484375" lon="10.053044445812702178955078125">
        <ele>479.399993896484375</ele>
        <time>2018-08-16T14:03:25.000Z</time>
      </trkpt>
      <trkpt lat="48.43753843568265438079833984375" lon="10.0529835931956768035888671875">
        <ele>479.79998779296875</ele>
        <time>2018-08-16T14:03:27.000Z</time>
      </trkpt>
      <trkpt lat="48.43761605210602283477783203125" lon="10.0529527477920055389404296875">
        <ele>480.399993896484375</ele>
        <time>2018-08-16T14:03:30.000Z</time>
      </trkpt>
      <trkpt lat="48.43763105571269989013671875" lon="10.052950568497180938720703125">
        <ele>480.600006103515625</ele>
        <time>2018-08-16T14:03:31.000Z</time>
      </trkpt>
      <trkpt lat="48.43764689750969409942626953125" lon="10.05294914357364177703857421875">
        <ele>480.79998779296875</ele>
        <time>2018-08-16T14:03:32.000Z</time>
      </trkpt>
      <trkpt lat="48.437661230564117431640625" lon="10.0529534183442592620849609375">
        <ele>481</ele>
        <time>2018-08-16T14:03:33.000Z</time>
      </trkpt>
      <trkpt lat="48.43771059997379779815673828125" lon="10.05302273668348789215087890625">
        <ele>481.600006103515625</ele>
        <time>2018-08-16T14:03:36.000Z</time>
      </trkpt>
      <trkpt lat="48.43772535212337970733642578125" lon="10.0530674122273921966552734375">
        <ele>481.79998779296875</ele>
        <time>2018-08-16T14:03:37.000Z</time>
      </trkpt>
      <trkpt lat="48.4377408586442470550537109375" lon="10.053121559321880340576171875">
        <ele>481.79998779296875</ele>
        <time>2018-08-16T14:03:38.000Z</time>
      </trkpt>
      <trkpt lat="48.43775711953639984130859375" lon="10.05318316631019115447998046875">
        <ele>481.79998779296875</ele>
        <time>2018-08-16T14:03:39.000Z</time>
      </trkpt>
      <trkpt lat="48.4378414414823055267333984375" lon="10.05347552709281444549560546875">
        <ele>482</ele>
        <time>2018-08-16T14:03:43.000Z</time>
      </trkpt>
      <trkpt lat="48.43807093799114227294921875" lon="10.05428102798759937286376953125">
        <ele>482.20001220703125</ele>
        <time>2018-08-16T14:03:52.000Z</time>
      </trkpt>
      <trkpt lat="48.43817948363721370697021484375" lon="10.05464983172714710235595703125">
        <ele>482.20001220703125</ele>
        <time>2018-08-16T14:03:56.000Z</time>
      </trkpt>
      <trkpt lat="48.43822977505624294281005859375" lon="10.05480959080159664154052734375">
        <ele>482.20001220703125</ele>
        <time>2018-08-16T14:03:58.000Z</time>
      </trkpt>
      <trkpt lat="48.43827051110565662384033203125" lon="10.0549372471868991851806640625">
        <ele>482.20001220703125</ele>
        <time>2018-08-16T14:04:00.000Z</time>
      </trkpt>
      <trkpt lat="48.43836841173470020294189453125" lon="10.05517336539924144744873046875">
        <ele>481.79998779296875</ele>
        <time>2018-08-16T14:04:04.000Z</time>
      </trkpt>
      <trkpt lat="48.43840981833636760711669921875" lon="10.0553147681057453155517578125">
        <ele>481.79998779296875</ele>
        <time>2018-08-16T14:04:06.000Z</time>
      </trkpt>
      <trkpt lat="48.43845189549028873443603515625" lon="10.05546270869672298431396484375">
        <ele>481.79998779296875</ele>
        <time>2018-08-16T14:04:08.000Z</time>
      </trkpt>
      <trkpt lat="48.4385505504906177520751953125" lon="10.0557801313698291778564453125">
        <ele>481.79998779296875</ele>
        <time>2018-08-16T14:04:12.000Z</time>
      </trkpt>
      <trkpt lat="48.4386551566421985626220703125" lon="10.0561063550412654876708984375">
        <ele>482</ele>
        <time>2018-08-16T14:04:16.000Z</time>
      </trkpt>
      <trkpt lat="48.43875733204185962677001953125" lon="10.0564355961978435516357421875">
        <ele>482</ele>
        <time>2018-08-16T14:04:20.000Z</time>
      </trkpt>
      <trkpt lat="48.4388093836605548858642578125" lon="10.0566015578806400299072265625">
        <ele>482</ele>
        <time>2018-08-16T14:04:22.000Z</time>
      </trkpt>
      <trkpt lat="48.43902572058141231536865234375" lon="10.05716976709663867950439453125">
        <ele>482</ele>
        <time>2018-08-16T14:04:29.000Z</time>
      </trkpt>
      <trkpt lat="48.43922428786754608154296875" lon="10.05754779092967510223388671875">
        <ele>482</ele>
        <time>2018-08-16T14:04:34.000Z</time>
      </trkpt>
      <trkpt lat="48.4394489228725433349609375" lon="10.05802824161946773529052734375">
        <ele>482</ele>
        <time>2018-08-16T14:04:40.000Z</time>
      </trkpt>
      <trkpt lat="48.43957071192562580108642578125" lon="10.058371312916278839111328125">
        <ele>482</ele>
        <time>2018-08-16T14:04:44.000Z</time>
      </trkpt>
      <trkpt lat="48.43977791257202625274658203125" lon="10.05904379300773143768310546875">
        <ele>481.79998779296875</ele>
        <time>2018-08-16T14:04:52.000Z</time>
      </trkpt>
      <trkpt lat="48.439896516501903533935546875" lon="10.05937906913459300994873046875">
        <ele>481.79998779296875</ele>
        <time>2018-08-16T14:04:56.000Z</time>
      </trkpt>
      <trkpt lat="48.44000875018537044525146484375" lon="10.0596881099045276641845703125">
        <ele>481.79998779296875</ele>
        <time>2018-08-16T14:05:00.000Z</time>
      </trkpt>
      <trkpt lat="48.440077565610408782958984375" lon="10.05989707075059413909912109375">
        <ele>481.79998779296875</ele>
        <time>2018-08-16T14:05:03.000Z</time>
      </trkpt>
      <trkpt lat="48.44020999968051910400390625" lon="10.06031013093888759613037109375">
        <ele>482.79998779296875</ele>
        <time>2018-08-16T14:05:08.000Z</time>
      </trkpt>
      <trkpt lat="48.4403831698000431060791015625" lon="10.06075906567275524139404296875">
        <ele>483.20001220703125</ele>
        <time>2018-08-16T14:05:13.000Z</time>
      </trkpt>
      <trkpt lat="48.440681733191013336181640625" lon="10.06155283190310001373291015625">
        <ele>483.20001220703125</ele>
        <time>2018-08-16T14:05:21.000Z</time>
      </trkpt>
      <trkpt lat="48.44087921082973480224609375" lon="10.06206798367202281951904296875">
        <ele>482.600006103515625</ele>
        <time>2018-08-16T14:05:26.000Z</time>
      </trkpt>
      <trkpt lat="48.44099513255059719085693359375" lon="10.06236369721591472625732421875">
        <ele>481.600006103515625</ele>
        <time>2018-08-16T14:05:29.000Z</time>
      </trkpt>
      <trkpt lat="48.44118657521903514862060546875" lon="10.06284364499151706695556640625">
        <ele>481.20001220703125</ele>
        <time>2018-08-16T14:05:34.000Z</time>
      </trkpt>
      <trkpt lat="48.44148798845708370208740234375" lon="10.06358980201184749603271484375">
        <ele>480.79998779296875</ele>
        <time>2018-08-16T14:05:42.000Z</time>
      </trkpt>
      <trkpt lat="48.44170105643570423126220703125" lon="10.064087100327014923095703125">
        <ele>480.600006103515625</ele>
        <time>2018-08-16T14:05:47.000Z</time>
      </trkpt>
      <trkpt lat="48.44198000617325305938720703125" lon="10.06464776583015918731689453125">
        <ele>479.600006103515625</ele>
        <time>2018-08-16T14:05:53.000Z</time>
      </trkpt>
      <trkpt lat="48.442352749407291412353515625" lon="10.065364502370357513427734375">
        <ele>479.600006103515625</ele>
        <time>2018-08-16T14:06:01.000Z</time>
      </trkpt>
      <trkpt lat="48.44260781072080135345458984375" lon="10.06587202660739421844482421875">
        <ele>479.79998779296875</ele>
        <time>2018-08-16T14:06:07.000Z</time>
      </trkpt>
      <trkpt lat="48.44291098415851593017578125" lon="10.06652715615928173065185546875">
        <ele>480.20001220703125</ele>
        <time>2018-08-16T14:06:15.000Z</time>
      </trkpt>
      <trkpt lat="48.4431475214660167694091796875" lon="10.0670615024864673614501953125">
        <ele>480.79998779296875</ele>
        <time>2018-08-16T14:06:21.000Z</time>
      </trkpt>
      <trkpt lat="48.44322673045098781585693359375" lon="10.0672459043562412261962890625">
        <ele>480.79998779296875</ele>
        <time>2018-08-16T14:06:23.000Z</time>
      </trkpt>
      <trkpt lat="48.44341616146266460418701171875" lon="10.06772208027541637420654296875">
        <ele>480.600006103515625</ele>
        <time>2018-08-16T14:06:28.000Z</time>
      </trkpt>
      <trkpt lat="48.44371606595814228057861328125" lon="10.0685102306306362152099609375">
        <ele>480.20001220703125</ele>
        <time>2018-08-16T14:06:36.000Z</time>
      </trkpt>
      <trkpt lat="48.44389158301055431365966796875" lon="10.0689973868429660797119140625">
        <ele>479.600006103515625</ele>
        <time>2018-08-16T14:06:41.000Z</time>
      </trkpt>
      <trkpt lat="48.4441603906452655792236328125" lon="10.06971579976379871368408203125">
        <ele>479.600006103515625</ele>
        <time>2018-08-16T14:06:49.000Z</time>
      </trkpt>
      <trkpt lat="48.44442215748131275177001953125" lon="10.07048584520816802978515625">
        <ele>480.20001220703125</ele>
        <time>2018-08-16T14:06:57.000Z</time>
      </trkpt>
      <trkpt lat="48.4447001852095127105712890625" lon="10.071222782135009765625">
        <ele>480.399993896484375</ele>
        <time>2018-08-16T14:07:04.000Z</time>
      </trkpt>
      <trkpt lat="48.4449824877083301544189453125" lon="10.07196416147053241729736328125">
        <ele>479.600006103515625</ele>
        <time>2018-08-16T14:07:11.000Z</time>
      </trkpt>
      <trkpt lat="48.4451303444802761077880859375" lon="10.0723883695900440216064453125">
        <ele>479.399993896484375</ele>
        <time>2018-08-16T14:07:15.000Z</time>
      </trkpt>
      <trkpt lat="48.44516462646424770355224609375" lon="10.07248752750456333160400390625">
        <ele>479.399993896484375</ele>
        <time>2018-08-16T14:07:16.000Z</time>
      </trkpt>
      <trkpt lat="48.445197232067584991455078125" lon="10.0725841708481311798095703125">
        <ele>479.399993896484375</ele>
        <time>2018-08-16T14:07:17.000Z</time>
      </trkpt>
      <trkpt lat="48.44524852931499481201171875" lon="10.0727575086057186126708984375">
        <ele>479.399993896484375</ele>
        <time>2018-08-16T14:07:19.000Z</time>
      </trkpt>
      <trkpt lat="48.445368222892284393310546875" lon="10.07315673865377902984619140625">
        <ele>479.399993896484375</ele>
        <time>2018-08-16T14:07:24.000Z</time>
      </trkpt>
      <trkpt lat="48.44539211131632328033447265625" lon="10.0732416473329067230224609375">
        <ele>479.600006103515625</ele>
        <time>2018-08-16T14:07:25.000Z</time>
      </trkpt>
      <trkpt lat="48.44543837942183017730712890625" lon="10.07341272197663784027099609375">
        <ele>479.600006103515625</ele>
        <time>2018-08-16T14:07:27.000Z</time>
      </trkpt>
      <trkpt lat="48.4455521218478679656982421875" lon="10.07387724705040454864501953125">
        <ele>479.79998779296875</ele>
        <time>2018-08-16T14:07:32.000Z</time>
      </trkpt>
      <trkpt lat="48.44562043435871601104736328125" lon="10.07418151013553142547607421875">
        <ele>479.79998779296875</ele>
        <time>2018-08-16T14:07:35.000Z</time>
      </trkpt>
      <trkpt lat="48.44571330584585666656494140625" lon="10.07459088228642940521240234375">
        <ele>479.600006103515625</ele>
        <time>2018-08-16T14:07:39.000Z</time>
      </trkpt>
      <trkpt lat="48.4457834623754024505615234375" lon="10.07489933632314205169677734375">
        <ele>479.399993896484375</ele>
        <time>2018-08-16T14:07:42.000Z</time>
      </trkpt>
      <trkpt lat="48.4458297304809093475341796875" lon="10.07510863244533538818359375">
        <ele>479.20001220703125</ele>
        <time>2018-08-16T14:07:44.000Z</time>
      </trkpt>
      <trkpt lat="48.44601438380777835845947265625" lon="10.07586794905364513397216796875">
        <ele>478.79998779296875</ele>
        <time>2018-08-16T14:07:51.000Z</time>
      </trkpt>
      <trkpt lat="48.44620465300977230072021484375" lon="10.0766450352966785430908203125">
        <ele>478.20001220703125</ele>
        <time>2018-08-16T14:07:58.000Z</time>
      </trkpt>
      <trkpt lat="48.44636742956936359405517578125" lon="10.077309720218181610107421875">
        <ele>477.600006103515625</ele>
        <time>2018-08-16T14:08:04.000Z</time>
      </trkpt>
      <trkpt lat="48.446522243320941925048828125" lon="10.077962838113307952880859375">
        <ele>477.399993896484375</ele>
        <time>2018-08-16T14:08:10.000Z</time>
      </trkpt>
      <trkpt lat="48.4467044658958911895751953125" lon="10.07872936315834522247314453125">
        <ele>477.399993896484375</ele>
        <time>2018-08-16T14:08:17.000Z</time>
      </trkpt>
      <trkpt lat="48.44675668515264987945556640625" lon="10.07894678972661495208740234375">
        <ele>477.399993896484375</ele>
        <time>2018-08-16T14:08:19.000Z</time>
      </trkpt>
      <trkpt lat="48.446835391223430633544921875" lon="10.07927142083644866943359375">
        <ele>477.20001220703125</ele>
        <time>2018-08-16T14:08:22.000Z</time>
      </trkpt>
      <trkpt lat="48.4469394944608211517333984375" lon="10.079699568450450897216796875">
        <ele>476.79998779296875</ele>
        <time>2018-08-16T14:08:26.000Z</time>
      </trkpt>
      <trkpt lat="48.4471466951072216033935546875" lon="10.0805412791669368743896484375">
        <ele>476.79998779296875</ele>
        <time>2018-08-16T14:08:34.000Z</time>
      </trkpt>
      <trkpt lat="48.4473535604774951934814453125" lon="10.081362538039684295654296875">
        <ele>476.600006103515625</ele>
        <time>2018-08-16T14:08:42.000Z</time>
      </trkpt>
      <trkpt lat="48.44757626764476299285888671875" lon="10.0821831263601779937744140625">
        <ele>476.79998779296875</ele>
        <time>2018-08-16T14:08:50.000Z</time>
      </trkpt>
      <trkpt lat="48.447704426944255828857421875" lon="10.0827066600322723388671875">
        <ele>476.79998779296875</ele>
        <time>2018-08-16T14:08:55.000Z</time>
      </trkpt>
      <trkpt lat="48.44776452518999576568603515625" lon="10.08297286927700042724609375">
        <ele>477</ele>
        <time>2018-08-16T14:08:58.000Z</time>
      </trkpt>
      <trkpt lat="48.44793216325342655181884765625" lon="10.08368122391402721405029296875">
        <ele>477.399993896484375</ele>
        <time>2018-08-16T14:09:06.000Z</time>
      </trkpt>
      <trkpt lat="48.44802788458764553070068359375" lon="10.08393972180783748626708984375">
        <ele>477.79998779296875</ele>
        <time>2018-08-16T14:09:09.000Z</time>
      </trkpt>
      <trkpt lat="48.44805571250617504119873046875" lon="10.08403091691434383392333984375">
        <ele>478</ele>
        <time>2018-08-16T14:09:10.000Z</time>
      </trkpt>
      <trkpt lat="48.4481314010918140411376953125" lon="10.0843248702585697174072265625">
        <ele>478</ele>
        <time>2018-08-16T14:09:13.000Z</time>
      </trkpt>
      <trkpt lat="48.4482856281101703643798828125" lon="10.08494638837873935699462890625">
        <ele>478</ele>
        <time>2018-08-16T14:09:19.000Z</time>
      </trkpt>
      <trkpt lat="48.4484797529876232147216796875" lon="10.08573663420975208282470703125">
        <ele>478</ele>
        <time>2018-08-16T14:09:27.000Z</time>
      </trkpt>
      <trkpt lat="48.44852040521800518035888671875" lon="10.0859170965850353240966796875">
        <ele>478</ele>
        <time>2018-08-16T14:09:29.000Z</time>
      </trkpt>
      <trkpt lat="48.448553346097469329833984375" lon="10.086144246160984039306640625">
        <ele>478</ele>
        <time>2018-08-16T14:09:32.000Z</time>
      </trkpt>
      <trkpt lat="48.448585532605648040771484375" lon="10.086293108761310577392578125">
        <ele>477.79998779296875</ele>
        <time>2018-08-16T14:09:34.000Z</time>
      </trkpt>
      <trkpt lat="48.44863892532885074615478515625" lon="10.0864501856267452239990234375">
        <ele>477.79998779296875</ele>
        <time>2018-08-16T14:09:36.000Z</time>
      </trkpt>
      <trkpt lat="48.448688127100467681884765625" lon="10.086621344089508056640625">
        <ele>477.79998779296875</ele>
        <time>2018-08-16T14:09:38.000Z</time>
      </trkpt>
      <trkpt lat="48.44877270050346851348876953125" lon="10.08701487444341182708740234375">
        <ele>477.79998779296875</ele>
        <time>2018-08-16T14:09:42.000Z</time>
      </trkpt>
      <trkpt lat="48.44892893917858600616455078125" lon="10.08783881552517414093017578125">
        <ele>477.600006103515625</ele>
        <time>2018-08-16T14:09:50.000Z</time>
      </trkpt>
      <trkpt lat="48.44908417202532291412353515625" lon="10.088629983365535736083984375">
        <ele>477.399993896484375</ele>
        <time>2018-08-16T14:09:58.000Z</time>
      </trkpt>
      <trkpt lat="48.4492636285722255706787109375" lon="10.08927413262426853179931640625">
        <ele>477.600006103515625</ele>
        <time>2018-08-16T14:10:05.000Z</time>
      </trkpt>
      <trkpt lat="48.4493591822683811187744140625" lon="10.089636147022247314453125">
        <ele>477.79998779296875</ele>
        <time>2018-08-16T14:10:09.000Z</time>
      </trkpt>
      <trkpt lat="48.44955724664032459259033203125" lon="10.0904260575771331787109375">
        <ele>478</ele>
        <time>2018-08-16T14:10:17.000Z</time>
      </trkpt>
      <trkpt lat="48.44975321553647518157958984375" lon="10.0912033952772617340087890625">
        <ele>478</ele>
        <time>2018-08-16T14:10:25.000Z</time>
      </trkpt>
      <trkpt lat="48.44995873980224132537841796875" lon="10.09204208850860595703125">
        <ele>478</ele>
        <time>2018-08-16T14:10:34.000Z</time>
      </trkpt>
      <trkpt lat="48.4500012360513210296630859375" lon="10.0922383926808834075927734375">
        <ele>478.20001220703125</ele>
        <time>2018-08-16T14:10:36.000Z</time>
      </trkpt>
      <trkpt lat="48.450111038982868194580078125" lon="10.092617087066173553466796875">
        <ele>478.600006103515625</ele>
        <time>2018-08-16T14:10:40.000Z</time>
      </trkpt>
      <trkpt lat="48.45034740865230560302734375" lon="10.09341378696262836456298828125">
        <ele>478.79998779296875</ele>
        <time>2018-08-16T14:10:48.000Z</time>
      </trkpt>
      <trkpt lat="48.4506107680499553680419921875" lon="10.09420369751751422882080078125">
        <ele>478.600006103515625</ele>
        <time>2018-08-16T14:10:56.000Z</time>
      </trkpt>
      <trkpt lat="48.45090304501354694366455078125" lon="10.0949742458760738372802734375">
        <ele>478.600006103515625</ele>
        <time>2018-08-16T14:11:04.000Z</time>
      </trkpt>
      <trkpt lat="48.4509393386542797088623046875" lon="10.0950738228857517242431640625">
        <ele>478.600006103515625</ele>
        <time>2018-08-16T14:11:05.000Z</time>
      </trkpt>
      <trkpt lat="48.4512722678482532501220703125" lon="10.095852501690387725830078125">
        <ele>478.399993896484375</ele>
        <time>2018-08-16T14:11:13.000Z</time>
      </trkpt>
      <trkpt lat="48.4516102261841297149658203125" lon="10.0964958965778350830078125">
        <ele>478.20001220703125</ele>
        <time>2018-08-16T14:11:20.000Z</time>
      </trkpt>
      <trkpt lat="48.451957404613494873046875" lon="10.09712730534374713897705078125">
        <ele>478</ele>
        <time>2018-08-16T14:11:27.000Z</time>
      </trkpt>
      <trkpt lat="48.4522832930088043212890625" lon="10.09777841158211231231689453125">
        <ele>478</ele>
        <time>2018-08-16T14:11:34.000Z</time>
      </trkpt>
      <trkpt lat="48.45260239206254482269287109375" lon="10.098452232778072357177734375">
        <ele>477.399993896484375</ele>
        <time>2018-08-16T14:11:41.000Z</time>
      </trkpt>
      <trkpt lat="48.452740274369716644287109375" lon="10.09875188581645488739013671875">
        <ele>477.20001220703125</ele>
        <time>2018-08-16T14:11:44.000Z</time>
      </trkpt>
      <trkpt lat="48.4528286196291446685791015625" lon="10.0989486090838909149169921875">
        <ele>477.20001220703125</ele>
        <time>2018-08-16T14:11:46.000Z</time>
      </trkpt>
      <trkpt lat="48.45286625437438488006591796875" lon="10.0990501977503299713134765625">
        <ele>477.20001220703125</ele>
        <time>2018-08-16T14:11:47.000Z</time>
      </trkpt>
      <trkpt lat="48.4529753029346466064453125" lon="10.09934549219906330108642578125">
        <ele>477</ele>
        <time>2018-08-16T14:11:50.000Z</time>
      </trkpt>
      <trkpt lat="48.45313983969390392303466796875" lon="10.09978956542909145355224609375">
        <ele>477</ele>
        <time>2018-08-16T14:11:55.000Z</time>
      </trkpt>
      <trkpt lat="48.45316884107887744903564453125" lon="10.099871456623077392578125">
        <ele>477</ele>
        <time>2018-08-16T14:11:56.000Z</time>
      </trkpt>
      <trkpt lat="48.45322810113430023193359375" lon="10.1000275276601314544677734375">
        <ele>477</ele>
        <time>2018-08-16T14:11:58.000Z</time>
      </trkpt>
      <trkpt lat="48.4532581083476543426513671875" lon="10.100105814635753631591796875">
        <ele>477</ele>
        <time>2018-08-16T14:11:59.000Z</time>
      </trkpt>
      <trkpt lat="48.45352725125849246978759765625" lon="10.10075516067445278167724609375">
        <ele>477</ele>
        <time>2018-08-16T14:12:07.000Z</time>
      </trkpt>
      <trkpt lat="48.453658930957317352294921875" lon="10.10106839239597320556640625">
        <ele>477.399993896484375</ele>
        <time>2018-08-16T14:12:11.000Z</time>
      </trkpt>
      <trkpt lat="48.4536969847977161407470703125" lon="10.10121499188244342803955078125">
        <ele>477.399993896484375</ele>
        <time>2018-08-16T14:12:13.000Z</time>
      </trkpt>
      <trkpt lat="48.45372296869754791259765625" lon="10.1012844778597354888916015625">
        <ele>477.399993896484375</ele>
        <time>2018-08-16T14:12:14.000Z</time>
      </trkpt>
      <trkpt lat="48.4538404829800128936767578125" lon="10.10145924054086208343505859375">
        <ele>477.20001220703125</ele>
        <time>2018-08-16T14:12:17.000Z</time>
      </trkpt>
      <trkpt lat="48.454121612012386322021484375" lon="10.10173031128942966461181640625">
        <ele>477.399993896484375</ele>
        <time>2018-08-16T14:12:23.000Z</time>
      </trkpt>
      <trkpt lat="48.45430576242506504058837890625" lon="10.1018658466637134552001953125">
        <ele>477.20001220703125</ele>
        <time>2018-08-16T14:12:26.000Z</time>
      </trkpt>
      <trkpt lat="48.45470055006444454193115234375" lon="10.1021276973187923431396484375">
        <ele>476.79998779296875</ele>
        <time>2018-08-16T14:12:32.000Z</time>
      </trkpt>
      <trkpt lat="48.45498234964907169342041015625" lon="10.1023080758750438690185546875">
        <ele>476.399993896484375</ele>
        <time>2018-08-16T14:12:36.000Z</time>
      </trkpt>
      <trkpt lat="48.4551939927041530609130859375" lon="10.10245241224765777587890625">
        <ele>476.20001220703125</ele>
        <time>2018-08-16T14:12:39.000Z</time>
      </trkpt>
      <trkpt lat="48.45526498742401599884033203125" lon="10.102498345077037811279296875">
        <ele>476.20001220703125</ele>
        <time>2018-08-16T14:12:40.000Z</time>
      </trkpt>
      <trkpt lat="48.45582255162298679351806640625" lon="10.10284669697284698486328125">
        <ele>476</ele>
        <time>2018-08-16T14:12:48.000Z</time>
      </trkpt>
      <trkpt lat="48.45629663206636905670166015625" lon="10.10316831059753894805908203125">
        <ele>476</ele>
        <time>2018-08-16T14:12:55.000Z</time>
      </trkpt>
      <trkpt lat="48.45636167563498020172119140625" lon="10.103212483227252960205078125">
        <ele>476.20001220703125</ele>
        <time>2018-08-16T14:12:56.000Z</time>
      </trkpt>
      <trkpt lat="48.4566779248416423797607421875" lon="10.1033980585634708404541015625">
        <ele>476.20001220703125</ele>
        <time>2018-08-16T14:13:01.000Z</time>
      </trkpt>
      <trkpt lat="48.4570832736790180206298828125" lon="10.103698633611202239990234375">
        <ele>476.600006103515625</ele>
        <time>2018-08-16T14:13:08.000Z</time>
      </trkpt>
      <trkpt lat="48.4571402706205844879150390625" lon="10.10375420562922954559326171875">
        <ele>476.600006103515625</ele>
        <time>2018-08-16T14:13:09.000Z</time>
      </trkpt>
      <trkpt lat="48.45740430057048797607421875" lon="10.1041259430348873138427734375">
        <ele>476.79998779296875</ele>
        <time>2018-08-16T14:13:14.000Z</time>
      </trkpt>
      <trkpt lat="48.45745014958083629608154296875" lon="10.10421168990433216094970703125">
        <ele>476.79998779296875</ele>
        <time>2018-08-16T14:13:15.000Z</time>
      </trkpt>
      <trkpt lat="48.45754109323024749755859375" lon="10.10437379591166973114013671875">
        <ele>477</ele>
        <time>2018-08-16T14:13:17.000Z</time>
      </trkpt>
      <trkpt lat="48.45759616233408451080322265625" lon="10.10443649254739284515380859375">
        <ele>477</ele>
        <time>2018-08-16T14:13:18.000Z</time>
      </trkpt>
      <trkpt lat="48.45772038213908672332763671875" lon="10.104524083435535430908203125">
        <ele>476.79998779296875</ele>
        <time>2018-08-16T14:13:20.000Z</time>
      </trkpt>
      <trkpt lat="48.45778928138315677642822265625" lon="10.1045520789921283721923828125">
        <ele>476.79998779296875</ele>
        <time>2018-08-16T14:13:21.000Z</time>
      </trkpt>
      <trkpt lat="48.45820753835141658782958984375" lon="10.104697756469249725341796875">
        <ele>476.600006103515625</ele>
        <time>2018-08-16T14:13:27.000Z</time>
      </trkpt>
      <trkpt lat="48.4584951214492321014404296875" lon="10.1048089005053043365478515625">
        <ele>476.20001220703125</ele>
        <time>2018-08-16T14:13:31.000Z</time>
      </trkpt>
      <trkpt lat="48.4590362571179866790771484375" lon="10.10500780306756496429443359375">
        <ele>476.399993896484375</ele>
        <time>2018-08-16T14:13:39.000Z</time>
      </trkpt>
      <trkpt lat="48.45909836702048778533935546875" lon="10.105008892714977264404296875">
        <ele>476.399993896484375</ele>
        <time>2018-08-16T14:13:40.000Z</time>
      </trkpt>
      <trkpt lat="48.45938242971897125244140625" lon="10.10465324856340885162353515625">
        <ele>476.79998779296875</ele>
        <time>2018-08-16T14:13:46.000Z</time>
      </trkpt>
      <trkpt lat="48.45942006446421146392822265625" lon="10.104566328227519989013671875">
        <ele>477</ele>
        <time>2018-08-16T14:13:47.000Z</time>
      </trkpt>
      <trkpt lat="48.45948829315602779388427734375" lon="10.10438838042318820953369140625">
        <ele>477.20001220703125</ele>
        <time>2018-08-16T14:13:49.000Z</time>
      </trkpt>
      <trkpt lat="48.459663726389408111572265625" lon="10.1039465703070163726806640625">
        <ele>478</ele>
        <time>2018-08-16T14:13:54.000Z</time>
      </trkpt>
      <trkpt lat="48.45972868613898754119873046875" lon="10.1037702150642871856689453125">
        <ele>478.399993896484375</ele>
        <time>2018-08-16T14:13:56.000Z</time>
      </trkpt>
      <trkpt lat="48.45978903584182262420654296875" lon="10.10361389257013797760009765625">
        <ele>478.600006103515625</ele>
        <time>2018-08-16T14:13:58.000Z</time>
      </trkpt>
      <trkpt lat="48.45987335778772830963134765625" lon="10.10340803302824497222900390625">
        <ele>479.20001220703125</ele>
        <time>2018-08-16T14:14:02.000Z</time>
      </trkpt>
      <trkpt lat="48.45988106913864612579345703125" lon="10.10338137857615947723388671875">
        <ele>479.399993896484375</ele>
        <time>2018-08-16T14:14:04.000Z</time>
      </trkpt>
      <trkpt lat="48.45988391898572444915771484375" lon="10.10338204912841320037841796875">
        <ele>479.79998779296875</ele>
        <time>2018-08-16T14:14:05.000Z</time>
      </trkpt>
      <trkpt lat="48.459939993917942047119140625" lon="10.10339118540287017822265625">
        <ele>481.79998779296875</ele>
        <time>2018-08-16T14:14:38.000Z</time>
      </trkpt>
      <trkpt lat="48.45995382405817508697509765625" lon="10.10338908992707729339599609375">
        <ele>481.79998779296875</ele>
        <time>2018-08-16T14:14:39.000Z</time>
      </trkpt>
      <trkpt lat="48.46000562421977519989013671875" lon="10.1033918559551239013671875">
        <ele>481.79998779296875</ele>
        <time>2018-08-16T14:14:42.000Z</time>
      </trkpt>
      <trkpt lat="48.460025824606418609619140625" lon="10.10339747183024883270263671875">
        <ele>481.79998779296875</ele>
        <time>2018-08-16T14:14:43.000Z</time>
      </trkpt>
      <trkpt lat="48.4602003358304500579833984375" lon="10.103516913950443267822265625">
        <ele>482.20001220703125</ele>
        <time>2018-08-16T14:14:49.000Z</time>
      </trkpt>
      <trkpt lat="48.46023738384246826171875" lon="10.103535018861293792724609375">
        <ele>482.20001220703125</ele>
        <time>2018-08-16T14:14:50.000Z</time>
      </trkpt>
      <trkpt lat="48.46035917289555072784423828125" lon="10.10356075130403041839599609375">
        <ele>482.399993896484375</ele>
        <time>2018-08-16T14:14:53.000Z</time>
      </trkpt>
      <trkpt lat="48.4604920260608196258544921875" lon="10.1035876572132110595703125">
        <ele>482.79998779296875</ele>
        <time>2018-08-16T14:14:56.000Z</time>
      </trkpt>
      <trkpt lat="48.460633344948291778564453125" lon="10.10362026281654834747314453125">
        <ele>483.20001220703125</ele>
        <time>2018-08-16T14:14:59.000Z</time>
      </trkpt>
      <trkpt lat="48.460832498967647552490234375" lon="10.10372243821620941162109375">
        <ele>483.600006103515625</ele>
        <time>2018-08-16T14:15:03.000Z</time>
      </trkpt>
      <trkpt lat="48.4610039927065372467041015625" lon="10.10380282066762447357177734375">
        <ele>483.600006103515625</ele>
        <time>2018-08-16T14:15:06.000Z</time>
      </trkpt>
      <trkpt lat="48.46156683750450611114501953125" lon="10.1040186546742916107177734375">
        <ele>483.399993896484375</ele>
        <time>2018-08-16T14:15:15.000Z</time>
      </trkpt>
      <trkpt lat="48.4617483057081699371337890625" lon="10.10404723696410655975341796875">
        <ele>483.399993896484375</ele>
        <time>2018-08-16T14:15:18.000Z</time>
      </trkpt>
      <trkpt lat="48.4619199670851230621337890625" lon="10.10406215675175189971923828125">
        <ele>483.399993896484375</ele>
        <time>2018-08-16T14:15:21.000Z</time>
      </trkpt>
      <trkpt lat="48.462262786924839019775390625" lon="10.10407892055809497833251953125">
        <ele>484</ele>
        <time>2018-08-16T14:15:27.000Z</time>
      </trkpt>
      <trkpt lat="48.46251248382031917572021484375" lon="10.10413147509098052978515625">
        <ele>485</ele>
        <time>2018-08-16T14:15:31.000Z</time>
      </trkpt>
      <trkpt lat="48.46257568337023258209228515625" lon="10.104160308837890625">
        <ele>485.20001220703125</ele>
        <time>2018-08-16T14:15:32.000Z</time>
      </trkpt>
      <trkpt lat="48.46302696503698825836181640625" lon="10.1044742949306964874267578125">
        <ele>486</ele>
        <time>2018-08-16T14:15:39.000Z</time>
      </trkpt>
      <trkpt lat="48.46340783871710300445556640625" lon="10.104810409247875213623046875">
        <ele>486.20001220703125</ele>
        <time>2018-08-16T14:15:45.000Z</time>
      </trkpt>
      <trkpt lat="48.46345980651676654815673828125" lon="10.10486774146556854248046875">
        <ele>486.20001220703125</ele>
        <time>2018-08-16T14:15:46.000Z</time>
      </trkpt>
      <trkpt lat="48.46350875683128833770751953125" lon="10.10491476394236087799072265625">
        <ele>486.20001220703125</ele>
        <time>2018-08-16T14:15:47.000Z</time>
      </trkpt>
      <trkpt lat="48.46355502493679523468017578125" lon="10.10493840090930461883544921875">
        <ele>486</ele>
        <time>2018-08-16T14:15:48.000Z</time>
      </trkpt>
      <trkpt lat="48.46363297663629055023193359375" lon="10.10488810949027538299560546875">
        <ele>486</ele>
        <time>2018-08-16T14:15:50.000Z</time>
      </trkpt>
      <trkpt lat="48.46373976208269596099853515625" lon="10.104962624609470367431640625">
        <ele>485</ele>
        <time>2018-08-16T14:15:54.000Z</time>
      </trkpt>
      <trkpt lat="48.46374445594847202301025390625" lon="10.10503563098609447479248046875">
        <ele>485</ele>
        <time>2018-08-16T14:15:55.000Z</time>
      </trkpt>
      <trkpt lat="48.46375283785164356231689453125" lon="10.105111487209796905517578125">
        <ele>484.79998779296875</ele>
        <time>2018-08-16T14:15:56.000Z</time>
      </trkpt>
      <trkpt lat="48.46392064355313777923583984375" lon="10.10570098645985126495361328125">
        <ele>484.399993896484375</ele>
        <time>2018-08-16T14:16:03.000Z</time>
      </trkpt>
      <trkpt lat="48.46413756720721721649169921875" lon="10.1059474982321262359619140625">
        <ele>484.399993896484375</ele>
        <time>2018-08-16T14:16:07.000Z</time>
      </trkpt>
      <trkpt lat="48.464201353490352630615234375" lon="10.10599921457469463348388671875">
        <ele>484.399993896484375</ele>
        <time>2018-08-16T14:16:08.000Z</time>
      </trkpt>
      <trkpt lat="48.464503102004528045654296875" lon="10.1060370169579982757568359375">
        <ele>484.399993896484375</ele>
        <time>2018-08-16T14:16:12.000Z</time>
      </trkpt>
      <trkpt lat="48.4649173356592655181884765625" lon="10.1059947721660137176513671875">
        <ele>484.20001220703125</ele>
        <time>2018-08-16T14:16:17.000Z</time>
      </trkpt>
      <trkpt lat="48.4651654399931430816650390625" lon="10.1059696264564990997314453125">
        <ele>483.399993896484375</ele>
        <time>2018-08-16T14:16:20.000Z</time>
      </trkpt>
      <trkpt lat="48.46532980911433696746826171875" lon="10.10593836195766925811767578125">
        <ele>483</ele>
        <time>2018-08-16T14:16:22.000Z</time>
      </trkpt>
      <trkpt lat="48.4658785723149776458740234375" lon="10.1058754138648509979248046875">
        <ele>482.79998779296875</ele>
        <time>2018-08-16T14:16:28.000Z</time>
      </trkpt>
      <trkpt lat="48.46625299192965030670166015625" lon="10.1059055887162685394287109375">
        <ele>482.600006103515625</ele>
        <time>2018-08-16T14:16:32.000Z</time>
      </trkpt>
      <trkpt lat="48.46677199937403202056884765625" lon="10.1060011424124240875244140625">
        <ele>482.20001220703125</ele>
        <time>2018-08-16T14:16:38.000Z</time>
      </trkpt>
      <trkpt lat="48.46700920723378658294677734375" lon="10.10605805553495883941650390625">
        <ele>482.20001220703125</ele>
        <time>2018-08-16T14:16:41.000Z</time>
      </trkpt>
      <trkpt lat="48.46715672872960567474365234375" lon="10.10611790232360363006591796875">
        <ele>482.20001220703125</ele>
        <time>2018-08-16T14:16:43.000Z</time>
      </trkpt>
      <trkpt lat="48.4674372710287570953369140625" lon="10.1062790863215923309326171875">
        <ele>482.399993896484375</ele>
        <time>2018-08-16T14:16:47.000Z</time>
      </trkpt>
      <trkpt lat="48.46786868758499622344970703125" lon="10.10649039410054683685302734375">
        <ele>483.20001220703125</ele>
        <time>2018-08-16T14:16:53.000Z</time>
      </trkpt>
      <trkpt lat="48.4684008546173572540283203125" lon="10.10676272213459014892578125">
        <ele>483.600006103515625</ele>
        <time>2018-08-16T14:17:00.000Z</time>
      </trkpt>
      <trkpt lat="48.4689721651375293731689453125" lon="10.10708299465477466583251953125">
        <ele>483.399993896484375</ele>
        <time>2018-08-16T14:17:07.000Z</time>
      </trkpt>
      <trkpt lat="48.46955697052180767059326171875" lon="10.10741793550550937652587890625">
        <ele>483.20001220703125</ele>
        <time>2018-08-16T14:17:14.000Z</time>
      </trkpt>
      <trkpt lat="48.46988922916352748870849609375" lon="10.10761004872620105743408203125">
        <ele>482.79998779296875</ele>
        <time>2018-08-16T14:17:18.000Z</time>
      </trkpt>
      <trkpt lat="48.470461629331111907958984375" lon="10.10797298513352870941162109375">
        <ele>482.600006103515625</ele>
        <time>2018-08-16T14:17:25.000Z</time>
      </trkpt>
      <trkpt lat="48.470620550215244293212890625" lon="10.108079351484775543212890625">
        <ele>482.399993896484375</ele>
        <time>2018-08-16T14:17:27.000Z</time>
      </trkpt>
      <trkpt lat="48.47086253575980663299560546875" lon="10.10823517106473445892333984375">
        <ele>482.20001220703125</ele>
        <time>2018-08-16T14:17:30.000Z</time>
      </trkpt>
      <trkpt lat="48.471022211015224456787109375" lon="10.10834530927240848541259765625">
        <ele>482.20001220703125</ele>
        <time>2018-08-16T14:17:32.000Z</time>
      </trkpt>
      <trkpt lat="48.47126302309334278106689453125" lon="10.1085076667368412017822265625">
        <ele>482.20001220703125</ele>
        <time>2018-08-16T14:17:35.000Z</time>
      </trkpt>
      <trkpt lat="48.47183098085224628448486328125" lon="10.1089066453278064727783203125">
        <ele>482.600006103515625</ele>
        <time>2018-08-16T14:17:42.000Z</time>
      </trkpt>
      <trkpt lat="48.47233121283352375030517578125" lon="10.10925776325166225433349609375">
        <ele>482.600006103515625</ele>
        <time>2018-08-16T14:17:48.000Z</time>
      </trkpt>
      <trkpt lat="48.4728523157536983489990234375" lon="10.10964198969304561614990234375">
        <ele>482.399993896484375</ele>
        <time>2018-08-16T14:17:54.000Z</time>
      </trkpt>
      <trkpt lat="48.4733788669109344482421875" lon="10.11004918254911899566650390625">
        <ele>482.20001220703125</ele>
        <time>2018-08-16T14:18:00.000Z</time>
      </trkpt>
      <trkpt lat="48.47385722212493419647216796875" lon="10.11048302985727787017822265625">
        <ele>481.79998779296875</ele>
        <time>2018-08-16T14:18:06.000Z</time>
      </trkpt>
      <trkpt lat="48.47440154291689395904541015625" lon="10.11088267900049686431884765625">
        <ele>482</ele>
        <time>2018-08-16T14:18:13.000Z</time>
      </trkpt>
      <trkpt lat="48.47483731806278228759765625" lon="10.11131920851767063140869140625">
        <ele>482.399993896484375</ele>
        <time>2018-08-16T14:18:19.000Z</time>
      </trkpt>
      <trkpt lat="48.47529572434723377227783203125" lon="10.11175297200679779052734375">
        <ele>482.20001220703125</ele>
        <time>2018-08-16T14:18:25.000Z</time>
      </trkpt>
      <trkpt lat="48.47581766545772552490234375" lon="10.11224054731428623199462890625">
        <ele>481.79998779296875</ele>
        <time>2018-08-16T14:18:32.000Z</time>
      </trkpt>
      <trkpt lat="48.47631261684000492095947265625" lon="10.1127143763005733489990234375">
        <ele>481.79998779296875</ele>
        <time>2018-08-16T14:18:39.000Z</time>
      </trkpt>
      <trkpt lat="48.47683824598789215087890625" lon="10.11316917836666107177734375">
        <ele>482.399993896484375</ele>
        <time>2018-08-16T14:18:47.000Z</time>
      </trkpt>
      <trkpt lat="48.47725876607000827789306640625" lon="10.1134667359292507171630859375">
        <ele>482.399993896484375</ele>
        <time>2018-08-16T14:18:53.000Z</time>
      </trkpt>
      <trkpt lat="48.47776670940220355987548828125" lon="10.1137889362871646881103515625">
        <ele>482.399993896484375</ele>
        <time>2018-08-16T14:19:00.000Z</time>
      </trkpt>
      <trkpt lat="48.47828253172338008880615234375" lon="10.114047937095165252685546875">
        <ele>482.399993896484375</ele>
        <time>2018-08-16T14:19:07.000Z</time>
      </trkpt>
      <trkpt lat="48.478728197515010833740234375" lon="10.114221274852752685546875">
        <ele>482.600006103515625</ele>
        <time>2018-08-16T14:19:13.000Z</time>
      </trkpt>
      <trkpt lat="48.47926204092800617218017578125" lon="10.114398300647735595703125">
        <ele>482.79998779296875</ele>
        <time>2018-08-16T14:19:20.000Z</time>
      </trkpt>
      <trkpt lat="48.47950042225420475006103515625" lon="10.11448002420365810394287109375">
        <ele>482.79998779296875</ele>
        <time>2018-08-16T14:19:23.000Z</time>
      </trkpt>
      <trkpt lat="48.4797459281980991363525390625" lon="10.1145594008266925811767578125">
        <ele>482.600006103515625</ele>
        <time>2018-08-16T14:19:26.000Z</time>
      </trkpt>
      <trkpt lat="48.48032034002244472503662109375" lon="10.11474086903035640716552734375">
        <ele>482.20001220703125</ele>
        <time>2018-08-16T14:19:33.000Z</time>
      </trkpt>
      <trkpt lat="48.48073826171457767486572265625" lon="10.1148470677435398101806640625">
        <ele>481.79998779296875</ele>
        <time>2018-08-16T14:19:38.000Z</time>
      </trkpt>
      <trkpt lat="48.48098837770521640777587890625" lon="10.11491772718727588653564453125">
        <ele>481.600006103515625</ele>
        <time>2018-08-16T14:19:41.000Z</time>
      </trkpt>
      <trkpt lat="48.48107253201305866241455078125" lon="10.1149389334022998809814453125">
        <ele>481.600006103515625</ele>
        <time>2018-08-16T14:19:42.000Z</time>
      </trkpt>
      <trkpt lat="48.48166915588080883026123046875" lon="10.11506139300763607025146484375">
        <ele>481.20001220703125</ele>
        <time>2018-08-16T14:19:49.000Z</time>
      </trkpt>
      <trkpt lat="48.48228656686842441558837890625" lon="10.1150916516780853271484375">
        <ele>481</ele>
        <time>2018-08-16T14:19:56.000Z</time>
      </trkpt>
      <trkpt lat="48.4827312268316745758056640625" lon="10.11518058367073535919189453125">
        <ele>480.600006103515625</ele>
        <time>2018-08-16T14:20:01.000Z</time>
      </trkpt>
      <trkpt lat="48.4832207299768924713134765625" lon="10.115225426852703094482421875">
        <ele>480.399993896484375</ele>
        <time>2018-08-16T14:20:07.000Z</time>
      </trkpt>
      <trkpt lat="48.48376077599823474884033203125" lon="10.11525250039994716644287109375">
        <ele>480.399993896484375</ele>
        <time>2018-08-16T14:20:14.000Z</time>
      </trkpt>
      <trkpt lat="48.4843187592923641204833984375" lon="10.11528753675520420074462890625">
        <ele>480.600006103515625</ele>
        <time>2018-08-16T14:20:21.000Z</time>
      </trkpt>
      <trkpt lat="48.484913371503353118896484375" lon="10.115385353565216064453125">
        <ele>480.600006103515625</ele>
        <time>2018-08-16T14:20:28.000Z</time>
      </trkpt>
      <trkpt lat="48.48499543033540248870849609375" lon="10.11540387757122516632080078125">
        <ele>480.399993896484375</ele>
        <time>2018-08-16T14:20:29.000Z</time>
      </trkpt>
      <trkpt lat="48.4851442091166973114013671875" lon="10.115438662469387054443359375">
        <ele>480.20001220703125</ele>
        <time>2018-08-16T14:20:31.000Z</time>
      </trkpt>
      <trkpt lat="48.48520447500050067901611328125" lon="10.1154498942196369171142578125">
        <ele>480</ele>
        <time>2018-08-16T14:20:32.000Z</time>
      </trkpt>
      <trkpt lat="48.4852521680295467376708984375" lon="10.11546112596988677978515625">
        <ele>480</ele>
        <time>2018-08-16T14:20:33.000Z</time>
      </trkpt>
      <trkpt lat="48.48531804978847503662109375" lon="10.115482248365879058837890625">
        <ele>479.79998779296875</ele>
        <time>2018-08-16T14:20:35.000Z</time>
      </trkpt>
      <trkpt lat="48.4853705205023288726806640625" lon="10.11555106379091739654541015625">
        <ele>479.600006103515625</ele>
        <time>2018-08-16T14:20:38.000Z</time>
      </trkpt>
      <trkpt lat="48.485384769737720489501953125" lon="10.11558316648006439208984375">
        <ele>479.600006103515625</ele>
        <time>2018-08-16T14:20:39.000Z</time>
      </trkpt>
      <trkpt lat="48.485436402261257171630859375" lon="10.11564192362129688262939453125">
        <ele>479.399993896484375</ele>
        <time>2018-08-16T14:20:41.000Z</time>
      </trkpt>
      <trkpt lat="48.4855802357196807861328125" lon="10.1157219707965850830078125">
        <ele>479.399993896484375</ele>
        <time>2018-08-16T14:20:44.000Z</time>
      </trkpt>
      <trkpt lat="48.4857004322111606597900390625" lon="10.1157804764807224273681640625">
        <ele>479.399993896484375</ele>
        <time>2018-08-16T14:20:46.000Z</time>
      </trkpt>
      <trkpt lat="48.4859126619994640350341796875" lon="10.11586521752178668975830078125">
        <ele>479.399993896484375</ele>
        <time>2018-08-16T14:20:49.000Z</time>
      </trkpt>
      <trkpt lat="48.486214242875576019287109375" lon="10.1159789599478244781494140625">
        <ele>479.600006103515625</ele>
        <time>2018-08-16T14:20:53.000Z</time>
      </trkpt>
      <trkpt lat="48.486767448484897613525390625" lon="10.116193704307079315185546875">
        <ele>479.79998779296875</ele>
        <time>2018-08-16T14:21:00.000Z</time>
      </trkpt>
      <trkpt lat="48.4873352386057376861572265625" lon="10.116393528878688812255859375">
        <ele>479.79998779296875</ele>
        <time>2018-08-16T14:21:07.000Z</time>
      </trkpt>
      <trkpt lat="48.48792071454226970672607421875" lon="10.11658857576549053192138671875">
        <ele>479.79998779296875</ele>
        <time>2018-08-16T14:21:14.000Z</time>
      </trkpt>
      <trkpt lat="48.488452546298503875732421875" lon="10.11675219051539897918701171875">
        <ele>479.79998779296875</ele>
        <time>2018-08-16T14:21:20.000Z</time>
      </trkpt>
      <trkpt lat="48.48898069001734256744384765625" lon="10.1169383525848388671875">
        <ele>479.79998779296875</ele>
        <time>2018-08-16T14:21:26.000Z</time>
      </trkpt>
      <trkpt lat="48.4895678423345088958740234375" lon="10.117131806910037994384765625">
        <ele>479.600006103515625</ele>
        <time>2018-08-16T14:21:33.000Z</time>
      </trkpt>
      <trkpt lat="48.49014275707304477691650390625" lon="10.117298774421215057373046875">
        <ele>479.20001220703125</ele>
        <time>2018-08-16T14:21:40.000Z</time>
      </trkpt>
      <trkpt lat="48.4905450046062469482421875" lon="10.1174196414649486541748046875">
        <ele>478.79998779296875</ele>
        <time>2018-08-16T14:21:45.000Z</time>
      </trkpt>
      <trkpt lat="48.4908646903932094573974609375" lon="10.11751377023756504058837890625">
        <ele>478.79998779296875</ele>
        <time>2018-08-16T14:21:49.000Z</time>
      </trkpt>
      <trkpt lat="48.49134790711104869842529296875" lon="10.11767554096877574920654296875">
        <ele>478.79998779296875</ele>
        <time>2018-08-16T14:21:55.000Z</time>
      </trkpt>
      <trkpt lat="48.4919013641774654388427734375" lon="10.11789028532803058624267578125">
        <ele>478.399993896484375</ele>
        <time>2018-08-16T14:22:02.000Z</time>
      </trkpt>
      <trkpt lat="48.4920445270836353302001953125" lon="10.11796371079981327056884765625">
        <ele>478.20001220703125</ele>
        <time>2018-08-16T14:22:04.000Z</time>
      </trkpt>
      <trkpt lat="48.49214821122586727142333984375" lon="10.11811316013336181640625">
        <ele>478.20001220703125</ele>
        <time>2018-08-16T14:22:06.000Z</time>
      </trkpt>
      <trkpt lat="48.49221627227962017059326171875" lon="10.11828440241515636444091796875">
        <ele>478.20001220703125</ele>
        <time>2018-08-16T14:22:08.000Z</time>
      </trkpt>
      <trkpt lat="48.492774926126003265380859375" lon="10.118442736566066741943359375">
        <ele>478</ele>
        <time>2018-08-16T14:22:17.000Z</time>
      </trkpt>
      <trkpt lat="48.4929018281400203704833984375" lon="10.11853803880512714385986328125">
        <ele>478</ele>
        <time>2018-08-16T14:22:19.000Z</time>
      </trkpt>
      <trkpt lat="48.4932508505880832672119140625" lon="10.11862345039844512939453125">
        <ele>478.20001220703125</ele>
        <time>2018-08-16T14:22:24.000Z</time>
      </trkpt>
      <trkpt lat="48.4936910681426525115966796875" lon="10.1185827143490314483642578125">
        <ele>478</ele>
        <time>2018-08-16T14:22:30.000Z</time>
      </trkpt>
      <trkpt lat="48.4938456304371356964111328125" lon="10.11856050230562686920166015625">
        <ele>478</ele>
        <time>2018-08-16T14:22:32.000Z</time>
      </trkpt>
      <trkpt lat="48.4944296814501285552978515625" lon="10.1184868253767490386962890625">
        <ele>478</ele>
        <time>2018-08-16T14:22:40.000Z</time>
      </trkpt>
      <trkpt lat="48.49462389014661312103271484375" lon="10.11846193112432956695556640625">
        <ele>477.79998779296875</ele>
        <time>2018-08-16T14:22:43.000Z</time>
      </trkpt>
      <trkpt lat="48.49468541331589221954345703125" lon="10.11845178902149200439453125">
        <ele>477.79998779296875</ele>
        <time>2018-08-16T14:22:44.000Z</time>
      </trkpt>
      <trkpt lat="48.49474358372390270233154296875" lon="10.11844114400446414947509765625">
        <ele>477.79998779296875</ele>
        <time>2018-08-16T14:22:45.000Z</time>
      </trkpt>
      <trkpt lat="48.49480175413191318511962890625" lon="10.11843477375805377960205078125">
        <ele>477.79998779296875</ele>
        <time>2018-08-16T14:22:46.000Z</time>
      </trkpt>
      <trkpt lat="48.4950838051736354827880859375" lon="10.11839671991765499114990234375">
        <ele>477.79998779296875</ele>
        <time>2018-08-16T14:22:51.000Z</time>
      </trkpt>
      <trkpt lat="48.4952871501445770263671875" lon="10.11831633746623992919921875">
        <ele>477.79998779296875</ele>
        <time>2018-08-16T14:22:55.000Z</time>
      </trkpt>
      <trkpt lat="48.49530517123639583587646484375" lon="10.11826512403786182403564453125">
        <ele>477.79998779296875</ele>
        <time>2018-08-16T14:22:56.000Z</time>
      </trkpt>
      <trkpt lat="48.495284132659435272216796875" lon="10.11809564195573329925537109375">
        <ele>477.600006103515625</ele>
        <time>2018-08-16T14:22:59.000Z</time>
      </trkpt>
      <trkpt lat="48.495452105998992919921875" lon="10.117815099656581878662109375">
        <ele>477.600006103515625</ele>
        <time>2018-08-16T14:23:05.000Z</time>
      </trkpt>
      <trkpt lat="48.49547498859465122222900390625" lon="10.11776304803788661956787109375">
        <ele>477.600006103515625</ele>
        <time>2018-08-16T14:23:06.000Z</time>
      </trkpt>
      <trkpt lat="48.49550382234156131744384765625" lon="10.11765073053538799285888671875">
        <ele>477.600006103515625</ele>
        <time>2018-08-16T14:23:08.000Z</time>
      </trkpt>
      <trkpt lat="48.495514802634716033935546875" lon="10.1175953261554241180419921875">
        <ele>477.600006103515625</ele>
        <time>2018-08-16T14:23:09.000Z</time>
      </trkpt>
      <trkpt lat="48.49553232081234455108642578125" lon="10.11755165643990039825439453125">
        <ele>477.399993896484375</ele>
        <time>2018-08-16T14:23:10.000Z</time>
      </trkpt>
      <trkpt lat="48.49558697082102298736572265625" lon="10.11751594953238964080810546875">
        <ele>477.399993896484375</ele>
        <time>2018-08-16T14:23:12.000Z</time>
      </trkpt>
      <trkpt lat="48.49562267772853374481201171875" lon="10.1174689270555973052978515625">
        <ele>477.20001220703125</ele>
        <time>2018-08-16T14:23:18.000Z</time>
      </trkpt>
      <trkpt lat="48.495689816772937774658203125" lon="10.1174203120172023773193359375">
        <ele>477.600006103515625</ele>
        <time>2018-08-16T14:29:17.000Z</time>
      </trkpt>
      <trkpt lat="48.495673052966594696044921875" lon="10.11749692261219024658203125">
        <ele>477.600006103515625</ele>
        <time>2018-08-16T14:29:20.000Z</time>
      </trkpt>
      <trkpt lat="48.495653606951236724853515625" lon="10.11751695536077022552490234375">
        <ele>477.600006103515625</ele>
        <time>2018-08-16T14:29:21.000Z</time>
      </trkpt>
      <trkpt lat="48.495614044368267059326171875" lon="10.11754654347896575927734375">
        <ele>477.600006103515625</ele>
        <time>2018-08-16T14:29:23.000Z</time>
      </trkpt>
      <trkpt lat="48.4955810196697711944580078125" lon="10.11757344938814640045166015625">
        <ele>477.600006103515625</ele>
        <time>2018-08-16T14:29:25.000Z</time>
      </trkpt>
      <trkpt lat="48.49554019980132579803466796875" lon="10.11761854402720928192138671875">
        <ele>477.600006103515625</ele>
        <time>2018-08-16T14:29:27.000Z</time>
      </trkpt>
      <trkpt lat="48.49544833414256572723388671875" lon="10.11770638637244701385498046875">
        <ele>477.79998779296875</ele>
        <time>2018-08-16T14:29:31.000Z</time>
      </trkpt>
      <trkpt lat="48.495355211198329925537109375" lon="10.11786296032369136810302734375">
        <ele>477.79998779296875</ele>
        <time>2018-08-16T14:29:36.000Z</time>
      </trkpt>
      <trkpt lat="48.495350517332553863525390625" lon="10.11790537275373935699462890625">
        <ele>477.79998779296875</ele>
        <time>2018-08-16T14:29:37.000Z</time>
      </trkpt>
      <trkpt lat="48.4953247010707855224609375" lon="10.11797712184488773345947265625">
        <ele>477.79998779296875</ele>
        <time>2018-08-16T14:29:39.000Z</time>
      </trkpt>
      <trkpt lat="48.4954790957272052764892578125" lon="10.11837241239845752716064453125">
        <ele>478</ele>
        <time>2018-08-16T14:29:51.000Z</time>
      </trkpt>
      <trkpt lat="48.49560306407511234283447265625" lon="10.1183523796498775482177734375">
        <ele>478.20001220703125</ele>
        <time>2018-08-16T14:29:54.000Z</time>
      </trkpt>
      <trkpt lat="48.495759554207324981689453125" lon="10.11832983233034610748291015625">
        <ele>478.20001220703125</ele>
        <time>2018-08-16T14:29:58.000Z</time>
      </trkpt>
      <trkpt lat="48.49582032300531864166259765625" lon="10.118320696055889129638671875">
        <ele>478.20001220703125</ele>
        <time>2018-08-16T14:30:00.000Z</time>
      </trkpt>
      <trkpt lat="48.495878912508487701416015625" lon="10.11831223033368587493896484375">
        <ele>478.20001220703125</ele>
        <time>2018-08-16T14:30:03.000Z</time>
      </trkpt>
      <trkpt lat="48.4959119372069835662841796875" lon="10.1183161698281764984130859375">
        <ele>478.20001220703125</ele>
        <time>2018-08-16T14:30:06.000Z</time>
      </trkpt>
      <trkpt lat="48.49592157639563083648681640625" lon="10.11831474490463733673095703125">
        <ele>478.20001220703125</ele>
        <time>2018-08-16T14:30:09.000Z</time>
      </trkpt>
      <trkpt lat="48.4959441237151622772216796875" lon="10.11832245625555515289306640625">
        <ele>478.20001220703125</ele>
        <time>2018-08-16T14:31:00.000Z</time>
      </trkpt>
      <trkpt lat="48.4959625639021396636962890625" lon="10.11832077987492084503173828125">
        <ele>478.20001220703125</ele>
        <time>2018-08-16T14:31:01.000Z</time>
      </trkpt>
      <trkpt lat="48.49611016921699047088623046875" lon="10.11838213540613651275634765625">
        <ele>478.20001220703125</ele>
        <time>2018-08-16T14:31:06.000Z</time>
      </trkpt>
      <trkpt lat="48.4961615502834320068359375" lon="10.118483640253543853759765625">
        <ele>478.20001220703125</ele>
        <time>2018-08-16T14:31:08.000Z</time>
      </trkpt>
      <trkpt lat="48.4961791522800922393798828125" lon="10.11854725889861583709716796875">
        <ele>478.20001220703125</ele>
        <time>2018-08-16T14:31:09.000Z</time>
      </trkpt>
      <trkpt lat="48.4961965866386890411376953125" lon="10.1186138950288295745849609375">
        <ele>478.20001220703125</ele>
        <time>2018-08-16T14:31:10.000Z</time>
      </trkpt>
      <trkpt lat="48.49621578119695186614990234375" lon="10.11868421919643878936767578125">
        <ele>478.20001220703125</ele>
        <time>2018-08-16T14:31:11.000Z</time>
      </trkpt>
      <trkpt lat="48.496265150606632232666015625" lon="10.118825621902942657470703125">
        <ele>478.20001220703125</ele>
        <time>2018-08-16T14:31:13.000Z</time>
      </trkpt>
      <trkpt lat="48.4964068047702312469482421875" lon="10.11908990330994129180908203125">
        <ele>478.399993896484375</ele>
        <time>2018-08-16T14:31:17.000Z</time>
      </trkpt>
      <trkpt lat="48.49656128324568271636962890625" lon="10.1192204095423221588134765625">
        <ele>478.399993896484375</ele>
        <time>2018-08-16T14:31:20.000Z</time>
      </trkpt>
      <trkpt lat="48.49673478864133358001708984375" lon="10.11932644061744213104248046875">
        <ele>478.600006103515625</ele>
        <time>2018-08-16T14:31:23.000Z</time>
      </trkpt>
      <trkpt lat="48.496844507753849029541015625" lon="10.11941093020141124725341796875">
        <ele>478.600006103515625</ele>
        <time>2018-08-16T14:31:25.000Z</time>
      </trkpt>
      <trkpt lat="48.4970217011868953704833984375" lon="10.11965350247919559478759765625">
        <ele>478.399993896484375</ele>
        <time>2018-08-16T14:31:36.000Z</time>
      </trkpt>
      <trkpt lat="48.49703452549874782562255859375" lon="10.119671858847141265869140625">
        <ele>478.20001220703125</ele>
        <time>2018-08-16T14:31:38.000Z</time>
      </trkpt>
      <trkpt lat="48.4970493614673614501953125" lon="10.11969658546149730682373046875">
        <ele>478.20001220703125</ele>
        <time>2018-08-16T14:31:41.000Z</time>
      </trkpt>
      <trkpt lat="48.4970652870833873748779296875" lon="10.11972315609455108642578125">
        <ele>478</ele>
        <time>2018-08-16T14:31:44.000Z</time>
      </trkpt>
      <trkpt lat="48.49707643501460552215576171875" lon="10.11973815970122814178466796875">
        <ele>478</ele>
        <time>2018-08-16T14:31:45.000Z</time>
      </trkpt>
      <trkpt lat="48.49711834453046321868896484375" lon="10.11978660710155963897705078125">
        <ele>478</ele>
        <time>2018-08-16T14:31:47.000Z</time>
      </trkpt>
      <trkpt lat="48.4971494413912296295166015625" lon="10.11982105672359466552734375">
        <ele>478</ele>
        <time>2018-08-16T14:31:48.000Z</time>
      </trkpt>
      <trkpt lat="48.497224040329456329345703125" lon="10.11989892460405826568603515625">
        <ele>478</ele>
        <time>2018-08-16T14:31:50.000Z</time>
      </trkpt>
      <trkpt lat="48.49735605530440807342529296875" lon="10.120026580989360809326171875">
        <ele>478</ele>
        <time>2018-08-16T14:31:53.000Z</time>
      </trkpt>
      <trkpt lat="48.4975125454366207122802734375" lon="10.12015189044177532196044921875">
        <ele>478</ele>
        <time>2018-08-16T14:31:56.000Z</time>
      </trkpt>
      <trkpt lat="48.497753106057643890380859375" lon="10.12027837336063385009765625">
        <ele>477.79998779296875</ele>
        <time>2018-08-16T14:32:00.000Z</time>
      </trkpt>
      <trkpt lat="48.498090393841266632080078125" lon="10.120303519070148468017578125">
        <ele>477.399993896484375</ele>
        <time>2018-08-16T14:32:05.000Z</time>
      </trkpt>
      <trkpt lat="48.49829130806028842926025390625" lon="10.1202969811856746673583984375">
        <ele>477</ele>
        <time>2018-08-16T14:32:08.000Z</time>
      </trkpt>
      <trkpt lat="48.4986675716936588287353515625" lon="10.120441652834415435791015625">
        <ele>476.79998779296875</ele>
        <time>2018-08-16T14:32:14.000Z</time>
      </trkpt>
      <trkpt lat="48.49878600798547267913818359375" lon="10.12050560675561428070068359375">
        <ele>476.79998779296875</ele>
        <time>2018-08-16T14:32:16.000Z</time>
      </trkpt>
      <trkpt lat="48.49884401075541973114013671875" lon="10.12054483406245708465576171875">
        <ele>476.79998779296875</ele>
        <time>2018-08-16T14:32:17.000Z</time>
      </trkpt>
      <trkpt lat="48.4990377165377140045166015625" lon="10.120801068842411041259765625">
        <ele>476.79998779296875</ele>
        <time>2018-08-16T14:32:21.000Z</time>
      </trkpt>
      <trkpt lat="48.49919378757476806640625" lon="10.1210577227175235748291015625">
        <ele>477</ele>
        <time>2018-08-16T14:32:25.000Z</time>
      </trkpt>
      <trkpt lat="48.49938489496707916259765625" lon="10.12120180763304233551025390625">
        <ele>477.399993896484375</ele>
        <time>2018-08-16T14:32:29.000Z</time>
      </trkpt>
      <trkpt lat="48.49948145449161529541015625" lon="10.12122544459998607635498046875">
        <ele>478</ele>
        <time>2018-08-16T14:32:31.000Z</time>
      </trkpt>
      <trkpt lat="48.4995788522064685821533203125" lon="10.12125411070883274078369140625">
        <ele>478.600006103515625</ele>
        <time>2018-08-16T14:32:33.000Z</time>
      </trkpt>
      <trkpt lat="48.49962738342583179473876953125" lon="10.12127707712352275848388671875">
        <ele>478.79998779296875</ele>
        <time>2018-08-16T14:32:34.000Z</time>
      </trkpt>
      <trkpt lat="48.499746657907962799072265625" lon="10.12138721533119678497314453125">
        <ele>479.600006103515625</ele>
        <time>2018-08-16T14:32:37.000Z</time>
      </trkpt>
      <trkpt lat="48.4999275393784046173095703125" lon="10.12158201076090335845947265625">
        <ele>480.79998779296875</ele>
        <time>2018-08-16T14:32:41.000Z</time>
      </trkpt>
      <trkpt lat="48.50018226541578769683837890625" lon="10.12181385420262813568115234375">
        <ele>481.79998779296875</ele>
        <time>2018-08-16T14:32:46.000Z</time>
      </trkpt>
      <trkpt lat="48.500692136585712432861328125" lon="10.122248791158199310302734375">
        <ele>482.399993896484375</ele>
        <time>2018-08-16T14:32:55.000Z</time>
      </trkpt>
      <trkpt lat="48.50084074772894382476806640625" lon="10.122377537190914154052734375">
        <ele>482.399993896484375</ele>
        <time>2018-08-16T14:32:58.000Z</time>
      </trkpt>
      <trkpt lat="48.5008929669857025146484375" lon="10.122415758669376373291015625">
        <ele>482.20001220703125</ele>
        <time>2018-08-16T14:33:01.000Z</time>
      </trkpt>
      <trkpt lat="48.501014001667499542236328125" lon="10.1225315965712070465087890625">
        <ele>481.79998779296875</ele>
        <time>2018-08-16T14:33:06.000Z</time>
      </trkpt>
      <trkpt lat="48.50108834914863109588623046875" lon="10.122630335390567779541015625">
        <ele>481.79998779296875</ele>
        <time>2018-08-16T14:33:08.000Z</time>
      </trkpt>
      <trkpt lat="48.501313738524913787841796875" lon="10.12293853797018527984619140625">
        <ele>481.79998779296875</ele>
        <time>2018-08-16T14:33:13.000Z</time>
      </trkpt>
      <trkpt lat="48.501437790691852569580078125" lon="10.1231731474399566650390625">
        <ele>481.79998779296875</ele>
        <time>2018-08-16T14:33:16.000Z</time>
      </trkpt>
      <trkpt lat="48.5016059316694736480712890625" lon="10.12362518347799777984619140625">
        <ele>481.79998779296875</ele>
        <time>2018-08-16T14:33:21.000Z</time>
      </trkpt>
      <trkpt lat="48.5017340071499347686767578125" lon="10.12400940991938114166259765625">
        <ele>481.600006103515625</ele>
        <time>2018-08-16T14:33:25.000Z</time>
      </trkpt>
      <trkpt lat="48.50186727941036224365234375" lon="10.124407298862934112548828125">
        <ele>480.79998779296875</ele>
        <time>2018-08-16T14:33:29.000Z</time>
      </trkpt>
      <trkpt lat="48.50213960744440555572509765625" lon="10.1252008974552154541015625">
        <ele>480.399993896484375</ele>
        <time>2018-08-16T14:33:37.000Z</time>
      </trkpt>
      <trkpt lat="48.50221051834523677825927734375" lon="10.12537750415503978729248046875">
        <ele>480.399993896484375</ele>
        <time>2018-08-16T14:33:39.000Z</time>
      </trkpt>
      <trkpt lat="48.502244465053081512451171875" lon="10.1254578866064548492431640625">
        <ele>480.399993896484375</ele>
        <time>2018-08-16T14:33:40.000Z</time>
      </trkpt>
      <trkpt lat="48.502274639904499053955078125" lon="10.12553240172564983367919921875">
        <ele>480.399993896484375</ele>
        <time>2018-08-16T14:33:41.000Z</time>
      </trkpt>
      <trkpt lat="48.502393327653408050537109375" lon="10.1257700286805629730224609375">
        <ele>481.399993896484375</ele>
        <time>2018-08-16T14:33:51.000Z</time>
      </trkpt>
      <trkpt lat="48.50239559076726436614990234375" lon="10.12577581219375133514404296875">
        <ele>481.600006103515625</ele>
        <time>2018-08-16T14:33:52.000Z</time>
      </trkpt>
      <trkpt lat="48.50239894352853298187255859375" lon="10.125781260430812835693359375">
        <ele>481.600006103515625</ele>
        <time>2018-08-16T14:33:53.000Z</time>
      </trkpt>
      <trkpt lat="48.50241352804005146026611328125" lon="10.12579911388456821441650390625">
        <ele>481.600006103515625</ele>
        <time>2018-08-16T14:33:58.000Z</time>
      </trkpt>
      <trkpt lat="48.50243230350315570831298828125" lon="10.1258280314505100250244140625">
        <ele>481.600006103515625</ele>
        <time>2018-08-16T14:34:05.000Z</time>
      </trkpt>
      <trkpt lat="48.50244135595858097076416015625" lon="10.12585602700710296630859375">
        <ele>481.79998779296875</ele>
        <time>2018-08-16T14:34:06.000Z</time>
      </trkpt>
      <trkpt lat="48.5024813376367092132568359375" lon="10.12595820240676403045654296875">
        <ele>481.79998779296875</ele>
        <time>2018-08-16T14:34:09.000Z</time>
      </trkpt>
      <trkpt lat="48.50252081640064716339111328125" lon="10.12604939751327037811279296875">
        <ele>481.79998779296875</ele>
        <time>2018-08-16T14:34:11.000Z</time>
      </trkpt>
      <trkpt lat="48.50254143588244915008544921875" lon="10.12610471807420253753662109375">
        <ele>481.79998779296875</ele>
        <time>2018-08-16T14:34:12.000Z</time>
      </trkpt>
      <trkpt lat="48.50257630459964275360107421875" lon="10.12623782269656658172607421875">
        <ele>481.79998779296875</ele>
        <time>2018-08-16T14:34:14.000Z</time>
      </trkpt>
      <trkpt lat="48.502625338733196258544921875" lon="10.126462876796722412109375">
        <ele>482</ele>
        <time>2018-08-16T14:34:17.000Z</time>
      </trkpt>
      <trkpt lat="48.50279792211949825286865234375" lon="10.1272734068334102630615234375">
        <ele>482.399993896484375</ele>
        <time>2018-08-16T14:34:26.000Z</time>
      </trkpt>
      <trkpt lat="48.5029757022857666015625" lon="10.12810581363737583160400390625">
        <ele>482</ele>
        <time>2018-08-16T14:34:34.000Z</time>
      </trkpt>
      <trkpt lat="48.5031606070697307586669921875" lon="10.1288827322423458099365234375">
        <ele>481.600006103515625</ele>
        <time>2018-08-16T14:34:41.000Z</time>
      </trkpt>
      <trkpt lat="48.50336906500160694122314453125" lon="10.12966786511242389678955078125">
        <ele>481</ele>
        <time>2018-08-16T14:34:48.000Z</time>
      </trkpt>
      <trkpt lat="48.50357542745769023895263671875" lon="10.1304575242102146148681640625">
        <ele>480.399993896484375</ele>
        <time>2018-08-16T14:34:55.000Z</time>
      </trkpt>
      <trkpt lat="48.50367969833314418792724609375" lon="10.13091023080050945281982421875">
        <ele>480.20001220703125</ele>
        <time>2018-08-16T14:34:59.000Z</time>
      </trkpt>
      <trkpt lat="48.50377894006669521331787109375" lon="10.131602995097637176513671875">
        <ele>480</ele>
        <time>2018-08-16T14:35:05.000Z</time>
      </trkpt>
      <trkpt lat="48.503814898431301116943359375" lon="10.13245023787021636962890625">
        <ele>479.20001220703125</ele>
        <time>2018-08-16T14:35:12.000Z</time>
      </trkpt>
      <trkpt lat="48.5038264654576778411865234375" lon="10.13269557617604732513427734375">
        <ele>479</ele>
        <time>2018-08-16T14:35:14.000Z</time>
      </trkpt>
      <trkpt lat="48.503838367760181427001953125" lon="10.13293915428221225738525390625">
        <ele>478.79998779296875</ele>
        <time>2018-08-16T14:35:16.000Z</time>
      </trkpt>
      <trkpt lat="48.5039042495191097259521484375" lon="10.1337797753512859344482421875">
        <ele>478.399993896484375</ele>
        <time>2018-08-16T14:35:23.000Z</time>
      </trkpt>
      <trkpt lat="48.50391782820224761962890625" lon="10.1340117864310741424560546875">
        <ele>478.20001220703125</ele>
        <time>2018-08-16T14:35:25.000Z</time>
      </trkpt>
      <trkpt lat="48.503986895084381103515625" lon="10.13420180417597293853759765625">
        <ele>478.20001220703125</ele>
        <time>2018-08-16T14:35:27.000Z</time>
      </trkpt>
      <trkpt lat="48.50405001081526279449462890625" lon="10.1342458091676235198974609375">
        <ele>478</ele>
        <time>2018-08-16T14:35:28.000Z</time>
      </trkpt>
      <trkpt lat="48.50418680347502231597900390625" lon="10.13424186967313289642333984375">
        <ele>478</ele>
        <time>2018-08-16T14:35:30.000Z</time>
      </trkpt>
      <trkpt lat="48.50425218231976032257080078125" lon="10.13422560878098011016845703125">
        <ele>478</ele>
        <time>2018-08-16T14:35:31.000Z</time>
      </trkpt>
      <trkpt lat="48.50437338463962078094482421875" lon="10.13418571092188358306884765625">
        <ele>478</ele>
        <time>2018-08-16T14:35:33.000Z</time>
      </trkpt>
      <trkpt lat="48.50453213788568973541259765625" lon="10.13410993851721286773681640625">
        <ele>478</ele>
        <time>2018-08-16T14:35:36.000Z</time>
      </trkpt>
      <trkpt lat="48.5045811720192432403564453125" lon="10.13408026657998561859130859375">
        <ele>478</ele>
        <time>2018-08-16T14:35:37.000Z</time>
      </trkpt>
      <trkpt lat="48.50467261858284473419189453125" lon="10.13401052914559841156005859375">
        <ele>478</ele>
        <time>2018-08-16T14:35:39.000Z</time>
      </trkpt>
      <trkpt lat="48.5048799030482769012451171875" lon="10.13383903540670871734619140625">
        <ele>479.399993896484375</ele>
        <time>2018-08-16T14:35:44.000Z</time>
      </trkpt>
      <trkpt lat="48.5049637220799922943115234375" lon="10.13378321193158626556396484375">
        <ele>480</ele>
        <time>2018-08-16T14:35:46.000Z</time>
      </trkpt>
      <trkpt lat="48.505005799233913421630859375" lon="10.1337630115449428558349609375">
        <ele>480.399993896484375</ele>
        <time>2018-08-16T14:35:47.000Z</time>
      </trkpt>
      <trkpt lat="48.50513211451470851898193359375" lon="10.13373635709285736083984375">
        <ele>481.20001220703125</ele>
        <time>2018-08-16T14:35:50.000Z</time>
      </trkpt>
      <trkpt lat="48.5052966512739658355712890625" lon="10.13377214781939983367919921875">
        <ele>482.20001220703125</ele>
        <time>2018-08-16T14:35:54.000Z</time>
      </trkpt>
      <trkpt lat="48.5053885169327259063720703125" lon="10.1338045857846736907958984375">
        <ele>482.79998779296875</ele>
        <time>2018-08-16T14:35:56.000Z</time>
      </trkpt>
      <trkpt lat="48.5054334439337253570556640625" lon="10.13382193632423877716064453125">
        <ele>483.399993896484375</ele>
        <time>2018-08-16T14:35:57.000Z</time>
      </trkpt>
      <trkpt lat="48.50556545890867710113525390625" lon="10.13387943617999553680419921875">
        <ele>484.20001220703125</ele>
        <time>2018-08-16T14:36:00.000Z</time>
      </trkpt>
      <trkpt lat="48.50560938008129596710205078125" lon="10.13390223495662212371826171875">
        <ele>484.399993896484375</ele>
        <time>2018-08-16T14:36:01.000Z</time>
      </trkpt>
      <trkpt lat="48.50578120909631252288818359375" lon="10.13402159325778484344482421875">
        <ele>485.399993896484375</ele>
        <time>2018-08-16T14:36:05.000Z</time>
      </trkpt>
      <trkpt lat="48.50605244748294353485107421875" lon="10.13422309421002864837646484375">
        <ele>486.399993896484375</ele>
        <time>2018-08-16T14:36:11.000Z</time>
      </trkpt>
      <trkpt lat="48.50634715519845485687255859375" lon="10.134222172200679779052734375">
        <ele>487</ele>
        <time>2018-08-16T14:36:16.000Z</time>
      </trkpt>
      <trkpt lat="48.50669919513165950775146484375" lon="10.13419124297797679901123046875">
        <ele>487.20001220703125</ele>
        <time>2018-08-16T14:36:22.000Z</time>
      </trkpt>
      <trkpt lat="48.50674864836037158966064453125" lon="10.1341965235769748687744140625">
        <ele>487.20001220703125</ele>
        <time>2018-08-16T14:36:23.000Z</time>
      </trkpt>
      <trkpt lat="48.50690103136003017425537109375" lon="10.1342230103909969329833984375">
        <ele>487</ele>
        <time>2018-08-16T14:36:26.000Z</time>
      </trkpt>
      <trkpt lat="48.50705995224416255950927734375" lon="10.134230218827724456787109375">
        <ele>486.600006103515625</ele>
        <time>2018-08-16T14:36:29.000Z</time>
      </trkpt>
      <trkpt lat="48.50724108517169952392578125" lon="10.13424991630017757415771484375">
        <ele>486</ele>
        <time>2018-08-16T14:36:32.000Z</time>
      </trkpt>
      <trkpt lat="48.50730478763580322265625" lon="10.13425561599433422088623046875">
        <ele>485.79998779296875</ele>
        <time>2018-08-16T14:36:33.000Z</time>
      </trkpt>
      <trkpt lat="48.507433198392391204833984375" lon="10.13427489437162876129150390625">
        <ele>485.399993896484375</ele>
        <time>2018-08-16T14:36:35.000Z</time>
      </trkpt>
      <trkpt lat="48.50749262608587741851806640625" lon="10.13428562320768833160400390625">
        <ele>485.20001220703125</ele>
        <time>2018-08-16T14:36:36.000Z</time>
      </trkpt>
      <trkpt lat="48.5075932927429676055908203125" lon="10.13430238701403141021728515625">
        <ele>485</ele>
        <time>2018-08-16T14:36:38.000Z</time>
      </trkpt>
      <trkpt lat="48.50773922167718410491943359375" lon="10.1343534328043460845947265625">
        <ele>484.600006103515625</ele>
        <time>2018-08-16T14:36:43.000Z</time>
      </trkpt>
      <trkpt lat="48.5077746771275997161865234375" lon="10.13441487215459346771240234375">
        <ele>484.399993896484375</ele>
        <time>2018-08-16T14:36:47.000Z</time>
      </trkpt>
      <trkpt lat="48.50783226080238819122314453125" lon="10.13458435423672199249267578125">
        <ele>484.20001220703125</ele>
        <time>2018-08-16T14:36:51.000Z</time>
      </trkpt>
      <trkpt lat="48.50783779285848140716552734375" lon="10.1347326301038265228271484375">
        <ele>484</ele>
        <time>2018-08-16T14:36:53.000Z</time>
      </trkpt>
      <trkpt lat="48.50783251225948333740234375" lon="10.1349032856523990631103515625">
        <ele>484</ele>
        <time>2018-08-16T14:36:55.000Z</time>
      </trkpt>
      <trkpt lat="48.5077713243663311004638671875" lon="10.135789923369884490966796875">
        <ele>484.20001220703125</ele>
        <time>2018-08-16T14:37:04.000Z</time>
      </trkpt>
      <trkpt lat="48.50771742872893810272216796875" lon="10.13659332878887653350830078125">
        <ele>483.600006103515625</ele>
        <time>2018-08-16T14:37:11.000Z</time>
      </trkpt>
      <trkpt lat="48.5077146627008914947509765625" lon="10.13722046278417110443115234375">
        <ele>483</ele>
        <time>2018-08-16T14:37:16.000Z</time>
      </trkpt>
      <trkpt lat="48.507747687399387359619140625" lon="10.13761793263256549835205078125">
        <ele>482.79998779296875</ele>
        <time>2018-08-16T14:37:19.000Z</time>
      </trkpt>
      <trkpt lat="48.50785019807517528533935546875" lon="10.13828161172568798065185546875">
        <ele>482.20001220703125</ele>
        <time>2018-08-16T14:37:24.000Z</time>
      </trkpt>
      <trkpt lat="48.507907278835773468017578125" lon="10.13868595473468303680419921875">
        <ele>481.20001220703125</ele>
        <time>2018-08-16T14:37:27.000Z</time>
      </trkpt>
      <trkpt lat="48.50791842676699161529541015625" lon="10.138820819556713104248046875">
        <ele>481.20001220703125</ele>
        <time>2018-08-16T14:37:28.000Z</time>
      </trkpt>
      <trkpt lat="48.5079517029225826263427734375" lon="10.13974794186651706695556640625">
        <ele>480.600006103515625</ele>
        <time>2018-08-16T14:37:35.000Z</time>
      </trkpt>
      <trkpt lat="48.50795916281640529632568359375" lon="10.140005014836788177490234375">
        <ele>480</ele>
        <time>2018-08-16T14:37:37.000Z</time>
      </trkpt>
      <trkpt lat="48.50798397324979305267333984375" lon="10.14089877717196941375732421875">
        <ele>479.399993896484375</ele>
        <time>2018-08-16T14:37:44.000Z</time>
      </trkpt>
      <trkpt lat="48.50802873261272907257080078125" lon="10.1417849957942962646484375">
        <ele>479</ele>
        <time>2018-08-16T14:37:51.000Z</time>
      </trkpt>
      <trkpt lat="48.508053459227085113525390625" lon="10.14203301630914211273193359375">
        <ele>479</ele>
        <time>2018-08-16T14:37:53.000Z</time>
      </trkpt>
      <trkpt lat="48.5081941075623035430908203125" lon="10.14288931153714656829833984375">
        <ele>478.79998779296875</ele>
        <time>2018-08-16T14:38:00.000Z</time>
      </trkpt>
      <trkpt lat="48.508406840264797210693359375" lon="10.14366983436048030853271484375">
        <ele>478.79998779296875</ele>
        <time>2018-08-16T14:38:07.000Z</time>
      </trkpt>
      <trkpt lat="48.5087225027382373809814453125" lon="10.14445018954575061798095703125">
        <ele>479</ele>
        <time>2018-08-16T14:38:15.000Z</time>
      </trkpt>
      <trkpt lat="48.5090696811676025390625" lon="10.1450644992291927337646484375">
        <ele>479.79998779296875</ele>
        <time>2018-08-16T14:38:22.000Z</time>
      </trkpt>
      <trkpt lat="48.5092190466821193695068359375" lon="10.1453193090856075286865234375">
        <ele>480</ele>
        <time>2018-08-16T14:38:25.000Z</time>
      </trkpt>
      <trkpt lat="48.50940068252384662628173828125" lon="10.1456498913466930389404296875">
        <ele>480.399993896484375</ele>
        <time>2018-08-16T14:38:29.000Z</time>
      </trkpt>
      <trkpt lat="48.50961945019662380218505859375" lon="10.1461196132004261016845703125">
        <ele>481.399993896484375</ele>
        <time>2018-08-16T14:38:35.000Z</time>
      </trkpt>
      <trkpt lat="48.5097638703882694244384765625" lon="10.14649587683379650115966796875">
        <ele>482.399993896484375</ele>
        <time>2018-08-16T14:38:40.000Z</time>
      </trkpt>
      <trkpt lat="48.50988549180328845977783203125" lon="10.14686920680105686187744140625">
        <ele>483.600006103515625</ele>
        <time>2018-08-16T14:38:45.000Z</time>
      </trkpt>
      <trkpt lat="48.50996796973049640655517578125" lon="10.14716877602040767669677734375">
        <ele>484.79998779296875</ele>
        <time>2018-08-16T14:38:49.000Z</time>
      </trkpt>
      <trkpt lat="48.51003787480294704437255859375" lon="10.14746658504009246826171875">
        <ele>485.79998779296875</ele>
        <time>2018-08-16T14:38:53.000Z</time>
      </trkpt>
      <trkpt lat="48.51010291837155818939208984375" lon="10.1477725245058536529541015625">
        <ele>486.79998779296875</ele>
        <time>2018-08-16T14:38:57.000Z</time>
      </trkpt>
      <trkpt lat="48.5101879946887493133544921875" lon="10.14816354028880596160888671875">
        <ele>488</ele>
        <time>2018-08-16T14:39:02.000Z</time>
      </trkpt>
      <trkpt lat="48.51027608849108219146728515625" lon="10.14856218360364437103271484375">
        <ele>489.20001220703125</ele>
        <time>2018-08-16T14:39:07.000Z</time>
      </trkpt>
      <trkpt lat="48.5104216821491718292236328125" lon="10.149227790534496307373046875">
        <ele>490.20001220703125</ele>
        <time>2018-08-16T14:39:15.000Z</time>
      </trkpt>
      <trkpt lat="48.510574400424957275390625" lon="10.14990597032010555267333984375">
        <ele>491.600006103515625</ele>
        <time>2018-08-16T14:39:23.000Z</time>
      </trkpt>
      <trkpt lat="48.51074379868805408477783203125" lon="10.1506803743541240692138671875">
        <ele>492.600006103515625</ele>
        <time>2018-08-16T14:39:32.000Z</time>
      </trkpt>
      <trkpt lat="48.5108897276222705841064453125" lon="10.1513368450105190277099609375">
        <ele>493.600006103515625</ele>
        <time>2018-08-16T14:39:40.000Z</time>
      </trkpt>
      <trkpt lat="48.51100531406700611114501953125" lon="10.15185333788394927978515625">
        <ele>495</ele>
        <time>2018-08-16T14:39:47.000Z</time>
      </trkpt>
      <trkpt lat="48.51106046698987483978271484375" lon="10.15212558209896087646484375">
        <ele>496.20001220703125</ele>
        <time>2018-08-16T14:39:51.000Z</time>
      </trkpt>
      <trkpt lat="48.51110707037150859832763671875" lon="10.1523864269256591796875">
        <ele>497.399993896484375</ele>
        <time>2018-08-16T14:39:55.000Z</time>
      </trkpt>
      <trkpt lat="48.51115132682025432586669921875" lon="10.15264500863850116729736328125">
        <ele>498.79998779296875</ele>
        <time>2018-08-16T14:39:59.000Z</time>
      </trkpt>
      <trkpt lat="48.5111931525170803070068359375" lon="10.15290987677872180938720703125">
        <ele>499.79998779296875</ele>
        <time>2018-08-16T14:40:03.000Z</time>
      </trkpt>
      <trkpt lat="48.51124587468802928924560546875" lon="10.15324850566685199737548828125">
        <ele>501</ele>
        <time>2018-08-16T14:40:08.000Z</time>
      </trkpt>
      <trkpt lat="48.5112917236983776092529296875" lon="10.1535858772695064544677734375">
        <ele>502</ele>
        <time>2018-08-16T14:40:13.000Z</time>
      </trkpt>
      <trkpt lat="48.51132835261523723602294921875" lon="10.15385686419904232025146484375">
        <ele>503.20001220703125</ele>
        <time>2018-08-16T14:40:17.000Z</time>
      </trkpt>
      <trkpt lat="48.511376716196537017822265625" lon="10.15420353971421718597412109375">
        <ele>504.20001220703125</ele>
        <time>2018-08-16T14:40:22.000Z</time>
      </trkpt>
      <trkpt lat="48.511422984302043914794921875" lon="10.15454870648682117462158203125">
        <ele>505</ele>
        <time>2018-08-16T14:40:27.000Z</time>
      </trkpt>
      <trkpt lat="48.51143849082291126251220703125" lon="10.1546929590404033660888671875">
        <ele>505.399993896484375</ele>
        <time>2018-08-16T14:40:29.000Z</time>
      </trkpt>
      <trkpt lat="48.5114912129938602447509765625" lon="10.1551412232220172882080078125">
        <ele>506.399993896484375</ele>
        <time>2018-08-16T14:40:35.000Z</time>
      </trkpt>
      <trkpt lat="48.51154225878417491912841796875" lon="10.15552670694887638092041015625">
        <ele>507.399993896484375</ele>
        <time>2018-08-16T14:40:40.000Z</time>
      </trkpt>
      <trkpt lat="48.51164636202156543731689453125" lon="10.1560628972947597503662109375">
        <ele>508.600006103515625</ele>
        <time>2018-08-16T14:40:47.000Z</time>
      </trkpt>
      <trkpt lat="48.51184518076479434967041015625" lon="10.15674677677452564239501953125">
        <ele>509.600006103515625</ele>
        <time>2018-08-16T14:40:56.000Z</time>
      </trkpt>
      <trkpt lat="48.5121641121804714202880859375" lon="10.15747181139886379241943359375">
        <ele>510.600006103515625</ele>
        <time>2018-08-16T14:41:06.000Z</time>
      </trkpt>
      <trkpt lat="48.51250835694372653961181640625" lon="10.15807681716978549957275390625">
        <ele>511.79998779296875</ele>
        <time>2018-08-16T14:41:15.000Z</time>
      </trkpt>
      <trkpt lat="48.512775488197803497314453125" lon="10.15852893702685832977294921875">
        <ele>513</ele>
        <time>2018-08-16T14:41:22.000Z</time>
      </trkpt>
      <trkpt lat="48.51295863278210163116455078125" lon="10.15883655287325382232666015625">
        <ele>514</ele>
        <time>2018-08-16T14:41:27.000Z</time>
      </trkpt>
      <trkpt lat="48.5131045617163181304931640625" lon="10.15908189117908477783203125">
        <ele>515.20001220703125</ele>
        <time>2018-08-16T14:41:31.000Z</time>
      </trkpt>
      <trkpt lat="48.513239510357379913330078125" lon="10.15934047289192676544189453125">
        <ele>516.20001220703125</ele>
        <time>2018-08-16T14:41:35.000Z</time>
      </trkpt>
      <trkpt lat="48.51335811428725719451904296875" lon="10.1596077717840671539306640625">
        <ele>517.4000244140625</ele>
        <time>2018-08-16T14:41:39.000Z</time>
      </trkpt>
      <trkpt lat="48.5134666599333286285400390625" lon="10.1599011383950710296630859375">
        <ele>518.79998779296875</ele>
        <time>2018-08-16T14:41:43.000Z</time>
      </trkpt>
      <trkpt lat="48.51355391554534435272216796875" lon="10.1602122746407985687255859375">
        <ele>519.79998779296875</ele>
        <time>2018-08-16T14:41:47.000Z</time>
      </trkpt>
      <trkpt lat="48.51365424692630767822265625" lon="10.16061452217400074005126953125">
        <ele>521</ele>
        <time>2018-08-16T14:41:52.000Z</time>
      </trkpt>
      <trkpt lat="48.5137526504695415496826171875" lon="10.16102246940135955810546875">
        <ele>522</ele>
        <time>2018-08-16T14:41:57.000Z</time>
      </trkpt>
      <trkpt lat="48.5139434225857257843017578125" lon="10.161798298358917236328125">
        <ele>523.20001220703125</ele>
        <time>2018-08-16T14:42:06.000Z</time>
      </trkpt>
      <trkpt lat="48.51412690244615077972412109375" lon="10.1624261029064655303955078125">
        <ele>523.79998779296875</ele>
        <time>2018-08-16T14:42:13.000Z</time>
      </trkpt>
      <trkpt lat="48.5144698061048984527587890625" lon="10.163168571889400482177734375">
        <ele>524</ele>
        <time>2018-08-16T14:42:22.000Z</time>
      </trkpt>
      <trkpt lat="48.514777757227420806884765625" lon="10.1635942049324512481689453125">
        <ele>524.20001220703125</ele>
        <time>2018-08-16T14:42:28.000Z</time>
      </trkpt>
      <trkpt lat="48.5152654163539409637451171875" lon="10.1640548743307590484619140625">
        <ele>524.20001220703125</ele>
        <time>2018-08-16T14:42:36.000Z</time>
      </trkpt>
      <trkpt lat="48.51575517095625400543212890625" lon="10.16453792341053485870361328125">
        <ele>524.79998779296875</ele>
        <time>2018-08-16T14:42:44.000Z</time>
      </trkpt>
      <trkpt lat="48.51615515537559986114501953125" lon="10.165017284452915191650390625">
        <ele>525.20001220703125</ele>
        <time>2018-08-16T14:42:51.000Z</time>
      </trkpt>
      <trkpt lat="48.5165967978537082672119140625" lon="10.1656212843954563140869140625">
        <ele>526.20001220703125</ele>
        <time>2018-08-16T14:42:59.000Z</time>
      </trkpt>
      <trkpt lat="48.51670417003333568572998046875" lon="10.16578607261180877685546875">
        <ele>526.4000244140625</ele>
        <time>2018-08-16T14:43:01.000Z</time>
      </trkpt>
      <trkpt lat="48.517060987651348114013671875" lon="10.166407339274883270263671875">
        <ele>527.20001220703125</ele>
        <time>2018-08-16T14:43:08.000Z</time>
      </trkpt>
      <trkpt lat="48.51725435815751552581787109375" lon="10.16678812913596630096435546875">
        <ele>527.4000244140625</ele>
        <time>2018-08-16T14:43:12.000Z</time>
      </trkpt>
      <trkpt lat="48.51756029762327671051025390625" lon="10.16750729642808437347412109375">
        <ele>527.79998779296875</ele>
        <time>2018-08-16T14:43:19.000Z</time>
      </trkpt>
      <trkpt lat="48.5177330486476421356201171875" lon="10.16807408072054386138916015625">
        <ele>527.79998779296875</ele>
        <time>2018-08-16T14:43:24.000Z</time>
      </trkpt>
      <trkpt lat="48.51778040640056133270263671875" lon="10.16830022446811199188232421875">
        <ele>527.79998779296875</ele>
        <time>2018-08-16T14:43:26.000Z</time>
      </trkpt>
      <trkpt lat="48.5178902931511402130126953125" lon="10.16871345229446887969970703125">
        <ele>528</ele>
        <time>2018-08-16T14:43:30.000Z</time>
      </trkpt>
      <trkpt lat="48.5179493017494678497314453125" lon="10.168785117566585540771484375">
        <ele>528</ele>
        <time>2018-08-16T14:43:31.000Z</time>
      </trkpt>
      <trkpt lat="48.51800453849136829376220703125" lon="10.168866254389286041259765625">
        <ele>528</ele>
        <time>2018-08-16T14:43:32.000Z</time>
      </trkpt>
      <trkpt lat="48.5181749425828456878662109375" lon="10.169265568256378173828125">
        <ele>528.4000244140625</ele>
        <time>2018-08-16T14:43:36.000Z</time>
      </trkpt>
      <trkpt lat="48.51823990233242511749267578125" lon="10.16948726959526538848876953125">
        <ele>528.5999755859375</ele>
        <time>2018-08-16T14:43:38.000Z</time>
      </trkpt>
      <trkpt lat="48.518401421606540679931640625" lon="10.1700479350984096527099609375">
        <ele>529</ele>
        <time>2018-08-16T14:43:43.000Z</time>
      </trkpt>
      <trkpt lat="48.5188243724405765533447265625" lon="10.17017123289406299591064453125">
        <ele>529</ele>
        <time>2018-08-16T14:43:49.000Z</time>
      </trkpt>
      <trkpt lat="48.5191428847610950469970703125" lon="10.170073918998241424560546875">
        <ele>529</ele>
        <time>2018-08-16T14:43:53.000Z</time>
      </trkpt>
      <trkpt lat="48.51937363855540752410888671875" lon="10.17017818987369537353515625">
        <ele>528.79998779296875</ele>
        <time>2018-08-16T14:43:56.000Z</time>
      </trkpt>
      <trkpt lat="48.519491739571094512939453125" lon="10.17035387456417083740234375">
        <ele>528.79998779296875</ele>
        <time>2018-08-16T14:43:58.000Z</time>
      </trkpt>
      <trkpt lat="48.51957782171666622161865234375" lon="10.1705820299685001373291015625">
        <ele>528.79998779296875</ele>
        <time>2018-08-16T14:44:00.000Z</time>
      </trkpt>
      <trkpt lat="48.51990018971264362335205078125" lon="10.17138945870101451873779296875">
        <ele>528.4000244140625</ele>
        <time>2018-08-16T14:44:07.000Z</time>
      </trkpt>
      <trkpt lat="48.52025608532130718231201171875" lon="10.17215363681316375732421875">
        <ele>528.20001220703125</ele>
        <time>2018-08-16T14:44:14.000Z</time>
      </trkpt>
      <trkpt lat="48.52062891237437725067138671875" lon="10.1728736422955989837646484375">
        <ele>528</ele>
        <time>2018-08-16T14:44:21.000Z</time>
      </trkpt>
      <trkpt lat="48.52090467698872089385986328125" lon="10.173409916460514068603515625">
        <ele>527.5999755859375</ele>
        <time>2018-08-16T14:44:26.000Z</time>
      </trkpt>
      <trkpt lat="48.5211377777159214019775390625" lon="10.17386027611792087554931640625">
        <ele>527.4000244140625</ele>
        <time>2018-08-16T14:44:30.000Z</time>
      </trkpt>
      <trkpt lat="48.5214388556778430938720703125" lon="10.17443929798901081085205078125">
        <ele>526.5999755859375</ele>
        <time>2018-08-16T14:44:35.000Z</time>
      </trkpt>
      <trkpt lat="48.52169475518167018890380859375" lon="10.17490088939666748046875">
        <ele>525.20001220703125</ele>
        <time>2018-08-16T14:44:39.000Z</time>
      </trkpt>
      <trkpt lat="48.52206221781671047210693359375" lon="10.1754016242921352386474609375">
        <ele>524.20001220703125</ele>
        <time>2018-08-16T14:44:44.000Z</time>
      </trkpt>
      <trkpt lat="48.52249053306877613067626953125" lon="10.175768919289112091064453125">
        <ele>523</ele>
        <time>2018-08-16T14:44:49.000Z</time>
      </trkpt>
      <trkpt lat="48.5227548144757747650146484375" lon="10.1759612001478672027587890625">
        <ele>522.4000244140625</ele>
        <time>2018-08-16T14:44:52.000Z</time>
      </trkpt>
      <trkpt lat="48.52325563319027423858642578125" lon="10.17635397613048553466796875">
        <ele>522.20001220703125</ele>
        <time>2018-08-16T14:44:58.000Z</time>
      </trkpt>
      <trkpt lat="48.52360717020928859710693359375" lon="10.17673015594482421875">
        <ele>522.20001220703125</ele>
        <time>2018-08-16T14:45:03.000Z</time>
      </trkpt>
      <trkpt lat="48.52401520125567913055419921875" lon="10.1773918233811855316162109375">
        <ele>523.20001220703125</ele>
        <time>2018-08-16T14:45:11.000Z</time>
      </trkpt>
      <trkpt lat="48.52420714683830738067626953125" lon="10.17781871370971202850341796875">
        <ele>524.20001220703125</ele>
        <time>2018-08-16T14:45:16.000Z</time>
      </trkpt>
      <trkpt lat="48.5243503935635089874267578125" lon="10.178143344819545745849609375">
        <ele>525.4000244140625</ele>
        <time>2018-08-16T14:45:20.000Z</time>
      </trkpt>
      <trkpt lat="48.52445106022059917449951171875" lon="10.17837543971836566925048828125">
        <ele>526.4000244140625</ele>
        <time>2018-08-16T14:45:23.000Z</time>
      </trkpt>
      <trkpt lat="48.52454946376383304595947265625" lon="10.1785974763333797454833984375">
        <ele>527.4000244140625</ele>
        <time>2018-08-16T14:45:26.000Z</time>
      </trkpt>
      <trkpt lat="48.52464686147868633270263671875" lon="10.1788110472261905670166015625">
        <ele>528.5999755859375</ele>
        <time>2018-08-16T14:45:29.000Z</time>
      </trkpt>
      <trkpt lat="48.52477862499654293060302734375" lon="10.17908178269863128662109375">
        <ele>529.79998779296875</ele>
        <time>2018-08-16T14:45:33.000Z</time>
      </trkpt>
      <trkpt lat="48.52492715232074260711669921875" lon="10.1793313957750797271728515625">
        <ele>531</ele>
        <time>2018-08-16T14:45:37.000Z</time>
      </trkpt>
      <trkpt lat="48.525084815919399261474609375" lon="10.17955720424652099609375">
        <ele>532.20001220703125</ele>
        <time>2018-08-16T14:45:41.000Z</time>
      </trkpt>
      <trkpt lat="48.52529771625995635986328125" lon="10.17980338074266910552978515625">
        <ele>533.4000244140625</ele>
        <time>2018-08-16T14:45:46.000Z</time>
      </trkpt>
      <trkpt lat="48.5255288891494274139404296875" lon="10.180024914443492889404296875">
        <ele>534.5999755859375</ele>
        <time>2018-08-16T14:45:51.000Z</time>
      </trkpt>
      <trkpt lat="48.5257250256836414337158203125" lon="10.18019095994532108306884765625">
        <ele>535.79998779296875</ele>
        <time>2018-08-16T14:45:55.000Z</time>
      </trkpt>
      <trkpt lat="48.5260815918445587158203125" lon="10.1805015094578266143798828125">
        <ele>536.79998779296875</ele>
        <time>2018-08-16T14:46:02.000Z</time>
      </trkpt>
      <trkpt lat="48.5265142656862735748291015625" lon="10.18105320632457733154296875">
        <ele>537.79998779296875</ele>
        <time>2018-08-16T14:46:11.000Z</time>
      </trkpt>
      <trkpt lat="48.526641838252544403076171875" lon="10.18127541057765483856201171875">
        <ele>537.79998779296875</ele>
        <time>2018-08-16T14:46:14.000Z</time>
      </trkpt>
      <trkpt lat="48.526944257318973541259765625" lon="10.18197446130216121673583984375">
        <ele>538.20001220703125</ele>
        <time>2018-08-16T14:46:22.000Z</time>
      </trkpt>
      <trkpt lat="48.5272170044481754302978515625" lon="10.1826618611812591552734375">
        <ele>538</ele>
        <time>2018-08-16T14:46:29.000Z</time>
      </trkpt>
      <trkpt lat="48.5274280607700347900390625" lon="10.1831874065101146697998046875">
        <ele>537.4000244140625</ele>
        <time>2018-08-16T14:46:34.000Z</time>
      </trkpt>
      <trkpt lat="48.5275680385529994964599609375" lon="10.18352092243731021881103515625">
        <ele>536.79998779296875</ele>
        <time>2018-08-16T14:46:37.000Z</time>
      </trkpt>
      <trkpt lat="48.5277175717055797576904296875" lon="10.183867178857326507568359375">
        <ele>536.4000244140625</ele>
        <time>2018-08-16T14:46:40.000Z</time>
      </trkpt>
      <trkpt lat="48.527820669114589691162109375" lon="10.18410296179354190826416015625">
        <ele>536</ele>
        <time>2018-08-16T14:46:42.000Z</time>
      </trkpt>
      <trkpt lat="48.5278733074665069580078125" lon="10.18422097899019718170166015625">
        <ele>535.79998779296875</ele>
        <time>2018-08-16T14:46:43.000Z</time>
      </trkpt>
      <trkpt lat="48.528086878359317779541015625" lon="10.18469296395778656005859375">
        <ele>534.79998779296875</ele>
        <time>2018-08-16T14:46:47.000Z</time>
      </trkpt>
      <trkpt lat="48.52819877676665782928466796875" lon="10.184930004179477691650390625">
        <ele>534.20001220703125</ele>
        <time>2018-08-16T14:46:49.000Z</time>
      </trkpt>
      <trkpt lat="48.5282566957175731658935546875" lon="10.185048691928386688232421875">
        <ele>533.4000244140625</ele>
        <time>2018-08-16T14:46:50.000Z</time>
      </trkpt>
      <trkpt lat="48.52837622165679931640625" lon="10.18528640270233154296875">
        <ele>532.79998779296875</ele>
        <time>2018-08-16T14:46:52.000Z</time>
      </trkpt>
      <trkpt lat="48.5284387506544589996337890625" lon="10.1854045875370502471923828125">
        <ele>532.4000244140625</ele>
        <time>2018-08-16T14:46:53.000Z</time>
      </trkpt>
      <trkpt lat="48.52863145060837268829345703125" lon="10.185769535601139068603515625">
        <ele>530.79998779296875</ele>
        <time>2018-08-16T14:46:56.000Z</time>
      </trkpt>
      <trkpt lat="48.5287659801542758941650390625" lon="10.1860225014388561248779296875">
        <ele>530</ele>
        <time>2018-08-16T14:46:58.000Z</time>
      </trkpt>
      <trkpt lat="48.52883554995059967041015625" lon="10.18615166656672954559326171875">
        <ele>529.5999755859375</ele>
        <time>2018-08-16T14:46:59.000Z</time>
      </trkpt>
      <trkpt lat="48.52904803119599819183349609375" lon="10.1865537464618682861328125">
        <ele>528.4000244140625</ele>
        <time>2018-08-16T14:47:02.000Z</time>
      </trkpt>
      <trkpt lat="48.52919253520667552947998046875" lon="10.18682892434298992156982421875">
        <ele>527.20001220703125</ele>
        <time>2018-08-16T14:47:04.000Z</time>
      </trkpt>
      <trkpt lat="48.52926461957395076751708984375" lon="10.18697091378271579742431640625">
        <ele>526.5999755859375</ele>
        <time>2018-08-16T14:47:05.000Z</time>
      </trkpt>
      <trkpt lat="48.52933586575090885162353515625" lon="10.18711675889790058135986328125">
        <ele>526.20001220703125</ele>
        <time>2018-08-16T14:47:06.000Z</time>
      </trkpt>
      <trkpt lat="48.52946058847010135650634765625" lon="10.187427140772342681884765625">
        <ele>525</ele>
        <time>2018-08-16T14:47:08.000Z</time>
      </trkpt>
      <trkpt lat="48.52953401394188404083251953125" lon="10.18776535056531429290771484375">
        <ele>523.79998779296875</ele>
        <time>2018-08-16T14:47:10.000Z</time>
      </trkpt>
      <trkpt lat="48.5295659489929676055908203125" lon="10.18810766749083995819091796875">
        <ele>522.5999755859375</ele>
        <time>2018-08-16T14:47:12.000Z</time>
      </trkpt>
      <trkpt lat="48.529581539332866668701171875" lon="10.18844109959900379180908203125">
        <ele>521.4000244140625</ele>
        <time>2018-08-16T14:47:14.000Z</time>
      </trkpt>
      <trkpt lat="48.5296011529862880706787109375" lon="10.1887653954327106475830078125">
        <ele>520</ele>
        <time>2018-08-16T14:47:16.000Z</time>
      </trkpt>
      <trkpt lat="48.5296138934791088104248046875" lon="10.18892322666943073272705078125">
        <ele>518.5999755859375</ele>
        <time>2018-08-16T14:47:17.000Z</time>
      </trkpt>
      <trkpt lat="48.5296360217034816741943359375" lon="10.18923788331449031829833984375">
        <ele>518</ele>
        <time>2018-08-16T14:47:19.000Z</time>
      </trkpt>
      <trkpt lat="48.52964918129146099090576171875" lon="10.1895529590547084808349609375">
        <ele>517.20001220703125</ele>
        <time>2018-08-16T14:47:21.000Z</time>
      </trkpt>
      <trkpt lat="48.5296028293669223785400390625" lon="10.19017632119357585906982421875">
        <ele>516</ele>
        <time>2018-08-16T14:47:25.000Z</time>
      </trkpt>
      <trkpt lat="48.52956485934555530548095703125" lon="10.19064453430473804473876953125">
        <ele>514.79998779296875</ele>
        <time>2018-08-16T14:47:28.000Z</time>
      </trkpt>
      <trkpt lat="48.52958648465573787689208984375" lon="10.191101096570491790771484375">
        <ele>513.79998779296875</ele>
        <time>2018-08-16T14:47:31.000Z</time>
      </trkpt>
      <trkpt lat="48.5296256281435489654541015625" lon="10.19123897887766361236572265625">
        <ele>513.5999755859375</ele>
        <time>2018-08-16T14:47:32.000Z</time>
      </trkpt>
      <trkpt lat="48.52982235141098499298095703125" lon="10.1915243826806545257568359375">
        <ele>512.4000244140625</ele>
        <time>2018-08-16T14:47:35.000Z</time>
      </trkpt>
      <trkpt lat="48.53005327284336090087890625" lon="10.1916196011006832122802734375">
        <ele>511.600006103515625</ele>
        <time>2018-08-16T14:47:38.000Z</time>
      </trkpt>
      <trkpt lat="48.5301268659532070159912109375" lon="10.191636197268962860107421875">
        <ele>511.399993896484375</ele>
        <time>2018-08-16T14:47:39.000Z</time>
      </trkpt>
      <trkpt lat="48.5302589647471904754638671875" lon="10.19169596023857593536376953125">
        <ele>511</ele>
        <time>2018-08-16T14:47:41.000Z</time>
      </trkpt>
      <trkpt lat="48.53030967526137828826904296875" lon="10.19174776040017604827880859375">
        <ele>511</ele>
        <time>2018-08-16T14:47:42.000Z</time>
      </trkpt>
      <trkpt lat="48.53041478432714939117431640625" lon="10.191923864185810089111328125">
        <ele>511</ele>
        <time>2018-08-16T14:47:45.000Z</time>
      </trkpt>
      <trkpt lat="48.53047949261963367462158203125" lon="10.1920909993350505828857421875">
        <ele>511</ele>
        <time>2018-08-16T14:47:48.000Z</time>
      </trkpt>
      <trkpt lat="48.5305365733802318572998046875" lon="10.192230977118015289306640625">
        <ele>511.600006103515625</ele>
        <time>2018-08-16T14:47:51.000Z</time>
      </trkpt>
      <trkpt lat="48.53055442683398723602294921875" lon="10.19227414391934871673583984375">
        <ele>511.79998779296875</ele>
        <time>2018-08-16T14:47:52.000Z</time>
      </trkpt>
      <trkpt lat="48.53058275766670703887939453125" lon="10.192354358732700347900390625">
        <ele>512.4000244140625</ele>
        <time>2018-08-16T14:47:54.000Z</time>
      </trkpt>
      <trkpt lat="48.53059281595051288604736328125" lon="10.19238478504121303558349609375">
        <ele>512.79998779296875</ele>
        <time>2018-08-16T14:47:55.000Z</time>
      </trkpt>
      <trkpt lat="48.53060103021562099456787109375" lon="10.19240565598011016845703125">
        <ele>513</ele>
        <time>2018-08-16T14:47:56.000Z</time>
      </trkpt>
      <trkpt lat="48.5306126810610294342041015625" lon="10.19242233596742153167724609375">
        <ele>513.79998779296875</ele>
        <time>2018-08-16T14:47:59.000Z</time>
      </trkpt>
      <trkpt lat="48.53062081150710582733154296875" lon="10.192430131137371063232421875">
        <ele>515</ele>
        <time>2018-08-16T14:48:03.000Z</time>
      </trkpt>
      <trkpt lat="48.5306743718683719635009765625" lon="10.19244848750531673431396484375">
        <ele>515.79998779296875</ele>
        <time>2018-08-16T14:49:13.000Z</time>
      </trkpt>
      <trkpt lat="48.530712090432643890380859375" lon="10.1924986951053142547607421875">
        <ele>515.79998779296875</ele>
        <time>2018-08-16T14:49:16.000Z</time>
      </trkpt>
      <trkpt lat="48.5308064706623554229736328125" lon="10.192660130560398101806640625">
        <ele>516</ele>
        <time>2018-08-16T14:49:21.000Z</time>
      </trkpt>
      <trkpt lat="48.5308591090142726898193359375" lon="10.1927890442311763763427734375">
        <ele>516.20001220703125</ele>
        <time>2018-08-16T14:49:24.000Z</time>
      </trkpt>
      <trkpt lat="48.5309060476720333099365234375" lon="10.19293044693768024444580078125">
        <ele>516.4000244140625</ele>
        <time>2018-08-16T14:49:27.000Z</time>
      </trkpt>
      <trkpt lat="48.530943095684051513671875" lon="10.193091966211795806884765625">
        <ele>516.79998779296875</ele>
        <time>2018-08-16T14:49:30.000Z</time>
      </trkpt>
      <trkpt lat="48.53095474652945995330810546875" lon="10.1931464485824108123779296875">
        <ele>517</ele>
        <time>2018-08-16T14:49:31.000Z</time>
      </trkpt>
      <trkpt lat="48.53099682368338108062744140625" lon="10.19331358373165130615234375">
        <ele>518</ele>
        <time>2018-08-16T14:49:34.000Z</time>
      </trkpt>
      <trkpt lat="48.53101073764264583587646484375" lon="10.1933677308261394500732421875">
        <ele>518</ele>
        <time>2018-08-16T14:49:35.000Z</time>
      </trkpt>
      <trkpt lat="48.53107921779155731201171875" lon="10.19364483654499053955078125">
        <ele>519.20001220703125</ele>
        <time>2018-08-16T14:49:40.000Z</time>
      </trkpt>
      <trkpt lat="48.53111383505165576934814453125" lon="10.19381306134164333343505859375">
        <ele>519.5999755859375</ele>
        <time>2018-08-16T14:49:43.000Z</time>
      </trkpt>
      <trkpt lat="48.53114132769405841827392578125" lon="10.19398002885282039642333984375">
        <ele>520.20001220703125</ele>
        <time>2018-08-16T14:49:46.000Z</time>
      </trkpt>
      <trkpt lat="48.53117854334414005279541015625" lon="10.1942087709903717041015625">
        <ele>521.20001220703125</ele>
        <time>2018-08-16T14:49:50.000Z</time>
      </trkpt>
      <trkpt lat="48.531183488667011260986328125" lon="10.19427037797868251800537109375">
        <ele>521.4000244140625</ele>
        <time>2018-08-16T14:49:51.000Z</time>
      </trkpt>
      <trkpt lat="48.531212992966175079345703125" lon="10.19458972848951816558837890625">
        <ele>522.5999755859375</ele>
        <time>2018-08-16T14:49:56.000Z</time>
      </trkpt>
      <trkpt lat="48.5312316007912158966064453125" lon="10.194797180593013763427734375">
        <ele>523.5999755859375</ele>
        <time>2018-08-16T14:49:59.000Z</time>
      </trkpt>
      <trkpt lat="48.5312783718109130859375" lon="10.195175372064113616943359375">
        <ele>524.5999755859375</ele>
        <time>2018-08-16T14:50:04.000Z</time>
      </trkpt>
      <trkpt lat="48.53135950863361358642578125" lon="10.19568490795791149139404296875">
        <ele>525.4000244140625</ele>
        <time>2018-08-16T14:50:10.000Z</time>
      </trkpt>
      <trkpt lat="48.5314471833407878875732421875" lon="10.1960553042590618133544921875">
        <ele>525.4000244140625</ele>
        <time>2018-08-16T14:50:14.000Z</time>
      </trkpt>
      <trkpt lat="48.531679697334766387939453125" lon="10.19688335247337818145751953125">
        <ele>525</ele>
        <time>2018-08-16T14:50:22.000Z</time>
      </trkpt>
      <trkpt lat="48.53185295127332210540771484375" lon="10.19746002741158008575439453125">
        <ele>523.79998779296875</ele>
        <time>2018-08-16T14:50:27.000Z</time>
      </trkpt>
      <trkpt lat="48.53199494071304798126220703125" lon="10.1979318447411060333251953125">
        <ele>523</ele>
        <time>2018-08-16T14:50:31.000Z</time>
      </trkpt>
      <trkpt lat="48.53203014470636844635009765625" lon="10.1980483531951904296875">
        <ele>522.79998779296875</ele>
        <time>2018-08-16T14:50:32.000Z</time>
      </trkpt>
      <trkpt lat="48.53206451050937175750732421875" lon="10.1981651969254016876220703125">
        <ele>522.5999755859375</ele>
        <time>2018-08-16T14:50:33.000Z</time>
      </trkpt>
      <trkpt lat="48.5322870500385761260986328125" lon="10.1989936642348766326904296875">
        <ele>521.79998779296875</ele>
        <time>2018-08-16T14:50:40.000Z</time>
      </trkpt>
      <trkpt lat="48.53235083632171154022216796875" lon="10.1992364041507244110107421875">
        <ele>521.5999755859375</ele>
        <time>2018-08-16T14:50:42.000Z</time>
      </trkpt>
      <trkpt lat="48.53245141915977001190185546875" lon="10.19960512407124042510986328125">
        <ele>521.5999755859375</ele>
        <time>2018-08-16T14:50:45.000Z</time>
      </trkpt>
      <trkpt lat="48.53248997591435909271240234375" lon="10.19972867332398891448974609375">
        <ele>521.5999755859375</ele>
        <time>2018-08-16T14:50:46.000Z</time>
      </trkpt>
      <trkpt lat="48.53266616351902484893798828125" lon="10.200261175632476806640625">
        <ele>521.20001220703125</ele>
        <time>2018-08-16T14:50:50.000Z</time>
      </trkpt>
      <trkpt lat="48.53276724927127361297607421875" lon="10.20056233741343021392822265625">
        <ele>521.20001220703125</ele>
        <time>2018-08-16T14:50:52.000Z</time>
      </trkpt>
      <trkpt lat="48.53287721984088420867919921875" lon="10.20088923163712024688720703125">
        <ele>520.79998779296875</ele>
        <time>2018-08-16T14:50:54.000Z</time>
      </trkpt>
      <trkpt lat="48.53293153457343578338623046875" lon="10.20105938427150249481201171875">
        <ele>520.20001220703125</ele>
        <time>2018-08-16T14:50:55.000Z</time>
      </trkpt>
      <trkpt lat="48.53303278796374797821044921875" lon="10.20139834843575954437255859375">
        <ele>518.5999755859375</ele>
        <time>2018-08-16T14:50:57.000Z</time>
      </trkpt>
      <trkpt lat="48.53312012739479541778564453125" lon="10.20172901451587677001953125">
        <ele>516.79998779296875</ele>
        <time>2018-08-16T14:50:59.000Z</time>
      </trkpt>
      <trkpt lat="48.5331599414348602294921875" lon="10.20188969559967517852783203125">
        <ele>515.79998779296875</ele>
        <time>2018-08-16T14:51:00.000Z</time>
      </trkpt>
      <trkpt lat="48.5332321934401988983154296875" lon="10.20220602862536907196044921875">
        <ele>513.79998779296875</ele>
        <time>2018-08-16T14:51:02.000Z</time>
      </trkpt>
      <trkpt lat="48.53330000303685665130615234375" lon="10.2025143988430500030517578125">
        <ele>512.5999755859375</ele>
        <time>2018-08-16T14:51:04.000Z</time>
      </trkpt>
      <trkpt lat="48.53333286009728908538818359375" lon="10.2026666142046451568603515625">
        <ele>512.4000244140625</ele>
        <time>2018-08-16T14:51:05.000Z</time>
      </trkpt>
      <trkpt lat="48.53343151509761810302734375" lon="10.20311378873884677886962890625">
        <ele>512</ele>
        <time>2018-08-16T14:51:08.000Z</time>
      </trkpt>
      <trkpt lat="48.5334947146475315093994140625" lon="10.2034022100269794464111328125">
        <ele>511.600006103515625</ele>
        <time>2018-08-16T14:51:10.000Z</time>
      </trkpt>
      <trkpt lat="48.5336157493293285369873046875" lon="10.203946530818939208984375">
        <ele>511.600006103515625</ele>
        <time>2018-08-16T14:51:14.000Z</time>
      </trkpt>
      <trkpt lat="48.53370300494134426116943359375" lon="10.204336456954479217529296875">
        <ele>511.399993896484375</ele>
        <time>2018-08-16T14:51:17.000Z</time>
      </trkpt>
      <trkpt lat="48.53388573043048381805419921875" lon="10.2051597274839878082275390625">
        <ele>511.399993896484375</ele>
        <time>2018-08-16T14:51:23.000Z</time>
      </trkpt>
      <trkpt lat="48.534078933298587799072265625" lon="10.206026919186115264892578125">
        <ele>510.399993896484375</ele>
        <time>2018-08-16T14:51:29.000Z</time>
      </trkpt>
      <trkpt lat="48.53416099213063716888427734375" lon="10.20644241012632846832275390625">
        <ele>509</ele>
        <time>2018-08-16T14:51:32.000Z</time>
      </trkpt>
      <trkpt lat="48.5342435538768768310546875" lon="10.206969715654850006103515625">
        <ele>508</ele>
        <time>2018-08-16T14:51:36.000Z</time>
      </trkpt>
      <trkpt lat="48.53430449031293392181396484375" lon="10.20747455768287181854248046875">
        <ele>508</ele>
        <time>2018-08-16T14:51:40.000Z</time>
      </trkpt>
      <trkpt lat="48.53451236151158809661865234375" lon="10.20831291563808917999267578125">
        <ele>508.399993896484375</ele>
        <time>2018-08-16T14:51:47.000Z</time>
      </trkpt>
      <trkpt lat="48.5346705280244350433349609375" lon="10.2087817154824733734130859375">
        <ele>509</ele>
        <time>2018-08-16T14:51:51.000Z</time>
      </trkpt>
      <trkpt lat="48.53488971479237079620361328125" lon="10.20955746062099933624267578125">
        <ele>509.20001220703125</ele>
        <time>2018-08-16T14:51:57.000Z</time>
      </trkpt>
      <trkpt lat="48.53498778305947780609130859375" lon="10.21027545444667339324951171875">
        <ele>509.20001220703125</ele>
        <time>2018-08-16T14:52:02.000Z</time>
      </trkpt>
      <trkpt lat="48.53499884717166423797607421875" lon="10.2105767838656902313232421875">
        <ele>509</ele>
        <time>2018-08-16T14:52:04.000Z</time>
      </trkpt>
      <trkpt lat="48.53501326404511928558349609375" lon="10.21132771857082843780517578125">
        <ele>508.399993896484375</ele>
        <time>2018-08-16T14:52:09.000Z</time>
      </trkpt>
      <trkpt lat="48.535043857991695404052734375" lon="10.211617313325405120849609375">
        <ele>508.20001220703125</ele>
        <time>2018-08-16T14:52:11.000Z</time>
      </trkpt>
      <trkpt lat="48.535096161067485809326171875" lon="10.2118967659771442413330078125">
        <ele>507.79998779296875</ele>
        <time>2018-08-16T14:52:13.000Z</time>
      </trkpt>
      <trkpt lat="48.5351260006427764892578125" lon="10.21203414537012577056884765625">
        <ele>507.600006103515625</ele>
        <time>2018-08-16T14:52:14.000Z</time>
      </trkpt>
      <trkpt lat="48.53515877388417720794677734375" lon="10.2121693454682826995849609375">
        <ele>507.399993896484375</ele>
        <time>2018-08-16T14:52:15.000Z</time>
      </trkpt>
      <trkpt lat="48.53519448079168796539306640625" lon="10.21230236627161502838134765625">
        <ele>507</ele>
        <time>2018-08-16T14:52:16.000Z</time>
      </trkpt>
      <trkpt lat="48.5354409925639629364013671875" lon="10.21307467482984066009521484375">
        <ele>506.20001220703125</ele>
        <time>2018-08-16T14:52:22.000Z</time>
      </trkpt>
      <trkpt lat="48.53548902086913585662841796875" lon="10.21320040337741374969482421875">
        <ele>506.20001220703125</ele>
        <time>2018-08-16T14:52:23.000Z</time>
      </trkpt>
      <trkpt lat="48.53559471666812896728515625" lon="10.21345320157706737518310546875">
        <ele>506</ele>
        <time>2018-08-16T14:52:25.000Z</time>
      </trkpt>
      <trkpt lat="48.53581960313022136688232421875" lon="10.21396919153630733489990234375">
        <ele>505.79998779296875</ele>
        <time>2018-08-16T14:52:29.000Z</time>
      </trkpt>
      <trkpt lat="48.536090590059757232666015625" lon="10.21461702883243560791015625">
        <ele>504.79998779296875</ele>
        <time>2018-08-16T14:52:34.000Z</time>
      </trkpt>
      <trkpt lat="48.53628764860332012176513671875" lon="10.21512991748750209808349609375">
        <ele>503.600006103515625</ele>
        <time>2018-08-16T14:52:38.000Z</time>
      </trkpt>
      <trkpt lat="48.53643081150949001312255859375" lon="10.2155140601098537445068359375">
        <ele>503.20001220703125</ele>
        <time>2018-08-16T14:52:41.000Z</time>
      </trkpt>
      <trkpt lat="48.53669735603034496307373046875" lon="10.21625074557960033416748046875">
        <ele>502.600006103515625</ele>
        <time>2018-08-16T14:52:47.000Z</time>
      </trkpt>
      <trkpt lat="48.5367777384817600250244140625" lon="10.21648694761097431182861328125">
        <ele>502.600006103515625</ele>
        <time>2018-08-16T14:52:49.000Z</time>
      </trkpt>
      <trkpt lat="48.53694747202098369598388671875" lon="10.2170724235475063323974609375">
        <ele>502.600006103515625</ele>
        <time>2018-08-16T14:52:54.000Z</time>
      </trkpt>
      <trkpt lat="48.53697605431079864501953125" lon="10.21718733943998813629150390625">
        <ele>502.600006103515625</ele>
        <time>2018-08-16T14:52:55.000Z</time>
      </trkpt>
      <trkpt lat="48.53703238070011138916015625" lon="10.2174130640923976898193359375">
        <ele>502.600006103515625</ele>
        <time>2018-08-16T14:52:57.000Z</time>
      </trkpt>
      <trkpt lat="48.53717990219593048095703125" lon="10.21798588335514068603515625">
        <ele>503</ele>
        <time>2018-08-16T14:53:02.000Z</time>
      </trkpt>
      <trkpt lat="48.5374161042273044586181640625" lon="10.218808315694332122802734375">
        <ele>503</ele>
        <time>2018-08-16T14:53:09.000Z</time>
      </trkpt>
      <trkpt lat="48.53748056106269359588623046875" lon="10.21904124878346920013427734375">
        <ele>502.600006103515625</ele>
        <time>2018-08-16T14:53:11.000Z</time>
      </trkpt>
      <trkpt lat="48.53754811920225620269775390625" lon="10.21926269866526126861572265625">
        <ele>502.600006103515625</ele>
        <time>2018-08-16T14:53:13.000Z</time>
      </trkpt>
      <trkpt lat="48.53764115832746028900146484375" lon="10.21960082463920116424560546875">
        <ele>502.399993896484375</ele>
        <time>2018-08-16T14:53:16.000Z</time>
      </trkpt>
      <trkpt lat="48.53777526877820491790771484375" lon="10.22013860754668712615966796875">
        <ele>502.20001220703125</ele>
        <time>2018-08-16T14:53:21.000Z</time>
      </trkpt>
      <trkpt lat="48.537900745868682861328125" lon="10.220608413219451904296875">
        <ele>502.20001220703125</ele>
        <time>2018-08-16T14:53:26.000Z</time>
      </trkpt>
      <trkpt lat="48.53806058876216411590576171875" lon="10.2211688272655010223388671875">
        <ele>502.79998779296875</ele>
        <time>2018-08-16T14:53:33.000Z</time>
      </trkpt>
      <trkpt lat="48.5381488502025604248046875" lon="10.22147141396999359130859375">
        <ele>503.79998779296875</ele>
        <time>2018-08-16T14:53:37.000Z</time>
      </trkpt>
      <trkpt lat="48.5382040031254291534423828125" lon="10.22171147167682647705078125">
        <ele>505</ele>
        <time>2018-08-16T14:53:40.000Z</time>
      </trkpt>
      <trkpt lat="48.53828103281557559967041015625" lon="10.22203761152923107147216796875">
        <ele>506.20001220703125</ele>
        <time>2018-08-16T14:53:44.000Z</time>
      </trkpt>
      <trkpt lat="48.5383473336696624755859375" lon="10.22227465175092220306396484375">
        <ele>507</ele>
        <time>2018-08-16T14:53:47.000Z</time>
      </trkpt>
      <trkpt lat="48.53837474249303340911865234375" lon="10.22235251963138580322265625">
        <ele>507.20001220703125</ele>
        <time>2018-08-16T14:53:48.000Z</time>
      </trkpt>
      <trkpt lat="48.53845839388668537139892578125" lon="10.22260271944105625152587890625">
        <ele>508</ele>
        <time>2018-08-16T14:53:51.000Z</time>
      </trkpt>
      <trkpt lat="48.53850030340254306793212890625" lon="10.22302634082734584808349609375">
        <ele>508.20001220703125</ele>
        <time>2018-08-16T14:53:55.000Z</time>
      </trkpt>
      <trkpt lat="48.5385614074766635894775390625" lon="10.223240666091442108154296875">
        <ele>508.399993896484375</ele>
        <time>2018-08-16T14:53:57.000Z</time>
      </trkpt>
      <trkpt lat="48.53881915099918842315673828125" lon="10.2240317501127719879150390625">
        <ele>508.20001220703125</ele>
        <time>2018-08-16T14:54:04.000Z</time>
      </trkpt>
      <trkpt lat="48.53893783874809741973876953125" lon="10.22437834180891513824462890625">
        <ele>507.600006103515625</ele>
        <time>2018-08-16T14:54:07.000Z</time>
      </trkpt>
      <trkpt lat="48.5389771498739719390869140625" lon="10.224495269358158111572265625">
        <ele>507.20001220703125</ele>
        <time>2018-08-16T14:54:08.000Z</time>
      </trkpt>
      <trkpt lat="48.53901679627597332000732421875" lon="10.22461337037384510040283203125">
        <ele>507</ele>
        <time>2018-08-16T14:54:09.000Z</time>
      </trkpt>
      <trkpt lat="48.5390572808682918548583984375" lon="10.2247328124940395355224609375">
        <ele>506.600006103515625</ele>
        <time>2018-08-16T14:54:10.000Z</time>
      </trkpt>
      <trkpt lat="48.5391360707581043243408203125" lon="10.22497647441923618316650390625">
        <ele>506</ele>
        <time>2018-08-16T14:54:12.000Z</time>
      </trkpt>
      <trkpt lat="48.53926020674407482147216796875" lon="10.225348211824893951416015625">
        <ele>505.600006103515625</ele>
        <time>2018-08-16T14:54:15.000Z</time>
      </trkpt>
      <trkpt lat="48.53930328972637653350830078125" lon="10.22547402419149875640869140625">
        <ele>505.399993896484375</ele>
        <time>2018-08-16T14:54:16.000Z</time>
      </trkpt>
      <trkpt lat="48.53938995860517024993896484375" lon="10.225723050534725189208984375">
        <ele>504.79998779296875</ele>
        <time>2018-08-16T14:54:18.000Z</time>
      </trkpt>
      <trkpt lat="48.5394773818552494049072265625" lon="10.2259723283350467681884765625">
        <ele>504.399993896484375</ele>
        <time>2018-08-16T14:54:20.000Z</time>
      </trkpt>
      <trkpt lat="48.53956212289631366729736328125" lon="10.22621934302151203155517578125">
        <ele>503.600006103515625</ele>
        <time>2018-08-16T14:54:22.000Z</time>
      </trkpt>
      <trkpt lat="48.5396403260529041290283203125" lon="10.22646744735538959503173828125">
        <ele>503</ele>
        <time>2018-08-16T14:54:24.000Z</time>
      </trkpt>
      <trkpt lat="48.539669327437877655029296875" lon="10.22658429108560085296630859375">
        <ele>502.79998779296875</ele>
        <time>2018-08-16T14:54:25.000Z</time>
      </trkpt>
      <trkpt lat="48.53968734852969646453857421875" lon="10.2266901545226573944091796875">
        <ele>502.399993896484375</ele>
        <time>2018-08-16T14:54:26.000Z</time>
      </trkpt>
      <trkpt lat="48.5396916233003139495849609375" lon="10.2269424498081207275390625">
        <ele>501.20001220703125</ele>
        <time>2018-08-16T14:54:29.000Z</time>
      </trkpt>
      <trkpt lat="48.53964359499514102935791015625" lon="10.2270864509046077728271484375">
        <ele>500.600006103515625</ele>
        <time>2018-08-16T14:54:31.000Z</time>
      </trkpt>
      <trkpt lat="48.5396026074886322021484375" lon="10.2271384187042713165283203125">
        <ele>500.20001220703125</ele>
        <time>2018-08-16T14:54:32.000Z</time>
      </trkpt>
      <trkpt lat="48.53950931690633296966552734375" lon="10.22719449363648891448974609375">
        <ele>499.20001220703125</ele>
        <time>2018-08-16T14:54:34.000Z</time>
      </trkpt>
      <trkpt lat="48.5394121706485748291015625" lon="10.22720941342413425445556640625">
        <ele>498.600006103515625</ele>
        <time>2018-08-16T14:54:36.000Z</time>
      </trkpt>
      <trkpt lat="48.53930949233472347259521484375" lon="10.22721813060343265533447265625">
        <ele>498.399993896484375</ele>
        <time>2018-08-16T14:54:38.000Z</time>
      </trkpt>
      <trkpt lat="48.53925819508731365203857421875" lon="10.2272294461727142333984375">
        <ele>498.399993896484375</ele>
        <time>2018-08-16T14:54:39.000Z</time>
      </trkpt>
      <trkpt lat="48.53915610350668430328369140625" lon="10.22726875729858875274658203125">
        <ele>498.399993896484375</ele>
        <time>2018-08-16T14:54:41.000Z</time>
      </trkpt>
      <trkpt lat="48.53900355286896228790283203125" lon="10.22737319581210613250732421875">
        <ele>498.399993896484375</ele>
        <time>2018-08-16T14:54:44.000Z</time>
      </trkpt>
      <trkpt lat="48.538729213178157806396484375" lon="10.22774619050323963165283203125">
        <ele>499.399993896484375</ele>
        <time>2018-08-16T14:54:50.000Z</time>
      </trkpt>
      <trkpt lat="48.53859786875545978546142578125" lon="10.22796093486249446868896484375">
        <ele>499.600006103515625</ele>
        <time>2018-08-16T14:54:53.000Z</time>
      </trkpt>
      <trkpt lat="48.53849284350872039794921875" lon="10.2280741743743419647216796875">
        <ele>499.600006103515625</ele>
        <time>2018-08-16T14:54:55.000Z</time>
      </trkpt>
      <trkpt lat="48.53837759234011173248291015625" lon="10.22815011441707611083984375">
        <ele>499.600006103515625</ele>
        <time>2018-08-16T14:54:57.000Z</time>
      </trkpt>
      <trkpt lat="48.538318835198879241943359375" lon="10.22818221710622310638427734375">
        <ele>499.600006103515625</ele>
        <time>2018-08-16T14:54:58.000Z</time>
      </trkpt>
      <trkpt lat="48.53820383548736572265625" lon="10.228242315351963043212890625">
        <ele>499.600006103515625</ele>
        <time>2018-08-16T14:55:00.000Z</time>
      </trkpt>
      <trkpt lat="48.53817558847367763519287109375" lon="10.2286179922521114349365234375">
        <ele>499.600006103515625</ele>
        <time>2018-08-16T14:55:05.000Z</time>
      </trkpt>
      <trkpt lat="48.538197465240955352783203125" lon="10.22870776243507862091064453125">
        <ele>499.600006103515625</ele>
        <time>2018-08-16T14:55:06.000Z</time>
      </trkpt>
      <trkpt lat="48.53826913051307201385498046875" lon="10.2289824374020099639892578125">
        <ele>499.399993896484375</ele>
        <time>2018-08-16T14:55:09.000Z</time>
      </trkpt>
      <trkpt lat="48.53835529647767543792724609375" lon="10.22938468493521213531494140625">
        <ele>499.20001220703125</ele>
        <time>2018-08-16T14:55:13.000Z</time>
      </trkpt>
      <trkpt lat="48.53844431228935718536376953125" lon="10.22969079203903675079345703125">
        <ele>499</ele>
        <time>2018-08-16T14:55:16.000Z</time>
      </trkpt>
      <trkpt lat="48.53861111216247081756591796875" lon="10.23046351969242095947265625">
        <ele>498.20001220703125</ele>
        <time>2018-08-16T14:55:23.000Z</time>
      </trkpt>
      <trkpt lat="48.53863860480487346649169921875" lon="10.23057340644299983978271484375">
        <ele>498</ele>
        <time>2018-08-16T14:55:24.000Z</time>
      </trkpt>
      <trkpt lat="48.53868638165295124053955078125" lon="10.2307986281812191009521484375">
        <ele>497.79998779296875</ele>
        <time>2018-08-16T14:55:26.000Z</time>
      </trkpt>
      <trkpt lat="48.5387106053531169891357421875" lon="10.23091454990208148956298828125">
        <ele>497.600006103515625</ele>
        <time>2018-08-16T14:55:27.000Z</time>
      </trkpt>
      <trkpt lat="48.538762070238590240478515625" lon="10.23115041665732860565185546875">
        <ele>497.20001220703125</ele>
        <time>2018-08-16T14:55:29.000Z</time>
      </trkpt>
      <trkpt lat="48.53878780268132686614990234375" lon="10.23127078078687191009521484375">
        <ele>497</ele>
        <time>2018-08-16T14:55:30.000Z</time>
      </trkpt>
      <trkpt lat="48.5388678498566150665283203125" lon="10.23164025507867336273193359375">
        <ele>496.79998779296875</ele>
        <time>2018-08-16T14:55:33.000Z</time>
      </trkpt>
      <trkpt lat="48.53889341466128826141357421875" lon="10.23176514543592929840087890625">
        <ele>496.600006103515625</ele>
        <time>2018-08-16T14:55:34.000Z</time>
      </trkpt>
      <trkpt lat="48.538937754929065704345703125" lon="10.23201744072139263153076171875">
        <ele>496.20001220703125</ele>
        <time>2018-08-16T14:55:36.000Z</time>
      </trkpt>
      <trkpt lat="48.538957200944423675537109375" lon="10.23214568383991718292236328125">
        <ele>495.79998779296875</ele>
        <time>2018-08-16T14:55:37.000Z</time>
      </trkpt>
      <trkpt lat="48.5390017926692962646484375" lon="10.2323881722986698150634765625">
        <ele>495.399993896484375</ele>
        <time>2018-08-16T14:55:39.000Z</time>
      </trkpt>
      <trkpt lat="48.53905686177313327789306640625" lon="10.23271858692169189453125">
        <ele>494.600006103515625</ele>
        <time>2018-08-16T14:55:42.000Z</time>
      </trkpt>
      <trkpt lat="48.53908351622521877288818359375" lon="10.23292218334972858428955078125">
        <ele>494.20001220703125</ele>
        <time>2018-08-16T14:55:44.000Z</time>
      </trkpt>
      <trkpt lat="48.53910665027797222137451171875" lon="10.233159475028514862060546875">
        <ele>493</ele>
        <time>2018-08-16T14:55:47.000Z</time>
      </trkpt>
      <trkpt lat="48.5391203127801418304443359375" lon="10.23321974091231822967529296875">
        <ele>492.600006103515625</ele>
        <time>2018-08-16T14:55:48.000Z</time>
      </trkpt>
      <trkpt lat="48.53914269246160984039306640625" lon="10.233278162777423858642578125">
        <ele>492</ele>
        <time>2018-08-16T14:55:49.000Z</time>
      </trkpt>
      <trkpt lat="48.53917085565626621246337890625" lon="10.233370363712310791015625">
        <ele>490.79998779296875</ele>
        <time>2018-08-16T14:55:51.000Z</time>
      </trkpt>
      <trkpt lat="48.53917814791202545166015625" lon="10.23341386578977108001708984375">
        <ele>489.600006103515625</ele>
        <time>2018-08-16T14:55:53.000Z</time>
      </trkpt>
      <trkpt lat="48.53918292559683322906494140625" lon="10.23341537453234195709228515625">
        <ele>488.79998779296875</ele>
        <time>2018-08-16T14:55:54.000Z</time>
      </trkpt>
      <trkpt lat="48.5391783155500888824462890625" lon="10.23338251747190952301025390625">
        <ele>488</ele>
        <time>2018-08-16T14:55:56.000Z</time>
      </trkpt>
      <trkpt lat="48.53916607797145843505859375" lon="10.233337841928005218505859375">
        <ele>487.600006103515625</ele>
        <time>2018-08-16T14:55:58.000Z</time>
      </trkpt>
      <trkpt lat="48.53912710212171077728271484375" lon="10.233271121978759765625">
        <ele>487.20001220703125</ele>
        <time>2018-08-16T14:56:01.000Z</time>
      </trkpt>
      <trkpt lat="48.5390753857791423797607421875" lon="10.2332659251987934112548828125">
        <ele>487.20001220703125</ele>
        <time>2018-08-16T14:56:03.000Z</time>
      </trkpt>
      <trkpt lat="48.539012856781482696533203125" lon="10.23329325020313262939453125">
        <ele>487.20001220703125</ele>
        <time>2018-08-16T14:56:05.000Z</time>
      </trkpt>
      <trkpt lat="48.53897606022655963897705078125" lon="10.23330607451498508453369140625">
        <ele>487</ele>
        <time>2018-08-16T14:56:06.000Z</time>
      </trkpt>
      <trkpt lat="48.53889928199350833892822265625" lon="10.233342535793781280517578125">
        <ele>487</ele>
        <time>2018-08-16T14:56:08.000Z</time>
      </trkpt>
      <trkpt lat="48.53859686292707920074462890625" lon="10.2335019595921039581298828125">
        <ele>486.79998779296875</ele>
        <time>2018-08-16T14:56:15.000Z</time>
      </trkpt>
      <trkpt lat="48.53854606859385967254638671875" lon="10.23353238590061664581298828125">
        <ele>486.600006103515625</ele>
        <time>2018-08-16T14:56:16.000Z</time>
      </trkpt>
      <trkpt lat="48.53849460370838642120361328125" lon="10.23356281220912933349609375">
        <ele>486.399993896484375</ele>
        <time>2018-08-16T14:56:17.000Z</time>
      </trkpt>
      <trkpt lat="48.5383880697190761566162109375" lon="10.23362307809293270111083984375">
        <ele>486.20001220703125</ele>
        <time>2018-08-16T14:56:19.000Z</time>
      </trkpt>
      <trkpt lat="48.53828019462525844573974609375" lon="10.23367546498775482177734375">
        <ele>485.79998779296875</ele>
        <time>2018-08-16T14:56:21.000Z</time>
      </trkpt>
      <trkpt lat="48.53816636838018894195556640625" lon="10.23371242918074131011962890625">
        <ele>485.600006103515625</ele>
        <time>2018-08-16T14:56:23.000Z</time>
      </trkpt>
      <trkpt lat="48.538106270134449005126953125" lon="10.23373782634735107421875">
        <ele>485.600006103515625</ele>
        <time>2018-08-16T14:56:24.000Z</time>
      </trkpt>
      <trkpt lat="48.53791139088571071624755859375" lon="10.23385441862046718597412109375">
        <ele>485.20001220703125</ele>
        <time>2018-08-16T14:56:27.000Z</time>
      </trkpt>
      <trkpt lat="48.53776328265666961669921875" lon="10.2339435182511806488037109375">
        <ele>485</ele>
        <time>2018-08-16T14:56:29.000Z</time>
      </trkpt>
      <trkpt lat="48.53750185109674930572509765625" lon="10.23408810608088970184326171875">
        <ele>484.600006103515625</ele>
        <time>2018-08-16T14:56:33.000Z</time>
      </trkpt>
      <trkpt lat="48.53746287524700164794921875" lon="10.23414074443280696868896484375">
        <ele>484.20001220703125</ele>
        <time>2018-08-16T14:56:34.000Z</time>
      </trkpt>
      <trkpt lat="48.5374425910413265228271484375" lon="10.2342083863914012908935546875">
        <ele>483.79998779296875</ele>
        <time>2018-08-16T14:56:35.000Z</time>
      </trkpt>
      <trkpt lat="48.53746681474149227142333984375" lon="10.234348364174365997314453125">
        <ele>482.600006103515625</ele>
        <time>2018-08-16T14:56:37.000Z</time>
      </trkpt>
      <trkpt lat="48.53751249611377716064453125" lon="10.234511308372020721435546875">
        <ele>481.79998779296875</ele>
        <time>2018-08-16T14:56:39.000Z</time>
      </trkpt>
      <trkpt lat="48.53753705509006977081298828125" lon="10.23459940217435359954833984375">
        <ele>481.399993896484375</ele>
        <time>2018-08-16T14:56:40.000Z</time>
      </trkpt>
      <trkpt lat="48.53756639175117015838623046875" lon="10.23468355648219585418701171875">
        <ele>481</ele>
        <time>2018-08-16T14:56:41.000Z</time>
      </trkpt>
      <trkpt lat="48.53763948194682598114013671875" lon="10.23483996279537677764892578125">
        <ele>480.20001220703125</ele>
        <time>2018-08-16T14:56:43.000Z</time>
      </trkpt>
      <trkpt lat="48.53767611086368560791015625" lon="10.23491690866649150848388671875">
        <ele>479.79998779296875</ele>
        <time>2018-08-16T14:56:44.000Z</time>
      </trkpt>
      <trkpt lat="48.5377450101077556610107421875" lon="10.23506728000938892364501953125">
        <ele>479.399993896484375</ele>
        <time>2018-08-16T14:56:46.000Z</time>
      </trkpt>
      <trkpt lat="48.5377694852650165557861328125" lon="10.23513718508183956146240234375">
        <ele>479.20001220703125</ele>
        <time>2018-08-16T14:56:47.000Z</time>
      </trkpt>
      <trkpt lat="48.5377124883234500885009765625" lon="10.235307253897190093994140625">
        <ele>478.600006103515625</ele>
        <time>2018-08-16T14:56:50.000Z</time>
      </trkpt>
      <trkpt lat="48.53766672313213348388671875" lon="10.2353503368794918060302734375">
        <ele>478.399993896484375</ele>
        <time>2018-08-16T14:56:51.000Z</time>
      </trkpt>
      <trkpt lat="48.53761869482696056365966796875" lon="10.23539970628917217254638671875">
        <ele>478.20001220703125</ele>
        <time>2018-08-16T14:56:52.000Z</time>
      </trkpt>
      <trkpt lat="48.537512831389904022216796875" lon="10.23549668490886688232421875">
        <ele>477.79998779296875</ele>
        <time>2018-08-16T14:56:54.000Z</time>
      </trkpt>
      <trkpt lat="48.5373996756970882415771484375" lon="10.23559282533824443817138671875">
        <ele>477.600006103515625</ele>
        <time>2018-08-16T14:56:56.000Z</time>
      </trkpt>
      <trkpt lat="48.53728392161428928375244140625" lon="10.2356943301856517791748046875">
        <ele>477</ele>
        <time>2018-08-16T14:56:58.000Z</time>
      </trkpt>
      <trkpt lat="48.537170179188251495361328125" lon="10.2358046360313892364501953125">
        <ele>476.600006103515625</ele>
        <time>2018-08-16T14:57:00.000Z</time>
      </trkpt>
      <trkpt lat="48.53700312785804271697998046875" lon="10.2359722740948200225830078125">
        <ele>476.20001220703125</ele>
        <time>2018-08-16T14:57:03.000Z</time>
      </trkpt>
      <trkpt lat="48.53694914840161800384521484375" lon="10.236029438674449920654296875">
        <ele>476</ele>
        <time>2018-08-16T14:57:04.000Z</time>
      </trkpt>
      <trkpt lat="48.5368954204022884368896484375" lon="10.23608786053955554962158203125">
        <ele>475.79998779296875</ele>
        <time>2018-08-16T14:57:05.000Z</time>
      </trkpt>
      <trkpt lat="48.5368414409458637237548828125" lon="10.2361469529569149017333984375">
        <ele>475.600006103515625</ele>
        <time>2018-08-16T14:57:06.000Z</time>
      </trkpt>
      <trkpt lat="48.5365926660597324371337890625" lon="10.2364106476306915283203125">
        <ele>475</ele>
        <time>2018-08-16T14:57:11.000Z</time>
      </trkpt>
      <trkpt lat="48.53656073100864887237548828125" lon="10.23644618690013885498046875">
        <ele>474.79998779296875</ele>
        <time>2018-08-16T14:57:12.000Z</time>
      </trkpt>
      <trkpt lat="48.5365215875208377838134765625" lon="10.23649513721466064453125">
        <ele>474.79998779296875</ele>
        <time>2018-08-16T14:57:14.000Z</time>
      </trkpt>
      <trkpt lat="48.536495268344879150390625" lon="10.23652740754187107086181640625">
        <ele>474.399993896484375</ele>
        <time>2018-08-16T14:57:16.000Z</time>
      </trkpt>
      <trkpt lat="48.53648697026073932647705078125" lon="10.2365549840033054351806640625">
        <ele>474.20001220703125</ele>
        <time>2018-08-16T14:57:17.000Z</time>
      </trkpt>
      <trkpt lat="48.5364910773932933807373046875" lon="10.2365911938250064849853515625">
        <ele>474.20001220703125</ele>
        <time>2018-08-16T14:57:18.000Z</time>
      </trkpt>
      <trkpt lat="48.53650532662868499755859375" lon="10.23662899620831012725830078125">
        <ele>474</ele>
        <time>2018-08-16T14:57:19.000Z</time>
      </trkpt>
      <trkpt lat="48.53654245845973491668701171875" lon="10.23670409806072711944580078125">
        <ele>473.600006103515625</ele>
        <time>2018-08-16T14:57:21.000Z</time>
      </trkpt>
      <trkpt lat="48.5365567915141582489013671875" lon="10.23674081079661846160888671875">
        <ele>473.399993896484375</ele>
        <time>2018-08-16T14:57:22.000Z</time>
      </trkpt>
      <trkpt lat="48.53659828193485736846923828125" lon="10.236893780529499053955078125">
        <ele>472.79998779296875</ele>
        <time>2018-08-16T14:57:25.000Z</time>
      </trkpt>
      <trkpt lat="48.5366422869265079498291015625" lon="10.237019173800945281982421875">
        <ele>472.79998779296875</ele>
        <time>2018-08-16T14:57:27.000Z</time>
      </trkpt>
      <trkpt lat="48.53666366077959537506103515625" lon="10.23709100671112537384033203125">
        <ele>472.79998779296875</ele>
        <time>2018-08-16T14:57:28.000Z</time>
      </trkpt>
      <trkpt lat="48.5367073304951190948486328125" lon="10.23725411854684352874755859375">
        <ele>472.600006103515625</ele>
        <time>2018-08-16T14:57:30.000Z</time>
      </trkpt>
      <trkpt lat="48.53677530772984027862548828125" lon="10.2375232614576816558837890625">
        <ele>472.600006103515625</ele>
        <time>2018-08-16T14:57:33.000Z</time>
      </trkpt>
      <trkpt lat="48.53684437461197376251220703125" lon="10.23780849762260913848876953125">
        <ele>472.600006103515625</ele>
        <time>2018-08-16T14:57:36.000Z</time>
      </trkpt>
      <trkpt lat="48.537041433155536651611328125" lon="10.2386259846389293670654296875">
        <ele>472.399993896484375</ele>
        <time>2018-08-16T14:57:44.000Z</time>
      </trkpt>
      <trkpt lat="48.537217117846012115478515625" lon="10.2394591458141803741455078125">
        <ele>472.399993896484375</ele>
        <time>2018-08-16T14:57:52.000Z</time>
      </trkpt>
      <trkpt lat="48.53737427853047847747802734375" lon="10.24031267501413822174072265625">
        <ele>472.20001220703125</ele>
        <time>2018-08-16T14:58:00.000Z</time>
      </trkpt>
      <trkpt lat="48.537457175552845001220703125" lon="10.24086420424282550811767578125">
        <ele>472.20001220703125</ele>
        <time>2018-08-16T14:58:06.000Z</time>
      </trkpt>
      <trkpt lat="48.53742130100727081298828125" lon="10.2409678883850574493408203125">
        <ele>472.20001220703125</ele>
        <time>2018-08-16T14:58:08.000Z</time>
      </trkpt>
      <trkpt lat="48.537300266325473785400390625" lon="10.241031758487224578857421875">
        <ele>472</ele>
        <time>2018-08-16T14:58:11.000Z</time>
      </trkpt>
      <trkpt lat="48.537018299102783203125" lon="10.24113795720040798187255859375">
        <ele>472</ele>
        <time>2018-08-16T14:58:16.000Z</time>
      </trkpt>
      <trkpt lat="48.5368276946246623992919921875" lon="10.24121440015733242034912109375">
        <ele>471.79998779296875</ele>
        <time>2018-08-16T14:58:19.000Z</time>
      </trkpt>
      <trkpt lat="48.5367633216083049774169921875" lon="10.24124356918036937713623046875">
        <ele>471.79998779296875</ele>
        <time>2018-08-16T14:58:20.000Z</time>
      </trkpt>
      <trkpt lat="48.53669953532516956329345703125" lon="10.24127223528921604156494140625">
        <ele>471.600006103515625</ele>
        <time>2018-08-16T14:58:21.000Z</time>
      </trkpt>
      <trkpt lat="48.5362721420824527740478515625" lon="10.2414577268064022064208984375">
        <ele>471.20001220703125</ele>
        <time>2018-08-16T14:58:28.000Z</time>
      </trkpt>
      <trkpt lat="48.5361779294908046722412109375" lon="10.2416652627289295196533203125">
        <ele>471.20001220703125</ele>
        <time>2018-08-16T14:58:32.000Z</time>
      </trkpt>
      <trkpt lat="48.53617868386209011077880859375" lon="10.241724438965320587158203125">
        <ele>471.20001220703125</ele>
        <time>2018-08-16T14:58:33.000Z</time>
      </trkpt>
      <trkpt lat="48.53611514903604984283447265625" lon="10.2419468946754932403564453125">
        <ele>471.399993896484375</ele>
        <time>2018-08-16T14:58:39.000Z</time>
      </trkpt>
      <trkpt lat="48.536092601716518402099609375" lon="10.24197815917432308197021484375">
        <ele>471.399993896484375</ele>
        <time>2018-08-16T14:58:41.000Z</time>
      </trkpt>
      <trkpt lat="48.53607407771050930023193359375" lon="10.24198830127716064453125">
        <ele>471.399993896484375</ele>
        <time>2018-08-16T14:58:42.000Z</time>
      </trkpt>
      <trkpt lat="48.53601506911218166351318359375" lon="10.242017470300197601318359375">
        <ele>471.399993896484375</ele>
        <time>2018-08-16T14:58:44.000Z</time>
      </trkpt>
      <trkpt lat="48.53604507632553577423095703125" lon="10.2422657422721385955810546875">
        <ele>471.600006103515625</ele>
        <time>2018-08-16T14:58:49.000Z</time>
      </trkpt>
      <trkpt lat="48.53614565916359424591064453125" lon="10.242449976503849029541015625">
        <ele>471.600006103515625</ele>
        <time>2018-08-16T14:58:52.000Z</time>
      </trkpt>
      <trkpt lat="48.5362496785819530487060546875" lon="10.24266279302537441253662109375">
        <ele>471.399993896484375</ele>
        <time>2018-08-16T14:58:55.000Z</time>
      </trkpt>
      <trkpt lat="48.53628127835690975189208984375" lon="10.2427428402006626129150390625">
        <ele>471.399993896484375</ele>
        <time>2018-08-16T14:58:56.000Z</time>
      </trkpt>
      <trkpt lat="48.53634246625006198883056640625" lon="10.24291944690048694610595703125">
        <ele>471.20001220703125</ele>
        <time>2018-08-16T14:58:58.000Z</time>
      </trkpt>
      <trkpt lat="48.5364096052944660186767578125" lon="10.2431015856564044952392578125">
        <ele>471</ele>
        <time>2018-08-16T14:59:00.000Z</time>
      </trkpt>
      <trkpt lat="48.53657028637826442718505859375" lon="10.24357072077691555023193359375">
        <ele>470.79998779296875</ele>
        <time>2018-08-16T14:59:05.000Z</time>
      </trkpt>
      <trkpt lat="48.53663080371916294097900390625" lon="10.243768282234668731689453125">
        <ele>470.600006103515625</ele>
        <time>2018-08-16T14:59:07.000Z</time>
      </trkpt>
      <trkpt lat="48.5366909019649028778076171875" lon="10.24396701715886592864990234375">
        <ele>470.399993896484375</ele>
        <time>2018-08-16T14:59:09.000Z</time>
      </trkpt>
      <trkpt lat="48.536859042942523956298828125" lon="10.24456229992210865020751953125">
        <ele>470</ele>
        <time>2018-08-16T14:59:15.000Z</time>
      </trkpt>
      <trkpt lat="48.5369423590600490570068359375" lon="10.2448631264269351959228515625">
        <ele>470</ele>
        <time>2018-08-16T14:59:18.000Z</time>
      </trkpt>
      <trkpt lat="48.537020981311798095703125" lon="10.2451729215681552886962890625">
        <ele>470</ele>
        <time>2018-08-16T14:59:21.000Z</time>
      </trkpt>
      <trkpt lat="48.53707487694919109344482421875" lon="10.245381630957126617431640625">
        <ele>470</ele>
        <time>2018-08-16T14:59:23.000Z</time>
      </trkpt>
      <trkpt lat="48.537283837795257568359375" lon="10.24622091092169284820556640625">
        <ele>470.399993896484375</ele>
        <time>2018-08-16T14:59:31.000Z</time>
      </trkpt>
      <trkpt lat="48.5374948941171169281005859375" lon="10.24707284756004810333251953125">
        <ele>470.600006103515625</ele>
        <time>2018-08-16T14:59:39.000Z</time>
      </trkpt>
      <trkpt lat="48.5377031005918979644775390625" lon="10.24791304953396320343017578125">
        <ele>470.600006103515625</ele>
        <time>2018-08-16T14:59:47.000Z</time>
      </trkpt>
      <trkpt lat="48.537911474704742431640625" lon="10.24875216186046600341796875">
        <ele>470.79998779296875</ele>
        <time>2018-08-16T14:59:55.000Z</time>
      </trkpt>
      <trkpt lat="48.538106270134449005126953125" lon="10.24962077848613262176513671875">
        <ele>471</ele>
        <time>2018-08-16T15:00:03.000Z</time>
      </trkpt>
      <trkpt lat="48.5383017361164093017578125" lon="10.250482521951198577880859375">
        <ele>471.399993896484375</ele>
        <time>2018-08-16T15:00:11.000Z</time>
      </trkpt>
      <trkpt lat="48.53845663368701934814453125" lon="10.2511307783424854278564453125">
        <ele>471.399993896484375</ele>
        <time>2018-08-16T15:00:17.000Z</time>
      </trkpt>
      <trkpt lat="48.53867162950336933135986328125" lon="10.252001993358135223388671875">
        <ele>471.600006103515625</ele>
        <time>2018-08-16T15:00:25.000Z</time>
      </trkpt>
      <trkpt lat="48.5388695262372493743896484375" lon="10.252789221704006195068359375">
        <ele>471.79998779296875</ele>
        <time>2018-08-16T15:00:32.000Z</time>
      </trkpt>
      <trkpt lat="48.5388983599841594696044921875" lon="10.2529027126729488372802734375">
        <ele>471.79998779296875</ele>
        <time>2018-08-16T15:00:33.000Z</time>
      </trkpt>
      <trkpt lat="48.53895485401153564453125" lon="10.25313028134405612945556640625">
        <ele>471.79998779296875</ele>
        <time>2018-08-16T15:00:35.000Z</time>
      </trkpt>
      <trkpt lat="48.53914705105125904083251953125" lon="10.253926478326320648193359375">
        <ele>471.600006103515625</ele>
        <time>2018-08-16T15:00:42.000Z</time>
      </trkpt>
      <trkpt lat="48.5393397510051727294921875" lon="10.2547051571309566497802734375">
        <ele>471.600006103515625</ele>
        <time>2018-08-16T15:00:49.000Z</time>
      </trkpt>
      <trkpt lat="48.539533205330371856689453125" lon="10.2554729394614696502685546875">
        <ele>471.399993896484375</ele>
        <time>2018-08-16T15:00:56.000Z</time>
      </trkpt>
      <trkpt lat="48.53972305543720722198486328125" lon="10.25625186972320079803466796875">
        <ele>471.399993896484375</ele>
        <time>2018-08-16T15:01:03.000Z</time>
      </trkpt>
      <trkpt lat="48.5399373807013034820556640625" lon="10.25709659792482852935791015625">
        <ele>471.600006103515625</ele>
        <time>2018-08-16T15:01:11.000Z</time>
      </trkpt>
      <trkpt lat="48.54010208509862422943115234375" lon="10.25774636305868625640869140625">
        <ele>471.79998779296875</ele>
        <time>2018-08-16T15:01:17.000Z</time>
      </trkpt>
      <trkpt lat="48.54015891440212726593017578125" lon="10.2579831518232822418212890625">
        <ele>471.79998779296875</ele>
        <time>2018-08-16T15:01:19.000Z</time>
      </trkpt>
      <trkpt lat="48.54033409617841243743896484375" lon="10.25868614204227924346923828125">
        <ele>471.399993896484375</ele>
        <time>2018-08-16T15:01:25.000Z</time>
      </trkpt>
      <trkpt lat="48.54039092548191547393798828125" lon="10.25891614146530628204345703125">
        <ele>471.20001220703125</ele>
        <time>2018-08-16T15:01:27.000Z</time>
      </trkpt>
      <trkpt lat="48.54059326462447643280029296875" lon="10.25971577502787113189697265625">
        <ele>470.79998779296875</ele>
        <time>2018-08-16T15:01:34.000Z</time>
      </trkpt>
      <trkpt lat="48.54079158045351505279541015625" lon="10.26051306165754795074462890625">
        <ele>470.600006103515625</ele>
        <time>2018-08-16T15:01:41.000Z</time>
      </trkpt>
      <trkpt lat="48.54087439365684986114501953125" lon="10.26085973717272281646728515625">
        <ele>470.399993896484375</ele>
        <time>2018-08-16T15:01:44.000Z</time>
      </trkpt>
      <trkpt lat="48.5410429537296295166015625" lon="10.2615509927272796630859375">
        <ele>470.20001220703125</ele>
        <time>2018-08-16T15:01:50.000Z</time>
      </trkpt>
      <trkpt lat="48.5411872901022434234619140625" lon="10.2621281705796718597412109375">
        <ele>470.20001220703125</ele>
        <time>2018-08-16T15:01:55.000Z</time>
      </trkpt>
      <trkpt lat="48.5413824208080768585205078125" lon="10.26291749440133571624755859375">
        <ele>470</ele>
        <time>2018-08-16T15:02:02.000Z</time>
      </trkpt>
      <trkpt lat="48.5415805689990520477294921875" lon="10.263697095215320587158203125">
        <ele>470</ele>
        <time>2018-08-16T15:02:09.000Z</time>
      </trkpt>
      <trkpt lat="48.54171493090689182281494140625" lon="10.26426337659358978271484375">
        <ele>470</ele>
        <time>2018-08-16T15:02:14.000Z</time>
      </trkpt>
      <trkpt lat="48.54176840744912624359130859375" lon="10.26449094526469707489013671875">
        <ele>470.20001220703125</ele>
        <time>2018-08-16T15:02:16.000Z</time>
      </trkpt>
      <trkpt lat="48.54190369136631488800048828125" lon="10.26505152694880962371826171875">
        <ele>470.399993896484375</ele>
        <time>2018-08-16T15:02:21.000Z</time>
      </trkpt>
      <trkpt lat="48.54203813709318637847900390625" lon="10.265607498586177825927734375">
        <ele>470.600006103515625</ele>
        <time>2018-08-16T15:02:26.000Z</time>
      </trkpt>
      <trkpt lat="48.54224550537765026092529296875" lon="10.26637301780283451080322265625">
        <ele>471</ele>
        <time>2018-08-16T15:02:33.000Z</time>
      </trkpt>
      <trkpt lat="48.5423047654330730438232421875" lon="10.2665829844772815704345703125">
        <ele>471</ele>
        <time>2018-08-16T15:02:35.000Z</time>
      </trkpt>
      <trkpt lat="48.5424087010324001312255859375" lon="10.26697735302150249481201171875">
        <ele>471</ele>
        <time>2018-08-16T15:02:39.000Z</time>
      </trkpt>
      <trkpt lat="48.5424653626978397369384765625" lon="10.2672283910214900970458984375">
        <ele>471</ele>
        <time>2018-08-16T15:02:42.000Z</time>
      </trkpt>
      <trkpt lat="48.5424968786537647247314453125" lon="10.2673547901213169097900390625">
        <ele>470.79998779296875</ele>
        <time>2018-08-16T15:02:44.000Z</time>
      </trkpt>
      <trkpt lat="48.54255664162337779998779296875" lon="10.26742461137473583221435546875">
        <ele>470.79998779296875</ele>
        <time>2018-08-16T15:02:46.000Z</time>
      </trkpt>
      <trkpt lat="48.54263358749449253082275390625" lon="10.26741723529994487762451171875">
        <ele>470.79998779296875</ele>
        <time>2018-08-16T15:02:48.000Z</time>
      </trkpt>
      <trkpt lat="48.5427282191812992095947265625" lon="10.26728614233434200286865234375">
        <ele>470.79998779296875</ele>
        <time>2018-08-16T15:02:51.000Z</time>
      </trkpt>
      <trkpt lat="48.54275227524340152740478515625" lon="10.267226211726665496826171875">
        <ele>470.79998779296875</ele>
        <time>2018-08-16T15:02:52.000Z</time>
      </trkpt>
      <trkpt lat="48.5427905805408954620361328125" lon="10.26708866469562053680419921875">
        <ele>470.79998779296875</ele>
        <time>2018-08-16T15:02:54.000Z</time>
      </trkpt>
      <trkpt lat="48.54282326996326446533203125" lon="10.2669548057019710540771484375">
        <ele>470.600006103515625</ele>
        <time>2018-08-16T15:02:56.000Z</time>
      </trkpt>
      <trkpt lat="48.54290432296693325042724609375" lon="10.266825892031192779541015625">
        <ele>470.79998779296875</ele>
        <time>2018-08-16T15:02:59.000Z</time>
      </trkpt>
      <trkpt lat="48.54293726384639739990234375" lon="10.266802422702312469482421875">
        <ele>470.79998779296875</ele>
        <time>2018-08-16T15:03:00.000Z</time>
      </trkpt>
      <trkpt lat="48.54298713617026805877685546875" lon="10.2667687274515628814697265625">
        <ele>471</ele>
        <time>2018-08-16T15:03:02.000Z</time>
      </trkpt>
      <trkpt lat="48.5430038161575794219970703125" lon="10.266756154596805572509765625">
        <ele>471</ele>
        <time>2018-08-16T15:03:03.000Z</time>
      </trkpt>
      <trkpt lat="48.54305016808211803436279296875" lon="10.26674601249396800994873046875">
        <ele>471.20001220703125</ele>
        <time>2018-08-16T15:03:06.000Z</time>
      </trkpt>
      <trkpt lat="48.5430705361068248748779296875" lon="10.26676126755774021148681640625">
        <ele>471.399993896484375</ele>
        <time>2018-08-16T15:03:07.000Z</time>
      </trkpt>
      <trkpt lat="48.54312233626842498779296875" lon="10.266828574240207672119140625">
        <ele>471.600006103515625</ele>
        <time>2018-08-16T15:03:09.000Z</time>
      </trkpt>
      <trkpt lat="48.54315184056758880615234375" lon="10.26687542907893657684326171875">
        <ele>472</ele>
        <time>2018-08-16T15:03:10.000Z</time>
      </trkpt>
      <trkpt lat="48.54329642839729785919189453125" lon="10.26712395250797271728515625">
        <ele>472.20001220703125</ele>
        <time>2018-08-16T15:03:14.000Z</time>
      </trkpt>
      <trkpt lat="48.54342534206807613372802734375" lon="10.26734967716038227081298828125">
        <ele>472.399993896484375</ele>
        <time>2018-08-16T15:03:17.000Z</time>
      </trkpt>
      <trkpt lat="48.543516956269741058349609375" lon="10.26750926859676837921142578125">
        <ele>472.399993896484375</ele>
        <time>2018-08-16T15:03:19.000Z</time>
      </trkpt>
      <trkpt lat="48.54380403645336627960205078125" lon="10.26800933293998241424560546875">
        <ele>472.399993896484375</ele>
        <time>2018-08-16T15:03:25.000Z</time>
      </trkpt>
      <trkpt lat="48.54418323375284671783447265625" lon="10.2687036059796810150146484375">
        <ele>472.399993896484375</ele>
        <time>2018-08-16T15:03:33.000Z</time>
      </trkpt>
      <trkpt lat="48.54445262812077999114990234375" lon="10.26926125399768352508544921875">
        <ele>472.20001220703125</ele>
        <time>2018-08-16T15:03:39.000Z</time>
      </trkpt>
      <trkpt lat="48.54475915431976318359375" lon="10.26994295418262481689453125">
        <ele>471.79998779296875</ele>
        <time>2018-08-16T15:03:46.000Z</time>
      </trkpt>
      <trkpt lat="48.544977419078350067138671875" lon="10.2704386599361896514892578125">
        <ele>471.20001220703125</ele>
        <time>2018-08-16T15:03:51.000Z</time>
      </trkpt>
      <trkpt lat="48.5452960990369319915771484375" lon="10.271146260201930999755859375">
        <ele>470.600006103515625</ele>
        <time>2018-08-16T15:03:58.000Z</time>
      </trkpt>
      <trkpt lat="48.5455866158008575439453125" lon="10.2717244438827037811279296875">
        <ele>470.20001220703125</ele>
        <time>2018-08-16T15:04:04.000Z</time>
      </trkpt>
      <trkpt lat="48.545688204467296600341796875" lon="10.27191194705665111541748046875">
        <ele>470</ele>
        <time>2018-08-16T15:04:06.000Z</time>
      </trkpt>
      <trkpt lat="48.54605189524590969085693359375" lon="10.2725666575133800506591796875">
        <ele>469.79998779296875</ele>
        <time>2018-08-16T15:04:13.000Z</time>
      </trkpt>
      <trkpt lat="48.5464192740619182586669921875" lon="10.27321767993271350860595703125">
        <ele>469.600006103515625</ele>
        <time>2018-08-16T15:04:20.000Z</time>
      </trkpt>
      <trkpt lat="48.5468081943690776824951171875" lon="10.27384816668927669525146484375">
        <ele>469.600006103515625</ele>
        <time>2018-08-16T15:04:27.000Z</time>
      </trkpt>
      <trkpt lat="48.54721941053867340087890625" lon="10.27445166371762752532958984375">
        <ele>469.79998779296875</ele>
        <time>2018-08-16T15:04:34.000Z</time>
      </trkpt>
      <trkpt lat="48.547632806003093719482421875" lon="10.275041498243808746337890625">
        <ele>470</ele>
        <time>2018-08-16T15:04:41.000Z</time>
      </trkpt>
      <trkpt lat="48.54802181012928485870361328125" lon="10.27567558921873569488525390625">
        <ele>470.399993896484375</ele>
        <time>2018-08-16T15:04:48.000Z</time>
      </trkpt>
      <trkpt lat="48.54838751256465911865234375" lon="10.276347734034061431884765625">
        <ele>470.399993896484375</ele>
        <time>2018-08-16T15:04:55.000Z</time>
      </trkpt>
      <trkpt lat="48.54879059828817844390869140625" lon="10.276967994868755340576171875">
        <ele>470.600006103515625</ele>
        <time>2018-08-16T15:05:02.000Z</time>
      </trkpt>
      <trkpt lat="48.54919628240168094635009765625" lon="10.27753293514251708984375">
        <ele>471</ele>
        <time>2018-08-16T15:05:09.000Z</time>
      </trkpt>
      <trkpt lat="48.54954228736460208892822265625" lon="10.27811991982161998748779296875">
        <ele>471.399993896484375</ele>
        <time>2018-08-16T15:05:16.000Z</time>
      </trkpt>
      <trkpt lat="48.5499145276844501495361328125" lon="10.27876599691808223724365234375">
        <ele>472</ele>
        <time>2018-08-16T15:05:23.000Z</time>
      </trkpt>
      <trkpt lat="48.550351224839687347412109375" lon="10.27940385974943637847900390625">
        <ele>472</ele>
        <time>2018-08-16T15:05:30.000Z</time>
      </trkpt>
      <trkpt lat="48.5507312603294849395751953125" lon="10.27995337732136249542236328125">
        <ele>471.600006103515625</ele>
        <time>2018-08-16T15:05:36.000Z</time>
      </trkpt>
      <trkpt lat="48.55114214122295379638671875" lon="10.2805120311677455902099609375">
        <ele>471.399993896484375</ele>
        <time>2018-08-16T15:05:43.000Z</time>
      </trkpt>
      <trkpt lat="48.55146844871342182159423828125" lon="10.28086080215871334075927734375">
        <ele>471.79998779296875</ele>
        <time>2018-08-16T15:05:48.000Z</time>
      </trkpt>
      <trkpt lat="48.55174035765230655670166015625" lon="10.28114360757172107696533203125">
        <ele>472.399993896484375</ele>
        <time>2018-08-16T15:05:52.000Z</time>
      </trkpt>
      <trkpt lat="48.55220169760286808013916015625" lon="10.2816663868725299835205078125">
        <ele>472.600006103515625</ele>
        <time>2018-08-16T15:05:59.000Z</time>
      </trkpt>
      <trkpt lat="48.5524798929691314697265625" lon="10.2819641120731830596923828125">
        <ele>472.600006103515625</ele>
        <time>2018-08-16T15:06:03.000Z</time>
      </trkpt>
      <trkpt lat="48.5526979900896549224853515625" lon="10.28218681924045085906982421875">
        <ele>472.600006103515625</ele>
        <time>2018-08-16T15:06:06.000Z</time>
      </trkpt>
      <trkpt lat="48.5529172606766223907470703125" lon="10.282408185303211212158203125">
        <ele>472.399993896484375</ele>
        <time>2018-08-16T15:06:09.000Z</time>
      </trkpt>
      <trkpt lat="48.55313929729163646697998046875" lon="10.28263206593692302703857421875">
        <ele>471.79998779296875</ele>
        <time>2018-08-16T15:06:12.000Z</time>
      </trkpt>
      <trkpt lat="48.55336057953536510467529296875" lon="10.28285435400903224945068359375">
        <ele>471.399993896484375</ele>
        <time>2018-08-16T15:06:15.000Z</time>
      </trkpt>
      <trkpt lat="48.5538370907306671142578125" lon="10.2833219803869724273681640625">
        <ele>470.79998779296875</ele>
        <time>2018-08-16T15:06:21.000Z</time>
      </trkpt>
      <trkpt lat="48.55400548316538333892822265625" lon="10.2834832482039928436279296875">
        <ele>470.600006103515625</ele>
        <time>2018-08-16T15:06:23.000Z</time>
      </trkpt>
      <trkpt lat="48.554090224206447601318359375" lon="10.28356564231216907501220703125">
        <ele>470.600006103515625</ele>
        <time>2018-08-16T15:06:24.000Z</time>
      </trkpt>
      <trkpt lat="48.55417546816170215606689453125" lon="10.28364895842969417572021484375">
        <ele>470.399993896484375</ele>
        <time>2018-08-16T15:06:25.000Z</time>
      </trkpt>
      <trkpt lat="48.554261215031147003173828125" lon="10.2837316878139972686767578125">
        <ele>470.20001220703125</ele>
        <time>2018-08-16T15:06:26.000Z</time>
      </trkpt>
      <trkpt lat="48.554595150053501129150390625" lon="10.28408247046172618865966796875">
        <ele>469.20001220703125</ele>
        <time>2018-08-16T15:06:30.000Z</time>
      </trkpt>
      <trkpt lat="48.5549074597656726837158203125" lon="10.2844914235174655914306640625">
        <ele>467.79998779296875</ele>
        <time>2018-08-16T15:06:34.000Z</time>
      </trkpt>
      <trkpt lat="48.55498549528419971466064453125" lon="10.28459946624934673309326171875">
        <ele>467.600006103515625</ele>
        <time>2018-08-16T15:06:35.000Z</time>
      </trkpt>
      <trkpt lat="48.55520660988986492156982421875" lon="10.28490163385868072509765625">
        <ele>466.600006103515625</ele>
        <time>2018-08-16T15:06:38.000Z</time>
      </trkpt>
      <trkpt lat="48.5552747547626495361328125" lon="10.28499819338321685791015625">
        <ele>466.399993896484375</ele>
        <time>2018-08-16T15:06:39.000Z</time>
      </trkpt>
      <trkpt lat="48.5553969629108905792236328125" lon="10.285196006298065185546875">
        <ele>466.20001220703125</ele>
        <time>2018-08-16T15:06:41.000Z</time>
      </trkpt>
      <trkpt lat="48.55563073419034481048583984375" lon="10.2855961583554744720458984375">
        <ele>466.20001220703125</ele>
        <time>2018-08-16T15:06:45.000Z</time>
      </trkpt>
      <trkpt lat="48.5556933470070362091064453125" lon="10.28570118360221385955810546875">
        <ele>466.20001220703125</ele>
        <time>2018-08-16T15:06:46.000Z</time>
      </trkpt>
      <trkpt lat="48.55575579218566417694091796875" lon="10.285807214677333831787109375">
        <ele>466</ele>
        <time>2018-08-16T15:06:47.000Z</time>
      </trkpt>
      <trkpt lat="48.55594304390251636505126953125" lon="10.28612178750336170196533203125">
        <ele>465.79998779296875</ele>
        <time>2018-08-16T15:06:50.000Z</time>
      </trkpt>
      <trkpt lat="48.55600523762404918670654296875" lon="10.28622404672205448150634765625">
        <ele>465.79998779296875</ele>
        <time>2018-08-16T15:06:51.000Z</time>
      </trkpt>
      <trkpt lat="48.55606709606945514678955078125" lon="10.28632647357881069183349609375">
        <ele>465.399993896484375</ele>
        <time>2018-08-16T15:06:52.000Z</time>
      </trkpt>
      <trkpt lat="48.5561815090477466583251953125" lon="10.28652680106461048126220703125">
        <ele>465</ele>
        <time>2018-08-16T15:06:54.000Z</time>
      </trkpt>
      <trkpt lat="48.5562411881983280181884765625" lon="10.2866164036095142364501953125">
        <ele>465</ele>
        <time>2018-08-16T15:06:55.000Z</time>
      </trkpt>
      <trkpt lat="48.55646640993654727935791015625" lon="10.28667717240750789642333984375">
        <ele>464.600006103515625</ele>
        <time>2018-08-16T15:06:58.000Z</time>
      </trkpt>
      <trkpt lat="48.5565395839512348175048828125" lon="10.286636687815189361572265625">
        <ele>464.399993896484375</ele>
        <time>2018-08-16T15:06:59.000Z</time>
      </trkpt>
      <trkpt lat="48.55661191977560520172119140625" lon="10.2865986339747905731201171875">
        <ele>464.20001220703125</ele>
        <time>2018-08-16T15:07:00.000Z</time>
      </trkpt>
      <trkpt lat="48.556686937808990478515625" lon="10.28657943941652774810791015625">
        <ele>464</ele>
        <time>2018-08-16T15:07:01.000Z</time>
      </trkpt>
      <trkpt lat="48.55683672241866588592529296875" lon="10.28663610108196735382080078125">
        <ele>463.79998779296875</ele>
        <time>2018-08-16T15:07:03.000Z</time>
      </trkpt>
      <trkpt lat="48.5570369660854339599609375" lon="10.28685704804956912994384765625">
        <ele>463.399993896484375</ele>
        <time>2018-08-16T15:07:06.000Z</time>
      </trkpt>
      <trkpt lat="48.557139225304126739501953125" lon="10.28707028366625308990478515625">
        <ele>463.399993896484375</ele>
        <time>2018-08-16T15:07:08.000Z</time>
      </trkpt>
      <trkpt lat="48.5571849904954433441162109375" lon="10.2871860377490520477294921875">
        <ele>463.20001220703125</ele>
        <time>2018-08-16T15:07:09.000Z</time>
      </trkpt>
      <trkpt lat="48.55732203461229801177978515625" lon="10.28753950260579586029052734375">
        <ele>463.20001220703125</ele>
        <time>2018-08-16T15:07:12.000Z</time>
      </trkpt>
      <trkpt lat="48.5574867390096187591552734375" lon="10.28795323334634304046630859375">
        <ele>463</ele>
        <time>2018-08-16T15:07:16.000Z</time>
      </trkpt>
      <trkpt lat="48.55764448642730712890625" lon="10.288362018764019012451171875">
        <ele>463</ele>
        <time>2018-08-16T15:07:20.000Z</time>
      </trkpt>
      <trkpt lat="48.5578662715852260589599609375" lon="10.28887775726616382598876953125">
        <ele>463</ele>
        <time>2018-08-16T15:07:25.000Z</time>
      </trkpt>
      <trkpt lat="48.5582089237868785858154296875" lon="10.28957345522940158843994140625">
        <ele>463</ele>
        <time>2018-08-16T15:07:32.000Z</time>
      </trkpt>
      <trkpt lat="48.5584929026663303375244140625" lon="10.2901693247258663177490234375">
        <ele>463.20001220703125</ele>
        <time>2018-08-16T15:07:38.000Z</time>
      </trkpt>
      <trkpt lat="48.558840416371822357177734375" lon="10.2908633463084697723388671875">
        <ele>463.20001220703125</ele>
        <time>2018-08-16T15:07:45.000Z</time>
      </trkpt>
      <trkpt lat="48.559217937290668487548828125" lon="10.29154278337955474853515625">
        <ele>463.20001220703125</ele>
        <time>2018-08-16T15:07:52.000Z</time>
      </trkpt>
      <trkpt lat="48.5594383813440799713134765625" lon="10.29193296097218990325927734375">
        <ele>463</ele>
        <time>2018-08-16T15:07:56.000Z</time>
      </trkpt>
      <trkpt lat="48.5596509464085102081298828125" lon="10.29234099201858043670654296875">
        <ele>462.600006103515625</ele>
        <time>2018-08-16T15:08:00.000Z</time>
      </trkpt>
      <trkpt lat="48.55975530110299587249755859375" lon="10.29254433698952198028564453125">
        <ele>462.20001220703125</ele>
        <time>2018-08-16T15:08:02.000Z</time>
      </trkpt>
      <trkpt lat="48.5601213388144969940185546875" lon="10.2932015620172023773193359375">
        <ele>461.79998779296875</ele>
        <time>2018-08-16T15:08:09.000Z</time>
      </trkpt>
      <trkpt lat="48.56017875485122203826904296875" lon="10.29327540658414363861083984375">
        <ele>461.79998779296875</ele>
        <time>2018-08-16T15:08:10.000Z</time>
      </trkpt>
      <trkpt lat="48.56044496409595012664794921875" lon="10.2934872172772884368896484375">
        <ele>461.79998779296875</ele>
        <time>2018-08-16T15:08:14.000Z</time>
      </trkpt>
      <trkpt lat="48.56081276200711727142333984375" lon="10.29370355419814586639404296875">
        <ele>462.20001220703125</ele>
        <time>2018-08-16T15:08:19.000Z</time>
      </trkpt>
      <trkpt lat="48.56129086576402187347412109375" lon="10.294192470610141754150390625">
        <ele>462.399993896484375</ele>
        <time>2018-08-16T15:08:26.000Z</time>
      </trkpt>
      <trkpt lat="48.561664111912250518798828125" lon="10.29483578167855739593505859375">
        <ele>462.79998779296875</ele>
        <time>2018-08-16T15:08:34.000Z</time>
      </trkpt>
      <trkpt lat="48.5617147386074066162109375" lon="10.2949007414281368255615234375">
        <ele>462.79998779296875</ele>
        <time>2018-08-16T15:08:35.000Z</time>
      </trkpt>
      <trkpt lat="48.56188883073627948760986328125" lon="10.2950517833232879638671875">
        <ele>463.600006103515625</ele>
        <time>2018-08-16T15:08:38.000Z</time>
      </trkpt>
      <trkpt lat="48.5620998032391071319580078125" lon="10.29510567896068096160888671875">
        <ele>464.20001220703125</ele>
        <time>2018-08-16T15:08:41.000Z</time>
      </trkpt>
      <trkpt lat="48.56217616237699985504150390625" lon="10.29511640779674053192138671875">
        <ele>464.399993896484375</ele>
        <time>2018-08-16T15:08:42.000Z</time>
      </trkpt>
      <trkpt lat="48.56239258311688899993896484375" lon="10.2951320819556713104248046875">
        <ele>465</ele>
        <time>2018-08-16T15:08:45.000Z</time>
      </trkpt>
      <trkpt lat="48.56253038160502910614013671875" lon="10.29516301117837429046630859375">
        <ele>465.399993896484375</ele>
        <time>2018-08-16T15:08:47.000Z</time>
      </trkpt>
      <trkpt lat="48.5630757920444011688232421875" lon="10.2953084371984004974365234375">
        <ele>466.399993896484375</ele>
        <time>2018-08-16T15:08:55.000Z</time>
      </trkpt>
      <trkpt lat="48.5631502233445644378662109375" lon="10.29531757347285747528076171875">
        <ele>466.600006103515625</ele>
        <time>2018-08-16T15:08:56.000Z</time>
      </trkpt>
      <trkpt lat="48.5637282393872737884521484375" lon="10.295282788574695587158203125">
        <ele>467.399993896484375</ele>
        <time>2018-08-16T15:09:04.000Z</time>
      </trkpt>
      <trkpt lat="48.56386612169444561004638671875" lon="10.2952645160257816314697265625">
        <ele>467.600006103515625</ele>
        <time>2018-08-16T15:09:06.000Z</time>
      </trkpt>
      <trkpt lat="48.56400291435420513153076171875" lon="10.29526560567319393157958984375">
        <ele>468</ele>
        <time>2018-08-16T15:09:08.000Z</time>
      </trkpt>
      <trkpt lat="48.56448571197688579559326171875" lon="10.29550666920840740203857421875">
        <ele>468.79998779296875</ele>
        <time>2018-08-16T15:09:15.000Z</time>
      </trkpt>
      <trkpt lat="48.56499432586133480072021484375" lon="10.295917131006717681884765625">
        <ele>469.600006103515625</ele>
        <time>2018-08-16T15:09:23.000Z</time>
      </trkpt>
      <trkpt lat="48.56510647572576999664306640625" lon="10.296045877039432525634765625">
        <ele>469.79998779296875</ele>
        <time>2018-08-16T15:09:25.000Z</time>
      </trkpt>
      <trkpt lat="48.56542381457984447479248046875" lon="10.29643110930919647216796875">
        <ele>471</ele>
        <time>2018-08-16T15:09:31.000Z</time>
      </trkpt>
      <trkpt lat="48.5656119883060455322265625" lon="10.29669254086911678314208984375">
        <ele>471.79998779296875</ele>
        <time>2018-08-16T15:09:35.000Z</time>
      </trkpt>
      <trkpt lat="48.56570242904126644134521484375" lon="10.2968191914260387420654296875">
        <ele>472</ele>
        <time>2018-08-16T15:09:37.000Z</time>
      </trkpt>
      <trkpt lat="48.56607257388532161712646484375" lon="10.29741422273218631744384765625">
        <ele>473</ele>
        <time>2018-08-16T15:09:46.000Z</time>
      </trkpt>
      <trkpt lat="48.56623987667262554168701171875" lon="10.297680683434009552001953125">
        <ele>473.600006103515625</ele>
        <time>2018-08-16T15:09:50.000Z</time>
      </trkpt>
      <trkpt lat="48.56632503680884838104248046875" lon="10.29780867509543895721435546875">
        <ele>474.399993896484375</ele>
        <time>2018-08-16T15:09:52.000Z</time>
      </trkpt>
      <trkpt lat="48.566675484180450439453125" lon="10.29829164035618305206298828125">
        <ele>475.600006103515625</ele>
        <time>2018-08-16T15:10:00.000Z</time>
      </trkpt>
      <trkpt lat="48.5668645799160003662109375" lon="10.298510827124118804931640625">
        <ele>476.79998779296875</ele>
        <time>2018-08-16T15:10:04.000Z</time>
      </trkpt>
      <trkpt lat="48.5671074874699115753173828125" lon="10.2987681515514850616455078125">
        <ele>477.79998779296875</ele>
        <time>2018-08-16T15:10:09.000Z</time>
      </trkpt>
      <trkpt lat="48.56715635396540164947509765625" lon="10.29881559312343597412109375">
        <ele>477.79998779296875</ele>
        <time>2018-08-16T15:10:10.000Z</time>
      </trkpt>
      <trkpt lat="48.567354418337345123291015625" lon="10.298980884253978729248046875">
        <ele>478.79998779296875</ele>
        <time>2018-08-16T15:10:14.000Z</time>
      </trkpt>
      <trkpt lat="48.56758399866521358489990234375" lon="10.29915916733443737030029296875">
        <ele>480</ele>
        <time>2018-08-16T15:10:19.000Z</time>
      </trkpt>
      <trkpt lat="48.56777041219174861907958984375" lon="10.29930601827800273895263671875">
        <ele>481.20001220703125</ele>
        <time>2018-08-16T15:10:23.000Z</time>
      </trkpt>
      <trkpt lat="48.56797141022980213165283203125" lon="10.29945337213575839996337890625">
        <ele>482.399993896484375</ele>
        <time>2018-08-16T15:10:27.000Z</time>
      </trkpt>
      <trkpt lat="48.56819738633930683135986328125" lon="10.2996113710105419158935546875">
        <ele>483.600006103515625</ele>
        <time>2018-08-16T15:10:31.000Z</time>
      </trkpt>
      <trkpt lat="48.56844498775899410247802734375" lon="10.29978713952004909515380859375">
        <ele>484.79998779296875</ele>
        <time>2018-08-16T15:10:35.000Z</time>
      </trkpt>
      <trkpt lat="48.56896600686013698577880859375" lon="10.3001062385737895965576171875">
        <ele>485.20001220703125</ele>
        <time>2018-08-16T15:10:43.000Z</time>
      </trkpt>
      <trkpt lat="48.56940555386245250701904296875" lon="10.30035811476409435272216796875">
        <ele>485.399993896484375</ele>
        <time>2018-08-16T15:10:50.000Z</time>
      </trkpt>
      <trkpt lat="48.5695999301970005035400390625" lon="10.30048392713069915771484375">
        <ele>486</ele>
        <time>2018-08-16T15:10:53.000Z</time>
      </trkpt>
      <trkpt lat="48.56985448859632015228271484375" lon="10.30072440393269062042236328125">
        <ele>486.399993896484375</ele>
        <time>2018-08-16T15:10:57.000Z</time>
      </trkpt>
      <trkpt lat="48.570163361728191375732421875" lon="10.3011056967079639434814453125">
        <ele>486.399993896484375</ele>
        <time>2018-08-16T15:11:02.000Z</time>
      </trkpt>
      <trkpt lat="48.5704045929014682769775390625" lon="10.3014557249844074249267578125">
        <ele>486.399993896484375</ele>
        <time>2018-08-16T15:11:06.000Z</time>
      </trkpt>
      <trkpt lat="48.57053141109645366668701171875" lon="10.30162948183715343475341796875">
        <ele>486.20001220703125</ele>
        <time>2018-08-16T15:11:08.000Z</time>
      </trkpt>
      <trkpt lat="48.5709437169134616851806640625" lon="10.3020910732448101043701171875">
        <ele>485.600006103515625</ele>
        <time>2018-08-16T15:11:14.000Z</time>
      </trkpt>
      <trkpt lat="48.571410588920116424560546875" lon="10.30254914425313472747802734375">
        <ele>485.399993896484375</ele>
        <time>2018-08-16T15:11:21.000Z</time>
      </trkpt>
      <trkpt lat="48.5715703479945659637451171875" lon="10.30274234712123870849609375">
        <ele>485.399993896484375</ele>
        <time>2018-08-16T15:11:24.000Z</time>
      </trkpt>
      <trkpt lat="48.571910150349140167236328125" lon="10.303172506392002105712890625">
        <ele>486.600006103515625</ele>
        <time>2018-08-16T15:11:31.000Z</time>
      </trkpt>
      <trkpt lat="48.5719606094062328338623046875" lon="10.3032373823225498199462890625">
        <ele>487.20001220703125</ele>
        <time>2018-08-16T15:11:32.000Z</time>
      </trkpt>
      <trkpt lat="48.57211475260555744171142578125" lon="10.30344282276928424835205078125">
        <ele>488</ele>
        <time>2018-08-16T15:11:35.000Z</time>
      </trkpt>
      <trkpt lat="48.5722217895090579986572265625" lon="10.3035870753228664398193359375">
        <ele>488.399993896484375</ele>
        <time>2018-08-16T15:11:37.000Z</time>
      </trkpt>
      <trkpt lat="48.57233486138284206390380859375" lon="10.3037342615425586700439453125">
        <ele>488.79998779296875</ele>
        <time>2018-08-16T15:11:39.000Z</time>
      </trkpt>
      <trkpt lat="48.57256226241588592529296875" lon="10.30403860844671726226806640625">
        <ele>489.399993896484375</ele>
        <time>2018-08-16T15:11:43.000Z</time>
      </trkpt>
      <trkpt lat="48.572910614311695098876953125" lon="10.304492153227329254150390625">
        <ele>490</ele>
        <time>2018-08-16T15:11:49.000Z</time>
      </trkpt>
      <trkpt lat="48.5733811743557453155517578125" lon="10.3050076402723789215087890625">
        <ele>490.20001220703125</ele>
        <time>2018-08-16T15:11:57.000Z</time>
      </trkpt>
      <trkpt lat="48.57366154901683330535888671875" lon="10.3052782081067562103271484375">
        <ele>490.399993896484375</ele>
        <time>2018-08-16T15:12:02.000Z</time>
      </trkpt>
      <trkpt lat="48.57399347238242626190185546875" lon="10.305608622729778289794921875">
        <ele>491.20001220703125</ele>
        <time>2018-08-16T15:12:08.000Z</time>
      </trkpt>
      <trkpt lat="48.5741011798381805419921875" lon="10.30572521500289440155029296875">
        <ele>491.600006103515625</ele>
        <time>2018-08-16T15:12:10.000Z</time>
      </trkpt>
      <trkpt lat="48.57437266968190670013427734375" lon="10.3060235269367694854736328125">
        <ele>492.600006103515625</ele>
        <time>2018-08-16T15:12:15.000Z</time>
      </trkpt>
      <trkpt lat="48.5748181678354740142822265625" lon="10.30649852938950061798095703125">
        <ele>493.600006103515625</ele>
        <time>2018-08-16T15:12:23.000Z</time>
      </trkpt>
      <trkpt lat="48.57498672790825366973876953125" lon="10.306677483022212982177734375">
        <ele>493.79998779296875</ele>
        <time>2018-08-16T15:12:26.000Z</time>
      </trkpt>
      <trkpt lat="48.57548528350889682769775390625" lon="10.30719271861016750335693359375">
        <ele>494.79998779296875</ele>
        <time>2018-08-16T15:12:35.000Z</time>
      </trkpt>
      <trkpt lat="48.57554244808852672576904296875" lon="10.30724585987627506256103515625">
        <ele>494.79998779296875</ele>
        <time>2018-08-16T15:12:36.000Z</time>
      </trkpt>
      <trkpt lat="48.57593907974660396575927734375" lon="10.30758700333535671234130859375">
        <ele>496</ele>
        <time>2018-08-16T15:12:43.000Z</time>
      </trkpt>
      <trkpt lat="48.57633705250918865203857421875" lon="10.30774894170463085174560546875">
        <ele>496.600006103515625</ele>
        <time>2018-08-16T15:12:50.000Z</time>
      </trkpt>
      <trkpt lat="48.57644802890717983245849609375" lon="10.30775799416005611419677734375">
        <ele>497</ele>
        <time>2018-08-16T15:12:52.000Z</time>
      </trkpt>
      <trkpt lat="48.576661013066768646240234375" lon="10.307760424911975860595703125">
        <ele>498.20001220703125</ele>
        <time>2018-08-16T15:12:56.000Z</time>
      </trkpt>
      <trkpt lat="48.57681691646575927734375" lon="10.307761766016483306884765625">
        <ele>499.20001220703125</ele>
        <time>2018-08-16T15:12:59.000Z</time>
      </trkpt>
      <trkpt lat="48.57686528004705905914306640625" lon="10.307768471539020538330078125">
        <ele>499.399993896484375</ele>
        <time>2018-08-16T15:13:00.000Z</time>
      </trkpt>
      <trkpt lat="48.5770142264664173126220703125" lon="10.3078310005366802215576171875">
        <ele>500</ele>
        <time>2018-08-16T15:13:03.000Z</time>
      </trkpt>
      <trkpt lat="48.57711556367576122283935546875" lon="10.3078893385827541351318359375">
        <ele>500.600006103515625</ele>
        <time>2018-08-16T15:13:05.000Z</time>
      </trkpt>
      <trkpt lat="48.57731647789478302001953125" lon="10.308048427104949951171875">
        <ele>501.600006103515625</ele>
        <time>2018-08-16T15:13:09.000Z</time>
      </trkpt>
      <trkpt lat="48.57759014703333377838134765625" lon="10.3083526901900768280029296875">
        <ele>502.79998779296875</ele>
        <time>2018-08-16T15:13:15.000Z</time>
      </trkpt>
      <trkpt lat="48.5778229124844074249267578125" lon="10.308595597743988037109375">
        <ele>504</ele>
        <time>2018-08-16T15:13:20.000Z</time>
      </trkpt>
      <trkpt lat="48.57807512395083904266357421875" lon="10.3088207356631755828857421875">
        <ele>505.20001220703125</ele>
        <time>2018-08-16T15:13:25.000Z</time>
      </trkpt>
      <trkpt lat="48.5784042812883853912353515625" lon="10.30906305648386478424072265625">
        <ele>506.20001220703125</ele>
        <time>2018-08-16T15:13:31.000Z</time>
      </trkpt>
      <trkpt lat="48.57885128818452358245849609375" lon="10.30939229764044284820556640625">
        <ele>507.399993896484375</ele>
        <time>2018-08-16T15:13:39.000Z</time>
      </trkpt>
      <trkpt lat="48.5791328363120555877685546875" lon="10.30959614552557468414306640625">
        <ele>508</ele>
        <time>2018-08-16T15:13:44.000Z</time>
      </trkpt>
      <trkpt lat="48.57918958179652690887451171875" lon="10.30963025987148284912109375">
        <ele>508</ele>
        <time>2018-08-16T15:13:45.000Z</time>
      </trkpt>
      <trkpt lat="48.5793655179440975189208984375" lon="10.3096277453005313873291015625">
        <ele>508.399993896484375</ele>
        <time>2018-08-16T15:13:48.000Z</time>
      </trkpt>
      <trkpt lat="48.579507507383823394775390625" lon="10.3094842471182346343994140625">
        <ele>508.600006103515625</ele>
        <time>2018-08-16T15:13:51.000Z</time>
      </trkpt>
      <trkpt lat="48.579954095184803009033203125" lon="10.30893716029822826385498046875">
        <ele>509.399993896484375</ele>
        <time>2018-08-16T15:14:01.000Z</time>
      </trkpt>
      <trkpt lat="48.580005727708339691162109375" lon="10.30888502486050128936767578125">
        <ele>509.600006103515625</ele>
        <time>2018-08-16T15:14:02.000Z</time>
      </trkpt>
      <trkpt lat="48.58032885007560253143310546875" lon="10.3085862100124359130859375">
        <ele>510.79998779296875</ele>
        <time>2018-08-16T15:14:08.000Z</time>
      </trkpt>
      <trkpt lat="48.5805725120007991790771484375" lon="10.30845385976135730743408203125">
        <ele>511.600006103515625</ele>
        <time>2018-08-16T15:14:12.000Z</time>
      </trkpt>
      <trkpt lat="48.580703102052211761474609375" lon="10.30840172432363033294677734375">
        <ele>511.79998779296875</ele>
        <time>2018-08-16T15:14:14.000Z</time>
      </trkpt>
      <trkpt lat="48.5810331813991069793701171875" lon="10.30822587199509143829345703125">
        <ele>512.79998779296875</ele>
        <time>2018-08-16T15:14:19.000Z</time>
      </trkpt>
      <trkpt lat="48.58116142451763153076171875" lon="10.30816233716905117034912109375">
        <ele>513.20001220703125</ele>
        <time>2018-08-16T15:14:21.000Z</time>
      </trkpt>
      <trkpt lat="48.58132026158273220062255859375" lon="10.30849040485918521881103515625">
        <ele>513.79998779296875</ele>
        <time>2018-08-16T15:14:26.000Z</time>
      </trkpt>
      <trkpt lat="48.58132009394466876983642578125" lon="10.3090742044150829315185546875">
        <ele>513.79998779296875</ele>
        <time>2018-08-16T15:14:31.000Z</time>
      </trkpt>
      <trkpt lat="48.58134104870259761810302734375" lon="10.30947997234761714935302734375">
        <ele>513.5999755859375</ele>
        <time>2018-08-16T15:14:35.000Z</time>
      </trkpt>
      <trkpt lat="48.58148337341845035552978515625" lon="10.3094544075429439544677734375">
        <ele>513.4000244140625</ele>
        <time>2018-08-16T15:14:40.000Z</time>
      </trkpt>
      <trkpt lat="48.581830970942974090576171875" lon="10.30874873511493206024169921875">
        <ele>513</ele>
        <time>2018-08-16T15:14:49.000Z</time>
      </trkpt>
      <trkpt lat="48.58207396231591701507568359375" lon="10.308294855058193206787109375">
        <ele>512.79998779296875</ele>
        <time>2018-08-16T15:14:54.000Z</time>
      </trkpt>
      <trkpt lat="48.58231075108051300048828125" lon="10.3079758398234844207763671875">
        <ele>512.5999755859375</ele>
        <time>2018-08-16T15:14:58.000Z</time>
      </trkpt>
      <trkpt lat="48.5824493877589702606201171875" lon="10.30786260031163692474365234375">
        <ele>512.4000244140625</ele>
        <time>2018-08-16T15:15:00.000Z</time>
      </trkpt>
      <trkpt lat="48.5825204662978649139404296875" lon="10.3078125603497028350830078125">
        <ele>512.20001220703125</ele>
        <time>2018-08-16T15:15:01.000Z</time>
      </trkpt>
      <trkpt lat="48.58259238302707672119140625" lon="10.30776671133935451507568359375">
        <ele>512.20001220703125</ele>
        <time>2018-08-16T15:15:02.000Z</time>
      </trkpt>
      <trkpt lat="48.58281559310853481292724609375" lon="10.30765087343752384185791015625">
        <ele>511.79998779296875</ele>
        <time>2018-08-16T15:15:05.000Z</time>
      </trkpt>
      <trkpt lat="48.5829777829349040985107421875" lon="10.3075922839343547821044921875">
        <ele>511.600006103515625</ele>
        <time>2018-08-16T15:15:07.000Z</time>
      </trkpt>
      <trkpt lat="48.583241142332553863525390625" lon="10.30755464918911457061767578125">
        <ele>511.399993896484375</ele>
        <time>2018-08-16T15:15:10.000Z</time>
      </trkpt>
      <trkpt lat="48.5835152305662631988525390625" lon="10.30755112878978252410888671875">
        <ele>511</ele>
        <time>2018-08-16T15:15:13.000Z</time>
      </trkpt>
      <trkpt lat="48.58360801823437213897705078125" lon="10.30755565501749515533447265625">
        <ele>510.600006103515625</ele>
        <time>2018-08-16T15:15:14.000Z</time>
      </trkpt>
      <trkpt lat="48.5840682685375213623046875" lon="10.30765892006456851959228515625">
        <ele>509.600006103515625</ele>
        <time>2018-08-16T15:15:19.000Z</time>
      </trkpt>
      <trkpt lat="48.5845307819545269012451171875" lon="10.307894535362720489501953125">
        <ele>508.79998779296875</ele>
        <time>2018-08-16T15:15:24.000Z</time>
      </trkpt>
      <trkpt lat="48.58470805920660495758056640625" lon="10.30802235938608646392822265625">
        <ele>508.600006103515625</ele>
        <time>2018-08-16T15:15:26.000Z</time>
      </trkpt>
      <trkpt lat="48.585156239569187164306640625" lon="10.3084093518555164337158203125">
        <ele>507.399993896484375</ele>
        <time>2018-08-16T15:15:31.000Z</time>
      </trkpt>
      <trkpt lat="48.58563928864896297454833984375" lon="10.308797769248485565185546875">
        <ele>506.399993896484375</ele>
        <time>2018-08-16T15:15:36.000Z</time>
      </trkpt>
      <trkpt lat="48.58594807796180248260498046875" lon="10.30896238982677459716796875">
        <ele>505.79998779296875</ele>
        <time>2018-08-16T15:15:39.000Z</time>
      </trkpt>
      <trkpt lat="48.5861565358936786651611328125" lon="10.30904126353561878204345703125">
        <ele>505.399993896484375</ele>
        <time>2018-08-16T15:15:41.000Z</time>
      </trkpt>
      <trkpt lat="48.58658015727996826171875" lon="10.30915081501007080078125">
        <ele>503.600006103515625</ele>
        <time>2018-08-16T15:15:45.000Z</time>
      </trkpt>
      <trkpt lat="48.58679364435374736785888671875" lon="10.3092012740671634674072265625">
        <ele>503</ele>
        <time>2018-08-16T15:15:47.000Z</time>
      </trkpt>
      <trkpt lat="48.587004281580448150634765625" lon="10.3092512302100658416748046875">
        <ele>502.399993896484375</ele>
        <time>2018-08-16T15:15:49.000Z</time>
      </trkpt>
      <trkpt lat="48.58757802285254001617431640625" lon="10.30937670730054378509521484375">
        <ele>501.600006103515625</ele>
        <time>2018-08-16T15:15:55.000Z</time>
      </trkpt>
      <trkpt lat="48.5877460800111293792724609375" lon="10.3094138391315937042236328125">
        <ele>501.600006103515625</ele>
        <time>2018-08-16T15:15:57.000Z</time>
      </trkpt>
      <trkpt lat="48.588197864592075347900390625" lon="10.3095036931335926055908203125">
        <ele>502</ele>
        <time>2018-08-16T15:16:03.000Z</time>
      </trkpt>
      <trkpt lat="48.58841336332261562347412109375" lon="10.3095526434481143951416015625">
        <ele>502.600006103515625</ele>
        <time>2018-08-16T15:16:06.000Z</time>
      </trkpt>
      <trkpt lat="48.58863347209990024566650390625" lon="10.30960134230554103851318359375">
        <ele>503.600006103515625</ele>
        <time>2018-08-16T15:16:09.000Z</time>
      </trkpt>
      <trkpt lat="48.5888608731329441070556640625" lon="10.3096435032784938812255859375">
        <ele>504.600006103515625</ele>
        <time>2018-08-16T15:16:12.000Z</time>
      </trkpt>
      <trkpt lat="48.58908961527049541473388671875" lon="10.3096723370254039764404296875">
        <ele>505.79998779296875</ele>
        <time>2018-08-16T15:16:15.000Z</time>
      </trkpt>
      <trkpt lat="48.5893969796597957611083984375" lon="10.30967661179602146148681640625">
        <ele>506.600006103515625</ele>
        <time>2018-08-16T15:16:19.000Z</time>
      </trkpt>
      <trkpt lat="48.5894767753779888153076171875" lon="10.30967585742473602294921875">
        <ele>506.79998779296875</ele>
        <time>2018-08-16T15:16:20.000Z</time>
      </trkpt>
      <trkpt lat="48.59004984609782695770263671875" lon="10.309590362012386322021484375">
        <ele>507.399993896484375</ele>
        <time>2018-08-16T15:16:27.000Z</time>
      </trkpt>
      <trkpt lat="48.5906572826206684112548828125" lon="10.309401936829090118408203125">
        <ele>507.399993896484375</ele>
        <time>2018-08-16T15:16:34.000Z</time>
      </trkpt>
      <trkpt lat="48.59103203751146793365478515625" lon="10.30925584025681018829345703125">
        <ele>507.20001220703125</ele>
        <time>2018-08-16T15:16:38.000Z</time>
      </trkpt>
      <trkpt lat="48.591233454644680023193359375" lon="10.309179313480854034423828125">
        <ele>506.79998779296875</ele>
        <time>2018-08-16T15:16:40.000Z</time>
      </trkpt>
      <trkpt lat="48.59166503883898258209228515625" lon="10.309056937694549560546875">
        <ele>505.79998779296875</ele>
        <time>2018-08-16T15:16:44.000Z</time>
      </trkpt>
      <trkpt lat="48.5917764343321323394775390625" lon="10.30904646031558513641357421875">
        <ele>505.399993896484375</ele>
        <time>2018-08-16T15:16:45.000Z</time>
      </trkpt>
      <trkpt lat="48.59210827387869358062744140625" lon="10.3090488910675048828125">
        <ele>504.20001220703125</ele>
        <time>2018-08-16T15:16:48.000Z</time>
      </trkpt>
      <trkpt lat="48.59231916256248950958251953125" lon="10.30907328240573406219482421875">
        <ele>503</ele>
        <time>2018-08-16T15:16:50.000Z</time>
      </trkpt>
      <trkpt lat="48.5924211703240871429443359375" lon="10.30908736400306224822998046875">
        <ele>502.79998779296875</ele>
        <time>2018-08-16T15:16:51.000Z</time>
      </trkpt>
      <trkpt lat="48.592619486153125762939453125" lon="10.30910647474229335784912109375">
        <ele>502</ele>
        <time>2018-08-16T15:16:53.000Z</time>
      </trkpt>
      <trkpt lat="48.59300010837614536285400390625" lon="10.309095494449138641357421875">
        <ele>501.79998779296875</ele>
        <time>2018-08-16T15:16:57.000Z</time>
      </trkpt>
      <trkpt lat="48.59327687881886959075927734375" lon="10.3090448677539825439453125">
        <ele>501.79998779296875</ele>
        <time>2018-08-16T15:17:00.000Z</time>
      </trkpt>
      <trkpt lat="48.593727909028530120849609375" lon="10.30888904817402362823486328125">
        <ele>502</ele>
        <time>2018-08-16T15:17:05.000Z</time>
      </trkpt>
      <trkpt lat="48.59407148323953151702880859375" lon="10.30870397575199604034423828125">
        <ele>502.20001220703125</ele>
        <time>2018-08-16T15:17:09.000Z</time>
      </trkpt>
      <trkpt lat="48.59441162087023258209228515625" lon="10.3085136227309703826904296875">
        <ele>502.79998779296875</ele>
        <time>2018-08-16T15:17:13.000Z</time>
      </trkpt>
      <trkpt lat="48.59467045404016971588134765625" lon="10.30839300714433193206787109375">
        <ele>503</ele>
        <time>2018-08-16T15:17:16.000Z</time>
      </trkpt>
      <trkpt lat="48.59502467326819896697998046875" lon="10.30829745344817638397216796875">
        <ele>503</ele>
        <time>2018-08-16T15:17:20.000Z</time>
      </trkpt>
      <trkpt lat="48.59528887085616588592529296875" lon="10.308266691863536834716796875">
        <ele>503.399993896484375</ele>
        <time>2018-08-16T15:17:23.000Z</time>
      </trkpt>
      <trkpt lat="48.5958865843713283538818359375" lon="10.30832025222480297088623046875">
        <ele>503.600006103515625</ele>
        <time>2018-08-16T15:17:30.000Z</time>
      </trkpt>
      <trkpt lat="48.59621155075728893280029296875" lon="10.3084257803857326507568359375">
        <ele>503.79998779296875</ele>
        <time>2018-08-16T15:17:34.000Z</time>
      </trkpt>
      <trkpt lat="48.596677668392658233642578125" lon="10.30867539346218109130859375">
        <ele>504</ele>
        <time>2018-08-16T15:17:40.000Z</time>
      </trkpt>
      <trkpt lat="48.5969685204327106475830078125" lon="10.3088659979403018951416015625">
        <ele>504.20001220703125</ele>
        <time>2018-08-16T15:17:44.000Z</time>
      </trkpt>
      <trkpt lat="48.5974050499498844146728515625" lon="10.3091399185359477996826171875">
        <ele>505</ele>
        <time>2018-08-16T15:17:50.000Z</time>
      </trkpt>
      <trkpt lat="48.59795029275119304656982421875" lon="10.30935223214328289031982421875">
        <ele>505.600006103515625</ele>
        <time>2018-08-16T15:17:57.000Z</time>
      </trkpt>
      <trkpt lat="48.5983431525528430938720703125" lon="10.3093962371349334716796875">
        <ele>506</ele>
        <time>2018-08-16T15:18:02.000Z</time>
      </trkpt>
      <trkpt lat="48.5989124514162540435791015625" lon="10.30934150330722332000732421875">
        <ele>506.600006103515625</ele>
        <time>2018-08-16T15:18:09.000Z</time>
      </trkpt>
      <trkpt lat="48.59932425431907176971435546875" lon="10.30924846418201923370361328125">
        <ele>507</ele>
        <time>2018-08-16T15:18:14.000Z</time>
      </trkpt>
      <trkpt lat="48.599890284240245819091796875" lon="10.3091248311102390289306640625">
        <ele>507.600006103515625</ele>
        <time>2018-08-16T15:18:21.000Z</time>
      </trkpt>
      <trkpt lat="48.60029839910566806793212890625" lon="10.30907914973795413970947265625">
        <ele>508</ele>
        <time>2018-08-16T15:18:26.000Z</time>
      </trkpt>
      <trkpt lat="48.60079385340213775634765625" lon="10.309078060090541839599609375">
        <ele>508.20001220703125</ele>
        <time>2018-08-16T15:18:32.000Z</time>
      </trkpt>
      <trkpt lat="48.6011162213981151580810546875" lon="10.30907101929187774658203125">
        <ele>508.399993896484375</ele>
        <time>2018-08-16T15:18:36.000Z</time>
      </trkpt>
      <trkpt lat="48.60163179226219654083251953125" lon="10.309063307940959930419921875">
        <ele>509.20001220703125</ele>
        <time>2018-08-16T15:18:43.000Z</time>
      </trkpt>
      <trkpt lat="48.60183262266218662261962890625" lon="10.309055931866168975830078125">
        <ele>509.79998779296875</ele>
        <time>2018-08-16T15:18:46.000Z</time>
      </trkpt>
      <trkpt lat="48.60203177668154239654541015625" lon="10.3090440295636653900146484375">
        <ele>510.600006103515625</ele>
        <time>2018-08-16T15:18:49.000Z</time>
      </trkpt>
      <trkpt lat="48.602236211299896240234375" lon="10.30903346836566925048828125">
        <ele>511.600006103515625</ele>
        <time>2018-08-16T15:18:52.000Z</time>
      </trkpt>
      <trkpt lat="48.60244072973728179931640625" lon="10.30901930294930934906005859375">
        <ele>512.79998779296875</ele>
        <time>2018-08-16T15:18:55.000Z</time>
      </trkpt>
      <trkpt lat="48.60271590761840343475341796875" lon="10.30899063684046268463134765625">
        <ele>514</ele>
        <time>2018-08-16T15:18:59.000Z</time>
      </trkpt>
      <trkpt lat="48.6029283888638019561767578125" lon="10.30895434319972991943359375">
        <ele>515</ele>
        <time>2018-08-16T15:19:02.000Z</time>
      </trkpt>
      <trkpt lat="48.60329425893723964691162109375" lon="10.30889089219272136688232421875">
        <ele>516.20001220703125</ele>
        <time>2018-08-16T15:19:07.000Z</time>
      </trkpt>
      <trkpt lat="48.60387378372251987457275390625" lon="10.308777987957000732421875">
        <ele>517.20001220703125</ele>
        <time>2018-08-16T15:19:14.000Z</time>
      </trkpt>
      <trkpt lat="48.60448113642632961273193359375" lon="10.3086386807262897491455078125">
        <ele>517.20001220703125</ele>
        <time>2018-08-16T15:19:20.000Z</time>
      </trkpt>
      <trkpt lat="48.6048002354800701141357421875" lon="10.30857372097671031951904296875">
        <ele>516</ele>
        <time>2018-08-16T15:19:23.000Z</time>
      </trkpt>
      <trkpt lat="48.60509318299591541290283203125" lon="10.3085199929773807525634765625">
        <ele>514.79998779296875</ele>
        <time>2018-08-16T15:19:26.000Z</time>
      </trkpt>
      <trkpt lat="48.6056841909885406494140625" lon="10.308410190045833587646484375">
        <ele>514.20001220703125</ele>
        <time>2018-08-16T15:19:34.000Z</time>
      </trkpt>
      <trkpt lat="48.60596925951540470123291015625" lon="10.30836266465485095977783203125">
        <ele>515.5999755859375</ele>
        <time>2018-08-16T15:19:38.000Z</time>
      </trkpt>
      <trkpt lat="48.60604151152074337005615234375" lon="10.3083483316004276275634765625">
        <ele>516</ele>
        <time>2018-08-16T15:19:39.000Z</time>
      </trkpt>
      <trkpt lat="48.606184758245944976806640625" lon="10.30830667354166507720947265625">
        <ele>517</ele>
        <time>2018-08-16T15:19:41.000Z</time>
      </trkpt>
      <trkpt lat="48.606253825128078460693359375" lon="10.3082745708525180816650390625">
        <ele>517.4000244140625</ele>
        <time>2018-08-16T15:19:42.000Z</time>
      </trkpt>
      <trkpt lat="48.6064521409571170806884765625" lon="10.3081300668418407440185546875">
        <ele>518.20001220703125</ele>
        <time>2018-08-16T15:19:45.000Z</time>
      </trkpt>
      <trkpt lat="48.60682345926761627197265625" lon="10.307901240885257720947265625">
        <ele>519.20001220703125</ele>
        <time>2018-08-16T15:19:50.000Z</time>
      </trkpt>
      <trkpt lat="48.60734255053102970123291015625" lon="10.307651124894618988037109375">
        <ele>519.4000244140625</ele>
        <time>2018-08-16T15:19:56.000Z</time>
      </trkpt>
      <trkpt lat="48.6079407669603824615478515625" lon="10.3073867596685886383056640625">
        <ele>518.79998779296875</ele>
        <time>2018-08-16T15:20:02.000Z</time>
      </trkpt>
      <trkpt lat="48.60816095955669879913330078125" lon="10.30729078687727451324462890625">
        <ele>518.4000244140625</ele>
        <time>2018-08-16T15:20:04.000Z</time>
      </trkpt>
      <trkpt lat="48.6082723550498485565185546875" lon="10.3072415851056575775146484375">
        <ele>518.20001220703125</ele>
        <time>2018-08-16T15:20:05.000Z</time>
      </trkpt>
      <trkpt lat="48.60850092954933643341064453125" lon="10.30715282075107097625732421875">
        <ele>517.79998779296875</ele>
        <time>2018-08-16T15:20:07.000Z</time>
      </trkpt>
      <trkpt lat="48.60861861146986484527587890625" lon="10.3071177005767822265625">
        <ele>517.4000244140625</ele>
        <time>2018-08-16T15:20:08.000Z</time>
      </trkpt>
      <trkpt lat="48.6087380535900592803955078125" lon="10.30708886682987213134765625">
        <ele>516.4000244140625</ele>
        <time>2018-08-16T15:20:09.000Z</time>
      </trkpt>
      <trkpt lat="48.60885933972895145416259765625" lon="10.30706497840583324432373046875">
        <ele>515</ele>
        <time>2018-08-16T15:20:10.000Z</time>
      </trkpt>
      <trkpt lat="48.60898196697235107421875" lon="10.307044275104999542236328125">
        <ele>514.4000244140625</ele>
        <time>2018-08-16T15:20:11.000Z</time>
      </trkpt>
      <trkpt lat="48.60910560004413127899169921875" lon="10.3070253320038318634033203125">
        <ele>513.79998779296875</ele>
        <time>2018-08-16T15:20:12.000Z</time>
      </trkpt>
      <trkpt lat="48.609229736030101776123046875" lon="10.307008065283298492431640625">
        <ele>513.4000244140625</ele>
        <time>2018-08-16T15:20:13.000Z</time>
      </trkpt>
      <trkpt lat="48.6094803549349308013916015625" lon="10.30698266811668872833251953125">
        <ele>512.4000244140625</ele>
        <time>2018-08-16T15:20:15.000Z</time>
      </trkpt>
      <trkpt lat="48.60972963273525238037109375" lon="10.3069783933460712432861328125">
        <ele>511.20001220703125</ele>
        <time>2018-08-16T15:20:17.000Z</time>
      </trkpt>
      <trkpt lat="48.6099785752594470977783203125" lon="10.306991301476955413818359375">
        <ele>510.20001220703125</ele>
        <time>2018-08-16T15:20:19.000Z</time>
      </trkpt>
      <trkpt lat="48.61022525466978549957275390625" lon="10.30701083131134510040283203125">
        <ele>509</ele>
        <time>2018-08-16T15:20:21.000Z</time>
      </trkpt>
      <trkpt lat="48.61034863628447055816650390625" lon="10.307023823261260986328125">
        <ele>508.399993896484375</ele>
        <time>2018-08-16T15:20:22.000Z</time>
      </trkpt>
      <trkpt lat="48.61047151498496532440185546875" lon="10.30703916214406490325927734375">
        <ele>508</ele>
        <time>2018-08-16T15:20:23.000Z</time>
      </trkpt>
      <trkpt lat="48.6105941422283649444580078125" lon="10.3070573508739471435546875">
        <ele>507.600006103515625</ele>
        <time>2018-08-16T15:20:24.000Z</time>
      </trkpt>
      <trkpt lat="48.6107160151004791259765625" lon="10.307077467441558837890625">
        <ele>507</ele>
        <time>2018-08-16T15:20:25.000Z</time>
      </trkpt>
      <trkpt lat="48.61095783300697803497314453125" lon="10.30711526982486248016357421875">
        <ele>506.20001220703125</ele>
        <time>2018-08-16T15:20:27.000Z</time>
      </trkpt>
      <trkpt lat="48.61130886711180210113525390625" lon="10.307183749973773956298828125">
        <ele>504.79998779296875</ele>
        <time>2018-08-16T15:20:30.000Z</time>
      </trkpt>
      <trkpt lat="48.61142076551914215087890625" lon="10.30723161064088344573974609375">
        <ele>504.600006103515625</ele>
        <time>2018-08-16T15:20:31.000Z</time>
      </trkpt>
      <trkpt lat="48.6115268804132938385009765625" lon="10.3073029406368732452392578125">
        <ele>504.20001220703125</ele>
        <time>2018-08-16T15:20:32.000Z</time>
      </trkpt>
      <trkpt lat="48.6116247810423374176025390625" lon="10.30739237554371356964111328125">
        <ele>504</ele>
        <time>2018-08-16T15:20:33.000Z</time>
      </trkpt>
      <trkpt lat="48.6117159761488437652587890625" lon="10.307496227324008941650390625">
        <ele>503.79998779296875</ele>
        <time>2018-08-16T15:20:34.000Z</time>
      </trkpt>
      <trkpt lat="48.6118061654269695281982421875" lon="10.30759789980947971343994140625">
        <ele>503.399993896484375</ele>
        <time>2018-08-16T15:20:35.000Z</time>
      </trkpt>
      <trkpt lat="48.61220992170274257659912109375" lon="10.30784063972532749176025390625">
        <ele>502.79998779296875</ele>
        <time>2018-08-16T15:20:39.000Z</time>
      </trkpt>
      <trkpt lat="48.61231603659689426422119140625" lon="10.307866372168064117431640625">
        <ele>502.399993896484375</ele>
        <time>2018-08-16T15:20:40.000Z</time>
      </trkpt>
      <trkpt lat="48.61252541653811931610107421875" lon="10.30789889395236968994140625">
        <ele>502</ele>
        <time>2018-08-16T15:20:42.000Z</time>
      </trkpt>
      <trkpt lat="48.61282699741423130035400390625" lon="10.30791238881647586822509765625">
        <ele>501.79998779296875</ele>
        <time>2018-08-16T15:20:45.000Z</time>
      </trkpt>
      <trkpt lat="48.61292338930070400238037109375" lon="10.307901911437511444091796875">
        <ele>501.600006103515625</ele>
        <time>2018-08-16T15:20:46.000Z</time>
      </trkpt>
      <trkpt lat="48.61327358521521091461181640625" lon="10.30784734524786472320556640625">
        <ele>501.600006103515625</ele>
        <time>2018-08-16T15:20:50.000Z</time>
      </trkpt>
      <trkpt lat="48.61341976560652256011962890625" lon="10.30780660919845104217529296875">
        <ele>501.600006103515625</ele>
        <time>2018-08-16T15:20:52.000Z</time>
      </trkpt>
      <trkpt lat="48.613544739782810211181640625" lon="10.3077374584972858428955078125">
        <ele>501.600006103515625</ele>
        <time>2018-08-16T15:20:54.000Z</time>
      </trkpt>
      <trkpt lat="48.61373475752770900726318359375" lon="10.3077501989901065826416015625">
        <ele>501.600006103515625</ele>
        <time>2018-08-16T15:20:57.000Z</time>
      </trkpt>
      <trkpt lat="48.61387339420616626739501953125" lon="10.30777425505220890045166015625">
        <ele>502</ele>
        <time>2018-08-16T15:20:59.000Z</time>
      </trkpt>
      <trkpt lat="48.613946735858917236328125" lon="10.3077817149460315704345703125">
        <ele>502.20001220703125</ele>
        <time>2018-08-16T15:21:00.000Z</time>
      </trkpt>
      <trkpt lat="48.61409652046859264373779296875" lon="10.3077895939350128173828125">
        <ele>502.600006103515625</ele>
        <time>2018-08-16T15:21:02.000Z</time>
      </trkpt>
      <trkpt lat="48.61417463980615139007568359375" lon="10.30779303051531314849853515625">
        <ele>502.79998779296875</ele>
        <time>2018-08-16T15:21:03.000Z</time>
      </trkpt>
      <trkpt lat="48.614404387772083282470703125" lon="10.30780392698943614959716796875">
        <ele>503</ele>
        <time>2018-08-16T15:21:06.000Z</time>
      </trkpt>
      <trkpt lat="48.61471745185554027557373046875" lon="10.307812392711639404296875">
        <ele>504</ele>
        <time>2018-08-16T15:21:10.000Z</time>
      </trkpt>
      <trkpt lat="48.61503529362380504608154296875" lon="10.30781750567257404327392578125">
        <ele>505</ele>
        <time>2018-08-16T15:21:14.000Z</time>
      </trkpt>
      <trkpt lat="48.61526981927454471588134765625" lon="10.3078323416411876678466796875">
        <ele>506</ele>
        <time>2018-08-16T15:21:17.000Z</time>
      </trkpt>
      <trkpt lat="48.61534743569791316986083984375" lon="10.3078383766114711761474609375">
        <ele>506.20001220703125</ele>
        <time>2018-08-16T15:21:18.000Z</time>
      </trkpt>
      <trkpt lat="48.615806512534618377685546875" lon="10.30792613513767719268798828125">
        <ele>507.20001220703125</ele>
        <time>2018-08-16T15:21:24.000Z</time>
      </trkpt>
      <trkpt lat="48.61635334789752960205078125" lon="10.3080874867737293243408203125">
        <ele>507.79998779296875</ele>
        <time>2018-08-16T15:21:31.000Z</time>
      </trkpt>
      <trkpt lat="48.61691652797162532806396484375" lon="10.3083473257720470428466796875">
        <ele>508.20001220703125</ele>
        <time>2018-08-16T15:21:38.000Z</time>
      </trkpt>
      <trkpt lat="48.61747493036091327667236328125" lon="10.308693163096904754638671875">
        <ele>508.20001220703125</ele>
        <time>2018-08-16T15:21:45.000Z</time>
      </trkpt>
      <trkpt lat="48.617712557315826416015625" lon="10.30885786749422550201416015625">
        <ele>508.20001220703125</ele>
        <time>2018-08-16T15:21:48.000Z</time>
      </trkpt>
      <trkpt lat="48.6179444007575511932373046875" lon="10.3090555965900421142578125">
        <ele>508</ele>
        <time>2018-08-16T15:21:51.000Z</time>
      </trkpt>
      <trkpt lat="48.61809250898659229278564453125" lon="10.3092052973806858062744140625">
        <ele>507.79998779296875</ele>
        <time>2018-08-16T15:21:53.000Z</time>
      </trkpt>
      <trkpt lat="48.61823986284434795379638671875" lon="10.30936212278902530670166015625">
        <ele>507.600006103515625</ele>
        <time>2018-08-16T15:21:55.000Z</time>
      </trkpt>
      <trkpt lat="48.61867706291377544403076171875" lon="10.30986084602773189544677734375">
        <ele>507.20001220703125</ele>
        <time>2018-08-16T15:22:01.000Z</time>
      </trkpt>
      <trkpt lat="48.61916304565966129302978515625" lon="10.31026317737996578216552734375">
        <ele>506.600006103515625</ele>
        <time>2018-08-16T15:22:07.000Z</time>
      </trkpt>
      <trkpt lat="48.619343675673007965087890625" lon="10.31034263782203197479248046875">
        <ele>506.600006103515625</ele>
        <time>2018-08-16T15:22:09.000Z</time>
      </trkpt>
      <trkpt lat="48.61952246166765689849853515625" lon="10.310410447418689727783203125">
        <ele>506.600006103515625</ele>
        <time>2018-08-16T15:22:11.000Z</time>
      </trkpt>
      <trkpt lat="48.6198688857257366180419921875" lon="10.310521423816680908203125">
        <ele>506.600006103515625</ele>
        <time>2018-08-16T15:22:15.000Z</time>
      </trkpt>
      <trkpt lat="48.62043843604624271392822265625" lon="10.31063851900398731231689453125">
        <ele>507.600006103515625</ele>
        <time>2018-08-16T15:22:22.000Z</time>
      </trkpt>
      <trkpt lat="48.6207635700702667236328125" lon="10.3106721304357051849365234375">
        <ele>508.600006103515625</ele>
        <time>2018-08-16T15:22:26.000Z</time>
      </trkpt>
      <trkpt lat="48.62135432660579681396484375" lon="10.31071093864738941192626953125">
        <ele>509.20001220703125</ele>
        <time>2018-08-16T15:22:33.000Z</time>
      </trkpt>
      <trkpt lat="48.6219335161149501800537109375" lon="10.310794673860073089599609375">
        <ele>509.399993896484375</ele>
        <time>2018-08-16T15:22:40.000Z</time>
      </trkpt>
      <trkpt lat="48.62209729850292205810546875" lon="10.31083079986274242401123046875">
        <ele>509.600006103515625</ele>
        <time>2018-08-16T15:22:42.000Z</time>
      </trkpt>
      <trkpt lat="48.622495271265506744384765625" lon="10.3109299577772617340087890625">
        <ele>509.600006103515625</ele>
        <time>2018-08-16T15:22:47.000Z</time>
      </trkpt>
      <trkpt lat="48.623078651726245880126953125" lon="10.31111176125705242156982421875">
        <ele>510.20001220703125</ele>
        <time>2018-08-16T15:22:55.000Z</time>
      </trkpt>
      <trkpt lat="48.62321854569017887115478515625" lon="10.3111636452376842498779296875">
        <ele>510.600006103515625</ele>
        <time>2018-08-16T15:22:57.000Z</time>
      </trkpt>
      <trkpt lat="48.6235683225095272064208984375" lon="10.31129096634685993194580078125">
        <ele>511.600006103515625</ele>
        <time>2018-08-16T15:23:02.000Z</time>
      </trkpt>
      <trkpt lat="48.62363898195326328277587890625" lon="10.31131611205637454986572265625">
        <ele>511.600006103515625</ele>
        <time>2018-08-16T15:23:03.000Z</time>
      </trkpt>
      <trkpt lat="48.6239260621368885040283203125" lon="10.31142088584601879119873046875">
        <ele>512.79998779296875</ele>
        <time>2018-08-16T15:23:07.000Z</time>
      </trkpt>
      <trkpt lat="48.62437784671783447265625" lon="10.31158952973783016204833984375">
        <ele>514</ele>
        <time>2018-08-16T15:23:13.000Z</time>
      </trkpt>
      <trkpt lat="48.624933063983917236328125" lon="10.31183109618723392486572265625">
        <ele>514</ele>
        <time>2018-08-16T15:23:20.000Z</time>
      </trkpt>
      <trkpt lat="48.62544813193380832672119140625" lon="10.31206528656184673309326171875">
        <ele>513.20001220703125</ele>
        <time>2018-08-16T15:23:26.000Z</time>
      </trkpt>
      <trkpt lat="48.62553446553647518157958984375" lon="10.31210702843964099884033203125">
        <ele>513.20001220703125</ele>
        <time>2018-08-16T15:23:27.000Z</time>
      </trkpt>
      <trkpt lat="48.62561627291142940521240234375" lon="10.312162600457668304443359375">
        <ele>512.79998779296875</ele>
        <time>2018-08-16T15:23:28.000Z</time>
      </trkpt>
      <trkpt lat="48.625751473009586334228515625" lon="10.31229662708938121795654296875">
        <ele>512.4000244140625</ele>
        <time>2018-08-16T15:23:30.000Z</time>
      </trkpt>
      <trkpt lat="48.62583420239388942718505859375" lon="10.3124350123107433319091796875">
        <ele>511.600006103515625</ele>
        <time>2018-08-16T15:23:32.000Z</time>
      </trkpt>
      <trkpt lat="48.62591148354113101959228515625" lon="10.31256417743861675262451171875">
        <ele>511.399993896484375</ele>
        <time>2018-08-16T15:23:34.000Z</time>
      </trkpt>
      <trkpt lat="48.62595188431441783905029296875" lon="10.31262402422726154327392578125">
        <ele>511</ele>
        <time>2018-08-16T15:23:35.000Z</time>
      </trkpt>
      <trkpt lat="48.62604022957384586334228515625" lon="10.31272108666598796844482421875">
        <ele>510.399993896484375</ele>
        <time>2018-08-16T15:23:37.000Z</time>
      </trkpt>
      <trkpt lat="48.62608482129871845245361328125" lon="10.3127461485564708709716796875">
        <ele>510.20001220703125</ele>
        <time>2018-08-16T15:23:38.000Z</time>
      </trkpt>
      <trkpt lat="48.62612606026232242584228515625" lon="10.3127541951835155487060546875">
        <ele>510</ele>
        <time>2018-08-16T15:23:39.000Z</time>
      </trkpt>
      <trkpt lat="48.6262071132659912109375" lon="10.3127126209437847137451171875">
        <ele>509.20001220703125</ele>
        <time>2018-08-16T15:23:41.000Z</time>
      </trkpt>
      <trkpt lat="48.62629889510571956634521484375" lon="10.3124896623194217681884765625">
        <ele>508.600006103515625</ele>
        <time>2018-08-16T15:23:44.000Z</time>
      </trkpt>
      <trkpt lat="48.6263212747871875762939453125" lon="10.31239695847034454345703125">
        <ele>508.399993896484375</ele>
        <time>2018-08-16T15:23:45.000Z</time>
      </trkpt>
      <trkpt lat="48.62634667195379734039306640625" lon="10.3123049251735210418701171875">
        <ele>508.20001220703125</ele>
        <time>2018-08-16T15:23:46.000Z</time>
      </trkpt>
      <trkpt lat="48.62638170830905437469482421875" lon="10.312220267951488494873046875">
        <ele>508</ele>
        <time>2018-08-16T15:23:47.000Z</time>
      </trkpt>
      <trkpt lat="48.62642747350037097930908203125" lon="10.312147177755832672119140625">
        <ele>508</ele>
        <time>2018-08-16T15:23:48.000Z</time>
      </trkpt>
      <trkpt lat="48.6264858953654766082763671875" lon="10.31209931708872318267822265625">
        <ele>508</ele>
        <time>2018-08-16T15:23:49.000Z</time>
      </trkpt>
      <trkpt lat="48.62655370496213436126708984375" lon="10.3120873309671878814697265625">
        <ele>507.79998779296875</ele>
        <time>2018-08-16T15:23:50.000Z</time>
      </trkpt>
      <trkpt lat="48.626625873148441314697265625" lon="10.31210669316351413726806640625">
        <ele>507.79998779296875</ele>
        <time>2018-08-16T15:23:51.000Z</time>
      </trkpt>
      <trkpt lat="48.62677314318716526031494140625" lon="10.31219939701259136199951171875">
        <ele>507.600006103515625</ele>
        <time>2018-08-16T15:23:53.000Z</time>
      </trkpt>
      <trkpt lat="48.6269334889948368072509765625" lon="10.3122938610613346099853515625">
        <ele>507.600006103515625</ele>
        <time>2018-08-16T15:23:55.000Z</time>
      </trkpt>
      <trkpt lat="48.627293407917022705078125" lon="10.3123766742646694183349609375">
        <ele>507.600006103515625</ele>
        <time>2018-08-16T15:23:59.000Z</time>
      </trkpt>
      <trkpt lat="48.627384938299655914306640625" lon="10.31239134259521961212158203125">
        <ele>507.600006103515625</ele>
        <time>2018-08-16T15:24:00.000Z</time>
      </trkpt>
      <trkpt lat="48.62747755832970142364501953125" lon="10.31240609474480152130126953125">
        <ele>507.399993896484375</ele>
        <time>2018-08-16T15:24:01.000Z</time>
      </trkpt>
      <trkpt lat="48.627665899693965911865234375" lon="10.31243719160556793212890625">
        <ele>507</ele>
        <time>2018-08-16T15:24:03.000Z</time>
      </trkpt>
      <trkpt lat="48.6278568394482135772705078125" lon="10.3124646842479705810546875">
        <ele>506</ele>
        <time>2018-08-16T15:24:05.000Z</time>
      </trkpt>
      <trkpt lat="48.62795247696340084075927734375" lon="10.31248019076883792877197265625">
        <ele>505.79998779296875</ele>
        <time>2018-08-16T15:24:06.000Z</time>
      </trkpt>
      <trkpt lat="48.6285153217613697052001953125" lon="10.3125718049705028533935546875">
        <ele>504.600006103515625</ele>
        <time>2018-08-16T15:24:12.000Z</time>
      </trkpt>
      <trkpt lat="48.6289773322641849517822265625" lon="10.31264967285096645355224609375">
        <ele>503.399993896484375</ele>
        <time>2018-08-16T15:24:17.000Z</time>
      </trkpt>
      <trkpt lat="48.6294634826481342315673828125" lon="10.312731564044952392578125">
        <ele>502.20001220703125</ele>
        <time>2018-08-16T15:24:22.000Z</time>
      </trkpt>
      <trkpt lat="48.6297570168972015380859375" lon="10.31277514994144439697265625">
        <ele>502</ele>
        <time>2018-08-16T15:24:25.000Z</time>
      </trkpt>
      <trkpt lat="48.63035238347947597503662109375" lon="10.3128309734165668487548828125">
        <ele>501.399993896484375</ele>
        <time>2018-08-16T15:24:31.000Z</time>
      </trkpt>
      <trkpt lat="48.63055505789816379547119140625" lon="10.31283306889235973358154296875">
        <ele>501.20001220703125</ele>
        <time>2018-08-16T15:24:33.000Z</time>
      </trkpt>
      <trkpt lat="48.63097616471350193023681640625" lon="10.312867350876331329345703125">
        <ele>500.399993896484375</ele>
        <time>2018-08-16T15:24:37.000Z</time>
      </trkpt>
      <trkpt lat="48.63108479417860507965087890625" lon="10.312885455787181854248046875">
        <ele>500.20001220703125</ele>
        <time>2018-08-16T15:24:38.000Z</time>
      </trkpt>
      <trkpt lat="48.63152316771447658538818359375" lon="10.31296986155211925506591796875">
        <ele>499.20001220703125</ele>
        <time>2018-08-16T15:24:42.000Z</time>
      </trkpt>
      <trkpt lat="48.631631545722484588623046875" lon="10.31298964284360408782958984375">
        <ele>498.79998779296875</ele>
        <time>2018-08-16T15:24:43.000Z</time>
      </trkpt>
      <trkpt lat="48.63194947130978107452392578125" lon="10.313045047223567962646484375">
        <ele>497.79998779296875</ele>
        <time>2018-08-16T15:24:46.000Z</time>
      </trkpt>
      <trkpt lat="48.63215348683297634124755859375" lon="10.3130824305117130279541015625">
        <ele>496.600006103515625</ele>
        <time>2018-08-16T15:24:48.000Z</time>
      </trkpt>
      <trkpt lat="48.63244400359690189361572265625" lon="10.3131404332816600799560546875">
        <ele>496</ele>
        <time>2018-08-16T15:24:51.000Z</time>
      </trkpt>
      <trkpt lat="48.63262907601892948150634765625" lon="10.313175134360790252685546875">
        <ele>495.600006103515625</ele>
        <time>2018-08-16T15:24:53.000Z</time>
      </trkpt>
      <trkpt lat="48.6331857182085514068603515625" lon="10.3132975101470947265625">
        <ele>495.399993896484375</ele>
        <time>2018-08-16T15:25:00.000Z</time>
      </trkpt>
      <trkpt lat="48.63331253640353679656982421875" lon="10.3133578598499298095703125">
        <ele>495.399993896484375</ele>
        <time>2018-08-16T15:25:02.000Z</time>
      </trkpt>
      <trkpt lat="48.63336953334510326385498046875" lon="10.313397087156772613525390625">
        <ele>495.399993896484375</ele>
        <time>2018-08-16T15:25:03.000Z</time>
      </trkpt>
      <trkpt lat="48.63361193798482418060302734375" lon="10.31368441879749298095703125">
        <ele>496.399993896484375</ele>
        <time>2018-08-16T15:25:08.000Z</time>
      </trkpt>
      <trkpt lat="48.6336735449731349945068359375" lon="10.31371392309665679931640625">
        <ele>497</ele>
        <time>2018-08-16T15:25:09.000Z</time>
      </trkpt>
      <trkpt lat="48.63380153663456439971923828125" lon="10.31370311044156551361083984375">
        <ele>497.600006103515625</ele>
        <time>2018-08-16T15:25:11.000Z</time>
      </trkpt>
      <trkpt lat="48.633865155279636383056640625" lon="10.31369238160550594329833984375">
        <ele>498</ele>
        <time>2018-08-16T15:25:12.000Z</time>
      </trkpt>
      <trkpt lat="48.633930869400501251220703125" lon="10.3136902861297130584716796875">
        <ele>498.399993896484375</ele>
        <time>2018-08-16T15:25:13.000Z</time>
      </trkpt>
      <trkpt lat="48.634063638746738433837890625" lon="10.31370998360216617584228515625">
        <ele>499</ele>
        <time>2018-08-16T15:25:15.000Z</time>
      </trkpt>
      <trkpt lat="48.63462866283953189849853515625" lon="10.31381257809698581695556640625">
        <ele>499.600006103515625</ele>
        <time>2018-08-16T15:25:23.000Z</time>
      </trkpt>
      <trkpt lat="48.63486050628125667572021484375" lon="10.31379631720483303070068359375">
        <ele>499.600006103515625</ele>
        <time>2018-08-16T15:25:26.000Z</time>
      </trkpt>
      <trkpt lat="48.6354082636535167694091796875" lon="10.3136081434786319732666015625">
        <ele>499</ele>
        <time>2018-08-16T15:25:33.000Z</time>
      </trkpt>
      <trkpt lat="48.635544218122959136962890625" lon="10.3136198781430721282958984375">
        <ele>498.79998779296875</ele>
        <time>2018-08-16T15:25:35.000Z</time>
      </trkpt>
      <trkpt lat="48.6357914842665195465087890625" lon="10.31351116485893726348876953125">
        <ele>498.20001220703125</ele>
        <time>2018-08-16T15:25:39.000Z</time>
      </trkpt>
      <trkpt lat="48.6359832622110843658447265625" lon="10.3134130127727985382080078125">
        <ele>497.79998779296875</ele>
        <time>2018-08-16T15:25:42.000Z</time>
      </trkpt>
      <trkpt lat="48.63618752919137477874755859375" lon="10.31334319151937961578369140625">
        <ele>497.600006103515625</ele>
        <time>2018-08-16T15:25:45.000Z</time>
      </trkpt>
      <trkpt lat="48.63633186556398868560791015625" lon="10.313312597572803497314453125">
        <ele>497.399993896484375</ele>
        <time>2018-08-16T15:25:47.000Z</time>
      </trkpt>
      <trkpt lat="48.6364057101309299468994140625" lon="10.3133050538599491119384765625">
        <ele>497.399993896484375</ele>
        <time>2018-08-16T15:25:48.000Z</time>
      </trkpt>
      <trkpt lat="48.6364801414310932159423828125" lon="10.31330354511737823486328125">
        <ele>497.399993896484375</ele>
        <time>2018-08-16T15:25:49.000Z</time>
      </trkpt>
      <trkpt lat="48.63655432127416133880615234375" lon="10.3133104182779788970947265625">
        <ele>497.20001220703125</ele>
        <time>2018-08-16T15:25:50.000Z</time>
      </trkpt>
      <trkpt lat="48.63669262267649173736572265625" lon="10.3133821673691272735595703125">
        <ele>497.20001220703125</ele>
        <time>2018-08-16T15:25:52.000Z</time>
      </trkpt>
      <trkpt lat="48.63683394156396389007568359375" lon="10.31362012960016727447509765625">
        <ele>497</ele>
        <time>2018-08-16T15:25:55.000Z</time>
      </trkpt>
      <trkpt lat="48.6368750967085361480712890625" lon="10.3136929683387279510498046875">
        <ele>496.79998779296875</ele>
        <time>2018-08-16T15:25:56.000Z</time>
      </trkpt>
      <trkpt lat="48.63693821243941783905029296875" lon="10.3137682378292083740234375">
        <ele>496.399993896484375</ele>
        <time>2018-08-16T15:25:58.000Z</time>
      </trkpt>
      <trkpt lat="48.63699403591454029083251953125" lon="10.31377427279949188232421875">
        <ele>496</ele>
        <time>2018-08-16T15:26:00.000Z</time>
      </trkpt>
      <trkpt lat="48.6370712332427501678466796875" lon="10.313765890896320343017578125">
        <ele>495.79998779296875</ele>
        <time>2018-08-16T15:26:02.000Z</time>
      </trkpt>
      <trkpt lat="48.6371143162250518798828125" lon="10.31375507824122905731201171875">
        <ele>495.600006103515625</ele>
        <time>2018-08-16T15:26:03.000Z</time>
      </trkpt>
      <trkpt lat="48.63715815357863903045654296875" lon="10.3137360513210296630859375">
        <ele>495.399993896484375</ele>
        <time>2018-08-16T15:26:04.000Z</time>
      </trkpt>
      <trkpt lat="48.63720391876995563507080078125" lon="10.31371618621051311492919921875">
        <ele>495.399993896484375</ele>
        <time>2018-08-16T15:26:05.000Z</time>
      </trkpt>
      <trkpt lat="48.63725136034190654754638671875" lon="10.31370587646961212158203125">
        <ele>495.20001220703125</ele>
        <time>2018-08-16T15:26:06.000Z</time>
      </trkpt>
      <trkpt lat="48.637299723923206329345703125" lon="10.31371769495308399200439453125">
        <ele>495</ele>
        <time>2018-08-16T15:26:07.000Z</time>
      </trkpt>
      <trkpt lat="48.63734607584774494171142578125" lon="10.3137570060789585113525390625">
        <ele>494.79998779296875</ele>
        <time>2018-08-16T15:26:08.000Z</time>
      </trkpt>
      <trkpt lat="48.6374289728701114654541015625" lon="10.31388516537845134735107421875">
        <ele>494.79998779296875</ele>
        <time>2018-08-16T15:26:10.000Z</time>
      </trkpt>
      <trkpt lat="48.6374978721141815185546875" lon="10.31404911540448665618896484375">
        <ele>494.600006103515625</ele>
        <time>2018-08-16T15:26:12.000Z</time>
      </trkpt>
      <trkpt lat="48.63763692788779735565185546875" lon="10.3143985569477081298828125">
        <ele>494.600006103515625</ele>
        <time>2018-08-16T15:26:16.000Z</time>
      </trkpt>
      <trkpt lat="48.63774471916258335113525390625" lon="10.31477515585720539093017578125">
        <ele>494.399993896484375</ele>
        <time>2018-08-16T15:26:20.000Z</time>
      </trkpt>
      <trkpt lat="48.637906573712825775146484375" lon="10.31517748720943927764892578125">
        <ele>494.399993896484375</ele>
        <time>2018-08-16T15:26:25.000Z</time>
      </trkpt>
      <trkpt lat="48.638046048581600189208984375" lon="10.31544931232929229736328125">
        <ele>494.399993896484375</ele>
        <time>2018-08-16T15:26:29.000Z</time>
      </trkpt>
      <trkpt lat="48.63817940466105937957763671875" lon="10.3156995959579944610595703125">
        <ele>494.600006103515625</ele>
        <time>2018-08-16T15:26:33.000Z</time>
      </trkpt>
      <trkpt lat="48.63837252371013164520263671875" lon="10.31602456234395503997802734375">
        <ele>496.399993896484375</ele>
        <time>2018-08-16T15:26:39.000Z</time>
      </trkpt>
      <trkpt lat="48.6385491304099559783935546875" lon="10.31636134721338748931884765625">
        <ele>497.600006103515625</ele>
        <time>2018-08-16T15:26:45.000Z</time>
      </trkpt>
      <trkpt lat="48.6387325264513492584228515625" lon="10.3167101182043552398681640625">
        <ele>498.600006103515625</ele>
        <time>2018-08-16T15:26:51.000Z</time>
      </trkpt>
      <trkpt lat="48.6389145813882350921630859375" lon="10.31706408597528934478759765625">
        <ele>499.600006103515625</ele>
        <time>2018-08-16T15:26:57.000Z</time>
      </trkpt>
      <trkpt lat="48.6389440856873989105224609375" lon="10.3171211667358875274658203125">
        <ele>499.600006103515625</ele>
        <time>2018-08-16T15:26:58.000Z</time>
      </trkpt>
      <trkpt lat="48.639052212238311767578125" lon="10.31735527329146862030029296875">
        <ele>500.600006103515625</ele>
        <time>2018-08-16T15:27:02.000Z</time>
      </trkpt>
      <trkpt lat="48.63917953334748744964599609375" lon="10.31762433238327503204345703125">
        <ele>501.600006103515625</ele>
        <time>2018-08-16T15:27:07.000Z</time>
      </trkpt>
      <trkpt lat="48.63920384086668491363525390625" lon="10.31768049113452434539794921875">
        <ele>501.79998779296875</ele>
        <time>2018-08-16T15:27:08.000Z</time>
      </trkpt>
      <trkpt lat="48.63931179977953433990478515625" lon="10.3179130889475345611572265625">
        <ele>503</ele>
        <time>2018-08-16T15:27:12.000Z</time>
      </trkpt>
      <trkpt lat="48.6394406296312808990478515625" lon="10.31822665594518184661865234375">
        <ele>504.20001220703125</ele>
        <time>2018-08-16T15:27:17.000Z</time>
      </trkpt>
      <trkpt lat="48.6396007239818572998046875" lon="10.31864038668572902679443359375">
        <ele>505.20001220703125</ele>
        <time>2018-08-16T15:27:23.000Z</time>
      </trkpt>
      <trkpt lat="48.63989585079252719879150390625" lon="10.31940783374011516571044921875">
        <ele>506</ele>
        <time>2018-08-16T15:27:33.000Z</time>
      </trkpt>
      <trkpt lat="48.63998939283192157745361328125" lon="10.31964906491339206695556640625">
        <ele>506.399993896484375</ele>
        <time>2018-08-16T15:27:36.000Z</time>
      </trkpt>
      <trkpt lat="48.6401034705340862274169921875" lon="10.3199918009340763092041015625">
        <ele>506.600006103515625</ele>
        <time>2018-08-16T15:27:40.000Z</time>
      </trkpt>
      <trkpt lat="48.6401908099651336669921875" lon="10.3203652985394001007080078125">
        <ele>506.600006103515625</ele>
        <time>2018-08-16T15:27:44.000Z</time>
      </trkpt>
      <trkpt lat="48.64029063843190670013427734375" lon="10.3210933506488800048828125">
        <ele>506.600006103515625</ele>
        <time>2018-08-16T15:27:51.000Z</time>
      </trkpt>
      <trkpt lat="48.64034411497414112091064453125" lon="10.321536920964717864990234375">
        <ele>506.600006103515625</ele>
        <time>2018-08-16T15:27:55.000Z</time>
      </trkpt>
      <trkpt lat="48.640399016439914703369140625" lon="10.32186113297939300537109375">
        <ele>506.399993896484375</ele>
        <time>2018-08-16T15:27:58.000Z</time>
      </trkpt>
      <trkpt lat="48.64041946828365325927734375" lon="10.3219652362167835235595703125">
        <ele>506.399993896484375</ele>
        <time>2018-08-16T15:27:59.000Z</time>
      </trkpt>
      <trkpt lat="48.640436232089996337890625" lon="10.3220685012638568878173828125">
        <ele>506.399993896484375</ele>
        <time>2018-08-16T15:28:00.000Z</time>
      </trkpt>
      <trkpt lat="48.64039935171604156494140625" lon="10.32234502024948596954345703125">
        <ele>506.20001220703125</ele>
        <time>2018-08-16T15:28:03.000Z</time>
      </trkpt>
      <trkpt lat="48.6405690014362335205078125" lon="10.32280535437166690826416015625">
        <ele>505.399993896484375</ele>
        <time>2018-08-16T15:28:10.000Z</time>
      </trkpt>
      <trkpt lat="48.64061887376010417938232421875" lon="10.322822034358978271484375">
        <ele>505.20001220703125</ele>
        <time>2018-08-16T15:28:11.000Z</time>
      </trkpt>
      <trkpt lat="48.64066354930400848388671875" lon="10.32281993888318538665771484375">
        <ele>505.20001220703125</ele>
        <time>2018-08-16T15:28:12.000Z</time>
      </trkpt>
      <trkpt lat="48.64070537500083446502685546875" lon="10.32279982231557369232177734375">
        <ele>505</ele>
        <time>2018-08-16T15:28:13.000Z</time>
      </trkpt>
      <trkpt lat="48.640808053314685821533203125" lon="10.3226994909346103668212890625">
        <ele>504.79998779296875</ele>
        <time>2018-08-16T15:28:16.000Z</time>
      </trkpt>
      <trkpt lat="48.64081383682787418365478515625" lon="10.32266168855130672454833984375">
        <ele>504.399993896484375</ele>
        <time>2018-08-16T15:28:19.000Z</time>
      </trkpt>
      <trkpt lat="48.64080780185759067535400390625" lon="10.3226726688444614410400390625">
        <ele>504.399993896484375</ele>
        <time>2018-08-16T15:28:20.000Z</time>
      </trkpt>
      <trkpt lat="48.640802018344402313232421875" lon="10.32269052229821681976318359375">
        <ele>504.20001220703125</ele>
        <time>2018-08-16T15:28:21.000Z</time>
      </trkpt>
      <trkpt lat="48.64075340330600738525390625" lon="10.32281574793159961700439453125">
        <ele>504</ele>
        <time>2018-08-16T15:28:25.000Z</time>
      </trkpt>
      <trkpt lat="48.64075231365859508514404296875" lon="10.32286939211189746856689453125">
        <ele>504</ele>
        <time>2018-08-16T15:28:26.000Z</time>
      </trkpt>
      <trkpt lat="48.6407676525413990020751953125" lon="10.3229925222694873809814453125">
        <ele>504.20001220703125</ele>
        <time>2018-08-16T15:28:28.000Z</time>
      </trkpt>
      <trkpt lat="48.64080729894340038299560546875" lon="10.32313115894794464111328125">
        <ele>504</ele>
        <time>2018-08-16T15:28:30.000Z</time>
      </trkpt>
      <trkpt lat="48.6409634537994861602783203125" lon="10.3235396929085254669189453125">
        <ele>504</ele>
        <time>2018-08-16T15:28:35.000Z</time>
      </trkpt>
      <trkpt lat="48.641000501811504364013671875" lon="10.3236295469105243682861328125">
        <ele>504</ele>
        <time>2018-08-16T15:28:36.000Z</time>
      </trkpt>
      <trkpt lat="48.6410395614802837371826171875" lon="10.32372032292187213897705078125">
        <ele>503.79998779296875</ele>
        <time>2018-08-16T15:28:37.000Z</time>
      </trkpt>
      <trkpt lat="48.64112086594104766845703125" lon="10.3239091672003269195556640625">
        <ele>503.600006103515625</ele>
        <time>2018-08-16T15:28:39.000Z</time>
      </trkpt>
      <trkpt lat="48.64116369746625423431396484375" lon="10.3240053914487361907958984375">
        <ele>503.399993896484375</ele>
        <time>2018-08-16T15:28:40.000Z</time>
      </trkpt>
      <trkpt lat="48.64125858061015605926513671875" lon="10.32420060597360134124755859375">
        <ele>502.79998779296875</ele>
        <time>2018-08-16T15:28:42.000Z</time>
      </trkpt>
      <trkpt lat="48.64136989228427410125732421875" lon="10.324388109147548675537109375">
        <ele>502.399993896484375</ele>
        <time>2018-08-16T15:28:44.000Z</time>
      </trkpt>
      <trkpt lat="48.64143225364387035369873046875" lon="10.32447301782667636871337890625">
        <ele>502.20001220703125</ele>
        <time>2018-08-16T15:28:45.000Z</time>
      </trkpt>
      <trkpt lat="48.6415766738355159759521484375" lon="10.32461517490446567535400390625">
        <ele>501.600006103515625</ele>
        <time>2018-08-16T15:28:47.000Z</time>
      </trkpt>
      <trkpt lat="48.64173375070095062255859375" lon="10.324730090796947479248046875">
        <ele>500.79998779296875</ele>
        <time>2018-08-16T15:28:49.000Z</time>
      </trkpt>
      <trkpt lat="48.64206089638173580169677734375" lon="10.32493167556822299957275390625">
        <ele>499.600006103515625</ele>
        <time>2018-08-16T15:28:53.000Z</time>
      </trkpt>
      <trkpt lat="48.642139434814453125" lon="10.32499135471880435943603515625">
        <ele>499.20001220703125</ele>
        <time>2018-08-16T15:28:54.000Z</time>
      </trkpt>
      <trkpt lat="48.6424074880778789520263671875" lon="10.3253186680376529693603515625">
        <ele>498</ele>
        <time>2018-08-16T15:28:58.000Z</time>
      </trkpt>
      <trkpt lat="48.6425094120204448699951171875" lon="10.32551706768572330474853515625">
        <ele>497.399993896484375</ele>
        <time>2018-08-16T15:29:00.000Z</time>
      </trkpt>
      <trkpt lat="48.64260085858404636383056640625" lon="10.32571672461926937103271484375">
        <ele>497</ele>
        <time>2018-08-16T15:29:02.000Z</time>
      </trkpt>
      <trkpt lat="48.64264628849923610687255859375" lon="10.32581529580056667327880859375">
        <ele>496.79998779296875</ele>
        <time>2018-08-16T15:29:03.000Z</time>
      </trkpt>
      <trkpt lat="48.64269238896667957305908203125" lon="10.3259137831628322601318359375">
        <ele>496.79998779296875</ele>
        <time>2018-08-16T15:29:04.000Z</time>
      </trkpt>
      <trkpt lat="48.64273999817669391632080078125" lon="10.32601294107735157012939453125">
        <ele>496.399993896484375</ele>
        <time>2018-08-16T15:29:05.000Z</time>
      </trkpt>
      <trkpt lat="48.64284016191959381103515625" lon="10.3262074850499629974365234375">
        <ele>495.79998779296875</ele>
        <time>2018-08-16T15:29:07.000Z</time>
      </trkpt>
      <trkpt lat="48.64294946193695068359375" lon="10.326384007930755615234375">
        <ele>495.20001220703125</ele>
        <time>2018-08-16T15:29:09.000Z</time>
      </trkpt>
      <trkpt lat="48.64306236617267131805419921875" lon="10.32655273564159870147705078125">
        <ele>494.79998779296875</ele>
        <time>2018-08-16T15:29:11.000Z</time>
      </trkpt>
      <trkpt lat="48.64311969839036464691162109375" lon="10.32663437537848949432373046875">
        <ele>494.79998779296875</ele>
        <time>2018-08-16T15:29:12.000Z</time>
      </trkpt>
      <trkpt lat="48.6433450877666473388671875" lon="10.32695355825126171112060546875">
        <ele>494.399993896484375</ele>
        <time>2018-08-16T15:29:16.000Z</time>
      </trkpt>
      <trkpt lat="48.64365815185010433197021484375" lon="10.32745814882218837738037109375">
        <ele>493.600006103515625</ele>
        <time>2018-08-16T15:29:22.000Z</time>
      </trkpt>
      <trkpt lat="48.6436979658901691436767578125" lon="10.3275650180876255035400390625">
        <ele>493.600006103515625</ele>
        <time>2018-08-16T15:29:23.000Z</time>
      </trkpt>
      <trkpt lat="48.6437690444290637969970703125" lon="10.32791814766824245452880859375">
        <ele>493</ele>
        <time>2018-08-16T15:29:26.000Z</time>
      </trkpt>
      <trkpt lat="48.6437995545566082000732421875" lon="10.32823808491230010986328125">
        <ele>492.399993896484375</ele>
        <time>2018-08-16T15:29:29.000Z</time>
      </trkpt>
      <trkpt lat="48.64380114711821079254150390625" lon="10.328325591981410980224609375">
        <ele>492.20001220703125</ele>
        <time>2018-08-16T15:29:30.000Z</time>
      </trkpt>
      <trkpt lat="48.64384439773857593536376953125" lon="10.3285450302064418792724609375">
        <ele>491.399993896484375</ele>
        <time>2018-08-16T15:29:33.000Z</time>
      </trkpt>
      <trkpt lat="48.64398152567446231842041015625" lon="10.32862164080142974853515625">
        <ele>490.79998779296875</ele>
        <time>2018-08-16T15:29:36.000Z</time>
      </trkpt>
      <trkpt lat="48.6440355889499187469482421875" lon="10.32862641848623752593994140625">
        <ele>490.600006103515625</ele>
        <time>2018-08-16T15:29:37.000Z</time>
      </trkpt>
      <trkpt lat="48.64409007132053375244140625" lon="10.328632034361362457275390625">
        <ele>490.600006103515625</ele>
        <time>2018-08-16T15:29:38.000Z</time>
      </trkpt>
      <trkpt lat="48.644202053546905517578125" lon="10.32863597385585308074951171875">
        <ele>490.600006103515625</ele>
        <time>2018-08-16T15:29:40.000Z</time>
      </trkpt>
      <trkpt lat="48.6444260179996490478515625" lon="10.3285996802151203155517578125">
        <ele>490.600006103515625</ele>
        <time>2018-08-16T15:29:44.000Z</time>
      </trkpt>
      <trkpt lat="48.64473170600831508636474609375" lon="10.3285416774451732635498046875">
        <ele>491</ele>
        <time>2018-08-16T15:29:49.000Z</time>
      </trkpt>
      <trkpt lat="48.64485575817525386810302734375" lon="10.32852466218173503875732421875">
        <ele>491.399993896484375</ele>
        <time>2018-08-16T15:29:51.000Z</time>
      </trkpt>
      <trkpt lat="48.64497511647641658782958984375" lon="10.32850722782313823699951171875">
        <ele>491.600006103515625</ele>
        <time>2018-08-16T15:29:53.000Z</time>
      </trkpt>
      <trkpt lat="48.6451476998627185821533203125" lon="10.328508652746677398681640625">
        <ele>492.20001220703125</ele>
        <time>2018-08-16T15:29:56.000Z</time>
      </trkpt>
      <trkpt lat="48.64520327188074588775634765625" lon="10.3285172022879123687744140625">
        <ele>492.399993896484375</ele>
        <time>2018-08-16T15:29:57.000Z</time>
      </trkpt>
      <trkpt lat="48.64549244754016399383544921875" lon="10.32860781066119670867919921875">
        <ele>493.399993896484375</ele>
        <time>2018-08-16T15:30:02.000Z</time>
      </trkpt>
      <trkpt lat="48.64572345279157161712646484375" lon="10.32873806543648242950439453125">
        <ele>494</ele>
        <time>2018-08-16T15:30:06.000Z</time>
      </trkpt>
      <trkpt lat="48.645890168845653533935546875" lon="10.32885574735701084136962890625">
        <ele>494.399993896484375</ele>
        <time>2018-08-16T15:30:09.000Z</time>
      </trkpt>
      <trkpt lat="48.64628185518085956573486328125" lon="10.32911692745983600616455078125">
        <ele>495.600006103515625</ele>
        <time>2018-08-16T15:30:16.000Z</time>
      </trkpt>
      <trkpt lat="48.64663657732307910919189453125" lon="10.32923678867518901824951171875">
        <ele>496.600006103515625</ele>
        <time>2018-08-16T15:30:22.000Z</time>
      </trkpt>
      <trkpt lat="48.646696507930755615234375" lon="10.3292417339980602264404296875">
        <ele>496.79998779296875</ele>
        <time>2018-08-16T15:30:23.000Z</time>
      </trkpt>
      <trkpt lat="48.6471348814666271209716796875" lon="10.32917124219238758087158203125">
        <ele>497.600006103515625</ele>
        <time>2018-08-16T15:30:30.000Z</time>
      </trkpt>
      <trkpt lat="48.64739379845559597015380859375" lon="10.32909505069255828857421875">
        <ele>498.79998779296875</ele>
        <time>2018-08-16T15:30:34.000Z</time>
      </trkpt>
      <trkpt lat="48.6479439027607440948486328125" lon="10.328933782875537872314453125">
        <ele>499</ele>
        <time>2018-08-16T15:30:41.000Z</time>
      </trkpt>
      <trkpt lat="48.64817616529762744903564453125" lon="10.3288769535720348358154296875">
        <ele>498.79998779296875</ele>
        <time>2018-08-16T15:30:44.000Z</time>
      </trkpt>
      <trkpt lat="48.64824137650430202484130859375" lon="10.328842587769031524658203125">
        <ele>498.399993896484375</ele>
        <time>2018-08-16T15:30:45.000Z</time>
      </trkpt>
      <trkpt lat="48.64836442284286022186279296875" lon="10.328766144812107086181640625">
        <ele>497.79998779296875</ele>
        <time>2018-08-16T15:30:47.000Z</time>
      </trkpt>
      <trkpt lat="48.64843382500112056732177734375" lon="10.32874166965484619140625">
        <ele>497.600006103515625</ele>
        <time>2018-08-16T15:30:48.000Z</time>
      </trkpt>
      <trkpt lat="48.64857246167957782745361328125" lon="10.328715853393077850341796875">
        <ele>497.399993896484375</ele>
        <time>2018-08-16T15:30:50.000Z</time>
      </trkpt>
      <trkpt lat="48.64882282912731170654296875" lon="10.32884367741644382476806640625">
        <ele>497.399993896484375</ele>
        <time>2018-08-16T15:30:54.000Z</time>
      </trkpt>
      <trkpt lat="48.64900781773030757904052734375" lon="10.3290238045156002044677734375">
        <ele>497.399993896484375</ele>
        <time>2018-08-16T15:30:57.000Z</time>
      </trkpt>
      <trkpt lat="48.6490607075393199920654296875" lon="10.32910334877669811248779296875">
        <ele>497.399993896484375</ele>
        <time>2018-08-16T15:30:58.000Z</time>
      </trkpt>
      <trkpt lat="48.64918869920074939727783203125" lon="10.32939386554062366485595703125">
        <ele>497.399993896484375</ele>
        <time>2018-08-16T15:31:01.000Z</time>
      </trkpt>
      <trkpt lat="48.64936807192862033843994140625" lon="10.32992829568684101104736328125">
        <ele>497.399993896484375</ele>
        <time>2018-08-16T15:31:06.000Z</time>
      </trkpt>
      <trkpt lat="48.6495438404381275177001953125" lon="10.3304483927786350250244140625">
        <ele>497</ele>
        <time>2018-08-16T15:31:11.000Z</time>
      </trkpt>
      <trkpt lat="48.64965691231191158294677734375" lon="10.33073781989514827728271484375">
        <ele>496.79998779296875</ele>
        <time>2018-08-16T15:31:14.000Z</time>
      </trkpt>
      <trkpt lat="48.64990367554128170013427734375" lon="10.3312148340046405792236328125">
        <ele>496.79998779296875</ele>
        <time>2018-08-16T15:31:20.000Z</time>
      </trkpt>
      <trkpt lat="48.65004080347716808319091796875" lon="10.331427566707134246826171875">
        <ele>497.20001220703125</ele>
        <time>2018-08-16T15:31:23.000Z</time>
      </trkpt>
      <trkpt lat="48.6501795239746570587158203125" lon="10.33164658583700656890869140625">
        <ele>497.600006103515625</ele>
        <time>2018-08-16T15:31:26.000Z</time>
      </trkpt>
      <trkpt lat="48.65029829554259777069091796875" lon="10.3318957798182964324951171875">
        <ele>498.399993896484375</ele>
        <time>2018-08-16T15:31:29.000Z</time>
      </trkpt>
      <trkpt lat="48.65036107599735260009765625" lon="10.33207096159458160400390625">
        <ele>498.600006103515625</ele>
        <time>2018-08-16T15:31:31.000Z</time>
      </trkpt>
      <trkpt lat="48.65038446150720119476318359375" lon="10.3321629948914051055908203125">
        <ele>498.600006103515625</ele>
        <time>2018-08-16T15:31:32.000Z</time>
      </trkpt>
      <trkpt lat="48.650567941367626190185546875" lon="10.332795493304729461669921875">
        <ele>498.79998779296875</ele>
        <time>2018-08-16T15:31:39.000Z</time>
      </trkpt>
      <trkpt lat="48.65083691664040088653564453125" lon="10.333376862108707427978515625">
        <ele>499.20001220703125</ele>
        <time>2018-08-16T15:31:46.000Z</time>
      </trkpt>
      <trkpt lat="48.6508742161095142364501953125" lon="10.3334561549127101898193359375">
        <ele>499.20001220703125</ele>
        <time>2018-08-16T15:31:47.000Z</time>
      </trkpt>
      <trkpt lat="48.65094772540032863616943359375" lon="10.33361264504492282867431640625">
        <ele>499.20001220703125</ele>
        <time>2018-08-16T15:31:49.000Z</time>
      </trkpt>
      <trkpt lat="48.651251904666423797607421875" lon="10.33436651341617107391357421875">
        <ele>499.20001220703125</ele>
        <time>2018-08-16T15:31:58.000Z</time>
      </trkpt>
      <trkpt lat="48.651467822492122650146484375" lon="10.3348959982395172119140625">
        <ele>499.20001220703125</ele>
        <time>2018-08-16T15:32:04.000Z</time>
      </trkpt>
      <trkpt lat="48.6515766195952892303466796875" lon="10.3351503051817417144775390625">
        <ele>499</ele>
        <time>2018-08-16T15:32:07.000Z</time>
      </trkpt>
      <trkpt lat="48.65164761431515216827392578125" lon="10.33531375229358673095703125">
        <ele>499</ele>
        <time>2018-08-16T15:32:09.000Z</time>
      </trkpt>
      <trkpt lat="48.65178105421364307403564453125" lon="10.33563536591827869415283203125">
        <ele>498.600006103515625</ele>
        <time>2018-08-16T15:32:13.000Z</time>
      </trkpt>
      <trkpt lat="48.651818521320819854736328125" lon="10.33571884967386722564697265625">
        <ele>498.600006103515625</ele>
        <time>2018-08-16T15:32:14.000Z</time>
      </trkpt>
      <trkpt lat="48.651898987591266632080078125" lon="10.335895456373691558837890625">
        <ele>498.399993896484375</ele>
        <time>2018-08-16T15:32:16.000Z</time>
      </trkpt>
      <trkpt lat="48.652059920132160186767578125" lon="10.33625160343945026397705078125">
        <ele>497.79998779296875</ele>
        <time>2018-08-16T15:32:20.000Z</time>
      </trkpt>
      <trkpt lat="48.65209990181028842926025390625" lon="10.33633525483310222625732421875">
        <ele>497.79998779296875</ele>
        <time>2018-08-16T15:32:21.000Z</time>
      </trkpt>
      <trkpt lat="48.65232646465301513671875" lon="10.33673943020403385162353515625">
        <ele>497.600006103515625</ele>
        <time>2018-08-16T15:32:26.000Z</time>
      </trkpt>
      <trkpt lat="48.652534671127796173095703125" lon="10.337034054100513458251953125">
        <ele>497.600006103515625</ele>
        <time>2018-08-16T15:32:30.000Z</time>
      </trkpt>
      <trkpt lat="48.65269350819289684295654296875" lon="10.33722977153956890106201171875">
        <ele>497.600006103515625</ele>
        <time>2018-08-16T15:32:33.000Z</time>
      </trkpt>
      <trkpt lat="48.65300464443862438201904296875" lon="10.33762975595891475677490234375">
        <ele>497.399993896484375</ele>
        <time>2018-08-16T15:32:39.000Z</time>
      </trkpt>
      <trkpt lat="48.65331695415079593658447265625" lon="10.3380382061004638671875">
        <ele>496.79998779296875</ele>
        <time>2018-08-16T15:32:45.000Z</time>
      </trkpt>
      <trkpt lat="48.65341653116047382354736328125" lon="10.3381812013685703277587890625">
        <ele>496.600006103515625</ele>
        <time>2018-08-16T15:32:47.000Z</time>
      </trkpt>
      <trkpt lat="48.653467409312725067138671875" lon="10.33825722523033618927001953125">
        <ele>496.20001220703125</ele>
        <time>2018-08-16T15:32:48.000Z</time>
      </trkpt>
      <trkpt lat="48.65361367352306842803955078125" lon="10.33851035870611667633056640625">
        <ele>496</ele>
        <time>2018-08-16T15:32:51.000Z</time>
      </trkpt>
      <trkpt lat="48.65379824303090572357177734375" lon="10.33892266452312469482421875">
        <ele>495.600006103515625</ele>
        <time>2018-08-16T15:32:55.000Z</time>
      </trkpt>
      <trkpt lat="48.6540224589407444000244140625" lon="10.3393543325364589691162109375">
        <ele>495</ele>
        <time>2018-08-16T15:32:59.000Z</time>
      </trkpt>
      <trkpt lat="48.654158413410186767578125" lon="10.33956329338252544403076171875">
        <ele>494.600006103515625</ele>
        <time>2018-08-16T15:33:01.000Z</time>
      </trkpt>
      <trkpt lat="48.654227145016193389892578125" lon="10.33967376686632633209228515625">
        <ele>494.600006103515625</ele>
        <time>2018-08-16T15:33:02.000Z</time>
      </trkpt>
      <trkpt lat="48.6542970500886440277099609375" lon="10.3397875092923641204833984375">
        <ele>494</ele>
        <time>2018-08-16T15:33:03.000Z</time>
      </trkpt>
      <trkpt lat="48.65470223128795623779296875" lon="10.340341888368129730224609375">
        <ele>492.600006103515625</ele>
        <time>2018-08-16T15:33:08.000Z</time>
      </trkpt>
      <trkpt lat="48.6549536883831024169921875" lon="10.34066283144056797027587890625">
        <ele>491.20001220703125</ele>
        <time>2018-08-16T15:33:11.000Z</time>
      </trkpt>
      <trkpt lat="48.6550329811871051788330078125" lon="10.340769030153751373291015625">
        <ele>489.79998779296875</ele>
        <time>2018-08-16T15:33:12.000Z</time>
      </trkpt>
      <trkpt lat="48.6551855318248271942138671875" lon="10.34097882919013500213623046875">
        <ele>488.399993896484375</ele>
        <time>2018-08-16T15:33:14.000Z</time>
      </trkpt>
      <trkpt lat="48.6553297005593776702880859375" lon="10.341181419789791107177734375">
        <ele>487.20001220703125</ele>
        <time>2018-08-16T15:33:16.000Z</time>
      </trkpt>
      <trkpt lat="48.65546272136270999908447265625" lon="10.341383256018161773681640625">
        <ele>486.399993896484375</ele>
        <time>2018-08-16T15:33:18.000Z</time>
      </trkpt>
      <trkpt lat="48.6555791459977626800537109375" lon="10.3415906243026256561279296875">
        <ele>486</ele>
        <time>2018-08-16T15:33:20.000Z</time>
      </trkpt>
      <trkpt lat="48.655637316405773162841796875" lon="10.3416881896555423736572265625">
        <ele>486</ele>
        <time>2018-08-16T15:33:21.000Z</time>
      </trkpt>
      <trkpt lat="48.6559274978935718536376953125" lon="10.3417760320007801055908203125">
        <ele>485.399993896484375</ele>
        <time>2018-08-16T15:33:25.000Z</time>
      </trkpt>
      <trkpt lat="48.65599161945283412933349609375" lon="10.341760776937007904052734375">
        <ele>485.399993896484375</ele>
        <time>2018-08-16T15:33:26.000Z</time>
      </trkpt>
      <trkpt lat="48.65609563887119293212890625" lon="10.34180377610027790069580078125">
        <ele>485.399993896484375</ele>
        <time>2018-08-16T15:33:28.000Z</time>
      </trkpt>
      <trkpt lat="48.6561611853539943695068359375" lon="10.34192246384918689727783203125">
        <ele>485.399993896484375</ele>
        <time>2018-08-16T15:33:30.000Z</time>
      </trkpt>
      <trkpt lat="48.65622103214263916015625" lon="10.34205405972898006439208984375">
        <ele>485.399993896484375</ele>
        <time>2018-08-16T15:33:32.000Z</time>
      </trkpt>
      <trkpt lat="48.6563117243349552154541015625" lon="10.34263324923813343048095703125">
        <ele>485.600006103515625</ele>
        <time>2018-08-16T15:33:40.000Z</time>
      </trkpt>
      <trkpt lat="48.65667457692325115203857421875" lon="10.343258120119571685791015625">
        <ele>485.399993896484375</ele>
        <time>2018-08-16T15:33:50.000Z</time>
      </trkpt>
      <trkpt lat="48.6567998863756656646728515625" lon="10.34346498548984527587890625">
        <ele>485</ele>
        <time>2018-08-16T15:33:53.000Z</time>
      </trkpt>
      <trkpt lat="48.65683936513960361480712890625" lon="10.34353011287748813629150390625">
        <ele>485</ele>
        <time>2018-08-16T15:33:54.000Z</time>
      </trkpt>
      <trkpt lat="48.65690893493592739105224609375" lon="10.34367042593657970428466796875">
        <ele>484.79998779296875</ele>
        <time>2018-08-16T15:33:56.000Z</time>
      </trkpt>
      <trkpt lat="48.65710875950753688812255859375" lon="10.3440632857382297515869140625">
        <ele>483.79998779296875</ele>
        <time>2018-08-16T15:34:02.000Z</time>
      </trkpt>
      <trkpt lat="48.65713994018733501434326171875" lon="10.34411902539432048797607421875">
        <ele>483.600006103515625</ele>
        <time>2018-08-16T15:34:03.000Z</time>
      </trkpt>
      <trkpt lat="48.65724186412990093231201171875" lon="10.34439445473253726959228515625">
        <ele>483.20001220703125</ele>
        <time>2018-08-16T15:34:08.000Z</time>
      </trkpt>
      <trkpt lat="48.657327108085155487060546875" lon="10.34455253742635250091552734375">
        <ele>483.20001220703125</ele>
        <time>2018-08-16T15:34:12.000Z</time>
      </trkpt>
      <trkpt lat="48.657393492758274078369140625" lon="10.3447697125375270843505859375">
        <ele>483.399993896484375</ele>
        <time>2018-08-16T15:34:17.000Z</time>
      </trkpt>
      <trkpt lat="48.657412938773632049560546875" lon="10.344809107482433319091796875">
        <ele>483.399993896484375</ele>
        <time>2018-08-16T15:34:18.000Z</time>
      </trkpt>
      <trkpt lat="48.65742995403707027435302734375" lon="10.34484305419027805328369140625">
        <ele>483.600006103515625</ele>
        <time>2018-08-16T15:34:19.000Z</time>
      </trkpt>
      <trkpt lat="48.65744881331920623779296875" lon="10.3448991291224956512451171875">
        <ele>483.79998779296875</ele>
        <time>2018-08-16T15:34:21.000Z</time>
      </trkpt>
      <trkpt lat="48.65745417773723602294921875" lon="10.344912707805633544921875">
        <ele>484</ele>
        <time>2018-08-16T15:34:24.000Z</time>
      </trkpt>
      <trkpt lat="48.657466582953929901123046875" lon="10.34493726678192615509033203125">
        <ele>484.79998779296875</ele>
        <time>2018-08-16T15:34:33.000Z</time>
      </trkpt>
      <trkpt lat="48.6574905551970005035400390625" lon="10.34497280605137348175048828125">
        <ele>484.79998779296875</ele>
        <time>2018-08-16T15:34:35.000Z</time>
      </trkpt>
      <trkpt lat="48.65755115635693073272705078125" lon="10.345079340040683746337890625">
        <ele>484.79998779296875</ele>
        <time>2018-08-16T15:34:40.000Z</time>
      </trkpt>
      <trkpt lat="48.65794493816792964935302734375" lon="10.34563162364065647125244140625">
        <ele>485.79998779296875</ele>
        <time>2018-08-16T15:34:56.000Z</time>
      </trkpt>
      <trkpt lat="48.658064045011997222900390625" lon="10.34579188562929630279541015625">
        <ele>486</ele>
        <time>2018-08-16T15:35:00.000Z</time>
      </trkpt>
      <trkpt lat="48.65820729173719882965087890625" lon="10.346006713807582855224609375">
        <ele>487.20001220703125</ele>
        <time>2018-08-16T15:35:05.000Z</time>
      </trkpt>
      <trkpt lat="48.65854022093117237091064453125" lon="10.34666779451072216033935546875">
        <ele>487.79998779296875</ele>
        <time>2018-08-16T15:35:17.000Z</time>
      </trkpt>
      <trkpt lat="48.65871825255453586578369140625" lon="10.34725285135209560394287109375">
        <ele>488</ele>
        <time>2018-08-16T15:35:25.000Z</time>
      </trkpt>
      <trkpt lat="48.6587357707321643829345703125" lon="10.3473325632512569427490234375">
        <ele>488</ele>
        <time>2018-08-16T15:35:26.000Z</time>
      </trkpt>
      <trkpt lat="48.6587471701204776763916015625" lon="10.3474165499210357666015625">
        <ele>487.79998779296875</ele>
        <time>2018-08-16T15:35:27.000Z</time>
      </trkpt>
      <trkpt lat="48.65876737050712108612060546875" lon="10.3475935757160186767578125">
        <ele>487.79998779296875</ele>
        <time>2018-08-16T15:35:29.000Z</time>
      </trkpt>
      <trkpt lat="48.6588108725845813751220703125" lon="10.347969420254230499267578125">
        <ele>487.79998779296875</ele>
        <time>2018-08-16T15:35:33.000Z</time>
      </trkpt>
      <trkpt lat="48.658841215074062347412109375" lon="10.34838440828025341033935546875">
        <ele>487.399993896484375</ele>
        <time>2018-08-16T15:35:37.000Z</time>
      </trkpt>
      <trkpt lat="48.6588482558727264404296875" lon="10.348600409924983978271484375">
        <ele>487.20001220703125</ele>
        <time>2018-08-16T15:35:39.000Z</time>
      </trkpt>
      <trkpt lat="48.65885487757623195648193359375" lon="10.3488178364932537078857421875">
        <ele>487</ele>
        <time>2018-08-16T15:35:41.000Z</time>
      </trkpt>
      <trkpt lat="48.658863343298435211181640625" lon="10.34915822558104991912841796875">
        <ele>486.399993896484375</ele>
        <time>2018-08-16T15:35:45.000Z</time>
      </trkpt>
      <trkpt lat="48.65883157588541507720947265625" lon="10.34923383034765720367431640625">
        <ele>486.20001220703125</ele>
        <time>2018-08-16T15:35:47.000Z</time>
      </trkpt>
      <trkpt lat="48.65879058837890625" lon="10.34926258027553558349609375">
        <ele>486</ele>
        <time>2018-08-16T15:35:50.000Z</time>
      </trkpt>
      <trkpt lat="48.65876720286905765533447265625" lon="10.34926450811326503753662109375">
        <ele>485.79998779296875</ele>
        <time>2018-08-16T15:35:52.000Z</time>
      </trkpt>
      <trkpt lat="48.65875094197690486907958984375" lon="10.349269621074199676513671875">
        <ele>485.600006103515625</ele>
        <time>2018-08-16T15:35:53.000Z</time>
      </trkpt>
      <trkpt lat="48.658734261989593505859375" lon="10.34928931854665279388427734375">
        <ele>485.600006103515625</ele>
        <time>2018-08-16T15:35:54.000Z</time>
      </trkpt>
      <trkpt lat="48.6587354354560375213623046875" lon="10.34937414340674877166748046875">
        <ele>485.399993896484375</ele>
        <time>2018-08-16T15:35:56.000Z</time>
      </trkpt>
      <trkpt lat="48.6587656103074550628662109375" lon="10.34947942011058330535888671875">
        <ele>485.399993896484375</ele>
        <time>2018-08-16T15:35:58.000Z</time>
      </trkpt>
      <trkpt lat="48.65902821533381938934326171875" lon="10.35022054798901081085205078125">
        <ele>485.20001220703125</ele>
        <time>2018-08-16T15:36:08.000Z</time>
      </trkpt>
      <trkpt lat="48.6592282913625240325927734375" lon="10.350779704749584197998046875">
        <ele>485.20001220703125</ele>
        <time>2018-08-16T15:36:14.000Z</time>
      </trkpt>
      <trkpt lat="48.65930113010108470916748046875" lon="10.3509783558547496795654296875">
        <ele>485.20001220703125</ele>
        <time>2018-08-16T15:36:16.000Z</time>
      </trkpt>
      <trkpt lat="48.6593771539628505706787109375" lon="10.3511798568069934844970703125">
        <ele>485.20001220703125</ele>
        <time>2018-08-16T15:36:18.000Z</time>
      </trkpt>
      <trkpt lat="48.65949441678822040557861328125" lon="10.35149157978594303131103515625">
        <ele>485.20001220703125</ele>
        <time>2018-08-16T15:36:21.000Z</time>
      </trkpt>
      <trkpt lat="48.65977588109672069549560546875" lon="10.352238155901432037353515625">
        <ele>485</ele>
        <time>2018-08-16T15:36:28.000Z</time>
      </trkpt>
      <trkpt lat="48.65993924438953399658203125" lon="10.35267393104732036590576171875">
        <ele>484.79998779296875</ele>
        <time>2018-08-16T15:36:32.000Z</time>
      </trkpt>
      <trkpt lat="48.66023219190537929534912109375" lon="10.3534550406038761138916015625">
        <ele>484.600006103515625</ele>
        <time>2018-08-16T15:36:39.000Z</time>
      </trkpt>
      <trkpt lat="48.6605294980108737945556640625" lon="10.35424453206360340118408203125">
        <ele>484.600006103515625</ele>
        <time>2018-08-16T15:36:46.000Z</time>
      </trkpt>
      <trkpt lat="48.66070040501654148101806640625" lon="10.35469564609229564666748046875">
        <ele>484.399993896484375</ele>
        <time>2018-08-16T15:36:50.000Z</time>
      </trkpt>
      <trkpt lat="48.66099611856043338775634765625" lon="10.3554848022758960723876953125">
        <ele>484.399993896484375</ele>
        <time>2018-08-16T15:36:57.000Z</time>
      </trkpt>
      <trkpt lat="48.66127121262252330780029296875" lon="10.35626792348921298980712890625">
        <ele>484.399993896484375</ele>
        <time>2018-08-16T15:37:04.000Z</time>
      </trkpt>
      <trkpt lat="48.66151026450097560882568359375" lon="10.35705431364476680755615234375">
        <ele>484.600006103515625</ele>
        <time>2018-08-16T15:37:11.000Z</time>
      </trkpt>
      <trkpt lat="48.66170824505388736724853515625" lon="10.35784405656158924102783203125">
        <ele>485</ele>
        <time>2018-08-16T15:37:18.000Z</time>
      </trkpt>
      <trkpt lat="48.66188258863985538482666015625" lon="10.35863287746906280517578125">
        <ele>485.20001220703125</ele>
        <time>2018-08-16T15:37:25.000Z</time>
      </trkpt>
      <trkpt lat="48.66205357946455478668212890625" lon="10.359405688941478729248046875">
        <ele>485.600006103515625</ele>
        <time>2018-08-16T15:37:32.000Z</time>
      </trkpt>
      <trkpt lat="48.6622363887727260589599609375" lon="10.360188893973827362060546875">
        <ele>486</ele>
        <time>2018-08-16T15:37:39.000Z</time>
      </trkpt>
      <trkpt lat="48.6624687351286411285400390625" lon="10.3609608672559261322021484375">
        <ele>486.20001220703125</ele>
        <time>2018-08-16T15:37:46.000Z</time>
      </trkpt>
      <trkpt lat="48.6627882532775402069091796875" lon="10.36170291714370250701904296875">
        <ele>486.20001220703125</ele>
        <time>2018-08-16T15:37:53.000Z</time>
      </trkpt>
      <trkpt lat="48.6630769260227680206298828125" lon="10.362190492451190948486328125">
        <ele>486</ele>
        <time>2018-08-16T15:37:58.000Z</time>
      </trkpt>
      <trkpt lat="48.6633394472301006317138671875" lon="10.36254328675568103790283203125">
        <ele>485.79998779296875</ele>
        <time>2018-08-16T15:38:02.000Z</time>
      </trkpt>
      <trkpt lat="48.6638514138758182525634765625" lon="10.36307059228420257568359375">
        <ele>485.399993896484375</ele>
        <time>2018-08-16T15:38:09.000Z</time>
      </trkpt>
      <trkpt lat="48.6643734388053417205810546875" lon="10.36343411542475223541259765625">
        <ele>485.20001220703125</ele>
        <time>2018-08-16T15:38:16.000Z</time>
      </trkpt>
      <trkpt lat="48.6646525561809539794921875" lon="10.36359152756631374359130859375">
        <ele>485.20001220703125</ele>
        <time>2018-08-16T15:38:20.000Z</time>
      </trkpt>
      <trkpt lat="48.66484676487743854522705078125" lon="10.36369546316564083099365234375">
        <ele>485.399993896484375</ele>
        <time>2018-08-16T15:38:23.000Z</time>
      </trkpt>
      <trkpt lat="48.665088079869747161865234375" lon="10.363827645778656005859375">
        <ele>486.79998779296875</ele>
        <time>2018-08-16T15:38:27.000Z</time>
      </trkpt>
      <trkpt lat="48.665261752903461456298828125" lon="10.36393384449183940887451171875">
        <ele>487.79998779296875</ele>
        <time>2018-08-16T15:38:30.000Z</time>
      </trkpt>
      <trkpt lat="48.6655376851558685302734375" lon="10.3641315735876560211181640625">
        <ele>489</ele>
        <time>2018-08-16T15:38:35.000Z</time>
      </trkpt>
      <trkpt lat="48.66570339538156986236572265625" lon="10.36426258273422718048095703125">
        <ele>489.600006103515625</ele>
        <time>2018-08-16T15:38:38.000Z</time>
      </trkpt>
      <trkpt lat="48.66586633957922458648681640625" lon="10.36441211588680744171142578125">
        <ele>490.20001220703125</ele>
        <time>2018-08-16T15:38:41.000Z</time>
      </trkpt>
      <trkpt lat="48.66628543473780155181884765625" lon="10.364895500242710113525390625">
        <ele>491.20001220703125</ele>
        <time>2018-08-16T15:38:49.000Z</time>
      </trkpt>
      <trkpt lat="48.66668407805263996124267578125" lon="10.36544543690979480743408203125">
        <ele>492</ele>
        <time>2018-08-16T15:38:57.000Z</time>
      </trkpt>
      <trkpt lat="48.66673386655747890472412109375" lon="10.36551450379192829132080078125">
        <ele>492.399993896484375</ele>
        <time>2018-08-16T15:38:58.000Z</time>
      </trkpt>
      <trkpt lat="48.66713485680520534515380859375" lon="10.36607542075216770172119140625">
        <ele>493</ele>
        <time>2018-08-16T15:39:06.000Z</time>
      </trkpt>
      <trkpt lat="48.667288832366466522216796875" lon="10.3662894107401371002197265625">
        <ele>493.20001220703125</ele>
        <time>2018-08-16T15:39:09.000Z</time>
      </trkpt>
      <trkpt lat="48.66770331747829914093017578125" lon="10.366864912211894989013671875">
        <ele>493.600006103515625</ele>
        <time>2018-08-16T15:39:17.000Z</time>
      </trkpt>
      <trkpt lat="48.6681074090301990509033203125" lon="10.36743982695043087005615234375">
        <ele>494</ele>
        <time>2018-08-16T15:39:25.000Z</time>
      </trkpt>
      <trkpt lat="48.668204136192798614501953125" lon="10.36759338341653347015380859375">
        <ele>494.20001220703125</ele>
        <time>2018-08-16T15:39:27.000Z</time>
      </trkpt>
      <trkpt lat="48.66852340288460254669189453125" lon="10.36830282770097255706787109375">
        <ele>495</ele>
        <time>2018-08-16T15:39:35.000Z</time>
      </trkpt>
      <trkpt lat="48.6687719263136386871337890625" lon="10.36909039132297039031982421875">
        <ele>495.20001220703125</ele>
        <time>2018-08-16T15:39:43.000Z</time>
      </trkpt>
      <trkpt lat="48.66880151443183422088623046875" lon="10.36919114179909229278564453125">
        <ele>495.20001220703125</ele>
        <time>2018-08-16T15:39:44.000Z</time>
      </trkpt>
      <trkpt lat="48.66909689269959926605224609375" lon="10.36998423747718334197998046875">
        <ele>495.79998779296875</ele>
        <time>2018-08-16T15:39:52.000Z</time>
      </trkpt>
      <trkpt lat="48.66928196512162685394287109375" lon="10.3703787736594676971435546875">
        <ele>495.79998779296875</ele>
        <time>2018-08-16T15:39:56.000Z</time>
      </trkpt>
      <trkpt lat="48.66938154213130474090576171875" lon="10.37058371119201183319091796875">
        <ele>495.600006103515625</ele>
        <time>2018-08-16T15:39:58.000Z</time>
      </trkpt>
      <trkpt lat="48.66970919072628021240234375" lon="10.37127412855625152587890625">
        <ele>494.20001220703125</ele>
        <time>2018-08-16T15:40:04.000Z</time>
      </trkpt>
      <trkpt lat="48.66982896812260150909423828125" lon="10.371528603136539459228515625">
        <ele>493.79998779296875</ele>
        <time>2018-08-16T15:40:06.000Z</time>
      </trkpt>
      <trkpt lat="48.66988881491124629974365234375" lon="10.37165726535022258758544921875">
        <ele>493.600006103515625</ele>
        <time>2018-08-16T15:40:07.000Z</time>
      </trkpt>
      <trkpt lat="48.66994497366249561309814453125" lon="10.37178617902100086212158203125">
        <ele>493.20001220703125</ele>
        <time>2018-08-16T15:40:08.000Z</time>
      </trkpt>
      <trkpt lat="48.66999660618603229522705078125" lon="10.37191375158727169036865234375">
        <ele>493</ele>
        <time>2018-08-16T15:40:09.000Z</time>
      </trkpt>
      <trkpt lat="48.6700479872524738311767578125" lon="10.37203713320195674896240234375">
        <ele>492.399993896484375</ele>
        <time>2018-08-16T15:40:10.000Z</time>
      </trkpt>
      <trkpt lat="48.6701251007616519927978515625" lon="10.3722564876079559326171875">
        <ele>491.600006103515625</ele>
        <time>2018-08-16T15:40:12.000Z</time>
      </trkpt>
      <trkpt lat="48.67014748044312000274658203125" lon="10.3723565675318241119384765625">
        <ele>491.20001220703125</ele>
        <time>2018-08-16T15:40:13.000Z</time>
      </trkpt>
      <trkpt lat="48.6701532639563083648681640625" lon="10.3724387101829051971435546875">
        <ele>490.79998779296875</ele>
        <time>2018-08-16T15:40:14.000Z</time>
      </trkpt>
      <trkpt lat="48.67014915682375431060791015625" lon="10.37253879010677337646484375">
        <ele>489.20001220703125</ele>
        <time>2018-08-16T15:40:16.000Z</time>
      </trkpt>
      <trkpt lat="48.67015368305146694183349609375" lon="10.37259805016219615936279296875">
        <ele>487.399993896484375</ele>
        <time>2018-08-16T15:40:18.000Z</time>
      </trkpt>
      <trkpt lat="48.6701710335910320281982421875" lon="10.37262856028974056243896484375">
        <ele>486.79998779296875</ele>
        <time>2018-08-16T15:40:19.000Z</time>
      </trkpt>
      <trkpt lat="48.67019576020538806915283203125" lon="10.372660160064697265625">
        <ele>486.20001220703125</ele>
        <time>2018-08-16T15:40:20.000Z</time>
      </trkpt>
      <trkpt lat="48.670225180685520172119140625" lon="10.37269460968673229217529296875">
        <ele>485</ele>
        <time>2018-08-16T15:40:21.000Z</time>
      </trkpt>
      <trkpt lat="48.67026985622942447662353515625" lon="10.37272361107170581817626953125">
        <ele>484.399993896484375</ele>
        <time>2018-08-16T15:40:22.000Z</time>
      </trkpt>
      <trkpt lat="48.6703262664377689361572265625" lon="10.37274356000125408172607421875">
        <ele>483.79998779296875</ele>
        <time>2018-08-16T15:40:23.000Z</time>
      </trkpt>
      <trkpt lat="48.67045274935662746429443359375" lon="10.37276904098689556121826171875">
        <ele>483.399993896484375</ele>
        <time>2018-08-16T15:40:25.000Z</time>
      </trkpt>
      <trkpt lat="48.67052483372390270233154296875" lon="10.37278915755450725555419921875">
        <ele>483.399993896484375</ele>
        <time>2018-08-16T15:40:26.000Z</time>
      </trkpt>
      <trkpt lat="48.67060580290853977203369140625" lon="10.37282117642462253570556640625">
        <ele>483.20001220703125</ele>
        <time>2018-08-16T15:40:27.000Z</time>
      </trkpt>
      <trkpt lat="48.67076774127781391143798828125" lon="10.37289124913513660430908203125">
        <ele>483</ele>
        <time>2018-08-16T15:40:29.000Z</time>
      </trkpt>
      <trkpt lat="48.67085524834692478179931640625" lon="10.3729377686977386474609375">
        <ele>482.79998779296875</ele>
        <time>2018-08-16T15:40:30.000Z</time>
      </trkpt>
      <trkpt lat="48.67093236185610294342041015625" lon="10.372989736497402191162109375">
        <ele>482.399993896484375</ele>
        <time>2018-08-16T15:40:31.000Z</time>
      </trkpt>
      <trkpt lat="48.671085834503173828125" lon="10.37309643812477588653564453125">
        <ele>482</ele>
        <time>2018-08-16T15:40:33.000Z</time>
      </trkpt>
      <trkpt lat="48.67116806097328662872314453125" lon="10.37314471788704395294189453125">
        <ele>481.600006103515625</ele>
        <time>2018-08-16T15:40:34.000Z</time>
      </trkpt>
      <trkpt lat="48.67144818417727947235107421875" lon="10.373270697891712188720703125">
        <ele>480.399993896484375</ele>
        <time>2018-08-16T15:40:37.000Z</time>
      </trkpt>
      <trkpt lat="48.67163878865540027618408203125" lon="10.37334554828703403472900390625">
        <ele>480</ele>
        <time>2018-08-16T15:40:39.000Z</time>
      </trkpt>
      <trkpt lat="48.67190751247107982635498046875" lon="10.373440347611904144287109375">
        <ele>479.399993896484375</ele>
        <time>2018-08-16T15:40:42.000Z</time>
      </trkpt>
      <trkpt lat="48.67216341197490692138671875" lon="10.3735276870429515838623046875">
        <ele>478.20001220703125</ele>
        <time>2018-08-16T15:40:45.000Z</time>
      </trkpt>
      <trkpt lat="48.67241746746003627777099609375" lon="10.37360899150371551513671875">
        <ele>477.20001220703125</ele>
        <time>2018-08-16T15:40:48.000Z</time>
      </trkpt>
      <trkpt lat="48.67250128649175167083740234375" lon="10.37363790906965732574462890625">
        <ele>477</ele>
        <time>2018-08-16T15:40:49.000Z</time>
      </trkpt>
      <trkpt lat="48.6725846864283084869384765625" lon="10.37367026321589946746826171875">
        <ele>476.600006103515625</ele>
        <time>2018-08-16T15:40:50.000Z</time>
      </trkpt>
      <trkpt lat="48.6726681701838970184326171875" lon="10.37370228208601474761962890625">
        <ele>476.20001220703125</ele>
        <time>2018-08-16T15:40:51.000Z</time>
      </trkpt>
      <trkpt lat="48.67291652597486972808837890625" lon="10.37379783578217029571533203125">
        <ele>476</ele>
        <time>2018-08-16T15:40:54.000Z</time>
      </trkpt>
      <trkpt lat="48.673246689140796661376953125" lon="10.37391317076981067657470703125">
        <ele>475.600006103515625</ele>
        <time>2018-08-16T15:40:58.000Z</time>
      </trkpt>
      <trkpt lat="48.67348699830472469329833984375" lon="10.37400922738015651702880859375">
        <ele>475.600006103515625</ele>
        <time>2018-08-16T15:41:01.000Z</time>
      </trkpt>
      <trkpt lat="48.67384406737983226776123046875" lon="10.37427945993840694427490234375">
        <ele>475.600006103515625</ele>
        <time>2018-08-16T15:41:06.000Z</time>
      </trkpt>
      <trkpt lat="48.67409594357013702392578125" lon="10.3745385445654392242431640625">
        <ele>475.399993896484375</ele>
        <time>2018-08-16T15:41:10.000Z</time>
      </trkpt>
      <trkpt lat="48.67415620945394039154052734375" lon="10.3746032528579235076904296875">
        <ele>475.399993896484375</ele>
        <time>2018-08-16T15:41:11.000Z</time>
      </trkpt>
      <trkpt lat="48.67443666793406009674072265625" lon="10.374896116554737091064453125">
        <ele>475.399993896484375</ele>
        <time>2018-08-16T15:41:16.000Z</time>
      </trkpt>
      <trkpt lat="48.67449467070400714874267578125" lon="10.37494531832635402679443359375">
        <ele>475.399993896484375</ele>
        <time>2018-08-16T15:41:17.000Z</time>
      </trkpt>
      <trkpt lat="48.67454412393271923065185546875" lon="10.37497130222618579864501953125">
        <ele>475.399993896484375</ele>
        <time>2018-08-16T15:41:18.000Z</time>
      </trkpt>
      <trkpt lat="48.6746727861464023590087890625" lon="10.37489854730665683746337890625">
        <ele>475.600006103515625</ele>
        <time>2018-08-16T15:41:23.000Z</time>
      </trkpt>
      <trkpt lat="48.6746949143707752227783203125" lon="10.3749024868011474609375">
        <ele>475.600006103515625</ele>
        <time>2018-08-16T15:41:24.000Z</time>
      </trkpt>
      <trkpt lat="48.67474679835140705108642578125" lon="10.37489217706024646759033203125">
        <ele>475.600006103515625</ele>
        <time>2018-08-16T15:41:26.000Z</time>
      </trkpt>
      <trkpt lat="48.674793653190135955810546875" lon="10.374816320836544036865234375">
        <ele>475.600006103515625</ele>
        <time>2018-08-16T15:41:28.000Z</time>
      </trkpt>
      <trkpt lat="48.67483648471534252166748046875" lon="10.37469796836376190185546875">
        <ele>475.79998779296875</ele>
        <time>2018-08-16T15:41:30.000Z</time>
      </trkpt>
      <trkpt lat="48.6750731058418750762939453125" lon="10.37420712411403656005859375">
        <ele>475.79998779296875</ele>
        <time>2018-08-16T15:41:37.000Z</time>
      </trkpt>
      <trkpt lat="48.67520277388393878936767578125" lon="10.373991541564464569091796875">
        <ele>475.79998779296875</ele>
        <time>2018-08-16T15:41:40.000Z</time>
      </trkpt>
      <trkpt lat="48.675360940396785736083984375" lon="10.37384142167866230010986328125">
        <ele>475.79998779296875</ele>
        <time>2018-08-16T15:41:43.000Z</time>
      </trkpt>
      <trkpt lat="48.67553897202014923095703125" lon="10.37372390739619731903076171875">
        <ele>475.79998779296875</ele>
        <time>2018-08-16T15:41:46.000Z</time>
      </trkpt>
      <trkpt lat="48.67591121233999729156494140625" lon="10.37353665567934513092041015625">
        <ele>476.20001220703125</ele>
        <time>2018-08-16T15:41:52.000Z</time>
      </trkpt>
      <trkpt lat="48.6763013899326324462890625" lon="10.373329706490039825439453125">
        <ele>476.600006103515625</ele>
        <time>2018-08-16T15:41:58.000Z</time>
      </trkpt>
      <trkpt lat="48.676823079586029052734375" lon="10.37305821664631366729736328125">
        <ele>476.79998779296875</ele>
        <time>2018-08-16T15:42:06.000Z</time>
      </trkpt>
      <trkpt lat="48.67702231742441654205322265625" lon="10.3729587234556674957275390625">
        <ele>476.79998779296875</ele>
        <time>2018-08-16T15:42:09.000Z</time>
      </trkpt>
      <trkpt lat="48.67756328545510768890380859375" lon="10.37269578315317630767822265625">
        <ele>477</ele>
        <time>2018-08-16T15:42:17.000Z</time>
      </trkpt>
      <trkpt lat="48.677698485553264617919921875" lon="10.372634343802928924560546875">
        <ele>477</ele>
        <time>2018-08-16T15:42:19.000Z</time>
      </trkpt>
      <trkpt lat="48.67823082022368907928466796875" lon="10.3723649494349956512451171875">
        <ele>477.399993896484375</ele>
        <time>2018-08-16T15:42:27.000Z</time>
      </trkpt>
      <trkpt lat="48.67857523262500762939453125" lon="10.3721889294683933258056640625">
        <ele>477.79998779296875</ele>
        <time>2018-08-16T15:42:32.000Z</time>
      </trkpt>
      <trkpt lat="48.6788521707057952880859375" lon="10.3720279969274997711181640625">
        <ele>478</ele>
        <time>2018-08-16T15:42:36.000Z</time>
      </trkpt>
      <trkpt lat="48.67917872965335845947265625" lon="10.3717463649809360504150390625">
        <ele>478.20001220703125</ele>
        <time>2018-08-16T15:42:41.000Z</time>
      </trkpt>
      <trkpt lat="48.67935986258089542388916015625" lon="10.37157864309847354888916015625">
        <ele>478.20001220703125</ele>
        <time>2018-08-16T15:42:44.000Z</time>
      </trkpt>
      <trkpt lat="48.67941820062696933746337890625" lon="10.37152667529881000518798828125">
        <ele>478.20001220703125</ele>
        <time>2018-08-16T15:42:45.000Z</time>
      </trkpt>
      <trkpt lat="48.67952967993915081024169921875" lon="10.37142525427043437957763671875">
        <ele>478.20001220703125</ele>
        <time>2018-08-16T15:42:47.000Z</time>
      </trkpt>
      <trkpt lat="48.67968759499490261077880859375" lon="10.3712836839258670806884765625">
        <ele>478.399993896484375</ele>
        <time>2018-08-16T15:42:50.000Z</time>
      </trkpt>
      <trkpt lat="48.6797954700887203216552734375" lon="10.37118569947779178619384765625">
        <ele>478.399993896484375</ele>
        <time>2018-08-16T15:42:52.000Z</time>
      </trkpt>
      <trkpt lat="48.67996922694146633148193359375" lon="10.3710396029055118560791015625">
        <ele>478.600006103515625</ele>
        <time>2018-08-16T15:42:55.000Z</time>
      </trkpt>
      <trkpt lat="48.68025605566799640655517578125" lon="10.3707613237202167510986328125">
        <ele>478.600006103515625</ele>
        <time>2018-08-16T15:43:00.000Z</time>
      </trkpt>
      <trkpt lat="48.6803711391985416412353515625" lon="10.3706337511539459228515625">
        <ele>478.600006103515625</ele>
        <time>2018-08-16T15:43:02.000Z</time>
      </trkpt>
      <trkpt lat="48.6805957742035388946533203125" lon="10.3703532926738262176513671875">
        <ele>478.600006103515625</ele>
        <time>2018-08-16T15:43:06.000Z</time>
      </trkpt>
      <trkpt lat="48.680933229625225067138671875" lon="10.3699274919927120208740234375">
        <ele>478.600006103515625</ele>
        <time>2018-08-16T15:43:12.000Z</time>
      </trkpt>
      <trkpt lat="48.68110145442187786102294921875" lon="10.36971576511859893798828125">
        <ele>478.79998779296875</ele>
        <time>2018-08-16T15:43:15.000Z</time>
      </trkpt>
      <trkpt lat="48.68144025094807147979736328125" lon="10.36929222755134105682373046875">
        <ele>479</ele>
        <time>2018-08-16T15:43:21.000Z</time>
      </trkpt>
      <trkpt lat="48.68154980242252349853515625" lon="10.36915359087288379669189453125">
        <ele>479.20001220703125</ele>
        <time>2018-08-16T15:43:23.000Z</time>
      </trkpt>
      <trkpt lat="48.68165281601250171661376953125" lon="10.36902484484016895294189453125">
        <ele>479.20001220703125</ele>
        <time>2018-08-16T15:43:25.000Z</time>
      </trkpt>
      <trkpt lat="48.68185817264020442962646484375" lon="10.3687650896608829498291015625">
        <ele>479.399993896484375</ele>
        <time>2018-08-16T15:43:29.000Z</time>
      </trkpt>
      <trkpt lat="48.6819690652191638946533203125" lon="10.3686259500682353973388671875">
        <ele>479.600006103515625</ele>
        <time>2018-08-16T15:43:31.000Z</time>
      </trkpt>
      <trkpt lat="48.682246506214141845703125" lon="10.36826879717409610748291015625">
        <ele>479.79998779296875</ele>
        <time>2018-08-16T15:43:36.000Z</time>
      </trkpt>
      <trkpt lat="48.68230090476572513580322265625" lon="10.3682014904916286468505859375">
        <ele>479.79998779296875</ele>
        <time>2018-08-16T15:43:37.000Z</time>
      </trkpt>
      <trkpt lat="48.6824055947363376617431640625" lon="10.36807022988796234130859375">
        <ele>480</ele>
        <time>2018-08-16T15:43:39.000Z</time>
      </trkpt>
      <trkpt lat="48.682655878365039825439453125" lon="10.36775280721485614776611328125">
        <ele>480</ele>
        <time>2018-08-16T15:43:44.000Z</time>
      </trkpt>
      <trkpt lat="48.68310942314565181732177734375" lon="10.36717294715344905853271484375">
        <ele>480.600006103515625</ele>
        <time>2018-08-16T15:43:53.000Z</time>
      </trkpt>
      <trkpt lat="48.683211766183376312255859375" lon="10.3670422732830047607421875">
        <ele>480.600006103515625</ele>
        <time>2018-08-16T15:43:55.000Z</time>
      </trkpt>
      <trkpt lat="48.68352466262876987457275390625" lon="10.3666508384048938751220703125">
        <ele>481</ele>
        <time>2018-08-16T15:44:01.000Z</time>
      </trkpt>
      <trkpt lat="48.68395197205245494842529296875" lon="10.3661113791167736053466796875">
        <ele>481.399993896484375</ele>
        <time>2018-08-16T15:44:09.000Z</time>
      </trkpt>
      <trkpt lat="48.684323541820049285888671875" lon="10.3656426630914211273193359375">
        <ele>481.79998779296875</ele>
        <time>2018-08-16T15:44:16.000Z</time>
      </trkpt>
      <trkpt lat="48.6844821274280548095703125" lon="10.365447700023651123046875">
        <ele>482</ele>
        <time>2018-08-16T15:44:19.000Z</time>
      </trkpt>
      <trkpt lat="48.6849037371575832366943359375" lon="10.3649104200303554534912109375">
        <ele>482.600006103515625</ele>
        <time>2018-08-16T15:44:27.000Z</time>
      </trkpt>
      <trkpt lat="48.6853550188243389129638671875" lon="10.3644165582954883575439453125">
        <ele>483</ele>
        <time>2018-08-16T15:44:35.000Z</time>
      </trkpt>
      <trkpt lat="48.68541394360363483428955078125" lon="10.3643600642681121826171875">
        <ele>483</ele>
        <time>2018-08-16T15:44:36.000Z</time>
      </trkpt>
      <trkpt lat="48.6856567673385143280029296875" lon="10.3641352616250514984130859375">
        <ele>483.20001220703125</ele>
        <time>2018-08-16T15:44:40.000Z</time>
      </trkpt>
      <trkpt lat="48.68583890609443187713623046875" lon="10.363979525864124298095703125">
        <ele>483.399993896484375</ele>
        <time>2018-08-16T15:44:43.000Z</time>
      </trkpt>
      <trkpt lat="48.6861529760062694549560546875" lon="10.36375111900269985198974609375">
        <ele>483.399993896484375</ele>
        <time>2018-08-16T15:44:50.000Z</time>
      </trkpt>
      <trkpt lat="48.68623704649507999420166015625" lon="10.363867543637752532958984375">
        <ele>483.399993896484375</ele>
        <time>2018-08-16T15:44:54.000Z</time>
      </trkpt>
      <trkpt lat="48.68630561046302318572998046875" lon="10.36401682533323764801025390625">
        <ele>483.600006103515625</ele>
        <time>2018-08-16T15:44:58.000Z</time>
      </trkpt>
      <trkpt lat="48.6863420717418193817138671875" lon="10.36415412090718746185302734375">
        <ele>483.600006103515625</ele>
        <time>2018-08-16T15:45:01.000Z</time>
      </trkpt>
      <trkpt lat="48.68638406507670879364013671875" lon="10.36429770290851593017578125">
        <ele>484</ele>
        <time>2018-08-16T15:45:04.000Z</time>
      </trkpt>
      <trkpt lat="48.68639596737921237945556640625" lon="10.36434824578464031219482421875">
        <ele>484.20001220703125</ele>
        <time>2018-08-16T15:45:05.000Z</time>
      </trkpt>
      <trkpt lat="48.68645665235817432403564453125" lon="10.3645478188991546630859375">
        <ele>485.20001220703125</ele>
        <time>2018-08-16T15:45:09.000Z</time>
      </trkpt>
      <trkpt lat="48.6864704824984073638916015625" lon="10.3645966015756130218505859375">
        <ele>485.399993896484375</ele>
        <time>2018-08-16T15:45:10.000Z</time>
      </trkpt>
      <trkpt lat="48.68653628043830394744873046875" lon="10.36478125490248203277587890625">
        <ele>486.600006103515625</ele>
        <time>2018-08-16T15:45:14.000Z</time>
      </trkpt>
      <trkpt lat="48.68657651357352733612060546875" lon="10.36492290906608104705810546875">
        <ele>487.20001220703125</ele>
        <time>2018-08-16T15:45:17.000Z</time>
      </trkpt>
      <trkpt lat="48.686592020094394683837890625" lon="10.3649654053151607513427734375">
        <ele>487.600006103515625</ele>
        <time>2018-08-16T15:45:18.000Z</time>
      </trkpt>
      <trkpt lat="48.68664306588470935821533203125" lon="10.36509297788143157958984375">
        <ele>488.600006103515625</ele>
        <time>2018-08-16T15:45:21.000Z</time>
      </trkpt>
      <trkpt lat="48.6866949498653411865234375" lon="10.36526195704936981201171875">
        <ele>489.79998779296875</ele>
        <time>2018-08-16T15:45:25.000Z</time>
      </trkpt>
      <trkpt lat="48.68670458905398845672607421875" lon="10.365303196012973785400390625">
        <ele>490.20001220703125</ele>
        <time>2018-08-16T15:45:26.000Z</time>
      </trkpt>
      <trkpt lat="48.68673526681959629058837890625" lon="10.36541710607707500457763671875">
        <ele>491</ele>
        <time>2018-08-16T15:45:29.000Z</time>
      </trkpt>
      <trkpt lat="48.68677868507802486419677734375" lon="10.36554886959493160247802734375">
        <ele>492.20001220703125</ele>
        <time>2018-08-16T15:45:33.000Z</time>
      </trkpt>
      <trkpt lat="48.686803914606571197509765625" lon="10.36564073525369167327880859375">
        <ele>493.399993896484375</ele>
        <time>2018-08-16T15:45:37.000Z</time>
      </trkpt>
      <trkpt lat="48.68686317466199398040771484375" lon="10.36567979492247104644775390625">
        <ele>494.600006103515625</ele>
        <time>2018-08-16T15:45:41.000Z</time>
      </trkpt>
      <trkpt lat="48.68744672276079654693603515625" lon="10.36555691622197628021240234375">
        <ele>495.399993896484375</ele>
        <time>2018-08-16T15:45:53.000Z</time>
      </trkpt>
      <trkpt lat="48.687616288661956787109375" lon="10.36549187265336513519287109375">
        <ele>495.399993896484375</ele>
        <time>2018-08-16T15:45:56.000Z</time>
      </trkpt>
      <trkpt lat="48.68772919289767742156982421875" lon="10.365439318120479583740234375">
        <ele>495.399993896484375</ele>
        <time>2018-08-16T15:45:58.000Z</time>
      </trkpt>
      <trkpt lat="48.68806731887161731719970703125" lon="10.36524577997624874114990234375">
        <ele>495.600006103515625</ele>
        <time>2018-08-16T15:46:04.000Z</time>
      </trkpt>
      <trkpt lat="48.68859864771366119384765625" lon="10.364861302077770233154296875">
        <ele>495.79998779296875</ele>
        <time>2018-08-16T15:46:13.000Z</time>
      </trkpt>
      <trkpt lat="48.688720352947711944580078125" lon="10.3647759743034839630126953125">
        <ele>495.79998779296875</ele>
        <time>2018-08-16T15:46:15.000Z</time>
      </trkpt>
      <trkpt lat="48.68920826353132724761962890625" lon="10.3644029796123504638671875">
        <ele>495.79998779296875</ele>
        <time>2018-08-16T15:46:23.000Z</time>
      </trkpt>
      <trkpt lat="48.689716123044490814208984375" lon="10.3639894165098667144775390625">
        <ele>496.399993896484375</ele>
        <time>2018-08-16T15:46:31.000Z</time>
      </trkpt>
      <trkpt lat="48.68990756571292877197265625" lon="10.36384331993758678436279296875">
        <ele>496.600006103515625</ele>
        <time>2018-08-16T15:46:34.000Z</time>
      </trkpt>
      <trkpt lat="48.68997193872928619384765625" lon="10.36380141042172908782958984375">
        <ele>496.600006103515625</ele>
        <time>2018-08-16T15:46:35.000Z</time>
      </trkpt>
      <trkpt lat="48.6901005171239376068115234375" lon="10.3637275658547878265380859375">
        <ele>496.79998779296875</ele>
        <time>2018-08-16T15:46:37.000Z</time>
      </trkpt>
      <trkpt lat="48.69062237441539764404296875" lon="10.3635508753359317779541015625">
        <ele>497.600006103515625</ele>
        <time>2018-08-16T15:46:45.000Z</time>
      </trkpt>
      <trkpt lat="48.69083502329885959625244140625" lon="10.36351122893393039703369140625">
        <ele>498.20001220703125</ele>
        <time>2018-08-16T15:46:48.000Z</time>
      </trkpt>
      <trkpt lat="48.6911313235759735107421875" lon="10.3635337762534618377685546875">
        <ele>498.399993896484375</ele>
        <time>2018-08-16T15:46:52.000Z</time>
      </trkpt>
      <trkpt lat="48.6912049166858196258544921875" lon="10.3635580837726593017578125">
        <ele>498.399993896484375</ele>
        <time>2018-08-16T15:46:53.000Z</time>
      </trkpt>
      <trkpt lat="48.69135201908648014068603515625" lon="10.36363544873893260955810546875">
        <ele>498.399993896484375</ele>
        <time>2018-08-16T15:46:55.000Z</time>
      </trkpt>
      <trkpt lat="48.6914935894310474395751953125" lon="10.3637490235269069671630859375">
        <ele>498.399993896484375</ele>
        <time>2018-08-16T15:46:57.000Z</time>
      </trkpt>
      <trkpt lat="48.69179659523069858551025390625" lon="10.364006347954273223876953125">
        <ele>498.20001220703125</ele>
        <time>2018-08-16T15:47:01.000Z</time>
      </trkpt>
      <trkpt lat="48.6919602937996387481689453125" lon="10.36415093578398227691650390625">
        <ele>498.20001220703125</ele>
        <time>2018-08-16T15:47:03.000Z</time>
      </trkpt>
      <trkpt lat="48.69204386137425899505615234375" lon="10.364226289093494415283203125">
        <ele>498</ele>
        <time>2018-08-16T15:47:04.000Z</time>
      </trkpt>
      <trkpt lat="48.69240202009677886962890625" lon="10.36451420746743679046630859375">
        <ele>496.600006103515625</ele>
        <time>2018-08-16T15:47:08.000Z</time>
      </trkpt>
      <trkpt lat="48.69249715469777584075927734375" lon="10.3645717911422252655029296875">
        <ele>496.399993896484375</ele>
        <time>2018-08-16T15:47:09.000Z</time>
      </trkpt>
      <trkpt lat="48.6925906129181385040283203125" lon="10.36462501622736454010009765625">
        <ele>495.399993896484375</ele>
        <time>2018-08-16T15:47:10.000Z</time>
      </trkpt>
      <trkpt lat="48.69277124293148517608642578125" lon="10.3647087514400482177734375">
        <ele>494.399993896484375</ele>
        <time>2018-08-16T15:47:12.000Z</time>
      </trkpt>
      <trkpt lat="48.69294340722262859344482421875" lon="10.364768095314502716064453125">
        <ele>493.600006103515625</ele>
        <time>2018-08-16T15:47:14.000Z</time>
      </trkpt>
      <trkpt lat="48.69316401891410350799560546875" lon="10.3648289479315280914306640625">
        <ele>493.399993896484375</ele>
        <time>2018-08-16T15:47:17.000Z</time>
      </trkpt>
      <trkpt lat="48.6932316608726978302001953125" lon="10.364848561584949493408203125">
        <ele>493.399993896484375</ele>
        <time>2018-08-16T15:47:18.000Z</time>
      </trkpt>
      <trkpt lat="48.69329729117453098297119140625" lon="10.364868678152561187744140625">
        <ele>493.399993896484375</ele>
        <time>2018-08-16T15:47:19.000Z</time>
      </trkpt>
      <trkpt lat="48.69336032308638095855712890625" lon="10.36488804034888744354248046875">
        <ele>493.20001220703125</ele>
        <time>2018-08-16T15:47:20.000Z</time>
      </trkpt>
      <trkpt lat="48.69348387233912944793701171875" lon="10.364920310676097869873046875">
        <ele>493.20001220703125</ele>
        <time>2018-08-16T15:47:22.000Z</time>
      </trkpt>
      <trkpt lat="48.6936688609421253204345703125" lon="10.3649633936583995819091796875">
        <ele>493.600006103515625</ele>
        <time>2018-08-16T15:47:25.000Z</time>
      </trkpt>
      <trkpt lat="48.6938591301441192626953125" lon="10.365002453327178955078125">
        <ele>494.399993896484375</ele>
        <time>2018-08-16T15:47:28.000Z</time>
      </trkpt>
      <trkpt lat="48.69406289421021938323974609375" lon="10.3650126792490482330322265625">
        <ele>495.20001220703125</ele>
        <time>2018-08-16T15:47:31.000Z</time>
      </trkpt>
      <trkpt lat="48.69420982897281646728515625" lon="10.3649761341512203216552734375">
        <ele>495.399993896484375</ele>
        <time>2018-08-16T15:47:33.000Z</time>
      </trkpt>
      <trkpt lat="48.6943669058382511138916015625" lon="10.36492626182734966278076171875">
        <ele>495.600006103515625</ele>
        <time>2018-08-16T15:47:35.000Z</time>
      </trkpt>
      <trkpt lat="48.69444829411804676055908203125" lon="10.36489524878561496734619140625">
        <ele>495.600006103515625</ele>
        <time>2018-08-16T15:47:36.000Z</time>
      </trkpt>
      <trkpt lat="48.694611154496669769287109375" lon="10.3647970966994762420654296875">
        <ele>495.600006103515625</ele>
        <time>2018-08-16T15:47:38.000Z</time>
      </trkpt>
      <trkpt lat="48.69507324881851673126220703125" lon="10.3644859604537487030029296875">
        <ele>494.79998779296875</ele>
        <time>2018-08-16T15:47:43.000Z</time>
      </trkpt>
      <trkpt lat="48.6952751688659191131591796875" lon="10.36435134708881378173828125">
        <ele>494.20001220703125</ele>
        <time>2018-08-16T15:47:45.000Z</time>
      </trkpt>
      <trkpt lat="48.695572055876255035400390625" lon="10.364109613001346588134765625">
        <ele>493</ele>
        <time>2018-08-16T15:47:48.000Z</time>
      </trkpt>
      <trkpt lat="48.695775233209133148193359375" lon="10.363966114819049835205078125">
        <ele>491.79998779296875</ele>
        <time>2018-08-16T15:47:50.000Z</time>
      </trkpt>
      <trkpt lat="48.695893250405788421630859375" lon="10.363929904997348785400390625">
        <ele>491.20001220703125</ele>
        <time>2018-08-16T15:47:51.000Z</time>
      </trkpt>
      <trkpt lat="48.69600154459476470947265625" lon="10.363913811743259429931640625">
        <ele>490.399993896484375</ele>
        <time>2018-08-16T15:47:52.000Z</time>
      </trkpt>
      <trkpt lat="48.69619994424283504486083984375" lon="10.363960750401020050048828125">
        <ele>489.20001220703125</ele>
        <time>2018-08-16T15:47:54.000Z</time>
      </trkpt>
      <trkpt lat="48.696382082998752593994140625" lon="10.36405471153557300567626953125">
        <ele>488.20001220703125</ele>
        <time>2018-08-16T15:47:56.000Z</time>
      </trkpt>
      <trkpt lat="48.69663563556969165802001953125" lon="10.36418630741536617279052734375">
        <ele>486.79998779296875</ele>
        <time>2018-08-16T15:47:59.000Z</time>
      </trkpt>
      <trkpt lat="48.69671677239239215850830078125" lon="10.36423064768314361572265625">
        <ele>486.600006103515625</ele>
        <time>2018-08-16T15:48:00.000Z</time>
      </trkpt>
      <trkpt lat="48.6971325986087322235107421875" lon="10.364598445594310760498046875">
        <ele>486.399993896484375</ele>
        <time>2018-08-16T15:48:06.000Z</time>
      </trkpt>
      <trkpt lat="48.69731180369853973388671875" lon="10.36481360904872417449951171875">
        <ele>486.399993896484375</ele>
        <time>2018-08-16T15:48:09.000Z</time>
      </trkpt>
      <trkpt lat="48.6973746679723262786865234375" lon="10.3648752160370349884033203125">
        <ele>486.600006103515625</ele>
        <time>2018-08-16T15:48:10.000Z</time>
      </trkpt>
      <trkpt lat="48.6975044198334217071533203125" lon="10.36498359404504299163818359375">
        <ele>486.79998779296875</ele>
        <time>2018-08-16T15:48:12.000Z</time>
      </trkpt>
      <trkpt lat="48.69770198129117488861083984375" lon="10.36514150910079479217529296875">
        <ele>487.20001220703125</ele>
        <time>2018-08-16T15:48:15.000Z</time>
      </trkpt>
      <trkpt lat="48.69788923300802707672119140625" lon="10.36533513106405735015869140625">
        <ele>487.399993896484375</ele>
        <time>2018-08-16T15:48:18.000Z</time>
      </trkpt>
      <trkpt lat="48.698073215782642364501953125" lon="10.36553814075887203216552734375">
        <ele>487.600006103515625</ele>
        <time>2018-08-16T15:48:21.000Z</time>
      </trkpt>
      <trkpt lat="48.6983771435916423797607421875" lon="10.36582245491445064544677734375">
        <ele>487.600006103515625</ele>
        <time>2018-08-16T15:48:26.000Z</time>
      </trkpt>
      <trkpt lat="48.6986980028450489044189453125" lon="10.365999229252338409423828125">
        <ele>487.79998779296875</ele>
        <time>2018-08-16T15:48:31.000Z</time>
      </trkpt>
      <trkpt lat="48.6987600289285182952880859375" lon="10.3660396300256252288818359375">
        <ele>488</ele>
        <time>2018-08-16T15:48:32.000Z</time>
      </trkpt>
      <trkpt lat="48.6990708298981189727783203125" lon="10.3662746585905551910400390625">
        <ele>489</ele>
        <time>2018-08-16T15:48:37.000Z</time>
      </trkpt>
      <trkpt lat="48.69949637912213802337646484375" lon="10.36679559387266635894775390625">
        <ele>489.79998779296875</ele>
        <time>2018-08-16T15:48:45.000Z</time>
      </trkpt>
      <trkpt lat="48.69960769079625606536865234375" lon="10.366929285228252410888671875">
        <ele>490</ele>
        <time>2018-08-16T15:48:47.000Z</time>
      </trkpt>
      <trkpt lat="48.700072802603244781494140625" lon="10.36736573092639446258544921875">
        <ele>491</ele>
        <time>2018-08-16T15:48:55.000Z</time>
      </trkpt>
      <trkpt lat="48.70013440959155559539794921875" lon="10.36741174757480621337890625">
        <ele>491.20001220703125</ele>
        <time>2018-08-16T15:48:56.000Z</time>
      </trkpt>
      <trkpt lat="48.700512014329433441162109375" lon="10.3676704131066799163818359375">
        <ele>492.20001220703125</ele>
        <time>2018-08-16T15:49:02.000Z</time>
      </trkpt>
      <trkpt lat="48.7009711749851703643798828125" lon="10.36796294152736663818359375">
        <ele>493.399993896484375</ele>
        <time>2018-08-16T15:49:09.000Z</time>
      </trkpt>
      <trkpt lat="48.70151557959616184234619140625" lon="10.36831020377576351165771484375">
        <ele>494.20001220703125</ele>
        <time>2018-08-16T15:49:17.000Z</time>
      </trkpt>
      <trkpt lat="48.7016564793884754180908203125" lon="10.3684016503393650054931640625">
        <ele>494.399993896484375</ele>
        <time>2018-08-16T15:49:19.000Z</time>
      </trkpt>
      <trkpt lat="48.702151514589786529541015625" lon="10.36872946657240390777587890625">
        <ele>495</ele>
        <time>2018-08-16T15:49:26.000Z</time>
      </trkpt>
      <trkpt lat="48.702643699944019317626953125" lon="10.36906507797539234161376953125">
        <ele>495.399993896484375</ele>
        <time>2018-08-16T15:49:33.000Z</time>
      </trkpt>
      <trkpt lat="48.70271368883550167083740234375" lon="10.369113944470882415771484375">
        <ele>495.399993896484375</ele>
        <time>2018-08-16T15:49:34.000Z</time>
      </trkpt>
      <trkpt lat="48.7032135017216205596923828125" lon="10.36947880871593952178955078125">
        <ele>495.79998779296875</ele>
        <time>2018-08-16T15:49:41.000Z</time>
      </trkpt>
      <trkpt lat="48.70371784083545207977294921875" lon="10.36987208761274814605712890625">
        <ele>496.20001220703125</ele>
        <time>2018-08-16T15:49:48.000Z</time>
      </trkpt>
      <trkpt lat="48.70414347387850284576416015625" lon="10.37022010423243045806884765625">
        <ele>496.600006103515625</ele>
        <time>2018-08-16T15:49:54.000Z</time>
      </trkpt>
      <trkpt lat="48.704621158540248870849609375" lon="10.37064271979033946990966796875">
        <ele>497.20001220703125</ele>
        <time>2018-08-16T15:50:01.000Z</time>
      </trkpt>
      <trkpt lat="48.70482156984508037567138671875" lon="10.37082779221236705780029296875">
        <ele>497.600006103515625</ele>
        <time>2018-08-16T15:50:04.000Z</time>
      </trkpt>
      <trkpt lat="48.70527771301567554473876953125" lon="10.37127421237528324127197265625">
        <ele>497.79998779296875</ele>
        <time>2018-08-16T15:50:11.000Z</time>
      </trkpt>
      <trkpt lat="48.70574274100363254547119140625" lon="10.37175902165472507476806640625">
        <ele>498</ele>
        <time>2018-08-16T15:50:18.000Z</time>
      </trkpt>
      <trkpt lat="48.7062226049602031707763671875" lon="10.3722777776420116424560546875">
        <ele>498.20001220703125</ele>
        <time>2018-08-16T15:50:25.000Z</time>
      </trkpt>
      <trkpt lat="48.70664631016552448272705078125" lon="10.37273417226970195770263671875">
        <ele>498.20001220703125</ele>
        <time>2018-08-16T15:50:31.000Z</time>
      </trkpt>
      <trkpt lat="48.70715416967868804931640625" lon="10.37328176200389862060546875">
        <ele>497.600006103515625</ele>
        <time>2018-08-16T15:50:38.000Z</time>
      </trkpt>
      <trkpt lat="48.70737302117049694061279296875" lon="10.37351645529270172119140625">
        <ele>497.399993896484375</ele>
        <time>2018-08-16T15:50:41.000Z</time>
      </trkpt>
      <trkpt lat="48.7078875862061977386474609375" lon="10.37406094372272491455078125">
        <ele>497</ele>
        <time>2018-08-16T15:50:48.000Z</time>
      </trkpt>
      <trkpt lat="48.70811029337346553802490234375" lon="10.374295301735401153564453125">
        <ele>496.399993896484375</ele>
        <time>2018-08-16T15:50:51.000Z</time>
      </trkpt>
      <trkpt lat="48.7085554562509059906005859375" lon="10.3747668676078319549560546875">
        <ele>496</ele>
        <time>2018-08-16T15:50:57.000Z</time>
      </trkpt>
      <trkpt lat="48.70884957723319530487060546875" lon="10.37506987340748310089111328125">
        <ele>495.399993896484375</ele>
        <time>2018-08-16T15:51:01.000Z</time>
      </trkpt>
      <trkpt lat="48.70937109924852848052978515625" lon="10.37558368407189846038818359375">
        <ele>494.600006103515625</ele>
        <time>2018-08-16T15:51:08.000Z</time>
      </trkpt>
      <trkpt lat="48.7096786312758922576904296875" lon="10.3758742846548557281494140625">
        <ele>494.20001220703125</ele>
        <time>2018-08-16T15:51:12.000Z</time>
      </trkpt>
      <trkpt lat="48.70998767204582691192626953125" lon="10.37615097127854824066162109375">
        <ele>494</ele>
        <time>2018-08-16T15:51:16.000Z</time>
      </trkpt>
      <trkpt lat="48.7105302326381206512451171875" lon="10.3766192682087421417236328125">
        <ele>493.79998779296875</ele>
        <time>2018-08-16T15:51:23.000Z</time>
      </trkpt>
      <trkpt lat="48.71091370470821857452392578125" lon="10.37694389931857585906982421875">
        <ele>494</ele>
        <time>2018-08-16T15:51:28.000Z</time>
      </trkpt>
      <trkpt lat="48.71144075877964496612548828125" lon="10.377387888729572296142578125">
        <ele>494</ele>
        <time>2018-08-16T15:51:35.000Z</time>
      </trkpt>
      <trkpt lat="48.71196328662335872650146484375" lon="10.37785937078297138214111328125">
        <ele>494.399993896484375</ele>
        <time>2018-08-16T15:51:42.000Z</time>
      </trkpt>
      <trkpt lat="48.712472654879093170166015625" lon="10.3784072957932949066162109375">
        <ele>494.399993896484375</ele>
        <time>2018-08-16T15:51:49.000Z</time>
      </trkpt>
      <trkpt lat="48.71287724934518337249755859375" lon="10.3789564780890941619873046875">
        <ele>494.600006103515625</ele>
        <time>2018-08-16T15:51:55.000Z</time>
      </trkpt>
      <trkpt lat="48.71329517103731632232666015625" lon="10.37951513193547725677490234375">
        <ele>494.600006103515625</ele>
        <time>2018-08-16T15:52:01.000Z</time>
      </trkpt>
      <trkpt lat="48.71375433169305324554443359375" lon="10.3800216503441333770751953125">
        <ele>494.399993896484375</ele>
        <time>2018-08-16T15:52:07.000Z</time>
      </trkpt>
      <trkpt lat="48.71425674296915531158447265625" lon="10.3804524801671504974365234375">
        <ele>494</ele>
        <time>2018-08-16T15:52:13.000Z</time>
      </trkpt>
      <trkpt lat="48.71476938016712665557861328125" lon="10.38077191449701786041259765625">
        <ele>493.79998779296875</ele>
        <time>2018-08-16T15:52:19.000Z</time>
      </trkpt>
      <trkpt lat="48.71533197350800037384033203125" lon="10.38106528110802173614501953125">
        <ele>493.79998779296875</ele>
        <time>2018-08-16T15:52:26.000Z</time>
      </trkpt>
      <trkpt lat="48.71561746113002300262451171875" lon="10.38121883757412433624267578125">
        <ele>494.20001220703125</ele>
        <time>2018-08-16T15:52:30.000Z</time>
      </trkpt>
      <trkpt lat="48.716059438884258270263671875" lon="10.38146811537444591522216796875">
        <ele>495.79998779296875</ele>
        <time>2018-08-16T15:52:37.000Z</time>
      </trkpt>
      <trkpt lat="48.7162259034812450408935546875" lon="10.38156936876475811004638671875">
        <ele>497.20001220703125</ele>
        <time>2018-08-16T15:52:40.000Z</time>
      </trkpt>
      <trkpt lat="48.716436959803104400634765625" lon="10.3816993720829486846923828125">
        <ele>498.20001220703125</ele>
        <time>2018-08-16T15:52:44.000Z</time>
      </trkpt>
      <trkpt lat="48.71664508245885372161865234375" lon="10.3818368352949619293212890625">
        <ele>499.20001220703125</ele>
        <time>2018-08-16T15:52:48.000Z</time>
      </trkpt>
      <trkpt lat="48.7168981321156024932861328125" lon="10.38199801929295063018798828125">
        <ele>500.399993896484375</ele>
        <time>2018-08-16T15:52:53.000Z</time>
      </trkpt>
      <trkpt lat="48.71715051122009754180908203125" lon="10.38216398097574710845947265625">
        <ele>501.399993896484375</ele>
        <time>2018-08-16T15:52:58.000Z</time>
      </trkpt>
      <trkpt lat="48.717409260571002960205078125" lon="10.3823362290859222412109375">
        <ele>502.399993896484375</ele>
        <time>2018-08-16T15:53:03.000Z</time>
      </trkpt>
      <trkpt lat="48.7176639027893543243408203125" lon="10.3825026936829090118408203125">
        <ele>503.600006103515625</ele>
        <time>2018-08-16T15:53:08.000Z</time>
      </trkpt>
      <trkpt lat="48.71796305291354656219482421875" lon="10.38269170559942722320556640625">
        <ele>505</ele>
        <time>2018-08-16T15:53:14.000Z</time>
      </trkpt>
      <trkpt lat="48.7181570939719676971435546875" lon="10.38282212801277637481689453125">
        <ele>506</ele>
        <time>2018-08-16T15:53:18.000Z</time>
      </trkpt>
      <trkpt lat="48.7184947170317173004150390625" lon="10.3830488584935665130615234375">
        <ele>507.20001220703125</ele>
        <time>2018-08-16T15:53:25.000Z</time>
      </trkpt>
      <trkpt lat="48.7186854891479015350341796875" lon="10.38317978382110595703125">
        <ele>508.399993896484375</ele>
        <time>2018-08-16T15:53:29.000Z</time>
      </trkpt>
      <trkpt lat="48.7188712321221828460693359375" lon="10.38332051597535610198974609375">
        <ele>509.600006103515625</ele>
        <time>2018-08-16T15:53:33.000Z</time>
      </trkpt>
      <trkpt lat="48.7190526165068149566650390625" lon="10.38346954621374607086181640625">
        <ele>510.79998779296875</ele>
        <time>2018-08-16T15:53:37.000Z</time>
      </trkpt>
      <trkpt lat="48.71923140250146389007568359375" lon="10.3836424648761749267578125">
        <ele>512</ele>
        <time>2018-08-16T15:53:41.000Z</time>
      </trkpt>
      <trkpt lat="48.7194606475532054901123046875" lon="10.38389501161873340606689453125">
        <ele>513</ele>
        <time>2018-08-16T15:53:46.000Z</time>
      </trkpt>
      <trkpt lat="48.71987429447472095489501953125" lon="10.38445710204541683197021484375">
        <ele>513.5999755859375</ele>
        <time>2018-08-16T15:53:55.000Z</time>
      </trkpt>
      <trkpt lat="48.72004964388906955718994140625" lon="10.38477092050015926361083984375">
        <ele>513.79998779296875</ele>
        <time>2018-08-16T15:53:59.000Z</time>
      </trkpt>
      <trkpt lat="48.72028492391109466552734375" lon="10.38519554771482944488525390625">
        <ele>514</ele>
        <time>2018-08-16T15:54:04.000Z</time>
      </trkpt>
      <trkpt lat="48.72044493444263935089111328125" lon="10.38544365204870700836181640625">
        <ele>514</ele>
        <time>2018-08-16T15:54:07.000Z</time>
      </trkpt>
      <trkpt lat="48.7208822183310985565185546875" lon="10.38593801669776439666748046875">
        <ele>514.20001220703125</ele>
        <time>2018-08-16T15:54:14.000Z</time>
      </trkpt>
      <trkpt lat="48.7213767506182193756103515625" lon="10.386304222047328948974609375">
        <ele>514.4000244140625</ele>
        <time>2018-08-16T15:54:21.000Z</time>
      </trkpt>
      <trkpt lat="48.7218836881220340728759765625" lon="10.38659758865833282470703125">
        <ele>514.5999755859375</ele>
        <time>2018-08-16T15:54:28.000Z</time>
      </trkpt>
      <trkpt lat="48.72228928841650485992431640625" lon="10.38677419535815715789794921875">
        <ele>515.20001220703125</ele>
        <time>2018-08-16T15:54:34.000Z</time>
      </trkpt>
      <trkpt lat="48.72240914963185787200927734375" lon="10.3868280909955501556396484375">
        <ele>515.4000244140625</ele>
        <time>2018-08-16T15:54:36.000Z</time>
      </trkpt>
      <trkpt lat="48.7225775420665740966796875" lon="10.3869209624826908111572265625">
        <ele>515.5999755859375</ele>
        <time>2018-08-16T15:54:39.000Z</time>
      </trkpt>
      <trkpt lat="48.7227319367229938507080078125" lon="10.387028753757476806640625">
        <ele>516.4000244140625</ele>
        <time>2018-08-16T15:54:42.000Z</time>
      </trkpt>
      <trkpt lat="48.72292882762849330902099609375" lon="10.38721944205462932586669921875">
        <ele>517.5999755859375</ele>
        <time>2018-08-16T15:54:46.000Z</time>
      </trkpt>
      <trkpt lat="48.72307039797306060791015625" lon="10.38737433962523937225341796875">
        <ele>518.5999755859375</ele>
        <time>2018-08-16T15:54:49.000Z</time>
      </trkpt>
      <trkpt lat="48.7233334220945835113525390625" lon="10.387618504464626312255859375">
        <ele>519.5999755859375</ele>
        <time>2018-08-16T15:54:54.000Z</time>
      </trkpt>
      <trkpt lat="48.7238463945686817169189453125" lon="10.38795755244791507720947265625">
        <ele>520.5999755859375</ele>
        <time>2018-08-16T15:55:02.000Z</time>
      </trkpt>
      <trkpt lat="48.7240447103977203369140625" lon="10.38812468759715557098388671875">
        <ele>520.79998779296875</ele>
        <time>2018-08-16T15:55:05.000Z</time>
      </trkpt>
      <trkpt lat="48.724205978214740753173828125" lon="10.38864218629896640777587890625">
        <ele>520.5999755859375</ele>
        <time>2018-08-16T15:55:10.000Z</time>
      </trkpt>
      <trkpt lat="48.724179156124591827392578125" lon="10.38895851932466030120849609375">
        <ele>520.4000244140625</ele>
        <time>2018-08-16T15:55:13.000Z</time>
      </trkpt>
      <trkpt lat="48.7240876257419586181640625" lon="10.3898261301219463348388671875">
        <ele>521</ele>
        <time>2018-08-16T15:55:24.000Z</time>
      </trkpt>
      <trkpt lat="48.7240700237452983856201171875" lon="10.38996568880975246429443359375">
        <ele>521.79998779296875</ele>
        <time>2018-08-16T15:55:26.000Z</time>
      </trkpt>
      <trkpt lat="48.7240375019609928131103515625" lon="10.39017389528453350067138671875">
        <ele>522.79998779296875</ele>
        <time>2018-08-16T15:55:29.000Z</time>
      </trkpt>
      <trkpt lat="48.72400942258536815643310546875" lon="10.39037874899804592132568359375">
        <ele>523.79998779296875</ele>
        <time>2018-08-16T15:55:32.000Z</time>
      </trkpt>
      <trkpt lat="48.72398578561842441558837890625" lon="10.39058159105479717254638671875">
        <ele>524.5999755859375</ele>
        <time>2018-08-16T15:55:35.000Z</time>
      </trkpt>
      <trkpt lat="48.723981678485870361328125" lon="10.39072324521839618682861328125">
        <ele>525.20001220703125</ele>
        <time>2018-08-16T15:55:37.000Z</time>
      </trkpt>
      <trkpt lat="48.7240033037960529327392578125" lon="10.390938408672809600830078125">
        <ele>526</ele>
        <time>2018-08-16T15:55:40.000Z</time>
      </trkpt>
      <trkpt lat="48.72401721775531768798828125" lon="10.39101518690586090087890625">
        <ele>526.4000244140625</ele>
        <time>2018-08-16T15:55:41.000Z</time>
      </trkpt>
      <trkpt lat="48.72408519499003887176513671875" lon="10.391325317323207855224609375">
        <ele>527.4000244140625</ele>
        <time>2018-08-16T15:55:45.000Z</time>
      </trkpt>
      <trkpt lat="48.72418175451457500457763671875" lon="10.39168749935925006866455078125">
        <ele>528.4000244140625</ele>
        <time>2018-08-16T15:55:50.000Z</time>
      </trkpt>
      <trkpt lat="48.7242695130407810211181640625" lon="10.39215244352817535400390625">
        <ele>529.5999755859375</ele>
        <time>2018-08-16T15:55:57.000Z</time>
      </trkpt>
      <trkpt lat="48.72445735149085521697998046875" lon="10.39239384233951568603515625">
        <ele>530.5999755859375</ele>
        <time>2018-08-16T15:56:02.000Z</time>
      </trkpt>
      <trkpt lat="48.72451367788016796112060546875" lon="10.3924151323735713958740234375">
        <ele>531</ele>
        <time>2018-08-16T15:56:03.000Z</time>
      </trkpt>
      <trkpt lat="48.7247992493212223052978515625" lon="10.39255837909877300262451171875">
        <ele>531.5999755859375</ele>
        <time>2018-08-16T15:56:08.000Z</time>
      </trkpt>
      <trkpt lat="48.72510225512087345123291015625" lon="10.39282777346670627593994140625">
        <ele>532.4000244140625</ele>
        <time>2018-08-16T15:56:14.000Z</time>
      </trkpt>
      <trkpt lat="48.72522345744073390960693359375" lon="10.39299323223531246185302734375">
        <ele>532.4000244140625</ele>
        <time>2018-08-16T15:56:17.000Z</time>
      </trkpt>
      <trkpt lat="48.72528632171452045440673828125" lon="10.39309901185333728790283203125">
        <ele>532.79998779296875</ele>
        <time>2018-08-16T15:56:19.000Z</time>
      </trkpt>
      <trkpt lat="48.72552135027945041656494140625" lon="10.3937029279768466949462890625">
        <ele>533.79998779296875</ele>
        <time>2018-08-16T15:56:29.000Z</time>
      </trkpt>
      <trkpt lat="48.72561656869947910308837890625" lon="10.39412118494510650634765625">
        <ele>534.79998779296875</ele>
        <time>2018-08-16T15:56:35.000Z</time>
      </trkpt>
      <trkpt lat="48.725718744099140167236328125" lon="10.39449795149266719818115234375">
        <ele>535.79998779296875</ele>
        <time>2018-08-16T15:56:41.000Z</time>
      </trkpt>
      <trkpt lat="48.72580247931182384490966796875" lon="10.39473138749599456787109375">
        <ele>536.79998779296875</ele>
        <time>2018-08-16T15:56:45.000Z</time>
      </trkpt>
      <trkpt lat="48.7258205004036426544189453125" lon="10.39478226564824581146240234375">
        <ele>537</ele>
        <time>2018-08-16T15:56:46.000Z</time>
      </trkpt>
      <trkpt lat="48.7259247712790966033935546875" lon="10.3950229100883007049560546875">
        <ele>538.20001220703125</ele>
        <time>2018-08-16T15:56:51.000Z</time>
      </trkpt>
      <trkpt lat="48.72599844820797443389892578125" lon="10.395154841244220733642578125">
        <ele>539.20001220703125</ele>
        <time>2018-08-16T15:56:54.000Z</time>
      </trkpt>
      <trkpt lat="48.7261044792830944061279296875" lon="10.39531736634671688079833984375">
        <ele>540.4000244140625</ele>
        <time>2018-08-16T15:56:58.000Z</time>
      </trkpt>
      <trkpt lat="48.7262436188757419586181640625" lon="10.39547997526824474334716796875">
        <ele>541.4000244140625</ele>
        <time>2018-08-16T15:57:03.000Z</time>
      </trkpt>
      <trkpt lat="48.7263586185872554779052734375" lon="10.39558491669595241546630859375">
        <ele>542.5999755859375</ele>
        <time>2018-08-16T15:57:07.000Z</time>
      </trkpt>
      <trkpt lat="48.7265239097177982330322265625" lon="10.3957155905663967132568359375">
        <ele>543.4000244140625</ele>
        <time>2018-08-16T15:57:12.000Z</time>
      </trkpt>
      <trkpt lat="48.726571016013622283935546875" lon="10.3957645408809185028076171875">
        <ele>543.79998779296875</ele>
        <time>2018-08-16T15:57:14.000Z</time>
      </trkpt>
      <trkpt lat="48.7266677431762218475341796875" lon="10.3958118148148059844970703125">
        <ele>544.79998779296875</ele>
        <time>2018-08-16T15:57:17.000Z</time>
      </trkpt>
      <trkpt lat="48.7268125824630260467529296875" lon="10.39586051367223262786865234375">
        <ele>545.79998779296875</ele>
        <time>2018-08-16T15:57:21.000Z</time>
      </trkpt>
      <trkpt lat="48.7269959785044193267822265625" lon="10.39586730301380157470703125">
        <ele>547</ele>
        <time>2018-08-16T15:57:26.000Z</time>
      </trkpt>
      <trkpt lat="48.727177865803241729736328125" lon="10.3958617709577083587646484375">
        <ele>548.20001220703125</ele>
        <time>2018-08-16T15:57:31.000Z</time>
      </trkpt>
      <trkpt lat="48.727325387299060821533203125" lon="10.39585917256772518157958984375">
        <ele>549.4000244140625</ele>
        <time>2018-08-16T15:57:35.000Z</time>
      </trkpt>
      <trkpt lat="48.72747181914746761322021484375" lon="10.39584374986588954925537109375">
        <ele>550.4000244140625</ele>
        <time>2018-08-16T15:57:39.000Z</time>
      </trkpt>
      <trkpt lat="48.72765705920755863189697265625" lon="10.395817346870899200439453125">
        <ele>551.5999755859375</ele>
        <time>2018-08-16T15:57:44.000Z</time>
      </trkpt>
      <trkpt lat="48.727808855473995208740234375" lon="10.3957982361316680908203125">
        <ele>552.79998779296875</ele>
        <time>2018-08-16T15:57:48.000Z</time>
      </trkpt>
      <trkpt lat="48.72799552045762538909912109375" lon="10.39576110430061817169189453125">
        <ele>554</ele>
        <time>2018-08-16T15:57:53.000Z</time>
      </trkpt>
      <trkpt lat="48.7281137891113758087158203125" lon="10.3957474417984485626220703125">
        <ele>555.20001220703125</ele>
        <time>2018-08-16T15:57:56.000Z</time>
      </trkpt>
      <trkpt lat="48.72827094979584217071533203125" lon="10.39572958834469318389892578125">
        <ele>556.20001220703125</ele>
        <time>2018-08-16T15:58:00.000Z</time>
      </trkpt>
      <trkpt lat="48.72846297919750213623046875" lon="10.395716764032840728759765625">
        <ele>557.4000244140625</ele>
        <time>2018-08-16T15:58:05.000Z</time>
      </trkpt>
      <trkpt lat="48.72860874049365520477294921875" lon="10.39571232162415981292724609375">
        <ele>558.5999755859375</ele>
        <time>2018-08-16T15:58:09.000Z</time>
      </trkpt>
      <trkpt lat="48.72875441797077655792236328125" lon="10.395715422928333282470703125">
        <ele>559.79998779296875</ele>
        <time>2018-08-16T15:58:13.000Z</time>
      </trkpt>
      <trkpt lat="48.72893747873604297637939453125" lon="10.3957445919513702392578125">
        <ele>561</ele>
        <time>2018-08-16T15:58:18.000Z</time>
      </trkpt>
      <trkpt lat="48.7290860898792743682861328125" lon="10.395769067108631134033203125">
        <ele>562</ele>
        <time>2018-08-16T15:58:22.000Z</time>
      </trkpt>
      <trkpt lat="48.7292004190385341644287109375" lon="10.3957950510084629058837890625">
        <ele>563.20001220703125</ele>
        <time>2018-08-16T15:58:25.000Z</time>
      </trkpt>
      <trkpt lat="48.72934869490563869476318359375" lon="10.3958299197256565093994140625">
        <ele>564.20001220703125</ele>
        <time>2018-08-16T15:58:29.000Z</time>
      </trkpt>
      <trkpt lat="48.72949806042015552520751953125" lon="10.395841486752033233642578125">
        <ele>565.4000244140625</ele>
        <time>2018-08-16T15:58:33.000Z</time>
      </trkpt>
      <trkpt lat="48.72964558191597461700439453125" lon="10.3958547301590442657470703125">
        <ele>566.4000244140625</ele>
        <time>2018-08-16T15:58:37.000Z</time>
      </trkpt>
      <trkpt lat="48.7297938577830791473388671875" lon="10.39585162885487079620361328125">
        <ele>567.4000244140625</ele>
        <time>2018-08-16T15:58:41.000Z</time>
      </trkpt>
      <trkpt lat="48.72997717000544071197509765625" lon="10.39584140293300151824951171875">
        <ele>568.79998779296875</ele>
        <time>2018-08-16T15:58:46.000Z</time>
      </trkpt>
      <trkpt lat="48.73012787662446498870849609375" lon="10.39585590362548828125">
        <ele>569.79998779296875</ele>
        <time>2018-08-16T15:58:50.000Z</time>
      </trkpt>
      <trkpt lat="48.73020063154399394989013671875" lon="10.395885407924652099609375">
        <ele>570.5999755859375</ele>
        <time>2018-08-16T15:58:52.000Z</time>
      </trkpt>
      <trkpt lat="48.73026835732161998748779296875" lon="10.395944081246852874755859375">
        <ele>571</ele>
        <time>2018-08-16T15:58:54.000Z</time>
      </trkpt>
      <trkpt lat="48.730340190231800079345703125" lon="10.39600434713065624237060546875">
        <ele>571.5999755859375</ele>
        <time>2018-08-16T15:58:56.000Z</time>
      </trkpt>
      <trkpt lat="48.73041939921677112579345703125" lon="10.396051369607448577880859375">
        <ele>572</ele>
        <time>2018-08-16T15:58:58.000Z</time>
      </trkpt>
      <trkpt lat="48.73058200813829898834228515625" lon="10.39612504653632640838623046875">
        <ele>573.20001220703125</ele>
        <time>2018-08-16T15:59:02.000Z</time>
      </trkpt>
      <trkpt lat="48.730800859630107879638671875" lon="10.3962285630404949188232421875">
        <ele>574.4000244140625</ele>
        <time>2018-08-16T15:59:07.000Z</time>
      </trkpt>
      <trkpt lat="48.7310216389596462249755859375" lon="10.396336019039154052734375">
        <ele>575.4000244140625</ele>
        <time>2018-08-16T15:59:12.000Z</time>
      </trkpt>
      <trkpt lat="48.73129312880337238311767578125" lon="10.39646585471928119659423828125">
        <ele>576.4000244140625</ele>
        <time>2018-08-16T15:59:18.000Z</time>
      </trkpt>
      <trkpt lat="48.73148490674793720245361328125" lon="10.39652737788856029510498046875">
        <ele>577.4000244140625</ele>
        <time>2018-08-16T15:59:22.000Z</time>
      </trkpt>
      <trkpt lat="48.731836862862110137939453125" lon="10.39654078893363475799560546875">
        <ele>578.4000244140625</ele>
        <time>2018-08-16T15:59:29.000Z</time>
      </trkpt>
      <trkpt lat="48.73214590363204479217529296875" lon="10.3965090215206146240234375">
        <ele>579.4000244140625</ele>
        <time>2018-08-16T15:59:35.000Z</time>
      </trkpt>
      <trkpt lat="48.73224933631718158721923828125" lon="10.39649468846619129180908203125">
        <ele>579.5999755859375</ele>
        <time>2018-08-16T15:59:37.000Z</time>
      </trkpt>
      <trkpt lat="48.7325642444193363189697265625" lon="10.39647172205150127410888671875">
        <ele>580.4000244140625</ele>
        <time>2018-08-16T15:59:43.000Z</time>
      </trkpt>
      <trkpt lat="48.73266876675188541412353515625" lon="10.39646736346185207366943359375">
        <ele>580.5999755859375</ele>
        <time>2018-08-16T15:59:45.000Z</time>
      </trkpt>
      <trkpt lat="48.73296900652348995208740234375" lon="10.3964431397616863250732421875">
        <ele>581.79998779296875</ele>
        <time>2018-08-16T15:59:51.000Z</time>
      </trkpt>
      <trkpt lat="48.73320956714451313018798828125" lon="10.39643199183046817779541015625">
        <ele>582.79998779296875</ele>
        <time>2018-08-16T15:59:56.000Z</time>
      </trkpt>
      <trkpt lat="48.7333900295197963714599609375" lon="10.39643727242946624755859375">
        <ele>584</ele>
        <time>2018-08-16T16:00:00.000Z</time>
      </trkpt>
      <trkpt lat="48.73356529511511325836181640625" lon="10.3964837081730365753173828125">
        <ele>585</ele>
        <time>2018-08-16T16:00:04.000Z</time>
      </trkpt>
      <trkpt lat="48.7337363697588443756103515625" lon="10.3965680301189422607421875">
        <ele>586.20001220703125</ele>
        <time>2018-08-16T16:00:08.000Z</time>
      </trkpt>
      <trkpt lat="48.7338942848145961761474609375" lon="10.39668479003012180328369140625">
        <ele>587.4000244140625</ele>
        <time>2018-08-16T16:00:12.000Z</time>
      </trkpt>
      <trkpt lat="48.73404105193912982940673828125" lon="10.39682761766016483306884765625">
        <ele>588.79998779296875</ele>
        <time>2018-08-16T16:00:16.000Z</time>
      </trkpt>
      <trkpt lat="48.73418890871107578277587890625" lon="10.3970003686845302581787109375">
        <ele>590.4000244140625</ele>
        <time>2018-08-16T16:00:20.000Z</time>
      </trkpt>
      <trkpt lat="48.73437012545764446258544921875" lon="10.39724822156131267547607421875">
        <ele>591.4000244140625</ele>
        <time>2018-08-16T16:00:25.000Z</time>
      </trkpt>
      <trkpt lat="48.73456039465963840484619140625" lon="10.39751426316797733306884765625">
        <ele>592.5999755859375</ele>
        <time>2018-08-16T16:00:30.000Z</time>
      </trkpt>
      <trkpt lat="48.73477555811405181884765625" lon="10.39778516627848148345947265625">
        <ele>593.5999755859375</ele>
        <time>2018-08-16T16:00:35.000Z</time>
      </trkpt>
      <trkpt lat="48.7351374886929988861083984375" lon="10.3981570713222026824951171875">
        <ele>594</ele>
        <time>2018-08-16T16:00:42.000Z</time>
      </trkpt>
      <trkpt lat="48.7353198789060115814208984375" lon="10.3982992283999919891357421875">
        <ele>594</ele>
        <time>2018-08-16T16:00:45.000Z</time>
      </trkpt>
      <trkpt lat="48.7355146743357181549072265625" lon="10.39842654950916767120361328125">
        <ele>593.79998779296875</ele>
        <time>2018-08-16T16:00:48.000Z</time>
      </trkpt>
      <trkpt lat="48.735650293529033660888671875" lon="10.3985044173896312713623046875">
        <ele>593.5999755859375</ele>
        <time>2018-08-16T16:00:50.000Z</time>
      </trkpt>
      <trkpt lat="48.73592480085790157318115234375" lon="10.3986432217061519622802734375">
        <ele>593.4000244140625</ele>
        <time>2018-08-16T16:00:54.000Z</time>
      </trkpt>
      <trkpt lat="48.73599319718778133392333984375" lon="10.398674905300140380859375">
        <ele>593.4000244140625</ele>
        <time>2018-08-16T16:00:55.000Z</time>
      </trkpt>
      <trkpt lat="48.7363304011523723602294921875" lon="10.3988299705088138580322265625">
        <ele>592.79998779296875</ele>
        <time>2018-08-16T16:01:00.000Z</time>
      </trkpt>
      <trkpt lat="48.73689257539808750152587890625" lon="10.3991161286830902099609375">
        <ele>592.79998779296875</ele>
        <time>2018-08-16T16:01:09.000Z</time>
      </trkpt>
      <trkpt lat="48.7370609678328037261962890625" lon="10.39921863935887813568115234375">
        <ele>593.20001220703125</ele>
        <time>2018-08-16T16:01:12.000Z</time>
      </trkpt>
      <trkpt lat="48.73721863143146038055419921875" lon="10.39932777173817157745361328125">
        <ele>593.79998779296875</ele>
        <time>2018-08-16T16:01:15.000Z</time>
      </trkpt>
      <trkpt lat="48.73736849986016750335693359375" lon="10.39944159798324108123779296875">
        <ele>594.5999755859375</ele>
        <time>2018-08-16T16:01:18.000Z</time>
      </trkpt>
      <trkpt lat="48.73750411905348300933837890625" lon="10.399557687342166900634765625">
        <ele>595.5999755859375</ele>
        <time>2018-08-16T16:01:21.000Z</time>
      </trkpt>
      <trkpt lat="48.737551309168338775634765625" lon="10.39959850721061229705810546875">
        <ele>596</ele>
        <time>2018-08-16T16:01:22.000Z</time>
      </trkpt>
      <trkpt lat="48.73773948289453983306884765625" lon="10.39978156797587871551513671875">
        <ele>597.20001220703125</ele>
        <time>2018-08-16T16:01:26.000Z</time>
      </trkpt>
      <trkpt lat="48.737958334386348724365234375" lon="10.39999865926802158355712890625">
        <ele>598.4000244140625</ele>
        <time>2018-08-16T16:01:31.000Z</time>
      </trkpt>
      <trkpt lat="48.7381289899349212646484375" lon="10.4001714102923870086669921875">
        <ele>599.5999755859375</ele>
        <time>2018-08-16T16:01:35.000Z</time>
      </trkpt>
      <trkpt lat="48.7383447401225566864013671875" lon="10.4003906808793544769287109375">
        <ele>600.79998779296875</ele>
        <time>2018-08-16T16:01:40.000Z</time>
      </trkpt>
      <trkpt lat="48.7385670281946659088134765625" lon="10.40061640553176403045654296875">
        <ele>602</ele>
        <time>2018-08-16T16:01:45.000Z</time>
      </trkpt>
      <trkpt lat="48.73883918859064579010009765625" lon="10.400884039700031280517578125">
        <ele>602.79998779296875</ele>
        <time>2018-08-16T16:01:51.000Z</time>
      </trkpt>
      <trkpt lat="48.73911897651851177215576171875" lon="10.401147902011871337890625">
        <ele>603.79998779296875</ele>
        <time>2018-08-16T16:01:57.000Z</time>
      </trkpt>
      <trkpt lat="48.73941150493919849395751953125" lon="10.40140807628631591796875">
        <ele>605</ele>
        <time>2018-08-16T16:02:03.000Z</time>
      </trkpt>
      <trkpt lat="48.73980361036956310272216796875" lon="10.40173388086259365081787109375">
        <ele>606</ele>
        <time>2018-08-16T16:02:11.000Z</time>
      </trkpt>
      <trkpt lat="48.740080632269382476806640625" lon="10.4019440151751041412353515625">
        <ele>607.4000244140625</ele>
        <time>2018-08-16T16:02:17.000Z</time>
      </trkpt>
      <trkpt lat="48.74031297862529754638671875" lon="10.40213428437709808349609375">
        <ele>608.5999755859375</ele>
        <time>2018-08-16T16:02:22.000Z</time>
      </trkpt>
      <trkpt lat="48.7405495159327983856201171875" lon="10.40233100764453411102294921875">
        <ele>609.79998779296875</ele>
        <time>2018-08-16T16:02:27.000Z</time>
      </trkpt>
      <trkpt lat="48.74078798107802867889404296875" lon="10.4025273956358432769775390625">
        <ele>610.79998779296875</ele>
        <time>2018-08-16T16:02:32.000Z</time>
      </trkpt>
      <trkpt lat="48.741028122603893280029296875" lon="10.40273107588291168212890625">
        <ele>612</ele>
        <time>2018-08-16T16:02:37.000Z</time>
      </trkpt>
      <trkpt lat="48.7412683479487895965576171875" lon="10.40293232537806034088134765625">
        <ele>613</ele>
        <time>2018-08-16T16:02:42.000Z</time>
      </trkpt>
      <trkpt lat="48.74151217751204967498779296875" lon="10.40312930010259151458740234375">
        <ele>614.4000244140625</ele>
        <time>2018-08-16T16:02:47.000Z</time>
      </trkpt>
      <trkpt lat="48.74177251942455768585205078125" lon="10.403342284262180328369140625">
        <ele>615.5999755859375</ele>
        <time>2018-08-16T16:02:52.000Z</time>
      </trkpt>
      <trkpt lat="48.7421611882746219635009765625" lon="10.403627268970012664794921875">
        <ele>616.5999755859375</ele>
        <time>2018-08-16T16:02:59.000Z</time>
      </trkpt>
      <trkpt lat="48.7425289861857891082763671875" lon="10.4038376547396183013916015625">
        <ele>616.79998779296875</ele>
        <time>2018-08-16T16:03:05.000Z</time>
      </trkpt>
      <trkpt lat="48.7426617555320262908935546875" lon="10.40390294976532459259033203125">
        <ele>616.79998779296875</ele>
        <time>2018-08-16T16:03:07.000Z</time>
      </trkpt>
      <trkpt lat="48.74280232004821300506591796875" lon="10.403953157365322113037109375">
        <ele>616.4000244140625</ele>
        <time>2018-08-16T16:03:09.000Z</time>
      </trkpt>
      <trkpt lat="48.742948584258556365966796875" lon="10.40399129502475261688232421875">
        <ele>616.20001220703125</ele>
        <time>2018-08-16T16:03:11.000Z</time>
      </trkpt>
      <trkpt lat="48.74309903942048549652099609375" lon="10.40401862002909183502197265625">
        <ele>616</ele>
        <time>2018-08-16T16:03:13.000Z</time>
      </trkpt>
      <trkpt lat="48.74317497946321964263916015625" lon="10.40402784012258052825927734375">
        <ele>615.79998779296875</ele>
        <time>2018-08-16T16:03:14.000Z</time>
      </trkpt>
      <trkpt lat="48.74325075186789035797119140625" lon="10.40403404273092746734619140625">
        <ele>615.5999755859375</ele>
        <time>2018-08-16T16:03:15.000Z</time>
      </trkpt>
      <trkpt lat="48.74355132691562175750732421875" lon="10.4040341265499591827392578125">
        <ele>614.4000244140625</ele>
        <time>2018-08-16T16:03:19.000Z</time>
      </trkpt>
      <trkpt lat="48.743625171482563018798828125" lon="10.4040301032364368438720703125">
        <ele>614.20001220703125</ele>
        <time>2018-08-16T16:03:20.000Z</time>
      </trkpt>
      <trkpt lat="48.74385475181043148040771484375" lon="10.4040019400417804718017578125">
        <ele>613.79998779296875</ele>
        <time>2018-08-16T16:03:23.000Z</time>
      </trkpt>
      <trkpt lat="48.74401166103780269622802734375" lon="10.40396866388618946075439453125">
        <ele>613.5999755859375</ele>
        <time>2018-08-16T16:03:25.000Z</time>
      </trkpt>
      <trkpt lat="48.74409061856567859649658203125" lon="10.403949134051799774169921875">
        <ele>613.4000244140625</ele>
        <time>2018-08-16T16:03:26.000Z</time>
      </trkpt>
      <trkpt lat="48.74417074955999851226806640625" lon="10.40392843075096607208251953125">
        <ele>613.20001220703125</ele>
        <time>2018-08-16T16:03:27.000Z</time>
      </trkpt>
      <trkpt lat="48.74425104819238185882568359375" lon="10.4039047099649906158447265625">
        <ele>613</ele>
        <time>2018-08-16T16:03:28.000Z</time>
      </trkpt>
      <trkpt lat="48.74441432766616344451904296875" lon="10.40385383181273937225341796875">
        <ele>612.79998779296875</ele>
        <time>2018-08-16T16:03:30.000Z</time>
      </trkpt>
      <trkpt lat="48.74457844533026218414306640625" lon="10.4037960804998874664306640625">
        <ele>612.5999755859375</ele>
        <time>2018-08-16T16:03:32.000Z</time>
      </trkpt>
      <trkpt lat="48.74474625103175640106201171875" lon="10.40373547933995723724365234375">
        <ele>612.5999755859375</ele>
        <time>2018-08-16T16:03:34.000Z</time>
      </trkpt>
      <trkpt lat="48.74508840031921863555908203125" lon="10.40360723622143268585205078125">
        <ele>612.20001220703125</ele>
        <time>2018-08-16T16:03:38.000Z</time>
      </trkpt>
      <trkpt lat="48.7456309609115123748779296875" lon="10.403412021696567535400390625">
        <ele>611.79998779296875</ele>
        <time>2018-08-16T16:03:44.000Z</time>
      </trkpt>
      <trkpt lat="48.74610763974487781524658203125" lon="10.40324262343347072601318359375">
        <ele>611.20001220703125</ele>
        <time>2018-08-16T16:03:49.000Z</time>
      </trkpt>
      <trkpt lat="48.74649270437657833099365234375" lon="10.4031037352979183197021484375">
        <ele>610.20001220703125</ele>
        <time>2018-08-16T16:03:53.000Z</time>
      </trkpt>
      <trkpt lat="48.74659060500562191009521484375" lon="10.40307129733264446258544921875">
        <ele>610</ele>
        <time>2018-08-16T16:03:54.000Z</time>
      </trkpt>
      <trkpt lat="48.74679177068173885345458984375" lon="10.4030108638107776641845703125">
        <ele>609.79998779296875</ele>
        <time>2018-08-16T16:03:56.000Z</time>
      </trkpt>
      <trkpt lat="48.74700098298490047454833984375" lon="10.40296048857271671295166015625">
        <ele>609.79998779296875</ele>
        <time>2018-08-16T16:03:58.000Z</time>
      </trkpt>
      <trkpt lat="48.74710827134549617767333984375" lon="10.40294297039508819580078125">
        <ele>609.4000244140625</ele>
        <time>2018-08-16T16:03:59.000Z</time>
      </trkpt>
      <trkpt lat="48.74743835069239139556884765625" lon="10.402918159961700439453125">
        <ele>608.5999755859375</ele>
        <time>2018-08-16T16:04:02.000Z</time>
      </trkpt>
      <trkpt lat="48.747889883816242218017578125" lon="10.4029431380331516265869140625">
        <ele>607.4000244140625</ele>
        <time>2018-08-16T16:04:06.000Z</time>
      </trkpt>
      <trkpt lat="48.748004548251628875732421875" lon="10.40295830927789211273193359375">
        <ele>607.4000244140625</ele>
        <time>2018-08-16T16:04:07.000Z</time>
      </trkpt>
      <trkpt lat="48.7481207214295864105224609375" lon="10.4029756598174571990966796875">
        <ele>607</ele>
        <time>2018-08-16T16:04:08.000Z</time>
      </trkpt>
      <trkpt lat="48.74823815189301967620849609375" lon="10.4029930941760540008544921875">
        <ele>606.4000244140625</ele>
        <time>2018-08-16T16:04:09.000Z</time>
      </trkpt>
      <trkpt lat="48.7484767846763134002685546875" lon="10.4030309803783893585205078125">
        <ele>605.4000244140625</ele>
        <time>2018-08-16T16:04:11.000Z</time>
      </trkpt>
      <trkpt lat="48.74910836108028888702392578125" lon="10.40313885547220706939697265625">
        <ele>603.79998779296875</ele>
        <time>2018-08-16T16:04:16.000Z</time>
      </trkpt>
      <trkpt lat="48.74937540851533412933349609375" lon="10.403191410005092620849609375">
        <ele>603</ele>
        <time>2018-08-16T16:04:18.000Z</time>
      </trkpt>
      <trkpt lat="48.74951136298477649688720703125" lon="10.4032190702855587005615234375">
        <ele>602.4000244140625</ele>
        <time>2018-08-16T16:04:19.000Z</time>
      </trkpt>
      <trkpt lat="48.74978561885654926300048828125" lon="10.40327581577003002166748046875">
        <ele>601</ele>
        <time>2018-08-16T16:04:21.000Z</time>
      </trkpt>
      <trkpt lat="48.74992341734468936920166015625" lon="10.40330448187887668609619140625">
        <ele>600</ele>
        <time>2018-08-16T16:04:22.000Z</time>
      </trkpt>
      <trkpt lat="48.7501990981400012969970703125" lon="10.40336047299206256866455078125">
        <ele>598</ele>
        <time>2018-08-16T16:04:24.000Z</time>
      </trkpt>
      <trkpt lat="48.75047318637371063232421875" lon="10.4034185595810413360595703125">
        <ele>596</ele>
        <time>2018-08-16T16:04:26.000Z</time>
      </trkpt>
      <trkpt lat="48.75074484385550022125244140625" lon="10.40347781963646411895751953125">
        <ele>594</ele>
        <time>2018-08-16T16:04:28.000Z</time>
      </trkpt>
      <trkpt lat="48.75101566314697265625" lon="10.40353666059672832489013671875">
        <ele>592.4000244140625</ele>
        <time>2018-08-16T16:04:30.000Z</time>
      </trkpt>
      <trkpt lat="48.75128866173326969146728515625" lon="10.40359667502343654632568359375">
        <ele>590.79998779296875</ele>
        <time>2018-08-16T16:04:32.000Z</time>
      </trkpt>
      <trkpt lat="48.7515616603195667266845703125" lon="10.40366020984947681427001953125">
        <ele>589.5999755859375</ele>
        <time>2018-08-16T16:04:34.000Z</time>
      </trkpt>
      <trkpt lat="48.751833401620388031005859375" lon="10.4037268459796905517578125">
        <ele>588.4000244140625</ele>
        <time>2018-08-16T16:04:36.000Z</time>
      </trkpt>
      <trkpt lat="48.7521011196076869964599609375" lon="10.40380119346082210540771484375">
        <ele>586.79998779296875</ele>
        <time>2018-08-16T16:04:38.000Z</time>
      </trkpt>
      <trkpt lat="48.75235919840633869171142578125" lon="10.403887443244457244873046875">
        <ele>585.5999755859375</ele>
        <time>2018-08-16T16:04:40.000Z</time>
      </trkpt>
      <trkpt lat="48.75260596163570880889892578125" lon="10.40399095974862575531005859375">
        <ele>584.4000244140625</ele>
        <time>2018-08-16T16:04:42.000Z</time>
      </trkpt>
      <trkpt lat="48.7528360448777675628662109375" lon="10.40410880930721759796142578125">
        <ele>583</ele>
        <time>2018-08-16T16:04:44.000Z</time>
      </trkpt>
      <trkpt lat="48.7530522979795932769775390625" lon="10.4042373038828372955322265625">
        <ele>581.79998779296875</ele>
        <time>2018-08-16T16:04:46.000Z</time>
      </trkpt>
      <trkpt lat="48.75315430574119091033935546875" lon="10.404307544231414794921875">
        <ele>581.20001220703125</ele>
        <time>2018-08-16T16:04:47.000Z</time>
      </trkpt>
      <trkpt lat="48.7532527931034564971923828125" lon="10.40438063442707061767578125">
        <ele>580.79998779296875</ele>
        <time>2018-08-16T16:04:48.000Z</time>
      </trkpt>
      <trkpt lat="48.75343878753483295440673828125" lon="10.404537208378314971923828125">
        <ele>580.20001220703125</ele>
        <time>2018-08-16T16:04:50.000Z</time>
      </trkpt>
      <trkpt lat="48.7536095269024372100830078125" lon="10.40470845066010951995849609375">
        <ele>580</ele>
        <time>2018-08-16T16:04:52.000Z</time>
      </trkpt>
      <trkpt lat="48.75403474085032939910888671875" lon="10.4052404500544071197509765625">
        <ele>580</ele>
        <time>2018-08-16T16:04:58.000Z</time>
      </trkpt>
      <trkpt lat="48.754317127168178558349609375" lon="10.40567421354353427886962890625">
        <ele>581.20001220703125</ele>
        <time>2018-08-16T16:05:03.000Z</time>
      </trkpt>
      <trkpt lat="48.75441745854914188385009765625" lon="10.405844114720821380615234375">
        <ele>581.79998779296875</ele>
        <time>2018-08-16T16:05:05.000Z</time>
      </trkpt>
      <trkpt lat="48.7546596117317676544189453125" lon="10.4063750244677066802978515625">
        <ele>583</ele>
        <time>2018-08-16T16:05:11.000Z</time>
      </trkpt>
      <trkpt lat="48.75482951290905475616455078125" lon="10.4069587402045726776123046875">
        <ele>584</ele>
        <time>2018-08-16T16:05:17.000Z</time>
      </trkpt>
      <trkpt lat="48.7549777887761592864990234375" lon="10.407801456749439239501953125">
        <ele>584.4000244140625</ele>
        <time>2018-08-16T16:05:25.000Z</time>
      </trkpt>
      <trkpt lat="48.7550418265163898468017578125" lon="10.408329851925373077392578125">
        <ele>584.79998779296875</ele>
        <time>2018-08-16T16:05:30.000Z</time>
      </trkpt>
      <trkpt lat="48.75506152398884296417236328125" lon="10.40842833928763866424560546875">
        <ele>584.79998779296875</ele>
        <time>2018-08-16T16:05:31.000Z</time>
      </trkpt>
      <trkpt lat="48.755137212574481964111328125" lon="10.408586673438549041748046875">
        <ele>584.79998779296875</ele>
        <time>2018-08-16T16:05:33.000Z</time>
      </trkpt>
      <trkpt lat="48.75533695332705974578857421875" lon="10.40858742780983448028564453125">
        <ele>584.79998779296875</ele>
        <time>2018-08-16T16:05:36.000Z</time>
      </trkpt>
      <trkpt lat="48.7556205131113529205322265625" lon="10.40852171368896961212158203125">
        <ele>584.5999755859375</ele>
        <time>2018-08-16T16:05:40.000Z</time>
      </trkpt>
      <trkpt lat="48.7557676993310451507568359375" lon="10.40849648416042327880859375">
        <ele>584.5999755859375</ele>
        <time>2018-08-16T16:05:42.000Z</time>
      </trkpt>
      <trkpt lat="48.755842633545398712158203125" lon="10.40849589742720127105712890625">
        <ele>584.4000244140625</ele>
        <time>2018-08-16T16:05:43.000Z</time>
      </trkpt>
      <trkpt lat="48.75591807067394256591796875" lon="10.4085090570151805877685546875">
        <ele>584.20001220703125</ele>
        <time>2018-08-16T16:05:44.000Z</time>
      </trkpt>
      <trkpt lat="48.75598956830799579620361328125" lon="10.408543087542057037353515625">
        <ele>583.79998779296875</ele>
        <time>2018-08-16T16:05:45.000Z</time>
      </trkpt>
      <trkpt lat="48.7561284564435482025146484375" lon="10.40862011723220348358154296875">
        <ele>583.4000244140625</ele>
        <time>2018-08-16T16:05:47.000Z</time>
      </trkpt>
      <trkpt lat="48.75636071898043155670166015625" lon="10.4086495377123355865478515625">
        <ele>583</ele>
        <time>2018-08-16T16:05:50.000Z</time>
      </trkpt>
      <trkpt lat="48.7564412690699100494384765625" lon="10.40863872505724430084228515625">
        <ele>582.79998779296875</ele>
        <time>2018-08-16T16:05:51.000Z</time>
      </trkpt>
      <trkpt lat="48.7569425068795680999755859375" lon="10.40864760987460613250732421875">
        <ele>581.5999755859375</ele>
        <time>2018-08-16T16:05:57.000Z</time>
      </trkpt>
      <trkpt lat="48.757096230983734130859375" lon="10.40872807614505290985107421875">
        <ele>581.20001220703125</ele>
        <time>2018-08-16T16:05:59.000Z</time>
      </trkpt>
      <trkpt lat="48.75721282325685024261474609375" lon="10.4088610969483852386474609375">
        <ele>580.5999755859375</ele>
        <time>2018-08-16T16:06:01.000Z</time>
      </trkpt>
      <trkpt lat="48.75729664228856563568115234375" lon="10.40901825763285160064697265625">
        <ele>579.79998779296875</ele>
        <time>2018-08-16T16:06:03.000Z</time>
      </trkpt>
      <trkpt lat="48.75732958316802978515625" lon="10.40909855626523494720458984375">
        <ele>579.79998779296875</ele>
        <time>2018-08-16T16:06:04.000Z</time>
      </trkpt>
      <trkpt lat="48.7573577463626861572265625" lon="10.40917575359344482421875">
        <ele>579.5999755859375</ele>
        <time>2018-08-16T16:06:05.000Z</time>
      </trkpt>
      <trkpt lat="48.75740175135433673858642578125" lon="10.4093271307647228240966796875">
        <ele>579.5999755859375</ele>
        <time>2018-08-16T16:06:07.000Z</time>
      </trkpt>
      <trkpt lat="48.75742102973163127899169921875" lon="10.409400723874568939208984375">
        <ele>579.5999755859375</ele>
        <time>2018-08-16T16:06:08.000Z</time>
      </trkpt>
      <trkpt lat="48.7574353627860546112060546875" lon="10.40948010049760341644287109375">
        <ele>579.5999755859375</ele>
        <time>2018-08-16T16:06:09.000Z</time>
      </trkpt>
      <trkpt lat="48.75746796838939189910888671875" lon="10.4096506722271442413330078125">
        <ele>579.5999755859375</ele>
        <time>2018-08-16T16:06:11.000Z</time>
      </trkpt>
      <trkpt lat="48.75748540274798870086669921875" lon="10.4098032228648662567138671875">
        <ele>579.79998779296875</ele>
        <time>2018-08-16T16:06:13.000Z</time>
      </trkpt>
      <trkpt lat="48.7574947066605091094970703125" lon="10.40995082817971706390380859375">
        <ele>580.20001220703125</ele>
        <time>2018-08-16T16:06:15.000Z</time>
      </trkpt>
      <trkpt lat="48.7575275637209415435791015625" lon="10.41014780290424823760986328125">
        <ele>581</ele>
        <time>2018-08-16T16:06:18.000Z</time>
      </trkpt>
      <trkpt lat="48.75756821595132350921630859375" lon="10.4102662391960620880126953125">
        <ele>581.4000244140625</ele>
        <time>2018-08-16T16:06:20.000Z</time>
      </trkpt>
      <trkpt lat="48.75769712962210178375244140625" lon="10.4103948175907135009765625">
        <ele>582.4000244140625</ele>
        <time>2018-08-16T16:06:24.000Z</time>
      </trkpt>
      <trkpt lat="48.75773652456700801849365234375" lon="10.41041652671992778778076171875">
        <ele>582.5999755859375</ele>
        <time>2018-08-16T16:06:25.000Z</time>
      </trkpt>
      <trkpt lat="48.7577783502638339996337890625" lon="10.41043312288820743560791015625">
        <ele>583</ele>
        <time>2018-08-16T16:06:26.000Z</time>
      </trkpt>
      <trkpt lat="48.75786208547651767730712890625" lon="10.41045424528419971466064453125">
        <ele>583.79998779296875</ele>
        <time>2018-08-16T16:06:28.000Z</time>
      </trkpt>
      <trkpt lat="48.75800482928752899169921875" lon="10.41047905571758747100830078125">
        <ele>584.5999755859375</ele>
        <time>2018-08-16T16:06:31.000Z</time>
      </trkpt>
      <trkpt lat="48.7580589763820171356201171875" lon="10.41049598716199398040771484375">
        <ele>585</ele>
        <time>2018-08-16T16:06:32.000Z</time>
      </trkpt>
      <trkpt lat="48.7581060826778411865234375" lon="10.4105155169963836669921875">
        <ele>585.20001220703125</ele>
        <time>2018-08-16T16:06:33.000Z</time>
      </trkpt>
      <trkpt lat="48.75822485424578189849853515625" lon="10.4106568358838558197021484375">
        <ele>586</ele>
        <time>2018-08-16T16:06:36.000Z</time>
      </trkpt>
      <trkpt lat="48.75825972296297550201416015625" lon="10.4107220470905303955078125">
        <ele>586.4000244140625</ele>
        <time>2018-08-16T16:06:37.000Z</time>
      </trkpt>
      <trkpt lat="48.75851889140903949737548828125" lon="10.411182381212711334228515625">
        <ele>587</ele>
        <time>2018-08-16T16:06:44.000Z</time>
      </trkpt>
      <trkpt lat="48.7586906366050243377685546875" lon="10.41139687411487102508544921875">
        <ele>587.20001220703125</ele>
        <time>2018-08-16T16:06:48.000Z</time>
      </trkpt>
      <trkpt lat="48.758992217481136322021484375" lon="10.4116147197782993316650390625">
        <ele>588.20001220703125</ele>
        <time>2018-08-16T16:06:54.000Z</time>
      </trkpt>
      <trkpt lat="48.75925566069781780242919921875" lon="10.41180440224707126617431640625">
        <ele>589</ele>
        <time>2018-08-16T16:06:59.000Z</time>
      </trkpt>
      <trkpt lat="48.75941173173487186431884765625" lon="10.4119022190570831298828125">
        <ele>589</ele>
        <time>2018-08-16T16:07:02.000Z</time>
      </trkpt>
      <trkpt lat="48.759517930448055267333984375" lon="10.4119758121669292449951171875">
        <ele>589.20001220703125</ele>
        <time>2018-08-16T16:07:04.000Z</time>
      </trkpt>
      <trkpt lat="48.75957165844738483428955078125" lon="10.412016548216342926025390625">
        <ele>589.20001220703125</ele>
        <time>2018-08-16T16:07:05.000Z</time>
      </trkpt>
      <trkpt lat="48.7599053420126438140869140625" lon="10.4122490622103214263916015625">
        <ele>590</ele>
        <time>2018-08-16T16:07:11.000Z</time>
      </trkpt>
      <trkpt lat="48.76007490791380405426025390625" lon="10.41236515156924724578857421875">
        <ele>590.20001220703125</ele>
        <time>2018-08-16T16:07:14.000Z</time>
      </trkpt>
      <trkpt lat="48.76013123430311679840087890625" lon="10.4124079830944538116455078125">
        <ele>590</ele>
        <time>2018-08-16T16:07:15.000Z</time>
      </trkpt>
      <trkpt lat="48.76064940355718135833740234375" lon="10.412744767963886260986328125">
        <ele>590.20001220703125</ele>
        <time>2018-08-16T16:07:24.000Z</time>
      </trkpt>
      <trkpt lat="48.76083212904632091522216796875" lon="10.4128248989582061767578125">
        <ele>590.4000244140625</ele>
        <time>2018-08-16T16:07:27.000Z</time>
      </trkpt>
      <trkpt lat="48.7608944065868854522705078125" lon="10.41284861974418163299560546875">
        <ele>590.4000244140625</ele>
        <time>2018-08-16T16:07:28.000Z</time>
      </trkpt>
      <trkpt lat="48.76095701940357685089111328125" lon="10.41286990977823734283447265625">
        <ele>590.5999755859375</ele>
        <time>2018-08-16T16:07:29.000Z</time>
      </trkpt>
      <trkpt lat="48.761466555297374725341796875" lon="10.4130037687718868255615234375">
        <ele>591.20001220703125</ele>
        <time>2018-08-16T16:07:37.000Z</time>
      </trkpt>
      <trkpt lat="48.76152765937149524688720703125" lon="10.41301994584500789642333984375">
        <ele>591.20001220703125</ele>
        <time>2018-08-16T16:07:38.000Z</time>
      </trkpt>
      <trkpt lat="48.7620055116713047027587890625" lon="10.4131717421114444732666015625">
        <ele>592</ele>
        <time>2018-08-16T16:07:47.000Z</time>
      </trkpt>
      <trkpt lat="48.7620863132178783416748046875" lon="10.41320501826703548431396484375">
        <ele>592.4000244140625</ele>
        <time>2018-08-16T16:07:49.000Z</time>
      </trkpt>
      <trkpt lat="48.76224682666361331939697265625" lon="10.413266457617282867431640625">
        <ele>593.5999755859375</ele>
        <time>2018-08-16T16:07:53.000Z</time>
      </trkpt>
      <trkpt lat="48.762358725070953369140625" lon="10.41331800632178783416748046875">
        <ele>594.4000244140625</ele>
        <time>2018-08-16T16:07:56.000Z</time>
      </trkpt>
      <trkpt lat="48.7623949348926544189453125" lon="10.41333409957587718963623046875">
        <ele>594.79998779296875</ele>
        <time>2018-08-16T16:07:57.000Z</time>
      </trkpt>
      <trkpt lat="48.76246936619281768798828125" lon="10.41337198577821254730224609375">
        <ele>595.20001220703125</ele>
        <time>2018-08-16T16:07:59.000Z</time>
      </trkpt>
      <trkpt lat="48.76253952272236347198486328125" lon="10.41340735740959644317626953125">
        <ele>595.79998779296875</ele>
        <time>2018-08-16T16:08:01.000Z</time>
      </trkpt>
      <trkpt lat="48.7626894749701023101806640625" lon="10.4134657792747020721435546875">
        <ele>597</ele>
        <time>2018-08-16T16:08:05.000Z</time>
      </trkpt>
      <trkpt lat="48.7628359906375408172607421875" lon="10.41353392414748668670654296875">
        <ele>598.20001220703125</ele>
        <time>2018-08-16T16:08:09.000Z</time>
      </trkpt>
      <trkpt lat="48.76298300921916961669921875" lon="10.41359410621225833892822265625">
        <ele>599.4000244140625</ele>
        <time>2018-08-16T16:08:13.000Z</time>
      </trkpt>
      <trkpt lat="48.7631674110889434814453125" lon="10.4136733151972293853759765625">
        <ele>600.5999755859375</ele>
        <time>2018-08-16T16:08:18.000Z</time>
      </trkpt>
      <trkpt lat="48.76331401057541370391845703125" lon="10.4137360118329524993896484375">
        <ele>601.5999755859375</ele>
        <time>2018-08-16T16:08:22.000Z</time>
      </trkpt>
      <trkpt lat="48.76346857286989688873291015625" lon="10.41380197741091251373291015625">
        <ele>602.79998779296875</ele>
        <time>2018-08-16T16:08:26.000Z</time>
      </trkpt>
      <trkpt lat="48.76362866722047328948974609375" lon="10.413861572742462158203125">
        <ele>603.79998779296875</ele>
        <time>2018-08-16T16:08:30.000Z</time>
      </trkpt>
      <trkpt lat="48.76387073658406734466552734375" lon="10.41393307037651538848876953125">
        <ele>605</ele>
        <time>2018-08-16T16:08:36.000Z</time>
      </trkpt>
      <trkpt lat="48.76395153813064098358154296875" lon="10.413949079811573028564453125">
        <ele>605.5999755859375</ele>
        <time>2018-08-16T16:08:38.000Z</time>
      </trkpt>
      <trkpt lat="48.76403518952429294586181640625" lon="10.413959138095378875732421875">
        <ele>606</ele>
        <time>2018-08-16T16:08:40.000Z</time>
      </trkpt>
      <trkpt lat="48.7640768475830554962158203125" lon="10.4139596410095691680908203125">
        <ele>606.20001220703125</ele>
        <time>2018-08-16T16:08:41.000Z</time>
      </trkpt>
      <trkpt lat="48.7642555497586727142333984375" lon="10.41394614614546298980712890625">
        <ele>607.4000244140625</ele>
        <time>2018-08-16T16:08:45.000Z</time>
      </trkpt>
      <trkpt lat="48.7644915841519832611083984375" lon="10.41388101875782012939453125">
        <ele>608.4000244140625</ele>
        <time>2018-08-16T16:08:50.000Z</time>
      </trkpt>
      <trkpt lat="48.76480196602642536163330078125" lon="10.4137413762509822845458984375">
        <ele>609.5999755859375</ele>
        <time>2018-08-16T16:08:56.000Z</time>
      </trkpt>
      <trkpt lat="48.765072785317897796630859375" lon="10.41357616893947124481201171875">
        <ele>610.20001220703125</ele>
        <time>2018-08-16T16:09:01.000Z</time>
      </trkpt>
      <trkpt lat="48.765386603772640228271484375" lon="10.4133695550262928009033203125">
        <ele>610.4000244140625</ele>
        <time>2018-08-16T16:09:07.000Z</time>
      </trkpt>
      <trkpt lat="48.76582740806043148040771484375" lon="10.41310309432446956634521484375">
        <ele>611.20001220703125</ele>
        <time>2018-08-16T16:09:15.000Z</time>
      </trkpt>
      <trkpt lat="48.766000159084796905517578125" lon="10.4130158387124538421630859375">
        <ele>611.4000244140625</ele>
        <time>2018-08-16T16:09:18.000Z</time>
      </trkpt>
      <trkpt lat="48.76628740690648555755615234375" lon="10.41288365609943866729736328125">
        <ele>612.20001220703125</ele>
        <time>2018-08-16T16:09:23.000Z</time>
      </trkpt>
      <trkpt lat="48.76640492118895053863525390625" lon="10.4128321073949337005615234375">
        <ele>612.4000244140625</ele>
        <time>2018-08-16T16:09:25.000Z</time>
      </trkpt>
      <trkpt lat="48.7666437216103076934814453125" lon="10.412728004157543182373046875">
        <ele>613.20001220703125</ele>
        <time>2018-08-16T16:09:29.000Z</time>
      </trkpt>
      <trkpt lat="48.76676316373050212860107421875" lon="10.41267813183367252349853515625">
        <ele>613.5999755859375</ele>
        <time>2018-08-16T16:09:31.000Z</time>
      </trkpt>
      <trkpt lat="48.766882605850696563720703125" lon="10.41262750513851642608642578125">
        <ele>613.79998779296875</ele>
        <time>2018-08-16T16:09:33.000Z</time>
      </trkpt>
      <trkpt lat="48.76724772155284881591796875" lon="10.4124723561108112335205078125">
        <ele>614.5999755859375</ele>
        <time>2018-08-16T16:09:39.000Z</time>
      </trkpt>
      <trkpt lat="48.76750613562762737274169921875" lon="10.41235484182834625244140625">
        <ele>615</ele>
        <time>2018-08-16T16:09:43.000Z</time>
      </trkpt>
      <trkpt lat="48.76803897321224212646484375" lon="10.41213448159396648406982421875">
        <ele>615.20001220703125</ele>
        <time>2018-08-16T16:09:50.000Z</time>
      </trkpt>
      <trkpt lat="48.768311552703380584716796875" lon="10.41203155182301998138427734375">
        <ele>615</ele>
        <time>2018-08-16T16:09:53.000Z</time>
      </trkpt>
      <trkpt lat="48.76895352266728878021240234375" lon="10.411877743899822235107421875">
        <ele>613.79998779296875</ele>
        <time>2018-08-16T16:09:59.000Z</time>
      </trkpt>
      <trkpt lat="48.76907321624457836151123046875" lon="10.4118594713509082794189453125">
        <ele>613.5999755859375</ele>
        <time>2018-08-16T16:10:00.000Z</time>
      </trkpt>
      <trkpt lat="48.76932148821651935577392578125" lon="10.4118262790143489837646484375">
        <ele>612.4000244140625</ele>
        <time>2018-08-16T16:10:02.000Z</time>
      </trkpt>
      <trkpt lat="48.7694489769637584686279296875" lon="10.4118098504841327667236328125">
        <ele>611.79998779296875</ele>
        <time>2018-08-16T16:10:03.000Z</time>
      </trkpt>
      <trkpt lat="48.7695780582726001739501953125" lon="10.4117930866777896881103515625">
        <ele>611.4000244140625</ele>
        <time>2018-08-16T16:10:04.000Z</time>
      </trkpt>
      <trkpt lat="48.76996940933167934417724609375" lon="10.41174061596393585205078125">
        <ele>610.4000244140625</ele>
        <time>2018-08-16T16:10:07.000Z</time>
      </trkpt>
      <trkpt lat="48.770225308835506439208984375" lon="10.411699377000331878662109375">
        <ele>609</ele>
        <time>2018-08-16T16:10:09.000Z</time>
      </trkpt>
      <trkpt lat="48.7704705633223056793212890625" lon="10.41165436618030071258544921875">
        <ele>607.79998779296875</ele>
        <time>2018-08-16T16:10:11.000Z</time>
      </trkpt>
      <trkpt lat="48.770588077604770660400390625" lon="10.411630310118198394775390625">
        <ele>607</ele>
        <time>2018-08-16T16:10:12.000Z</time>
      </trkpt>
      <trkpt lat="48.7707012332975864410400390625" lon="10.41160491295158863067626953125">
        <ele>605.5999755859375</ele>
        <time>2018-08-16T16:10:13.000Z</time>
      </trkpt>
      <trkpt lat="48.77080969512462615966796875" lon="10.41157775558531284332275390625">
        <ele>605.20001220703125</ele>
        <time>2018-08-16T16:10:14.000Z</time>
      </trkpt>
      <trkpt lat="48.77101094461977481842041015625" lon="10.41151539422571659088134765625">
        <ele>604.5999755859375</ele>
        <time>2018-08-16T16:10:16.000Z</time>
      </trkpt>
      <trkpt lat="48.77120020799338817596435546875" lon="10.411436520516872406005859375">
        <ele>604.4000244140625</ele>
        <time>2018-08-16T16:10:18.000Z</time>
      </trkpt>
      <trkpt lat="48.77138393931090831756591796875" lon="10.41134155355393886566162109375">
        <ele>604.4000244140625</ele>
        <time>2018-08-16T16:10:20.000Z</time>
      </trkpt>
      <trkpt lat="48.771473877131938934326171875" lon="10.4112906754016876220703125">
        <ele>604.4000244140625</ele>
        <time>2018-08-16T16:10:21.000Z</time>
      </trkpt>
      <trkpt lat="48.77156146802008152008056640625" lon="10.411236025393009185791015625">
        <ele>604.4000244140625</ele>
        <time>2018-08-16T16:10:22.000Z</time>
      </trkpt>
      <trkpt lat="48.77172944135963916778564453125" lon="10.41111624799668788909912109375">
        <ele>604.4000244140625</ele>
        <time>2018-08-16T16:10:24.000Z</time>
      </trkpt>
      <trkpt lat="48.7718130089342594146728515625" lon="10.4110571555793285369873046875">
        <ele>604.4000244140625</ele>
        <time>2018-08-16T16:10:25.000Z</time>
      </trkpt>
      <trkpt lat="48.7718974985182285308837890625" lon="10.41099722497165203094482421875">
        <ele>604.5999755859375</ele>
        <time>2018-08-16T16:10:26.000Z</time>
      </trkpt>
      <trkpt lat="48.77242899499833583831787109375" lon="10.41062615811824798583984375">
        <ele>605</ele>
        <time>2018-08-16T16:10:32.000Z</time>
      </trkpt>
      <trkpt lat="48.7729656882584095001220703125" lon="10.4103383235633373260498046875">
        <ele>604.79998779296875</ele>
        <time>2018-08-16T16:10:38.000Z</time>
      </trkpt>
      <trkpt lat="48.7732251919806003570556640625" lon="10.41028685867786407470703125">
        <ele>604.5999755859375</ele>
        <time>2018-08-16T16:10:41.000Z</time>
      </trkpt>
      <trkpt lat="48.77352836541831493377685546875" lon="10.4103695042431354522705078125">
        <ele>604.5999755859375</ele>
        <time>2018-08-16T16:10:45.000Z</time>
      </trkpt>
      <trkpt lat="48.77380144782364368438720703125" lon="10.4105834104120731353759765625">
        <ele>605</ele>
        <time>2018-08-16T16:10:49.000Z</time>
      </trkpt>
      <trkpt lat="48.7740117497742176055908203125" lon="10.41081257164478302001953125">
        <ele>605.4000244140625</ele>
        <time>2018-08-16T16:10:52.000Z</time>
      </trkpt>
      <trkpt lat="48.7743041105568408966064453125" lon="10.4112107120454311370849609375">
        <ele>605.5999755859375</ele>
        <time>2018-08-16T16:10:56.000Z</time>
      </trkpt>
      <trkpt lat="48.77437963150441646575927734375" lon="10.4113273881375789642333984375">
        <ele>605.5999755859375</ele>
        <time>2018-08-16T16:10:57.000Z</time>
      </trkpt>
      <trkpt lat="48.77453033812344074249267578125" lon="10.41156954132020473480224609375">
        <ele>605.5999755859375</ele>
        <time>2018-08-16T16:10:59.000Z</time>
      </trkpt>
      <trkpt lat="48.77483946271240711212158203125" lon="10.41205150075256824493408203125">
        <ele>604.79998779296875</ele>
        <time>2018-08-16T16:11:03.000Z</time>
      </trkpt>
      <trkpt lat="48.77491858787834644317626953125" lon="10.41216574609279632568359375">
        <ele>604.20001220703125</ele>
        <time>2018-08-16T16:11:04.000Z</time>
      </trkpt>
      <trkpt lat="48.77509024925529956817626953125" lon="10.4123597033321857452392578125">
        <ele>603.20001220703125</ele>
        <time>2018-08-16T16:11:06.000Z</time>
      </trkpt>
      <trkpt lat="48.775180019438266754150390625" lon="10.41244276799261569976806640625">
        <ele>602.79998779296875</ele>
        <time>2018-08-16T16:11:07.000Z</time>
      </trkpt>
      <trkpt lat="48.7752722203731536865234375" lon="10.41251719929277896881103515625">
        <ele>602</ele>
        <time>2018-08-16T16:11:08.000Z</time>
      </trkpt>
      <trkpt lat="48.77536534331738948822021484375" lon="10.41258257813751697540283203125">
        <ele>601.79998779296875</ele>
        <time>2018-08-16T16:11:09.000Z</time>
      </trkpt>
      <trkpt lat="48.7754572927951812744140625" lon="10.41263957507908344268798828125">
        <ele>601.5999755859375</ele>
        <time>2018-08-16T16:11:10.000Z</time>
      </trkpt>
      <trkpt lat="48.77563892863690853118896484375" lon="10.41272557340562343597412109375">
        <ele>601.20001220703125</ele>
        <time>2018-08-16T16:11:12.000Z</time>
      </trkpt>
      <trkpt lat="48.77590463496744632720947265625" lon="10.41281056590378284454345703125">
        <ele>601.20001220703125</ele>
        <time>2018-08-16T16:11:15.000Z</time>
      </trkpt>
      <trkpt lat="48.77607822418212890625" lon="10.4128517210483551025390625">
        <ele>601.20001220703125</ele>
        <time>2018-08-16T16:11:17.000Z</time>
      </trkpt>
      <trkpt lat="48.7763368897140026092529296875" lon="10.41291366331279277801513671875">
        <ele>601.20001220703125</ele>
        <time>2018-08-16T16:11:20.000Z</time>
      </trkpt>
      <trkpt lat="48.77650762908160686492919921875" lon="10.41295456700026988983154296875">
        <ele>601.4000244140625</ele>
        <time>2018-08-16T16:11:22.000Z</time>
      </trkpt>
      <trkpt lat="48.77706686966121196746826171875" lon="10.41309169493615627288818359375">
        <ele>601.4000244140625</ele>
        <time>2018-08-16T16:11:29.000Z</time>
      </trkpt>
      <trkpt lat="48.77734079025685787200927734375" lon="10.4131556488573551177978515625">
        <ele>601.5999755859375</ele>
        <time>2018-08-16T16:11:33.000Z</time>
      </trkpt>
      <trkpt lat="48.7774677760899066925048828125" lon="10.41318900883197784423828125">
        <ele>601.79998779296875</ele>
        <time>2018-08-16T16:11:35.000Z</time>
      </trkpt>
      <trkpt lat="48.77764455042779445648193359375" lon="10.413243658840656280517578125">
        <ele>602.5999755859375</ele>
        <time>2018-08-16T16:11:38.000Z</time>
      </trkpt>
      <trkpt lat="48.77780933864414691925048828125" lon="10.4132971353828907012939453125">
        <ele>603.4000244140625</ele>
        <time>2018-08-16T16:11:41.000Z</time>
      </trkpt>
      <trkpt lat="48.77786348573863506317138671875" lon="10.413315407931804656982421875">
        <ele>603.5999755859375</ele>
        <time>2018-08-16T16:11:42.000Z</time>
      </trkpt>
      <trkpt lat="48.77802550792694091796875" lon="10.41337701492011547088623046875">
        <ele>604.5999755859375</ele>
        <time>2018-08-16T16:11:45.000Z</time>
      </trkpt>
      <trkpt lat="48.77818711102008819580078125" lon="10.413437783718109130859375">
        <ele>605.79998779296875</ele>
        <time>2018-08-16T16:11:48.000Z</time>
      </trkpt>
      <trkpt lat="48.77840965054929256439208984375" lon="10.41351129300892353057861328125">
        <ele>607</ele>
        <time>2018-08-16T16:11:52.000Z</time>
      </trkpt>
      <trkpt lat="48.77858332358300685882568359375" lon="10.4135324992239475250244140625">
        <ele>607.79998779296875</ele>
        <time>2018-08-16T16:11:55.000Z</time>
      </trkpt>
      <trkpt lat="48.77864174544811248779296875" lon="10.4135254584252834320068359375">
        <ele>608</ele>
        <time>2018-08-16T16:11:56.000Z</time>
      </trkpt>
      <trkpt lat="48.778873421251773834228515625" lon="10.41345798410475254058837890625">
        <ele>609</ele>
        <time>2018-08-16T16:12:00.000Z</time>
      </trkpt>
      <trkpt lat="48.779156394302845001220703125" lon="10.4133356921374797821044921875">
        <ele>610.20001220703125</ele>
        <time>2018-08-16T16:12:05.000Z</time>
      </trkpt>
      <trkpt lat="48.779484294354915618896484375" lon="10.413312725722789764404296875">
        <ele>611.20001220703125</ele>
        <time>2018-08-16T16:12:10.000Z</time>
      </trkpt>
      <trkpt lat="48.780028112232685089111328125" lon="10.41345362551510334014892578125">
        <ele>611.4000244140625</ele>
        <time>2018-08-16T16:12:17.000Z</time>
      </trkpt>
      <trkpt lat="48.78058710135519504547119140625" lon="10.41354297660291194915771484375">
        <ele>611</ele>
        <time>2018-08-16T16:12:23.000Z</time>
      </trkpt>
      <trkpt lat="48.78087242133915424346923828125" lon="10.41356879286468029022216796875">
        <ele>610</ele>
        <time>2018-08-16T16:12:26.000Z</time>
      </trkpt>
      <trkpt lat="48.78114986233413219451904296875" lon="10.41356191970407962799072265625">
        <ele>608.79998779296875</ele>
        <time>2018-08-16T16:12:29.000Z</time>
      </trkpt>
      <trkpt lat="48.78170105628669261932373046875" lon="10.41350458748638629913330078125">
        <ele>608.4000244140625</ele>
        <time>2018-08-16T16:12:36.000Z</time>
      </trkpt>
      <trkpt lat="48.7820613943040370941162109375" lon="10.413509197533130645751953125">
        <ele>609.79998779296875</ele>
        <time>2018-08-16T16:12:42.000Z</time>
      </trkpt>
      <trkpt lat="48.78211663104593753814697265625" lon="10.41351766325533390045166015625">
        <ele>610</ele>
        <time>2018-08-16T16:12:43.000Z</time>
      </trkpt>
      <trkpt lat="48.78227739594876766204833984375" lon="10.41355705820024013519287109375">
        <ele>611.20001220703125</ele>
        <time>2018-08-16T16:12:46.000Z</time>
      </trkpt>
      <trkpt lat="48.78249784000217914581298828125" lon="10.41359402239322662353515625">
        <ele>612.4000244140625</ele>
        <time>2018-08-16T16:12:50.000Z</time>
      </trkpt>
      <trkpt lat="48.78271677531301975250244140625" lon="10.41364372707903385162353515625">
        <ele>613.4000244140625</ele>
        <time>2018-08-16T16:12:54.000Z</time>
      </trkpt>
      <trkpt lat="48.7828762829303741455078125" lon="10.41369753889739513397216796875">
        <ele>614.5999755859375</ele>
        <time>2018-08-16T16:12:57.000Z</time>
      </trkpt>
      <trkpt lat="48.78308214247226715087890625" lon="10.41378554888069629669189453125">
        <ele>615.5999755859375</ele>
        <time>2018-08-16T16:13:01.000Z</time>
      </trkpt>
      <trkpt lat="48.78327467478811740875244140625" lon="10.41385092772543430328369140625">
        <ele>616.5999755859375</ele>
        <time>2018-08-16T16:13:05.000Z</time>
      </trkpt>
      <trkpt lat="48.78332211636006832122802734375" lon="10.41387691162526607513427734375">
        <ele>617</ele>
        <time>2018-08-16T16:13:06.000Z</time>
      </trkpt>
      <trkpt lat="48.78346561454236507415771484375" lon="10.4139862954616546630859375">
        <ele>617.5999755859375</ele>
        <time>2018-08-16T16:13:09.000Z</time>
      </trkpt>
      <trkpt lat="48.7835071049630641937255859375" lon="10.41402929462492465972900390625">
        <ele>618</ele>
        <time>2018-08-16T16:13:10.000Z</time>
      </trkpt>
      <trkpt lat="48.78361715935170650482177734375" lon="10.41420749388635158538818359375">
        <ele>618.5999755859375</ele>
        <time>2018-08-16T16:13:13.000Z</time>
      </trkpt>
      <trkpt lat="48.78367985598742961883544921875" lon="10.41436155326664447784423828125">
        <ele>619</ele>
        <time>2018-08-16T16:13:15.000Z</time>
      </trkpt>
      <trkpt lat="48.78375814296305179595947265625" lon="10.41460915468633174896240234375">
        <ele>619.79998779296875</ele>
        <time>2018-08-16T16:13:18.000Z</time>
      </trkpt>
      <trkpt lat="48.78378513269126415252685546875" lon="10.41469414718449115753173828125">
        <ele>620</ele>
        <time>2018-08-16T16:13:19.000Z</time>
      </trkpt>
      <trkpt lat="48.784048072993755340576171875" lon="10.41495599783957004547119140625">
        <ele>620.5999755859375</ele>
        <time>2018-08-16T16:13:24.000Z</time>
      </trkpt>
      <trkpt lat="48.7841806747019290924072265625" lon="10.41493001393973827362060546875">
        <ele>621</ele>
        <time>2018-08-16T16:13:26.000Z</time>
      </trkpt>
      <trkpt lat="48.7846493907272815704345703125" lon="10.41484435088932514190673828125">
        <ele>621.5999755859375</ele>
        <time>2018-08-16T16:13:33.000Z</time>
      </trkpt>
      <trkpt lat="48.78472072072327136993408203125" lon="10.41483320295810699462890625">
        <ele>621.79998779296875</ele>
        <time>2018-08-16T16:13:34.000Z</time>
      </trkpt>
      <trkpt lat="48.7850104831159114837646484375" lon="10.41474795900285243988037109375">
        <ele>622</ele>
        <time>2018-08-16T16:13:38.000Z</time>
      </trkpt>
      <trkpt lat="48.78531030379235744476318359375" lon="10.41463161818683147430419921875">
        <ele>622</ele>
        <time>2018-08-16T16:13:42.000Z</time>
      </trkpt>
      <trkpt lat="48.7854574061930179595947265625" lon="10.4146127589046955108642578125">
        <ele>622</ele>
        <time>2018-08-16T16:13:44.000Z</time>
      </trkpt>
      <trkpt lat="48.7856696359813213348388671875" lon="10.41459725238382816314697265625">
        <ele>622.20001220703125</ele>
        <time>2018-08-16T16:13:47.000Z</time>
      </trkpt>
      <trkpt lat="48.785940706729888916015625" lon="10.4145897924900054931640625">
        <ele>622.20001220703125</ele>
        <time>2018-08-16T16:13:51.000Z</time>
      </trkpt>
      <trkpt lat="48.78626952879130840301513671875" lon="10.41454746387898921966552734375">
        <ele>622.5999755859375</ele>
        <time>2018-08-16T16:13:56.000Z</time>
      </trkpt>
      <trkpt lat="48.7864085845649242401123046875" lon="10.414521396160125732421875">
        <ele>623</ele>
        <time>2018-08-16T16:13:58.000Z</time>
      </trkpt>
      <trkpt lat="48.78663028590381145477294921875" lon="10.41450253687798976898193359375">
        <ele>623.5999755859375</ele>
        <time>2018-08-16T16:14:01.000Z</time>
      </trkpt>
      <trkpt lat="48.7871636264026165008544921875" lon="10.414588786661624908447265625">
        <ele>623.79998779296875</ele>
        <time>2018-08-16T16:14:08.000Z</time>
      </trkpt>
      <trkpt lat="48.78752061165869235992431640625" lon="10.41466548107564449310302734375">
        <ele>623.79998779296875</ele>
        <time>2018-08-16T16:14:13.000Z</time>
      </trkpt>
      <trkpt lat="48.78773309290409088134765625" lon="10.41471325792372226715087890625">
        <ele>624</ele>
        <time>2018-08-16T16:14:16.000Z</time>
      </trkpt>
      <trkpt lat="48.788087479770183563232421875" lon="10.41479766368865966796875">
        <ele>623.79998779296875</ele>
        <time>2018-08-16T16:14:21.000Z</time>
      </trkpt>
      <trkpt lat="48.78850481472909450531005859375" lon="10.4149748571217060089111328125">
        <ele>624.20001220703125</ele>
        <time>2018-08-16T16:14:27.000Z</time>
      </trkpt>
      <trkpt lat="48.78896933980286121368408203125" lon="10.41530451737344264984130859375">
        <ele>624.79998779296875</ele>
        <time>2018-08-16T16:14:34.000Z</time>
      </trkpt>
      <trkpt lat="48.78946219570934772491455078125" lon="10.4157511889934539794921875">
        <ele>625.5999755859375</ele>
        <time>2018-08-16T16:14:42.000Z</time>
      </trkpt>
      <trkpt lat="48.78958515822887420654296875" lon="10.41586627252399921417236328125">
        <ele>625.79998779296875</ele>
        <time>2018-08-16T16:14:44.000Z</time>
      </trkpt>
      <trkpt lat="48.79008379764854907989501953125" lon="10.416339933872222900390625">
        <ele>626.4000244140625</ele>
        <time>2018-08-16T16:14:52.000Z</time>
      </trkpt>
      <trkpt lat="48.79058889113366603851318359375" lon="10.4168326221406459808349609375">
        <ele>626.5999755859375</ele>
        <time>2018-08-16T16:15:00.000Z</time>
      </trkpt>
      <trkpt lat="48.790844120085239410400390625" lon="10.417089276015758514404296875">
        <ele>626.79998779296875</ele>
        <time>2018-08-16T16:15:04.000Z</time>
      </trkpt>
      <trkpt lat="48.7911121733486652374267578125" lon="10.4172758571803569793701171875">
        <ele>626.79998779296875</ele>
        <time>2018-08-16T16:15:08.000Z</time>
      </trkpt>
      <trkpt lat="48.79163629375398159027099609375" lon="10.41744575835764408111572265625">
        <ele>627.4000244140625</ele>
        <time>2018-08-16T16:15:16.000Z</time>
      </trkpt>
      <trkpt lat="48.7918160855770111083984375" lon="10.41749822907149791717529296875">
        <ele>628</ele>
        <time>2018-08-16T16:15:19.000Z</time>
      </trkpt>
      <trkpt lat="48.79210836254060268402099609375" lon="10.41758573614060878753662109375">
        <ele>629</ele>
        <time>2018-08-16T16:15:24.000Z</time>
      </trkpt>
      <trkpt lat="48.792407177388668060302734375" lon="10.41768162511289119720458984375">
        <ele>630</ele>
        <time>2018-08-16T16:15:29.000Z</time>
      </trkpt>
      <trkpt lat="48.79271387122571468353271484375" lon="10.41777558624744415283203125">
        <ele>631.20001220703125</ele>
        <time>2018-08-16T16:15:34.000Z</time>
      </trkpt>
      <trkpt lat="48.7931181304156780242919921875" lon="10.41783987544476985931396484375">
        <ele>632.20001220703125</ele>
        <time>2018-08-16T16:15:40.000Z</time>
      </trkpt>
      <trkpt lat="48.79318912513554096221923828125" lon="10.4178218543529510498046875">
        <ele>632.4000244140625</ele>
        <time>2018-08-16T16:15:41.000Z</time>
      </trkpt>
      <trkpt lat="48.7936062924563884735107421875" lon="10.41734752245247364044189453125">
        <ele>632.5999755859375</ele>
        <time>2018-08-16T16:15:48.000Z</time>
      </trkpt>
      <trkpt lat="48.79370477981865406036376953125" lon="10.4171725921332836151123046875">
        <ele>632.5999755859375</ele>
        <time>2018-08-16T16:15:50.000Z</time>
      </trkpt>
      <trkpt lat="48.79385146312415599822998046875" lon="10.4169114120304584503173828125">
        <ele>632.5999755859375</ele>
        <time>2018-08-16T16:15:53.000Z</time>
      </trkpt>
      <trkpt lat="48.7941289879381656646728515625" lon="10.41636851616203784942626953125">
        <ele>632.4000244140625</ele>
        <time>2018-08-16T16:15:59.000Z</time>
      </trkpt>
      <trkpt lat="48.79425446502864360809326171875" lon="10.41608805768191814422607421875">
        <ele>632.4000244140625</ele>
        <time>2018-08-16T16:16:02.000Z</time>
      </trkpt>
      <trkpt lat="48.794644139707088470458984375" lon="10.4154130630195140838623046875">
        <ele>632.4000244140625</ele>
        <time>2018-08-16T16:16:10.000Z</time>
      </trkpt>
      <trkpt lat="48.7948836944997310638427734375" lon="10.41512413881719112396240234375">
        <ele>632.79998779296875</ele>
        <time>2018-08-16T16:16:14.000Z</time>
      </trkpt>
      <trkpt lat="48.79501805640757083892822265625" lon="10.415012575685977935791015625">
        <ele>633</ele>
        <time>2018-08-16T16:16:16.000Z</time>
      </trkpt>
      <trkpt lat="48.79509064368903636932373046875" lon="10.41496572084724903106689453125">
        <ele>633.20001220703125</ele>
        <time>2018-08-16T16:16:17.000Z</time>
      </trkpt>
      <trkpt lat="48.7953192181885242462158203125" lon="10.4148633778095245361328125">
        <ele>633.4000244140625</ele>
        <time>2018-08-16T16:16:20.000Z</time>
      </trkpt>
      <trkpt lat="48.7958707474172115325927734375" lon="10.41466799564659595489501953125">
        <ele>633.5999755859375</ele>
        <time>2018-08-16T16:16:27.000Z</time>
      </trkpt>
      <trkpt lat="48.79610250703990459442138671875" lon="10.4145738668739795684814453125">
        <ele>633.5999755859375</ele>
        <time>2018-08-16T16:16:30.000Z</time>
      </trkpt>
      <trkpt lat="48.79637123085558414459228515625" lon="10.41431595571339130401611328125">
        <ele>633.5999755859375</ele>
        <time>2018-08-16T16:16:34.000Z</time>
      </trkpt>
      <trkpt lat="48.79649125970900058746337890625" lon="10.4141443781554698944091796875">
        <ele>633.5999755859375</ele>
        <time>2018-08-16T16:16:36.000Z</time>
      </trkpt>
      <trkpt lat="48.7966013140976428985595703125" lon="10.4139519296586513519287109375">
        <ele>633.4000244140625</ele>
        <time>2018-08-16T16:16:38.000Z</time>
      </trkpt>
      <trkpt lat="48.79679770208895206451416015625" lon="10.41337701492011547088623046875">
        <ele>633.20001220703125</ele>
        <time>2018-08-16T16:16:43.000Z</time>
      </trkpt>
      <trkpt lat="48.7968591414391994476318359375" lon="10.4131281562149524688720703125">
        <ele>633</ele>
        <time>2018-08-16T16:16:45.000Z</time>
      </trkpt>
      <trkpt lat="48.79700104705989360809326171875" lon="10.41261208243668079376220703125">
        <ele>632.79998779296875</ele>
        <time>2018-08-16T16:16:49.000Z</time>
      </trkpt>
      <trkpt lat="48.79710682667791843414306640625" lon="10.41236800141632556915283203125">
        <ele>632.20001220703125</ele>
        <time>2018-08-16T16:16:51.000Z</time>
      </trkpt>
      <trkpt lat="48.7972366623580455780029296875" lon="10.41214755736291408538818359375">
        <ele>631.79998779296875</ele>
        <time>2018-08-16T16:16:53.000Z</time>
      </trkpt>
      <trkpt lat="48.79730564542114734649658203125" lon="10.41204697452485561370849609375">
        <ele>631.4000244140625</ele>
        <time>2018-08-16T16:16:54.000Z</time>
      </trkpt>
      <trkpt lat="48.7974519096314907073974609375" lon="10.4118648357689380645751953125">
        <ele>630.79998779296875</ele>
        <time>2018-08-16T16:16:56.000Z</time>
      </trkpt>
      <trkpt lat="48.79787444137036800384521484375" lon="10.41151438839733600616455078125">
        <ele>629.79998779296875</ele>
        <time>2018-08-16T16:17:01.000Z</time>
      </trkpt>
      <trkpt lat="48.7979678995907306671142578125" lon="10.4114631749689579010009765625">
        <ele>629.79998779296875</ele>
        <time>2018-08-16T16:17:02.000Z</time>
      </trkpt>
      <trkpt lat="48.7981593422591686248779296875" lon="10.4113833792507648468017578125">
        <ele>629.5999755859375</ele>
        <time>2018-08-16T16:17:04.000Z</time>
      </trkpt>
      <trkpt lat="48.7982589192688465118408203125" lon="10.41135303676128387451171875">
        <ele>629.4000244140625</ele>
        <time>2018-08-16T16:17:05.000Z</time>
      </trkpt>
      <trkpt lat="48.798356987535953521728515625" lon="10.41132193990051746368408203125">
        <ele>629.20001220703125</ele>
        <time>2018-08-16T16:17:06.000Z</time>
      </trkpt>
      <trkpt lat="48.7986642681062221527099609375" lon="10.41125505231320858001708984375">
        <ele>628.5999755859375</ele>
        <time>2018-08-16T16:17:09.000Z</time>
      </trkpt>
      <trkpt lat="48.79887440241873264312744140625" lon="10.4112536273896694183349609375">
        <ele>628.4000244140625</ele>
        <time>2018-08-16T16:17:11.000Z</time>
      </trkpt>
      <trkpt lat="48.79932501353323459625244140625" lon="10.411264188587665557861328125">
        <ele>627.5999755859375</ele>
        <time>2018-08-16T16:17:15.000Z</time>
      </trkpt>
      <trkpt lat="48.799557946622371673583984375" lon="10.41125119663774967193603515625">
        <ele>626.4000244140625</ele>
        <time>2018-08-16T16:17:17.000Z</time>
      </trkpt>
      <trkpt lat="48.79979808814823627471923828125" lon="10.41126628406345844268798828125">
        <ele>625.4000244140625</ele>
        <time>2018-08-16T16:17:19.000Z</time>
      </trkpt>
      <trkpt lat="48.8001693226397037506103515625" lon="10.41134742088615894317626953125">
        <ele>623.5999755859375</ele>
        <time>2018-08-16T16:17:22.000Z</time>
      </trkpt>
      <trkpt lat="48.80041834898293018341064453125" lon="10.41140827350318431854248046875">
        <ele>622</ele>
        <time>2018-08-16T16:17:24.000Z</time>
      </trkpt>
      <trkpt lat="48.80065974779427051544189453125" lon="10.4114614985883235931396484375">
        <ele>621</ele>
        <time>2018-08-16T16:17:26.000Z</time>
      </trkpt>
      <trkpt lat="48.80087935365736484527587890625" lon="10.411512292921543121337890625">
        <ele>620</ele>
        <time>2018-08-16T16:17:28.000Z</time>
      </trkpt>
      <trkpt lat="48.80108923651278018951416015625" lon="10.4115681163966655731201171875">
        <ele>618.5999755859375</ele>
        <time>2018-08-16T16:17:30.000Z</time>
      </trkpt>
      <trkpt lat="48.80138042382895946502685546875" lon="10.41163290850818157196044921875">
        <ele>617.4000244140625</ele>
        <time>2018-08-16T16:17:33.000Z</time>
      </trkpt>
      <trkpt lat="48.80147279240190982818603515625" lon="10.41164497844874858856201171875">
        <ele>617</ele>
        <time>2018-08-16T16:17:34.000Z</time>
      </trkpt>
      <trkpt lat="48.801562897861003875732421875" lon="10.41164313443005084991455078125">
        <ele>617</ele>
        <time>2018-08-16T16:17:35.000Z</time>
      </trkpt>
      <trkpt lat="48.80164646543562412261962890625" lon="10.4116254486143589019775390625">
        <ele>616.79998779296875</ele>
        <time>2018-08-16T16:17:36.000Z</time>
      </trkpt>
      <trkpt lat="48.801883757114410400390625" lon="10.41152260266244411468505859375">
        <ele>616.79998779296875</ele>
        <time>2018-08-16T16:17:39.000Z</time>
      </trkpt>
      <trkpt lat="48.80203270353376865386962890625" lon="10.41142503730952739715576171875">
        <ele>616.79998779296875</ele>
        <time>2018-08-16T16:17:41.000Z</time>
      </trkpt>
      <trkpt lat="48.802253566682338714599609375" lon="10.41128388606011867523193359375">
        <ele>617</ele>
        <time>2018-08-16T16:17:44.000Z</time>
      </trkpt>
      <trkpt lat="48.8024639524519443511962890625" lon="10.4111118055880069732666015625">
        <ele>618.4000244140625</ele>
        <time>2018-08-16T16:17:47.000Z</time>
      </trkpt>
      <trkpt lat="48.80268774926662445068359375" lon="10.4109334386885166168212890625">
        <ele>619.4000244140625</ele>
        <time>2018-08-16T16:17:50.000Z</time>
      </trkpt>
      <trkpt lat="48.80317666567862033843994140625" lon="10.410383753478527069091796875">
        <ele>619.79998779296875</ele>
        <time>2018-08-16T16:17:57.000Z</time>
      </trkpt>
      <trkpt lat="48.803661055862903594970703125" lon="10.4098561964929103851318359375">
        <ele>619.79998779296875</ele>
        <time>2018-08-16T16:18:04.000Z</time>
      </trkpt>
      <trkpt lat="48.80380145274102687835693359375" lon="10.40972954593598842620849609375">
        <ele>619.79998779296875</ele>
        <time>2018-08-16T16:18:06.000Z</time>
      </trkpt>
      <trkpt lat="48.8042845018208026885986328125" lon="10.409373901784420013427734375">
        <ele>619.79998779296875</ele>
        <time>2018-08-16T16:18:13.000Z</time>
      </trkpt>
      <trkpt lat="48.80462656728923320770263671875" lon="10.40933107025921344757080078125">
        <ele>619.5999755859375</ele>
        <time>2018-08-16T16:18:18.000Z</time>
      </trkpt>
      <trkpt lat="48.8047964684665203094482421875" lon="10.4093589819967746734619140625">
        <ele>620</ele>
        <time>2018-08-16T16:18:21.000Z</time>
      </trkpt>
      <trkpt lat="48.8048403896391391754150390625" lon="10.409367866814136505126953125">
        <ele>620</ele>
        <time>2018-08-16T16:18:22.000Z</time>
      </trkpt>
      <trkpt lat="48.8049225322902202606201171875" lon="10.40939158760011196136474609375">
        <ele>620.20001220703125</ele>
        <time>2018-08-16T16:18:24.000Z</time>
      </trkpt>
      <trkpt lat="48.805025629699230194091796875" lon="10.4094109497964382171630859375">
        <ele>620.20001220703125</ele>
        <time>2018-08-16T16:18:26.000Z</time>
      </trkpt>
      <trkpt lat="48.80508338101208209991455078125" lon="10.40941069833934307098388671875">
        <ele>620.20001220703125</ele>
        <time>2018-08-16T16:18:27.000Z</time>
      </trkpt>
      <trkpt lat="48.80532704293727874755859375" lon="10.40939510799944400787353515625">
        <ele>620.4000244140625</ele>
        <time>2018-08-16T16:18:31.000Z</time>
      </trkpt>
      <trkpt lat="48.8054443895816802978515625" lon="10.40936283767223358154296875">
        <ele>620.4000244140625</ele>
        <time>2018-08-16T16:18:34.000Z</time>
      </trkpt>
      <trkpt lat="48.80555612035095691680908203125" lon="10.409300141036510467529296875">
        <ele>620.5999755859375</ele>
        <time>2018-08-16T16:18:37.000Z</time>
      </trkpt>
      <trkpt lat="48.8055887259542942047119140625" lon="10.40928178466856479644775390625">
        <ele>621.4000244140625</ele>
        <time>2018-08-16T16:18:38.000Z</time>
      </trkpt>
      <trkpt lat="48.80568704567849636077880859375" lon="10.40922914631664752960205078125">
        <ele>622.20001220703125</ele>
        <time>2018-08-16T16:18:41.000Z</time>
      </trkpt>
      <trkpt lat="48.8057168014347553253173828125" lon="10.4092077724635601043701171875">
        <ele>622.4000244140625</ele>
        <time>2018-08-16T16:18:42.000Z</time>
      </trkpt>
      <trkpt lat="48.80577840842306613922119140625" lon="10.40916460566222667694091796875">
        <ele>623.4000244140625</ele>
        <time>2018-08-16T16:18:44.000Z</time>
      </trkpt>
      <trkpt lat="48.80586708895862102508544921875" lon="10.409099645912647247314453125">
        <ele>624.5999755859375</ele>
        <time>2018-08-16T16:18:47.000Z</time>
      </trkpt>
      <trkpt lat="48.8059575296938419342041015625" lon="10.4090471751987934112548828125">
        <ele>625.79998779296875</ele>
        <time>2018-08-16T16:18:50.000Z</time>
      </trkpt>
      <trkpt lat="48.80604562349617481231689453125" lon="10.40897467173635959625244140625">
        <ele>626.5999755859375</ele>
        <time>2018-08-16T16:18:53.000Z</time>
      </trkpt>
      <trkpt lat="48.80613505840301513671875" lon="10.40890510194003582000732421875">
        <ele>627.5999755859375</ele>
        <time>2018-08-16T16:18:56.000Z</time>
      </trkpt>
      <trkpt lat="48.80625852383673191070556640625" lon="10.40881256572902202606201171875">
        <ele>629</ele>
        <time>2018-08-16T16:19:00.000Z</time>
      </trkpt>
      <trkpt lat="48.80638643167912960052490234375" lon="10.408701337873935699462890625">
        <ele>630.20001220703125</ele>
        <time>2018-08-16T16:19:04.000Z</time>
      </trkpt>
      <trkpt lat="48.80651928484439849853515625" lon="10.40856597013771533966064453125">
        <ele>631.4000244140625</ele>
        <time>2018-08-16T16:19:08.000Z</time>
      </trkpt>
      <trkpt lat="48.806655742228031158447265625" lon="10.4084409959614276885986328125">
        <ele>632.5999755859375</ele>
        <time>2018-08-16T16:19:12.000Z</time>
      </trkpt>
      <trkpt lat="48.8067605160176753997802734375" lon="10.40834435261785984039306640625">
        <ele>633.79998779296875</ele>
        <time>2018-08-16T16:19:15.000Z</time>
      </trkpt>
      <trkpt lat="48.80693125538527965545654296875" lon="10.4081674106419086456298828125">
        <ele>634.5999755859375</ele>
        <time>2018-08-16T16:19:20.000Z</time>
      </trkpt>
      <trkpt lat="48.80710526369512081146240234375" lon="10.40796129964292049407958984375">
        <ele>635.79998779296875</ele>
        <time>2018-08-16T16:19:25.000Z</time>
      </trkpt>
      <trkpt lat="48.8073153980076313018798828125" lon="10.407706908881664276123046875">
        <ele>636.4000244140625</ele>
        <time>2018-08-16T16:19:31.000Z</time>
      </trkpt>
      <trkpt lat="48.807418830692768096923828125" lon="10.4075615666806697845458984375">
        <ele>636.79998779296875</ele>
        <time>2018-08-16T16:19:34.000Z</time>
      </trkpt>
      <trkpt lat="48.80755688063800334930419921875" lon="10.40735713206231594085693359375">
        <ele>637.20001220703125</ele>
        <time>2018-08-16T16:19:38.000Z</time>
      </trkpt>
      <trkpt lat="48.80765712819993495941162109375" lon="10.4071976244449615478515625">
        <ele>637.5999755859375</ele>
        <time>2018-08-16T16:19:41.000Z</time>
      </trkpt>
      <trkpt lat="48.807728290557861328125" lon="10.40709461085498332977294921875">
        <ele>637.79998779296875</ele>
        <time>2018-08-16T16:19:43.000Z</time>
      </trkpt>
      <trkpt lat="48.8077993690967559814453125" lon="10.40698531083762645721435546875">
        <ele>638</ele>
        <time>2018-08-16T16:19:45.000Z</time>
      </trkpt>
      <trkpt lat="48.8080231659114360809326171875" lon="10.40666361339390277862548828125">
        <ele>638.79998779296875</ele>
        <time>2018-08-16T16:19:51.000Z</time>
      </trkpt>
      <trkpt lat="48.80806180648505687713623046875" lon="10.40661265142261981964111328125">
        <ele>639</ele>
        <time>2018-08-16T16:19:52.000Z</time>
      </trkpt>
      <trkpt lat="48.8084285147488117218017578125" lon="10.4061634652316570281982421875">
        <ele>640</ele>
        <time>2018-08-16T16:20:01.000Z</time>
      </trkpt>
      <trkpt lat="48.80876488052308559417724609375" lon="10.40581720881164073944091796875">
        <ele>641</ele>
        <time>2018-08-16T16:20:09.000Z</time>
      </trkpt>
      <trkpt lat="48.808988593518733978271484375" lon="10.4056313820183277130126953125">
        <ele>642</ele>
        <time>2018-08-16T16:20:14.000Z</time>
      </trkpt>
      <trkpt lat="48.8090343587100505828857421875" lon="10.40559592656791210174560546875">
        <ele>642</ele>
        <time>2018-08-16T16:20:15.000Z</time>
      </trkpt>
      <trkpt lat="48.80908079445362091064453125" lon="10.4055626504123210906982421875">
        <ele>642.20001220703125</ele>
        <time>2018-08-16T16:20:16.000Z</time>
      </trkpt>
      <trkpt lat="48.80917475558817386627197265625" lon="10.405496768653392791748046875">
        <ele>642.4000244140625</ele>
        <time>2018-08-16T16:20:18.000Z</time>
      </trkpt>
      <trkpt lat="48.8093632645905017852783203125" lon="10.4053759016096591949462890625">
        <ele>643</ele>
        <time>2018-08-16T16:20:22.000Z</time>
      </trkpt>
      <trkpt lat="48.80966409109532833099365234375" lon="10.4052260331809520721435546875">
        <ele>644.20001220703125</ele>
        <time>2018-08-16T16:20:28.000Z</time>
      </trkpt>
      <trkpt lat="48.8099285401403903961181640625" lon="10.405139364302158355712890625">
        <ele>645.20001220703125</ele>
        <time>2018-08-16T16:20:33.000Z</time>
      </trkpt>
      <trkpt lat="48.8100899755954742431640625" lon="10.40510072372853755950927734375">
        <ele>645.5999755859375</ele>
        <time>2018-08-16T16:20:36.000Z</time>
      </trkpt>
      <trkpt lat="48.81037387065589427947998046875" lon="10.4050537012517452239990234375">
        <ele>646.4000244140625</ele>
        <time>2018-08-16T16:20:41.000Z</time>
      </trkpt>
      <trkpt lat="48.81060671992599964141845703125" lon="10.40503484196960926055908203125">
        <ele>646.79998779296875</ele>
        <time>2018-08-16T16:20:45.000Z</time>
      </trkpt>
      <trkpt lat="48.81066606380045413970947265625" lon="10.4050389491021633148193359375">
        <ele>647</ele>
        <time>2018-08-16T16:20:46.000Z</time>
      </trkpt>
      <trkpt lat="48.81113008596003055572509765625" lon="10.40510223247110843658447265625">
        <ele>647.20001220703125</ele>
        <time>2018-08-16T16:20:53.000Z</time>
      </trkpt>
      <trkpt lat="48.81140031851828098297119140625" lon="10.4051646776497364044189453125">
        <ele>647.20001220703125</ele>
        <time>2018-08-16T16:20:57.000Z</time>
      </trkpt>
      <trkpt lat="48.811532668769359588623046875" lon="10.4052101075649261474609375">
        <ele>647.20001220703125</ele>
        <time>2018-08-16T16:20:59.000Z</time>
      </trkpt>
      <trkpt lat="48.81167155690491199493408203125" lon="10.40527557022869586944580078125">
        <ele>647.20001220703125</ele>
        <time>2018-08-16T16:21:01.000Z</time>
      </trkpt>
      <trkpt lat="48.8118255324661731719970703125" lon="10.4053576290607452392578125">
        <ele>647.20001220703125</ele>
        <time>2018-08-16T16:21:03.000Z</time>
      </trkpt>
      <trkpt lat="48.81214521825313568115234375" lon="10.40556323714554309844970703125">
        <ele>647.20001220703125</ele>
        <time>2018-08-16T16:21:07.000Z</time>
      </trkpt>
      <trkpt lat="48.812654502689838409423828125" lon="10.406015776097774505615234375">
        <ele>646</ele>
        <time>2018-08-16T16:21:13.000Z</time>
      </trkpt>
      <trkpt lat="48.8130000047385692596435546875" lon="10.40639991872012615203857421875">
        <ele>645</ele>
        <time>2018-08-16T16:21:17.000Z</time>
      </trkpt>
      <trkpt lat="48.81325640715658664703369140625" lon="10.40672396309673786163330078125">
        <ele>643.79998779296875</ele>
        <time>2018-08-16T16:21:20.000Z</time>
      </trkpt>
      <trkpt lat="48.81341993808746337890625" lon="10.4069641046226024627685546875">
        <ele>642.5999755859375</ele>
        <time>2018-08-16T16:21:22.000Z</time>
      </trkpt>
      <trkpt lat="48.81358548067510128021240234375" lon="10.40721061639487743377685546875">
        <ele>641.4000244140625</ele>
        <time>2018-08-16T16:21:24.000Z</time>
      </trkpt>
      <trkpt lat="48.81366997025907039642333984375" lon="10.4073345847427845001220703125">
        <ele>640.79998779296875</ele>
        <time>2018-08-16T16:21:25.000Z</time>
      </trkpt>
      <trkpt lat="48.813754208385944366455078125" lon="10.4074626602232456207275390625">
        <ele>640.20001220703125</ele>
        <time>2018-08-16T16:21:26.000Z</time>
      </trkpt>
      <trkpt lat="48.81383844651281833648681640625" lon="10.4075967706739902496337890625">
        <ele>639.79998779296875</ele>
        <time>2018-08-16T16:21:27.000Z</time>
      </trkpt>
      <trkpt lat="48.8139213435351848602294921875" lon="10.40773616172373294830322265625">
        <ele>639.20001220703125</ele>
        <time>2018-08-16T16:21:28.000Z</time>
      </trkpt>
      <trkpt lat="48.81400323472917079925537109375" lon="10.407880246639251708984375">
        <ele>638.79998779296875</ele>
        <time>2018-08-16T16:21:29.000Z</time>
      </trkpt>
      <trkpt lat="48.81416114978492259979248046875" lon="10.40816749446094036102294921875">
        <ele>637.5999755859375</ele>
        <time>2018-08-16T16:21:31.000Z</time>
      </trkpt>
      <trkpt lat="48.814376480877399444580078125" lon="10.408615507185459136962890625">
        <ele>636.20001220703125</ele>
        <time>2018-08-16T16:21:34.000Z</time>
      </trkpt>
      <trkpt lat="48.81451017223298549652099609375" lon="10.4089237935841083526611328125">
        <ele>635.20001220703125</ele>
        <time>2018-08-16T16:21:36.000Z</time>
      </trkpt>
      <trkpt lat="48.814636655151844024658203125" lon="10.40924549102783203125">
        <ele>634.20001220703125</ele>
        <time>2018-08-16T16:21:38.000Z</time>
      </trkpt>
      <trkpt lat="48.81475643254816532135009765625" lon="10.409575402736663818359375">
        <ele>633</ele>
        <time>2018-08-16T16:21:40.000Z</time>
      </trkpt>
      <trkpt lat="48.814812004566192626953125" lon="10.4097432084381580352783203125">
        <ele>631.79998779296875</ele>
        <time>2018-08-16T16:21:41.000Z</time>
      </trkpt>
      <trkpt lat="48.814920298755168914794921875" lon="10.41007940657436847686767578125">
        <ele>630.79998779296875</ele>
        <time>2018-08-16T16:21:43.000Z</time>
      </trkpt>
      <trkpt lat="48.8149694167077541351318359375" lon="10.41025090031325817108154296875">
        <ele>630.4000244140625</ele>
        <time>2018-08-16T16:21:44.000Z</time>
      </trkpt>
      <trkpt lat="48.8150160200893878936767578125" lon="10.41042239405214786529541015625">
        <ele>630</ele>
        <time>2018-08-16T16:21:45.000Z</time>
      </trkpt>
      <trkpt lat="48.815061114728450775146484375" lon="10.41059187613427639007568359375">
        <ele>629.5999755859375</ele>
        <time>2018-08-16T16:21:46.000Z</time>
      </trkpt>
      <trkpt lat="48.8151813112199306488037109375" lon="10.41110702790319919586181640625">
        <ele>628.20001220703125</ele>
        <time>2018-08-16T16:21:49.000Z</time>
      </trkpt>
      <trkpt lat="48.81528742611408233642578125" lon="10.41162452660501003265380859375">
        <ele>626.79998779296875</ele>
        <time>2018-08-16T16:21:52.000Z</time>
      </trkpt>
      <trkpt lat="48.81537317298352718353271484375" lon="10.412139259278774261474609375">
        <ele>625.5999755859375</ele>
        <time>2018-08-16T16:21:55.000Z</time>
      </trkpt>
      <trkpt lat="48.81544525735080242156982421875" lon="10.4126513935625553131103515625">
        <ele>624</ele>
        <time>2018-08-16T16:21:58.000Z</time>
      </trkpt>
      <trkpt lat="48.81551004946231842041015625" lon="10.41316486895084381103515625">
        <ele>623</ele>
        <time>2018-08-16T16:22:01.000Z</time>
      </trkpt>
      <trkpt lat="48.81553930230438709259033203125" lon="10.41350307874381542205810546875">
        <ele>622.20001220703125</ele>
        <time>2018-08-16T16:22:03.000Z</time>
      </trkpt>
      <trkpt lat="48.81555422209203243255615234375" lon="10.4136713035404682159423828125">
        <ele>621.79998779296875</ele>
        <time>2018-08-16T16:22:04.000Z</time>
      </trkpt>
      <trkpt lat="48.815576098859310150146484375" lon="10.41416357271373271942138671875">
        <ele>620.4000244140625</ele>
        <time>2018-08-16T16:22:07.000Z</time>
      </trkpt>
      <trkpt lat="48.81557978689670562744140625" lon="10.41432760655879974365234375">
        <ele>620</ele>
        <time>2018-08-16T16:22:08.000Z</time>
      </trkpt>
      <trkpt lat="48.8155806250870227813720703125" lon="10.414490886032581329345703125">
        <ele>619.5999755859375</ele>
        <time>2018-08-16T16:22:09.000Z</time>
      </trkpt>
      <trkpt lat="48.81558121182024478912353515625" lon="10.41465508751571178436279296875">
        <ele>618.5999755859375</ele>
        <time>2018-08-16T16:22:10.000Z</time>
      </trkpt>
      <trkpt lat="48.81557710468769073486328125" lon="10.4151557385921478271484375">
        <ele>617.20001220703125</ele>
        <time>2018-08-16T16:22:13.000Z</time>
      </trkpt>
      <trkpt lat="48.81557215936481952667236328125" lon="10.415325053036212921142578125">
        <ele>616.79998779296875</ele>
        <time>2018-08-16T16:22:14.000Z</time>
      </trkpt>
      <trkpt lat="48.81556126289069652557373046875" lon="10.41567097418010234832763671875">
        <ele>615.79998779296875</ele>
        <time>2018-08-16T16:22:16.000Z</time>
      </trkpt>
      <trkpt lat="48.81554366089403629302978515625" lon="10.416023433208465576171875">
        <ele>614.5999755859375</ele>
        <time>2018-08-16T16:22:18.000Z</time>
      </trkpt>
      <trkpt lat="48.8155206106603145599365234375" lon="10.416384525597095489501953125">
        <ele>613.4000244140625</ele>
        <time>2018-08-16T16:22:20.000Z</time>
      </trkpt>
      <trkpt lat="48.815494291484355926513671875" lon="10.41675643064081668853759765625">
        <ele>612</ele>
        <time>2018-08-16T16:22:22.000Z</time>
      </trkpt>
      <trkpt lat="48.81547224707901477813720703125" lon="10.4171437583863735198974609375">
        <ele>610.5999755859375</ele>
        <time>2018-08-16T16:22:24.000Z</time>
      </trkpt>
      <trkpt lat="48.81546118296682834625244140625" lon="10.41755028069019317626953125">
        <ele>609.5999755859375</ele>
        <time>2018-08-16T16:22:26.000Z</time>
      </trkpt>
      <trkpt lat="48.8154632784426212310791015625" lon="10.4179718904197216033935546875">
        <ele>608.20001220703125</ele>
        <time>2018-08-16T16:22:28.000Z</time>
      </trkpt>
      <trkpt lat="48.8154840655624866485595703125" lon="10.4183958470821380615234375">
        <ele>606.20001220703125</ele>
        <time>2018-08-16T16:22:30.000Z</time>
      </trkpt>
      <trkpt lat="48.81552639417350292205810546875" lon="10.41882374323904514312744140625">
        <ele>604.20001220703125</ele>
        <time>2018-08-16T16:22:32.000Z</time>
      </trkpt>
      <trkpt lat="48.815562687814235687255859375" lon="10.4190400801599025726318359375">
        <ele>603.20001220703125</ele>
        <time>2018-08-16T16:22:33.000Z</time>
      </trkpt>
      <trkpt lat="48.81561063230037689208984375" lon="10.4192570038139820098876953125">
        <ele>602.20001220703125</ele>
        <time>2018-08-16T16:22:34.000Z</time>
      </trkpt>
      <trkpt lat="48.815676011145114898681640625" lon="10.41947552002966403961181640625">
        <ele>601.20001220703125</ele>
        <time>2018-08-16T16:22:35.000Z</time>
      </trkpt>
      <trkpt lat="48.8157482631504535675048828125" lon="10.41968590579926967620849609375">
        <ele>600</ele>
        <time>2018-08-16T16:22:36.000Z</time>
      </trkpt>
      <trkpt lat="48.81583996117115020751953125" lon="10.41988824494183063507080078125">
        <ele>598.79998779296875</ele>
        <time>2018-08-16T16:22:37.000Z</time>
      </trkpt>
      <trkpt lat="48.8159440644085407257080078125" lon="10.4200777597725391387939453125">
        <ele>596.5999755859375</ele>
        <time>2018-08-16T16:22:38.000Z</time>
      </trkpt>
      <trkpt lat="48.8160607405006885528564453125" lon="10.42025419883430004119873046875">
        <ele>595.20001220703125</ele>
        <time>2018-08-16T16:22:39.000Z</time>
      </trkpt>
      <trkpt lat="48.8161891512572765350341796875" lon="10.42041756212711334228515625">
        <ele>594</ele>
        <time>2018-08-16T16:22:40.000Z</time>
      </trkpt>
      <trkpt lat="48.81632837466895580291748046875" lon="10.4205615632236003875732421875">
        <ele>592.5999755859375</ele>
        <time>2018-08-16T16:22:41.000Z</time>
      </trkpt>
      <trkpt lat="48.816475979983806610107421875" lon="10.4206889681518077850341796875">
        <ele>591.20001220703125</ele>
        <time>2018-08-16T16:22:42.000Z</time>
      </trkpt>
      <trkpt lat="48.81663121283054351806640625" lon="10.420797429978847503662109375">
        <ele>589.79998779296875</ele>
        <time>2018-08-16T16:22:43.000Z</time>
      </trkpt>
      <trkpt lat="48.816797174513339996337890625" lon="10.42088024318218231201171875">
        <ele>588.4000244140625</ele>
        <time>2018-08-16T16:22:44.000Z</time>
      </trkpt>
      <trkpt lat="48.81697009317576885223388671875" lon="10.42093061842024326324462890625">
        <ele>587</ele>
        <time>2018-08-16T16:22:45.000Z</time>
      </trkpt>
      <trkpt lat="48.81714284420013427734375" lon="10.4209695942699909210205078125">
        <ele>585.5999755859375</ele>
        <time>2018-08-16T16:22:46.000Z</time>
      </trkpt>
      <trkpt lat="48.8173160143196582794189453125" lon="10.420982837677001953125">
        <ele>584.20001220703125</ele>
        <time>2018-08-16T16:22:47.000Z</time>
      </trkpt>
      <trkpt lat="48.81748658604919910430908203125" lon="10.4209682531654834747314453125">
        <ele>582.79998779296875</ele>
        <time>2018-08-16T16:22:48.000Z</time>
      </trkpt>
      <trkpt lat="48.817656151950359344482421875" lon="10.42092592455446720123291015625">
        <ele>581.5999755859375</ele>
        <time>2018-08-16T16:22:49.000Z</time>
      </trkpt>
      <trkpt lat="48.81782454438507556915283203125" lon="10.42085803113877773284912109375">
        <ele>580</ele>
        <time>2018-08-16T16:22:50.000Z</time>
      </trkpt>
      <trkpt lat="48.817987740039825439453125" lon="10.42075728066265583038330078125">
        <ele>578.4000244140625</ele>
        <time>2018-08-16T16:22:51.000Z</time>
      </trkpt>
      <trkpt lat="48.81814557127654552459716796875" lon="10.42063825763761997222900390625">
        <ele>577</ele>
        <time>2018-08-16T16:22:52.000Z</time>
      </trkpt>
      <trkpt lat="48.8182963617146015167236328125" lon="10.42050481773912906646728515625">
        <ele>575.4000244140625</ele>
        <time>2018-08-16T16:22:53.000Z</time>
      </trkpt>
      <trkpt lat="48.81844446994364261627197265625" lon="10.42036215774714946746826171875">
        <ele>574.20001220703125</ele>
        <time>2018-08-16T16:22:54.000Z</time>
      </trkpt>
      <trkpt lat="48.8185890577733516693115234375" lon="10.42020700871944427490234375">
        <ele>572.79998779296875</ele>
        <time>2018-08-16T16:22:55.000Z</time>
      </trkpt>
      <trkpt lat="48.81873113103210926055908203125" lon="10.4200519435107707977294921875">
        <ele>571.4000244140625</ele>
        <time>2018-08-16T16:22:56.000Z</time>
      </trkpt>
      <trkpt lat="48.818871192634105682373046875" lon="10.41989562101662158966064453125">
        <ele>570.20001220703125</ele>
        <time>2018-08-16T16:22:57.000Z</time>
      </trkpt>
      <trkpt lat="48.819014020264148712158203125" lon="10.41973628103733062744140625">
        <ele>569.4000244140625</ele>
        <time>2018-08-16T16:22:58.000Z</time>
      </trkpt>
      <trkpt lat="48.81915877573192119598388671875" lon="10.41957677341997623443603515625">
        <ele>568.20001220703125</ele>
        <time>2018-08-16T16:22:59.000Z</time>
      </trkpt>
      <trkpt lat="48.8193042017519474029541015625" lon="10.41941349394619464874267578125">
        <ele>567.4000244140625</ele>
        <time>2018-08-16T16:23:00.000Z</time>
      </trkpt>
      <trkpt lat="48.8194533996284008026123046875" lon="10.4192472808063030242919921875">
        <ele>566.4000244140625</ele>
        <time>2018-08-16T16:23:01.000Z</time>
      </trkpt>
      <trkpt lat="48.819607794284820556640625" lon="10.41908525861799716949462890625">
        <ele>565.4000244140625</ele>
        <time>2018-08-16T16:23:02.000Z</time>
      </trkpt>
      <trkpt lat="48.81976763717830181121826171875" lon="10.41892667300999164581298828125">
        <ele>564.20001220703125</ele>
        <time>2018-08-16T16:23:03.000Z</time>
      </trkpt>
      <trkpt lat="48.81993259303271770477294921875" lon="10.418777056038379669189453125">
        <ele>563.20001220703125</ele>
        <time>2018-08-16T16:23:04.000Z</time>
      </trkpt>
      <trkpt lat="48.82010593079030513763427734375" lon="10.418639592826366424560546875">
        <ele>561</ele>
        <time>2018-08-16T16:23:05.000Z</time>
      </trkpt>
      <trkpt lat="48.8202832080423831939697265625" lon="10.41851009242236614227294921875">
        <ele>559.79998779296875</ele>
        <time>2018-08-16T16:23:06.000Z</time>
      </trkpt>
      <trkpt lat="48.82046149112284183502197265625" lon="10.4183859564363956451416015625">
        <ele>558.5999755859375</ele>
        <time>2018-08-16T16:23:07.000Z</time>
      </trkpt>
      <trkpt lat="48.82064086385071277618408203125" lon="10.41826601140201091766357421875">
        <ele>557.20001220703125</ele>
        <time>2018-08-16T16:23:08.000Z</time>
      </trkpt>
      <trkpt lat="48.82081856019794940948486328125" lon="10.41812586598098278045654296875">
        <ele>555.5999755859375</ele>
        <time>2018-08-16T16:23:09.000Z</time>
      </trkpt>
      <trkpt lat="48.8209923170506954193115234375" lon="10.4179698787629604339599609375">
        <ele>554</ele>
        <time>2018-08-16T16:23:10.000Z</time>
      </trkpt>
      <trkpt lat="48.8211586140096187591552734375" lon="10.41779033839702606201171875">
        <ele>552.20001220703125</ele>
        <time>2018-08-16T16:23:11.000Z</time>
      </trkpt>
      <trkpt lat="48.82131963036954402923583984375" lon="10.41759319603443145751953125">
        <ele>550.4000244140625</ele>
        <time>2018-08-16T16:23:12.000Z</time>
      </trkpt>
      <trkpt lat="48.82147452794015407562255859375" lon="10.417381636798381805419921875">
        <ele>548.4000244140625</ele>
        <time>2018-08-16T16:23:13.000Z</time>
      </trkpt>
      <trkpt lat="48.8216162659227848052978515625" lon="10.417153649032115936279296875">
        <ele>546.4000244140625</ele>
        <time>2018-08-16T16:23:14.000Z</time>
      </trkpt>
      <trkpt lat="48.82175230421125888824462890625" lon="10.4169144295156002044677734375">
        <ele>544.4000244140625</ele>
        <time>2018-08-16T16:23:15.000Z</time>
      </trkpt>
      <trkpt lat="48.821881972253322601318359375" lon="10.4166669957339763641357421875">
        <ele>542.4000244140625</ele>
        <time>2018-08-16T16:23:16.000Z</time>
      </trkpt>
      <trkpt lat="48.822003342211246490478515625" lon="10.41641277261078357696533203125">
        <ele>540.4000244140625</ele>
        <time>2018-08-16T16:23:17.000Z</time>
      </trkpt>
      <trkpt lat="48.82212345488369464874267578125" lon="10.41615880094468593597412109375">
        <ele>538.4000244140625</ele>
        <time>2018-08-16T16:23:18.000Z</time>
      </trkpt>
      <trkpt lat="48.82224700413644313812255859375" lon="10.41590902023017406463623046875">
        <ele>536.5999755859375</ele>
        <time>2018-08-16T16:23:19.000Z</time>
      </trkpt>
      <trkpt lat="48.82237105630338191986083984375" lon="10.41566158644855022430419921875">
        <ele>534.79998779296875</ele>
        <time>2018-08-16T16:23:20.000Z</time>
      </trkpt>
      <trkpt lat="48.82248505018651485443115234375" lon="10.4154023341834545135498046875">
        <ele>533</ele>
        <time>2018-08-16T16:23:21.000Z</time>
      </trkpt>
      <trkpt lat="48.8225996308028697967529296875" lon="10.4151538945734500885009765625">
        <ele>531.20001220703125</ele>
        <time>2018-08-16T16:23:22.000Z</time>
      </trkpt>
      <trkpt lat="48.82271689362823963165283203125" lon="10.414918027818202972412109375">
        <ele>529.4000244140625</ele>
        <time>2018-08-16T16:23:23.000Z</time>
      </trkpt>
      <trkpt lat="48.8228356651961803436279296875" lon="10.4146935604512691497802734375">
        <ele>527.4000244140625</ele>
        <time>2018-08-16T16:23:24.000Z</time>
      </trkpt>
      <trkpt lat="48.82295477204024791717529296875" lon="10.41447688825428485870361328125">
        <ele>525.4000244140625</ele>
        <time>2018-08-16T16:23:25.000Z</time>
      </trkpt>
      <trkpt lat="48.8230773992836475372314453125" lon="10.41427555494010448455810546875">
        <ele>523.79998779296875</ele>
        <time>2018-08-16T16:23:26.000Z</time>
      </trkpt>
      <trkpt lat="48.82320689968764781951904296875" lon="10.414092577993869781494140625">
        <ele>522</ele>
        <time>2018-08-16T16:23:27.000Z</time>
      </trkpt>
      <trkpt lat="48.82334302179515361785888671875" lon="10.41392452083528041839599609375">
        <ele>520.4000244140625</ele>
        <time>2018-08-16T16:23:28.000Z</time>
      </trkpt>
      <trkpt lat="48.823483251035213470458984375" lon="10.41376769542694091796875">
        <ele>518.5999755859375</ele>
        <time>2018-08-16T16:23:29.000Z</time>
      </trkpt>
      <trkpt lat="48.823626749217510223388671875" lon="10.41362461633980274200439453125">
        <ele>517</ele>
        <time>2018-08-16T16:23:30.000Z</time>
      </trkpt>
      <trkpt lat="48.8237714208662509918212890625" lon="10.413492433726787567138671875">
        <ele>515.4000244140625</ele>
        <time>2018-08-16T16:23:31.000Z</time>
      </trkpt>
      <trkpt lat="48.82391475141048431396484375" lon="10.41337315924465656280517578125">
        <ele>512</ele>
        <time>2018-08-16T16:23:32.000Z</time>
      </trkpt>
      <trkpt lat="48.8240486942231655120849609375" lon="10.4132693074643611907958984375">
        <ele>510.20001220703125</ele>
        <time>2018-08-16T16:23:33.000Z</time>
      </trkpt>
      <trkpt lat="48.8241680525243282318115234375" lon="10.41318674571812152862548828125">
        <ele>508.399993896484375</ele>
        <time>2018-08-16T16:23:34.000Z</time>
      </trkpt>
      <trkpt lat="48.8242719881236553192138671875" lon="10.4131261445581912994384765625">
        <ele>507</ele>
        <time>2018-08-16T16:23:35.000Z</time>
      </trkpt>
      <trkpt lat="48.82436108775436878204345703125" lon="10.41308465413749217987060546875">
        <ele>505.600006103515625</ele>
        <time>2018-08-16T16:23:36.000Z</time>
      </trkpt>
      <trkpt lat="48.824439458549022674560546875" lon="10.413053222000598907470703125">
        <ele>504</ele>
        <time>2018-08-16T16:23:37.000Z</time>
      </trkpt>
      <trkpt lat="48.82450911216437816619873046875" lon="10.41302581317722797393798828125">
        <ele>502.600006103515625</ele>
        <time>2018-08-16T16:23:38.000Z</time>
      </trkpt>
      <trkpt lat="48.82457256317138671875" lon="10.413010306656360626220703125">
        <ele>501.399993896484375</ele>
        <time>2018-08-16T16:23:39.000Z</time>
      </trkpt>
      <trkpt lat="48.824690915644168853759765625" lon="10.41307023726403713226318359375">
        <ele>499.600006103515625</ele>
        <time>2018-08-16T16:23:41.000Z</time>
      </trkpt>
      <trkpt lat="48.824756629765033721923828125" lon="10.41325933299958705902099609375">
        <ele>498.399993896484375</ele>
        <time>2018-08-16T16:23:43.000Z</time>
      </trkpt>
      <trkpt lat="48.824782110750675201416015625" lon="10.413508526980876922607421875">
        <ele>498</ele>
        <time>2018-08-16T16:23:45.000Z</time>
      </trkpt>
      <trkpt lat="48.8247973658144474029541015625" lon="10.4136417992413043975830078125">
        <ele>497.600006103515625</ele>
        <time>2018-08-16T16:23:46.000Z</time>
      </trkpt>
      <trkpt lat="48.8248932547867298126220703125" lon="10.414351411163806915283203125">
        <ele>496.600006103515625</ele>
        <time>2018-08-16T16:23:51.000Z</time>
      </trkpt>
      <trkpt lat="48.8249371759593486785888671875" lon="10.41465005837380886077880859375">
        <ele>495.600006103515625</ele>
        <time>2018-08-16T16:23:53.000Z</time>
      </trkpt>
      <trkpt lat="48.8249780796468257904052734375" lon="10.41495515964925289154052734375">
        <ele>494.79998779296875</ele>
        <time>2018-08-16T16:23:55.000Z</time>
      </trkpt>
      <trkpt lat="48.82499744184315204620361328125" lon="10.41511022485792636871337890625">
        <ele>494.399993896484375</ele>
        <time>2018-08-16T16:23:56.000Z</time>
      </trkpt>
      <trkpt lat="48.82505846209824085235595703125" lon="10.415568463504314422607421875">
        <ele>493</ele>
        <time>2018-08-16T16:23:59.000Z</time>
      </trkpt>
      <trkpt lat="48.82513574324548244476318359375" lon="10.41617254726588726043701171875">
        <ele>491.600006103515625</ele>
        <time>2018-08-16T16:24:03.000Z</time>
      </trkpt>
      <trkpt lat="48.8252310454845428466796875" lon="10.41690512560307979583740234375">
        <ele>490.600006103515625</ele>
        <time>2018-08-16T16:24:08.000Z</time>
      </trkpt>
      <trkpt lat="48.825320899486541748046875" lon="10.4176211915910243988037109375">
        <ele>489.399993896484375</ele>
        <time>2018-08-16T16:24:13.000Z</time>
      </trkpt>
      <trkpt lat="48.825358450412750244140625" lon="10.41790374554693698883056640625">
        <ele>489</ele>
        <time>2018-08-16T16:24:15.000Z</time>
      </trkpt>
      <trkpt lat="48.82537647150456905364990234375" lon="10.41804380714893341064453125">
        <ele>488.79998779296875</ele>
        <time>2018-08-16T16:24:16.000Z</time>
      </trkpt>
      <trkpt lat="48.82541351951658725738525390625" lon="10.41832401417195796966552734375">
        <ele>488.399993896484375</ele>
        <time>2018-08-16T16:24:18.000Z</time>
      </trkpt>
      <trkpt lat="48.82545107044279575347900390625" lon="10.41860329918563365936279296875">
        <ele>488.20001220703125</ele>
        <time>2018-08-16T16:24:20.000Z</time>
      </trkpt>
      <trkpt lat="48.8255389966070652008056640625" lon="10.4192935489118099212646484375">
        <ele>487.20001220703125</ele>
        <time>2018-08-16T16:24:25.000Z</time>
      </trkpt>
      <trkpt lat="48.82557612843811511993408203125" lon="10.419574677944183349609375">
        <ele>486.79998779296875</ele>
        <time>2018-08-16T16:24:27.000Z</time>
      </trkpt>
      <trkpt lat="48.8256280124187469482421875" lon="10.4199912585318088531494140625">
        <ele>486.20001220703125</ele>
        <time>2018-08-16T16:24:30.000Z</time>
      </trkpt>
      <trkpt lat="48.8256804831326007843017578125" lon="10.42041094042360782623291015625">
        <ele>485.79998779296875</ele>
        <time>2018-08-16T16:24:33.000Z</time>
      </trkpt>
      <trkpt lat="48.82573253475129604339599609375" lon="10.42083925567567348480224609375">
        <ele>485.399993896484375</ele>
        <time>2018-08-16T16:24:36.000Z</time>
      </trkpt>
      <trkpt lat="48.82575281895697116851806640625" lon="10.42098375968635082244873046875">
        <ele>485</ele>
        <time>2018-08-16T16:24:37.000Z</time>
      </trkpt>
      <trkpt lat="48.82586002349853515625" lon="10.4218379594385623931884765625">
        <ele>484.399993896484375</ele>
        <time>2018-08-16T16:24:43.000Z</time>
      </trkpt>
      <trkpt lat="48.82587703876197338104248046875" lon="10.42197919450700283050537109375">
        <ele>484.20001220703125</ele>
        <time>2018-08-16T16:24:44.000Z</time>
      </trkpt>
      <trkpt lat="48.8259299285709857940673828125" lon="10.422689728438854217529296875">
        <ele>483</ele>
        <time>2018-08-16T16:24:49.000Z</time>
      </trkpt>
      <trkpt lat="48.8259466923773288726806640625" lon="10.42297831736505031585693359375">
        <ele>482.600006103515625</ele>
        <time>2018-08-16T16:24:51.000Z</time>
      </trkpt>
      <trkpt lat="48.8259902782738208770751953125" lon="10.423686839640140533447265625">
        <ele>481.79998779296875</ele>
        <time>2018-08-16T16:24:56.000Z</time>
      </trkpt>
      <trkpt lat="48.82602967321872711181640625" lon="10.42440458200871944427490234375">
        <ele>480.79998779296875</ele>
        <time>2018-08-16T16:25:01.000Z</time>
      </trkpt>
      <trkpt lat="48.8260875083506107330322265625" lon="10.425255261361598968505859375">
        <ele>480.20001220703125</ele>
        <time>2018-08-16T16:25:07.000Z</time>
      </trkpt>
      <trkpt lat="48.826131932437419891357421875" lon="10.4256882704794406890869140625">
        <ele>479.600006103515625</ele>
        <time>2018-08-16T16:25:10.000Z</time>
      </trkpt>
      <trkpt lat="48.82623544894158840179443359375" lon="10.4264211840927600860595703125">
        <ele>478.600006103515625</ele>
        <time>2018-08-16T16:25:15.000Z</time>
      </trkpt>
      <trkpt lat="48.82632144726812839508056640625" lon="10.4268543608486652374267578125">
        <ele>477.600006103515625</ele>
        <time>2018-08-16T16:25:18.000Z</time>
      </trkpt>
      <trkpt lat="48.82643477059900760650634765625" lon="10.4272711090743541717529296875">
        <ele>477</ele>
        <time>2018-08-16T16:25:21.000Z</time>
      </trkpt>
      <trkpt lat="48.82647902704775333404541015625" lon="10.4274075664579868316650390625">
        <ele>476.79998779296875</ele>
        <time>2018-08-16T16:25:22.000Z</time>
      </trkpt>
      <trkpt lat="48.8267008960247039794921875" lon="10.42795498855412006378173828125">
        <ele>475.79998779296875</ele>
        <time>2018-08-16T16:25:26.000Z</time>
      </trkpt>
      <trkpt lat="48.82676233537495136260986328125" lon="10.42809127829968929290771484375">
        <ele>475.600006103515625</ele>
        <time>2018-08-16T16:25:27.000Z</time>
      </trkpt>
      <trkpt lat="48.82694439031183719635009765625" lon="10.42849595658481121063232421875">
        <ele>474.79998779296875</ele>
        <time>2018-08-16T16:25:30.000Z</time>
      </trkpt>
      <trkpt lat="48.82700339891016483306884765625" lon="10.42863174341619014739990234375">
        <ele>474.600006103515625</ele>
        <time>2018-08-16T16:25:31.000Z</time>
      </trkpt>
      <trkpt lat="48.82711336947977542877197265625" lon="10.42891035787761211395263671875">
        <ele>474</ele>
        <time>2018-08-16T16:25:33.000Z</time>
      </trkpt>
      <trkpt lat="48.8272126950323581695556640625" lon="10.42919333092868328094482421875">
        <ele>474</ele>
        <time>2018-08-16T16:25:35.000Z</time>
      </trkpt>
      <trkpt lat="48.827353678643703460693359375" lon="10.42961209081113338470458984375">
        <ele>473.600006103515625</ele>
        <time>2018-08-16T16:25:38.000Z</time>
      </trkpt>
      <trkpt lat="48.827515952289104461669921875" lon="10.43000386096537113189697265625">
        <ele>473</ele>
        <time>2018-08-16T16:25:41.000Z</time>
      </trkpt>
      <trkpt lat="48.82770479656755924224853515625" lon="10.430357493460178375244140625">
        <ele>472.399993896484375</ele>
        <time>2018-08-16T16:25:44.000Z</time>
      </trkpt>
      <trkpt lat="48.82804401218891143798828125" lon="10.4310557059943675994873046875">
        <ele>471.600006103515625</ele>
        <time>2018-08-16T16:25:50.000Z</time>
      </trkpt>
      <trkpt lat="48.82813780568540096282958984375" lon="10.43130372650921344757080078125">
        <ele>471</ele>
        <time>2018-08-16T16:25:52.000Z</time>
      </trkpt>
      <trkpt lat="48.82821424864232540130615234375" lon="10.431563146412372589111328125">
        <ele>470.79998779296875</ele>
        <time>2018-08-16T16:25:54.000Z</time>
      </trkpt>
      <trkpt lat="48.82837501354515552520751953125" lon="10.43238331563770771026611328125">
        <ele>470.600006103515625</ele>
        <time>2018-08-16T16:26:00.000Z</time>
      </trkpt>
      <trkpt lat="48.828494288027286529541015625" lon="10.43329241685569286346435546875">
        <ele>470.399993896484375</ele>
        <time>2018-08-16T16:26:07.000Z</time>
      </trkpt>
      <trkpt lat="48.82866351865231990814208984375" lon="10.43384377844631671905517578125">
        <ele>470.399993896484375</ele>
        <time>2018-08-16T16:26:12.000Z</time>
      </trkpt>
      <trkpt lat="48.82902125827968120574951171875" lon="10.4343135841190814971923828125">
        <ele>470.79998779296875</ele>
        <time>2018-08-16T16:26:19.000Z</time>
      </trkpt>
      <trkpt lat="48.82923298515379428863525390625" lon="10.43450276367366313934326171875">
        <ele>472.20001220703125</ele>
        <time>2018-08-16T16:26:23.000Z</time>
      </trkpt>
      <trkpt lat="48.82940917275846004486083984375" lon="10.43462497182190418243408203125">
        <ele>473.20001220703125</ele>
        <time>2018-08-16T16:26:26.000Z</time>
      </trkpt>
      <trkpt lat="48.82958971895277500152587890625" lon="10.43474726378917694091796875">
        <ele>474.20001220703125</ele>
        <time>2018-08-16T16:26:29.000Z</time>
      </trkpt>
      <trkpt lat="48.82965057156980037689208984375" lon="10.43478506617248058319091796875">
        <ele>474.399993896484375</ele>
        <time>2018-08-16T16:26:30.000Z</time>
      </trkpt>
      <trkpt lat="48.82996355183422565460205078125" lon="10.4350022412836551666259765625">
        <ele>475.600006103515625</ele>
        <time>2018-08-16T16:26:35.000Z</time>
      </trkpt>
      <trkpt lat="48.8304291665554046630859375" lon="10.435442961752414703369140625">
        <ele>475.79998779296875</ele>
        <time>2018-08-16T16:26:42.000Z</time>
      </trkpt>
      <trkpt lat="48.8307579047977924346923828125" lon="10.4359296150505542755126953125">
        <ele>475.399993896484375</ele>
        <time>2018-08-16T16:26:47.000Z</time>
      </trkpt>
      <trkpt lat="48.83093518204987049102783203125" lon="10.43630436994135379791259765625">
        <ele>474.79998779296875</ele>
        <time>2018-08-16T16:26:50.000Z</time>
      </trkpt>
      <trkpt lat="48.8309902511537075042724609375" lon="10.436439402401447296142578125">
        <ele>474.600006103515625</ele>
        <time>2018-08-16T16:26:51.000Z</time>
      </trkpt>
      <trkpt lat="48.831124193966388702392578125" lon="10.43685204349458217620849609375">
        <ele>473.399993896484375</ele>
        <time>2018-08-16T16:26:54.000Z</time>
      </trkpt>
      <trkpt lat="48.8311883993446826934814453125" lon="10.43711590580642223358154296875">
        <ele>472.399993896484375</ele>
        <time>2018-08-16T16:26:56.000Z</time>
      </trkpt>
      <trkpt lat="48.83121346123516559600830078125" lon="10.43723769485950469970703125">
        <ele>471.79998779296875</ele>
        <time>2018-08-16T16:26:57.000Z</time>
      </trkpt>
      <trkpt lat="48.83123424835503101348876953125" lon="10.437354035675525665283203125">
        <ele>471</ele>
        <time>2018-08-16T16:26:58.000Z</time>
      </trkpt>
      <trkpt lat="48.8312578015029430389404296875" lon="10.4374628327786922454833984375">
        <ele>470.399993896484375</ele>
        <time>2018-08-16T16:26:59.000Z</time>
      </trkpt>
      <trkpt lat="48.83129342459142208099365234375" lon="10.43755310587584972381591796875">
        <ele>469.79998779296875</ele>
        <time>2018-08-16T16:27:00.000Z</time>
      </trkpt>
      <trkpt lat="48.83134581148624420166015625" lon="10.4376113601028919219970703125">
        <ele>469.20001220703125</ele>
        <time>2018-08-16T16:27:01.000Z</time>
      </trkpt>
      <trkpt lat="48.831410519778728485107421875" lon="10.43762921355664730072021484375">
        <ele>468.399993896484375</ele>
        <time>2018-08-16T16:27:02.000Z</time>
      </trkpt>
      <trkpt lat="48.831544630229473114013671875" lon="10.4375671036541461944580078125">
        <ele>467.20001220703125</ele>
        <time>2018-08-16T16:27:04.000Z</time>
      </trkpt>
      <trkpt lat="48.831613026559352874755859375" lon="10.43752075172960758209228515625">
        <ele>466.600006103515625</ele>
        <time>2018-08-16T16:27:05.000Z</time>
      </trkpt>
      <trkpt lat="48.83168435655534267425537109375" lon="10.43748102150857448577880859375">
        <ele>465.79998779296875</ele>
        <time>2018-08-16T16:27:06.000Z</time>
      </trkpt>
      <trkpt lat="48.83175862021744251251220703125" lon="10.43744497932493686676025390625">
        <ele>465.399993896484375</ele>
        <time>2018-08-16T16:27:07.000Z</time>
      </trkpt>
      <trkpt lat="48.83183573372662067413330078125" lon="10.43741279281675815582275390625">
        <ele>464.79998779296875</ele>
        <time>2018-08-16T16:27:08.000Z</time>
      </trkpt>
      <trkpt lat="48.831997923552989959716796875" lon="10.43737373314797878265380859375">
        <ele>464.20001220703125</ele>
        <time>2018-08-16T16:27:10.000Z</time>
      </trkpt>
      <trkpt lat="48.83216598071157932281494140625" lon="10.43735814280807971954345703125">
        <ele>463.600006103515625</ele>
        <time>2018-08-16T16:27:12.000Z</time>
      </trkpt>
      <trkpt lat="48.8323394022881984710693359375" lon="10.4373528622090816497802734375">
        <ele>463</ele>
        <time>2018-08-16T16:27:14.000Z</time>
      </trkpt>
      <trkpt lat="48.8324279151856899261474609375" lon="10.43735411949455738067626953125">
        <ele>462.79998779296875</ele>
        <time>2018-08-16T16:27:15.000Z</time>
      </trkpt>
      <trkpt lat="48.83251726627349853515625" lon="10.4373552091419696807861328125">
        <ele>462.399993896484375</ele>
        <time>2018-08-16T16:27:16.000Z</time>
      </trkpt>
      <trkpt lat="48.832696974277496337890625" lon="10.4373572207987308502197265625">
        <ele>462</ele>
        <time>2018-08-16T16:27:18.000Z</time>
      </trkpt>
      <trkpt lat="48.8328791968524456024169921875" lon="10.43735973536968231201171875">
        <ele>461.600006103515625</ele>
        <time>2018-08-16T16:27:20.000Z</time>
      </trkpt>
      <trkpt lat="48.83333575911819934844970703125" lon="10.4373900778591632843017578125">
        <ele>460.600006103515625</ele>
        <time>2018-08-16T16:27:25.000Z</time>
      </trkpt>
      <trkpt lat="48.83342661894857883453369140625" lon="10.43739795684814453125">
        <ele>460.600006103515625</ele>
        <time>2018-08-16T16:27:26.000Z</time>
      </trkpt>
      <trkpt lat="48.83361035026609897613525390625" lon="10.43741949833929538726806640625">
        <ele>460.399993896484375</ele>
        <time>2018-08-16T16:27:28.000Z</time>
      </trkpt>
      <trkpt lat="48.8339804112911224365234375" lon="10.43747817166149616241455078125">
        <ele>460.20001220703125</ele>
        <time>2018-08-16T16:27:32.000Z</time>
      </trkpt>
      <trkpt lat="48.83453185670077800750732421875" lon="10.4375805146992206573486328125">
        <ele>459.79998779296875</ele>
        <time>2018-08-16T16:27:38.000Z</time>
      </trkpt>
      <trkpt lat="48.835071735084056854248046875" lon="10.4377089254558086395263671875">
        <ele>459.600006103515625</ele>
        <time>2018-08-16T16:27:44.000Z</time>
      </trkpt>
      <trkpt lat="48.83515681140124797821044921875" lon="10.43773080222308635711669921875">
        <ele>459.600006103515625</ele>
        <time>2018-08-16T16:27:45.000Z</time>
      </trkpt>
      <trkpt lat="48.83576232008635997772216796875" lon="10.43788955546915531158447265625">
        <ele>459.600006103515625</ele>
        <time>2018-08-16T16:27:52.000Z</time>
      </trkpt>
      <trkpt lat="48.836312592029571533203125" lon="10.43804110027849674224853515625">
        <ele>459.79998779296875</ele>
        <time>2018-08-16T16:27:59.000Z</time>
      </trkpt>
      <trkpt lat="48.8365182839334011077880859375" lon="10.4387372173368930816650390625">
        <ele>460.79998779296875</ele>
        <time>2018-08-16T16:28:06.000Z</time>
      </trkpt>
      <trkpt lat="48.8365162722766399383544921875" lon="10.43886101804673671722412109375">
        <ele>461</ele>
        <time>2018-08-16T16:28:07.000Z</time>
      </trkpt>
      <trkpt lat="48.8364240713417530059814453125" lon="10.4397269524633884429931640625">
        <ele>461.399993896484375</ele>
        <time>2018-08-16T16:28:14.000Z</time>
      </trkpt>
      <trkpt lat="48.83632600307464599609375" lon="10.44019659049808979034423828125">
        <ele>461.399993896484375</ele>
        <time>2018-08-16T16:28:18.000Z</time>
      </trkpt>
      <trkpt lat="48.8360629789531230926513671875" lon="10.4407763667404651641845703125">
        <ele>461.600006103515625</ele>
        <time>2018-08-16T16:28:24.000Z</time>
      </trkpt>
      <trkpt lat="48.83580473251640796661376953125" lon="10.44144046492874622344970703125">
        <ele>461.79998779296875</ele>
        <time>2018-08-16T16:28:31.000Z</time>
      </trkpt>
      <trkpt lat="48.8356881402432918548583984375" lon="10.44193801470100879669189453125">
        <ele>463</ele>
        <time>2018-08-16T16:28:36.000Z</time>
      </trkpt>
      <trkpt lat="48.8356214202940464019775390625" lon="10.442444868385791778564453125">
        <ele>464</ele>
        <time>2018-08-16T16:28:41.000Z</time>
      </trkpt>
      <trkpt lat="48.83558395318686962127685546875" lon="10.44294870458543300628662109375">
        <ele>465</ele>
        <time>2018-08-16T16:28:46.000Z</time>
      </trkpt>
      <trkpt lat="48.8355795107781887054443359375" lon="10.44304861687123775482177734375">
        <ele>465.399993896484375</ele>
        <time>2018-08-16T16:28:47.000Z</time>
      </trkpt>
      <trkpt lat="48.83557255379855632781982421875" lon="10.443558655679225921630859375">
        <ele>466.600006103515625</ele>
        <time>2018-08-16T16:28:52.000Z</time>
      </trkpt>
      <trkpt lat="48.835613541305065155029296875" lon="10.44428662396967411041259765625">
        <ele>467.600006103515625</ele>
        <time>2018-08-16T16:28:59.000Z</time>
      </trkpt>
      <trkpt lat="48.8357166387140750885009765625" lon="10.44514258392155170440673828125">
        <ele>468.600006103515625</ele>
        <time>2018-08-16T16:29:07.000Z</time>
      </trkpt>
      <trkpt lat="48.8357347436249256134033203125" lon="10.44525146484375">
        <ele>468.600006103515625</ele>
        <time>2018-08-16T16:29:08.000Z</time>
      </trkpt>
      <trkpt lat="48.83594588376581668853759765625" lon="10.4461298882961273193359375">
        <ele>469.20001220703125</ele>
        <time>2018-08-16T16:29:16.000Z</time>
      </trkpt>
      <trkpt lat="48.83625618182122707366943359375" lon="10.4468482173979282379150390625">
        <ele>469.20001220703125</ele>
        <time>2018-08-16T16:29:23.000Z</time>
      </trkpt>
      <trkpt lat="48.83636430837213993072509765625" lon="10.44702582992613315582275390625">
        <ele>469</ele>
        <time>2018-08-16T16:29:25.000Z</time>
      </trkpt>
      <trkpt lat="48.83647914044559001922607421875" lon="10.4471828229725360870361328125">
        <ele>469</ele>
        <time>2018-08-16T16:29:27.000Z</time>
      </trkpt>
      <trkpt lat="48.836640156805515289306640625" lon="10.44740318320691585540771484375">
        <ele>468.79998779296875</ele>
        <time>2018-08-16T16:29:30.000Z</time>
      </trkpt>
      <trkpt lat="48.8366956450045108795166015625" lon="10.4475693963468074798583984375">
        <ele>468.79998779296875</ele>
        <time>2018-08-16T16:29:32.000Z</time>
      </trkpt>
      <trkpt lat="48.836668320000171661376953125" lon="10.44779486954212188720703125">
        <ele>468.600006103515625</ele>
        <time>2018-08-16T16:29:35.000Z</time>
      </trkpt>
      <trkpt lat="48.8365652225911617279052734375" lon="10.44802444986999034881591796875">
        <ele>468.399993896484375</ele>
        <time>2018-08-16T16:29:38.000Z</time>
      </trkpt>
      <trkpt lat="48.83647880516946315765380859375" lon="10.4481886513531208038330078125">
        <ele>468.20001220703125</ele>
        <time>2018-08-16T16:29:40.000Z</time>
      </trkpt>
      <trkpt lat="48.83643454872071743011474609375" lon="10.44828034937381744384765625">
        <ele>468</ele>
        <time>2018-08-16T16:29:41.000Z</time>
      </trkpt>
      <trkpt lat="48.8364029489457607269287109375" lon="10.44838671572506427764892578125">
        <ele>467.79998779296875</ele>
        <time>2018-08-16T16:29:42.000Z</time>
      </trkpt>
      <trkpt lat="48.8363962434232234954833984375" lon="10.44850238598883152008056640625">
        <ele>467.399993896484375</ele>
        <time>2018-08-16T16:29:43.000Z</time>
      </trkpt>
      <trkpt lat="48.83641476742923259735107421875" lon="10.4486151225864887237548828125">
        <ele>467.20001220703125</ele>
        <time>2018-08-16T16:29:44.000Z</time>
      </trkpt>
      <trkpt lat="48.8364461995661258697509765625" lon="10.44872584752738475799560546875">
        <ele>467</ele>
        <time>2018-08-16T16:29:45.000Z</time>
      </trkpt>
      <trkpt lat="48.83647846989333629608154296875" lon="10.44883766211569309234619140625">
        <ele>466.600006103515625</ele>
        <time>2018-08-16T16:29:46.000Z</time>
      </trkpt>
      <trkpt lat="48.83656161837279796600341796875" lon="10.44919204898178577423095703125">
        <ele>465.600006103515625</ele>
        <time>2018-08-16T16:29:49.000Z</time>
      </trkpt>
      <trkpt lat="48.83666035719215869903564453125" lon="10.449533276259899139404296875">
        <ele>464.79998779296875</ele>
        <time>2018-08-16T16:29:52.000Z</time>
      </trkpt>
      <trkpt lat="48.83670930750668048858642578125" lon="10.44963193126022815704345703125">
        <ele>464.399993896484375</ele>
        <time>2018-08-16T16:29:53.000Z</time>
      </trkpt>
      <trkpt lat="48.83682330138981342315673828125" lon="10.44981147162616252899169921875">
        <ele>463.79998779296875</ele>
        <time>2018-08-16T16:29:55.000Z</time>
      </trkpt>
      <trkpt lat="48.8368852436542510986328125" lon="10.44989814050495624542236328125">
        <ele>463.399993896484375</ele>
        <time>2018-08-16T16:29:56.000Z</time>
      </trkpt>
      <trkpt lat="48.83694835938513278961181640625" lon="10.4499830491840839385986328125">
        <ele>463.20001220703125</ele>
        <time>2018-08-16T16:29:57.000Z</time>
      </trkpt>
      <trkpt lat="48.83713695220649242401123046875" lon="10.45024900697171688079833984375">
        <ele>462.399993896484375</ele>
        <time>2018-08-16T16:30:00.000Z</time>
      </trkpt>
      <trkpt lat="48.8373950310051441192626953125" lon="10.4505932517349720001220703125">
        <ele>461.600006103515625</ele>
        <time>2018-08-16T16:30:04.000Z</time>
      </trkpt>
      <trkpt lat="48.83745278231799602508544921875" lon="10.45068972744047641754150390625">
        <ele>461.399993896484375</ele>
        <time>2018-08-16T16:30:05.000Z</time>
      </trkpt>
      <trkpt lat="48.83762109093368053436279296875" lon="10.4509888775646686553955078125">
        <ele>461.399993896484375</ele>
        <time>2018-08-16T16:30:08.000Z</time>
      </trkpt>
      <trkpt lat="48.83789635263383388519287109375" lon="10.45147712342441082000732421875">
        <ele>460.79998779296875</ele>
        <time>2018-08-16T16:30:13.000Z</time>
      </trkpt>
      <trkpt lat="48.83799903094768524169921875" lon="10.45168030075728893280029296875">
        <ele>460.79998779296875</ele>
        <time>2018-08-16T16:30:15.000Z</time>
      </trkpt>
      <trkpt lat="48.83804990909993648529052734375" lon="10.45178465545177459716796875">
        <ele>460.600006103515625</ele>
        <time>2018-08-16T16:30:16.000Z</time>
      </trkpt>
      <trkpt lat="48.8381591252982616424560546875" lon="10.4519987292587757110595703125">
        <ele>460</ele>
        <time>2018-08-16T16:30:18.000Z</time>
      </trkpt>
      <trkpt lat="48.83834327571094036102294921875" lon="10.4522936046123504638671875">
        <ele>459.399993896484375</ele>
        <time>2018-08-16T16:30:21.000Z</time>
      </trkpt>
      <trkpt lat="48.83857511915266513824462890625" lon="10.45247306115925312042236328125">
        <ele>458.79998779296875</ele>
        <time>2018-08-16T16:30:24.000Z</time>
      </trkpt>
      <trkpt lat="48.8386553339660167694091796875" lon="10.45251689851284027099609375">
        <ele>458.600006103515625</ele>
        <time>2018-08-16T16:30:25.000Z</time>
      </trkpt>
      <trkpt lat="48.838732950389385223388671875" lon="10.452561490237712860107421875">
        <ele>458.20001220703125</ele>
        <time>2018-08-16T16:30:26.000Z</time>
      </trkpt>
      <trkpt lat="48.83888089098036289215087890625" lon="10.45264807529747486114501953125">
        <ele>458</ele>
        <time>2018-08-16T16:30:28.000Z</time>
      </trkpt>
      <trkpt lat="48.83895448409020900726318359375" lon="10.45267992652952671051025390625">
        <ele>458</ele>
        <time>2018-08-16T16:30:29.000Z</time>
      </trkpt>
      <trkpt lat="48.8391854055225849151611328125" lon="10.45258638449013233184814453125">
        <ele>457.79998779296875</ele>
        <time>2018-08-16T16:30:37.000Z</time>
      </trkpt>
      <trkpt lat="48.83913720957934856414794921875" lon="10.4526783339679241180419921875">
        <ele>457.79998779296875</ele>
        <time>2018-08-16T16:30:40.000Z</time>
      </trkpt>
      <trkpt lat="48.8391331024467945098876953125" lon="10.4527960158884525299072265625">
        <ele>457.79998779296875</ele>
        <time>2018-08-16T16:30:42.000Z</time>
      </trkpt>
      <trkpt lat="48.83914072997868061065673828125" lon="10.452861897647380828857421875">
        <ele>457.79998779296875</ele>
        <time>2018-08-16T16:30:43.000Z</time>
      </trkpt>
      <trkpt lat="48.83914961479604244232177734375" lon="10.4529301263391971588134765625">
        <ele>457.79998779296875</ele>
        <time>2018-08-16T16:30:44.000Z</time>
      </trkpt>
      <trkpt lat="48.83916202001273632049560546875" lon="10.45307722873985767364501953125">
        <ele>457.79998779296875</ele>
        <time>2018-08-16T16:30:46.000Z</time>
      </trkpt>
      <trkpt lat="48.83919286541640758514404296875" lon="10.45344251208007335662841796875">
        <ele>458</ele>
        <time>2018-08-16T16:30:51.000Z</time>
      </trkpt>
      <trkpt lat="48.83919957093894481658935546875" lon="10.45350403524935245513916015625">
        <ele>458.20001220703125</ele>
        <time>2018-08-16T16:30:52.000Z</time>
      </trkpt>
      <trkpt lat="48.83920460008084774017333984375" lon="10.453561954200267791748046875">
        <ele>458.600006103515625</ele>
        <time>2018-08-16T16:30:53.000Z</time>
      </trkpt>
      <trkpt lat="48.8392185978591442108154296875" lon="10.45362473465502262115478515625">
        <ele>459.20001220703125</ele>
        <time>2018-08-16T16:30:58.000Z</time>
      </trkpt>
      <trkpt lat="48.83922236971557140350341796875" lon="10.4536050371825695037841796875">
        <ele>459.20001220703125</ele>
        <time>2018-08-16T16:30:59.000Z</time>
      </trkpt>
      <trkpt lat="48.839219771325588226318359375" lon="10.45355332084000110626220703125">
        <ele>459.20001220703125</ele>
        <time>2018-08-16T16:31:01.000Z</time>
      </trkpt>
      <trkpt lat="48.839215748012065887451171875" lon="10.45352264307439327239990234375">
        <ele>459.20001220703125</ele>
        <time>2018-08-16T16:31:02.000Z</time>
      </trkpt>
      <trkpt lat="48.83921734057366847991943359375" lon="10.453495569527149200439453125">
        <ele>459.20001220703125</ele>
        <time>2018-08-16T16:31:03.000Z</time>
      </trkpt>
      <trkpt lat="48.839229159057140350341796875" lon="10.453472770750522613525390625">
        <ele>459.20001220703125</ele>
        <time>2018-08-16T16:31:04.000Z</time>
      </trkpt>
      <trkpt lat="48.83924894034862518310546875" lon="10.45345458202064037322998046875">
        <ele>459.20001220703125</ele>
        <time>2018-08-16T16:31:05.000Z</time>
      </trkpt>
      <trkpt lat="48.8393050990998744964599609375" lon="10.453424490988254547119140625">
        <ele>459.20001220703125</ele>
        <time>2018-08-16T16:31:07.000Z</time>
      </trkpt>
      <trkpt lat="48.8393761776387691497802734375" lon="10.45338928699493408203125">
        <ele>459.20001220703125</ele>
        <time>2018-08-16T16:31:09.000Z</time>
      </trkpt>
      <trkpt lat="48.83945790119469165802001953125" lon="10.45335517264902591705322265625">
        <ele>459.20001220703125</ele>
        <time>2018-08-16T16:31:11.000Z</time>
      </trkpt>
      <trkpt lat="48.8394985534250736236572265625" lon="10.45335098169744014739990234375">
        <ele>459.20001220703125</ele>
        <time>2018-08-16T16:31:12.000Z</time>
      </trkpt>
      <trkpt lat="48.839611709117889404296875" lon="10.4534457810223102569580078125">
        <ele>459.399993896484375</ele>
        <time>2018-08-16T16:31:15.000Z</time>
      </trkpt>
      <trkpt lat="48.8396373577415943145751953125" lon="10.45351057313382625579833984375">
        <ele>459.399993896484375</ele>
        <time>2018-08-16T16:31:16.000Z</time>
      </trkpt>
      <trkpt lat="48.8396625034511089324951171875" lon="10.45357896946370601654052734375">
        <ele>459.399993896484375</ele>
        <time>2018-08-16T16:31:17.000Z</time>
      </trkpt>
      <trkpt lat="48.83971941657364368438720703125" lon="10.45371861197054386138916015625">
        <ele>459.399993896484375</ele>
        <time>2018-08-16T16:31:19.000Z</time>
      </trkpt>
      <trkpt lat="48.83975428529083728790283203125" lon="10.45377862639725208282470703125">
        <ele>459.600006103515625</ele>
        <time>2018-08-16T16:31:20.000Z</time>
      </trkpt>
      <trkpt lat="48.83989493362605571746826171875" lon="10.454033352434635162353515625">
        <ele>459.600006103515625</ele>
        <time>2018-08-16T16:31:24.000Z</time>
      </trkpt>
      <trkpt lat="48.839931227266788482666015625" lon="10.45410317368805408477783203125">
        <ele>459.600006103515625</ele>
        <time>2018-08-16T16:31:25.000Z</time>
      </trkpt>
      <trkpt lat="48.840100876986980438232421875" lon="10.4544499330222606658935546875">
        <ele>459.399993896484375</ele>
        <time>2018-08-16T16:31:30.000Z</time>
      </trkpt>
      <trkpt lat="48.8401114381849765777587890625" lon="10.4545015655457973480224609375">
        <ele>459.399993896484375</ele>
        <time>2018-08-16T16:31:31.000Z</time>
      </trkpt>
      <trkpt lat="48.8400638289749622344970703125" lon="10.4546373523771762847900390625">
        <ele>458.79998779296875</ele>
        <time>2018-08-16T16:31:34.000Z</time>
      </trkpt>
      <trkpt lat="48.840053267776966094970703125" lon="10.4547027312219142913818359375">
        <ele>458.600006103515625</ele>
        <time>2018-08-16T16:31:35.000Z</time>
      </trkpt>
      <trkpt lat="48.8400514237582683563232421875" lon="10.454774312674999237060546875">
        <ele>458.399993896484375</ele>
        <time>2018-08-16T16:31:36.000Z</time>
      </trkpt>
      <trkpt lat="48.8401322253048419952392578125" lon="10.45508167706429958343505859375">
        <ele>457.79998779296875</ele>
        <time>2018-08-16T16:31:40.000Z</time>
      </trkpt>
      <trkpt lat="48.84017941541969776153564453125" lon="10.45525417663156986236572265625">
        <ele>457.600006103515625</ele>
        <time>2018-08-16T16:31:42.000Z</time>
      </trkpt>
      <trkpt lat="48.84022300131618976593017578125" lon="10.45543522574007511138916015625">
        <ele>457.600006103515625</ele>
        <time>2018-08-16T16:31:44.000Z</time>
      </trkpt>
      <trkpt lat="48.8402753882110118865966796875" lon="10.4556141793727874755859375">
        <ele>457.399993896484375</ele>
        <time>2018-08-16T16:31:46.000Z</time>
      </trkpt>
      <trkpt lat="48.84030128829181194305419921875" lon="10.45570244081318378448486328125">
        <ele>457.399993896484375</ele>
        <time>2018-08-16T16:31:47.000Z</time>
      </trkpt>
      <trkpt lat="48.8403303734958171844482421875" lon="10.45578760094940662384033203125">
        <ele>457.399993896484375</ele>
        <time>2018-08-16T16:31:48.000Z</time>
      </trkpt>
      <trkpt lat="48.84046305902302265167236328125" lon="10.45599832199513912200927734375">
        <ele>457.20001220703125</ele>
        <time>2018-08-16T16:31:51.000Z</time>
      </trkpt>
      <trkpt lat="48.84051628410816192626953125" lon="10.45605481602251529693603515625">
        <ele>457.20001220703125</ele>
        <time>2018-08-16T16:31:52.000Z</time>
      </trkpt>
      <trkpt lat="48.84061778895556926727294921875" lon="10.4561749286949634552001953125">
        <ele>457</ele>
        <time>2018-08-16T16:31:54.000Z</time>
      </trkpt>
      <trkpt lat="48.84075634181499481201171875" lon="10.4565041698515415191650390625">
        <ele>456.79998779296875</ele>
        <time>2018-08-16T16:31:58.000Z</time>
      </trkpt>
      <trkpt lat="48.84085264988243579864501953125" lon="10.45677264221012592315673828125">
        <ele>456.79998779296875</ele>
        <time>2018-08-16T16:32:01.000Z</time>
      </trkpt>
      <trkpt lat="48.841122128069400787353515625" lon="10.4570546932518482208251953125">
        <ele>456.79998779296875</ele>
        <time>2018-08-16T16:32:06.000Z</time>
      </trkpt>
      <trkpt lat="48.841333352029323577880859375" lon="10.4572154581546783447265625">
        <ele>457</ele>
        <time>2018-08-16T16:32:10.000Z</time>
      </trkpt>
      <trkpt lat="48.84137148968875408172607421875" lon="10.45726533047854900360107421875">
        <ele>457</ele>
        <time>2018-08-16T16:32:11.000Z</time>
      </trkpt>
      <trkpt lat="48.841374926269054412841796875" lon="10.4576112516224384307861328125">
        <ele>457.20001220703125</ele>
        <time>2018-08-16T16:32:15.000Z</time>
      </trkpt>
      <trkpt lat="48.84134064428508281707763671875" lon="10.45791023410856723785400390625">
        <ele>457.399993896484375</ele>
        <time>2018-08-16T16:32:18.000Z</time>
      </trkpt>
      <trkpt lat="48.84133209474384784698486328125" lon="10.45812648721039295196533203125">
        <ele>457.399993896484375</ele>
        <time>2018-08-16T16:32:20.000Z</time>
      </trkpt>
      <trkpt lat="48.84140350855886936187744140625" lon="10.458558909595012664794921875">
        <ele>457</ele>
        <time>2018-08-16T16:32:24.000Z</time>
      </trkpt>
      <trkpt lat="48.8414458371698856353759765625" lon="10.45864901505410671234130859375">
        <ele>457</ele>
        <time>2018-08-16T16:32:25.000Z</time>
      </trkpt>
      <trkpt lat="48.84149260818958282470703125" lon="10.45873400755226612091064453125">
        <ele>456.79998779296875</ele>
        <time>2018-08-16T16:32:26.000Z</time>
      </trkpt>
      <trkpt lat="48.84172554127871990203857421875" lon="10.45917456038296222686767578125">
        <ele>456</ele>
        <time>2018-08-16T16:32:31.000Z</time>
      </trkpt>
      <trkpt lat="48.84181137196719646453857421875" lon="10.459356196224689483642578125">
        <ele>456</ele>
        <time>2018-08-16T16:32:33.000Z</time>
      </trkpt>
      <trkpt lat="48.84188915602862834930419921875" lon="10.4596825875341892242431640625">
        <ele>455.600006103515625</ele>
        <time>2018-08-16T16:32:36.000Z</time>
      </trkpt>
      <trkpt lat="48.84195202030241489410400390625" lon="10.46002398245036602020263671875">
        <ele>455.399993896484375</ele>
        <time>2018-08-16T16:32:39.000Z</time>
      </trkpt>
      <trkpt lat="48.84208445437252521514892578125" lon="10.46079612337052822113037109375">
        <ele>455</ele>
        <time>2018-08-16T16:32:46.000Z</time>
      </trkpt>
      <trkpt lat="48.84202393703162670135498046875" lon="10.461235754191875457763671875">
        <ele>455</ele>
        <time>2018-08-16T16:32:50.000Z</time>
      </trkpt>
      <trkpt lat="48.84209920652210712432861328125" lon="10.46166725456714630126953125">
        <ele>455</ele>
        <time>2018-08-16T16:32:54.000Z</time>
      </trkpt>
      <trkpt lat="48.84236793033778667449951171875" lon="10.46238063834607601165771484375">
        <ele>455.20001220703125</ele>
        <time>2018-08-16T16:33:01.000Z</time>
      </trkpt>
      <trkpt lat="48.84272734634578227996826171875" lon="10.46303492970764636993408203125">
        <ele>455.20001220703125</ele>
        <time>2018-08-16T16:33:08.000Z</time>
      </trkpt>
      <trkpt lat="48.8428915478289127349853515625" lon="10.4633109457790851593017578125">
        <ele>455.399993896484375</ele>
        <time>2018-08-16T16:33:11.000Z</time>
      </trkpt>
      <trkpt lat="48.84330041706562042236328125" lon="10.463913939893245697021484375">
        <ele>455.20001220703125</ele>
        <time>2018-08-16T16:33:18.000Z</time>
      </trkpt>
      <trkpt lat="48.84372889995574951171875" lon="10.4645055346190929412841796875">
        <ele>455.20001220703125</ele>
        <time>2018-08-16T16:33:25.000Z</time>
      </trkpt>
      <trkpt lat="48.8440573029220104217529296875" lon="10.46487056650221347808837890625">
        <ele>455.20001220703125</ele>
        <time>2018-08-16T16:33:30.000Z</time>
      </trkpt>
      <trkpt lat="48.84445569477975368499755859375" lon="10.46533190645277500152587890625">
        <ele>455</ele>
        <time>2018-08-16T16:33:37.000Z</time>
      </trkpt>
      <trkpt lat="48.84445921517908573150634765625" lon="10.4654687829315662384033203125">
        <ele>455</ele>
        <time>2018-08-16T16:33:39.000Z</time>
      </trkpt>
      <trkpt lat="48.84440389461815357208251953125" lon="10.46561722643673419952392578125">
        <ele>454.79998779296875</ele>
        <time>2018-08-16T16:33:41.000Z</time>
      </trkpt>
      <trkpt lat="48.84412310086190700531005859375" lon="10.46631996519863605499267578125">
        <ele>454.399993896484375</ele>
        <time>2018-08-16T16:33:49.000Z</time>
      </trkpt>
      <trkpt lat="48.84405101649463176727294921875" lon="10.46650503762066364288330078125">
        <ele>454.20001220703125</ele>
        <time>2018-08-16T16:33:51.000Z</time>
      </trkpt>
      <trkpt lat="48.8440254516899585723876953125" lon="10.46660763211548328399658203125">
        <ele>454</ele>
        <time>2018-08-16T16:33:52.000Z</time>
      </trkpt>
      <trkpt lat="48.84399552829563617706298828125" lon="10.4669366218149662017822265625">
        <ele>454</ele>
        <time>2018-08-16T16:33:55.000Z</time>
      </trkpt>
      <trkpt lat="48.843969292938709259033203125" lon="10.4678475670516490936279296875">
        <ele>453.600006103515625</ele>
        <time>2018-08-16T16:34:03.000Z</time>
      </trkpt>
      <trkpt lat="48.84398530237376689910888671875" lon="10.46807697974145412445068359375">
        <ele>453.600006103515625</ele>
        <time>2018-08-16T16:34:05.000Z</time>
      </trkpt>
      <trkpt lat="48.844142965972423553466796875" lon="10.4689626954495906829833984375">
        <ele>453.399993896484375</ele>
        <time>2018-08-16T16:34:13.000Z</time>
      </trkpt>
      <trkpt lat="48.844222091138362884521484375" lon="10.46963031403720378875732421875">
        <ele>453.399993896484375</ele>
        <time>2018-08-16T16:34:19.000Z</time>
      </trkpt>
      <trkpt lat="48.8441129587590694427490234375" lon="10.47001873143017292022705078125">
        <ele>453.20001220703125</ele>
        <time>2018-08-16T16:34:23.000Z</time>
      </trkpt>
      <trkpt lat="48.84407616220414638519287109375" lon="10.47011612914502620697021484375">
        <ele>453.20001220703125</ele>
        <time>2018-08-16T16:34:24.000Z</time>
      </trkpt>
      <trkpt lat="48.84399234317243099212646484375" lon="10.4704335518181324005126953125">
        <ele>453.20001220703125</ele>
        <time>2018-08-16T16:34:27.000Z</time>
      </trkpt>
      <trkpt lat="48.84393274784088134765625" lon="10.47076974995434284210205078125">
        <ele>453.20001220703125</ele>
        <time>2018-08-16T16:34:30.000Z</time>
      </trkpt>
      <trkpt lat="48.8439731486141681671142578125" lon="10.47136905603110790252685546875">
        <ele>452.79998779296875</ele>
        <time>2018-08-16T16:34:35.000Z</time>
      </trkpt>
      <trkpt lat="48.84394414722919464111328125" lon="10.47173216007649898529052734375">
        <ele>452.600006103515625</ele>
        <time>2018-08-16T16:34:38.000Z</time>
      </trkpt>
      <trkpt lat="48.84377256967127323150634765625" lon="10.47226558439433574676513671875">
        <ele>452.600006103515625</ele>
        <time>2018-08-16T16:34:43.000Z</time>
      </trkpt>
      <trkpt lat="48.84357006289064884185791015625" lon="10.472773946821689605712890625">
        <ele>452.600006103515625</ele>
        <time>2018-08-16T16:34:49.000Z</time>
      </trkpt>
      <trkpt lat="48.84379536844789981842041015625" lon="10.47316730953752994537353515625">
        <ele>453</ele>
        <time>2018-08-16T16:34:55.000Z</time>
      </trkpt>
      <trkpt lat="48.84412863291800022125244140625" lon="10.4734932817518711090087890625">
        <ele>453.20001220703125</ele>
        <time>2018-08-16T16:35:01.000Z</time>
      </trkpt>
      <trkpt lat="48.8442903198301792144775390625" lon="10.47365128062665462493896484375">
        <ele>453.20001220703125</ele>
        <time>2018-08-16T16:35:04.000Z</time>
      </trkpt>
      <trkpt lat="48.84482298977673053741455078125" lon="10.473963506519794464111328125">
        <ele>453.79998779296875</ele>
        <time>2018-08-16T16:35:12.000Z</time>
      </trkpt>
      <trkpt lat="48.84503404609858989715576171875" lon="10.47407205216586589813232421875">
        <ele>454</ele>
        <time>2018-08-16T16:35:15.000Z</time>
      </trkpt>
      <trkpt lat="48.84524292312562465667724609375" lon="10.47417380847036838531494140625">
        <ele>454</ele>
        <time>2018-08-16T16:35:18.000Z</time>
      </trkpt>
      <trkpt lat="48.84579579345881938934326171875" lon="10.474436245858669281005859375">
        <ele>453.79998779296875</ele>
        <time>2018-08-16T16:35:26.000Z</time>
      </trkpt>
      <trkpt lat="48.84621690027415752410888671875" lon="10.4746657423675060272216796875">
        <ele>453.79998779296875</ele>
        <time>2018-08-16T16:35:32.000Z</time>
      </trkpt>
      <trkpt lat="48.84669131599366664886474609375" lon="10.47523093409836292266845703125">
        <ele>453.600006103515625</ele>
        <time>2018-08-16T16:35:40.000Z</time>
      </trkpt>
      <trkpt lat="48.846953921020030975341796875" lon="10.47563578002154827117919921875">
        <ele>453.600006103515625</ele>
        <time>2018-08-16T16:35:45.000Z</time>
      </trkpt>
      <trkpt lat="48.84720143862068653106689453125" lon="10.47606258653104305267333984375">
        <ele>453.600006103515625</ele>
        <time>2018-08-16T16:35:50.000Z</time>
      </trkpt>
      <trkpt lat="48.847380392253398895263671875" lon="10.47640523873269557952880859375">
        <ele>453.600006103515625</ele>
        <time>2018-08-16T16:35:54.000Z</time>
      </trkpt>
      <trkpt lat="48.8474781252443790435791015625" lon="10.47654815018177032470703125">
        <ele>453.600006103515625</ele>
        <time>2018-08-16T16:35:56.000Z</time>
      </trkpt>
      <trkpt lat="48.84773813188076019287109375" lon="10.47669877298176288604736328125">
        <ele>453.79998779296875</ele>
        <time>2018-08-16T16:36:00.000Z</time>
      </trkpt>
      <trkpt lat="48.847953714430332183837890625" lon="10.4768192209303379058837890625">
        <ele>453.79998779296875</ele>
        <time>2018-08-16T16:36:03.000Z</time>
      </trkpt>
      <trkpt lat="48.84847146458923816680908203125" lon="10.47711946070194244384765625">
        <ele>453.79998779296875</ele>
        <time>2018-08-16T16:36:10.000Z</time>
      </trkpt>
      <trkpt lat="48.8488108478486537933349609375" lon="10.477270670235157012939453125">
        <ele>453.79998779296875</ele>
        <time>2018-08-16T16:36:15.000Z</time>
      </trkpt>
      <trkpt lat="48.84892459027469158172607421875" lon="10.47739899717271327972412109375">
        <ele>453.79998779296875</ele>
        <time>2018-08-16T16:36:17.000Z</time>
      </trkpt>
      <trkpt lat="48.849016539752483367919921875" lon="10.477571748197078704833984375">
        <ele>454</ele>
        <time>2018-08-16T16:36:19.000Z</time>
      </trkpt>
      <trkpt lat="48.84910094551742076873779296875" lon="10.47801087610423564910888671875">
        <ele>454.20001220703125</ele>
        <time>2018-08-16T16:36:23.000Z</time>
      </trkpt>
      <trkpt lat="48.8491062261164188385009765625" lon="10.4781267978250980377197265625">
        <ele>454.20001220703125</ele>
        <time>2018-08-16T16:36:24.000Z</time>
      </trkpt>
      <trkpt lat="48.8490978442132472991943359375" lon="10.47859643585979938507080078125">
        <ele>454.399993896484375</ele>
        <time>2018-08-16T16:36:28.000Z</time>
      </trkpt>
      <trkpt lat="48.849115110933780670166015625" lon="10.47881738282740116119384765625">
        <ele>454.399993896484375</ele>
        <time>2018-08-16T16:36:30.000Z</time>
      </trkpt>
      <trkpt lat="48.84912005625665187835693359375" lon="10.4789049737155437469482421875">
        <ele>454.20001220703125</ele>
        <time>2018-08-16T16:36:31.000Z</time>
      </trkpt>
      <trkpt lat="48.84912458248436450958251953125" lon="10.4789857752621173858642578125">
        <ele>454.20001220703125</ele>
        <time>2018-08-16T16:36:32.000Z</time>
      </trkpt>
      <trkpt lat="48.849122487008571624755859375" lon="10.47906330786645412445068359375">
        <ele>454</ele>
        <time>2018-08-16T16:36:33.000Z</time>
      </trkpt>
      <trkpt lat="48.84908703155815601348876953125" lon="10.47930386848747730255126953125">
        <ele>453.600006103515625</ele>
        <time>2018-08-16T16:36:36.000Z</time>
      </trkpt>
      <trkpt lat="48.84906859137117862701416015625" lon="10.47939120791852474212646484375">
        <ele>453.20001220703125</ele>
        <time>2018-08-16T16:36:37.000Z</time>
      </trkpt>
      <trkpt lat="48.84904881007969379425048828125" lon="10.47947737388312816619873046875">
        <ele>453</ele>
        <time>2018-08-16T16:36:38.000Z</time>
      </trkpt>
      <trkpt lat="48.84902550838887691497802734375" lon="10.47956421039998531341552734375">
        <ele>452.600006103515625</ele>
        <time>2018-08-16T16:36:39.000Z</time>
      </trkpt>
      <trkpt lat="48.84900279343128204345703125" lon="10.47965389676392078399658203125">
        <ele>452.600006103515625</ele>
        <time>2018-08-16T16:36:40.000Z</time>
      </trkpt>
      <trkpt lat="48.848926685750484466552734375" lon="10.479944832623004913330078125">
        <ele>452.399993896484375</ele>
        <time>2018-08-16T16:36:43.000Z</time>
      </trkpt>
      <trkpt lat="48.84881637990474700927734375" lon="10.48049979843199253082275390625">
        <ele>452.399993896484375</ele>
        <time>2018-08-16T16:36:48.000Z</time>
      </trkpt>
      <trkpt lat="48.84878980927169322967529296875" lon="10.48139314167201519012451171875">
        <ele>453.600006103515625</ele>
        <time>2018-08-16T16:36:56.000Z</time>
      </trkpt>
      <trkpt lat="48.848790563642978668212890625" lon="10.48149724490940570831298828125">
        <ele>453.600006103515625</ele>
        <time>2018-08-16T16:36:57.000Z</time>
      </trkpt>
      <trkpt lat="48.848807327449321746826171875" lon="10.4822047613561153411865234375">
        <ele>454.600006103515625</ele>
        <time>2018-08-16T16:37:04.000Z</time>
      </trkpt>
      <trkpt lat="48.84879685007035732269287109375" lon="10.48249234445393085479736328125">
        <ele>455</ele>
        <time>2018-08-16T16:37:07.000Z</time>
      </trkpt>
      <trkpt lat="48.84857556782662868499755859375" lon="10.48304839991033077239990234375">
        <ele>455.79998779296875</ele>
        <time>2018-08-16T16:37:17.000Z</time>
      </trkpt>
      <trkpt lat="48.8485962711274623870849609375" lon="10.48313255421817302703857421875">
        <ele>456.20001220703125</ele>
        <time>2018-08-16T16:37:18.000Z</time>
      </trkpt>
      <trkpt lat="48.8486465625464916229248046875" lon="10.4833106696605682373046875">
        <ele>456.399993896484375</ele>
        <time>2018-08-16T16:37:20.000Z</time>
      </trkpt>
      <trkpt lat="48.84878947399556636810302734375" lon="10.48376061022281646728515625">
        <ele>456.399993896484375</ele>
        <time>2018-08-16T16:37:25.000Z</time>
      </trkpt>
      <trkpt lat="48.84884345345199108123779296875" lon="10.4839289188385009765625">
        <ele>456.399993896484375</ele>
        <time>2018-08-16T16:37:27.000Z</time>
      </trkpt>
      <trkpt lat="48.848869688808917999267578125" lon="10.4840139113366603851318359375">
        <ele>456.399993896484375</ele>
        <time>2018-08-16T16:37:28.000Z</time>
      </trkpt>
      <trkpt lat="48.84891092777252197265625" lon="10.48420091159641742706298828125">
        <ele>456.399993896484375</ele>
        <time>2018-08-16T16:37:30.000Z</time>
      </trkpt>
      <trkpt lat="48.84894110262393951416015625" lon="10.48429344780743122100830078125">
        <ele>456.20001220703125</ele>
        <time>2018-08-16T16:37:31.000Z</time>
      </trkpt>
      <trkpt lat="48.84907579980790615081787109375" lon="10.48464565537869930267333984375">
        <ele>455.399993896484375</ele>
        <time>2018-08-16T16:37:35.000Z</time>
      </trkpt>
      <trkpt lat="48.84912458248436450958251953125" lon="10.484725534915924072265625">
        <ele>455.20001220703125</ele>
        <time>2018-08-16T16:37:36.000Z</time>
      </trkpt>
      <trkpt lat="48.84916733019053936004638671875" lon="10.484802983701229095458984375">
        <ele>455</ele>
        <time>2018-08-16T16:37:37.000Z</time>
      </trkpt>
      <trkpt lat="48.8492560945451259613037109375" lon="10.484960563480854034423828125">
        <ele>454.600006103515625</ele>
        <time>2018-08-16T16:37:39.000Z</time>
      </trkpt>
      <trkpt lat="48.84929708205163478851318359375" lon="10.4850418679416179656982421875">
        <ele>454.399993896484375</ele>
        <time>2018-08-16T16:37:40.000Z</time>
      </trkpt>
      <trkpt lat="48.84941660799086093902587890625" lon="10.48527932725846767425537109375">
        <ele>453.79998779296875</ele>
        <time>2018-08-16T16:37:43.000Z</time>
      </trkpt>
      <trkpt lat="48.8497858308255672454833984375" lon="10.48595909960567951202392578125">
        <ele>453.20001220703125</ele>
        <time>2018-08-16T16:37:53.000Z</time>
      </trkpt>
      <trkpt lat="48.8498485274612903594970703125" lon="10.48605599440634250640869140625">
        <ele>453.20001220703125</ele>
        <time>2018-08-16T16:37:55.000Z</time>
      </trkpt>
      <trkpt lat="48.84978122077882289886474609375" lon="10.48633662052452564239501953125">
        <ele>453</ele>
        <time>2018-08-16T16:38:00.000Z</time>
      </trkpt>
      <trkpt lat="48.84972204454243183135986328125" lon="10.48642412759363651275634765625">
        <ele>453</ele>
        <time>2018-08-16T16:38:02.000Z</time>
      </trkpt>
      <trkpt lat="48.84969555772840976715087890625" lon="10.48647609539330005645751953125">
        <ele>453</ele>
        <time>2018-08-16T16:38:03.000Z</time>
      </trkpt>
      <trkpt lat="48.84964660741388797760009765625" lon="10.48659545369446277618408203125">
        <ele>453</ele>
        <time>2018-08-16T16:38:05.000Z</time>
      </trkpt>
      <trkpt lat="48.8495987467467784881591796875" lon="10.48672570846974849700927734375">
        <ele>453.20001220703125</ele>
        <time>2018-08-16T16:38:07.000Z</time>
      </trkpt>
      <trkpt lat="48.84957469068467617034912109375" lon="10.4867936857044696807861328125">
        <ele>453.20001220703125</ele>
        <time>2018-08-16T16:38:08.000Z</time>
      </trkpt>
      <trkpt lat="48.849522136151790618896484375" lon="10.48693693242967128753662109375">
        <ele>453.20001220703125</ele>
        <time>2018-08-16T16:38:10.000Z</time>
      </trkpt>
      <trkpt lat="48.84938173927366733551025390625" lon="10.4873160459101200103759765625">
        <ele>453.600006103515625</ele>
        <time>2018-08-16T16:38:15.000Z</time>
      </trkpt>
      <trkpt lat="48.84932457469403743743896484375" lon="10.48747873865067958831787109375">
        <ele>453.79998779296875</ele>
        <time>2018-08-16T16:38:17.000Z</time>
      </trkpt>
      <trkpt lat="48.84928886778652667999267578125" lon="10.48765023238956928253173828125">
        <ele>453.79998779296875</ele>
        <time>2018-08-16T16:38:19.000Z</time>
      </trkpt>
      <trkpt lat="48.84921762160956859588623046875" lon="10.48824794590473175048828125">
        <ele>454.79998779296875</ele>
        <time>2018-08-16T16:38:26.000Z</time>
      </trkpt>
      <trkpt lat="48.84921041317284107208251953125" lon="10.48841298557817935943603515625">
        <ele>455</ele>
        <time>2018-08-16T16:38:28.000Z</time>
      </trkpt>
      <trkpt lat="48.8492111675441265106201171875" lon="10.488814227283000946044921875">
        <ele>455.600006103515625</ele>
        <time>2018-08-16T16:38:33.000Z</time>
      </trkpt>
      <trkpt lat="48.8492326252162456512451171875" lon="10.48907549120485782623291015625">
        <ele>456</ele>
        <time>2018-08-16T16:38:36.000Z</time>
      </trkpt>
      <trkpt lat="48.8493025302886962890625" lon="10.48940925858914852142333984375">
        <ele>456.79998779296875</ele>
        <time>2018-08-16T16:38:40.000Z</time>
      </trkpt>
      <trkpt lat="48.84933941066265106201171875" lon="10.48955040983855724334716796875">
        <ele>457</ele>
        <time>2018-08-16T16:38:42.000Z</time>
      </trkpt>
      <trkpt lat="48.84938945062458515167236328125" lon="10.48972575925290584564208984375">
        <ele>457.20001220703125</ele>
        <time>2018-08-16T16:38:45.000Z</time>
      </trkpt>
      <trkpt lat="48.849438317120075225830078125" lon="10.48986908979713916778564453125">
        <ele>457.399993896484375</ele>
        <time>2018-08-16T16:38:48.000Z</time>
      </trkpt>
      <trkpt lat="48.8494808971881866455078125" lon="10.4900140129029750823974609375">
        <ele>457.600006103515625</ele>
        <time>2018-08-16T16:38:53.000Z</time>
      </trkpt>
      <trkpt lat="48.8494954816997051239013671875" lon="10.49006505869328975677490234375">
        <ele>457.600006103515625</ele>
        <time>2018-08-16T16:38:55.000Z</time>
      </trkpt>
      <trkpt lat="48.84950243867933750152587890625" lon="10.49009154550731182098388671875">
        <ele>457.600006103515625</ele>
        <time>2018-08-16T16:38:59.000Z</time>
      </trkpt>
      <trkpt lat="48.84952859021723270416259765625" lon="10.49009825102984905242919921875">
        <ele>457.399993896484375</ele>
        <time>2018-08-16T16:39:04.000Z</time>
      </trkpt>
      <trkpt lat="48.84964861907064914703369140625" lon="10.4902148433029651641845703125">
        <ele>457.399993896484375</ele>
        <time>2018-08-16T16:39:10.000Z</time>
      </trkpt>
      <trkpt lat="48.84969941340386867523193359375" lon="10.49026764929294586181640625">
        <ele>457.399993896484375</ele>
        <time>2018-08-16T16:39:12.000Z</time>
      </trkpt>
      <trkpt lat="48.84972372092306613922119140625" lon="10.49029178917407989501953125">
        <ele>457.399993896484375</ele>
        <time>2018-08-16T16:39:13.000Z</time>
      </trkpt>
      <trkpt lat="48.84988867677748203277587890625" lon="10.49048465676605701446533203125">
        <ele>457.399993896484375</ele>
        <time>2018-08-16T16:39:20.000Z</time>
      </trkpt>
      <trkpt lat="48.8499118946492671966552734375" lon="10.4905097186565399169921875">
        <ele>457.399993896484375</ele>
        <time>2018-08-16T16:39:21.000Z</time>
      </trkpt>
      <trkpt lat="48.85000384412705898284912109375" lon="10.49061834812164306640625">
        <ele>457.399993896484375</ele>
        <time>2018-08-16T16:39:28.000Z</time>
      </trkpt>
      <trkpt lat="48.8500054366886615753173828125" lon="10.4906215332448482513427734375">
        <ele>457.20001220703125</ele>
        <time>2018-08-16T16:39:30.000Z</time>
      </trkpt>
      <trkpt lat="48.8500292412936687469482421875" lon="10.49063653685152530670166015625">
        <ele>457</ele>
        <time>2018-08-16T16:39:37.000Z</time>
      </trkpt>
      <trkpt lat="48.85004759766161441802978515625" lon="10.49065388739109039306640625">
        <ele>457</ele>
        <time>2018-08-16T16:39:38.000Z</time>
      </trkpt>
      <trkpt lat="48.85021272115409374237060546875" lon="10.4908324219286441802978515625">
        <ele>456.79998779296875</ele>
        <time>2018-08-16T16:39:44.000Z</time>
      </trkpt>
      <trkpt lat="48.850401230156421661376953125" lon="10.490993522107601165771484375">
        <ele>456.399993896484375</ele>
        <time>2018-08-16T16:39:52.000Z</time>
      </trkpt>
      <trkpt lat="48.85042713023722171783447265625" lon="10.49101254902780055999755859375">
        <ele>456.399993896484375</ele>
        <time>2018-08-16T16:39:53.000Z</time>
      </trkpt>
      <trkpt lat="48.85045629926025867462158203125" lon="10.49103677272796630859375">
        <ele>456.399993896484375</ele>
        <time>2018-08-16T16:39:54.000Z</time>
      </trkpt>
      <trkpt lat="48.85049066506326198577880859375" lon="10.4910651035606861114501953125">
        <ele>456.20001220703125</ele>
        <time>2018-08-16T16:39:55.000Z</time>
      </trkpt>
      <trkpt lat="48.85052938945591449737548828125" lon="10.49109016545116901397705078125">
        <ele>456.20001220703125</ele>
        <time>2018-08-16T16:39:56.000Z</time>
      </trkpt>
      <trkpt lat="48.85056652128696441650390625" lon="10.4911184124648571014404296875">
        <ele>456</ele>
        <time>2018-08-16T16:39:57.000Z</time>
      </trkpt>
      <trkpt lat="48.85064388625323772430419921875" lon="10.4911985434591770172119140625">
        <ele>455.600006103515625</ele>
        <time>2018-08-16T16:40:01.000Z</time>
      </trkpt>
      <trkpt lat="48.85064757429063320159912109375" lon="10.491200052201747894287109375">
        <ele>455.600006103515625</ele>
        <time>2018-08-16T16:40:03.000Z</time>
      </trkpt>
      <trkpt lat="48.850766681134700775146484375" lon="10.49121916294097900390625">
        <ele>455.79998779296875</ele>
        <time>2018-08-16T16:56:35.000Z</time>
      </trkpt>
      <trkpt lat="48.850786127150058746337890625" lon="10.4912419617176055908203125">
        <ele>455.79998779296875</ele>
        <time>2018-08-16T16:56:36.000Z</time>
      </trkpt>
      <trkpt lat="48.8508308865129947662353515625" lon="10.49127657897770404815673828125">
        <ele>455.79998779296875</ele>
        <time>2018-08-16T16:56:38.000Z</time>
      </trkpt>
      <trkpt lat="48.850914202630519866943359375" lon="10.49132536165416240692138671875">
        <ele>455.79998779296875</ele>
        <time>2018-08-16T16:56:41.000Z</time>
      </trkpt>
      <trkpt lat="48.8511279411613941192626953125" lon="10.4913132078945636749267578125">
        <ele>455.600006103515625</ele>
        <time>2018-08-16T16:56:47.000Z</time>
      </trkpt>
      <trkpt lat="48.851172029972076416015625" lon="10.49130432307720184326171875">
        <ele>455.399993896484375</ele>
        <time>2018-08-16T16:56:48.000Z</time>
      </trkpt>
      <trkpt lat="48.85121762752532958984375" lon="10.491296611726284027099609375">
        <ele>455.20001220703125</ele>
        <time>2018-08-16T16:56:49.000Z</time>
      </trkpt>
      <trkpt lat="48.85126062668859958648681640625" lon="10.491281189024448394775390625">
        <ele>455.20001220703125</ele>
        <time>2018-08-16T16:56:50.000Z</time>
      </trkpt>
      <trkpt lat="48.85144553147256374359130859375" lon="10.49122528173029422760009765625">
        <ele>454.79998779296875</ele>
        <time>2018-08-16T16:56:54.000Z</time>
      </trkpt>
      <trkpt lat="48.85149699635803699493408203125" lon="10.4912186600267887115478515625">
        <ele>454.79998779296875</ele>
        <time>2018-08-16T16:56:55.000Z</time>
      </trkpt>
      <trkpt lat="48.8517069630324840545654296875" lon="10.49119980074465274810791015625">
        <ele>454.399993896484375</ele>
        <time>2018-08-16T16:56:59.000Z</time>
      </trkpt>
      <trkpt lat="48.85180846787989139556884765625" lon="10.49117834307253360748291015625">
        <ele>454.20001220703125</ele>
        <time>2018-08-16T16:57:01.000Z</time>
      </trkpt>
      <trkpt lat="48.85190838016569614410400390625" lon="10.49115118570625782012939453125">
        <ele>454</ele>
        <time>2018-08-16T16:57:03.000Z</time>
      </trkpt>
      <trkpt lat="48.8520060293376445770263671875" lon="10.4911274649202823638916015625">
        <ele>453.79998779296875</ele>
        <time>2018-08-16T16:57:05.000Z</time>
      </trkpt>
      <trkpt lat="48.85205942206084728240966796875" lon="10.49111363478004932403564453125">
        <ele>453.79998779296875</ele>
        <time>2018-08-16T16:57:06.000Z</time>
      </trkpt>
      <trkpt lat="48.85210971347987651824951171875" lon="10.49109385348856449127197265625">
        <ele>453.79998779296875</ele>
        <time>2018-08-16T16:57:07.000Z</time>
      </trkpt>
      <trkpt lat="48.85215883143246173858642578125" lon="10.491074658930301666259765625">
        <ele>453.79998779296875</ele>
        <time>2018-08-16T16:57:08.000Z</time>
      </trkpt>
      <trkpt lat="48.85236351750791072845458984375" lon="10.49100684933364391326904296875">
        <ele>453.600006103515625</ele>
        <time>2018-08-16T16:57:12.000Z</time>
      </trkpt>
      <trkpt lat="48.85260391049087047576904296875" lon="10.49090626649558544158935546875">
        <ele>453.399993896484375</ele>
        <time>2018-08-16T16:57:17.000Z</time>
      </trkpt>
      <trkpt lat="48.8526514358818531036376953125" lon="10.4908837191760540008544921875">
        <ele>453.399993896484375</ele>
        <time>2018-08-16T16:57:18.000Z</time>
      </trkpt>
      <trkpt lat="48.85288059711456298828125" lon="10.49112419597804546356201171875">
        <ele>453.20001220703125</ele>
        <time>2018-08-16T16:57:24.000Z</time>
      </trkpt>
      <trkpt lat="48.85306826792657375335693359375" lon="10.49134313128888607025146484375">
        <ele>453</ele>
        <time>2018-08-16T16:57:28.000Z</time>
      </trkpt>
      <trkpt lat="48.85317924432456493377685546875" lon="10.49146450124680995941162109375">
        <ele>453</ele>
        <time>2018-08-16T16:57:30.000Z</time>
      </trkpt>
      <trkpt lat="48.85359833948314189910888671875" lon="10.491989962756633758544921875">
        <ele>452.600006103515625</ele>
        <time>2018-08-16T16:57:38.000Z</time>
      </trkpt>
      <trkpt lat="48.853647373616695404052734375" lon="10.49205743707716464996337890625">
        <ele>452.600006103515625</ele>
        <time>2018-08-16T16:57:39.000Z</time>
      </trkpt>
      <trkpt lat="48.853753320872783660888671875" lon="10.4921929724514484405517578125">
        <ele>452.600006103515625</ele>
        <time>2018-08-16T16:57:41.000Z</time>
      </trkpt>
      <trkpt lat="48.8542163372039794921875" lon="10.4926660470664501190185546875">
        <ele>452.20001220703125</ele>
        <time>2018-08-16T16:57:49.000Z</time>
      </trkpt>
      <trkpt lat="48.854621350765228271484375" lon="10.49296989105641841888427734375">
        <ele>452.20001220703125</ele>
        <time>2018-08-16T16:57:56.000Z</time>
      </trkpt>
      <trkpt lat="48.85497012175619602203369140625" lon="10.493259988725185394287109375">
        <ele>452.20001220703125</ele>
        <time>2018-08-16T16:58:02.000Z</time>
      </trkpt>
      <trkpt lat="48.85544411838054656982421875" lon="10.4936691932380199432373046875">
        <ele>452.79998779296875</ele>
        <time>2018-08-16T16:58:13.000Z</time>
      </trkpt>
      <trkpt lat="48.855479322373867034912109375" lon="10.49369324930012226104736328125">
        <ele>452.79998779296875</ele>
        <time>2018-08-16T16:58:15.000Z</time>
      </trkpt>
      <trkpt lat="48.85553070344030857086181640625" lon="10.4937463067471981048583984375">
        <ele>452.79998779296875</ele>
        <time>2018-08-16T16:58:18.000Z</time>
      </trkpt>
      <trkpt lat="48.85558837093412876129150390625" lon="10.49381579272449016571044921875">
        <ele>452.79998779296875</ele>
        <time>2018-08-16T16:58:23.000Z</time>
      </trkpt>
      <trkpt lat="48.855607397854328155517578125" lon="10.4938572831451892852783203125">
        <ele>453</ele>
        <time>2018-08-16T16:58:27.000Z</time>
      </trkpt>
      <trkpt lat="48.8556338846683502197265625" lon="10.4939012043178081512451171875">
        <ele>453.20001220703125</ele>
        <time>2018-08-16T16:58:35.000Z</time>
      </trkpt>
      <trkpt lat="48.8556491397321224212646484375" lon="10.49393917433917522430419921875">
        <ele>453.399993896484375</ele>
        <time>2018-08-16T16:58:40.000Z</time>
      </trkpt>
      <trkpt lat="48.85565995238721370697021484375" lon="10.49395962618291378021240234375">
        <ele>453.399993896484375</ele>
        <time>2018-08-16T16:58:41.000Z</time>
      </trkpt>
      <trkpt lat="48.85568744502961635589599609375" lon="10.49402014352381229400634765625">
        <ele>453.399993896484375</ele>
        <time>2018-08-16T16:58:43.000Z</time>
      </trkpt>
      <trkpt lat="48.85570236481726169586181640625" lon="10.49406406469643115997314453125">
        <ele>453.399993896484375</ele>
        <time>2018-08-16T16:58:44.000Z</time>
      </trkpt>
      <trkpt lat="48.85572432540357112884521484375" lon="10.49410580657422542572021484375">
        <ele>453.399993896484375</ele>
        <time>2018-08-16T16:58:45.000Z</time>
      </trkpt>
      <trkpt lat="48.855821304023265838623046875" lon="10.49421183764934539794921875">
        <ele>453.600006103515625</ele>
        <time>2018-08-16T16:58:48.000Z</time>
      </trkpt>
      <trkpt lat="48.85589866898953914642333984375" lon="10.49429020844399929046630859375">
        <ele>453.600006103515625</ele>
        <time>2018-08-16T16:58:50.000Z</time>
      </trkpt>
      <trkpt lat="48.85603562928736209869384765625" lon="10.4944445192813873291015625">
        <ele>453.600006103515625</ele>
        <time>2018-08-16T16:58:53.000Z</time>
      </trkpt>
      <trkpt lat="48.85643762536346912384033203125" lon="10.4949144087731838226318359375">
        <ele>453.600006103515625</ele>
        <time>2018-08-16T16:59:00.000Z</time>
      </trkpt>
      <trkpt lat="48.85655966587364673614501953125" lon="10.49505815841257572174072265625">
        <ele>453.399993896484375</ele>
        <time>2018-08-16T16:59:02.000Z</time>
      </trkpt>
      <trkpt lat="48.856741972267627716064453125" lon="10.4952755011618137359619140625">
        <ele>452.600006103515625</ele>
        <time>2018-08-16T16:59:05.000Z</time>
      </trkpt>
      <trkpt lat="48.85710574686527252197265625" lon="10.49571027047932147979736328125">
        <ele>451.79998779296875</ele>
        <time>2018-08-16T16:59:11.000Z</time>
      </trkpt>
      <trkpt lat="48.85756733827292919158935546875" lon="10.49626565538346767425537109375">
        <ele>451.600006103515625</ele>
        <time>2018-08-16T16:59:19.000Z</time>
      </trkpt>
      <trkpt lat="48.85803102515637874603271484375" lon="10.4968425817787647247314453125">
        <ele>451.399993896484375</ele>
        <time>2018-08-16T16:59:27.000Z</time>
      </trkpt>
      <trkpt lat="48.8582522235810756683349609375" lon="10.497135780751705169677734375">
        <ele>451.20001220703125</ele>
        <time>2018-08-16T16:59:31.000Z</time>
      </trkpt>
      <trkpt lat="48.85836060158908367156982421875" lon="10.4972871579229831695556640625">
        <ele>451.20001220703125</ele>
        <time>2018-08-16T16:59:33.000Z</time>
      </trkpt>
      <trkpt lat="48.85875907726585865020751953125" lon="10.4978536069393157958984375">
        <ele>451</ele>
        <time>2018-08-16T16:59:40.000Z</time>
      </trkpt>
      <trkpt lat="48.8590414635837078094482421875" lon="10.4982718639075756072998046875">
        <ele>451</ele>
        <time>2018-08-16T16:59:45.000Z</time>
      </trkpt>
      <trkpt lat="48.859207928180694580078125" lon="10.49851535819470882415771484375">
        <ele>451</ele>
        <time>2018-08-16T16:59:48.000Z</time>
      </trkpt>
      <trkpt lat="48.85955485515296459197998046875" lon="10.49897619523108005523681640625">
        <ele>450.79998779296875</ele>
        <time>2018-08-16T16:59:54.000Z</time>
      </trkpt>
      <trkpt lat="48.8596714474260807037353515625" lon="10.49913427792489528656005859375">
        <ele>450.79998779296875</ele>
        <time>2018-08-16T16:59:56.000Z</time>
      </trkpt>
      <trkpt lat="48.859776221215724945068359375" lon="10.49930258654057979583740234375">
        <ele>450.600006103515625</ele>
        <time>2018-08-16T16:59:58.000Z</time>
      </trkpt>
      <trkpt lat="48.85996657423675060272216796875" lon="10.499972887337207794189453125">
        <ele>450.600006103515625</ele>
        <time>2018-08-16T17:00:05.000Z</time>
      </trkpt>
      <trkpt lat="48.8600144349038600921630859375" lon="10.50032199360430240631103515625">
        <ele>450.600006103515625</ele>
        <time>2018-08-16T17:00:09.000Z</time>
      </trkpt>
      <trkpt lat="48.86001954786479473114013671875" lon="10.50049030221998691558837890625">
        <ele>450.600006103515625</ele>
        <time>2018-08-16T17:00:11.000Z</time>
      </trkpt>
      <trkpt lat="48.86005475185811519622802734375" lon="10.50065609626471996307373046875">
        <ele>450.600006103515625</ele>
        <time>2018-08-16T17:00:13.000Z</time>
      </trkpt>
      <trkpt lat="48.86009817011654376983642578125" lon="10.5008316971361637115478515625">
        <ele>450.79998779296875</ele>
        <time>2018-08-16T17:00:15.000Z</time>
      </trkpt>
      <trkpt lat="48.86015147902071475982666015625" lon="10.50100914202630519866943359375">
        <ele>450.79998779296875</ele>
        <time>2018-08-16T17:00:17.000Z</time>
      </trkpt>
      <trkpt lat="48.86031241156160831451416015625" lon="10.50147869624197483062744140625">
        <ele>451</ele>
        <time>2018-08-16T17:00:22.000Z</time>
      </trkpt>
      <trkpt lat="48.860381729900836944580078125" lon="10.50166142173111438751220703125">
        <ele>450.79998779296875</ele>
        <time>2018-08-16T17:00:24.000Z</time>
      </trkpt>
      <trkpt lat="48.86055012233555316925048828125" lon="10.5020930059254169464111328125">
        <ele>450.600006103515625</ele>
        <time>2018-08-16T17:00:29.000Z</time>
      </trkpt>
      <trkpt lat="48.86077576316893100738525390625" lon="10.50270832143723964691162109375">
        <ele>450.20001220703125</ele>
        <time>2018-08-16T17:00:37.000Z</time>
      </trkpt>
      <trkpt lat="48.8608053512871265411376953125" lon="10.50276565365493297576904296875">
        <ele>450</ele>
        <time>2018-08-16T17:00:38.000Z</time>
      </trkpt>
      <trkpt lat="48.86086754500865936279296875" lon="10.50287537276744842529296875">
        <ele>450</ele>
        <time>2018-08-16T17:00:40.000Z</time>
      </trkpt>
      <trkpt lat="48.86090107262134552001953125" lon="10.5029310286045074462890625">
        <ele>450</ele>
        <time>2018-08-16T17:00:41.000Z</time>
      </trkpt>
      <trkpt lat="48.86093770153820514678955078125" lon="10.502986349165439605712890625">
        <ele>449.79998779296875</ele>
        <time>2018-08-16T17:00:42.000Z</time>
      </trkpt>
      <trkpt lat="48.861013390123844146728515625" lon="10.50310562364757061004638671875">
        <ele>449.79998779296875</ele>
        <time>2018-08-16T17:00:44.000Z</time>
      </trkpt>
      <trkpt lat="48.86112394742667675018310546875" lon="10.50331634469330310821533203125">
        <ele>449.600006103515625</ele>
        <time>2018-08-16T17:00:47.000Z</time>
      </trkpt>
      <trkpt lat="48.86116635985672473907470703125" lon="10.50338474102318286895751953125">
        <ele>449.600006103515625</ele>
        <time>2018-08-16T17:00:48.000Z</time>
      </trkpt>
      <trkpt lat="48.861205168068408966064453125" lon="10.50345766358077526092529296875">
        <ele>449.600006103515625</ele>
        <time>2018-08-16T17:00:49.000Z</time>
      </trkpt>
      <trkpt lat="48.86129544116556644439697265625" lon="10.50359152257442474365234375">
        <ele>449.600006103515625</ele>
        <time>2018-08-16T17:00:51.000Z</time>
      </trkpt>
      <trkpt lat="48.86141278780996799468994140625" lon="10.50363033078610897064208984375">
        <ele>449.600006103515625</ele>
        <time>2018-08-16T17:00:53.000Z</time>
      </trkpt>
      <trkpt lat="48.8616227544844150543212890625" lon="10.50342413596808910369873046875">
        <ele>449.399993896484375</ele>
        <time>2018-08-16T17:00:57.000Z</time>
      </trkpt>
      <trkpt lat="48.8617171347141265869140625" lon="10.5032678134739398956298828125">
        <ele>449.399993896484375</ele>
        <time>2018-08-16T17:00:59.000Z</time>
      </trkpt>
      <trkpt lat="48.86191318742930889129638671875" lon="10.5029244907200336456298828125">
        <ele>449.399993896484375</ele>
        <time>2018-08-16T17:01:03.000Z</time>
      </trkpt>
      <trkpt lat="48.86208049021661281585693359375" lon="10.50269021652638912200927734375">
        <ele>449.399993896484375</ele>
        <time>2018-08-16T17:01:06.000Z</time>
      </trkpt>
      <trkpt lat="48.86214964091777801513671875" lon="10.50266037695109844207763671875">
        <ele>449.399993896484375</ele>
        <time>2018-08-16T17:01:07.000Z</time>
      </trkpt>
      <trkpt lat="48.86235239915549755096435546875" lon="10.502787195146083831787109375">
        <ele>449.20001220703125</ele>
        <time>2018-08-16T17:01:10.000Z</time>
      </trkpt>
      <trkpt lat="48.8624837435781955718994140625" lon="10.50291636027395725250244140625">
        <ele>449.20001220703125</ele>
        <time>2018-08-16T17:01:12.000Z</time>
      </trkpt>
      <trkpt lat="48.86261458508670330047607421875" lon="10.5030495487153530120849609375">
        <ele>449.20001220703125</ele>
        <time>2018-08-16T17:01:14.000Z</time>
      </trkpt>
      <trkpt lat="48.8626802153885364532470703125" lon="10.5031189508736133575439453125">
        <ele>449</ele>
        <time>2018-08-16T17:01:15.000Z</time>
      </trkpt>
      <trkpt lat="48.8630647771060466766357421875" lon="10.5035149119794368743896484375">
        <ele>449</ele>
        <time>2018-08-16T17:01:21.000Z</time>
      </trkpt>
      <trkpt lat="48.86356442235410213470458984375" lon="10.50400055944919586181640625">
        <ele>449</ele>
        <time>2018-08-16T17:01:29.000Z</time>
      </trkpt>
      <trkpt lat="48.86375284753739833831787109375" lon="10.504192672669887542724609375">
        <ele>449</ele>
        <time>2018-08-16T17:01:32.000Z</time>
      </trkpt>
      <trkpt lat="48.86400547809898853302001953125" lon="10.5044788308441638946533203125">
        <ele>449</ele>
        <time>2018-08-16T17:01:36.000Z</time>
      </trkpt>
      <trkpt lat="48.86433052830398082733154296875" lon="10.50483581610023975372314453125">
        <ele>448.79998779296875</ele>
        <time>2018-08-16T17:01:41.000Z</time>
      </trkpt>
      <trkpt lat="48.86444871313869953155517578125" lon="10.50499641336500644683837890625">
        <ele>448.600006103515625</ele>
        <time>2018-08-16T17:01:43.000Z</time>
      </trkpt>
      <trkpt lat="48.86469111777842044830322265625" lon="10.505456663668155670166015625">
        <ele>448.399993896484375</ele>
        <time>2018-08-16T17:01:48.000Z</time>
      </trkpt>
      <trkpt lat="48.864765800535678863525390625" lon="10.50564098171889781951904296875">
        <ele>448.20001220703125</ele>
        <time>2018-08-16T17:01:50.000Z</time>
      </trkpt>
      <trkpt lat="48.8648065365850925445556640625" lon="10.50572463311254978179931640625">
        <ele>448.20001220703125</ele>
        <time>2018-08-16T17:01:51.000Z</time>
      </trkpt>
      <trkpt lat="48.86485523544251918792724609375" lon="10.5057978071272373199462890625">
        <ele>448</ele>
        <time>2018-08-16T17:01:52.000Z</time>
      </trkpt>
      <trkpt lat="48.8649087958037853240966796875" lon="10.505854301154613494873046875">
        <ele>447.79998779296875</ele>
        <time>2018-08-16T17:01:53.000Z</time>
      </trkpt>
      <trkpt lat="48.86496805585920810699462890625" lon="10.5058755911886692047119140625">
        <ele>447.79998779296875</ele>
        <time>2018-08-16T17:01:54.000Z</time>
      </trkpt>
      <trkpt lat="48.8650828041136264801025390625" lon="10.5058447457849979400634765625">
        <ele>447.79998779296875</ele>
        <time>2018-08-16T17:01:56.000Z</time>
      </trkpt>
      <trkpt lat="48.86519931256771087646484375" lon="10.50580476410686969757080078125">
        <ele>447.600006103515625</ele>
        <time>2018-08-16T17:01:58.000Z</time>
      </trkpt>
      <trkpt lat="48.86526259593665599822998046875" lon="10.50579361617565155029296875">
        <ele>447.600006103515625</ele>
        <time>2018-08-16T17:01:59.000Z</time>
      </trkpt>
      <trkpt lat="48.86532831005752086639404296875" lon="10.50580023787915706634521484375">
        <ele>447.600006103515625</ele>
        <time>2018-08-16T17:02:00.000Z</time>
      </trkpt>
      <trkpt lat="48.8653936050832271575927734375" lon="10.50582672469317913055419921875">
        <ele>447.600006103515625</ele>
        <time>2018-08-16T17:02:01.000Z</time>
      </trkpt>
      <trkpt lat="48.865457475185394287109375" lon="10.50586444325745105743408203125">
        <ele>447.600006103515625</ele>
        <time>2018-08-16T17:02:02.000Z</time>
      </trkpt>
      <trkpt lat="48.86552117764949798583984375" lon="10.5059094540774822235107421875">
        <ele>447.600006103515625</ele>
        <time>2018-08-16T17:02:03.000Z</time>
      </trkpt>
      <trkpt lat="48.86582024395465850830078125" lon="10.5061877332627773284912109375">
        <ele>447.399993896484375</ele>
        <time>2018-08-16T17:02:08.000Z</time>
      </trkpt>
      <trkpt lat="48.866196088492870330810546875" lon="10.50656584091484546661376953125">
        <ele>447.20001220703125</ele>
        <time>2018-08-16T17:02:14.000Z</time>
      </trkpt>
      <trkpt lat="48.8663253374397754669189453125" lon="10.50670162774622440338134765625">
        <ele>447.20001220703125</ele>
        <time>2018-08-16T17:02:16.000Z</time>
      </trkpt>
      <trkpt lat="48.8664512336254119873046875" lon="10.5068390071392059326171875">
        <ele>447</ele>
        <time>2018-08-16T17:02:18.000Z</time>
      </trkpt>
      <trkpt lat="48.8669499568641185760498046875" lon="10.5073715932667255401611328125">
        <ele>446.600006103515625</ele>
        <time>2018-08-16T17:02:26.000Z</time>
      </trkpt>
      <trkpt lat="48.86731163598597049713134765625" lon="10.50776327960193157196044921875">
        <ele>446.399993896484375</ele>
        <time>2018-08-16T17:02:32.000Z</time>
      </trkpt>
      <trkpt lat="48.86761338450014591217041015625" lon="10.50807760097086429595947265625">
        <ele>446.399993896484375</ele>
        <time>2018-08-16T17:02:37.000Z</time>
      </trkpt>
      <trkpt lat="48.8679862953722476959228515625" lon="10.50846467725932598114013671875">
        <ele>446</ele>
        <time>2018-08-16T17:02:43.000Z</time>
      </trkpt>
      <trkpt lat="48.8684359006583690643310546875" lon="10.5089195631444454193115234375">
        <ele>445.79998779296875</ele>
        <time>2018-08-16T17:02:50.000Z</time>
      </trkpt>
      <trkpt lat="48.8688332028687000274658203125" lon="10.50931669771671295166015625">
        <ele>445.600006103515625</ele>
        <time>2018-08-16T17:02:56.000Z</time>
      </trkpt>
      <trkpt lat="48.86929563246667385101318359375" lon="10.50977694801986217498779296875">
        <ele>445.600006103515625</ele>
        <time>2018-08-16T17:03:03.000Z</time>
      </trkpt>
      <trkpt lat="48.86961565352976322174072265625" lon="10.5101064406335353851318359375">
        <ele>445.399993896484375</ele>
        <time>2018-08-16T17:03:08.000Z</time>
      </trkpt>
      <trkpt lat="48.87011001817882061004638671875" lon="10.51064313389360904693603515625">
        <ele>445.399993896484375</ele>
        <time>2018-08-16T17:03:16.000Z</time>
      </trkpt>
      <trkpt lat="48.87016366235911846160888671875" lon="10.510721504688262939453125">
        <ele>445.399993896484375</ele>
        <time>2018-08-16T17:03:17.000Z</time>
      </trkpt>
      <trkpt lat="48.87021043337881565093994140625" lon="10.5108085088431835174560546875">
        <ele>445.399993896484375</ele>
        <time>2018-08-16T17:03:18.000Z</time>
      </trkpt>
      <trkpt lat="48.8705069012939929962158203125" lon="10.51160135306417942047119140625">
        <ele>445.399993896484375</ele>
        <time>2018-08-16T17:03:26.000Z</time>
      </trkpt>
      <trkpt lat="48.87079481966793537139892578125" lon="10.5124198459088802337646484375">
        <ele>446.20001220703125</ele>
        <time>2018-08-16T17:03:34.000Z</time>
      </trkpt>
      <trkpt lat="48.87106471695005893707275390625" lon="10.5132419429719448089599609375">
        <ele>446</ele>
        <time>2018-08-16T17:03:42.000Z</time>
      </trkpt>
      <trkpt lat="48.8711207918822765350341796875" lon="10.51346599124372005462646484375">
        <ele>445.600006103515625</ele>
        <time>2018-08-16T17:03:44.000Z</time>
      </trkpt>
      <trkpt lat="48.87129119597375392913818359375" lon="10.5142688937485218048095703125">
        <ele>445.20001220703125</ele>
        <time>2018-08-16T17:03:51.000Z</time>
      </trkpt>
      <trkpt lat="48.871315419673919677734375" lon="10.51438347436487674713134765625">
        <ele>445.20001220703125</ele>
        <time>2018-08-16T17:03:52.000Z</time>
      </trkpt>
      <trkpt lat="48.87144005857408046722412109375" lon="10.5149558745324611663818359375">
        <ele>445</ele>
        <time>2018-08-16T17:03:57.000Z</time>
      </trkpt>
      <trkpt lat="48.87160853482782840728759765625" lon="10.5157427676022052764892578125">
        <ele>445</ele>
        <time>2018-08-16T17:04:04.000Z</time>
      </trkpt>
      <trkpt lat="48.87177600525319576263427734375" lon="10.51652153022587299346923828125">
        <ele>444.79998779296875</ele>
        <time>2018-08-16T17:04:11.000Z</time>
      </trkpt>
      <trkpt lat="48.87179980985820293426513671875" lon="10.51663083024322986602783203125">
        <ele>444.79998779296875</ele>
        <time>2018-08-16T17:04:12.000Z</time>
      </trkpt>
      <trkpt lat="48.87185345403850078582763671875" lon="10.51696375943720340728759765625">
        <ele>444.79998779296875</ele>
        <time>2018-08-16T17:04:15.000Z</time>
      </trkpt>
      <trkpt lat="48.8718731515109539031982421875" lon="10.51707456819713115692138671875">
        <ele>444.79998779296875</ele>
        <time>2018-08-16T17:04:16.000Z</time>
      </trkpt>
      <trkpt lat="48.8720132969319820404052734375" lon="10.51798199303448200225830078125">
        <ele>444.600006103515625</ele>
        <time>2018-08-16T17:04:24.000Z</time>
      </trkpt>
      <trkpt lat="48.872121088206768035888671875" lon="10.518785230815410614013671875">
        <ele>444.399993896484375</ele>
        <time>2018-08-16T17:04:31.000Z</time>
      </trkpt>
      <trkpt lat="48.8721987046301364898681640625" lon="10.5194770731031894683837890625">
        <ele>444</ele>
        <time>2018-08-16T17:04:37.000Z</time>
      </trkpt>
      <trkpt lat="48.87222812511026859283447265625" lon="10.5197064019739627838134765625">
        <ele>443.79998779296875</ele>
        <time>2018-08-16T17:04:39.000Z</time>
      </trkpt>
      <trkpt lat="48.87233256362378597259521484375" lon="10.5206123180687427520751953125">
        <ele>443.399993896484375</ele>
        <time>2018-08-16T17:04:47.000Z</time>
      </trkpt>
      <trkpt lat="48.87242853641510009765625" lon="10.52139560692012310028076171875">
        <ele>443.399993896484375</ele>
        <time>2018-08-16T17:04:54.000Z</time>
      </trkpt>
      <trkpt lat="48.87253758497536182403564453125" lon="10.52228450775146484375">
        <ele>443.20001220703125</ele>
        <time>2018-08-16T17:05:02.000Z</time>
      </trkpt>
      <trkpt lat="48.8726375810801982879638671875" lon="10.52307064644992351531982421875">
        <ele>443.20001220703125</ele>
        <time>2018-08-16T17:05:09.000Z</time>
      </trkpt>
      <trkpt lat="48.87274914421141147613525390625" lon="10.5237530171871185302734375">
        <ele>443.20001220703125</ele>
        <time>2018-08-16T17:05:15.000Z</time>
      </trkpt>
      <trkpt lat="48.87284503318369388580322265625" lon="10.5240797437727451324462890625">
        <ele>443</ele>
        <time>2018-08-16T17:05:18.000Z</time>
      </trkpt>
      <trkpt lat="48.872956931591033935546875" lon="10.5243985913693904876708984375">
        <ele>443</ele>
        <time>2018-08-16T17:05:21.000Z</time>
      </trkpt>
      <trkpt lat="48.87323118746280670166015625" lon="10.52513008005917072296142578125">
        <ele>442.79998779296875</ele>
        <time>2018-08-16T17:05:28.000Z</time>
      </trkpt>
      <trkpt lat="48.87350351549685001373291015625" lon="10.52588495425879955291748046875">
        <ele>442.79998779296875</ele>
        <time>2018-08-16T17:05:35.000Z</time>
      </trkpt>
      <trkpt lat="48.87378095649182796478271484375" lon="10.5266513116657733917236328125">
        <ele>442.399993896484375</ele>
        <time>2018-08-16T17:05:42.000Z</time>
      </trkpt>
      <trkpt lat="48.87398212216794490814208984375" lon="10.52720610983669757843017578125">
        <ele>442.399993896484375</ele>
        <time>2018-08-16T17:05:47.000Z</time>
      </trkpt>
      <trkpt lat="48.87426593340933322906494140625" lon="10.52799166180193424224853515625">
        <ele>442.20001220703125</ele>
        <time>2018-08-16T17:05:54.000Z</time>
      </trkpt>
      <trkpt lat="48.8744370080530643463134765625" lon="10.52845316939055919647216796875">
        <ele>442.20001220703125</ele>
        <time>2018-08-16T17:05:58.000Z</time>
      </trkpt>
      <trkpt lat="48.874675892293453216552734375" lon="10.52912020124495029449462890625">
        <ele>442</ele>
        <time>2018-08-16T17:06:04.000Z</time>
      </trkpt>
      <trkpt lat="48.8748755492269992828369140625" lon="10.52971892058849334716796875">
        <ele>442</ele>
        <time>2018-08-16T17:06:10.000Z</time>
      </trkpt>
      <trkpt lat="48.87512507848441600799560546875" lon="10.53046516142785549163818359375">
        <ele>442.20001220703125</ele>
        <time>2018-08-16T17:06:17.000Z</time>
      </trkpt>
      <trkpt lat="48.8753615319728851318359375" lon="10.53124501369893550872802734375">
        <ele>442</ele>
        <time>2018-08-16T17:06:24.000Z</time>
      </trkpt>
      <trkpt lat="48.8757365383207798004150390625" lon="10.5318849720060825347900390625">
        <ele>441.600006103515625</ele>
        <time>2018-08-16T17:06:31.000Z</time>
      </trkpt>
      <trkpt lat="48.8758619315922260284423828125" lon="10.53201966919004917144775390625">
        <ele>441.600006103515625</ele>
        <time>2018-08-16T17:06:33.000Z</time>
      </trkpt>
      <trkpt lat="48.8763631694018840789794921875" lon="10.53242082707583904266357421875">
        <ele>441.79998779296875</ele>
        <time>2018-08-16T17:06:41.000Z</time>
      </trkpt>
      <trkpt lat="48.87662560679018497467041015625" lon="10.5326792411506175994873046875">
        <ele>441.79998779296875</ele>
        <time>2018-08-16T17:06:45.000Z</time>
      </trkpt>
      <trkpt lat="48.87674194760620594024658203125" lon="10.53278426639735698699951171875">
        <ele>441.79998779296875</ele>
        <time>2018-08-16T17:06:47.000Z</time>
      </trkpt>
      <trkpt lat="48.87678201310336589813232421875" lon="10.532860122621059417724609375">
        <ele>441.79998779296875</ele>
        <time>2018-08-16T17:06:48.000Z</time>
      </trkpt>
      <trkpt lat="48.87685040943324565887451171875" lon="10.533150471746921539306640625">
        <ele>442</ele>
        <time>2018-08-16T17:06:51.000Z</time>
      </trkpt>
      <trkpt lat="48.876902796328067779541015625" lon="10.5334537290036678314208984375">
        <ele>442</ele>
        <time>2018-08-16T17:06:54.000Z</time>
      </trkpt>
      <trkpt lat="48.87694931589066982269287109375" lon="10.53376126103103160858154296875">
        <ele>442</ele>
        <time>2018-08-16T17:06:57.000Z</time>
      </trkpt>
      <trkpt lat="48.8770122639834880828857421875" lon="10.534181781113147735595703125">
        <ele>442.20001220703125</ele>
        <time>2018-08-16T17:07:01.000Z</time>
      </trkpt>
      <trkpt lat="48.8770813308656215667724609375" lon="10.5346992798149585723876953125">
        <ele>442.399993896484375</ele>
        <time>2018-08-16T17:07:06.000Z</time>
      </trkpt>
      <trkpt lat="48.8773264177143573760986328125" lon="10.5354546569287776947021484375">
        <ele>442.20001220703125</ele>
        <time>2018-08-16T17:07:14.000Z</time>
      </trkpt>
      <trkpt lat="48.8774152658879756927490234375" lon="10.53573922254145145416259765625">
        <ele>442</ele>
        <time>2018-08-16T17:07:17.000Z</time>
      </trkpt>
      <trkpt lat="48.87762196362018585205078125" lon="10.53631254471838474273681640625">
        <ele>442.20001220703125</ele>
        <time>2018-08-16T17:07:23.000Z</time>
      </trkpt>
      <trkpt lat="48.8779808767139911651611328125" lon="10.53701712749898433685302734375">
        <ele>442.20001220703125</ele>
        <time>2018-08-16T17:07:31.000Z</time>
      </trkpt>
      <trkpt lat="48.878380693495273590087890625" lon="10.53768617101013660430908203125">
        <ele>442.600006103515625</ele>
        <time>2018-08-16T17:07:39.000Z</time>
      </trkpt>
      <trkpt lat="48.87859133072197437286376953125" lon="10.5379930324852466583251953125">
        <ele>442.600006103515625</ele>
        <time>2018-08-16T17:07:43.000Z</time>
      </trkpt>
      <trkpt lat="48.8788609765470027923583984375" lon="10.5381449125707149505615234375">
        <ele>442.600006103515625</ele>
        <time>2018-08-16T17:07:47.000Z</time>
      </trkpt>
      <trkpt lat="48.87939356267452239990234375" lon="10.53830458782613277435302734375">
        <ele>442.600006103515625</ele>
        <time>2018-08-16T17:07:54.000Z</time>
      </trkpt>
      <trkpt lat="48.8799533061683177947998046875" lon="10.5384151451289653778076171875">
        <ele>442.399993896484375</ele>
        <time>2018-08-16T17:08:01.000Z</time>
      </trkpt>
      <trkpt lat="48.8805051706731319427490234375" lon="10.53852033801376819610595703125">
        <ele>442.20001220703125</ele>
        <time>2018-08-16T17:08:08.000Z</time>
      </trkpt>
      <trkpt lat="48.8810704462230205535888671875" lon="10.53864824585616588592529296875">
        <ele>442</ele>
        <time>2018-08-16T17:08:15.000Z</time>
      </trkpt>
      <trkpt lat="48.8816521503031253814697265625" lon="10.53875084035098552703857421875">
        <ele>441.79998779296875</ele>
        <time>2018-08-16T17:08:22.000Z</time>
      </trkpt>
      <trkpt lat="48.88190302066504955291748046875" lon="10.538791157305240631103515625">
        <ele>441.79998779296875</ele>
        <time>2018-08-16T17:08:25.000Z</time>
      </trkpt>
      <trkpt lat="48.8824988901615142822265625" lon="10.5388377606868743896484375">
        <ele>441.79998779296875</ele>
        <time>2018-08-16T17:08:32.000Z</time>
      </trkpt>
      <trkpt lat="48.8828541152179241180419921875" lon="10.53887757472693920135498046875">
        <ele>442</ele>
        <time>2018-08-16T17:08:36.000Z</time>
      </trkpt>
      <trkpt lat="48.88312141411006450653076171875" lon="10.53887690417468547821044921875">
        <ele>442</ele>
        <time>2018-08-16T17:08:39.000Z</time>
      </trkpt>
      <trkpt lat="48.8835568539798259735107421875" lon="10.53882242180407047271728515625">
        <ele>442</ele>
        <time>2018-08-16T17:08:44.000Z</time>
      </trkpt>
      <trkpt lat="48.88414182700216770172119140625" lon="10.53890674374997615814208984375">
        <ele>442</ele>
        <time>2018-08-16T17:08:51.000Z</time>
      </trkpt>
      <trkpt lat="48.8846833817660808563232421875" lon="10.5390897206962108612060546875">
        <ele>443</ele>
        <time>2018-08-16T17:08:58.000Z</time>
      </trkpt>
      <trkpt lat="48.8852025568485260009765625" lon="10.5393339693546295166015625">
        <ele>443.600006103515625</ele>
        <time>2018-08-16T17:09:05.000Z</time>
      </trkpt>
      <trkpt lat="48.88573170639574527740478515625" lon="10.53959959186613559722900390625">
        <ele>444.399993896484375</ele>
        <time>2018-08-16T17:09:12.000Z</time>
      </trkpt>
      <trkpt lat="48.88604083098471164703369140625" lon="10.53975130431354045867919921875">
        <ele>444.600006103515625</ele>
        <time>2018-08-16T17:09:16.000Z</time>
      </trkpt>
      <trkpt lat="48.88658213429152965545654296875" lon="10.53999178111553192138671875">
        <ele>444.79998779296875</ele>
        <time>2018-08-16T17:09:23.000Z</time>
      </trkpt>
      <trkpt lat="48.8871409557759761810302734375" lon="10.5401545576751232147216796875">
        <ele>445</ele>
        <time>2018-08-16T17:09:30.000Z</time>
      </trkpt>
      <trkpt lat="48.887704052031040191650390625" lon="10.540373660624027252197265625">
        <ele>445.399993896484375</ele>
        <time>2018-08-16T17:09:37.000Z</time>
      </trkpt>
      <trkpt lat="48.8881058804690837860107421875" lon="10.540560744702816009521484375">
        <ele>445.600006103515625</ele>
        <time>2018-08-16T17:09:42.000Z</time>
      </trkpt>
      <trkpt lat="48.8886681385338306427001953125" lon="10.54088319651782512664794921875">
        <ele>445.600006103515625</ele>
        <time>2018-08-16T17:09:49.000Z</time>
      </trkpt>
      <trkpt lat="48.88921304605901241302490234375" lon="10.54127211682498455047607421875">
        <ele>445.79998779296875</ele>
        <time>2018-08-16T17:09:56.000Z</time>
      </trkpt>
      <trkpt lat="48.8897328078746795654296875" lon="10.54171032272279262542724609375">
        <ele>446</ele>
        <time>2018-08-16T17:10:03.000Z</time>
      </trkpt>
      <trkpt lat="48.89023999683558940887451171875" lon="10.5421883426606655120849609375">
        <ele>446.20001220703125</ele>
        <time>2018-08-16T17:10:10.000Z</time>
      </trkpt>
      <trkpt lat="48.8907190226018428802490234375" lon="10.54276040755212306976318359375">
        <ele>446.399993896484375</ele>
        <time>2018-08-16T17:10:17.000Z</time>
      </trkpt>
      <trkpt lat="48.89119452796876430511474609375" lon="10.5433631502091884613037109375">
        <ele>446.600006103515625</ele>
        <time>2018-08-16T17:10:24.000Z</time>
      </trkpt>
      <trkpt lat="48.8914640061557292938232421875" lon="10.54374125786125659942626953125">
        <ele>446.600006103515625</ele>
        <time>2018-08-16T17:10:28.000Z</time>
      </trkpt>
      <trkpt lat="48.89179551042616367340087890625" lon="10.544270910322666168212890625">
        <ele>446.399993896484375</ele>
        <time>2018-08-16T17:10:33.000Z</time>
      </trkpt>
      <trkpt lat="48.89218225143849849700927734375" lon="10.54491522721946239471435546875">
        <ele>445.399993896484375</ele>
        <time>2018-08-16T17:10:39.000Z</time>
      </trkpt>
      <trkpt lat="48.892433457076549530029296875" lon="10.54532074369490146636962890625">
        <ele>444.79998779296875</ele>
        <time>2018-08-16T17:10:43.000Z</time>
      </trkpt>
      <trkpt lat="48.8927958905696868896484375" lon="10.54590739309787750244140625">
        <ele>444.399993896484375</ele>
        <time>2018-08-16T17:10:49.000Z</time>
      </trkpt>
      <trkpt lat="48.89319310896098613739013671875" lon="10.54651248268783092498779296875">
        <ele>444.20001220703125</ele>
        <time>2018-08-16T17:10:55.000Z</time>
      </trkpt>
      <trkpt lat="48.8935832865536212921142578125" lon="10.54714850150048732757568359375">
        <ele>443.79998779296875</ele>
        <time>2018-08-16T17:11:01.000Z</time>
      </trkpt>
      <trkpt lat="48.8939195685088634490966796875" lon="10.54770221002399921417236328125">
        <ele>444</ele>
        <time>2018-08-16T17:11:07.000Z</time>
      </trkpt>
      <trkpt lat="48.8943356461822986602783203125" lon="10.5483423359692096710205078125">
        <ele>445.399993896484375</ele>
        <time>2018-08-16T17:11:15.000Z</time>
      </trkpt>
      <trkpt lat="48.894435726106166839599609375" lon="10.548497736454010009765625">
        <ele>446</ele>
        <time>2018-08-16T17:11:17.000Z</time>
      </trkpt>
      <trkpt lat="48.89473554678261280059814453125" lon="10.5489726550877094268798828125">
        <ele>447</ele>
        <time>2018-08-16T17:11:23.000Z</time>
      </trkpt>
      <trkpt lat="48.8948476128280162811279296875" lon="10.54911690764129161834716796875">
        <ele>447.399993896484375</ele>
        <time>2018-08-16T17:11:25.000Z</time>
      </trkpt>
      <trkpt lat="48.89508943073451519012451171875" lon="10.5492670275270938873291015625">
        <ele>448</ele>
        <time>2018-08-16T17:11:29.000Z</time>
      </trkpt>
      <trkpt lat="48.89522454701364040374755859375" lon="10.5494380183517932891845703125">
        <ele>448.399993896484375</ele>
        <time>2018-08-16T17:11:33.000Z</time>
      </trkpt>
      <trkpt lat="48.8952885009348392486572265625" lon="10.549534074962139129638671875">
        <ele>448.600006103515625</ele>
        <time>2018-08-16T17:11:35.000Z</time>
      </trkpt>
      <trkpt lat="48.8953109644353389739990234375" lon="10.54968235082924365997314453125">
        <ele>449.20001220703125</ele>
        <time>2018-08-16T17:11:37.000Z</time>
      </trkpt>
      <trkpt lat="48.89532580040395259857177734375" lon="10.54976834915578365325927734375">
        <ele>449.399993896484375</ele>
        <time>2018-08-16T17:11:38.000Z</time>
      </trkpt>
      <trkpt lat="48.89551623724400997161865234375" lon="10.55021426640450954437255859375">
        <ele>449.399993896484375</ele>
        <time>2018-08-16T17:11:43.000Z</time>
      </trkpt>
      <trkpt lat="48.895655460655689239501953125" lon="10.55046253837645053863525390625">
        <ele>449.399993896484375</ele>
        <time>2018-08-16T17:11:46.000Z</time>
      </trkpt>
      <trkpt lat="48.89605083502829074859619140625" lon="10.55114247836172580718994140625">
        <ele>448.399993896484375</ele>
        <time>2018-08-16T17:11:54.000Z</time>
      </trkpt>
      <trkpt lat="48.8963149487972259521484375" lon="10.55159761570394039154052734375">
        <ele>448.20001220703125</ele>
        <time>2018-08-16T17:11:59.000Z</time>
      </trkpt>
      <trkpt lat="48.8965286873281002044677734375" lon="10.551958121359348297119140625">
        <ele>448.20001220703125</ele>
        <time>2018-08-16T17:12:03.000Z</time>
      </trkpt>
      <trkpt lat="48.89685516245663166046142578125" lon="10.5524883605539798736572265625">
        <ele>448</ele>
        <time>2018-08-16T17:12:09.000Z</time>
      </trkpt>
      <trkpt lat="48.89695842750370502471923828125" lon="10.552654154598712921142578125">
        <ele>448</ele>
        <time>2018-08-16T17:12:11.000Z</time>
      </trkpt>
      <trkpt lat="48.8970101438462734222412109375" lon="10.55273034609854221343994140625">
        <ele>447.79998779296875</ele>
        <time>2018-08-16T17:12:12.000Z</time>
      </trkpt>
      <trkpt lat="48.89711651019752025604248046875" lon="10.55287166498601436614990234375">
        <ele>447.79998779296875</ele>
        <time>2018-08-16T17:12:14.000Z</time>
      </trkpt>
      <trkpt lat="48.897168897092342376708984375" lon="10.5529429949820041656494140625">
        <ele>447.79998779296875</ele>
        <time>2018-08-16T17:12:15.000Z</time>
      </trkpt>
      <trkpt lat="48.89721910469233989715576171875" lon="10.5530197732150554656982421875">
        <ele>447.79998779296875</ele>
        <time>2018-08-16T17:12:16.000Z</time>
      </trkpt>
      <trkpt lat="48.8972686417400836944580078125" lon="10.553100742399692535400390625">
        <ele>447.79998779296875</ele>
        <time>2018-08-16T17:12:17.000Z</time>
      </trkpt>
      <trkpt lat="48.897647671401500701904296875" lon="10.55376651696860790252685546875">
        <ele>447.399993896484375</ele>
        <time>2018-08-16T17:12:25.000Z</time>
      </trkpt>
      <trkpt lat="48.89770592562854290008544921875" lon="10.55383139289915561676025390625">
        <ele>447.399993896484375</ele>
        <time>2018-08-16T17:12:26.000Z</time>
      </trkpt>
      <trkpt lat="48.8978339172899723052978515625" lon="10.5539266951382160186767578125">
        <ele>447.399993896484375</ele>
        <time>2018-08-16T17:12:28.000Z</time>
      </trkpt>
      <trkpt lat="48.89804455451667308807373046875" lon="10.5539250187575817108154296875">
        <ele>447.399993896484375</ele>
        <time>2018-08-16T17:12:31.000Z</time>
      </trkpt>
      <trkpt lat="48.898168019950389862060546875" lon="10.55391269735991954803466796875">
        <ele>447.399993896484375</ele>
        <time>2018-08-16T17:12:33.000Z</time>
      </trkpt>
      <trkpt lat="48.89821588061749935150146484375" lon="10.55394505150616168975830078125">
        <ele>447.20001220703125</ele>
        <time>2018-08-16T17:12:34.000Z</time>
      </trkpt>
      <trkpt lat="48.898276984691619873046875" lon="10.55406440980732440948486328125">
        <ele>447.20001220703125</ele>
        <time>2018-08-16T17:12:36.000Z</time>
      </trkpt>
      <trkpt lat="48.89830037020146846771240234375" lon="10.55413716472685337066650390625">
        <ele>447.20001220703125</ele>
        <time>2018-08-16T17:12:37.000Z</time>
      </trkpt>
      <trkpt lat="48.8983110152184963226318359375" lon="10.55421888828277587890625">
        <ele>447.20001220703125</ele>
        <time>2018-08-16T17:12:38.000Z</time>
      </trkpt>
      <trkpt lat="48.89830573461949825286865234375" lon="10.5543033778667449951171875">
        <ele>447</ele>
        <time>2018-08-16T17:12:39.000Z</time>
      </trkpt>
      <trkpt lat="48.8982783257961273193359375" lon="10.5544817447662353515625">
        <ele>447.20001220703125</ele>
        <time>2018-08-16T17:12:41.000Z</time>
      </trkpt>
      <trkpt lat="48.8983706943690776824951171875" lon="10.5548344552516937255859375">
        <ele>447.20001220703125</ele>
        <time>2018-08-16T17:12:45.000Z</time>
      </trkpt>
      <trkpt lat="48.8984553515911102294921875" lon="10.5550087988376617431640625">
        <ele>447.20001220703125</ele>
        <time>2018-08-16T17:12:47.000Z</time>
      </trkpt>
      <trkpt lat="48.89860899187624454498291015625" lon="10.5552620999515056610107421875">
        <ele>447.20001220703125</ele>
        <time>2018-08-16T17:12:50.000Z</time>
      </trkpt>
      <trkpt lat="48.89890168793499469757080078125" lon="10.55565982125699520111083984375">
        <ele>447.399993896484375</ele>
        <time>2018-08-16T17:12:55.000Z</time>
      </trkpt>
      <trkpt lat="48.8993362896144390106201171875" lon="10.5561514198780059814453125">
        <ele>447.399993896484375</ele>
        <time>2018-08-16T17:13:01.000Z</time>
      </trkpt>
      <trkpt lat="48.89949345029890537261962890625" lon="10.5563242547214031219482421875">
        <ele>447.399993896484375</ele>
        <time>2018-08-16T17:13:03.000Z</time>
      </trkpt>
      <trkpt lat="48.89965287409722805023193359375" lon="10.5564985983073711395263671875">
        <ele>447.20001220703125</ele>
        <time>2018-08-16T17:13:05.000Z</time>
      </trkpt>
      <trkpt lat="48.8998086936771869659423828125" lon="10.55666917003691196441650390625">
        <ele>446.79998779296875</ele>
        <time>2018-08-16T17:13:07.000Z</time>
      </trkpt>
      <trkpt lat="48.8999629206955432891845703125" lon="10.55683496408164501190185546875">
        <ele>446</ele>
        <time>2018-08-16T17:13:09.000Z</time>
      </trkpt>
      <trkpt lat="48.9000390283763408660888671875" lon="10.5569166876375675201416015625">
        <ele>445.399993896484375</ele>
        <time>2018-08-16T17:13:10.000Z</time>
      </trkpt>
      <trkpt lat="48.9001137949526309967041015625" lon="10.55699723772704601287841796875">
        <ele>445</ele>
        <time>2018-08-16T17:13:11.000Z</time>
      </trkpt>
      <trkpt lat="48.90032812021672725677490234375" lon="10.557241737842559814453125">
        <ele>444.20001220703125</ele>
        <time>2018-08-16T17:13:14.000Z</time>
      </trkpt>
      <trkpt lat="48.9005858637392520904541015625" lon="10.55759780108928680419921875">
        <ele>443.79998779296875</ele>
        <time>2018-08-16T17:13:18.000Z</time>
      </trkpt>
      <trkpt lat="48.9010592736303806304931640625" lon="10.55816919542849063873291015625">
        <ele>444.399993896484375</ele>
        <time>2018-08-16T17:13:26.000Z</time>
      </trkpt>
      <trkpt lat="48.901183493435382843017578125" lon="10.5583057366311550140380859375">
        <ele>445</ele>
        <time>2018-08-16T17:13:28.000Z</time>
      </trkpt>
      <trkpt lat="48.90150728635489940643310546875" lon="10.55864159949123859405517578125">
        <ele>445.79998779296875</ele>
        <time>2018-08-16T17:13:33.000Z</time>
      </trkpt>
      <trkpt lat="48.90179143287241458892822265625" lon="10.558902360498905181884765625">
        <ele>446</ele>
        <time>2018-08-16T17:13:37.000Z</time>
      </trkpt>
      <trkpt lat="48.90193962492048740386962890625" lon="10.5590299330651760101318359375">
        <ele>446</ele>
        <time>2018-08-16T17:13:39.000Z</time>
      </trkpt>
      <trkpt lat="48.90233390964567661285400390625" lon="10.5593464337289333343505859375">
        <ele>446.20001220703125</ele>
        <time>2018-08-16T17:13:44.000Z</time>
      </trkpt>
      <trkpt lat="48.90275954268872737884521484375" lon="10.5596796981990337371826171875">
        <ele>445.399993896484375</ele>
        <time>2018-08-16T17:13:49.000Z</time>
      </trkpt>
      <trkpt lat="48.90310605056583881378173828125" lon="10.55993794463574886322021484375">
        <ele>444.79998779296875</ele>
        <time>2018-08-16T17:13:53.000Z</time>
      </trkpt>
      <trkpt lat="48.90319171361625194549560546875" lon="10.55999963544309139251708984375">
        <ele>444.399993896484375</ele>
        <time>2018-08-16T17:13:54.000Z</time>
      </trkpt>
      <trkpt lat="48.9032752811908721923828125" lon="10.56006082333624362945556640625">
        <ele>444.20001220703125</ele>
        <time>2018-08-16T17:13:55.000Z</time>
      </trkpt>
      <trkpt lat="48.9036080427467823028564453125" lon="10.56029937230050563812255859375">
        <ele>443.600006103515625</ele>
        <time>2018-08-16T17:13:59.000Z</time>
      </trkpt>
      <trkpt lat="48.90369228087365627288818359375" lon="10.56035603396594524383544921875">
        <ele>443.399993896484375</ele>
        <time>2018-08-16T17:14:00.000Z</time>
      </trkpt>
      <trkpt lat="48.90377542935311794281005859375" lon="10.56041319854557514190673828125">
        <ele>443.20001220703125</ele>
        <time>2018-08-16T17:14:01.000Z</time>
      </trkpt>
      <trkpt lat="48.904192931950092315673828125" lon="10.5606851913034915924072265625">
        <ele>442.79998779296875</ele>
        <time>2018-08-16T17:14:06.000Z</time>
      </trkpt>
      <trkpt lat="48.90461294911801815032958984375" lon="10.560943521559238433837890625">
        <ele>442.600006103515625</ele>
        <time>2018-08-16T17:14:11.000Z</time>
      </trkpt>
      <trkpt lat="48.90469760634005069732666015625" lon="10.56099372915923595428466796875">
        <ele>442.600006103515625</ele>
        <time>2018-08-16T17:14:12.000Z</time>
      </trkpt>
      <trkpt lat="48.905210159718990325927734375" lon="10.5612722598016262054443359375">
        <ele>442.399993896484375</ele>
        <time>2018-08-16T17:14:18.000Z</time>
      </trkpt>
      <trkpt lat="48.90573629178106784820556640625" lon="10.56153654120862483978271484375">
        <ele>442.399993896484375</ele>
        <time>2018-08-16T17:14:24.000Z</time>
      </trkpt>
      <trkpt lat="48.90591113828122615814208984375" lon="10.561629831790924072265625">
        <ele>442.399993896484375</ele>
        <time>2018-08-16T17:14:26.000Z</time>
      </trkpt>
      <trkpt lat="48.90608330257236957550048828125" lon="10.56172597222030162811279296875">
        <ele>442</ele>
        <time>2018-08-16T17:14:28.000Z</time>
      </trkpt>
      <trkpt lat="48.90642629005014896392822265625" lon="10.56191858835518360137939453125">
        <ele>441.79998779296875</ele>
        <time>2018-08-16T17:14:32.000Z</time>
      </trkpt>
      <trkpt lat="48.90659811906516551971435546875" lon="10.56201900355517864227294921875">
        <ele>441.600006103515625</ele>
        <time>2018-08-16T17:14:34.000Z</time>
      </trkpt>
      <trkpt lat="48.907015956938266754150390625" lon="10.5622936785221099853515625">
        <ele>441.399993896484375</ele>
        <time>2018-08-16T17:14:39.000Z</time>
      </trkpt>
      <trkpt lat="48.907331116497516632080078125" lon="10.56253734044730663299560546875">
        <ele>441.399993896484375</ele>
        <time>2018-08-16T17:14:43.000Z</time>
      </trkpt>
      <trkpt lat="48.90783612616360187530517578125" lon="10.56297152303159236907958984375">
        <ele>441.600006103515625</ele>
        <time>2018-08-16T17:14:50.000Z</time>
      </trkpt>
      <trkpt lat="48.9080450870096683502197265625" lon="10.56314997375011444091796875">
        <ele>441.79998779296875</ele>
        <time>2018-08-16T17:14:53.000Z</time>
      </trkpt>
      <trkpt lat="48.90851992182433605194091796875" lon="10.56356462650001049041748046875">
        <ele>442.600006103515625</ele>
        <time>2018-08-16T17:15:00.000Z</time>
      </trkpt>
      <trkpt lat="48.9087930880486965179443359375" lon="10.56379781104624271392822265625">
        <ele>443.20001220703125</ele>
        <time>2018-08-16T17:15:04.000Z</time>
      </trkpt>
      <trkpt lat="48.9093234948813915252685546875" lon="10.56421254761517047882080078125">
        <ele>443.79998779296875</ele>
        <time>2018-08-16T17:15:11.000Z</time>
      </trkpt>
      <trkpt lat="48.9098076336085796356201171875" lon="10.56458721868693828582763671875">
        <ele>443.79998779296875</ele>
        <time>2018-08-16T17:15:17.000Z</time>
      </trkpt>
      <trkpt lat="48.9102007448673248291015625" lon="10.5649073235690593719482421875">
        <ele>443.600006103515625</ele>
        <time>2018-08-16T17:15:22.000Z</time>
      </trkpt>
      <trkpt lat="48.9106401242315769195556640625" lon="10.56529900990426540374755859375">
        <ele>443.600006103515625</ele>
        <time>2018-08-16T17:15:28.000Z</time>
      </trkpt>
      <trkpt lat="48.9110213331878185272216796875" lon="10.56559690274298191070556640625">
        <ele>443.600006103515625</ele>
        <time>2018-08-16T17:15:33.000Z</time>
      </trkpt>
      <trkpt lat="48.91132886521518230438232421875" lon="10.56583930738270282745361328125">
        <ele>443.79998779296875</ele>
        <time>2018-08-16T17:15:37.000Z</time>
      </trkpt>
      <trkpt lat="48.9116369001567363739013671875" lon="10.56608003564178943634033203125">
        <ele>444.399993896484375</ele>
        <time>2018-08-16T17:15:41.000Z</time>
      </trkpt>
      <trkpt lat="48.9119557477533817291259765625" lon="10.5663062632083892822265625">
        <ele>445</ele>
        <time>2018-08-16T17:15:45.000Z</time>
      </trkpt>
      <trkpt lat="48.9125173352658748626708984375" lon="10.5666873045265674591064453125">
        <ele>444.79998779296875</ele>
        <time>2018-08-16T17:15:52.000Z</time>
      </trkpt>
      <trkpt lat="48.9130165614187717437744140625" lon="10.56702802889049053192138671875">
        <ele>444.600006103515625</ele>
        <time>2018-08-16T17:15:58.000Z</time>
      </trkpt>
      <trkpt lat="48.91353481449186801910400390625" lon="10.56737218983471393585205078125">
        <ele>444.20001220703125</ele>
        <time>2018-08-16T17:16:04.000Z</time>
      </trkpt>
      <trkpt lat="48.9139794744551181793212890625" lon="10.567666478455066680908203125">
        <ele>443.79998779296875</ele>
        <time>2018-08-16T17:16:09.000Z</time>
      </trkpt>
      <trkpt lat="48.91415373422205448150634765625" lon="10.56777033023536205291748046875">
        <ele>443.399993896484375</ele>
        <time>2018-08-16T17:16:11.000Z</time>
      </trkpt>
      <trkpt lat="48.91448867507278919219970703125" lon="10.56792405433952808380126953125">
        <ele>443.20001220703125</ele>
        <time>2018-08-16T17:16:15.000Z</time>
      </trkpt>
      <trkpt lat="48.91494213603436946868896484375" lon="10.568351112306118011474609375">
        <ele>443.20001220703125</ele>
        <time>2018-08-16T17:16:21.000Z</time>
      </trkpt>
      <trkpt lat="48.91548159532248973846435546875" lon="10.568762831389904022216796875">
        <ele>443.600006103515625</ele>
        <time>2018-08-16T17:16:28.000Z</time>
      </trkpt>
      <trkpt lat="48.915982581675052642822265625" lon="10.56917287409305572509765625">
        <ele>444</ele>
        <time>2018-08-16T17:16:35.000Z</time>
      </trkpt>
      <trkpt lat="48.91626077704131603240966796875" lon="10.5694094114005565643310546875">
        <ele>444.600006103515625</ele>
        <time>2018-08-16T17:16:39.000Z</time>
      </trkpt>
      <trkpt lat="48.9167267270386219024658203125" lon="10.56984736584126949310302734375">
        <ele>445</ele>
        <time>2018-08-16T17:16:46.000Z</time>
      </trkpt>
      <trkpt lat="48.91708396375179290771484375" lon="10.57016571052372455596923828125">
        <ele>445.600006103515625</ele>
        <time>2018-08-16T17:16:51.000Z</time>
      </trkpt>
      <trkpt lat="48.91761730425059795379638671875" lon="10.57066057808697223663330078125">
        <ele>445.600006103515625</ele>
        <time>2018-08-16T17:16:58.000Z</time>
      </trkpt>
      <trkpt lat="48.91807906329631805419921875" lon="10.57112275622785091400146484375">
        <ele>445.399993896484375</ele>
        <time>2018-08-16T17:17:04.000Z</time>
      </trkpt>
      <trkpt lat="48.91856898553669452667236328125" lon="10.57160404510796070098876953125">
        <ele>445</ele>
        <time>2018-08-16T17:17:10.000Z</time>
      </trkpt>
      <trkpt lat="48.91891649924218654632568359375" lon="10.57195021770894527435302734375">
        <ele>444.399993896484375</ele>
        <time>2018-08-16T17:17:14.000Z</time>
      </trkpt>
      <trkpt lat="48.91937599517405033111572265625" lon="10.57237467728555202484130859375">
        <ele>443.79998779296875</ele>
        <time>2018-08-16T17:17:19.000Z</time>
      </trkpt>
      <trkpt lat="48.919559977948665618896484375" lon="10.57253904640674591064453125">
        <ele>443.20001220703125</ele>
        <time>2018-08-16T17:17:21.000Z</time>
      </trkpt>
      <trkpt lat="48.91998787410557270050048828125" lon="10.57297901250422000885009765625">
        <ele>442.20001220703125</ele>
        <time>2018-08-16T17:17:26.000Z</time>
      </trkpt>
      <trkpt lat="48.92049430869519710540771484375" lon="10.573435910046100616455078125">
        <ele>442.20001220703125</ele>
        <time>2018-08-16T17:17:32.000Z</time>
      </trkpt>
      <trkpt lat="48.92065800726413726806640625" lon="10.57358083315193653106689453125">
        <ele>442</ele>
        <time>2018-08-16T17:17:34.000Z</time>
      </trkpt>
      <trkpt lat="48.92098900862038135528564453125" lon="10.57386866770684719085693359375">
        <ele>441.600006103515625</ele>
        <time>2018-08-16T17:17:38.000Z</time>
      </trkpt>
      <trkpt lat="48.92131380736827850341796875" lon="10.57414191775023937225341796875">
        <ele>441.79998779296875</ele>
        <time>2018-08-16T17:17:42.000Z</time>
      </trkpt>
      <trkpt lat="48.92180289141833782196044921875" lon="10.5745931155979633331298828125">
        <ele>441.79998779296875</ele>
        <time>2018-08-16T17:17:48.000Z</time>
      </trkpt>
      <trkpt lat="48.9222832582890987396240234375" lon="10.5750031583011150360107421875">
        <ele>441.79998779296875</ele>
        <time>2018-08-16T17:17:54.000Z</time>
      </trkpt>
      <trkpt lat="48.9227553270757198333740234375" lon="10.57540456764400005340576171875">
        <ele>442</ele>
        <time>2018-08-16T17:18:00.000Z</time>
      </trkpt>
      <trkpt lat="48.9233078621327877044677734375" lon="10.57584696449339389801025390625">
        <ele>442.399993896484375</ele>
        <time>2018-08-16T17:18:07.000Z</time>
      </trkpt>
      <trkpt lat="48.9236171543598175048828125" lon="10.5761092342436313629150390625">
        <ele>443</ele>
        <time>2018-08-16T17:18:11.000Z</time>
      </trkpt>
      <trkpt lat="48.92416725866496562957763671875" lon="10.576574094593524932861328125">
        <ele>443.399993896484375</ele>
        <time>2018-08-16T17:18:18.000Z</time>
      </trkpt>
      <trkpt lat="48.92424638383090496063232421875" lon="10.57664056308567523956298828125">
        <ele>443.600006103515625</ele>
        <time>2018-08-16T17:18:19.000Z</time>
      </trkpt>
      <trkpt lat="48.924727253615856170654296875" lon="10.5770309083163738250732421875">
        <ele>443.600006103515625</ele>
        <time>2018-08-16T17:18:25.000Z</time>
      </trkpt>
      <trkpt lat="48.9252103865146636962890625" lon="10.57740968652069568634033203125">
        <ele>443.399993896484375</ele>
        <time>2018-08-16T17:18:31.000Z</time>
      </trkpt>
      <trkpt lat="48.9256118796765804290771484375" lon="10.57771612890064716339111328125">
        <ele>443.20001220703125</ele>
        <time>2018-08-16T17:18:36.000Z</time>
      </trkpt>
      <trkpt lat="48.92576904036104679107666015625" lon="10.57783246971666812896728515625">
        <ele>443.20001220703125</ele>
        <time>2018-08-16T17:18:38.000Z</time>
      </trkpt>
      <trkpt lat="48.9262616448104381561279296875" lon="10.57819909416139125823974609375">
        <ele>442.600006103515625</ele>
        <time>2018-08-16T17:18:44.000Z</time>
      </trkpt>
      <trkpt lat="48.92653112299740314483642578125" lon="10.57839430868625640869140625">
        <ele>442.20001220703125</ele>
        <time>2018-08-16T17:18:47.000Z</time>
      </trkpt>
      <trkpt lat="48.92690160311758518218994140625" lon="10.57866177521646022796630859375">
        <ele>441.600006103515625</ele>
        <time>2018-08-16T17:18:51.000Z</time>
      </trkpt>
      <trkpt lat="48.92714853398501873016357421875" lon="10.57885170914232730865478515625">
        <ele>441.20001220703125</ele>
        <time>2018-08-16T17:18:54.000Z</time>
      </trkpt>
      <trkpt lat="48.92722095362842082977294921875" lon="10.5788836441934108734130859375">
        <ele>441</ele>
        <time>2018-08-16T17:18:55.000Z</time>
      </trkpt>
      <trkpt lat="48.92728750593960285186767578125" lon="10.5788804590702056884765625">
        <ele>440.600006103515625</ele>
        <time>2018-08-16T17:18:56.000Z</time>
      </trkpt>
      <trkpt lat="48.92734098248183727264404296875" lon="10.5788380466401576995849609375">
        <ele>440.600006103515625</ele>
        <time>2018-08-16T17:18:57.000Z</time>
      </trkpt>
      <trkpt lat="48.92741407267749309539794921875" lon="10.57869949378073215484619140625">
        <ele>440.20001220703125</ele>
        <time>2018-08-16T17:18:59.000Z</time>
      </trkpt>
      <trkpt lat="48.92749571241438388824462890625" lon="10.57892295531928539276123046875">
        <ele>439.600006103515625</ele>
        <time>2018-08-16T17:19:05.000Z</time>
      </trkpt>
      <trkpt lat="48.927489258348941802978515625" lon="10.5790050141513347625732421875">
        <ele>439.600006103515625</ele>
        <time>2018-08-16T17:19:06.000Z</time>
      </trkpt>
      <trkpt lat="48.9276040904223918914794921875" lon="10.5791984684765338897705078125">
        <ele>439.600006103515625</ele>
        <time>2018-08-16T17:19:09.000Z</time>
      </trkpt>
      <trkpt lat="48.9276674576103687286376953125" lon="10.57924632914364337921142578125">
        <ele>439.600006103515625</ele>
        <time>2018-08-16T17:19:10.000Z</time>
      </trkpt>
      <trkpt lat="48.9278716407716274261474609375" lon="10.57942402549088001251220703125">
        <ele>439.600006103515625</ele>
        <time>2018-08-16T17:19:13.000Z</time>
      </trkpt>
      <trkpt lat="48.92802159301936626434326171875" lon="10.57954623363912105560302734375">
        <ele>439.399993896484375</ele>
        <time>2018-08-16T17:19:15.000Z</time>
      </trkpt>
      <trkpt lat="48.9281754009425640106201171875" lon="10.5796728841960430145263671875">
        <ele>439.20001220703125</ele>
        <time>2018-08-16T17:19:17.000Z</time>
      </trkpt>
      <trkpt lat="48.92865744419395923614501953125" lon="10.58004847727715969085693359375">
        <ele>439</ele>
        <time>2018-08-16T17:19:23.000Z</time>
      </trkpt>
      <trkpt lat="48.929157592356204986572265625" lon="10.5804329551756381988525390625">
        <ele>438.600006103515625</ele>
        <time>2018-08-16T17:19:29.000Z</time>
      </trkpt>
      <trkpt lat="48.9296620152890682220458984375" lon="10.58082212693989276885986328125">
        <ele>438.399993896484375</ele>
        <time>2018-08-16T17:19:35.000Z</time>
      </trkpt>
      <trkpt lat="48.93007121980190277099609375" lon="10.58112345635890960693359375">
        <ele>438.399993896484375</ele>
        <time>2018-08-16T17:19:40.000Z</time>
      </trkpt>
      <trkpt lat="48.93058427609503269195556640625" lon="10.58154112659394741058349609375">
        <ele>438.399993896484375</ele>
        <time>2018-08-16T17:19:46.000Z</time>
      </trkpt>
      <trkpt lat="48.93093145452439785003662109375" lon="10.58180834166705608367919921875">
        <ele>438.20001220703125</ele>
        <time>2018-08-16T17:19:50.000Z</time>
      </trkpt>
      <trkpt lat="48.9312622882425785064697265625" lon="10.582061223685741424560546875">
        <ele>438</ele>
        <time>2018-08-16T17:19:54.000Z</time>
      </trkpt>
      <trkpt lat="48.93150913529098033905029296875" lon="10.5822461284697055816650390625">
        <ele>437.600006103515625</ele>
        <time>2018-08-16T17:19:57.000Z</time>
      </trkpt>
      <trkpt lat="48.93201389349997043609619140625" lon="10.582605041563510894775390625">
        <ele>437.600006103515625</ele>
        <time>2018-08-16T17:20:03.000Z</time>
      </trkpt>
      <trkpt lat="48.93250398337841033935546875" lon="10.58297929354012012481689453125">
        <ele>437.79998779296875</ele>
        <time>2018-08-16T17:20:09.000Z</time>
      </trkpt>
      <trkpt lat="48.93298284150660037994384765625" lon="10.58336301706731319427490234375">
        <ele>437.79998779296875</ele>
        <time>2018-08-16T17:20:15.000Z</time>
      </trkpt>
      <trkpt lat="48.93329950980842113494873046875" lon="10.583615563809871673583984375">
        <ele>438</ele>
        <time>2018-08-16T17:20:19.000Z</time>
      </trkpt>
      <trkpt lat="48.933847434818744659423828125" lon="10.58403767645359039306640625">
        <ele>438.600006103515625</ele>
        <time>2018-08-16T17:20:26.000Z</time>
      </trkpt>
      <trkpt lat="48.9343820326030254364013671875" lon="10.58448820374906063079833984375">
        <ele>438.79998779296875</ele>
        <time>2018-08-16T17:20:33.000Z</time>
      </trkpt>
      <trkpt lat="48.93473348580300807952880859375" lon="10.5847891978919506072998046875">
        <ele>439</ele>
        <time>2018-08-16T17:20:38.000Z</time>
      </trkpt>
      <trkpt lat="48.93486223183572292327880859375" lon="10.58490964584052562713623046875">
        <ele>439.20001220703125</ele>
        <time>2018-08-16T17:20:40.000Z</time>
      </trkpt>
      <trkpt lat="48.93492626957595348358154296875" lon="10.5849508009850978851318359375">
        <ele>439.20001220703125</ele>
        <time>2018-08-16T17:20:41.000Z</time>
      </trkpt>
      <trkpt lat="48.93505836836993694305419921875" lon="10.58500067330896854400634765625">
        <ele>439.399993896484375</ele>
        <time>2018-08-16T17:20:43.000Z</time>
      </trkpt>
      <trkpt lat="48.9352587796747684478759765625" lon="10.58514408767223358154296875">
        <ele>439.600006103515625</ele>
        <time>2018-08-16T17:20:46.000Z</time>
      </trkpt>
      <trkpt lat="48.93539942800998687744140625" lon="10.585254393517971038818359375">
        <ele>439.79998779296875</ele>
        <time>2018-08-16T17:20:48.000Z</time>
      </trkpt>
      <trkpt lat="48.93554619513452053070068359375" lon="10.5853672139346599578857421875">
        <ele>440.399993896484375</ele>
        <time>2018-08-16T17:20:50.000Z</time>
      </trkpt>
      <trkpt lat="48.935938887298107147216796875" lon="10.5856736563146114349365234375">
        <ele>440.600006103515625</ele>
        <time>2018-08-16T17:20:55.000Z</time>
      </trkpt>
      <trkpt lat="48.9363558031618595123291015625" lon="10.585995018482208251953125">
        <ele>440.600006103515625</ele>
        <time>2018-08-16T17:21:00.000Z</time>
      </trkpt>
      <trkpt lat="48.936891742050647735595703125" lon="10.58640413917601108551025390625">
        <ele>440</ele>
        <time>2018-08-16T17:21:07.000Z</time>
      </trkpt>
      <trkpt lat="48.9373901300132274627685546875" lon="10.58677210472524166107177734375">
        <ele>439.600006103515625</ele>
        <time>2018-08-16T17:21:13.000Z</time>
      </trkpt>
      <trkpt lat="48.93764133565127849578857421875" lon="10.58695499785244464874267578125">
        <ele>439.399993896484375</ele>
        <time>2018-08-16T17:21:16.000Z</time>
      </trkpt>
      <trkpt lat="48.93788985908031463623046875" lon="10.58713965117931365966796875">
        <ele>439.20001220703125</ele>
        <time>2018-08-16T17:21:19.000Z</time>
      </trkpt>
      <trkpt lat="48.93843744881451129913330078125" lon="10.5875512026250362396240234375">
        <ele>439.20001220703125</ele>
        <time>2018-08-16T17:21:26.000Z</time>
      </trkpt>
      <trkpt lat="48.93893466331064701080322265625" lon="10.58794104494154453277587890625">
        <ele>439.600006103515625</ele>
        <time>2018-08-16T17:21:33.000Z</time>
      </trkpt>
      <trkpt lat="48.939121328294277191162109375" lon="10.588091500103473663330078125">
        <ele>439.79998779296875</ele>
        <time>2018-08-16T17:21:36.000Z</time>
      </trkpt>
      <trkpt lat="48.939395248889923095703125" lon="10.5883209966123104095458984375">
        <ele>440.399993896484375</ele>
        <time>2018-08-16T17:21:40.000Z</time>
      </trkpt>
      <trkpt lat="48.9394648186862468719482421875" lon="10.5883862078189849853515625">
        <ele>440.600006103515625</ele>
        <time>2018-08-16T17:21:41.000Z</time>
      </trkpt>
      <trkpt lat="48.93975198268890380859375" lon="10.588631965219974517822265625">
        <ele>441.79998779296875</ele>
        <time>2018-08-16T17:21:45.000Z</time>
      </trkpt>
      <trkpt lat="48.94024425186216831207275390625" lon="10.58904175646603107452392578125">
        <ele>442.20001220703125</ele>
        <time>2018-08-16T17:21:52.000Z</time>
      </trkpt>
      <trkpt lat="48.940577097237110137939453125" lon="10.58936445973813533782958984375">
        <ele>442.600006103515625</ele>
        <time>2018-08-16T17:21:57.000Z</time>
      </trkpt>
      <trkpt lat="48.9407016523182392120361328125" lon="10.58950879611074924468994140625">
        <ele>442.600006103515625</ele>
        <time>2018-08-16T17:21:59.000Z</time>
      </trkpt>
      <trkpt lat="48.940815813839435577392578125" lon="10.5896564014256000518798828125">
        <ele>442.79998779296875</ele>
        <time>2018-08-16T17:22:01.000Z</time>
      </trkpt>
      <trkpt lat="48.9409839548170566558837890625" lon="10.58981171809136867523193359375">
        <ele>442.79998779296875</ele>
        <time>2018-08-16T17:22:04.000Z</time>
      </trkpt>
      <trkpt lat="48.94112535752356052398681640625" lon="10.58972924016416072845458984375">
        <ele>442.79998779296875</ele>
        <time>2018-08-16T17:22:07.000Z</time>
      </trkpt>
      <trkpt lat="48.94116626121103763580322265625" lon="10.58969981968402862548828125">
        <ele>442.79998779296875</ele>
        <time>2018-08-16T17:22:08.000Z</time>
      </trkpt>
      <trkpt lat="48.941322751343250274658203125" lon="10.58990056626498699188232421875">
        <ele>442.79998779296875</ele>
        <time>2018-08-16T17:22:12.000Z</time>
      </trkpt>
      <trkpt lat="48.94136122427880764007568359375" lon="10.589989162981510162353515625">
        <ele>442.79998779296875</ele>
        <time>2018-08-16T17:22:13.000Z</time>
      </trkpt>
      <trkpt lat="48.941409587860107421875" lon="10.59007474221289157867431640625">
        <ele>443</ele>
        <time>2018-08-16T17:22:14.000Z</time>
      </trkpt>
      <trkpt lat="48.94152986817061901092529296875" lon="10.5902273766696453094482421875">
        <ele>442.79998779296875</ele>
        <time>2018-08-16T17:22:16.000Z</time>
      </trkpt>
      <trkpt lat="48.94194745458662509918212890625" lon="10.5908499844372272491455078125">
        <ele>442</ele>
        <time>2018-08-16T17:22:23.000Z</time>
      </trkpt>
      <trkpt lat="48.94205239601433277130126953125" lon="10.5910518206655979156494140625">
        <ele>442</ele>
        <time>2018-08-16T17:22:25.000Z</time>
      </trkpt>
      <trkpt lat="48.9424061961472034454345703125" lon="10.59153185226023197174072265625">
        <ele>441.600006103515625</ele>
        <time>2018-08-16T17:22:31.000Z</time>
      </trkpt>
      <trkpt lat="48.94266142509877681732177734375" lon="10.59185740537941455841064453125">
        <ele>441.600006103515625</ele>
        <time>2018-08-16T17:22:35.000Z</time>
      </trkpt>
      <trkpt lat="48.94308286719024181365966796875" lon="10.5923942662775516510009765625">
        <ele>441.79998779296875</ele>
        <time>2018-08-16T17:22:42.000Z</time>
      </trkpt>
      <trkpt lat="48.94342820160090923309326171875" lon="10.59283808805048465728759765625">
        <ele>442.600006103515625</ele>
        <time>2018-08-16T17:22:49.000Z</time>
      </trkpt>
      <trkpt lat="48.943611346185207366943359375" lon="10.5930001102387905120849609375">
        <ele>443.20001220703125</ele>
        <time>2018-08-16T17:22:52.000Z</time>
      </trkpt>
      <trkpt lat="48.94367814995348453521728515625" lon="10.59306305833160877227783203125">
        <ele>443.399993896484375</ele>
        <time>2018-08-16T17:22:53.000Z</time>
      </trkpt>
      <trkpt lat="48.94408986903727054595947265625" lon="10.59352775104343891143798828125">
        <ele>443.600006103515625</ele>
        <time>2018-08-16T17:22:59.000Z</time>
      </trkpt>
      <trkpt lat="48.9442321099340915679931640625" lon="10.59368834830820560455322265625">
        <ele>443.600006103515625</ele>
        <time>2018-08-16T17:23:01.000Z</time>
      </trkpt>
      <trkpt lat="48.9443640410900115966796875" lon="10.5938493646681308746337890625">
        <ele>443.600006103515625</ele>
        <time>2018-08-16T17:23:03.000Z</time>
      </trkpt>
      <trkpt lat="48.9444832317531108856201171875" lon="10.5940170027315616607666015625">
        <ele>443.399993896484375</ele>
        <time>2018-08-16T17:23:05.000Z</time>
      </trkpt>
      <trkpt lat="48.94459714181721210479736328125" lon="10.59418807737529277801513671875">
        <ele>442.79998779296875</ele>
        <time>2018-08-16T17:23:07.000Z</time>
      </trkpt>
      <trkpt lat="48.94470510073006153106689453125" lon="10.594363175332546234130859375">
        <ele>442.600006103515625</ele>
        <time>2018-08-16T17:23:09.000Z</time>
      </trkpt>
      <trkpt lat="48.94475740380585193634033203125" lon="10.5944531969726085662841796875">
        <ele>442.399993896484375</ele>
        <time>2018-08-16T17:23:10.000Z</time>
      </trkpt>
      <trkpt lat="48.94485815428197383880615234375" lon="10.59463533572852611541748046875">
        <ele>442.20001220703125</ele>
        <time>2018-08-16T17:23:12.000Z</time>
      </trkpt>
      <trkpt lat="48.94490157254040241241455078125" lon="10.594725273549556732177734375">
        <ele>442.20001220703125</ele>
        <time>2018-08-16T17:23:13.000Z</time>
      </trkpt>
      <trkpt lat="48.945123441517353057861328125" lon="10.59522910974919795989990234375">
        <ele>441.399993896484375</ele>
        <time>2018-08-16T17:23:19.000Z</time>
      </trkpt>
      <trkpt lat="48.94520558416843414306640625" lon="10.5954109132289886474609375">
        <ele>441.399993896484375</ele>
        <time>2018-08-16T17:23:21.000Z</time>
      </trkpt>
      <trkpt lat="48.945285044610500335693359375" lon="10.59558316133916378021240234375">
        <ele>441.399993896484375</ele>
        <time>2018-08-16T17:23:23.000Z</time>
      </trkpt>
      <trkpt lat="48.94553960300981998443603515625" lon="10.59602254070341587066650390625">
        <ele>441</ele>
        <time>2018-08-16T17:23:29.000Z</time>
      </trkpt>
      <trkpt lat="48.94563130103051662445068359375" lon="10.59615246020257472991943359375">
        <ele>441</ele>
        <time>2018-08-16T17:23:31.000Z</time>
      </trkpt>
      <trkpt lat="48.94590103067457675933837890625" lon="10.5965003930032253265380859375">
        <ele>440.600006103515625</ele>
        <time>2018-08-16T17:23:37.000Z</time>
      </trkpt>
      <trkpt lat="48.945944868028163909912109375" lon="10.596552528440952301025390625">
        <ele>440.600006103515625</ele>
        <time>2018-08-16T17:23:38.000Z</time>
      </trkpt>
      <trkpt lat="48.94598837010562419891357421875" lon="10.5966029874980449676513671875">
        <ele>440.600006103515625</ele>
        <time>2018-08-16T17:23:39.000Z</time>
      </trkpt>
      <trkpt lat="48.9460322074592113494873046875" lon="10.59665353037416934967041015625">
        <ele>440.600006103515625</ele>
        <time>2018-08-16T17:23:40.000Z</time>
      </trkpt>
      <trkpt lat="48.9461676590144634246826171875" lon="10.596800632774829864501953125">
        <ele>440.600006103515625</ele>
        <time>2018-08-16T17:23:43.000Z</time>
      </trkpt>
      <trkpt lat="48.946385420858860015869140625" lon="10.5970378406345844268798828125">
        <ele>440.399993896484375</ele>
        <time>2018-08-16T17:23:48.000Z</time>
      </trkpt>
      <trkpt lat="48.9464278332889080047607421875" lon="10.59708301909267902374267578125">
        <ele>440.399993896484375</ele>
        <time>2018-08-16T17:23:49.000Z</time>
      </trkpt>
      <trkpt lat="48.94646823406219482421875" lon="10.59712710790336132049560546875">
        <ele>440.20001220703125</ele>
        <time>2018-08-16T17:23:50.000Z</time>
      </trkpt>
      <trkpt lat="48.9465076290071010589599609375" lon="10.59717111289501190185546875">
        <ele>440.20001220703125</ele>
        <time>2018-08-16T17:23:51.000Z</time>
      </trkpt>
      <trkpt lat="48.94657996483147144317626953125" lon="10.59725183062255382537841796875">
        <ele>440.20001220703125</ele>
        <time>2018-08-16T17:23:53.000Z</time>
      </trkpt>
      <trkpt lat="48.94663528539240360260009765625" lon="10.59732642956078052520751953125">
        <ele>440</ele>
        <time>2018-08-16T17:23:55.000Z</time>
      </trkpt>
      <trkpt lat="48.94665959291160106658935546875" lon="10.5973635613918304443359375">
        <ele>440</ele>
        <time>2018-08-16T17:23:56.000Z</time>
      </trkpt>
      <trkpt lat="48.946818597614765167236328125" lon="10.597538910806179046630859375">
        <ele>440</ele>
        <time>2018-08-16T17:24:03.000Z</time>
      </trkpt>
      <trkpt lat="48.94684583880007266998291015625" lon="10.59757034294307231903076171875">
        <ele>440</ele>
        <time>2018-08-16T17:24:04.000Z</time>
      </trkpt>
      <trkpt lat="48.94694524817168712615966796875" lon="10.597684420645236968994140625">
        <ele>440</ele>
        <time>2018-08-16T17:24:07.000Z</time>
      </trkpt>
      <trkpt lat="48.9469840563833713531494140625" lon="10.59773228131234645843505859375">
        <ele>440</ele>
        <time>2018-08-16T17:24:08.000Z</time>
      </trkpt>
      <trkpt lat="48.94702278077602386474609375" lon="10.59778357855975627899169921875">
        <ele>440</ele>
        <time>2018-08-16T17:24:09.000Z</time>
      </trkpt>
      <trkpt lat="48.94709763117134571075439453125" lon="10.59789757244288921356201171875">
        <ele>440</ele>
        <time>2018-08-16T17:24:11.000Z</time>
      </trkpt>
      <trkpt lat="48.94716787151992321014404296875" lon="10.5980336107313632965087890625">
        <ele>439.79998779296875</ele>
        <time>2018-08-16T17:24:13.000Z</time>
      </trkpt>
      <trkpt lat="48.94724800251424312591552734375" lon="10.5983594991266727447509765625">
        <ele>439.600006103515625</ele>
        <time>2018-08-16T17:24:17.000Z</time>
      </trkpt>
      <trkpt lat="48.94727088510990142822265625" lon="10.59843887574970722198486328125">
        <ele>439.600006103515625</ele>
        <time>2018-08-16T17:24:18.000Z</time>
      </trkpt>
      <trkpt lat="48.9473474957048892974853515625" lon="10.5986615829169750213623046875">
        <ele>439.600006103515625</ele>
        <time>2018-08-16T17:24:21.000Z</time>
      </trkpt>
      <trkpt lat="48.9473957754671573638916015625" lon="10.59878655709326267242431640625">
        <ele>439.600006103515625</ele>
        <time>2018-08-16T17:24:23.000Z</time>
      </trkpt>
      <trkpt lat="48.9474333263933658599853515625" lon="10.59887389652431011199951171875">
        <ele>439.79998779296875</ele>
        <time>2018-08-16T17:24:27.000Z</time>
      </trkpt>
      <trkpt lat="48.9474474079906940460205078125" lon="10.59890457428991794586181640625">
        <ele>440</ele>
        <time>2018-08-16T17:26:08.000Z</time>
      </trkpt>
      <trkpt lat="48.9474826119840145111083984375" lon="10.599044300615787506103515625">
        <ele>440</ele>
        <time>2018-08-16T17:26:12.000Z</time>
      </trkpt>
      <trkpt lat="48.94746475853025913238525390625" lon="10.59914362616837024688720703125">
        <ele>440</ele>
        <time>2018-08-16T17:26:14.000Z</time>
      </trkpt>
      <trkpt lat="48.94745528697967529296875" lon="10.59925250709056854248046875">
        <ele>440</ele>
        <time>2018-08-16T17:26:16.000Z</time>
      </trkpt>
      <trkpt lat="48.9474715478718280792236328125" lon="10.5993639864027500152587890625">
        <ele>440</ele>
        <time>2018-08-16T17:26:18.000Z</time>
      </trkpt>
      <trkpt lat="48.9474842883646488189697265625" lon="10.59982918202877044677734375">
        <ele>440</ele>
        <time>2018-08-16T17:26:24.000Z</time>
      </trkpt>
      <trkpt lat="48.947479426860809326171875" lon="10.60024752281606197357177734375">
        <ele>440</ele>
        <time>2018-08-16T17:26:29.000Z</time>
      </trkpt>
      <trkpt lat="48.947473727166652679443359375" lon="10.60042555443942546844482421875">
        <ele>440</ele>
        <time>2018-08-16T17:26:31.000Z</time>
      </trkpt>
      <trkpt lat="48.947448246181011199951171875" lon="10.60088689438998699188232421875">
        <ele>439.600006103515625</ele>
        <time>2018-08-16T17:26:37.000Z</time>
      </trkpt>
      <trkpt lat="48.9473622478544712066650390625" lon="10.6011888943612575531005859375">
        <ele>439.399993896484375</ele>
        <time>2018-08-16T17:26:43.000Z</time>
      </trkpt>
      <trkpt lat="48.947304077446460723876953125" lon="10.60149885714054107666015625">
        <ele>439.399993896484375</ele>
        <time>2018-08-16T17:26:47.000Z</time>
      </trkpt>
      <trkpt lat="48.9472898282110691070556640625" lon="10.60177504085004329681396484375">
        <ele>439.399993896484375</ele>
        <time>2018-08-16T17:26:50.000Z</time>
      </trkpt>
      <trkpt lat="48.94729259423911571502685546875" lon="10.6019774638116359710693359375">
        <ele>439.399993896484375</ele>
        <time>2018-08-16T17:26:52.000Z</time>
      </trkpt>
      <trkpt lat="48.947441540658473968505859375" lon="10.6028283946216106414794921875">
        <ele>439.399993896484375</ele>
        <time>2018-08-16T17:27:00.000Z</time>
      </trkpt>
      <trkpt lat="48.94773700274527072906494140625" lon="10.60361905954778194427490234375">
        <ele>439.600006103515625</ele>
        <time>2018-08-16T17:27:07.000Z</time>
      </trkpt>
      <trkpt lat="48.9481280185282230377197265625" lon="10.604312159121036529541015625">
        <ele>440.20001220703125</ele>
        <time>2018-08-16T17:27:15.000Z</time>
      </trkpt>
      <trkpt lat="48.9485608600080013275146484375" lon="10.60495764948427677154541015625">
        <ele>440.20001220703125</ele>
        <time>2018-08-16T17:27:23.000Z</time>
      </trkpt>
      <trkpt lat="48.94866806454956531524658203125" lon="10.605119504034519195556640625">
        <ele>440.20001220703125</ele>
        <time>2018-08-16T17:27:25.000Z</time>
      </trkpt>
      <trkpt lat="48.9488862454891204833984375" lon="10.6054437160491943359375">
        <ele>440.399993896484375</ele>
        <time>2018-08-16T17:27:29.000Z</time>
      </trkpt>
      <trkpt lat="48.94932369701564311981201171875" lon="10.60609909705817699432373046875">
        <ele>440.399993896484375</ele>
        <time>2018-08-16T17:27:37.000Z</time>
      </trkpt>
      <trkpt lat="48.9497621543705463409423828125" lon="10.606754310429096221923828125">
        <ele>440.399993896484375</ele>
        <time>2018-08-16T17:27:45.000Z</time>
      </trkpt>
      <trkpt lat="48.95015233196318149566650390625" lon="10.60733609832823276519775390625">
        <ele>440.600006103515625</ele>
        <time>2018-08-16T17:27:52.000Z</time>
      </trkpt>
      <trkpt lat="48.9505460299551486968994140625" lon="10.60791025869548320770263671875">
        <ele>440.600006103515625</ele>
        <time>2018-08-16T17:27:59.000Z</time>
      </trkpt>
      <trkpt lat="48.950936459004878997802734375" lon="10.60850118286907672882080078125">
        <ele>440.600006103515625</ele>
        <time>2018-08-16T17:28:06.000Z</time>
      </trkpt>
      <trkpt lat="48.95110870711505413055419921875" lon="10.60875155031681060791015625">
        <ele>440.600006103515625</ele>
        <time>2018-08-16T17:28:09.000Z</time>
      </trkpt>
      <trkpt lat="48.95135186612606048583984375" lon="10.60906226746737957000732421875">
        <ele>440.399993896484375</ele>
        <time>2018-08-16T17:28:13.000Z</time>
      </trkpt>
      <trkpt lat="48.95161782391369342803955078125" lon="10.60932822525501251220703125">
        <ele>440.399993896484375</ele>
        <time>2018-08-16T17:28:17.000Z</time>
      </trkpt>
      <trkpt lat="48.95199517719447612762451171875" lon="10.609560906887054443359375">
        <ele>440.399993896484375</ele>
        <time>2018-08-16T17:28:22.000Z</time>
      </trkpt>
      <trkpt lat="48.95231955684721469879150390625" lon="10.6096480786800384521484375">
        <ele>440.20001220703125</ele>
        <time>2018-08-16T17:28:26.000Z</time>
      </trkpt>
      <trkpt lat="48.95289841108024120330810546875" lon="10.609584040939807891845703125">
        <ele>440.20001220703125</ele>
        <time>2018-08-16T17:28:33.000Z</time>
      </trkpt>
      <trkpt lat="48.9534620940685272216796875" lon="10.6093743257224559783935546875">
        <ele>439.79998779296875</ele>
        <time>2018-08-16T17:28:40.000Z</time>
      </trkpt>
      <trkpt lat="48.953931145370006561279296875" lon="10.609183050692081451416015625">
        <ele>439.600006103515625</ele>
        <time>2018-08-16T17:28:46.000Z</time>
      </trkpt>
      <trkpt lat="48.95407791249454021453857421875" lon="10.60912999324500560760498046875">
        <ele>439.600006103515625</ele>
        <time>2018-08-16T17:28:48.000Z</time>
      </trkpt>
      <trkpt lat="48.95421302877366542816162109375" lon="10.6091423146426677703857421875">
        <ele>439.399993896484375</ele>
        <time>2018-08-16T17:28:50.000Z</time>
      </trkpt>
      <trkpt lat="48.95432501100003719329833984375" lon="10.60924348421394824981689453125">
        <ele>439.399993896484375</ele>
        <time>2018-08-16T17:28:52.000Z</time>
      </trkpt>
      <trkpt lat="48.95440421998500823974609375" lon="10.60940290801227092742919921875">
        <ele>439.399993896484375</ele>
        <time>2018-08-16T17:28:54.000Z</time>
      </trkpt>
      <trkpt lat="48.95443598739802837371826171875" lon="10.60949259437620639801025390625">
        <ele>439.399993896484375</ele>
        <time>2018-08-16T17:28:55.000Z</time>
      </trkpt>
      <trkpt lat="48.95448896102607250213623046875" lon="10.60968453995883464813232421875">
        <ele>439.399993896484375</ele>
        <time>2018-08-16T17:28:57.000Z</time>
      </trkpt>
      <trkpt lat="48.9545140229165554046630859375" lon="10.6097836978733539581298828125">
        <ele>439.399993896484375</ele>
        <time>2018-08-16T17:28:58.000Z</time>
      </trkpt>
      <trkpt lat="48.9545617997646331787109375" lon="10.60998159460723400115966796875">
        <ele>439.600006103515625</ele>
        <time>2018-08-16T17:29:00.000Z</time>
      </trkpt>
      <trkpt lat="48.95466129295527935028076171875" lon="10.6103855185210704803466796875">
        <ele>440</ele>
        <time>2018-08-16T17:29:04.000Z</time>
      </trkpt>
      <trkpt lat="48.954712338745594024658203125" lon="10.6105957366526126861572265625">
        <ele>440.399993896484375</ele>
        <time>2018-08-16T17:29:06.000Z</time>
      </trkpt>
      <trkpt lat="48.95473840646445751190185546875" lon="10.61070126481354236602783203125">
        <ele>440.399993896484375</ele>
        <time>2018-08-16T17:29:07.000Z</time>
      </trkpt>
      <trkpt lat="48.9548301883041858673095703125" lon="10.61101139523088932037353515625">
        <ele>440.600006103515625</ele>
        <time>2018-08-16T17:29:10.000Z</time>
      </trkpt>
      <trkpt lat="48.95487201400101184844970703125" lon="10.61110393144190311431884765625">
        <ele>440.600006103515625</ele>
        <time>2018-08-16T17:29:11.000Z</time>
      </trkpt>
      <trkpt lat="48.95525850355625152587890625" lon="10.6114805303514003753662109375">
        <ele>440.600006103515625</ele>
        <time>2018-08-16T17:29:17.000Z</time>
      </trkpt>
      <trkpt lat="48.95533737726509571075439453125" lon="10.61151531524956226348876953125">
        <ele>440.600006103515625</ele>
        <time>2018-08-16T17:29:18.000Z</time>
      </trkpt>
      <trkpt lat="48.95590533502399921417236328125" lon="10.6117624975740909576416015625">
        <ele>440</ele>
        <time>2018-08-16T17:29:25.000Z</time>
      </trkpt>
      <trkpt lat="48.95645837299525737762451171875" lon="10.6119854561984539031982421875">
        <ele>439.600006103515625</ele>
        <time>2018-08-16T17:29:32.000Z</time>
      </trkpt>
      <trkpt lat="48.956999592483043670654296875" lon="10.6122308783233165740966796875">
        <ele>439.600006103515625</ele>
        <time>2018-08-16T17:29:39.000Z</time>
      </trkpt>
      <trkpt lat="48.95739144645631313323974609375" lon="10.61240849085152149200439453125">
        <ele>439.600006103515625</ele>
        <time>2018-08-16T17:29:44.000Z</time>
      </trkpt>
      <trkpt lat="48.957548439502716064453125" lon="10.6124749593436717987060546875">
        <ele>439.600006103515625</ele>
        <time>2018-08-16T17:29:46.000Z</time>
      </trkpt>
      <trkpt lat="48.95786284469068050384521484375" lon="10.6126146018505096435546875">
        <ele>439.600006103515625</ele>
        <time>2018-08-16T17:29:50.000Z</time>
      </trkpt>
      <trkpt lat="48.95802428014576435089111328125" lon="10.612684674561023712158203125">
        <ele>439.399993896484375</ele>
        <time>2018-08-16T17:29:52.000Z</time>
      </trkpt>
      <trkpt lat="48.95826316438615322113037109375" lon="10.61279087327420711517333984375">
        <ele>439.600006103515625</ele>
        <time>2018-08-16T17:29:55.000Z</time>
      </trkpt>
      <trkpt lat="48.95865091122686862945556640625" lon="10.612934790551662445068359375">
        <ele>439.399993896484375</ele>
        <time>2018-08-16T17:30:00.000Z</time>
      </trkpt>
      <trkpt lat="48.95888761617243289947509765625" lon="10.6130583398044109344482421875">
        <ele>439.399993896484375</ele>
        <time>2018-08-16T17:30:03.000Z</time>
      </trkpt>
      <trkpt lat="48.95913873799145221710205078125" lon="10.61315850354731082916259765625">
        <ele>439.399993896484375</ele>
        <time>2018-08-16T17:30:06.000Z</time>
      </trkpt>
      <trkpt lat="48.95943847484886646270751953125" lon="10.61324081383645534515380859375">
        <ele>439.399993896484375</ele>
        <time>2018-08-16T17:30:10.000Z</time>
      </trkpt>
      <trkpt lat="48.9594808034598827362060546875" lon="10.61323846690356731414794921875">
        <ele>439.399993896484375</ele>
        <time>2018-08-16T17:30:11.000Z</time>
      </trkpt>
      <trkpt lat="48.95955364219844341278076171875" lon="10.61323394067585468292236328125">
        <ele>439.399993896484375</ele>
        <time>2018-08-16T17:30:13.000Z</time>
      </trkpt>
      <trkpt lat="48.9596430771052837371826171875" lon="10.61327367089688777923583984375">
        <ele>439.399993896484375</ele>
        <time>2018-08-16T17:30:15.000Z</time>
      </trkpt>
      <trkpt lat="48.9596955478191375732421875" lon="10.61329864896833896636962890625">
        <ele>439.399993896484375</ele>
        <time>2018-08-16T17:30:16.000Z</time>
      </trkpt>
      <trkpt lat="48.9598117209970951080322265625" lon="10.6133533827960491180419921875">
        <ele>439.399993896484375</ele>
        <time>2018-08-16T17:30:18.000Z</time>
      </trkpt>
      <trkpt lat="48.95994004793465137481689453125" lon="10.6134160794317722320556640625">
        <ele>439.20001220703125</ele>
        <time>2018-08-16T17:30:20.000Z</time>
      </trkpt>
      <trkpt lat="48.9604256115853786468505859375" lon="10.6136266328394412994384765625">
        <ele>439.20001220703125</ele>
        <time>2018-08-16T17:30:27.000Z</time>
      </trkpt>
      <trkpt lat="48.960697017610073089599609375" lon="10.61374003998935222625732421875">
        <ele>439.20001220703125</ele>
        <time>2018-08-16T17:30:31.000Z</time>
      </trkpt>
      <trkpt lat="48.96111242473125457763671875" lon="10.6137446500360965728759765625">
        <ele>439.20001220703125</ele>
        <time>2018-08-16T17:30:37.000Z</time>
      </trkpt>
      <trkpt lat="48.96148122847080230712890625" lon="10.6138350069522857666015625">
        <ele>439</ele>
        <time>2018-08-16T17:30:42.000Z</time>
      </trkpt>
      <trkpt lat="48.96204994060099124908447265625" lon="10.613858141005039215087890625">
        <ele>439</ele>
        <time>2018-08-16T17:30:49.000Z</time>
      </trkpt>
      <trkpt lat="48.9625395275652408599853515625" lon="10.6137667782604694366455078125">
        <ele>439.399993896484375</ele>
        <time>2018-08-16T17:30:55.000Z</time>
      </trkpt>
      <trkpt lat="48.96287731826305389404296875" lon="10.6137104518711566925048828125">
        <ele>440</ele>
        <time>2018-08-16T17:30:59.000Z</time>
      </trkpt>
      <trkpt lat="48.96296792663633823394775390625" lon="10.613715313374996185302734375">
        <ele>440</ele>
        <time>2018-08-16T17:31:00.000Z</time>
      </trkpt>
      <trkpt lat="48.96349967457354068756103515625" lon="10.613911785185337066650390625">
        <ele>440.20001220703125</ele>
        <time>2018-08-16T17:31:06.000Z</time>
      </trkpt>
      <trkpt lat="48.96366655826568603515625" lon="10.61397389508783817291259765625">
        <ele>440.399993896484375</ele>
        <time>2018-08-16T17:31:08.000Z</time>
      </trkpt>
      <trkpt lat="48.96392740309238433837890625" lon="10.614016391336917877197265625">
        <ele>440.600006103515625</ele>
        <time>2018-08-16T17:31:11.000Z</time>
      </trkpt>
      <trkpt lat="48.9642457477748394012451171875" lon="10.6142210774123668670654296875">
        <ele>441</ele>
        <time>2018-08-16T17:31:15.000Z</time>
      </trkpt>
      <trkpt lat="48.96478327922523021697998046875" lon="10.6146160326898097991943359375">
        <ele>441.20001220703125</ele>
        <time>2018-08-16T17:31:22.000Z</time>
      </trkpt>
      <trkpt lat="48.964865505695343017578125" lon="10.61466825194656848907470703125">
        <ele>441.600006103515625</ele>
        <time>2018-08-16T17:31:23.000Z</time>
      </trkpt>
      <trkpt lat="48.96527261473238468170166015625" lon="10.61494384892284870147705078125">
        <ele>442.600006103515625</ele>
        <time>2018-08-16T17:31:28.000Z</time>
      </trkpt>
      <trkpt lat="48.96577402018010616302490234375" lon="10.61526956968009471893310546875">
        <ele>443.20001220703125</ele>
        <time>2018-08-16T17:31:34.000Z</time>
      </trkpt>
      <trkpt lat="48.96633175201714038848876953125" lon="10.6155869923532009124755859375">
        <ele>443.20001220703125</ele>
        <time>2018-08-16T17:31:41.000Z</time>
      </trkpt>
      <trkpt lat="48.96677381359040737152099609375" lon="10.61584465205669403076171875">
        <ele>443</ele>
        <time>2018-08-16T17:31:47.000Z</time>
      </trkpt>
      <trkpt lat="48.96700448356568813323974609375" lon="10.61598203144967555999755859375">
        <ele>442.79998779296875</ele>
        <time>2018-08-16T17:31:50.000Z</time>
      </trkpt>
      <trkpt lat="48.9672394283115863800048828125" lon="10.61611882410943508148193359375">
        <ele>442.600006103515625</ele>
        <time>2018-08-16T17:31:53.000Z</time>
      </trkpt>
      <trkpt lat="48.9678147621452808380126953125" lon="10.61641889624297618865966796875">
        <ele>442.399993896484375</ele>
        <time>2018-08-16T17:32:00.000Z</time>
      </trkpt>
      <trkpt lat="48.96798717789351940155029296875" lon="10.61649433337152004241943359375">
        <ele>442.399993896484375</ele>
        <time>2018-08-16T17:32:02.000Z</time>
      </trkpt>
      <trkpt lat="48.96833670325577259063720703125" lon="10.61663498170673847198486328125">
        <ele>442.20001220703125</ele>
        <time>2018-08-16T17:32:06.000Z</time>
      </trkpt>
      <trkpt lat="48.9686827920377254486083984375" lon="10.61677847988903522491455078125">
        <ele>442</ele>
        <time>2018-08-16T17:32:10.000Z</time>
      </trkpt>
      <trkpt lat="48.96893978118896484375" lon="10.61688861809670925140380859375">
        <ele>441.79998779296875</ele>
        <time>2018-08-16T17:32:13.000Z</time>
      </trkpt>
      <trkpt lat="48.969342447817325592041015625" lon="10.61712180264294147491455078125">
        <ele>441.79998779296875</ele>
        <time>2018-08-16T17:32:18.000Z</time>
      </trkpt>
      <trkpt lat="48.9698911271989345550537109375" lon="10.61750887893140316009521484375">
        <ele>441.79998779296875</ele>
        <time>2018-08-16T17:32:25.000Z</time>
      </trkpt>
      <trkpt lat="48.970387168228626251220703125" lon="10.61785588972270488739013671875">
        <ele>441.79998779296875</ele>
        <time>2018-08-16T17:32:31.000Z</time>
      </trkpt>
      <trkpt lat="48.97053712047636508941650390625" lon="10.617973990738391876220703125">
        <ele>441.79998779296875</ele>
        <time>2018-08-16T17:32:33.000Z</time>
      </trkpt>
      <trkpt lat="48.97089804522693157196044921875" lon="10.618304908275604248046875">
        <ele>441</ele>
        <time>2018-08-16T17:32:38.000Z</time>
      </trkpt>
      <trkpt lat="48.9713309705257415771484375" lon="10.61880472116172313690185546875">
        <ele>440.79998779296875</ele>
        <time>2018-08-16T17:32:45.000Z</time>
      </trkpt>
      <trkpt lat="48.971468098461627960205078125" lon="10.6189350597560405731201171875">
        <ele>441</ele>
        <time>2018-08-16T17:32:47.000Z</time>
      </trkpt>
      <trkpt lat="48.97168694995343685150146484375" lon="10.6191080622375011444091796875">
        <ele>441.399993896484375</ele>
        <time>2018-08-16T17:32:50.000Z</time>
      </trkpt>
      <trkpt lat="48.97220671176910400390625" lon="10.6195150874555110931396484375">
        <ele>442.399993896484375</ele>
        <time>2018-08-16T17:32:57.000Z</time>
      </trkpt>
      <trkpt lat="48.97249228321015834808349609375" lon="10.6197568215429782867431640625">
        <ele>442.600006103515625</ele>
        <time>2018-08-16T17:33:01.000Z</time>
      </trkpt>
      <trkpt lat="48.9727064408361911773681640625" lon="10.619947426021099090576171875">
        <ele>442.79998779296875</ele>
        <time>2018-08-16T17:33:04.000Z</time>
      </trkpt>
      <trkpt lat="48.97305739112198352813720703125" lon="10.62028496526181697845458984375">
        <ele>442.79998779296875</ele>
        <time>2018-08-16T17:33:09.000Z</time>
      </trkpt>
      <trkpt lat="48.97354873828589916229248046875" lon="10.620770864188671112060546875">
        <ele>442.79998779296875</ele>
        <time>2018-08-16T17:33:16.000Z</time>
      </trkpt>
      <trkpt lat="48.974031619727611541748046875" lon="10.621269755065441131591796875">
        <ele>442.79998779296875</ele>
        <time>2018-08-16T17:33:23.000Z</time>
      </trkpt>
      <trkpt lat="48.97416832856833934783935546875" lon="10.62141501344740390777587890625">
        <ele>442.79998779296875</ele>
        <time>2018-08-16T17:33:25.000Z</time>
      </trkpt>
      <trkpt lat="48.97430176846683025360107421875" lon="10.6215565837919712066650390625">
        <ele>442.79998779296875</ele>
        <time>2018-08-16T17:33:27.000Z</time>
      </trkpt>
      <trkpt lat="48.9745018444955348968505859375" lon="10.621761269867420196533203125">
        <ele>442.600006103515625</ele>
        <time>2018-08-16T17:33:30.000Z</time>
      </trkpt>
      <trkpt lat="48.9747695624828338623046875" lon="10.6220450811088085174560546875">
        <ele>442.399993896484375</ele>
        <time>2018-08-16T17:33:34.000Z</time>
      </trkpt>
      <trkpt lat="48.97497165016829967498779296875" lon="10.622248761355876922607421875">
        <ele>442.20001220703125</ele>
        <time>2018-08-16T17:33:37.000Z</time>
      </trkpt>
      <trkpt lat="48.9750406332314014434814453125" lon="10.62230399809777736663818359375">
        <ele>442.20001220703125</ele>
        <time>2018-08-16T17:33:38.000Z</time>
      </trkpt>
      <trkpt lat="48.97525596432387828826904296875" lon="10.62246023677289485931396484375">
        <ele>442</ele>
        <time>2018-08-16T17:33:41.000Z</time>
      </trkpt>
      <trkpt lat="48.97532653994858264923095703125" lon="10.62253014184534549713134765625">
        <ele>442</ele>
        <time>2018-08-16T17:33:42.000Z</time>
      </trkpt>
      <trkpt lat="48.97539678029716014862060546875" lon="10.6226059980690479278564453125">
        <ele>441.79998779296875</ele>
        <time>2018-08-16T17:33:43.000Z</time>
      </trkpt>
      <trkpt lat="48.975539021193981170654296875" lon="10.622765086591243743896484375">
        <ele>441.79998779296875</ele>
        <time>2018-08-16T17:33:45.000Z</time>
      </trkpt>
      <trkpt lat="48.9756857044994831085205078125" lon="10.62292702496051788330078125">
        <ele>441.600006103515625</ele>
        <time>2018-08-16T17:33:47.000Z</time>
      </trkpt>
      <trkpt lat="48.97614880464971065521240234375" lon="10.6233506463468074798583984375">
        <ele>441.20001220703125</ele>
        <time>2018-08-16T17:33:53.000Z</time>
      </trkpt>
      <trkpt lat="48.97662305273115634918212890625" lon="10.62372506596148014068603515625">
        <ele>441.20001220703125</ele>
        <time>2018-08-16T17:33:59.000Z</time>
      </trkpt>
      <trkpt lat="48.977085985243320465087890625" lon="10.6240272335708141326904296875">
        <ele>441.20001220703125</ele>
        <time>2018-08-16T17:34:05.000Z</time>
      </trkpt>
      <trkpt lat="48.97724130190908908843994140625" lon="10.62411700375378131866455078125">
        <ele>441.20001220703125</ele>
        <time>2018-08-16T17:34:07.000Z</time>
      </trkpt>
      <trkpt lat="48.97731967270374298095703125" lon="10.62415740452706813812255859375">
        <ele>441.20001220703125</ele>
        <time>2018-08-16T17:34:08.000Z</time>
      </trkpt>
      <trkpt lat="48.97747389972209930419921875" lon="10.62424105592072010040283203125">
        <ele>441.20001220703125</ele>
        <time>2018-08-16T17:34:10.000Z</time>
      </trkpt>
      <trkpt lat="48.97801025770604610443115234375" lon="10.6244845502078533172607421875">
        <ele>441.600006103515625</ele>
        <time>2018-08-16T17:34:17.000Z</time>
      </trkpt>
      <trkpt lat="48.97808619774878025054931640625" lon="10.62450173310935497283935546875">
        <ele>441.79998779296875</ele>
        <time>2018-08-16T17:34:18.000Z</time>
      </trkpt>
      <trkpt lat="48.9786130003631114959716796875" lon="10.62456225045025348663330078125">
        <ele>442</ele>
        <time>2018-08-16T17:34:24.000Z</time>
      </trkpt>
      <trkpt lat="48.9787953905761241912841796875" lon="10.6246002204716205596923828125">
        <ele>442</ele>
        <time>2018-08-16T17:34:26.000Z</time>
      </trkpt>
      <trkpt lat="48.9793439023196697235107421875" lon="10.62467322684824466705322265625">
        <ele>442.20001220703125</ele>
        <time>2018-08-16T17:34:32.000Z</time>
      </trkpt>
      <trkpt lat="48.97988797165453433990478515625" lon="10.6246712990105152130126953125">
        <ele>442.20001220703125</ele>
        <time>2018-08-16T17:34:38.000Z</time>
      </trkpt>
      <trkpt lat="48.98012392222881317138671875" lon="10.62455520965158939361572265625">
        <ele>442.20001220703125</ele>
        <time>2018-08-16T17:34:41.000Z</time>
      </trkpt>
      <trkpt lat="48.9801985211670398712158203125" lon="10.6245210953056812286376953125">
        <ele>442.20001220703125</ele>
        <time>2018-08-16T17:34:42.000Z</time>
      </trkpt>
      <trkpt lat="48.980670087039470672607421875" lon="10.62460315413773059844970703125">
        <ele>442.20001220703125</ele>
        <time>2018-08-16T17:34:48.000Z</time>
      </trkpt>
      <trkpt lat="48.98084132932126522064208984375" lon="10.6245673634111881256103515625">
        <ele>442.399993896484375</ele>
        <time>2018-08-16T17:34:50.000Z</time>
      </trkpt>
      <trkpt lat="48.9816941879689693450927734375" lon="10.6243239529430866241455078125">
        <ele>442.600006103515625</ele>
        <time>2018-08-16T17:35:01.000Z</time>
      </trkpt>
      <trkpt lat="48.98212241940200328826904296875" lon="10.6241938658058643341064453125">
        <ele>442.600006103515625</ele>
        <time>2018-08-16T17:35:06.000Z</time>
      </trkpt>
      <trkpt lat="48.98273102939128875732421875" lon="10.62402002513408660888671875">
        <ele>442.79998779296875</ele>
        <time>2018-08-16T17:35:13.000Z</time>
      </trkpt>
      <trkpt lat="48.98300536908209323883056640625" lon="10.623937211930751800537109375">
        <ele>442.79998779296875</ele>
        <time>2018-08-16T17:35:16.000Z</time>
      </trkpt>
      <trkpt lat="48.98339412175118923187255859375" lon="10.623848028481006622314453125">
        <ele>442.79998779296875</ele>
        <time>2018-08-16T17:35:20.000Z</time>
      </trkpt>
      <trkpt lat="48.98396710865199565887451171875" lon="10.623765885829925537109375">
        <ele>442.20001220703125</ele>
        <time>2018-08-16T17:35:26.000Z</time>
      </trkpt>
      <trkpt lat="48.98453054018318653106689453125" lon="10.62371199019253253936767578125">
        <ele>441.79998779296875</ele>
        <time>2018-08-16T17:35:32.000Z</time>
      </trkpt>
      <trkpt lat="48.9850908704102039337158203125" lon="10.6236825697124004364013671875">
        <ele>441.79998779296875</ele>
        <time>2018-08-16T17:35:38.000Z</time>
      </trkpt>
      <trkpt lat="48.9856125600636005401611328125" lon="10.6236617825925350189208984375">
        <ele>441.79998779296875</ele>
        <time>2018-08-16T17:35:44.000Z</time>
      </trkpt>
      <trkpt lat="48.985693193972110748291015625" lon="10.623642839491367340087890625">
        <ele>441.79998779296875</ele>
        <time>2018-08-16T17:35:45.000Z</time>
      </trkpt>
      <trkpt lat="48.985927216708660125732421875" lon="10.62356446869671344757080078125">
        <ele>441.79998779296875</ele>
        <time>2018-08-16T17:35:48.000Z</time>
      </trkpt>
      <trkpt lat="48.98617423139512538909912109375" lon="10.623597912490367889404296875">
        <ele>442</ele>
        <time>2018-08-16T17:35:51.000Z</time>
      </trkpt>
      <trkpt lat="48.98649911396205425262451171875" lon="10.62372037209570407867431640625">
        <ele>442.20001220703125</ele>
        <time>2018-08-16T17:35:55.000Z</time>
      </trkpt>
      <trkpt lat="48.98708685301244258880615234375" lon="10.6237848289310932159423828125">
        <ele>442.399993896484375</ele>
        <time>2018-08-16T17:36:02.000Z</time>
      </trkpt>
      <trkpt lat="48.9874220453202724456787109375" lon="10.6238384731113910675048828125">
        <ele>442.600006103515625</ele>
        <time>2018-08-16T17:36:06.000Z</time>
      </trkpt>
      <trkpt lat="48.988011963665485382080078125" lon="10.6239259801805019378662109375">
        <ele>443</ele>
        <time>2018-08-16T17:36:13.000Z</time>
      </trkpt>
      <trkpt lat="48.98809687234461307525634765625" lon="10.62393260188400745391845703125">
        <ele>443.20001220703125</ele>
        <time>2018-08-16T17:36:14.000Z</time>
      </trkpt>
      <trkpt lat="48.98871595971286296844482421875" lon="10.6239621900022029876708984375">
        <ele>444</ele>
        <time>2018-08-16T17:36:21.000Z</time>
      </trkpt>
      <trkpt lat="48.98926413618028163909912109375" lon="10.6239360384643077850341796875">
        <ele>444</ele>
        <time>2018-08-16T17:36:27.000Z</time>
      </trkpt>
      <trkpt lat="48.98981214500963687896728515625" lon="10.6238450109958648681640625">
        <ele>443.79998779296875</ele>
        <time>2018-08-16T17:36:33.000Z</time>
      </trkpt>
      <trkpt lat="48.99036082439124584197998046875" lon="10.62369589693844318389892578125">
        <ele>443.600006103515625</ele>
        <time>2018-08-16T17:36:39.000Z</time>
      </trkpt>
      <trkpt lat="48.99091000668704509735107421875" lon="10.62348467297852039337158203125">
        <ele>443.399993896484375</ele>
        <time>2018-08-16T17:36:45.000Z</time>
      </trkpt>
      <trkpt lat="48.99126573465764522552490234375" lon="10.623286105692386627197265625">
        <ele>443.20001220703125</ele>
        <time>2018-08-16T17:36:49.000Z</time>
      </trkpt>
      <trkpt lat="48.9915834926068782806396484375" lon="10.6229717843234539031982421875">
        <ele>443</ele>
        <time>2018-08-16T17:36:53.000Z</time>
      </trkpt>
      <trkpt lat="48.99194265715777873992919921875" lon="10.62281412072479724884033203125">
        <ele>443</ele>
        <time>2018-08-16T17:36:57.000Z</time>
      </trkpt>
      <trkpt lat="48.992035947740077972412109375" lon="10.622784197330474853515625">
        <ele>442.79998779296875</ele>
        <time>2018-08-16T17:36:58.000Z</time>
      </trkpt>
      <trkpt lat="48.9925537817180156707763671875" lon="10.62241581268608570098876953125">
        <ele>442.399993896484375</ele>
        <time>2018-08-16T17:37:04.000Z</time>
      </trkpt>
      <trkpt lat="48.9930654130876064300537109375" lon="10.62201482243835926055908203125">
        <ele>442.399993896484375</ele>
        <time>2018-08-16T17:37:10.000Z</time>
      </trkpt>
      <trkpt lat="48.993329443037509918212890625" lon="10.62184743583202362060546875">
        <ele>442.20001220703125</ele>
        <time>2018-08-16T17:37:13.000Z</time>
      </trkpt>
      <trkpt lat="48.9938814751803874969482421875" lon="10.62160578556358814239501953125">
        <ele>442.20001220703125</ele>
        <time>2018-08-16T17:37:19.000Z</time>
      </trkpt>
      <trkpt lat="48.99443157948553562164306640625" lon="10.6214202940464019775390625">
        <ele>442.20001220703125</ele>
        <time>2018-08-16T17:37:25.000Z</time>
      </trkpt>
      <trkpt lat="48.994977660477161407470703125" lon="10.621271096169948577880859375">
        <ele>442.20001220703125</ele>
        <time>2018-08-16T17:37:31.000Z</time>
      </trkpt>
      <trkpt lat="48.995505385100841522216796875" lon="10.62110085971653461456298828125">
        <ele>442.20001220703125</ele>
        <time>2018-08-16T17:37:37.000Z</time>
      </trkpt>
      <trkpt lat="48.9958756975829601287841796875" lon="10.62083766795694828033447265625">
        <ele>442.399993896484375</ele>
        <time>2018-08-16T17:37:42.000Z</time>
      </trkpt>
      <trkpt lat="48.9959786273539066314697265625" lon="10.6207478977739810943603515625">
        <ele>442.399993896484375</ele>
        <time>2018-08-16T17:37:44.000Z</time>
      </trkpt>
      <trkpt lat="48.99601374752819538116455078125" lon="10.62071378342807292938232421875">
        <ele>442.399993896484375</ele>
        <time>2018-08-16T17:37:45.000Z</time>
      </trkpt>
      <trkpt lat="48.99615473113954067230224609375" lon="10.6206144578754901885986328125">
        <ele>442.399993896484375</ele>
        <time>2018-08-16T17:37:48.000Z</time>
      </trkpt>
      <trkpt lat="48.9962803758680820465087890625" lon="10.62059224583208560943603515625">
        <ele>442.399993896484375</ele>
        <time>2018-08-16T17:37:50.000Z</time>
      </trkpt>
      <trkpt lat="48.9964205212891101837158203125" lon="10.62056693248450756072998046875">
        <ele>442.600006103515625</ele>
        <time>2018-08-16T17:37:52.000Z</time>
      </trkpt>
      <trkpt lat="48.99699375964701175689697265625" lon="10.62024054117500782012939453125">
        <ele>442.399993896484375</ele>
        <time>2018-08-16T17:38:00.000Z</time>
      </trkpt>
      <trkpt lat="48.997540175914764404296875" lon="10.620029903948307037353515625">
        <ele>442.600006103515625</ele>
        <time>2018-08-16T17:38:07.000Z</time>
      </trkpt>
      <trkpt lat="48.9980543218553066253662109375" lon="10.61995656229555606842041015625">
        <ele>442.600006103515625</ele>
        <time>2018-08-16T17:38:13.000Z</time>
      </trkpt>
      <trkpt lat="48.99867131374776363372802734375" lon="10.61991356313228607177734375">
        <ele>443</ele>
        <time>2018-08-16T17:38:20.000Z</time>
      </trkpt>
      <trkpt lat="48.998854123055934906005859375" lon="10.61985849402844905853271484375">
        <ele>443</ele>
        <time>2018-08-16T17:38:22.000Z</time>
      </trkpt>
      <trkpt lat="48.999387882649898529052734375" lon="10.62004423700273036956787109375">
        <ele>443</ele>
        <time>2018-08-16T17:38:28.000Z</time>
      </trkpt>
      <trkpt lat="48.9995707757771015167236328125" lon="10.62006804160773754119873046875">
        <ele>443</ele>
        <time>2018-08-16T17:38:30.000Z</time>
      </trkpt>
      <trkpt lat="49.00012557394802570343017578125" lon="10.620125792920589447021484375">
        <ele>442.79998779296875</ele>
        <time>2018-08-16T17:38:36.000Z</time>
      </trkpt>
      <trkpt lat="49.0004015900194644927978515625" lon="10.6201497651636600494384765625">
        <ele>442.79998779296875</ele>
        <time>2018-08-16T17:38:39.000Z</time>
      </trkpt>
      <trkpt lat="49.00095270015299320220947265625" lon="10.620202906429767608642578125">
        <ele>443</ele>
        <time>2018-08-16T17:38:45.000Z</time>
      </trkpt>
      <trkpt lat="49.001315720379352569580078125" lon="10.62023987062275409698486328125">
        <ele>443.399993896484375</ele>
        <time>2018-08-16T17:38:49.000Z</time>
      </trkpt>
      <trkpt lat="49.0014065802097320556640625" lon="10.62025076709687709808349609375">
        <ele>443.399993896484375</ele>
        <time>2018-08-16T17:38:50.000Z</time>
      </trkpt>
      <trkpt lat="49.0020293556153774261474609375" lon="10.62033240683376789093017578125">
        <ele>443.600006103515625</ele>
        <time>2018-08-16T17:38:57.000Z</time>
      </trkpt>
      <trkpt lat="49.00263612158596515655517578125" lon="10.62045360915362834930419921875">
        <ele>443.79998779296875</ele>
        <time>2018-08-16T17:39:04.000Z</time>
      </trkpt>
      <trkpt lat="49.0032142214477062225341796875" lon="10.620638765394687652587890625">
        <ele>444</ele>
        <time>2018-08-16T17:39:11.000Z</time>
      </trkpt>
      <trkpt lat="49.0038053132593631744384765625" lon="10.62092752195894718170166015625">
        <ele>444</ele>
        <time>2018-08-16T17:39:18.000Z</time>
      </trkpt>
      <trkpt lat="49.0043531544506549835205078125" lon="10.621187947690486907958984375">
        <ele>444.20001220703125</ele>
        <time>2018-08-16T17:39:25.000Z</time>
      </trkpt>
      <trkpt lat="49.00447896681725978851318359375" lon="10.62124821357429027557373046875">
        <ele>444.20001220703125</ele>
        <time>2018-08-16T17:39:27.000Z</time>
      </trkpt>
      <trkpt lat="49.0045637078583240509033203125" lon="10.62134074978530406951904296875">
        <ele>444.20001220703125</ele>
        <time>2018-08-16T17:39:29.000Z</time>
      </trkpt>
      <trkpt lat="49.00459564290940761566162109375" lon="10.62139674089848995208740234375">
        <ele>444.399993896484375</ele>
        <time>2018-08-16T17:39:30.000Z</time>
      </trkpt>
      <trkpt lat="49.00463721714913845062255859375" lon="10.62145088799297809600830078125">
        <ele>444.399993896484375</ele>
        <time>2018-08-16T17:39:31.000Z</time>
      </trkpt>
      <trkpt lat="49.00468985550105571746826171875" lon="10.621495731174945831298828125">
        <ele>444.399993896484375</ele>
        <time>2018-08-16T17:39:32.000Z</time>
      </trkpt>
      <trkpt lat="49.004748947918415069580078125" lon="10.62153185717761516571044921875">
        <ele>444.399993896484375</ele>
        <time>2018-08-16T17:39:33.000Z</time>
      </trkpt>
      <trkpt lat="49.00487844832241535186767578125" lon="10.62159690074622631072998046875">
        <ele>444.600006103515625</ele>
        <time>2018-08-16T17:39:35.000Z</time>
      </trkpt>
      <trkpt lat="49.0050170011818408966064453125" lon="10.621664039790630340576171875">
        <ele>444.600006103515625</ele>
        <time>2018-08-16T17:39:37.000Z</time>
      </trkpt>
      <trkpt lat="49.00516376830637454986572265625" lon="10.6217342801392078399658203125">
        <ele>444.600006103515625</ele>
        <time>2018-08-16T17:39:39.000Z</time>
      </trkpt>
      <trkpt lat="49.00539561174809932708740234375" lon="10.62184366397559642791748046875">
        <ele>444.79998779296875</ele>
        <time>2018-08-16T17:39:42.000Z</time>
      </trkpt>
      <trkpt lat="49.00597748346626758575439453125" lon="10.62211456708610057830810546875">
        <ele>445</ele>
        <time>2018-08-16T17:39:49.000Z</time>
      </trkpt>
      <trkpt lat="49.006577543914318084716796875" lon="10.6223830394446849822998046875">
        <ele>445.399993896484375</ele>
        <time>2018-08-16T17:39:56.000Z</time>
      </trkpt>
      <trkpt lat="49.0070786140859127044677734375" lon="10.6225439719855785369873046875">
        <ele>445.399993896484375</ele>
        <time>2018-08-16T17:40:02.000Z</time>
      </trkpt>
      <trkpt lat="49.0076784230768680572509765625" lon="10.62256668694317340850830078125">
        <ele>446.20001220703125</ele>
        <time>2018-08-16T17:40:10.000Z</time>
      </trkpt>
      <trkpt lat="49.0078222565352916717529296875" lon="10.6225459836423397064208984375">
        <ele>446.399993896484375</ele>
        <time>2018-08-16T17:40:12.000Z</time>
      </trkpt>
      <trkpt lat="49.00825895369052886962890625" lon="10.6224326603114604949951171875">
        <ele>447.600006103515625</ele>
        <time>2018-08-16T17:40:18.000Z</time>
      </trkpt>
      <trkpt lat="49.00861208327114582061767578125" lon="10.62232595868408679962158203125">
        <ele>448.79998779296875</ele>
        <time>2018-08-16T17:40:23.000Z</time>
      </trkpt>
      <trkpt lat="49.00896479375660419464111328125" lon="10.62220592983067035675048828125">
        <ele>449.79998779296875</ele>
        <time>2018-08-16T17:40:28.000Z</time>
      </trkpt>
      <trkpt lat="49.0091693960130214691162109375" lon="10.62209025956690311431884765625">
        <ele>450.399993896484375</ele>
        <time>2018-08-16T17:40:31.000Z</time>
      </trkpt>
      <trkpt lat="49.00940157473087310791015625" lon="10.6217958033084869384765625">
        <ele>451</ele>
        <time>2018-08-16T17:40:35.000Z</time>
      </trkpt>
      <trkpt lat="49.00966485030949115753173828125" lon="10.6213202141225337982177734375">
        <ele>451.79998779296875</ele>
        <time>2018-08-16T17:40:40.000Z</time>
      </trkpt>
      <trkpt lat="49.0100012160837650299072265625" lon="10.6210965849459171295166015625">
        <ele>452</ele>
        <time>2018-08-16T17:40:44.000Z</time>
      </trkpt>
      <trkpt lat="49.01019752025604248046875" lon="10.621041096746921539306640625">
        <ele>452</ele>
        <time>2018-08-16T17:40:46.000Z</time>
      </trkpt>
      <trkpt lat="49.01050589047372341156005859375" lon="10.62102936208248138427734375">
        <ele>451.79998779296875</ele>
        <time>2018-08-16T17:40:49.000Z</time>
      </trkpt>
      <trkpt lat="49.01071074418723583221435546875" lon="10.6210214830935001373291015625">
        <ele>451.20001220703125</ele>
        <time>2018-08-16T17:40:51.000Z</time>
      </trkpt>
      <trkpt lat="49.0108132548630237579345703125" lon="10.62101553194224834442138671875">
        <ele>450.79998779296875</ele>
        <time>2018-08-16T17:40:52.000Z</time>
      </trkpt>
      <trkpt lat="49.011017940938472747802734375" lon="10.62099860049784183502197265625">
        <ele>450</ele>
        <time>2018-08-16T17:40:54.000Z</time>
      </trkpt>
      <trkpt lat="49.01121717877686023712158203125" lon="10.62099206261336803436279296875">
        <ele>449</ele>
        <time>2018-08-16T17:40:56.000Z</time>
      </trkpt>
      <trkpt lat="49.01131533086299896240234375" lon="10.6210063956677913665771484375">
        <ele>448.600006103515625</ele>
        <time>2018-08-16T17:40:57.000Z</time>
      </trkpt>
      <trkpt lat="49.01150501333177089691162109375" lon="10.62107588164508342742919921875">
        <ele>447.79998779296875</ele>
        <time>2018-08-16T17:40:59.000Z</time>
      </trkpt>
      <trkpt lat="49.01159453205764293670654296875" lon="10.62113128602504730224609375">
        <ele>447.399993896484375</ele>
        <time>2018-08-16T17:41:00.000Z</time>
      </trkpt>
      <trkpt lat="49.01176862418651580810546875" lon="10.62127168290317058563232421875">
        <ele>446.600006103515625</ele>
        <time>2018-08-16T17:41:02.000Z</time>
      </trkpt>
      <trkpt lat="49.0118552930653095245361328125" lon="10.621344186365604400634765625">
        <ele>446.399993896484375</ele>
        <time>2018-08-16T17:41:03.000Z</time>
      </trkpt>
      <trkpt lat="49.01203022338449954986572265625" lon="10.62147217802703380584716796875">
        <ele>445.79998779296875</ele>
        <time>2018-08-16T17:41:05.000Z</time>
      </trkpt>
      <trkpt lat="49.01212108321487903594970703125" lon="10.62151995487511157989501953125">
        <ele>445.20001220703125</ele>
        <time>2018-08-16T17:41:06.000Z</time>
      </trkpt>
      <trkpt lat="49.01221395470201969146728515625" lon="10.621555745601654052734375">
        <ele>445</ele>
        <time>2018-08-16T17:41:07.000Z</time>
      </trkpt>
      <trkpt lat="49.012399278581142425537109375" lon="10.62158550135791301727294921875">
        <ele>444.79998779296875</ele>
        <time>2018-08-16T17:41:09.000Z</time>
      </trkpt>
      <trkpt lat="49.0126740373671054840087890625" lon="10.62155549414455890655517578125">
        <ele>444.600006103515625</ele>
        <time>2018-08-16T17:41:12.000Z</time>
      </trkpt>
      <trkpt lat="49.0132191963493824005126953125" lon="10.6213869340717792510986328125">
        <ele>444.399993896484375</ele>
        <time>2018-08-16T17:41:18.000Z</time>
      </trkpt>
      <trkpt lat="49.01357869617640972137451171875" lon="10.62126464210450649261474609375">
        <ele>444.399993896484375</ele>
        <time>2018-08-16T17:41:22.000Z</time>
      </trkpt>
      <trkpt lat="49.013669975101947784423828125" lon="10.6212343834340572357177734375">
        <ele>444.20001220703125</ele>
        <time>2018-08-16T17:41:23.000Z</time>
      </trkpt>
      <trkpt lat="49.01422108523547649383544921875" lon="10.6210555136203765869140625">
        <ele>444.20001220703125</ele>
        <time>2018-08-16T17:41:29.000Z</time>
      </trkpt>
      <trkpt lat="49.01475551538169384002685546875" lon="10.620869435369968414306640625">
        <ele>444.399993896484375</ele>
        <time>2018-08-16T17:41:35.000Z</time>
      </trkpt>
      <trkpt lat="49.01528776623308658599853515625" lon="10.6206711195409297943115234375">
        <ele>444.600006103515625</ele>
        <time>2018-08-16T17:41:41.000Z</time>
      </trkpt>
      <trkpt lat="49.0158303268253803253173828125" lon="10.62046584673225879669189453125">
        <ele>444.600006103515625</ele>
        <time>2018-08-16T17:41:47.000Z</time>
      </trkpt>
      <trkpt lat="49.01637070812284946441650390625" lon="10.62026753090322017669677734375">
        <ele>444.399993896484375</ele>
        <time>2018-08-16T17:41:53.000Z</time>
      </trkpt>
      <trkpt lat="49.01672341860830783843994140625" lon="10.62013509683310985565185546875">
        <ele>444.600006103515625</ele>
        <time>2018-08-16T17:41:57.000Z</time>
      </trkpt>
      <trkpt lat="49.0172431804239749908447265625" lon="10.6199348531663417816162109375">
        <ele>444.600006103515625</ele>
        <time>2018-08-16T17:42:03.000Z</time>
      </trkpt>
      <trkpt lat="49.0178181789815425872802734375" lon="10.6196914426982402801513671875">
        <ele>445</ele>
        <time>2018-08-16T17:42:10.000Z</time>
      </trkpt>
      <trkpt lat="49.01788330636918544769287109375" lon="10.6196401454508304595947265625">
        <ele>445.20001220703125</ele>
        <time>2018-08-16T17:42:11.000Z</time>
      </trkpt>
      <trkpt lat="49.01798003353178501129150390625" lon="10.61950989067554473876953125">
        <ele>445.399993896484375</ele>
        <time>2018-08-16T17:42:13.000Z</time>
      </trkpt>
      <trkpt lat="49.0180277265608310699462890625" lon="10.61945700086653232574462890625">
        <ele>445.399993896484375</ele>
        <time>2018-08-16T17:42:14.000Z</time>
      </trkpt>
      <trkpt lat="49.018284380435943603515625" lon="10.61925482936203479766845703125">
        <ele>445.600006103515625</ele>
        <time>2018-08-16T17:42:18.000Z</time>
      </trkpt>
      <trkpt lat="49.018600545823574066162109375" lon="10.6190768815577030181884765625">
        <ele>445.600006103515625</ele>
        <time>2018-08-16T17:42:22.000Z</time>
      </trkpt>
      <trkpt lat="49.01884454302489757537841796875" lon="10.61893581412732601165771484375">
        <ele>445.399993896484375</ele>
        <time>2018-08-16T17:42:25.000Z</time>
      </trkpt>
      <trkpt lat="49.0194275043904781341552734375" lon="10.6186147034168243408203125">
        <ele>445.20001220703125</ele>
        <time>2018-08-16T17:42:32.000Z</time>
      </trkpt>
      <trkpt lat="49.019933603703975677490234375" lon="10.6183375976979732513427734375">
        <ele>445.20001220703125</ele>
        <time>2018-08-16T17:42:38.000Z</time>
      </trkpt>
      <trkpt lat="49.02051555924117565155029296875" lon="10.61801464296877384185791015625">
        <ele>445.20001220703125</ele>
        <time>2018-08-16T17:42:45.000Z</time>
      </trkpt>
      <trkpt lat="49.02110028080642223358154296875" lon="10.617692358791828155517578125">
        <ele>444.600006103515625</ele>
        <time>2018-08-16T17:42:52.000Z</time>
      </trkpt>
      <trkpt lat="49.0212641470134258270263671875" lon="10.6175899319350719451904296875">
        <ele>444.399993896484375</ele>
        <time>2018-08-16T17:42:54.000Z</time>
      </trkpt>
      <trkpt lat="49.02183135040104389190673828125" lon="10.61719204299151897430419921875">
        <ele>444.20001220703125</ele>
        <time>2018-08-16T17:43:01.000Z</time>
      </trkpt>
      <trkpt lat="49.02203720994293689727783203125" lon="10.61696045100688934326171875">
        <ele>444.20001220703125</ele>
        <time>2018-08-16T17:43:04.000Z</time>
      </trkpt>
      <trkpt lat="49.02224558405578136444091796875" lon="10.61664571054279804229736328125">
        <ele>444.399993896484375</ele>
        <time>2018-08-16T17:43:08.000Z</time>
      </trkpt>
      <trkpt lat="49.02235588990151882171630859375" lon="10.616550408303737640380859375">
        <ele>444.399993896484375</ele>
        <time>2018-08-16T17:43:10.000Z</time>
      </trkpt>
      <trkpt lat="49.02267859317362308502197265625" lon="10.61634262092411518096923828125">
        <ele>445</ele>
        <time>2018-08-16T17:43:15.000Z</time>
      </trkpt>
      <trkpt lat="49.02318737469613552093505859375" lon="10.6158122979104518890380859375">
        <ele>445</ele>
        <time>2018-08-16T17:43:23.000Z</time>
      </trkpt>
      <trkpt lat="49.023684002459049224853515625" lon="10.61532053165137767791748046875">
        <ele>444.79998779296875</ele>
        <time>2018-08-16T17:43:30.000Z</time>
      </trkpt>
      <trkpt lat="49.024223797023296356201171875" lon="10.61483521945774555206298828125">
        <ele>444.399993896484375</ele>
        <time>2018-08-16T17:43:37.000Z</time>
      </trkpt>
      <trkpt lat="49.02470131404697895050048828125" lon="10.61443456448614597320556640625">
        <ele>444.399993896484375</ele>
        <time>2018-08-16T17:43:43.000Z</time>
      </trkpt>
      <trkpt lat="49.025204144418239593505859375" lon="10.61408520676195621490478515625">
        <ele>444.20001220703125</ele>
        <time>2018-08-16T17:43:49.000Z</time>
      </trkpt>
      <trkpt lat="49.02573354542255401611328125" lon="10.61376996338367462158203125">
        <ele>444</ele>
        <time>2018-08-16T17:43:55.000Z</time>
      </trkpt>
      <trkpt lat="49.0262771956622600555419921875" lon="10.61349495314061641693115234375">
        <ele>444</ele>
        <time>2018-08-16T17:44:01.000Z</time>
      </trkpt>
      <trkpt lat="49.0268258750438690185546875" lon="10.61326897703111171722412109375">
        <ele>444</ele>
        <time>2018-08-16T17:44:07.000Z</time>
      </trkpt>
      <trkpt lat="49.02737866155803203582763671875" lon="10.61306563206017017364501953125">
        <ele>443.79998779296875</ele>
        <time>2018-08-16T17:44:13.000Z</time>
      </trkpt>
      <trkpt lat="49.0279354713857173919677734375" lon="10.6128895282745361328125">
        <ele>444</ele>
        <time>2018-08-16T17:44:19.000Z</time>
      </trkpt>
      <trkpt lat="49.0284942090511322021484375" lon="10.61271660961210727691650390625">
        <ele>444</ele>
        <time>2018-08-16T17:44:25.000Z</time>
      </trkpt>
      <trkpt lat="49.02904582209885120391845703125" lon="10.61254411004483699798583984375">
        <ele>444</ele>
        <time>2018-08-16T17:44:31.000Z</time>
      </trkpt>
      <trkpt lat="49.02939333580434322357177734375" lon="10.61240832321345806121826171875">
        <ele>444</ele>
        <time>2018-08-16T17:44:35.000Z</time>
      </trkpt>
      <trkpt lat="49.02955946512520313262939453125" lon="10.6123157031834125518798828125">
        <ele>444</ele>
        <time>2018-08-16T17:44:37.000Z</time>
      </trkpt>
      <trkpt lat="49.02978845871984958648681640625" lon="10.6121326424181461334228515625">
        <ele>444</ele>
        <time>2018-08-16T17:44:40.000Z</time>
      </trkpt>
      <trkpt lat="49.030120633542537689208984375" lon="10.61204907484352588653564453125">
        <ele>444</ele>
        <time>2018-08-16T17:44:44.000Z</time>
      </trkpt>
      <trkpt lat="49.03070644475519657135009765625" lon="10.6117534451186656951904296875">
        <ele>444.399993896484375</ele>
        <time>2018-08-16T17:44:51.000Z</time>
      </trkpt>
      <trkpt lat="49.031239785254001617431640625" lon="10.61128866858780384063720703125">
        <ele>444.600006103515625</ele>
        <time>2018-08-16T17:44:58.000Z</time>
      </trkpt>
      <trkpt lat="49.03171998448669910430908203125" lon="10.61068064533174037933349609375">
        <ele>444.600006103515625</ele>
        <time>2018-08-16T17:45:05.000Z</time>
      </trkpt>
      <trkpt lat="49.03208476491272449493408203125" lon="10.61006558127701282501220703125">
        <ele>444.79998779296875</ele>
        <time>2018-08-16T17:45:11.000Z</time>
      </trkpt>
      <trkpt lat="49.03239212930202484130859375" lon="10.60937072150409221649169921875">
        <ele>444.600006103515625</ele>
        <time>2018-08-16T17:45:17.000Z</time>
      </trkpt>
      <trkpt lat="49.0326678939163684844970703125" lon="10.6085471995174884796142578125">
        <ele>444.600006103515625</ele>
        <time>2018-08-16T17:45:24.000Z</time>
      </trkpt>
      <trkpt lat="49.03295229189097881317138671875" lon="10.60774547047913074493408203125">
        <ele>444.79998779296875</ele>
        <time>2018-08-16T17:45:31.000Z</time>
      </trkpt>
      <trkpt lat="49.03325169347226619720458984375" lon="10.60702328570187091827392578125">
        <ele>444.79998779296875</ele>
        <time>2018-08-16T17:45:38.000Z</time>
      </trkpt>
      <trkpt lat="49.03333299793303012847900390625" lon="10.6068527139723300933837890625">
        <ele>445</ele>
        <time>2018-08-16T17:45:40.000Z</time>
      </trkpt>
      <trkpt lat="49.03374086134135723114013671875" lon="10.60627645812928676605224609375">
        <ele>445.20001220703125</ele>
        <time>2018-08-16T17:45:48.000Z</time>
      </trkpt>
      <trkpt lat="49.03426657430827617645263671875" lon="10.6058425270020961761474609375">
        <ele>445.399993896484375</ele>
        <time>2018-08-16T17:45:56.000Z</time>
      </trkpt>
      <trkpt lat="49.0343897044658660888671875" lon="10.60577622614800930023193359375">
        <ele>445.399993896484375</ele>
        <time>2018-08-16T17:45:58.000Z</time>
      </trkpt>
      <trkpt lat="49.0345839969813823699951171875" lon="10.6057017110288143157958984375">
        <ele>445.399993896484375</ele>
        <time>2018-08-16T17:46:01.000Z</time>
      </trkpt>
      <trkpt lat="49.03470125980675220489501953125" lon="10.6057456322014331817626953125">
        <ele>445.399993896484375</ele>
        <time>2018-08-16T17:46:03.000Z</time>
      </trkpt>
      <trkpt lat="49.03492639772593975067138671875" lon="10.6057419441640377044677734375">
        <ele>445.399993896484375</ele>
        <time>2018-08-16T17:46:07.000Z</time>
      </trkpt>
      <trkpt lat="49.0351207740604877471923828125" lon="10.6056416966021060943603515625">
        <ele>445.399993896484375</ele>
        <time>2018-08-16T17:46:10.000Z</time>
      </trkpt>
      <trkpt lat="49.0352555550634860992431640625" lon="10.60554186813533306121826171875">
        <ele>445.600006103515625</ele>
        <time>2018-08-16T17:46:12.000Z</time>
      </trkpt>
      <trkpt lat="49.0354993008077144622802734375" lon="10.60528337024152278900146484375">
        <ele>445.79998779296875</ele>
        <time>2018-08-16T17:46:16.000Z</time>
      </trkpt>
      <trkpt lat="49.03555504046380519866943359375" lon="10.60521028004586696624755859375">
        <ele>445.79998779296875</ele>
        <time>2018-08-16T17:46:17.000Z</time>
      </trkpt>
      <trkpt lat="49.03560901992022991180419921875" lon="10.6051384471356868743896484375">
        <ele>445.79998779296875</ele>
        <time>2018-08-16T17:46:18.000Z</time>
      </trkpt>
      <trkpt lat="49.0356582216918468475341796875" lon="10.605064518749713897705078125">
        <ele>445.79998779296875</ele>
        <time>2018-08-16T17:46:19.000Z</time>
      </trkpt>
      <trkpt lat="49.0357061661779880523681640625" lon="10.60499419458210468292236328125">
        <ele>445.79998779296875</ele>
        <time>2018-08-16T17:46:20.000Z</time>
      </trkpt>
      <trkpt lat="49.0358010493218898773193359375" lon="10.604862682521343231201171875">
        <ele>445.79998779296875</ele>
        <time>2018-08-16T17:46:22.000Z</time>
      </trkpt>
      <trkpt lat="49.035967178642749786376953125" lon="10.60459404252469539642333984375">
        <ele>445.79998779296875</ele>
        <time>2018-08-16T17:46:26.000Z</time>
      </trkpt>
      <trkpt lat="49.03601034544408321380615234375" lon="10.6045403145253658294677734375">
        <ele>445.600006103515625</ele>
        <time>2018-08-16T17:46:27.000Z</time>
      </trkpt>
      <trkpt lat="49.0361540950834751129150390625" lon="10.6044186092913150787353515625">
        <ele>445.600006103515625</ele>
        <time>2018-08-16T17:46:30.000Z</time>
      </trkpt>
      <trkpt lat="49.0362516604363918304443359375" lon="10.60431526042520999908447265625">
        <ele>445.399993896484375</ele>
        <time>2018-08-16T17:46:32.000Z</time>
      </trkpt>
      <trkpt lat="49.0363452024757862091064453125" lon="10.60417897067964076995849609375">
        <ele>445.399993896484375</ele>
        <time>2018-08-16T17:46:34.000Z</time>
      </trkpt>
      <trkpt lat="49.036437906324863433837890625" lon="10.60402407310903072357177734375">
        <ele>445.399993896484375</ele>
        <time>2018-08-16T17:46:36.000Z</time>
      </trkpt>
      <trkpt lat="49.03657511807978153228759765625" lon="10.60375400818884372711181640625">
        <ele>445.399993896484375</ele>
        <time>2018-08-16T17:46:39.000Z</time>
      </trkpt>
      <trkpt lat="49.03674627654254436492919921875" lon="10.6033598072826862335205078125">
        <ele>445.600006103515625</ele>
        <time>2018-08-16T17:46:43.000Z</time>
      </trkpt>
      <trkpt lat="49.03686362318694591522216796875" lon="10.6030486710369586944580078125">
        <ele>445.600006103515625</ele>
        <time>2018-08-16T17:46:46.000Z</time>
      </trkpt>
      <trkpt lat="49.0371807105839252471923828125" lon="10.6023338623344898223876953125">
        <ele>445.399993896484375</ele>
        <time>2018-08-16T17:46:53.000Z</time>
      </trkpt>
      <trkpt lat="49.0375213511288166046142578125" lon="10.6016210652887821197509765625">
        <ele>445</ele>
        <time>2018-08-16T17:47:00.000Z</time>
      </trkpt>
      <trkpt lat="49.0375719778239727020263671875" lon="10.60151939280331134796142578125">
        <ele>445</ele>
        <time>2018-08-16T17:47:01.000Z</time>
      </trkpt>
      <trkpt lat="49.03792343102395534515380859375" lon="10.60079745948314666748046875">
        <ele>444.79998779296875</ele>
        <time>2018-08-16T17:47:08.000Z</time>
      </trkpt>
      <trkpt lat="49.03807346709072589874267578125" lon="10.60050853528082370758056640625">
        <ele>444.79998779296875</ele>
        <time>2018-08-16T17:47:11.000Z</time>
      </trkpt>
      <trkpt lat="49.03818704187870025634765625" lon="10.60034207068383693695068359375">
        <ele>444.79998779296875</ele>
        <time>2018-08-16T17:47:13.000Z</time>
      </trkpt>
      <trkpt lat="49.038401283323764801025390625" lon="10.60021148063242435455322265625">
        <ele>445</ele>
        <time>2018-08-16T17:47:16.000Z</time>
      </trkpt>
      <trkpt lat="49.0384732000529766082763671875" lon="10.60021516866981983184814453125">
        <ele>445</ele>
        <time>2018-08-16T17:47:17.000Z</time>
      </trkpt>
      <trkpt lat="49.03853966854512691497802734375" lon="10.60023411177098751068115234375">
        <ele>445</ele>
        <time>2018-08-16T17:47:18.000Z</time>
      </trkpt>
      <trkpt lat="49.038599431514739990234375" lon="10.60025657527148723602294921875">
        <ele>445</ele>
        <time>2018-08-16T17:47:19.000Z</time>
      </trkpt>
      <trkpt lat="49.038828425109386444091796875" lon="10.6003393046557903289794921875">
        <ele>445.20001220703125</ele>
        <time>2018-08-16T17:47:23.000Z</time>
      </trkpt>
      <trkpt lat="49.03888634406030178070068359375" lon="10.60035749338567256927490234375">
        <ele>445.20001220703125</ele>
        <time>2018-08-16T17:47:24.000Z</time>
      </trkpt>
      <trkpt lat="49.03899882920086383819580078125" lon="10.6003708206117153167724609375">
        <ele>445.20001220703125</ele>
        <time>2018-08-16T17:47:26.000Z</time>
      </trkpt>
      <trkpt lat="49.03905683197081089019775390625" lon="10.600364618003368377685546875">
        <ele>445.399993896484375</ele>
        <time>2018-08-16T17:47:27.000Z</time>
      </trkpt>
      <trkpt lat="49.03911986388266086578369140625" lon="10.60035330243408679962158203125">
        <ele>445.399993896484375</ele>
        <time>2018-08-16T17:47:28.000Z</time>
      </trkpt>
      <trkpt lat="49.0393737517297267913818359375" lon="10.60024358332157135009765625">
        <ele>445.600006103515625</ele>
        <time>2018-08-16T17:47:32.000Z</time>
      </trkpt>
      <trkpt lat="49.0397164039313793182373046875" lon="10.6000690720975399017333984375">
        <ele>446.20001220703125</ele>
        <time>2018-08-16T17:47:38.000Z</time>
      </trkpt>
      <trkpt lat="49.03975906781852245330810546875" lon="10.60006328858435153961181640625">
        <ele>446.20001220703125</ele>
        <time>2018-08-16T17:47:39.000Z</time>
      </trkpt>
      <trkpt lat="49.03980013914406299591064453125" lon="10.6000499613583087921142578125">
        <ele>446.399993896484375</ele>
        <time>2018-08-16T17:47:40.000Z</time>
      </trkpt>
      <trkpt lat="49.0398790128529071807861328125" lon="10.60000377707183361053466796875">
        <ele>446.600006103515625</ele>
        <time>2018-08-16T17:47:42.000Z</time>
      </trkpt>
      <trkpt lat="49.0400795079767704010009765625" lon="10.5998595245182514190673828125">
        <ele>446.79998779296875</ele>
        <time>2018-08-16T17:47:50.000Z</time>
      </trkpt>
      <trkpt lat="49.04007934033870697021484375" lon="10.59985977597534656524658203125">
        <ele>446.79998779296875</ele>
        <time>2018-08-16T17:47:51.000Z</time>
      </trkpt>
      <trkpt lat="49.0400966070592403411865234375" lon="10.5998125858604907989501953125">
        <ele>447</ele>
        <time>2018-08-16T17:48:30.000Z</time>
      </trkpt>
      <trkpt lat="49.04024840332567691802978515625" lon="10.5996737815439701080322265625">
        <ele>447</ele>
        <time>2018-08-16T17:48:36.000Z</time>
      </trkpt>
      <trkpt lat="49.0403339825570583343505859375" lon="10.59961603023111820220947265625">
        <ele>447</ele>
        <time>2018-08-16T17:48:38.000Z</time>
      </trkpt>
      <trkpt lat="49.04046800918877124786376953125" lon="10.599500276148319244384765625">
        <ele>447</ele>
        <time>2018-08-16T17:48:41.000Z</time>
      </trkpt>
      <trkpt lat="49.04053472913801670074462890625" lon="10.5994149483740329742431640625">
        <ele>447</ele>
        <time>2018-08-16T17:48:43.000Z</time>
      </trkpt>
      <trkpt lat="49.04047857038676738739013671875" lon="10.59915033169090747833251953125">
        <ele>447</ele>
        <time>2018-08-16T17:48:48.000Z</time>
      </trkpt>
      <trkpt lat="49.04045526869595050811767578125" lon="10.599091239273548126220703125">
        <ele>447</ele>
        <time>2018-08-16T17:48:49.000Z</time>
      </trkpt>
      <trkpt lat="49.04042911715805530548095703125" lon="10.59903566725552082061767578125">
        <ele>447.20001220703125</ele>
        <time>2018-08-16T17:48:50.000Z</time>
      </trkpt>
      <trkpt lat="49.04028662480413913726806640625" lon="10.5987846292555332183837890625">
        <ele>447.20001220703125</ele>
        <time>2018-08-16T17:48:56.000Z</time>
      </trkpt>
      <trkpt lat="49.04026441276073455810546875" lon="10.59874280355870723724365234375">
        <ele>447</ele>
        <time>2018-08-16T17:48:57.000Z</time>
      </trkpt>
      <trkpt lat="49.04024354182183742523193359375" lon="10.59870860539376735687255859375">
        <ele>447</ele>
        <time>2018-08-16T17:48:58.000Z</time>
      </trkpt>
      <trkpt lat="49.04022074304521083831787109375" lon="10.59864372946321964263916015625">
        <ele>446.79998779296875</ele>
        <time>2018-08-16T17:49:00.000Z</time>
      </trkpt>
      <trkpt lat="49.0402758121490478515625" lon="10.5985284782946109771728515625">
        <ele>446.600006103515625</ele>
        <time>2018-08-16T17:49:03.000Z</time>
      </trkpt>
      <trkpt lat="49.04030640609562397003173828125" lon="10.5984939448535442352294921875">
        <ele>446.600006103515625</ele>
        <time>2018-08-16T17:49:04.000Z</time>
      </trkpt>
      <trkpt lat="49.04033892787992954254150390625" lon="10.59845513664186000823974609375">
        <ele>446.399993896484375</ele>
        <time>2018-08-16T17:49:05.000Z</time>
      </trkpt>
      <trkpt lat="49.04042643494904041290283203125" lon="10.59833309613168239593505859375">
        <ele>446.399993896484375</ele>
        <time>2018-08-16T17:49:08.000Z</time>
      </trkpt>
      <trkpt lat="49.04048510827124118804931640625" lon="10.5982622690498828887939453125">
        <ele>446.399993896484375</ele>
        <time>2018-08-16T17:49:10.000Z</time>
      </trkpt>
      <trkpt lat="49.0405118465423583984375" lon="10.59822656214237213134765625">
        <ele>446.399993896484375</ele>
        <time>2018-08-16T17:49:11.000Z</time>
      </trkpt>
      <trkpt lat="49.0405321307480335235595703125" lon="10.598188005387783050537109375">
        <ele>446.399993896484375</ele>
        <time>2018-08-16T17:49:12.000Z</time>
      </trkpt>
      <trkpt lat="49.0405428595840930938720703125" lon="10.59814517386257648468017578125">
        <ele>446.20001220703125</ele>
        <time>2018-08-16T17:49:13.000Z</time>
      </trkpt>
      <trkpt lat="49.04054998420178890228271484375" lon="10.59810158796608448028564453125">
        <ele>446.20001220703125</ele>
        <time>2018-08-16T17:49:14.000Z</time>
      </trkpt>
      <trkpt lat="49.03980575501918792724609375" lon="10.59770093299448490142822265625">
        <ele>421.399993896484375</ele>
        <time>2018-08-17T05:38:47.000Z</time>
      </trkpt>
      <trkpt lat="49.039838947355747222900390625" lon="10.59766137041151523590087890625">
        <ele>421.20001220703125</ele>
        <time>2018-08-17T05:38:50.000Z</time>
      </trkpt>
      <trkpt lat="49.04039324261248111724853515625" lon="10.59758727438747882843017578125">
        <ele>422</ele>
        <time>2018-08-17T05:39:12.000Z</time>
      </trkpt>
      <trkpt lat="49.040563143789768218994140625" lon="10.59751451946794986724853515625">
        <ele>422</ele>
        <time>2018-08-17T05:39:18.000Z</time>
      </trkpt>
      <trkpt lat="49.0406970866024494171142578125" lon="10.59743740595877170562744140625">
        <ele>422.20001220703125</ele>
        <time>2018-08-17T05:39:24.000Z</time>
      </trkpt>
      <trkpt lat="49.04071846045553684234619140625" lon="10.5974301137030124664306640625">
        <ele>422.399993896484375</ele>
        <time>2018-08-17T05:39:25.000Z</time>
      </trkpt>
      <trkpt lat="49.0408828295767307281494140625" lon="10.59733749367296695709228515625">
        <ele>422.79998779296875</ele>
        <time>2018-08-17T05:39:32.000Z</time>
      </trkpt>
      <trkpt lat="49.0409740246832370758056640625" lon="10.59733799658715724945068359375">
        <ele>423</ele>
        <time>2018-08-17T05:39:36.000Z</time>
      </trkpt>
      <trkpt lat="49.04117024503648281097412109375" lon="10.5972587876021862030029296875">
        <ele>423.399993896484375</ele>
        <time>2018-08-17T05:39:42.000Z</time>
      </trkpt>
      <trkpt lat="49.0414524637162685394287109375" lon="10.5972819216549396514892578125">
        <ele>423.79998779296875</ele>
        <time>2018-08-17T05:39:48.000Z</time>
      </trkpt>
      <trkpt lat="49.04170048423111438751220703125" lon="10.59735258109867572784423828125">
        <ele>423.79998779296875</ele>
        <time>2018-08-17T05:39:53.000Z</time>
      </trkpt>
      <trkpt lat="49.041792266070842742919921875" lon="10.5974279344081878662109375">
        <ele>423.79998779296875</ele>
        <time>2018-08-17T05:39:55.000Z</time>
      </trkpt>
      <trkpt lat="49.04210583306849002838134765625" lon="10.59799714945256710052490234375">
        <ele>423.79998779296875</ele>
        <time>2018-08-17T05:40:04.000Z</time>
      </trkpt>
      <trkpt lat="49.04217590577900409698486328125" lon="10.59834231622517108917236328125">
        <ele>423.79998779296875</ele>
        <time>2018-08-17T05:40:08.000Z</time>
      </trkpt>
      <trkpt lat="49.04231303371489048004150390625" lon="10.59918838553130626678466796875">
        <ele>424.20001220703125</ele>
        <time>2018-08-17T05:40:18.000Z</time>
      </trkpt>
      <trkpt lat="49.042329378426074981689453125" lon="10.59944830834865570068359375">
        <ele>424.20001220703125</ele>
        <time>2018-08-17T05:40:21.000Z</time>
      </trkpt>
      <trkpt lat="49.04233683831989765167236328125" lon="10.599759109318256378173828125">
        <ele>424.20001220703125</ele>
        <time>2018-08-17T05:40:25.000Z</time>
      </trkpt>
      <trkpt lat="49.042342118918895721435546875" lon="10.59984393417835235595703125">
        <ele>424.399993896484375</ele>
        <time>2018-08-17T05:40:30.000Z</time>
      </trkpt>
      <trkpt lat="49.04234237037599086761474609375" lon="10.59990386478602886199951171875">
        <ele>424.399993896484375</ele>
        <time>2018-08-17T05:40:58.000Z</time>
      </trkpt>
      <trkpt lat="49.0423194877803325653076171875" lon="10.60028909705579280853271484375">
        <ele>424.600006103515625</ele>
        <time>2018-08-17T05:41:06.000Z</time>
      </trkpt>
      <trkpt lat="49.04223449528217315673828125" lon="10.6011282093822956085205078125">
        <ele>424.79998779296875</ele>
        <time>2018-08-17T05:41:17.000Z</time>
      </trkpt>
      <trkpt lat="49.0422588028013706207275390625" lon="10.60194804333150386810302734375">
        <ele>425.20001220703125</ele>
        <time>2018-08-17T05:41:27.000Z</time>
      </trkpt>
      <trkpt lat="49.04227648861706256866455078125" lon="10.60210629366338253021240234375">
        <ele>425.20001220703125</ele>
        <time>2018-08-17T05:41:29.000Z</time>
      </trkpt>
      <trkpt lat="49.042419232428073883056640625" lon="10.602971054613590240478515625">
        <ele>425.79998779296875</ele>
        <time>2018-08-17T05:41:40.000Z</time>
      </trkpt>
      <trkpt lat="49.04252459295094013214111328125" lon="10.60347069986164569854736328125">
        <ele>426.20001220703125</ele>
        <time>2018-08-17T05:41:46.000Z</time>
      </trkpt>
      <trkpt lat="49.0427112579345703125" lon="10.60432816855609416961669921875">
        <ele>426.600006103515625</ele>
        <time>2018-08-17T05:41:56.000Z</time>
      </trkpt>
      <trkpt lat="49.04284075833857059478759765625" lon="10.6048353575170040130615234375">
        <ele>427</ele>
        <time>2018-08-17T05:42:02.000Z</time>
      </trkpt>
      <trkpt lat="49.04287193901836872100830078125" lon="10.60500123538076877593994140625">
        <ele>427</ele>
        <time>2018-08-17T05:42:04.000Z</time>
      </trkpt>
      <trkpt lat="49.04305935837328433990478515625" lon="10.60517893172800540924072265625">
        <ele>427.20001220703125</ele>
        <time>2018-08-17T05:42:08.000Z</time>
      </trkpt>
      <trkpt lat="49.0435254760086536407470703125" lon="10.60570950619876384735107421875">
        <ele>427.600006103515625</ele>
        <time>2018-08-17T05:42:18.000Z</time>
      </trkpt>
      <trkpt lat="49.043991006910800933837890625" lon="10.60627863742411136627197265625">
        <ele>427.79998779296875</ele>
        <time>2018-08-17T05:42:27.000Z</time>
      </trkpt>
      <trkpt lat="49.04449350200593471527099609375" lon="10.606728158891201019287109375">
        <ele>427.600006103515625</ele>
        <time>2018-08-17T05:42:36.000Z</time>
      </trkpt>
      <trkpt lat="49.04501133598387241363525390625" lon="10.60705798678100109100341796875">
        <ele>428</ele>
        <time>2018-08-17T05:42:45.000Z</time>
      </trkpt>
      <trkpt lat="49.0451311133801937103271484375" lon="10.60712101869285106658935546875">
        <ele>428.20001220703125</ele>
        <time>2018-08-17T05:42:47.000Z</time>
      </trkpt>
      <trkpt lat="49.0454881824553012847900390625" lon="10.6072892434895038604736328125">
        <ele>428.79998779296875</ele>
        <time>2018-08-17T05:42:53.000Z</time>
      </trkpt>
      <trkpt lat="49.045767970383167266845703125" lon="10.60741824097931385040283203125">
        <ele>429.399993896484375</ele>
        <time>2018-08-17T05:42:58.000Z</time>
      </trkpt>
      <trkpt lat="49.04617256484925746917724609375" lon="10.60770414769649505615234375">
        <ele>430.600006103515625</ele>
        <time>2018-08-17T05:43:06.000Z</time>
      </trkpt>
      <trkpt lat="49.0464175678789615631103515625" lon="10.608012266457080841064453125">
        <ele>431.600006103515625</ele>
        <time>2018-08-17T05:43:11.000Z</time>
      </trkpt>
      <trkpt lat="49.046897180378437042236328125" lon="10.6084295175969600677490234375">
        <ele>431.79998779296875</ele>
        <time>2018-08-17T05:43:19.000Z</time>
      </trkpt>
      <trkpt lat="49.0474225580692291259765625" lon="10.60884282924234867095947265625">
        <ele>431.79998779296875</ele>
        <time>2018-08-17T05:43:28.000Z</time>
      </trkpt>
      <trkpt lat="49.04794600792229175567626953125" lon="10.60927592217922210693359375">
        <ele>432</ele>
        <time>2018-08-17T05:43:37.000Z</time>
      </trkpt>
      <trkpt lat="49.048413299024105072021484375" lon="10.60969007201492786407470703125">
        <ele>432.399993896484375</ele>
        <time>2018-08-17T05:43:45.000Z</time>
      </trkpt>
      <trkpt lat="49.0488912351429462432861328125" lon="10.61012844555079936981201171875">
        <ele>432.399993896484375</ele>
        <time>2018-08-17T05:43:53.000Z</time>
      </trkpt>
      <trkpt lat="49.049384258687496185302734375" lon="10.61057939194142818450927734375">
        <ele>432.20001220703125</ele>
        <time>2018-08-17T05:44:01.000Z</time>
      </trkpt>
      <trkpt lat="49.04990737326443195343017578125" lon="10.6109856627881526947021484375">
        <ele>431.79998779296875</ele>
        <time>2018-08-17T05:44:09.000Z</time>
      </trkpt>
      <trkpt lat="49.05048086307942867279052734375" lon="10.61123888008296489715576171875">
        <ele>431.20001220703125</ele>
        <time>2018-08-17T05:44:17.000Z</time>
      </trkpt>
      <trkpt lat="49.0508465655148029327392578125" lon="10.611310042440891265869140625">
        <ele>431</ele>
        <time>2018-08-17T05:44:22.000Z</time>
      </trkpt>
      <trkpt lat="49.05116491019725799560546875" lon="10.6120018847286701202392578125">
        <ele>430.79998779296875</ele>
        <time>2018-08-17T05:44:32.000Z</time>
      </trkpt>
      <trkpt lat="49.0512260980904102325439453125" lon="10.61205410398542881011962890625">
        <ele>430.79998779296875</ele>
        <time>2018-08-17T05:44:33.000Z</time>
      </trkpt>
      <trkpt lat="49.051708392798900604248046875" lon="10.61239390634000301361083984375">
        <ele>430.600006103515625</ele>
        <time>2018-08-17T05:44:40.000Z</time>
      </trkpt>
      <trkpt lat="49.05186220072209835052490234375" lon="10.61243447475135326385498046875">
        <ele>430.20001220703125</ele>
        <time>2018-08-17T05:44:42.000Z</time>
      </trkpt>
      <trkpt lat="49.052095972001552581787109375" lon="10.6124223209917545318603515625">
        <ele>429.600006103515625</ele>
        <time>2018-08-17T05:44:45.000Z</time>
      </trkpt>
      <trkpt lat="49.0521715767681598663330078125" lon="10.61240203678607940673828125">
        <ele>429.399993896484375</ele>
        <time>2018-08-17T05:44:46.000Z</time>
      </trkpt>
      <trkpt lat="49.0525212697684764862060546875" lon="10.6122157908976078033447265625">
        <ele>428.600006103515625</ele>
        <time>2018-08-17T05:44:51.000Z</time>
      </trkpt>
      <trkpt lat="49.05258991755545139312744140625" lon="10.61217497102916240692138671875">
        <ele>428.600006103515625</ele>
        <time>2018-08-17T05:44:52.000Z</time>
      </trkpt>
      <trkpt lat="49.05316793359816074371337890625" lon="10.61199568212032318115234375">
        <ele>428.399993896484375</ele>
        <time>2018-08-17T05:45:00.000Z</time>
      </trkpt>
      <trkpt lat="49.05376589857041835784912109375" lon="10.6120271980762481689453125">
        <ele>428.399993896484375</ele>
        <time>2018-08-17T05:45:08.000Z</time>
      </trkpt>
      <trkpt lat="49.0543498657643795013427734375" lon="10.61213607899844646453857421875">
        <ele>428.20001220703125</ele>
        <time>2018-08-17T05:45:16.000Z</time>
      </trkpt>
      <trkpt lat="49.054911620914936065673828125" lon="10.6122442893683910369873046875">
        <ele>428.20001220703125</ele>
        <time>2018-08-17T05:45:24.000Z</time>
      </trkpt>
      <trkpt lat="49.05548016540706157684326171875" lon="10.61235099099576473236083984375">
        <ele>428.399993896484375</ele>
        <time>2018-08-17T05:45:32.000Z</time>
      </trkpt>
      <trkpt lat="49.05607678927481174468994140625" lon="10.61246464960277080535888671875">
        <ele>428.79998779296875</ele>
        <time>2018-08-17T05:45:41.000Z</time>
      </trkpt>
      <trkpt lat="49.0566072799265384674072265625" lon="10.6125591136515140533447265625">
        <ele>429.600006103515625</ele>
        <time>2018-08-17T05:45:49.000Z</time>
      </trkpt>
      <trkpt lat="49.05715671367943286895751953125" lon="10.6127518974244594573974609375">
        <ele>429.600006103515625</ele>
        <time>2018-08-17T05:45:57.000Z</time>
      </trkpt>
      <trkpt lat="49.057660885155200958251953125" lon="10.6131609342992305755615234375">
        <ele>429</ele>
        <time>2018-08-17T05:46:05.000Z</time>
      </trkpt>
      <trkpt lat="49.0581280924379825592041015625" lon="10.613572485744953155517578125">
        <ele>429.20001220703125</ele>
        <time>2018-08-17T05:46:13.000Z</time>
      </trkpt>
      <trkpt lat="49.05824996531009674072265625" lon="10.6136427260935306549072265625">
        <ele>429.20001220703125</ele>
        <time>2018-08-17T05:46:15.000Z</time>
      </trkpt>
      <trkpt lat="49.05845305882394313812255859375" lon="10.61370651237666606903076171875">
        <ele>429.399993896484375</ele>
        <time>2018-08-17T05:46:18.000Z</time>
      </trkpt>
      <trkpt lat="49.05902990140020847320556640625" lon="10.61362805776298046112060546875">
        <ele>429.20001220703125</ele>
        <time>2018-08-17T05:46:26.000Z</time>
      </trkpt>
      <trkpt lat="49.059574306011199951171875" lon="10.6135076098144054412841796875">
        <ele>428.600006103515625</ele>
        <time>2018-08-17T05:46:33.000Z</time>
      </trkpt>
      <trkpt lat="49.0596562810242176055908203125" lon="10.61350853182375431060791015625">
        <ele>428.600006103515625</ele>
        <time>2018-08-17T05:46:34.000Z</time>
      </trkpt>
      <trkpt lat="49.06015542335808277130126953125" lon="10.61385470442473888397216796875">
        <ele>428</ele>
        <time>2018-08-17T05:46:41.000Z</time>
      </trkpt>
      <trkpt lat="49.06025701202452182769775390625" lon="10.61401815153658390045166015625">
        <ele>427.79998779296875</ele>
        <time>2018-08-17T05:46:43.000Z</time>
      </trkpt>
      <trkpt lat="49.06030193902552127838134765625" lon="10.614106245338916778564453125">
        <ele>427.600006103515625</ele>
        <time>2018-08-17T05:46:44.000Z</time>
      </trkpt>
      <trkpt lat="49.0603469498455524444580078125" lon="10.61465215869247913360595703125">
        <ele>427.600006103515625</ele>
        <time>2018-08-17T05:46:49.000Z</time>
      </trkpt>
      <trkpt lat="49.060325659811496734619140625" lon="10.6148783862590789794921875">
        <ele>427.399993896484375</ele>
        <time>2018-08-17T05:46:51.000Z</time>
      </trkpt>
      <trkpt lat="49.0602869354188442230224609375" lon="10.6157610006630420684814453125">
        <ele>427</ele>
        <time>2018-08-17T05:46:59.000Z</time>
      </trkpt>
      <trkpt lat="49.0602829121053218841552734375" lon="10.6166484765708446502685546875">
        <ele>427</ele>
        <time>2018-08-17T05:47:08.000Z</time>
      </trkpt>
      <trkpt lat="49.0605809725821018218994140625" lon="10.6173314340412616729736328125">
        <ele>427.399993896484375</ele>
        <time>2018-08-17T05:47:16.000Z</time>
      </trkpt>
      <trkpt lat="49.06061894260346889495849609375" lon="10.6174209527671337127685546875">
        <ele>427.600006103515625</ele>
        <time>2018-08-17T05:47:17.000Z</time>
      </trkpt>
      <trkpt lat="49.06086805276572704315185546875" lon="10.61814858578145503997802734375">
        <ele>428</ele>
        <time>2018-08-17T05:47:25.000Z</time>
      </trkpt>
      <trkpt lat="49.06102043576538562774658203125" lon="10.61875979416072368621826171875">
        <ele>428.600006103515625</ele>
        <time>2018-08-17T05:47:32.000Z</time>
      </trkpt>
      <trkpt lat="49.06110341660678386688232421875" lon="10.619101189076900482177734375">
        <ele>429</ele>
        <time>2018-08-17T05:47:36.000Z</time>
      </trkpt>
      <trkpt lat="49.06129770912230014801025390625" lon="10.61970359645783901214599609375">
        <ele>429.600006103515625</ele>
        <time>2018-08-17T05:47:43.000Z</time>
      </trkpt>
      <trkpt lat="49.061543382704257965087890625" lon="10.620493926107883453369140625">
        <ele>430.20001220703125</ele>
        <time>2018-08-17T05:47:53.000Z</time>
      </trkpt>
      <trkpt lat="49.061566852033138275146484375" lon="10.62057196162641048431396484375">
        <ele>430.600006103515625</ele>
        <time>2018-08-17T05:47:54.000Z</time>
      </trkpt>
      <trkpt lat="49.0616045705974102020263671875" lon="10.62073222361505031585693359375">
        <ele>430.79998779296875</ele>
        <time>2018-08-17T05:47:56.000Z</time>
      </trkpt>
      <trkpt lat="49.061580933630466461181640625" lon="10.621142350137233734130859375">
        <ele>431.600006103515625</ele>
        <time>2018-08-17T05:48:01.000Z</time>
      </trkpt>
      <trkpt lat="49.06170523725450038909912109375" lon="10.621297247707843780517578125">
        <ele>431.79998779296875</ele>
        <time>2018-08-17T05:48:05.000Z</time>
      </trkpt>
      <trkpt lat="49.06201955862343311309814453125" lon="10.62149732373654842376708984375">
        <ele>432.600006103515625</ele>
        <time>2018-08-17T05:48:12.000Z</time>
      </trkpt>
      <trkpt lat="49.062162972986698150634765625" lon="10.62162389047443866729736328125">
        <ele>433.600006103515625</ele>
        <time>2018-08-17T05:48:15.000Z</time>
      </trkpt>
      <trkpt lat="49.06267225742340087890625" lon="10.62210249714553356170654296875">
        <ele>434.399993896484375</ele>
        <time>2018-08-17T05:48:24.000Z</time>
      </trkpt>
      <trkpt lat="49.0631646104156970977783203125" lon="10.6225060857832431793212890625">
        <ele>433.79998779296875</ele>
        <time>2018-08-17T05:48:32.000Z</time>
      </trkpt>
      <trkpt lat="49.0636665187776088714599609375" lon="10.6228970177471637725830078125">
        <ele>433.79998779296875</ele>
        <time>2018-08-17T05:48:41.000Z</time>
      </trkpt>
      <trkpt lat="49.06416130252182483673095703125" lon="10.62325735576450824737548828125">
        <ele>434.600006103515625</ele>
        <time>2018-08-17T05:48:51.000Z</time>
      </trkpt>
      <trkpt lat="49.06420941464602947235107421875" lon="10.62329046428203582763671875">
        <ele>434.79998779296875</ele>
        <time>2018-08-17T05:48:52.000Z</time>
      </trkpt>
      <trkpt lat="49.06439029611647129058837890625" lon="10.62342734076082706451416015625">
        <ele>436</ele>
        <time>2018-08-17T05:48:56.000Z</time>
      </trkpt>
      <trkpt lat="49.06462247483432292938232421875" lon="10.6236064620316028594970703125">
        <ele>437.20001220703125</ele>
        <time>2018-08-17T05:49:01.000Z</time>
      </trkpt>
      <trkpt lat="49.06491450034081935882568359375" lon="10.6238421611487865447998046875">
        <ele>438.399993896484375</ele>
        <time>2018-08-17T05:49:07.000Z</time>
      </trkpt>
      <trkpt lat="49.065243490040302276611328125" lon="10.6241180934011936187744140625">
        <ele>439</ele>
        <time>2018-08-17T05:49:14.000Z</time>
      </trkpt>
      <trkpt lat="49.06571346335113048553466796875" lon="10.62452964484691619873046875">
        <ele>439.20001220703125</ele>
        <time>2018-08-17T05:49:23.000Z</time>
      </trkpt>
      <trkpt lat="49.06617932952940464019775390625" lon="10.6249847821891307830810546875">
        <ele>439.20001220703125</ele>
        <time>2018-08-17T05:49:31.000Z</time>
      </trkpt>
      <trkpt lat="49.0666856802999973297119140625" lon="10.62548861838877201080322265625">
        <ele>438.399993896484375</ele>
        <time>2018-08-17T05:49:38.000Z</time>
      </trkpt>
      <trkpt lat="49.066914506256580352783203125" lon="10.6257163546979427337646484375">
        <ele>437.20001220703125</ele>
        <time>2018-08-17T05:49:41.000Z</time>
      </trkpt>
      <trkpt lat="49.067122377455234527587890625" lon="10.62596194446086883544921875">
        <ele>435.79998779296875</ele>
        <time>2018-08-17T05:49:44.000Z</time>
      </trkpt>
      <trkpt lat="49.0671802125871181488037109375" lon="10.62605707906186580657958984375">
        <ele>435.600006103515625</ele>
        <time>2018-08-17T05:49:45.000Z</time>
      </trkpt>
      <trkpt lat="49.0672720782458782196044921875" lon="10.626265369355678558349609375">
        <ele>434.79998779296875</ele>
        <time>2018-08-17T05:49:47.000Z</time>
      </trkpt>
      <trkpt lat="49.0673528797924518585205078125" lon="10.6265969574451446533203125">
        <ele>433.79998779296875</ele>
        <time>2018-08-17T05:49:50.000Z</time>
      </trkpt>
      <trkpt lat="49.0675014071166515350341796875" lon="10.62746666371822357177734375">
        <ele>433.20001220703125</ele>
        <time>2018-08-17T05:49:58.000Z</time>
      </trkpt>
      <trkpt lat="49.0676452405750751495361328125" lon="10.6282751820981502532958984375">
        <ele>433.399993896484375</ele>
        <time>2018-08-17T05:50:06.000Z</time>
      </trkpt>
      <trkpt lat="49.067784212529659271240234375" lon="10.62913038767874240875244140625">
        <ele>434.20001220703125</ele>
        <time>2018-08-17T05:50:15.000Z</time>
      </trkpt>
      <trkpt lat="49.0679329074919223785400390625" lon="10.63000462017953395843505859375">
        <ele>434.600006103515625</ele>
        <time>2018-08-17T05:50:24.000Z</time>
      </trkpt>
      <trkpt lat="49.068066179752349853515625" lon="10.63080425374209880828857421875">
        <ele>434.600006103515625</ele>
        <time>2018-08-17T05:50:32.000Z</time>
      </trkpt>
      <trkpt lat="49.068100713193416595458984375" lon="10.63099485822021961212158203125">
        <ele>434.79998779296875</ele>
        <time>2018-08-17T05:50:34.000Z</time>
      </trkpt>
      <trkpt lat="49.06825033016502857208251953125" lon="10.63178460113704204559326171875">
        <ele>435</ele>
        <time>2018-08-17T05:50:42.000Z</time>
      </trkpt>
      <trkpt lat="49.0684257633984088897705078125" lon="10.63259462825953960418701171875">
        <ele>434.79998779296875</ele>
        <time>2018-08-17T05:50:50.000Z</time>
      </trkpt>
      <trkpt lat="49.068604968488216400146484375" lon="10.63346047885715961456298828125">
        <ele>434.600006103515625</ele>
        <time>2018-08-17T05:50:59.000Z</time>
      </trkpt>
      <trkpt lat="49.068775959312915802001953125" lon="10.634277798235416412353515625">
        <ele>434.79998779296875</ele>
        <time>2018-08-17T05:51:08.000Z</time>
      </trkpt>
      <trkpt lat="49.06890277750790119171142578125" lon="10.63486930914223194122314453125">
        <ele>435.399993896484375</ele>
        <time>2018-08-17T05:51:15.000Z</time>
      </trkpt>
      <trkpt lat="49.06898274086415767669677734375" lon="10.63498430885374546051025390625">
        <ele>435.79998779296875</ele>
        <time>2018-08-17T05:51:18.000Z</time>
      </trkpt>
      <trkpt lat="49.06917703337967395782470703125" lon="10.63475422561168670654296875">
        <ele>436.20001220703125</ele>
        <time>2018-08-17T05:51:24.000Z</time>
      </trkpt>
      <trkpt lat="49.0695641934871673583984375" lon="10.634055845439434051513671875">
        <ele>436.79998779296875</ele>
        <time>2018-08-17T05:51:34.000Z</time>
      </trkpt>
      <trkpt lat="49.07003232277929782867431640625" lon="10.633492581546306610107421875">
        <ele>436.600006103515625</ele>
        <time>2018-08-17T05:51:43.000Z</time>
      </trkpt>
      <trkpt lat="49.07047622837126255035400390625" lon="10.63312453217804431915283203125">
        <ele>436.600006103515625</ele>
        <time>2018-08-17T05:51:51.000Z</time>
      </trkpt>
      <trkpt lat="49.0704867057502269744873046875" lon="10.63306066207587718963623046875">
        <ele>436.79998779296875</ele>
        <time>2018-08-17T05:51:54.000Z</time>
      </trkpt>
      <trkpt lat="49.0703983604907989501953125" lon="10.63317147083580493927001953125">
        <ele>437</ele>
        <time>2018-08-17T05:51:58.000Z</time>
      </trkpt>
      <trkpt lat="49.070367179811000823974609375" lon="10.63322477973997592926025390625">
        <ele>437.20001220703125</ele>
        <time>2018-08-17T05:51:59.000Z</time>
      </trkpt>
      <trkpt lat="49.0703834407031536102294921875" lon="10.63361638225615024566650390625">
        <ele>437.20001220703125</ele>
        <time>2018-08-17T05:52:04.000Z</time>
      </trkpt>
      <trkpt lat="49.0706027112901210784912109375" lon="10.63438475131988525390625">
        <ele>437</ele>
        <time>2018-08-17T05:52:13.000Z</time>
      </trkpt>
      <trkpt lat="49.07083262689411640167236328125" lon="10.63515798188745975494384765625">
        <ele>437.20001220703125</ele>
        <time>2018-08-17T05:52:22.000Z</time>
      </trkpt>
      <trkpt lat="49.070943184196949005126953125" lon="10.6355154700577259063720703125">
        <ele>437.79998779296875</ele>
        <time>2018-08-17T05:52:26.000Z</time>
      </trkpt>
      <trkpt lat="49.0712109021842479705810546875" lon="10.63632474280893802642822265625">
        <ele>438.600006103515625</ele>
        <time>2018-08-17T05:52:35.000Z</time>
      </trkpt>
      <trkpt lat="49.07127502374351024627685546875" lon="10.63650294207036495208740234375">
        <ele>438.79998779296875</ele>
        <time>2018-08-17T05:52:37.000Z</time>
      </trkpt>
      <trkpt lat="49.0715528838336467742919921875" lon="10.63722026534378528594970703125">
        <ele>439.20001220703125</ele>
        <time>2018-08-17T05:52:45.000Z</time>
      </trkpt>
      <trkpt lat="49.07183811999857425689697265625" lon="10.6379864551126956939697265625">
        <ele>439</ele>
        <time>2018-08-17T05:52:53.000Z</time>
      </trkpt>
      <trkpt lat="49.07189260236918926239013671875" lon="10.6382020376622676849365234375">
        <ele>439</ele>
        <time>2018-08-17T05:52:55.000Z</time>
      </trkpt>
      <trkpt lat="49.071971140801906585693359375" lon="10.639116503298282623291015625">
        <ele>438.399993896484375</ele>
        <time>2018-08-17T05:53:03.000Z</time>
      </trkpt>
      <trkpt lat="49.07197860069572925567626953125" lon="10.640005655586719512939453125">
        <ele>438.20001220703125</ele>
        <time>2018-08-17T05:53:11.000Z</time>
      </trkpt>
      <trkpt lat="49.0719937719404697418212890625" lon="10.640111602842807769775390625">
        <ele>438.20001220703125</ele>
        <time>2018-08-17T05:53:12.000Z</time>
      </trkpt>
      <trkpt lat="49.0721617452800273895263671875" lon="10.6405808217823505401611328125">
        <ele>438.399993896484375</ele>
        <time>2018-08-17T05:53:17.000Z</time>
      </trkpt>
      <trkpt lat="49.0725520066916942596435546875" lon="10.64119697548449039459228515625">
        <ele>439</ele>
        <time>2018-08-17T05:53:25.000Z</time>
      </trkpt>
      <trkpt lat="49.0729825012385845184326171875" lon="10.64174867235124111175537109375">
        <ele>439.20001220703125</ele>
        <time>2018-08-17T05:53:33.000Z</time>
      </trkpt>
      <trkpt lat="49.07344107516109943389892578125" lon="10.64223222434520721435546875">
        <ele>439.600006103515625</ele>
        <time>2018-08-17T05:53:41.000Z</time>
      </trkpt>
      <trkpt lat="49.0738626010715961456298828125" lon="10.642608739435672760009765625">
        <ele>439.79998779296875</ele>
        <time>2018-08-17T05:53:48.000Z</time>
      </trkpt>
      <trkpt lat="49.0743584744632244110107421875" lon="10.64298190176486968994140625">
        <ele>440.20001220703125</ele>
        <time>2018-08-17T05:53:56.000Z</time>
      </trkpt>
      <trkpt lat="49.07488930039107799530029296875" lon="10.64326495863497257232666015625">
        <ele>440.79998779296875</ele>
        <time>2018-08-17T05:54:04.000Z</time>
      </trkpt>
      <trkpt lat="49.0752397477626800537109375" lon="10.6433419883251190185546875">
        <ele>440.79998779296875</ele>
        <time>2018-08-17T05:54:09.000Z</time>
      </trkpt>
      <trkpt lat="49.075712151825428009033203125" lon="10.6431342847645282745361328125">
        <ele>440.79998779296875</ele>
        <time>2018-08-17T05:54:16.000Z</time>
      </trkpt>
      <trkpt lat="49.07624046318233013153076171875" lon="10.6428549997508525848388671875">
        <ele>441</ele>
        <time>2018-08-17T05:54:24.000Z</time>
      </trkpt>
      <trkpt lat="49.07677941955626010894775390625" lon="10.64264184795320034027099609375">
        <ele>441</ele>
        <time>2018-08-17T05:54:32.000Z</time>
      </trkpt>
      <trkpt lat="49.07731150276958942413330078125" lon="10.6424999423325061798095703125">
        <ele>441.20001220703125</ele>
        <time>2018-08-17T05:54:40.000Z</time>
      </trkpt>
      <trkpt lat="49.07737906090915203094482421875" lon="10.64250421710312366485595703125">
        <ele>441.20001220703125</ele>
        <time>2018-08-17T05:54:41.000Z</time>
      </trkpt>
      <trkpt lat="49.077594392001628875732421875" lon="10.64273857511579990386962890625">
        <ele>441.20001220703125</ele>
        <time>2018-08-17T05:54:45.000Z</time>
      </trkpt>
      <trkpt lat="49.0780294127762317657470703125" lon="10.64335741102695465087890625">
        <ele>441.79998779296875</ele>
        <time>2018-08-17T05:54:54.000Z</time>
      </trkpt>
      <trkpt lat="49.07812655903398990631103515625" lon="10.6434977240860462188720703125">
        <ele>442</ele>
        <time>2018-08-17T05:54:56.000Z</time>
      </trkpt>
      <trkpt lat="49.07856828533113002777099609375" lon="10.6441139616072177886962890625">
        <ele>442.600006103515625</ele>
        <time>2018-08-17T05:55:05.000Z</time>
      </trkpt>
      <trkpt lat="49.07888277433812618255615234375" lon="10.644508413970470428466796875">
        <ele>443</ele>
        <time>2018-08-17T05:55:11.000Z</time>
      </trkpt>
      <trkpt lat="49.07930321060121059417724609375" lon="10.64502834342420101165771484375">
        <ele>443.20001220703125</ele>
        <time>2018-08-17T05:55:19.000Z</time>
      </trkpt>
      <trkpt lat="49.0796786360442638397216796875" lon="10.64562362618744373321533203125">
        <ele>443.399993896484375</ele>
        <time>2018-08-17T05:55:27.000Z</time>
      </trkpt>
      <trkpt lat="49.07993830740451812744140625" lon="10.64635335467755794525146484375">
        <ele>443.79998779296875</ele>
        <time>2018-08-17T05:55:35.000Z</time>
      </trkpt>
      <trkpt lat="49.08004819415509700775146484375" lon="10.6467224098742008209228515625">
        <ele>444</ele>
        <time>2018-08-17T05:55:39.000Z</time>
      </trkpt>
      <trkpt lat="49.080251120030879974365234375" lon="10.64752279780805110931396484375">
        <ele>444.600006103515625</ele>
        <time>2018-08-17T05:55:48.000Z</time>
      </trkpt>
      <trkpt lat="49.08028590492904186248779296875" lon="10.64771206118166446685791015625">
        <ele>444.79998779296875</ele>
        <time>2018-08-17T05:55:50.000Z</time>
      </trkpt>
      <trkpt lat="49.080304764211177825927734375" lon="10.64861680381000041961669921875">
        <ele>445.600006103515625</ele>
        <time>2018-08-17T05:55:59.000Z</time>
      </trkpt>
      <trkpt lat="49.08032781444489955902099609375" lon="10.648926682770252227783203125">
        <ele>446</ele>
        <time>2018-08-17T05:56:02.000Z</time>
      </trkpt>
      <trkpt lat="49.08050919882953166961669921875" lon="10.6497221253812313079833984375">
        <ele>446.399993896484375</ele>
        <time>2018-08-17T05:56:10.000Z</time>
      </trkpt>
      <trkpt lat="49.08079099841415882110595703125" lon="10.65043249167501926422119140625">
        <ele>446.600006103515625</ele>
        <time>2018-08-17T05:56:18.000Z</time>
      </trkpt>
      <trkpt lat="49.08115225844085216522216796875" lon="10.65105409361422061920166015625">
        <ele>447</ele>
        <time>2018-08-17T05:56:26.000Z</time>
      </trkpt>
      <trkpt lat="49.0812497399747371673583984375" lon="10.6511993519961833953857421875">
        <ele>447</ele>
        <time>2018-08-17T05:56:28.000Z</time>
      </trkpt>
      <trkpt lat="49.08163882791996002197265625" lon="10.651775188744068145751953125">
        <ele>447.399993896484375</ele>
        <time>2018-08-17T05:56:36.000Z</time>
      </trkpt>
      <trkpt lat="49.08203856088221073150634765625" lon="10.6524596549570560455322265625">
        <ele>448</ele>
        <time>2018-08-17T05:56:45.000Z</time>
      </trkpt>
      <trkpt lat="49.08229387365281581878662109375" lon="10.65320354886353015899658203125">
        <ele>448.600006103515625</ele>
        <time>2018-08-17T05:56:54.000Z</time>
      </trkpt>
      <trkpt lat="49.08233259804546833038330078125" lon="10.65335593186318874359130859375">
        <ele>449</ele>
        <time>2018-08-17T05:56:56.000Z</time>
      </trkpt>
      <trkpt lat="49.08243116922676563262939453125" lon="10.6537930481135845184326171875">
        <ele>450.600006103515625</ele>
        <time>2018-08-17T05:57:02.000Z</time>
      </trkpt>
      <trkpt lat="49.08249353058636188507080078125" lon="10.65407778136432170867919921875">
        <ele>451.600006103515625</ele>
        <time>2018-08-17T05:57:06.000Z</time>
      </trkpt>
      <trkpt lat="49.08253812231123447418212890625" lon="10.6542869098484516143798828125">
        <ele>452.600006103515625</ele>
        <time>2018-08-17T05:57:09.000Z</time>
      </trkpt>
      <trkpt lat="49.082602746784687042236328125" lon="10.65457382239401340484619140625">
        <ele>453.600006103515625</ele>
        <time>2018-08-17T05:57:13.000Z</time>
      </trkpt>
      <trkpt lat="49.08269385807216167449951171875" lon="10.65496844239532947540283203125">
        <ele>454.600006103515625</ele>
        <time>2018-08-17T05:57:18.000Z</time>
      </trkpt>
      <trkpt lat="49.0828024037182331085205078125" lon="10.655399858951568603515625">
        <ele>455.600006103515625</ele>
        <time>2018-08-17T05:57:23.000Z</time>
      </trkpt>
      <trkpt lat="49.08304455690085887908935546875" lon="10.65620661713182926177978515625">
        <ele>456</ele>
        <time>2018-08-17T05:57:31.000Z</time>
      </trkpt>
      <trkpt lat="49.08327757380902767181396484375" lon="10.65693047828972339630126953125">
        <ele>454.600006103515625</ele>
        <time>2018-08-17T05:57:38.000Z</time>
      </trkpt>
      <trkpt lat="49.08352131955325603485107421875" lon="10.65769138745963573455810546875">
        <ele>454.20001220703125</ele>
        <time>2018-08-17T05:57:46.000Z</time>
      </trkpt>
      <trkpt lat="49.08379423432052135467529296875" lon="10.658490099012851715087890625">
        <ele>454.399993896484375</ele>
        <time>2018-08-17T05:57:55.000Z</time>
      </trkpt>
      <trkpt lat="49.0838333778083324432373046875" lon="10.6585700623691082000732421875">
        <ele>454.399993896484375</ele>
        <time>2018-08-17T05:57:56.000Z</time>
      </trkpt>
      <trkpt lat="49.0840382315218448638916015625" lon="10.65879444591701030731201171875">
        <ele>455.20001220703125</ele>
        <time>2018-08-17T05:58:00.000Z</time>
      </trkpt>
      <trkpt lat="49.08438247628509998321533203125" lon="10.65903701819479465484619140625">
        <ele>455.600006103515625</ele>
        <time>2018-08-17T05:58:07.000Z</time>
      </trkpt>
      <trkpt lat="49.0846135653555393218994140625" lon="10.65919577144086360931396484375">
        <ele>457</ele>
        <time>2018-08-17T05:58:13.000Z</time>
      </trkpt>
      <trkpt lat="49.08473074436187744140625" lon="10.65927992574870586395263671875">
        <ele>458.20001220703125</ele>
        <time>2018-08-17T05:58:16.000Z</time>
      </trkpt>
      <trkpt lat="49.08485203050076961517333984375" lon="10.65936357714235782623291015625">
        <ele>459.20001220703125</ele>
        <time>2018-08-17T05:58:19.000Z</time>
      </trkpt>
      <trkpt lat="49.08497683703899383544921875" lon="10.65944789908826351165771484375">
        <ele>460.79998779296875</ele>
        <time>2018-08-17T05:58:22.000Z</time>
      </trkpt>
      <trkpt lat="49.08524313010275363922119140625" lon="10.65963531844317913055419921875">
        <ele>462</ele>
        <time>2018-08-17T05:58:28.000Z</time>
      </trkpt>
      <trkpt lat="49.08558075316250324249267578125" lon="10.6598756276071071624755859375">
        <ele>463</ele>
        <time>2018-08-17T05:58:35.000Z</time>
      </trkpt>
      <trkpt lat="49.08602264709770679473876953125" lon="10.6601891107857227325439453125">
        <ele>464.20001220703125</ele>
        <time>2018-08-17T05:58:44.000Z</time>
      </trkpt>
      <trkpt lat="49.0865239687263965606689453125" lon="10.6605468504130840301513671875">
        <ele>465.20001220703125</ele>
        <time>2018-08-17T05:58:54.000Z</time>
      </trkpt>
      <trkpt lat="49.0869641862809658050537109375" lon="10.6609055958688259124755859375">
        <ele>466.399993896484375</ele>
        <time>2018-08-17T05:59:03.000Z</time>
      </trkpt>
      <trkpt lat="49.08738411962985992431640625" lon="10.66152535378932952880859375">
        <ele>467.399993896484375</ele>
        <time>2018-08-17T05:59:13.000Z</time>
      </trkpt>
      <trkpt lat="49.0876669250428676605224609375" lon="10.66200203262269496917724609375">
        <ele>468</ele>
        <time>2018-08-17T05:59:20.000Z</time>
      </trkpt>
      <trkpt lat="49.08775753341615200042724609375" lon="10.66266453824937343597412109375">
        <ele>468.399993896484375</ele>
        <time>2018-08-17T05:59:28.000Z</time>
      </trkpt>
      <trkpt lat="49.08778770826756954193115234375" lon="10.66332536749541759490966796875">
        <ele>469.399993896484375</ele>
        <time>2018-08-17T05:59:36.000Z</time>
      </trkpt>
      <trkpt lat="49.08782760612666606903076171875" lon="10.6638070754706859588623046875">
        <ele>470.79998779296875</ele>
        <time>2018-08-17T05:59:42.000Z</time>
      </trkpt>
      <trkpt lat="49.08786448650062084197998046875" lon="10.66439665853977203369140625">
        <ele>472</ele>
        <time>2018-08-17T05:59:49.000Z</time>
      </trkpt>
      <trkpt lat="49.08789935521781444549560546875" lon="10.6648866645991802215576171875">
        <ele>473</ele>
        <time>2018-08-17T05:59:55.000Z</time>
      </trkpt>
      <trkpt lat="49.08794176764786243438720703125" lon="10.665342807769775390625">
        <ele>474.20001220703125</ele>
        <time>2018-08-17T06:00:01.000Z</time>
      </trkpt>
      <trkpt lat="49.08824234269559383392333984375" lon="10.66550550051033496856689453125">
        <ele>475.20001220703125</ele>
        <time>2018-08-17T06:00:08.000Z</time>
      </trkpt>
      <trkpt lat="49.0882989205420017242431640625" lon="10.6654916703701019287109375">
        <ele>475.399993896484375</ele>
        <time>2018-08-17T06:00:09.000Z</time>
      </trkpt>
      <trkpt lat="49.08887668512761592864990234375" lon="10.6653942726552486419677734375">
        <ele>476</ele>
        <time>2018-08-17T06:00:18.000Z</time>
      </trkpt>
      <trkpt lat="49.08945620991289615631103515625" lon="10.665286481380462646484375">
        <ele>476</ele>
        <time>2018-08-17T06:00:26.000Z</time>
      </trkpt>
      <trkpt lat="49.09000623039901256561279296875" lon="10.66518732346594333648681640625">
        <ele>475</ele>
        <time>2018-08-17T06:00:33.000Z</time>
      </trkpt>
      <trkpt lat="49.09025835804641246795654296875" lon="10.6651448272168636322021484375">
        <ele>474.20001220703125</ele>
        <time>2018-08-17T06:00:36.000Z</time>
      </trkpt>
      <trkpt lat="49.0907509624958038330078125" lon="10.66507131792604923248291015625">
        <ele>473.20001220703125</ele>
        <time>2018-08-17T06:00:42.000Z</time>
      </trkpt>
      <trkpt lat="49.090886749327182769775390625" lon="10.66505354829132556915283203125">
        <ele>472.600006103515625</ele>
        <time>2018-08-17T06:00:44.000Z</time>
      </trkpt>
      <trkpt lat="49.0910830534994602203369140625" lon="10.66498163156211376190185546875">
        <ele>472</ele>
        <time>2018-08-17T06:00:47.000Z</time>
      </trkpt>
      <trkpt lat="49.0911413915455341339111328125" lon="10.6649282388389110565185546875">
        <ele>471.79998779296875</ele>
        <time>2018-08-17T06:00:48.000Z</time>
      </trkpt>
      <trkpt lat="49.09119947813451290130615234375" lon="10.6648702360689640045166015625">
        <ele>471.600006103515625</ele>
        <time>2018-08-17T06:00:49.000Z</time>
      </trkpt>
      <trkpt lat="49.0913174115121364593505859375" lon="10.66475884057581424713134765625">
        <ele>471</ele>
        <time>2018-08-17T06:00:51.000Z</time>
      </trkpt>
      <trkpt lat="49.0915842913091182708740234375" lon="10.66449598409235477447509765625">
        <ele>470.399993896484375</ele>
        <time>2018-08-17T06:00:56.000Z</time>
      </trkpt>
      <trkpt lat="49.0916976146399974822998046875" lon="10.66434544511139392852783203125">
        <ele>470.20001220703125</ele>
        <time>2018-08-17T06:01:03.000Z</time>
      </trkpt>
      <trkpt lat="49.09173927269876003265380859375" lon="10.66436355002224445343017578125">
        <ele>470.20001220703125</ele>
        <time>2018-08-17T06:01:04.000Z</time>
      </trkpt>
      <trkpt lat="49.09200900234282016754150390625" lon="10.66425743512809276580810546875">
        <ele>470.20001220703125</ele>
        <time>2018-08-17T06:01:09.000Z</time>
      </trkpt>
      <trkpt lat="49.09225492738187313079833984375" lon="10.66421334631741046905517578125">
        <ele>470.399993896484375</ele>
        <time>2018-08-17T06:01:13.000Z</time>
      </trkpt>
      <trkpt lat="49.09284484572708606719970703125" lon="10.66420446150004863739013671875">
        <ele>470.79998779296875</ele>
        <time>2018-08-17T06:01:22.000Z</time>
      </trkpt>
      <trkpt lat="49.09344046376645565032958984375" lon="10.664100944995880126953125">
        <ele>472</ele>
        <time>2018-08-17T06:01:31.000Z</time>
      </trkpt>
      <trkpt lat="49.09400406293570995330810546875" lon="10.663819648325443267822265625">
        <ele>472.600006103515625</ele>
        <time>2018-08-17T06:01:39.000Z</time>
      </trkpt>
      <trkpt lat="49.09407748840749263763427734375" lon="10.66378989256918430328369140625">
        <ele>472.600006103515625</ele>
        <time>2018-08-17T06:01:40.000Z</time>
      </trkpt>
      <trkpt lat="49.09468484111130237579345703125" lon="10.663682855665683746337890625">
        <ele>472.399993896484375</ele>
        <time>2018-08-17T06:01:48.000Z</time>
      </trkpt>
      <trkpt lat="49.09526713192462921142578125" lon="10.6637494079768657684326171875">
        <ele>472</ele>
        <time>2018-08-17T06:01:56.000Z</time>
      </trkpt>
      <trkpt lat="49.09586065448820590972900390625" lon="10.6639173813164234161376953125">
        <ele>472</ele>
        <time>2018-08-17T06:02:04.000Z</time>
      </trkpt>
      <trkpt lat="49.0960773266851902008056640625" lon="10.66402559168636798858642578125">
        <ele>472</ele>
        <time>2018-08-17T06:02:07.000Z</time>
      </trkpt>
      <trkpt lat="49.0965718589723110198974609375" lon="10.6644021905958652496337890625">
        <ele>472</ele>
        <time>2018-08-17T06:02:15.000Z</time>
      </trkpt>
      <trkpt lat="49.09672583453357219696044921875" lon="10.66455163992941379547119140625">
        <ele>472.20001220703125</ele>
        <time>2018-08-17T06:02:18.000Z</time>
      </trkpt>
      <trkpt lat="49.0965788997709751129150390625" lon="10.66518179140985012054443359375">
        <ele>472.600006103515625</ele>
        <time>2018-08-17T06:02:26.000Z</time>
      </trkpt>
      <trkpt lat="49.09632333554327487945556640625" lon="10.6654878146946430206298828125">
        <ele>473</ele>
        <time>2018-08-17T06:02:31.000Z</time>
      </trkpt>
      <trkpt lat="49.096156619489192962646484375" lon="10.66599651239812374114990234375">
        <ele>474.20001220703125</ele>
        <time>2018-08-17T06:02:37.000Z</time>
      </trkpt>
      <trkpt lat="49.09610440023243427276611328125" lon="10.66658793948590755462646484375">
        <ele>475.20001220703125</ele>
        <time>2018-08-17T06:02:44.000Z</time>
      </trkpt>
      <trkpt lat="49.09610389731824398040771484375" lon="10.6668373011052608489990234375">
        <ele>476.399993896484375</ele>
        <time>2018-08-17T06:02:47.000Z</time>
      </trkpt>
      <trkpt lat="49.09611127339303493499755859375" lon="10.66717207431793212890625">
        <ele>477.399993896484375</ele>
        <time>2018-08-17T06:02:51.000Z</time>
      </trkpt>
      <trkpt lat="49.0961128659546375274658203125" lon="10.6676560454070568084716796875">
        <ele>478.399993896484375</ele>
        <time>2018-08-17T06:02:57.000Z</time>
      </trkpt>
      <trkpt lat="49.09611294977366924285888671875" lon="10.66782343201339244842529296875">
        <ele>478.79998779296875</ele>
        <time>2018-08-17T06:02:59.000Z</time>
      </trkpt>
      <trkpt lat="49.09612786956131458282470703125" lon="10.66826750524342060089111328125">
        <ele>479.600006103515625</ele>
        <time>2018-08-17T06:03:04.000Z</time>
      </trkpt>
      <trkpt lat="49.09616759978234767913818359375" lon="10.668878294527530670166015625">
        <ele>480.600006103515625</ele>
        <time>2018-08-17T06:03:11.000Z</time>
      </trkpt>
      <trkpt lat="49.09623934887349605560302734375" lon="10.66965370438992977142333984375">
        <ele>481.600006103515625</ele>
        <time>2018-08-17T06:03:20.000Z</time>
      </trkpt>
      <trkpt lat="49.09629986621439456939697265625" lon="10.67018411122262477874755859375">
        <ele>482.79998779296875</ele>
        <time>2018-08-17T06:03:26.000Z</time>
      </trkpt>
      <trkpt lat="49.09644034691154956817626953125" lon="10.67106060683727264404296875">
        <ele>484</ele>
        <time>2018-08-17T06:03:36.000Z</time>
      </trkpt>
      <trkpt lat="49.09656154923141002655029296875" lon="10.6719128787517547607421875">
        <ele>484.600006103515625</ele>
        <time>2018-08-17T06:03:45.000Z</time>
      </trkpt>
      <trkpt lat="49.09666121006011962890625" lon="10.67279331386089324951171875">
        <ele>484.600006103515625</ele>
        <time>2018-08-17T06:03:54.000Z</time>
      </trkpt>
      <trkpt lat="49.0966625511646270751953125" lon="10.67370333708822727203369140625">
        <ele>484.600006103515625</ele>
        <time>2018-08-17T06:04:03.000Z</time>
      </trkpt>
      <trkpt lat="49.0965561009943485260009765625" lon="10.6745288707315921783447265625">
        <ele>484.600006103515625</ele>
        <time>2018-08-17T06:04:11.000Z</time>
      </trkpt>
      <trkpt lat="49.09641033969819545745849609375" lon="10.67534183152019977569580078125">
        <ele>484.399993896484375</ele>
        <time>2018-08-17T06:04:19.000Z</time>
      </trkpt>
      <trkpt lat="49.0963326394557952880859375" lon="10.6761837936937808990478515625">
        <ele>484.20001220703125</ele>
        <time>2018-08-17T06:04:27.000Z</time>
      </trkpt>
      <trkpt lat="49.09637932665646076202392578125" lon="10.6770400889217853546142578125">
        <ele>484</ele>
        <time>2018-08-17T06:04:35.000Z</time>
      </trkpt>
      <trkpt lat="49.09653623588383197784423828125" lon="10.67785372026264667510986328125">
        <ele>483.79998779296875</ele>
        <time>2018-08-17T06:04:43.000Z</time>
      </trkpt>
      <trkpt lat="49.0966851823031902313232421875" lon="10.67867405712604522705078125">
        <ele>483.600006103515625</ele>
        <time>2018-08-17T06:04:51.000Z</time>
      </trkpt>
      <trkpt lat="49.09673337824642658233642578125" lon="10.6794336251914501190185546875">
        <ele>483.399993896484375</ele>
        <time>2018-08-17T06:04:58.000Z</time>
      </trkpt>
      <trkpt lat="49.09676036797463893890380859375" lon="10.6796327792108058929443359375">
        <ele>483.20001220703125</ele>
        <time>2018-08-17T06:05:00.000Z</time>
      </trkpt>
      <trkpt lat="49.0967525728046894073486328125" lon="10.67984391935169696807861328125">
        <ele>482.79998779296875</ele>
        <time>2018-08-17T06:05:02.000Z</time>
      </trkpt>
      <trkpt lat="49.09666045568883419036865234375" lon="10.6807723827660083770751953125">
        <ele>482.20001220703125</ele>
        <time>2018-08-17T06:05:10.000Z</time>
      </trkpt>
      <trkpt lat="49.09660865552723407745361328125" lon="10.68154443986713886260986328125">
        <ele>481.79998779296875</ele>
        <time>2018-08-17T06:05:16.000Z</time>
      </trkpt>
      <trkpt lat="49.0965866111218929290771484375" lon="10.6823693029582500457763671875">
        <ele>481</ele>
        <time>2018-08-17T06:05:22.000Z</time>
      </trkpt>
      <trkpt lat="49.0965856052935123443603515625" lon="10.682643391191959381103515625">
        <ele>480.600006103515625</ele>
        <time>2018-08-17T06:05:24.000Z</time>
      </trkpt>
      <trkpt lat="49.0966023690998554229736328125" lon="10.68349205888807773590087890625">
        <ele>479.600006103515625</ele>
        <time>2018-08-17T06:05:30.000Z</time>
      </trkpt>
      <trkpt lat="49.09662994556128978729248046875" lon="10.68406873382627964019775390625">
        <ele>478.600006103515625</ele>
        <time>2018-08-17T06:05:34.000Z</time>
      </trkpt>
      <trkpt lat="49.09667571075260639190673828125" lon="10.68464591167867183685302734375">
        <ele>477.600006103515625</ele>
        <time>2018-08-17T06:05:38.000Z</time>
      </trkpt>
      <trkpt lat="49.0967569313943386077880859375" lon="10.6853722035884857177734375">
        <ele>476.399993896484375</ele>
        <time>2018-08-17T06:05:43.000Z</time>
      </trkpt>
      <trkpt lat="49.09683756530284881591796875" lon="10.6859688274562358856201171875">
        <ele>475</ele>
        <time>2018-08-17T06:05:47.000Z</time>
      </trkpt>
      <trkpt lat="49.096938483417034149169921875" lon="10.68657022900879383087158203125">
        <ele>473.79998779296875</ele>
        <time>2018-08-17T06:05:51.000Z</time>
      </trkpt>
      <trkpt lat="49.097021631896495819091796875" lon="10.687018744647502899169921875">
        <ele>472.79998779296875</ele>
        <time>2018-08-17T06:05:54.000Z</time>
      </trkpt>
      <trkpt lat="49.0971163474023342132568359375" lon="10.68746675737202167510986328125">
        <ele>471.600006103515625</ele>
        <time>2018-08-17T06:05:57.000Z</time>
      </trkpt>
      <trkpt lat="49.097181893885135650634765625" lon="10.68776481784880161285400390625">
        <ele>470.600006103515625</ele>
        <time>2018-08-17T06:05:59.000Z</time>
      </trkpt>
      <trkpt lat="49.097282476723194122314453125" lon="10.68821601569652557373046875">
        <ele>469.600006103515625</ele>
        <time>2018-08-17T06:06:02.000Z</time>
      </trkpt>
      <trkpt lat="49.09738205373287200927734375" lon="10.688661597669124603271484375">
        <ele>468.20001220703125</ele>
        <time>2018-08-17T06:06:05.000Z</time>
      </trkpt>
      <trkpt lat="49.0975123085081577301025390625" lon="10.68922980688512325286865234375">
        <ele>467</ele>
        <time>2018-08-17T06:06:09.000Z</time>
      </trkpt>
      <trkpt lat="49.097629822790622711181640625" lon="10.68978686816990375518798828125">
        <ele>465.600006103515625</ele>
        <time>2018-08-17T06:06:13.000Z</time>
      </trkpt>
      <trkpt lat="49.097769297659397125244140625" lon="10.6904764473438262939453125">
        <ele>464.600006103515625</ele>
        <time>2018-08-17T06:06:18.000Z</time>
      </trkpt>
      <trkpt lat="49.09792796708643436431884765625" lon="10.69131371565163135528564453125">
        <ele>463.399993896484375</ele>
        <time>2018-08-17T06:06:24.000Z</time>
      </trkpt>
      <trkpt lat="49.09807766787707805633544921875" lon="10.69213715381920337677001953125">
        <ele>462.20001220703125</ele>
        <time>2018-08-17T06:06:30.000Z</time>
      </trkpt>
      <trkpt lat="49.098221249878406524658203125" lon="10.6929640285670757293701171875">
        <ele>461.20001220703125</ele>
        <time>2018-08-17T06:06:36.000Z</time>
      </trkpt>
      <trkpt lat="49.09826743416488170623779296875" lon="10.69324021227657794952392578125">
        <ele>461</ele>
        <time>2018-08-17T06:06:38.000Z</time>
      </trkpt>
      <trkpt lat="49.09840154461562633514404296875" lon="10.69406348280608654022216796875">
        <ele>460.399993896484375</ele>
        <time>2018-08-17T06:06:44.000Z</time>
      </trkpt>
      <trkpt lat="49.098469354212284088134765625" lon="10.6944808177649974822998046875">
        <ele>460</ele>
        <time>2018-08-17T06:06:47.000Z</time>
      </trkpt>
      <trkpt lat="49.09858779050409793853759765625" lon="10.69520719349384307861328125">
        <ele>459.20001220703125</ele>
        <time>2018-08-17T06:06:52.000Z</time>
      </trkpt>
      <trkpt lat="49.09873522818088531494140625" lon="10.6961270235478878021240234375">
        <ele>458</ele>
        <time>2018-08-17T06:06:58.000Z</time>
      </trkpt>
      <trkpt lat="49.09887361340224742889404296875" lon="10.69690327160060405731201171875">
        <ele>456.79998779296875</ele>
        <time>2018-08-17T06:07:03.000Z</time>
      </trkpt>
      <trkpt lat="49.0990076400339603424072265625" lon="10.69751766510307788848876953125">
        <ele>455.79998779296875</ele>
        <time>2018-08-17T06:07:07.000Z</time>
      </trkpt>
      <trkpt lat="49.099170751869678497314453125" lon="10.698129795491695404052734375">
        <ele>454.600006103515625</ele>
        <time>2018-08-17T06:07:11.000Z</time>
      </trkpt>
      <trkpt lat="49.09931098110973834991455078125" lon="10.6985889561474323272705078125">
        <ele>453.600006103515625</ele>
        <time>2018-08-17T06:07:14.000Z</time>
      </trkpt>
      <trkpt lat="49.09946772269904613494873046875" lon="10.69905021227896213531494140625">
        <ele>452.600006103515625</ele>
        <time>2018-08-17T06:07:17.000Z</time>
      </trkpt>
      <trkpt lat="49.09964122809469699859619140625" lon="10.699516497552394866943359375">
        <ele>451.20001220703125</ele>
        <time>2018-08-17T06:07:20.000Z</time>
      </trkpt>
      <trkpt lat="49.09976385533809661865234375" lon="10.69983358494937419891357421875">
        <ele>450.20001220703125</ele>
        <time>2018-08-17T06:07:22.000Z</time>
      </trkpt>
      <trkpt lat="49.0999495983123779296875" lon="10.7003189809620380401611328125">
        <ele>449</ele>
        <time>2018-08-17T06:07:25.000Z</time>
      </trkpt>
      <trkpt lat="49.10007423721253871917724609375" lon="10.70064361207187175750732421875">
        <ele>448</ele>
        <time>2018-08-17T06:07:27.000Z</time>
      </trkpt>
      <trkpt lat="49.1001998819410800933837890625" lon="10.70098056457936763763427734375">
        <ele>446.600006103515625</ele>
        <time>2018-08-17T06:07:29.000Z</time>
      </trkpt>
      <trkpt lat="49.10039006732404232025146484375" lon="10.70150795392692089080810546875">
        <ele>445.20001220703125</ele>
        <time>2018-08-17T06:07:32.000Z</time>
      </trkpt>
      <trkpt lat="49.10057723522186279296875" lon="10.702055878937244415283203125">
        <ele>443.20001220703125</ele>
        <time>2018-08-17T06:07:35.000Z</time>
      </trkpt>
      <trkpt lat="49.10070388577878475189208984375" lon="10.702431388199329376220703125">
        <ele>441.399993896484375</ele>
        <time>2018-08-17T06:07:37.000Z</time>
      </trkpt>
      <trkpt lat="49.1008291952311992645263671875" lon="10.7028137706220149993896484375">
        <ele>440</ele>
        <time>2018-08-17T06:07:39.000Z</time>
      </trkpt>
      <trkpt lat="49.10095618106424808502197265625" lon="10.70319606922566890716552734375">
        <ele>438.600006103515625</ele>
        <time>2018-08-17T06:07:41.000Z</time>
      </trkpt>
      <trkpt lat="49.10107721574604511260986328125" lon="10.70356721989810466766357421875">
        <ele>436.79998779296875</ele>
        <time>2018-08-17T06:07:43.000Z</time>
      </trkpt>
      <trkpt lat="49.10113538615405559539794921875" lon="10.7037465088069438934326171875">
        <ele>435.79998779296875</ele>
        <time>2018-08-17T06:07:44.000Z</time>
      </trkpt>
      <trkpt lat="49.10119322128593921661376953125" lon="10.70392169058322906494140625">
        <ele>434.79998779296875</ele>
        <time>2018-08-17T06:07:45.000Z</time>
      </trkpt>
      <trkpt lat="49.1013039462268352508544921875" lon="10.704257972538471221923828125">
        <ele>432.20001220703125</ele>
        <time>2018-08-17T06:07:47.000Z</time>
      </trkpt>
      <trkpt lat="49.10140763036906719207763671875" lon="10.70457304827868938446044921875">
        <ele>430.79998779296875</ele>
        <time>2018-08-17T06:07:49.000Z</time>
      </trkpt>
      <trkpt lat="49.10150217823684215545654296875" lon="10.70486809127032756805419921875">
        <ele>429.600006103515625</ele>
        <time>2018-08-17T06:07:51.000Z</time>
      </trkpt>
      <trkpt lat="49.10174726508557796478271484375" lon="10.7056116499006748199462890625">
        <ele>428.79998779296875</ele>
        <time>2018-08-17T06:07:57.000Z</time>
      </trkpt>
      <trkpt lat="49.10201020538806915283203125" lon="10.7064156420528888702392578125">
        <ele>429.79998779296875</ele>
        <time>2018-08-17T06:08:05.000Z</time>
      </trkpt>
      <trkpt lat="49.10207248292863368988037109375" lon="10.70659962482750415802001953125">
        <ele>430.600006103515625</ele>
        <time>2018-08-17T06:08:07.000Z</time>
      </trkpt>
      <trkpt lat="49.10219117067754268646240234375" lon="10.70695451460778713226318359375">
        <ele>431.79998779296875</ele>
        <time>2018-08-17T06:08:11.000Z</time>
      </trkpt>
      <trkpt lat="49.10227498970925807952880859375" lon="10.70721234194934368133544921875">
        <ele>432.79998779296875</ele>
        <time>2018-08-17T06:08:14.000Z</time>
      </trkpt>
      <trkpt lat="49.10241044126451015472412109375" lon="10.7076290063560009002685546875">
        <ele>434</ele>
        <time>2018-08-17T06:08:19.000Z</time>
      </trkpt>
      <trkpt lat="49.1025166399776935577392578125" lon="10.707957744598388671875">
        <ele>435</ele>
        <time>2018-08-17T06:08:23.000Z</time>
      </trkpt>
      <trkpt lat="49.1026842780411243438720703125" lon="10.70846795104444026947021484375">
        <ele>436.20001220703125</ele>
        <time>2018-08-17T06:08:29.000Z</time>
      </trkpt>
      <trkpt lat="49.10292006097733974456787109375" lon="10.70918326266109943389892578125">
        <ele>437.20001220703125</ele>
        <time>2018-08-17T06:08:37.000Z</time>
      </trkpt>
      <trkpt lat="49.10318258218467235565185546875" lon="10.7099883444607257843017578125">
        <ele>438</ele>
        <time>2018-08-17T06:08:45.000Z</time>
      </trkpt>
      <trkpt lat="49.10343973897397518157958984375" lon="10.710806585848331451416015625">
        <ele>437.600006103515625</ele>
        <time>2018-08-17T06:08:52.000Z</time>
      </trkpt>
      <trkpt lat="49.10366621799767017364501953125" lon="10.711604543030261993408203125">
        <ele>436.79998779296875</ele>
        <time>2018-08-17T06:08:58.000Z</time>
      </trkpt>
      <trkpt lat="49.1037745960056781768798828125" lon="10.71203059516847133636474609375">
        <ele>436.20001220703125</ele>
        <time>2018-08-17T06:09:01.000Z</time>
      </trkpt>
      <trkpt lat="49.1039137355983257293701171875" lon="10.71262805722653865814208984375">
        <ele>435.20001220703125</ele>
        <time>2018-08-17T06:09:05.000Z</time>
      </trkpt>
      <trkpt lat="49.104013144969940185546875" lon="10.71309476159512996673583984375">
        <ele>434</ele>
        <time>2018-08-17T06:09:08.000Z</time>
      </trkpt>
      <trkpt lat="49.10410995595157146453857421875" lon="10.713576972484588623046875">
        <ele>433</ele>
        <time>2018-08-17T06:09:11.000Z</time>
      </trkpt>
      <trkpt lat="49.10422512330114841461181640625" lon="10.7142486982047557830810546875">
        <ele>431.79998779296875</ele>
        <time>2018-08-17T06:09:15.000Z</time>
      </trkpt>
      <trkpt lat="49.10432755015790462493896484375" lon="10.71493618190288543701171875">
        <ele>430.600006103515625</ele>
        <time>2018-08-17T06:09:19.000Z</time>
      </trkpt>
      <trkpt lat="49.104415476322174072265625" lon="10.71563531644642353057861328125">
        <ele>429.20001220703125</ele>
        <time>2018-08-17T06:09:23.000Z</time>
      </trkpt>
      <trkpt lat="49.1044786758720874786376953125" lon="10.71615683846175670623779296875">
        <ele>427.79998779296875</ele>
        <time>2018-08-17T06:09:26.000Z</time>
      </trkpt>
      <trkpt lat="49.1045514307916164398193359375" lon="10.716666877269744873046875">
        <ele>426.79998779296875</ele>
        <time>2018-08-17T06:09:29.000Z</time>
      </trkpt>
      <trkpt lat="49.10464120097458362579345703125" lon="10.71716752834618091583251953125">
        <ele>425.79998779296875</ele>
        <time>2018-08-17T06:09:32.000Z</time>
      </trkpt>
      <trkpt lat="49.1047576256096363067626953125" lon="10.71765317581593990325927734375">
        <ele>424.600006103515625</ele>
        <time>2018-08-17T06:09:35.000Z</time>
      </trkpt>
      <trkpt lat="49.10497404634952545166015625" lon="10.7183853350579738616943359375">
        <ele>423.20001220703125</ele>
        <time>2018-08-17T06:09:40.000Z</time>
      </trkpt>
      <trkpt lat="49.10518191754817962646484375" lon="10.7190263830125331878662109375">
        <ele>422.20001220703125</ele>
        <time>2018-08-17T06:09:45.000Z</time>
      </trkpt>
      <trkpt lat="49.10520463250577449798583984375" lon="10.719140209257602691650390625">
        <ele>422.20001220703125</ele>
        <time>2018-08-17T06:09:46.000Z</time>
      </trkpt>
      <trkpt lat="49.1049896366894245147705078125" lon="10.71974026970565319061279296875">
        <ele>421.399993896484375</ele>
        <time>2018-08-17T06:09:53.000Z</time>
      </trkpt>
      <trkpt lat="49.10496708936989307403564453125" lon="10.7198290340602397918701171875">
        <ele>421.399993896484375</ele>
        <time>2018-08-17T06:09:54.000Z</time>
      </trkpt>
      <trkpt lat="49.10479593090713024139404296875" lon="10.72062120772898197174072265625">
        <ele>422</ele>
        <time>2018-08-17T06:10:04.000Z</time>
      </trkpt>
      <trkpt lat="49.10475770942866802215576171875" lon="10.72086243890225887298583984375">
        <ele>422.79998779296875</ele>
        <time>2018-08-17T06:10:07.000Z</time>
      </trkpt>
      <trkpt lat="49.10475687123835086822509765625" lon="10.72102102451026439666748046875">
        <ele>423.20001220703125</ele>
        <time>2018-08-17T06:10:09.000Z</time>
      </trkpt>
      <trkpt lat="49.104753769934177398681640625" lon="10.72118128649890422821044921875">
        <ele>423.600006103515625</ele>
        <time>2018-08-17T06:10:11.000Z</time>
      </trkpt>
      <trkpt lat="49.1047817654907703399658203125" lon="10.7215104438364505767822265625">
        <ele>424.20001220703125</ele>
        <time>2018-08-17T06:10:15.000Z</time>
      </trkpt>
      <trkpt lat="49.10479442216455936431884765625" lon="10.72159250266849994659423828125">
        <ele>424.399993896484375</ele>
        <time>2018-08-17T06:10:16.000Z</time>
      </trkpt>
      <trkpt lat="49.10487924702465534210205078125" lon="10.7221303693950176239013671875">
        <ele>425.399993896484375</ele>
        <time>2018-08-17T06:10:22.000Z</time>
      </trkpt>
      <trkpt lat="49.10507571883499622344970703125" lon="10.722899995744228363037109375">
        <ele>425.399993896484375</ele>
        <time>2018-08-17T06:10:30.000Z</time>
      </trkpt>
      <trkpt lat="49.10535265691578388214111328125" lon="10.72361622937023639678955078125">
        <ele>424.79998779296875</ele>
        <time>2018-08-17T06:10:37.000Z</time>
      </trkpt>
      <trkpt lat="49.10544284619390964508056640625" lon="10.72381563484668731689453125">
        <ele>424.399993896484375</ele>
        <time>2018-08-17T06:10:39.000Z</time>
      </trkpt>
      <trkpt lat="49.10565641708672046661376953125" lon="10.72428963147103786468505859375">
        <ele>423.20001220703125</ele>
        <time>2018-08-17T06:10:44.000Z</time>
      </trkpt>
      <trkpt lat="49.1058211214840412139892578125" lon="10.72464854456484317779541015625">
        <ele>422.399993896484375</ele>
        <time>2018-08-17T06:10:48.000Z</time>
      </trkpt>
      <trkpt lat="49.10602019168436527252197265625" lon="10.7254268042743206024169921875">
        <ele>422.600006103515625</ele>
        <time>2018-08-17T06:10:57.000Z</time>
      </trkpt>
      <trkpt lat="49.106158912181854248046875" lon="10.72616717778146266937255859375">
        <ele>424.20001220703125</ele>
        <time>2018-08-17T06:11:07.000Z</time>
      </trkpt>
      <trkpt lat="49.10620610229671001434326171875" lon="10.72648300789296627044677734375">
        <ele>425.20001220703125</ele>
        <time>2018-08-17T06:11:11.000Z</time>
      </trkpt>
      <trkpt lat="49.1062526218593120574951171875" lon="10.7267327047884464263916015625">
        <ele>425.79998779296875</ele>
        <time>2018-08-17T06:11:14.000Z</time>
      </trkpt>
      <trkpt lat="49.10629629157483577728271484375" lon="10.726894475519657135009765625">
        <ele>426.399993896484375</ele>
        <time>2018-08-17T06:11:16.000Z</time>
      </trkpt>
      <trkpt lat="49.1063247062265872955322265625" lon="10.7269677333533763885498046875">
        <ele>426.600006103515625</ele>
        <time>2018-08-17T06:11:17.000Z</time>
      </trkpt>
      <trkpt lat="49.10639402456581592559814453125" lon="10.727147273719310760498046875">
        <ele>426.79998779296875</ele>
        <time>2018-08-17T06:11:20.000Z</time>
      </trkpt>
      <trkpt lat="49.10657289437949657440185546875" lon="10.72795185260474681854248046875">
        <ele>427.20001220703125</ele>
        <time>2018-08-17T06:11:30.000Z</time>
      </trkpt>
      <trkpt lat="49.1067977808415889739990234375" lon="10.72881150059401988983154296875">
        <ele>427</ele>
        <time>2018-08-17T06:11:39.000Z</time>
      </trkpt>
      <trkpt lat="49.10702400840818881988525390625" lon="10.72966762818396091461181640625">
        <ele>426.79998779296875</ele>
        <time>2018-08-17T06:11:47.000Z</time>
      </trkpt>
      <trkpt lat="49.1072658263146877288818359375" lon="10.73052249848842620849609375">
        <ele>426.399993896484375</ele>
        <time>2018-08-17T06:11:55.000Z</time>
      </trkpt>
      <trkpt lat="49.1074720211327075958251953125" lon="10.73129472322762012481689453125">
        <ele>425.79998779296875</ele>
        <time>2018-08-17T06:12:02.000Z</time>
      </trkpt>
      <trkpt lat="49.107588194310665130615234375" lon="10.7317397184669971466064453125">
        <ele>425.20001220703125</ele>
        <time>2018-08-17T06:12:06.000Z</time>
      </trkpt>
      <trkpt lat="49.10779774188995361328125" lon="10.73256223462522029876708984375">
        <ele>424.600006103515625</ele>
        <time>2018-08-17T06:12:13.000Z</time>
      </trkpt>
      <trkpt lat="49.10795121453702449798583984375" lon="10.7330204732716083526611328125">
        <ele>424</ele>
        <time>2018-08-17T06:12:17.000Z</time>
      </trkpt>
      <trkpt lat="49.1082666255533695220947265625" lon="10.73379118926823139190673828125">
        <ele>423.20001220703125</ele>
        <time>2018-08-17T06:12:24.000Z</time>
      </trkpt>
      <trkpt lat="49.10831130109727382659912109375" lon="10.73390384204685688018798828125">
        <ele>423</ele>
        <time>2018-08-17T06:12:25.000Z</time>
      </trkpt>
      <trkpt lat="49.10863450728356838226318359375" lon="10.73470498435199260711669921875">
        <ele>422</ele>
        <time>2018-08-17T06:12:32.000Z</time>
      </trkpt>
      <trkpt lat="49.1089257784187793731689453125" lon="10.735426247119903564453125">
        <ele>421.20001220703125</ele>
        <time>2018-08-17T06:12:38.000Z</time>
      </trkpt>
      <trkpt lat="49.10897531546652317047119140625" lon="10.735550634562969207763671875">
        <ele>420.79998779296875</ele>
        <time>2018-08-17T06:12:39.000Z</time>
      </trkpt>
      <trkpt lat="49.10917572677135467529296875" lon="10.73605614714324474334716796875">
        <ele>419.79998779296875</ele>
        <time>2018-08-17T06:12:43.000Z</time>
      </trkpt>
      <trkpt lat="49.10954008810222148895263671875" lon="10.73674631305038928985595703125">
        <ele>418.79998779296875</ele>
        <time>2018-08-17T06:12:49.000Z</time>
      </trkpt>
      <trkpt lat="49.1099523939192295074462890625" lon="10.73733036406338214874267578125">
        <ele>417.79998779296875</ele>
        <time>2018-08-17T06:12:55.000Z</time>
      </trkpt>
      <trkpt lat="49.11012388765811920166015625" lon="10.7376657240092754364013671875">
        <ele>417.399993896484375</ele>
        <time>2018-08-17T06:12:58.000Z</time>
      </trkpt>
      <trkpt lat="49.1100593470036983489990234375" lon="10.73818867094814777374267578125">
        <ele>416.600006103515625</ele>
        <time>2018-08-17T06:13:02.000Z</time>
      </trkpt>
      <trkpt lat="49.1100130788981914520263671875" lon="10.73829897679388523101806640625">
        <ele>416.399993896484375</ele>
        <time>2018-08-17T06:13:03.000Z</time>
      </trkpt>
      <trkpt lat="49.10997427068650722503662109375" lon="10.7384143956005573272705078125">
        <ele>416.20001220703125</ele>
        <time>2018-08-17T06:13:04.000Z</time>
      </trkpt>
      <trkpt lat="49.11016412079334259033203125" lon="10.73914739303290843963623046875">
        <ele>415.79998779296875</ele>
        <time>2018-08-17T06:13:11.000Z</time>
      </trkpt>
      <trkpt lat="49.11023025400936603546142578125" lon="10.73923054151237010955810546875">
        <ele>415.79998779296875</ele>
        <time>2018-08-17T06:13:12.000Z</time>
      </trkpt>
      <trkpt lat="49.11036402918398380279541015625" lon="10.7393846847116947174072265625">
        <ele>415.600006103515625</ele>
        <time>2018-08-17T06:13:14.000Z</time>
      </trkpt>
      <trkpt lat="49.1107265464961528778076171875" lon="10.74000737629830837249755859375">
        <ele>415.20001220703125</ele>
        <time>2018-08-17T06:13:21.000Z</time>
      </trkpt>
      <trkpt lat="49.11092360503971576690673828125" lon="10.74046871624886989593505859375">
        <ele>415</ele>
        <time>2018-08-17T06:13:26.000Z</time>
      </trkpt>
      <trkpt lat="49.11114036105573177337646484375" lon="10.7409950159490108489990234375">
        <ele>415</ele>
        <time>2018-08-17T06:13:32.000Z</time>
      </trkpt>
      <trkpt lat="49.11120087839663028717041015625" lon="10.741319395601749420166015625">
        <ele>415</ele>
        <time>2018-08-17T06:13:37.000Z</time>
      </trkpt>
      <trkpt lat="49.1113263554871082305908203125" lon="10.7417269237339496612548828125">
        <ele>415</ele>
        <time>2018-08-17T06:13:42.000Z</time>
      </trkpt>
      <trkpt lat="49.11144378595054149627685546875" lon="10.7423280738294124603271484375">
        <ele>415</ele>
        <time>2018-08-17T06:13:48.000Z</time>
      </trkpt>
      <trkpt lat="49.11170664243400096893310546875" lon="10.7431201636791229248046875">
        <ele>414.79998779296875</ele>
        <time>2018-08-17T06:13:55.000Z</time>
      </trkpt>
      <trkpt lat="49.111809320747852325439453125" lon="10.7433040626347064971923828125">
        <ele>414.399993896484375</ele>
        <time>2018-08-17T06:13:57.000Z</time>
      </trkpt>
      <trkpt lat="49.11186187528073787689208984375" lon="10.743388049304485321044921875">
        <ele>414</ele>
        <time>2018-08-17T06:13:58.000Z</time>
      </trkpt>
      <trkpt lat="49.112015180289745330810546875" lon="10.743601620197296142578125">
        <ele>413.399993896484375</ele>
        <time>2018-08-17T06:14:01.000Z</time>
      </trkpt>
      <trkpt lat="49.11213831044733524322509765625" lon="10.74384142644703388214111328125">
        <ele>413.399993896484375</ele>
        <time>2018-08-17T06:14:04.000Z</time>
      </trkpt>
      <trkpt lat="49.11217049695551395416259765625" lon="10.743932537734508514404296875">
        <ele>413.399993896484375</ele>
        <time>2018-08-17T06:14:05.000Z</time>
      </trkpt>
      <trkpt lat="49.1124260611832141876220703125" lon="10.74470601975917816162109375">
        <ele>413.600006103515625</ele>
        <time>2018-08-17T06:14:13.000Z</time>
      </trkpt>
      <trkpt lat="49.112683720886707305908203125" lon="10.74550204910337924957275390625">
        <ele>413.79998779296875</ele>
        <time>2018-08-17T06:14:21.000Z</time>
      </trkpt>
      <trkpt lat="49.112931154668331146240234375" lon="10.7463121600449085235595703125">
        <ele>413.600006103515625</ele>
        <time>2018-08-17T06:14:29.000Z</time>
      </trkpt>
      <trkpt lat="49.113163836300373077392578125" lon="10.7469746656715869903564453125">
        <ele>413.399993896484375</ele>
        <time>2018-08-17T06:14:36.000Z</time>
      </trkpt>
      <trkpt lat="49.1133071668446063995361328125" lon="10.74736274778842926025390625">
        <ele>413.399993896484375</ele>
        <time>2018-08-17T06:14:40.000Z</time>
      </trkpt>
      <trkpt lat="49.11355988122522830963134765625" lon="10.74818492867052555084228515625">
        <ele>413.399993896484375</ele>
        <time>2018-08-17T06:14:48.000Z</time>
      </trkpt>
      <trkpt lat="49.11382273770868778228759765625" lon="10.7489893399178981781005859375">
        <ele>413</ele>
        <time>2018-08-17T06:14:56.000Z</time>
      </trkpt>
      <trkpt lat="49.11421484313905239105224609375" lon="10.74962192215025424957275390625">
        <ele>413.20001220703125</ele>
        <time>2018-08-17T06:15:04.000Z</time>
      </trkpt>
      <trkpt lat="49.1146315075457096099853515625" lon="10.75019524432718753814697265625">
        <ele>413.79998779296875</ele>
        <time>2018-08-17T06:15:12.000Z</time>
      </trkpt>
      <trkpt lat="49.114824794232845306396484375" lon="10.750483833253383636474609375">
        <ele>414</ele>
        <time>2018-08-17T06:15:16.000Z</time>
      </trkpt>
      <trkpt lat="49.11491003818809986114501953125" lon="10.7509741745889186859130859375">
        <ele>414.20001220703125</ele>
        <time>2018-08-17T06:15:21.000Z</time>
      </trkpt>
      <trkpt lat="49.114908613264560699462890625" lon="10.75137943960726261138916015625">
        <ele>414.399993896484375</ele>
        <time>2018-08-17T06:15:25.000Z</time>
      </trkpt>
      <trkpt lat="49.1148970462381839752197265625" lon="10.75157624669373035430908203125">
        <ele>414.600006103515625</ele>
        <time>2018-08-17T06:15:27.000Z</time>
      </trkpt>
      <trkpt lat="49.11451072432100772857666015625" lon="10.7521369121968746185302734375">
        <ele>414.79998779296875</ele>
        <time>2018-08-17T06:15:35.000Z</time>
      </trkpt>
      <trkpt lat="49.1144404001533985137939453125" lon="10.7521833479404449462890625">
        <ele>414.79998779296875</ele>
        <time>2018-08-17T06:15:36.000Z</time>
      </trkpt>
      <trkpt lat="49.1141705028712749481201171875" lon="10.752691961824893951416015625">
        <ele>414.600006103515625</ele>
        <time>2018-08-17T06:15:42.000Z</time>
      </trkpt>
      <trkpt lat="49.11412482149899005889892578125" lon="10.7528949715197086334228515625">
        <ele>414.399993896484375</ele>
        <time>2018-08-17T06:15:44.000Z</time>
      </trkpt>
      <trkpt lat="49.1141299344599246978759765625" lon="10.75312019325792789459228515625">
        <ele>413</ele>
        <time>2018-08-17T06:15:47.000Z</time>
      </trkpt>
      <trkpt lat="49.11429597996175289154052734375" lon="10.75313511304557323455810546875">
        <ele>412</ele>
        <time>2018-08-17T06:15:52.000Z</time>
      </trkpt>
      <trkpt lat="49.114843904972076416015625" lon="10.75281542725861072540283203125">
        <ele>412.20001220703125</ele>
        <time>2018-08-17T06:16:03.000Z</time>
      </trkpt>
      <trkpt lat="49.1153697855770587921142578125" lon="10.752559192478656768798828125">
        <ele>412.399993896484375</ele>
        <time>2018-08-17T06:16:17.000Z</time>
      </trkpt>
      <trkpt lat="49.11541613750159740447998046875" lon="10.75253379531204700469970703125">
        <ele>412.399993896484375</ele>
        <time>2018-08-17T06:16:20.000Z</time>
      </trkpt>
      <trkpt lat="49.11546609364449977874755859375" lon="10.75270302593708038330078125">
        <ele>412.600006103515625</ele>
        <time>2018-08-17T06:16:24.000Z</time>
      </trkpt>
      <trkpt lat="49.11549526266753673553466796875" lon="10.75284560211002826690673828125">
        <ele>413</ele>
        <time>2018-08-17T06:16:26.000Z</time>
      </trkpt>
      <trkpt lat="49.11563741974532604217529296875" lon="10.7532835565507411956787109375">
        <ele>413.399993896484375</ele>
        <time>2018-08-17T06:16:32.000Z</time>
      </trkpt>
      <trkpt lat="49.1158093325793743133544921875" lon="10.7533388771116733551025390625">
        <ele>413.600006103515625</ele>
        <time>2018-08-17T06:16:36.000Z</time>
      </trkpt>
      <trkpt lat="49.11590983159840106964111328125" lon="10.75333946384489536285400390625">
        <ele>413.600006103515625</ele>
        <time>2018-08-17T06:16:38.000Z</time>
      </trkpt>
      <trkpt lat="49.11602885462343692779541015625" lon="10.753348432481288909912109375">
        <ele>413.600006103515625</ele>
        <time>2018-08-17T06:16:40.000Z</time>
      </trkpt>
      <trkpt lat="49.116159863770008087158203125" lon="10.75367272831499576568603515625">
        <ele>413.600006103515625</ele>
        <time>2018-08-17T06:16:45.000Z</time>
      </trkpt>
      <trkpt lat="49.11619163118302822113037109375" lon="10.75421570800244808197021484375">
        <ele>414</ele>
        <time>2018-08-17T06:16:51.000Z</time>
      </trkpt>
      <trkpt lat="49.1162079758942127227783203125" lon="10.7544003613293170928955078125">
        <ele>414</ele>
        <time>2018-08-17T06:16:53.000Z</time>
      </trkpt>
      <trkpt lat="49.1163098998367786407470703125" lon="10.754741840064525604248046875">
        <ele>414.79998779296875</ele>
        <time>2018-08-17T06:16:58.000Z</time>
      </trkpt>
      <trkpt lat="49.11648516543209552764892578125" lon="10.7547582685947418212890625">
        <ele>415.20001220703125</ele>
        <time>2018-08-17T06:17:01.000Z</time>
      </trkpt>
      <trkpt lat="49.1167576611042022705078125" lon="10.75475801713764667510986328125">
        <ele>415.79998779296875</ele>
        <time>2018-08-17T06:17:05.000Z</time>
      </trkpt>
      <trkpt lat="49.11734682507812976837158203125" lon="10.7548798061907291412353515625">
        <ele>416.20001220703125</ele>
        <time>2018-08-17T06:17:14.000Z</time>
      </trkpt>
      <trkpt lat="49.11754413507878780364990234375" lon="10.755099244415760040283203125">
        <ele>416.399993896484375</ele>
        <time>2018-08-17T06:17:18.000Z</time>
      </trkpt>
      <trkpt lat="49.117761142551898956298828125" lon="10.75544382445514202117919921875">
        <ele>417</ele>
        <time>2018-08-17T06:17:23.000Z</time>
      </trkpt>
      <trkpt lat="49.11814796738326549530029296875" lon="10.75602703727781772613525390625">
        <ele>418.20001220703125</ele>
        <time>2018-08-17T06:17:32.000Z</time>
      </trkpt>
      <trkpt lat="49.1184606961905956268310546875" lon="10.75655442662537097930908203125">
        <ele>419.399993896484375</ele>
        <time>2018-08-17T06:17:40.000Z</time>
      </trkpt>
      <trkpt lat="49.1187212057411670684814453125" lon="10.75702800415456295013427734375">
        <ele>420.399993896484375</ele>
        <time>2018-08-17T06:17:47.000Z</time>
      </trkpt>
      <trkpt lat="49.11892815493047237396240234375" lon="10.75745514594018459320068359375">
        <ele>421.600006103515625</ele>
        <time>2018-08-17T06:17:53.000Z</time>
      </trkpt>
      <trkpt lat="49.11929570138454437255859375" lon="10.75818143784999847412109375">
        <ele>422.79998779296875</ele>
        <time>2018-08-17T06:18:03.000Z</time>
      </trkpt>
      <trkpt lat="49.11962066777050495147705078125" lon="10.7588379085063934326171875">
        <ele>423.600006103515625</ele>
        <time>2018-08-17T06:18:11.000Z</time>
      </trkpt>
      <trkpt lat="49.119957871735095977783203125" lon="10.75956654734909534454345703125">
        <ele>423.600006103515625</ele>
        <time>2018-08-17T06:18:19.000Z</time>
      </trkpt>
      <trkpt lat="49.1203104145824909210205078125" lon="10.760321505367755889892578125">
        <ele>423</ele>
        <time>2018-08-17T06:18:27.000Z</time>
      </trkpt>
      <trkpt lat="49.12063144147396087646484375" lon="10.76099365018308162689208984375">
        <ele>422.399993896484375</ele>
        <time>2018-08-17T06:18:34.000Z</time>
      </trkpt>
      <trkpt lat="49.1209568269550800323486328125" lon="10.76167610473930835723876953125">
        <ele>421.79998779296875</ele>
        <time>2018-08-17T06:18:41.000Z</time>
      </trkpt>
      <trkpt lat="49.12104894407093524932861328125" lon="10.761867463588714599609375">
        <ele>421.600006103515625</ele>
        <time>2018-08-17T06:18:43.000Z</time>
      </trkpt>
      <trkpt lat="49.12137399427592754364013671875" lon="10.76253608800470829010009765625">
        <ele>421.20001220703125</ele>
        <time>2018-08-17T06:18:50.000Z</time>
      </trkpt>
      <trkpt lat="49.12171396426856517791748046875" lon="10.76320881955325603485107421875">
        <ele>420.79998779296875</ele>
        <time>2018-08-17T06:18:57.000Z</time>
      </trkpt>
      <trkpt lat="49.122039265930652618408203125" lon="10.763874091207981109619140625">
        <ele>420.600006103515625</ele>
        <time>2018-08-17T06:19:04.000Z</time>
      </trkpt>
      <trkpt lat="49.12236792035400867462158203125" lon="10.7645322382450103759765625">
        <ele>420.600006103515625</ele>
        <time>2018-08-17T06:19:11.000Z</time>
      </trkpt>
      <trkpt lat="49.1226935572922229766845703125" lon="10.7651885412633419036865234375">
        <ele>420.600006103515625</ele>
        <time>2018-08-17T06:19:18.000Z</time>
      </trkpt>
      <trkpt lat="49.12306847982108592987060546875" lon="10.76592371799051761627197265625">
        <ele>420.79998779296875</ele>
        <time>2018-08-17T06:19:26.000Z</time>
      </trkpt>
      <trkpt lat="49.12340710870921611785888671875" lon="10.7666422985494136810302734375">
        <ele>420.79998779296875</ele>
        <time>2018-08-17T06:19:34.000Z</time>
      </trkpt>
      <trkpt lat="49.12345178425312042236328125" lon="10.76671983115375041961669921875">
        <ele>421</ele>
        <time>2018-08-17T06:19:35.000Z</time>
      </trkpt>
      <trkpt lat="49.12365353666245937347412109375" lon="10.76696458272635936737060546875">
        <ele>421</ele>
        <time>2018-08-17T06:19:39.000Z</time>
      </trkpt>
      <trkpt lat="49.12387448363006114959716796875" lon="10.76710439287126064300537109375">
        <ele>421.20001220703125</ele>
        <time>2018-08-17T06:19:43.000Z</time>
      </trkpt>
      <trkpt lat="49.1243162937462329864501953125" lon="10.7672823406755924224853515625">
        <ele>421.20001220703125</ele>
        <time>2018-08-17T06:19:51.000Z</time>
      </trkpt>
      <trkpt lat="49.12486639805138111114501953125" lon="10.7675371505320072174072265625">
        <ele>420.600006103515625</ele>
        <time>2018-08-17T06:20:00.000Z</time>
      </trkpt>
      <trkpt lat="49.124932028353214263916015625" lon="10.76756606809794902801513671875">
        <ele>420.399993896484375</ele>
        <time>2018-08-17T06:20:01.000Z</time>
      </trkpt>
      <trkpt lat="49.1252959705889225006103515625" lon="10.76780377887189388275146484375">
        <ele>420</ele>
        <time>2018-08-17T06:20:07.000Z</time>
      </trkpt>
      <trkpt lat="49.1255688853561878204345703125" lon="10.76786932535469532012939453125">
        <ele>420</ele>
        <time>2018-08-17T06:20:12.000Z</time>
      </trkpt>
      <trkpt lat="49.12589200772345066070556640625" lon="10.7679010927677154541015625">
        <ele>419.600006103515625</ele>
        <time>2018-08-17T06:20:17.000Z</time>
      </trkpt>
      <trkpt lat="49.12629014812409877777099609375" lon="10.7680363766849040985107421875">
        <ele>419.20001220703125</ele>
        <time>2018-08-17T06:20:23.000Z</time>
      </trkpt>
      <trkpt lat="49.12686824798583984375" lon="10.7682626880705356597900390625">
        <ele>418.79998779296875</ele>
        <time>2018-08-17T06:20:33.000Z</time>
      </trkpt>
      <trkpt lat="49.12736646831035614013671875" lon="10.76865253038704395294189453125">
        <ele>418.600006103515625</ele>
        <time>2018-08-17T06:20:41.000Z</time>
      </trkpt>
      <trkpt lat="49.1275047697126865386962890625" lon="10.76902502216398715972900390625">
        <ele>418.399993896484375</ele>
        <time>2018-08-17T06:20:45.000Z</time>
      </trkpt>
      <trkpt lat="49.1275637783110141754150390625" lon="10.7692111842334270477294921875">
        <ele>418.399993896484375</ele>
        <time>2018-08-17T06:20:47.000Z</time>
      </trkpt>
      <trkpt lat="49.127596132457256317138671875" lon="10.76929056085646152496337890625">
        <ele>418.20001220703125</ele>
        <time>2018-08-17T06:20:48.000Z</time>
      </trkpt>
      <trkpt lat="49.1276237927377223968505859375" lon="10.7695675827562808990478515625">
        <ele>418.20001220703125</ele>
        <time>2018-08-17T06:20:51.000Z</time>
      </trkpt>
      <trkpt lat="49.12768875248730182647705078125" lon="10.7704510353505611419677734375">
        <ele>418.399993896484375</ele>
        <time>2018-08-17T06:21:00.000Z</time>
      </trkpt>
      <trkpt lat="49.1277511976659297943115234375" lon="10.771057717502117156982421875">
        <ele>418.79998779296875</ele>
        <time>2018-08-17T06:21:07.000Z</time>
      </trkpt>
      <trkpt lat="49.1278137266635894775390625" lon="10.77126793563365936279296875">
        <ele>418.79998779296875</ele>
        <time>2018-08-17T06:21:11.000Z</time>
      </trkpt>
      <trkpt lat="49.12803509272634983062744140625" lon="10.771343708038330078125">
        <ele>419</ele>
        <time>2018-08-17T06:21:19.000Z</time>
      </trkpt>
      <trkpt lat="49.128297865390777587890625" lon="10.77151729725301265716552734375">
        <ele>419.20001220703125</ele>
        <time>2018-08-17T06:21:25.000Z</time>
      </trkpt>
      <trkpt lat="49.12834941409528255462646484375" lon="10.77153171412646770477294921875">
        <ele>419.399993896484375</ele>
        <time>2018-08-17T06:21:26.000Z</time>
      </trkpt>
      <trkpt lat="49.12879566662013530731201171875" lon="10.771437250077724456787109375">
        <ele>420.20001220703125</ele>
        <time>2018-08-17T06:21:34.000Z</time>
      </trkpt>
      <trkpt lat="49.128850400447845458984375" lon="10.77140112407505512237548828125">
        <ele>420.399993896484375</ele>
        <time>2018-08-17T06:21:35.000Z</time>
      </trkpt>
      <trkpt lat="49.12937435321509838104248046875" lon="10.77110105194151401519775390625">
        <ele>421</ele>
        <time>2018-08-17T06:21:44.000Z</time>
      </trkpt>
      <trkpt lat="49.1299066878855228424072265625" lon="10.7707618363201618194580078125">
        <ele>421</ele>
        <time>2018-08-17T06:21:53.000Z</time>
      </trkpt>
      <trkpt lat="49.13001724518835544586181640625" lon="10.7707093656063079833984375">
        <ele>421.20001220703125</ele>
        <time>2018-08-17T06:21:55.000Z</time>
      </trkpt>
      <trkpt lat="49.1301853023469448089599609375" lon="10.77099376358091831207275390625">
        <ele>421.20001220703125</ele>
        <time>2018-08-17T06:22:00.000Z</time>
      </trkpt>
      <trkpt lat="49.13035704754292964935302734375" lon="10.77186531387269496917724609375">
        <ele>421.20001220703125</ele>
        <time>2018-08-17T06:22:09.000Z</time>
      </trkpt>
      <trkpt lat="49.13054564036428928375244140625" lon="10.7726920209825038909912109375">
        <ele>421</ele>
        <time>2018-08-17T06:22:17.000Z</time>
      </trkpt>
      <trkpt lat="49.13076859898865222930908203125" lon="10.77352090738713741302490234375">
        <ele>420.600006103515625</ele>
        <time>2018-08-17T06:22:25.000Z</time>
      </trkpt>
      <trkpt lat="49.131034053862094879150390625" lon="10.77430930919945240020751953125">
        <ele>420.399993896484375</ele>
        <time>2018-08-17T06:22:33.000Z</time>
      </trkpt>
      <trkpt lat="49.131355583667755126953125" lon="10.77505446039140224456787109375">
        <ele>420.79998779296875</ele>
        <time>2018-08-17T06:22:41.000Z</time>
      </trkpt>
      <trkpt lat="49.1316766105592250823974609375" lon="10.7757567800581455230712890625">
        <ele>421.399993896484375</ele>
        <time>2018-08-17T06:22:49.000Z</time>
      </trkpt>
      <trkpt lat="49.1319791972637176513671875" lon="10.775871612131595611572265625">
        <ele>421.79998779296875</ele>
        <time>2018-08-17T06:22:54.000Z</time>
      </trkpt>
      <trkpt lat="49.13207869045436382293701171875" lon="10.775734819471836090087890625">
        <ele>422</ele>
        <time>2018-08-17T06:22:56.000Z</time>
      </trkpt>
      <trkpt lat="49.13218178786337375640869140625" lon="10.77561118640005588531494140625">
        <ele>422</ele>
        <time>2018-08-17T06:22:58.000Z</time>
      </trkpt>
      <trkpt lat="49.1324333287775516510009765625" lon="10.77582593075931072235107421875">
        <ele>422.20001220703125</ele>
        <time>2018-08-17T06:23:04.000Z</time>
      </trkpt>
      <trkpt lat="49.13244254887104034423828125" lon="10.77590924687683582305908203125">
        <ele>422.20001220703125</ele>
        <time>2018-08-17T06:23:05.000Z</time>
      </trkpt>
      <trkpt lat="49.13247607648372650146484375" lon="10.7761480472981929779052734375">
        <ele>422</ele>
        <time>2018-08-17T06:23:08.000Z</time>
      </trkpt>
      <trkpt lat="49.13253801874816417694091796875" lon="10.7766459323465824127197265625">
        <ele>421.600006103515625</ele>
        <time>2018-08-17T06:23:16.000Z</time>
      </trkpt>
      <trkpt lat="49.1326636634767055511474609375" lon="10.77714457176625728607177734375">
        <ele>423</ele>
        <time>2018-08-17T06:23:25.000Z</time>
      </trkpt>
      <trkpt lat="49.13277103565633296966552734375" lon="10.777314640581607818603515625">
        <ele>424</ele>
        <time>2018-08-17T06:23:29.000Z</time>
      </trkpt>
      <trkpt lat="49.13317571394145488739013671875" lon="10.7779216580092906951904296875">
        <ele>425</ele>
        <time>2018-08-17T06:23:44.000Z</time>
      </trkpt>
      <trkpt lat="49.1332386620342731475830078125" lon="10.77800740487873554229736328125">
        <ele>425.399993896484375</ele>
        <time>2018-08-17T06:23:46.000Z</time>
      </trkpt>
      <trkpt lat="49.13338358514010906219482421875" lon="10.77816917560994625091552734375">
        <ele>426</ele>
        <time>2018-08-17T06:23:50.000Z</time>
      </trkpt>
      <trkpt lat="49.1334555856883525848388671875" lon="10.77826104126870632171630859375">
        <ele>426.20001220703125</ele>
        <time>2018-08-17T06:23:52.000Z</time>
      </trkpt>
      <trkpt lat="49.13349422626197338104248046875" lon="10.778303705155849456787109375">
        <ele>426.399993896484375</ele>
        <time>2018-08-17T06:23:53.000Z</time>
      </trkpt>
      <trkpt lat="49.133804775774478912353515625" lon="10.7786522246897220611572265625">
        <ele>427</ele>
        <time>2018-08-17T06:24:01.000Z</time>
      </trkpt>
      <trkpt lat="49.13387929089367389678955078125" lon="10.7787372171878814697265625">
        <ele>427.20001220703125</ele>
        <time>2018-08-17T06:24:03.000Z</time>
      </trkpt>
      <trkpt lat="49.1340372897684574127197265625" lon="10.77890879474580287933349609375">
        <ele>427.399993896484375</ele>
        <time>2018-08-17T06:24:07.000Z</time>
      </trkpt>
      <trkpt lat="49.134202413260936737060546875" lon="10.779089592397212982177734375">
        <ele>428.20001220703125</ele>
        <time>2018-08-17T06:24:11.000Z</time>
      </trkpt>
      <trkpt lat="49.1342429816722869873046875" lon="10.7791403867304325103759765625">
        <ele>428.20001220703125</ele>
        <time>2018-08-17T06:24:12.000Z</time>
      </trkpt>
      <trkpt lat="49.13428799249231815338134765625" lon="10.7791886664927005767822265625">
        <ele>428.20001220703125</ele>
        <time>2018-08-17T06:24:13.000Z</time>
      </trkpt>
      <trkpt lat="49.13475872017443180084228515625" lon="10.779702477157115936279296875">
        <ele>428.20001220703125</ele>
        <time>2018-08-17T06:24:23.000Z</time>
      </trkpt>
      <trkpt lat="49.13523028604686260223388671875" lon="10.7802169583737850189208984375">
        <ele>428.399993896484375</ele>
        <time>2018-08-17T06:24:33.000Z</time>
      </trkpt>
      <trkpt lat="49.135446958243846893310546875" lon="10.78042826615273952484130859375">
        <ele>428.600006103515625</ele>
        <time>2018-08-17T06:24:38.000Z</time>
      </trkpt>
      <trkpt lat="49.1356560029089450836181640625" lon="10.78063915483653545379638671875">
        <ele>429</ele>
        <time>2018-08-17T06:24:43.000Z</time>
      </trkpt>
      <trkpt lat="49.1359225474298000335693359375" lon="10.7809031009674072265625">
        <ele>429.79998779296875</ele>
        <time>2018-08-17T06:24:49.000Z</time>
      </trkpt>
      <trkpt lat="49.13639210164546966552734375" lon="10.7813418097794055938720703125">
        <ele>430.79998779296875</ele>
        <time>2018-08-17T06:24:59.000Z</time>
      </trkpt>
      <trkpt lat="49.1366135515272617340087890625" lon="10.78137391246855258941650390625">
        <ele>431</ele>
        <time>2018-08-17T06:25:03.000Z</time>
      </trkpt>
      <trkpt lat="49.137072376906871795654296875" lon="10.78129579313099384307861328125">
        <ele>431.399993896484375</ele>
        <time>2018-08-17T06:25:12.000Z</time>
      </trkpt>
      <trkpt lat="49.1371647454798221588134765625" lon="10.781281627714633941650390625">
        <ele>431.600006103515625</ele>
        <time>2018-08-17T06:25:14.000Z</time>
      </trkpt>
      <trkpt lat="49.1372616402804851531982421875" lon="10.7812603376805782318115234375">
        <ele>431.79998779296875</ele>
        <time>2018-08-17T06:25:16.000Z</time>
      </trkpt>
      <trkpt lat="49.13750446401536464691162109375" lon="10.78121465630829334259033203125">
        <ele>432.79998779296875</ele>
        <time>2018-08-17T06:25:22.000Z</time>
      </trkpt>
      <trkpt lat="49.1375992633402347564697265625" lon="10.78119588084518909454345703125">
        <ele>433.20001220703125</ele>
        <time>2018-08-17T06:25:24.000Z</time>
      </trkpt>
      <trkpt lat="49.1377789713442325592041015625" lon="10.78115397132933139801025390625">
        <ele>433.600006103515625</ele>
        <time>2018-08-17T06:25:28.000Z</time>
      </trkpt>
      <trkpt lat="49.13806923665106296539306640625" lon="10.7810880057513713836669921875">
        <ele>434.79998779296875</ele>
        <time>2018-08-17T06:25:34.000Z</time>
      </trkpt>
      <trkpt lat="49.1383266448974609375" lon="10.78104031272232532501220703125">
        <ele>435.399993896484375</ele>
        <time>2018-08-17T06:25:39.000Z</time>
      </trkpt>
      <trkpt lat="49.13865144364535808563232421875" lon="10.7809498719871044158935546875">
        <ele>435.79998779296875</ele>
        <time>2018-08-17T06:25:44.000Z</time>
      </trkpt>
      <trkpt lat="49.1390493325889110565185546875" lon="10.7808429189026355743408203125">
        <ele>435.79998779296875</ele>
        <time>2018-08-17T06:25:50.000Z</time>
      </trkpt>
      <trkpt lat="49.139627851545810699462890625" lon="10.7807513885200023651123046875">
        <ele>435.79998779296875</ele>
        <time>2018-08-17T06:25:58.000Z</time>
      </trkpt>
      <trkpt lat="49.140207208693027496337890625" lon="10.7806722633540630340576171875">
        <ele>435.79998779296875</ele>
        <time>2018-08-17T06:26:07.000Z</time>
      </trkpt>
      <trkpt lat="49.14057240821421146392822265625" lon="10.78062574379146099090576171875">
        <ele>436.79998779296875</ele>
        <time>2018-08-17T06:26:13.000Z</time>
      </trkpt>
      <trkpt lat="49.14113064296543598175048828125" lon="10.78058056533336639404296875">
        <ele>438</ele>
        <time>2018-08-17T06:26:22.000Z</time>
      </trkpt>
      <trkpt lat="49.14168653078377246856689453125" lon="10.7806736044585704803466796875">
        <ele>438.600006103515625</ele>
        <time>2018-08-17T06:26:31.000Z</time>
      </trkpt>
      <trkpt lat="49.1421446017920970916748046875" lon="10.78097350895404815673828125">
        <ele>439</ele>
        <time>2018-08-17T06:26:39.000Z</time>
      </trkpt>
      <trkpt lat="49.14230293594300746917724609375" lon="10.78112178482115268707275390625">
        <ele>439.399993896484375</ele>
        <time>2018-08-17T06:26:42.000Z</time>
      </trkpt>
      <trkpt lat="49.14271675050258636474609375" lon="10.781694352626800537109375">
        <ele>439.600006103515625</ele>
        <time>2018-08-17T06:26:51.000Z</time>
      </trkpt>
      <trkpt lat="49.1427973844110965728759765625" lon="10.781834833323955535888671875">
        <ele>440</ele>
        <time>2018-08-17T06:26:53.000Z</time>
      </trkpt>
      <trkpt lat="49.14313073270022869110107421875" lon="10.78249088488519191741943359375">
        <ele>440.79998779296875</ele>
        <time>2018-08-17T06:27:02.000Z</time>
      </trkpt>
      <trkpt lat="49.14320047013461589813232421875" lon="10.78263538889586925506591796875">
        <ele>441</ele>
        <time>2018-08-17T06:27:04.000Z</time>
      </trkpt>
      <trkpt lat="49.14340884424746036529541015625" lon="10.78304995782673358917236328125">
        <ele>442</ele>
        <time>2018-08-17T06:27:10.000Z</time>
      </trkpt>
      <trkpt lat="49.14376775734126567840576171875" lon="10.78374020755290985107421875">
        <ele>443</ele>
        <time>2018-08-17T06:27:20.000Z</time>
      </trkpt>
      <trkpt lat="49.14391041733324527740478515625" lon="10.78402779065072536468505859375">
        <ele>443</ele>
        <time>2018-08-17T06:27:24.000Z</time>
      </trkpt>
      <trkpt lat="49.1442648880183696746826171875" lon="10.78467017970979213714599609375">
        <ele>443.79998779296875</ele>
        <time>2018-08-17T06:27:33.000Z</time>
      </trkpt>
      <trkpt lat="49.1447124816477298736572265625" lon="10.78525573946535587310791015625">
        <ele>444</ele>
        <time>2018-08-17T06:27:42.000Z</time>
      </trkpt>
      <trkpt lat="49.1451302357017993927001953125" lon="10.78582805581390857696533203125">
        <ele>443.79998779296875</ele>
        <time>2018-08-17T06:27:51.000Z</time>
      </trkpt>
      <trkpt lat="49.14554287679493427276611328125" lon="10.78638620674610137939453125">
        <ele>444.20001220703125</ele>
        <time>2018-08-17T06:28:00.000Z</time>
      </trkpt>
      <trkpt lat="49.14559207856655120849609375" lon="10.786447562277317047119140625">
        <ele>444.399993896484375</ele>
        <time>2018-08-17T06:28:01.000Z</time>
      </trkpt>
      <trkpt lat="49.14569257758557796478271484375" lon="10.78656381927430629730224609375">
        <ele>444.20001220703125</ele>
        <time>2018-08-17T06:28:03.000Z</time>
      </trkpt>
      <trkpt lat="49.14621057920157909393310546875" lon="10.78686607070267200469970703125">
        <ele>445</ele>
        <time>2018-08-17T06:28:12.000Z</time>
      </trkpt>
      <trkpt lat="49.14639766328036785125732421875" lon="10.78689440153539180755615234375">
        <ele>445.20001220703125</ele>
        <time>2018-08-17T06:28:15.000Z</time>
      </trkpt>
      <trkpt lat="49.14694391191005706787109375" lon="10.78688300214707851409912109375">
        <ele>445.79998779296875</ele>
        <time>2018-08-17T06:28:24.000Z</time>
      </trkpt>
      <trkpt lat="49.14723702706396579742431640625" lon="10.7868322916328907012939453125">
        <ele>446</ele>
        <time>2018-08-17T06:28:29.000Z</time>
      </trkpt>
      <trkpt lat="49.14741103537380695343017578125" lon="10.786859951913356781005859375">
        <ele>446.20001220703125</ele>
        <time>2018-08-17T06:28:32.000Z</time>
      </trkpt>
      <trkpt lat="49.14797446690499782562255859375" lon="10.786942429840564727783203125">
        <ele>447</ele>
        <time>2018-08-17T06:28:42.000Z</time>
      </trkpt>
      <trkpt lat="49.1480307094752788543701171875" lon="10.78694988973438739776611328125">
        <ele>447.20001220703125</ele>
        <time>2018-08-17T06:28:43.000Z</time>
      </trkpt>
      <trkpt lat="49.1484122537076473236083984375" lon="10.786990709602832794189453125">
        <ele>448.399993896484375</ele>
        <time>2018-08-17T06:28:50.000Z</time>
      </trkpt>
      <trkpt lat="49.148785583674907684326171875" lon="10.78705080784857273101806640625">
        <ele>449.399993896484375</ele>
        <time>2018-08-17T06:28:57.000Z</time>
      </trkpt>
      <trkpt lat="49.14910417981445789337158203125" lon="10.787082575261592864990234375">
        <ele>450.600006103515625</ele>
        <time>2018-08-17T06:29:03.000Z</time>
      </trkpt>
      <trkpt lat="49.149363934993743896484375" lon="10.78710637986660003662109375">
        <ele>451.600006103515625</ele>
        <time>2018-08-17T06:29:08.000Z</time>
      </trkpt>
      <trkpt lat="49.1496202535927295684814453125" lon="10.78713378868997097015380859375">
        <ele>452.600006103515625</ele>
        <time>2018-08-17T06:29:13.000Z</time>
      </trkpt>
      <trkpt lat="49.14986643008887767791748046875" lon="10.78716899268329143524169921875">
        <ele>453.79998779296875</ele>
        <time>2018-08-17T06:29:18.000Z</time>
      </trkpt>
      <trkpt lat="49.15006374008953571319580078125" lon="10.787190534174442291259765625">
        <ele>455</ele>
        <time>2018-08-17T06:29:22.000Z</time>
      </trkpt>
      <trkpt lat="49.150158874690532684326171875" lon="10.78721693716943264007568359375">
        <ele>455.20001220703125</ele>
        <time>2018-08-17T06:29:24.000Z</time>
      </trkpt>
      <trkpt lat="49.15033313445746898651123046875" lon="10.78735649585723876953125">
        <ele>456.20001220703125</ele>
        <time>2018-08-17T06:29:28.000Z</time>
      </trkpt>
      <trkpt lat="49.15053346194326877593994140625" lon="10.78750359825789928436279296875">
        <ele>457.20001220703125</ele>
        <time>2018-08-17T06:29:33.000Z</time>
      </trkpt>
      <trkpt lat="49.15066220797598361968994140625" lon="10.78774734400212764739990234375">
        <ele>458</ele>
        <time>2018-08-17T06:29:39.000Z</time>
      </trkpt>
      <trkpt lat="49.1506663151085376739501953125" lon="10.78780551441013813018798828125">
        <ele>458.399993896484375</ele>
        <time>2018-08-17T06:29:40.000Z</time>
      </trkpt>
      <trkpt lat="49.15064225904643535614013671875" lon="10.7880701310932636260986328125">
        <ele>459.399993896484375</ele>
        <time>2018-08-17T06:29:45.000Z</time>
      </trkpt>
      <trkpt lat="49.1507829912006855010986328125" lon="10.7885991968214511871337890625">
        <ele>459.79998779296875</ele>
        <time>2018-08-17T06:29:53.000Z</time>
      </trkpt>
      <trkpt lat="49.15113729424774646759033203125" lon="10.78931727446615695953369140625">
        <ele>459.600006103515625</ele>
        <time>2018-08-17T06:30:01.000Z</time>
      </trkpt>
      <trkpt lat="49.1513412259519100189208984375" lon="10.78998682089149951934814453125">
        <ele>458.20001220703125</ele>
        <time>2018-08-17T06:30:07.000Z</time>
      </trkpt>
      <trkpt lat="49.15151246823370456695556640625" lon="10.79066894017159938812255859375">
        <ele>457.20001220703125</ele>
        <time>2018-08-17T06:30:13.000Z</time>
      </trkpt>
      <trkpt lat="49.15171111933887004852294921875" lon="10.791451223194599151611328125">
        <ele>456.600006103515625</ele>
        <time>2018-08-17T06:30:20.000Z</time>
      </trkpt>
      <trkpt lat="49.151895605027675628662109375" lon="10.79196847043931484222412109375">
        <ele>456.20001220703125</ele>
        <time>2018-08-17T06:30:25.000Z</time>
      </trkpt>
      <trkpt lat="49.152192659676074981689453125" lon="10.7923026569187641143798828125">
        <ele>456.20001220703125</ele>
        <time>2018-08-17T06:30:30.000Z</time>
      </trkpt>
      <trkpt lat="49.15276271291077136993408203125" lon="10.79265612177550792694091796875">
        <ele>456.20001220703125</ele>
        <time>2018-08-17T06:30:38.000Z</time>
      </trkpt>
      <trkpt lat="49.15329412557184696197509765625" lon="10.79296440817415714263916015625">
        <ele>456.20001220703125</ele>
        <time>2018-08-17T06:30:45.000Z</time>
      </trkpt>
      <trkpt lat="49.153452627360820770263671875" lon="10.793056190013885498046875">
        <ele>456.20001220703125</ele>
        <time>2018-08-17T06:30:47.000Z</time>
      </trkpt>
      <trkpt lat="49.153757058084011077880859375" lon="10.79328342340886592864990234375">
        <ele>455.600006103515625</ele>
        <time>2018-08-17T06:30:51.000Z</time>
      </trkpt>
      <trkpt lat="49.1539543680846691131591796875" lon="10.79367519356310367584228515625">
        <ele>455</ele>
        <time>2018-08-17T06:30:55.000Z</time>
      </trkpt>
      <trkpt lat="49.1540489159524440765380859375" lon="10.79386546276509761810302734375">
        <ele>454.600006103515625</ele>
        <time>2018-08-17T06:30:57.000Z</time>
      </trkpt>
      <trkpt lat="49.154155366122722625732421875" lon="10.7940259762108325958251953125">
        <ele>454.600006103515625</ele>
        <time>2018-08-17T06:30:59.000Z</time>
      </trkpt>
      <trkpt lat="49.15446490980684757232666015625" lon="10.7943718135356903076171875">
        <ele>454.399993896484375</ele>
        <time>2018-08-17T06:31:05.000Z</time>
      </trkpt>
      <trkpt lat="49.1545514948666095733642578125" lon="10.79449863173067569732666015625">
        <ele>455</ele>
        <time>2018-08-17T06:31:07.000Z</time>
      </trkpt>
      <trkpt lat="49.1547043807804584503173828125" lon="10.7947759889066219329833984375">
        <ele>456.20001220703125</ele>
        <time>2018-08-17T06:31:11.000Z</time>
      </trkpt>
      <trkpt lat="49.15489875711500644683837890625" lon="10.79518779180943965911865234375">
        <ele>457.20001220703125</ele>
        <time>2018-08-17T06:31:17.000Z</time>
      </trkpt>
      <trkpt lat="49.15503102354705333709716796875" lon="10.79544645734131336212158203125">
        <ele>458.20001220703125</ele>
        <time>2018-08-17T06:31:21.000Z</time>
      </trkpt>
      <trkpt lat="49.15518927387893199920654296875" lon="10.79577259719371795654296875">
        <ele>459.399993896484375</ele>
        <time>2018-08-17T06:31:26.000Z</time>
      </trkpt>
      <trkpt lat="49.15536470711231231689453125" lon="10.79606856219470500946044921875">
        <ele>460.600006103515625</ele>
        <time>2018-08-17T06:31:31.000Z</time>
      </trkpt>
      <trkpt lat="49.155522622168064117431640625" lon="10.79630426131188869476318359375">
        <ele>462</ele>
        <time>2018-08-17T06:31:35.000Z</time>
      </trkpt>
      <trkpt lat="49.15568900294601917266845703125" lon="10.7965224422514438629150390625">
        <ele>463.20001220703125</ele>
        <time>2018-08-17T06:31:39.000Z</time>
      </trkpt>
      <trkpt lat="49.15587566792964935302734375" lon="10.79678286798298358917236328125">
        <ele>464</ele>
        <time>2018-08-17T06:31:44.000Z</time>
      </trkpt>
      <trkpt lat="49.15594766847789287567138671875" lon="10.796843804419040679931640625">
        <ele>464.399993896484375</ele>
        <time>2018-08-17T06:31:46.000Z</time>
      </trkpt>
      <trkpt lat="49.15614112280309200286865234375" lon="10.79682930372655391693115234375">
        <ele>465</ele>
        <time>2018-08-17T06:31:52.000Z</time>
      </trkpt>
      <trkpt lat="49.15671385824680328369140625" lon="10.796934999525547027587890625">
        <ele>465.20001220703125</ele>
        <time>2018-08-17T06:32:01.000Z</time>
      </trkpt>
      <trkpt lat="49.157220460474491119384765625" lon="10.79701269976794719696044921875">
        <ele>463.20001220703125</ele>
        <time>2018-08-17T06:32:07.000Z</time>
      </trkpt>
      <trkpt lat="49.1575770266354084014892578125" lon="10.79706542193889617919921875">
        <ele>461.79998779296875</ele>
        <time>2018-08-17T06:32:11.000Z</time>
      </trkpt>
      <trkpt lat="49.157933257520198822021484375" lon="10.79709618352353572845458984375">
        <ele>460.600006103515625</ele>
        <time>2018-08-17T06:32:15.000Z</time>
      </trkpt>
      <trkpt lat="49.15819603018462657928466796875" lon="10.7971463911235332489013671875">
        <ele>459.399993896484375</ele>
        <time>2018-08-17T06:32:18.000Z</time>
      </trkpt>
      <trkpt lat="49.1584125347435474395751953125" lon="10.7972042262554168701171875">
        <ele>458.600006103515625</ele>
        <time>2018-08-17T06:32:21.000Z</time>
      </trkpt>
      <trkpt lat="49.1584909893572330474853515625" lon="10.797238759696483612060546875">
        <ele>458.399993896484375</ele>
        <time>2018-08-17T06:32:23.000Z</time>
      </trkpt>
      <trkpt lat="49.15856852196156978607177734375" lon="10.79726298339664936065673828125">
        <ele>457.20001220703125</ele>
        <time>2018-08-17T06:32:27.000Z</time>
      </trkpt>
      <trkpt lat="49.158557541668415069580078125" lon="10.7972426153719425201416015625">
        <ele>456.399993896484375</ele>
        <time>2018-08-17T06:32:30.000Z</time>
      </trkpt>
      <trkpt lat="49.1585161350667476654052734375" lon="10.7972355745732784271240234375">
        <ele>456.20001220703125</ele>
        <time>2018-08-17T06:32:32.000Z</time>
      </trkpt>
      <trkpt lat="49.1579729877412319183349609375" lon="10.79708755016326904296875">
        <ele>456</ele>
        <time>2018-08-17T06:32:45.000Z</time>
      </trkpt>
      <trkpt lat="49.15748842991888523101806640625" lon="10.79704002477228641510009765625">
        <ele>456.399993896484375</ele>
        <time>2018-08-17T06:32:55.000Z</time>
      </trkpt>
      <trkpt lat="49.1572397388517856597900390625" lon="10.79700373113155364990234375">
        <ele>457.20001220703125</ele>
        <time>2018-08-17T06:33:00.000Z</time>
      </trkpt>
      <trkpt lat="49.15681452490389347076416015625" lon="10.7969355024397373199462890625">
        <ele>458.399993896484375</ele>
        <time>2018-08-17T06:33:09.000Z</time>
      </trkpt>
      <trkpt lat="49.1565540991723537445068359375" lon="10.7968796789646148681640625">
        <ele>459.399993896484375</ele>
        <time>2018-08-17T06:33:15.000Z</time>
      </trkpt>
      <trkpt lat="49.15634999983012676239013671875" lon="10.7968449778854846954345703125">
        <ele>460.399993896484375</ele>
        <time>2018-08-17T06:33:20.000Z</time>
      </trkpt>
      <trkpt lat="49.15612871758639812469482421875" lon="10.79679527319967746734619140625">
        <ele>461.79998779296875</ele>
        <time>2018-08-17T06:33:26.000Z</time>
      </trkpt>
      <trkpt lat="49.156089909374713897705078125" lon="10.7967943511903285980224609375">
        <ele>462.20001220703125</ele>
        <time>2018-08-17T06:33:27.000Z</time>
      </trkpt>
      <trkpt lat="49.15599477477371692657470703125" lon="10.7968543656170368194580078125">
        <ele>463</ele>
        <time>2018-08-17T06:33:30.000Z</time>
      </trkpt>
      <trkpt lat="49.15604238398373126983642578125" lon="10.79712308943271636962890625">
        <ele>464</ele>
        <time>2018-08-17T06:33:35.000Z</time>
      </trkpt>
      <trkpt lat="49.15612083859741687774658203125" lon="10.79738552682101726531982421875">
        <ele>465.20001220703125</ele>
        <time>2018-08-17T06:33:40.000Z</time>
      </trkpt>
      <trkpt lat="49.15632284246385097503662109375" lon="10.79743498004972934722900390625">
        <ele>465.600006103515625</ele>
        <time>2018-08-17T06:33:44.000Z</time>
      </trkpt>
      <trkpt lat="49.15693036280572414398193359375" lon="10.79736557789146900177001953125">
        <ele>465.79998779296875</ele>
        <time>2018-08-17T06:33:53.000Z</time>
      </trkpt>
      <trkpt lat="49.15750402025878429412841796875" lon="10.79733230173587799072265625">
        <ele>465</ele>
        <time>2018-08-17T06:34:00.000Z</time>
      </trkpt>
      <trkpt lat="49.1579491831362247467041015625" lon="10.79735987819731235504150390625">
        <ele>464</ele>
        <time>2018-08-17T06:34:05.000Z</time>
      </trkpt>
      <trkpt lat="49.15840691886842250823974609375" lon="10.79746750183403491973876953125">
        <ele>462.79998779296875</ele>
        <time>2018-08-17T06:34:10.000Z</time>
      </trkpt>
      <trkpt lat="49.15885970927774906158447265625" lon="10.79765743575990200042724609375">
        <ele>461.600006103515625</ele>
        <time>2018-08-17T06:34:15.000Z</time>
      </trkpt>
      <trkpt lat="49.15929070673882961273193359375" lon="10.79792230390012264251708984375">
        <ele>460.20001220703125</ele>
        <time>2018-08-17T06:34:20.000Z</time>
      </trkpt>
      <trkpt lat="49.15945365093648433685302734375" lon="10.79805104993283748626708984375">
        <ele>459.600006103515625</ele>
        <time>2018-08-17T06:34:22.000Z</time>
      </trkpt>
      <trkpt lat="49.15961106307804584503173828125" lon="10.79818683676421642303466796875">
        <ele>459</ele>
        <time>2018-08-17T06:34:24.000Z</time>
      </trkpt>
      <trkpt lat="49.15989923290908336639404296875" lon="10.79848187975585460662841796875">
        <ele>458</ele>
        <time>2018-08-17T06:34:28.000Z</time>
      </trkpt>
      <trkpt lat="49.160223864018917083740234375" lon="10.79887314699590206146240234375">
        <ele>456.79998779296875</ele>
        <time>2018-08-17T06:34:33.000Z</time>
      </trkpt>
      <trkpt lat="49.160507507622241973876953125" lon="10.7992438785731792449951171875">
        <ele>456.600006103515625</ele>
        <time>2018-08-17T06:34:38.000Z</time>
      </trkpt>
      <trkpt lat="49.1605868004262447357177734375" lon="10.79950220882892608642578125">
        <ele>456.600006103515625</ele>
        <time>2018-08-17T06:34:41.000Z</time>
      </trkpt>
      <trkpt lat="49.161016456782817840576171875" lon="10.80006957985460758209228515625">
        <ele>456.79998779296875</ele>
        <time>2018-08-17T06:34:50.000Z</time>
      </trkpt>
      <trkpt lat="49.16129331104457378387451171875" lon="10.8004282414913177490234375">
        <ele>457.79998779296875</ele>
        <time>2018-08-17T06:34:57.000Z</time>
      </trkpt>
      <trkpt lat="49.16146405041217803955078125" lon="10.80066318623721599578857421875">
        <ele>459</ele>
        <time>2018-08-17T06:35:02.000Z</time>
      </trkpt>
      <trkpt lat="49.1616660542786121368408203125" lon="10.80092788673937320709228515625">
        <ele>460.20001220703125</ele>
        <time>2018-08-17T06:35:08.000Z</time>
      </trkpt>
      <trkpt lat="49.16176688857376575469970703125" lon="10.80105596221983432769775390625">
        <ele>461.399993896484375</ele>
        <time>2018-08-17T06:35:11.000Z</time>
      </trkpt>
      <trkpt lat="49.1619118116796016693115234375" lon="10.8012355864048004150390625">
        <ele>462.600006103515625</ele>
        <time>2018-08-17T06:35:15.000Z</time>
      </trkpt>
      <trkpt lat="49.16205438785254955291748046875" lon="10.8014208264648914337158203125">
        <ele>463.79998779296875</ele>
        <time>2018-08-17T06:35:19.000Z</time>
      </trkpt>
      <trkpt lat="49.162267036736011505126953125" lon="10.80169784836471080780029296875">
        <ele>464.79998779296875</ele>
        <time>2018-08-17T06:35:25.000Z</time>
      </trkpt>
      <trkpt lat="49.16248538531363010406494140625" lon="10.8019733615219593048095703125">
        <ele>466</ele>
        <time>2018-08-17T06:35:31.000Z</time>
      </trkpt>
      <trkpt lat="49.162763245403766632080078125" lon="10.80226681195199489593505859375">
        <ele>467</ele>
        <time>2018-08-17T06:35:38.000Z</time>
      </trkpt>
      <trkpt lat="49.16293633170425891876220703125" lon="10.80240109004080295562744140625">
        <ele>468</ele>
        <time>2018-08-17T06:35:42.000Z</time>
      </trkpt>
      <trkpt lat="49.163140766322612762451171875" lon="10.8025554008781909942626953125">
        <ele>469</ele>
        <time>2018-08-17T06:35:47.000Z</time>
      </trkpt>
      <trkpt lat="49.16331334970891475677490234375" lon="10.80266746692359447479248046875">
        <ele>470.20001220703125</ele>
        <time>2018-08-17T06:35:51.000Z</time>
      </trkpt>
      <trkpt lat="49.163509905338287353515625" lon="10.8027884177863597869873046875">
        <ele>471</ele>
        <time>2018-08-17T06:35:56.000Z</time>
      </trkpt>
      <trkpt lat="49.16353597305715084075927734375" lon="10.80282471142709255218505859375">
        <ele>471.20001220703125</ele>
        <time>2018-08-17T06:35:57.000Z</time>
      </trkpt>
      <trkpt lat="49.16358609683811664581298828125" lon="10.803095363080501556396484375">
        <ele>472</ele>
        <time>2018-08-17T06:36:01.000Z</time>
      </trkpt>
      <trkpt lat="49.1636069677770137786865234375" lon="10.803168453276157379150390625">
        <ele>472.399993896484375</ele>
        <time>2018-08-17T06:36:02.000Z</time>
      </trkpt>
      <trkpt lat="49.1637933813035488128662109375" lon="10.8033657632768154144287109375">
        <ele>473</ele>
        <time>2018-08-17T06:36:07.000Z</time>
      </trkpt>
      <trkpt lat="49.1639097221195697784423828125" lon="10.80340524204075336456298828125">
        <ele>473.20001220703125</ele>
        <time>2018-08-17T06:36:10.000Z</time>
      </trkpt>
      <trkpt lat="49.16403762996196746826171875" lon="10.80303333699703216552734375">
        <ele>473.399993896484375</ele>
        <time>2018-08-17T06:36:17.000Z</time>
      </trkpt>
      <trkpt lat="49.16404307819902896881103515625" lon="10.80257342197000980377197265625">
        <ele>474.600006103515625</ele>
        <time>2018-08-17T06:36:24.000Z</time>
      </trkpt>
      <trkpt lat="49.164061434566974639892578125" lon="10.80228365957736968994140625">
        <ele>475.79998779296875</ele>
        <time>2018-08-17T06:36:29.000Z</time>
      </trkpt>
      <trkpt lat="49.16425899602472782135009765625" lon="10.80228256992995738983154296875">
        <ele>476.399993896484375</ele>
        <time>2018-08-17T06:36:34.000Z</time>
      </trkpt>
      <trkpt lat="49.16440919972956180572509765625" lon="10.8022977411746978759765625">
        <ele>476.600006103515625</ele>
        <time>2018-08-17T06:36:37.000Z</time>
      </trkpt>
      <trkpt lat="49.1646285541355609893798828125" lon="10.80232481472194194793701171875">
        <ele>477</ele>
        <time>2018-08-17T06:36:41.000Z</time>
      </trkpt>
      <trkpt lat="49.16480046696960926055908203125" lon="10.80236320383846759796142578125">
        <ele>477.20001220703125</ele>
        <time>2018-08-17T06:36:44.000Z</time>
      </trkpt>
      <trkpt lat="49.16512752883136272430419921875" lon="10.80242355354130268096923828125">
        <ele>477.20001220703125</ele>
        <time>2018-08-17T06:36:49.000Z</time>
      </trkpt>
      <trkpt lat="49.165518544614315032958984375" lon="10.8024142496287822723388671875">
        <ele>476.600006103515625</ele>
        <time>2018-08-17T06:36:55.000Z</time>
      </trkpt>
      <trkpt lat="49.16569096036255359649658203125" lon="10.8024471066892147064208984375">
        <ele>475.79998779296875</ele>
        <time>2018-08-17T06:36:58.000Z</time>
      </trkpt>
      <trkpt lat="49.16574393399059772491455078125" lon="10.80246093682944774627685546875">
        <ele>475.399993896484375</ele>
        <time>2018-08-17T06:36:59.000Z</time>
      </trkpt>
      <trkpt lat="49.1658903658390045166015625" lon="10.8025580830872058868408203125">
        <ele>474.399993896484375</ele>
        <time>2018-08-17T06:37:02.000Z</time>
      </trkpt>
      <trkpt lat="49.16594208218157291412353515625" lon="10.80259739421308040618896484375">
        <ele>474.399993896484375</ele>
        <time>2018-08-17T06:37:03.000Z</time>
      </trkpt>
      <trkpt lat="49.166143834590911865234375" lon="10.8027475140988826751708984375">
        <ele>474.20001220703125</ele>
        <time>2018-08-17T06:37:07.000Z</time>
      </trkpt>
      <trkpt lat="49.1666507720947265625" lon="10.803028643131256103515625">
        <ele>474.399993896484375</ele>
        <time>2018-08-17T06:37:15.000Z</time>
      </trkpt>
      <trkpt lat="49.166803658008575439453125" lon="10.803089998662471771240234375">
        <ele>474.399993896484375</ele>
        <time>2018-08-17T06:37:17.000Z</time>
      </trkpt>
      <trkpt lat="49.16715863160789012908935546875" lon="10.80313668586313724517822265625">
        <ele>474.399993896484375</ele>
        <time>2018-08-17T06:37:21.000Z</time>
      </trkpt>
      <trkpt lat="49.1676016151905059814453125" lon="10.8030559681355953216552734375">
        <ele>472.20001220703125</ele>
        <time>2018-08-17T06:37:28.000Z</time>
      </trkpt>
      <trkpt lat="49.1676550917327404022216796875" lon="10.80305211246013641357421875">
        <ele>470.399993896484375</ele>
        <time>2018-08-17T06:37:30.000Z</time>
      </trkpt>
      <trkpt lat="49.16767579503357410430908203125" lon="10.80304062925279140472412109375">
        <ele>469.399993896484375</ele>
        <time>2018-08-17T06:37:31.000Z</time>
      </trkpt>
      <trkpt lat="49.1676829196512699127197265625" lon="10.80301590263843536376953125">
        <ele>468.20001220703125</ele>
        <time>2018-08-17T06:37:32.000Z</time>
      </trkpt>
      <trkpt lat="49.16767646558582782745361328125" lon="10.80299436114728450775146484375">
        <ele>467</ele>
        <time>2018-08-17T06:37:33.000Z</time>
      </trkpt>
      <trkpt lat="49.1676661558449268341064453125" lon="10.80299302004277706146240234375">
        <ele>466</ele>
        <time>2018-08-17T06:37:34.000Z</time>
      </trkpt>
      <trkpt lat="49.16764746420085430145263671875" lon="10.8030053414404392242431640625">
        <ele>464.20001220703125</ele>
        <time>2018-08-17T06:37:36.000Z</time>
      </trkpt>
      <trkpt lat="49.1676202230155467987060546875" lon="10.80304247327148914337158203125">
        <ele>463</ele>
        <time>2018-08-17T06:37:38.000Z</time>
      </trkpt>
      <trkpt lat="49.16723993606865406036376953125" lon="10.80315277911722660064697265625">
        <ele>464.20001220703125</ele>
        <time>2018-08-17T06:37:52.000Z</time>
      </trkpt>
      <trkpt lat="49.167152345180511474609375" lon="10.8031491748988628387451171875">
        <ele>466.20001220703125</ele>
        <time>2018-08-17T06:37:55.000Z</time>
      </trkpt>
      <trkpt lat="49.1670633293688297271728515625" lon="10.80313903279602527618408203125">
        <ele>467.399993896484375</ele>
        <time>2018-08-17T06:37:58.000Z</time>
      </trkpt>
      <trkpt lat="49.16697389446198940277099609375" lon="10.8031169883906841278076171875">
        <ele>468.600006103515625</ele>
        <time>2018-08-17T06:38:01.000Z</time>
      </trkpt>
      <trkpt lat="49.166856296360492706298828125" lon="10.80309008248150348663330078125">
        <ele>470</ele>
        <time>2018-08-17T06:38:05.000Z</time>
      </trkpt>
      <trkpt lat="49.16676652617752552032470703125" lon="10.803059823811054229736328125">
        <ele>471</ele>
        <time>2018-08-17T06:38:08.000Z</time>
      </trkpt>
      <trkpt lat="49.1666894964873790740966796875" lon="10.80304582603275775909423828125">
        <ele>471.600006103515625</ele>
        <time>2018-08-17T06:38:10.000Z</time>
      </trkpt>
      <trkpt lat="49.16663878597319126129150390625" lon="10.80308807082474231719970703125">
        <ele>472</ele>
        <time>2018-08-17T06:38:12.000Z</time>
      </trkpt>
      <trkpt lat="49.1666918434202671051025390625" lon="10.80347430892288684844970703125">
        <ele>472.79998779296875</ele>
        <time>2018-08-17T06:38:19.000Z</time>
      </trkpt>
      <trkpt lat="49.1667084395885467529296875" lon="10.80352359451353549957275390625">
        <ele>473</ele>
        <time>2018-08-17T06:38:20.000Z</time>
      </trkpt>
      <trkpt lat="49.1668846271932125091552734375" lon="10.8041402511298656463623046875">
        <ele>472</ele>
        <time>2018-08-17T06:38:32.000Z</time>
      </trkpt>
      <trkpt lat="49.16690030135214328765869140625" lon="10.80420336686074733734130859375">
        <ele>471.79998779296875</ele>
        <time>2018-08-17T06:38:33.000Z</time>
      </trkpt>
      <trkpt lat="49.16697490029036998748779296875" lon="10.804445855319499969482421875">
        <ele>470.399993896484375</ele>
        <time>2018-08-17T06:38:37.000Z</time>
      </trkpt>
      <trkpt lat="49.16705972515046596527099609375" lon="10.80471214838325977325439453125">
        <ele>469.20001220703125</ele>
        <time>2018-08-17T06:38:41.000Z</time>
      </trkpt>
      <trkpt lat="49.1671605594456195831298828125" lon="10.80503904260694980621337890625">
        <ele>468</ele>
        <time>2018-08-17T06:38:45.000Z</time>
      </trkpt>
      <trkpt lat="49.16719886474311351776123046875" lon="10.805200897157192230224609375">
        <ele>467.20001220703125</ele>
        <time>2018-08-17T06:38:47.000Z</time>
      </trkpt>
      <trkpt lat="49.167213700711727142333984375" lon="10.8052781783044338226318359375">
        <ele>466.79998779296875</ele>
        <time>2018-08-17T06:38:48.000Z</time>
      </trkpt>
      <trkpt lat="49.16722702793776988983154296875" lon="10.8053576387465000152587890625">
        <ele>465.79998779296875</ele>
        <time>2018-08-17T06:38:49.000Z</time>
      </trkpt>
      <trkpt lat="49.16727966628968715667724609375" lon="10.80559484660625457763671875">
        <ele>464.600006103515625</ele>
        <time>2018-08-17T06:38:52.000Z</time>
      </trkpt>
      <trkpt lat="49.16735409758985042572021484375" lon="10.8058570325374603271484375">
        <ele>463.399993896484375</ele>
        <time>2018-08-17T06:38:55.000Z</time>
      </trkpt>
      <trkpt lat="49.167453087866306304931640625" lon="10.80626330338418483734130859375">
        <ele>462.20001220703125</ele>
        <time>2018-08-17T06:38:59.000Z</time>
      </trkpt>
      <trkpt lat="49.1675079055130481719970703125" lon="10.806492380797863006591796875">
        <ele>461.20001220703125</ele>
        <time>2018-08-17T06:39:01.000Z</time>
      </trkpt>
      <trkpt lat="49.167633466422557830810546875" lon="10.80698288977146148681640625">
        <ele>460</ele>
        <time>2018-08-17T06:39:05.000Z</time>
      </trkpt>
      <trkpt lat="49.16767596267163753509521484375" lon="10.80709847621619701385498046875">
        <ele>459.600006103515625</ele>
        <time>2018-08-17T06:39:06.000Z</time>
      </trkpt>
      <trkpt lat="49.1678161919116973876953125" lon="10.8074299804866313934326171875">
        <ele>458.79998779296875</ele>
        <time>2018-08-17T06:39:09.000Z</time>
      </trkpt>
      <trkpt lat="49.1680218838155269622802734375" lon="10.8078598044812679290771484375">
        <ele>457.600006103515625</ele>
        <time>2018-08-17T06:39:13.000Z</time>
      </trkpt>
      <trkpt lat="49.16827359236776828765869140625" lon="10.80839775502681732177734375">
        <ele>456.399993896484375</ele>
        <time>2018-08-17T06:39:18.000Z</time>
      </trkpt>
      <trkpt lat="49.1685311682522296905517578125" lon="10.80894517712295055389404296875">
        <ele>455.20001220703125</ele>
        <time>2018-08-17T06:39:23.000Z</time>
      </trkpt>
      <trkpt lat="49.168735183775424957275390625" lon="10.80941288731992244720458984375">
        <ele>454</ele>
        <time>2018-08-17T06:39:27.000Z</time>
      </trkpt>
      <trkpt lat="49.1689703799784183502197265625" lon="10.80997615121304988861083984375">
        <ele>453</ele>
        <time>2018-08-17T06:39:31.000Z</time>
      </trkpt>
      <trkpt lat="49.169241450726985931396484375" lon="10.81066095270216464996337890625">
        <ele>451.600006103515625</ele>
        <time>2018-08-17T06:39:35.000Z</time>
      </trkpt>
      <trkpt lat="49.16937648318707942962646484375" lon="10.81103897653520107269287109375">
        <ele>450.600006103515625</ele>
        <time>2018-08-17T06:39:37.000Z</time>
      </trkpt>
      <trkpt lat="49.16951604187488555908203125" lon="10.811406187713146209716796875">
        <ele>449.20001220703125</ele>
        <time>2018-08-17T06:39:39.000Z</time>
      </trkpt>
      <trkpt lat="49.1695926524698734283447265625" lon="10.81158078275620937347412109375">
        <ele>448.20001220703125</ele>
        <time>2018-08-17T06:39:40.000Z</time>
      </trkpt>
      <trkpt lat="49.16967135854065418243408203125" lon="10.81174775026738643646240234375">
        <ele>447</ele>
        <time>2018-08-17T06:39:41.000Z</time>
      </trkpt>
      <trkpt lat="49.16975266300141811370849609375" lon="10.81190600059926509857177734375">
        <ele>446</ele>
        <time>2018-08-17T06:39:42.000Z</time>
      </trkpt>
      <trkpt lat="49.16983430273830890655517578125" lon="10.81206039525568485260009765625">
        <ele>443.399993896484375</ele>
        <time>2018-08-17T06:39:43.000Z</time>
      </trkpt>
      <trkpt lat="49.16991812177002429962158203125" lon="10.8122110180556774139404296875">
        <ele>442</ele>
        <time>2018-08-17T06:39:44.000Z</time>
      </trkpt>
      <trkpt lat="49.17000361718237400054931640625" lon="10.812354348599910736083984375">
        <ele>440.79998779296875</ele>
        <time>2018-08-17T06:39:45.000Z</time>
      </trkpt>
      <trkpt lat="49.1701834090054035186767578125" lon="10.81262533552944660186767578125">
        <ele>439</ele>
        <time>2018-08-17T06:39:47.000Z</time>
      </trkpt>
      <trkpt lat="49.17035666294395923614501953125" lon="10.81287930719554424285888671875">
        <ele>437.399993896484375</ele>
        <time>2018-08-17T06:39:49.000Z</time>
      </trkpt>
      <trkpt lat="49.17052195407450199127197265625" lon="10.81310796551406383514404296875">
        <ele>436</ele>
        <time>2018-08-17T06:39:51.000Z</time>
      </trkpt>
      <trkpt lat="49.17068255133926868438720703125" lon="10.81331030465662479400634765625">
        <ele>435</ele>
        <time>2018-08-17T06:39:53.000Z</time>
      </trkpt>
      <trkpt lat="49.170907102525234222412109375" lon="10.81356997601687908172607421875">
        <ele>433.600006103515625</ele>
        <time>2018-08-17T06:39:56.000Z</time>
      </trkpt>
      <trkpt lat="49.17135545052587985992431640625" lon="10.814087726175785064697265625">
        <ele>433.399993896484375</ele>
        <time>2018-08-17T06:40:03.000Z</time>
      </trkpt>
      <trkpt lat="49.17182534001767635345458984375" lon="10.81464202143251895904541015625">
        <ele>434</ele>
        <time>2018-08-17T06:40:11.000Z</time>
      </trkpt>
      <trkpt lat="49.17229942046105861663818359375" lon="10.8152160979807376861572265625">
        <ele>434.399993896484375</ele>
        <time>2018-08-17T06:40:19.000Z</time>
      </trkpt>
      <trkpt lat="49.1727784462273120880126953125" lon="10.81565313041210174560546875">
        <ele>434</ele>
        <time>2018-08-17T06:40:25.000Z</time>
      </trkpt>
      <trkpt lat="49.17302579618990421295166015625" lon="10.8158155716955661773681640625">
        <ele>433.20001220703125</ele>
        <time>2018-08-17T06:40:28.000Z</time>
      </trkpt>
      <trkpt lat="49.173205085098743438720703125" lon="10.8158615045249462127685546875">
        <ele>432.399993896484375</ele>
        <time>2018-08-17T06:40:30.000Z</time>
      </trkpt>
      <trkpt lat="49.1734070889651775360107421875" lon="10.815867371857166290283203125">
        <ele>431.79998779296875</ele>
        <time>2018-08-17T06:40:32.000Z</time>
      </trkpt>
      <trkpt lat="49.17351253330707550048828125" lon="10.815863348543643951416015625">
        <ele>431.20001220703125</ele>
        <time>2018-08-17T06:40:33.000Z</time>
      </trkpt>
      <trkpt lat="49.17371093295514583587646484375" lon="10.81585622392594814300537109375">
        <ele>430</ele>
        <time>2018-08-17T06:40:35.000Z</time>
      </trkpt>
      <trkpt lat="49.17380430735647678375244140625" lon="10.815853290259838104248046875">
        <ele>428.399993896484375</ele>
        <time>2018-08-17T06:40:36.000Z</time>
      </trkpt>
      <trkpt lat="49.17397529818117618560791015625" lon="10.81592948175966739654541015625">
        <ele>427</ele>
        <time>2018-08-17T06:40:38.000Z</time>
      </trkpt>
      <trkpt lat="49.17406096123158931732177734375" lon="10.81614690832793712615966796875">
        <ele>425.399993896484375</ele>
        <time>2018-08-17T06:40:40.000Z</time>
      </trkpt>
      <trkpt lat="49.1740853525698184967041015625" lon="10.81627213396131992340087890625">
        <ele>424.399993896484375</ele>
        <time>2018-08-17T06:40:41.000Z</time>
      </trkpt>
      <trkpt lat="49.17411929927766323089599609375" lon="10.816391408443450927734375">
        <ele>423.399993896484375</ele>
        <time>2018-08-17T06:40:42.000Z</time>
      </trkpt>
      <trkpt lat="49.17416824959218502044677734375" lon="10.81649727188050746917724609375">
        <ele>422.600006103515625</ele>
        <time>2018-08-17T06:40:43.000Z</time>
      </trkpt>
      <trkpt lat="49.17429783381521701812744140625" lon="10.81667102873325347900390625">
        <ele>421</ele>
        <time>2018-08-17T06:40:45.000Z</time>
      </trkpt>
      <trkpt lat="49.17436807416379451751708984375" lon="10.81674504093825817108154296875">
        <ele>420.600006103515625</ele>
        <time>2018-08-17T06:40:46.000Z</time>
      </trkpt>
      <trkpt lat="49.17465020902454853057861328125" lon="10.81703673116862773895263671875">
        <ele>420</ele>
        <time>2018-08-17T06:40:50.000Z</time>
      </trkpt>
      <trkpt lat="49.17517810128629207611083984375" lon="10.817529000341892242431640625">
        <ele>419.399993896484375</ele>
        <time>2018-08-17T06:40:57.000Z</time>
      </trkpt>
      <trkpt lat="49.17540173046290874481201171875" lon="10.81772647798061370849609375">
        <ele>419.20001220703125</ele>
        <time>2018-08-17T06:41:00.000Z</time>
      </trkpt>
      <trkpt lat="49.1755381040275096893310546875" lon="10.81777609884738922119140625">
        <ele>419</ele>
        <time>2018-08-17T06:41:02.000Z</time>
      </trkpt>
      <trkpt lat="49.17576718144118785858154296875" lon="10.8178144879639148712158203125">
        <ele>418.20001220703125</ele>
        <time>2018-08-17T06:41:07.000Z</time>
      </trkpt>
      <trkpt lat="49.17582325637340545654296875" lon="10.81784726120531558990478515625">
        <ele>417.79998779296875</ele>
        <time>2018-08-17T06:41:09.000Z</time>
      </trkpt>
      <trkpt lat="49.1758453845977783203125" lon="10.8178674615919589996337890625">
        <ele>417.600006103515625</ele>
        <time>2018-08-17T06:41:10.000Z</time>
      </trkpt>
      <trkpt lat="49.17591772042214870452880859375" lon="10.8185507543385028839111328125">
        <ele>416.79998779296875</ele>
        <time>2018-08-17T06:41:24.000Z</time>
      </trkpt>
      <trkpt lat="49.17599550448358058929443359375" lon="10.8186174742877483367919921875">
        <ele>416.600006103515625</ele>
        <time>2018-08-17T06:41:26.000Z</time>
      </trkpt>
      <trkpt lat="49.17623120360076427459716796875" lon="10.81883045844733715057373046875">
        <ele>415.79998779296875</ele>
        <time>2018-08-17T06:41:31.000Z</time>
      </trkpt>
      <trkpt lat="49.17671752162277698516845703125" lon="10.81934510730206966400146484375">
        <ele>415</ele>
        <time>2018-08-17T06:41:40.000Z</time>
      </trkpt>
      <trkpt lat="49.1768919490277767181396484375" lon="10.8195585943758487701416015625">
        <ele>414.600006103515625</ele>
        <time>2018-08-17T06:41:43.000Z</time>
      </trkpt>
      <trkpt lat="49.17732453905045986175537109375" lon="10.82010886631906032562255859375">
        <ele>414</ele>
        <time>2018-08-17T06:41:50.000Z</time>
      </trkpt>
      <trkpt lat="49.177511036396026611328125" lon="10.820332579314708709716796875">
        <ele>413.600006103515625</ele>
        <time>2018-08-17T06:41:53.000Z</time>
      </trkpt>
      <trkpt lat="49.1778686083853244781494140625" lon="10.8207578770816326141357421875">
        <ele>412.399993896484375</ele>
        <time>2018-08-17T06:41:59.000Z</time>
      </trkpt>
      <trkpt lat="49.1782903857529163360595703125" lon="10.82126037217676639556884765625">
        <ele>411.399993896484375</ele>
        <time>2018-08-17T06:42:06.000Z</time>
      </trkpt>
      <trkpt lat="49.1787369735538959503173828125" lon="10.821836628019809722900390625">
        <ele>410.79998779296875</ele>
        <time>2018-08-17T06:42:14.000Z</time>
      </trkpt>
      <trkpt lat="49.1789525561034679412841796875" lon="10.822076685726642608642578125">
        <ele>410.399993896484375</ele>
        <time>2018-08-17T06:42:18.000Z</time>
      </trkpt>
      <trkpt lat="49.1791324317455291748046875" lon="10.8222387917339801788330078125">
        <ele>410.399993896484375</ele>
        <time>2018-08-17T06:42:21.000Z</time>
      </trkpt>
      <trkpt lat="49.1795640997588634490966796875" lon="10.822829045355319976806640625">
        <ele>410.399993896484375</ele>
        <time>2018-08-17T06:42:29.000Z</time>
      </trkpt>
      <trkpt lat="49.17990314774215221405029296875" lon="10.823484174907207489013671875">
        <ele>410.600006103515625</ele>
        <time>2018-08-17T06:42:36.000Z</time>
      </trkpt>
      <trkpt lat="49.18027061037719249725341796875" lon="10.82420744933187961578369140625">
        <ele>410.399993896484375</ele>
        <time>2018-08-17T06:42:43.000Z</time>
      </trkpt>
      <trkpt lat="49.1806755401194095611572265625" lon="10.8247987926006317138671875">
        <ele>409.600006103515625</ele>
        <time>2018-08-17T06:42:49.000Z</time>
      </trkpt>
      <trkpt lat="49.1807524859905242919921875" lon="10.82488722167909145355224609375">
        <ele>409.399993896484375</ele>
        <time>2018-08-17T06:42:50.000Z</time>
      </trkpt>
      <trkpt lat="49.18099212460219860076904296875" lon="10.8251409418880939483642578125">
        <ele>408.399993896484375</ele>
        <time>2018-08-17T06:42:53.000Z</time>
      </trkpt>
      <trkpt lat="49.18131482787430286407470703125" lon="10.8254492282867431640625">
        <ele>407</ele>
        <time>2018-08-17T06:42:57.000Z</time>
      </trkpt>
      <trkpt lat="49.18161959387362003326416015625" lon="10.82571736536920070648193359375">
        <ele>405.79998779296875</ele>
        <time>2018-08-17T06:43:01.000Z</time>
      </trkpt>
      <trkpt lat="49.18208579532802104949951171875" lon="10.82615322433412075042724609375">
        <ele>405.399993896484375</ele>
        <time>2018-08-17T06:43:08.000Z</time>
      </trkpt>
      <trkpt lat="49.1826013661921024322509765625" lon="10.8266476728022098541259765625">
        <ele>405.399993896484375</ele>
        <time>2018-08-17T06:43:16.000Z</time>
      </trkpt>
      <trkpt lat="49.183079637587070465087890625" lon="10.827034078538417816162109375">
        <ele>405.79998779296875</ele>
        <time>2018-08-17T06:43:23.000Z</time>
      </trkpt>
      <trkpt lat="49.18358062393963336944580078125" lon="10.82735099829733371734619140625">
        <ele>406</ele>
        <time>2018-08-17T06:43:30.000Z</time>
      </trkpt>
      <trkpt lat="49.18409544043242931365966796875" lon="10.8276048861443996429443359375">
        <ele>406.20001220703125</ele>
        <time>2018-08-17T06:43:37.000Z</time>
      </trkpt>
      <trkpt lat="49.18464613147079944610595703125" lon="10.8278794772922992706298828125">
        <ele>406</ele>
        <time>2018-08-17T06:43:44.000Z</time>
      </trkpt>
      <trkpt lat="49.1848902963101863861083984375" lon="10.828059352934360504150390625">
        <ele>405.600006103515625</ele>
        <time>2018-08-17T06:43:47.000Z</time>
      </trkpt>
      <trkpt lat="49.18526672758162021636962890625" lon="10.82845673896372318267822265625">
        <ele>404.20001220703125</ele>
        <time>2018-08-17T06:43:52.000Z</time>
      </trkpt>
      <trkpt lat="49.18538172729313373565673828125" lon="10.8286670409142971038818359375">
        <ele>403.20001220703125</ele>
        <time>2018-08-17T06:43:54.000Z</time>
      </trkpt>
      <trkpt lat="49.18546956963837146759033203125" lon="10.828896872699260711669921875">
        <ele>402</ele>
        <time>2018-08-17T06:43:56.000Z</time>
      </trkpt>
      <trkpt lat="49.18559093959629535675048828125" lon="10.8292353339493274688720703125">
        <ele>401</ele>
        <time>2018-08-17T06:43:59.000Z</time>
      </trkpt>
      <trkpt lat="49.18563687242567539215087890625" lon="10.82934035919606685638427734375">
        <ele>400.79998779296875</ele>
        <time>2018-08-17T06:44:00.000Z</time>
      </trkpt>
      <trkpt lat="49.18608899228274822235107421875" lon="10.8298985101282596588134765625">
        <ele>400.600006103515625</ele>
        <time>2018-08-17T06:44:07.000Z</time>
      </trkpt>
      <trkpt lat="49.186646975576877593994140625" lon="10.83021509461104869842529296875">
        <ele>400.600006103515625</ele>
        <time>2018-08-17T06:44:14.000Z</time>
      </trkpt>
      <trkpt lat="49.18721401132643222808837890625" lon="10.83050946705043315887451171875">
        <ele>400</ele>
        <time>2018-08-17T06:44:21.000Z</time>
      </trkpt>
      <trkpt lat="49.18729330413043498992919921875" lon="10.83055741153657436370849609375">
        <ele>400</ele>
        <time>2018-08-17T06:44:22.000Z</time>
      </trkpt>
      <trkpt lat="49.18777844868600368499755859375" lon="10.83109267987310886383056640625">
        <ele>399.20001220703125</ele>
        <time>2018-08-17T06:44:29.000Z</time>
      </trkpt>
      <trkpt lat="49.187981374561786651611328125" lon="10.8313405327498912811279296875">
        <ele>398.79998779296875</ele>
        <time>2018-08-17T06:44:32.000Z</time>
      </trkpt>
      <trkpt lat="49.188439361751079559326171875" lon="10.8319326303899288177490234375">
        <ele>398.20001220703125</ele>
        <time>2018-08-17T06:44:39.000Z</time>
      </trkpt>
      <trkpt lat="49.18859115801751613616943359375" lon="10.83225667476654052734375">
        <ele>397.79998779296875</ele>
        <time>2018-08-17T06:44:42.000Z</time>
      </trkpt>
      <trkpt lat="49.18889977969229221343994140625" lon="10.8330816216766834259033203125">
        <ele>396.79998779296875</ele>
        <time>2018-08-17T06:44:49.000Z</time>
      </trkpt>
      <trkpt lat="49.18899097479879856109619140625" lon="10.83332377485930919647216796875">
        <ele>396.600006103515625</ele>
        <time>2018-08-17T06:44:51.000Z</time>
      </trkpt>
      <trkpt lat="49.189261458814144134521484375" lon="10.8340629749000072479248046875">
        <ele>395.79998779296875</ele>
        <time>2018-08-17T06:44:57.000Z</time>
      </trkpt>
      <trkpt lat="49.18930596671998500823974609375" lon="10.83418392576277256011962890625">
        <ele>395.600006103515625</ele>
        <time>2018-08-17T06:44:58.000Z</time>
      </trkpt>
      <trkpt lat="49.18961341492831707000732421875" lon="10.83498825319111347198486328125">
        <ele>394.79998779296875</ele>
        <time>2018-08-17T06:45:05.000Z</time>
      </trkpt>
      <trkpt lat="49.189664460718631744384765625" lon="10.83508112467825412750244140625">
        <ele>394.79998779296875</ele>
        <time>2018-08-17T06:45:06.000Z</time>
      </trkpt>
      <trkpt lat="49.19012923724949359893798828125" lon="10.835474990308284759521484375">
        <ele>395</ele>
        <time>2018-08-17T06:45:14.000Z</time>
      </trkpt>
      <trkpt lat="49.1906419582664966583251953125" lon="10.83544858731329441070556640625">
        <ele>396.79998779296875</ele>
        <time>2018-08-17T06:45:25.000Z</time>
      </trkpt>
      <trkpt lat="49.190771877765655517578125" lon="10.835430733859539031982421875">
        <ele>398</ele>
        <time>2018-08-17T06:45:29.000Z</time>
      </trkpt>
      <trkpt lat="49.190864749252796173095703125" lon="10.83541405387222766876220703125">
        <ele>399.399993896484375</ele>
        <time>2018-08-17T06:45:32.000Z</time>
      </trkpt>
      <trkpt lat="49.1909792460501194000244140625" lon="10.83539175800979137420654296875">
        <ele>400.600006103515625</ele>
        <time>2018-08-17T06:45:36.000Z</time>
      </trkpt>
      <trkpt lat="49.19109265320003032684326171875" lon="10.83538035862147808074951171875">
        <ele>401.600006103515625</ele>
        <time>2018-08-17T06:45:40.000Z</time>
      </trkpt>
      <trkpt lat="49.1912166215479373931884765625" lon="10.835378430783748626708984375">
        <ele>403</ele>
        <time>2018-08-17T06:45:44.000Z</time>
      </trkpt>
      <trkpt lat="49.19133656658232212066650390625" lon="10.83536443300545215606689453125">
        <ele>404.20001220703125</ele>
        <time>2018-08-17T06:45:48.000Z</time>
      </trkpt>
      <trkpt lat="49.191423989832401275634765625" lon="10.83535890094935894012451171875">
        <ele>405.20001220703125</ele>
        <time>2018-08-17T06:45:51.000Z</time>
      </trkpt>
      <trkpt lat="49.19154259376227855682373046875" lon="10.83536979742348194122314453125">
        <ele>406.600006103515625</ele>
        <time>2018-08-17T06:45:55.000Z</time>
      </trkpt>
      <trkpt lat="49.19163144193589687347412109375" lon="10.83538404665887355804443359375">
        <ele>407.600006103515625</ele>
        <time>2018-08-17T06:45:58.000Z</time>
      </trkpt>
      <trkpt lat="49.19171878136694431304931640625" lon="10.8354148082435131072998046875">
        <ele>408.79998779296875</ele>
        <time>2018-08-17T06:46:01.000Z</time>
      </trkpt>
      <trkpt lat="49.191826321184635162353515625" lon="10.83546149544417858123779296875">
        <ele>410</ele>
        <time>2018-08-17T06:46:05.000Z</time>
      </trkpt>
      <trkpt lat="49.1919381357729434967041015625" lon="10.8355184085667133331298828125">
        <ele>411.399993896484375</ele>
        <time>2018-08-17T06:46:09.000Z</time>
      </trkpt>
      <trkpt lat="49.1920459270477294921875" lon="10.835601054131984710693359375">
        <ele>412.600006103515625</ele>
        <time>2018-08-17T06:46:13.000Z</time>
      </trkpt>
      <trkpt lat="49.1921518743038177490234375" lon="10.8356994576752185821533203125">
        <ele>413.79998779296875</ele>
        <time>2018-08-17T06:46:17.000Z</time>
      </trkpt>
      <trkpt lat="49.192247092723846435546875" lon="10.83580481819808483123779296875">
        <ele>415</ele>
        <time>2018-08-17T06:46:21.000Z</time>
      </trkpt>
      <trkpt lat="49.19233988039195537567138671875" lon="10.83592015318572521209716796875">
        <ele>416.20001220703125</ele>
        <time>2018-08-17T06:46:25.000Z</time>
      </trkpt>
      <trkpt lat="49.1924283094704151153564453125" lon="10.83604956977069377899169921875">
        <ele>417.399993896484375</ele>
        <time>2018-08-17T06:46:29.000Z</time>
      </trkpt>
      <trkpt lat="49.1925178281962871551513671875" lon="10.836176387965679168701171875">
        <ele>418.399993896484375</ele>
        <time>2018-08-17T06:46:33.000Z</time>
      </trkpt>
      <trkpt lat="49.19263064861297607421875" lon="10.83633136935532093048095703125">
        <ele>419.600006103515625</ele>
        <time>2018-08-17T06:46:38.000Z</time>
      </trkpt>
      <trkpt lat="49.19275042600929737091064453125" lon="10.8364742808043956756591796875">
        <ele>420.600006103515625</ele>
        <time>2018-08-17T06:46:43.000Z</time>
      </trkpt>
      <trkpt lat="49.19287313707172870635986328125" lon="10.8366050384938716888427734375">
        <ele>421.79998779296875</ele>
        <time>2018-08-17T06:46:48.000Z</time>
      </trkpt>
      <trkpt lat="49.19297355227172374725341796875" lon="10.83670084364712238311767578125">
        <ele>423.20001220703125</ele>
        <time>2018-08-17T06:46:52.000Z</time>
      </trkpt>
      <trkpt lat="49.19310900382697582244873046875" lon="10.83679740317165851593017578125">
        <ele>424.399993896484375</ele>
        <time>2018-08-17T06:46:57.000Z</time>
      </trkpt>
      <trkpt lat="49.19321880675852298736572265625" lon="10.83683998323976993560791015625">
        <ele>425.600006103515625</ele>
        <time>2018-08-17T06:47:01.000Z</time>
      </trkpt>
      <trkpt lat="49.19333363883197307586669921875" lon="10.83684668876230716705322265625">
        <ele>426.79998779296875</ele>
        <time>2018-08-17T06:47:05.000Z</time>
      </trkpt>
      <trkpt lat="49.193449728190898895263671875" lon="10.83681751973927021026611328125">
        <ele>428</ele>
        <time>2018-08-17T06:47:09.000Z</time>
      </trkpt>
      <trkpt lat="49.19359154999256134033203125" lon="10.8367287553846836090087890625">
        <ele>429.20001220703125</ele>
        <time>2018-08-17T06:47:14.000Z</time>
      </trkpt>
      <trkpt lat="49.19369841925799846649169921875" lon="10.83661350421607494354248046875">
        <ele>430.600006103515625</ele>
        <time>2018-08-17T06:47:18.000Z</time>
      </trkpt>
      <trkpt lat="49.1937928833067417144775390625" lon="10.8364664018154144287109375">
        <ele>431.600006103515625</ele>
        <time>2018-08-17T06:47:22.000Z</time>
      </trkpt>
      <trkpt lat="49.19389338232576847076416015625" lon="10.83629381842911243438720703125">
        <ele>432.600006103515625</ele>
        <time>2018-08-17T06:47:26.000Z</time>
      </trkpt>
      <trkpt lat="49.19400469399988651275634765625" lon="10.8360548503696918487548828125">
        <ele>433.79998779296875</ele>
        <time>2018-08-17T06:47:31.000Z</time>
      </trkpt>
      <trkpt lat="49.19409823603928089141845703125" lon="10.83578201942145824432373046875">
        <ele>434.79998779296875</ele>
        <time>2018-08-17T06:47:36.000Z</time>
      </trkpt>
      <trkpt lat="49.19424307532608509063720703125" lon="10.8353638462722301483154296875">
        <ele>435.79998779296875</ele>
        <time>2018-08-17T06:47:43.000Z</time>
      </trkpt>
      <trkpt lat="49.19440157711505889892578125" lon="10.83507609553635120391845703125">
        <ele>436.79998779296875</ele>
        <time>2018-08-17T06:47:48.000Z</time>
      </trkpt>
      <trkpt lat="49.19444373808801174163818359375" lon="10.83502865396440029144287109375">
        <ele>436.79998779296875</ele>
        <time>2018-08-17T06:47:49.000Z</time>
      </trkpt>
      <trkpt lat="49.194571562111377716064453125" lon="10.834897644817829132080078125">
        <ele>437.399993896484375</ele>
        <time>2018-08-17T06:47:52.000Z</time>
      </trkpt>
      <trkpt lat="49.19497179798781871795654296875" lon="10.83473796956241130828857421875">
        <ele>437.79998779296875</ele>
        <time>2018-08-17T06:48:00.000Z</time>
      </trkpt>
      <trkpt lat="49.19502577744424343109130859375" lon="10.83474232815206050872802734375">
        <ele>438</ele>
        <time>2018-08-17T06:48:01.000Z</time>
      </trkpt>
      <trkpt lat="49.19549935497343540191650390625" lon="10.834972746670246124267578125">
        <ele>439</ele>
        <time>2018-08-17T06:48:10.000Z</time>
      </trkpt>
      <trkpt lat="49.19554428197443485260009765625" lon="10.83502094261348247528076171875">
        <ele>439</ele>
        <time>2018-08-17T06:48:11.000Z</time>
      </trkpt>
      <trkpt lat="49.1956657357513904571533203125" lon="10.83517902530729770660400390625">
        <ele>439.20001220703125</ele>
        <time>2018-08-17T06:48:14.000Z</time>
      </trkpt>
      <trkpt lat="49.19579121284186840057373046875" lon="10.8354188315570354461669921875">
        <ele>439.79998779296875</ele>
        <time>2018-08-17T06:48:18.000Z</time>
      </trkpt>
      <trkpt lat="49.19582122005522251129150390625" lon="10.83547540940344333648681640625">
        <ele>440.20001220703125</ele>
        <time>2018-08-17T06:48:19.000Z</time>
      </trkpt>
      <trkpt lat="49.19597527943551540374755859375" lon="10.8358131162822246551513671875">
        <ele>441.20001220703125</ele>
        <time>2018-08-17T06:48:25.000Z</time>
      </trkpt>
      <trkpt lat="49.1960912011563777923583984375" lon="10.836097933351993560791015625">
        <ele>442.399993896484375</ele>
        <time>2018-08-17T06:48:30.000Z</time>
      </trkpt>
      <trkpt lat="49.19618600048124790191650390625" lon="10.83634410984814167022705078125">
        <ele>443.600006103515625</ele>
        <time>2018-08-17T06:48:34.000Z</time>
      </trkpt>
      <trkpt lat="49.19628054834902286529541015625" lon="10.8365886099636554718017578125">
        <ele>444.600006103515625</ele>
        <time>2018-08-17T06:48:38.000Z</time>
      </trkpt>
      <trkpt lat="49.1963520459830760955810546875" lon="10.83677963353693485260009765625">
        <ele>445.600006103515625</ele>
        <time>2018-08-17T06:48:41.000Z</time>
      </trkpt>
      <trkpt lat="49.1963969729840755462646484375" lon="10.8368943817913532257080078125">
        <ele>446.20001220703125</ele>
        <time>2018-08-17T06:48:43.000Z</time>
      </trkpt>
      <trkpt lat="49.196462519466876983642578125" lon="10.8370618522167205810546875">
        <ele>446.79998779296875</ele>
        <time>2018-08-17T06:48:46.000Z</time>
      </trkpt>
      <trkpt lat="49.196608699858188629150390625" lon="10.83741791546344757080078125">
        <ele>448</ele>
        <time>2018-08-17T06:48:52.000Z</time>
      </trkpt>
      <trkpt lat="49.19663242064416408538818359375" lon="10.83747952245175838470458984375">
        <ele>449.20001220703125</ele>
        <time>2018-08-17T06:48:53.000Z</time>
      </trkpt>
      <trkpt lat="49.196710288524627685546875" lon="10.8376755751669406890869140625">
        <ele>450.399993896484375</ele>
        <time>2018-08-17T06:48:56.000Z</time>
      </trkpt>
      <trkpt lat="49.196738786995410919189453125" lon="10.837739445269107818603515625">
        <ele>450.399993896484375</ele>
        <time>2018-08-17T06:48:57.000Z</time>
      </trkpt>
      <trkpt lat="49.19681648723781108856201171875" lon="10.837924182415008544921875">
        <ele>451.399993896484375</ele>
        <time>2018-08-17T06:49:00.000Z</time>
      </trkpt>
      <trkpt lat="49.19691556133329868316650390625" lon="10.83817706443369388580322265625">
        <ele>452.399993896484375</ele>
        <time>2018-08-17T06:49:04.000Z</time>
      </trkpt>
      <trkpt lat="49.19698814861476421356201171875" lon="10.83836331032216548919677734375">
        <ele>453.600006103515625</ele>
        <time>2018-08-17T06:49:07.000Z</time>
      </trkpt>
      <trkpt lat="49.19710817746818065643310546875" lon="10.83867830224335193634033203125">
        <ele>454.79998779296875</ele>
        <time>2018-08-17T06:49:12.000Z</time>
      </trkpt>
      <trkpt lat="49.1972797550261020660400390625" lon="10.83906487561762332916259765625">
        <ele>455.79998779296875</ele>
        <time>2018-08-17T06:49:18.000Z</time>
      </trkpt>
      <trkpt lat="49.19746139086782932281494140625" lon="10.8393524587154388427734375">
        <ele>456.79998779296875</ele>
        <time>2018-08-17T06:49:23.000Z</time>
      </trkpt>
      <trkpt lat="49.19783103279769420623779296875" lon="10.83983835764229297637939453125">
        <ele>457.79998779296875</ele>
        <time>2018-08-17T06:49:32.000Z</time>
      </trkpt>
      <trkpt lat="49.19833160005509853363037109375" lon="10.84029785357415676116943359375">
        <ele>458.399993896484375</ele>
        <time>2018-08-17T06:49:41.000Z</time>
      </trkpt>
      <trkpt lat="49.1988247074186801910400390625" lon="10.84071703255176544189453125">
        <ele>458.399993896484375</ele>
        <time>2018-08-17T06:49:48.000Z</time>
      </trkpt>
      <trkpt lat="49.1993826068937778472900390625" lon="10.8411771990358829498291015625">
        <ele>458.20001220703125</ele>
        <time>2018-08-17T06:49:55.000Z</time>
      </trkpt>
      <trkpt lat="49.1999240778386592864990234375" lon="10.84162604995071887969970703125">
        <ele>456.20001220703125</ele>
        <time>2018-08-17T06:50:01.000Z</time>
      </trkpt>
      <trkpt lat="49.2002218030393123626708984375" lon="10.8418725617229938507080078125">
        <ele>455</ele>
        <time>2018-08-17T06:50:04.000Z</time>
      </trkpt>
      <trkpt lat="49.20053520239889621734619140625" lon="10.84213315509259700775146484375">
        <ele>453.79998779296875</ele>
        <time>2018-08-17T06:50:07.000Z</time>
      </trkpt>
      <trkpt lat="49.20086704194545745849609375" lon="10.84242635406553745269775390625">
        <ele>452.399993896484375</ele>
        <time>2018-08-17T06:50:10.000Z</time>
      </trkpt>
      <trkpt lat="49.20107784681022167205810546875" lon="10.84266557358205318450927734375">
        <ele>451.20001220703125</ele>
        <time>2018-08-17T06:50:12.000Z</time>
      </trkpt>
      <trkpt lat="49.20127230696380138397216796875" lon="10.84293697960674762725830078125">
        <ele>449.600006103515625</ele>
        <time>2018-08-17T06:50:14.000Z</time>
      </trkpt>
      <trkpt lat="49.20145302079617977142333984375" lon="10.843233279883861541748046875">
        <ele>448.20001220703125</ele>
        <time>2018-08-17T06:50:16.000Z</time>
      </trkpt>
      <trkpt lat="49.20161110348999500274658203125" lon="10.84356143139302730560302734375">
        <ele>446.399993896484375</ele>
        <time>2018-08-17T06:50:18.000Z</time>
      </trkpt>
      <trkpt lat="49.20174336992204189300537109375" lon="10.84390483796596527099609375">
        <ele>444.600006103515625</ele>
        <time>2018-08-17T06:50:20.000Z</time>
      </trkpt>
      <trkpt lat="49.20184982009232044219970703125" lon="10.844252519309520721435546875">
        <ele>443</ele>
        <time>2018-08-17T06:50:22.000Z</time>
      </trkpt>
      <trkpt lat="49.20195124112069606781005859375" lon="10.844587795436382293701171875">
        <ele>441.399993896484375</ele>
        <time>2018-08-17T06:50:24.000Z</time>
      </trkpt>
      <trkpt lat="49.20209993608295917510986328125" lon="10.84507218562066555023193359375">
        <ele>439.399993896484375</ele>
        <time>2018-08-17T06:50:27.000Z</time>
      </trkpt>
      <trkpt lat="49.20224913395941257476806640625" lon="10.84553604014217853546142578125">
        <ele>438.20001220703125</ele>
        <time>2018-08-17T06:50:30.000Z</time>
      </trkpt>
      <trkpt lat="49.2024567537009716033935546875" lon="10.84613249637186527252197265625">
        <ele>437</ele>
        <time>2018-08-17T06:50:34.000Z</time>
      </trkpt>
      <trkpt lat="49.20282840728759765625" lon="10.84681713022291660308837890625">
        <ele>435.79998779296875</ele>
        <time>2018-08-17T06:50:39.000Z</time>
      </trkpt>
      <trkpt lat="49.2031058482825756072998046875" lon="10.84718174301087856292724609375">
        <ele>434.79998779296875</ele>
        <time>2018-08-17T06:50:42.000Z</time>
      </trkpt>
      <trkpt lat="49.20340248383581638336181640625" lon="10.84752355702221393585205078125">
        <ele>433.600006103515625</ele>
        <time>2018-08-17T06:50:45.000Z</time>
      </trkpt>
      <trkpt lat="49.203698448836803436279296875" lon="10.84786285646259784698486328125">
        <ele>432.20001220703125</ele>
        <time>2018-08-17T06:50:48.000Z</time>
      </trkpt>
      <trkpt lat="49.2038940824568271636962890625" lon="10.848092101514339447021484375">
        <ele>431.20001220703125</ele>
        <time>2018-08-17T06:50:50.000Z</time>
      </trkpt>
      <trkpt lat="49.20408560894429683685302734375" lon="10.84833408705890178680419921875">
        <ele>430</ele>
        <time>2018-08-17T06:50:52.000Z</time>
      </trkpt>
      <trkpt lat="49.20425995253026485443115234375" lon="10.84859509952366352081298828125">
        <ele>428.399993896484375</ele>
        <time>2018-08-17T06:50:54.000Z</time>
      </trkpt>
      <trkpt lat="49.20442071743309497833251953125" lon="10.8488694392144680023193359375">
        <ele>427.20001220703125</ele>
        <time>2018-08-17T06:50:56.000Z</time>
      </trkpt>
      <trkpt lat="49.20456153340637683868408203125" lon="10.84915232844650745391845703125">
        <ele>425.79998779296875</ele>
        <time>2018-08-17T06:50:58.000Z</time>
      </trkpt>
      <trkpt lat="49.2046883516013622283935546875" lon="10.84944653324782848358154296875">
        <ele>424.600006103515625</ele>
        <time>2018-08-17T06:51:00.000Z</time>
      </trkpt>
      <trkpt lat="49.20480058528482913970947265625" lon="10.849747024476528167724609375">
        <ele>423.399993896484375</ele>
        <time>2018-08-17T06:51:02.000Z</time>
      </trkpt>
      <trkpt lat="49.2049535550177097320556640625" lon="10.8501941151916980743408203125">
        <ele>422.20001220703125</ele>
        <time>2018-08-17T06:51:05.000Z</time>
      </trkpt>
      <trkpt lat="49.205099232494831085205078125" lon="10.85062167607247829437255859375">
        <ele>421</ele>
        <time>2018-08-17T06:51:08.000Z</time>
      </trkpt>
      <trkpt lat="49.20537340454757213592529296875" lon="10.85145517252385616302490234375">
        <ele>420.20001220703125</ele>
        <time>2018-08-17T06:51:14.000Z</time>
      </trkpt>
      <trkpt lat="49.205415062606334686279296875" lon="10.85159062407910823822021484375">
        <ele>420</ele>
        <time>2018-08-17T06:51:15.000Z</time>
      </trkpt>
      <trkpt lat="49.2056690342724323272705078125" lon="10.85235513746738433837890625">
        <ele>419.600006103515625</ele>
        <time>2018-08-17T06:51:21.000Z</time>
      </trkpt>
      <trkpt lat="49.20595393516123294830322265625" lon="10.85320078767836093902587890625">
        <ele>419.20001220703125</ele>
        <time>2018-08-17T06:51:28.000Z</time>
      </trkpt>
      <trkpt lat="49.20621578581631183624267578125" lon="10.8539565838873386383056640625">
        <ele>418.79998779296875</ele>
        <time>2018-08-17T06:51:34.000Z</time>
      </trkpt>
      <trkpt lat="49.20646137557923793792724609375" lon="10.854711793363094329833984375">
        <ele>418.79998779296875</ele>
        <time>2018-08-17T06:51:40.000Z</time>
      </trkpt>
      <trkpt lat="49.20672641135752201080322265625" lon="10.85555098950862884521484375">
        <ele>418.79998779296875</ele>
        <time>2018-08-17T06:51:47.000Z</time>
      </trkpt>
      <trkpt lat="49.206980131566524505615234375" lon="10.856333188712596893310546875">
        <ele>419</ele>
        <time>2018-08-17T06:51:54.000Z</time>
      </trkpt>
      <trkpt lat="49.20722614042460918426513671875" lon="10.85708043538033962249755859375">
        <ele>419.600006103515625</ele>
        <time>2018-08-17T06:52:01.000Z</time>
      </trkpt>
      <trkpt lat="49.20736108906567096710205078125" lon="10.8574964292347431182861328125">
        <ele>420</ele>
        <time>2018-08-17T06:52:05.000Z</time>
      </trkpt>
      <trkpt lat="49.207545407116413116455078125" lon="10.85835599340498447418212890625">
        <ele>421</ele>
        <time>2018-08-17T06:52:13.000Z</time>
      </trkpt>
      <trkpt lat="49.20762226916849613189697265625" lon="10.859280265867710113525390625">
        <ele>422.20001220703125</ele>
        <time>2018-08-17T06:52:21.000Z</time>
      </trkpt>
      <trkpt lat="49.20768043957650661468505859375" lon="10.86019515059888362884521484375">
        <ele>422.20001220703125</ele>
        <time>2018-08-17T06:52:28.000Z</time>
      </trkpt>
      <trkpt lat="49.20772654004395008087158203125" lon="10.861040465533733367919921875">
        <ele>421.79998779296875</ele>
        <time>2018-08-17T06:52:34.000Z</time>
      </trkpt>
      <trkpt lat="49.20783248730003833770751953125" lon="10.8619197271764278411865234375">
        <ele>420.399993896484375</ele>
        <time>2018-08-17T06:52:40.000Z</time>
      </trkpt>
      <trkpt lat="49.207863248884677886962890625" lon="10.8620632253587245941162109375">
        <ele>420.20001220703125</ele>
        <time>2018-08-17T06:52:41.000Z</time>
      </trkpt>
      <trkpt lat="49.20805930159986019134521484375" lon="10.86273687891662120819091796875">
        <ele>418.79998779296875</ele>
        <time>2018-08-17T06:52:46.000Z</time>
      </trkpt>
      <trkpt lat="49.20831419527530670166015625" lon="10.86336870677769184112548828125">
        <ele>417.600006103515625</ele>
        <time>2018-08-17T06:52:51.000Z</time>
      </trkpt>
      <trkpt lat="49.2085306160151958465576171875" lon="10.8638904802501201629638671875">
        <ele>416.20001220703125</ele>
        <time>2018-08-17T06:52:55.000Z</time>
      </trkpt>
      <trkpt lat="49.20875282026827335357666015625" lon="10.86443035863339900970458984375">
        <ele>415.20001220703125</ele>
        <time>2018-08-17T06:52:59.000Z</time>
      </trkpt>
      <trkpt lat="49.20892414636909961700439453125" lon="10.8648423291742801666259765625">
        <ele>414</ele>
        <time>2018-08-17T06:53:02.000Z</time>
      </trkpt>
      <trkpt lat="49.209096394479274749755859375" lon="10.865264944732189178466796875">
        <ele>413</ele>
        <time>2018-08-17T06:53:05.000Z</time>
      </trkpt>
      <trkpt lat="49.20921231620013713836669921875" lon="10.865550599992275238037109375">
        <ele>411.600006103515625</ele>
        <time>2018-08-17T06:53:07.000Z</time>
      </trkpt>
      <trkpt lat="49.209329076111316680908203125" lon="10.8658421225845813751220703125">
        <ele>410.600006103515625</ele>
        <time>2018-08-17T06:53:09.000Z</time>
      </trkpt>
      <trkpt lat="49.2094422318041324615478515625" lon="10.8661368303000926971435546875">
        <ele>409.399993896484375</ele>
        <time>2018-08-17T06:53:11.000Z</time>
      </trkpt>
      <trkpt lat="49.20960777439177036285400390625" lon="10.8665847592055797576904296875">
        <ele>408</ele>
        <time>2018-08-17T06:53:14.000Z</time>
      </trkpt>
      <trkpt lat="49.20977055095136165618896484375" lon="10.86702975444495677947998046875">
        <ele>406.79998779296875</ele>
        <time>2018-08-17T06:53:17.000Z</time>
      </trkpt>
      <trkpt lat="49.20993148349225521087646484375" lon="10.8674665354192256927490234375">
        <ele>405.600006103515625</ele>
        <time>2018-08-17T06:53:20.000Z</time>
      </trkpt>
      <trkpt lat="49.21010498888790607452392578125" lon="10.86787817068397998809814453125">
        <ele>404</ele>
        <time>2018-08-17T06:53:23.000Z</time>
      </trkpt>
      <trkpt lat="49.2102928273379802703857421875" lon="10.86825720034539699554443359375">
        <ele>402.79998779296875</ele>
        <time>2018-08-17T06:53:26.000Z</time>
      </trkpt>
      <trkpt lat="49.210625924170017242431640625" lon="10.86882465519011020660400390625">
        <ele>401.79998779296875</ele>
        <time>2018-08-17T06:53:31.000Z</time>
      </trkpt>
      <trkpt lat="49.21105482615530490875244140625" lon="10.86942429654300212860107421875">
        <ele>400.79998779296875</ele>
        <time>2018-08-17T06:53:37.000Z</time>
      </trkpt>
      <trkpt lat="49.2111984081566333770751953125" lon="10.8696180023252964019775390625">
        <ele>400.600006103515625</ele>
        <time>2018-08-17T06:53:39.000Z</time>
      </trkpt>
      <trkpt lat="49.21161574311554431915283203125" lon="10.87022669613361358642578125">
        <ele>400</ele>
        <time>2018-08-17T06:53:45.000Z</time>
      </trkpt>
      <trkpt lat="49.21180718578398227691650390625" lon="10.87054965086281299591064453125">
        <ele>399.79998779296875</ele>
        <time>2018-08-17T06:53:48.000Z</time>
      </trkpt>
      <trkpt lat="49.21214279718697071075439453125" lon="10.8712393976747989654541015625">
        <ele>399</ele>
        <time>2018-08-17T06:53:54.000Z</time>
      </trkpt>
      <trkpt lat="49.21237866394221782684326171875" lon="10.87183945812284946441650390625">
        <ele>398.79998779296875</ele>
        <time>2018-08-17T06:53:59.000Z</time>
      </trkpt>
      <trkpt lat="49.21260514296591281890869140625" lon="10.872588716447353363037109375">
        <ele>398.20001220703125</ele>
        <time>2018-08-17T06:54:05.000Z</time>
      </trkpt>
      <trkpt lat="49.2127270996570587158203125" lon="10.87309070862829685211181640625">
        <ele>397.600006103515625</ele>
        <time>2018-08-17T06:54:09.000Z</time>
      </trkpt>
      <trkpt lat="49.2129213921725749969482421875" lon="10.87397164665162563323974609375">
        <ele>397</ele>
        <time>2018-08-17T06:54:16.000Z</time>
      </trkpt>
      <trkpt lat="49.21315499581396579742431640625" lon="10.87484571151435375213623046875">
        <ele>396.600006103515625</ele>
        <time>2018-08-17T06:54:23.000Z</time>
      </trkpt>
      <trkpt lat="49.2134189419448375701904296875" lon="10.8755810558795928955078125">
        <ele>396.20001220703125</ele>
        <time>2018-08-17T06:54:29.000Z</time>
      </trkpt>
      <trkpt lat="49.2135805450379848480224609375" lon="10.875940807163715362548828125">
        <ele>395.600006103515625</ele>
        <time>2018-08-17T06:54:32.000Z</time>
      </trkpt>
      <trkpt lat="49.21394415199756622314453125" lon="10.8767027221620082855224609375">
        <ele>394.600006103515625</ele>
        <time>2018-08-17T06:54:38.000Z</time>
      </trkpt>
      <trkpt lat="49.21413836069405078887939453125" lon="10.8771184645593166351318359375">
        <ele>393.79998779296875</ele>
        <time>2018-08-17T06:54:41.000Z</time>
      </trkpt>
      <trkpt lat="49.2143811844289302825927734375" lon="10.87771383114159107208251953125">
        <ele>392.600006103515625</ele>
        <time>2018-08-17T06:54:45.000Z</time>
      </trkpt>
      <trkpt lat="49.2145424522459506988525390625" lon="10.87818883359432220458984375">
        <ele>391.399993896484375</ele>
        <time>2018-08-17T06:54:48.000Z</time>
      </trkpt>
      <trkpt lat="49.21473314054310321807861328125" lon="10.87884387932717800140380859375">
        <ele>390.20001220703125</ele>
        <time>2018-08-17T06:54:52.000Z</time>
      </trkpt>
      <trkpt lat="49.21487311832606792449951171875" lon="10.87934218347072601318359375">
        <ele>388.79998779296875</ele>
        <time>2018-08-17T06:54:55.000Z</time>
      </trkpt>
      <trkpt lat="49.21491955406963825225830078125" lon="10.8795086480677127838134765625">
        <ele>387.79998779296875</ele>
        <time>2018-08-17T06:54:56.000Z</time>
      </trkpt>
      <trkpt lat="49.2150571011006832122802734375" lon="10.88000896386802196502685546875">
        <ele>386.600006103515625</ele>
        <time>2018-08-17T06:54:59.000Z</time>
      </trkpt>
      <trkpt lat="49.21518928371369838714599609375" lon="10.88051556609570980072021484375">
        <ele>385.399993896484375</ele>
        <time>2018-08-17T06:55:02.000Z</time>
      </trkpt>
      <trkpt lat="49.21533328481018543243408203125" lon="10.881014205515384674072265625">
        <ele>384.399993896484375</ele>
        <time>2018-08-17T06:55:05.000Z</time>
      </trkpt>
      <trkpt lat="49.21547410078346729278564453125" lon="10.88150546886026859283447265625">
        <ele>383</ele>
        <time>2018-08-17T06:55:08.000Z</time>
      </trkpt>
      <trkpt lat="49.21561717987060546875" lon="10.88199782185256481170654296875">
        <ele>382</ele>
        <time>2018-08-17T06:55:11.000Z</time>
      </trkpt>
      <trkpt lat="49.21575975604355335235595703125" lon="10.8824828825891017913818359375">
        <ele>380.79998779296875</ele>
        <time>2018-08-17T06:55:14.000Z</time>
      </trkpt>
      <trkpt lat="49.215897805988788604736328125" lon="10.88294170796871185302734375">
        <ele>379.600006103515625</ele>
        <time>2018-08-17T06:55:17.000Z</time>
      </trkpt>
      <trkpt lat="49.21607843600213527679443359375" lon="10.88349265046417713165283203125">
        <ele>378.20001220703125</ele>
        <time>2018-08-17T06:55:21.000Z</time>
      </trkpt>
      <trkpt lat="49.21630273573100566864013671875" lon="10.88396186940371990203857421875">
        <ele>377.20001220703125</ele>
        <time>2018-08-17T06:55:25.000Z</time>
      </trkpt>
      <trkpt lat="49.21672233380377292633056640625" lon="10.88460576720535755157470703125">
        <ele>376.399993896484375</ele>
        <time>2018-08-17T06:55:31.000Z</time>
      </trkpt>
      <trkpt lat="49.2170208133757114410400390625" lon="10.885060317814350128173828125">
        <ele>376.20001220703125</ele>
        <time>2018-08-17T06:55:35.000Z</time>
      </trkpt>
      <trkpt lat="49.21732096932828426361083984375" lon="10.8855157904326915740966796875">
        <ele>375.20001220703125</ele>
        <time>2018-08-17T06:55:39.000Z</time>
      </trkpt>
      <trkpt lat="49.2176008410751819610595703125" lon="10.88601275347173213958740234375">
        <ele>373.79998779296875</ele>
        <time>2018-08-17T06:55:43.000Z</time>
      </trkpt>
      <trkpt lat="49.21765364706516265869140625" lon="10.88615893386304378509521484375">
        <ele>373.600006103515625</ele>
        <time>2018-08-17T06:55:44.000Z</time>
      </trkpt>
      <trkpt lat="49.2177225463092327117919921875" lon="10.886463113129138946533203125">
        <ele>372.79998779296875</ele>
        <time>2018-08-17T06:55:46.000Z</time>
      </trkpt>
      <trkpt lat="49.2177735082805156707763671875" lon="10.88675572536885738372802734375">
        <ele>371.79998779296875</ele>
        <time>2018-08-17T06:55:48.000Z</time>
      </trkpt>
      <trkpt lat="49.2178033478558063507080078125" lon="10.88689905591309070587158203125">
        <ele>371.399993896484375</ele>
        <time>2018-08-17T06:55:49.000Z</time>
      </trkpt>
      <trkpt lat="49.21783746220171451568603515625" lon="10.88703811168670654296875">
        <ele>370.399993896484375</ele>
        <time>2018-08-17T06:55:50.000Z</time>
      </trkpt>
      <trkpt lat="49.21802253462374210357666015625" lon="10.8877054788172245025634765625">
        <ele>369.399993896484375</ele>
        <time>2018-08-17T06:55:55.000Z</time>
      </trkpt>
      <trkpt lat="49.2182546295225620269775390625" lon="10.88847569189965724945068359375">
        <ele>369</ele>
        <time>2018-08-17T06:56:01.000Z</time>
      </trkpt>
      <trkpt lat="49.21840139664709568023681640625" lon="10.888971984386444091796875">
        <ele>368.79998779296875</ele>
        <time>2018-08-17T06:56:05.000Z</time>
      </trkpt>
      <trkpt lat="49.21885217539966106414794921875" lon="10.889133922755718231201171875">
        <ele>368.79998779296875</ele>
        <time>2018-08-17T06:56:11.000Z</time>
      </trkpt>
      <trkpt lat="49.219418205320835113525390625" lon="10.8890445716679096221923828125">
        <ele>369</ele>
        <time>2018-08-17T06:56:20.000Z</time>
      </trkpt>
      <trkpt lat="49.2197553254663944244384765625" lon="10.88908941484987735748291015625">
        <ele>370.79998779296875</ele>
        <time>2018-08-17T06:56:27.000Z</time>
      </trkpt>
      <trkpt lat="49.21988734044134616851806640625" lon="10.88910601101815700531005859375">
        <ele>371.79998779296875</ele>
        <time>2018-08-17T06:56:30.000Z</time>
      </trkpt>
      <trkpt lat="49.2200602591037750244140625" lon="10.88912780396640300750732421875">
        <ele>373</ele>
        <time>2018-08-17T06:56:34.000Z</time>
      </trkpt>
      <trkpt lat="49.2202019132673740386962890625" lon="10.88914406485855579376220703125">
        <ele>374.20001220703125</ele>
        <time>2018-08-17T06:56:37.000Z</time>
      </trkpt>
      <trkpt lat="49.2203896678984165191650390625" lon="10.8891739882528781890869140625">
        <ele>375.399993896484375</ele>
        <time>2018-08-17T06:56:41.000Z</time>
      </trkpt>
      <trkpt lat="49.22047977335751056671142578125" lon="10.889202319085597991943359375">
        <ele>376.20001220703125</ele>
        <time>2018-08-17T06:56:43.000Z</time>
      </trkpt>
      <trkpt lat="49.22052470035851001739501953125" lon="10.8892316557466983795166015625">
        <ele>376.399993896484375</ele>
        <time>2018-08-17T06:56:44.000Z</time>
      </trkpt>
      <trkpt lat="49.22066367231309413909912109375" lon="10.88932930491864681243896484375">
        <ele>377.20001220703125</ele>
        <time>2018-08-17T06:56:47.000Z</time>
      </trkpt>
      <trkpt lat="49.2207661829888820648193359375" lon="10.88936920277774333953857421875">
        <ele>377.600006103515625</ele>
        <time>2018-08-17T06:56:49.000Z</time>
      </trkpt>
      <trkpt lat="49.2211457155644893646240234375" lon="10.8895132876932621002197265625">
        <ele>378.600006103515625</ele>
        <time>2018-08-17T06:56:56.000Z</time>
      </trkpt>
      <trkpt lat="49.22169615514576435089111328125" lon="10.88982333429157733917236328125">
        <ele>379.399993896484375</ele>
        <time>2018-08-17T06:57:06.000Z</time>
      </trkpt>
      <trkpt lat="49.2219109833240509033203125" lon="10.8900041319429874420166015625">
        <ele>379.79998779296875</ele>
        <time>2018-08-17T06:57:10.000Z</time>
      </trkpt>
      <trkpt lat="49.22244130633771419525146484375" lon="10.89044225402176380157470703125">
        <ele>379.79998779296875</ele>
        <time>2018-08-17T06:57:19.000Z</time>
      </trkpt>
      <trkpt lat="49.22298914752900600433349609375" lon="10.890808291733264923095703125">
        <ele>379.79998779296875</ele>
        <time>2018-08-17T06:57:28.000Z</time>
      </trkpt>
      <trkpt lat="49.22353447414934635162353515625" lon="10.891119427978992462158203125">
        <ele>380.79998779296875</ele>
        <time>2018-08-17T06:57:37.000Z</time>
      </trkpt>
      <trkpt lat="49.2236490547657012939453125" lon="10.89117164723575115203857421875">
        <ele>381</ele>
        <time>2018-08-17T06:57:39.000Z</time>
      </trkpt>
      <trkpt lat="49.22403101809322834014892578125" lon="10.89133777655661106109619140625">
        <ele>382</ele>
        <time>2018-08-17T06:57:46.000Z</time>
      </trkpt>
      <trkpt lat="49.2243103869259357452392578125" lon="10.89144674129784107208251953125">
        <ele>383.20001220703125</ele>
        <time>2018-08-17T06:57:51.000Z</time>
      </trkpt>
      <trkpt lat="49.2246144823729991912841796875" lon="10.8915938436985015869140625">
        <ele>384.399993896484375</ele>
        <time>2018-08-17T06:57:57.000Z</time>
      </trkpt>
      <trkpt lat="49.22486250288784503936767578125" lon="10.8917016349732875823974609375">
        <ele>385.399993896484375</ele>
        <time>2018-08-17T06:58:02.000Z</time>
      </trkpt>
      <trkpt lat="49.22508127056062221527099609375" lon="10.89175083674490451812744140625">
        <ele>386.600006103515625</ele>
        <time>2018-08-17T06:58:06.000Z</time>
      </trkpt>
      <trkpt lat="49.22526366077363491058349609375" lon="10.8917601406574249267578125">
        <ele>387</ele>
        <time>2018-08-17T06:58:09.000Z</time>
      </trkpt>
      <trkpt lat="49.2257718555629253387451171875" lon="10.8918622322380542755126953125">
        <ele>387.399993896484375</ele>
        <time>2018-08-17T06:58:17.000Z</time>
      </trkpt>
      <trkpt lat="49.2263076268136501312255859375" lon="10.89201168157160282135009765625">
        <ele>388</ele>
        <time>2018-08-17T06:58:25.000Z</time>
      </trkpt>
      <trkpt lat="49.2268564738333225250244140625" lon="10.89216138236224651336669921875">
        <ele>388</ele>
        <time>2018-08-17T06:58:33.000Z</time>
      </trkpt>
      <trkpt lat="49.22739316709339618682861328125" lon="10.892264060676097869873046875">
        <ele>388.20001220703125</ele>
        <time>2018-08-17T06:58:41.000Z</time>
      </trkpt>
      <trkpt lat="49.2277825064957141876220703125" lon="10.89235265739262104034423828125">
        <ele>388.399993896484375</ele>
        <time>2018-08-17T06:58:47.000Z</time>
      </trkpt>
      <trkpt lat="49.228315092623233795166015625" lon="10.89249934069812297821044921875">
        <ele>389.20001220703125</ele>
        <time>2018-08-17T06:58:55.000Z</time>
      </trkpt>
      <trkpt lat="49.22838390804827213287353515625" lon="10.89251828379929065704345703125">
        <ele>389.399993896484375</ele>
        <time>2018-08-17T06:58:56.000Z</time>
      </trkpt>
      <trkpt lat="49.228960163891315460205078125" lon="10.892689861357212066650390625">
        <ele>389.79998779296875</ele>
        <time>2018-08-17T06:59:04.000Z</time>
      </trkpt>
      <trkpt lat="49.2295557819306850433349609375" lon="10.8928516320884227752685546875">
        <ele>389.600006103515625</ele>
        <time>2018-08-17T06:59:12.000Z</time>
      </trkpt>
      <trkpt lat="49.2301237396895885467529296875" lon="10.893000662326812744140625">
        <ele>389.600006103515625</ele>
        <time>2018-08-17T06:59:20.000Z</time>
      </trkpt>
      <trkpt lat="49.23067199997603893280029296875" lon="10.89312898926436901092529296875">
        <ele>389.600006103515625</ele>
        <time>2018-08-17T06:59:28.000Z</time>
      </trkpt>
      <trkpt lat="49.23120575957000255584716796875" lon="10.89326075278222560882568359375">
        <ele>390.20001220703125</ele>
        <time>2018-08-17T06:59:36.000Z</time>
      </trkpt>
      <trkpt lat="49.23159442842006683349609375" lon="10.89334406889975070953369140625">
        <ele>390.600006103515625</ele>
        <time>2018-08-17T06:59:42.000Z</time>
      </trkpt>
      <trkpt lat="49.23217889852821826934814453125" lon="10.89349091984331607818603515625">
        <ele>391.399993896484375</ele>
        <time>2018-08-17T06:59:51.000Z</time>
      </trkpt>
      <trkpt lat="49.23230915330350399017333984375" lon="10.8935277163982391357421875">
        <ele>391.600006103515625</ele>
        <time>2018-08-17T06:59:53.000Z</time>
      </trkpt>
      <trkpt lat="49.232841320335865020751953125" lon="10.89369778521358966827392578125">
        <ele>392.399993896484375</ele>
        <time>2018-08-17T07:00:01.000Z</time>
      </trkpt>
      <trkpt lat="49.232976436614990234375" lon="10.89374363422393798828125">
        <ele>392.600006103515625</ele>
        <time>2018-08-17T07:00:03.000Z</time>
      </trkpt>
      <trkpt lat="49.23351530916988849639892578125" lon="10.89395217597484588623046875">
        <ele>393.20001220703125</ele>
        <time>2018-08-17T07:00:11.000Z</time>
      </trkpt>
      <trkpt lat="49.23406013287603855133056640625" lon="10.89415795169770717620849609375">
        <ele>393.399993896484375</ele>
        <time>2018-08-17T07:00:19.000Z</time>
      </trkpt>
      <trkpt lat="49.23438853584229946136474609375" lon="10.8942906372249126434326171875">
        <ele>393.600006103515625</ele>
        <time>2018-08-17T07:00:24.000Z</time>
      </trkpt>
      <trkpt lat="49.23479606397449970245361328125" lon="10.8944745361804962158203125">
        <ele>394</ele>
        <time>2018-08-17T07:00:31.000Z</time>
      </trkpt>
      <trkpt lat="49.2350375466048717498779296875" lon="10.89461208321154117584228515625">
        <ele>394.79998779296875</ele>
        <time>2018-08-17T07:00:36.000Z</time>
      </trkpt>
      <trkpt lat="49.2350859940052032470703125" lon="10.894638486206531524658203125">
        <ele>395</ele>
        <time>2018-08-17T07:00:37.000Z</time>
      </trkpt>
      <trkpt lat="49.23529855906963348388671875" lon="10.894733369350433349609375">
        <ele>396</ele>
        <time>2018-08-17T07:00:41.000Z</time>
      </trkpt>
      <trkpt lat="49.23553920350968837738037109375" lon="10.8948232233524322509765625">
        <ele>397.20001220703125</ele>
        <time>2018-08-17T07:00:45.000Z</time>
      </trkpt>
      <trkpt lat="49.23609022982418537139892578125" lon="10.89503134600818157196044921875">
        <ele>398.20001220703125</ele>
        <time>2018-08-17T07:00:53.000Z</time>
      </trkpt>
      <trkpt lat="49.23643908463418483734130859375" lon="10.89519462548196315765380859375">
        <ele>398.399993896484375</ele>
        <time>2018-08-17T07:00:58.000Z</time>
      </trkpt>
      <trkpt lat="49.23697334714233875274658203125" lon="10.89547567069530487060546875">
        <ele>398.399993896484375</ele>
        <time>2018-08-17T07:01:06.000Z</time>
      </trkpt>
      <trkpt lat="49.23749235458672046661376953125" lon="10.8957432210445404052734375">
        <ele>398.79998779296875</ele>
        <time>2018-08-17T07:01:14.000Z</time>
      </trkpt>
      <trkpt lat="49.23802795819938182830810546875" lon="10.896012447774410247802734375">
        <ele>399</ele>
        <time>2018-08-17T07:01:22.000Z</time>
      </trkpt>
      <trkpt lat="49.2385458759963512420654296875" lon="10.8962556906044483184814453125">
        <ele>399.20001220703125</ele>
        <time>2018-08-17T07:01:30.000Z</time>
      </trkpt>
      <trkpt lat="49.23867520876228809356689453125" lon="10.89630405418574810028076171875">
        <ele>399.399993896484375</ele>
        <time>2018-08-17T07:01:32.000Z</time>
      </trkpt>
      <trkpt lat="49.239251799881458282470703125" lon="10.89654696173965930938720703125">
        <ele>399.79998779296875</ele>
        <time>2018-08-17T07:01:41.000Z</time>
      </trkpt>
      <trkpt lat="49.23964633606374263763427734375" lon="10.89670320041477680206298828125">
        <ele>400.399993896484375</ele>
        <time>2018-08-17T07:01:47.000Z</time>
      </trkpt>
      <trkpt lat="49.2401863820850849151611328125" lon="10.8969091437757015228271484375">
        <ele>401</ele>
        <time>2018-08-17T07:01:55.000Z</time>
      </trkpt>
      <trkpt lat="49.24064964987337589263916015625" lon="10.89707426726818084716796875">
        <ele>401.399993896484375</ele>
        <time>2018-08-17T07:02:02.000Z</time>
      </trkpt>
      <trkpt lat="49.2411834932863712310791015625" lon="10.89726093225181102752685546875">
        <ele>402.399993896484375</ele>
        <time>2018-08-17T07:02:10.000Z</time>
      </trkpt>
      <trkpt lat="49.24125297926366329193115234375" lon="10.89728406630456447601318359375">
        <ele>402.399993896484375</ele>
        <time>2018-08-17T07:02:11.000Z</time>
      </trkpt>
      <trkpt lat="49.24181439913809299468994140625" lon="10.897478945553302764892578125">
        <ele>402.600006103515625</ele>
        <time>2018-08-17T07:02:19.000Z</time>
      </trkpt>
      <trkpt lat="49.2423697002232074737548828125" lon="10.89770735241472721099853515625">
        <ele>402.79998779296875</ele>
        <time>2018-08-17T07:02:27.000Z</time>
      </trkpt>
      <trkpt lat="49.2428203113377094268798828125" lon="10.89788957498967647552490234375">
        <ele>403.20001220703125</ele>
        <time>2018-08-17T07:02:34.000Z</time>
      </trkpt>
      <trkpt lat="49.24302692525088787078857421875" lon="10.8980309776961803436279296875">
        <ele>403.399993896484375</ele>
        <time>2018-08-17T07:02:38.000Z</time>
      </trkpt>
      <trkpt lat="49.24307704903185367584228515625" lon="10.89804925024509429931640625">
        <ele>403.399993896484375</ele>
        <time>2018-08-17T07:02:39.000Z</time>
      </trkpt>
      <trkpt lat="49.24321602098643779754638671875" lon="10.8980980329215526580810546875">
        <ele>403.600006103515625</ele>
        <time>2018-08-17T07:02:42.000Z</time>
      </trkpt>
      <trkpt lat="49.24352732487022876739501953125" lon="10.8980386890470981597900390625">
        <ele>403.79998779296875</ele>
        <time>2018-08-17T07:02:48.000Z</time>
      </trkpt>
      <trkpt lat="49.2440319992601871490478515625" lon="10.8981955982744693756103515625">
        <ele>404</ele>
        <time>2018-08-17T07:02:56.000Z</time>
      </trkpt>
      <trkpt lat="49.244620241224765777587890625" lon="10.8983675949275493621826171875">
        <ele>404</ele>
        <time>2018-08-17T07:03:05.000Z</time>
      </trkpt>
      <trkpt lat="49.24515978433191776275634765625" lon="10.898529700934886932373046875">
        <ele>404.20001220703125</ele>
        <time>2018-08-17T07:03:13.000Z</time>
      </trkpt>
      <trkpt lat="49.2457217909395694732666015625" lon="10.8987162820994853973388671875">
        <ele>404.20001220703125</ele>
        <time>2018-08-17T07:03:21.000Z</time>
      </trkpt>
      <trkpt lat="49.24631598405539989471435546875" lon="10.8989338763058185577392578125">
        <ele>403.79998779296875</ele>
        <time>2018-08-17T07:03:29.000Z</time>
      </trkpt>
      <trkpt lat="49.24684370867908000946044921875" lon="10.89914049021899700164794921875">
        <ele>403.399993896484375</ele>
        <time>2018-08-17T07:03:36.000Z</time>
      </trkpt>
      <trkpt lat="49.24737629480659961700439453125" lon="10.89932204224169254302978515625">
        <ele>402.79998779296875</ele>
        <time>2018-08-17T07:03:43.000Z</time>
      </trkpt>
      <trkpt lat="49.24797191284596920013427734375" lon="10.89951449073851108551025390625">
        <ele>403</ele>
        <time>2018-08-17T07:03:52.000Z</time>
      </trkpt>
      <trkpt lat="49.2485122941434383392333984375" lon="10.8997231163084506988525390625">
        <ele>404.399993896484375</ele>
        <time>2018-08-17T07:04:00.000Z</time>
      </trkpt>
      <trkpt lat="49.2490889690816402435302734375" lon="10.89996811933815479278564453125">
        <ele>404.399993896484375</ele>
        <time>2018-08-17T07:04:09.000Z</time>
      </trkpt>
      <trkpt lat="49.24928317777812480926513671875" lon="10.9000526927411556243896484375">
        <ele>404.79998779296875</ele>
        <time>2018-08-17T07:04:12.000Z</time>
      </trkpt>
      <trkpt lat="49.24981291405856609344482421875" lon="10.90028931386768817901611328125">
        <ele>405.399993896484375</ele>
        <time>2018-08-17T07:04:20.000Z</time>
      </trkpt>
      <trkpt lat="49.25034482963383197784423828125" lon="10.9005307964980602264404296875">
        <ele>405.600006103515625</ele>
        <time>2018-08-17T07:04:28.000Z</time>
      </trkpt>
      <trkpt lat="49.25088043324649333953857421875" lon="10.9007866121828556060791015625">
        <ele>405.600006103515625</ele>
        <time>2018-08-17T07:04:36.000Z</time>
      </trkpt>
      <trkpt lat="49.251402877271175384521484375" lon="10.90103111229836940765380859375">
        <ele>405.79998779296875</ele>
        <time>2018-08-17T07:04:44.000Z</time>
      </trkpt>
      <trkpt lat="49.25192884169518947601318359375" lon="10.901264213025569915771484375">
        <ele>406.600006103515625</ele>
        <time>2018-08-17T07:04:52.000Z</time>
      </trkpt>
      <trkpt lat="49.25217610783874988555908203125" lon="10.9013720043003559112548828125">
        <ele>406.79998779296875</ele>
        <time>2018-08-17T07:04:56.000Z</time>
      </trkpt>
      <trkpt lat="49.25223126076161861419677734375" lon="10.90140142478048801422119140625">
        <ele>406.79998779296875</ele>
        <time>2018-08-17T07:04:57.000Z</time>
      </trkpt>
      <trkpt lat="49.25220787525177001953125" lon="10.90219066478312015533447265625">
        <ele>407.20001220703125</ele>
        <time>2018-08-17T07:05:07.000Z</time>
      </trkpt>
      <trkpt lat="49.25226931460201740264892578125" lon="10.902335084974765777587890625">
        <ele>407.20001220703125</ele>
        <time>2018-08-17T07:05:09.000Z</time>
      </trkpt>
      <trkpt lat="49.2526271380484104156494140625" lon="10.9030685015022754669189453125">
        <ele>407.20001220703125</ele>
        <time>2018-08-17T07:05:19.000Z</time>
      </trkpt>
      <trkpt lat="49.25298697315156459808349609375" lon="10.903776772320270538330078125">
        <ele>407.600006103515625</ele>
        <time>2018-08-17T07:05:28.000Z</time>
      </trkpt>
      <trkpt lat="49.2530841194093227386474609375" lon="10.90392068959772586822509765625">
        <ele>408</ele>
        <time>2018-08-17T07:05:30.000Z</time>
      </trkpt>
      <trkpt lat="49.25335410051047801971435546875" lon="10.90424691326916217803955078125">
        <ele>408</ele>
        <time>2018-08-17T07:05:35.000Z</time>
      </trkpt>
      <trkpt lat="49.2538237385451793670654296875" lon="10.9048162959516048431396484375">
        <ele>408.20001220703125</ele>
        <time>2018-08-17T07:05:44.000Z</time>
      </trkpt>
      <trkpt lat="49.25416479818522930145263671875" lon="10.90522893704473972320556640625">
        <ele>409</ele>
        <time>2018-08-17T07:05:51.000Z</time>
      </trkpt>
      <trkpt lat="49.25462529994547367095947265625" lon="10.9057976491749286651611328125">
        <ele>409.79998779296875</ele>
        <time>2018-08-17T07:06:00.000Z</time>
      </trkpt>
      <trkpt lat="49.2548540420830249786376953125" lon="10.90600845403969287872314453125">
        <ele>409.79998779296875</ele>
        <time>2018-08-17T07:06:04.000Z</time>
      </trkpt>
      <trkpt lat="49.25505026243627071380615234375" lon="10.90610392391681671142578125">
        <ele>409.79998779296875</ele>
        <time>2018-08-17T07:06:07.000Z</time>
      </trkpt>
      <trkpt lat="49.25565811805427074432373046875" lon="10.9062321670353412628173828125">
        <ele>409.79998779296875</ele>
        <time>2018-08-17T07:06:15.000Z</time>
      </trkpt>
      <trkpt lat="49.25622993148863315582275390625" lon="10.90633953921496868133544921875">
        <ele>409.399993896484375</ele>
        <time>2018-08-17T07:06:22.000Z</time>
      </trkpt>
      <trkpt lat="49.25682001747190952301025390625" lon="10.906450934708118438720703125">
        <ele>408.600006103515625</ele>
        <time>2018-08-17T07:06:29.000Z</time>
      </trkpt>
      <trkpt lat="49.25723232328891754150390625" lon="10.90656668879091739654541015625">
        <ele>407.79998779296875</ele>
        <time>2018-08-17T07:06:34.000Z</time>
      </trkpt>
      <trkpt lat="49.257787205278873443603515625" lon="10.90679861605167388916015625">
        <ele>407.20001220703125</ele>
        <time>2018-08-17T07:06:41.000Z</time>
      </trkpt>
      <trkpt lat="49.25831995904445648193359375" lon="10.90703138150274753570556640625">
        <ele>407</ele>
        <time>2018-08-17T07:06:48.000Z</time>
      </trkpt>
      <trkpt lat="49.258860088884830474853515625" lon="10.9071498177945613861083984375">
        <ele>406.79998779296875</ele>
        <time>2018-08-17T07:06:55.000Z</time>
      </trkpt>
      <trkpt lat="49.2594080977141857147216796875" lon="10.907079912722110748291015625">
        <ele>406.600006103515625</ele>
        <time>2018-08-17T07:07:02.000Z</time>
      </trkpt>
      <trkpt lat="49.26000379957258701324462890625" lon="10.90699307620525360107421875">
        <ele>407</ele>
        <time>2018-08-17T07:07:10.000Z</time>
      </trkpt>
      <trkpt lat="49.260074794292449951171875" lon="10.90698729269206523895263671875">
        <ele>407</ele>
        <time>2018-08-17T07:07:11.000Z</time>
      </trkpt>
      <trkpt lat="49.26034502685070037841796875" lon="10.907077230513095855712890625">
        <ele>407.600006103515625</ele>
        <time>2018-08-17T07:07:15.000Z</time>
      </trkpt>
      <trkpt lat="49.2605785466730594635009765625" lon="10.90725165791809558868408203125">
        <ele>408</ele>
        <time>2018-08-17T07:07:19.000Z</time>
      </trkpt>
      <trkpt lat="49.26101566292345523834228515625" lon="10.90757955797016620635986328125">
        <ele>409.20001220703125</ele>
        <time>2018-08-17T07:07:27.000Z</time>
      </trkpt>
      <trkpt lat="49.26123342476785182952880859375" lon="10.90775155462324619293212890625">
        <ele>410.20001220703125</ele>
        <time>2018-08-17T07:07:31.000Z</time>
      </trkpt>
      <trkpt lat="49.26142771728336811065673828125" lon="10.908124633133411407470703125">
        <ele>411</ele>
        <time>2018-08-17T07:07:36.000Z</time>
      </trkpt>
      <trkpt lat="49.26156031899154186248779296875" lon="10.90847424231469631195068359375">
        <ele>411.20001220703125</ele>
        <time>2018-08-17T07:07:40.000Z</time>
      </trkpt>
      <trkpt lat="49.26165796816349029541015625" lon="10.90867004357278347015380859375">
        <ele>411.79998779296875</ele>
        <time>2018-08-17T07:07:43.000Z</time>
      </trkpt>
      <trkpt lat="49.26175897009670734405517578125" lon="10.90933539904654026031494140625">
        <ele>412.399993896484375</ele>
        <time>2018-08-17T07:07:50.000Z</time>
      </trkpt>
      <trkpt lat="49.26203238777816295623779296875" lon="10.910071246325969696044921875">
        <ele>413.399993896484375</ele>
        <time>2018-08-17T07:07:58.000Z</time>
      </trkpt>
      <trkpt lat="49.26208200864493846893310546875" lon="10.91015313751995563507080078125">
        <ele>413.399993896484375</ele>
        <time>2018-08-17T07:07:59.000Z</time>
      </trkpt>
      <trkpt lat="49.262544773519039154052734375" lon="10.91074003838002681732177734375">
        <ele>413.399993896484375</ele>
        <time>2018-08-17T07:08:07.000Z</time>
      </trkpt>
      <trkpt lat="49.26302664913237094879150390625" lon="10.91129131615161895751953125">
        <ele>413.20001220703125</ele>
        <time>2018-08-17T07:08:15.000Z</time>
      </trkpt>
      <trkpt lat="49.26331548951566219329833984375" lon="10.9116545878350734710693359375">
        <ele>413.20001220703125</ele>
        <time>2018-08-17T07:08:20.000Z</time>
      </trkpt>
      <trkpt lat="49.26344607956707477569580078125" lon="10.912296138703823089599609375">
        <ele>413</ele>
        <time>2018-08-17T07:08:26.000Z</time>
      </trkpt>
      <trkpt lat="49.26343183033168315887451171875" lon="10.9131754003465175628662109375">
        <ele>413</ele>
        <time>2018-08-17T07:08:34.000Z</time>
      </trkpt>
      <trkpt lat="49.263465106487274169921875" lon="10.91405994258821010589599609375">
        <ele>413</ele>
        <time>2018-08-17T07:08:42.000Z</time>
      </trkpt>
      <trkpt lat="49.263724945485591888427734375" lon="10.914595127105712890625">
        <ele>413</ele>
        <time>2018-08-17T07:08:48.000Z</time>
      </trkpt>
      <trkpt lat="49.26413574256002902984619140625" lon="10.91515428386628627777099609375">
        <ele>412.399993896484375</ele>
        <time>2018-08-17T07:08:55.000Z</time>
      </trkpt>
      <trkpt lat="49.264247305691242218017578125" lon="10.915336422622203826904296875">
        <ele>412.399993896484375</ele>
        <time>2018-08-17T07:08:57.000Z</time>
      </trkpt>
      <trkpt lat="49.26462558098137378692626953125" lon="10.9160158596932888031005859375">
        <ele>412.20001220703125</ele>
        <time>2018-08-17T07:09:04.000Z</time>
      </trkpt>
      <trkpt lat="49.26509178243577480316162109375" lon="10.91661239974200725555419921875">
        <ele>411.79998779296875</ele>
        <time>2018-08-17T07:09:11.000Z</time>
      </trkpt>
      <trkpt lat="49.26529697142541408538818359375" lon="10.91685446910560131072998046875">
        <ele>411.600006103515625</ele>
        <time>2018-08-17T07:09:14.000Z</time>
      </trkpt>
      <trkpt lat="49.26571371965110301971435546875" lon="10.9173425473272800445556640625">
        <ele>410.600006103515625</ele>
        <time>2018-08-17T07:09:20.000Z</time>
      </trkpt>
      <trkpt lat="49.26620439626276493072509765625" lon="10.91792047955095767974853515625">
        <ele>409.600006103515625</ele>
        <time>2018-08-17T07:09:27.000Z</time>
      </trkpt>
      <trkpt lat="49.2662765644490718841552734375" lon="10.91800664551556110382080078125">
        <ele>409.399993896484375</ele>
        <time>2018-08-17T07:09:28.000Z</time>
      </trkpt>
      <trkpt lat="49.266729690134525299072265625" lon="10.918549038469791412353515625">
        <ele>408.600006103515625</ele>
        <time>2018-08-17T07:09:34.000Z</time>
      </trkpt>
      <trkpt lat="49.266807474195957183837890625" lon="10.91864283196628093719482421875">
        <ele>408.20001220703125</ele>
        <time>2018-08-17T07:09:35.000Z</time>
      </trkpt>
      <trkpt lat="49.2671995796263217926025390625" lon="10.91911054216325283050537109375">
        <ele>407</ele>
        <time>2018-08-17T07:09:40.000Z</time>
      </trkpt>
      <trkpt lat="49.26735791377723217010498046875" lon="10.919302739202976226806640625">
        <ele>405.79998779296875</ele>
        <time>2018-08-17T07:09:42.000Z</time>
      </trkpt>
      <trkpt lat="49.2676796950399875640869140625" lon="10.91969199478626251220703125">
        <ele>404.79998779296875</ele>
        <time>2018-08-17T07:09:46.000Z</time>
      </trkpt>
      <trkpt lat="49.268001057207584381103515625" lon="10.92010639607906341552734375">
        <ele>403.600006103515625</ele>
        <time>2018-08-17T07:09:50.000Z</time>
      </trkpt>
      <trkpt lat="49.26822192035615444183349609375" lon="10.9204646386206150054931640625">
        <ele>402.600006103515625</ele>
        <time>2018-08-17T07:09:53.000Z</time>
      </trkpt>
      <trkpt lat="49.26848159171640872955322265625" lon="10.920999906957149505615234375">
        <ele>401.399993896484375</ele>
        <time>2018-08-17T07:09:57.000Z</time>
      </trkpt>
      <trkpt lat="49.26873237825930118560791015625" lon="10.92155420221388339996337890625">
        <ele>400</ele>
        <time>2018-08-17T07:10:01.000Z</time>
      </trkpt>
      <trkpt lat="49.26898601464927196502685546875" lon="10.92211243696510791778564453125">
        <ele>398.79998779296875</ele>
        <time>2018-08-17T07:10:05.000Z</time>
      </trkpt>
      <trkpt lat="49.2691787146031856536865234375" lon="10.92252884991466999053955078125">
        <ele>397.399993896484375</ele>
        <time>2018-08-17T07:10:08.000Z</time>
      </trkpt>
      <trkpt lat="49.26937761716544628143310546875" lon="10.92296026647090911865234375">
        <ele>396.20001220703125</ele>
        <time>2018-08-17T07:10:11.000Z</time>
      </trkpt>
      <trkpt lat="49.26958716474473476409912109375" lon="10.92340341769158840179443359375">
        <ele>395</ele>
        <time>2018-08-17T07:10:14.000Z</time>
      </trkpt>
      <trkpt lat="49.26979889161884784698486328125" lon="10.92385956086218357086181640625">
        <ele>393.399993896484375</ele>
        <time>2018-08-17T07:10:17.000Z</time>
      </trkpt>
      <trkpt lat="49.27001464180648326873779296875" lon="10.92431888915598392486572265625">
        <ele>391.79998779296875</ele>
        <time>2018-08-17T07:10:20.000Z</time>
      </trkpt>
      <trkpt lat="49.270163588225841522216796875" lon="10.924618206918239593505859375">
        <ele>390.399993896484375</ele>
        <time>2018-08-17T07:10:22.000Z</time>
      </trkpt>
      <trkpt lat="49.27038855850696563720703125" lon="10.92507862485945224761962890625">
        <ele>388.79998779296875</ele>
        <time>2018-08-17T07:10:25.000Z</time>
      </trkpt>
      <trkpt lat="49.27054278552532196044921875" lon="10.92537827789783477783203125">
        <ele>387.399993896484375</ele>
        <time>2018-08-17T07:10:27.000Z</time>
      </trkpt>
      <trkpt lat="49.27071268670260906219482421875" lon="10.92566133476793766021728515625">
        <ele>386.399993896484375</ele>
        <time>2018-08-17T07:10:29.000Z</time>
      </trkpt>
      <trkpt lat="49.27080706693232059478759765625" lon="10.92577851377427577972412109375">
        <ele>385.79998779296875</ele>
        <time>2018-08-17T07:10:30.000Z</time>
      </trkpt>
      <trkpt lat="49.270909242331981658935546875" lon="10.92587758786976337432861328125">
        <ele>385</ele>
        <time>2018-08-17T07:10:31.000Z</time>
      </trkpt>
      <trkpt lat="49.2711410857737064361572265625" lon="10.9259904921054840087890625">
        <ele>383.79998779296875</ele>
        <time>2018-08-17T07:10:33.000Z</time>
      </trkpt>
      <trkpt lat="49.27137049846351146697998046875" lon="10.925964005291461944580078125">
        <ele>382</ele>
        <time>2018-08-17T07:10:35.000Z</time>
      </trkpt>
      <trkpt lat="49.27159764803946018218994140625" lon="10.92581589706242084503173828125">
        <ele>380.600006103515625</ele>
        <time>2018-08-17T07:10:37.000Z</time>
      </trkpt>
      <trkpt lat="49.271819852292537689208984375" lon="10.92560752294957637786865234375">
        <ele>379.20001220703125</ele>
        <time>2018-08-17T07:10:39.000Z</time>
      </trkpt>
      <trkpt lat="49.27203945815563201904296875" lon="10.9253814630210399627685546875">
        <ele>377.79998779296875</ele>
        <time>2018-08-17T07:10:41.000Z</time>
      </trkpt>
      <trkpt lat="49.27225001156330108642578125" lon="10.92516479082405567169189453125">
        <ele>376.399993896484375</ele>
        <time>2018-08-17T07:10:43.000Z</time>
      </trkpt>
      <trkpt lat="49.2724598944187164306640625" lon="10.924953483045101165771484375">
        <ele>375</ele>
        <time>2018-08-17T07:10:45.000Z</time>
      </trkpt>
      <trkpt lat="49.2726662568747997283935546875" lon="10.924747288227081298828125">
        <ele>373.79998779296875</ele>
        <time>2018-08-17T07:10:47.000Z</time>
      </trkpt>
      <trkpt lat="49.2728781513869762420654296875" lon="10.9245570190250873565673828125">
        <ele>372.600006103515625</ele>
        <time>2018-08-17T07:10:49.000Z</time>
      </trkpt>
      <trkpt lat="49.272987283766269683837890625" lon="10.92448065988719463348388671875">
        <ele>372</ele>
        <time>2018-08-17T07:10:50.000Z</time>
      </trkpt>
      <trkpt lat="49.27320596762001514434814453125" lon="10.92436465434730052947998046875">
        <ele>371.20001220703125</ele>
        <time>2018-08-17T07:10:52.000Z</time>
      </trkpt>
      <trkpt lat="49.27353219129145145416259765625" lon="10.9244084917008876800537109375">
        <ele>369.79998779296875</ele>
        <time>2018-08-17T07:10:55.000Z</time>
      </trkpt>
      <trkpt lat="49.27385103888809680938720703125" lon="10.92501726932823657989501953125">
        <ele>368.600006103515625</ele>
        <time>2018-08-17T07:11:00.000Z</time>
      </trkpt>
      <trkpt lat="49.274089671671390533447265625" lon="10.92569150961935520172119140625">
        <ele>367.399993896484375</ele>
        <time>2018-08-17T07:11:05.000Z</time>
      </trkpt>
      <trkpt lat="49.274323694407939910888671875" lon="10.9264915622770786285400390625">
        <ele>367</ele>
        <time>2018-08-17T07:11:11.000Z</time>
      </trkpt>
      <trkpt lat="49.2744767479598522186279296875" lon="10.92739890329539775848388671875">
        <ele>366.600006103515625</ele>
        <time>2018-08-17T07:11:18.000Z</time>
      </trkpt>
      <trkpt lat="49.274646230041980743408203125" lon="10.9282360039651393890380859375">
        <ele>366.600006103515625</ele>
        <time>2018-08-17T07:11:25.000Z</time>
      </trkpt>
      <trkpt lat="49.27485644817352294921875" lon="10.9291244857013225555419921875">
        <ele>366.399993896484375</ele>
        <time>2018-08-17T07:11:32.000Z</time>
      </trkpt>
      <trkpt lat="49.27490984089672565460205078125" lon="10.92938147485256195068359375">
        <ele>366.20001220703125</ele>
        <time>2018-08-17T07:11:34.000Z</time>
      </trkpt>
      <trkpt lat="49.27511586807668209075927734375" lon="10.93020130880177021026611328125">
        <ele>365.399993896484375</ele>
        <time>2018-08-17T07:11:41.000Z</time>
      </trkpt>
      <trkpt lat="49.27529926411807537078857421875" lon="10.93107369728386402130126953125">
        <ele>365.79998779296875</ele>
        <time>2018-08-17T07:11:49.000Z</time>
      </trkpt>
      <trkpt lat="49.275417029857635498046875" lon="10.9319247119128704071044921875">
        <ele>366.20001220703125</ele>
        <time>2018-08-17T07:11:57.000Z</time>
      </trkpt>
      <trkpt lat="49.275488443672657012939453125" lon="10.932173319160938262939453125">
        <ele>366.399993896484375</ele>
        <time>2018-08-17T07:12:00.000Z</time>
      </trkpt>
      <trkpt lat="49.2756235599517822265625" lon="10.93237540684640407562255859375">
        <ele>366.79998779296875</ele>
        <time>2018-08-17T07:12:04.000Z</time>
      </trkpt>
      <trkpt lat="49.2756944708526134490966796875" lon="10.93242050148546695709228515625">
        <ele>367.399993896484375</ele>
        <time>2018-08-17T07:12:06.000Z</time>
      </trkpt>
      <trkpt lat="49.2757923714816570281982421875" lon="10.932448245584964752197265625">
        <ele>368.399993896484375</ele>
        <time>2018-08-17T07:12:09.000Z</time>
      </trkpt>
      <trkpt lat="49.2758926190435886383056640625" lon="10.9324443899095058441162109375">
        <ele>369.79998779296875</ele>
        <time>2018-08-17T07:12:12.000Z</time>
      </trkpt>
      <trkpt lat="49.27598171867430210113525390625" lon="10.932432152330875396728515625">
        <ele>370.79998779296875</ele>
        <time>2018-08-17T07:12:15.000Z</time>
      </trkpt>
      <trkpt lat="49.27606805227696895599365234375" lon="10.9324036538600921630859375">
        <ele>371.79998779296875</ele>
        <time>2018-08-17T07:12:18.000Z</time>
      </trkpt>
      <trkpt lat="49.27609705366194248199462890625" lon="10.93238663859665393829345703125">
        <ele>372</ele>
        <time>2018-08-17T07:12:19.000Z</time>
      </trkpt>
      <trkpt lat="49.2762243747711181640625" lon="10.93231069855391979217529296875">
        <ele>373.600006103515625</ele>
        <time>2018-08-17T07:12:23.000Z</time>
      </trkpt>
      <trkpt lat="49.276309199631214141845703125" lon="10.932232327759265899658203125">
        <ele>374.79998779296875</ele>
        <time>2018-08-17T07:12:26.000Z</time>
      </trkpt>
      <trkpt lat="49.2763844691216945648193359375" lon="10.93212545849382877349853515625">
        <ele>375.79998779296875</ele>
        <time>2018-08-17T07:12:29.000Z</time>
      </trkpt>
      <trkpt lat="49.27648832090198993682861328125" lon="10.931978188455104827880859375">
        <ele>377</ele>
        <time>2018-08-17T07:12:33.000Z</time>
      </trkpt>
      <trkpt lat="49.276588819921016693115234375" lon="10.9318268112838268280029296875">
        <ele>378</ele>
        <time>2018-08-17T07:12:37.000Z</time>
      </trkpt>
      <trkpt lat="49.27669501863420009613037109375" lon="10.93168817460536956787109375">
        <ele>379</ele>
        <time>2018-08-17T07:12:41.000Z</time>
      </trkpt>
      <trkpt lat="49.27682057954370975494384765625" lon="10.9316165931522846221923828125">
        <ele>380.20001220703125</ele>
        <time>2018-08-17T07:12:45.000Z</time>
      </trkpt>
      <trkpt lat="49.27695837803184986114501953125" lon="10.93162070028483867645263671875">
        <ele>381.600006103515625</ele>
        <time>2018-08-17T07:12:49.000Z</time>
      </trkpt>
      <trkpt lat="49.277095757424831390380859375" lon="10.93167199753224849700927734375">
        <ele>382.600006103515625</ele>
        <time>2018-08-17T07:12:53.000Z</time>
      </trkpt>
      <trkpt lat="49.277262054383754730224609375" lon="10.93177375383675098419189453125">
        <ele>384</ele>
        <time>2018-08-17T07:12:58.000Z</time>
      </trkpt>
      <trkpt lat="49.27744016982614994049072265625" lon="10.93191943131387233734130859375">
        <ele>385</ele>
        <time>2018-08-17T07:13:03.000Z</time>
      </trkpt>
      <trkpt lat="49.2775736935436725616455078125" lon="10.932064689695835113525390625">
        <ele>386.20001220703125</ele>
        <time>2018-08-17T07:13:07.000Z</time>
      </trkpt>
      <trkpt lat="49.27770419977605342864990234375" lon="10.9322127141058444976806640625">
        <ele>387.20001220703125</ele>
        <time>2018-08-17T07:13:11.000Z</time>
      </trkpt>
      <trkpt lat="49.27787703461945056915283203125" lon="10.93240994028747081756591796875">
        <ele>388.600006103515625</ele>
        <time>2018-08-17T07:13:16.000Z</time>
      </trkpt>
      <trkpt lat="49.2780578322708606719970703125" lon="10.9326066635549068450927734375">
        <ele>389.79998779296875</ele>
        <time>2018-08-17T07:13:21.000Z</time>
      </trkpt>
      <trkpt lat="49.27828137762844562530517578125" lon="10.93286164104938507080078125">
        <ele>391</ele>
        <time>2018-08-17T07:13:27.000Z</time>
      </trkpt>
      <trkpt lat="49.278536103665828704833984375" lon="10.9331358969211578369140625">
        <ele>392</ele>
        <time>2018-08-17T07:13:33.000Z</time>
      </trkpt>
      <trkpt lat="49.27904161624610424041748046875" lon="10.93360000289976596832275390625">
        <ele>392.79998779296875</ele>
        <time>2018-08-17T07:13:43.000Z</time>
      </trkpt>
      <trkpt lat="49.27955903112888336181640625" lon="10.93404139392077922821044921875">
        <ele>393</ele>
        <time>2018-08-17T07:13:52.000Z</time>
      </trkpt>
      <trkpt lat="49.28007862530648708343505859375" lon="10.93442193232476711273193359375">
        <ele>392.79998779296875</ele>
        <time>2018-08-17T07:14:00.000Z</time>
      </trkpt>
      <trkpt lat="49.28025028668344020843505859375" lon="10.9345995448529720306396484375">
        <ele>392.79998779296875</ele>
        <time>2018-08-17T07:14:03.000Z</time>
      </trkpt>
      <trkpt lat="49.28052596747875213623046875" lon="10.9350015409290790557861328125">
        <ele>392.399993896484375</ele>
        <time>2018-08-17T07:14:10.000Z</time>
      </trkpt>
      <trkpt lat="49.2806729860603809356689453125" lon="10.93512182123959064483642578125">
        <ele>392</ele>
        <time>2018-08-17T07:14:14.000Z</time>
      </trkpt>
      <trkpt lat="49.28101253695785999298095703125" lon="10.93553320504724979400634765625">
        <ele>392.20001220703125</ele>
        <time>2018-08-17T07:14:22.000Z</time>
      </trkpt>
      <trkpt lat="49.281245805323123931884765625" lon="10.93556622974574565887451171875">
        <ele>392.79998779296875</ele>
        <time>2018-08-17T07:14:26.000Z</time>
      </trkpt>
      <trkpt lat="49.2817250825464725494384765625" lon="10.93553488142788410186767578125">
        <ele>393.20001220703125</ele>
        <time>2018-08-17T07:14:34.000Z</time>
      </trkpt>
      <trkpt lat="49.28213403560221195220947265625" lon="10.935454331338405609130859375">
        <ele>393.79998779296875</ele>
        <time>2018-08-17T07:14:41.000Z</time>
      </trkpt>
      <trkpt lat="49.28237409330904483795166015625" lon="10.93558936379849910736083984375">
        <ele>394.399993896484375</ele>
        <time>2018-08-17T07:14:46.000Z</time>
      </trkpt>
      <trkpt lat="49.28248590789735317230224609375" lon="10.9357431717216968536376953125">
        <ele>394.79998779296875</ele>
        <time>2018-08-17T07:14:49.000Z</time>
      </trkpt>
      <trkpt lat="49.282606355845928192138671875" lon="10.9360177628695964813232421875">
        <ele>395.399993896484375</ele>
        <time>2018-08-17T07:14:53.000Z</time>
      </trkpt>
      <trkpt lat="49.2827010713517665863037109375" lon="10.936244241893291473388671875">
        <ele>396.600006103515625</ele>
        <time>2018-08-17T07:14:56.000Z</time>
      </trkpt>
      <trkpt lat="49.28282772190868854522705078125" lon="10.9365749917924404144287109375">
        <ele>397.79998779296875</ele>
        <time>2018-08-17T07:15:00.000Z</time>
      </trkpt>
      <trkpt lat="49.28313382901251316070556640625" lon="10.93736113049089908599853515625">
        <ele>398.600006103515625</ele>
        <time>2018-08-17T07:15:09.000Z</time>
      </trkpt>
      <trkpt lat="49.28320683538913726806640625" lon="10.93754100613296031951904296875">
        <ele>398.79998779296875</ele>
        <time>2018-08-17T07:15:11.000Z</time>
      </trkpt>
      <trkpt lat="49.283496178686618804931640625" lon="10.93824039213359355926513671875">
        <ele>399</ele>
        <time>2018-08-17T07:15:19.000Z</time>
      </trkpt>
      <trkpt lat="49.2837142758071422576904296875" lon="10.9387606568634510040283203125">
        <ele>399.79998779296875</ele>
        <time>2018-08-17T07:15:25.000Z</time>
      </trkpt>
      <trkpt lat="49.28402423858642578125" lon="10.93954310752451419830322265625">
        <ele>400.399993896484375</ele>
        <time>2018-08-17T07:15:34.000Z</time>
      </trkpt>
      <trkpt lat="49.284156672656536102294921875" lon="10.9398932196199893951416015625">
        <ele>400.79998779296875</ele>
        <time>2018-08-17T07:15:38.000Z</time>
      </trkpt>
      <trkpt lat="49.28442656993865966796875" lon="10.94062923453748226165771484375">
        <ele>401.79998779296875</ele>
        <time>2018-08-17T07:15:46.000Z</time>
      </trkpt>
      <trkpt lat="49.2846976406872272491455078125" lon="10.94139651395380496978759765625">
        <ele>402.600006103515625</ele>
        <time>2018-08-17T07:15:54.000Z</time>
      </trkpt>
      <trkpt lat="49.284799061715602874755859375" lon="10.94168216921389102935791015625">
        <ele>402.79998779296875</ele>
        <time>2018-08-17T07:15:57.000Z</time>
      </trkpt>
      <trkpt lat="49.28506686352193355560302734375" lon="10.94243687577545642852783203125">
        <ele>403.399993896484375</ele>
        <time>2018-08-17T07:16:05.000Z</time>
      </trkpt>
      <trkpt lat="49.2853168956935405731201171875" lon="10.94321572221815586090087890625">
        <ele>403.600006103515625</ele>
        <time>2018-08-17T07:16:13.000Z</time>
      </trkpt>
      <trkpt lat="49.28558369167149066925048828125" lon="10.9439939819276332855224609375">
        <ele>403.600006103515625</ele>
        <time>2018-08-17T07:16:21.000Z</time>
      </trkpt>
      <trkpt lat="49.2858379147946834564208984375" lon="10.94480224885046482086181640625">
        <ele>403.600006103515625</ele>
        <time>2018-08-17T07:16:29.000Z</time>
      </trkpt>
      <trkpt lat="49.28609163500368595123291015625" lon="10.9456271119415760040283203125">
        <ele>403.399993896484375</ele>
        <time>2018-08-17T07:16:37.000Z</time>
      </trkpt>
      <trkpt lat="49.286362119019031524658203125" lon="10.9464616142213344573974609375">
        <ele>403.20001220703125</ele>
        <time>2018-08-17T07:16:45.000Z</time>
      </trkpt>
      <trkpt lat="49.2865936271846294403076171875" lon="10.947206430137157440185546875">
        <ele>403</ele>
        <time>2018-08-17T07:16:52.000Z</time>
      </trkpt>
      <trkpt lat="49.2868392169475555419921875" lon="10.948007404804229736328125">
        <ele>402.79998779296875</ele>
        <time>2018-08-17T07:16:59.000Z</time>
      </trkpt>
      <trkpt lat="49.2871020734310150146484375" lon="10.9488139115273952484130859375">
        <ele>402.20001220703125</ele>
        <time>2018-08-17T07:17:06.000Z</time>
      </trkpt>
      <trkpt lat="49.287369288504123687744140625" lon="10.94960264861583709716796875">
        <ele>402</ele>
        <time>2018-08-17T07:17:13.000Z</time>
      </trkpt>
      <trkpt lat="49.287634827196598052978515625" lon="10.95037839375436305999755859375">
        <ele>401.79998779296875</ele>
        <time>2018-08-17T07:17:20.000Z</time>
      </trkpt>
      <trkpt lat="49.28790765814483165740966796875" lon="10.95121691934764385223388671875">
        <ele>401.600006103515625</ele>
        <time>2018-08-17T07:17:28.000Z</time>
      </trkpt>
      <trkpt lat="49.28812064230442047119140625" lon="10.95187406055629253387451171875">
        <ele>401.399993896484375</ele>
        <time>2018-08-17T07:17:34.000Z</time>
      </trkpt>
      <trkpt lat="49.2883809842169284820556640625" lon="10.9526947326958179473876953125">
        <ele>401</ele>
        <time>2018-08-17T07:17:41.000Z</time>
      </trkpt>
      <trkpt lat="49.28859916515648365020751953125" lon="10.95330585725605487823486328125">
        <ele>400.20001220703125</ele>
        <time>2018-08-17T07:17:46.000Z</time>
      </trkpt>
      <trkpt lat="49.28882111795246601104736328125" lon="10.953894518315792083740234375">
        <ele>399</ele>
        <time>2018-08-17T07:17:51.000Z</time>
      </trkpt>
      <trkpt lat="49.2891068570315837860107421875" lon="10.9545855224132537841796875">
        <ele>398</ele>
        <time>2018-08-17T07:17:57.000Z</time>
      </trkpt>
      <trkpt lat="49.28944833576679229736328125" lon="10.95535154454410076141357421875">
        <ele>397.20001220703125</ele>
        <time>2018-08-17T07:18:04.000Z</time>
      </trkpt>
      <trkpt lat="49.28959560580551624298095703125" lon="10.9556744992733001708984375">
        <ele>397</ele>
        <time>2018-08-17T07:18:07.000Z</time>
      </trkpt>
      <trkpt lat="49.28995954804122447967529296875" lon="10.956434905529022216796875">
        <ele>396.20001220703125</ele>
        <time>2018-08-17T07:18:14.000Z</time>
      </trkpt>
      <trkpt lat="49.2900747992098331451416015625" lon="10.95665995962917804718017578125">
        <ele>395.79998779296875</ele>
        <time>2018-08-17T07:18:16.000Z</time>
      </trkpt>
      <trkpt lat="49.290449805557727813720703125" lon="10.9573222137987613677978515625">
        <ele>395</ele>
        <time>2018-08-17T07:18:22.000Z</time>
      </trkpt>
      <trkpt lat="49.2905076406896114349365234375" lon="10.95743511803448200225830078125">
        <ele>394.600006103515625</ele>
        <time>2018-08-17T07:18:23.000Z</time>
      </trkpt>
      <trkpt lat="49.29068089462816715240478515625" lon="10.9577738307416439056396484375">
        <ele>393.399993896484375</ele>
        <time>2018-08-17T07:18:26.000Z</time>
      </trkpt>
      <trkpt lat="49.2908583395183086395263671875" lon="10.9581206738948822021484375">
        <ele>392.399993896484375</ele>
        <time>2018-08-17T07:18:29.000Z</time>
      </trkpt>
      <trkpt lat="49.291084147989749908447265625" lon="10.9585751406848430633544921875">
        <ele>391</ele>
        <time>2018-08-17T07:18:33.000Z</time>
      </trkpt>
      <trkpt lat="49.2912784405052661895751953125" lon="10.959090292453765869140625">
        <ele>389.79998779296875</ele>
        <time>2018-08-17T07:18:37.000Z</time>
      </trkpt>
      <trkpt lat="49.2915047518908977508544921875" lon="10.95957719720900058746337890625">
        <ele>388.600006103515625</ele>
        <time>2018-08-17T07:18:41.000Z</time>
      </trkpt>
      <trkpt lat="49.2916757427155971527099609375" lon="10.9599065221846103668212890625">
        <ele>387.399993896484375</ele>
        <time>2018-08-17T07:18:44.000Z</time>
      </trkpt>
      <trkpt lat="49.291788898408412933349609375" lon="10.9601200930774211883544921875">
        <ele>386.399993896484375</ele>
        <time>2018-08-17T07:18:46.000Z</time>
      </trkpt>
      <trkpt lat="49.29214663803577423095703125" lon="10.96080833114683628082275390625">
        <ele>385.600006103515625</ele>
        <time>2018-08-17T07:18:53.000Z</time>
      </trkpt>
      <trkpt lat="49.2924787290394306182861328125" lon="10.9614841639995574951171875">
        <ele>385.600006103515625</ele>
        <time>2018-08-17T07:19:00.000Z</time>
      </trkpt>
      <trkpt lat="49.2928371392190456390380859375" lon="10.9622407145798206329345703125">
        <ele>385.79998779296875</ele>
        <time>2018-08-17T07:19:08.000Z</time>
      </trkpt>
      <trkpt lat="49.293222539126873016357421875" lon="10.96296784467995166778564453125">
        <ele>386</ele>
        <time>2018-08-17T07:19:16.000Z</time>
      </trkpt>
      <trkpt lat="49.293490760028362274169921875" lon="10.963700674474239349365234375">
        <ele>386.20001220703125</ele>
        <time>2018-08-17T07:19:23.000Z</time>
      </trkpt>
      <trkpt lat="49.29378680884838104248046875" lon="10.96449234522879123687744140625">
        <ele>386.399993896484375</ele>
        <time>2018-08-17T07:19:31.000Z</time>
      </trkpt>
      <trkpt lat="49.2940605618059635162353515625" lon="10.96526498906314373016357421875">
        <ele>387.399993896484375</ele>
        <time>2018-08-17T07:19:40.000Z</time>
      </trkpt>
      <trkpt lat="49.2940843664109706878662109375" lon="10.9653423540294170379638671875">
        <ele>387.79998779296875</ele>
        <time>2018-08-17T07:19:41.000Z</time>
      </trkpt>
      <trkpt lat="49.2942137829959392547607421875" lon="10.965798832476139068603515625">
        <ele>389</ele>
        <time>2018-08-17T07:19:47.000Z</time>
      </trkpt>
      <trkpt lat="49.2942784912884235382080078125" lon="10.96610133536159992218017578125">
        <ele>390.20001220703125</ele>
        <time>2018-08-17T07:19:51.000Z</time>
      </trkpt>
      <trkpt lat="49.29435200057923793792724609375" lon="10.96640794537961483001708984375">
        <ele>391.399993896484375</ele>
        <time>2018-08-17T07:19:55.000Z</time>
      </trkpt>
      <trkpt lat="49.2944313772022724151611328125" lon="10.966718159615993499755859375">
        <ele>392.399993896484375</ele>
        <time>2018-08-17T07:19:59.000Z</time>
      </trkpt>
      <trkpt lat="49.2944816686213016510009765625" lon="10.9669617377221584320068359375">
        <ele>393.20001220703125</ele>
        <time>2018-08-17T07:20:02.000Z</time>
      </trkpt>
      <trkpt lat="49.29452500306069850921630859375" lon="10.9671313874423503875732421875">
        <ele>393.600006103515625</ele>
        <time>2018-08-17T07:20:04.000Z</time>
      </trkpt>
      <trkpt lat="49.2947109974920749664306640625" lon="10.967907719314098358154296875">
        <ele>394.20001220703125</ele>
        <time>2018-08-17T07:20:13.000Z</time>
      </trkpt>
      <trkpt lat="49.29478785954415798187255859375" lon="10.96821407787501811981201171875">
        <ele>394.600006103515625</ele>
        <time>2018-08-17T07:20:17.000Z</time>
      </trkpt>
      <trkpt lat="49.29490000940859317779541015625" lon="10.96877851523458957672119140625">
        <ele>395.399993896484375</ele>
        <time>2018-08-17T07:20:24.000Z</time>
      </trkpt>
      <trkpt lat="49.2949691601097583770751953125" lon="10.9691138751804828643798828125">
        <ele>396.399993896484375</ele>
        <time>2018-08-17T07:20:28.000Z</time>
      </trkpt>
      <trkpt lat="49.29508793167769908905029296875" lon="10.9696298651397228240966796875">
        <ele>397.600006103515625</ele>
        <time>2018-08-17T07:20:34.000Z</time>
      </trkpt>
      <trkpt lat="49.29534190334379673004150390625" lon="10.970484651625156402587890625">
        <ele>398.600006103515625</ele>
        <time>2018-08-17T07:20:43.000Z</time>
      </trkpt>
      <trkpt lat="49.2955639399588108062744140625" lon="10.971381179988384246826171875">
        <ele>398.20001220703125</ele>
        <time>2018-08-17T07:20:50.000Z</time>
      </trkpt>
      <trkpt lat="49.29568170569837093353271484375" lon="10.97189314663410186767578125">
        <ele>396.600006103515625</ele>
        <time>2018-08-17T07:20:54.000Z</time>
      </trkpt>
      <trkpt lat="49.295885302126407623291015625" lon="10.9727774374186992645263671875">
        <ele>395.79998779296875</ele>
        <time>2018-08-17T07:21:01.000Z</time>
      </trkpt>
      <trkpt lat="49.2959176562726497650146484375" lon="10.9729065187275409698486328125">
        <ele>395.399993896484375</ele>
        <time>2018-08-17T07:21:02.000Z</time>
      </trkpt>
      <trkpt lat="49.29608604870736598968505859375" lon="10.97355703823268413543701171875">
        <ele>394.399993896484375</ele>
        <time>2018-08-17T07:21:07.000Z</time>
      </trkpt>
      <trkpt lat="49.2963099293410778045654296875" lon="10.9743542410433292388916015625">
        <ele>393.600006103515625</ele>
        <time>2018-08-17T07:21:13.000Z</time>
      </trkpt>
      <trkpt lat="49.2964400164783000946044921875" lon="10.97474257461726665496826171875">
        <ele>393.20001220703125</ele>
        <time>2018-08-17T07:21:16.000Z</time>
      </trkpt>
      <trkpt lat="49.296616874635219573974609375" lon="10.9752447344362735748291015625">
        <ele>391.79998779296875</ele>
        <time>2018-08-17T07:21:20.000Z</time>
      </trkpt>
      <trkpt lat="49.29678828455507755279541015625" lon="10.97573448903858661651611328125">
        <ele>390.79998779296875</ele>
        <time>2018-08-17T07:21:24.000Z</time>
      </trkpt>
      <trkpt lat="49.29686724208295345306396484375" lon="10.97599416039884090423583984375">
        <ele>390.600006103515625</ele>
        <time>2018-08-17T07:21:26.000Z</time>
      </trkpt>
      <trkpt lat="49.29696715436875820159912109375" lon="10.97643270157277584075927734375">
        <ele>389.79998779296875</ele>
        <time>2018-08-17T07:21:30.000Z</time>
      </trkpt>
      <trkpt lat="49.2971873469650745391845703125" lon="10.97656287252902984619140625">
        <ele>388.399993896484375</ele>
        <time>2018-08-17T07:21:34.000Z</time>
      </trkpt>
      <trkpt lat="49.29729589261114597320556640625" lon="10.976701676845550537109375">
        <ele>387.399993896484375</ele>
        <time>2018-08-17T07:21:36.000Z</time>
      </trkpt>
      <trkpt lat="49.29739479906857013702392578125" lon="10.97687392495572566986083984375">
        <ele>386.399993896484375</ele>
        <time>2018-08-17T07:21:38.000Z</time>
      </trkpt>
      <trkpt lat="49.297487251460552215576171875" lon="10.97706151194870471954345703125">
        <ele>386.20001220703125</ele>
        <time>2018-08-17T07:21:40.000Z</time>
      </trkpt>
      <trkpt lat="49.29770157672464847564697265625" lon="10.9774052537977695465087890625">
        <ele>386.20001220703125</ele>
        <time>2018-08-17T07:21:44.000Z</time>
      </trkpt>
      <trkpt lat="49.29782797582447528839111328125" lon="10.9775500930845737457275390625">
        <ele>386</ele>
        <time>2018-08-17T07:21:46.000Z</time>
      </trkpt>
      <trkpt lat="49.29802562110126018524169921875" lon="10.97794949077069759368896484375">
        <ele>386</ele>
        <time>2018-08-17T07:21:50.000Z</time>
      </trkpt>
      <trkpt lat="49.29842627607285976409912109375" lon="10.9786605276167392730712890625">
        <ele>385.79998779296875</ele>
        <time>2018-08-17T07:21:57.000Z</time>
      </trkpt>
      <trkpt lat="49.2987195588648319244384765625" lon="10.97931926138699054718017578125">
        <ele>385.20001220703125</ele>
        <time>2018-08-17T07:22:03.000Z</time>
      </trkpt>
      <trkpt lat="49.29904687218368053436279296875" lon="10.980106405913829803466796875">
        <ele>384.600006103515625</ele>
        <time>2018-08-17T07:22:10.000Z</time>
      </trkpt>
      <trkpt lat="49.29921836592257022857666015625" lon="10.98057453520596027374267578125">
        <ele>384</ele>
        <time>2018-08-17T07:22:14.000Z</time>
      </trkpt>
      <trkpt lat="49.29949463345110416412353515625" lon="10.981426723301410675048828125">
        <ele>383.399993896484375</ele>
        <time>2018-08-17T07:22:21.000Z</time>
      </trkpt>
      <trkpt lat="49.2995703220367431640625" lon="10.98167457617819309234619140625">
        <ele>383</ele>
        <time>2018-08-17T07:22:23.000Z</time>
      </trkpt>
      <trkpt lat="49.29981532506644725799560546875" lon="10.9824563562870025634765625">
        <ele>382</ele>
        <time>2018-08-17T07:22:29.000Z</time>
      </trkpt>
      <trkpt lat="49.29985840804874897003173828125" lon="10.98259055055677890777587890625">
        <ele>381.79998779296875</ele>
        <time>2018-08-17T07:22:30.000Z</time>
      </trkpt>
      <trkpt lat="49.300078265368938446044921875" lon="10.98324199207127094268798828125">
        <ele>380.79998779296875</ele>
        <time>2018-08-17T07:22:35.000Z</time>
      </trkpt>
      <trkpt lat="49.300399124622344970703125" lon="10.98395160399377346038818359375">
        <ele>379.20001220703125</ele>
        <time>2018-08-17T07:22:41.000Z</time>
      </trkpt>
      <trkpt lat="49.30064563639461994171142578125" lon="10.9843833558261394500732421875">
        <ele>378.20001220703125</ele>
        <time>2018-08-17T07:22:45.000Z</time>
      </trkpt>
      <trkpt lat="49.30077002383768558502197265625" lon="10.9845996089279651641845703125">
        <ele>377.79998779296875</ele>
        <time>2018-08-17T07:22:47.000Z</time>
      </trkpt>
      <trkpt lat="49.3011523224413394927978515625" lon="10.98525532521307468414306640625">
        <ele>377.20001220703125</ele>
        <time>2018-08-17T07:22:53.000Z</time>
      </trkpt>
      <trkpt lat="49.30121652781963348388671875" lon="10.985366217792034149169921875">
        <ele>377</ele>
        <time>2018-08-17T07:22:54.000Z</time>
      </trkpt>
      <trkpt lat="49.30155180394649505615234375" lon="10.98593794740736484527587890625">
        <ele>375.79998779296875</ele>
        <time>2018-08-17T07:22:59.000Z</time>
      </trkpt>
      <trkpt lat="49.301901496946811676025390625" lon="10.986547060310840606689453125">
        <ele>374.79998779296875</ele>
        <time>2018-08-17T07:23:04.000Z</time>
      </trkpt>
      <trkpt lat="49.30211112834513187408447265625" lon="10.98691058345139026641845703125">
        <ele>373.20001220703125</ele>
        <time>2018-08-17T07:23:07.000Z</time>
      </trkpt>
      <trkpt lat="49.30235085077583789825439453125" lon="10.98739639855921268463134765625">
        <ele>372</ele>
        <time>2018-08-17T07:23:11.000Z</time>
      </trkpt>
      <trkpt lat="49.3024347536265850067138671875" lon="10.9876533038914203643798828125">
        <ele>371.20001220703125</ele>
        <time>2018-08-17T07:23:13.000Z</time>
      </trkpt>
      <trkpt lat="49.3024630844593048095703125" lon="10.9877817146480083465576171875">
        <ele>371</ele>
        <time>2018-08-17T07:23:14.000Z</time>
      </trkpt>
      <trkpt lat="49.30249870754778385162353515625" lon="10.98789989948272705078125">
        <ele>370.79998779296875</ele>
        <time>2018-08-17T07:23:15.000Z</time>
      </trkpt>
      <trkpt lat="49.3027281202375888824462890625" lon="10.98844371736049652099609375">
        <ele>370.20001220703125</ele>
        <time>2018-08-17T07:23:20.000Z</time>
      </trkpt>
      <trkpt lat="49.30275921709835529327392578125" lon="10.9885692782700061798095703125">
        <ele>370</ele>
        <time>2018-08-17T07:23:21.000Z</time>
      </trkpt>
      <trkpt lat="49.30291545577347278594970703125" lon="10.98920756019651889801025390625">
        <ele>369</ele>
        <time>2018-08-17T07:23:26.000Z</time>
      </trkpt>
      <trkpt lat="49.30306985042989253997802734375" lon="10.98981608636677265167236328125">
        <ele>367.79998779296875</ele>
        <time>2018-08-17T07:23:31.000Z</time>
      </trkpt>
      <trkpt lat="49.30332616902887821197509765625" lon="10.99064740352332592010498046875">
        <ele>366.79998779296875</ele>
        <time>2018-08-17T07:23:38.000Z</time>
      </trkpt>
      <trkpt lat="49.30368742905557155609130859375" lon="10.991411246359348297119140625">
        <ele>365.79998779296875</ele>
        <time>2018-08-17T07:23:45.000Z</time>
      </trkpt>
      <trkpt lat="49.30374048650264739990234375" lon="10.99151660688221454620361328125">
        <ele>365.600006103515625</ele>
        <time>2018-08-17T07:23:46.000Z</time>
      </trkpt>
      <trkpt lat="49.3040863238275051116943359375" lon="10.99224097095429897308349609375">
        <ele>364.600006103515625</ele>
        <time>2018-08-17T07:23:54.000Z</time>
      </trkpt>
      <trkpt lat="49.30442889221012592315673828125" lon="10.99293172359466552734375">
        <ele>363.79998779296875</ele>
        <time>2018-08-17T07:24:04.000Z</time>
      </trkpt>
      <trkpt lat="49.30479057133197784423828125" lon="10.9936651401221752166748046875">
        <ele>363.79998779296875</ele>
        <time>2018-08-17T07:24:12.000Z</time>
      </trkpt>
      <trkpt lat="49.3050492368638515472412109375" lon="10.9942344389855861663818359375">
        <ele>363.600006103515625</ele>
        <time>2018-08-17T07:24:18.000Z</time>
      </trkpt>
      <trkpt lat="49.305125176906585693359375" lon="10.9946746565401554107666015625">
        <ele>363.399993896484375</ele>
        <time>2018-08-17T07:24:26.000Z</time>
      </trkpt>
      <trkpt lat="49.3054116703569889068603515625" lon="10.99513658322393894195556640625">
        <ele>363</ele>
        <time>2018-08-17T07:24:35.000Z</time>
      </trkpt>
      <trkpt lat="49.30570227093994617462158203125" lon="10.99541603587567806243896484375">
        <ele>363</ele>
        <time>2018-08-17T07:24:41.000Z</time>
      </trkpt>
      <trkpt lat="49.30618087761104106903076171875" lon="10.99587469361722469329833984375">
        <ele>363.20001220703125</ele>
        <time>2018-08-17T07:24:50.000Z</time>
      </trkpt>
      <trkpt lat="49.30670969188213348388671875" lon="10.9962350316345691680908203125">
        <ele>363.600006103515625</ele>
        <time>2018-08-17T07:24:59.000Z</time>
      </trkpt>
      <trkpt lat="49.307205565273761749267578125" lon="10.99657290615141391754150390625">
        <ele>364.20001220703125</ele>
        <time>2018-08-17T07:25:08.000Z</time>
      </trkpt>
      <trkpt lat="49.30743179284036159515380859375" lon="10.9967319108545780181884765625">
        <ele>365</ele>
        <time>2018-08-17T07:25:12.000Z</time>
      </trkpt>
      <trkpt lat="49.3077711760997772216796875" lon="10.997011698782444000244140625">
        <ele>366</ele>
        <time>2018-08-17T07:25:18.000Z</time>
      </trkpt>
      <trkpt lat="49.30818222463130950927734375" lon="10.9974364936351776123046875">
        <ele>367</ele>
        <time>2018-08-17T07:25:26.000Z</time>
      </trkpt>
      <trkpt lat="49.30859662592411041259765625" lon="10.9979308582842350006103515625">
        <ele>368</ele>
        <time>2018-08-17T07:25:36.000Z</time>
      </trkpt>
      <trkpt lat="49.30904933251440525054931640625" lon="10.99851943552494049072265625">
        <ele>368.79998779296875</ele>
        <time>2018-08-17T07:25:46.000Z</time>
      </trkpt>
      <trkpt lat="49.30916525423526763916015625" lon="10.998679362237453460693359375">
        <ele>369</ele>
        <time>2018-08-17T07:25:49.000Z</time>
      </trkpt>
      <trkpt lat="49.30925854481756687164306640625" lon="10.9986946173012256622314453125">
        <ele>369</ele>
        <time>2018-08-17T07:25:51.000Z</time>
      </trkpt>
      <trkpt lat="49.3094690144062042236328125" lon="10.9988770075142383575439453125">
        <ele>369.20001220703125</ele>
        <time>2018-08-17T07:25:56.000Z</time>
      </trkpt>
      <trkpt lat="49.3097541667520999908447265625" lon="10.99927204661071300506591796875">
        <ele>369.20001220703125</ele>
        <time>2018-08-17T07:26:03.000Z</time>
      </trkpt>
      <trkpt lat="49.30999212898313999176025390625" lon="10.9993423707783222198486328125">
        <ele>369</ele>
        <time>2018-08-17T07:26:10.000Z</time>
      </trkpt>
      <trkpt lat="49.3100294284522533416748046875" lon="10.999382100999355316162109375">
        <ele>369</ele>
        <time>2018-08-17T07:26:11.000Z</time>
      </trkpt>
      <trkpt lat="49.310283400118350982666015625" lon="10.9996628947556018829345703125">
        <ele>369.20001220703125</ele>
        <time>2018-08-17T07:26:17.000Z</time>
      </trkpt>
      <trkpt lat="49.3105232901871204376220703125" lon="11.00002323277294635772705078125">
        <ele>369.600006103515625</ele>
        <time>2018-08-17T07:26:24.000Z</time>
      </trkpt>
      <trkpt lat="49.310787655413150787353515625" lon="11.0004169307649135589599609375">
        <ele>369.79998779296875</ele>
        <time>2018-08-17T07:26:32.000Z</time>
      </trkpt>
      <trkpt lat="49.3110124580562114715576171875" lon="11.0007401369512081146240234375">
        <ele>369.79998779296875</ele>
        <time>2018-08-17T07:26:37.000Z</time>
      </trkpt>
      <trkpt lat="49.3112649209797382354736328125" lon="11.0010532848536968231201171875">
        <ele>370</ele>
        <time>2018-08-17T07:26:44.000Z</time>
      </trkpt>
      <trkpt lat="49.311377070844173431396484375" lon="11.0010851360857486724853515625">
        <ele>370</ele>
        <time>2018-08-17T07:26:47.000Z</time>
      </trkpt>
      <trkpt lat="49.31150036863982677459716796875" lon="11.0012749023735523223876953125">
        <ele>370</ele>
        <time>2018-08-17T07:26:51.000Z</time>
      </trkpt>
      <trkpt lat="49.3118288554251194000244140625" lon="11.00199566222727298736572265625">
        <ele>370.20001220703125</ele>
        <time>2018-08-17T07:27:01.000Z</time>
      </trkpt>
      <trkpt lat="49.31205424480140209197998046875" lon="11.00250360555946826934814453125">
        <ele>370.20001220703125</ele>
        <time>2018-08-17T07:27:07.000Z</time>
      </trkpt>
      <trkpt lat="49.31231928057968616485595703125" lon="11.00324104540050029754638671875">
        <ele>370.399993896484375</ele>
        <time>2018-08-17T07:27:15.000Z</time>
      </trkpt>
      <trkpt lat="49.31252161972224712371826171875" lon="11.00405819714069366455078125">
        <ele>370.600006103515625</ele>
        <time>2018-08-17T07:27:23.000Z</time>
      </trkpt>
      <trkpt lat="49.31269638240337371826171875" lon="11.0049203597009181976318359375">
        <ele>371</ele>
        <time>2018-08-17T07:27:31.000Z</time>
      </trkpt>
      <trkpt lat="49.3128980509936809539794921875" lon="11.0057900659739971160888671875">
        <ele>371</ele>
        <time>2018-08-17T07:27:39.000Z</time>
      </trkpt>
      <trkpt lat="49.31295923888683319091796875" lon="11.005993075668811798095703125">
        <ele>371</ele>
        <time>2018-08-17T07:27:41.000Z</time>
      </trkpt>
      <trkpt lat="49.312955550849437713623046875" lon="11.006389372050762176513671875">
        <ele>371</ele>
        <time>2018-08-17T07:27:45.000Z</time>
      </trkpt>
      <trkpt lat="49.3133533559739589691162109375" lon="11.0069621913135051727294921875">
        <ele>370</ele>
        <time>2018-08-17T07:27:54.000Z</time>
      </trkpt>
      <trkpt lat="49.31373464874923229217529296875" lon="11.00768052041530609130859375">
        <ele>369.399993896484375</ele>
        <time>2018-08-17T07:28:02.000Z</time>
      </trkpt>
      <trkpt lat="49.313848055899143218994140625" lon="11.0078603960573673248291015625">
        <ele>369.20001220703125</ele>
        <time>2018-08-17T07:28:04.000Z</time>
      </trkpt>
      <trkpt lat="49.31428886018693447113037109375" lon="11.00845961831510066986083984375">
        <ele>368.20001220703125</ele>
        <time>2018-08-17T07:28:11.000Z</time>
      </trkpt>
      <trkpt lat="49.31473561562597751617431640625" lon="11.0090409033000469207763671875">
        <ele>367</ele>
        <time>2018-08-17T07:28:18.000Z</time>
      </trkpt>
      <trkpt lat="49.31498967111110687255859375" lon="11.0093791969120502471923828125">
        <ele>366</ele>
        <time>2018-08-17T07:28:22.000Z</time>
      </trkpt>
      <trkpt lat="49.31529946625232696533203125" lon="11.009795777499675750732421875">
        <ele>365</ele>
        <time>2018-08-17T07:28:27.000Z</time>
      </trkpt>
      <trkpt lat="49.31548948399722576141357421875" lon="11.01004631258547306060791015625">
        <ele>363.79998779296875</ele>
        <time>2018-08-17T07:28:31.000Z</time>
      </trkpt>
      <trkpt lat="49.31564840488135814666748046875" lon="11.0102478973567485809326171875">
        <ele>363.20001220703125</ele>
        <time>2018-08-17T07:28:35.000Z</time>
      </trkpt>
      <trkpt lat="49.31571730412542819976806640625" lon="11.01026616990566253662109375">
        <ele>362.79998779296875</ele>
        <time>2018-08-17T07:28:37.000Z</time>
      </trkpt>
      <trkpt lat="49.31573607958853244781494140625" lon="11.01027731783688068389892578125">
        <ele>362.600006103515625</ele>
        <time>2018-08-17T07:28:38.000Z</time>
      </trkpt>
      <trkpt lat="49.3157552741467952728271484375" lon="11.01038728840649127960205078125">
        <ele>361.600006103515625</ele>
        <time>2018-08-17T07:28:42.000Z</time>
      </trkpt>
      <trkpt lat="49.315816462039947509765625" lon="11.0104614682495594024658203125">
        <ele>361.20001220703125</ele>
        <time>2018-08-17T07:28:44.000Z</time>
      </trkpt>
      <trkpt lat="49.31585527025163173675537109375" lon="11.010509245097637176513671875">
        <ele>361.20001220703125</ele>
        <time>2018-08-17T07:28:45.000Z</time>
      </trkpt>
      <trkpt lat="49.31615014560520648956298828125" lon="11.0108966566622257232666015625">
        <ele>360.600006103515625</ele>
        <time>2018-08-17T07:28:51.000Z</time>
      </trkpt>
      <trkpt lat="49.316558428108692169189453125" lon="11.01145329885184764862060546875">
        <ele>360.20001220703125</ele>
        <time>2018-08-17T07:28:58.000Z</time>
      </trkpt>
      <trkpt lat="49.31675112806260585784912109375" lon="11.0117138922214508056640625">
        <ele>359.79998779296875</ele>
        <time>2018-08-17T07:29:01.000Z</time>
      </trkpt>
      <trkpt lat="49.31715823709964752197265625" lon="11.01222979836165904998779296875">
        <ele>358.600006103515625</ele>
        <time>2018-08-17T07:29:07.000Z</time>
      </trkpt>
      <trkpt lat="49.3174480833113193511962890625" lon="11.012539006769657135009765625">
        <ele>357.399993896484375</ele>
        <time>2018-08-17T07:29:11.000Z</time>
      </trkpt>
      <trkpt lat="49.31779601611196994781494140625" lon="11.012966819107532501220703125">
        <ele>356.399993896484375</ele>
        <time>2018-08-17T07:29:16.000Z</time>
      </trkpt>
      <trkpt lat="49.31815744377672672271728515625" lon="11.01339169777929782867431640625">
        <ele>355.399993896484375</ele>
        <time>2018-08-17T07:29:21.000Z</time>
      </trkpt>
      <trkpt lat="49.31821913458406925201416015625" lon="11.01348213851451873779296875">
        <ele>355.399993896484375</ele>
        <time>2018-08-17T07:29:22.000Z</time>
      </trkpt>
      <trkpt lat="49.31828199885785579681396484375" lon="11.013562940061092376708984375">
        <ele>355</ele>
        <time>2018-08-17T07:29:23.000Z</time>
      </trkpt>
      <trkpt lat="49.318574778735637664794921875" lon="11.01378698833286762237548828125">
        <ele>354.20001220703125</ele>
        <time>2018-08-17T07:29:27.000Z</time>
      </trkpt>
      <trkpt lat="49.318873845040798187255859375" lon="11.01396921090781688690185546875">
        <ele>353.20001220703125</ele>
        <time>2018-08-17T07:29:31.000Z</time>
      </trkpt>
      <trkpt lat="49.3190922774374485015869140625" lon="11.01409368216991424560546875">
        <ele>352.600006103515625</ele>
        <time>2018-08-17T07:29:34.000Z</time>
      </trkpt>
      <trkpt lat="49.3195965327322483062744140625" lon="11.0143188200891017913818359375">
        <ele>352</ele>
        <time>2018-08-17T07:29:41.000Z</time>
      </trkpt>
      <trkpt lat="49.3201276101171970367431640625" lon="11.014657281339168548583984375">
        <ele>351</ele>
        <time>2018-08-17T07:29:50.000Z</time>
      </trkpt>
      <trkpt lat="49.320640079677104949951171875" lon="11.01502667181193828582763671875">
        <ele>350</ele>
        <time>2018-08-17T07:29:57.000Z</time>
      </trkpt>
      <trkpt lat="49.32113553397357463836669921875" lon="11.01540519855916500091552734375">
        <ele>348.79998779296875</ele>
        <time>2018-08-17T07:30:04.000Z</time>
      </trkpt>
      <trkpt lat="49.32133150286972522735595703125" lon="11.01555657573044300079345703125">
        <ele>348</ele>
        <time>2018-08-17T07:30:07.000Z</time>
      </trkpt>
      <trkpt lat="49.3213936127722263336181640625" lon="11.015593707561492919921875">
        <ele>347.600006103515625</ele>
        <time>2018-08-17T07:30:08.000Z</time>
      </trkpt>
      <trkpt lat="49.321574158966541290283203125" lon="11.0156703181564807891845703125">
        <ele>346.399993896484375</ele>
        <time>2018-08-17T07:30:11.000Z</time>
      </trkpt>
      <trkpt lat="49.32183290831744670867919921875" lon="11.01581172086298465728759765625">
        <ele>346</ele>
        <time>2018-08-17T07:30:15.000Z</time>
      </trkpt>
      <trkpt lat="49.32209744118154048919677734375" lon="11.01599830202758312225341796875">
        <ele>345.20001220703125</ele>
        <time>2018-08-17T07:30:19.000Z</time>
      </trkpt>
      <trkpt lat="49.32235811837017536163330078125" lon="11.01616107858717441558837890625">
        <ele>344.20001220703125</ele>
        <time>2018-08-17T07:30:23.000Z</time>
      </trkpt>
      <trkpt lat="49.32273379527032375335693359375" lon="11.01636626757681369781494140625">
        <ele>343.20001220703125</ele>
        <time>2018-08-17T07:30:29.000Z</time>
      </trkpt>
      <trkpt lat="49.3230847455561161041259765625" lon="11.0165205784142017364501953125">
        <ele>342.20001220703125</ele>
        <time>2018-08-17T07:30:34.000Z</time>
      </trkpt>
      <trkpt lat="49.3236516974866390228271484375" lon="11.0167170502245426177978515625">
        <ele>341</ele>
        <time>2018-08-17T07:30:41.000Z</time>
      </trkpt>
      <trkpt lat="49.324051849544048309326171875" lon="11.0169014520943164825439453125">
        <ele>339.79998779296875</ele>
        <time>2018-08-17T07:30:46.000Z</time>
      </trkpt>
      <trkpt lat="49.324453175067901611328125" lon="11.0170670785009860992431640625">
        <ele>339</ele>
        <time>2018-08-17T07:30:51.000Z</time>
      </trkpt>
      <trkpt lat="49.32453297078609466552734375" lon="11.01711359806358814239501953125">
        <ele>338.79998779296875</ele>
        <time>2018-08-17T07:30:52.000Z</time>
      </trkpt>
      <trkpt lat="49.3249391578137874603271484375" lon="11.01728626526892185211181640625">
        <ele>337.79998779296875</ele>
        <time>2018-08-17T07:30:57.000Z</time>
      </trkpt>
      <trkpt lat="49.325075447559356689453125" lon="11.0173715092241764068603515625">
        <ele>337.20001220703125</ele>
        <time>2018-08-17T07:30:59.000Z</time>
      </trkpt>
      <trkpt lat="49.3251976557075977325439453125" lon="11.0176062025129795074462890625">
        <ele>336.600006103515625</ele>
        <time>2018-08-17T07:31:02.000Z</time>
      </trkpt>
      <trkpt lat="49.3253321014344692230224609375" lon="11.01797961629927158355712890625">
        <ele>335.600006103515625</ele>
        <time>2018-08-17T07:31:07.000Z</time>
      </trkpt>
      <trkpt lat="49.3255275674164295196533203125" lon="11.01857523433864116668701171875">
        <ele>334.600006103515625</ele>
        <time>2018-08-17T07:31:13.000Z</time>
      </trkpt>
      <trkpt lat="49.32574356906116008758544921875" lon="11.01918107829988002777099609375">
        <ele>333.600006103515625</ele>
        <time>2018-08-17T07:31:19.000Z</time>
      </trkpt>
      <trkpt lat="49.32594758458435535430908203125" lon="11.02006469853222370147705078125">
        <ele>333</ele>
        <time>2018-08-17T07:31:27.000Z</time>
      </trkpt>
      <trkpt lat="49.326064847409725189208984375" lon="11.02063450030982494354248046875">
        <ele>332.600006103515625</ele>
        <time>2018-08-17T07:31:32.000Z</time>
      </trkpt>
      <trkpt lat="49.32616735808551311492919921875" lon="11.02150102145969867706298828125">
        <ele>332.399993896484375</ele>
        <time>2018-08-17T07:31:40.000Z</time>
      </trkpt>
      <trkpt lat="49.32619719766080379486083984375" lon="11.02183747105300426483154296875">
        <ele>332.399993896484375</ele>
        <time>2018-08-17T07:31:44.000Z</time>
      </trkpt>
      <trkpt lat="49.32656801305711269378662109375" lon="11.021964959800243377685546875">
        <ele>332.20001220703125</ele>
        <time>2018-08-17T07:31:53.000Z</time>
      </trkpt>
      <trkpt lat="49.3269752897322177886962890625" lon="11.02186630479991436004638671875">
        <ele>331.79998779296875</ele>
        <time>2018-08-17T07:32:00.000Z</time>
      </trkpt>
      <trkpt lat="49.327051900327205657958984375" lon="11.02185473777353763580322265625">
        <ele>331.79998779296875</ele>
        <time>2018-08-17T07:32:02.000Z</time>
      </trkpt>
      <trkpt lat="49.32722683064639568328857421875" lon="11.02181232534348964691162109375">
        <ele>330</ele>
        <time>2018-08-17T07:32:08.000Z</time>
      </trkpt>
      <trkpt lat="49.3272984959185123443603515625" lon="11.02182707749307155609130859375">
        <ele>329.20001220703125</ele>
        <time>2018-08-17T07:32:13.000Z</time>
      </trkpt>
      <trkpt lat="49.32732758112251758575439453125" lon="11.02185063064098358154296875">
        <ele>328.600006103515625</ele>
        <time>2018-08-17T07:32:15.000Z</time>
      </trkpt>
      <trkpt lat="49.3274476937949657440185546875" lon="11.0221250541508197784423828125">
        <ele>328</ele>
        <time>2018-08-17T07:32:23.000Z</time>
      </trkpt>
      <trkpt lat="49.32751282118260860443115234375" lon="11.022327728569507598876953125">
        <ele>328</ele>
        <time>2018-08-17T07:32:26.000Z</time>
      </trkpt>
      <trkpt lat="49.3278138153254985809326171875" lon="11.0230792500078678131103515625">
        <ele>327.20001220703125</ele>
        <time>2018-08-17T07:32:42.000Z</time>
      </trkpt>
      <trkpt lat="49.32787307538092136383056640625" lon="11.02320455946028232574462890625">
        <ele>327</ele>
        <time>2018-08-17T07:32:44.000Z</time>
      </trkpt>
      <trkpt lat="49.32800098322331905364990234375" lon="11.02350697852671146392822265625">
        <ele>326.79998779296875</ele>
        <time>2018-08-17T07:32:48.000Z</time>
      </trkpt>
      <trkpt lat="49.328205920755863189697265625" lon="11.02388751693069934844970703125">
        <ele>326.600006103515625</ele>
        <time>2018-08-17T07:32:53.000Z</time>
      </trkpt>
      <trkpt lat="49.32868997566401958465576171875" lon="11.02433837950229644775390625">
        <ele>326.20001220703125</ele>
        <time>2018-08-17T07:33:02.000Z</time>
      </trkpt>
      <trkpt lat="49.3288712762296199798583984375" lon="11.0244572348892688751220703125">
        <ele>326</ele>
        <time>2018-08-17T07:33:05.000Z</time>
      </trkpt>
      <trkpt lat="49.32893707416951656341552734375" lon="11.024478189647197723388671875">
        <ele>326</ele>
        <time>2018-08-17T07:33:06.000Z</time>
      </trkpt>
      <trkpt lat="49.329484663903713226318359375" lon="11.02453409694135189056396484375">
        <ele>325.600006103515625</ele>
        <time>2018-08-17T07:33:13.000Z</time>
      </trkpt>
      <trkpt lat="49.33007902465760707855224609375" lon="11.0245752520859241485595703125">
        <ele>325.600006103515625</ele>
        <time>2018-08-17T07:33:21.000Z</time>
      </trkpt>
      <trkpt lat="49.3306410312652587890625" lon="11.02466292679309844970703125">
        <ele>325.399993896484375</ele>
        <time>2018-08-17T07:33:29.000Z</time>
      </trkpt>
      <trkpt lat="49.33070196770131587982177734375" lon="11.02468304336071014404296875">
        <ele>325.399993896484375</ele>
        <time>2018-08-17T07:33:30.000Z</time>
      </trkpt>
      <trkpt lat="49.33080933988094329833984375" lon="11.0251088440418243408203125">
        <ele>325.600006103515625</ele>
        <time>2018-08-17T07:33:35.000Z</time>
      </trkpt>
      <trkpt lat="49.33093951083719730377197265625" lon="11.025988943874835968017578125">
        <ele>326</ele>
        <time>2018-08-17T07:33:44.000Z</time>
      </trkpt>
      <trkpt lat="49.3312520720064640045166015625" lon="11.02667332626879215240478515625">
        <ele>326.399993896484375</ele>
        <time>2018-08-17T07:33:52.000Z</time>
      </trkpt>
      <trkpt lat="49.33163411915302276611328125" lon="11.027279756963253021240234375">
        <ele>326.79998779296875</ele>
        <time>2018-08-17T07:34:00.000Z</time>
      </trkpt>
      <trkpt lat="49.3319169245660305023193359375" lon="11.0275716148316860198974609375">
        <ele>327.20001220703125</ele>
        <time>2018-08-17T07:34:05.000Z</time>
      </trkpt>
      <trkpt lat="49.33243609964847564697265625" lon="11.02795005775988101959228515625">
        <ele>327.79998779296875</ele>
        <time>2018-08-17T07:34:14.000Z</time>
      </trkpt>
      <trkpt lat="49.33259443379938602447509765625" lon="11.028066985309123992919921875">
        <ele>328.399993896484375</ele>
        <time>2018-08-17T07:34:17.000Z</time>
      </trkpt>
      <trkpt lat="49.332902133464813232421875" lon="11.02830804884433746337890625">
        <ele>329.600006103515625</ele>
        <time>2018-08-17T07:34:23.000Z</time>
      </trkpt>
      <trkpt lat="49.3332385830581188201904296875" lon="11.02861809544265270233154296875">
        <ele>330.600006103515625</ele>
        <time>2018-08-17T07:34:30.000Z</time>
      </trkpt>
      <trkpt lat="49.33348073624074459075927734375" lon="11.02881976403295993804931640625">
        <ele>331.600006103515625</ele>
        <time>2018-08-17T07:34:36.000Z</time>
      </trkpt>
      <trkpt lat="49.33352105319499969482421875" lon="11.0288290679454803466796875">
        <ele>331.79998779296875</ele>
        <time>2018-08-17T07:34:37.000Z</time>
      </trkpt>
      <trkpt lat="49.33379053138196468353271484375" lon="11.02847979404032230377197265625">
        <ele>332.79998779296875</ele>
        <time>2018-08-17T07:34:45.000Z</time>
      </trkpt>
      <trkpt lat="49.33394207619130611419677734375" lon="11.02820604108273983001708984375">
        <ele>334.20001220703125</ele>
        <time>2018-08-17T07:34:51.000Z</time>
      </trkpt>
      <trkpt lat="49.3340273201465606689453125" lon="11.028087101876735687255859375">
        <ele>335.20001220703125</ele>
        <time>2018-08-17T07:34:54.000Z</time>
      </trkpt>
      <trkpt lat="49.33415296487510204315185546875" lon="11.027937233448028564453125">
        <ele>336.399993896484375</ele>
        <time>2018-08-17T07:34:58.000Z</time>
      </trkpt>
      <trkpt lat="49.33424751274287700653076171875" lon="11.02783170528709888458251953125">
        <ele>337.399993896484375</ele>
        <time>2018-08-17T07:35:01.000Z</time>
      </trkpt>
      <trkpt lat="49.33433904312551021575927734375" lon="11.0277107544243335723876953125">
        <ele>338.399993896484375</ele>
        <time>2018-08-17T07:35:04.000Z</time>
      </trkpt>
      <trkpt lat="49.33444649912416934967041015625" lon="11.02762618102133274078369140625">
        <ele>339.20001220703125</ele>
        <time>2018-08-17T07:35:07.000Z</time>
      </trkpt>
      <trkpt lat="49.33448354713618755340576171875" lon="11.02760304696857929229736328125">
        <ele>339.600006103515625</ele>
        <time>2018-08-17T07:35:08.000Z</time>
      </trkpt>
      <trkpt lat="49.3346289731562137603759765625" lon="11.02751336060464382171630859375">
        <ele>340.79998779296875</ele>
        <time>2018-08-17T07:35:12.000Z</time>
      </trkpt>
      <trkpt lat="49.33478445746004581451416015625" lon="11.0274311341345310211181640625">
        <ele>342</ele>
        <time>2018-08-17T07:35:16.000Z</time>
      </trkpt>
      <trkpt lat="49.334866516292095184326171875" lon="11.0273902304470539093017578125">
        <ele>343.20001220703125</ele>
        <time>2018-08-17T07:35:18.000Z</time>
      </trkpt>
      <trkpt lat="49.33503189124166965484619140625" lon="11.02731253020465373992919921875">
        <ele>344.20001220703125</ele>
        <time>2018-08-17T07:35:22.000Z</time>
      </trkpt>
      <trkpt lat="49.33511906303465366363525390625" lon="11.02726844139397144317626953125">
        <ele>344.79998779296875</ele>
        <time>2018-08-17T07:35:24.000Z</time>
      </trkpt>
      <trkpt lat="49.33520548045635223388671875" lon="11.027219407260417938232421875">
        <ele>345.20001220703125</ele>
        <time>2018-08-17T07:35:26.000Z</time>
      </trkpt>
      <trkpt lat="49.33542483486235141754150390625" lon="11.02705855853855609893798828125">
        <ele>346.600006103515625</ele>
        <time>2018-08-17T07:35:31.000Z</time>
      </trkpt>
      <trkpt lat="49.33564226143062114715576171875" lon="11.02686636149883270263671875">
        <ele>347.79998779296875</ele>
        <time>2018-08-17T07:35:36.000Z</time>
      </trkpt>
      <trkpt lat="49.33586572296917438507080078125" lon="11.02664164267480373382568359375">
        <ele>348.79998779296875</ele>
        <time>2018-08-17T07:35:41.000Z</time>
      </trkpt>
      <trkpt lat="49.335911571979522705078125" lon="11.0266130603849887847900390625">
        <ele>349</ele>
        <time>2018-08-17T07:35:42.000Z</time>
      </trkpt>
      <trkpt lat="49.33617317117750644683837890625" lon="11.02658850140869617462158203125">
        <ele>350.20001220703125</ele>
        <time>2018-08-17T07:35:47.000Z</time>
      </trkpt>
      <trkpt lat="49.33626755140721797943115234375" lon="11.02659923024475574493408203125">
        <ele>350.399993896484375</ele>
        <time>2018-08-17T07:35:49.000Z</time>
      </trkpt>
      <trkpt lat="49.33657801710069179534912109375" lon="11.02651725523173809051513671875">
        <ele>351.20001220703125</ele>
        <time>2018-08-17T07:35:55.000Z</time>
      </trkpt>
      <trkpt lat="49.3371212482452392578125" lon="11.02634274400770664215087890625">
        <ele>351.600006103515625</ele>
        <time>2018-08-17T07:36:04.000Z</time>
      </trkpt>
      <trkpt lat="49.33769029565155506134033203125" lon="11.02613688446581363677978515625">
        <ele>350.600006103515625</ele>
        <time>2018-08-17T07:36:12.000Z</time>
      </trkpt>
      <trkpt lat="49.33784452266991138458251953125" lon="11.02609028108417987823486328125">
        <ele>350.20001220703125</ele>
        <time>2018-08-17T07:36:14.000Z</time>
      </trkpt>
      <trkpt lat="49.33826009742915630340576171875" lon="11.02596455253660678863525390625">
        <ele>349</ele>
        <time>2018-08-17T07:36:19.000Z</time>
      </trkpt>
      <trkpt lat="49.3386050127446651458740234375" lon="11.02582088671624660491943359375">
        <ele>348</ele>
        <time>2018-08-17T07:36:23.000Z</time>
      </trkpt>
      <trkpt lat="49.3388687074184417724609375" lon="11.025685854256153106689453125">
        <ele>347</ele>
        <time>2018-08-17T07:36:26.000Z</time>
      </trkpt>
      <trkpt lat="49.3391337431967258453369140625" lon="11.025568507611751556396484375">
        <ele>345.79998779296875</ele>
        <time>2018-08-17T07:36:29.000Z</time>
      </trkpt>
      <trkpt lat="49.3394780717790126800537109375" lon="11.02544671855866909027099609375">
        <ele>344.399993896484375</ele>
        <time>2018-08-17T07:36:33.000Z</time>
      </trkpt>
      <trkpt lat="49.33973112143576145172119140625" lon="11.02541235275566577911376953125">
        <ele>343.399993896484375</ele>
        <time>2018-08-17T07:36:36.000Z</time>
      </trkpt>
      <trkpt lat="49.340117610991001129150390625" lon="11.0252903960645198822021484375">
        <ele>342.399993896484375</ele>
        <time>2018-08-17T07:36:41.000Z</time>
      </trkpt>
      <trkpt lat="49.3406652845442295074462890625" lon="11.02511311881244182586669921875">
        <ele>342.399993896484375</ele>
        <time>2018-08-17T07:36:52.000Z</time>
      </trkpt>
      <trkpt lat="49.340748600661754608154296875" lon="11.02509752847254276275634765625">
        <ele>343</ele>
        <time>2018-08-17T07:36:54.000Z</time>
      </trkpt>
      <trkpt lat="49.3408334255218505859375" lon="11.025083363056182861328125">
        <ele>343.399993896484375</ele>
        <time>2018-08-17T07:36:56.000Z</time>
      </trkpt>
      <trkpt lat="49.3409143947064876556396484375" lon="11.02506517432630062103271484375">
        <ele>343.79998779296875</ele>
        <time>2018-08-17T07:36:58.000Z</time>
      </trkpt>
      <trkpt lat="49.34107742272317409515380859375" lon="11.02503751404583454132080078125">
        <ele>344.600006103515625</ele>
        <time>2018-08-17T07:37:02.000Z</time>
      </trkpt>
      <trkpt lat="49.3412479944527149200439453125" lon="11.02499761618673801422119140625">
        <ele>345.79998779296875</ele>
        <time>2018-08-17T07:37:06.000Z</time>
      </trkpt>
      <trkpt lat="49.34142887592315673828125" lon="11.0249594785273075103759765625">
        <ele>346.79998779296875</ele>
        <time>2018-08-17T07:37:10.000Z</time>
      </trkpt>
      <trkpt lat="49.341615624725818634033203125" lon="11.02488957345485687255859375">
        <ele>347.79998779296875</ele>
        <time>2018-08-17T07:37:14.000Z</time>
      </trkpt>
      <trkpt lat="49.34171595610678195953369140625" lon="11.02484188042581081390380859375">
        <ele>348.399993896484375</ele>
        <time>2018-08-17T07:37:16.000Z</time>
      </trkpt>
      <trkpt lat="49.341871440410614013671875" lon="11.02476845495402812957763671875">
        <ele>349</ele>
        <time>2018-08-17T07:37:19.000Z</time>
      </trkpt>
      <trkpt lat="49.34214410372078418731689453125" lon="11.02464037947356700897216796875">
        <ele>350.20001220703125</ele>
        <time>2018-08-17T07:37:24.000Z</time>
      </trkpt>
      <trkpt lat="49.34268808923661708831787109375" lon="11.02440183050930500030517578125">
        <ele>351</ele>
        <time>2018-08-17T07:37:33.000Z</time>
      </trkpt>
      <trkpt lat="49.34321564622223377227783203125" lon="11.02417887188494205474853515625">
        <ele>351</ele>
        <time>2018-08-17T07:37:41.000Z</time>
      </trkpt>
      <trkpt lat="49.34376575052738189697265625" lon="11.02393738925457000732421875">
        <ele>351</ele>
        <time>2018-08-17T07:37:49.000Z</time>
      </trkpt>
      <trkpt lat="49.344352148473262786865234375" lon="11.023662127554416656494140625">
        <ele>351</ele>
        <time>2018-08-17T07:37:57.000Z</time>
      </trkpt>
      <trkpt lat="49.34491935186088085174560546875" lon="11.0233788192272186279296875">
        <ele>350.600006103515625</ele>
        <time>2018-08-17T07:38:04.000Z</time>
      </trkpt>
      <trkpt lat="49.34539779089391231536865234375" lon="11.023135073482990264892578125">
        <ele>348.79998779296875</ele>
        <time>2018-08-17T07:38:10.000Z</time>
      </trkpt>
      <trkpt lat="49.3455257825553417205810546875" lon="11.022770963609218597412109375">
        <ele>347.600006103515625</ele>
        <time>2018-08-17T07:38:14.000Z</time>
      </trkpt>
      <trkpt lat="49.34578972868621349334716796875" lon="11.02254825644195079803466796875">
        <ele>346.79998779296875</ele>
        <time>2018-08-17T07:38:18.000Z</time>
      </trkpt>
      <trkpt lat="49.34586633928120136260986328125" lon="11.02249947376549243927001953125">
        <ele>346.600006103515625</ele>
        <time>2018-08-17T07:38:19.000Z</time>
      </trkpt>
      <trkpt lat="49.34632047079503536224365234375" lon="11.02222002111375331878662109375">
        <ele>345.600006103515625</ele>
        <time>2018-08-17T07:38:25.000Z</time>
      </trkpt>
      <trkpt lat="49.34661559760570526123046875" lon="11.0220144130289554595947265625">
        <ele>344.600006103515625</ele>
        <time>2018-08-17T07:38:29.000Z</time>
      </trkpt>
      <trkpt lat="49.3471337668597698211669921875" lon="11.021747700870037078857421875">
        <ele>344.399993896484375</ele>
        <time>2018-08-17T07:38:36.000Z</time>
      </trkpt>
      <trkpt lat="49.34772661887109279632568359375" lon="11.02154460735619068145751953125">
        <ele>344.399993896484375</ele>
        <time>2018-08-17T07:38:44.000Z</time>
      </trkpt>
      <trkpt lat="49.34827596880495548248291015625" lon="11.02141720242798328399658203125">
        <ele>345</ele>
        <time>2018-08-17T07:38:51.000Z</time>
      </trkpt>
      <trkpt lat="49.3488800525665283203125" lon="11.0213498957455158233642578125">
        <ele>345</ele>
        <time>2018-08-17T07:38:58.000Z</time>
      </trkpt>
      <trkpt lat="49.34946904890239238739013671875" lon="11.02132047526538372039794921875">
        <ele>344.600006103515625</ele>
        <time>2018-08-17T07:39:05.000Z</time>
      </trkpt>
      <trkpt lat="49.35006818734109401702880859375" lon="11.021322570741176605224609375">
        <ele>344.79998779296875</ele>
        <time>2018-08-17T07:39:13.000Z</time>
      </trkpt>
      <trkpt lat="49.350660033524036407470703125" lon="11.02137344889342784881591796875">
        <ele>345.600006103515625</ele>
        <time>2018-08-17T07:39:21.000Z</time>
      </trkpt>
      <trkpt lat="49.3507366441190242767333984375" lon="11.02138535119593143463134765625">
        <ele>345.79998779296875</ele>
        <time>2018-08-17T07:39:22.000Z</time>
      </trkpt>
      <trkpt lat="49.351285658776760101318359375" lon="11.0215081460773944854736328125">
        <ele>346.399993896484375</ele>
        <time>2018-08-17T07:39:29.000Z</time>
      </trkpt>
      <trkpt lat="49.35184431262314319610595703125" lon="11.021676622331142425537109375">
        <ele>346.399993896484375</ele>
        <time>2018-08-17T07:39:36.000Z</time>
      </trkpt>
      <trkpt lat="49.35240380465984344482421875" lon="11.0218890197575092315673828125">
        <ele>346.20001220703125</ele>
        <time>2018-08-17T07:39:43.000Z</time>
      </trkpt>
      <trkpt lat="49.3529692478477954864501953125" lon="11.0221639461815357208251953125">
        <ele>345.79998779296875</ele>
        <time>2018-08-17T07:39:50.000Z</time>
      </trkpt>
      <trkpt lat="49.35351382009685039520263671875" lon="11.02250768803060054779052734375">
        <ele>345.20001220703125</ele>
        <time>2018-08-17T07:39:57.000Z</time>
      </trkpt>
      <trkpt lat="49.354031570255756378173828125" lon="11.02292493917047977447509765625">
        <ele>345</ele>
        <time>2018-08-17T07:40:04.000Z</time>
      </trkpt>
      <trkpt lat="49.3544193170964717864990234375" lon="11.023229621350765228271484375">
        <ele>344.79998779296875</ele>
        <time>2018-08-17T07:40:09.000Z</time>
      </trkpt>
      <trkpt lat="49.35492583550512790679931640625" lon="11.02361326105892658233642578125">
        <ele>344</ele>
        <time>2018-08-17T07:40:15.000Z</time>
      </trkpt>
      <trkpt lat="49.355092383921146392822265625" lon="11.02374452166259288787841796875">
        <ele>343.600006103515625</ele>
        <time>2018-08-17T07:40:17.000Z</time>
      </trkpt>
      <trkpt lat="49.35558046214282512664794921875" lon="11.02409706450998783111572265625">
        <ele>342.79998779296875</ele>
        <time>2018-08-17T07:40:23.000Z</time>
      </trkpt>
      <trkpt lat="49.35597072355449199676513671875" lon="11.0243256390094757080078125">
        <ele>341.79998779296875</ele>
        <time>2018-08-17T07:40:28.000Z</time>
      </trkpt>
      <trkpt lat="49.3561003915965557098388671875" lon="11.0244409739971160888671875">
        <ele>341.600006103515625</ele>
        <time>2018-08-17T07:40:30.000Z</time>
      </trkpt>
      <trkpt lat="49.35624816454946994781494140625" lon="11.02498420514166355133056640625">
        <ele>341.399993896484375</ele>
        <time>2018-08-17T07:40:36.000Z</time>
      </trkpt>
      <trkpt lat="49.35631178319454193115234375" lon="11.0256746225059032440185546875">
        <ele>341.79998779296875</ele>
        <time>2018-08-17T07:40:43.000Z</time>
      </trkpt>
      <trkpt lat="49.35675761662423610687255859375" lon="11.0261852480471134185791015625">
        <ele>342.399993896484375</ele>
        <time>2018-08-17T07:40:52.000Z</time>
      </trkpt>
      <trkpt lat="49.35689424164593219757080078125" lon="11.02618776261806488037109375">
        <ele>342.399993896484375</ele>
        <time>2018-08-17T07:40:54.000Z</time>
      </trkpt>
      <trkpt lat="49.35702986083924770355224609375" lon="11.02615146897733211517333984375">
        <ele>342.600006103515625</ele>
        <time>2018-08-17T07:40:56.000Z</time>
      </trkpt>
      <trkpt lat="49.35735072009265422821044921875" lon="11.0258325375616550445556640625">
        <ele>342.600006103515625</ele>
        <time>2018-08-17T07:41:01.000Z</time>
      </trkpt>
      <trkpt lat="49.35748667456209659576416015625" lon="11.02568074129521846771240234375">
        <ele>342.600006103515625</ele>
        <time>2018-08-17T07:41:03.000Z</time>
      </trkpt>
      <trkpt lat="49.3580661155283451080322265625" lon="11.02562022395431995391845703125">
        <ele>340.79998779296875</ele>
        <time>2018-08-17T07:41:10.000Z</time>
      </trkpt>
      <trkpt lat="49.35814440250396728515625" lon="11.0256917215883731842041015625">
        <ele>340.600006103515625</ele>
        <time>2018-08-17T07:41:11.000Z</time>
      </trkpt>
      <trkpt lat="49.35821212828159332275390625" lon="11.0257728584110736846923828125">
        <ele>340.20001220703125</ele>
        <time>2018-08-17T07:41:12.000Z</time>
      </trkpt>
      <trkpt lat="49.3583702109754085540771484375" lon="11.0260963998734951019287109375">
        <ele>339.20001220703125</ele>
        <time>2018-08-17T07:41:15.000Z</time>
      </trkpt>
      <trkpt lat="49.35846970416605472564697265625" lon="11.02651876397430896759033203125">
        <ele>338.20001220703125</ele>
        <time>2018-08-17T07:41:18.000Z</time>
      </trkpt>
      <trkpt lat="49.35857363976538181304931640625" lon="11.027126871049404144287109375">
        <ele>337.20001220703125</ele>
        <time>2018-08-17T07:41:22.000Z</time>
      </trkpt>
      <trkpt lat="49.3586498312652111053466796875" lon="11.0275850258767604827880859375">
        <ele>336</ele>
        <time>2018-08-17T07:41:25.000Z</time>
      </trkpt>
      <trkpt lat="49.35868646018207073211669921875" lon="11.027725003659725189208984375">
        <ele>335.600006103515625</ele>
        <time>2018-08-17T07:41:26.000Z</time>
      </trkpt>
      <trkpt lat="49.3588600493967533111572265625" lon="11.02809607051312923431396484375">
        <ele>334.79998779296875</ele>
        <time>2018-08-17T07:41:29.000Z</time>
      </trkpt>
      <trkpt lat="49.35901553370058536529541015625" lon="11.02829019539058208465576171875">
        <ele>333.399993896484375</ele>
        <time>2018-08-17T07:41:31.000Z</time>
      </trkpt>
      <trkpt lat="49.35929716564714908599853515625" lon="11.02846722118556499481201171875">
        <ele>332.399993896484375</ele>
        <time>2018-08-17T07:41:34.000Z</time>
      </trkpt>
      <trkpt lat="49.35939389280974864959716796875" lon="11.02849672548472881317138671875">
        <ele>331.20001220703125</ele>
        <time>2018-08-17T07:41:35.000Z</time>
      </trkpt>
      <trkpt lat="49.3596799671649932861328125" lon="11.02845431305468082427978515625">
        <ele>329.79998779296875</ele>
        <time>2018-08-17T07:41:38.000Z</time>
      </trkpt>
      <trkpt lat="49.3597766943275928497314453125" lon="11.02840150706470012664794921875">
        <ele>329.399993896484375</ele>
        <time>2018-08-17T07:41:39.000Z</time>
      </trkpt>
      <trkpt lat="49.35987534932792186737060546875" lon="11.02834853343665599822998046875">
        <ele>328.79998779296875</ele>
        <time>2018-08-17T07:41:40.000Z</time>
      </trkpt>
      <trkpt lat="49.3601337634027004241943359375" lon="11.02819883264601230621337890625">
        <ele>327.600006103515625</ele>
        <time>2018-08-17T07:41:43.000Z</time>
      </trkpt>
      <trkpt lat="49.36035160906612873077392578125" lon="11.0280688293278217315673828125">
        <ele>326.20001220703125</ele>
        <time>2018-08-17T07:41:46.000Z</time>
      </trkpt>
      <trkpt lat="49.36049644835293292999267578125" lon="11.0279846750199794769287109375">
        <ele>325.399993896484375</ele>
        <time>2018-08-17T07:41:48.000Z</time>
      </trkpt>
      <trkpt lat="49.36056685633957386016845703125" lon="11.027937568724155426025390625">
        <ele>325</ele>
        <time>2018-08-17T07:41:49.000Z</time>
      </trkpt>
      <trkpt lat="49.36070063151419162750244140625" lon="11.02785517461597919464111328125">
        <ele>324</ele>
        <time>2018-08-17T07:41:51.000Z</time>
      </trkpt>
      <trkpt lat="49.3608348257839679718017578125" lon="11.0277546755969524383544921875">
        <ele>322.600006103515625</ele>
        <time>2018-08-17T07:41:54.000Z</time>
      </trkpt>
      <trkpt lat="49.360905401408672332763671875" lon="11.0277074016630649566650390625">
        <ele>321.20001220703125</ele>
        <time>2018-08-17T07:41:57.000Z</time>
      </trkpt>
      <trkpt lat="49.36101042665541172027587890625" lon="11.02770212106406688690185546875">
        <ele>320.399993896484375</ele>
        <time>2018-08-17T07:42:00.000Z</time>
      </trkpt>
      <trkpt lat="49.361052252352237701416015625" lon="11.02771217934787273406982421875">
        <ele>319.600006103515625</ele>
        <time>2018-08-17T07:42:01.000Z</time>
      </trkpt>
      <trkpt lat="49.3611436150968074798583984375" lon="11.02771871723234653472900390625">
        <ele>319.20001220703125</ele>
        <time>2018-08-17T07:42:03.000Z</time>
      </trkpt>
      <trkpt lat="49.361282251775264739990234375" lon="11.027584187686443328857421875">
        <ele>318.600006103515625</ele>
        <time>2018-08-17T07:42:06.000Z</time>
      </trkpt>
      <trkpt lat="49.36132692731916904449462890625" lon="11.0275139473378658294677734375">
        <ele>318.399993896484375</ele>
        <time>2018-08-17T07:42:07.000Z</time>
      </trkpt>
      <trkpt lat="49.3616005964577198028564453125" lon="11.02697339840233325958251953125">
        <ele>317.600006103515625</ele>
        <time>2018-08-17T07:42:14.000Z</time>
      </trkpt>
      <trkpt lat="49.36188968829810619354248046875" lon="11.0268450714647769927978515625">
        <ele>316.399993896484375</ele>
        <time>2018-08-17T07:42:19.000Z</time>
      </trkpt>
      <trkpt lat="49.36217266134917736053466796875" lon="11.02692260406911373138427734375">
        <ele>315.399993896484375</ele>
        <time>2018-08-17T07:42:25.000Z</time>
      </trkpt>
      <trkpt lat="49.362225048243999481201171875" lon="11.02707800455391407012939453125">
        <ele>314.79998779296875</ele>
        <time>2018-08-17T07:42:27.000Z</time>
      </trkpt>
      <trkpt lat="49.362250864505767822265625" lon="11.02716349996626377105712890625">
        <ele>314</ele>
        <time>2018-08-17T07:42:28.000Z</time>
      </trkpt>
      <trkpt lat="49.362398050725460052490234375" lon="11.02753263898193836212158203125">
        <ele>313.20001220703125</ele>
        <time>2018-08-17T07:42:32.000Z</time>
      </trkpt>
      <trkpt lat="49.36260692775249481201171875" lon="11.02800688706338405609130859375">
        <ele>313</ele>
        <time>2018-08-17T07:42:37.000Z</time>
      </trkpt>
      <trkpt lat="49.3628806807100772857666015625" lon="11.02877064608037471771240234375">
        <ele>312.79998779296875</ele>
        <time>2018-08-17T07:42:45.000Z</time>
      </trkpt>
      <trkpt lat="49.36293742619454860687255859375" lon="11.0289953649044036865234375">
        <ele>312.79998779296875</ele>
        <time>2018-08-17T07:42:51.000Z</time>
      </trkpt>
      <trkpt lat="49.36299291439354419708251953125" lon="11.02910072542726993560791015625">
        <ele>313</ele>
        <time>2018-08-17T07:42:55.000Z</time>
      </trkpt>
      <trkpt lat="49.3632058985531330108642578125" lon="11.029886864125728607177734375">
        <ele>313.20001220703125</ele>
        <time>2018-08-17T07:43:13.000Z</time>
      </trkpt>
      <trkpt lat="49.36335803009569644927978515625" lon="11.0300358943641185760498046875">
        <ele>313.20001220703125</ele>
        <time>2018-08-17T07:43:17.000Z</time>
      </trkpt>
      <trkpt lat="49.36391182243824005126953125" lon="11.030248291790485382080078125">
        <ele>314</ele>
        <time>2018-08-17T07:43:28.000Z</time>
      </trkpt>
      <trkpt lat="49.3641627766191959381103515625" lon="11.0303580947220325469970703125">
        <ele>315.20001220703125</ele>
        <time>2018-08-17T07:43:33.000Z</time>
      </trkpt>
      <trkpt lat="49.364317841827869415283203125" lon="11.03042322210967540740966796875">
        <ele>315.79998779296875</ele>
        <time>2018-08-17T07:43:36.000Z</time>
      </trkpt>
      <trkpt lat="49.3644154071807861328125" lon="11.03048122487962245941162109375">
        <ele>316.20001220703125</ele>
        <time>2018-08-17T07:43:38.000Z</time>
      </trkpt>
      <trkpt lat="49.36473417095839977264404296875" lon="11.03061600588262081146240234375">
        <ele>317.399993896484375</ele>
        <time>2018-08-17T07:43:44.000Z</time>
      </trkpt>
      <trkpt lat="49.36531327664852142333984375" lon="11.03077375330030918121337890625">
        <ele>318.20001220703125</ele>
        <time>2018-08-17T07:43:53.000Z</time>
      </trkpt>
      <trkpt lat="49.3659223057329654693603515625" lon="11.030802167952060699462890625">
        <ele>317.600006103515625</ele>
        <time>2018-08-17T07:44:01.000Z</time>
      </trkpt>
      <trkpt lat="49.3664966337382793426513671875" lon="11.030774004757404327392578125">
        <ele>316.399993896484375</ele>
        <time>2018-08-17T07:44:08.000Z</time>
      </trkpt>
      <trkpt lat="49.36657735146582126617431640625" lon="11.03075020015239715576171875">
        <ele>316.20001220703125</ele>
        <time>2018-08-17T07:44:09.000Z</time>
      </trkpt>
      <trkpt lat="49.36710105277597904205322265625" lon="11.030441410839557647705078125">
        <ele>315.20001220703125</ele>
        <time>2018-08-17T07:44:16.000Z</time>
      </trkpt>
      <trkpt lat="49.3675763905048370361328125" lon="11.0300496406853199005126953125">
        <ele>314.79998779296875</ele>
        <time>2018-08-17T07:44:23.000Z</time>
      </trkpt>
      <trkpt lat="49.368068911135196685791015625" lon="11.029612608253955841064453125">
        <ele>314.600006103515625</ele>
        <time>2018-08-17T07:44:30.000Z</time>
      </trkpt>
      <trkpt lat="49.36861415393650531768798828125" lon="11.02911405265331268310546875">
        <ele>314.399993896484375</ele>
        <time>2018-08-17T07:44:37.000Z</time>
      </trkpt>
      <trkpt lat="49.368698559701442718505859375" lon="11.0290347598493099212646484375">
        <ele>314.20001220703125</ele>
        <time>2018-08-17T07:44:38.000Z</time>
      </trkpt>
      <trkpt lat="49.3690247833728790283203125" lon="11.02866754867136478424072265625">
        <ele>313</ele>
        <time>2018-08-17T07:44:42.000Z</time>
      </trkpt>
      <trkpt lat="49.36926576308906078338623046875" lon="11.02837778627872467041015625">
        <ele>312</ele>
        <time>2018-08-17T07:44:45.000Z</time>
      </trkpt>
      <trkpt lat="49.36959500424563884735107421875" lon="11.0280242376029491424560546875">
        <ele>310.600006103515625</ele>
        <time>2018-08-17T07:44:49.000Z</time>
      </trkpt>
      <trkpt lat="49.36985098756849765777587890625" lon="11.027808152139186859130859375">
        <ele>309.600006103515625</ele>
        <time>2018-08-17T07:44:52.000Z</time>
      </trkpt>
      <trkpt lat="49.37029606662690639495849609375" lon="11.02752861566841602325439453125">
        <ele>308.600006103515625</ele>
        <time>2018-08-17T07:44:57.000Z</time>
      </trkpt>
      <trkpt lat="49.370851702988147735595703125" lon="11.0272894799709320068359375">
        <ele>308</ele>
        <time>2018-08-17T07:45:03.000Z</time>
      </trkpt>
      <trkpt lat="49.37131698243319988250732421875" lon="11.02712192572653293609619140625">
        <ele>307.600006103515625</ele>
        <time>2018-08-17T07:45:08.000Z</time>
      </trkpt>
      <trkpt lat="49.37186415307223796844482421875" lon="11.0269513539969921112060546875">
        <ele>307.20001220703125</ele>
        <time>2018-08-17T07:45:14.000Z</time>
      </trkpt>
      <trkpt lat="49.37245893292129039764404296875" lon="11.02677508257329463958740234375">
        <ele>307.20001220703125</ele>
        <time>2018-08-17T07:45:21.000Z</time>
      </trkpt>
      <trkpt lat="49.37301632948219776153564453125" lon="11.026566959917545318603515625">
        <ele>307.600006103515625</ele>
        <time>2018-08-17T07:45:28.000Z</time>
      </trkpt>
      <trkpt lat="49.3735666014254093170166015625" lon="11.02633126080036163330078125">
        <ele>307.79998779296875</ele>
        <time>2018-08-17T07:45:35.000Z</time>
      </trkpt>
      <trkpt lat="49.3741114251315593719482421875" lon="11.0260803066194057464599609375">
        <ele>307.79998779296875</ele>
        <time>2018-08-17T07:45:42.000Z</time>
      </trkpt>
      <trkpt lat="49.37464275397360324859619140625" lon="11.025830022990703582763671875">
        <ele>307.79998779296875</ele>
        <time>2018-08-17T07:45:49.000Z</time>
      </trkpt>
      <trkpt lat="49.3751926906406879425048828125" lon="11.0256685875356197357177734375">
        <ele>307.79998779296875</ele>
        <time>2018-08-17T07:45:56.000Z</time>
      </trkpt>
      <trkpt lat="49.37579979188740253448486328125" lon="11.0256705991923809051513671875">
        <ele>307.600006103515625</ele>
        <time>2018-08-17T07:46:03.000Z</time>
      </trkpt>
      <trkpt lat="49.37640513293445110321044921875" lon="11.02546163834631443023681640625">
        <ele>307.600006103515625</ele>
        <time>2018-08-17T07:46:10.000Z</time>
      </trkpt>
      <trkpt lat="49.37656153924763202667236328125" lon="11.0253876261413097381591796875">
        <ele>307.20001220703125</ele>
        <time>2018-08-17T07:46:12.000Z</time>
      </trkpt>
      <trkpt lat="49.3768570013344287872314453125" lon="11.0253913141787052154541015625">
        <ele>306.399993896484375</ele>
        <time>2018-08-17T07:46:16.000Z</time>
      </trkpt>
      <trkpt lat="49.37706805765628814697265625" lon="11.025471948087215423583984375">
        <ele>306.399993896484375</ele>
        <time>2018-08-17T07:46:19.000Z</time>
      </trkpt>
      <trkpt lat="49.3773163296282291412353515625" lon="11.0256997682154178619384765625">
        <ele>306.20001220703125</ele>
        <time>2018-08-17T07:46:23.000Z</time>
      </trkpt>
      <trkpt lat="49.37750718556344509124755859375" lon="11.0260280035436153411865234375">
        <ele>306</ele>
        <time>2018-08-17T07:46:27.000Z</time>
      </trkpt>
      <trkpt lat="49.37776400707662105560302734375" lon="11.02683861739933490753173828125">
        <ele>306.20001220703125</ele>
        <time>2018-08-17T07:46:35.000Z</time>
      </trkpt>
      <trkpt lat="49.377984367311000823974609375" lon="11.02767077274620532989501953125">
        <ele>306.20001220703125</ele>
        <time>2018-08-17T07:46:43.000Z</time>
      </trkpt>
      <trkpt lat="49.37815996818244457244873046875" lon="11.02828449569642543792724609375">
        <ele>305.600006103515625</ele>
        <time>2018-08-17T07:46:54.000Z</time>
      </trkpt>
      <trkpt lat="49.37821931205689907073974609375" lon="11.02842807769775390625">
        <ele>304.600006103515625</ele>
        <time>2018-08-17T07:47:03.000Z</time>
      </trkpt>
      <trkpt lat="49.3782547675073146820068359375" lon="11.02842204272747039794921875">
        <ele>304.600006103515625</ele>
        <time>2018-08-17T07:47:07.000Z</time>
      </trkpt>
      <trkpt lat="49.378679059445858001708984375" lon="11.02831802330911159515380859375">
        <ele>304.399993896484375</ele>
        <time>2018-08-17T07:47:18.000Z</time>
      </trkpt>
      <trkpt lat="49.3792217038571834564208984375" lon="11.02825247682631015777587890625">
        <ele>304</ele>
        <time>2018-08-17T07:47:28.000Z</time>
      </trkpt>
      <trkpt lat="49.37979326583445072174072265625" lon="11.028107888996601104736328125">
        <ele>304</ele>
        <time>2018-08-17T07:47:38.000Z</time>
      </trkpt>
      <trkpt lat="49.38035200349986553192138671875" lon="11.02805701084434986114501953125">
        <ele>303.79998779296875</ele>
        <time>2018-08-17T07:47:47.000Z</time>
      </trkpt>
      <trkpt lat="49.38066598959267139434814453125" lon="11.02810696698725223541259765625">
        <ele>303.79998779296875</ele>
        <time>2018-08-17T07:47:52.000Z</time>
      </trkpt>
      <trkpt lat="49.3810865096747875213623046875" lon="11.02836948819458484649658203125">
        <ele>303.600006103515625</ele>
        <time>2018-08-17T07:47:59.000Z</time>
      </trkpt>
      <trkpt lat="49.3815602548420429229736328125" lon="11.02874566800892353057861328125">
        <ele>303.20001220703125</ele>
        <time>2018-08-17T07:48:07.000Z</time>
      </trkpt>
      <trkpt lat="49.381808526813983917236328125" lon="11.0289640165865421295166015625">
        <ele>303.20001220703125</ele>
        <time>2018-08-17T07:48:12.000Z</time>
      </trkpt>
      <trkpt lat="49.3820182420313358306884765625" lon="11.0288698039948940277099609375">
        <ele>303.20001220703125</ele>
        <time>2018-08-17T07:48:16.000Z</time>
      </trkpt>
      <trkpt lat="49.38253297470510005950927734375" lon="11.02843486703932285308837890625">
        <ele>303</ele>
        <time>2018-08-17T07:48:25.000Z</time>
      </trkpt>
      <trkpt lat="49.3825858645141124725341796875" lon="11.0283722542226314544677734375">
        <ele>303</ele>
        <time>2018-08-17T07:48:26.000Z</time>
      </trkpt>
      <trkpt lat="49.38267915509641170501708984375" lon="11.028231941163539886474609375">
        <ele>303</ele>
        <time>2018-08-17T07:48:28.000Z</time>
      </trkpt>
      <trkpt lat="49.3829856812953948974609375" lon="11.02766758762300014495849609375">
        <ele>302.79998779296875</ele>
        <time>2018-08-17T07:48:35.000Z</time>
      </trkpt>
      <trkpt lat="49.38351717777550220489501953125" lon="11.027462817728519439697265625">
        <ele>302.79998779296875</ele>
        <time>2018-08-17T07:48:43.000Z</time>
      </trkpt>
      <trkpt lat="49.3840825371444225311279296875" lon="11.02759701199829578399658203125">
        <ele>302.79998779296875</ele>
        <time>2018-08-17T07:48:51.000Z</time>
      </trkpt>
      <trkpt lat="49.38466566614806652069091796875" lon="11.02772022597491741180419921875">
        <ele>302.399993896484375</ele>
        <time>2018-08-17T07:48:59.000Z</time>
      </trkpt>
      <trkpt lat="49.38526312820613384246826171875" lon="11.0277630575001239776611328125">
        <ele>302.399993896484375</ele>
        <time>2018-08-17T07:49:07.000Z</time>
      </trkpt>
      <trkpt lat="49.38580493442714214324951171875" lon="11.02773673832416534423828125">
        <ele>302.399993896484375</ele>
        <time>2018-08-17T07:49:14.000Z</time>
      </trkpt>
      <trkpt lat="49.38636601902544498443603515625" lon="11.0277097485959529876708984375">
        <ele>302.399993896484375</ele>
        <time>2018-08-17T07:49:21.000Z</time>
      </trkpt>
      <trkpt lat="49.38694185577332973480224609375" lon="11.02762148715555667877197265625">
        <ele>302.20001220703125</ele>
        <time>2018-08-17T07:49:28.000Z</time>
      </trkpt>
      <trkpt lat="49.38743747770786285400390625" lon="11.02744949050247669219970703125">
        <ele>302.20001220703125</ele>
        <time>2018-08-17T07:49:34.000Z</time>
      </trkpt>
      <trkpt lat="49.38802345655858516693115234375" lon="11.02748134173452854156494140625">
        <ele>302</ele>
        <time>2018-08-17T07:49:41.000Z</time>
      </trkpt>
      <trkpt lat="49.38843383453786373138427734375" lon="11.0275246761739253997802734375">
        <ele>301.600006103515625</ele>
        <time>2018-08-17T07:49:46.000Z</time>
      </trkpt>
      <trkpt lat="49.38899517059326171875" lon="11.02757538668811321258544921875">
        <ele>301.600006103515625</ele>
        <time>2018-08-17T07:49:54.000Z</time>
      </trkpt>
      <trkpt lat="49.38905510120093822479248046875" lon="11.02756482549011707305908203125">
        <ele>301.600006103515625</ele>
        <time>2018-08-17T07:49:55.000Z</time>
      </trkpt>
      <trkpt lat="49.38959531486034393310546875" lon="11.0273726284503936767578125">
        <ele>301.79998779296875</ele>
        <time>2018-08-17T07:50:03.000Z</time>
      </trkpt>
      <trkpt lat="49.389743842184543609619140625" lon="11.02735796011984348297119140625">
        <ele>301.79998779296875</ele>
        <time>2018-08-17T07:50:05.000Z</time>
      </trkpt>
      <trkpt lat="49.39033250324428081512451171875" lon="11.0274710319936275482177734375">
        <ele>301.399993896484375</ele>
        <time>2018-08-17T07:50:13.000Z</time>
      </trkpt>
      <trkpt lat="49.39087816514074802398681640625" lon="11.02750581689178943634033203125">
        <ele>301.399993896484375</ele>
        <time>2018-08-17T07:50:20.000Z</time>
      </trkpt>
      <trkpt lat="49.3914294429123401641845703125" lon="11.02759483270347118377685546875">
        <ele>301.20001220703125</ele>
        <time>2018-08-17T07:50:27.000Z</time>
      </trkpt>
      <trkpt lat="49.3920141644775867462158203125" lon="11.0276762209832668304443359375">
        <ele>301</ele>
        <time>2018-08-17T07:50:34.000Z</time>
      </trkpt>
      <trkpt lat="49.39258740283548831939697265625" lon="11.02780723012983798980712890625">
        <ele>300.79998779296875</ele>
        <time>2018-08-17T07:50:41.000Z</time>
      </trkpt>
      <trkpt lat="49.39303432591259479522705078125" lon="11.02797671221196651458740234375">
        <ele>300.600006103515625</ele>
        <time>2018-08-17T07:50:47.000Z</time>
      </trkpt>
      <trkpt lat="49.39355266280472278594970703125" lon="11.02825767360627651214599609375">
        <ele>300.399993896484375</ele>
        <time>2018-08-17T07:50:54.000Z</time>
      </trkpt>
      <trkpt lat="49.39412531442940235137939453125" lon="11.028359346091747283935546875">
        <ele>300.399993896484375</ele>
        <time>2018-08-17T07:51:01.000Z</time>
      </trkpt>
      <trkpt lat="49.39451322890818119049072265625" lon="11.02840653620660305023193359375">
        <ele>300.399993896484375</ele>
        <time>2018-08-17T07:51:06.000Z</time>
      </trkpt>
      <trkpt lat="49.394607357680797576904296875" lon="11.02815440855920314788818359375">
        <ele>300.600006103515625</ele>
        <time>2018-08-17T07:51:10.000Z</time>
      </trkpt>
      <trkpt lat="49.39475722610950469970703125" lon="11.02733566425740718841552734375">
        <ele>300.600006103515625</ele>
        <time>2018-08-17T07:51:20.000Z</time>
      </trkpt>
      <trkpt lat="49.39488865435123443603515625" lon="11.02739567868411540985107421875">
        <ele>300.600006103515625</ele>
        <time>2018-08-17T07:51:25.000Z</time>
      </trkpt>
      <trkpt lat="49.395097196102142333984375" lon="11.027649231255054473876953125">
        <ele>300.79998779296875</ele>
        <time>2018-08-17T07:51:30.000Z</time>
      </trkpt>
      <trkpt lat="49.395541436970233917236328125" lon="11.02815323509275913238525390625">
        <ele>301</ele>
        <time>2018-08-17T07:51:38.000Z</time>
      </trkpt>
      <trkpt lat="49.3959489651024341583251953125" lon="11.02869093418121337890625">
        <ele>300.600006103515625</ele>
        <time>2018-08-17T07:51:59.000Z</time>
      </trkpt>
      <trkpt lat="49.39606723375618457794189453125" lon="11.02901170961558818817138671875">
        <ele>301.600006103515625</ele>
        <time>2018-08-17T07:52:10.000Z</time>
      </trkpt>
      <trkpt lat="49.396071173250675201416015625" lon="11.02902025915682315826416015625">
        <ele>301.79998779296875</ele>
        <time>2018-08-17T07:52:12.000Z</time>
      </trkpt>
      <trkpt lat="49.396055750548839569091796875" lon="11.02894918061792850494384765625">
        <ele>302</ele>
        <time>2018-08-17T07:52:23.000Z</time>
      </trkpt>
      <trkpt lat="49.39590294845402240753173828125" lon="11.0285633616149425506591796875">
        <ele>301.79998779296875</ele>
        <time>2018-08-17T07:52:37.000Z</time>
      </trkpt>
      <trkpt lat="49.396132864058017730712890625" lon="11.02879059500992298126220703125">
        <ele>300.600006103515625</ele>
        <time>2018-08-17T07:52:47.000Z</time>
      </trkpt>
      <trkpt lat="49.39638172276318073272705078125" lon="11.0289697162806987762451171875">
        <ele>300</ele>
        <time>2018-08-17T07:52:52.000Z</time>
      </trkpt>
      <trkpt lat="49.396468810737133026123046875" lon="11.02905982173979282379150390625">
        <ele>300</ele>
        <time>2018-08-17T07:52:54.000Z</time>
      </trkpt>
      <trkpt lat="49.3968595750629901885986328125" lon="11.02963079698383808135986328125">
        <ele>301.20001220703125</ele>
        <time>2018-08-17T07:53:08.000Z</time>
      </trkpt>
      <trkpt lat="49.3968907557427883148193359375" lon="11.02967119775712490081787109375">
        <ele>301.600006103515625</ele>
        <time>2018-08-17T07:53:09.000Z</time>
      </trkpt>
      <trkpt lat="49.396990835666656494140625" lon="11.02979642339050769805908203125">
        <ele>302.600006103515625</ele>
        <time>2018-08-17T07:53:12.000Z</time>
      </trkpt>
      <trkpt lat="49.3970203399658203125" lon="11.02984855882823467254638671875">
        <ele>302.79998779296875</ele>
        <time>2018-08-17T07:53:13.000Z</time>
      </trkpt>
      <trkpt lat="49.3971170671284198760986328125" lon="11.02999909780919551849365234375">
        <ele>303.600006103515625</ele>
        <time>2018-08-17T07:53:16.000Z</time>
      </trkpt>
      <trkpt lat="49.39724363386631011962890625" lon="11.030195653438568115234375">
        <ele>304</ele>
        <time>2018-08-17T07:53:20.000Z</time>
      </trkpt>
      <trkpt lat="49.3974132835865020751953125" lon="11.0304142534732818603515625">
        <ele>304.600006103515625</ele>
        <time>2018-08-17T07:53:25.000Z</time>
      </trkpt>
      <trkpt lat="49.3975291214883327484130859375" lon="11.03052615188062191009521484375">
        <ele>305</ele>
        <time>2018-08-17T07:53:28.000Z</time>
      </trkpt>
      <trkpt lat="49.3978600390255451202392578125" lon="11.03087064810097217559814453125">
        <ele>306.20001220703125</ele>
        <time>2018-08-17T07:53:36.000Z</time>
      </trkpt>
      <trkpt lat="49.39833085052669048309326171875" lon="11.03132293559610843658447265625">
        <ele>307.20001220703125</ele>
        <time>2018-08-17T07:53:45.000Z</time>
      </trkpt>
      <trkpt lat="49.3988175876438617706298828125" lon="11.03174588643014430999755859375">
        <ele>307.399993896484375</ele>
        <time>2018-08-17T07:53:55.000Z</time>
      </trkpt>
      <trkpt lat="49.39920474775135517120361328125" lon="11.03214436210691928863525390625">
        <ele>308</ele>
        <time>2018-08-17T07:54:04.000Z</time>
      </trkpt>
      <trkpt lat="49.399430640041828155517578125" lon="11.03238592855632305145263671875">
        <ele>308.20001220703125</ele>
        <time>2018-08-17T07:54:09.000Z</time>
      </trkpt>
      <trkpt lat="49.39988158643245697021484375" lon="11.0328750126063823699951171875">
        <ele>308.600006103515625</ele>
        <time>2018-08-17T07:54:18.000Z</time>
      </trkpt>
      <trkpt lat="49.40032037906348705291748046875" lon="11.03337608277797698974609375">
        <ele>308.399993896484375</ele>
        <time>2018-08-17T07:54:27.000Z</time>
      </trkpt>
      <trkpt lat="49.40078104846179485321044921875" lon="11.03390657342970371246337890625">
        <ele>308.20001220703125</ele>
        <time>2018-08-17T07:54:36.000Z</time>
      </trkpt>
      <trkpt lat="49.400875009596347808837890625" lon="11.0340486466884613037109375">
        <ele>308.20001220703125</ele>
        <time>2018-08-17T07:54:38.000Z</time>
      </trkpt>
      <trkpt lat="49.40130055882036685943603515625" lon="11.03468089364469051361083984375">
        <ele>308.20001220703125</ele>
        <time>2018-08-17T07:54:47.000Z</time>
      </trkpt>
      <trkpt lat="49.40178084187209606170654296875" lon="11.035199649631977081298828125">
        <ele>308.20001220703125</ele>
        <time>2018-08-17T07:54:56.000Z</time>
      </trkpt>
      <trkpt lat="49.4018776528537273406982421875" lon="11.03527483530342578887939453125">
        <ele>308.399993896484375</ele>
        <time>2018-08-17T07:54:58.000Z</time>
      </trkpt>
      <trkpt lat="49.402291215956211090087890625" lon="11.03574908338487148284912109375">
        <ele>308.20001220703125</ele>
        <time>2018-08-17T07:55:14.000Z</time>
      </trkpt>
      <trkpt lat="49.40246321260929107666015625" lon="11.035700552165508270263671875">
        <ele>308.20001220703125</ele>
        <time>2018-08-17T07:55:18.000Z</time>
      </trkpt>
      <trkpt lat="49.4026705808937549591064453125" lon="11.03560189716517925262451171875">
        <ele>308.20001220703125</ele>
        <time>2018-08-17T07:55:22.000Z</time>
      </trkpt>
      <trkpt lat="49.40289110876619815826416015625" lon="11.035468541085720062255859375">
        <ele>308.20001220703125</ele>
        <time>2018-08-17T07:55:26.000Z</time>
      </trkpt>
      <trkpt lat="49.40344448201358318328857421875" lon="11.0352594964206218719482421875">
        <ele>308.399993896484375</ele>
        <time>2018-08-17T07:55:35.000Z</time>
      </trkpt>
      <trkpt lat="49.403757713735103607177734375" lon="11.035180874168872833251953125">
        <ele>308.20001220703125</ele>
        <time>2018-08-17T07:55:40.000Z</time>
      </trkpt>
      <trkpt lat="49.404312260448932647705078125" lon="11.0351247154176235198974609375">
        <ele>308.399993896484375</ele>
        <time>2018-08-17T07:55:49.000Z</time>
      </trkpt>
      <trkpt lat="49.404530189931392669677734375" lon="11.03510610759258270263671875">
        <ele>308.399993896484375</ele>
        <time>2018-08-17T07:55:53.000Z</time>
      </trkpt>
      <trkpt lat="49.4047060422599315643310546875" lon="11.03510677814483642578125">
        <ele>308.399993896484375</ele>
        <time>2018-08-17T07:55:56.000Z</time>
      </trkpt>
      <trkpt lat="49.40493998117744922637939453125" lon="11.0351347737014293670654296875">
        <ele>308.20001220703125</ele>
        <time>2018-08-17T07:56:00.000Z</time>
      </trkpt>
      <trkpt lat="49.405503161251544952392578125" lon="11.03514634072780609130859375">
        <ele>308</ele>
        <time>2018-08-17T07:56:10.000Z</time>
      </trkpt>
      <trkpt lat="49.405736513435840606689453125" lon="11.03514659218490123748779296875">
        <ele>308</ele>
        <time>2018-08-17T07:56:14.000Z</time>
      </trkpt>
      <trkpt lat="49.405969865620136260986328125" lon="11.0351153276860713958740234375">
        <ele>308</ele>
        <time>2018-08-17T07:56:18.000Z</time>
      </trkpt>
      <trkpt lat="49.40656296908855438232421875" lon="11.03520342148840427398681640625">
        <ele>308.20001220703125</ele>
        <time>2018-08-17T07:56:28.000Z</time>
      </trkpt>
      <trkpt lat="49.40667537041008472442626953125" lon="11.0352266393601894378662109375">
        <ele>308.20001220703125</ele>
        <time>2018-08-17T07:56:30.000Z</time>
      </trkpt>
      <trkpt lat="49.40708943642675876617431640625" lon="11.0353641025722026824951171875">
        <ele>309</ele>
        <time>2018-08-17T07:56:38.000Z</time>
      </trkpt>
      <trkpt lat="49.40735556185245513916015625" lon="11.03543694131076335906982421875">
        <ele>309.600006103515625</ele>
        <time>2018-08-17T07:56:43.000Z</time>
      </trkpt>
      <trkpt lat="49.40775529481470584869384765625" lon="11.03555663488805294036865234375">
        <ele>310</ele>
        <time>2018-08-17T07:56:50.000Z</time>
      </trkpt>
      <trkpt lat="49.4080571271479129791259765625" lon="11.035618744790554046630859375">
        <ele>310.20001220703125</ele>
        <time>2018-08-17T07:56:55.000Z</time>
      </trkpt>
      <trkpt lat="49.4085389189422130584716796875" lon="11.03545613586902618408203125">
        <ele>310.399993896484375</ele>
        <time>2018-08-17T07:57:03.000Z</time>
      </trkpt>
      <trkpt lat="49.4090522266924381256103515625" lon="11.035174839198589324951171875">
        <ele>310.399993896484375</ele>
        <time>2018-08-17T07:57:12.000Z</time>
      </trkpt>
      <trkpt lat="49.40917317755520343780517578125" lon="11.03512278757989406585693359375">
        <ele>310.399993896484375</ele>
        <time>2018-08-17T07:57:20.000Z</time>
      </trkpt>
      <trkpt lat="49.40920854918658733367919921875" lon="11.03511013090610504150390625">
        <ele>310.399993896484375</ele>
        <time>2018-08-17T07:57:43.000Z</time>
      </trkpt>
      <trkpt lat="49.409688748419284820556640625" lon="11.0348586738109588623046875">
        <ele>310.600006103515625</ele>
        <time>2018-08-17T07:57:58.000Z</time>
      </trkpt>
      <trkpt lat="49.41010289825499057769775390625" lon="11.03463261388242244720458984375">
        <ele>311.79998779296875</ele>
        <time>2018-08-17T07:58:09.000Z</time>
      </trkpt>
      <trkpt lat="49.410644955933094024658203125" lon="11.034365482628345489501953125">
        <ele>312.600006103515625</ele>
        <time>2018-08-17T07:58:21.000Z</time>
      </trkpt>
      <trkpt lat="49.41073690541088581085205078125" lon="11.03432558476924896240234375">
        <ele>312.79998779296875</ele>
        <time>2018-08-17T07:58:23.000Z</time>
      </trkpt>
      <trkpt lat="49.41126429475843906402587890625" lon="11.0341396741569042205810546875">
        <ele>313.600006103515625</ele>
        <time>2018-08-17T07:58:36.000Z</time>
      </trkpt>
      <trkpt lat="49.41144417040050029754638671875" lon="11.03408896364271640777587890625">
        <ele>313.79998779296875</ele>
        <time>2018-08-17T07:58:40.000Z</time>
      </trkpt>
      <trkpt lat="49.41200114786624908447265625" lon="11.03408963419497013092041015625">
        <ele>313.600006103515625</ele>
        <time>2018-08-17T07:58:49.000Z</time>
      </trkpt>
      <trkpt lat="49.4125977717339992523193359375" lon="11.0342479683458805084228515625">
        <ele>313.20001220703125</ele>
        <time>2018-08-17T07:58:57.000Z</time>
      </trkpt>
      <trkpt lat="49.41311971284449100494384765625" lon="11.03453638963401317596435546875">
        <ele>312.600006103515625</ele>
        <time>2018-08-17T07:59:04.000Z</time>
      </trkpt>
      <trkpt lat="49.41346429288387298583984375" lon="11.03475884534418582916259765625">
        <ele>312</ele>
        <time>2018-08-17T07:59:09.000Z</time>
      </trkpt>
      <trkpt lat="49.41355280578136444091796875" lon="11.03484584949910640716552734375">
        <ele>311.600006103515625</ele>
        <time>2018-08-17T07:59:13.000Z</time>
      </trkpt>
      <trkpt lat="49.413554482161998748779296875" lon="11.03484652005136013031005859375">
        <ele>311.600006103515625</ele>
        <time>2018-08-17T07:59:14.000Z</time>
      </trkpt>
      <trkpt lat="49.41357401199638843536376953125" lon="11.0348611883819103240966796875">
        <ele>310.600006103515625</ele>
        <time>2018-08-17T07:59:30.000Z</time>
      </trkpt>
      <trkpt lat="49.41395170055329799652099609375" lon="11.03518716059625148773193359375">
        <ele>310.399993896484375</ele>
        <time>2018-08-17T07:59:46.000Z</time>
      </trkpt>
      <trkpt lat="49.413980282843112945556640625" lon="11.03521884419023990631103515625">
        <ele>310</ele>
        <time>2018-08-17T08:00:04.000Z</time>
      </trkpt>
      <trkpt lat="49.414482526481151580810546875" lon="11.0357087664306163787841796875">
        <ele>310.399993896484375</ele>
        <time>2018-08-17T08:00:18.000Z</time>
      </trkpt>
      <trkpt lat="49.4149812497198581695556640625" lon="11.0360343195497989654541015625">
        <ele>310.399993896484375</ele>
        <time>2018-08-17T08:00:27.000Z</time>
      </trkpt>
      <trkpt lat="49.415216110646724700927734375" lon="11.03614747524261474609375">
        <ele>310.20001220703125</ele>
        <time>2018-08-17T08:00:31.000Z</time>
      </trkpt>
      <trkpt lat="49.41547083668410778045654296875" lon="11.03620958514511585235595703125">
        <ele>310</ele>
        <time>2018-08-17T08:00:35.000Z</time>
      </trkpt>
      <trkpt lat="49.41592144779860973358154296875" lon="11.0363461263477802276611328125">
        <ele>309.600006103515625</ele>
        <time>2018-08-17T08:00:42.000Z</time>
      </trkpt>
      <trkpt lat="49.4164624996483325958251953125" lon="11.03649021126329898834228515625">
        <ele>309.399993896484375</ele>
        <time>2018-08-17T08:00:52.000Z</time>
      </trkpt>
      <trkpt lat="49.4165211729705333709716796875" lon="11.0365097410976886749267578125">
        <ele>309.20001220703125</ele>
        <time>2018-08-17T08:00:59.000Z</time>
      </trkpt>
      <trkpt lat="49.4165456481277942657470703125" lon="11.0365171171724796295166015625">
        <ele>309.20001220703125</ele>
        <time>2018-08-17T08:01:18.000Z</time>
      </trkpt>
      <trkpt lat="49.4169107638299465179443359375" lon="11.0366361401975154876708984375">
        <ele>309.399993896484375</ele>
        <time>2018-08-17T08:01:29.000Z</time>
      </trkpt>
      <trkpt lat="49.41747277043759822845458984375" lon="11.0366934724152088165283203125">
        <ele>309.79998779296875</ele>
        <time>2018-08-17T08:01:40.000Z</time>
      </trkpt>
      <trkpt lat="49.418017677962779998779296875" lon="11.03659045882523059844970703125">
        <ele>310.20001220703125</ele>
        <time>2018-08-17T08:01:50.000Z</time>
      </trkpt>
      <trkpt lat="49.41856862045824527740478515625" lon="11.036460958421230316162109375">
        <ele>310.20001220703125</ele>
        <time>2018-08-17T08:01:59.000Z</time>
      </trkpt>
      <trkpt lat="49.41912886686623096466064453125" lon="11.0363887064158916473388671875">
        <ele>310.20001220703125</ele>
        <time>2018-08-17T08:02:08.000Z</time>
      </trkpt>
      <trkpt lat="49.4196124188601970672607421875" lon="11.03637068532407283782958984375">
        <ele>310.20001220703125</ele>
        <time>2018-08-17T08:02:16.000Z</time>
      </trkpt>
      <trkpt lat="49.4201968051493167877197265625" lon="11.03635878302156925201416015625">
        <ele>310.399993896484375</ele>
        <time>2018-08-17T08:02:27.000Z</time>
      </trkpt>
      <trkpt lat="49.42075964994728565216064453125" lon="11.0362653248012065887451171875">
        <ele>310.600006103515625</ele>
        <time>2018-08-17T08:02:37.000Z</time>
      </trkpt>
      <trkpt lat="49.42119718529284000396728515625" lon="11.0362643189728260040283203125">
        <ele>310.600006103515625</ele>
        <time>2018-08-17T08:02:44.000Z</time>
      </trkpt>
      <trkpt lat="49.42125988192856311798095703125" lon="11.03628653101623058319091796875">
        <ele>310.600006103515625</ele>
        <time>2018-08-17T08:02:45.000Z</time>
      </trkpt>
      <trkpt lat="49.4214896298944950103759765625" lon="11.0364524088799953460693359375">
        <ele>310.600006103515625</ele>
        <time>2018-08-17T08:02:49.000Z</time>
      </trkpt>
      <trkpt lat="49.421943090856075286865234375" lon="11.03695414960384368896484375">
        <ele>310.79998779296875</ele>
        <time>2018-08-17T08:02:58.000Z</time>
      </trkpt>
      <trkpt lat="49.422348774969577789306640625" lon="11.03736461140215396881103515625">
        <ele>311.600006103515625</ele>
        <time>2018-08-17T08:03:06.000Z</time>
      </trkpt>
      <trkpt lat="49.422760494053363800048828125" lon="11.03776124306023120880126953125">
        <ele>312.79998779296875</ele>
        <time>2018-08-17T08:03:17.000Z</time>
      </trkpt>
      <trkpt lat="49.42277097143232822418212890625" lon="11.037773899734020233154296875">
        <ele>312.79998779296875</ele>
        <time>2018-08-17T08:03:18.000Z</time>
      </trkpt>
      <trkpt lat="49.42277491092681884765625" lon="11.03777758777141571044921875">
        <ele>313.20001220703125</ele>
        <time>2018-08-17T08:03:20.000Z</time>
      </trkpt>
      <trkpt lat="49.42282252013683319091796875" lon="11.0377941839396953582763671875">
        <ele>313.600006103515625</ele>
        <time>2018-08-17T08:03:42.000Z</time>
      </trkpt>
      <trkpt lat="49.42288027144968509674072265625" lon="11.0378230176866054534912109375">
        <ele>313.600006103515625</ele>
        <time>2018-08-17T08:03:48.000Z</time>
      </trkpt>
      <trkpt lat="49.42291312851011753082275390625" lon="11.03785931132733821868896484375">
        <ele>313.600006103515625</ele>
        <time>2018-08-17T08:04:24.000Z</time>
      </trkpt>
      <trkpt lat="49.4230122864246368408203125" lon="11.03794245980679988861083984375">
        <ele>313.79998779296875</ele>
        <time>2018-08-17T08:04:28.000Z</time>
      </trkpt>
      <trkpt lat="49.4233651645481586456298828125" lon="11.0382360778748989105224609375">
        <ele>314.20001220703125</ele>
        <time>2018-08-17T08:04:37.000Z</time>
      </trkpt>
      <trkpt lat="49.42372600547969341278076171875" lon="11.03853128850460052490234375">
        <ele>315.20001220703125</ele>
        <time>2018-08-17T08:04:45.000Z</time>
      </trkpt>
      <trkpt lat="49.42406362853944301605224609375" lon="11.03877109475433826446533203125">
        <ele>316.20001220703125</ele>
        <time>2018-08-17T08:04:52.000Z</time>
      </trkpt>
      <trkpt lat="49.42411601543426513671875" lon="11.0387896187603473663330078125">
        <ele>316.399993896484375</ele>
        <time>2018-08-17T08:04:53.000Z</time>
      </trkpt>
      <trkpt lat="49.4242781214416027069091796875" lon="11.038845442235469818115234375">
        <ele>317</ele>
        <time>2018-08-17T08:04:56.000Z</time>
      </trkpt>
      <trkpt lat="49.42448557354509830474853515625" lon="11.03899137116968631744384765625">
        <ele>317.79998779296875</ele>
        <time>2018-08-17T08:05:00.000Z</time>
      </trkpt>
      <trkpt lat="49.4249783456325531005859375" lon="11.03944801725447177886962890625">
        <ele>318.399993896484375</ele>
        <time>2018-08-17T08:05:09.000Z</time>
      </trkpt>
      <trkpt lat="49.42541244439780712127685546875" lon="11.04002117179334163665771484375">
        <ele>318</ele>
        <time>2018-08-17T08:05:17.000Z</time>
      </trkpt>
      <trkpt lat="49.42574704997241497039794921875" lon="11.040523834526538848876953125">
        <ele>316.79998779296875</ele>
        <time>2018-08-17T08:05:24.000Z</time>
      </trkpt>
      <trkpt lat="49.4259146042168140411376953125" lon="11.04077160358428955078125">
        <ele>315.79998779296875</ele>
        <time>2018-08-17T08:05:28.000Z</time>
      </trkpt>
      <trkpt lat="49.42601845599710941314697265625" lon="11.04097285307943820953369140625">
        <ele>315.79998779296875</ele>
        <time>2018-08-17T08:05:31.000Z</time>
      </trkpt>
      <trkpt lat="49.42614301107823848724365234375" lon="11.041140742599964141845703125">
        <ele>315.79998779296875</ele>
        <time>2018-08-17T08:05:34.000Z</time>
      </trkpt>
      <trkpt lat="49.42642514593899250030517578125" lon="11.041583307087421417236328125">
        <ele>316.20001220703125</ele>
        <time>2018-08-17T08:05:42.000Z</time>
      </trkpt>
      <trkpt lat="49.42682865075767040252685546875" lon="11.04216040112078189849853515625">
        <ele>317.20001220703125</ele>
        <time>2018-08-17T08:05:53.000Z</time>
      </trkpt>
      <trkpt lat="49.42699645645916461944580078125" lon="11.04240029118955135345458984375">
        <ele>317.79998779296875</ele>
        <time>2018-08-17T08:06:00.000Z</time>
      </trkpt>
      <trkpt lat="49.42702914588153362274169921875" lon="11.04240498505532741546630859375">
        <ele>318</ele>
        <time>2018-08-17T08:06:05.000Z</time>
      </trkpt>
      <trkpt lat="49.42706887610256671905517578125" lon="11.0424481518566608428955078125">
        <ele>318</ele>
        <time>2018-08-17T08:06:24.000Z</time>
      </trkpt>
      <trkpt lat="49.42752979695796966552734375" lon="11.0429564304649829864501953125">
        <ele>318</ele>
        <time>2018-08-17T08:06:38.000Z</time>
      </trkpt>
      <trkpt lat="49.4280387461185455322265625" lon="11.0433161817491054534912109375">
        <ele>318</ele>
        <time>2018-08-17T08:06:48.000Z</time>
      </trkpt>
      <trkpt lat="49.4285545684397220611572265625" lon="11.04371876455843448638916015625">
        <ele>318</ele>
        <time>2018-08-17T08:06:58.000Z</time>
      </trkpt>
      <trkpt lat="49.4290695525705814361572265625" lon="11.0441339202225208282470703125">
        <ele>317.20001220703125</ele>
        <time>2018-08-17T08:07:08.000Z</time>
      </trkpt>
      <trkpt lat="49.42942972294986248016357421875" lon="11.0443585552275180816650390625">
        <ele>316.79998779296875</ele>
        <time>2018-08-17T08:07:15.000Z</time>
      </trkpt>
      <trkpt lat="49.42951790057122707366943359375" lon="11.04445419274270534515380859375">
        <ele>316.79998779296875</ele>
        <time>2018-08-17T08:07:17.000Z</time>
      </trkpt>
      <trkpt lat="49.429734237492084503173828125" lon="11.04470464400947093963623046875">
        <ele>316.399993896484375</ele>
        <time>2018-08-17T08:07:26.000Z</time>
      </trkpt>
      <trkpt lat="49.4297714531421661376953125" lon="11.0447421111166477203369140625">
        <ele>315.79998779296875</ele>
        <time>2018-08-17T08:08:01.000Z</time>
      </trkpt>
      <trkpt lat="49.4299270212650299072265625" lon="11.04487127624452114105224609375">
        <ele>315.79998779296875</ele>
        <time>2018-08-17T08:08:06.000Z</time>
      </trkpt>
      <trkpt lat="49.4300555996596813201904296875" lon="11.0449902154505252838134765625">
        <ele>315.600006103515625</ele>
        <time>2018-08-17T08:08:09.000Z</time>
      </trkpt>
      <trkpt lat="49.430151320993900299072265625" lon="11.04506112635135650634765625">
        <ele>315.600006103515625</ele>
        <time>2018-08-17T08:08:11.000Z</time>
      </trkpt>
      <trkpt lat="49.43063302896916866302490234375" lon="11.0454632900655269622802734375">
        <ele>315.600006103515625</ele>
        <time>2018-08-17T08:08:20.000Z</time>
      </trkpt>
      <trkpt lat="49.431120269000530242919921875" lon="11.045836620032787322998046875">
        <ele>315.20001220703125</ele>
        <time>2018-08-17T08:08:28.000Z</time>
      </trkpt>
      <trkpt lat="49.4316129572689533233642578125" lon="11.0460756719112396240234375">
        <ele>314.79998779296875</ele>
        <time>2018-08-17T08:08:36.000Z</time>
      </trkpt>
      <trkpt lat="49.43167255260050296783447265625" lon="11.0461051762104034423828125">
        <ele>314.79998779296875</ele>
        <time>2018-08-17T08:08:37.000Z</time>
      </trkpt>
      <trkpt lat="49.4318560324609279632568359375" lon="11.046170555055141448974609375">
        <ele>314.399993896484375</ele>
        <time>2018-08-17T08:08:40.000Z</time>
      </trkpt>
      <trkpt lat="49.43239909596741199493408203125" lon="11.04634615592658519744873046875">
        <ele>313.600006103515625</ele>
        <time>2018-08-17T08:08:49.000Z</time>
      </trkpt>
      <trkpt lat="49.4329111464321613311767578125" lon="11.0466437973082065582275390625">
        <ele>312.79998779296875</ele>
        <time>2018-08-17T08:09:00.000Z</time>
      </trkpt>
      <trkpt lat="49.433018602430820465087890625" lon="11.0467339865863323211669921875">
        <ele>312.600006103515625</ele>
        <time>2018-08-17T08:09:02.000Z</time>
      </trkpt>
      <trkpt lat="49.43311843089759349822998046875" lon="11.04683314450085163116455078125">
        <ele>312.600006103515625</ele>
        <time>2018-08-17T08:09:04.000Z</time>
      </trkpt>
      <trkpt lat="49.43352847360074520111083984375" lon="11.04740361683070659637451171875">
        <ele>312</ele>
        <time>2018-08-17T08:09:13.000Z</time>
      </trkpt>
      <trkpt lat="49.4337516836822032928466796875" lon="11.04780276305973529815673828125">
        <ele>311.79998779296875</ele>
        <time>2018-08-17T08:09:19.000Z</time>
      </trkpt>
      <trkpt lat="49.43379753269255161285400390625" lon="11.04795196093618869781494140625">
        <ele>311.600006103515625</ele>
        <time>2018-08-17T08:09:21.000Z</time>
      </trkpt>
      <trkpt lat="49.433901049196720123291015625" lon="11.0481448285281658172607421875">
        <ele>311.600006103515625</ele>
        <time>2018-08-17T08:09:24.000Z</time>
      </trkpt>
      <trkpt lat="49.43434059619903564453125" lon="11.04871697723865509033203125">
        <ele>311.79998779296875</ele>
        <time>2018-08-17T08:09:35.000Z</time>
      </trkpt>
      <trkpt lat="49.43482699804008007049560546875" lon="11.04910455644130706787109375">
        <ele>311.79998779296875</ele>
        <time>2018-08-17T08:09:51.000Z</time>
      </trkpt>
      <trkpt lat="49.43503327667713165283203125" lon="11.0491897165775299072265625">
        <ele>311.79998779296875</ele>
        <time>2018-08-17T08:09:56.000Z</time>
      </trkpt>
      <trkpt lat="49.4355420581996440887451171875" lon="11.0496027767658233642578125">
        <ele>310.600006103515625</ele>
        <time>2018-08-17T08:10:06.000Z</time>
      </trkpt>
      <trkpt lat="49.43566250614821910858154296875" lon="11.04966337792575359344482421875">
        <ele>310.399993896484375</ele>
        <time>2018-08-17T08:10:08.000Z</time>
      </trkpt>
      <trkpt lat="49.43572126328945159912109375" lon="11.0496807284653186798095703125">
        <ele>310.20001220703125</ele>
        <time>2018-08-17T08:10:09.000Z</time>
      </trkpt>
      <trkpt lat="49.4359350018203258514404296875" lon="11.04975759051740169525146484375">
        <ele>309.20001220703125</ele>
        <time>2018-08-17T08:10:14.000Z</time>
      </trkpt>
      <trkpt lat="49.4359594769775867462158203125" lon="11.0498093068599700927734375">
        <ele>308.79998779296875</ele>
        <time>2018-08-17T08:10:15.000Z</time>
      </trkpt>
      <trkpt lat="49.436017982661724090576171875" lon="11.04998390190303325653076171875">
        <ele>308.399993896484375</ele>
        <time>2018-08-17T08:10:18.000Z</time>
      </trkpt>
      <trkpt lat="49.436239935457706451416015625" lon="11.050312556326389312744140625">
        <ele>308.600006103515625</ele>
        <time>2018-08-17T08:10:28.000Z</time>
      </trkpt>
      <trkpt lat="49.43628008477389812469482421875" lon="11.05033577419817447662353515625">
        <ele>308.79998779296875</ele>
        <time>2018-08-17T08:10:31.000Z</time>
      </trkpt>
      <trkpt lat="49.4368194602429866790771484375" lon="11.05069552548229694366455078125">
        <ele>309.399993896484375</ele>
        <time>2018-08-17T08:10:44.000Z</time>
      </trkpt>
      <trkpt lat="49.43737342022359371185302734375" lon="11.0510157980024814605712890625">
        <ele>308.600006103515625</ele>
        <time>2018-08-17T08:10:53.000Z</time>
      </trkpt>
      <trkpt lat="49.4377625919878482818603515625" lon="11.0511914826929569244384765625">
        <ele>308.20001220703125</ele>
        <time>2018-08-17T08:10:59.000Z</time>
      </trkpt>
      <trkpt lat="49.43804539740085601806640625" lon="11.05133238248527050018310546875">
        <ele>307.399993896484375</ele>
        <time>2018-08-17T08:11:11.000Z</time>
      </trkpt>
      <trkpt lat="49.43807750009000301361083984375" lon="11.0513393394649028778076171875">
        <ele>307</ele>
        <time>2018-08-17T08:11:21.000Z</time>
      </trkpt>
      <trkpt lat="49.438329376280307769775390625" lon="11.05144151486456394195556640625">
        <ele>306.79998779296875</ele>
        <time>2018-08-17T08:11:28.000Z</time>
      </trkpt>
      <trkpt lat="49.43860455416142940521240234375" lon="11.05152566917240619659423828125">
        <ele>306.79998779296875</ele>
        <time>2018-08-17T08:11:33.000Z</time>
      </trkpt>
      <trkpt lat="49.43915641866624355316162109375" lon="11.05174343101680278778076171875">
        <ele>307</ele>
        <time>2018-08-17T08:11:42.000Z</time>
      </trkpt>
      <trkpt lat="49.43938658572733402252197265625" lon="11.05197426863014698028564453125">
        <ele>307</ele>
        <time>2018-08-17T08:11:46.000Z</time>
      </trkpt>
      <trkpt lat="49.43978078663349151611328125" lon="11.0526747442781925201416015625">
        <ele>306.79998779296875</ele>
        <time>2018-08-17T08:11:55.000Z</time>
      </trkpt>
      <trkpt lat="49.44015629589557647705078125" lon="11.0534120164811611175537109375">
        <ele>306.79998779296875</ele>
        <time>2018-08-17T08:12:03.000Z</time>
      </trkpt>
      <trkpt lat="49.44047640077769756317138671875" lon="11.054090447723865509033203125">
        <ele>306.600006103515625</ele>
        <time>2018-08-17T08:12:11.000Z</time>
      </trkpt>
      <trkpt lat="49.4405396841466426849365234375" lon="11.05416647158563137054443359375">
        <ele>306.600006103515625</ele>
        <time>2018-08-17T08:12:16.000Z</time>
      </trkpt>
      <trkpt lat="49.44058620370924472808837890625" lon="11.05419932864606380462646484375">
        <ele>306.399993896484375</ele>
        <time>2018-08-17T08:12:35.000Z</time>
      </trkpt>
      <trkpt lat="49.4409648142755031585693359375" lon="11.0548976249992847442626953125">
        <ele>306.399993896484375</ele>
        <time>2018-08-17T08:12:47.000Z</time>
      </trkpt>
      <trkpt lat="49.44133915007114410400390625" lon="11.0555894672870635986328125">
        <ele>306.600006103515625</ele>
        <time>2018-08-17T08:12:56.000Z</time>
      </trkpt>
      <trkpt lat="49.44168624468147754669189453125" lon="11.05625725351274013519287109375">
        <ele>306</ele>
        <time>2018-08-17T08:13:04.000Z</time>
      </trkpt>
      <trkpt lat="49.441816247999668121337890625" lon="11.05650368146598339080810546875">
        <ele>306</ele>
        <time>2018-08-17T08:13:07.000Z</time>
      </trkpt>
      <trkpt lat="49.4420745782554149627685546875" lon="11.05699569918215274810791015625">
        <ele>305.79998779296875</ele>
        <time>2018-08-17T08:13:20.000Z</time>
      </trkpt>
      <trkpt lat="49.44209687411785125732421875" lon="11.05703584849834442138671875">
        <ele>305.79998779296875</ele>
        <time>2018-08-17T08:13:25.000Z</time>
      </trkpt>
      <trkpt lat="49.44235277362167835235595703125" lon="11.057464666664600372314453125">
        <ele>306.20001220703125</ele>
        <time>2018-08-17T08:13:36.000Z</time>
      </trkpt>
      <trkpt lat="49.44274119101464748382568359375" lon="11.0581402480602264404296875">
        <ele>306.600006103515625</ele>
        <time>2018-08-17T08:13:46.000Z</time>
      </trkpt>
      <trkpt lat="49.44316816516220569610595703125" lon="11.05877702124416828155517578125">
        <ele>307</ele>
        <time>2018-08-17T08:13:55.000Z</time>
      </trkpt>
      <trkpt lat="49.44357217289507389068603515625" lon="11.0592652671039104461669921875">
        <ele>307</ele>
        <time>2018-08-17T08:14:02.000Z</time>
      </trkpt>
      <trkpt lat="49.44380133412778377532958984375" lon="11.0595653392374515533447265625">
        <ele>306.600006103515625</ele>
        <time>2018-08-17T08:14:06.000Z</time>
      </trkpt>
      <trkpt lat="49.44392873905599117279052734375" lon="11.059690229594707489013671875">
        <ele>305.79998779296875</ele>
        <time>2018-08-17T08:14:08.000Z</time>
      </trkpt>
      <trkpt lat="49.444086067378520965576171875" lon="11.0599002800881862640380859375">
        <ele>304.79998779296875</ele>
        <time>2018-08-17T08:14:11.000Z</time>
      </trkpt>
      <trkpt lat="49.444185309112071990966796875" lon="11.059991307556629180908203125">
        <ele>304.399993896484375</ele>
        <time>2018-08-17T08:14:13.000Z</time>
      </trkpt>
      <trkpt lat="49.44432285614311695098876953125" lon="11.0602137632668018341064453125">
        <ele>304.399993896484375</ele>
        <time>2018-08-17T08:14:18.000Z</time>
      </trkpt>
      <trkpt lat="49.44438882172107696533203125" lon="11.0602928884327411651611328125">
        <ele>304.399993896484375</ele>
        <time>2018-08-17T08:14:20.000Z</time>
      </trkpt>
      <trkpt lat="49.44491696543991565704345703125" lon="11.06050662696361541748046875">
        <ele>305.79998779296875</ele>
        <time>2018-08-17T08:14:33.000Z</time>
      </trkpt>
      <trkpt lat="49.44512366317212581634521484375" lon="11.0606067068874835968017578125">
        <ele>306.20001220703125</ele>
        <time>2018-08-17T08:14:38.000Z</time>
      </trkpt>
      <trkpt lat="49.4456005096435546875" lon="11.060858331620693206787109375">
        <ele>306.399993896484375</ele>
        <time>2018-08-17T08:14:50.000Z</time>
      </trkpt>
      <trkpt lat="49.4457213766872882843017578125" lon="11.06130165047943592071533203125">
        <ele>306.20001220703125</ele>
        <time>2018-08-17T08:14:56.000Z</time>
      </trkpt>
      <trkpt lat="49.445932768285274505615234375" lon="11.0620876215398311614990234375">
        <ele>306</ele>
        <time>2018-08-17T08:15:05.000Z</time>
      </trkpt>
      <trkpt lat="49.44619688205420970916748046875" lon="11.06291030533611774444580078125">
        <ele>306.20001220703125</ele>
        <time>2018-08-17T08:15:14.000Z</time>
      </trkpt>
      <trkpt lat="49.44646074436604976654052734375" lon="11.06372737325727939605712890625">
        <ele>306.20001220703125</ele>
        <time>2018-08-17T08:15:23.000Z</time>
      </trkpt>
      <trkpt lat="49.446794092655181884765625" lon="11.064470596611499786376953125">
        <ele>306.399993896484375</ele>
        <time>2018-08-17T08:15:32.000Z</time>
      </trkpt>
      <trkpt lat="49.44713674485683441162109375" lon="11.06518850661814212799072265625">
        <ele>306</ele>
        <time>2018-08-17T08:15:41.000Z</time>
      </trkpt>
      <trkpt lat="49.4474337995052337646484375" lon="11.06575998477637767791748046875">
        <ele>306.600006103515625</ele>
        <time>2018-08-17T08:15:58.000Z</time>
      </trkpt>
      <trkpt lat="49.44745902903378009796142578125" lon="11.065787561237812042236328125">
        <ele>306.79998779296875</ele>
        <time>2018-08-17T08:16:42.000Z</time>
      </trkpt>
      <trkpt lat="49.44796412251889705657958984375" lon="11.06619969941675662994384765625">
        <ele>306.79998779296875</ele>
        <time>2018-08-17T08:16:54.000Z</time>
      </trkpt>
      <trkpt lat="49.4481239654123783111572265625" lon="11.06629055924713611602783203125">
        <ele>307</ele>
        <time>2018-08-17T08:16:57.000Z</time>
      </trkpt>
      <trkpt lat="49.4482765160501003265380859375" lon="11.06627874076366424560546875">
        <ele>307.20001220703125</ele>
        <time>2018-08-17T08:17:01.000Z</time>
      </trkpt>
      <trkpt lat="49.44841037504374980926513671875" lon="11.06619182042777538299560546875">
        <ele>307.399993896484375</ele>
        <time>2018-08-17T08:17:04.000Z</time>
      </trkpt>
      <trkpt lat="49.44867507554590702056884765625" lon="11.066099703311920166015625">
        <ele>307.399993896484375</ele>
        <time>2018-08-17T08:17:09.000Z</time>
      </trkpt>
      <trkpt lat="49.44924135692417621612548828125" lon="11.06599501334130764007568359375">
        <ele>307.600006103515625</ele>
        <time>2018-08-17T08:17:19.000Z</time>
      </trkpt>
      <trkpt lat="49.4493571110069751739501953125" lon="11.06595955789089202880859375">
        <ele>307.79998779296875</ele>
        <time>2018-08-17T08:17:21.000Z</time>
      </trkpt>
      <trkpt lat="49.44957830943167209625244140625" lon="11.06590918265283107757568359375">
        <ele>308</ele>
        <time>2018-08-17T08:17:25.000Z</time>
      </trkpt>
      <trkpt lat="49.44983948953449726104736328125" lon="11.06592427007853984832763671875">
        <ele>308</ele>
        <time>2018-08-17T08:17:30.000Z</time>
      </trkpt>
      <trkpt lat="49.45026151835918426513671875" lon="11.06623959727585315704345703125">
        <ele>306.79998779296875</ele>
        <time>2018-08-17T08:17:38.000Z</time>
      </trkpt>
      <trkpt lat="49.4507401250302791595458984375" lon="11.06667327694594860076904296875">
        <ele>306.20001220703125</ele>
        <time>2018-08-17T08:17:47.000Z</time>
      </trkpt>
      <trkpt lat="49.45108420215547084808349609375" lon="11.06708818115293979644775390625">
        <ele>305.79998779296875</ele>
        <time>2018-08-17T08:17:54.000Z</time>
      </trkpt>
      <trkpt lat="49.45149860344827175140380859375" lon="11.0676682926714420318603515625">
        <ele>305.600006103515625</ele>
        <time>2018-08-17T08:18:03.000Z</time>
      </trkpt>
      <trkpt lat="49.45193094201385974884033203125" lon="11.068243794143199920654296875">
        <ele>305.600006103515625</ele>
        <time>2018-08-17T08:18:12.000Z</time>
      </trkpt>
      <trkpt lat="49.45230628363788127899169921875" lon="11.068918704986572265625">
        <ele>305.20001220703125</ele>
        <time>2018-08-17T08:18:21.000Z</time>
      </trkpt>
      <trkpt lat="49.45239647291600704193115234375" lon="11.0690730996429920196533203125">
        <ele>304.79998779296875</ele>
        <time>2018-08-17T08:18:24.000Z</time>
      </trkpt>
      <trkpt lat="49.4525207765400409698486328125" lon="11.06926462613046169281005859375">
        <ele>303.600006103515625</ele>
        <time>2018-08-17T08:18:31.000Z</time>
      </trkpt>
      <trkpt lat="49.45253460668027400970458984375" lon="11.06932614929974079132080078125">
        <ele>302.600006103515625</ele>
        <time>2018-08-17T08:18:35.000Z</time>
      </trkpt>
      <trkpt lat="49.45253812707960605621337890625" lon="11.06933419592678546905517578125">
        <ele>302.399993896484375</ele>
        <time>2018-08-17T08:18:37.000Z</time>
      </trkpt>
      <trkpt lat="49.4525579921901226043701171875" lon="11.06935196556150913238525390625">
        <ele>301.79998779296875</ele>
        <time>2018-08-17T08:19:19.000Z</time>
      </trkpt>
      <trkpt lat="49.45288471877574920654296875" lon="11.06946897692978382110595703125">
        <ele>301.79998779296875</ele>
        <time>2018-08-17T08:19:28.000Z</time>
      </trkpt>
      <trkpt lat="49.453418813645839691162109375" lon="11.069711633026599884033203125">
        <ele>301.399993896484375</ele>
        <time>2018-08-17T08:19:37.000Z</time>
      </trkpt>
      <trkpt lat="49.45348075591027736663818359375" lon="11.06973803602159023284912109375">
        <ele>301.20001220703125</ele>
        <time>2018-08-17T08:19:38.000Z</time>
      </trkpt>
      <trkpt lat="49.45405659265816211700439453125" lon="11.06998865492641925811767578125">
        <ele>300.600006103515625</ele>
        <time>2018-08-17T08:19:48.000Z</time>
      </trkpt>
      <trkpt lat="49.454613067209720611572265625" lon="11.07023365795612335205078125">
        <ele>300.600006103515625</ele>
        <time>2018-08-17T08:19:58.000Z</time>
      </trkpt>
      <trkpt lat="49.45493803359568119049072265625" lon="11.070398949086666107177734375">
        <ele>301</ele>
        <time>2018-08-17T08:20:08.000Z</time>
      </trkpt>
      <trkpt lat="49.4549609161913394927978515625" lon="11.07041864655911922454833984375">
        <ele>301</ele>
        <time>2018-08-17T08:20:13.000Z</time>
      </trkpt>
      <trkpt lat="49.45498866029083728790283203125" lon="11.07044178061187267303466796875">
        <ele>300.20001220703125</ele>
        <time>2018-08-17T08:20:52.000Z</time>
      </trkpt>
      <trkpt lat="49.45515646599233150482177734375" lon="11.07052509672939777374267578125">
        <ele>300.399993896484375</ele>
        <time>2018-08-17T08:20:58.000Z</time>
      </trkpt>
      <trkpt lat="49.45539719425141811370849609375" lon="11.07058393768966197967529296875">
        <ele>300.600006103515625</ele>
        <time>2018-08-17T08:21:05.000Z</time>
      </trkpt>
      <trkpt lat="49.45554572157561779022216796875" lon="11.07062928378582000732421875">
        <ele>301</ele>
        <time>2018-08-17T08:21:09.000Z</time>
      </trkpt>
      <trkpt lat="49.455772452056407928466796875" lon="11.0707129351794719696044921875">
        <ele>302.399993896484375</ele>
        <time>2018-08-17T08:21:15.000Z</time>
      </trkpt>
      <trkpt lat="49.4559875316917896270751953125" lon="11.07078577391803264617919921875">
        <ele>303.600006103515625</ele>
        <time>2018-08-17T08:21:21.000Z</time>
      </trkpt>
      <trkpt lat="49.4561430998146533966064453125" lon="11.07079197652637958526611328125">
        <ele>304.79998779296875</ele>
        <time>2018-08-17T08:21:25.000Z</time>
      </trkpt>
      <trkpt lat="49.45618241094052791595458984375" lon="11.0707739554345607757568359375">
        <ele>305</ele>
        <time>2018-08-17T08:21:26.000Z</time>
      </trkpt>
      <trkpt lat="49.45638366043567657470703125" lon="11.07070782221853733062744140625">
        <ele>306</ele>
        <time>2018-08-17T08:21:31.000Z</time>
      </trkpt>
      <trkpt lat="49.4564589299261569976806640625" lon="11.0707519948482513427734375">
        <ele>306.399993896484375</ele>
        <time>2018-08-17T08:21:33.000Z</time>
      </trkpt>
      <trkpt lat="49.45657988078892230987548828125" lon="11.0708829201757907867431640625">
        <ele>307</ele>
        <time>2018-08-17T08:21:37.000Z</time>
      </trkpt>
      <trkpt lat="49.456681720912456512451171875" lon="11.07109288685023784637451171875">
        <ele>308.20001220703125</ele>
        <time>2018-08-17T08:21:42.000Z</time>
      </trkpt>
      <trkpt lat="49.45674785412847995758056640625" lon="11.07129891403019428253173828125">
        <ele>309.20001220703125</ele>
        <time>2018-08-17T08:21:46.000Z</time>
      </trkpt>
      <trkpt lat="49.45681390352547168731689453125" lon="11.07151214964687824249267578125">
        <ele>310.20001220703125</ele>
        <time>2018-08-17T08:21:50.000Z</time>
      </trkpt>
      <trkpt lat="49.45694097317755222320556640625" lon="11.07191029004752635955810546875">
        <ele>311.20001220703125</ele>
        <time>2018-08-17T08:21:58.000Z</time>
      </trkpt>
      <trkpt lat="49.45705731399357318878173828125" lon="11.0721609927713871002197265625">
        <ele>312.399993896484375</ele>
        <time>2018-08-17T08:22:04.000Z</time>
      </trkpt>
      <trkpt lat="49.4571324996650218963623046875" lon="11.07232351787388324737548828125">
        <ele>313.600006103515625</ele>
        <time>2018-08-17T08:22:08.000Z</time>
      </trkpt>
      <trkpt lat="49.45720667950809001922607421875" lon="11.07249786145985126495361328125">
        <ele>314.79998779296875</ele>
        <time>2018-08-17T08:22:12.000Z</time>
      </trkpt>
      <trkpt lat="49.45728094317018985748291015625" lon="11.07267580926418304443359375">
        <ele>316</ele>
        <time>2018-08-17T08:22:16.000Z</time>
      </trkpt>
      <trkpt lat="49.4573598168790340423583984375" lon="11.07285392470657825469970703125">
        <ele>317</ele>
        <time>2018-08-17T08:22:20.000Z</time>
      </trkpt>
      <trkpt lat="49.45746735669672489166259765625" lon="11.072989292442798614501953125">
        <ele>318.20001220703125</ele>
        <time>2018-08-17T08:22:24.000Z</time>
      </trkpt>
      <trkpt lat="49.45761621929705142974853515625" lon="11.0730457864701747894287109375">
        <ele>319.600006103515625</ele>
        <time>2018-08-17T08:22:28.000Z</time>
      </trkpt>
      <trkpt lat="49.45773574523627758026123046875" lon="11.0730491392314434051513671875">
        <ele>320.600006103515625</ele>
        <time>2018-08-17T08:22:31.000Z</time>
      </trkpt>
      <trkpt lat="49.457953758537769317626953125" lon="11.073081158101558685302734375">
        <ele>322</ele>
        <time>2018-08-17T08:22:37.000Z</time>
      </trkpt>
      <trkpt lat="49.45813941769301891326904296875" lon="11.0731874406337738037109375">
        <ele>323</ele>
        <time>2018-08-17T08:22:43.000Z</time>
      </trkpt>
      <trkpt lat="49.45823396556079387664794921875" lon="11.073241420090198516845703125">
        <ele>324.20001220703125</ele>
        <time>2018-08-17T08:22:51.000Z</time>
      </trkpt>
      <trkpt lat="49.45876655168831348419189453125" lon="11.0732062160968780517578125">
        <ele>325</ele>
        <time>2018-08-17T08:23:11.000Z</time>
      </trkpt>
      <trkpt lat="49.4593057595193386077880859375" lon="11.073167659342288970947265625">
        <ele>323.399993896484375</ele>
        <time>2018-08-17T08:23:20.000Z</time>
      </trkpt>
      <trkpt lat="49.45940173231065273284912109375" lon="11.0731433518230915069580078125">
        <ele>323</ele>
        <time>2018-08-17T08:23:22.000Z</time>
      </trkpt>
      <trkpt lat="49.459524862468242645263671875" lon="11.07304771430790424346923828125">
        <ele>322.20001220703125</ele>
        <time>2018-08-17T08:23:26.000Z</time>
      </trkpt>
      <trkpt lat="49.45956610143184661865234375" lon="11.07300437986850738525390625">
        <ele>322</ele>
        <time>2018-08-17T08:23:28.000Z</time>
      </trkpt>
      <trkpt lat="49.459734745323657989501953125" lon="11.0729099996387958526611328125">
        <ele>320.79998779296875</ele>
        <time>2018-08-17T08:23:32.000Z</time>
      </trkpt>
      <trkpt lat="49.46019164286553859710693359375" lon="11.072636581957340240478515625">
        <ele>319.79998779296875</ele>
        <time>2018-08-17T08:23:40.000Z</time>
      </trkpt>
      <trkpt lat="49.4605248235166072845458984375" lon="11.07238973490893840789794921875">
        <ele>318.79998779296875</ele>
        <time>2018-08-17T08:23:50.000Z</time>
      </trkpt>
      <trkpt lat="49.4605670683085918426513671875" lon="11.07235033996403217315673828125">
        <ele>318.399993896484375</ele>
        <time>2018-08-17T08:23:56.000Z</time>
      </trkpt>
      <trkpt lat="49.46066639386117458343505859375" lon="11.07234749011695384979248046875">
        <ele>318</ele>
        <time>2018-08-17T08:25:36.000Z</time>
      </trkpt>
      <trkpt lat="49.46092857979238033294677734375" lon="11.07226274907588958740234375">
        <ele>317.600006103515625</ele>
        <time>2018-08-17T08:25:42.000Z</time>
      </trkpt>
      <trkpt lat="49.4614729844033718109130859375" lon="11.07202797196805477142333984375">
        <ele>317.600006103515625</ele>
        <time>2018-08-17T08:25:51.000Z</time>
      </trkpt>
      <trkpt lat="49.46174447424709796905517578125" lon="11.07194365002214908599853515625">
        <ele>317.399993896484375</ele>
        <time>2018-08-17T08:25:55.000Z</time>
      </trkpt>
      <trkpt lat="49.4618126191198825836181640625" lon="11.071936190128326416015625">
        <ele>317.399993896484375</ele>
        <time>2018-08-17T08:25:56.000Z</time>
      </trkpt>
      <trkpt lat="49.462290219962596893310546875" lon="11.07181909494102001190185546875">
        <ele>316.20001220703125</ele>
        <time>2018-08-17T08:26:12.000Z</time>
      </trkpt>
      <trkpt lat="49.4623162038624286651611328125" lon="11.071814484894275665283203125">
        <ele>315.79998779296875</ele>
        <time>2018-08-17T08:26:38.000Z</time>
      </trkpt>
      <trkpt lat="49.46278952993452548980712890625" lon="11.071389019489288330078125">
        <ele>315.79998779296875</ele>
        <time>2018-08-17T08:26:50.000Z</time>
      </trkpt>
      <trkpt lat="49.4633263908326625823974609375" lon="11.07096648775041103363037109375">
        <ele>315.600006103515625</ele>
        <time>2018-08-17T08:26:59.000Z</time>
      </trkpt>
      <trkpt lat="49.463654793798923492431640625" lon="11.0707136057317256927490234375">
        <ele>315.20001220703125</ele>
        <time>2018-08-17T08:27:04.000Z</time>
      </trkpt>
      <trkpt lat="49.4641573727130889892578125" lon="11.07039391994476318359375">
        <ele>314.600006103515625</ele>
        <time>2018-08-17T08:27:11.000Z</time>
      </trkpt>
      <trkpt lat="49.464454092085361480712890625" lon="11.07022301293909549713134765625">
        <ele>314.20001220703125</ele>
        <time>2018-08-17T08:27:15.000Z</time>
      </trkpt>
      <trkpt lat="49.46483538486063480377197265625" lon="11.07002913951873779296875">
        <ele>313.79998779296875</ele>
        <time>2018-08-17T08:27:20.000Z</time>
      </trkpt>
      <trkpt lat="49.4653497822582721710205078125" lon="11.069749183952808380126953125">
        <ele>313.20001220703125</ele>
        <time>2018-08-17T08:27:27.000Z</time>
      </trkpt>
      <trkpt lat="49.4654255546629428863525390625" lon="11.06970727443695068359375">
        <ele>313.20001220703125</ele>
        <time>2018-08-17T08:27:28.000Z</time>
      </trkpt>
      <trkpt lat="49.4659660197794437408447265625" lon="11.06941482983529567718505859375">
        <ele>313.20001220703125</ele>
        <time>2018-08-17T08:27:35.000Z</time>
      </trkpt>
      <trkpt lat="49.46649215184152126312255859375" lon="11.0689871013164520263671875">
        <ele>313.20001220703125</ele>
        <time>2018-08-17T08:27:42.000Z</time>
      </trkpt>
      <trkpt lat="49.467049799859523773193359375" lon="11.0687752068042755126953125">
        <ele>313.20001220703125</ele>
        <time>2018-08-17T08:27:49.000Z</time>
      </trkpt>
      <trkpt lat="49.4675974734127521514892578125" lon="11.06863162480294704437255859375">
        <ele>313.20001220703125</ele>
        <time>2018-08-17T08:27:56.000Z</time>
      </trkpt>
      <trkpt lat="49.46815344505012035369873046875" lon="11.06851528398692607879638671875">
        <ele>313.79998779296875</ele>
        <time>2018-08-17T08:28:03.000Z</time>
      </trkpt>
      <trkpt lat="49.46873146109282970428466796875" lon="11.06826717965304851531982421875">
        <ele>313.79998779296875</ele>
        <time>2018-08-17T08:28:10.000Z</time>
      </trkpt>
      <trkpt lat="49.4691276736557483673095703125" lon="11.06808177195489406585693359375">
        <ele>312.600006103515625</ele>
        <time>2018-08-17T08:28:20.000Z</time>
      </trkpt>
      <trkpt lat="49.4691551662981510162353515625" lon="11.068105995655059814453125">
        <ele>311.20001220703125</ele>
        <time>2018-08-17T08:29:09.000Z</time>
      </trkpt>
      <trkpt lat="49.4696854054927825927734375" lon="11.06782771646976470947265625">
        <ele>311</ele>
        <time>2018-08-17T08:29:20.000Z</time>
      </trkpt>
      <trkpt lat="49.47025830857455730438232421875" lon="11.06751934625208377838134765625">
        <ele>310.20001220703125</ele>
        <time>2018-08-17T08:29:29.000Z</time>
      </trkpt>
      <trkpt lat="49.47065376676619052886962890625" lon="11.06723897159099578857421875">
        <ele>309.399993896484375</ele>
        <time>2018-08-17T08:29:35.000Z</time>
      </trkpt>
      <trkpt lat="49.47096414864063262939453125" lon="11.0669124126434326171875">
        <ele>309</ele>
        <time>2018-08-17T08:29:40.000Z</time>
      </trkpt>
      <trkpt lat="49.4714263267815113067626953125" lon="11.06631897389888763427734375">
        <ele>307.79998779296875</ele>
        <time>2018-08-17T08:29:48.000Z</time>
      </trkpt>
      <trkpt lat="49.4718923605978488922119140625" lon="11.065753363072872161865234375">
        <ele>307.20001220703125</ele>
        <time>2018-08-17T08:29:56.000Z</time>
      </trkpt>
      <trkpt lat="49.47239250876009464263916015625" lon="11.06529839336872100830078125">
        <ele>307</ele>
        <time>2018-08-17T08:30:04.000Z</time>
      </trkpt>
      <trkpt lat="49.472914449870586395263671875" lon="11.06495129875838756561279296875">
        <ele>307.20001220703125</ele>
        <time>2018-08-17T08:30:12.000Z</time>
      </trkpt>
      <trkpt lat="49.473431445658206939697265625" lon="11.0647329501807689666748046875">
        <ele>307.600006103515625</ele>
        <time>2018-08-17T08:30:28.000Z</time>
      </trkpt>
      <trkpt lat="49.47346941567957401275634765625" lon="11.06474057771265506744384765625">
        <ele>307.600006103515625</ele>
        <time>2018-08-17T08:31:00.000Z</time>
      </trkpt>
      <trkpt lat="49.4740439951419830322265625" lon="11.0645425133407115936279296875">
        <ele>307.600006103515625</ele>
        <time>2018-08-17T08:31:13.000Z</time>
      </trkpt>
      <trkpt lat="49.4745795987546443939208984375" lon="11.06428694911301136016845703125">
        <ele>308</ele>
        <time>2018-08-17T08:31:22.000Z</time>
      </trkpt>
      <trkpt lat="49.47510003112256526947021484375" lon="11.0640721209347248077392578125">
        <ele>308.79998779296875</ele>
        <time>2018-08-17T08:31:30.000Z</time>
      </trkpt>
      <trkpt lat="49.4752939045429229736328125" lon="11.06395703740417957305908203125">
        <ele>308.79998779296875</ele>
        <time>2018-08-17T08:31:33.000Z</time>
      </trkpt>
      <trkpt lat="49.4758053682744503021240234375" lon="11.063637100160121917724609375">
        <ele>309.79998779296875</ele>
        <time>2018-08-17T08:31:41.000Z</time>
      </trkpt>
      <trkpt lat="49.47586965747177600860595703125" lon="11.06359326280653476715087890625">
        <ele>309.79998779296875</ele>
        <time>2018-08-17T08:31:42.000Z</time>
      </trkpt>
      <trkpt lat="49.476355053484439849853515625" lon="11.06322546489536762237548828125">
        <ele>310.79998779296875</ele>
        <time>2018-08-17T08:31:50.000Z</time>
      </trkpt>
      <trkpt lat="49.476605840027332305908203125" lon="11.063021533191204071044921875">
        <ele>311.20001220703125</ele>
        <time>2018-08-17T08:31:55.000Z</time>
      </trkpt>
      <trkpt lat="49.47674908675253391265869140625" lon="11.06291214935481548309326171875">
        <ele>311.399993896484375</ele>
        <time>2018-08-17T08:32:00.000Z</time>
      </trkpt>
      <trkpt lat="49.47685293853282928466796875" lon="11.06287158094346523284912109375">
        <ele>311.399993896484375</ele>
        <time>2018-08-17T08:32:12.000Z</time>
      </trkpt>
      <trkpt lat="49.47686911560595035552978515625" lon="11.06287023983895778656005859375">
        <ele>311.399993896484375</ele>
        <time>2018-08-17T08:32:26.000Z</time>
      </trkpt>
      <trkpt lat="49.47690700180828571319580078125" lon="11.06282732449471950531005859375">
        <ele>311.20001220703125</ele>
        <time>2018-08-17T08:32:28.000Z</time>
      </trkpt>
      <trkpt lat="49.47703541256487369537353515625" lon="11.0627189464867115020751953125">
        <ele>311.20001220703125</ele>
        <time>2018-08-17T08:32:32.000Z</time>
      </trkpt>
      <trkpt lat="49.47755341418087482452392578125" lon="11.06231502257287502288818359375">
        <ele>311.399993896484375</ele>
        <time>2018-08-17T08:32:43.000Z</time>
      </trkpt>
      <trkpt lat="49.47808809578418731689453125" lon="11.06191352941095829010009765625">
        <ele>312</ele>
        <time>2018-08-17T08:32:52.000Z</time>
      </trkpt>
      <trkpt lat="49.4782148301601409912109375" lon="11.06183356605470180511474609375">
        <ele>312.20001220703125</ele>
        <time>2018-08-17T08:32:54.000Z</time>
      </trkpt>
      <trkpt lat="49.4787397049367427825927734375" lon="11.06155428104102611541748046875">
        <ele>312.20001220703125</ele>
        <time>2018-08-17T08:33:02.000Z</time>
      </trkpt>
      <trkpt lat="49.47931931354105472564697265625" lon="11.0613744892179965972900390625">
        <ele>312.600006103515625</ele>
        <time>2018-08-17T08:33:10.000Z</time>
      </trkpt>
      <trkpt lat="49.47988995350897312164306640625" lon="11.06119670905172824859619140625">
        <ele>312.79998779296875</ele>
        <time>2018-08-17T08:33:18.000Z</time>
      </trkpt>
      <trkpt lat="49.479952566325664520263671875" lon="11.06117307208478450775146484375">
        <ele>312.79998779296875</ele>
        <time>2018-08-17T08:33:19.000Z</time>
      </trkpt>
      <trkpt lat="49.4801870919764041900634765625" lon="11.0610043443739414215087890625">
        <ele>313</ele>
        <time>2018-08-17T08:33:23.000Z</time>
      </trkpt>
      <trkpt lat="49.48031357489526271820068359375" lon="11.06094181537628173828125">
        <ele>313.399993896484375</ele>
        <time>2018-08-17T08:33:25.000Z</time>
      </trkpt>
      <trkpt lat="49.4808589853346347808837890625" lon="11.06067568995058536529541015625">
        <ele>313.600006103515625</ele>
        <time>2018-08-17T08:33:33.000Z</time>
      </trkpt>
      <trkpt lat="49.48137857951223850250244140625" lon="11.06043177656829357147216796875">
        <ele>313.399993896484375</ele>
        <time>2018-08-17T08:33:40.000Z</time>
      </trkpt>
      <trkpt lat="49.48191803880035877227783203125" lon="11.06018610298633575439453125">
        <ele>313.20001220703125</ele>
        <time>2018-08-17T08:33:47.000Z</time>
      </trkpt>
      <trkpt lat="49.48245800100266933441162109375" lon="11.059926934540271759033203125">
        <ele>313</ele>
        <time>2018-08-17T08:33:54.000Z</time>
      </trkpt>
      <trkpt lat="49.48298153467476367950439453125" lon="11.0596709512174129486083984375">
        <ele>312.600006103515625</ele>
        <time>2018-08-17T08:34:01.000Z</time>
      </trkpt>
      <trkpt lat="49.4832052476704120635986328125" lon="11.0595670156180858612060546875">
        <ele>312.399993896484375</ele>
        <time>2018-08-17T08:34:04.000Z</time>
      </trkpt>
      <trkpt lat="49.483499117195606231689453125" lon="11.0594660975039005279541015625">
        <ele>312</ele>
        <time>2018-08-17T08:34:08.000Z</time>
      </trkpt>
      <trkpt lat="49.48403949849307537078857421875" lon="11.05924758128821849822998046875">
        <ele>311.600006103515625</ele>
        <time>2018-08-17T08:34:17.000Z</time>
      </trkpt>
      <trkpt lat="49.484124742448329925537109375" lon="11.05921916663646697998046875">
        <ele>311.600006103515625</ele>
        <time>2018-08-17T08:34:23.000Z</time>
      </trkpt>
      <trkpt lat="49.48414846323430538177490234375" lon="11.05920349247753620147705078125">
        <ele>311.600006103515625</ele>
        <time>2018-08-17T08:34:27.000Z</time>
      </trkpt>
      <trkpt lat="49.48418148793280124664306640625" lon="11.05917516164481639862060546875">
        <ele>311.79998779296875</ele>
        <time>2018-08-17T08:34:50.000Z</time>
      </trkpt>
      <trkpt lat="49.48444224894046783447265625" lon="11.058922111988067626953125">
        <ele>311.600006103515625</ele>
        <time>2018-08-17T08:34:58.000Z</time>
      </trkpt>
      <trkpt lat="49.48500006459653377532958984375" lon="11.0585870034992694854736328125">
        <ele>311.600006103515625</ele>
        <time>2018-08-17T08:35:08.000Z</time>
      </trkpt>
      <trkpt lat="49.48551739566028118133544921875" lon="11.05826161801815032958984375">
        <ele>311.399993896484375</ele>
        <time>2018-08-17T08:35:16.000Z</time>
      </trkpt>
      <trkpt lat="49.48605450801551342010498046875" lon="11.05789742432534694671630859375">
        <ele>311.20001220703125</ele>
        <time>2018-08-17T08:35:24.000Z</time>
      </trkpt>
      <trkpt lat="49.48659480549395084381103515625" lon="11.0574923269450664520263671875">
        <ele>310.79998779296875</ele>
        <time>2018-08-17T08:35:32.000Z</time>
      </trkpt>
      <trkpt lat="49.4867930375039577484130859375" lon="11.057337932288646697998046875">
        <ele>310.399993896484375</ele>
        <time>2018-08-17T08:35:35.000Z</time>
      </trkpt>
      <trkpt lat="49.48732051067054271697998046875" lon="11.0569548793137073516845703125">
        <ele>310.20001220703125</ele>
        <time>2018-08-17T08:35:43.000Z</time>
      </trkpt>
      <trkpt lat="49.4878883846104145050048828125" lon="11.056617759168148040771484375">
        <ele>310</ele>
        <time>2018-08-17T08:35:51.000Z</time>
      </trkpt>
      <trkpt lat="49.48831309564411640167236328125" lon="11.05627938173711299896240234375">
        <ele>309.399993896484375</ele>
        <time>2018-08-17T08:35:57.000Z</time>
      </trkpt>
      <trkpt lat="49.48881165124475955963134765625" lon="11.0558746196329593658447265625">
        <ele>308.79998779296875</ele>
        <time>2018-08-17T08:36:04.000Z</time>
      </trkpt>
      <trkpt lat="49.4889548979699611663818359375" lon="11.05575618334114551544189453125">
        <ele>308.79998779296875</ele>
        <time>2018-08-17T08:36:06.000Z</time>
      </trkpt>
      <trkpt lat="49.4893133081495761871337890625" lon="11.05546918697655200958251953125">
        <ele>308.399993896484375</ele>
        <time>2018-08-17T08:36:11.000Z</time>
      </trkpt>
      <trkpt lat="49.48985033668577671051025390625" lon="11.05501287616789340972900390625">
        <ele>308.399993896484375</ele>
        <time>2018-08-17T08:36:19.000Z</time>
      </trkpt>
      <trkpt lat="49.49037957005202770233154296875" lon="11.054583303630352020263671875">
        <ele>308.399993896484375</ele>
        <time>2018-08-17T08:36:27.000Z</time>
      </trkpt>
      <trkpt lat="49.49093294329941272735595703125" lon="11.0541834868490695953369140625">
        <ele>308.79998779296875</ele>
        <time>2018-08-17T08:36:35.000Z</time>
      </trkpt>
      <trkpt lat="49.491200409829616546630859375" lon="11.05400897562503814697265625">
        <ele>308.79998779296875</ele>
        <time>2018-08-17T08:36:41.000Z</time>
      </trkpt>
      <trkpt lat="49.491264112293720245361328125" lon="11.05382650159299373626708984375">
        <ele>308.600006103515625</ele>
        <time>2018-08-17T08:36:47.000Z</time>
      </trkpt>
      <trkpt lat="49.49128230102360248565673828125" lon="11.05379515327513217926025390625">
        <ele>308.399993896484375</ele>
        <time>2018-08-17T08:36:48.000Z</time>
      </trkpt>
      <trkpt lat="49.4918376021087169647216796875" lon="11.0534810833632946014404296875">
        <ele>308.20001220703125</ele>
        <time>2018-08-17T08:36:59.000Z</time>
      </trkpt>
      <trkpt lat="49.49237546883523464202880859375" lon="11.05323222465813159942626953125">
        <ele>308.20001220703125</ele>
        <time>2018-08-17T08:37:07.000Z</time>
      </trkpt>
      <trkpt lat="49.49256724677979946136474609375" lon="11.05315024964511394500732421875">
        <ele>308.20001220703125</ele>
        <time>2018-08-17T08:37:10.000Z</time>
      </trkpt>
      <trkpt lat="49.4927787221968173980712890625" lon="11.0530070029199123382568359375">
        <ele>308</ele>
        <time>2018-08-17T08:37:14.000Z</time>
      </trkpt>
      <trkpt lat="49.49301660060882568359375" lon="11.0528346709907054901123046875">
        <ele>307.600006103515625</ele>
        <time>2018-08-17T08:37:20.000Z</time>
      </trkpt>
      <trkpt lat="49.49316437356173992156982421875" lon="11.05276166461408138275146484375">
        <ele>307.399993896484375</ele>
        <time>2018-08-17T08:37:23.000Z</time>
      </trkpt>
      <trkpt lat="49.49321550317108631134033203125" lon="11.0527382791042327880859375">
        <ele>307.20001220703125</ele>
        <time>2018-08-17T08:37:24.000Z</time>
      </trkpt>
      <trkpt lat="49.49377608485519886016845703125" lon="11.05248539708554744720458984375">
        <ele>306.600006103515625</ele>
        <time>2018-08-17T08:37:33.000Z</time>
      </trkpt>
      <trkpt lat="49.49433884583413600921630859375" lon="11.0522284917533397674560546875">
        <ele>306.79998779296875</ele>
        <time>2018-08-17T08:37:41.000Z</time>
      </trkpt>
      <trkpt lat="49.49491367675364017486572265625" lon="11.05201181955635547637939453125">
        <ele>306.79998779296875</ele>
        <time>2018-08-17T08:37:49.000Z</time>
      </trkpt>
      <trkpt lat="49.49547643773257732391357421875" lon="11.0517845861613750457763671875">
        <ele>306.79998779296875</ele>
        <time>2018-08-17T08:37:57.000Z</time>
      </trkpt>
      <trkpt lat="49.4960466586053371429443359375" lon="11.05157260783016681671142578125">
        <ele>306.79998779296875</ele>
        <time>2018-08-17T08:38:05.000Z</time>
      </trkpt>
      <trkpt lat="49.4965720362961292266845703125" lon="11.05137697421014308929443359375">
        <ele>306.600006103515625</ele>
        <time>2018-08-17T08:38:12.000Z</time>
      </trkpt>
      <trkpt lat="49.49672685004770755767822265625" lon="11.0513165406882762908935546875">
        <ele>306.600006103515625</ele>
        <time>2018-08-17T08:38:14.000Z</time>
      </trkpt>
      <trkpt lat="49.49726278893649578094482421875" lon="11.05108595453202724456787109375">
        <ele>306</ele>
        <time>2018-08-17T08:38:21.000Z</time>
      </trkpt>
      <trkpt lat="49.49762254022061824798583984375" lon="11.0509041510522365570068359375">
        <ele>305.399993896484375</ele>
        <time>2018-08-17T08:38:26.000Z</time>
      </trkpt>
      <trkpt lat="49.4977750070393085479736328125" lon="11.05082661844789981842041015625">
        <ele>304.79998779296875</ele>
        <time>2018-08-17T08:38:29.000Z</time>
      </trkpt>
      <trkpt lat="49.4978856481611728668212890625" lon="11.0505152307450771331787109375">
        <ele>304.399993896484375</ele>
        <time>2018-08-17T08:38:35.000Z</time>
      </trkpt>
      <trkpt lat="49.49788807891309261322021484375" lon="11.050291769206523895263671875">
        <ele>303.79998779296875</ele>
        <time>2018-08-17T08:38:38.000Z</time>
      </trkpt>
      <trkpt lat="49.498111791908740997314453125" lon="11.04984191246330738067626953125">
        <ele>303.600006103515625</ele>
        <time>2018-08-17T08:38:45.000Z</time>
      </trkpt>
      <trkpt lat="49.49841563589870929718017578125" lon="11.04965734295547008514404296875">
        <ele>303.600006103515625</ele>
        <time>2018-08-17T08:38:51.000Z</time>
      </trkpt>
      <trkpt lat="49.49894361197948455810546875" lon="11.049294658005237579345703125">
        <ele>304.399993896484375</ele>
        <time>2018-08-17T08:39:00.000Z</time>
      </trkpt>
      <trkpt lat="49.49934401549398899078369140625" lon="11.04899726808071136474609375">
        <ele>305.399993896484375</ele>
        <time>2018-08-17T08:39:07.000Z</time>
      </trkpt>
      <trkpt lat="49.4998119771480560302734375" lon="11.0485686175525188446044921875">
        <ele>306.600006103515625</ele>
        <time>2018-08-17T08:39:16.000Z</time>
      </trkpt>
      <trkpt lat="49.500230066478252410888671875" lon="11.04814340360462665557861328125">
        <ele>307.79998779296875</ele>
        <time>2018-08-17T08:39:24.000Z</time>
      </trkpt>
      <trkpt lat="49.50067698955535888671875" lon="11.04765322990715503692626953125">
        <ele>308.79998779296875</ele>
        <time>2018-08-17T08:39:33.000Z</time>
      </trkpt>
      <trkpt lat="49.5011254213750362396240234375" lon="11.0470897145569324493408203125">
        <ele>309.600006103515625</ele>
        <time>2018-08-17T08:39:42.000Z</time>
      </trkpt>
      <trkpt lat="49.501367323100566864013671875" lon="11.04676743037998676300048828125">
        <ele>310</ele>
        <time>2018-08-17T08:39:47.000Z</time>
      </trkpt>
      <trkpt lat="49.501811563968658447265625" lon="11.04617449454963207244873046875">
        <ele>310.79998779296875</ele>
        <time>2018-08-17T08:39:56.000Z</time>
      </trkpt>
      <trkpt lat="49.501962102949619293212890625" lon="11.04596662335097789764404296875">
        <ele>311</ele>
        <time>2018-08-17T08:39:59.000Z</time>
      </trkpt>
      <trkpt lat="49.50237072072923183441162109375" lon="11.04542054235935211181640625">
        <ele>311.20001220703125</ele>
        <time>2018-08-17T08:40:07.000Z</time>
      </trkpt>
      <trkpt lat="49.5027689449489116668701171875" lon="11.04479382745921611785888671875">
        <ele>311.399993896484375</ele>
        <time>2018-08-17T08:40:17.000Z</time>
      </trkpt>
      <trkpt lat="49.50279920361936092376708984375" lon="11.04474638588726520538330078125">
        <ele>311.399993896484375</ele>
        <time>2018-08-17T08:40:18.000Z</time>
      </trkpt>
      <trkpt lat="49.50308351777493953704833984375" lon="11.04423508979380130767822265625">
        <ele>311.600006103515625</ele>
        <time>2018-08-17T08:40:28.000Z</time>
      </trkpt>
      <trkpt lat="49.50353982858359813690185546875" lon="11.04373754002153873443603515625">
        <ele>312</ele>
        <time>2018-08-17T08:40:36.000Z</time>
      </trkpt>
      <trkpt lat="49.50398306362330913543701171875" lon="11.04318064637482166290283203125">
        <ele>312</ele>
        <time>2018-08-17T08:40:44.000Z</time>
      </trkpt>
      <trkpt lat="49.50442194007337093353271484375" lon="11.042630039155483245849609375">
        <ele>311.79998779296875</ele>
        <time>2018-08-17T08:40:52.000Z</time>
      </trkpt>
      <trkpt lat="49.50487053953111171722412109375" lon="11.04209384880959987640380859375">
        <ele>311.600006103515625</ele>
        <time>2018-08-17T08:41:00.000Z</time>
      </trkpt>
      <trkpt lat="49.5053438656032085418701171875" lon="11.04152262210845947265625">
        <ele>311.399993896484375</ele>
        <time>2018-08-17T08:41:08.000Z</time>
      </trkpt>
      <trkpt lat="49.50576941482722759246826171875" lon="11.040985174477100372314453125">
        <ele>311.399993896484375</ele>
        <time>2018-08-17T08:41:15.000Z</time>
      </trkpt>
      <trkpt lat="49.50620678253471851348876953125" lon="11.04044898413121700286865234375">
        <ele>311</ele>
        <time>2018-08-17T08:41:22.000Z</time>
      </trkpt>
      <trkpt lat="49.50664549134671688079833984375" lon="11.039923019707202911376953125">
        <ele>310.79998779296875</ele>
        <time>2018-08-17T08:41:29.000Z</time>
      </trkpt>
      <trkpt lat="49.50709509663283824920654296875" lon="11.039420105516910552978515625">
        <ele>310.79998779296875</ele>
        <time>2018-08-17T08:41:36.000Z</time>
      </trkpt>
      <trkpt lat="49.50758862309157848358154296875" lon="11.038864888250827789306640625">
        <ele>310.79998779296875</ele>
        <time>2018-08-17T08:41:44.000Z</time>
      </trkpt>
      <trkpt lat="49.50808332301676273345947265625" lon="11.0382997803390026092529296875">
        <ele>310.79998779296875</ele>
        <time>2018-08-17T08:41:52.000Z</time>
      </trkpt>
      <trkpt lat="49.508538879454135894775390625" lon="11.037837602198123931884765625">
        <ele>310.600006103515625</ele>
        <time>2018-08-17T08:41:59.000Z</time>
      </trkpt>
      <trkpt lat="49.50867206789553165435791015625" lon="11.0377338342368602752685546875">
        <ele>310.600006103515625</ele>
        <time>2018-08-17T08:42:01.000Z</time>
      </trkpt>
      <trkpt lat="49.50889728963375091552734375" lon="11.03746988810598850250244140625">
        <ele>310.399993896484375</ele>
        <time>2018-08-17T08:42:05.000Z</time>
      </trkpt>
      <trkpt lat="49.50900181196630001068115234375" lon="11.0373016633093357086181640625">
        <ele>310.399993896484375</ele>
        <time>2018-08-17T08:42:07.000Z</time>
      </trkpt>
      <trkpt lat="49.50947505421936511993408203125" lon="11.0367953963577747344970703125">
        <ele>310.20001220703125</ele>
        <time>2018-08-17T08:42:14.000Z</time>
      </trkpt>
      <trkpt lat="49.50954847969114780426025390625" lon="11.0367243178188800811767578125">
        <ele>310</ele>
        <time>2018-08-17T08:42:15.000Z</time>
      </trkpt>
      <trkpt lat="49.51007938943803310394287109375" lon="11.03621813468635082244873046875">
        <ele>309.399993896484375</ele>
        <time>2018-08-17T08:42:22.000Z</time>
      </trkpt>
      <trkpt lat="49.5103146694600582122802734375" lon="11.03600556962192058563232421875">
        <ele>309</ele>
        <time>2018-08-17T08:42:25.000Z</time>
      </trkpt>
      <trkpt lat="49.51079671271145343780517578125" lon="11.0355853848159313201904296875">
        <ele>308.399993896484375</ele>
        <time>2018-08-17T08:42:31.000Z</time>
      </trkpt>
      <trkpt lat="49.5111260376870632171630859375" lon="11.0353171639144420623779296875">
        <ele>307.79998779296875</ele>
        <time>2018-08-17T08:42:35.000Z</time>
      </trkpt>
      <trkpt lat="49.5116222463548183441162109375" lon="11.03493578732013702392578125">
        <ele>306.600006103515625</ele>
        <time>2018-08-17T08:42:41.000Z</time>
      </trkpt>
      <trkpt lat="49.51212801039218902587890625" lon="11.034564971923828125">
        <ele>306</ele>
        <time>2018-08-17T08:42:47.000Z</time>
      </trkpt>
      <trkpt lat="49.512379802763462066650390625" lon="11.03438970632851123809814453125">
        <ele>305.600006103515625</ele>
        <time>2018-08-17T08:42:50.000Z</time>
      </trkpt>
      <trkpt lat="49.51295538805425167083740234375" lon="11.0340137779712677001953125">
        <ele>304.600006103515625</ele>
        <time>2018-08-17T08:42:57.000Z</time>
      </trkpt>
      <trkpt lat="49.51346953399479389190673828125" lon="11.03370507247745990753173828125">
        <ele>303.79998779296875</ele>
        <time>2018-08-17T08:43:03.000Z</time>
      </trkpt>
      <trkpt lat="49.5138828456401824951171875" lon="11.03349619545042514801025390625">
        <ele>303.20001220703125</ele>
        <time>2018-08-17T08:43:08.000Z</time>
      </trkpt>
      <trkpt lat="49.51411376707255840301513671875" lon="11.033430062234401702880859375">
        <ele>302.600006103515625</ele>
        <time>2018-08-17T08:43:11.000Z</time>
      </trkpt>
      <trkpt lat="49.514262378215789794921875" lon="11.03336527012288570404052734375">
        <ele>302.399993896484375</ele>
        <time>2018-08-17T08:43:13.000Z</time>
      </trkpt>
      <trkpt lat="49.5148231275379657745361328125" lon="11.03330844081938266754150390625">
        <ele>302</ele>
        <time>2018-08-17T08:43:20.000Z</time>
      </trkpt>
      <trkpt lat="49.515068046748638153076171875" lon="11.03324892930686473846435546875">
        <ele>301.600006103515625</ele>
        <time>2018-08-17T08:43:23.000Z</time>
      </trkpt>
      <trkpt lat="49.515481106936931610107421875" lon="11.03315790183842182159423828125">
        <ele>301</ele>
        <time>2018-08-17T08:43:28.000Z</time>
      </trkpt>
      <trkpt lat="49.5160740427672863006591796875" lon="11.03328086435794830322265625">
        <ele>300.600006103515625</ele>
        <time>2018-08-17T08:43:35.000Z</time>
      </trkpt>
      <trkpt lat="49.51625324785709381103515625" lon="11.03330089710652828216552734375">
        <ele>300.600006103515625</ele>
        <time>2018-08-17T08:43:37.000Z</time>
      </trkpt>
      <trkpt lat="49.5168569125235080718994140625" lon="11.033381111919879913330078125">
        <ele>300.20001220703125</ele>
        <time>2018-08-17T08:43:44.000Z</time>
      </trkpt>
      <trkpt lat="49.51743467710912227630615234375" lon="11.0334590636193752288818359375">
        <ele>299.79998779296875</ele>
        <time>2018-08-17T08:43:51.000Z</time>
      </trkpt>
      <trkpt lat="49.51801319606602191925048828125" lon="11.0335217602550983428955078125">
        <ele>299.79998779296875</ele>
        <time>2018-08-17T08:43:58.000Z</time>
      </trkpt>
      <trkpt lat="49.5186115801334381103515625" lon="11.0335737280547618865966796875">
        <ele>299.79998779296875</ele>
        <time>2018-08-17T08:44:06.000Z</time>
      </trkpt>
      <trkpt lat="49.51915942132472991943359375" lon="11.03358353488147258758544921875">
        <ele>300.79998779296875</ele>
        <time>2018-08-17T08:44:26.000Z</time>
      </trkpt>
      <trkpt lat="49.5197449810802936553955078125" lon="11.033528633415699005126953125">
        <ele>301.20001220703125</ele>
        <time>2018-08-17T08:44:37.000Z</time>
      </trkpt>
      <trkpt lat="49.5202901400625705718994140625" lon="11.0334491729736328125">
        <ele>301.20001220703125</ele>
        <time>2018-08-17T08:44:45.000Z</time>
      </trkpt>
      <trkpt lat="49.52088181860744953155517578125" lon="11.03329368866980075836181640625">
        <ele>301</ele>
        <time>2018-08-17T08:44:53.000Z</time>
      </trkpt>
      <trkpt lat="49.5214746706187725067138671875" lon="11.033075340092182159423828125">
        <ele>300.399993896484375</ele>
        <time>2018-08-17T08:45:01.000Z</time>
      </trkpt>
      <trkpt lat="49.52206886373460292816162109375" lon="11.03284710086882114410400390625">
        <ele>300.399993896484375</ele>
        <time>2018-08-17T08:45:09.000Z</time>
      </trkpt>
      <trkpt lat="49.522606395184993743896484375" lon="11.03262866847217082977294921875">
        <ele>300.20001220703125</ele>
        <time>2018-08-17T08:45:16.000Z</time>
      </trkpt>
      <trkpt lat="49.52303521335124969482421875" lon="11.03246756829321384429931640625">
        <ele>299.600006103515625</ele>
        <time>2018-08-17T08:45:27.000Z</time>
      </trkpt>
      <trkpt lat="49.5231054536998271942138671875" lon="11.03244745172560214996337890625">
        <ele>298.399993896484375</ele>
        <time>2018-08-17T08:45:32.000Z</time>
      </trkpt>
      <trkpt lat="49.52364080585539340972900390625" lon="11.032221056520938873291015625">
        <ele>297.79998779296875</ele>
        <time>2018-08-17T08:45:43.000Z</time>
      </trkpt>
      <trkpt lat="49.5242013037204742431640625" lon="11.03199985809624195098876953125">
        <ele>297.600006103515625</ele>
        <time>2018-08-17T08:45:51.000Z</time>
      </trkpt>
      <trkpt lat="49.5247255079448223114013671875" lon="11.03180187754333019256591796875">
        <ele>297.600006103515625</ele>
        <time>2018-08-17T08:45:58.000Z</time>
      </trkpt>
      <trkpt lat="49.52525666914880275726318359375" lon="11.03160155005753040313720703125">
        <ele>297.600006103515625</ele>
        <time>2018-08-17T08:46:05.000Z</time>
      </trkpt>
      <trkpt lat="49.52578791417181491851806640625" lon="11.031449250876903533935546875">
        <ele>298</ele>
        <time>2018-08-17T08:46:12.000Z</time>
      </trkpt>
      <trkpt lat="49.52634162269532680511474609375" lon="11.031410694122314453125">
        <ele>298.20001220703125</ele>
        <time>2018-08-17T08:46:19.000Z</time>
      </trkpt>
      <trkpt lat="49.526882171630859375" lon="11.031480766832828521728515625">
        <ele>298.20001220703125</ele>
        <time>2018-08-17T08:46:26.000Z</time>
      </trkpt>
      <trkpt lat="49.52741417102515697479248046875" lon="11.03164480067789554595947265625">
        <ele>298.20001220703125</ele>
        <time>2018-08-17T08:46:33.000Z</time>
      </trkpt>
      <trkpt lat="49.52793569304049015045166015625" lon="11.031884439289569854736328125">
        <ele>298</ele>
        <time>2018-08-17T08:46:40.000Z</time>
      </trkpt>
      <trkpt lat="49.52845671214163303375244140625" lon="11.03215592913329601287841796875">
        <ele>297.79998779296875</ele>
        <time>2018-08-17T08:46:47.000Z</time>
      </trkpt>
      <trkpt lat="49.528975300490856170654296875" lon="11.03240185417234897613525390625">
        <ele>297.79998779296875</ele>
        <time>2018-08-17T08:46:54.000Z</time>
      </trkpt>
      <trkpt lat="49.529509060084819793701171875" lon="11.03258608840405941009521484375">
        <ele>298</ele>
        <time>2018-08-17T08:47:01.000Z</time>
      </trkpt>
      <trkpt lat="49.529876522719860076904296875" lon="11.0327113978564739227294921875">
        <ele>298.20001220703125</ele>
        <time>2018-08-17T08:47:06.000Z</time>
      </trkpt>
      <trkpt lat="49.5304657705128192901611328125" lon="11.03284609504044055938720703125">
        <ele>298.600006103515625</ele>
        <time>2018-08-17T08:47:14.000Z</time>
      </trkpt>
      <trkpt lat="49.530672468245029449462890625" lon="11.03285707533359527587890625">
        <ele>298.79998779296875</ele>
        <time>2018-08-17T08:47:17.000Z</time>
      </trkpt>
      <trkpt lat="49.53091277740895748138427734375" lon="11.032526493072509765625">
        <ele>299.20001220703125</ele>
        <time>2018-08-17T08:47:22.000Z</time>
      </trkpt>
      <trkpt lat="49.53098787926137447357177734375" lon="11.03234150446951389312744140625">
        <ele>299.399993896484375</ele>
        <time>2018-08-17T08:47:24.000Z</time>
      </trkpt>
      <trkpt lat="49.5313663221895694732666015625" lon="11.0320405103266239166259765625">
        <ele>299.600006103515625</ele>
        <time>2018-08-17T08:47:30.000Z</time>
      </trkpt>
      <trkpt lat="49.5315111614763736724853515625" lon="11.032009832561016082763671875">
        <ele>300</ele>
        <time>2018-08-17T08:47:32.000Z</time>
      </trkpt>
      <trkpt lat="49.53173185698688030242919921875" lon="11.0320130176842212677001953125">
        <ele>300.399993896484375</ele>
        <time>2018-08-17T08:47:35.000Z</time>
      </trkpt>
      <trkpt lat="49.531878121197223663330078125" lon="11.03204009123146533966064453125">
        <ele>300.600006103515625</ele>
        <time>2018-08-17T08:47:37.000Z</time>
      </trkpt>
      <trkpt lat="49.5321247167885303497314453125" lon="11.0316938348114490509033203125">
        <ele>300.79998779296875</ele>
        <time>2018-08-17T08:47:42.000Z</time>
      </trkpt>
      <trkpt lat="49.53238564543426036834716796875" lon="11.03093351237475872039794921875">
        <ele>300.79998779296875</ele>
        <time>2018-08-17T08:47:49.000Z</time>
      </trkpt>
      <trkpt lat="49.53270114026963710784912109375" lon="11.0302345454692840576171875">
        <ele>300.79998779296875</ele>
        <time>2018-08-17T08:47:56.000Z</time>
      </trkpt>
      <trkpt lat="49.53305921517312526702880859375" lon="11.0296084173023700714111328125">
        <ele>301</ele>
        <time>2018-08-17T08:48:03.000Z</time>
      </trkpt>
      <trkpt lat="49.5332871191203594207763671875" lon="11.029262244701385498046875">
        <ele>301</ele>
        <time>2018-08-17T08:48:07.000Z</time>
      </trkpt>
      <trkpt lat="49.533736221492290496826171875" lon="11.0287470929324626922607421875">
        <ele>301</ele>
        <time>2018-08-17T08:48:14.000Z</time>
      </trkpt>
      <trkpt lat="49.5340954698622226715087890625" lon="11.02824912406504154205322265625">
        <ele>300.79998779296875</ele>
        <time>2018-08-17T08:48:21.000Z</time>
      </trkpt>
      <trkpt lat="49.53429244458675384521484375" lon="11.02777621708810329437255859375">
        <ele>300.600006103515625</ele>
        <time>2018-08-17T08:48:30.000Z</time>
      </trkpt>
      <trkpt lat="49.53441046178340911865234375" lon="11.02782634086906909942626953125">
        <ele>301</ele>
        <time>2018-08-17T08:48:34.000Z</time>
      </trkpt>
      <trkpt lat="49.53448330052196979522705078125" lon="11.02787042967975139617919921875">
        <ele>301</ele>
        <time>2018-08-17T08:48:36.000Z</time>
      </trkpt>
      <trkpt lat="49.53457164578139781951904296875" lon="11.02789054624736309051513671875">
        <ele>301</ele>
        <time>2018-08-17T08:48:38.000Z</time>
      </trkpt>
      <trkpt lat="49.53516776673495769500732421875" lon="11.0279125906527042388916015625">
        <ele>301.600006103515625</ele>
        <time>2018-08-17T08:48:48.000Z</time>
      </trkpt>
      <trkpt lat="49.5355022884905338287353515625" lon="11.02795106358826160430908203125">
        <ele>302.20001220703125</ele>
        <time>2018-08-17T08:48:53.000Z</time>
      </trkpt>
      <trkpt lat="49.53610301949083805084228515625" lon="11.02801996283233165740966796875">
        <ele>302.79998779296875</ele>
        <time>2018-08-17T08:49:02.000Z</time>
      </trkpt>
      <trkpt lat="49.536655135452747344970703125" lon="11.02801275439560413360595703125">
        <ele>303</ele>
        <time>2018-08-17T08:49:10.000Z</time>
      </trkpt>
      <trkpt lat="49.5370703749358654022216796875" lon="11.02787948213517665863037109375">
        <ele>303</ele>
        <time>2018-08-17T08:49:16.000Z</time>
      </trkpt>
      <trkpt lat="49.53732878901064395904541015625" lon="11.02768116630613803863525390625">
        <ele>303.20001220703125</ele>
        <time>2018-08-17T08:49:20.000Z</time>
      </trkpt>
      <trkpt lat="49.53745250590145587921142578125" lon="11.0275642387568950653076171875">
        <ele>303.20001220703125</ele>
        <time>2018-08-17T08:49:22.000Z</time>
      </trkpt>
      <trkpt lat="49.53792172484099864959716796875" lon="11.02702687494456768035888671875">
        <ele>303.79998779296875</ele>
        <time>2018-08-17T08:49:30.000Z</time>
      </trkpt>
      <trkpt lat="49.53798559494316577911376953125" lon="11.0269744880497455596923828125">
        <ele>303.79998779296875</ele>
        <time>2018-08-17T08:49:31.000Z</time>
      </trkpt>
      <trkpt lat="49.538300335407257080078125" lon="11.02679234929382801055908203125">
        <ele>303.79998779296875</ele>
        <time>2018-08-17T08:49:36.000Z</time>
      </trkpt>
      <trkpt lat="49.53847979195415973663330078125" lon="11.0267454944550991058349609375">
        <ele>304</ele>
        <time>2018-08-17T08:49:39.000Z</time>
      </trkpt>
      <trkpt lat="49.53858490101993083953857421875" lon="11.02672043256461620330810546875">
        <ele>304.399993896484375</ele>
        <time>2018-08-17T08:49:41.000Z</time>
      </trkpt>
      <trkpt lat="49.53868296928703784942626953125" lon="11.02670350112020969390869140625">
        <ele>304.79998779296875</ele>
        <time>2018-08-17T08:49:43.000Z</time>
      </trkpt>
      <trkpt lat="49.53877634368836879730224609375" lon="11.02671054191887378692626953125">
        <ele>305.399993896484375</ele>
        <time>2018-08-17T08:49:45.000Z</time>
      </trkpt>
      <trkpt lat="49.5389105379581451416015625" lon="11.02672152221202850341796875">
        <ele>306.79998779296875</ele>
        <time>2018-08-17T08:49:48.000Z</time>
      </trkpt>
      <trkpt lat="49.53900265507400035858154296875" lon="11.02674356661736965179443359375">
        <ele>307.399993896484375</ele>
        <time>2018-08-17T08:49:50.000Z</time>
      </trkpt>
      <trkpt lat="49.53909887932240962982177734375" lon="11.02677759714424610137939453125">
        <ele>308.20001220703125</ele>
        <time>2018-08-17T08:49:52.000Z</time>
      </trkpt>
      <trkpt lat="49.53930406831204891204833984375" lon="11.0268517769873142242431640625">
        <ele>309.399993896484375</ele>
        <time>2018-08-17T08:49:56.000Z</time>
      </trkpt>
      <trkpt lat="49.539576731622219085693359375" lon="11.026962585747241973876953125">
        <ele>310.399993896484375</ele>
        <time>2018-08-17T08:50:01.000Z</time>
      </trkpt>
      <trkpt lat="49.5401468686759471893310546875" lon="11.0271756537258625030517578125">
        <ele>311.20001220703125</ele>
        <time>2018-08-17T08:50:10.000Z</time>
      </trkpt>
      <trkpt lat="49.54076151363551616668701171875" lon="11.0272598080337047576904296875">
        <ele>311.20001220703125</ele>
        <time>2018-08-17T08:50:18.000Z</time>
      </trkpt>
      <trkpt lat="49.541280269622802734375" lon="11.0274772346019744873046875">
        <ele>309.79998779296875</ele>
        <time>2018-08-17T08:50:24.000Z</time>
      </trkpt>
      <trkpt lat="49.5414487458765506744384765625" lon="11.02761042304337024688720703125">
        <ele>309</ele>
        <time>2018-08-17T08:50:26.000Z</time>
      </trkpt>
      <trkpt lat="49.54168050549924373626708984375" lon="11.02784209884703159332275390625">
        <ele>308</ele>
        <time>2018-08-17T08:50:29.000Z</time>
      </trkpt>
      <trkpt lat="49.54190681688487529754638671875" lon="11.028054244816303253173828125">
        <ele>307</ele>
        <time>2018-08-17T08:50:32.000Z</time>
      </trkpt>
      <trkpt lat="49.54232909716665744781494140625" lon="11.028255410492420196533203125">
        <ele>306</ele>
        <time>2018-08-17T08:50:37.000Z</time>
      </trkpt>
      <trkpt lat="49.54265951178967952728271484375" lon="11.02822448126971721649169921875">
        <ele>305.600006103515625</ele>
        <time>2018-08-17T08:50:41.000Z</time>
      </trkpt>
      <trkpt lat="49.543240964412689208984375" lon="11.0280772112309932708740234375">
        <ele>305.399993896484375</ele>
        <time>2018-08-17T08:50:48.000Z</time>
      </trkpt>
      <trkpt lat="49.54332352615892887115478515625" lon="11.02806338109076023101806640625">
        <ele>305.20001220703125</ele>
        <time>2018-08-17T08:50:49.000Z</time>
      </trkpt>
      <trkpt lat="49.54374312423169612884521484375" lon="11.0280554182827472686767578125">
        <ele>305</ele>
        <time>2018-08-17T08:50:54.000Z</time>
      </trkpt>
      <trkpt lat="49.5442239940166473388671875" lon="11.028051562607288360595703125">
        <ele>304.79998779296875</ele>
        <time>2018-08-17T08:51:00.000Z</time>
      </trkpt>
      <trkpt lat="49.544416777789592742919921875" lon="11.028463281691074371337890625">
        <ele>304.399993896484375</ele>
        <time>2018-08-17T08:51:07.000Z</time>
      </trkpt>
      <trkpt lat="49.54441250301897525787353515625" lon="11.0287594981491565704345703125">
        <ele>303.79998779296875</ele>
        <time>2018-08-17T08:51:10.000Z</time>
      </trkpt>
      <trkpt lat="49.54437009058892726898193359375" lon="11.02960196323692798614501953125">
        <ele>303.600006103515625</ele>
        <time>2018-08-17T08:51:19.000Z</time>
      </trkpt>
      <trkpt lat="49.54428912140429019927978515625" lon="11.03011594153940677642822265625">
        <ele>303</ele>
        <time>2018-08-17T08:51:30.000Z</time>
      </trkpt>
      <trkpt lat="49.54450906254351139068603515625" lon="11.0302209667861461639404296875">
        <ele>303</ele>
        <time>2018-08-17T08:51:36.000Z</time>
      </trkpt>
      <trkpt lat="49.54511825926601886749267578125" lon="11.03043177165091037750244140625">
        <ele>303.20001220703125</ele>
        <time>2018-08-17T08:51:44.000Z</time>
      </trkpt>
      <trkpt lat="49.54545236192643642425537109375" lon="11.03061868809163570404052734375">
        <ele>302.79998779296875</ele>
        <time>2018-08-17T08:51:48.000Z</time>
      </trkpt>
      <trkpt lat="49.545701555907726287841796875" lon="11.0307604260742664337158203125">
        <ele>301.79998779296875</ele>
        <time>2018-08-17T08:51:51.000Z</time>
      </trkpt>
      <trkpt lat="49.54578571021556854248046875" lon="11.0308046825230121612548828125">
        <ele>301.600006103515625</ele>
        <time>2018-08-17T08:51:52.000Z</time>
      </trkpt>
      <trkpt lat="49.54639457166194915771484375" lon="11.03093954734504222869873046875">
        <ele>300.79998779296875</ele>
        <time>2018-08-17T08:51:59.000Z</time>
      </trkpt>
      <trkpt lat="49.54648065380752086639404296875" lon="11.03094290010631084442138671875">
        <ele>300.79998779296875</ele>
        <time>2018-08-17T08:52:00.000Z</time>
      </trkpt>
      <trkpt lat="49.54690746031701564788818359375" lon="11.03093233890831470489501953125">
        <ele>300</ele>
        <time>2018-08-17T08:52:05.000Z</time>
      </trkpt>
      <trkpt lat="49.54699010588228702545166015625" lon="11.030909456312656402587890625">
        <ele>299.600006103515625</ele>
        <time>2018-08-17T08:52:06.000Z</time>
      </trkpt>
      <trkpt lat="49.5475182496011257171630859375" lon="11.030704267323017120361328125">
        <ele>298.79998779296875</ele>
        <time>2018-08-17T08:52:13.000Z</time>
      </trkpt>
      <trkpt lat="49.54759259708225727081298828125" lon="11.0306876711547374725341796875">
        <ele>298.79998779296875</ele>
        <time>2018-08-17T08:52:14.000Z</time>
      </trkpt>
      <trkpt lat="49.54766836948692798614501953125" lon="11.03067643940448760986328125">
        <ele>298.600006103515625</ele>
        <time>2018-08-17T08:52:15.000Z</time>
      </trkpt>
      <trkpt lat="49.54822056926786899566650390625" lon="11.0306293331086635589599609375">
        <ele>298.20001220703125</ele>
        <time>2018-08-17T08:52:22.000Z</time>
      </trkpt>
      <trkpt lat="49.54876539297401905059814453125" lon="11.030560433864593505859375">
        <ele>298</ele>
        <time>2018-08-17T08:52:29.000Z</time>
      </trkpt>
      <trkpt lat="49.5493257232010364532470703125" lon="11.03043613024055957794189453125">
        <ele>297.79998779296875</ele>
        <time>2018-08-17T08:52:36.000Z</time>
      </trkpt>
      <trkpt lat="49.5498829521238803863525390625" lon="11.0303295962512493133544921875">
        <ele>298</ele>
        <time>2018-08-17T08:52:43.000Z</time>
      </trkpt>
      <trkpt lat="49.55033683218061923980712890625" lon="11.03025910444557666778564453125">
        <ele>298</ele>
        <time>2018-08-17T08:52:49.000Z</time>
      </trkpt>
      <trkpt lat="49.55094234086573123931884765625" lon="11.03033755905926227569580078125">
        <ele>298</ele>
        <time>2018-08-17T08:52:57.000Z</time>
      </trkpt>
      <trkpt lat="49.55152622424066066741943359375" lon="11.03056889958679676055908203125">
        <ele>298.20001220703125</ele>
        <time>2018-08-17T08:53:05.000Z</time>
      </trkpt>
      <trkpt lat="49.55210893414914608001708984375" lon="11.03083795867860317230224609375">
        <ele>298.399993896484375</ele>
        <time>2018-08-17T08:53:13.000Z</time>
      </trkpt>
      <trkpt lat="49.552391655743122100830078125" lon="11.030951701104640960693359375">
        <ele>298.600006103515625</ele>
        <time>2018-08-17T08:53:17.000Z</time>
      </trkpt>
      <trkpt lat="49.55286632291972637176513671875" lon="11.03097609244287014007568359375">
        <ele>299</ele>
        <time>2018-08-17T08:53:24.000Z</time>
      </trkpt>
      <trkpt lat="49.55342288129031658172607421875" lon="11.03122184984385967254638671875">
        <ele>299.20001220703125</ele>
        <time>2018-08-17T08:53:32.000Z</time>
      </trkpt>
      <trkpt lat="49.5539941079914569854736328125" lon="11.0314576327800750732421875">
        <ele>299.20001220703125</ele>
        <time>2018-08-17T08:53:40.000Z</time>
      </trkpt>
      <trkpt lat="49.55455862917006015777587890625" lon="11.0317193157970905303955078125">
        <ele>299.399993896484375</ele>
        <time>2018-08-17T08:53:48.000Z</time>
      </trkpt>
      <trkpt lat="49.554764740169048309326171875" lon="11.03181763552129268646240234375">
        <ele>299.600006103515625</ele>
        <time>2018-08-17T08:53:51.000Z</time>
      </trkpt>
      <trkpt lat="49.554967582225799560546875" lon="11.03189944289624691009521484375">
        <ele>299.600006103515625</ele>
        <time>2018-08-17T08:53:54.000Z</time>
      </trkpt>
      <trkpt lat="49.55557300709187984466552734375" lon="11.0319828428328037261962890625">
        <ele>299.79998779296875</ele>
        <time>2018-08-17T08:54:02.000Z</time>
      </trkpt>
      <trkpt lat="49.55613157711923122406005859375" lon="11.031897179782390594482421875">
        <ele>300.20001220703125</ele>
        <time>2018-08-17T08:54:09.000Z</time>
      </trkpt>
      <trkpt lat="49.55666969530284404754638671875" lon="11.0316629894077777862548828125">
        <ele>300.20001220703125</ele>
        <time>2018-08-17T08:54:16.000Z</time>
      </trkpt>
      <trkpt lat="49.557020477950572967529296875" lon="11.03140323422849178314208984375">
        <ele>300.20001220703125</ele>
        <time>2018-08-17T08:54:21.000Z</time>
      </trkpt>
      <trkpt lat="49.557497240602970123291015625" lon="11.0310014896094799041748046875">
        <ele>300.20001220703125</ele>
        <time>2018-08-17T08:54:28.000Z</time>
      </trkpt>
      <trkpt lat="49.5577119849622249603271484375" lon="11.03085841052234172821044921875">
        <ele>300.20001220703125</ele>
        <time>2018-08-17T08:54:31.000Z</time>
      </trkpt>
      <trkpt lat="49.557842575013637542724609375" lon="11.03075799532234668731689453125">
        <ele>300.20001220703125</ele>
        <time>2018-08-17T08:54:33.000Z</time>
      </trkpt>
      <trkpt lat="49.55808724276721477508544921875" lon="11.0303453542292118072509765625">
        <ele>300.20001220703125</ele>
        <time>2018-08-17T08:54:39.000Z</time>
      </trkpt>
      <trkpt lat="49.55817751586437225341796875" lon="11.03028751909732818603515625">
        <ele>300.399993896484375</ele>
        <time>2018-08-17T08:54:41.000Z</time>
      </trkpt>
      <trkpt lat="49.5583392865955829620361328125" lon="11.0302702523767948150634765625">
        <ele>300.399993896484375</ele>
        <time>2018-08-17T08:54:44.000Z</time>
      </trkpt>
      <trkpt lat="49.55874773673713207244873046875" lon="11.03052615188062191009521484375">
        <ele>300.20001220703125</ele>
        <time>2018-08-17T08:54:54.000Z</time>
      </trkpt>
      <trkpt lat="49.5593340508639812469482421875" lon="11.0305428318679332733154296875">
        <ele>299.79998779296875</ele>
        <time>2018-08-17T08:55:07.000Z</time>
      </trkpt>
      <trkpt lat="49.55978893674910068511962890625" lon="11.03074693121016025543212890625">
        <ele>299.79998779296875</ele>
        <time>2018-08-17T08:55:15.000Z</time>
      </trkpt>
      <trkpt lat="49.56011046655476093292236328125" lon="11.03107650764286518096923828125">
        <ele>299.79998779296875</ele>
        <time>2018-08-17T08:55:21.000Z</time>
      </trkpt>
      <trkpt lat="49.5602966286242008209228515625" lon="11.0313153080642223358154296875">
        <ele>300</ele>
        <time>2018-08-17T08:55:25.000Z</time>
      </trkpt>
      <trkpt lat="49.56036762334406375885009765625" lon="11.03145168162882328033447265625">
        <ele>300</ele>
        <time>2018-08-17T08:55:27.000Z</time>
      </trkpt>
      <trkpt lat="49.5604754984378814697265625" lon="11.0316614806652069091796875">
        <ele>300</ele>
        <time>2018-08-17T08:55:30.000Z</time>
      </trkpt>
      <trkpt lat="49.56072854809463024139404296875" lon="11.03184781037271022796630859375">
        <ele>300</ele>
        <time>2018-08-17T08:55:36.000Z</time>
      </trkpt>
      <trkpt lat="49.56076039932668209075927734375" lon="11.0318463854491710662841796875">
        <ele>300.20001220703125</ele>
        <time>2018-08-17T08:55:39.000Z</time>
      </trkpt>
      <trkpt lat="49.56067775376141071319580078125" lon="11.03193112649023532867431640625">
        <ele>300.600006103515625</ele>
        <time>2018-08-17T08:56:51.000Z</time>
      </trkpt>
      <trkpt lat="49.56047323532402515411376953125" lon="11.031727530062198638916015625">
        <ele>300.79998779296875</ele>
        <time>2018-08-17T08:56:58.000Z</time>
      </trkpt>
      <trkpt lat="49.56005782820284366607666015625" lon="11.03112076409161090850830078125">
        <ele>301.20001220703125</ele>
        <time>2018-08-17T08:57:09.000Z</time>
      </trkpt>
      <trkpt lat="49.559757672250270843505859375" lon="11.0309012420475482940673828125">
        <ele>301.600006103515625</ele>
        <time>2018-08-17T08:57:15.000Z</time>
      </trkpt>
      <trkpt lat="49.55960579216480255126953125" lon="11.03082153014838695526123046875">
        <ele>302.20001220703125</ele>
        <time>2018-08-17T08:57:18.000Z</time>
      </trkpt>
      <trkpt lat="49.559296332299709320068359375" lon="11.03074944578111171722412109375">
        <ele>302.600006103515625</ele>
        <time>2018-08-17T08:57:24.000Z</time>
      </trkpt>
      <trkpt lat="49.558818228542804718017578125" lon="11.0307602584362030029296875">
        <ele>303.600006103515625</ele>
        <time>2018-08-17T08:57:33.000Z</time>
      </trkpt>
      <trkpt lat="49.55835227854549884796142578125" lon="11.03084550239145755767822265625">
        <ele>304.79998779296875</ele>
        <time>2018-08-17T08:57:43.000Z</time>
      </trkpt>
      <trkpt lat="49.55831288360059261322021484375" lon="11.030895374715328216552734375">
        <ele>304.79998779296875</ele>
        <time>2018-08-17T08:57:45.000Z</time>
      </trkpt>
      <trkpt lat="49.55830919556319713592529296875" lon="11.03134640492498874664306640625">
        <ele>305</ele>
        <time>2018-08-17T08:57:52.000Z</time>
      </trkpt>
      <trkpt lat="49.55835454165935516357421875" lon="11.03190463967621326446533203125">
        <ele>305.399993896484375</ele>
        <time>2018-08-17T08:57:59.000Z</time>
      </trkpt>
      <trkpt lat="49.558373652398586273193359375" lon="11.03204168379306793212890625">
        <ele>305.79998779296875</ele>
        <time>2018-08-17T08:58:02.000Z</time>
      </trkpt>
      <trkpt lat="49.55837859772145748138427734375" lon="11.0321162827312946319580078125">
        <ele>306.399993896484375</ele>
        <time>2018-08-17T08:58:05.000Z</time>
      </trkpt>
      <trkpt lat="49.55838178284466266632080078125" lon="11.03213799186050891876220703125">
        <ele>306.600006103515625</ele>
        <time>2018-08-17T08:58:08.000Z</time>
      </trkpt>
      <trkpt lat="49.55839334987103939056396484375" lon="11.0322195477783679962158203125">
        <ele>306.600006103515625</ele>
        <time>2018-08-17T08:58:38.000Z</time>
      </trkpt>
      <trkpt lat="49.55842721275985240936279296875" lon="11.03249103762209415435791015625">
        <ele>306.600006103515625</ele>
        <time>2018-08-17T08:58:43.000Z</time>
      </trkpt>
      <trkpt lat="49.55849627964198589324951171875" lon="11.03332419879734516143798828125">
        <ele>306.600006103515625</ele>
        <time>2018-08-17T08:58:53.000Z</time>
      </trkpt>
      <trkpt lat="49.5585604012012481689453125" lon="11.0337172262370586395263671875">
        <ele>306.79998779296875</ele>
        <time>2018-08-17T08:58:57.000Z</time>
      </trkpt>
      <trkpt lat="49.55877791158854961395263671875" lon="11.03414361365139484405517578125">
        <ele>306.79998779296875</ele>
        <time>2018-08-17T08:59:02.000Z</time>
      </trkpt>
      <trkpt lat="49.55884027294814586639404296875" lon="11.03420714847743511199951171875">
        <ele>306.79998779296875</ele>
        <time>2018-08-17T08:59:03.000Z</time>
      </trkpt>
      <trkpt lat="49.559378810226917266845703125" lon="11.034336648881435394287109375">
        <ele>306.600006103515625</ele>
        <time>2018-08-17T08:59:10.000Z</time>
      </trkpt>
      <trkpt lat="49.55994148738682270050048828125" lon="11.03415928781032562255859375">
        <ele>305.600006103515625</ele>
        <time>2018-08-17T08:59:17.000Z</time>
      </trkpt>
      <trkpt lat="49.56026402302086353302001953125" lon="11.0340491496026515960693359375">
        <ele>304.79998779296875</ele>
        <time>2018-08-17T08:59:21.000Z</time>
      </trkpt>
      <trkpt lat="49.56055789254605770111083984375" lon="11.03388310410082340240478515625">
        <ele>304.20001220703125</ele>
        <time>2018-08-17T08:59:25.000Z</time>
      </trkpt>
      <trkpt lat="49.56077129580080509185791015625" lon="11.03382803499698638916015625">
        <ele>303.79998779296875</ele>
        <time>2018-08-17T08:59:28.000Z</time>
      </trkpt>
      <trkpt lat="49.5613765530288219451904296875" lon="11.03367506526410579681396484375">
        <ele>303.399993896484375</ele>
        <time>2018-08-17T08:59:36.000Z</time>
      </trkpt>
      <trkpt lat="49.5619274117052555084228515625" lon="11.03348798118531703948974609375">
        <ele>303</ele>
        <time>2018-08-17T08:59:43.000Z</time>
      </trkpt>
      <trkpt lat="49.5621771924197673797607421875" lon="11.03340558707714080810546875">
        <ele>302.399993896484375</ele>
        <time>2018-08-17T08:59:46.000Z</time>
      </trkpt>
      <trkpt lat="49.5627719722688198089599609375" lon="11.03320215828716754913330078125">
        <ele>301.79998779296875</ele>
        <time>2018-08-17T08:59:53.000Z</time>
      </trkpt>
      <trkpt lat="49.56320841796696186065673828125" lon="11.033057235181331634521484375">
        <ele>301.399993896484375</ele>
        <time>2018-08-17T08:59:58.000Z</time>
      </trkpt>
      <trkpt lat="49.5637415908277034759521484375" lon="11.03288448415696620941162109375">
        <ele>301</ele>
        <time>2018-08-17T09:00:04.000Z</time>
      </trkpt>
      <trkpt lat="49.564275853335857391357421875" lon="11.0327023454010486602783203125">
        <ele>300.399993896484375</ele>
        <time>2018-08-17T09:00:10.000Z</time>
      </trkpt>
      <trkpt lat="49.56445246003568172454833984375" lon="11.0326423309743404388427734375">
        <ele>300.399993896484375</ele>
        <time>2018-08-17T09:00:12.000Z</time>
      </trkpt>
      <trkpt lat="49.565000049769878387451171875" lon="11.03245742619037628173828125">
        <ele>300</ele>
        <time>2018-08-17T09:00:18.000Z</time>
      </trkpt>
      <trkpt lat="49.56556054763495922088623046875" lon="11.03226455859839916229248046875">
        <ele>299.79998779296875</ele>
        <time>2018-08-17T09:00:24.000Z</time>
      </trkpt>
      <trkpt lat="49.56611945293843746185302734375" lon="11.0320777259767055511474609375">
        <ele>299.399993896484375</ele>
        <time>2018-08-17T09:00:30.000Z</time>
      </trkpt>
      <trkpt lat="49.566678106784820556640625" lon="11.0318913124501705169677734375">
        <ele>299.20001220703125</ele>
        <time>2018-08-17T09:00:36.000Z</time>
      </trkpt>
      <trkpt lat="49.566864855587482452392578125" lon="11.031827442348003387451171875">
        <ele>299.20001220703125</ele>
        <time>2018-08-17T09:00:38.000Z</time>
      </trkpt>
      <trkpt lat="49.5674277842044830322265625" lon="11.0316480696201324462890625">
        <ele>298.79998779296875</ele>
        <time>2018-08-17T09:00:44.000Z</time>
      </trkpt>
      <trkpt lat="49.56799733452498912811279296875" lon="11.03151798248291015625">
        <ele>298.399993896484375</ele>
        <time>2018-08-17T09:00:50.000Z</time>
      </trkpt>
      <trkpt lat="49.56838323734700679779052734375" lon="11.03147665970027446746826171875">
        <ele>298.20001220703125</ele>
        <time>2018-08-17T09:00:54.000Z</time>
      </trkpt>
      <trkpt lat="49.5689517818391323089599609375" lon="11.03149225004017353057861328125">
        <ele>298</ele>
        <time>2018-08-17T09:01:00.000Z</time>
      </trkpt>
      <trkpt lat="49.56951546482741832733154296875" lon="11.03154824115335941314697265625">
        <ele>297.399993896484375</ele>
        <time>2018-08-17T09:01:06.000Z</time>
      </trkpt>
      <trkpt lat="49.56990170292556285858154296875" lon="11.03158964775502681732177734375">
        <ele>297.20001220703125</ele>
        <time>2018-08-17T09:01:10.000Z</time>
      </trkpt>
      <trkpt lat="49.57049061544239521026611328125" lon="11.03163105435669422149658203125">
        <ele>296.399993896484375</ele>
        <time>2018-08-17T09:01:16.000Z</time>
      </trkpt>
      <trkpt lat="49.5707880891859531402587890625" lon="11.0316381789743900299072265625">
        <ele>296</ele>
        <time>2018-08-17T09:01:19.000Z</time>
      </trkpt>
      <trkpt lat="49.57138261757791042327880859375" lon="11.03165100328624248504638671875">
        <ele>295.20001220703125</ele>
        <time>2018-08-17T09:01:25.000Z</time>
      </trkpt>
      <trkpt lat="49.5715820230543613433837890625" lon="11.03165720589458942413330078125">
        <ele>294.79998779296875</ele>
        <time>2018-08-17T09:01:27.000Z</time>
      </trkpt>
      <trkpt lat="49.57216431386768817901611328125" lon="11.0316695272922515869140625">
        <ele>294.20001220703125</ele>
        <time>2018-08-17T09:01:33.000Z</time>
      </trkpt>
      <trkpt lat="49.572259448468685150146484375" lon="11.03167061693966388702392578125">
        <ele>294</ele>
        <time>2018-08-17T09:01:34.000Z</time>
      </trkpt>
      <trkpt lat="49.57254686392843723297119140625" lon="11.0316740535199642181396484375">
        <ele>293.79998779296875</ele>
        <time>2018-08-17T09:01:37.000Z</time>
      </trkpt>
      <trkpt lat="49.573119096457958221435546875" lon="11.03168335743248462677001953125">
        <ele>293.399993896484375</ele>
        <time>2018-08-17T09:01:43.000Z</time>
      </trkpt>
      <trkpt lat="49.5736748166382312774658203125" lon="11.03169861249625682830810546875">
        <ele>292.79998779296875</ele>
        <time>2018-08-17T09:01:49.000Z</time>
      </trkpt>
      <trkpt lat="49.57424260675907135009765625" lon="11.03173180483281612396240234375">
        <ele>292.399993896484375</ele>
        <time>2018-08-17T09:01:55.000Z</time>
      </trkpt>
      <trkpt lat="49.5748258195817470550537109375" lon="11.0318081639707088470458984375">
        <ele>292</ele>
        <time>2018-08-17T09:02:01.000Z</time>
      </trkpt>
      <trkpt lat="49.57542009651660919189453125" lon="11.0318809188902378082275390625">
        <ele>291.79998779296875</ele>
        <time>2018-08-17T09:02:07.000Z</time>
      </trkpt>
      <trkpt lat="49.57561832852661609649658203125" lon="11.0319147817790508270263671875">
        <ele>291.600006103515625</ele>
        <time>2018-08-17T09:02:09.000Z</time>
      </trkpt>
      <trkpt lat="49.57620020024478435516357421875" lon="11.0320146940648555755615234375">
        <ele>291.20001220703125</ele>
        <time>2018-08-17T09:02:15.000Z</time>
      </trkpt>
      <trkpt lat="49.576783664524555206298828125" lon="11.0321461223065853118896484375">
        <ele>291</ele>
        <time>2018-08-17T09:02:21.000Z</time>
      </trkpt>
      <trkpt lat="49.57734114490449428558349609375" lon="11.03230814449489116668701171875">
        <ele>290.600006103515625</ele>
        <time>2018-08-17T09:02:27.000Z</time>
      </trkpt>
      <trkpt lat="49.57743301056325435638427734375" lon="11.03233681060373783111572265625">
        <ele>290.600006103515625</ele>
        <time>2018-08-17T09:02:28.000Z</time>
      </trkpt>
      <trkpt lat="49.57800247706472873687744140625" lon="11.03253043256700038909912109375">
        <ele>290.399993896484375</ele>
        <time>2018-08-17T09:02:34.000Z</time>
      </trkpt>
      <trkpt lat="49.57858853973448276519775390625" lon="11.03274115361273288726806640625">
        <ele>289.79998779296875</ele>
        <time>2018-08-17T09:02:40.000Z</time>
      </trkpt>
      <trkpt lat="49.579159431159496307373046875" lon="11.03293896652758121490478515625">
        <ele>289.399993896484375</ele>
        <time>2018-08-17T09:02:46.000Z</time>
      </trkpt>
      <trkpt lat="49.57925741560757160186767578125" lon="11.03297349996864795684814453125">
        <ele>289.20001220703125</ele>
        <time>2018-08-17T09:02:47.000Z</time>
      </trkpt>
      <trkpt lat="49.57984850741922855377197265625" lon="11.03317282162606716156005859375">
        <ele>289</ele>
        <time>2018-08-17T09:02:53.000Z</time>
      </trkpt>
      <trkpt lat="49.580424092710018157958984375" lon="11.03331196121871471405029296875">
        <ele>288.79998779296875</ele>
        <time>2018-08-17T09:02:59.000Z</time>
      </trkpt>
      <trkpt lat="49.581028260290622711181640625" lon="11.03341589681804180145263671875">
        <ele>288.600006103515625</ele>
        <time>2018-08-17T09:03:06.000Z</time>
      </trkpt>
      <trkpt lat="49.5814190246164798736572265625" lon="11.03350541554391384124755859375">
        <ele>288</ele>
        <time>2018-08-17T09:03:14.000Z</time>
      </trkpt>
      <trkpt lat="49.5814750157296657562255859375" lon="11.0334855504333972930908203125">
        <ele>287.399993896484375</ele>
        <time>2018-08-17T09:03:22.000Z</time>
      </trkpt>
      <trkpt lat="49.58150762133300304412841796875" lon="11.03348529897630214691162109375">
        <ele>287</ele>
        <time>2018-08-17T09:03:30.000Z</time>
      </trkpt>
      <trkpt lat="49.5816698111593723297119140625" lon="11.03336535394191741943359375">
        <ele>286.79998779296875</ele>
        <time>2018-08-17T09:03:36.000Z</time>
      </trkpt>
      <trkpt lat="49.5822228491306304931640625" lon="11.03350709192454814910888671875">
        <ele>286.600006103515625</ele>
        <time>2018-08-17T09:03:47.000Z</time>
      </trkpt>
      <trkpt lat="49.582793824374675750732421875" lon="11.03363089263439178466796875">
        <ele>286.399993896484375</ele>
        <time>2018-08-17T09:03:56.000Z</time>
      </trkpt>
      <trkpt lat="49.58293422125279903411865234375" lon="11.03365964256227016448974609375">
        <ele>286.399993896484375</ele>
        <time>2018-08-17T09:03:58.000Z</time>
      </trkpt>
      <trkpt lat="49.58314091898500919342041015625" lon="11.03370557539165019989013671875">
        <ele>286.20001220703125</ele>
        <time>2018-08-17T09:04:01.000Z</time>
      </trkpt>
      <trkpt lat="49.58340779878199100494384765625" lon="11.033759973943233489990234375">
        <ele>286.20001220703125</ele>
        <time>2018-08-17T09:04:05.000Z</time>
      </trkpt>
      <trkpt lat="49.58362354896962642669677734375" lon="11.0337292961776256561279296875">
        <ele>286.20001220703125</ele>
        <time>2018-08-17T09:04:08.000Z</time>
      </trkpt>
      <trkpt lat="49.5837624371051788330078125" lon="11.0337026417255401611328125">
        <ele>286.20001220703125</ele>
        <time>2018-08-17T09:04:10.000Z</time>
      </trkpt>
      <trkpt lat="49.58409980870783329010009765625" lon="11.0338416136801242828369140625">
        <ele>286</ele>
        <time>2018-08-17T09:04:15.000Z</time>
      </trkpt>
      <trkpt lat="49.58429963327944278717041015625" lon="11.03395502083003520965576171875">
        <ele>286.20001220703125</ele>
        <time>2018-08-17T09:04:18.000Z</time>
      </trkpt>
      <trkpt lat="49.5848733745515346527099609375" lon="11.0340915620326995849609375">
        <ele>286.20001220703125</ele>
        <time>2018-08-17T09:04:26.000Z</time>
      </trkpt>
      <trkpt lat="49.58543554879724979400634765625" lon="11.0342164523899555206298828125">
        <ele>286.399993896484375</ele>
        <time>2018-08-17T09:04:34.000Z</time>
      </trkpt>
      <trkpt lat="49.5860086195170879364013671875" lon="11.034366153180599212646484375">
        <ele>286.600006103515625</ele>
        <time>2018-08-17T09:04:42.000Z</time>
      </trkpt>
      <trkpt lat="49.5865698717534542083740234375" lon="11.034460030496120452880859375">
        <ele>286.600006103515625</ele>
        <time>2018-08-17T09:04:50.000Z</time>
      </trkpt>
      <trkpt lat="49.587180912494659423828125" lon="11.03459657169878482818603515625">
        <ele>286.399993896484375</ele>
        <time>2018-08-17T09:04:58.000Z</time>
      </trkpt>
      <trkpt lat="49.58775783888995647430419921875" lon="11.03464703075587749481201171875">
        <ele>286.399993896484375</ele>
        <time>2018-08-17T09:05:06.000Z</time>
      </trkpt>
      <trkpt lat="49.58792321383953094482421875" lon="11.034486182034015655517578125">
        <ele>286.600006103515625</ele>
        <time>2018-08-17T09:05:10.000Z</time>
      </trkpt>
      <trkpt lat="49.58809512667357921600341796875" lon="11.0345658101141452789306640625">
        <ele>286.600006103515625</ele>
        <time>2018-08-17T09:05:15.000Z</time>
      </trkpt>
      <trkpt lat="49.5882824622094631195068359375" lon="11.03475515730679035186767578125">
        <ele>286.600006103515625</ele>
        <time>2018-08-17T09:05:20.000Z</time>
      </trkpt>
      <trkpt lat="49.58833518438041210174560546875" lon="11.03476655669510364532470703125">
        <ele>286.399993896484375</ele>
        <time>2018-08-17T09:05:21.000Z</time>
      </trkpt>
      <trkpt lat="49.58889408968389034271240234375" lon="11.0348692350089550018310546875">
        <ele>286.20001220703125</ele>
        <time>2018-08-17T09:05:30.000Z</time>
      </trkpt>
      <trkpt lat="49.58938560448586940765380859375" lon="11.0349476896226406097412109375">
        <ele>286</ele>
        <time>2018-08-17T09:05:37.000Z</time>
      </trkpt>
      <trkpt lat="49.5899588428437709808349609375" lon="11.03504768572747707366943359375">
        <ele>285.79998779296875</ele>
        <time>2018-08-17T09:05:45.000Z</time>
      </trkpt>
      <trkpt lat="49.5905737392604351043701171875" lon="11.03512496687471866607666015625">
        <ele>285.79998779296875</ele>
        <time>2018-08-17T09:05:53.000Z</time>
      </trkpt>
      <trkpt lat="49.59115661680698394775390625" lon="11.0351859033107757568359375">
        <ele>285.79998779296875</ele>
        <time>2018-08-17T09:06:01.000Z</time>
      </trkpt>
      <trkpt lat="49.59171962924301624298095703125" lon="11.03522588498890399932861328125">
        <ele>285.600006103515625</ele>
        <time>2018-08-17T09:06:09.000Z</time>
      </trkpt>
      <trkpt lat="49.59231960587203502655029296875" lon="11.0353956185281276702880859375">
        <ele>285.600006103515625</ele>
        <time>2018-08-17T09:06:17.000Z</time>
      </trkpt>
      <trkpt lat="49.59291907958686351776123046875" lon="11.0354878194630146026611328125">
        <ele>285.600006103515625</ele>
        <time>2018-08-17T09:06:25.000Z</time>
      </trkpt>
      <trkpt lat="49.5934613049030303955078125" lon="11.0355471633374691009521484375">
        <ele>285.399993896484375</ele>
        <time>2018-08-17T09:06:32.000Z</time>
      </trkpt>
      <trkpt lat="49.5939985848963260650634765625" lon="11.035709269344806671142578125">
        <ele>285.399993896484375</ele>
        <time>2018-08-17T09:06:39.000Z</time>
      </trkpt>
      <trkpt lat="49.59458724595606327056884765625" lon="11.03583022020757198333740234375">
        <ele>285.399993896484375</ele>
        <time>2018-08-17T09:06:47.000Z</time>
      </trkpt>
      <trkpt lat="49.59513969719409942626953125" lon="11.03587179444730281829833984375">
        <ele>285.600006103515625</ele>
        <time>2018-08-17T09:06:55.000Z</time>
      </trkpt>
      <trkpt lat="49.5954193174839019775390625" lon="11.03591906838119029998779296875">
        <ele>285.399993896484375</ele>
        <time>2018-08-17T09:07:00.000Z</time>
      </trkpt>
      <trkpt lat="49.59554932080209255218505859375" lon="11.03592510335147380828857421875">
        <ele>285.20001220703125</ele>
        <time>2018-08-17T09:07:04.000Z</time>
      </trkpt>
      <trkpt lat="49.59599859081208705902099609375" lon="11.0359873808920383453369140625">
        <ele>285.20001220703125</ele>
        <time>2018-08-17T09:07:20.000Z</time>
      </trkpt>
      <trkpt lat="49.59624879062175750732421875" lon="11.03604379110038280487060546875">
        <ele>285</ele>
        <time>2018-08-17T09:07:26.000Z</time>
      </trkpt>
      <trkpt lat="49.59646713919937610626220703125" lon="11.03607513941824436187744140625">
        <ele>284.79998779296875</ele>
        <time>2018-08-17T09:07:31.000Z</time>
      </trkpt>
      <trkpt lat="49.59706074558198451995849609375" lon="11.03622299619019031524658203125">
        <ele>284.20001220703125</ele>
        <time>2018-08-17T09:07:40.000Z</time>
      </trkpt>
      <trkpt lat="49.597220756113529205322265625" lon="11.03628535754978656768798828125">
        <ele>284</ele>
        <time>2018-08-17T09:07:42.000Z</time>
      </trkpt>
      <trkpt lat="49.59768217988312244415283203125" lon="11.036524660885334014892578125">
        <ele>283.20001220703125</ele>
        <time>2018-08-17T09:07:48.000Z</time>
      </trkpt>
      <trkpt lat="49.597751162946224212646484375" lon="11.03657889179885387420654296875">
        <ele>282.79998779296875</ele>
        <time>2018-08-17T09:07:49.000Z</time>
      </trkpt>
      <trkpt lat="49.59794989787042140960693359375" lon="11.0367531515657901763916015625">
        <ele>281.600006103515625</ele>
        <time>2018-08-17T09:07:52.000Z</time>
      </trkpt>
      <trkpt lat="49.59844375960528850555419921875" lon="11.0371725820004940032958984375">
        <ele>280.79998779296875</ele>
        <time>2018-08-17T09:07:59.000Z</time>
      </trkpt>
      <trkpt lat="49.598591364920139312744140625" lon="11.037248857319355010986328125">
        <ele>280.600006103515625</ele>
        <time>2018-08-17T09:08:01.000Z</time>
      </trkpt>
      <trkpt lat="49.59911297075450420379638671875" lon="11.037466116249561309814453125">
        <ele>280.399993896484375</ele>
        <time>2018-08-17T09:08:08.000Z</time>
      </trkpt>
      <trkpt lat="49.5996332354843616485595703125" lon="11.0377197526395320892333984375">
        <ele>280.399993896484375</ele>
        <time>2018-08-17T09:08:16.000Z</time>
      </trkpt>
      <trkpt lat="49.5999420247972011566162109375" lon="11.037936843931674957275390625">
        <ele>280.79998779296875</ele>
        <time>2018-08-17T09:08:22.000Z</time>
      </trkpt>
      <trkpt lat="49.6001948229968547821044921875" lon="11.038256697356700897216796875">
        <ele>281.79998779296875</ele>
        <time>2018-08-17T09:08:28.000Z</time>
      </trkpt>
      <trkpt lat="49.6002285182476043701171875" lon="11.03831411339342594146728515625">
        <ele>282</ele>
        <time>2018-08-17T09:08:29.000Z</time>
      </trkpt>
      <trkpt lat="49.60034812800586223602294921875" lon="11.0385574400424957275390625">
        <ele>283</ele>
        <time>2018-08-17T09:08:33.000Z</time>
      </trkpt>
      <trkpt lat="49.6004633791744709014892578125" lon="11.0388122498989105224609375">
        <ele>284.20001220703125</ele>
        <time>2018-08-17T09:08:37.000Z</time>
      </trkpt>
      <trkpt lat="49.6006300114095211029052734375" lon="11.0392097197473049163818359375">
        <ele>285</ele>
        <time>2018-08-17T09:08:43.000Z</time>
      </trkpt>
      <trkpt lat="49.6006937138736248016357421875" lon="11.03927426040172576904296875">
        <ele>285.399993896484375</ele>
        <time>2018-08-17T09:08:45.000Z</time>
      </trkpt>
      <trkpt lat="49.60076940245926380157470703125" lon="11.03933922015130519866943359375">
        <ele>286.600006103515625</ele>
        <time>2018-08-17T09:08:52.000Z</time>
      </trkpt>
      <trkpt lat="49.6007795445621013641357421875" lon="11.0393773578107357025146484375">
        <ele>286.79998779296875</ele>
        <time>2018-08-17T09:09:00.000Z</time>
      </trkpt>
      <trkpt lat="49.60087870247662067413330078125" lon="11.0395812056958675384521484375">
        <ele>286.79998779296875</ele>
        <time>2018-08-17T09:09:10.000Z</time>
      </trkpt>
      <trkpt lat="49.600919522345066070556640625" lon="11.03958397172391414642333984375">
        <ele>287</ele>
        <time>2018-08-17T09:09:13.000Z</time>
      </trkpt>
      <trkpt lat="49.60096118040382862091064453125" lon="11.03955178521573543548583984375">
        <ele>287.399993896484375</ele>
        <time>2018-08-17T09:09:15.000Z</time>
      </trkpt>
      <trkpt lat="49.6012103743851184844970703125" lon="11.03949244134128093719482421875">
        <ele>287.600006103515625</ele>
        <time>2018-08-17T09:09:28.000Z</time>
      </trkpt>
      <trkpt lat="49.60116670466959476470947265625" lon="11.03950149379670619964599609375">
        <ele>287.79998779296875</ele>
        <time>2018-08-17T09:09:42.000Z</time>
      </trkpt>
      <trkpt lat="49.60116636939346790313720703125" lon="11.0395020805299282073974609375">
        <ele>287.79998779296875</ele>
        <time>2018-08-17T09:09:43.000Z</time>
      </trkpt>
      <trkpt lat="49.6011067740619182586669921875" lon="11.039408035576343536376953125">
        <ele>289.79998779296875</ele>
        <time>2018-08-17T09:35:08.000Z</time>
      </trkpt>
      <trkpt lat="49.600944332778453826904296875" lon="11.03937878273427486419677734375">
        <ele>289.600006103515625</ele>
        <time>2018-08-17T09:35:17.000Z</time>
      </trkpt>
      <trkpt lat="49.60085280239582061767578125" lon="11.0395979695022106170654296875">
        <ele>289.399993896484375</ele>
        <time>2018-08-17T09:35:28.000Z</time>
      </trkpt>
      <trkpt lat="49.600876607000827789306640625" lon="11.0398484207689762115478515625">
        <ele>289.20001220703125</ele>
        <time>2018-08-17T09:35:37.000Z</time>
      </trkpt>
      <trkpt lat="49.601020105183124542236328125" lon="11.04049575515091419219970703125">
        <ele>289.20001220703125</ele>
        <time>2018-08-17T09:35:49.000Z</time>
      </trkpt>
      <trkpt lat="49.60131187923252582550048828125" lon="11.0412324406206607818603515625">
        <ele>289.600006103515625</ele>
        <time>2018-08-17T09:36:00.000Z</time>
      </trkpt>
      <trkpt lat="49.601409696042537689208984375" lon="11.0414909385144710540771484375">
        <ele>290</ele>
        <time>2018-08-17T09:36:04.000Z</time>
      </trkpt>
      <trkpt lat="49.60164807736873626708984375" lon="11.04201891459524631500244140625">
        <ele>290.20001220703125</ele>
        <time>2018-08-17T09:36:12.000Z</time>
      </trkpt>
      <trkpt lat="49.6019302122294902801513671875" lon="11.04263029061257839202880859375">
        <ele>291.20001220703125</ele>
        <time>2018-08-17T09:36:22.000Z</time>
      </trkpt>
      <trkpt lat="49.6022524125874042510986328125" lon="11.04319606907665729522705078125">
        <ele>292.399993896484375</ele>
        <time>2018-08-17T09:36:32.000Z</time>
      </trkpt>
      <trkpt lat="49.602484591305255889892578125" lon="11.04356110095977783203125">
        <ele>293.399993896484375</ele>
        <time>2018-08-17T09:36:39.000Z</time>
      </trkpt>
      <trkpt lat="49.60265918634831905364990234375" lon="11.043778024613857269287109375">
        <ele>294.399993896484375</ele>
        <time>2018-08-17T09:36:44.000Z</time>
      </trkpt>
      <trkpt lat="49.602836631238460540771484375" lon="11.0440745763480663299560546875">
        <ele>295.399993896484375</ele>
        <time>2018-08-17T09:36:50.000Z</time>
      </trkpt>
      <trkpt lat="49.602972753345966339111328125" lon="11.04432125575840473175048828125">
        <ele>296.399993896484375</ele>
        <time>2018-08-17T09:36:55.000Z</time>
      </trkpt>
      <trkpt lat="49.6031224541366100311279296875" lon="11.044509597122669219970703125">
        <ele>297.20001220703125</ele>
        <time>2018-08-17T09:37:00.000Z</time>
      </trkpt>
      <trkpt lat="49.60324055515229701995849609375" lon="11.04461613111197948455810546875">
        <ele>297.399993896484375</ele>
        <time>2018-08-17T09:37:03.000Z</time>
      </trkpt>
      <trkpt lat="49.6032760106027126312255859375" lon="11.0446586273610591888427734375">
        <ele>297.600006103515625</ele>
        <time>2018-08-17T09:37:04.000Z</time>
      </trkpt>
      <trkpt lat="49.60354213602840900421142578125" lon="11.04504193179309368133544921875">
        <ele>298.600006103515625</ele>
        <time>2018-08-17T09:37:11.000Z</time>
      </trkpt>
      <trkpt lat="49.6038040705025196075439453125" lon="11.04548969306051731109619140625">
        <ele>299.20001220703125</ele>
        <time>2018-08-17T09:37:18.000Z</time>
      </trkpt>
      <trkpt lat="49.6039044857025146484375" lon="11.04568415321409702301025390625">
        <ele>299.399993896484375</ele>
        <time>2018-08-17T09:37:21.000Z</time>
      </trkpt>
      <trkpt lat="49.6039753966033458709716796875" lon="11.0458074510097503662109375">
        <ele>299.399993896484375</ele>
        <time>2018-08-17T09:37:23.000Z</time>
      </trkpt>
      <trkpt lat="49.6040800027549266815185546875" lon="11.0459893383085727691650390625">
        <ele>299.600006103515625</ele>
        <time>2018-08-17T09:37:26.000Z</time>
      </trkpt>
      <trkpt lat="49.6044762991368770599365234375" lon="11.0465522669255733489990234375">
        <ele>300.600006103515625</ele>
        <time>2018-08-17T09:37:37.000Z</time>
      </trkpt>
      <trkpt lat="49.6047086454927921295166015625" lon="11.04688259772956371307373046875">
        <ele>301.20001220703125</ele>
        <time>2018-08-17T09:37:44.000Z</time>
      </trkpt>
      <trkpt lat="49.6048052050173282623291015625" lon="11.04703682474792003631591796875">
        <ele>301.79998779296875</ele>
        <time>2018-08-17T09:37:47.000Z</time>
      </trkpt>
      <trkpt lat="49.60497326217591762542724609375" lon="11.04731024242937564849853515625">
        <ele>302.79998779296875</ele>
        <time>2018-08-17T09:37:52.000Z</time>
      </trkpt>
      <trkpt lat="49.60518549196422100067138671875" lon="11.04765071533620357513427734375">
        <ele>304.20001220703125</ele>
        <time>2018-08-17T09:37:58.000Z</time>
      </trkpt>
      <trkpt lat="49.6053346060216426849365234375" lon="11.04788574390113353729248046875">
        <ele>305</ele>
        <time>2018-08-17T09:38:02.000Z</time>
      </trkpt>
      <trkpt lat="49.6057392843067646026611328125" lon="11.04854791425168514251708984375">
        <ele>306.20001220703125</ele>
        <time>2018-08-17T09:38:12.000Z</time>
      </trkpt>
      <trkpt lat="49.6058217622339725494384765625" lon="11.0486775822937488555908203125">
        <ele>306.20001220703125</ele>
        <time>2018-08-17T09:38:14.000Z</time>
      </trkpt>
      <trkpt lat="49.60622887127101421356201171875" lon="11.04932449758052825927734375">
        <ele>306.600006103515625</ele>
        <time>2018-08-17T09:38:24.000Z</time>
      </trkpt>
      <trkpt lat="49.606421403586864471435546875" lon="11.04967318475246429443359375">
        <ele>306.79998779296875</ele>
        <time>2018-08-17T09:38:29.000Z</time>
      </trkpt>
      <trkpt lat="49.60651586763560771942138671875" lon="11.05018389411270618438720703125">
        <ele>307.20001220703125</ele>
        <time>2018-08-17T09:38:35.000Z</time>
      </trkpt>
      <trkpt lat="49.60651695728302001953125" lon="11.05027190409600734710693359375">
        <ele>307.399993896484375</ele>
        <time>2018-08-17T09:38:36.000Z</time>
      </trkpt>
      <trkpt lat="49.60649876855313777923583984375" lon="11.0506178252398967742919921875">
        <ele>307.600006103515625</ele>
        <time>2018-08-17T09:38:40.000Z</time>
      </trkpt>
      <trkpt lat="49.6064832620322704315185546875" lon="11.0512950830161571502685546875">
        <ele>308.399993896484375</ele>
        <time>2018-08-17T09:38:48.000Z</time>
      </trkpt>
      <trkpt lat="49.606595747172832489013671875" lon="11.05195767246186733245849609375">
        <ele>309.399993896484375</ele>
        <time>2018-08-17T09:38:56.000Z</time>
      </trkpt>
      <trkpt lat="49.60676581598818302154541015625" lon="11.0526014864444732666015625">
        <ele>310.600006103515625</ele>
        <time>2018-08-17T09:39:04.000Z</time>
      </trkpt>
      <trkpt lat="49.60693110711872577667236328125" lon="11.05314270593225955963134765625">
        <ele>311.20001220703125</ele>
        <time>2018-08-17T09:39:11.000Z</time>
      </trkpt>
      <trkpt lat="49.60701844654977321624755859375" lon="11.05334990657866001129150390625">
        <ele>311.600006103515625</ele>
        <time>2018-08-17T09:39:14.000Z</time>
      </trkpt>
      <trkpt lat="49.6070525608956813812255859375" lon="11.0534133575856685638427734375">
        <ele>311.600006103515625</ele>
        <time>2018-08-17T09:39:15.000Z</time>
      </trkpt>
      <trkpt lat="49.60722464136779308319091796875" lon="11.05361510999500751495361328125">
        <ele>312.20001220703125</ele>
        <time>2018-08-17T09:39:19.000Z</time>
      </trkpt>
      <trkpt lat="49.60727158002555370330810546875" lon="11.0536493919789791107177734375">
        <ele>312.399993896484375</ele>
        <time>2018-08-17T09:39:20.000Z</time>
      </trkpt>
      <trkpt lat="49.60742555558681488037109375" lon="11.05370781384408473968505859375">
        <ele>312.600006103515625</ele>
        <time>2018-08-17T09:39:23.000Z</time>
      </trkpt>
      <trkpt lat="49.60747760720551013946533203125" lon="11.05371661484241485595703125">
        <ele>312.79998779296875</ele>
        <time>2018-08-17T09:39:24.000Z</time>
      </trkpt>
      <trkpt lat="49.607831574976444244384765625" lon="11.0537593625485897064208984375">
        <ele>313.600006103515625</ele>
        <time>2018-08-17T09:39:31.000Z</time>
      </trkpt>
      <trkpt lat="49.6081705391407012939453125" lon="11.0537687502801418304443359375">
        <ele>314.79998779296875</ele>
        <time>2018-08-17T09:39:38.000Z</time>
      </trkpt>
      <trkpt lat="49.60838318802416324615478515625" lon="11.0537556745111942291259765625">
        <ele>315.79998779296875</ele>
        <time>2018-08-17T09:39:42.000Z</time>
      </trkpt>
      <trkpt lat="49.60859692655503749847412109375" lon="11.05389741249382495880126953125">
        <ele>316.79998779296875</ele>
        <time>2018-08-17T09:39:46.000Z</time>
      </trkpt>
      <trkpt lat="49.60872231982648372650146484375" lon="11.05415339581668376922607421875">
        <ele>317</ele>
        <time>2018-08-17T09:39:49.000Z</time>
      </trkpt>
      <trkpt lat="49.60906228981912136077880859375" lon="11.0548744909465312957763671875">
        <ele>317</ele>
        <time>2018-08-17T09:39:56.000Z</time>
      </trkpt>
      <trkpt lat="49.60939756594598293304443359375" lon="11.05535452254116535186767578125">
        <ele>315.79998779296875</ele>
        <time>2018-08-17T09:40:01.000Z</time>
      </trkpt>
      <trkpt lat="49.6096767671406269073486328125" lon="11.05570010840892791748046875">
        <ele>314.600006103515625</ele>
        <time>2018-08-17T09:40:05.000Z</time>
      </trkpt>
      <trkpt lat="49.60973585955798625946044921875" lon="11.055800355970859527587890625">
        <ele>314.20001220703125</ele>
        <time>2018-08-17T09:40:06.000Z</time>
      </trkpt>
      <trkpt lat="49.60991305299103260040283203125" lon="11.0562467761337757110595703125">
        <ele>313.600006103515625</ele>
        <time>2018-08-17T09:40:10.000Z</time>
      </trkpt>
      <trkpt lat="49.61026844568550586700439453125" lon="11.0569176636636257171630859375">
        <ele>313.399993896484375</ele>
        <time>2018-08-17T09:40:18.000Z</time>
      </trkpt>
      <trkpt lat="49.61050263606011867523193359375" lon="11.05720893479883670806884765625">
        <ele>313.399993896484375</ele>
        <time>2018-08-17T09:40:23.000Z</time>
      </trkpt>
      <trkpt lat="49.6105920709669589996337890625" lon="11.05727783404290676116943359375">
        <ele>313.600006103515625</ele>
        <time>2018-08-17T09:40:25.000Z</time>
      </trkpt>
      <trkpt lat="49.61079566739499568939208984375" lon="11.0574537701904773712158203125">
        <ele>314</ele>
        <time>2018-08-17T09:40:31.000Z</time>
      </trkpt>
      <trkpt lat="49.61084193550050258636474609375" lon="11.05753214098513126373291015625">
        <ele>314.79998779296875</ele>
        <time>2018-08-17T09:40:35.000Z</time>
      </trkpt>
      <trkpt lat="49.610839001834392547607421875" lon="11.05753700248897075653076171875">
        <ele>315</ele>
        <time>2018-08-17T09:40:36.000Z</time>
      </trkpt>
      <trkpt lat="49.61086146533489227294921875" lon="11.05760087259113788604736328125">
        <ele>315.79998779296875</ele>
        <time>2018-08-17T09:41:40.000Z</time>
      </trkpt>
      <trkpt lat="49.61092877201735973358154296875" lon="11.057690642774105072021484375">
        <ele>315.79998779296875</ele>
        <time>2018-08-17T09:41:44.000Z</time>
      </trkpt>
      <trkpt lat="49.6111556701362133026123046875" lon="11.0582721792161464691162109375">
        <ele>316.79998779296875</ele>
        <time>2018-08-17T09:41:57.000Z</time>
      </trkpt>
      <trkpt lat="49.61125214584171772003173828125" lon="11.0584877617657184600830078125">
        <ele>318</ele>
        <time>2018-08-17T09:42:02.000Z</time>
      </trkpt>
      <trkpt lat="49.61133847944438457489013671875" lon="11.0586419887840747833251953125">
        <ele>319.20001220703125</ele>
        <time>2018-08-17T09:42:06.000Z</time>
      </trkpt>
      <trkpt lat="49.61142749525606632232666015625" lon="11.05879210866987705230712890625">
        <ele>320.20001220703125</ele>
        <time>2018-08-17T09:42:10.000Z</time>
      </trkpt>
      <trkpt lat="49.61151835508644580841064453125" lon="11.05895019136369228363037109375">
        <ele>321.399993896484375</ele>
        <time>2018-08-17T09:42:14.000Z</time>
      </trkpt>
      <trkpt lat="49.61161357350647449493408203125" lon="11.059108860790729522705078125">
        <ele>322.600006103515625</ele>
        <time>2018-08-17T09:42:18.000Z</time>
      </trkpt>
      <trkpt lat="49.611681886017322540283203125" lon="11.05922989547252655029296875">
        <ele>323.600006103515625</ele>
        <time>2018-08-17T09:42:21.000Z</time>
      </trkpt>
      <trkpt lat="49.61177098564803600311279296875" lon="11.059388816356658935546875">
        <ele>324.79998779296875</ele>
        <time>2018-08-17T09:42:25.000Z</time>
      </trkpt>
      <trkpt lat="49.61184273473918437957763671875" lon="11.05949970893561840057373046875">
        <ele>325.79998779296875</ele>
        <time>2018-08-17T09:42:28.000Z</time>
      </trkpt>
      <trkpt lat="49.61194750852882862091064453125" lon="11.05963817797601222991943359375">
        <ele>327</ele>
        <time>2018-08-17T09:42:32.000Z</time>
      </trkpt>
      <trkpt lat="49.61199981160461902618408203125" lon="11.0597078315913677215576171875">
        <ele>328</ele>
        <time>2018-08-17T09:42:34.000Z</time>
      </trkpt>
      <trkpt lat="49.6120999753475189208984375" lon="11.05986264534294605255126953125">
        <ele>329.20001220703125</ele>
        <time>2018-08-17T09:42:38.000Z</time>
      </trkpt>
      <trkpt lat="49.61222025565803050994873046875" lon="11.06001469306647777557373046875">
        <ele>330.399993896484375</ele>
        <time>2018-08-17T09:42:42.000Z</time>
      </trkpt>
      <trkpt lat="49.61237280629575252532958984375" lon="11.0602037049829959869384765625">
        <ele>331.600006103515625</ele>
        <time>2018-08-17T09:42:47.000Z</time>
      </trkpt>
      <trkpt lat="49.61254723370075225830078125" lon="11.06039355508983135223388671875">
        <ele>332.79998779296875</ele>
        <time>2018-08-17T09:42:52.000Z</time>
      </trkpt>
      <trkpt lat="49.61262493394315242767333984375" lon="11.06046882458031177520751953125">
        <ele>333</ele>
        <time>2018-08-17T09:42:54.000Z</time>
      </trkpt>
      <trkpt lat="49.61286063306033611297607421875" lon="11.0607357881963253021240234375">
        <ele>333.79998779296875</ele>
        <time>2018-08-17T09:43:00.000Z</time>
      </trkpt>
      <trkpt lat="49.61290086619555950164794921875" lon="11.0607944615185260772705078125">
        <ele>333.79998779296875</ele>
        <time>2018-08-17T09:43:01.000Z</time>
      </trkpt>
      <trkpt lat="49.6130655705928802490234375" lon="11.06112864799797534942626953125">
        <ele>333.79998779296875</ele>
        <time>2018-08-17T09:43:05.000Z</time>
      </trkpt>
      <trkpt lat="49.61328458972275257110595703125" lon="11.06136132963001728057861328125">
        <ele>333.79998779296875</ele>
        <time>2018-08-17T09:43:09.000Z</time>
      </trkpt>
      <trkpt lat="49.61338919587433338165283203125" lon="11.0614680312573909759521484375">
        <ele>333.399993896484375</ele>
        <time>2018-08-17T09:43:11.000Z</time>
      </trkpt>
      <trkpt lat="49.61348072625696659088134765625" lon="11.06155746616423130035400390625">
        <ele>332.600006103515625</ele>
        <time>2018-08-17T09:43:13.000Z</time>
      </trkpt>
      <trkpt lat="49.61363981477916240692138671875" lon="11.06171387247741222381591796875">
        <ele>332</ele>
        <time>2018-08-17T09:43:17.000Z</time>
      </trkpt>
      <trkpt lat="49.6138308383524417877197265625" lon="11.06203171424567699432373046875">
        <ele>331.79998779296875</ele>
        <time>2018-08-17T09:43:21.000Z</time>
      </trkpt>
      <trkpt lat="49.6140360273420810699462890625" lon="11.06232709251344203948974609375">
        <ele>331.600006103515625</ele>
        <time>2018-08-17T09:43:24.000Z</time>
      </trkpt>
      <trkpt lat="49.61413183249533176422119140625" lon="11.06239833869040012359619140625">
        <ele>331.399993896484375</ele>
        <time>2018-08-17T09:43:25.000Z</time>
      </trkpt>
      <trkpt lat="49.6143404580652713775634765625" lon="11.06250084936618804931640625">
        <ele>330.20001220703125</ele>
        <time>2018-08-17T09:43:27.000Z</time>
      </trkpt>
      <trkpt lat="49.61454690434038639068603515625" lon="11.06259338557720184326171875">
        <ele>329.20001220703125</ele>
        <time>2018-08-17T09:43:29.000Z</time>
      </trkpt>
      <trkpt lat="49.61472292430698871612548828125" lon="11.0626555792987346649169921875">
        <ele>327.79998779296875</ele>
        <time>2018-08-17T09:43:31.000Z</time>
      </trkpt>
      <trkpt lat="49.61485602892935276031494140625" lon="11.06258257292211055755615234375">
        <ele>326.20001220703125</ele>
        <time>2018-08-17T09:43:33.000Z</time>
      </trkpt>
      <trkpt lat="49.61491486988961696624755859375" lon="11.06240085326135158538818359375">
        <ele>324.600006103515625</ele>
        <time>2018-08-17T09:43:35.000Z</time>
      </trkpt>
      <trkpt lat="49.61493297480046749114990234375" lon="11.06231502257287502288818359375">
        <ele>323.600006103515625</ele>
        <time>2018-08-17T09:43:36.000Z</time>
      </trkpt>
      <trkpt lat="49.61495895870029926300048828125" lon="11.0622458718717098236083984375">
        <ele>323</ele>
        <time>2018-08-17T09:43:37.000Z</time>
      </trkpt>
      <trkpt lat="49.61511335335671901702880859375" lon="11.0622213967144489288330078125">
        <ele>322.399993896484375</ele>
        <time>2018-08-17T09:43:41.000Z</time>
      </trkpt>
      <trkpt lat="49.61538844741880893707275390625" lon="11.0624570958316326141357421875">
        <ele>324.20001220703125</ele>
        <time>2018-08-17T09:43:52.000Z</time>
      </trkpt>
      <trkpt lat="49.61546086706221103668212890625" lon="11.0625202953815460205078125">
        <ele>326</ele>
        <time>2018-08-17T09:43:55.000Z</time>
      </trkpt>
      <trkpt lat="49.61552909575402736663818359375" lon="11.06257595121860504150390625">
        <ele>327.20001220703125</ele>
        <time>2018-08-17T09:43:58.000Z</time>
      </trkpt>
      <trkpt lat="49.615591876208782196044921875" lon="11.06263521127402782440185546875">
        <ele>328.399993896484375</ele>
        <time>2018-08-17T09:44:01.000Z</time>
      </trkpt>
      <trkpt lat="49.615628756582736968994140625" lon="11.062680222094058990478515625">
        <ele>329.20001220703125</ele>
        <time>2018-08-17T09:44:03.000Z</time>
      </trkpt>
      <trkpt lat="49.6156406588852405548095703125" lon="11.062711067497730255126953125">
        <ele>329.600006103515625</ele>
        <time>2018-08-17T09:44:04.000Z</time>
      </trkpt>
      <trkpt lat="49.6156741864979267120361328125" lon="11.06281324289739131927490234375">
        <ele>330.79998779296875</ele>
        <time>2018-08-17T09:44:07.000Z</time>
      </trkpt>
      <trkpt lat="49.6157062053680419921875" lon="11.0629050247371196746826171875">
        <ele>331.79998779296875</ele>
        <time>2018-08-17T09:44:10.000Z</time>
      </trkpt>
      <trkpt lat="49.6157276630401611328125" lon="11.06292053125798702239990234375">
        <ele>332</ele>
        <time>2018-08-17T09:44:11.000Z</time>
      </trkpt>
      <trkpt lat="49.61582715623080730438232421875" lon="11.06294081546366214752197265625">
        <ele>333.399993896484375</ele>
        <time>2018-08-17T09:44:15.000Z</time>
      </trkpt>
      <trkpt lat="49.6159209497272968292236328125" lon="11.06291214935481548309326171875">
        <ele>334.600006103515625</ele>
        <time>2018-08-17T09:44:19.000Z</time>
      </trkpt>
      <trkpt lat="49.61600904352962970733642578125" lon="11.062874011695384979248046875">
        <ele>335.600006103515625</ele>
        <time>2018-08-17T09:44:23.000Z</time>
      </trkpt>
      <trkpt lat="49.6160993166267871856689453125" lon="11.06283587403595447540283203125">
        <ele>336.79998779296875</ele>
        <time>2018-08-17T09:44:28.000Z</time>
      </trkpt>
      <trkpt lat="49.61620316840708255767822265625" lon="11.06277300976216793060302734375">
        <ele>338.20001220703125</ele>
        <time>2018-08-17T09:44:33.000Z</time>
      </trkpt>
      <trkpt lat="49.616285227239131927490234375" lon="11.0627142526209354400634765625">
        <ele>339.399993896484375</ele>
        <time>2018-08-17T09:44:37.000Z</time>
      </trkpt>
      <trkpt lat="49.61637047119438648223876953125" lon="11.06266454793512821197509765625">
        <ele>340.600006103515625</ele>
        <time>2018-08-17T09:44:41.000Z</time>
      </trkpt>
      <trkpt lat="49.61646568961441516876220703125" lon="11.06258894316852092742919921875">
        <ele>341.600006103515625</ele>
        <time>2018-08-17T09:44:46.000Z</time>
      </trkpt>
      <trkpt lat="49.61655152030289173126220703125" lon="11.0625352151691913604736328125">
        <ele>342.79998779296875</ele>
        <time>2018-08-17T09:44:50.000Z</time>
      </trkpt>
      <trkpt lat="49.6166200004518032073974609375" lon="11.06250009499490261077880859375">
        <ele>343.79998779296875</ele>
        <time>2018-08-17T09:44:53.000Z</time>
      </trkpt>
      <trkpt lat="49.616700969636440277099609375" lon="11.062457263469696044921875">
        <ele>345</ele>
        <time>2018-08-17T09:44:56.000Z</time>
      </trkpt>
      <trkpt lat="49.6168154664337635040283203125" lon="11.0624155215919017791748046875">
        <ele>346</ele>
        <time>2018-08-17T09:45:00.000Z</time>
      </trkpt>
      <trkpt lat="49.6170003712177276611328125" lon="11.06242247857153415679931640625">
        <ele>347.20001220703125</ele>
        <time>2018-08-17T09:45:06.000Z</time>
      </trkpt>
      <trkpt lat="49.617176391184329986572265625" lon="11.062477715313434600830078125">
        <ele>348.20001220703125</ele>
        <time>2018-08-17T09:45:12.000Z</time>
      </trkpt>
      <trkpt lat="49.61728661321103572845458984375" lon="11.062556169927120208740234375">
        <ele>349.399993896484375</ele>
        <time>2018-08-17T09:45:16.000Z</time>
      </trkpt>
      <trkpt lat="49.61739021353423595428466796875" lon="11.0626490414142608642578125">
        <ele>350.399993896484375</ele>
        <time>2018-08-17T09:45:20.000Z</time>
      </trkpt>
      <trkpt lat="49.61751661263406276702880859375" lon="11.06276177801191806793212890625">
        <ele>351.600006103515625</ele>
        <time>2018-08-17T09:45:25.000Z</time>
      </trkpt>
      <trkpt lat="49.6176124177873134613037109375" lon="11.06285833753645420074462890625">
        <ele>352.399993896484375</ele>
        <time>2018-08-17T09:45:29.000Z</time>
      </trkpt>
      <trkpt lat="49.61762691847980022430419921875" lon="11.06289253570139408111572265625">
        <ele>352.600006103515625</ele>
        <time>2018-08-17T09:45:30.000Z</time>
      </trkpt>
      <trkpt lat="49.617661200463771820068359375" lon="11.06302228756248950958251953125">
        <ele>353.600006103515625</ele>
        <time>2018-08-17T09:45:34.000Z</time>
      </trkpt>
      <trkpt lat="49.61765357293188571929931640625" lon="11.06322613544762134552001953125">
        <ele>354.79998779296875</ele>
        <time>2018-08-17T09:45:39.000Z</time>
      </trkpt>
      <trkpt lat="49.6176736056804656982421875" lon="11.06335152871906757354736328125">
        <ele>355.79998779296875</ele>
        <time>2018-08-17T09:45:42.000Z</time>
      </trkpt>
      <trkpt lat="49.6177471987903118133544921875" lon="11.06346585787832736968994140625">
        <ele>356.79998779296875</ele>
        <time>2018-08-17T09:45:46.000Z</time>
      </trkpt>
      <trkpt lat="49.61774845607578754425048828125" lon="11.0635108686983585357666015625">
        <ele>357</ele>
        <time>2018-08-17T09:45:47.000Z</time>
      </trkpt>
      <trkpt lat="49.61770403198897838592529296875" lon="11.06378017924726009368896484375">
        <ele>357.79998779296875</ele>
        <time>2018-08-17T09:45:52.000Z</time>
      </trkpt>
      <trkpt lat="49.617579393088817596435546875" lon="11.0643120110034942626953125">
        <ele>358.600006103515625</ele>
        <time>2018-08-17T09:46:05.000Z</time>
      </trkpt>
      <trkpt lat="49.61757930926978588104248046875" lon="11.06436439789831638336181640625">
        <ele>358.399993896484375</ele>
        <time>2018-08-17T09:46:14.000Z</time>
      </trkpt>
      <trkpt lat="49.61774895898997783660888671875" lon="11.0645502246916294097900390625">
        <ele>358.20001220703125</ele>
        <time>2018-08-17T09:46:21.000Z</time>
      </trkpt>
      <trkpt lat="49.61819537915289402008056640625" lon="11.06502556242048740386962890625">
        <ele>358.79998779296875</ele>
        <time>2018-08-17T09:46:34.000Z</time>
      </trkpt>
      <trkpt lat="49.618236534297466278076171875" lon="11.06506210751831531524658203125">
        <ele>359</ele>
        <time>2018-08-17T09:46:35.000Z</time>
      </trkpt>
      <trkpt lat="49.618321023881435394287109375" lon="11.0651131533086299896240234375">
        <ele>360</ele>
        <time>2018-08-17T09:46:37.000Z</time>
      </trkpt>
      <trkpt lat="49.61847960948944091796875" lon="11.06510460376739501953125">
        <ele>360.600006103515625</ele>
        <time>2018-08-17T09:46:41.000Z</time>
      </trkpt>
      <trkpt lat="49.61858597584068775177001953125" lon="11.06505137868225574493408203125">
        <ele>361.20001220703125</ele>
        <time>2018-08-17T09:46:44.000Z</time>
      </trkpt>
      <trkpt lat="49.61872159503400325775146484375" lon="11.0649599321186542510986328125">
        <ele>362.399993896484375</ele>
        <time>2018-08-17T09:46:48.000Z</time>
      </trkpt>
      <trkpt lat="49.618830643594264984130859375" lon="11.06490687467157840728759765625">
        <ele>363.399993896484375</ele>
        <time>2018-08-17T09:46:51.000Z</time>
      </trkpt>
      <trkpt lat="49.61897070519626140594482421875" lon="11.06488441117107868194580078125">
        <ele>364.600006103515625</ele>
        <time>2018-08-17T09:46:55.000Z</time>
      </trkpt>
      <trkpt lat="49.6191339008510112762451171875" lon="11.0649139992892742156982421875">
        <ele>365.79998779296875</ele>
        <time>2018-08-17T09:47:00.000Z</time>
      </trkpt>
      <trkpt lat="49.6192539297044277191162109375" lon="11.0649812221527099609375">
        <ele>366.79998779296875</ele>
        <time>2018-08-17T09:47:04.000Z</time>
      </trkpt>
      <trkpt lat="49.6193457953631877899169921875" lon="11.06503293849527835845947265625">
        <ele>368</ele>
        <time>2018-08-17T09:47:07.000Z</time>
      </trkpt>
      <trkpt lat="49.61946875788271427154541015625" lon="11.06509597040712833404541015625">
        <ele>369</ele>
        <time>2018-08-17T09:47:11.000Z</time>
      </trkpt>
      <trkpt lat="49.619604460895061492919921875" lon="11.06513469479978084564208984375">
        <ele>370.20001220703125</ele>
        <time>2018-08-17T09:47:15.000Z</time>
      </trkpt>
      <trkpt lat="49.6197484619915485382080078125" lon="11.06517224572598934173583984375">
        <ele>371.20001220703125</ele>
        <time>2018-08-17T09:47:19.000Z</time>
      </trkpt>
      <trkpt lat="49.61993495933711528778076171875" lon="11.0652060247957706451416015625">
        <ele>372.399993896484375</ele>
        <time>2018-08-17T09:47:24.000Z</time>
      </trkpt>
      <trkpt lat="49.62011776864528656005859375" lon="11.065233014523983001708984375">
        <ele>373.399993896484375</ele>
        <time>2018-08-17T09:47:29.000Z</time>
      </trkpt>
      <trkpt lat="49.6202909387648105621337890625" lon="11.06526075862348079681396484375">
        <ele>374.600006103515625</ele>
        <time>2018-08-17T09:47:34.000Z</time>
      </trkpt>
      <trkpt lat="49.6204247139394283294677734375" lon="11.065285988152027130126953125">
        <ele>375.600006103515625</ele>
        <time>2018-08-17T09:47:38.000Z</time>
      </trkpt>
      <trkpt lat="49.6205497719347476959228515625" lon="11.06531222350895404815673828125">
        <ele>376.600006103515625</ele>
        <time>2018-08-17T09:47:42.000Z</time>
      </trkpt>
      <trkpt lat="49.62061221711337566375732421875" lon="11.0653243772685527801513671875">
        <ele>377.399993896484375</ele>
        <time>2018-08-17T09:47:44.000Z</time>
      </trkpt>
      <trkpt lat="49.620682708919048309326171875" lon="11.065343655645847320556640625">
        <ele>377.79998779296875</ele>
        <time>2018-08-17T09:47:46.000Z</time>
      </trkpt>
      <trkpt lat="49.62078438140451908111572265625" lon="11.0653739981353282928466796875">
        <ele>378.79998779296875</ele>
        <time>2018-08-17T09:47:49.000Z</time>
      </trkpt>
      <trkpt lat="49.62091597728431224822998046875" lon="11.06540593318641185760498046875">
        <ele>380</ele>
        <time>2018-08-17T09:47:53.000Z</time>
      </trkpt>
      <trkpt lat="49.62106098420917987823486328125" lon="11.065437532961368560791015625">
        <ele>381.20001220703125</ele>
        <time>2018-08-17T09:47:57.000Z</time>
      </trkpt>
      <trkpt lat="49.6212545223534107208251953125" lon="11.06549092568457126617431640625">
        <ele>382.399993896484375</ele>
        <time>2018-08-17T09:48:02.000Z</time>
      </trkpt>
      <trkpt lat="49.621462561190128326416015625" lon="11.06554188765585422515869140625">
        <ele>383.399993896484375</ele>
        <time>2018-08-17T09:48:07.000Z</time>
      </trkpt>
      <trkpt lat="49.62154981680214405059814453125" lon="11.0655610822141170501708984375">
        <ele>384.600006103515625</ele>
        <time>2018-08-17T09:48:09.000Z</time>
      </trkpt>
      <trkpt lat="49.621789455413818359375" lon="11.0655842162668704986572265625">
        <ele>385.79998779296875</ele>
        <time>2018-08-17T09:48:14.000Z</time>
      </trkpt>
      <trkpt lat="49.622328914701938629150390625" lon="11.06549478136003017425537109375">
        <ele>385.79998779296875</ele>
        <time>2018-08-17T09:48:22.000Z</time>
      </trkpt>
      <trkpt lat="49.6229557134211063385009765625" lon="11.06536670587956905364990234375">
        <ele>385</ele>
        <time>2018-08-17T09:48:28.000Z</time>
      </trkpt>
      <trkpt lat="49.62308152578771114349365234375" lon="11.06536201201379299163818359375">
        <ele>384.399993896484375</ele>
        <time>2018-08-17T09:48:29.000Z</time>
      </trkpt>
      <trkpt lat="49.62347966618835926055908203125" lon="11.0653579048812389373779296875">
        <ele>382.20001220703125</ele>
        <time>2018-08-17T09:48:32.000Z</time>
      </trkpt>
      <trkpt lat="49.62375459261238574981689453125" lon="11.06533862650394439697265625">
        <ele>380.20001220703125</ele>
        <time>2018-08-17T09:48:34.000Z</time>
      </trkpt>
      <trkpt lat="49.6240326203405857086181640625" lon="11.06530333869159221649169921875">
        <ele>378.600006103515625</ele>
        <time>2018-08-17T09:48:36.000Z</time>
      </trkpt>
      <trkpt lat="49.62431031279265880584716796875" lon="11.06525237672030925750732421875">
        <ele>376.79998779296875</ele>
        <time>2018-08-17T09:48:38.000Z</time>
      </trkpt>
      <trkpt lat="49.62444827891886234283447265625" lon="11.0652266442775726318359375">
        <ele>375.79998779296875</ele>
        <time>2018-08-17T09:48:39.000Z</time>
      </trkpt>
      <trkpt lat="49.6247242949903011322021484375" lon="11.0651815496385097503662109375">
        <ele>374</ele>
        <time>2018-08-17T09:48:41.000Z</time>
      </trkpt>
      <trkpt lat="49.6249987185001373291015625" lon="11.0651530511677265167236328125">
        <ele>372.20001220703125</ele>
        <time>2018-08-17T09:48:43.000Z</time>
      </trkpt>
      <trkpt lat="49.62513542734086513519287109375" lon="11.065157242119312286376953125">
        <ele>371.20001220703125</ele>
        <time>2018-08-17T09:48:44.000Z</time>
      </trkpt>
      <trkpt lat="49.62540465407073497772216796875" lon="11.06519152410328388214111328125">
        <ele>369.399993896484375</ele>
        <time>2018-08-17T09:48:46.000Z</time>
      </trkpt>
      <trkpt lat="49.6256694383919239044189453125" lon="11.06522588990628719329833984375">
        <ele>368.20001220703125</ele>
        <time>2018-08-17T09:48:48.000Z</time>
      </trkpt>
      <trkpt lat="49.6259299479424953460693359375" lon="11.06525254435837268829345703125">
        <ele>366.600006103515625</ele>
        <time>2018-08-17T09:48:50.000Z</time>
      </trkpt>
      <trkpt lat="49.62618232704699039459228515625" lon="11.06527735479176044464111328125">
        <ele>365.399993896484375</ele>
        <time>2018-08-17T09:48:52.000Z</time>
      </trkpt>
      <trkpt lat="49.6265569142997264862060546875" lon="11.06528230011463165283203125">
        <ele>364</ele>
        <time>2018-08-17T09:48:55.000Z</time>
      </trkpt>
      <trkpt lat="49.62680518627166748046875" lon="11.065236032009124755859375">
        <ele>362.79998779296875</ele>
        <time>2018-08-17T09:48:57.000Z</time>
      </trkpt>
      <trkpt lat="49.62692814879119396209716796875" lon="11.065200828015804290771484375">
        <ele>361.600006103515625</ele>
        <time>2018-08-17T09:48:58.000Z</time>
      </trkpt>
      <trkpt lat="49.62729879654943943023681640625" lon="11.0650695674121379852294921875">
        <ele>360.20001220703125</ele>
        <time>2018-08-17T09:49:01.000Z</time>
      </trkpt>
      <trkpt lat="49.6275526843965053558349609375" lon="11.06498331762850284576416015625">
        <ele>359</ele>
        <time>2018-08-17T09:49:03.000Z</time>
      </trkpt>
      <trkpt lat="49.6278095059096813201904296875" lon="11.06490352191030979156494140625">
        <ele>357.600006103515625</ele>
        <time>2018-08-17T09:49:05.000Z</time>
      </trkpt>
      <trkpt lat="49.6280680038034915924072265625" lon="11.06483177281916141510009765625">
        <ele>356.20001220703125</ele>
        <time>2018-08-17T09:49:07.000Z</time>
      </trkpt>
      <trkpt lat="49.62833262048661708831787109375" lon="11.0647792182862758636474609375">
        <ele>354.79998779296875</ele>
        <time>2018-08-17T09:49:09.000Z</time>
      </trkpt>
      <trkpt lat="49.6286004222929477691650390625" lon="11.0647393204271793365478515625">
        <ele>353.20001220703125</ele>
        <time>2018-08-17T09:49:11.000Z</time>
      </trkpt>
      <trkpt lat="49.6288622729480266571044921875" lon="11.0646964050829410552978515625">
        <ele>352</ele>
        <time>2018-08-17T09:49:13.000Z</time>
      </trkpt>
      <trkpt lat="49.62911616079509258270263671875" lon="11.06465910561382770538330078125">
        <ele>350.600006103515625</ele>
        <time>2018-08-17T09:49:15.000Z</time>
      </trkpt>
      <trkpt lat="49.62935973890125751495361328125" lon="11.0646258294582366943359375">
        <ele>349.600006103515625</ele>
        <time>2018-08-17T09:49:17.000Z</time>
      </trkpt>
      <trkpt lat="49.6294718049466609954833984375" lon="11.0646202974021434783935546875">
        <ele>349</ele>
        <time>2018-08-17T09:49:18.000Z</time>
      </trkpt>
      <trkpt lat="49.6296706236898899078369140625" lon="11.06470939703285694122314453125">
        <ele>348.20001220703125</ele>
        <time>2018-08-17T09:49:20.000Z</time>
      </trkpt>
      <trkpt lat="49.62983247824013233184814453125" lon="11.06495398096740245819091796875">
        <ele>347</ele>
        <time>2018-08-17T09:49:22.000Z</time>
      </trkpt>
      <trkpt lat="49.62990037165582180023193359375" lon="11.0650947131216526031494140625">
        <ele>346.79998779296875</ele>
        <time>2018-08-17T09:49:23.000Z</time>
      </trkpt>
      <trkpt lat="49.63002190925180912017822265625" lon="11.0653686337172985076904296875">
        <ele>345.79998779296875</ele>
        <time>2018-08-17T09:49:25.000Z</time>
      </trkpt>
      <trkpt lat="49.630100615322589874267578125" lon="11.06580859981477260589599609375">
        <ele>344.399993896484375</ele>
        <time>2018-08-17T09:49:28.000Z</time>
      </trkpt>
      <trkpt lat="49.6301631443202495574951171875" lon="11.06613750569522380828857421875">
        <ele>342.600006103515625</ele>
        <time>2018-08-17T09:49:30.000Z</time>
      </trkpt>
      <trkpt lat="49.630323909223079681396484375" lon="11.06636633165180683135986328125">
        <ele>340.600006103515625</ele>
        <time>2018-08-17T09:49:32.000Z</time>
      </trkpt>
      <trkpt lat="49.6304347179830074310302734375" lon="11.066416203975677490234375">
        <ele>339.399993896484375</ele>
        <time>2018-08-17T09:49:33.000Z</time>
      </trkpt>
      <trkpt lat="49.6305591054260730743408203125" lon="11.06645098887383937835693359375">
        <ele>338.399993896484375</ele>
        <time>2018-08-17T09:49:34.000Z</time>
      </trkpt>
      <trkpt lat="49.63069162331521511077880859375" lon="11.06648904271423816680908203125">
        <ele>337.20001220703125</ele>
        <time>2018-08-17T09:49:35.000Z</time>
      </trkpt>
      <trkpt lat="49.63096420280635356903076171875" lon="11.0665682516992092132568359375">
        <ele>335.399993896484375</ele>
        <time>2018-08-17T09:49:37.000Z</time>
      </trkpt>
      <trkpt lat="49.6311005763709545135498046875" lon="11.0666120052337646484375">
        <ele>334.399993896484375</ele>
        <time>2018-08-17T09:49:38.000Z</time>
      </trkpt>
      <trkpt lat="49.63123619556427001953125" lon="11.06665533967316150665283203125">
        <ele>333</ele>
        <time>2018-08-17T09:49:39.000Z</time>
      </trkpt>
      <trkpt lat="49.63136938400566577911376953125" lon="11.0666996799409389495849609375">
        <ele>331.79998779296875</ele>
        <time>2018-08-17T09:49:40.000Z</time>
      </trkpt>
      <trkpt lat="49.63150282390415668487548828125" lon="11.066741757094860076904296875">
        <ele>330.600006103515625</ele>
        <time>2018-08-17T09:49:41.000Z</time>
      </trkpt>
      <trkpt lat="49.6316376887261867523193359375" lon="11.0667742788791656494140625">
        <ele>329.20001220703125</ele>
        <time>2018-08-17T09:49:42.000Z</time>
      </trkpt>
      <trkpt lat="49.6317731402814388275146484375" lon="11.066792048513889312744140625">
        <ele>327.79998779296875</ele>
        <time>2018-08-17T09:49:43.000Z</time>
      </trkpt>
      <trkpt lat="49.63190875947475433349609375" lon="11.0667979158461093902587890625">
        <ele>326.600006103515625</ele>
        <time>2018-08-17T09:49:44.000Z</time>
      </trkpt>
      <trkpt lat="49.63204286992549896240234375" lon="11.0667984187602996826171875">
        <ele>325.399993896484375</ele>
        <time>2018-08-17T09:49:45.000Z</time>
      </trkpt>
      <trkpt lat="49.63230698369443416595458984375" lon="11.0668005980551242828369140625">
        <ele>323.79998779296875</ele>
        <time>2018-08-17T09:49:47.000Z</time>
      </trkpt>
      <trkpt lat="49.63256564922630786895751953125" lon="11.06684292666614055633544921875">
        <ele>322.399993896484375</ele>
        <time>2018-08-17T09:49:49.000Z</time>
      </trkpt>
      <trkpt lat="49.63269221596419811248779296875" lon="11.06688902713358402252197265625">
        <ele>322</ele>
        <time>2018-08-17T09:49:50.000Z</time>
      </trkpt>
      <trkpt lat="49.6328161843121051788330078125" lon="11.0669534839689731597900390625">
        <ele>321.20001220703125</ele>
        <time>2018-08-17T09:49:51.000Z</time>
      </trkpt>
      <trkpt lat="49.63293579407036304473876953125" lon="11.0670356266200542449951171875">
        <ele>319.79998779296875</ele>
        <time>2018-08-17T09:49:52.000Z</time>
      </trkpt>
      <trkpt lat="49.63316344656050205230712890625" lon="11.0672307573258876800537109375">
        <ele>318.79998779296875</ele>
        <time>2018-08-17T09:49:54.000Z</time>
      </trkpt>
      <trkpt lat="49.63359410874545574188232421875" lon="11.067651696503162384033203125">
        <ele>317</ele>
        <time>2018-08-17T09:49:58.000Z</time>
      </trkpt>
      <trkpt lat="49.63380181230604648590087890625" lon="11.06785713694989681243896484375">
        <ele>315.79998779296875</ele>
        <time>2018-08-17T09:50:00.000Z</time>
      </trkpt>
      <trkpt lat="49.63400616310536861419677734375" lon="11.06805897317826747894287109375">
        <ele>314.399993896484375</ele>
        <time>2018-08-17T09:50:02.000Z</time>
      </trkpt>
      <trkpt lat="49.634212441742420196533203125" lon="11.068236418068408966064453125">
        <ele>313.399993896484375</ele>
        <time>2018-08-17T09:50:04.000Z</time>
      </trkpt>
      <trkpt lat="49.6345314569771289825439453125" lon="11.06844839639961719512939453125">
        <ele>312</ele>
        <time>2018-08-17T09:50:07.000Z</time>
      </trkpt>
      <trkpt lat="49.63486949913203716278076171875" lon="11.0685604624450206756591796875">
        <ele>310.79998779296875</ele>
        <time>2018-08-17T09:50:10.000Z</time>
      </trkpt>
      <trkpt lat="49.6353227086365222930908203125" lon="11.06859843246638774871826171875">
        <ele>309.600006103515625</ele>
        <time>2018-08-17T09:50:14.000Z</time>
      </trkpt>
      <trkpt lat="49.635882787406444549560546875" lon="11.068715862929821014404296875">
        <ele>308.20001220703125</ele>
        <time>2018-08-17T09:50:19.000Z</time>
      </trkpt>
      <trkpt lat="49.6361971087753772735595703125" lon="11.0689079761505126953125">
        <ele>307.20001220703125</ele>
        <time>2018-08-17T09:50:22.000Z</time>
      </trkpt>
      <trkpt lat="49.63629593141376972198486328125" lon="11.06898869387805461883544921875">
        <ele>306.79998779296875</ele>
        <time>2018-08-17T09:50:23.000Z</time>
      </trkpt>
      <trkpt lat="49.63658384978771209716796875" lon="11.0692407377064228057861328125">
        <ele>306</ele>
        <time>2018-08-17T09:50:26.000Z</time>
      </trkpt>
      <trkpt lat="49.63688199408352375030517578125" lon="11.069429330527782440185546875">
        <ele>305</ele>
        <time>2018-08-17T09:50:29.000Z</time>
      </trkpt>
      <trkpt lat="49.63719128631055355072021484375" lon="11.0695344395935535430908203125">
        <ele>304</ele>
        <time>2018-08-17T09:50:32.000Z</time>
      </trkpt>
      <trkpt lat="49.6377021633088588714599609375" lon="11.0696048475801944732666015625">
        <ele>303</ele>
        <time>2018-08-17T09:50:37.000Z</time>
      </trkpt>
      <trkpt lat="49.63821974582970142364501953125" lon="11.0695367865264415740966796875">
        <ele>301.79998779296875</ele>
        <time>2018-08-17T09:50:42.000Z</time>
      </trkpt>
      <trkpt lat="49.6386444568634033203125" lon="11.06955011375248432159423828125">
        <ele>300.600006103515625</ele>
        <time>2018-08-17T09:50:46.000Z</time>
      </trkpt>
      <trkpt lat="49.63907034136354923248291015625" lon="11.06961616314947605133056640625">
        <ele>299.399993896484375</ele>
        <time>2018-08-17T09:50:50.000Z</time>
      </trkpt>
      <trkpt lat="49.63949630968272686004638671875" lon="11.06968573294579982757568359375">
        <ele>298.20001220703125</ele>
        <time>2018-08-17T09:50:54.000Z</time>
      </trkpt>
      <trkpt lat="49.6399029158055782318115234375" lon="11.06973216868937015533447265625">
        <ele>297</ele>
        <time>2018-08-17T09:50:58.000Z</time>
      </trkpt>
      <trkpt lat="49.640172980725765228271484375" lon="11.06978346593677997589111328125">
        <ele>296.399993896484375</ele>
        <time>2018-08-17T09:51:01.000Z</time>
      </trkpt>
      <trkpt lat="49.64028504677116870880126953125" lon="11.0699151456356048583984375">
        <ele>296</ele>
        <time>2018-08-17T09:51:03.000Z</time>
      </trkpt>
      <trkpt lat="49.6403582207858562469482421875" lon="11.07002302072942256927490234375">
        <ele>295.399993896484375</ele>
        <time>2018-08-17T09:51:07.000Z</time>
      </trkpt>
      <trkpt lat="49.6403639204800128936767578125" lon="11.0698278062045574188232421875">
        <ele>295</ele>
        <time>2018-08-17T09:51:13.000Z</time>
      </trkpt>
      <trkpt lat="49.64058059267699718475341796875" lon="11.06975312344729900360107421875">
        <ele>294.79998779296875</ele>
        <time>2018-08-17T09:51:19.000Z</time>
      </trkpt>
      <trkpt lat="49.64062568731606006622314453125" lon="11.06975999660789966583251953125">
        <ele>294.79998779296875</ele>
        <time>2018-08-17T09:51:20.000Z</time>
      </trkpt>
      <trkpt lat="49.64077270589768886566162109375" lon="11.0697748325765132904052734375">
        <ele>294.79998779296875</ele>
        <time>2018-08-17T09:51:23.000Z</time>
      </trkpt>
      <trkpt lat="49.64098812080919742584228515625" lon="11.0697845555841922760009765625">
        <ele>294.600006103515625</ele>
        <time>2018-08-17T09:51:27.000Z</time>
      </trkpt>
      <trkpt lat="49.6410946547985076904296875" lon="11.0698147304356098175048828125">
        <ele>294.600006103515625</ele>
        <time>2018-08-17T09:51:29.000Z</time>
      </trkpt>
      <trkpt lat="49.64119900949299335479736328125" lon="11.0700920037925243377685546875">
        <ele>294.600006103515625</ele>
        <time>2018-08-17T09:51:33.000Z</time>
      </trkpt>
      <trkpt lat="49.64126841165125370025634765625" lon="11.0705520026385784149169921875">
        <ele>294.399993896484375</ele>
        <time>2018-08-17T09:51:39.000Z</time>
      </trkpt>
      <trkpt lat="49.6414596028625965118408203125" lon="11.0707069002091884613037109375">
        <ele>294.399993896484375</ele>
        <time>2018-08-17T09:51:45.000Z</time>
      </trkpt>
      <trkpt lat="49.64183025062084197998046875" lon="11.07067882083356380462646484375">
        <ele>294.600006103515625</ele>
        <time>2018-08-17T09:51:52.000Z</time>
      </trkpt>
      <trkpt lat="49.6420040912926197052001953125" lon="11.0709573514759540557861328125">
        <ele>294.600006103515625</ele>
        <time>2018-08-17T09:51:57.000Z</time>
      </trkpt>
      <trkpt lat="49.64204591698944568634033203125" lon="11.0710730217397212982177734375">
        <ele>294.600006103515625</ele>
        <time>2018-08-17T09:51:59.000Z</time>
      </trkpt>
      <trkpt lat="49.6421080268919467926025390625" lon="11.07123420573770999908447265625">
        <ele>294.600006103515625</ele>
        <time>2018-08-17T09:52:02.000Z</time>
      </trkpt>
      <trkpt lat="49.6422599069774150848388671875" lon="11.0720369406044483184814453125">
        <ele>295.600006103515625</ele>
        <time>2018-08-17T09:52:13.000Z</time>
      </trkpt>
      <trkpt lat="49.64230676181614398956298828125" lon="11.072356291115283966064453125">
        <ele>296.20001220703125</ele>
        <time>2018-08-17T09:52:17.000Z</time>
      </trkpt>
      <trkpt lat="49.6424349211156368255615234375" lon="11.07302575372159481048583984375">
        <ele>297</ele>
        <time>2018-08-17T09:52:25.000Z</time>
      </trkpt>
      <trkpt lat="49.6424557082355022430419921875" lon="11.0731068067252635955810546875">
        <ele>297.20001220703125</ele>
        <time>2018-08-17T09:52:26.000Z</time>
      </trkpt>
      <trkpt lat="49.64257590472698211669921875" lon="11.07350737787783145904541015625">
        <ele>297.79998779296875</ele>
        <time>2018-08-17T09:52:31.000Z</time>
      </trkpt>
      <trkpt lat="49.64269517920911312103271484375" lon="11.07381097041070461273193359375">
        <ele>298.399993896484375</ele>
        <time>2018-08-17T09:52:35.000Z</time>
      </trkpt>
      <trkpt lat="49.643052332103252410888671875" lon="11.0745096020400524139404296875">
        <ele>299.20001220703125</ele>
        <time>2018-08-17T09:52:45.000Z</time>
      </trkpt>
      <trkpt lat="49.64313405565917491912841796875" lon="11.0746363364160060882568359375">
        <ele>299.399993896484375</ele>
        <time>2018-08-17T09:52:47.000Z</time>
      </trkpt>
      <trkpt lat="49.643482156097888946533203125" lon="11.0751114226877689361572265625">
        <ele>300.600006103515625</ele>
        <time>2018-08-17T09:52:55.000Z</time>
      </trkpt>
      <trkpt lat="49.64368726126849651336669921875" lon="11.075412333011627197265625">
        <ele>301.79998779296875</ele>
        <time>2018-08-17T09:53:00.000Z</time>
      </trkpt>
      <trkpt lat="49.6440328471362590789794921875" lon="11.07610962353646755218505859375">
        <ele>302.79998779296875</ele>
        <time>2018-08-17T09:53:10.000Z</time>
      </trkpt>
      <trkpt lat="49.6443490125238895416259765625" lon="11.07687103562057018280029296875">
        <ele>303.600006103515625</ele>
        <time>2018-08-17T09:53:20.000Z</time>
      </trkpt>
      <trkpt lat="49.64440776966512203216552734375" lon="11.07702660374343395233154296875">
        <ele>303.79998779296875</ele>
        <time>2018-08-17T09:53:22.000Z</time>
      </trkpt>
      <trkpt lat="49.6445863880217075347900390625" lon="11.0774895362555980682373046875">
        <ele>305</ele>
        <time>2018-08-17T09:53:28.000Z</time>
      </trkpt>
      <trkpt lat="49.64483843185007572174072265625" lon="11.0781495273113250732421875">
        <ele>306.399993896484375</ele>
        <time>2018-08-17T09:53:37.000Z</time>
      </trkpt>
      <trkpt lat="49.6450225822627544403076171875" lon="11.0786402039229869842529296875">
        <ele>307.399993896484375</ele>
        <time>2018-08-17T09:53:44.000Z</time>
      </trkpt>
      <trkpt lat="49.64518032968044281005859375" lon="11.07904848642647266387939453125">
        <ele>308.600006103515625</ele>
        <time>2018-08-17T09:53:51.000Z</time>
      </trkpt>
      <trkpt lat="49.645275212824344635009765625" lon="11.0792545974254608154296875">
        <ele>309.79998779296875</ele>
        <time>2018-08-17T09:53:55.000Z</time>
      </trkpt>
      <trkpt lat="49.6453754603862762451171875" lon="11.0794391669332981109619140625">
        <ele>311</ele>
        <time>2018-08-17T09:53:59.000Z</time>
      </trkpt>
      <trkpt lat="49.6454934775829315185546875" lon="11.07959917746484279632568359375">
        <ele>312.20001220703125</ele>
        <time>2018-08-17T09:54:03.000Z</time>
      </trkpt>
      <trkpt lat="49.64562348090112209320068359375" lon="11.0797311924397945404052734375">
        <ele>313.399993896484375</ele>
        <time>2018-08-17T09:54:07.000Z</time>
      </trkpt>
      <trkpt lat="49.64576848782598972320556640625" lon="11.0798270814120769500732421875">
        <ele>314.79998779296875</ele>
        <time>2018-08-17T09:54:11.000Z</time>
      </trkpt>
      <trkpt lat="49.64587979950010776519775390625" lon="11.07989690266549587249755859375">
        <ele>315.79998779296875</ele>
        <time>2018-08-17T09:54:14.000Z</time>
      </trkpt>
      <trkpt lat="49.64607275091111660003662109375" lon="11.0799890197813510894775390625">
        <ele>317.399993896484375</ele>
        <time>2018-08-17T09:54:19.000Z</time>
      </trkpt>
      <trkpt lat="49.64623301289975643157958984375" lon="11.08006395399570465087890625">
        <ele>318.399993896484375</ele>
        <time>2018-08-17T09:54:23.000Z</time>
      </trkpt>
      <trkpt lat="49.6464081108570098876953125" lon="11.08015271835029125213623046875">
        <ele>319.600006103515625</ele>
        <time>2018-08-17T09:54:27.000Z</time>
      </trkpt>
      <trkpt lat="49.6467398665845394134521484375" lon="11.08040283434092998504638671875">
        <ele>320.600006103515625</ele>
        <time>2018-08-17T09:54:35.000Z</time>
      </trkpt>
      <trkpt lat="49.64693239890038967132568359375" lon="11.08064507134258747100830078125">
        <ele>321.600006103515625</ele>
        <time>2018-08-17T09:54:40.000Z</time>
      </trkpt>
      <trkpt lat="49.64700884185731410980224609375" lon="11.080746911466121673583984375">
        <ele>322.600006103515625</ele>
        <time>2018-08-17T09:54:42.000Z</time>
      </trkpt>
      <trkpt lat="49.64725208468735218048095703125" lon="11.08101421035826206207275390625">
        <ele>323.79998779296875</ele>
        <time>2018-08-17T09:54:48.000Z</time>
      </trkpt>
      <trkpt lat="49.64739491231739521026611328125" lon="11.08109752647578716278076171875">
        <ele>323.79998779296875</ele>
        <time>2018-08-17T09:54:51.000Z</time>
      </trkpt>
      <trkpt lat="49.64792288839817047119140625" lon="11.0811750590801239013671875">
        <ele>324.79998779296875</ele>
        <time>2018-08-17T09:55:01.000Z</time>
      </trkpt>
      <trkpt lat="49.64803126640617847442626953125" lon="11.0811862908303737640380859375">
        <ele>325.399993896484375</ele>
        <time>2018-08-17T09:55:03.000Z</time>
      </trkpt>
      <trkpt lat="49.64813369326293468475341796875" lon="11.08119123615324497222900390625">
        <ele>325.79998779296875</ele>
        <time>2018-08-17T09:55:05.000Z</time>
      </trkpt>
      <trkpt lat="49.6487035788595676422119140625" lon="11.0811554454267024993896484375">
        <ele>326.600006103515625</ele>
        <time>2018-08-17T09:55:16.000Z</time>
      </trkpt>
      <trkpt lat="49.6488676965236663818359375" lon="11.08114480040967464447021484375">
        <ele>327</ele>
        <time>2018-08-17T09:55:19.000Z</time>
      </trkpt>
      <trkpt lat="49.6491592191159725189208984375" lon="11.0811534337699413299560546875">
        <ele>328</ele>
        <time>2018-08-17T09:55:24.000Z</time>
      </trkpt>
      <trkpt lat="49.64970680885016918182373046875" lon="11.08130321837961673736572265625">
        <ele>328.600006103515625</ele>
        <time>2018-08-17T09:55:33.000Z</time>
      </trkpt>
      <trkpt lat="49.6500800549983978271484375" lon="11.081513352692127227783203125">
        <ele>329</ele>
        <time>2018-08-17T09:55:39.000Z</time>
      </trkpt>
      <trkpt lat="49.65060434304177761077880859375" lon="11.08195130713284015655517578125">
        <ele>329</ele>
        <time>2018-08-17T09:55:47.000Z</time>
      </trkpt>
      <trkpt lat="49.65102016925811767578125" lon="11.08251842670142650604248046875">
        <ele>328.79998779296875</ele>
        <time>2018-08-17T09:55:54.000Z</time>
      </trkpt>
      <trkpt lat="49.6513294614851474761962890625" lon="11.0832690261304378509521484375">
        <ele>328</ele>
        <time>2018-08-17T09:56:01.000Z</time>
      </trkpt>
      <trkpt lat="49.65139023028314113616943359375" lon="11.0835094191133975982666015625">
        <ele>328</ele>
        <time>2018-08-17T09:56:03.000Z</time>
      </trkpt>
      <trkpt lat="49.65156943537294864654541015625" lon="11.08421911485493183135986328125">
        <ele>326.79998779296875</ele>
        <time>2018-08-17T09:56:09.000Z</time>
      </trkpt>
      <trkpt lat="49.651815779507160186767578125" lon="11.08499519526958465576171875">
        <ele>326.399993896484375</ele>
        <time>2018-08-17T09:56:16.000Z</time>
      </trkpt>
      <trkpt lat="49.652071259915828704833984375" lon="11.0856313817203044891357421875">
        <ele>325.79998779296875</ele>
        <time>2018-08-17T09:56:22.000Z</time>
      </trkpt>
      <trkpt lat="49.65245255269110202789306640625" lon="11.086276955902576446533203125">
        <ele>325.79998779296875</ele>
        <time>2018-08-17T09:56:29.000Z</time>
      </trkpt>
      <trkpt lat="49.6529086120426654815673828125" lon="11.086750030517578125">
        <ele>326</ele>
        <time>2018-08-17T09:56:36.000Z</time>
      </trkpt>
      <trkpt lat="49.65339166112244129180908203125" lon="11.087219417095184326171875">
        <ele>326.20001220703125</ele>
        <time>2018-08-17T09:56:43.000Z</time>
      </trkpt>
      <trkpt lat="49.65391695499420166015625" lon="11.08761244453489780426025390625">
        <ele>326</ele>
        <time>2018-08-17T09:56:49.000Z</time>
      </trkpt>
      <trkpt lat="49.6543295122683048248291015625" lon="11.0878401808440685272216796875">
        <ele>324.600006103515625</ele>
        <time>2018-08-17T09:56:53.000Z</time>
      </trkpt>
      <trkpt lat="49.65466051362454891204833984375" lon="11.0879950784146785736083984375">
        <ele>323.20001220703125</ele>
        <time>2018-08-17T09:56:56.000Z</time>
      </trkpt>
      <trkpt lat="49.65488095767796039581298828125" lon="11.08812223188579082489013671875">
        <ele>322.20001220703125</ele>
        <time>2018-08-17T09:56:58.000Z</time>
      </trkpt>
      <trkpt lat="49.6550999768078327178955078125" lon="11.0882676579058170318603515625">
        <ele>320.79998779296875</ele>
        <time>2018-08-17T09:57:00.000Z</time>
      </trkpt>
      <trkpt lat="49.65541622601449489593505859375" lon="11.08852858655154705047607421875">
        <ele>319.600006103515625</ele>
        <time>2018-08-17T09:57:03.000Z</time>
      </trkpt>
      <trkpt lat="49.65551060624420642852783203125" lon="11.0886367969214916229248046875">
        <ele>318.79998779296875</ele>
        <time>2018-08-17T09:57:04.000Z</time>
      </trkpt>
      <trkpt lat="49.65559861622750759124755859375" lon="11.08875640667974948883056640625">
        <ele>318.399993896484375</ele>
        <time>2018-08-17T09:57:05.000Z</time>
      </trkpt>
      <trkpt lat="49.65574714355170726776123046875" lon="11.089013479650020599365234375">
        <ele>316.600006103515625</ele>
        <time>2018-08-17T09:57:07.000Z</time>
      </trkpt>
      <trkpt lat="49.655813276767730712890625" lon="11.08914616517722606658935546875">
        <ele>315.79998779296875</ele>
        <time>2018-08-17T09:57:08.000Z</time>
      </trkpt>
      <trkpt lat="49.65587790124118328094482421875" lon="11.0892754979431629180908203125">
        <ele>315.20001220703125</ele>
        <time>2018-08-17T09:57:09.000Z</time>
      </trkpt>
      <trkpt lat="49.65600765310227870941162109375" lon="11.08951798640191555023193359375">
        <ele>314.20001220703125</ele>
        <time>2018-08-17T09:57:11.000Z</time>
      </trkpt>
      <trkpt lat="49.6562214754521846771240234375" lon="11.0898441262543201446533203125">
        <ele>312.600006103515625</ele>
        <time>2018-08-17T09:57:14.000Z</time>
      </trkpt>
      <trkpt lat="49.65662824921309947967529296875" lon="11.09030060470104217529296875">
        <ele>311.600006103515625</ele>
        <time>2018-08-17T09:57:19.000Z</time>
      </trkpt>
      <trkpt lat="49.65712730772793292999267578125" lon="11.090813241899013519287109375">
        <ele>310.79998779296875</ele>
        <time>2018-08-17T09:57:25.000Z</time>
      </trkpt>
      <trkpt lat="49.65753315947949886322021484375" lon="11.0912616737186908721923828125">
        <ele>309.399993896484375</ele>
        <time>2018-08-17T09:57:30.000Z</time>
      </trkpt>
      <trkpt lat="49.6578452177345752716064453125" lon="11.09162720851600170135498046875">
        <ele>308.399993896484375</ele>
        <time>2018-08-17T09:57:34.000Z</time>
      </trkpt>
      <trkpt lat="49.658192060887813568115234375" lon="11.09210983850061893463134765625">
        <ele>307.20001220703125</ele>
        <time>2018-08-17T09:57:39.000Z</time>
      </trkpt>
      <trkpt lat="49.6584554202854633331298828125" lon="11.09245182015001773834228515625">
        <ele>306.20001220703125</ele>
        <time>2018-08-17T09:57:43.000Z</time>
      </trkpt>
      <trkpt lat="49.65867184102535247802734375" lon="11.09265265055000782012939453125">
        <ele>305.20001220703125</ele>
        <time>2018-08-17T09:57:51.000Z</time>
      </trkpt>
      <trkpt lat="49.65868349187076091766357421875" lon="11.09267327003180980682373046875">
        <ele>305</ele>
        <time>2018-08-17T09:57:53.000Z</time>
      </trkpt>
      <trkpt lat="49.65885951183736324310302734375" lon="11.092669665813446044921875">
        <ele>304</ele>
        <time>2018-08-17T09:57:58.000Z</time>
      </trkpt>
      <trkpt lat="49.658964537084102630615234375" lon="11.0926611162722110748291015625">
        <ele>303.79998779296875</ele>
        <time>2018-08-17T09:58:00.000Z</time>
      </trkpt>
      <trkpt lat="49.6594129689037799835205078125" lon="11.09266891144216060638427734375">
        <ele>303.600006103515625</ele>
        <time>2018-08-17T09:58:07.000Z</time>
      </trkpt>
      <trkpt lat="49.65977230109274387359619140625" lon="11.09249004162847995758056640625">
        <ele>303.20001220703125</ele>
        <time>2018-08-17T09:58:12.000Z</time>
      </trkpt>
      <trkpt lat="49.65996508486568927764892578125" lon="11.0923107527196407318115234375">
        <ele>303</ele>
        <time>2018-08-17T09:58:15.000Z</time>
      </trkpt>
      <trkpt lat="49.6604352258145809173583984375" lon="11.09195443801581859588623046875">
        <ele>302</ele>
        <time>2018-08-17T09:58:22.000Z</time>
      </trkpt>
      <trkpt lat="49.66100812889635562896728515625" lon="11.0915969498455524444580078125">
        <ele>301.399993896484375</ele>
        <time>2018-08-17T09:58:29.000Z</time>
      </trkpt>
      <trkpt lat="49.6611825563013553619384765625" lon="11.09149209223687648773193359375">
        <ele>300.600006103515625</ele>
        <time>2018-08-17T09:58:31.000Z</time>
      </trkpt>
      <trkpt lat="49.66153468005359172821044921875" lon="11.091290004551410675048828125">
        <ele>299.399993896484375</ele>
        <time>2018-08-17T09:58:35.000Z</time>
      </trkpt>
      <trkpt lat="49.661885462701320648193359375" lon="11.0911341011524200439453125">
        <ele>298.20001220703125</ele>
        <time>2018-08-17T09:58:39.000Z</time>
      </trkpt>
      <trkpt lat="49.662423245608806610107421875" lon="11.0909431613981723785400390625">
        <ele>297.20001220703125</ele>
        <time>2018-08-17T09:58:45.000Z</time>
      </trkpt>
      <trkpt lat="49.66297435574233531951904296875" lon="11.09083436429500579833984375">
        <ele>296.20001220703125</ele>
        <time>2018-08-17T09:58:51.000Z</time>
      </trkpt>
      <trkpt lat="49.663066305220127105712890625" lon="11.0908382199704647064208984375">
        <ele>296</ele>
        <time>2018-08-17T09:58:52.000Z</time>
      </trkpt>
      <trkpt lat="49.66361104510724544525146484375" lon="11.09093486331403255462646484375">
        <ele>295.399993896484375</ele>
        <time>2018-08-17T09:58:58.000Z</time>
      </trkpt>
      <trkpt lat="49.66422359459102153778076171875" lon="11.09109227545559406280517578125">
        <ele>295</ele>
        <time>2018-08-17T09:59:05.000Z</time>
      </trkpt>
      <trkpt lat="49.66439642943441867828369140625" lon="11.09111993573606014251708984375">
        <ele>295</ele>
        <time>2018-08-17T09:59:07.000Z</time>
      </trkpt>
      <trkpt lat="49.6649931371212005615234375" lon="11.0911014117300510406494140625">
        <ele>295</ele>
        <time>2018-08-17T09:59:14.000Z</time>
      </trkpt>
      <trkpt lat="49.6655723266303539276123046875" lon="11.090939305722713470458984375">
        <ele>295.20001220703125</ele>
        <time>2018-08-17T09:59:21.000Z</time>
      </trkpt>
      <trkpt lat="49.66615277342498302459716796875" lon="11.09084618277847766876220703125">
        <ele>295.399993896484375</ele>
        <time>2018-08-17T09:59:28.000Z</time>
      </trkpt>
      <trkpt lat="49.66670447029173374176025390625" lon="11.09098934568464756011962890625">
        <ele>295.600006103515625</ele>
        <time>2018-08-17T09:59:35.000Z</time>
      </trkpt>
      <trkpt lat="49.66709791682660579681396484375" lon="11.091163270175457000732421875">
        <ele>296</ele>
        <time>2018-08-17T09:59:41.000Z</time>
      </trkpt>
      <trkpt lat="49.66738474555313587188720703125" lon="11.091245748102664947509765625">
        <ele>297.20001220703125</ele>
        <time>2018-08-17T09:59:46.000Z</time>
      </trkpt>
      <trkpt lat="49.667539894580841064453125" lon="11.0912744142115116119384765625">
        <ele>298</ele>
        <time>2018-08-17T09:59:49.000Z</time>
      </trkpt>
      <trkpt lat="49.6676409803330898284912109375" lon="11.0912868194282054901123046875">
        <ele>298.399993896484375</ele>
        <time>2018-08-17T09:59:51.000Z</time>
      </trkpt>
      <trkpt lat="49.66788833029568195343017578125" lon="11.0912690497934818267822265625">
        <ele>300</ele>
        <time>2018-08-17T09:59:56.000Z</time>
      </trkpt>
      <trkpt lat="49.66804037801921367645263671875" lon="11.0914229415357112884521484375">
        <ele>301.20001220703125</ele>
        <time>2018-08-17T10:00:01.000Z</time>
      </trkpt>
      <trkpt lat="49.668078683316707611083984375" lon="11.0914856381714344024658203125">
        <ele>301.399993896484375</ele>
        <time>2018-08-17T10:00:03.000Z</time>
      </trkpt>
      <trkpt lat="49.66815621592104434967041015625" lon="11.0916060023009777069091796875">
        <ele>302.20001220703125</ele>
        <time>2018-08-17T10:00:07.000Z</time>
      </trkpt>
      <trkpt lat="49.6682159788906574249267578125" lon="11.0916797630488872528076171875">
        <ele>303.399993896484375</ele>
        <time>2018-08-17T10:00:10.000Z</time>
      </trkpt>
      <trkpt lat="49.66827691532671451568603515625" lon="11.0917686112225055694580078125">
        <ele>304.600006103515625</ele>
        <time>2018-08-17T10:00:13.000Z</time>
      </trkpt>
      <trkpt lat="49.66832578182220458984375" lon="11.0918510891497135162353515625">
        <ele>305.600006103515625</ele>
        <time>2018-08-17T10:00:16.000Z</time>
      </trkpt>
      <trkpt lat="49.66839727945625782012939453125" lon="11.09194488264620304107666015625">
        <ele>307</ele>
        <time>2018-08-17T10:00:20.000Z</time>
      </trkpt>
      <trkpt lat="49.66843868605792522430419921875" lon="11.09199115075170993804931640625">
        <ele>308</ele>
        <time>2018-08-17T10:00:22.000Z</time>
      </trkpt>
      <trkpt lat="49.66850616037845611572265625" lon="11.0920608043670654296875">
        <ele>309.399993896484375</ele>
        <time>2018-08-17T10:00:25.000Z</time>
      </trkpt>
      <trkpt lat="49.66857053339481353759765625" lon="11.09211185015738010406494140625">
        <ele>310.399993896484375</ele>
        <time>2018-08-17T10:00:28.000Z</time>
      </trkpt>
      <trkpt lat="49.6686300449073314666748046875" lon="11.09215945936739444732666015625">
        <ele>311.600006103515625</ele>
        <time>2018-08-17T10:00:31.000Z</time>
      </trkpt>
      <trkpt lat="49.66871763579547405242919921875" lon="11.092233471572399139404296875">
        <ele>313</ele>
        <time>2018-08-17T10:00:35.000Z</time>
      </trkpt>
      <trkpt lat="49.66879072599112987518310546875" lon="11.09229725785553455352783203125">
        <ele>314</ele>
        <time>2018-08-17T10:00:38.000Z</time>
      </trkpt>
      <trkpt lat="49.66888812370598316192626953125" lon="11.0923841781914234161376953125">
        <ele>315.20001220703125</ele>
        <time>2018-08-17T10:00:42.000Z</time>
      </trkpt>
      <trkpt lat="49.668945372104644775390625" lon="11.09245886094868183135986328125">
        <ele>316.399993896484375</ele>
        <time>2018-08-17T10:00:45.000Z</time>
      </trkpt>
      <trkpt lat="49.66904235072433948516845703125" lon="11.0925824940204620361328125">
        <ele>317.79998779296875</ele>
        <time>2018-08-17T10:00:49.000Z</time>
      </trkpt>
      <trkpt lat="49.66922960244119167327880859375" lon="11.092902682721614837646484375">
        <ele>318.79998779296875</ele>
        <time>2018-08-17T10:00:57.000Z</time>
      </trkpt>
      <trkpt lat="49.6693465299904346466064453125" lon="11.093195043504238128662109375">
        <ele>320.399993896484375</ele>
        <time>2018-08-17T10:01:03.000Z</time>
      </trkpt>
      <trkpt lat="49.66940579004585742950439453125" lon="11.09334583394229412078857421875">
        <ele>321.600006103515625</ele>
        <time>2018-08-17T10:01:06.000Z</time>
      </trkpt>
      <trkpt lat="49.66947619803249835968017578125" lon="11.09357826411724090576171875">
        <ele>322.79998779296875</ele>
        <time>2018-08-17T10:01:11.000Z</time>
      </trkpt>
      <trkpt lat="49.6695054508745670318603515625" lon="11.09366535209119319915771484375">
        <ele>323.20001220703125</ele>
        <time>2018-08-17T10:01:13.000Z</time>
      </trkpt>
      <trkpt lat="49.6695688180625438690185546875" lon="11.09386031515896320343017578125">
        <ele>323.79998779296875</ele>
        <time>2018-08-17T10:01:18.000Z</time>
      </trkpt>
      <trkpt lat="49.6696529723703861236572265625" lon="11.0940498299896717071533203125">
        <ele>325</ele>
        <time>2018-08-17T10:01:23.000Z</time>
      </trkpt>
      <trkpt lat="49.669669568538665771484375" lon="11.0940877161920070648193359375">
        <ele>325.20001220703125</ele>
        <time>2018-08-17T10:01:24.000Z</time>
      </trkpt>
      <trkpt lat="49.66971315443515777587890625" lon="11.09419475309550762176513671875">
        <ele>325.79998779296875</ele>
        <time>2018-08-17T10:01:27.000Z</time>
      </trkpt>
      <trkpt lat="49.66972715221345424652099609375" lon="11.0942318849265575408935546875">
        <ele>326</ele>
        <time>2018-08-17T10:01:28.000Z</time>
      </trkpt>
      <trkpt lat="49.66982957907021045684814453125" lon="11.09441603533923625946044921875">
        <ele>327.399993896484375</ele>
        <time>2018-08-17T10:01:33.000Z</time>
      </trkpt>
      <trkpt lat="49.66996134258806705474853515625" lon="11.09458744525909423828125">
        <ele>328.600006103515625</ele>
        <time>2018-08-17T10:01:37.000Z</time>
      </trkpt>
      <trkpt lat="49.67009478248655796051025390625" lon="11.09478886239230632781982421875">
        <ele>329.399993896484375</ele>
        <time>2018-08-17T10:01:41.000Z</time>
      </trkpt>
      <trkpt lat="49.67019955627620220184326171875" lon="11.0950070433318614959716796875">
        <ele>330.600006103515625</ele>
        <time>2018-08-17T10:01:45.000Z</time>
      </trkpt>
      <trkpt lat="49.67031254433095455169677734375" lon="11.09529144130647182464599609375">
        <ele>331.79998779296875</ele>
        <time>2018-08-17T10:01:50.000Z</time>
      </trkpt>
      <trkpt lat="49.67044983990490436553955078125" lon="11.0955796949565410614013671875">
        <ele>333</ele>
        <time>2018-08-17T10:01:55.000Z</time>
      </trkpt>
      <trkpt lat="49.6704863011837005615234375" lon="11.09563409350812435150146484375">
        <ele>333.20001220703125</ele>
        <time>2018-08-17T10:01:56.000Z</time>
      </trkpt>
      <trkpt lat="49.67066776938736438751220703125" lon="11.0958086885511875152587890625">
        <ele>334.20001220703125</ele>
        <time>2018-08-17T10:02:00.000Z</time>
      </trkpt>
      <trkpt lat="49.6707196533679962158203125" lon="11.09584297053515911102294921875">
        <ele>334.399993896484375</ele>
        <time>2018-08-17T10:02:01.000Z</time>
      </trkpt>
      <trkpt lat="49.67110480181872844696044921875" lon="11.09598479233682155609130859375">
        <ele>335.20001220703125</ele>
        <time>2018-08-17T10:02:08.000Z</time>
      </trkpt>
      <trkpt lat="49.67166689224541187286376953125" lon="11.096006669104099273681640625">
        <ele>336.20001220703125</ele>
        <time>2018-08-17T10:02:18.000Z</time>
      </trkpt>
      <trkpt lat="49.67177367769181728363037109375" lon="11.09601379372179508209228515625">
        <ele>336.399993896484375</ele>
        <time>2018-08-17T10:02:20.000Z</time>
      </trkpt>
      <trkpt lat="49.6720911003649234771728515625" lon="11.09604363329708576202392578125">
        <ele>337.399993896484375</ele>
        <time>2018-08-17T10:02:26.000Z</time>
      </trkpt>
      <trkpt lat="49.67230408452451229095458984375" lon="11.09609325416386127471923828125">
        <ele>338.600006103515625</ele>
        <time>2018-08-17T10:02:30.000Z</time>
      </trkpt>
      <trkpt lat="49.67258269898593425750732421875" lon="11.096180342137813568115234375">
        <ele>339.79998779296875</ele>
        <time>2018-08-17T10:02:35.000Z</time>
      </trkpt>
      <trkpt lat="49.67281135730445384979248046875" lon="11.09625971876084804534912109375">
        <ele>340.399993896484375</ele>
        <time>2018-08-17T10:02:39.000Z</time>
      </trkpt>
      <trkpt lat="49.67298553325235843658447265625" lon="11.0963152907788753509521484375">
        <ele>341</ele>
        <time>2018-08-17T10:02:42.000Z</time>
      </trkpt>
      <trkpt lat="49.67339716851711273193359375" lon="11.09633683227002620697021484375">
        <ele>342</ele>
        <time>2018-08-17T10:02:49.000Z</time>
      </trkpt>
      <trkpt lat="49.673878289759159088134765625" lon="11.0962281189858913421630859375">
        <ele>343.20001220703125</ele>
        <time>2018-08-17T10:02:57.000Z</time>
      </trkpt>
      <trkpt lat="49.6744380332529544830322265625" lon="11.09609417617321014404296875">
        <ele>343.600006103515625</ele>
        <time>2018-08-17T10:03:05.000Z</time>
      </trkpt>
      <trkpt lat="49.67475512064993381500244140625" lon="11.09607766382396221160888671875">
        <ele>343.600006103515625</ele>
        <time>2018-08-17T10:03:09.000Z</time>
      </trkpt>
      <trkpt lat="49.67517857439815998077392578125" lon="11.096474044024944305419921875">
        <ele>342.20001220703125</ele>
        <time>2018-08-17T10:03:15.000Z</time>
      </trkpt>
      <trkpt lat="49.67548954300582408905029296875" lon="11.09693630598485469818115234375">
        <ele>341.20001220703125</ele>
        <time>2018-08-17T10:03:20.000Z</time>
      </trkpt>
      <trkpt lat="49.6756272576749324798583984375" lon="11.09708382748067378997802734375">
        <ele>341</ele>
        <time>2018-08-17T10:03:22.000Z</time>
      </trkpt>
      <trkpt lat="49.67593696899712085723876953125" lon="11.09723788686096668243408203125">
        <ele>341</ele>
        <time>2018-08-17T10:03:26.000Z</time>
      </trkpt>
      <trkpt lat="49.6764808706939220428466796875" lon="11.0973271541297435760498046875">
        <ele>341.20001220703125</ele>
        <time>2018-08-17T10:03:33.000Z</time>
      </trkpt>
      <trkpt lat="49.67694447375833988189697265625" lon="11.09738742001354694366455078125">
        <ele>342.20001220703125</ele>
        <time>2018-08-17T10:03:39.000Z</time>
      </trkpt>
      <trkpt lat="49.6775172092020511627197265625" lon="11.0973616875708103179931640625">
        <ele>342.399993896484375</ele>
        <time>2018-08-17T10:03:46.000Z</time>
      </trkpt>
      <trkpt lat="49.67808860354125499725341796875" lon="11.09734718687832355499267578125">
        <ele>342</ele>
        <time>2018-08-17T10:03:53.000Z</time>
      </trkpt>
      <trkpt lat="49.6786326728761196136474609375" lon="11.0973502881824970245361328125">
        <ele>342</ele>
        <time>2018-08-17T10:04:00.000Z</time>
      </trkpt>
      <trkpt lat="49.67918998561799526214599609375" lon="11.09739948995411396026611328125">
        <ele>342</ele>
        <time>2018-08-17T10:04:07.000Z</time>
      </trkpt>
      <trkpt lat="49.67976196669042110443115234375" lon="11.09742052853107452392578125">
        <ele>342.20001220703125</ele>
        <time>2018-08-17T10:04:14.000Z</time>
      </trkpt>
      <trkpt lat="49.68032506294548511505126953125" lon="11.097347438335418701171875">
        <ele>342.20001220703125</ele>
        <time>2018-08-17T10:04:21.000Z</time>
      </trkpt>
      <trkpt lat="49.68093685805797576904296875" lon="11.09730142168700695037841796875">
        <ele>342.399993896484375</ele>
        <time>2018-08-17T10:04:29.000Z</time>
      </trkpt>
      <trkpt lat="49.68131161294877529144287109375" lon="11.0972721688449382781982421875">
        <ele>343.20001220703125</ele>
        <time>2018-08-17T10:04:34.000Z</time>
      </trkpt>
      <trkpt lat="49.68183984048664569854736328125" lon="11.09719111584126949310302734375">
        <ele>344.399993896484375</ele>
        <time>2018-08-17T10:04:41.000Z</time>
      </trkpt>
      <trkpt lat="49.68198585323989391326904296875" lon="11.097143925726413726806640625">
        <ele>344.399993896484375</ele>
        <time>2018-08-17T10:04:43.000Z</time>
      </trkpt>
      <trkpt lat="49.68254744075238704681396484375" lon="11.0968222282826900482177734375">
        <ele>345</ele>
        <time>2018-08-17T10:04:51.000Z</time>
      </trkpt>
      <trkpt lat="49.68276822008192539215087890625" lon="11.09675399959087371826171875">
        <ele>345.20001220703125</ele>
        <time>2018-08-17T10:04:54.000Z</time>
      </trkpt>
      <trkpt lat="49.6833516843616962432861328125" lon="11.09679599292576313018798828125">
        <ele>346.20001220703125</ele>
        <time>2018-08-17T10:05:02.000Z</time>
      </trkpt>
      <trkpt lat="49.68342301435768604278564453125" lon="11.09680940397083759307861328125">
        <ele>346.399993896484375</ele>
        <time>2018-08-17T10:05:03.000Z</time>
      </trkpt>
      <trkpt lat="49.683919809758663177490234375" lon="11.096853576600551605224609375">
        <ele>347.399993896484375</ele>
        <time>2018-08-17T10:05:10.000Z</time>
      </trkpt>
      <trkpt lat="49.6844232268631458282470703125" lon="11.096912920475006103515625">
        <ele>348.399993896484375</ele>
        <time>2018-08-17T10:05:17.000Z</time>
      </trkpt>
      <trkpt lat="49.6850096248090267181396484375" lon="11.09720134176313877105712890625">
        <ele>348.79998779296875</ele>
        <time>2018-08-17T10:05:25.000Z</time>
      </trkpt>
      <trkpt lat="49.68526870943605899810791015625" lon="11.0974904336035251617431640625">
        <ele>348.79998779296875</ele>
        <time>2018-08-17T10:05:29.000Z</time>
      </trkpt>
      <trkpt lat="49.685415811836719512939453125" lon="11.09792386181652545928955078125">
        <ele>348.399993896484375</ele>
        <time>2018-08-17T10:05:33.000Z</time>
      </trkpt>
      <trkpt lat="49.6854852139949798583984375" lon="11.09815453179180622100830078125">
        <ele>348.20001220703125</ele>
        <time>2018-08-17T10:05:35.000Z</time>
      </trkpt>
      <trkpt lat="49.68586633913218975067138671875" lon="11.09835117124021053314208984375">
        <ele>347.79998779296875</ele>
        <time>2018-08-17T10:05:40.000Z</time>
      </trkpt>
      <trkpt lat="49.68602442182600498199462890625" lon="11.09837003052234649658203125">
        <ele>347.399993896484375</ele>
        <time>2018-08-17T10:05:42.000Z</time>
      </trkpt>
      <trkpt lat="49.6861021220684051513671875" lon="11.09836692921817302703857421875">
        <ele>347.20001220703125</ele>
        <time>2018-08-17T10:05:43.000Z</time>
      </trkpt>
      <trkpt lat="49.6861773915588855743408203125" lon="11.09837581403553485870361328125">
        <ele>347</ele>
        <time>2018-08-17T10:05:44.000Z</time>
      </trkpt>
      <trkpt lat="49.68655684031546115875244140625" lon="11.0985069908201694488525390625">
        <ele>346.20001220703125</ele>
        <time>2018-08-17T10:05:49.000Z</time>
      </trkpt>
      <trkpt lat="49.68710727989673614501953125" lon="11.09887504018843173980712890625">
        <ele>345.600006103515625</ele>
        <time>2018-08-17T10:05:56.000Z</time>
      </trkpt>
      <trkpt lat="49.6873501874506473541259765625" lon="11.099089197814464569091796875">
        <ele>345</ele>
        <time>2018-08-17T10:05:59.000Z</time>
      </trkpt>
      <trkpt lat="49.68776685185730457305908203125" lon="11.0994581691920757293701171875">
        <ele>344</ele>
        <time>2018-08-17T10:06:04.000Z</time>
      </trkpt>
      <trkpt lat="49.68794806860387325286865234375" lon="11.099573671817779541015625">
        <ele>342.79998779296875</ele>
        <time>2018-08-17T10:06:06.000Z</time>
      </trkpt>
      <trkpt lat="49.68852885067462921142578125" lon="11.09987349249422550201416015625">
        <ele>341.79998779296875</ele>
        <time>2018-08-17T10:06:12.000Z</time>
      </trkpt>
      <trkpt lat="49.6889085508882999420166015625" lon="11.10005135647952556610107421875">
        <ele>340.79998779296875</ele>
        <time>2018-08-17T10:06:16.000Z</time>
      </trkpt>
      <trkpt lat="49.689169563353061676025390625" lon="11.10021539032459259033203125">
        <ele>339.600006103515625</ele>
        <time>2018-08-17T10:06:19.000Z</time>
      </trkpt>
      <trkpt lat="49.68973207287490367889404296875" lon="11.1005727946758270263671875">
        <ele>338.600006103515625</ele>
        <time>2018-08-17T10:06:26.000Z</time>
      </trkpt>
      <trkpt lat="49.68980801291763782501220703125" lon="11.10062082298099994659423828125">
        <ele>338.600006103515625</ele>
        <time>2018-08-17T10:06:27.000Z</time>
      </trkpt>
      <trkpt lat="49.6901209093630313873291015625" lon="11.10073800198733806610107421875">
        <ele>338</ele>
        <time>2018-08-17T10:06:31.000Z</time>
      </trkpt>
      <trkpt lat="49.6903515793383121490478515625" lon="11.1008016206324100494384765625">
        <ele>337.600006103515625</ele>
        <time>2018-08-17T10:06:34.000Z</time>
      </trkpt>
      <trkpt lat="49.6906734444200992584228515625" lon="11.1008837632834911346435546875">
        <ele>337.399993896484375</ele>
        <time>2018-08-17T10:06:38.000Z</time>
      </trkpt>
      <trkpt lat="49.690875113010406494140625" lon="11.10126589424908161163330078125">
        <ele>337.20001220703125</ele>
        <time>2018-08-17T10:06:42.000Z</time>
      </trkpt>
      <trkpt lat="49.69094610773026943206787109375" lon="11.10150226391851902008056640625">
        <ele>336.79998779296875</ele>
        <time>2018-08-17T10:06:44.000Z</time>
      </trkpt>
      <trkpt lat="49.69105054624378681182861328125" lon="11.10186285339295864105224609375">
        <ele>335.600006103515625</ele>
        <time>2018-08-17T10:06:47.000Z</time>
      </trkpt>
      <trkpt lat="49.69120997004210948944091796875" lon="11.1023224331438541412353515625">
        <ele>334.399993896484375</ele>
        <time>2018-08-17T10:06:51.000Z</time>
      </trkpt>
      <trkpt lat="49.69125255011022090911865234375" lon="11.10243223607540130615234375">
        <ele>334</ele>
        <time>2018-08-17T10:06:52.000Z</time>
      </trkpt>
      <trkpt lat="49.691389761865139007568359375" lon="11.1027556098997592926025390625">
        <ele>333.20001220703125</ele>
        <time>2018-08-17T10:06:55.000Z</time>
      </trkpt>
      <trkpt lat="49.69161498360335826873779296875" lon="11.10333370976150035858154296875">
        <ele>332.20001220703125</ele>
        <time>2018-08-17T10:07:00.000Z</time>
      </trkpt>
      <trkpt lat="49.69182838685810565948486328125" lon="11.10396377742290496826171875">
        <ele>331.20001220703125</ele>
        <time>2018-08-17T10:07:05.000Z</time>
      </trkpt>
      <trkpt lat="49.6920598112046718597412109375" lon="11.1046412028372287750244140625">
        <ele>330</ele>
        <time>2018-08-17T10:07:11.000Z</time>
      </trkpt>
      <trkpt lat="49.69224505126476287841796875" lon="11.10525517724454402923583984375">
        <ele>329.20001220703125</ele>
        <time>2018-08-17T10:07:17.000Z</time>
      </trkpt>
      <trkpt lat="49.692358709871768951416015625" lon="11.1054565943777561187744140625">
        <ele>328.79998779296875</ele>
        <time>2018-08-17T10:07:19.000Z</time>
      </trkpt>
      <trkpt lat="49.69274528324604034423828125" lon="11.1059425771236419677734375">
        <ele>327.79998779296875</ele>
        <time>2018-08-17T10:07:24.000Z</time>
      </trkpt>
      <trkpt lat="49.69308315776288509368896484375" lon="11.10642336308956146240234375">
        <ele>326</ele>
        <time>2018-08-17T10:07:28.000Z</time>
      </trkpt>
      <trkpt lat="49.69325297512114048004150390625" lon="11.10667255707085132598876953125">
        <ele>324.600006103515625</ele>
        <time>2018-08-17T10:07:30.000Z</time>
      </trkpt>
      <trkpt lat="49.693412818014621734619140625" lon="11.10692753456532955169677734375">
        <ele>323.399993896484375</ele>
        <time>2018-08-17T10:07:32.000Z</time>
      </trkpt>
      <trkpt lat="49.69356201589107513427734375" lon="11.10717932693660259246826171875">
        <ele>321.600006103515625</ele>
        <time>2018-08-17T10:07:34.000Z</time>
      </trkpt>
      <trkpt lat="49.69368363730609416961669921875" lon="11.10745006240904331207275390625">
        <ele>320</ele>
        <time>2018-08-17T10:07:36.000Z</time>
      </trkpt>
      <trkpt lat="49.69381389208137989044189453125" lon="11.1077073030173778533935546875">
        <ele>318.79998779296875</ele>
        <time>2018-08-17T10:07:38.000Z</time>
      </trkpt>
      <trkpt lat="49.69409317709505558013916015625" lon="11.10797946341335773468017578125">
        <ele>317.79998779296875</ele>
        <time>2018-08-17T10:07:41.000Z</time>
      </trkpt>
      <trkpt lat="49.694635905325412750244140625" lon="11.10806060023605823516845703125">
        <ele>316.600006103515625</ele>
        <time>2018-08-17T10:07:45.000Z</time>
      </trkpt>
      <trkpt lat="49.69478921033442020416259765625" lon="11.1080523021519184112548828125">
        <ele>316.20001220703125</ele>
        <time>2018-08-17T10:07:46.000Z</time>
      </trkpt>
      <trkpt lat="49.6950907073915004730224609375" lon="11.1080358736217021942138671875">
        <ele>315.20001220703125</ele>
        <time>2018-08-17T10:07:48.000Z</time>
      </trkpt>
      <trkpt lat="49.695382900536060333251953125" lon="11.108030341565608978271484375">
        <ele>313.399993896484375</ele>
        <time>2018-08-17T10:07:50.000Z</time>
      </trkpt>
      <trkpt lat="49.69552941620349884033203125" lon="11.10806495882570743560791015625">
        <ele>312</ele>
        <time>2018-08-17T10:07:51.000Z</time>
      </trkpt>
      <trkpt lat="49.69567484222352504730224609375" lon="11.1081326007843017578125">
        <ele>310.20001220703125</ele>
        <time>2018-08-17T10:07:52.000Z</time>
      </trkpt>
      <trkpt lat="49.69580811448395252227783203125" lon="11.1082398891448974609375">
        <ele>308.399993896484375</ele>
        <time>2018-08-17T10:07:53.000Z</time>
      </trkpt>
      <trkpt lat="49.69592101871967315673828125" lon="11.10837173648178577423095703125">
        <ele>306.79998779296875</ele>
        <time>2018-08-17T10:07:54.000Z</time>
      </trkpt>
      <trkpt lat="49.6960182487964630126953125" lon="11.1084972135722637176513671875">
        <ele>305.600006103515625</ele>
        <time>2018-08-17T10:07:55.000Z</time>
      </trkpt>
      <trkpt lat="49.69611145555973052978515625" lon="11.108613051474094390869140625">
        <ele>302.79998779296875</ele>
        <time>2018-08-17T10:07:56.000Z</time>
      </trkpt>
      <trkpt lat="49.69620474614202976226806640625" lon="11.108731068670749664306640625">
        <ele>301.600006103515625</ele>
        <time>2018-08-17T10:07:57.000Z</time>
      </trkpt>
      <trkpt lat="49.696300886571407318115234375" lon="11.1088546179234981536865234375">
        <ele>300.20001220703125</ele>
        <time>2018-08-17T10:07:58.000Z</time>
      </trkpt>
      <trkpt lat="49.69640239141881465911865234375" lon="11.10897556878626346588134765625">
        <ele>299</ele>
        <time>2018-08-17T10:07:59.000Z</time>
      </trkpt>
      <trkpt lat="49.6965035609900951385498046875" lon="11.1090970225632190704345703125">
        <ele>297.79998779296875</ele>
        <time>2018-08-17T10:08:00.000Z</time>
      </trkpt>
      <trkpt lat="49.6966061554849147796630859375" lon="11.109216213226318359375">
        <ele>296.600006103515625</ele>
        <time>2018-08-17T10:08:01.000Z</time>
      </trkpt>
      <trkpt lat="49.69671151600778102874755859375" lon="11.10933096148073673248291015625">
        <ele>295.399993896484375</ele>
        <time>2018-08-17T10:08:02.000Z</time>
      </trkpt>
      <trkpt lat="49.6968187205493450164794921875" lon="11.10944294370710849761962890625">
        <ele>294</ele>
        <time>2018-08-17T10:08:03.000Z</time>
      </trkpt>
      <trkpt lat="49.6969266794621944427490234375" lon="11.10955073498189449310302734375">
        <ele>293</ele>
        <time>2018-08-17T10:08:04.000Z</time>
      </trkpt>
      <trkpt lat="49.6970379911363124847412109375" lon="11.10964813269674777984619140625">
        <ele>291.79998779296875</ele>
        <time>2018-08-17T10:08:05.000Z</time>
      </trkpt>
      <trkpt lat="49.6971509791910648345947265625" lon="11.10973396338522434234619140625">
        <ele>290.399993896484375</ele>
        <time>2018-08-17T10:08:06.000Z</time>
      </trkpt>
      <trkpt lat="49.69726438634097576141357421875" lon="11.10981359146535396575927734375">
        <ele>289.20001220703125</ele>
        <time>2018-08-17T10:08:07.000Z</time>
      </trkpt>
      <trkpt lat="49.69737569801509380340576171875" lon="11.10988869331777095794677734375">
        <ele>288.20001220703125</ele>
        <time>2018-08-17T10:08:08.000Z</time>
      </trkpt>
      <trkpt lat="49.6975808031857013702392578125" lon="11.1100257374346256256103515625">
        <ele>286.399993896484375</ele>
        <time>2018-08-17T10:08:10.000Z</time>
      </trkpt>
      <trkpt lat="49.69772874377667903900146484375" lon="11.110139228403568267822265625">
        <ele>285</ele>
        <time>2018-08-17T10:08:12.000Z</time>
      </trkpt>
      <trkpt lat="49.6977819688618183135986328125" lon="11.1102735064923763275146484375">
        <ele>283.79998779296875</ele>
        <time>2018-08-17T10:08:14.000Z</time>
      </trkpt>
      <trkpt lat="49.6979546360671520233154296875" lon="11.11046385951340198516845703125">
        <ele>282.79998779296875</ele>
        <time>2018-08-17T10:08:18.000Z</time>
      </trkpt>
      <trkpt lat="49.69810970127582550048828125" lon="11.11065320670604705810546875">
        <ele>281.600006103515625</ele>
        <time>2018-08-17T10:08:21.000Z</time>
      </trkpt>
      <trkpt lat="49.69821841455996036529541015625" lon="11.11079745925962924957275390625">
        <ele>280.600006103515625</ele>
        <time>2018-08-17T10:08:23.000Z</time>
      </trkpt>
      <trkpt lat="49.69860398210585117340087890625" lon="11.11133373342454433441162109375">
        <ele>279.600006103515625</ele>
        <time>2018-08-17T10:08:30.000Z</time>
      </trkpt>
      <trkpt lat="49.699015952646732330322265625" lon="11.11188425682485103607177734375">
        <ele>278.600006103515625</ele>
        <time>2018-08-17T10:08:37.000Z</time>
      </trkpt>
      <trkpt lat="49.699137322604656219482421875" lon="11.11200512386858463287353515625">
        <ele>278.399993896484375</ele>
        <time>2018-08-17T10:08:39.000Z</time>
      </trkpt>
      <trkpt lat="49.6996343694627285003662109375" lon="11.11242354847490787506103515625">
        <ele>277.79998779296875</ele>
        <time>2018-08-17T10:08:47.000Z</time>
      </trkpt>
      <trkpt lat="49.69975045882165431976318359375" lon="11.112533770501613616943359375">
        <ele>277.600006103515625</ele>
        <time>2018-08-17T10:08:49.000Z</time>
      </trkpt>
      <trkpt lat="49.70001432113349437713623046875" lon="11.11268204636871814727783203125">
        <ele>277.399993896484375</ele>
        <time>2018-08-17T10:08:53.000Z</time>
      </trkpt>
      <trkpt lat="49.7004162333905696868896484375" lon="11.11288337968289852142333984375">
        <ele>277.20001220703125</ele>
        <time>2018-08-17T10:08:59.000Z</time>
      </trkpt>
      <trkpt lat="49.70085318200290203094482421875" lon="11.11343465745449066162109375">
        <ele>276.600006103515625</ele>
        <time>2018-08-17T10:09:07.000Z</time>
      </trkpt>
      <trkpt lat="49.7009308822453022003173828125" lon="11.113602630794048309326171875">
        <ele>276.399993896484375</ele>
        <time>2018-08-17T10:09:09.000Z</time>
      </trkpt>
      <trkpt lat="49.70123321749269962310791015625" lon="11.11429187469184398651123046875">
        <ele>275.79998779296875</ele>
        <time>2018-08-17T10:09:18.000Z</time>
      </trkpt>
      <trkpt lat="49.7014810703694820404052734375" lon="11.11488170921802520751953125">
        <ele>275.79998779296875</ele>
        <time>2018-08-17T10:09:25.000Z</time>
      </trkpt>
      <trkpt lat="49.7017828188836574554443359375" lon="11.11508597619831562042236328125">
        <ele>275.79998779296875</ele>
        <time>2018-08-17T10:09:30.000Z</time>
      </trkpt>
      <trkpt lat="49.70232973806560039520263671875" lon="11.11519712023437023162841796875">
        <ele>276</ele>
        <time>2018-08-17T10:09:38.000Z</time>
      </trkpt>
      <trkpt lat="49.70276526175439357757568359375" lon="11.11528010107576847076416015625">
        <ele>276</ele>
        <time>2018-08-17T10:09:50.000Z</time>
      </trkpt>
      <trkpt lat="49.70300481654703617095947265625" lon="11.115414798259735107421875">
        <ele>276.20001220703125</ele>
        <time>2018-08-17T10:09:58.000Z</time>
      </trkpt>
      <trkpt lat="49.703300110995769500732421875" lon="11.115631721913814544677734375">
        <ele>276.20001220703125</ele>
        <time>2018-08-17T10:10:04.000Z</time>
      </trkpt>
      <trkpt lat="49.7033998556435108184814453125" lon="11.1157264374196529388427734375">
        <ele>276.399993896484375</ele>
        <time>2018-08-17T10:10:06.000Z</time>
      </trkpt>
      <trkpt lat="49.70379288308322429656982421875" lon="11.11596574075520038604736328125">
        <ele>277.20001220703125</ele>
        <time>2018-08-17T10:10:15.000Z</time>
      </trkpt>
      <trkpt lat="49.70389681868255138397216796875" lon="11.11604469828307628631591796875">
        <ele>277.600006103515625</ele>
        <time>2018-08-17T10:10:18.000Z</time>
      </trkpt>
      <trkpt lat="49.7039342857897281646728515625" lon="11.1160472966730594635009765625">
        <ele>277.79998779296875</ele>
        <time>2018-08-17T10:10:19.000Z</time>
      </trkpt>
      <trkpt lat="49.704098068177700042724609375" lon="11.11582257784903049468994140625">
        <ele>278.399993896484375</ele>
        <time>2018-08-17T10:10:24.000Z</time>
      </trkpt>
      <trkpt lat="49.70420233905315399169921875" lon="11.11559459008276462554931640625">
        <ele>278.79998779296875</ele>
        <time>2018-08-17T10:10:28.000Z</time>
      </trkpt>
      <trkpt lat="49.70449713058769702911376953125" lon="11.11492722295224666595458984375">
        <ele>279.79998779296875</ele>
        <time>2018-08-17T10:10:38.000Z</time>
      </trkpt>
      <trkpt lat="49.704562090337276458740234375" lon="11.11466906033456325531005859375">
        <ele>279.79998779296875</ele>
        <time>2018-08-17T10:10:41.000Z</time>
      </trkpt>
      <trkpt lat="49.70491438172757625579833984375" lon="11.11477467231452465057373046875">
        <ele>280.20001220703125</ele>
        <time>2018-08-17T10:10:48.000Z</time>
      </trkpt>
      <trkpt lat="49.704966433346271514892578125" lon="11.1148322559893131256103515625">
        <ele>280.20001220703125</ele>
        <time>2018-08-17T10:10:49.000Z</time>
      </trkpt>
      <trkpt lat="49.705183021724224090576171875" lon="11.1150719784200191497802734375">
        <ele>280.20001220703125</ele>
        <time>2018-08-17T10:10:53.000Z</time>
      </trkpt>
      <trkpt lat="49.70542819239199161529541015625" lon="11.11549534834921360015869140625">
        <ele>280.20001220703125</ele>
        <time>2018-08-17T10:10:58.000Z</time>
      </trkpt>
      <trkpt lat="49.7057420946657657623291015625" lon="11.11619641073048114776611328125">
        <ele>280.20001220703125</ele>
        <time>2018-08-17T10:11:04.000Z</time>
      </trkpt>
      <trkpt lat="49.70596262253820896148681640625" lon="11.11668122000992298126220703125">
        <ele>278.600006103515625</ele>
        <time>2018-08-17T10:11:08.000Z</time>
      </trkpt>
      <trkpt lat="49.7061301767826080322265625" lon="11.11701398156583309173583984375">
        <ele>277.399993896484375</ele>
        <time>2018-08-17T10:11:11.000Z</time>
      </trkpt>
      <trkpt lat="49.706363193690776824951171875" lon="11.11742536537349224090576171875">
        <ele>276.20001220703125</ele>
        <time>2018-08-17T10:11:15.000Z</time>
      </trkpt>
      <trkpt lat="49.70680533908307552337646484375" lon="11.11809625290334224700927734375">
        <ele>275.600006103515625</ele>
        <time>2018-08-17T10:11:22.000Z</time>
      </trkpt>
      <trkpt lat="49.7072706185281276702880859375" lon="11.11860671080648899078369140625">
        <ele>275.399993896484375</ele>
        <time>2018-08-17T10:11:29.000Z</time>
      </trkpt>
      <trkpt lat="49.7073879651725292205810546875" lon="11.11874367110431194305419921875">
        <ele>275.600006103515625</ele>
        <time>2018-08-17T10:11:31.000Z</time>
      </trkpt>
      <trkpt lat="49.70750237815082073211669921875" lon="11.11889270134270191192626953125">
        <ele>275.600006103515625</ele>
        <time>2018-08-17T10:11:33.000Z</time>
      </trkpt>
      <trkpt lat="49.7079648077487945556640625" lon="11.119365356862545013427734375">
        <ele>275.600006103515625</ele>
        <time>2018-08-17T10:11:40.000Z</time>
      </trkpt>
      <trkpt lat="49.7084072045981884002685546875" lon="11.11990892328321933746337890625">
        <ele>275.79998779296875</ele>
        <time>2018-08-17T10:11:47.000Z</time>
      </trkpt>
      <trkpt lat="49.7088112123310565948486328125" lon="11.12053312361240386962890625">
        <ele>275.79998779296875</ele>
        <time>2018-08-17T10:11:54.000Z</time>
      </trkpt>
      <trkpt lat="49.70918378792703151702880859375" lon="11.1211565695703029632568359375">
        <ele>275.79998779296875</ele>
        <time>2018-08-17T10:12:01.000Z</time>
      </trkpt>
      <trkpt lat="49.70956742763519287109375" lon="11.121775321662425994873046875">
        <ele>275.79998779296875</ele>
        <time>2018-08-17T10:12:08.000Z</time>
      </trkpt>
      <trkpt lat="49.70995123498141765594482421875" lon="11.12240119837224483489990234375">
        <ele>276</ele>
        <time>2018-08-17T10:12:15.000Z</time>
      </trkpt>
      <trkpt lat="49.7103197872638702392578125" lon="11.12301324494183063507080078125">
        <ele>276.600006103515625</ele>
        <time>2018-08-17T10:12:22.000Z</time>
      </trkpt>
      <trkpt lat="49.71073351800441741943359375" lon="11.12370341084897518157958984375">
        <ele>276.79998779296875</ele>
        <time>2018-08-17T10:12:30.000Z</time>
      </trkpt>
      <trkpt lat="49.71115194261074066162109375" lon="11.12437848933041095733642578125">
        <ele>277</ele>
        <time>2018-08-17T10:12:38.000Z</time>
      </trkpt>
      <trkpt lat="49.7115804255008697509765625" lon="11.1250430904328823089599609375">
        <ele>277</ele>
        <time>2018-08-17T10:12:46.000Z</time>
      </trkpt>
      <trkpt lat="49.7120241634547710418701171875" lon="11.12565656192600727081298828125">
        <ele>277</ele>
        <time>2018-08-17T10:12:54.000Z</time>
      </trkpt>
      <trkpt lat="49.71244485117495059967041015625" lon="11.12618587911128997802734375">
        <ele>277</ele>
        <time>2018-08-17T10:13:02.000Z</time>
      </trkpt>
      <trkpt lat="49.71280686557292938232421875" lon="11.12657748162746429443359375">
        <ele>277.399993896484375</ele>
        <time>2018-08-17T10:13:13.000Z</time>
      </trkpt>
      <trkpt lat="49.7129059396684169769287109375" lon="11.12668921239674091339111328125">
        <ele>277.399993896484375</ele>
        <time>2018-08-17T10:13:22.000Z</time>
      </trkpt>
      <trkpt lat="49.71293100155889987945556640625" lon="11.12669683992862701416015625">
        <ele>277.399993896484375</ele>
        <time>2018-08-17T10:13:26.000Z</time>
      </trkpt>
      <trkpt lat="49.7129713185131549835205078125" lon="11.12669357098639011383056640625">
        <ele>277.399993896484375</ele>
        <time>2018-08-17T10:13:39.000Z</time>
      </trkpt>
      <trkpt lat="49.71298967488110065460205078125" lon="11.126713939011096954345703125">
        <ele>277.399993896484375</ele>
        <time>2018-08-17T10:13:40.000Z</time>
      </trkpt>
      <trkpt lat="49.71313401125371456146240234375" lon="11.12695743329823017120361328125">
        <ele>277.399993896484375</ele>
        <time>2018-08-17T10:13:46.000Z</time>
      </trkpt>
      <trkpt lat="49.71361328847706317901611328125" lon="11.1274882592260837554931640625">
        <ele>277.79998779296875</ele>
        <time>2018-08-17T10:13:57.000Z</time>
      </trkpt>
      <trkpt lat="49.71408552490174770355224609375" lon="11.12792797386646270751953125">
        <ele>277.79998779296875</ele>
        <time>2018-08-17T10:14:06.000Z</time>
      </trkpt>
      <trkpt lat="49.71450327895581722259521484375" lon="11.1283861286938190460205078125">
        <ele>278.399993896484375</ele>
        <time>2018-08-17T10:14:14.000Z</time>
      </trkpt>
      <trkpt lat="49.7149253077805042266845703125" lon="11.1289282701909542083740234375">
        <ele>278.79998779296875</ele>
        <time>2018-08-17T10:14:23.000Z</time>
      </trkpt>
      <trkpt lat="49.715408943593502044677734375" lon="11.12933319993317127227783203125">
        <ele>279.399993896484375</ele>
        <time>2018-08-17T10:14:32.000Z</time>
      </trkpt>
      <trkpt lat="49.715527631342411041259765625" lon="11.1294060386717319488525390625">
        <ele>279.600006103515625</ele>
        <time>2018-08-17T10:14:34.000Z</time>
      </trkpt>
      <trkpt lat="49.7159524261951446533203125" lon="11.1296561546623706817626953125">
        <ele>280.600006103515625</ele>
        <time>2018-08-17T10:14:41.000Z</time>
      </trkpt>
      <trkpt lat="49.7164591960608959197998046875" lon="11.12992144189774990081787109375">
        <ele>281.600006103515625</ele>
        <time>2018-08-17T10:14:49.000Z</time>
      </trkpt>
      <trkpt lat="49.717023633420467376708984375" lon="11.1301282234489917755126953125">
        <ele>282.399993896484375</ele>
        <time>2018-08-17T10:14:57.000Z</time>
      </trkpt>
      <trkpt lat="49.71760793589055538177490234375" lon="11.130354367196559906005859375">
        <ele>282.399993896484375</ele>
        <time>2018-08-17T10:15:04.000Z</time>
      </trkpt>
      <trkpt lat="49.71810154616832733154296875" lon="11.13072216510772705078125">
        <ele>281.600006103515625</ele>
        <time>2018-08-17T10:15:10.000Z</time>
      </trkpt>
      <trkpt lat="49.71852692775428295135498046875" lon="11.13126338459551334381103515625">
        <ele>280.79998779296875</ele>
        <time>2018-08-17T10:15:16.000Z</time>
      </trkpt>
      <trkpt lat="49.71879581920802593231201171875" lon="11.13163151778280735015869140625">
        <ele>280.600006103515625</ele>
        <time>2018-08-17T10:15:20.000Z</time>
      </trkpt>
      <trkpt lat="49.71923612058162689208984375" lon="11.1321133933961391448974609375">
        <ele>280.600006103515625</ele>
        <time>2018-08-17T10:15:26.000Z</time>
      </trkpt>
      <trkpt lat="49.7197772562503814697265625" lon="11.13260281272232532501220703125">
        <ele>280.600006103515625</ele>
        <time>2018-08-17T10:15:33.000Z</time>
      </trkpt>
      <trkpt lat="49.72029265947639942169189453125" lon="11.13306415267288684844970703125">
        <ele>280.399993896484375</ele>
        <time>2018-08-17T10:15:40.000Z</time>
      </trkpt>
      <trkpt lat="49.72080093808472156524658203125" lon="11.133514344692230224609375">
        <ele>280.600006103515625</ele>
        <time>2018-08-17T10:15:47.000Z</time>
      </trkpt>
      <trkpt lat="49.72133494913578033447265625" lon="11.13397878594696521759033203125">
        <ele>280.79998779296875</ele>
        <time>2018-08-17T10:15:54.000Z</time>
      </trkpt>
      <trkpt lat="49.721818082034587860107421875" lon="11.13435379229485988616943359375">
        <ele>280.79998779296875</ele>
        <time>2018-08-17T10:16:00.000Z</time>
      </trkpt>
      <trkpt lat="49.72238511778414249420166015625" lon="11.134753189980983734130859375">
        <ele>281</ele>
        <time>2018-08-17T10:16:07.000Z</time>
      </trkpt>
      <trkpt lat="49.7229394130408763885498046875" lon="11.135103218257427215576171875">
        <ele>281.20001220703125</ele>
        <time>2018-08-17T10:16:14.000Z</time>
      </trkpt>
      <trkpt lat="49.72349370829761028289794921875" lon="11.13543639890849590301513671875">
        <ele>281.600006103515625</ele>
        <time>2018-08-17T10:16:21.000Z</time>
      </trkpt>
      <trkpt lat="49.72404909320175647735595703125" lon="11.135757006704807281494140625">
        <ele>281.600006103515625</ele>
        <time>2018-08-17T10:16:28.000Z</time>
      </trkpt>
      <trkpt lat="49.72461260855197906494140625" lon="11.13606118597090244293212890625">
        <ele>281.79998779296875</ele>
        <time>2018-08-17T10:16:35.000Z</time>
      </trkpt>
      <trkpt lat="49.7247743792831897735595703125" lon="11.136143915355205535888671875">
        <ele>281.79998779296875</ele>
        <time>2018-08-17T10:16:37.000Z</time>
      </trkpt>
      <trkpt lat="49.7253450192511081695556640625" lon="11.1364166624844074249267578125">
        <ele>282</ele>
        <time>2018-08-17T10:16:44.000Z</time>
      </trkpt>
      <trkpt lat="49.72592462785542011260986328125" lon="11.13668697886168956756591796875">
        <ele>282</ele>
        <time>2018-08-17T10:16:51.000Z</time>
      </trkpt>
      <trkpt lat="49.726517982780933380126953125" lon="11.13697246648371219635009765625">
        <ele>281.79998779296875</ele>
        <time>2018-08-17T10:16:58.000Z</time>
      </trkpt>
      <trkpt lat="49.727091304957866668701171875" lon="11.13735669292509555816650390625">
        <ele>281.79998779296875</ele>
        <time>2018-08-17T10:17:05.000Z</time>
      </trkpt>
      <trkpt lat="49.727604947984218597412109375" lon="11.13787628710269927978515625">
        <ele>281.399993896484375</ele>
        <time>2018-08-17T10:17:12.000Z</time>
      </trkpt>
      <trkpt lat="49.7280825488269329071044921875" lon="11.13844332285225391387939453125">
        <ele>281.600006103515625</ele>
        <time>2018-08-17T10:17:19.000Z</time>
      </trkpt>
      <trkpt lat="49.72857548855245113372802734375" lon="11.13893852569162845611572265625">
        <ele>281.600006103515625</ele>
        <time>2018-08-17T10:17:26.000Z</time>
      </trkpt>
      <trkpt lat="49.72907857038080692291259765625" lon="11.13933783955872058868408203125">
        <ele>282</ele>
        <time>2018-08-17T10:17:33.000Z</time>
      </trkpt>
      <trkpt lat="49.7296000085771083831787109375" lon="11.1396775580942630767822265625">
        <ele>282.20001220703125</ele>
        <time>2018-08-17T10:17:40.000Z</time>
      </trkpt>
      <trkpt lat="49.730149693787097930908203125" lon="11.1399665661156177520751953125">
        <ele>282.20001220703125</ele>
        <time>2018-08-17T10:17:47.000Z</time>
      </trkpt>
      <trkpt lat="49.73069745115935802459716796875" lon="11.140262782573699951171875">
        <ele>282.20001220703125</ele>
        <time>2018-08-17T10:17:54.000Z</time>
      </trkpt>
      <trkpt lat="49.7311761416494846343994140625" lon="11.14075404591858386993408203125">
        <ele>282</ele>
        <time>2018-08-17T10:18:01.000Z</time>
      </trkpt>
      <trkpt lat="49.73161728121340274810791015625" lon="11.14127489738166332244873046875">
        <ele>282</ele>
        <time>2018-08-17T10:18:08.000Z</time>
      </trkpt>
      <trkpt lat="49.73204408772289752960205078125" lon="11.14181687124073505401611328125">
        <ele>282.399993896484375</ele>
        <time>2018-08-17T10:18:15.000Z</time>
      </trkpt>
      <trkpt lat="49.73245630972087383270263671875" lon="11.1423674784600734710693359375">
        <ele>282.79998779296875</ele>
        <time>2018-08-17T10:18:22.000Z</time>
      </trkpt>
      <trkpt lat="49.73261875100433826446533203125" lon="11.142612397670745849609375">
        <ele>283</ele>
        <time>2018-08-17T10:18:25.000Z</time>
      </trkpt>
      <trkpt lat="49.732715897262096405029296875" lon="11.1427902616560459136962890625">
        <ele>283</ele>
        <time>2018-08-17T10:18:27.000Z</time>
      </trkpt>
      <trkpt lat="49.73301521502435207366943359375" lon="11.143573634326457977294921875">
        <ele>283.79998779296875</ele>
        <time>2018-08-17T10:18:35.000Z</time>
      </trkpt>
      <trkpt lat="49.73307774402201175689697265625" lon="11.14376465789973735809326171875">
        <ele>284</ele>
        <time>2018-08-17T10:18:37.000Z</time>
      </trkpt>
      <trkpt lat="49.733151756227016448974609375" lon="11.14393464289605617523193359375">
        <ele>284.20001220703125</ele>
        <time>2018-08-17T10:18:39.000Z</time>
      </trkpt>
      <trkpt lat="49.73340664990246295928955078125" lon="11.14455875940620899200439453125">
        <ele>285.399993896484375</ele>
        <time>2018-08-17T10:18:47.000Z</time>
      </trkpt>
      <trkpt lat="49.73353036679327487945556640625" lon="11.1448277346789836883544921875">
        <ele>286.600006103515625</ele>
        <time>2018-08-17T10:18:51.000Z</time>
      </trkpt>
      <trkpt lat="49.733585603535175323486328125" lon="11.1450272239744663238525390625">
        <ele>287.600006103515625</ele>
        <time>2018-08-17T10:18:59.000Z</time>
      </trkpt>
      <trkpt lat="49.73359440453350543975830078125" lon="11.14505161531269550323486328125">
        <ele>287.600006103515625</ele>
        <time>2018-08-17T10:19:04.000Z</time>
      </trkpt>
      <trkpt lat="49.73370973952114582061767578125" lon="11.14563457667827606201171875">
        <ele>287.20001220703125</ele>
        <time>2018-08-17T10:19:13.000Z</time>
      </trkpt>
      <trkpt lat="49.73394108004868030548095703125" lon="11.14603481255471706390380859375">
        <ele>286.79998779296875</ele>
        <time>2018-08-17T10:19:18.000Z</time>
      </trkpt>
      <trkpt lat="49.7340333648025989532470703125" lon="11.14621686749160289764404296875">
        <ele>286.399993896484375</ele>
        <time>2018-08-17T10:19:20.000Z</time>
      </trkpt>
      <trkpt lat="49.73421080969274044036865234375" lon="11.14656790159642696380615234375">
        <ele>286</ele>
        <time>2018-08-17T10:19:24.000Z</time>
      </trkpt>
      <trkpt lat="49.7342405654489994049072265625" lon="11.146729923784732818603515625">
        <ele>285.399993896484375</ele>
        <time>2018-08-17T10:19:29.000Z</time>
      </trkpt>
      <trkpt lat="49.7342476062476634979248046875" lon="11.1467156745493412017822265625">
        <ele>285</ele>
        <time>2018-08-17T10:19:32.000Z</time>
      </trkpt>
      <trkpt lat="49.73420829512178897857666015625" lon="11.1466459371149539947509765625">
        <ele>284.399993896484375</ele>
        <time>2018-08-17T10:19:36.000Z</time>
      </trkpt>
      <trkpt lat="49.73418231122195720672607421875" lon="11.14661014638841152191162109375">
        <ele>284.20001220703125</ele>
        <time>2018-08-17T10:19:40.000Z</time>
      </trkpt>
      <trkpt lat="49.73422271199524402618408203125" lon="11.1466764472424983978271484375">
        <ele>284.600006103515625</ele>
        <time>2018-08-17T10:20:07.000Z</time>
      </trkpt>
      <trkpt lat="49.73428356461226940155029296875" lon="11.14693368785083293914794921875">
        <ele>284.600006103515625</ele>
        <time>2018-08-17T10:20:15.000Z</time>
      </trkpt>
      <trkpt lat="49.7342881746590137481689453125" lon="11.14726896397769451141357421875">
        <ele>284.399993896484375</ele>
        <time>2018-08-17T10:20:23.000Z</time>
      </trkpt>
      <trkpt lat="49.73442404530942440032958984375" lon="11.1476557888090610504150390625">
        <ele>284.399993896484375</ele>
        <time>2018-08-17T10:20:29.000Z</time>
      </trkpt>
      <trkpt lat="49.73444902338087558746337890625" lon="11.14772561006247997283935546875">
        <ele>284.399993896484375</ele>
        <time>2018-08-17T10:20:30.000Z</time>
      </trkpt>
      <trkpt lat="49.7347609139978885650634765625" lon="11.14840789698064327239990234375">
        <ele>285.20001220703125</ele>
        <time>2018-08-17T10:20:40.000Z</time>
      </trkpt>
      <trkpt lat="49.73489351570606231689453125" lon="11.148643679916858673095703125">
        <ele>285.600006103515625</ele>
        <time>2018-08-17T10:20:44.000Z</time>
      </trkpt>
      <trkpt lat="49.734990410506725311279296875" lon="11.1488155089318752288818359375">
        <ele>286</ele>
        <time>2018-08-17T10:20:47.000Z</time>
      </trkpt>
      <trkpt lat="49.73513566888868808746337890625" lon="11.1490609310567378997802734375">
        <ele>286.600006103515625</ele>
        <time>2018-08-17T10:20:51.000Z</time>
      </trkpt>
      <trkpt lat="49.73521730862557888031005859375" lon="11.14917148835957050323486328125">
        <ele>287</ele>
        <time>2018-08-17T10:20:53.000Z</time>
      </trkpt>
      <trkpt lat="49.735369943082332611083984375" lon="11.14939109422266483306884765625">
        <ele>287.79998779296875</ele>
        <time>2018-08-17T10:20:57.000Z</time>
      </trkpt>
      <trkpt lat="49.735614359378814697265625" lon="11.149723939597606658935546875">
        <ele>289.20001220703125</ele>
        <time>2018-08-17T10:21:03.000Z</time>
      </trkpt>
      <trkpt lat="49.735861122608184814453125" lon="11.1500868760049343109130859375">
        <ele>290.20001220703125</ele>
        <time>2018-08-17T10:21:09.000Z</time>
      </trkpt>
      <trkpt lat="49.73626269958913326263427734375" lon="11.1507426761090755462646484375">
        <ele>291.20001220703125</ele>
        <time>2018-08-17T10:21:18.000Z</time>
      </trkpt>
      <trkpt lat="49.73636345006525516510009765625" lon="11.15089480765163898468017578125">
        <ele>291.20001220703125</ele>
        <time>2018-08-17T10:21:20.000Z</time>
      </trkpt>
      <trkpt lat="49.7367685474455356597900390625" lon="11.15157432854175567626953125">
        <ele>291.20001220703125</ele>
        <time>2018-08-17T10:21:28.000Z</time>
      </trkpt>
      <trkpt lat="49.73712502978742122650146484375" lon="11.15225066430866718292236328125">
        <ele>290.79998779296875</ele>
        <time>2018-08-17T10:21:35.000Z</time>
      </trkpt>
      <trkpt lat="49.73756709136068820953369140625" lon="11.15290747024118900299072265625">
        <ele>290.399993896484375</ele>
        <time>2018-08-17T10:21:42.000Z</time>
      </trkpt>
      <trkpt lat="49.73778435029089450836181640625" lon="11.15316378884017467498779296875">
        <ele>290.20001220703125</ele>
        <time>2018-08-17T10:21:45.000Z</time>
      </trkpt>
      <trkpt lat="49.73816983401775360107421875" lon="11.15353577770292758941650390625">
        <ele>289.20001220703125</ele>
        <time>2018-08-17T10:21:50.000Z</time>
      </trkpt>
      <trkpt lat="49.73869143985211849212646484375" lon="11.154020838439464569091796875">
        <ele>288.600006103515625</ele>
        <time>2018-08-17T10:21:57.000Z</time>
      </trkpt>
      <trkpt lat="49.73914875648915767669677734375" lon="11.15455484949052333831787109375">
        <ele>288.399993896484375</ele>
        <time>2018-08-17T10:22:04.000Z</time>
      </trkpt>
      <trkpt lat="49.73919980227947235107421875" lon="11.15464520640671253204345703125">
        <ele>288.399993896484375</ele>
        <time>2018-08-17T10:22:05.000Z</time>
      </trkpt>
      <trkpt lat="49.739395268261432647705078125" lon="11.15501401014626026153564453125">
        <ele>288.20001220703125</ele>
        <time>2018-08-17T10:22:09.000Z</time>
      </trkpt>
      <trkpt lat="49.739476405084133148193359375" lon="11.15521467290818691253662109375">
        <ele>288.20001220703125</ele>
        <time>2018-08-17T10:22:11.000Z</time>
      </trkpt>
      <trkpt lat="49.73968184553086757659912109375" lon="11.1560306511819362640380859375">
        <ele>288.399993896484375</ele>
        <time>2018-08-17T10:22:19.000Z</time>
      </trkpt>
      <trkpt lat="49.73994688130915164947509765625" lon="11.15675677545368671417236328125">
        <ele>290.20001220703125</ele>
        <time>2018-08-17T10:22:29.000Z</time>
      </trkpt>
      <trkpt lat="49.74009524099528789520263671875" lon="11.1570492200553417205810546875">
        <ele>290.79998779296875</ele>
        <time>2018-08-17T10:22:34.000Z</time>
      </trkpt>
      <trkpt lat="49.74020051769912242889404296875" lon="11.15720822475850582122802734375">
        <ele>291.399993896484375</ele>
        <time>2018-08-17T10:22:37.000Z</time>
      </trkpt>
      <trkpt lat="49.7402745299041271209716796875" lon="11.15730226971209049224853515625">
        <ele>292</ele>
        <time>2018-08-17T10:22:39.000Z</time>
      </trkpt>
      <trkpt lat="49.74035524763166904449462890625" lon="11.1573868431150913238525390625">
        <ele>292.600006103515625</ele>
        <time>2018-08-17T10:22:41.000Z</time>
      </trkpt>
      <trkpt lat="49.740568064153194427490234375" lon="11.15760326385498046875">
        <ele>293.600006103515625</ele>
        <time>2018-08-17T10:22:46.000Z</time>
      </trkpt>
      <trkpt lat="49.74075975827872753143310546875" lon="11.1577559821307659149169921875">
        <ele>294.600006103515625</ele>
        <time>2018-08-17T10:22:50.000Z</time>
      </trkpt>
      <trkpt lat="49.740867801010608673095703125" lon="11.1578307487070560455322265625">
        <ele>295</ele>
        <time>2018-08-17T10:22:52.000Z</time>
      </trkpt>
      <trkpt lat="49.74127407185733318328857421875" lon="11.15810274146497249603271484375">
        <ele>296</ele>
        <time>2018-08-17T10:22:59.000Z</time>
      </trkpt>
      <trkpt lat="49.741829372942447662353515625" lon="11.15839979611337184906005859375">
        <ele>296.20001220703125</ele>
        <time>2018-08-17T10:23:08.000Z</time>
      </trkpt>
      <trkpt lat="49.742336310446262359619140625" lon="11.15875887684524059295654296875">
        <ele>296.600006103515625</ele>
        <time>2018-08-17T10:23:16.000Z</time>
      </trkpt>
      <trkpt lat="49.74282480776309967041015625" lon="11.15919356234371662139892578125">
        <ele>297</ele>
        <time>2018-08-17T10:23:24.000Z</time>
      </trkpt>
      <trkpt lat="49.74300585687160491943359375" lon="11.15936287678778171539306640625">
        <ele>297</ele>
        <time>2018-08-17T10:23:27.000Z</time>
      </trkpt>
      <trkpt lat="49.74346007220447063446044921875" lon="11.159814409911632537841796875">
        <ele>298</ele>
        <time>2018-08-17T10:23:35.000Z</time>
      </trkpt>
      <trkpt lat="49.7435615770518779754638671875" lon="11.15994005464017391204833984375">
        <ele>298.399993896484375</ele>
        <time>2018-08-17T10:23:37.000Z</time>
      </trkpt>
      <trkpt lat="49.74380557425320148468017578125" lon="11.1602732352912425994873046875">
        <ele>299.399993896484375</ele>
        <time>2018-08-17T10:23:42.000Z</time>
      </trkpt>
      <trkpt lat="49.74400690756738185882568359375" lon="11.160556375980377197265625">
        <ele>300.600006103515625</ele>
        <time>2018-08-17T10:23:46.000Z</time>
      </trkpt>
      <trkpt lat="49.744156189262866973876953125" lon="11.1607647500932216644287109375">
        <ele>301.600006103515625</ele>
        <time>2018-08-17T10:23:49.000Z</time>
      </trkpt>
      <trkpt lat="49.74443974904716014862060546875" lon="11.16118879057466983795166015625">
        <ele>302.79998779296875</ele>
        <time>2018-08-17T10:23:55.000Z</time>
      </trkpt>
      <trkpt lat="49.74462197162210941314697265625" lon="11.16148333065211772918701171875">
        <ele>303.79998779296875</ele>
        <time>2018-08-17T10:23:59.000Z</time>
      </trkpt>
      <trkpt lat="49.74489857442677021026611328125" lon="11.16196294315159320831298828125">
        <ele>305</ele>
        <time>2018-08-17T10:24:05.000Z</time>
      </trkpt>
      <trkpt lat="49.74530023522675037384033203125" lon="11.16267892532050609588623046875">
        <ele>305.79998779296875</ele>
        <time>2018-08-17T10:24:13.000Z</time>
      </trkpt>
      <trkpt lat="49.7453459165990352630615234375" lon="11.162784956395626068115234375">
        <ele>305.79998779296875</ele>
        <time>2018-08-17T10:24:14.000Z</time>
      </trkpt>
      <trkpt lat="49.7455702163279056549072265625" lon="11.16361149586737155914306640625">
        <ele>305.79998779296875</ele>
        <time>2018-08-17T10:24:21.000Z</time>
      </trkpt>
      <trkpt lat="49.74583919160068035125732421875" lon="11.16433753632009029388427734375">
        <ele>305.79998779296875</ele>
        <time>2018-08-17T10:24:28.000Z</time>
      </trkpt>
      <trkpt lat="49.74591412581503391265869140625" lon="11.1645158194005489349365234375">
        <ele>306</ele>
        <time>2018-08-17T10:24:30.000Z</time>
      </trkpt>
      <trkpt lat="49.7461743839085102081298828125" lon="11.1650262773036956787109375">
        <ele>307.20001220703125</ele>
        <time>2018-08-17T10:24:37.000Z</time>
      </trkpt>
      <trkpt lat="49.74634177051484584808349609375" lon="11.165308915078639984130859375">
        <ele>308.600006103515625</ele>
        <time>2018-08-17T10:24:41.000Z</time>
      </trkpt>
      <trkpt lat="49.7464786469936370849609375" lon="11.16552709601819515228271484375">
        <ele>310.399993896484375</ele>
        <time>2018-08-17T10:24:44.000Z</time>
      </trkpt>
      <trkpt lat="49.74652701057493686676025390625" lon="11.16560253314673900604248046875">
        <ele>310.79998779296875</ele>
        <time>2018-08-17T10:24:45.000Z</time>
      </trkpt>
      <trkpt lat="49.74667872302234172821044921875" lon="11.16584141738712787628173828125">
        <ele>311.399993896484375</ele>
        <time>2018-08-17T10:24:48.000Z</time>
      </trkpt>
      <trkpt lat="49.74710653536021709442138671875" lon="11.166503839194774627685546875">
        <ele>312</ele>
        <time>2018-08-17T10:24:56.000Z</time>
      </trkpt>
      <trkpt lat="49.7474635206162929534912109375" lon="11.1672171391546726226806640625">
        <ele>311.79998779296875</ele>
        <time>2018-08-17T10:25:03.000Z</time>
      </trkpt>
      <trkpt lat="49.747679941356182098388671875" lon="11.16809271275997161865234375">
        <ele>310.79998779296875</ele>
        <time>2018-08-17T10:25:10.000Z</time>
      </trkpt>
      <trkpt lat="49.74774800240993499755859375" lon="11.1683661304414272308349609375">
        <ele>310.399993896484375</ele>
        <time>2018-08-17T10:25:12.000Z</time>
      </trkpt>
      <trkpt lat="49.748178161680698394775390625" lon="11.16905906237661838531494140625">
        <ele>309</ele>
        <time>2018-08-17T10:25:18.000Z</time>
      </trkpt>
      <trkpt lat="49.74850128404796123504638671875" lon="11.16934304125607013702392578125">
        <ele>308.20001220703125</ele>
        <time>2018-08-17T10:25:21.000Z</time>
      </trkpt>
      <trkpt lat="49.74862382747232913970947265625" lon="11.16941831074655055999755859375">
        <ele>307.79998779296875</ele>
        <time>2018-08-17T10:25:22.000Z</time>
      </trkpt>
      <trkpt lat="49.7488854266703128814697265625" lon="11.16952769458293914794921875">
        <ele>306.600006103515625</ele>
        <time>2018-08-17T10:25:24.000Z</time>
      </trkpt>
      <trkpt lat="49.74901794455945491790771484375" lon="11.16956667043268680572509765625">
        <ele>305.79998779296875</ele>
        <time>2018-08-17T10:25:25.000Z</time>
      </trkpt>
      <trkpt lat="49.74914501421153545379638671875" lon="11.16959718056023120880126953125">
        <ele>304.79998779296875</ele>
        <time>2018-08-17T10:25:26.000Z</time>
      </trkpt>
      <trkpt lat="49.74926655180752277374267578125" lon="11.16961964406073093414306640625">
        <ele>303.600006103515625</ele>
        <time>2018-08-17T10:25:27.000Z</time>
      </trkpt>
      <trkpt lat="49.749381132423877716064453125" lon="11.1696316301822662353515625">
        <ele>302.20001220703125</ele>
        <time>2018-08-17T10:25:28.000Z</time>
      </trkpt>
      <trkpt lat="49.7494859062135219573974609375" lon="11.16963674314320087432861328125">
        <ele>301</ele>
        <time>2018-08-17T10:25:29.000Z</time>
      </trkpt>
      <trkpt lat="49.74958456121385097503662109375" lon="11.16963909007608890533447265625">
        <ele>300</ele>
        <time>2018-08-17T10:25:30.000Z</time>
      </trkpt>
      <trkpt lat="49.74968229420483112335205078125" lon="11.16964126937091350555419921875">
        <ele>298.600006103515625</ele>
        <time>2018-08-17T10:25:31.000Z</time>
      </trkpt>
      <trkpt lat="49.74978069774806499481201171875" lon="11.1696348153054714202880859375">
        <ele>297.600006103515625</ele>
        <time>2018-08-17T10:25:32.000Z</time>
      </trkpt>
      <trkpt lat="49.74987993948161602020263671875" lon="11.1696200631558895111083984375">
        <ele>296.600006103515625</ele>
        <time>2018-08-17T10:25:33.000Z</time>
      </trkpt>
      <trkpt lat="49.75007842294871807098388671875" lon="11.16958041675388813018798828125">
        <ele>294.79998779296875</ele>
        <time>2018-08-17T10:25:35.000Z</time>
      </trkpt>
      <trkpt lat="49.750274308025836944580078125" lon="11.1695365794003009796142578125">
        <ele>293.600006103515625</ele>
        <time>2018-08-17T10:25:37.000Z</time>
      </trkpt>
      <trkpt lat="49.75047153420746326446533203125" lon="11.16949777118861675262451171875">
        <ele>292</ele>
        <time>2018-08-17T10:25:39.000Z</time>
      </trkpt>
      <trkpt lat="49.75105642341077327728271484375" lon="11.1693981103599071502685546875">
        <ele>291.399993896484375</ele>
        <time>2018-08-17T10:25:45.000Z</time>
      </trkpt>
      <trkpt lat="49.751154743134975433349609375" lon="11.16939961910247802734375">
        <ele>291.399993896484375</ele>
        <time>2018-08-17T10:25:46.000Z</time>
      </trkpt>
      <trkpt lat="49.75168188102543354034423828125" lon="11.1697766371071338653564453125">
        <ele>291</ele>
        <time>2018-08-17T10:25:52.000Z</time>
      </trkpt>
      <trkpt lat="49.75174776278436183929443359375" lon="11.16989004425704479217529296875">
        <ele>291</ele>
        <time>2018-08-17T10:25:53.000Z</time>
      </trkpt>
      <trkpt lat="49.75180626846849918365478515625" lon="11.1700109951198101043701171875">
        <ele>290.79998779296875</ele>
        <time>2018-08-17T10:25:54.000Z</time>
      </trkpt>
      <trkpt lat="49.7519153170287609100341796875" lon="11.17024912498891353607177734375">
        <ele>290.79998779296875</ele>
        <time>2018-08-17T10:25:56.000Z</time>
      </trkpt>
      <trkpt lat="49.75236752070486545562744140625" lon="11.17088195867836475372314453125">
        <ele>290.20001220703125</ele>
        <time>2018-08-17T10:26:03.000Z</time>
      </trkpt>
      <trkpt lat="49.752898849546909332275390625" lon="11.171256713569164276123046875">
        <ele>290.399993896484375</ele>
        <time>2018-08-17T10:26:10.000Z</time>
      </trkpt>
      <trkpt lat="49.75333881564438343048095703125" lon="11.17174613289535045623779296875">
        <ele>290.399993896484375</ele>
        <time>2018-08-17T10:26:17.000Z</time>
      </trkpt>
      <trkpt lat="49.75375615060329437255859375" lon="11.1724052019417285919189453125">
        <ele>290.399993896484375</ele>
        <time>2018-08-17T10:26:25.000Z</time>
      </trkpt>
      <trkpt lat="49.754192344844341278076171875" lon="11.17303476668894290924072265625">
        <ele>290.399993896484375</ele>
        <time>2018-08-17T10:26:33.000Z</time>
      </trkpt>
      <trkpt lat="49.7547041438519954681396484375" lon="11.17345721460878849029541015625">
        <ele>290.399993896484375</ele>
        <time>2018-08-17T10:26:41.000Z</time>
      </trkpt>
      <trkpt lat="49.7548999451100826263427734375" lon="11.17356584407389163970947265625">
        <ele>290.600006103515625</ele>
        <time>2018-08-17T10:26:44.000Z</time>
      </trkpt>
      <trkpt lat="49.7552119195461273193359375" lon="11.17359149269759654998779296875">
        <ele>290.600006103515625</ele>
        <time>2018-08-17T10:26:49.000Z</time>
      </trkpt>
      <trkpt lat="49.75551006384193897247314453125" lon="11.17316200397908687591552734375">
        <ele>291.20001220703125</ele>
        <time>2018-08-17T10:26:55.000Z</time>
      </trkpt>
      <trkpt lat="49.75559346377849578857421875" lon="11.17300450801849365234375">
        <ele>291.20001220703125</ele>
        <time>2018-08-17T10:26:57.000Z</time>
      </trkpt>
      <trkpt lat="49.7558663785457611083984375" lon="11.17308941669762134552001953125">
        <ele>291.20001220703125</ele>
        <time>2018-08-17T10:27:03.000Z</time>
      </trkpt>
      <trkpt lat="49.7559232078492641448974609375" lon="11.17314004339277744293212890625">
        <ele>291.20001220703125</ele>
        <time>2018-08-17T10:27:10.000Z</time>
      </trkpt>
      <trkpt lat="49.7559785284101963043212890625" lon="11.17318312637507915496826171875">
        <ele>291.20001220703125</ele>
        <time>2018-08-17T10:27:15.000Z</time>
      </trkpt>
      <trkpt lat="49.7562886588275432586669921875" lon="11.17349124513566493988037109375">
        <ele>291.79998779296875</ele>
        <time>2018-08-17T10:27:25.000Z</time>
      </trkpt>
      <trkpt lat="49.75631690584123134613037109375" lon="11.173535920679569244384765625">
        <ele>292.20001220703125</ele>
        <time>2018-08-17T10:27:26.000Z</time>
      </trkpt>
      <trkpt lat="49.7563758306205272674560546875" lon="11.17365905083715915679931640625">
        <ele>292.79998779296875</ele>
        <time>2018-08-17T10:27:30.000Z</time>
      </trkpt>
      <trkpt lat="49.7564304806292057037353515625" lon="11.173668019473552703857421875">
        <ele>293.20001220703125</ele>
        <time>2018-08-17T10:27:32.000Z</time>
      </trkpt>
      <trkpt lat="49.7565501742064952850341796875" lon="11.1737349070608615875244140625">
        <ele>294.399993896484375</ele>
        <time>2018-08-17T10:27:36.000Z</time>
      </trkpt>
      <trkpt lat="49.75672443397343158721923828125" lon="11.173918806016445159912109375">
        <ele>295.79998779296875</ele>
        <time>2018-08-17T10:27:42.000Z</time>
      </trkpt>
      <trkpt lat="49.7569846920669078826904296875" lon="11.1742103286087512969970703125">
        <ele>296.399993896484375</ele>
        <time>2018-08-17T10:27:49.000Z</time>
      </trkpt>
      <trkpt lat="49.75703121162950992584228515625" lon="11.17425852455198764801025390625">
        <ele>296.79998779296875</ele>
        <time>2018-08-17T10:27:50.000Z</time>
      </trkpt>
      <trkpt lat="49.75748182274401187896728515625" lon="11.1747786216437816619873046875">
        <ele>297.399993896484375</ele>
        <time>2018-08-17T10:27:59.000Z</time>
      </trkpt>
      <trkpt lat="49.75789287127554416656494140625" lon="11.17530492134392261505126953125">
        <ele>297.79998779296875</ele>
        <time>2018-08-17T10:28:07.000Z</time>
      </trkpt>
      <trkpt lat="49.75829620845615863800048828125" lon="11.17589752189815044403076171875">
        <ele>298.600006103515625</ele>
        <time>2018-08-17T10:28:16.000Z</time>
      </trkpt>
      <trkpt lat="49.7583593241870403289794921875" lon="11.17600698955357074737548828125">
        <ele>299</ele>
        <time>2018-08-17T10:28:18.000Z</time>
      </trkpt>
      <trkpt lat="49.75847273133695125579833984375" lon="11.17623263038694858551025390625">
        <ele>300.20001220703125</ele>
        <time>2018-08-17T10:28:23.000Z</time>
      </trkpt>
      <trkpt lat="49.7585661895573139190673828125" lon="11.17642499506473541259765625">
        <ele>301.399993896484375</ele>
        <time>2018-08-17T10:28:28.000Z</time>
      </trkpt>
      <trkpt lat="49.758608601987361907958984375" lon="11.176531612873077392578125">
        <ele>302.399993896484375</ele>
        <time>2018-08-17T10:28:31.000Z</time>
      </trkpt>
      <trkpt lat="49.75866459310054779052734375" lon="11.17667444050312042236328125">
        <ele>303.79998779296875</ele>
        <time>2018-08-17T10:28:35.000Z</time>
      </trkpt>
      <trkpt lat="49.75867775268852710723876953125" lon="11.1767155118286609649658203125">
        <ele>304.20001220703125</ele>
        <time>2018-08-17T10:28:36.000Z</time>
      </trkpt>
      <trkpt lat="49.7587083466351032257080078125" lon="11.17678902111947536468505859375">
        <ele>305</ele>
        <time>2018-08-17T10:28:38.000Z</time>
      </trkpt>
      <trkpt lat="49.75875033996999263763427734375" lon="11.1768972314894199371337890625">
        <ele>306.20001220703125</ele>
        <time>2018-08-17T10:28:41.000Z</time>
      </trkpt>
      <trkpt lat="49.75879157893359661102294921875" lon="11.1770048551261425018310546875">
        <ele>307.399993896484375</ele>
        <time>2018-08-17T10:28:44.000Z</time>
      </trkpt>
      <trkpt lat="49.75883918814361095428466796875" lon="11.17716570384800434112548828125">
        <ele>308.79998779296875</ele>
        <time>2018-08-17T10:28:48.000Z</time>
      </trkpt>
      <trkpt lat="49.75886165164411067962646484375" lon="11.177243404090404510498046875">
        <ele>309.79998779296875</ele>
        <time>2018-08-17T10:28:50.000Z</time>
      </trkpt>
      <trkpt lat="49.7588957659900188446044921875" lon="11.17736150510609149932861328125">
        <ele>311</ele>
        <time>2018-08-17T10:28:53.000Z</time>
      </trkpt>
      <trkpt lat="49.75892610847949981689453125" lon="11.17753232829272747039794921875">
        <ele>312.20001220703125</ele>
        <time>2018-08-17T10:28:57.000Z</time>
      </trkpt>
      <trkpt lat="49.758954942226409912109375" lon="11.177693344652652740478515625">
        <ele>313.20001220703125</ele>
        <time>2018-08-17T10:29:01.000Z</time>
      </trkpt>
      <trkpt lat="49.75899861194193363189697265625" lon="11.17782535962760448455810546875">
        <ele>314.399993896484375</ele>
        <time>2018-08-17T10:29:05.000Z</time>
      </trkpt>
      <trkpt lat="49.75903448648750782012939453125" lon="11.17792661301791667938232421875">
        <ele>315.399993896484375</ele>
        <time>2018-08-17T10:29:08.000Z</time>
      </trkpt>
      <trkpt lat="49.75903448648750782012939453125" lon="11.1779593862593173980712890625">
        <ele>315.600006103515625</ele>
        <time>2018-08-17T10:29:09.000Z</time>
      </trkpt>
      <trkpt lat="49.759029708802700042724609375" lon="11.17815711535513401031494140625">
        <ele>316.600006103515625</ele>
        <time>2018-08-17T10:29:13.000Z</time>
      </trkpt>
      <trkpt lat="49.7590506635606288909912109375" lon="11.17834386415779590606689453125">
        <ele>317.600006103515625</ele>
        <time>2018-08-17T10:29:17.000Z</time>
      </trkpt>
      <trkpt lat="49.75906650535762310028076171875" lon="11.17846506647765636444091796875">
        <ele>318.79998779296875</ele>
        <time>2018-08-17T10:29:20.000Z</time>
      </trkpt>
      <trkpt lat="49.75908108986914157867431640625" lon="11.17858551442623138427734375">
        <ele>319.79998779296875</ele>
        <time>2018-08-17T10:29:23.000Z</time>
      </trkpt>
      <trkpt lat="49.75909634493291378021240234375" lon="11.178693138062953948974609375">
        <ele>320.79998779296875</ele>
        <time>2018-08-17T10:29:26.000Z</time>
      </trkpt>
      <trkpt lat="49.7591210715472698211669921875" lon="11.17884828709065914154052734375">
        <ele>322</ele>
        <time>2018-08-17T10:29:30.000Z</time>
      </trkpt>
      <trkpt lat="49.7591562755405902862548828125" lon="11.17901022545993328094482421875">
        <ele>323.20001220703125</ele>
        <time>2018-08-17T10:29:34.000Z</time>
      </trkpt>
      <trkpt lat="49.75920908153057098388671875" lon="11.17924131453037261962890625">
        <ele>324.399993896484375</ele>
        <time>2018-08-17T10:29:40.000Z</time>
      </trkpt>
      <trkpt lat="49.7592474706470966339111328125" lon="11.17936746217310428619384765625">
        <ele>325.399993896484375</ele>
        <time>2018-08-17T10:29:44.000Z</time>
      </trkpt>
      <trkpt lat="49.75927068851888179779052734375" lon="11.179434098303318023681640625">
        <ele>326.79998779296875</ele>
        <time>2018-08-17T10:29:46.000Z</time>
      </trkpt>
      <trkpt lat="49.7593076527118682861328125" lon="11.1795370280742645263671875">
        <ele>328</ele>
        <time>2018-08-17T10:29:49.000Z</time>
      </trkpt>
      <trkpt lat="49.7593711875379085540771484375" lon="11.1796964518725872039794921875">
        <ele>329.399993896484375</ele>
        <time>2018-08-17T10:29:54.000Z</time>
      </trkpt>
      <trkpt lat="49.75941150449216365814208984375" lon="11.17978907190263271331787109375">
        <ele>330.399993896484375</ele>
        <time>2018-08-17T10:29:57.000Z</time>
      </trkpt>
      <trkpt lat="49.7594633884727954864501953125" lon="11.17988613434135913848876953125">
        <ele>331.399993896484375</ele>
        <time>2018-08-17T10:30:00.000Z</time>
      </trkpt>
      <trkpt lat="49.759533964097499847412109375" lon="11.180006079375743865966796875">
        <ele>332.79998779296875</ele>
        <time>2018-08-17T10:30:04.000Z</time>
      </trkpt>
      <trkpt lat="49.7596135921776294708251953125" lon="11.18011596612632274627685546875">
        <ele>334.20001220703125</ele>
        <time>2018-08-17T10:30:08.000Z</time>
      </trkpt>
      <trkpt lat="49.75969699211418628692626953125" lon="11.1802013777196407318115234375">
        <ele>335.399993896484375</ele>
        <time>2018-08-17T10:30:12.000Z</time>
      </trkpt>
      <trkpt lat="49.75978902541100978851318359375" lon="11.18028108961880207061767578125">
        <ele>336.600006103515625</ele>
        <time>2018-08-17T10:30:16.000Z</time>
      </trkpt>
      <trkpt lat="49.759855158627033233642578125" lon="11.180338002741336822509765625">
        <ele>337.79998779296875</ele>
        <time>2018-08-17T10:30:19.000Z</time>
      </trkpt>
      <trkpt lat="49.759951047599315643310546875" lon="11.1804126016795635223388671875">
        <ele>338.79998779296875</ele>
        <time>2018-08-17T10:30:23.000Z</time>
      </trkpt>
      <trkpt lat="49.760061018168926239013671875" lon="11.1804970912635326385498046875">
        <ele>339.79998779296875</ele>
        <time>2018-08-17T10:30:27.000Z</time>
      </trkpt>
      <trkpt lat="49.7601708211004734039306640625" lon="11.18057311512529850006103515625">
        <ele>341</ele>
        <time>2018-08-17T10:30:31.000Z</time>
      </trkpt>
      <trkpt lat="49.7603052668273448944091796875" lon="11.18066028691828250885009765625">
        <ele>342</ele>
        <time>2018-08-17T10:30:36.000Z</time>
      </trkpt>
      <trkpt lat="49.760456979274749755859375" lon="11.180771179497241973876953125">
        <ele>343</ele>
        <time>2018-08-17T10:30:41.000Z</time>
      </trkpt>
      <trkpt lat="49.7606046684086322784423828125" lon="11.1808689124882221221923828125">
        <ele>343.399993896484375</ele>
        <time>2018-08-17T10:30:45.000Z</time>
      </trkpt>
      <trkpt lat="49.76108352653682231903076171875" lon="11.18120008148252964019775390625">
        <ele>343.79998779296875</ele>
        <time>2018-08-17T10:30:53.000Z</time>
      </trkpt>
      <trkpt lat="49.7615364007651805877685546875" lon="11.181209050118923187255859375">
        <ele>341.79998779296875</ele>
        <time>2018-08-17T10:30:59.000Z</time>
      </trkpt>
      <trkpt lat="49.76194920949637889862060546875" lon="11.18108290247619152069091796875">
        <ele>340.79998779296875</ele>
        <time>2018-08-17T10:31:05.000Z</time>
      </trkpt>
      <trkpt lat="49.7620215453207492828369140625" lon="11.18107737042009830474853515625">
        <ele>340.79998779296875</ele>
        <time>2018-08-17T10:31:06.000Z</time>
      </trkpt>
      <trkpt lat="49.76232756860554218292236328125" lon="11.181155405938625335693359375">
        <ele>340.600006103515625</ele>
        <time>2018-08-17T10:31:10.000Z</time>
      </trkpt>
      <trkpt lat="49.76282930932939052581787109375" lon="11.1814869940280914306640625">
        <ele>340</ele>
        <time>2018-08-17T10:31:16.000Z</time>
      </trkpt>
      <trkpt lat="49.7630176506936550140380859375" lon="11.18154524825513362884521484375">
        <ele>339.600006103515625</ele>
        <time>2018-08-17T10:31:18.000Z</time>
      </trkpt>
      <trkpt lat="49.76331378333270549774169921875" lon="11.1815733276307582855224609375">
        <ele>338.399993896484375</ele>
        <time>2018-08-17T10:31:21.000Z</time>
      </trkpt>
      <trkpt lat="49.76361318491399288177490234375" lon="11.18162940256297588348388671875">
        <ele>337.399993896484375</ele>
        <time>2018-08-17T10:31:24.000Z</time>
      </trkpt>
      <trkpt lat="49.76379993371665477752685546875" lon="11.18171632289886474609375">
        <ele>336.600006103515625</ele>
        <time>2018-08-17T10:31:26.000Z</time>
      </trkpt>
      <trkpt lat="49.7638856805860996246337890625" lon="11.18177876807749271392822265625">
        <ele>336.20001220703125</ele>
        <time>2018-08-17T10:31:27.000Z</time>
      </trkpt>
      <trkpt lat="49.76412029005587100982666015625" lon="11.1820081807672977447509765625">
        <ele>335</ele>
        <time>2018-08-17T10:31:30.000Z</time>
      </trkpt>
      <trkpt lat="49.76427770219743251800537109375" lon="11.182148158550262451171875">
        <ele>334.20001220703125</ele>
        <time>2018-08-17T10:31:32.000Z</time>
      </trkpt>
      <trkpt lat="49.7643580846488475799560546875" lon="11.1822090111672878265380859375">
        <ele>333.79998779296875</ele>
        <time>2018-08-17T10:31:33.000Z</time>
      </trkpt>
      <trkpt lat="49.764857478439807891845703125" lon="11.182607822120189666748046875">
        <ele>333</ele>
        <time>2018-08-17T10:31:39.000Z</time>
      </trkpt>
      <trkpt lat="49.7649438120424747467041015625" lon="11.1826787330210208892822265625">
        <ele>332.79998779296875</ele>
        <time>2018-08-17T10:31:40.000Z</time>
      </trkpt>
      <trkpt lat="49.7655117698013782501220703125" lon="11.1829459480941295623779296875">
        <ele>331.79998779296875</ele>
        <time>2018-08-17T10:31:46.000Z</time>
      </trkpt>
      <trkpt lat="49.76561176590621471405029296875" lon="11.18298458866775035858154296875">
        <ele>331.399993896484375</ele>
        <time>2018-08-17T10:31:47.000Z</time>
      </trkpt>
      <trkpt lat="49.766014181077480316162109375" lon="11.1831732653081417083740234375">
        <ele>330</ele>
        <time>2018-08-17T10:31:51.000Z</time>
      </trkpt>
      <trkpt lat="49.7663030214607715606689453125" lon="11.1833663843572139739990234375">
        <ele>329</ele>
        <time>2018-08-17T10:31:54.000Z</time>
      </trkpt>
      <trkpt lat="49.7665621899068355560302734375" lon="11.18361524306237697601318359375">
        <ele>327.79998779296875</ele>
        <time>2018-08-17T10:31:57.000Z</time>
      </trkpt>
      <trkpt lat="49.76700198836624622344970703125" lon="11.18415403179824352264404296875">
        <ele>326.79998779296875</ele>
        <time>2018-08-17T10:32:03.000Z</time>
      </trkpt>
      <trkpt lat="49.7672094404697418212890625" lon="11.184400878846645355224609375">
        <ele>326.79998779296875</ele>
        <time>2018-08-17T10:32:06.000Z</time>
      </trkpt>
      <trkpt lat="49.76773850619792938232421875" lon="11.184602044522762298583984375">
        <ele>326.79998779296875</ele>
        <time>2018-08-17T10:32:12.000Z</time>
      </trkpt>
      <trkpt lat="49.76827905513346195220947265625" lon="11.18448645807802677154541015625">
        <ele>326.600006103515625</ele>
        <time>2018-08-17T10:32:17.000Z</time>
      </trkpt>
      <trkpt lat="49.768873751163482666015625" lon="11.184457205235958099365234375">
        <ele>325.399993896484375</ele>
        <time>2018-08-17T10:32:22.000Z</time>
      </trkpt>
      <trkpt lat="49.769117832183837890625" lon="11.1844241805374622344970703125">
        <ele>324</ele>
        <time>2018-08-17T10:32:24.000Z</time>
      </trkpt>
      <trkpt lat="49.76936669088900089263916015625" lon="11.18440934456884860992431640625">
        <ele>322.600006103515625</ele>
        <time>2018-08-17T10:32:26.000Z</time>
      </trkpt>
      <trkpt lat="49.7696153819561004638671875" lon="11.1844821833074092864990234375">
        <ele>321.20001220703125</ele>
        <time>2018-08-17T10:32:28.000Z</time>
      </trkpt>
      <trkpt lat="49.769851751625537872314453125" lon="11.18461369536817073822021484375">
        <ele>320.20001220703125</ele>
        <time>2018-08-17T10:32:30.000Z</time>
      </trkpt>
      <trkpt lat="49.7699685953557491302490234375" lon="11.1846789903938770294189453125">
        <ele>319.399993896484375</ele>
        <time>2018-08-17T10:32:31.000Z</time>
      </trkpt>
      <trkpt lat="49.7702027857303619384765625" lon="11.184804551303386688232421875">
        <ele>317.600006103515625</ele>
        <time>2018-08-17T10:32:33.000Z</time>
      </trkpt>
      <trkpt lat="49.77032004855573177337646484375" lon="11.18486716412007808685302734375">
        <ele>316.399993896484375</ele>
        <time>2018-08-17T10:32:34.000Z</time>
      </trkpt>
      <trkpt lat="49.7705566696822643280029296875" lon="11.18500194512307643890380859375">
        <ele>315.399993896484375</ele>
        <time>2018-08-17T10:32:36.000Z</time>
      </trkpt>
      <trkpt lat="49.7707955539226531982421875" lon="11.18515558540821075439453125">
        <ele>314</ele>
        <time>2018-08-17T10:32:38.000Z</time>
      </trkpt>
      <trkpt lat="49.77102329023182392120361328125" lon="11.1853374727070331573486328125">
        <ele>313</ele>
        <time>2018-08-17T10:32:40.000Z</time>
      </trkpt>
      <trkpt lat="49.7713405452668666839599609375" lon="11.1856388859450817108154296875">
        <ele>311.600006103515625</ele>
        <time>2018-08-17T10:32:43.000Z</time>
      </trkpt>
      <trkpt lat="49.77154179476201534271240234375" lon="11.185833178460597991943359375">
        <ele>310.399993896484375</ele>
        <time>2018-08-17T10:32:45.000Z</time>
      </trkpt>
      <trkpt lat="49.771736003458499908447265625" lon="11.18602487258613109588623046875">
        <ele>308.79998779296875</ele>
        <time>2018-08-17T10:32:47.000Z</time>
      </trkpt>
      <trkpt lat="49.77193037979304790496826171875" lon="11.1862031556665897369384765625">
        <ele>307.600006103515625</ele>
        <time>2018-08-17T10:32:49.000Z</time>
      </trkpt>
      <trkpt lat="49.77212165482342243194580078125" lon="11.18636928498744964599609375">
        <ele>306.399993896484375</ele>
        <time>2018-08-17T10:32:51.000Z</time>
      </trkpt>
      <trkpt lat="49.77241468615829944610595703125" lon="11.18659031577408313751220703125">
        <ele>305.20001220703125</ele>
        <time>2018-08-17T10:32:54.000Z</time>
      </trkpt>
      <trkpt lat="49.77262280881404876708984375" lon="11.18669986724853515625">
        <ele>305</ele>
        <time>2018-08-17T10:32:56.000Z</time>
      </trkpt>
      <trkpt lat="49.7731751762330532073974609375" lon="11.18672828190028667449951171875">
        <ele>304.399993896484375</ele>
        <time>2018-08-17T10:33:01.000Z</time>
      </trkpt>
      <trkpt lat="49.7732874937355518341064453125" lon="11.186688803136348724365234375">
        <ele>304.20001220703125</ele>
        <time>2018-08-17T10:33:02.000Z</time>
      </trkpt>
      <trkpt lat="49.773718155920505523681640625" lon="11.18642158806324005126953125">
        <ele>303</ele>
        <time>2018-08-17T10:33:06.000Z</time>
      </trkpt>
      <trkpt lat="49.77402023971080780029296875" lon="11.1861810274422168731689453125">
        <ele>301.600006103515625</ele>
        <time>2018-08-17T10:33:09.000Z</time>
      </trkpt>
      <trkpt lat="49.77421880699694156646728515625" lon="11.1860422231256961822509765625">
        <ele>300.399993896484375</ele>
        <time>2018-08-17T10:33:11.000Z</time>
      </trkpt>
      <trkpt lat="49.77441544644534587860107421875" lon="11.18592110462486743927001953125">
        <ele>299.20001220703125</ele>
        <time>2018-08-17T10:33:13.000Z</time>
      </trkpt>
      <trkpt lat="49.7747020237147808074951171875" lon="11.1857501976191997528076171875">
        <ele>297.79998779296875</ele>
        <time>2018-08-17T10:33:16.000Z</time>
      </trkpt>
      <trkpt lat="49.77498642168939113616943359375" lon="11.18559387512505054473876953125">
        <ele>296.600006103515625</ele>
        <time>2018-08-17T10:33:19.000Z</time>
      </trkpt>
      <trkpt lat="49.77545530535280704498291015625" lon="11.18533789180219173431396484375">
        <ele>295.600006103515625</ele>
        <time>2018-08-17T10:33:24.000Z</time>
      </trkpt>
      <trkpt lat="49.77597749792039394378662109375" lon="11.1849899590015411376953125">
        <ele>294.600006103515625</ele>
        <time>2018-08-17T10:33:30.000Z</time>
      </trkpt>
      <trkpt lat="49.7760585509240627288818359375" lon="11.18492147885262966156005859375">
        <ele>294.399993896484375</ele>
        <time>2018-08-17T10:33:31.000Z</time>
      </trkpt>
      <trkpt lat="49.77622208185493946075439453125" lon="11.18480899371206760406494140625">
        <ele>294.399993896484375</ele>
        <time>2018-08-17T10:33:33.000Z</time>
      </trkpt>
      <trkpt lat="49.77659272961318492889404296875" lon="11.1852134205400943756103515625">
        <ele>294.20001220703125</ele>
        <time>2018-08-17T10:33:39.000Z</time>
      </trkpt>
      <trkpt lat="49.77691057138144969940185546875" lon="11.18596100248396396636962890625">
        <ele>294.20001220703125</ele>
        <time>2018-08-17T10:33:47.000Z</time>
      </trkpt>
      <trkpt lat="49.77719589136540889739990234375" lon="11.18592898361384868621826171875">
        <ele>294.399993896484375</ele>
        <time>2018-08-17T10:33:52.000Z</time>
      </trkpt>
      <trkpt lat="49.77739253081381320953369140625" lon="11.18579654954373836517333984375">
        <ele>294.600006103515625</ele>
        <time>2018-08-17T10:33:55.000Z</time>
      </trkpt>
      <trkpt lat="49.7778033278882503509521484375" lon="11.1859627626836299896240234375">
        <ele>294.600006103515625</ele>
        <time>2018-08-17T10:34:01.000Z</time>
      </trkpt>
      <trkpt lat="49.7778630070388317108154296875" lon="11.18601079098880290985107421875">
        <ele>294.600006103515625</ele>
        <time>2018-08-17T10:34:02.000Z</time>
      </trkpt>
      <trkpt lat="49.77822300978004932403564453125" lon="11.185858659446239471435546875">
        <ele>294.600006103515625</ele>
        <time>2018-08-17T10:34:08.000Z</time>
      </trkpt>
      <trkpt lat="49.778447560966014862060546875" lon="11.18560661561787128448486328125">
        <ele>295</ele>
        <time>2018-08-17T10:34:12.000Z</time>
      </trkpt>
      <trkpt lat="49.77889037691056728363037109375" lon="11.18505634367465972900390625">
        <ele>295</ele>
        <time>2018-08-17T10:34:21.000Z</time>
      </trkpt>
      <trkpt lat="49.7793583385646343231201171875" lon="11.18452887050807476043701171875">
        <ele>294.600006103515625</ele>
        <time>2018-08-17T10:34:30.000Z</time>
      </trkpt>
      <trkpt lat="49.77993945591151714324951171875" lon="11.184284873306751251220703125">
        <ele>294.399993896484375</ele>
        <time>2018-08-17T10:34:39.000Z</time>
      </trkpt>
      <trkpt lat="49.7801153920590877532958984375" lon="11.1841477453708648681640625">
        <ele>294.399993896484375</ele>
        <time>2018-08-17T10:34:42.000Z</time>
      </trkpt>
      <trkpt lat="49.78053004480898380279541015625" lon="11.18362328968942165374755859375">
        <ele>294.20001220703125</ele>
        <time>2018-08-17T10:34:53.000Z</time>
      </trkpt>
      <trkpt lat="49.78066801093518733978271484375" lon="11.1834646202623844146728515625">
        <ele>294.20001220703125</ele>
        <time>2018-08-17T10:34:57.000Z</time>
      </trkpt>
      <trkpt lat="49.78087722323834896087646484375" lon="11.18368280120193958282470703125">
        <ele>294.399993896484375</ele>
        <time>2018-08-17T10:35:03.000Z</time>
      </trkpt>
      <trkpt lat="49.7811815701425075531005859375" lon="11.18441001512110233306884765625">
        <ele>294.600006103515625</ele>
        <time>2018-08-17T10:35:13.000Z</time>
      </trkpt>
      <trkpt lat="49.781509302556514739990234375" lon="11.18512834422290325164794921875">
        <ele>294.79998779296875</ele>
        <time>2018-08-17T10:35:26.000Z</time>
      </trkpt>
      <trkpt lat="49.78178129531443119049072265625" lon="11.18567920289933681488037109375">
        <ele>295</ele>
        <time>2018-08-17T10:35:35.000Z</time>
      </trkpt>
      <trkpt lat="49.78190316818654537200927734375" lon="11.1859040893614292144775390625">
        <ele>295</ele>
        <time>2018-08-17T10:35:39.000Z</time>
      </trkpt>
      <trkpt lat="49.78203359059989452362060546875" lon="11.18617306463420391082763671875">
        <ele>295.399993896484375</ele>
        <time>2018-08-17T10:35:48.000Z</time>
      </trkpt>
      <trkpt lat="49.7820876538753509521484375" lon="11.18622955866158008575439453125">
        <ele>295.600006103515625</ele>
        <time>2018-08-17T10:37:08.000Z</time>
      </trkpt>
      <trkpt lat="49.782486967742443084716796875" lon="11.186870522797107696533203125">
        <ele>295.79998779296875</ele>
        <time>2018-08-17T10:37:24.000Z</time>
      </trkpt>
      <trkpt lat="49.78252996690571308135986328125" lon="11.18694855831563472747802734375">
        <ele>295.79998779296875</ele>
        <time>2018-08-17T10:37:26.000Z</time>
      </trkpt>
      <trkpt lat="49.7825347445905208587646484375" lon="11.18718333542346954345703125">
        <ele>295.79998779296875</ele>
        <time>2018-08-17T10:37:32.000Z</time>
      </trkpt>
      <trkpt lat="49.7828609682619571685791015625" lon="11.18772438727319240570068359375">
        <ele>295.600006103515625</ele>
        <time>2018-08-17T10:37:46.000Z</time>
      </trkpt>
      <trkpt lat="49.782913438975811004638671875" lon="11.1875747703015804290771484375">
        <ele>296.600006103515625</ele>
        <time>2018-08-17T10:47:35.000Z</time>
      </trkpt>
      <trkpt lat="49.7829669155180454254150390625" lon="11.1875278316438198089599609375">
        <ele>296.600006103515625</ele>
        <time>2018-08-17T10:47:40.000Z</time>
      </trkpt>
      <trkpt lat="49.78334284387528896331787109375" lon="11.1880183406174182891845703125">
        <ele>297</ele>
        <time>2018-08-17T10:47:53.000Z</time>
      </trkpt>
      <trkpt lat="49.783733524382114410400390625" lon="11.1885251104831695556640625">
        <ele>297.20001220703125</ele>
        <time>2018-08-17T10:48:03.000Z</time>
      </trkpt>
      <trkpt lat="49.78413191623985767364501953125" lon="11.18871755897998809814453125">
        <ele>297.399993896484375</ele>
        <time>2018-08-17T10:48:13.000Z</time>
      </trkpt>
      <trkpt lat="49.78461538441479206085205078125" lon="11.1892493069171905517578125">
        <ele>297.20001220703125</ele>
        <time>2018-08-17T10:48:24.000Z</time>
      </trkpt>
      <trkpt lat="49.7851113416254520416259765625" lon="11.18971056304872035980224609375">
        <ele>297.20001220703125</ele>
        <time>2018-08-17T10:48:34.000Z</time>
      </trkpt>
      <trkpt lat="49.7854727692902088165283203125" lon="11.19004181586205959320068359375">
        <ele>297.20001220703125</ele>
        <time>2018-08-17T10:48:41.000Z</time>
      </trkpt>
      <trkpt lat="49.7858033515512943267822265625" lon="11.19028723798692226409912109375">
        <ele>297.399993896484375</ele>
        <time>2018-08-17T10:48:47.000Z</time>
      </trkpt>
      <trkpt lat="49.7859768569469451904296875" lon="11.19036552496254444122314453125">
        <ele>297.399993896484375</ele>
        <time>2018-08-17T10:48:50.000Z</time>
      </trkpt>
      <trkpt lat="49.78614793159067630767822265625" lon="11.19041078723967075347900390625">
        <ele>297.79998779296875</ele>
        <time>2018-08-17T10:48:53.000Z</time>
      </trkpt>
      <trkpt lat="49.786661155521869659423828125" lon="11.19072251021862030029296875">
        <ele>297.79998779296875</ele>
        <time>2018-08-17T10:49:03.000Z</time>
      </trkpt>
      <trkpt lat="49.78720488958060741424560546875" lon="11.1910088360309600830078125">
        <ele>297.79998779296875</ele>
        <time>2018-08-17T10:49:12.000Z</time>
      </trkpt>
      <trkpt lat="49.787756837904453277587890625" lon="11.1912346445024013519287109375">
        <ele>298</ele>
        <time>2018-08-17T10:49:21.000Z</time>
      </trkpt>
      <trkpt lat="49.787870161235332489013671875" lon="11.19127906858921051025390625">
        <ele>298.20001220703125</ele>
        <time>2018-08-17T10:49:23.000Z</time>
      </trkpt>
      <trkpt lat="49.7879269905388355255126953125" lon="11.19130312465131282806396484375">
        <ele>298.20001220703125</ele>
        <time>2018-08-17T10:49:24.000Z</time>
      </trkpt>
      <trkpt lat="49.78816797025501728057861328125" lon="11.19138945825397968292236328125">
        <ele>298.399993896484375</ele>
        <time>2018-08-17T10:49:28.000Z</time>
      </trkpt>
      <trkpt lat="49.78868714533746242523193359375" lon="11.191624738276004791259765625">
        <ele>299</ele>
        <time>2018-08-17T10:49:37.000Z</time>
      </trkpt>
      <trkpt lat="49.78903792798519134521484375" lon="11.1917875148355960845947265625">
        <ele>299.399993896484375</ele>
        <time>2018-08-17T10:49:43.000Z</time>
      </trkpt>
      <trkpt lat="49.78956674225628376007080078125" lon="11.19203905574977397918701171875">
        <ele>300.20001220703125</ele>
        <time>2018-08-17T10:49:52.000Z</time>
      </trkpt>
      <trkpt lat="49.78962264955043792724609375" lon="11.192067302763462066650390625">
        <ele>300.399993896484375</ele>
        <time>2018-08-17T10:49:53.000Z</time>
      </trkpt>
      <trkpt lat="49.78977528400719165802001953125" lon="11.19217148981988430023193359375">
        <ele>300.399993896484375</ele>
        <time>2018-08-17T10:49:56.000Z</time>
      </trkpt>
      <trkpt lat="49.7900724224746227264404296875" lon="11.19245362468063831329345703125">
        <ele>301.399993896484375</ele>
        <time>2018-08-17T10:50:03.000Z</time>
      </trkpt>
      <trkpt lat="49.79026109911501407623291015625" lon="11.1926595680415630340576171875">
        <ele>302.79998779296875</ele>
        <time>2018-08-17T10:50:08.000Z</time>
      </trkpt>
      <trkpt lat="49.7904469259083271026611328125" lon="11.1928593926131725311279296875">
        <ele>304</ele>
        <time>2018-08-17T10:50:13.000Z</time>
      </trkpt>
      <trkpt lat="49.79058145545423030853271484375" lon="11.19302384555339813232421875">
        <ele>305.20001220703125</ele>
        <time>2018-08-17T10:50:17.000Z</time>
      </trkpt>
      <trkpt lat="49.7907154820859432220458984375" lon="11.19318184442818164825439453125">
        <ele>306.399993896484375</ele>
        <time>2018-08-17T10:50:21.000Z</time>
      </trkpt>
      <trkpt lat="49.79074691422283649444580078125" lon="11.19322325102984905242919921875">
        <ele>306.600006103515625</ele>
        <time>2018-08-17T10:50:22.000Z</time>
      </trkpt>
      <trkpt lat="49.79087498970329761505126953125" lon="11.1933844350278377532958984375">
        <ele>307.600006103515625</ele>
        <time>2018-08-17T10:50:26.000Z</time>
      </trkpt>
      <trkpt lat="49.79101178236305713653564453125" lon="11.1935527436435222625732421875">
        <ele>308.79998779296875</ele>
        <time>2018-08-17T10:50:30.000Z</time>
      </trkpt>
      <trkpt lat="49.79104497469961643218994140625" lon="11.19359708391129970550537109375">
        <ele>309</ele>
        <time>2018-08-17T10:50:31.000Z</time>
      </trkpt>
      <trkpt lat="49.79107598774135112762451171875" lon="11.1936432681977748870849609375">
        <ele>309.399993896484375</ele>
        <time>2018-08-17T10:50:32.000Z</time>
      </trkpt>
      <trkpt lat="49.791137762367725372314453125" lon="11.1937327869236469268798828125">
        <ele>310</ele>
        <time>2018-08-17T10:50:34.000Z</time>
      </trkpt>
      <trkpt lat="49.79126072488725185394287109375" lon="11.19388659484684467315673828125">
        <ele>311.20001220703125</ele>
        <time>2018-08-17T10:50:38.000Z</time>
      </trkpt>
      <trkpt lat="49.7914054803550243377685546875" lon="11.19409396313130855560302734375">
        <ele>312.399993896484375</ele>
        <time>2018-08-17T10:50:43.000Z</time>
      </trkpt>
      <trkpt lat="49.79151838459074497222900390625" lon="11.194259338080883026123046875">
        <ele>313.399993896484375</ele>
        <time>2018-08-17T10:50:47.000Z</time>
      </trkpt>
      <trkpt lat="49.7916619665920734405517578125" lon="11.19445656426250934600830078125">
        <ele>314.399993896484375</ele>
        <time>2018-08-17T10:50:52.000Z</time>
      </trkpt>
      <trkpt lat="49.791816361248493194580078125" lon="11.19467700831592082977294921875">
        <ele>315.600006103515625</ele>
        <time>2018-08-17T10:50:57.000Z</time>
      </trkpt>
      <trkpt lat="49.79204074479639530181884765625" lon="11.19500222615897655487060546875">
        <ele>316.600006103515625</ele>
        <time>2018-08-17T10:51:04.000Z</time>
      </trkpt>
      <trkpt lat="49.7924019210040569305419921875" lon="11.19562290608882904052734375">
        <ele>316.79998779296875</ele>
        <time>2018-08-17T10:51:14.000Z</time>
      </trkpt>
      <trkpt lat="49.792445339262485504150390625" lon="11.19569591246545314788818359375">
        <ele>316.79998779296875</ele>
        <time>2018-08-17T10:51:15.000Z</time>
      </trkpt>
      <trkpt lat="49.79287616908550262451171875" lon="11.19631768204271793365478515625">
        <ele>315.600006103515625</ele>
        <time>2018-08-17T10:51:24.000Z</time>
      </trkpt>
      <trkpt lat="49.79325092397630214691162109375" lon="11.1967462487518787384033203125">
        <ele>314.600006103515625</ele>
        <time>2018-08-17T10:51:31.000Z</time>
      </trkpt>
      <trkpt lat="49.7937493957579135894775390625" lon="11.1972342431545257568359375">
        <ele>313.399993896484375</ele>
        <time>2018-08-17T10:51:39.000Z</time>
      </trkpt>
      <trkpt lat="49.7940363921225070953369140625" lon="11.19743767194449901580810546875">
        <ele>312.399993896484375</ele>
        <time>2018-08-17T10:51:43.000Z</time>
      </trkpt>
      <trkpt lat="49.79457392357289791107177734375" lon="11.19773112237453460693359375">
        <ele>311.600006103515625</ele>
        <time>2018-08-17T10:51:51.000Z</time>
      </trkpt>
      <trkpt lat="49.79511640034615993499755859375" lon="11.19806430302560329437255859375">
        <ele>312.600006103515625</ele>
        <time>2018-08-17T10:52:01.000Z</time>
      </trkpt>
      <trkpt lat="49.7955498285591602325439453125" lon="11.19844467379152774810791015625">
        <ele>313.399993896484375</ele>
        <time>2018-08-17T10:52:08.000Z</time>
      </trkpt>
      <trkpt lat="49.7961157746613025665283203125" lon="11.1985550634562969207763671875">
        <ele>312.399993896484375</ele>
        <time>2018-08-17T10:52:14.000Z</time>
      </trkpt>
      <trkpt lat="49.79635625146329402923583984375" lon="11.19857735931873321533203125">
        <ele>310.79998779296875</ele>
        <time>2018-08-17T10:52:17.000Z</time>
      </trkpt>
      <trkpt lat="49.796414338052272796630859375" lon="11.1985981464385986328125">
        <ele>310.20001220703125</ele>
        <time>2018-08-17T10:52:18.000Z</time>
      </trkpt>
      <trkpt lat="49.79645264334976673126220703125" lon="11.19863511063158512115478515625">
        <ele>309.600006103515625</ele>
        <time>2018-08-17T10:52:19.000Z</time>
      </trkpt>
      <trkpt lat="49.7965244762599468231201171875" lon="11.19872295297682285308837890625">
        <ele>308.399993896484375</ele>
        <time>2018-08-17T10:52:21.000Z</time>
      </trkpt>
      <trkpt lat="49.79663101024925708770751953125" lon="11.19876000098884105682373046875">
        <ele>307.20001220703125</ele>
        <time>2018-08-17T10:52:23.000Z</time>
      </trkpt>
      <trkpt lat="49.796760343015193939208984375" lon="11.19876871816813945770263671875">
        <ele>306.20001220703125</ele>
        <time>2018-08-17T10:52:25.000Z</time>
      </trkpt>
      <trkpt lat="49.79696276597678661346435546875" lon="11.198771484196186065673828125">
        <ele>305.20001220703125</ele>
        <time>2018-08-17T10:52:28.000Z</time>
      </trkpt>
      <trkpt lat="49.79702864773571491241455078125" lon="11.19875916279852390289306640625">
        <ele>305.20001220703125</ele>
        <time>2018-08-17T10:52:29.000Z</time>
      </trkpt>
      <trkpt lat="49.79721858166158199310302734375" lon="11.19872077368199825286865234375">
        <ele>304.79998779296875</ele>
        <time>2018-08-17T10:52:32.000Z</time>
      </trkpt>
      <trkpt lat="49.79746886529028415679931640625" lon="11.1990247853100299835205078125">
        <ele>304.20001220703125</ele>
        <time>2018-08-17T10:52:37.000Z</time>
      </trkpt>
      <trkpt lat="49.7977123595774173736572265625" lon="11.19916887022554874420166015625">
        <ele>304.20001220703125</ele>
        <time>2018-08-17T10:52:41.000Z</time>
      </trkpt>
      <trkpt lat="49.7982340492308139801025390625" lon="11.1994586326181888580322265625">
        <ele>303.399993896484375</ele>
        <time>2018-08-17T10:52:50.000Z</time>
      </trkpt>
      <trkpt lat="49.79844066314399242401123046875" lon="11.19966088794171810150146484375">
        <ele>303.399993896484375</ele>
        <time>2018-08-17T10:52:54.000Z</time>
      </trkpt>
      <trkpt lat="49.79860645718872547149658203125" lon="11.19995735585689544677734375">
        <ele>303.20001220703125</ele>
        <time>2018-08-17T10:52:58.000Z</time>
      </trkpt>
      <trkpt lat="49.7987443394958972930908203125" lon="11.20033429004251956939697265625">
        <ele>303.20001220703125</ele>
        <time>2018-08-17T10:53:03.000Z</time>
      </trkpt>
      <trkpt lat="49.798768647015094757080078125" lon="11.20040000416338443756103515625">
        <ele>303.20001220703125</ele>
        <time>2018-08-17T10:53:04.000Z</time>
      </trkpt>
      <trkpt lat="49.7989909350872039794921875" lon="11.20050846599042415618896484375">
        <ele>303</ele>
        <time>2018-08-17T10:53:16.000Z</time>
      </trkpt>
      <trkpt lat="49.7990172542631626129150390625" lon="11.2005103938281536102294921875">
        <ele>302.79998779296875</ele>
        <time>2018-08-17T10:53:21.000Z</time>
      </trkpt>
      <trkpt lat="49.79916687123477458953857421875" lon="11.20047091506421566009521484375">
        <ele>302.600006103515625</ele>
        <time>2018-08-17T10:53:26.000Z</time>
      </trkpt>
      <trkpt lat="49.7994844615459442138671875" lon="11.20023454539477825164794921875">
        <ele>302.399993896484375</ele>
        <time>2018-08-17T10:53:33.000Z</time>
      </trkpt>
      <trkpt lat="49.79991185478866100311279296875" lon="11.19984327815473079681396484375">
        <ele>302.20001220703125</ele>
        <time>2018-08-17T10:53:42.000Z</time>
      </trkpt>
      <trkpt lat="49.80001327581703662872314453125" lon="11.19980304501950740814208984375">
        <ele>302.20001220703125</ele>
        <time>2018-08-17T10:53:44.000Z</time>
      </trkpt>
      <trkpt lat="49.80032357387244701385498046875" lon="11.19985677301883697509765625">
        <ele>302.20001220703125</ele>
        <time>2018-08-17T10:53:50.000Z</time>
      </trkpt>
      <trkpt lat="49.80042533017694950103759765625" lon="11.199843697249889373779296875">
        <ele>302.399993896484375</ele>
        <time>2018-08-17T10:53:52.000Z</time>
      </trkpt>
      <trkpt lat="49.80071517638862133026123046875" lon="11.19961009360849857330322265625">
        <ele>302.399993896484375</ele>
        <time>2018-08-17T10:53:58.000Z</time>
      </trkpt>
      <trkpt lat="49.80085171759128570556640625" lon="11.19945838116109371185302734375">
        <ele>302.600006103515625</ele>
        <time>2018-08-17T10:54:01.000Z</time>
      </trkpt>
      <trkpt lat="49.8009846545755863189697265625" lon="11.1993090994656085968017578125">
        <ele>302.79998779296875</ele>
        <time>2018-08-17T10:54:04.000Z</time>
      </trkpt>
      <trkpt lat="49.80106738395988941192626953125" lon="11.19922854937613010406494140625">
        <ele>303</ele>
        <time>2018-08-17T10:54:06.000Z</time>
      </trkpt>
      <trkpt lat="49.80124943889677524566650390625" lon="11.1991099454462528228759765625">
        <ele>303.600006103515625</ele>
        <time>2018-08-17T10:54:10.000Z</time>
      </trkpt>
      <trkpt lat="49.8015653528273105621337890625" lon="11.19899720884859561920166015625">
        <ele>304.399993896484375</ele>
        <time>2018-08-17T10:54:16.000Z</time>
      </trkpt>
      <trkpt lat="49.80192200280725955963134765625" lon="11.19880358688533306121826171875">
        <ele>305</ele>
        <time>2018-08-17T10:54:23.000Z</time>
      </trkpt>
      <trkpt lat="49.80233003385365009307861328125" lon="11.19854173623025417327880859375">
        <ele>305.399993896484375</ele>
        <time>2018-08-17T10:54:31.000Z</time>
      </trkpt>
      <trkpt lat="49.8024883680045604705810546875" lon="11.198414079844951629638671875">
        <ele>305.79998779296875</ele>
        <time>2018-08-17T10:54:34.000Z</time>
      </trkpt>
      <trkpt lat="49.80285692028701305389404296875" lon="11.19810889475047588348388671875">
        <ele>306</ele>
        <time>2018-08-17T10:54:41.000Z</time>
      </trkpt>
      <trkpt lat="49.8034043423831462860107421875" lon="11.1979592777788639068603515625">
        <ele>305.79998779296875</ele>
        <time>2018-08-17T10:54:50.000Z</time>
      </trkpt>
      <trkpt lat="49.80364532209932804107666015625" lon="11.1980749480426311492919921875">
        <ele>306</ele>
        <time>2018-08-17T10:54:54.000Z</time>
      </trkpt>
      <trkpt lat="49.803882278501987457275390625" lon="11.19823009707033634185791015625">
        <ele>306.20001220703125</ele>
        <time>2018-08-17T10:54:58.000Z</time>
      </trkpt>
      <trkpt lat="49.8039448074996471405029296875" lon="11.19825281202793121337890625">
        <ele>306.20001220703125</ele>
        <time>2018-08-17T10:54:59.000Z</time>
      </trkpt>
      <trkpt lat="49.80419802479445934295654296875" lon="11.19825943373143672943115234375">
        <ele>306.20001220703125</ele>
        <time>2018-08-17T10:55:03.000Z</time>
      </trkpt>
      <trkpt lat="49.80466607026755809783935546875" lon="11.1980964057147502899169921875">
        <ele>306.399993896484375</ele>
        <time>2018-08-17T10:55:11.000Z</time>
      </trkpt>
      <trkpt lat="49.80503101833164691925048828125" lon="11.19785492308437824249267578125">
        <ele>306.79998779296875</ele>
        <time>2018-08-17T10:55:17.000Z</time>
      </trkpt>
      <trkpt lat="49.80513964779675006866455078125" lon="11.19774025864899158477783203125">
        <ele>306.79998779296875</ele>
        <time>2018-08-17T10:55:19.000Z</time>
      </trkpt>
      <trkpt lat="49.80539797805249691009521484375" lon="11.1974649131298065185546875">
        <ele>307.20001220703125</ele>
        <time>2018-08-17T10:55:24.000Z</time>
      </trkpt>
      <trkpt lat="49.80593425221741199493408203125" lon="11.19709786958992481231689453125">
        <ele>307.600006103515625</ele>
        <time>2018-08-17T10:55:33.000Z</time>
      </trkpt>
      <trkpt lat="49.806254692375659942626953125" lon="11.1969041638076305389404296875">
        <ele>308</ele>
        <time>2018-08-17T10:55:38.000Z</time>
      </trkpt>
      <trkpt lat="49.80675249360501766204833984375" lon="11.19656578637659549713134765625">
        <ele>308.399993896484375</ele>
        <time>2018-08-17T10:55:46.000Z</time>
      </trkpt>
      <trkpt lat="49.80721031315624713897705078125" lon="11.1962694860994815826416015625">
        <ele>309</ele>
        <time>2018-08-17T10:55:54.000Z</time>
      </trkpt>
      <trkpt lat="49.80757945217192173004150390625" lon="11.19604669511318206787109375">
        <ele>310.20001220703125</ele>
        <time>2018-08-17T10:56:00.000Z</time>
      </trkpt>
      <trkpt lat="49.8081136308610439300537109375" lon="11.1956596188247203826904296875">
        <ele>310.79998779296875</ele>
        <time>2018-08-17T10:56:09.000Z</time>
      </trkpt>
      <trkpt lat="49.808477573096752166748046875" lon="11.1954225786030292510986328125">
        <ele>311.20001220703125</ele>
        <time>2018-08-17T10:56:15.000Z</time>
      </trkpt>
      <trkpt lat="49.80891753919422626495361328125" lon="11.19523859582841396331787109375">
        <ele>311.600006103515625</ele>
        <time>2018-08-17T10:56:22.000Z</time>
      </trkpt>
      <trkpt lat="49.80936295352876186370849609375" lon="11.19512946344912052154541015625">
        <ele>312</ele>
        <time>2018-08-17T10:56:29.000Z</time>
      </trkpt>
      <trkpt lat="49.80994172394275665283203125" lon="11.19510197080671787261962890625">
        <ele>312.600006103515625</ele>
        <time>2018-08-17T10:56:38.000Z</time>
      </trkpt>
      <trkpt lat="49.81018857099115848541259765625" lon="11.1951090954244136810302734375">
        <ele>312.79998779296875</ele>
        <time>2018-08-17T10:56:42.000Z</time>
      </trkpt>
      <trkpt lat="49.8103740625083446502685546875" lon="11.195121668279170989990234375">
        <ele>312.79998779296875</ele>
        <time>2018-08-17T10:56:45.000Z</time>
      </trkpt>
      <trkpt lat="49.81095492839813232421875" lon="11.19513616897165775299072265625">
        <ele>313.600006103515625</ele>
        <time>2018-08-17T10:56:54.000Z</time>
      </trkpt>
      <trkpt lat="49.811281152069568634033203125" lon="11.1951624043285846710205078125">
        <ele>313.79998779296875</ele>
        <time>2018-08-17T10:56:59.000Z</time>
      </trkpt>
      <trkpt lat="49.81188188306987285614013671875" lon="11.1951798386871814727783203125">
        <ele>314.600006103515625</ele>
        <time>2018-08-17T10:57:08.000Z</time>
      </trkpt>
      <trkpt lat="49.81229058466851711273193359375" lon="11.1951372586190700531005859375">
        <ele>314.79998779296875</ele>
        <time>2018-08-17T10:57:14.000Z</time>
      </trkpt>
      <trkpt lat="49.812834821641445159912109375" lon="11.19498680345714092254638671875">
        <ele>315.20001220703125</ele>
        <time>2018-08-17T10:57:22.000Z</time>
      </trkpt>
      <trkpt lat="49.81334544718265533447265625" lon="11.19482285343110561370849609375">
        <ele>315.79998779296875</ele>
        <time>2018-08-17T10:57:30.000Z</time>
      </trkpt>
      <trkpt lat="49.8139273189008235931396484375" lon="11.19460173882544040679931640625">
        <ele>316.20001220703125</ele>
        <time>2018-08-17T10:57:39.000Z</time>
      </trkpt>
      <trkpt lat="49.814315401017665863037109375" lon="11.19444005191326141357421875">
        <ele>316.600006103515625</ele>
        <time>2018-08-17T10:57:45.000Z</time>
      </trkpt>
      <trkpt lat="49.814890064299106597900390625" lon="11.1941993236541748046875">
        <ele>317.399993896484375</ele>
        <time>2018-08-17T10:57:54.000Z</time>
      </trkpt>
      <trkpt lat="49.81508108787238597869873046875" lon="11.19412757456302642822265625">
        <ele>317.600006103515625</ele>
        <time>2018-08-17T10:57:57.000Z</time>
      </trkpt>
      <trkpt lat="49.8155285976827144622802734375" lon="11.19394225068390369415283203125">
        <ele>317.600006103515625</ele>
        <time>2018-08-17T10:58:04.000Z</time>
      </trkpt>
      <trkpt lat="49.81607886962592601776123046875" lon="11.1936628818511962890625">
        <ele>318</ele>
        <time>2018-08-17T10:58:13.000Z</time>
      </trkpt>
      <trkpt lat="49.816638194024562835693359375" lon="11.19337831623852252960205078125">
        <ele>318.79998779296875</ele>
        <time>2018-08-17T10:58:22.000Z</time>
      </trkpt>
      <trkpt lat="49.81721260584890842437744140625" lon="11.19323196820914745330810546875">
        <ele>319.399993896484375</ele>
        <time>2018-08-17T10:58:31.000Z</time>
      </trkpt>
      <trkpt lat="49.8177518136799335479736328125" lon="11.193249486386775970458984375">
        <ele>319.600006103515625</ele>
        <time>2018-08-17T10:58:39.000Z</time>
      </trkpt>
      <trkpt lat="49.817821718752384185791015625" lon="11.193260215222835540771484375">
        <ele>319.79998779296875</ele>
        <time>2018-08-17T10:58:40.000Z</time>
      </trkpt>
      <trkpt lat="49.8183526284992694854736328125" lon="11.19343715719878673553466796875">
        <ele>320.20001220703125</ele>
        <time>2018-08-17T10:58:48.000Z</time>
      </trkpt>
      <trkpt lat="49.81889627873897552490234375" lon="11.19369548745453357696533203125">
        <ele>320.399993896484375</ele>
        <time>2018-08-17T10:58:57.000Z</time>
      </trkpt>
      <trkpt lat="49.819354601204395294189453125" lon="11.193802356719970703125">
        <ele>320.600006103515625</ele>
        <time>2018-08-17T10:59:04.000Z</time>
      </trkpt>
      <trkpt lat="49.8196122609078884124755859375" lon="11.19378802366554737091064453125">
        <ele>320.79998779296875</ele>
        <time>2018-08-17T10:59:08.000Z</time>
      </trkpt>
      <trkpt lat="49.8196809925138950347900390625" lon="11.1937803961336612701416015625">
        <ele>320.79998779296875</ele>
        <time>2018-08-17T10:59:09.000Z</time>
      </trkpt>
      <trkpt lat="49.820144511759281158447265625" lon="11.1936550028622150421142578125">
        <ele>321.20001220703125</ele>
        <time>2018-08-17T10:59:16.000Z</time>
      </trkpt>
      <trkpt lat="49.82064801268279552459716796875" lon="11.193520724773406982421875">
        <ele>321.79998779296875</ele>
        <time>2018-08-17T10:59:24.000Z</time>
      </trkpt>
      <trkpt lat="49.820709787309169769287109375" lon="11.1935175396502017974853515625">
        <ele>321.79998779296875</ele>
        <time>2018-08-17T10:59:25.000Z</time>
      </trkpt>
      <trkpt lat="49.821274392306804656982421875" lon="11.1935259215533733367919921875">
        <ele>322.399993896484375</ele>
        <time>2018-08-17T10:59:34.000Z</time>
      </trkpt>
      <trkpt lat="49.8215350694954395294189453125" lon="11.19355366565287113189697265625">
        <ele>322.79998779296875</ele>
        <time>2018-08-17T10:59:38.000Z</time>
      </trkpt>
      <trkpt lat="49.8215964250266551971435546875" lon="11.1935403384268283843994140625">
        <ele>322.79998779296875</ele>
        <time>2018-08-17T10:59:39.000Z</time>
      </trkpt>
      <trkpt lat="49.82186439447104930877685546875" lon="11.19346775114536285400390625">
        <ele>323</ele>
        <time>2018-08-17T10:59:43.000Z</time>
      </trkpt>
      <trkpt lat="49.8221047036349773406982421875" lon="11.19267909787595272064208984375">
        <ele>322.79998779296875</ele>
        <time>2018-08-17T10:59:50.000Z</time>
      </trkpt>
      <trkpt lat="49.8220933042466640472412109375" lon="11.1925566382706165313720703125">
        <ele>322.20001220703125</ele>
        <time>2018-08-17T10:59:51.000Z</time>
      </trkpt>
      <trkpt lat="49.82208919711410999298095703125" lon="11.19231867603957653045654296875">
        <ele>321</ele>
        <time>2018-08-17T10:59:53.000Z</time>
      </trkpt>
      <trkpt lat="49.822209142148494720458984375" lon="11.19192271493375301361083984375">
        <ele>319.79998779296875</ele>
        <time>2018-08-17T10:59:57.000Z</time>
      </trkpt>
      <trkpt lat="49.82231148518621921539306640625" lon="11.1917730979621410369873046875">
        <ele>319.79998779296875</ele>
        <time>2018-08-17T10:59:59.000Z</time>
      </trkpt>
      <trkpt lat="49.822728149592876434326171875" lon="11.19117471389472484588623046875">
        <ele>319.600006103515625</ele>
        <time>2018-08-17T11:00:07.000Z</time>
      </trkpt>
      <trkpt lat="49.8228322528302669525146484375" lon="11.19105032645165920257568359375">
        <ele>319.600006103515625</ele>
        <time>2018-08-17T11:00:09.000Z</time>
      </trkpt>
      <trkpt lat="49.82323877513408660888671875" lon="11.1914004385471343994140625">
        <ele>319.79998779296875</ele>
        <time>2018-08-17T11:00:17.000Z</time>
      </trkpt>
      <trkpt lat="49.8232677765190601348876953125" lon="11.1914767138659954071044921875">
        <ele>319.79998779296875</ele>
        <time>2018-08-17T11:00:18.000Z</time>
      </trkpt>
      <trkpt lat="49.82333474792540073394775390625" lon="11.19170512072741985321044921875">
        <ele>319.79998779296875</ele>
        <time>2018-08-17T11:00:21.000Z</time>
      </trkpt>
      <trkpt lat="49.823361821472644805908203125" lon="11.1919343657791614532470703125">
        <ele>320</ele>
        <time>2018-08-17T11:00:25.000Z</time>
      </trkpt>
      <trkpt lat="49.8235665075480937957763671875" lon="11.19176178239285945892333984375">
        <ele>320</ele>
        <time>2018-08-17T11:00:42.000Z</time>
      </trkpt>
      <trkpt lat="49.8236090876162052154541015625" lon="11.19179866276681423187255859375">
        <ele>320</ele>
        <time>2018-08-17T11:00:43.000Z</time>
      </trkpt>
      <trkpt lat="49.8238504864275455474853515625" lon="11.1919440887868404388427734375">
        <ele>320.20001220703125</ele>
        <time>2018-08-17T11:00:48.000Z</time>
      </trkpt>
      <trkpt lat="49.82438248582184314727783203125" lon="11.1918414942920207977294921875">
        <ele>320.79998779296875</ele>
        <time>2018-08-17T11:00:58.000Z</time>
      </trkpt>
      <trkpt lat="49.824567474424839019775390625" lon="11.19159230031073093414306640625">
        <ele>321.20001220703125</ele>
        <time>2018-08-17T11:01:04.000Z</time>
      </trkpt>
      <trkpt lat="49.82513283379375934600830078125" lon="11.1913905479013919830322265625">
        <ele>321.600006103515625</ele>
        <time>2018-08-17T11:01:13.000Z</time>
      </trkpt>
      <trkpt lat="49.8256076686084270477294921875" lon="11.1913365684449672698974609375">
        <ele>321</ele>
        <time>2018-08-17T11:01:20.000Z</time>
      </trkpt>
      <trkpt lat="49.82614687643945217132568359375" lon="11.191101707518100738525390625">
        <ele>321.20001220703125</ele>
        <time>2018-08-17T11:01:29.000Z</time>
      </trkpt>
      <trkpt lat="49.82667066156864166259765625" lon="11.1908219195902347564697265625">
        <ele>322</ele>
        <time>2018-08-17T11:01:37.000Z</time>
      </trkpt>
      <trkpt lat="49.82720232568681240081787109375" lon="11.19054825045168399810791015625">
        <ele>322</ele>
        <time>2018-08-17T11:01:45.000Z</time>
      </trkpt>
      <trkpt lat="49.827403910458087921142578125" lon="11.1905000545084476470947265625">
        <ele>322</ele>
        <time>2018-08-17T11:01:48.000Z</time>
      </trkpt>
      <trkpt lat="49.82788561843335628509521484375" lon="11.19054925628006458282470703125">
        <ele>322.20001220703125</ele>
        <time>2018-08-17T11:01:56.000Z</time>
      </trkpt>
      <trkpt lat="49.82835332863032817840576171875" lon="11.190639026463031768798828125">
        <ele>323</ele>
        <time>2018-08-17T11:02:04.000Z</time>
      </trkpt>
      <trkpt lat="49.82872414402663707733154296875" lon="11.1907836981117725372314453125">
        <ele>324</ele>
        <time>2018-08-17T11:02:11.000Z</time>
      </trkpt>
      <trkpt lat="49.82880729250609874725341796875" lon="11.1908537708222866058349609375">
        <ele>324.399993896484375</ele>
        <time>2018-08-17T11:02:13.000Z</time>
      </trkpt>
      <trkpt lat="49.82893771491944789886474609375" lon="11.19097539223730564117431640625">
        <ele>325</ele>
        <time>2018-08-17T11:02:16.000Z</time>
      </trkpt>
      <trkpt lat="49.828989095985889434814453125" lon="11.1910083331167697906494140625">
        <ele>325.600006103515625</ele>
        <time>2018-08-17T11:02:17.000Z</time>
      </trkpt>
      <trkpt lat="49.82915304601192474365234375" lon="11.19106449186801910400390625">
        <ele>326.79998779296875</ele>
        <time>2018-08-17T11:02:20.000Z</time>
      </trkpt>
      <trkpt lat="49.8293884098529815673828125" lon="11.19109508581459522247314453125">
        <ele>328</ele>
        <time>2018-08-17T11:02:24.000Z</time>
      </trkpt>
      <trkpt lat="49.82994672842323780059814453125" lon="11.19113825261592864990234375">
        <ele>328.79998779296875</ele>
        <time>2018-08-17T11:02:33.000Z</time>
      </trkpt>
      <trkpt lat="49.83031402342021465301513671875" lon="11.19120103307068347930908203125">
        <ele>329</ele>
        <time>2018-08-17T11:02:39.000Z</time>
      </trkpt>
      <trkpt lat="49.83088248409330844879150390625" lon="11.19131167419254779815673828125">
        <ele>329.399993896484375</ele>
        <time>2018-08-17T11:02:48.000Z</time>
      </trkpt>
      <trkpt lat="49.83126888982951641082763671875" lon="11.19140370748937129974365234375">
        <ele>329.79998779296875</ele>
        <time>2018-08-17T11:02:54.000Z</time>
      </trkpt>
      <trkpt lat="49.83182276599109172821044921875" lon="11.191603951156139373779296875">
        <ele>330.20001220703125</ele>
        <time>2018-08-17T11:03:03.000Z</time>
      </trkpt>
      <trkpt lat="49.83236758969724178314208984375" lon="11.19190695695579051971435546875">
        <ele>330.20001220703125</ele>
        <time>2018-08-17T11:03:12.000Z</time>
      </trkpt>
      <trkpt lat="49.83253874816000461578369140625" lon="11.19201600551605224609375">
        <ele>330.399993896484375</ele>
        <time>2018-08-17T11:03:15.000Z</time>
      </trkpt>
      <trkpt lat="49.83268660493195056915283203125" lon="11.1920798756182193756103515625">
        <ele>330.600006103515625</ele>
        <time>2018-08-17T11:03:18.000Z</time>
      </trkpt>
      <trkpt lat="49.83273320831358432769775390625" lon="11.19208884425461292266845703125">
        <ele>330.600006103515625</ele>
        <time>2018-08-17T11:03:19.000Z</time>
      </trkpt>
      <trkpt lat="49.83293303288519382476806640625" lon="11.19218221865594387054443359375">
        <ele>331</ele>
        <time>2018-08-17T11:03:23.000Z</time>
      </trkpt>
      <trkpt lat="49.83305574394762516021728515625" lon="11.19224600493907928466796875">
        <ele>330.79998779296875</ele>
        <time>2018-08-17T11:03:25.000Z</time>
      </trkpt>
      <trkpt lat="49.833237715065479278564453125" lon="11.19232806377112865447998046875">
        <ele>331.20001220703125</ele>
        <time>2018-08-17T11:03:28.000Z</time>
      </trkpt>
      <trkpt lat="49.833807684481143951416015625" lon="11.19250089861452579498291015625">
        <ele>331.20001220703125</ele>
        <time>2018-08-17T11:03:38.000Z</time>
      </trkpt>
      <trkpt lat="49.83392980881035327911376953125" lon="11.19252629578113555908203125">
        <ele>331.399993896484375</ele>
        <time>2018-08-17T11:03:40.000Z</time>
      </trkpt>
      <trkpt lat="49.83447312377393245697021484375" lon="11.19277817197144031524658203125">
        <ele>332.399993896484375</ele>
        <time>2018-08-17T11:03:49.000Z</time>
      </trkpt>
      <trkpt lat="49.8349853418767452239990234375" lon="11.193167679011821746826171875">
        <ele>333</ele>
        <time>2018-08-17T11:03:58.000Z</time>
      </trkpt>
      <trkpt lat="49.8354952968657016754150390625" lon="11.1935805715620517730712890625">
        <ele>333.20001220703125</ele>
        <time>2018-08-17T11:04:07.000Z</time>
      </trkpt>
      <trkpt lat="49.835818670690059661865234375" lon="11.19375516660511493682861328125">
        <ele>333.399993896484375</ele>
        <time>2018-08-17T11:04:12.000Z</time>
      </trkpt>
      <trkpt lat="49.8363388516008853912353515625" lon="11.1940050311386585235595703125">
        <ele>333.79998779296875</ele>
        <time>2018-08-17T11:04:19.000Z</time>
      </trkpt>
      <trkpt lat="49.83679424040019512176513671875" lon="11.1943352781236171722412109375">
        <ele>334.20001220703125</ele>
        <time>2018-08-17T11:04:25.000Z</time>
      </trkpt>
      <trkpt lat="49.8372665606439113616943359375" lon="11.194801814854145050048828125">
        <ele>334.600006103515625</ele>
        <time>2018-08-17T11:04:32.000Z</time>
      </trkpt>
      <trkpt lat="49.837786741554737091064453125" lon="11.19526575319468975067138671875">
        <ele>335.20001220703125</ele>
        <time>2018-08-17T11:04:40.000Z</time>
      </trkpt>
      <trkpt lat="49.8378566466271877288818359375" lon="11.195306070148944854736328125">
        <ele>335.20001220703125</ele>
        <time>2018-08-17T11:04:41.000Z</time>
      </trkpt>
      <trkpt lat="49.83840658329427242279052734375" lon="11.19562366046011447906494140625">
        <ele>335.79998779296875</ele>
        <time>2018-08-17T11:04:49.000Z</time>
      </trkpt>
      <trkpt lat="49.83892374671995639801025390625" lon="11.1958705075085163116455078125">
        <ele>336.20001220703125</ele>
        <time>2018-08-17T11:04:56.000Z</time>
      </trkpt>
      <trkpt lat="49.8391474597156047821044921875" lon="11.19597787968814373016357421875">
        <ele>336.399993896484375</ele>
        <time>2018-08-17T11:04:59.000Z</time>
      </trkpt>
      <trkpt lat="49.83972765505313873291015625" lon="11.1962701566517353057861328125">
        <ele>336.399993896484375</ele>
        <time>2018-08-17T11:05:07.000Z</time>
      </trkpt>
      <trkpt lat="49.8402424715459346771240234375" lon="11.19652639143168926239013671875">
        <ele>336.600006103515625</ele>
        <time>2018-08-17T11:05:15.000Z</time>
      </trkpt>
      <trkpt lat="49.8403854668140411376953125" lon="11.19659495539963245391845703125">
        <ele>336.600006103515625</ele>
        <time>2018-08-17T11:05:18.000Z</time>
      </trkpt>
      <trkpt lat="49.84055251814424991607666015625" lon="11.19742090813815593719482421875">
        <ele>336.79998779296875</ele>
        <time>2018-08-17T11:05:29.000Z</time>
      </trkpt>
      <trkpt lat="49.8406072519719600677490234375" lon="11.197569854557514190673828125">
        <ele>337</ele>
        <time>2018-08-17T11:05:31.000Z</time>
      </trkpt>
      <trkpt lat="49.8407883010804653167724609375" lon="11.19771712459623813629150390625">
        <ele>337.399993896484375</ele>
        <time>2018-08-17T11:05:35.000Z</time>
      </trkpt>
      <trkpt lat="49.8408389277756214141845703125" lon="11.197729445993900299072265625">
        <ele>337.600006103515625</ele>
        <time>2018-08-17T11:05:36.000Z</time>
      </trkpt>
      <trkpt lat="49.84103514812886714935302734375" lon="11.19774562306702136993408203125">
        <ele>338.20001220703125</ele>
        <time>2018-08-17T11:05:40.000Z</time>
      </trkpt>
      <trkpt lat="49.8411262594163417816162109375" lon="11.19768083095550537109375">
        <ele>338.600006103515625</ele>
        <time>2018-08-17T11:05:42.000Z</time>
      </trkpt>
      <trkpt lat="49.8413746990263462066650390625" lon="11.19741470552980899810791015625">
        <ele>339.20001220703125</ele>
        <time>2018-08-17T11:05:47.000Z</time>
      </trkpt>
      <trkpt lat="49.8415024392306804656982421875" lon="11.19736206717789173126220703125">
        <ele>339.600006103515625</ele>
        <time>2018-08-17T11:05:49.000Z</time>
      </trkpt>
      <trkpt lat="49.8418155871331691741943359375" lon="11.19742442853748798370361328125">
        <ele>340</ele>
        <time>2018-08-17T11:05:54.000Z</time>
      </trkpt>
      <trkpt lat="49.84226359985768795013427734375" lon="11.197619475424289703369140625">
        <ele>340.79998779296875</ele>
        <time>2018-08-17T11:06:02.000Z</time>
      </trkpt>
      <trkpt lat="49.84231657348573207855224609375" lon="11.19762911461293697357177734375">
        <ele>340.79998779296875</ele>
        <time>2018-08-17T11:06:03.000Z</time>
      </trkpt>
      <trkpt lat="49.842591583728790283203125" lon="11.19765174575150012969970703125">
        <ele>341.79998779296875</ele>
        <time>2018-08-17T11:06:08.000Z</time>
      </trkpt>
      <trkpt lat="49.84277707524597644805908203125" lon="11.1976253427565097808837890625">
        <ele>342.79998779296875</ele>
        <time>2018-08-17T11:06:11.000Z</time>
      </trkpt>
      <trkpt lat="49.8428388498723506927490234375" lon="11.19760095141828060150146484375">
        <ele>343.20001220703125</ele>
        <time>2018-08-17T11:06:12.000Z</time>
      </trkpt>
      <trkpt lat="49.84302467666566371917724609375" lon="11.19748444296419620513916015625">
        <ele>343.79998779296875</ele>
        <time>2018-08-17T11:06:15.000Z</time>
      </trkpt>
      <trkpt lat="49.84337755478918552398681640625" lon="11.197138689458370208740234375">
        <ele>344.20001220703125</ele>
        <time>2018-08-17T11:06:21.000Z</time>
      </trkpt>
      <trkpt lat="49.84381542541086673736572265625" lon="11.1965269781649112701416015625">
        <ele>344.20001220703125</ele>
        <time>2018-08-17T11:06:28.000Z</time>
      </trkpt>
      <trkpt lat="49.8442087881267070770263671875" lon="11.19595273397862911224365234375">
        <ele>343.399993896484375</ele>
        <time>2018-08-17T11:06:34.000Z</time>
      </trkpt>
      <trkpt lat="49.844270981848239898681640625" lon="11.19586438871920108795166015625">
        <ele>342.79998779296875</ele>
        <time>2018-08-17T11:06:35.000Z</time>
      </trkpt>
      <trkpt lat="49.84449234791100025177001953125" lon="11.19553573429584503173828125">
        <ele>341.79998779296875</ele>
        <time>2018-08-17T11:06:39.000Z</time>
      </trkpt>
      <trkpt lat="49.84491228125989437103271484375" lon="11.1949303932487964630126953125">
        <ele>342</ele>
        <time>2018-08-17T11:06:48.000Z</time>
      </trkpt>
      <trkpt lat="49.84496039338409900665283203125" lon="11.1948712170124053955078125">
        <ele>342.20001220703125</ele>
        <time>2018-08-17T11:06:49.000Z</time>
      </trkpt>
      <trkpt lat="49.84506131149828433990478515625" lon="11.19475923478603363037109375">
        <ele>342.600006103515625</ele>
        <time>2018-08-17T11:06:51.000Z</time>
      </trkpt>
      <trkpt lat="49.8451150394976139068603515625" lon="11.194711625576019287109375">
        <ele>343</ele>
        <time>2018-08-17T11:06:52.000Z</time>
      </trkpt>
      <trkpt lat="49.8451720364391803741455078125" lon="11.194670386612415313720703125">
        <ele>343.20001220703125</ele>
        <time>2018-08-17T11:06:53.000Z</time>
      </trkpt>
      <trkpt lat="49.84542810358107089996337890625" lon="11.19457055814564228057861328125">
        <ele>344</ele>
        <time>2018-08-17T11:06:57.000Z</time>
      </trkpt>
      <trkpt lat="49.84575583599507808685302734375" lon="11.194553710520267486572265625">
        <ele>344.20001220703125</ele>
        <time>2018-08-17T11:07:02.000Z</time>
      </trkpt>
      <trkpt lat="49.84592984430491924285888671875" lon="11.19475697167217731475830078125">
        <ele>344.399993896484375</ele>
        <time>2018-08-17T11:07:06.000Z</time>
      </trkpt>
      <trkpt lat="49.84630535356700420379638671875" lon="11.19528922252357006072998046875">
        <ele>345.20001220703125</ele>
        <time>2018-08-17T11:07:17.000Z</time>
      </trkpt>
      <trkpt lat="49.84640593640506267547607421875" lon="11.19542148895561695098876953125">
        <ele>346.20001220703125</ele>
        <time>2018-08-17T11:07:20.000Z</time>
      </trkpt>
      <trkpt lat="49.84650400467216968536376953125" lon="11.19555962271988391876220703125">
        <ele>347.399993896484375</ele>
        <time>2018-08-17T11:07:23.000Z</time>
      </trkpt>
      <trkpt lat="49.8466093651950359344482421875" lon="11.1957001872360706329345703125">
        <ele>348.399993896484375</ele>
        <time>2018-08-17T11:07:26.000Z</time>
      </trkpt>
      <trkpt lat="49.84674037434160709381103515625" lon="11.1958946473896503448486328125">
        <ele>349.399993896484375</ele>
        <time>2018-08-17T11:07:30.000Z</time>
      </trkpt>
      <trkpt lat="49.8469094373285770416259765625" lon="11.19615440256893634796142578125">
        <ele>350.399993896484375</ele>
        <time>2018-08-17T11:07:35.000Z</time>
      </trkpt>
      <trkpt lat="49.8470462299883365631103515625" lon="11.1963683925569057464599609375">
        <ele>351.399993896484375</ele>
        <time>2018-08-17T11:07:39.000Z</time>
      </trkpt>
      <trkpt lat="49.84724848531186580657958984375" lon="11.1966812051832675933837890625">
        <ele>352.399993896484375</ele>
        <time>2018-08-17T11:07:45.000Z</time>
      </trkpt>
      <trkpt lat="49.84746691770851612091064453125" lon="11.197031401097774505615234375">
        <ele>353.79998779296875</ele>
        <time>2018-08-17T11:07:52.000Z</time>
      </trkpt>
      <trkpt lat="49.84760605730116367340087890625" lon="11.1972635798156261444091796875">
        <ele>354.600006103515625</ele>
        <time>2018-08-17T11:07:57.000Z</time>
      </trkpt>
      <trkpt lat="49.84774268232285976409912109375" lon="11.19747488759458065032958984375">
        <ele>355.79998779296875</ele>
        <time>2018-08-17T11:08:02.000Z</time>
      </trkpt>
      <trkpt lat="49.84784510917961597442626953125" lon="11.1976444534957408905029296875">
        <ele>356.79998779296875</ele>
        <time>2018-08-17T11:08:06.000Z</time>
      </trkpt>
      <trkpt lat="49.84794317744672298431396484375" lon="11.19778669439256191253662109375">
        <ele>357.79998779296875</ele>
        <time>2018-08-17T11:08:10.000Z</time>
      </trkpt>
      <trkpt lat="49.84806806780397891998291015625" lon="11.19794829748570919036865234375">
        <ele>359</ele>
        <time>2018-08-17T11:08:15.000Z</time>
      </trkpt>
      <trkpt lat="49.848140738904476165771484375" lon="11.19803865440189838409423828125">
        <ele>360.20001220703125</ele>
        <time>2018-08-17T11:08:18.000Z</time>
      </trkpt>
      <trkpt lat="49.8482133261859416961669921875" lon="11.19812951423227787017822265625">
        <ele>361.399993896484375</ele>
        <time>2018-08-17T11:08:21.000Z</time>
      </trkpt>
      <trkpt lat="49.848276190459728240966796875" lon="11.198210231959819793701171875">
        <ele>362.399993896484375</ele>
        <time>2018-08-17T11:08:24.000Z</time>
      </trkpt>
      <trkpt lat="49.8483346961438655853271484375" lon="11.1982901953160762786865234375">
        <ele>363.399993896484375</ele>
        <time>2018-08-17T11:08:27.000Z</time>
      </trkpt>
      <trkpt lat="49.84838020987808704376220703125" lon="11.1983750201761722564697265625">
        <ele>364.399993896484375</ele>
        <time>2018-08-17T11:08:30.000Z</time>
      </trkpt>
      <trkpt lat="49.84843754209578037261962890625" lon="11.1984638683497905731201171875">
        <ele>365.600006103515625</ele>
        <time>2018-08-17T11:08:33.000Z</time>
      </trkpt>
      <trkpt lat="49.84849018044769763946533203125" lon="11.198563277721405029296875">
        <ele>366.79998779296875</ele>
        <time>2018-08-17T11:08:36.000Z</time>
      </trkpt>
      <trkpt lat="49.84856285154819488525390625" lon="11.19869948364794254302978515625">
        <ele>368</ele>
        <time>2018-08-17T11:08:40.000Z</time>
      </trkpt>
      <trkpt lat="49.848600067198276519775390625" lon="11.19876452721655368804931640625">
        <ele>368.600006103515625</ele>
        <time>2018-08-17T11:08:42.000Z</time>
      </trkpt>
      <trkpt lat="49.848633594810962677001953125" lon="11.1988326720893383026123046875">
        <ele>369.20001220703125</ele>
        <time>2018-08-17T11:08:44.000Z</time>
      </trkpt>
      <trkpt lat="49.84869771637022495269775390625" lon="11.19893602095544338226318359375">
        <ele>370.20001220703125</ele>
        <time>2018-08-17T11:08:47.000Z</time>
      </trkpt>
      <trkpt lat="49.84875865280628204345703125" lon="11.1990381963551044464111328125">
        <ele>371.399993896484375</ele>
        <time>2018-08-17T11:08:50.000Z</time>
      </trkpt>
      <trkpt lat="49.84882310964167118072509765625" lon="11.199168451130390167236328125">
        <ele>372.600006103515625</ele>
        <time>2018-08-17T11:08:54.000Z</time>
      </trkpt>
      <trkpt lat="49.84887641854584217071533203125" lon="11.1992752365767955780029296875">
        <ele>373.600006103515625</ele>
        <time>2018-08-17T11:08:57.000Z</time>
      </trkpt>
      <trkpt lat="49.848932661116123199462890625" lon="11.19941890239715576171875">
        <ele>375</ele>
        <time>2018-08-17T11:09:01.000Z</time>
      </trkpt>
      <trkpt lat="49.84898152761161327362060546875" lon="11.19957379996776580810546875">
        <ele>376.20001220703125</ele>
        <time>2018-08-17T11:09:05.000Z</time>
      </trkpt>
      <trkpt lat="49.849023185670375823974609375" lon="11.19972257874906063079833984375">
        <ele>377.399993896484375</ele>
        <time>2018-08-17T11:09:09.000Z</time>
      </trkpt>
      <trkpt lat="49.84905662946403026580810546875" lon="11.19986741803586483001708984375">
        <ele>378.600006103515625</ele>
        <time>2018-08-17T11:09:13.000Z</time>
      </trkpt>
      <trkpt lat="49.84908454120159149169921875" lon="11.19997956790030002593994140625">
        <ele>379.399993896484375</ele>
        <time>2018-08-17T11:09:16.000Z</time>
      </trkpt>
      <trkpt lat="49.84911404550075531005859375" lon="11.2001023627817630767822265625">
        <ele>380.79998779296875</ele>
        <time>2018-08-17T11:09:19.000Z</time>
      </trkpt>
      <trkpt lat="49.84915318898856639862060546875" lon="11.20025533251464366912841796875">
        <ele>382</ele>
        <time>2018-08-17T11:09:23.000Z</time>
      </trkpt>
      <trkpt lat="49.84919006936252117156982421875" lon="11.2003699131309986114501953125">
        <ele>383</ele>
        <time>2018-08-17T11:09:26.000Z</time>
      </trkpt>
      <trkpt lat="49.84923181124031543731689453125" lon="11.2005395628511905670166015625">
        <ele>384.20001220703125</ele>
        <time>2018-08-17T11:09:30.000Z</time>
      </trkpt>
      <trkpt lat="49.84926760196685791015625" lon="11.20071449317038059234619140625">
        <ele>385.399993896484375</ele>
        <time>2018-08-17T11:09:34.000Z</time>
      </trkpt>
      <trkpt lat="49.8492972739040851593017578125" lon="11.20083955116569995880126953125">
        <ele>386.20001220703125</ele>
        <time>2018-08-17T11:09:37.000Z</time>
      </trkpt>
      <trkpt lat="49.84934664331376552581787109375" lon="11.20098388753831386566162109375">
        <ele>387.600006103515625</ele>
        <time>2018-08-17T11:09:41.000Z</time>
      </trkpt>
      <trkpt lat="49.8494032211601734161376953125" lon="11.20104624889791011810302734375">
        <ele>388.600006103515625</ele>
        <time>2018-08-17T11:09:44.000Z</time>
      </trkpt>
      <trkpt lat="49.8494525067508220672607421875" lon="11.2010511942207813262939453125">
        <ele>389.399993896484375</ele>
        <time>2018-08-17T11:09:46.000Z</time>
      </trkpt>
      <trkpt lat="49.8494826816022396087646484375" lon="11.20103350840508937835693359375">
        <ele>389.79998779296875</ele>
        <time>2018-08-17T11:09:47.000Z</time>
      </trkpt>
      <trkpt lat="49.8495733737945556640625" lon="11.20095371268689632415771484375">
        <ele>390.600006103515625</ele>
        <time>2018-08-17T11:09:50.000Z</time>
      </trkpt>
      <trkpt lat="49.84969533048570156097412109375" lon="11.20080032385885715484619140625">
        <ele>391.79998779296875</ele>
        <time>2018-08-17T11:09:55.000Z</time>
      </trkpt>
      <trkpt lat="49.84979909844696521759033203125" lon="11.20063134469091892242431640625">
        <ele>393</ele>
        <time>2018-08-17T11:10:00.000Z</time>
      </trkpt>
      <trkpt lat="49.849890880286693572998046875" lon="11.2004376389086246490478515625">
        <ele>394.20001220703125</ele>
        <time>2018-08-17T11:10:04.000Z</time>
      </trkpt>
      <trkpt lat="49.85002356581389904022216796875" lon="11.20018827728927135467529296875">
        <ele>395.20001220703125</ele>
        <time>2018-08-17T11:10:08.000Z</time>
      </trkpt>
      <trkpt lat="49.850109480321407318115234375" lon="11.200025416910648345947265625">
        <ele>396.20001220703125</ele>
        <time>2018-08-17T11:10:11.000Z</time>
      </trkpt>
      <trkpt lat="49.85025239177048206329345703125" lon="11.1998894624412059783935546875">
        <ele>397.600006103515625</ele>
        <time>2018-08-17T11:10:15.000Z</time>
      </trkpt>
      <trkpt lat="49.85029329545795917510986328125" lon="11.2000004388391971588134765625">
        <ele>398.79998779296875</ele>
        <time>2018-08-17T11:10:17.000Z</time>
      </trkpt>
      <trkpt lat="49.85025356523692607879638671875" lon="11.200121305882930755615234375">
        <ele>399.600006103515625</ele>
        <time>2018-08-17T11:10:19.000Z</time>
      </trkpt>
      <trkpt lat="49.8502357117831707000732421875" lon="11.2001811526715755462646484375">
        <ele>400</ele>
        <time>2018-08-17T11:10:20.000Z</time>
      </trkpt>
      <trkpt lat="49.85017829574644565582275390625" lon="11.20035340078175067901611328125">
        <ele>401.399993896484375</ele>
        <time>2018-08-17T11:10:23.000Z</time>
      </trkpt>
      <trkpt lat="49.85015700571238994598388671875" lon="11.20040788315236568450927734375">
        <ele>401.79998779296875</ele>
        <time>2018-08-17T11:10:24.000Z</time>
      </trkpt>
      <trkpt lat="49.85011895187199115753173828125" lon="11.200527660548686981201171875">
        <ele>402.600006103515625</ele>
        <time>2018-08-17T11:10:26.000Z</time>
      </trkpt>
      <trkpt lat="49.8500563390552997589111328125" lon="11.20070460252463817596435546875">
        <ele>403.600006103515625</ele>
        <time>2018-08-17T11:10:29.000Z</time>
      </trkpt>
      <trkpt lat="49.850006215274333953857421875" lon="11.2008818797767162322998046875">
        <ele>404.600006103515625</ele>
        <time>2018-08-17T11:10:32.000Z</time>
      </trkpt>
      <trkpt lat="49.84996656887233257293701171875" lon="11.201072148978710174560546875">
        <ele>405.399993896484375</ele>
        <time>2018-08-17T11:10:35.000Z</time>
      </trkpt>
      <trkpt lat="49.849963299930095672607421875" lon="11.2011350132524967193603515625">
        <ele>405.79998779296875</ele>
        <time>2018-08-17T11:10:36.000Z</time>
      </trkpt>
      <trkpt lat="49.84998383559286594390869140625" lon="11.201362498104572296142578125">
        <ele>406.79998779296875</ele>
        <time>2018-08-17T11:10:40.000Z</time>
      </trkpt>
      <trkpt lat="49.85004971735179424285888671875" lon="11.20155670680105686187744140625">
        <ele>408</ele>
        <time>2018-08-17T11:10:44.000Z</time>
      </trkpt>
      <trkpt lat="49.8501032777130603790283203125" lon="11.2016801722347736358642578125">
        <ele>409.20001220703125</ele>
        <time>2018-08-17T11:10:47.000Z</time>
      </trkpt>
      <trkpt lat="49.8501528985798358917236328125" lon="11.201802380383014678955078125">
        <ele>410.600006103515625</ele>
        <time>2018-08-17T11:10:50.000Z</time>
      </trkpt>
      <trkpt lat="49.8502363823354244232177734375" lon="11.201933808624744415283203125">
        <ele>411.79998779296875</ele>
        <time>2018-08-17T11:10:54.000Z</time>
      </trkpt>
      <trkpt lat="49.8503004200756549835205078125" lon="11.20208292268216609954833984375">
        <ele>413</ele>
        <time>2018-08-17T11:10:58.000Z</time>
      </trkpt>
      <trkpt lat="49.850352890789508819580078125" lon="11.20218249969184398651123046875">
        <ele>414</ele>
        <time>2018-08-17T11:11:01.000Z</time>
      </trkpt>
      <trkpt lat="49.85041650943458080291748046875" lon="11.2023349665105342864990234375">
        <ele>415.20001220703125</ele>
        <time>2018-08-17T11:11:05.000Z</time>
      </trkpt>
      <trkpt lat="49.850464202463626861572265625" lon="11.20244988240301609039306640625">
        <ele>416.399993896484375</ele>
        <time>2018-08-17T11:11:08.000Z</time>
      </trkpt>
      <trkpt lat="49.85050401650369167327880859375" lon="11.20254971086978912353515625">
        <ele>417.399993896484375</ele>
        <time>2018-08-17T11:11:11.000Z</time>
      </trkpt>
      <trkpt lat="49.8505575768649578094482421875" lon="11.20269530452787876129150390625">
        <ele>418.600006103515625</ele>
        <time>2018-08-17T11:11:15.000Z</time>
      </trkpt>
      <trkpt lat="49.8506073653697967529296875" lon="11.20280276052653789520263671875">
        <ele>420</ele>
        <time>2018-08-17T11:11:18.000Z</time>
      </trkpt>
      <trkpt lat="49.8506568185985088348388671875" lon="11.20291809551417827606201171875">
        <ele>421</ele>
        <time>2018-08-17T11:11:21.000Z</time>
      </trkpt>
      <trkpt lat="49.85070300288498401641845703125" lon="11.20302739553153514862060546875">
        <ele>422.20001220703125</ele>
        <time>2018-08-17T11:11:24.000Z</time>
      </trkpt>
      <trkpt lat="49.85074809752404689788818359375" lon="11.203180365264415740966796875">
        <ele>423.399993896484375</ele>
        <time>2018-08-17T11:11:28.000Z</time>
      </trkpt>
      <trkpt lat="49.8507805354893207550048828125" lon="11.203307099640369415283203125">
        <ele>424.399993896484375</ele>
        <time>2018-08-17T11:11:31.000Z</time>
      </trkpt>
      <trkpt lat="49.85082219354808330535888671875" lon="11.20348454453051090240478515625">
        <ele>425.399993896484375</ele>
        <time>2018-08-17T11:11:35.000Z</time>
      </trkpt>
      <trkpt lat="49.8508566431701183319091796875" lon="11.20366282761096954345703125">
        <ele>426.399993896484375</ele>
        <time>2018-08-17T11:11:39.000Z</time>
      </trkpt>
      <trkpt lat="49.85088153742253780364990234375" lon="11.2038416974246501922607421875">
        <ele>427.79998779296875</ele>
        <time>2018-08-17T11:11:43.000Z</time>
      </trkpt>
      <trkpt lat="49.8509104549884796142578125" lon="11.20396248064935207366943359375">
        <ele>429</ele>
        <time>2018-08-17T11:11:46.000Z</time>
      </trkpt>
      <trkpt lat="49.8509461618959903717041015625" lon="11.2041323818266391754150390625">
        <ele>430</ele>
        <time>2018-08-17T11:11:50.000Z</time>
      </trkpt>
      <trkpt lat="49.8509860597550868988037109375" lon="11.20432709343731403350830078125">
        <ele>431.20001220703125</ele>
        <time>2018-08-17T11:11:54.000Z</time>
      </trkpt>
      <trkpt lat="49.85102235339581966400146484375" lon="11.2045293487608432769775390625">
        <ele>432.20001220703125</ele>
        <time>2018-08-17T11:11:58.000Z</time>
      </trkpt>
      <trkpt lat="49.85104255378246307373046875" lon="11.20472825132310390472412109375">
        <ele>433.20001220703125</ele>
        <time>2018-08-17T11:12:02.000Z</time>
      </trkpt>
      <trkpt lat="49.85105889849364757537841796875" lon="11.20492455549538135528564453125">
        <ele>434.399993896484375</ele>
        <time>2018-08-17T11:12:06.000Z</time>
      </trkpt>
      <trkpt lat="49.851071052253246307373046875" lon="11.20511784218251705169677734375">
        <ele>435.600006103515625</ele>
        <time>2018-08-17T11:12:10.000Z</time>
      </trkpt>
      <trkpt lat="49.851072728633880615234375" lon="11.2053112126886844635009765625">
        <ele>437.20001220703125</ele>
        <time>2018-08-17T11:12:14.000Z</time>
      </trkpt>
      <trkpt lat="49.85108136199414730072021484375" lon="11.20550324209034442901611328125">
        <ele>438.399993896484375</ele>
        <time>2018-08-17T11:12:18.000Z</time>
      </trkpt>
      <trkpt lat="49.85108974389731884002685546875" lon="11.20569317601621150970458984375">
        <ele>439.600006103515625</ele>
        <time>2018-08-17T11:12:22.000Z</time>
      </trkpt>
      <trkpt lat="49.85108672641217708587646484375" lon="11.20589601807296276092529296875">
        <ele>441</ele>
        <time>2018-08-17T11:12:26.000Z</time>
      </trkpt>
      <trkpt lat="49.85109896399080753326416015625" lon="11.20610439218580722808837890625">
        <ele>442.20001220703125</ele>
        <time>2018-08-17T11:12:30.000Z</time>
      </trkpt>
      <trkpt lat="49.85108672641217708587646484375" lon="11.20631980709731578826904296875">
        <ele>443.20001220703125</ele>
        <time>2018-08-17T11:12:34.000Z</time>
      </trkpt>
      <trkpt lat="49.85107742249965667724609375" lon="11.20659708045423030853271484375">
        <ele>444.399993896484375</ele>
        <time>2018-08-17T11:12:39.000Z</time>
      </trkpt>
      <trkpt lat="49.85106493346393108367919921875" lon="11.20688818395137786865234375">
        <ele>445.600006103515625</ele>
        <time>2018-08-17T11:12:44.000Z</time>
      </trkpt>
      <trkpt lat="49.85104163177311420440673828125" lon="11.2074264697730541229248046875">
        <ele>446.600006103515625</ele>
        <time>2018-08-17T11:12:53.000Z</time>
      </trkpt>
      <trkpt lat="49.85103584825992584228515625" lon="11.2078693695366382598876953125">
        <ele>447.399993896484375</ele>
        <time>2018-08-17T11:13:00.000Z</time>
      </trkpt>
      <trkpt lat="49.851037524640560150146484375" lon="11.2081302143633365631103515625">
        <ele>447.600006103515625</ele>
        <time>2018-08-17T11:13:04.000Z</time>
      </trkpt>
      <trkpt lat="49.85109108500182628631591796875" lon="11.20898759923875331878662109375">
        <ele>447.600006103515625</ele>
        <time>2018-08-17T11:13:24.000Z</time>
      </trkpt>
      <trkpt lat="49.85110902227461338043212890625" lon="11.20923151262104511260986328125">
        <ele>447.600006103515625</ele>
        <time>2018-08-17T11:13:30.000Z</time>
      </trkpt>
      <trkpt lat="49.85114104114472866058349609375" lon="11.2092761881649494171142578125">
        <ele>447.399993896484375</ele>
        <time>2018-08-17T11:13:35.000Z</time>
      </trkpt>
      <trkpt lat="49.85112578608095645904541015625" lon="11.2090656347572803497314453125">
        <ele>447.399993896484375</ele>
        <time>2018-08-17T11:13:41.000Z</time>
      </trkpt>
      <trkpt lat="49.85101439058780670166015625" lon="11.20823322795331478118896484375">
        <ele>447.600006103515625</ele>
        <time>2018-08-17T11:14:02.000Z</time>
      </trkpt>
      <trkpt lat="49.85100391320884227752685546875" lon="11.20822484605014324188232421875">
        <ele>447.600006103515625</ele>
        <time>2018-08-17T11:14:03.000Z</time>
      </trkpt>
      <trkpt lat="49.8510051704943180084228515625" lon="11.20826415717601776123046875">
        <ele>447.79998779296875</ele>
        <time>2018-08-17T11:14:10.000Z</time>
      </trkpt>
      <trkpt lat="49.8510417155921459197998046875" lon="11.20805301703512668609619140625">
        <ele>447.79998779296875</ele>
        <time>2018-08-17T11:14:17.000Z</time>
      </trkpt>
      <trkpt lat="49.8510490916669368743896484375" lon="11.20792125351727008819580078125">
        <ele>447.79998779296875</ele>
        <time>2018-08-17T11:14:21.000Z</time>
      </trkpt>
      <trkpt lat="49.85114850103855133056640625" lon="11.20788219384849071502685546875">
        <ele>447.79998779296875</ele>
        <time>2018-08-17T11:14:25.000Z</time>
      </trkpt>
      <trkpt lat="49.8514665104448795318603515625" lon="11.20794774033129215240478515625">
        <ele>448.600006103515625</ele>
        <time>2018-08-17T11:14:36.000Z</time>
      </trkpt>
      <trkpt lat="49.85169676132500171661376953125" lon="11.2080678530037403106689453125">
        <ele>449.600006103515625</ele>
        <time>2018-08-17T11:14:43.000Z</time>
      </trkpt>
      <trkpt lat="49.85184880904853343963623046875" lon="11.20817220769822597503662109375">
        <ele>450.79998779296875</ele>
        <time>2018-08-17T11:14:48.000Z</time>
      </trkpt>
      <trkpt lat="49.85211987979710102081298828125" lon="11.20837152935564517974853515625">
        <ele>452</ele>
        <time>2018-08-17T11:14:57.000Z</time>
      </trkpt>
      <trkpt lat="49.8522822372615337371826171875" lon="11.208577640354633331298828125">
        <ele>453.20001220703125</ele>
        <time>2018-08-17T11:15:03.000Z</time>
      </trkpt>
      <trkpt lat="49.85246454365551471710205078125" lon="11.2088946439325809478759765625">
        <ele>454.20001220703125</ele>
        <time>2018-08-17T11:15:10.000Z</time>
      </trkpt>
      <trkpt lat="49.85281390137970447540283203125" lon="11.209537200629711151123046875">
        <ele>454.79998779296875</ele>
        <time>2018-08-17T11:15:22.000Z</time>
      </trkpt>
      <trkpt lat="49.85316552221775054931640625" lon="11.21018252335488796234130859375">
        <ele>454.79998779296875</ele>
        <time>2018-08-17T11:15:33.000Z</time>
      </trkpt>
      <trkpt lat="49.85353390686213970184326171875" lon="11.21084553189575672149658203125">
        <ele>454.79998779296875</ele>
        <time>2018-08-17T11:15:44.000Z</time>
      </trkpt>
      <trkpt lat="49.85390120185911655426025390625" lon="11.2115406431257724761962890625">
        <ele>454.79998779296875</ele>
        <time>2018-08-17T11:15:55.000Z</time>
      </trkpt>
      <trkpt lat="49.85418233089148998260498046875" lon="11.21205386705696582794189453125">
        <ele>455</ele>
        <time>2018-08-17T11:16:05.000Z</time>
      </trkpt>
      <trkpt lat="49.85441383905708789825439453125" lon="11.21196082793176174163818359375">
        <ele>455.20001220703125</ele>
        <time>2018-08-17T11:16:11.000Z</time>
      </trkpt>
      <trkpt lat="49.85445432364940643310546875" lon="11.2119355984032154083251953125">
        <ele>455.20001220703125</ele>
        <time>2018-08-17T11:16:12.000Z</time>
      </trkpt>
      <trkpt lat="49.85482656396925449371337890625" lon="11.21170333586633205413818359375">
        <ele>455.79998779296875</ele>
        <time>2018-08-17T11:16:20.000Z</time>
      </trkpt>
      <trkpt lat="49.8553614132106304168701171875" lon="11.21140460483729839324951171875">
        <ele>456.20001220703125</ele>
        <time>2018-08-17T11:16:30.000Z</time>
      </trkpt>
      <trkpt lat="49.855934567749500274658203125" lon="11.2111763656139373779296875">
        <ele>455.79998779296875</ele>
        <time>2018-08-17T11:16:39.000Z</time>
      </trkpt>
      <trkpt lat="49.856471680104732513427734375" lon="11.2109591066837310791015625">
        <ele>455.20001220703125</ele>
        <time>2018-08-17T11:16:47.000Z</time>
      </trkpt>
      <trkpt lat="49.85700150020420551300048828125" lon="11.21074117720127105712890625">
        <ele>455</ele>
        <time>2018-08-17T11:16:55.000Z</time>
      </trkpt>
      <trkpt lat="49.85755688510835170745849609375" lon="11.21054043062031269073486328125">
        <ele>454.79998779296875</ele>
        <time>2018-08-17T11:17:04.000Z</time>
      </trkpt>
      <trkpt lat="49.85799483954906463623046875" lon="11.21046884916722774505615234375">
        <ele>455.600006103515625</ele>
        <time>2018-08-17T11:17:12.000Z</time>
      </trkpt>
      <trkpt lat="49.85822618007659912109375" lon="11.21045996434986591339111328125">
        <ele>456.399993896484375</ele>
        <time>2018-08-17T11:17:16.000Z</time>
      </trkpt>
      <trkpt lat="49.85884266905486583709716796875" lon="11.21043004095554351806640625">
        <ele>456.79998779296875</ele>
        <time>2018-08-17T11:17:24.000Z</time>
      </trkpt>
      <trkpt lat="49.85944549553096294403076171875" lon="11.2103497423231601715087890625">
        <ele>455.79998779296875</ele>
        <time>2018-08-17T11:17:30.000Z</time>
      </trkpt>
      <trkpt lat="49.859662838280200958251953125" lon="11.21031965129077434539794921875">
        <ele>454.79998779296875</ele>
        <time>2018-08-17T11:17:32.000Z</time>
      </trkpt>
      <trkpt lat="49.85989107750356197357177734375" lon="11.2102751433849334716796875">
        <ele>453.20001220703125</ele>
        <time>2018-08-17T11:17:34.000Z</time>
      </trkpt>
      <trkpt lat="49.8601337336003780364990234375" lon="11.210245974361896514892578125">
        <ele>452</ele>
        <time>2018-08-17T11:17:36.000Z</time>
      </trkpt>
      <trkpt lat="49.86038628034293651580810546875" lon="11.21021705679595470428466796875">
        <ele>450.600006103515625</ele>
        <time>2018-08-17T11:17:38.000Z</time>
      </trkpt>
      <trkpt lat="49.860635139048099517822265625" lon="11.2101857922971248626708984375">
        <ele>449.20001220703125</ele>
        <time>2018-08-17T11:17:40.000Z</time>
      </trkpt>
      <trkpt lat="49.860863797366619110107421875" lon="11.21015888638794422149658203125">
        <ele>448</ele>
        <time>2018-08-17T11:17:42.000Z</time>
      </trkpt>
      <trkpt lat="49.86106538213789463043212890625" lon="11.210136003792285919189453125">
        <ele>446.600006103515625</ele>
        <time>2018-08-17T11:17:44.000Z</time>
      </trkpt>
      <trkpt lat="49.8611596785485744476318359375" lon="11.21012653224170207977294921875">
        <ele>445.600006103515625</ele>
        <time>2018-08-17T11:17:45.000Z</time>
      </trkpt>
      <trkpt lat="49.8617712222039699554443359375" lon="11.21007238514721393585205078125">
        <ele>445.20001220703125</ele>
        <time>2018-08-17T11:17:52.000Z</time>
      </trkpt>
      <trkpt lat="49.8621554486453533172607421875" lon="11.2101596407592296600341796875">
        <ele>446.79998779296875</ele>
        <time>2018-08-17T11:17:57.000Z</time>
      </trkpt>
      <trkpt lat="49.86236005090177059173583984375" lon="11.2102779932320117950439453125">
        <ele>448.20001220703125</ele>
        <time>2018-08-17T11:18:00.000Z</time>
      </trkpt>
      <trkpt lat="49.86255618743598461151123046875" lon="11.210410594940185546875">
        <ele>449.399993896484375</ele>
        <time>2018-08-17T11:18:03.000Z</time>
      </trkpt>
      <trkpt lat="49.8629815690219402313232421875" lon="11.2107111699879169464111328125">
        <ele>450.600006103515625</ele>
        <time>2018-08-17T11:18:10.000Z</time>
      </trkpt>
      <trkpt lat="49.86351172439754009246826171875" lon="11.2111007608473300933837890625">
        <ele>451.600006103515625</ele>
        <time>2018-08-17T11:18:19.000Z</time>
      </trkpt>
      <trkpt lat="49.86356914043426513671875" lon="11.211141832172870635986328125">
        <ele>451.79998779296875</ele>
        <time>2018-08-17T11:18:20.000Z</time>
      </trkpt>
      <trkpt lat="49.86406995914876461029052734375" lon="11.21143310330808162689208984375">
        <ele>452.79998779296875</ele>
        <time>2018-08-17T11:18:29.000Z</time>
      </trkpt>
      <trkpt lat="49.86441160552203655242919921875" lon="11.21147668920457363128662109375">
        <ele>454</ele>
        <time>2018-08-17T11:18:35.000Z</time>
      </trkpt>
      <trkpt lat="49.86463657580316066741943359375" lon="11.21148683130741119384765625">
        <ele>455.20001220703125</ele>
        <time>2018-08-17T11:18:39.000Z</time>
      </trkpt>
      <trkpt lat="49.86489884555339813232421875" lon="11.21146746911108493804931640625">
        <ele>456.20001220703125</ele>
        <time>2018-08-17T11:18:44.000Z</time>
      </trkpt>
      <trkpt lat="49.86513781361281871795654296875" lon="11.21145187877118587493896484375">
        <ele>457.399993896484375</ele>
        <time>2018-08-17T11:18:49.000Z</time>
      </trkpt>
      <trkpt lat="49.86534199677407741546630859375" lon="11.21145020239055156707763671875">
        <ele>458.399993896484375</ele>
        <time>2018-08-17T11:18:53.000Z</time>
      </trkpt>
      <trkpt lat="49.865554980933666229248046875" lon="11.211489178240299224853515625">
        <ele>459.600006103515625</ele>
        <time>2018-08-17T11:18:57.000Z</time>
      </trkpt>
      <trkpt lat="49.86592621542513370513916015625" lon="11.2116439081728458404541015625">
        <ele>460.600006103515625</ele>
        <time>2018-08-17T11:19:04.000Z</time>
      </trkpt>
      <trkpt lat="49.86597902141511440277099609375" lon="11.2116707302629947662353515625">
        <ele>460.79998779296875</ele>
        <time>2018-08-17T11:19:05.000Z</time>
      </trkpt>
      <trkpt lat="49.86633206717669963836669921875" lon="11.21194842271506786346435546875">
        <ele>461.600006103515625</ele>
        <time>2018-08-17T11:19:12.000Z</time>
      </trkpt>
      <trkpt lat="49.866771362721920013427734375" lon="11.21232309378683567047119140625">
        <ele>462.79998779296875</ele>
        <time>2018-08-17T11:19:21.000Z</time>
      </trkpt>
      <trkpt lat="49.86704754643142223358154296875" lon="11.2125709466636180877685546875">
        <ele>464</ele>
        <time>2018-08-17T11:19:27.000Z</time>
      </trkpt>
      <trkpt lat="49.867329262197017669677734375" lon="11.212818212807178497314453125">
        <ele>465.20001220703125</ele>
        <time>2018-08-17T11:19:33.000Z</time>
      </trkpt>
      <trkpt lat="49.8677160032093524932861328125" lon="11.21320000849664211273193359375">
        <ele>466.399993896484375</ele>
        <time>2018-08-17T11:19:41.000Z</time>
      </trkpt>
      <trkpt lat="49.86800576560199260711669921875" lon="11.21388447470963001251220703125">
        <ele>467.399993896484375</ele>
        <time>2018-08-17T11:19:50.000Z</time>
      </trkpt>
      <trkpt lat="49.86816175282001495361328125" lon="11.21434145607054233551025390625">
        <ele>468.399993896484375</ele>
        <time>2018-08-17T11:19:56.000Z</time>
      </trkpt>
      <trkpt lat="49.86836836673319339752197265625" lon="11.21472920291125774383544921875">
        <ele>469.79998779296875</ele>
        <time>2018-08-17T11:20:02.000Z</time>
      </trkpt>
      <trkpt lat="49.868662990629673004150390625" lon="11.2149929814040660858154296875">
        <ele>470.79998779296875</ele>
        <time>2018-08-17T11:20:08.000Z</time>
      </trkpt>
      <trkpt lat="49.86888854764401912689208984375" lon="11.2151113338768482208251953125">
        <ele>471.79998779296875</ele>
        <time>2018-08-17T11:20:12.000Z</time>
      </trkpt>
      <trkpt lat="49.86900555901229381561279296875" lon="11.21515148319303989410400390625">
        <ele>472.399993896484375</ele>
        <time>2018-08-17T11:20:14.000Z</time>
      </trkpt>
      <trkpt lat="49.869169928133487701416015625" lon="11.21524100191891193389892578125">
        <ele>472.600006103515625</ele>
        <time>2018-08-17T11:20:17.000Z</time>
      </trkpt>
      <trkpt lat="49.86933647654950618743896484375" lon="11.21577702462673187255859375">
        <ele>472.600006103515625</ele>
        <time>2018-08-17T11:20:25.000Z</time>
      </trkpt>
      <trkpt lat="49.869347624480724334716796875" lon="11.21595195494592189788818359375">
        <ele>472.600006103515625</ele>
        <time>2018-08-17T11:20:27.000Z</time>
      </trkpt>
      <trkpt lat="49.86972103826701641082763671875" lon="11.21602420695126056671142578125">
        <ele>472.399993896484375</ele>
        <time>2018-08-17T11:20:34.000Z</time>
      </trkpt>
      <trkpt lat="49.86984576098620891571044921875" lon="11.2159924395382404327392578125">
        <ele>472.399993896484375</ele>
        <time>2018-08-17T11:20:36.000Z</time>
      </trkpt>
      <trkpt lat="49.87026519142091274261474609375" lon="11.21577191166579723358154296875">
        <ele>473</ele>
        <time>2018-08-17T11:20:43.000Z</time>
      </trkpt>
      <trkpt lat="49.87032629549503326416015625" lon="11.21573989279568195343017578125">
        <ele>473.20001220703125</ele>
        <time>2018-08-17T11:20:44.000Z</time>
      </trkpt>
      <trkpt lat="49.87087002955377101898193359375" lon="11.21565758250653743743896484375">
        <ele>473.20001220703125</ele>
        <time>2018-08-17T11:20:52.000Z</time>
      </trkpt>
      <trkpt lat="49.87142574973404407501220703125" lon="11.215611733496189117431640625">
        <ele>473.20001220703125</ele>
        <time>2018-08-17T11:21:00.000Z</time>
      </trkpt>
      <trkpt lat="49.87201382406055927276611328125" lon="11.21557443402707576751708984375">
        <ele>473.399993896484375</ele>
        <time>2018-08-17T11:21:09.000Z</time>
      </trkpt>
      <trkpt lat="49.872078113257884979248046875" lon="11.21556571684777736663818359375">
        <ele>473.600006103515625</ele>
        <time>2018-08-17T11:21:10.000Z</time>
      </trkpt>
      <trkpt lat="49.87214106135070323944091796875" lon="11.21555230580270290374755859375">
        <ele>473.79998779296875</ele>
        <time>2018-08-17T11:21:11.000Z</time>
      </trkpt>
      <trkpt lat="49.87266476266086101531982421875" lon="11.2153413332998752593994140625">
        <ele>474.79998779296875</ele>
        <time>2018-08-17T11:21:19.000Z</time>
      </trkpt>
      <trkpt lat="49.8730911500751972198486328125" lon="11.21514829806983470916748046875">
        <ele>475.600006103515625</ele>
        <time>2018-08-17T11:21:25.000Z</time>
      </trkpt>
      <trkpt lat="49.873433299362659454345703125" lon="11.2151701748371124267578125">
        <ele>475.600006103515625</ele>
        <time>2018-08-17T11:21:29.000Z</time>
      </trkpt>
      <trkpt lat="49.87399497069418430328369140625" lon="11.2154841609299182891845703125">
        <ele>474.79998779296875</ele>
        <time>2018-08-17T11:21:35.000Z</time>
      </trkpt>
      <trkpt lat="49.8742666281759738922119140625" lon="11.21567484922707080841064453125">
        <ele>473.399993896484375</ele>
        <time>2018-08-17T11:21:38.000Z</time>
      </trkpt>
      <trkpt lat="49.87454046495258808135986328125" lon="11.21587920002639293670654296875">
        <ele>472</ele>
        <time>2018-08-17T11:21:41.000Z</time>
      </trkpt>
      <trkpt lat="49.87472956068813800811767578125" lon="11.21602789498865604400634765625">
        <ele>471</ele>
        <time>2018-08-17T11:21:43.000Z</time>
      </trkpt>
      <trkpt lat="49.8750206641852855682373046875" lon="11.21628454886376857757568359375">
        <ele>469.79998779296875</ele>
        <time>2018-08-17T11:21:46.000Z</time>
      </trkpt>
      <trkpt lat="49.87543816678225994110107421875" lon="11.2167097628116607666015625">
        <ele>468.79998779296875</ele>
        <time>2018-08-17T11:21:50.000Z</time>
      </trkpt>
      <trkpt lat="49.87554344348609447479248046875" lon="11.21683205477893352508544921875">
        <ele>467.79998779296875</ele>
        <time>2018-08-17T11:21:51.000Z</time>
      </trkpt>
      <trkpt lat="49.87575617618858814239501953125" lon="11.21708317659795284271240234375">
        <ele>466.600006103515625</ele>
        <time>2018-08-17T11:21:53.000Z</time>
      </trkpt>
      <trkpt lat="49.87596907652914524078369140625" lon="11.2173405848443508148193359375">
        <ele>464.79998779296875</ele>
        <time>2018-08-17T11:21:55.000Z</time>
      </trkpt>
      <trkpt lat="49.8761887662112712860107421875" lon="11.21759288012981414794921875">
        <ele>463.20001220703125</ele>
        <time>2018-08-17T11:21:57.000Z</time>
      </trkpt>
      <trkpt lat="49.87641063518822193145751953125" lon="11.2178470194339752197265625">
        <ele>461.20001220703125</ele>
        <time>2018-08-17T11:21:59.000Z</time>
      </trkpt>
      <trkpt lat="49.87652244977653026580810546875" lon="11.21797517873346805572509765625">
        <ele>460.20001220703125</ele>
        <time>2018-08-17T11:22:00.000Z</time>
      </trkpt>
      <trkpt lat="49.87674607895314693450927734375" lon="11.2182278931140899658203125">
        <ele>458.399993896484375</ele>
        <time>2018-08-17T11:22:02.000Z</time>
      </trkpt>
      <trkpt lat="49.87696786411106586456298828125" lon="11.21848060749471187591552734375">
        <ele>456.399993896484375</ele>
        <time>2018-08-17T11:22:04.000Z</time>
      </trkpt>
      <trkpt lat="49.8770779184997081756591796875" lon="11.2186035700142383575439453125">
        <ele>455.20001220703125</ele>
        <time>2018-08-17T11:22:05.000Z</time>
      </trkpt>
      <trkpt lat="49.8771880567073822021484375" lon="11.218724437057971954345703125">
        <ele>454.20001220703125</ele>
        <time>2018-08-17T11:22:06.000Z</time>
      </trkpt>
      <trkpt lat="49.877398274838924407958984375" lon="11.21896692551672458648681640625">
        <ele>452.20001220703125</ele>
        <time>2018-08-17T11:22:08.000Z</time>
      </trkpt>
      <trkpt lat="49.87758980132639408111572265625" lon="11.21920849196612834930419921875">
        <ele>450.399993896484375</ele>
        <time>2018-08-17T11:22:10.000Z</time>
      </trkpt>
      <trkpt lat="49.877752996981143951416015625" lon="11.21944092214107513427734375">
        <ele>448.600006103515625</ele>
        <time>2018-08-17T11:22:12.000Z</time>
      </trkpt>
      <trkpt lat="49.87789741717278957366943359375" lon="11.21965792961418628692626953125">
        <ele>447</ele>
        <time>2018-08-17T11:22:14.000Z</time>
      </trkpt>
      <trkpt lat="49.87803555093705654144287109375" lon="11.219849623739719390869140625">
        <ele>445.79998779296875</ele>
        <time>2018-08-17T11:22:16.000Z</time>
      </trkpt>
      <trkpt lat="49.8785018362104892730712890625" lon="11.22033250518143177032470703125">
        <ele>445.399993896484375</ele>
        <time>2018-08-17T11:22:23.000Z</time>
      </trkpt>
      <trkpt lat="49.87908831797540187835693359375" lon="11.2206162326037883758544921875">
        <ele>446.79998779296875</ele>
        <time>2018-08-17T11:22:30.000Z</time>
      </trkpt>
      <trkpt lat="49.87919527105987071990966796875" lon="11.2206755764782428741455078125">
        <ele>446.79998779296875</ele>
        <time>2018-08-17T11:22:31.000Z</time>
      </trkpt>
      <trkpt lat="49.8797658272087574005126953125" lon="11.220919825136661529541015625">
        <ele>446.79998779296875</ele>
        <time>2018-08-17T11:22:36.000Z</time>
      </trkpt>
      <trkpt lat="49.880099929869174957275390625" lon="11.22094027698040008544921875">
        <ele>444.79998779296875</ele>
        <time>2018-08-17T11:22:39.000Z</time>
      </trkpt>
      <trkpt lat="49.880203865468502044677734375" lon="11.22094538994133472442626953125">
        <ele>443.600006103515625</ele>
        <time>2018-08-17T11:22:40.000Z</time>
      </trkpt>
      <trkpt lat="49.88030738197267055511474609375" lon="11.2209556996822357177734375">
        <ele>442.20001220703125</ele>
        <time>2018-08-17T11:22:41.000Z</time>
      </trkpt>
      <trkpt lat="49.880409725010395050048828125" lon="11.22097103856503963470458984375">
        <ele>441</ele>
        <time>2018-08-17T11:22:42.000Z</time>
      </trkpt>
      <trkpt lat="49.8805071227252483367919921875" lon="11.22098897583782672882080078125">
        <ele>439.600006103515625</ele>
        <time>2018-08-17T11:22:43.000Z</time>
      </trkpt>
      <trkpt lat="49.88059437833726406097412109375" lon="11.22100691311061382293701171875">
        <ele>438.399993896484375</ele>
        <time>2018-08-17T11:22:44.000Z</time>
      </trkpt>
      <trkpt lat="49.88067300058901309967041015625" lon="11.2210200726985931396484375">
        <ele>435</ele>
        <time>2018-08-17T11:22:45.000Z</time>
      </trkpt>
      <trkpt lat="49.8807404749095439910888671875" lon="11.22102971188724040985107421875">
        <ele>433.399993896484375</ele>
        <time>2018-08-17T11:22:46.000Z</time>
      </trkpt>
      <trkpt lat="49.8807929456233978271484375" lon="11.2210443802177906036376953125">
        <ele>431.79998779296875</ele>
        <time>2018-08-17T11:22:47.000Z</time>
      </trkpt>
      <trkpt lat="49.88083678297698497772216796875" lon="11.22105871327221393585205078125">
        <ele>430</ele>
        <time>2018-08-17T11:22:48.000Z</time>
      </trkpt>
      <trkpt lat="49.88087567500770092010498046875" lon="11.22107430361211299896240234375">
        <ele>428.399993896484375</ele>
        <time>2018-08-17T11:22:49.000Z</time>
      </trkpt>
      <trkpt lat="49.88091087900102138519287109375" lon="11.2210876308381557464599609375">
        <ele>426.79998779296875</ele>
        <time>2018-08-17T11:22:50.000Z</time>
      </trkpt>
      <trkpt lat="49.880944825708866119384765625" lon="11.22110347263514995574951171875">
        <ele>425</ele>
        <time>2018-08-17T11:22:51.000Z</time>
      </trkpt>
      <trkpt lat="49.8809822089970111846923828125" lon="11.22112191282212734222412109375">
        <ele>423.399993896484375</ele>
        <time>2018-08-17T11:22:52.000Z</time>
      </trkpt>
      <trkpt lat="49.8810257948935031890869140625" lon="11.2211434543132781982421875">
        <ele>422.20001220703125</ele>
        <time>2018-08-17T11:22:53.000Z</time>
      </trkpt>
      <trkpt lat="49.88107382319867610931396484375" lon="11.22116767801344394683837890625">
        <ele>421.20001220703125</ele>
        <time>2018-08-17T11:22:54.000Z</time>
      </trkpt>
      <trkpt lat="49.8811169900000095367431640625" lon="11.2212078273296356201171875">
        <ele>420.399993896484375</ele>
        <time>2018-08-17T11:22:55.000Z</time>
      </trkpt>
      <trkpt lat="49.88114674575626850128173828125" lon="11.22126624919474124908447265625">
        <ele>419.79998779296875</ele>
        <time>2018-08-17T11:22:56.000Z</time>
      </trkpt>
      <trkpt lat="49.88118027336895465850830078125" lon="11.22147680260241031646728515625">
        <ele>419.20001220703125</ele>
        <time>2018-08-17T11:22:59.000Z</time>
      </trkpt>
      <trkpt lat="49.88121430389583110809326171875" lon="11.22186086140573024749755859375">
        <ele>419</ele>
        <time>2018-08-17T11:23:04.000Z</time>
      </trkpt>
      <trkpt lat="49.88134891726076602935791015625" lon="11.222540549933910369873046875">
        <ele>421</ele>
        <time>2018-08-17T11:23:12.000Z</time>
      </trkpt>
      <trkpt lat="49.88148453645408153533935546875" lon="11.2234124355018138885498046875">
        <ele>421.79998779296875</ele>
        <time>2018-08-17T11:23:20.000Z</time>
      </trkpt>
      <trkpt lat="49.8816068284213542938232421875" lon="11.2239522300660610198974609375">
        <ele>421.79998779296875</ele>
        <time>2018-08-17T11:23:25.000Z</time>
      </trkpt>
      <trkpt lat="49.8818851076066493988037109375" lon="11.22476418502628803253173828125">
        <ele>421.600006103515625</ele>
        <time>2018-08-17T11:23:33.000Z</time>
      </trkpt>
      <trkpt lat="49.88198711536824703216552734375" lon="11.22510264627635478973388671875">
        <ele>421.399993896484375</ele>
        <time>2018-08-17T11:23:36.000Z</time>
      </trkpt>
      <trkpt lat="49.882180653512477874755859375" lon="11.22562584467232227325439453125">
        <ele>421.399993896484375</ele>
        <time>2018-08-17T11:23:41.000Z</time>
      </trkpt>
      <trkpt lat="49.8827353678643703460693359375" lon="11.225665993988513946533203125">
        <ele>420.600006103515625</ele>
        <time>2018-08-17T11:23:50.000Z</time>
      </trkpt>
      <trkpt lat="49.88327139057219028472900390625" lon="11.22534655965864658355712890625">
        <ele>420.79998779296875</ele>
        <time>2018-08-17T11:23:58.000Z</time>
      </trkpt>
      <trkpt lat="49.883669279515743255615234375" lon="11.22481883503496646881103515625">
        <ele>420.79998779296875</ele>
        <time>2018-08-17T11:24:03.000Z</time>
      </trkpt>
      <trkpt lat="49.88390707410871982574462890625" lon="11.2244199402630329132080078125">
        <ele>419.600006103515625</ele>
        <time>2018-08-17T11:24:06.000Z</time>
      </trkpt>
      <trkpt lat="49.883989132940769195556640625" lon="11.22429261915385723114013671875">
        <ele>418.600006103515625</ele>
        <time>2018-08-17T11:24:07.000Z</time>
      </trkpt>
      <trkpt lat="49.88417009823024272918701171875" lon="11.22404803521931171417236328125">
        <ele>416.79998779296875</ele>
        <time>2018-08-17T11:24:09.000Z</time>
      </trkpt>
      <trkpt lat="49.8843674920499324798583984375" lon="11.22379020787775516510009765625">
        <ele>415.20001220703125</ele>
        <time>2018-08-17T11:24:11.000Z</time>
      </trkpt>
      <trkpt lat="49.88457209430634975433349609375" lon="11.2235653214156627655029296875">
        <ele>413.399993896484375</ele>
        <time>2018-08-17T11:24:13.000Z</time>
      </trkpt>
      <trkpt lat="49.884772002696990966796875" lon="11.22342073358595371246337890625">
        <ele>411.600006103515625</ele>
        <time>2018-08-17T11:24:15.000Z</time>
      </trkpt>
      <trkpt lat="49.8848637007176876068115234375" lon="11.22338620014488697052001953125">
        <ele>410.79998779296875</ele>
        <time>2018-08-17T11:24:16.000Z</time>
      </trkpt>
      <trkpt lat="49.884945340454578399658203125" lon="11.2233804166316986083984375">
        <ele>409.79998779296875</ele>
        <time>2018-08-17T11:24:17.000Z</time>
      </trkpt>
      <trkpt lat="49.88508624024689197540283203125" lon="11.22346532531082630157470703125">
        <ele>407.600006103515625</ele>
        <time>2018-08-17T11:24:19.000Z</time>
      </trkpt>
      <trkpt lat="49.8851563967764377593994140625" lon="11.2235230766236782073974609375">
        <ele>406.399993896484375</ele>
        <time>2018-08-17T11:24:20.000Z</time>
      </trkpt>
      <trkpt lat="49.88522873260080814361572265625" lon="11.22355811297893524169921875">
        <ele>405.20001220703125</ele>
        <time>2018-08-17T11:24:21.000Z</time>
      </trkpt>
      <trkpt lat="49.88538715057075023651123046875" lon="11.22355417348444461822509765625">
        <ele>403.600006103515625</ele>
        <time>2018-08-17T11:24:23.000Z</time>
      </trkpt>
      <trkpt lat="49.88554975949227809906005859375" lon="11.2235307879745960235595703125">
        <ele>402.79998779296875</ele>
        <time>2018-08-17T11:24:25.000Z</time>
      </trkpt>
      <trkpt lat="49.885626621544361114501953125" lon="11.22351846657693386077880859375">
        <ele>402.600006103515625</ele>
        <time>2018-08-17T11:24:26.000Z</time>
      </trkpt>
      <trkpt lat="49.8858480714261531829833984375" lon="11.22350706718862056732177734375">
        <ele>401.600006103515625</ele>
        <time>2018-08-17T11:24:29.000Z</time>
      </trkpt>
      <trkpt lat="49.88603658042848110198974609375" lon="11.22352098114788532257080078125">
        <ele>400.20001220703125</ele>
        <time>2018-08-17T11:24:32.000Z</time>
      </trkpt>
      <trkpt lat="49.8862158693373203277587890625" lon="11.22359122149646282196044921875">
        <ele>399</ele>
        <time>2018-08-17T11:24:36.000Z</time>
      </trkpt>
      <trkpt lat="49.886401109397411346435546875" lon="11.2234898842871189117431640625">
        <ele>398.600006103515625</ele>
        <time>2018-08-17T11:24:40.000Z</time>
      </trkpt>
      <trkpt lat="49.88645383156836032867431640625" lon="11.223475299775600433349609375">
        <ele>398.399993896484375</ele>
        <time>2018-08-17T11:24:41.000Z</time>
      </trkpt>
      <trkpt lat="49.88657034002244472503662109375" lon="11.22349516488611698150634765625">
        <ele>398</ele>
        <time>2018-08-17T11:24:43.000Z</time>
      </trkpt>
      <trkpt lat="49.886914081871509552001953125" lon="11.22345442883670330047607421875">
        <ele>397.399993896484375</ele>
        <time>2018-08-17T11:24:48.000Z</time>
      </trkpt>
      <trkpt lat="49.88718221895396709442138671875" lon="11.22328863479197025299072265625">
        <ele>396.79998779296875</ele>
        <time>2018-08-17T11:24:52.000Z</time>
      </trkpt>
      <trkpt lat="49.8873940296471118927001953125" lon="11.22298001311719417572021484375">
        <ele>396</ele>
        <time>2018-08-17T11:24:56.000Z</time>
      </trkpt>
      <trkpt lat="49.88747793249785900115966796875" lon="11.22279158793389797210693359375">
        <ele>395.79998779296875</ele>
        <time>2018-08-17T11:24:58.000Z</time>
      </trkpt>
      <trkpt lat="49.887775070965290069580078125" lon="11.2220163457095623016357421875">
        <ele>395.20001220703125</ele>
        <time>2018-08-17T11:25:06.000Z</time>
      </trkpt>
      <trkpt lat="49.88798654638230800628662109375" lon="11.22180118225514888763427734375">
        <ele>395.20001220703125</ele>
        <time>2018-08-17T11:25:10.000Z</time>
      </trkpt>
      <trkpt lat="49.8885363154113292694091796875" lon="11.2214934825897216796875">
        <ele>396.600006103515625</ele>
        <time>2018-08-17T11:25:21.000Z</time>
      </trkpt>
      <trkpt lat="49.88858945667743682861328125" lon="11.22148384340107440948486328125">
        <ele>396.79998779296875</ele>
        <time>2018-08-17T11:25:22.000Z</time>
      </trkpt>
      <trkpt lat="49.88869783468544483184814453125" lon="11.2214701808989048004150390625">
        <ele>397.20001220703125</ele>
        <time>2018-08-17T11:25:24.000Z</time>
      </trkpt>
      <trkpt lat="49.88929261453449726104736328125" lon="11.2214718572795391082763671875">
        <ele>397.20001220703125</ele>
        <time>2018-08-17T11:25:33.000Z</time>
      </trkpt>
      <trkpt lat="49.88983542658388614654541015625" lon="11.22157420031726360321044921875">
        <ele>396.399993896484375</ele>
        <time>2018-08-17T11:25:41.000Z</time>
      </trkpt>
      <trkpt lat="49.89018193446099758148193359375" lon="11.2217112444341182708740234375">
        <ele>396.399993896484375</ele>
        <time>2018-08-17T11:25:46.000Z</time>
      </trkpt>
      <trkpt lat="49.89049776457250118255615234375" lon="11.22209588997066020965576171875">
        <ele>396.399993896484375</ele>
        <time>2018-08-17T11:25:52.000Z</time>
      </trkpt>
      <trkpt lat="49.89082935266196727752685546875" lon="11.22278203256428241729736328125">
        <ele>397.20001220703125</ele>
        <time>2018-08-17T11:26:00.000Z</time>
      </trkpt>
      <trkpt lat="49.89108860492706298828125" lon="11.2235425226390361785888671875">
        <ele>397.600006103515625</ele>
        <time>2018-08-17T11:26:08.000Z</time>
      </trkpt>
      <trkpt lat="49.8911742679774761199951171875" lon="11.2238603644073009490966796875">
        <ele>397.600006103515625</ele>
        <time>2018-08-17T11:26:11.000Z</time>
      </trkpt>
      <trkpt lat="49.8912460170686244964599609375" lon="11.22406865470111370086669921875">
        <ele>397.600006103515625</ele>
        <time>2018-08-17T11:26:13.000Z</time>
      </trkpt>
      <trkpt lat="49.89140686579048633575439453125" lon="11.2244015000760555267333984375">
        <ele>397.600006103515625</ele>
        <time>2018-08-17T11:26:17.000Z</time>
      </trkpt>
      <trkpt lat="49.89162144251167774200439453125" lon="11.22473652474582195281982421875">
        <ele>397.79998779296875</ele>
        <time>2018-08-17T11:26:22.000Z</time>
      </trkpt>
      <trkpt lat="49.89187248051166534423828125" lon="11.224977672100067138671875">
        <ele>398.600006103515625</ele>
        <time>2018-08-17T11:26:27.000Z</time>
      </trkpt>
      <trkpt lat="49.8921368457376956939697265625" lon="11.2250106967985630035400390625">
        <ele>399.20001220703125</ele>
        <time>2018-08-17T11:26:32.000Z</time>
      </trkpt>
      <trkpt lat="49.89223315380513668060302734375" lon="11.22497356496751308441162109375">
        <ele>399.399993896484375</ele>
        <time>2018-08-17T11:26:34.000Z</time>
      </trkpt>
      <trkpt lat="49.89232979714870452880859375" lon="11.22489728964865207672119140625">
        <ele>399.600006103515625</ele>
        <time>2018-08-17T11:26:36.000Z</time>
      </trkpt>
      <trkpt lat="49.89243666641414165496826171875" lon="11.22479318641126155853271484375">
        <ele>400.20001220703125</ele>
        <time>2018-08-17T11:26:38.000Z</time>
      </trkpt>
      <trkpt lat="49.89253138191998004913330078125" lon="11.22466812841594219207763671875">
        <ele>400.600006103515625</ele>
        <time>2018-08-17T11:26:40.000Z</time>
      </trkpt>
      <trkpt lat="49.89294578321278095245361328125" lon="11.22401811182498931884765625">
        <ele>401.20001220703125</ele>
        <time>2018-08-17T11:26:49.000Z</time>
      </trkpt>
      <trkpt lat="49.893349371850490570068359375" lon="11.223349235951900482177734375">
        <ele>401</ele>
        <time>2018-08-17T11:26:57.000Z</time>
      </trkpt>
      <trkpt lat="49.89357258193194866180419921875" lon="11.223071627318859100341796875">
        <ele>400.79998779296875</ele>
        <time>2018-08-17T11:27:01.000Z</time>
      </trkpt>
      <trkpt lat="49.89393836818635463714599609375" lon="11.223270781338214874267578125">
        <ele>399.79998779296875</ele>
        <time>2018-08-17T11:27:08.000Z</time>
      </trkpt>
      <trkpt lat="49.89405286498367786407470703125" lon="11.22350656427443027496337890625">
        <ele>399.399993896484375</ele>
        <time>2018-08-17T11:27:11.000Z</time>
      </trkpt>
      <trkpt lat="49.89413618110120296478271484375" lon="11.2236541695892810821533203125">
        <ele>399.20001220703125</ele>
        <time>2018-08-17T11:27:13.000Z</time>
      </trkpt>
      <trkpt lat="49.8943483270704746246337890625" lon="11.22391157783567905426025390625">
        <ele>399</ele>
        <time>2018-08-17T11:27:24.000Z</time>
      </trkpt>
      <trkpt lat="49.89444111473858356475830078125" lon="11.22400914318859577178955078125">
        <ele>399.399993896484375</ele>
        <time>2018-08-17T11:27:29.000Z</time>
      </trkpt>
      <trkpt lat="49.8946738801896572113037109375" lon="11.22393353842198848724365234375">
        <ele>400.600006103515625</ele>
        <time>2018-08-17T11:27:35.000Z</time>
      </trkpt>
      <trkpt lat="49.89472157321870326995849609375" lon="11.22391493059694766998291015625">
        <ele>400.600006103515625</ele>
        <time>2018-08-17T11:27:36.000Z</time>
      </trkpt>
      <trkpt lat="49.89531568251550197601318359375" lon="11.22387553565204143524169921875">
        <ele>401.600006103515625</ele>
        <time>2018-08-17T11:27:47.000Z</time>
      </trkpt>
      <trkpt lat="49.8954929597675800323486328125" lon="11.22390017844736576080322265625">
        <ele>401.79998779296875</ele>
        <time>2018-08-17T11:27:50.000Z</time>
      </trkpt>
      <trkpt lat="49.8960542120039463043212890625" lon="11.2240424193441867828369140625">
        <ele>402.20001220703125</ele>
        <time>2018-08-17T11:27:59.000Z</time>
      </trkpt>
      <trkpt lat="49.89645428024232387542724609375" lon="11.224102266132831573486328125">
        <ele>402.600006103515625</ele>
        <time>2018-08-17T11:28:05.000Z</time>
      </trkpt>
      <trkpt lat="49.8970114253461360931396484375" lon="11.2240440957248210906982421875">
        <ele>403</ele>
        <time>2018-08-17T11:28:13.000Z</time>
      </trkpt>
      <trkpt lat="49.89756622351706027984619140625" lon="11.22378434054553508758544921875">
        <ele>402.79998779296875</ele>
        <time>2018-08-17T11:28:21.000Z</time>
      </trkpt>
      <trkpt lat="49.898049943149089813232421875" lon="11.22341050766408443450927734375">
        <ele>402.600006103515625</ele>
        <time>2018-08-17T11:28:28.000Z</time>
      </trkpt>
      <trkpt lat="49.898554868996143341064453125" lon="11.223018653690814971923828125">
        <ele>402.20001220703125</ele>
        <time>2018-08-17T11:28:35.000Z</time>
      </trkpt>
      <trkpt lat="49.8988594673573970794677734375" lon="11.22282109223306179046630859375">
        <ele>401.600006103515625</ele>
        <time>2018-08-17T11:28:39.000Z</time>
      </trkpt>
      <trkpt lat="49.89939029328525066375732421875" lon="11.22253216803073883056640625">
        <ele>401.20001220703125</ele>
        <time>2018-08-17T11:28:46.000Z</time>
      </trkpt>
      <trkpt lat="49.89999161101877689361572265625" lon="11.22239696793258190155029296875">
        <ele>401.399993896484375</ele>
        <time>2018-08-17T11:28:54.000Z</time>
      </trkpt>
      <trkpt lat="49.9005754105746746063232421875" lon="11.22245362959802150726318359375">
        <ele>402.20001220703125</ele>
        <time>2018-08-17T11:29:02.000Z</time>
      </trkpt>
      <trkpt lat="49.9007195793092250823974609375" lon="11.22249503619968891143798828125">
        <ele>402.399993896484375</ele>
        <time>2018-08-17T11:29:04.000Z</time>
      </trkpt>
      <trkpt lat="49.901306144893169403076171875" lon="11.2226627580821514129638671875">
        <ele>403</ele>
        <time>2018-08-17T11:29:12.000Z</time>
      </trkpt>
      <trkpt lat="49.901841245591640472412109375" lon="11.22281220741569995880126953125">
        <ele>403.20001220703125</ele>
        <time>2018-08-17T11:29:19.000Z</time>
      </trkpt>
      <trkpt lat="49.90242965519428253173828125" lon="11.22304623015224933624267578125">
        <ele>403.399993896484375</ele>
        <time>2018-08-17T11:29:27.000Z</time>
      </trkpt>
      <trkpt lat="49.90295779891312122344970703125" lon="11.223327778279781341552734375">
        <ele>403.79998779296875</ele>
        <time>2018-08-17T11:29:35.000Z</time>
      </trkpt>
      <trkpt lat="49.9031530134379863739013671875" lon="11.22339491732418537139892578125">
        <ele>404.399993896484375</ele>
        <time>2018-08-17T11:29:38.000Z</time>
      </trkpt>
      <trkpt lat="49.90351192653179168701171875" lon="11.2234462983906269073486328125">
        <ele>405.600006103515625</ele>
        <time>2018-08-17T11:29:44.000Z</time>
      </trkpt>
      <trkpt lat="49.9038567580282688140869140625" lon="11.223464570939540863037109375">
        <ele>406.600006103515625</ele>
        <time>2018-08-17T11:29:50.000Z</time>
      </trkpt>
      <trkpt lat="49.904084242880344390869140625" lon="11.2233688496053218841552734375">
        <ele>407.79998779296875</ele>
        <time>2018-08-17T11:29:54.000Z</time>
      </trkpt>
      <trkpt lat="49.90419396199285984039306640625" lon="11.223288215696811676025390625">
        <ele>408.600006103515625</ele>
        <time>2018-08-17T11:29:56.000Z</time>
      </trkpt>
      <trkpt lat="49.90429580211639404296875" lon="11.22317992150783538818359375">
        <ele>409</ele>
        <time>2018-08-17T11:29:58.000Z</time>
      </trkpt>
      <trkpt lat="49.90452923811972141265869140625" lon="11.2228163145482540130615234375">
        <ele>410</ele>
        <time>2018-08-17T11:30:03.000Z</time>
      </trkpt>
      <trkpt lat="49.90492947399616241455078125" lon="11.22215825133025646209716796875">
        <ele>410.399993896484375</ele>
        <time>2018-08-17T11:30:11.000Z</time>
      </trkpt>
      <trkpt lat="49.9053950048983097076416015625" lon="11.22172054834663867950439453125">
        <ele>410.399993896484375</ele>
        <time>2018-08-17T11:30:18.000Z</time>
      </trkpt>
      <trkpt lat="49.90562726743519306182861328125" lon="11.2215962447226047515869140625">
        <ele>409.79998779296875</ele>
        <time>2018-08-17T11:30:21.000Z</time>
      </trkpt>
      <trkpt lat="49.90616261959075927734375" lon="11.22161778621375560760498046875">
        <ele>409</ele>
        <time>2018-08-17T11:30:27.000Z</time>
      </trkpt>
      <trkpt lat="49.906497895717620849609375" lon="11.2219150923192501068115234375">
        <ele>408</ele>
        <time>2018-08-17T11:30:31.000Z</time>
      </trkpt>
      <trkpt lat="49.90663544274866580963134765625" lon="11.2221145816147327423095703125">
        <ele>407.20001220703125</ele>
        <time>2018-08-17T11:30:33.000Z</time>
      </trkpt>
      <trkpt lat="49.906700737774372100830078125" lon="11.22221357189118862152099609375">
        <ele>406.79998779296875</ele>
        <time>2018-08-17T11:30:34.000Z</time>
      </trkpt>
      <trkpt lat="49.90688748657703399658203125" lon="11.22250475920736789703369140625">
        <ele>405.600006103515625</ele>
        <time>2018-08-17T11:30:37.000Z</time>
      </trkpt>
      <trkpt lat="49.90713617764413356781005859375" lon="11.22286048717796802520751953125">
        <ele>404.399993896484375</ele>
        <time>2018-08-17T11:30:41.000Z</time>
      </trkpt>
      <trkpt lat="49.9076204001903533935546875" lon="11.223335154354572296142578125">
        <ele>404.20001220703125</ele>
        <time>2018-08-17T11:30:48.000Z</time>
      </trkpt>
      <trkpt lat="49.90814971737563610076904296875" lon="11.22363899834454059600830078125">
        <ele>404.399993896484375</ele>
        <time>2018-08-17T11:30:55.000Z</time>
      </trkpt>
      <trkpt lat="49.9087159149348735809326171875" lon="11.2238000147044658660888671875">
        <ele>404.600006103515625</ele>
        <time>2018-08-17T11:31:02.000Z</time>
      </trkpt>
      <trkpt lat="49.9093046598136425018310546875" lon="11.22394108213484287261962890625">
        <ele>404.79998779296875</ele>
        <time>2018-08-17T11:31:09.000Z</time>
      </trkpt>
      <trkpt lat="49.9098551832139492034912109375" lon="11.2242982350289821624755859375">
        <ele>404.79998779296875</ele>
        <time>2018-08-17T11:31:16.000Z</time>
      </trkpt>
      <trkpt lat="49.9101837538182735443115234375" lon="11.2247055955231189727783203125">
        <ele>404.600006103515625</ele>
        <time>2018-08-17T11:31:21.000Z</time>
      </trkpt>
      <trkpt lat="49.9104824848473072052001953125" lon="11.22547882609069347381591796875">
        <ele>404.600006103515625</ele>
        <time>2018-08-17T11:31:28.000Z</time>
      </trkpt>
      <trkpt lat="49.91059052757918834686279296875" lon="11.22635372914373874664306640625">
        <ele>404.600006103515625</ele>
        <time>2018-08-17T11:31:35.000Z</time>
      </trkpt>
      <trkpt lat="49.91069697774946689605712890625" lon="11.227199546992778778076171875">
        <ele>404.79998779296875</ele>
        <time>2018-08-17T11:31:42.000Z</time>
      </trkpt>
      <trkpt lat="49.91079546511173248291015625" lon="11.22753188945353031158447265625">
        <ele>405.20001220703125</ele>
        <time>2018-08-17T11:31:45.000Z</time>
      </trkpt>
      <trkpt lat="49.91105186752974987030029296875" lon="11.22812767513096332550048828125">
        <ele>405.79998779296875</ele>
        <time>2018-08-17T11:31:51.000Z</time>
      </trkpt>
      <trkpt lat="49.91143047809600830078125" lon="11.22866897843778133392333984375">
        <ele>406.20001220703125</ele>
        <time>2018-08-17T11:31:58.000Z</time>
      </trkpt>
      <trkpt lat="49.91187228821218013763427734375" lon="11.22925805859267711639404296875">
        <ele>406.600006103515625</ele>
        <time>2018-08-17T11:32:06.000Z</time>
      </trkpt>
      <trkpt lat="49.91231753490865230560302734375" lon="11.22983850538730621337890625">
        <ele>406.79998779296875</ele>
        <time>2018-08-17T11:32:14.000Z</time>
      </trkpt>
      <trkpt lat="49.91242482326924800872802734375" lon="11.22997798025608062744140625">
        <ele>406.79998779296875</ele>
        <time>2018-08-17T11:32:16.000Z</time>
      </trkpt>
      <trkpt lat="49.91260771639645099639892578125" lon="11.23011401854455471038818359375">
        <ele>406.79998779296875</ele>
        <time>2018-08-17T11:32:19.000Z</time>
      </trkpt>
      <trkpt lat="49.912857748568058013916015625" lon="11.23040352948009967803955078125">
        <ele>407.20001220703125</ele>
        <time>2018-08-17T11:32:24.000Z</time>
      </trkpt>
      <trkpt lat="49.91289840079843997955322265625" lon="11.23047293163836002349853515625">
        <ele>407.399993896484375</ele>
        <time>2018-08-17T11:32:25.000Z</time>
      </trkpt>
      <trkpt lat="49.91303083486855030059814453125" lon="11.23077752999961376190185546875">
        <ele>407.79998779296875</ele>
        <time>2018-08-17T11:32:29.000Z</time>
      </trkpt>
      <trkpt lat="49.91313636302947998046875" lon="11.23111247085034847259521484375">
        <ele>408.399993896484375</ele>
        <time>2018-08-17T11:32:33.000Z</time>
      </trkpt>
      <trkpt lat="49.91332353092730045318603515625" lon="11.23193289153277873992919921875">
        <ele>408.79998779296875</ele>
        <time>2018-08-17T11:32:41.000Z</time>
      </trkpt>
      <trkpt lat="49.9135217629373073577880859375" lon="11.232820786535739898681640625">
        <ele>408.600006103515625</ele>
        <time>2018-08-17T11:32:49.000Z</time>
      </trkpt>
      <trkpt lat="49.91370029747486114501953125" lon="11.233622767031192779541015625">
        <ele>408.20001220703125</ele>
        <time>2018-08-17T11:32:56.000Z</time>
      </trkpt>
      <trkpt lat="49.91391219198703765869140625" lon="11.23440471477806568145751953125">
        <ele>408</ele>
        <time>2018-08-17T11:33:03.000Z</time>
      </trkpt>
      <trkpt lat="49.9141544289886951446533203125" lon="11.2350294180214405059814453125">
        <ele>408</ele>
        <time>2018-08-17T11:33:09.000Z</time>
      </trkpt>
      <trkpt lat="49.91420363076031208038330078125" lon="11.2356000579893589019775390625">
        <ele>408.20001220703125</ele>
        <time>2018-08-17T11:33:14.000Z</time>
      </trkpt>
      <trkpt lat="49.9141891300678253173828125" lon="11.23606835491955280303955078125">
        <ele>408.399993896484375</ele>
        <time>2018-08-17T11:33:19.000Z</time>
      </trkpt>
      <trkpt lat="49.9142325483262538909912109375" lon="11.23634311370551586151123046875">
        <ele>409.399993896484375</ele>
        <time>2018-08-17T11:33:23.000Z</time>
      </trkpt>
      <trkpt lat="49.914279989898204803466796875" lon="11.23651393689215183258056640625">
        <ele>411.20001220703125</ele>
        <time>2018-08-17T11:33:26.000Z</time>
      </trkpt>
      <trkpt lat="49.9143220670521259307861328125" lon="11.23666548170149326324462890625">
        <ele>412.20001220703125</ele>
        <time>2018-08-17T11:33:29.000Z</time>
      </trkpt>
      <trkpt lat="49.9143554270267486572265625" lon="11.23676438815891742706298828125">
        <ele>413.20001220703125</ele>
        <time>2018-08-17T11:33:31.000Z</time>
      </trkpt>
      <trkpt lat="49.91440035402774810791015625" lon="11.23691760934889316558837890625">
        <ele>414.399993896484375</ele>
        <time>2018-08-17T11:33:34.000Z</time>
      </trkpt>
      <trkpt lat="49.91446548141539096832275390625" lon="11.2371201999485492706298828125">
        <ele>415.79998779296875</ele>
        <time>2018-08-17T11:33:38.000Z</time>
      </trkpt>
      <trkpt lat="49.91451510228216648101806640625" lon="11.23726193793118000030517578125">
        <ele>416.79998779296875</ele>
        <time>2018-08-17T11:33:41.000Z</time>
      </trkpt>
      <trkpt lat="49.91456371732056140899658203125" lon="11.23739697039127349853515625">
        <ele>418</ele>
        <time>2018-08-17T11:33:44.000Z</time>
      </trkpt>
      <trkpt lat="49.91461032070219516754150390625" lon="11.23752973973751068115234375">
        <ele>419.20001220703125</ele>
        <time>2018-08-17T11:33:47.000Z</time>
      </trkpt>
      <trkpt lat="49.91464233957231044769287109375" lon="11.2376643531024456024169921875">
        <ele>420.20001220703125</ele>
        <time>2018-08-17T11:33:50.000Z</time>
      </trkpt>
      <trkpt lat="49.91467921994626522064208984375" lon="11.237790249288082122802734375">
        <ele>421.600006103515625</ele>
        <time>2018-08-17T11:33:53.000Z</time>
      </trkpt>
      <trkpt lat="49.91471551358699798583984375" lon="11.23792042024433612823486328125">
        <ele>422.79998779296875</ele>
        <time>2018-08-17T11:33:56.000Z</time>
      </trkpt>
      <trkpt lat="49.91475708782672882080078125" lon="11.23804179020226001739501953125">
        <ele>423.600006103515625</ele>
        <time>2018-08-17T11:33:59.000Z</time>
      </trkpt>
      <trkpt lat="49.91481014527380466461181640625" lon="11.23821160756051540374755859375">
        <ele>424.79998779296875</ele>
        <time>2018-08-17T11:34:03.000Z</time>
      </trkpt>
      <trkpt lat="49.9148571677505970001220703125" lon="11.23838611878454685211181640625">
        <ele>426.20001220703125</ele>
        <time>2018-08-17T11:34:07.000Z</time>
      </trkpt>
      <trkpt lat="49.91488943807780742645263671875" lon="11.23852224089205265045166015625">
        <ele>427.20001220703125</ele>
        <time>2018-08-17T11:34:10.000Z</time>
      </trkpt>
      <trkpt lat="49.9149453453719615936279296875" lon="11.238705217838287353515625">
        <ele>428.20001220703125</ele>
        <time>2018-08-17T11:34:14.000Z</time>
      </trkpt>
      <trkpt lat="49.9150018393993377685546875" lon="11.2388961575925350189208984375">
        <ele>429.600006103515625</ele>
        <time>2018-08-17T11:34:18.000Z</time>
      </trkpt>
      <trkpt lat="49.91502824239432811737060546875" lon="11.2389913760125637054443359375">
        <ele>430.600006103515625</ele>
        <time>2018-08-17T11:34:20.000Z</time>
      </trkpt>
      <trkpt lat="49.91505539976060390472412109375" lon="11.23913898132741451263427734375">
        <ele>431.79998779296875</ele>
        <time>2018-08-17T11:34:23.000Z</time>
      </trkpt>
      <trkpt lat="49.91509915329515933990478515625" lon="11.2393330223858356475830078125">
        <ele>433</ele>
        <time>2018-08-17T11:34:27.000Z</time>
      </trkpt>
      <trkpt lat="49.91513452492654323577880859375" lon="11.23953402042388916015625">
        <ele>434.20001220703125</ele>
        <time>2018-08-17T11:34:31.000Z</time>
      </trkpt>
      <trkpt lat="49.9151776917278766632080078125" lon="11.23975169844925403594970703125">
        <ele>435.20001220703125</ele>
        <time>2018-08-17T11:34:35.000Z</time>
      </trkpt>
      <trkpt lat="49.9152232892811298370361328125" lon="11.23998387716710567474365234375">
        <ele>436.399993896484375</ele>
        <time>2018-08-17T11:34:39.000Z</time>
      </trkpt>
      <trkpt lat="49.915267713367938995361328125" lon="11.24020247720181941986083984375">
        <ele>437.399993896484375</ele>
        <time>2018-08-17T11:34:43.000Z</time>
      </trkpt>
      <trkpt lat="49.91520795039832592010498046875" lon="11.2403888069093227386474609375">
        <ele>438.79998779296875</ele>
        <time>2018-08-17T11:34:47.000Z</time>
      </trkpt>
      <trkpt lat="49.91530023515224456787109375" lon="11.24064655043184757232666015625">
        <ele>439.600006103515625</ele>
        <time>2018-08-17T11:34:52.000Z</time>
      </trkpt>
      <trkpt lat="49.91532160900533199310302734375" lon="11.24070011079311370849609375">
        <ele>440</ele>
        <time>2018-08-17T11:34:53.000Z</time>
      </trkpt>
      <trkpt lat="49.91539201699197292327880859375" lon="11.2408612109720706939697265625">
        <ele>441.20001220703125</ele>
        <time>2018-08-17T11:34:56.000Z</time>
      </trkpt>
      <trkpt lat="49.9155397899448871612548828125" lon="11.2412005104124546051025390625">
        <ele>442.399993896484375</ele>
        <time>2018-08-17T11:35:02.000Z</time>
      </trkpt>
      <trkpt lat="49.9157134629786014556884765625" lon="11.24153050594031810760498046875">
        <ele>443.600006103515625</ele>
        <time>2018-08-17T11:35:08.000Z</time>
      </trkpt>
      <trkpt lat="49.9159106053411960601806640625" lon="11.2418643571436405181884765625">
        <ele>445</ele>
        <time>2018-08-17T11:35:14.000Z</time>
      </trkpt>
      <trkpt lat="49.9162391759455204010009765625" lon="11.242412030696868896484375">
        <ele>446</ele>
        <time>2018-08-17T11:35:23.000Z</time>
      </trkpt>
      <trkpt lat="49.9165757931768894195556640625" lon="11.2430975027382373809814453125">
        <ele>446.79998779296875</ele>
        <time>2018-08-17T11:35:32.000Z</time>
      </trkpt>
      <trkpt lat="49.91672038100659847259521484375" lon="11.24391549266874790191650390625">
        <ele>447</ele>
        <time>2018-08-17T11:35:40.000Z</time>
      </trkpt>
      <trkpt lat="49.91696245037019252777099609375" lon="11.24472686089575290679931640625">
        <ele>446.79998779296875</ele>
        <time>2018-08-17T11:35:47.000Z</time>
      </trkpt>
      <trkpt lat="49.917231090366840362548828125" lon="11.245494894683361053466796875">
        <ele>446.20001220703125</ele>
        <time>2018-08-17T11:35:53.000Z</time>
      </trkpt>
      <trkpt lat="49.91749830543994903564453125" lon="11.24629477970302104949951171875">
        <ele>445</ele>
        <time>2018-08-17T11:35:59.000Z</time>
      </trkpt>
      <trkpt lat="49.9176000617444515228271484375" lon="11.246713288128376007080078125">
        <ele>444</ele>
        <time>2018-08-17T11:36:02.000Z</time>
      </trkpt>
      <trkpt lat="49.91784322075545787811279296875" lon="11.24753479845821857452392578125">
        <ele>442.600006103515625</ele>
        <time>2018-08-17T11:36:08.000Z</time>
      </trkpt>
      <trkpt lat="49.91798269562423229217529296875" lon="11.2479187734425067901611328125">
        <ele>441.20001220703125</ele>
        <time>2018-08-17T11:36:11.000Z</time>
      </trkpt>
      <trkpt lat="49.91816215217113494873046875" lon="11.24837097711861133575439453125">
        <ele>440.20001220703125</ele>
        <time>2018-08-17T11:36:15.000Z</time>
      </trkpt>
      <trkpt lat="49.9183292873203754425048828125" lon="11.24878185801208019256591796875">
        <ele>439.79998779296875</ele>
        <time>2018-08-17T11:36:19.000Z</time>
      </trkpt>
      <trkpt lat="49.91866313852369785308837890625" lon="11.24950136058032512664794921875">
        <ele>439.20001220703125</ele>
        <time>2018-08-17T11:36:27.000Z</time>
      </trkpt>
      <trkpt lat="49.918733797967433929443359375" lon="11.2496902048587799072265625">
        <ele>439</ele>
        <time>2018-08-17T11:36:29.000Z</time>
      </trkpt>
      <trkpt lat="49.91884737275540828704833984375" lon="11.250118352472782135009765625">
        <ele>438.399993896484375</ele>
        <time>2018-08-17T11:36:33.000Z</time>
      </trkpt>
      <trkpt lat="49.91893454454839229583740234375" lon="11.2503029219806194305419921875">
        <ele>437.79998779296875</ele>
        <time>2018-08-17T11:36:35.000Z</time>
      </trkpt>
      <trkpt lat="49.91905130445957183837890625" lon="11.25045941211283206939697265625">
        <ele>437.20001220703125</ele>
        <time>2018-08-17T11:36:37.000Z</time>
      </trkpt>
      <trkpt lat="49.9191083014011383056640625" lon="11.25053987838327884674072265625">
        <ele>436.79998779296875</ele>
        <time>2018-08-17T11:36:38.000Z</time>
      </trkpt>
      <trkpt lat="49.9194242991507053375244140625" lon="11.2512685172259807586669921875">
        <ele>435.79998779296875</ele>
        <time>2018-08-17T11:36:45.000Z</time>
      </trkpt>
      <trkpt lat="49.9194730818271636962890625" lon="11.25138443894684314727783203125">
        <ele>435.600006103515625</ele>
        <time>2018-08-17T11:36:46.000Z</time>
      </trkpt>
      <trkpt lat="49.91966494359076023101806640625" lon="11.2518760375678539276123046875">
        <ele>434.600006103515625</ele>
        <time>2018-08-17T11:36:50.000Z</time>
      </trkpt>
      <trkpt lat="49.91985823027789592742919921875" lon="11.2523923628032207489013671875">
        <ele>433.399993896484375</ele>
        <time>2018-08-17T11:36:54.000Z</time>
      </trkpt>
      <trkpt lat="49.92004246450960636138916015625" lon="11.25292302109301090240478515625">
        <ele>432.399993896484375</ele>
        <time>2018-08-17T11:36:58.000Z</time>
      </trkpt>
      <trkpt lat="49.92021546699106693267822265625" lon="11.25346072018146514892578125">
        <ele>431</ele>
        <time>2018-08-17T11:37:02.000Z</time>
      </trkpt>
      <trkpt lat="49.92038528434932231903076171875" lon="11.25399439595639705657958984375">
        <ele>429.79998779296875</ele>
        <time>2018-08-17T11:37:06.000Z</time>
      </trkpt>
      <trkpt lat="49.920638836920261383056640625" lon="11.2547698058187961578369140625">
        <ele>429.399993896484375</ele>
        <time>2018-08-17T11:37:12.000Z</time>
      </trkpt>
      <trkpt lat="49.92084570229053497314453125" lon="11.2554121948778629302978515625">
        <ele>428.600006103515625</ele>
        <time>2018-08-17T11:37:17.000Z</time>
      </trkpt>
      <trkpt lat="49.92097637616097927093505859375" lon="11.25579424202442169189453125">
        <ele>427.600006103515625</ele>
        <time>2018-08-17T11:37:20.000Z</time>
      </trkpt>
      <trkpt lat="49.92124342359602451324462890625" lon="11.256554983556270599365234375">
        <ele>427.20001220703125</ele>
        <time>2018-08-17T11:37:26.000Z</time>
      </trkpt>
      <trkpt lat="49.92154198698699474334716796875" lon="11.2573008053004741668701171875">
        <ele>426.79998779296875</ele>
        <time>2018-08-17T11:37:32.000Z</time>
      </trkpt>
      <trkpt lat="49.92170141078531742095947265625" lon="11.25767581164836883544921875">
        <ele>426.399993896484375</ele>
        <time>2018-08-17T11:37:35.000Z</time>
      </trkpt>
      <trkpt lat="49.92204557172954082489013671875" lon="11.2584082223474979400634765625">
        <ele>425.399993896484375</ele>
        <time>2018-08-17T11:37:41.000Z</time>
      </trkpt>
      <trkpt lat="49.92210525088012218475341796875" lon="11.25853009521961212158203125">
        <ele>425.20001220703125</ele>
        <time>2018-08-17T11:37:42.000Z</time>
      </trkpt>
      <trkpt lat="49.92247053422033786773681640625" lon="11.25926409848034381866455078125">
        <ele>424.20001220703125</ele>
        <time>2018-08-17T11:37:48.000Z</time>
      </trkpt>
      <trkpt lat="49.92253457196056842803955078125" lon="11.2593848817050457000732421875">
        <ele>424</ele>
        <time>2018-08-17T11:37:49.000Z</time>
      </trkpt>
      <trkpt lat="49.92277613840997219085693359375" lon="11.2598546035587787628173828125">
        <ele>423.20001220703125</ele>
        <time>2018-08-17T11:37:53.000Z</time>
      </trkpt>
      <trkpt lat="49.922805391252040863037109375" lon="11.25996499322354793548583984375">
        <ele>422.79998779296875</ele>
        <time>2018-08-17T11:37:54.000Z</time>
      </trkpt>
      <trkpt lat="49.922835566103458404541015625" lon="11.260066330432891845703125">
        <ele>422</ele>
        <time>2018-08-17T11:37:55.000Z</time>
      </trkpt>
      <trkpt lat="49.92288661189377307891845703125" lon="11.260146461427211761474609375">
        <ele>421.600006103515625</ele>
        <time>2018-08-17T11:37:56.000Z</time>
      </trkpt>
      <trkpt lat="49.92294763214886188507080078125" lon="11.26021946780383586883544921875">
        <ele>421.20001220703125</ele>
        <time>2018-08-17T11:37:57.000Z</time>
      </trkpt>
      <trkpt lat="49.92300781421363353729248046875" lon="11.26030395738780498504638671875">
        <ele>420.79998779296875</ele>
        <time>2018-08-17T11:37:58.000Z</time>
      </trkpt>
      <trkpt lat="49.9230660684406757354736328125" lon="11.2603990919888019561767578125">
        <ele>420.399993896484375</ele>
        <time>2018-08-17T11:37:59.000Z</time>
      </trkpt>
      <trkpt lat="49.92317846976220607757568359375" lon="11.2606096453964710235595703125">
        <ele>419.20001220703125</ele>
        <time>2018-08-17T11:38:01.000Z</time>
      </trkpt>
      <trkpt lat="49.92328810505568981170654296875" lon="11.260837800800800323486328125">
        <ele>418</ele>
        <time>2018-08-17T11:38:03.000Z</time>
      </trkpt>
      <trkpt lat="49.92346211336553096771240234375" lon="11.26118548214435577392578125">
        <ele>416.79998779296875</ele>
        <time>2018-08-17T11:38:06.000Z</time>
      </trkpt>
      <trkpt lat="49.92368959821760654449462890625" lon="11.261671967804431915283203125">
        <ele>415.79998779296875</ele>
        <time>2018-08-17T11:38:10.000Z</time>
      </trkpt>
      <trkpt lat="49.92390534840524196624755859375" lon="11.26216054894030094146728515625">
        <ele>414.600006103515625</ele>
        <time>2018-08-17T11:38:14.000Z</time>
      </trkpt>
      <trkpt lat="49.92410550825297832489013671875" lon="11.26263865269720554351806640625">
        <ele>413.399993896484375</ele>
        <time>2018-08-17T11:38:18.000Z</time>
      </trkpt>
      <trkpt lat="49.92440708912909030914306640625" lon="11.26344901509582996368408203125">
        <ele>413.20001220703125</ele>
        <time>2018-08-17T11:38:25.000Z</time>
      </trkpt>
      <trkpt lat="49.924554526805877685546875" lon="11.2638671882450580596923828125">
        <ele>413.600006103515625</ele>
        <time>2018-08-17T11:38:29.000Z</time>
      </trkpt>
      <trkpt lat="49.924672544002532958984375" lon="11.26449658535420894622802734375">
        <ele>414.600006103515625</ele>
        <time>2018-08-17T11:38:35.000Z</time>
      </trkpt>
      <trkpt lat="49.924739934504032135009765625" lon="11.26491065137088298797607421875">
        <ele>415.79998779296875</ele>
        <time>2018-08-17T11:38:39.000Z</time>
      </trkpt>
      <trkpt lat="49.9248105101287364959716796875" lon="11.2652119807898998260498046875">
        <ele>416.79998779296875</ele>
        <time>2018-08-17T11:38:42.000Z</time>
      </trkpt>
      <trkpt lat="49.92491335608065128326416015625" lon="11.2656042538583278656005859375">
        <ele>418</ele>
        <time>2018-08-17T11:38:46.000Z</time>
      </trkpt>
      <trkpt lat="49.9250690080225467681884765625" lon="11.26607992686331272125244140625">
        <ele>419</ele>
        <time>2018-08-17T11:38:51.000Z</time>
      </trkpt>
      <trkpt lat="49.92528517730534076690673828125" lon="11.26681652851402759552001953125">
        <ele>420.20001220703125</ele>
        <time>2018-08-17T11:38:58.000Z</time>
      </trkpt>
      <trkpt lat="49.92563654668629169464111328125" lon="11.26760744489729404449462890625">
        <ele>420.20001220703125</ele>
        <time>2018-08-17T11:39:05.000Z</time>
      </trkpt>
      <trkpt lat="49.9259698949754238128662109375" lon="11.26808219589293003082275390625">
        <ele>419.20001220703125</ele>
        <time>2018-08-17T11:39:10.000Z</time>
      </trkpt>
      <trkpt lat="49.92601507343351840972900390625" lon="11.26820272766053676605224609375">
        <ele>418.399993896484375</ele>
        <time>2018-08-17T11:39:11.000Z</time>
      </trkpt>
      <trkpt lat="49.926165528595447540283203125" lon="11.26860656775534152984619140625">
        <ele>417.20001220703125</ele>
        <time>2018-08-17T11:39:14.000Z</time>
      </trkpt>
      <trkpt lat="49.92633392103016376495361328125" lon="11.26896631903946399688720703125">
        <ele>416.20001220703125</ele>
        <time>2018-08-17T11:39:17.000Z</time>
      </trkpt>
      <trkpt lat="49.92649099789559841156005859375" lon="11.26933562569320201873779296875">
        <ele>414.600006103515625</ele>
        <time>2018-08-17T11:39:20.000Z</time>
      </trkpt>
      <trkpt lat="49.9265992082655429840087890625" lon="11.26958540640771389007568359375">
        <ele>413</ele>
        <time>2018-08-17T11:39:22.000Z</time>
      </trkpt>
      <trkpt lat="49.9269269406795501708984375" lon="11.2703195773065090179443359375">
        <ele>411.79998779296875</ele>
        <time>2018-08-17T11:39:28.000Z</time>
      </trkpt>
      <trkpt lat="49.92720781825482845306396484375" lon="11.27089784480631351470947265625">
        <ele>411</ele>
        <time>2018-08-17T11:39:33.000Z</time>
      </trkpt>
      <trkpt lat="49.9273807369172573089599609375" lon="11.27122658304870128631591796875">
        <ele>409.79998779296875</ele>
        <time>2018-08-17T11:39:36.000Z</time>
      </trkpt>
      <trkpt lat="49.92779052816331386566162109375" lon="11.27196469344198703765869140625">
        <ele>408.79998779296875</ele>
        <time>2018-08-17T11:39:43.000Z</time>
      </trkpt>
      <trkpt lat="49.92814843542873859405517578125" lon="11.27259819768369197845458984375">
        <ele>408</ele>
        <time>2018-08-17T11:39:49.000Z</time>
      </trkpt>
      <trkpt lat="49.92827081121504306793212890625" lon="11.2728136964142322540283203125">
        <ele>407.79998779296875</ele>
        <time>2018-08-17T11:39:51.000Z</time>
      </trkpt>
      <trkpt lat="49.9286381900310516357421875" lon="11.27348919399082660675048828125">
        <ele>407</ele>
        <time>2018-08-17T11:39:57.000Z</time>
      </trkpt>
      <trkpt lat="49.9286983720958232879638671875" lon="11.2736069597303867340087890625">
        <ele>406.600006103515625</ele>
        <time>2018-08-17T11:39:58.000Z</time>
      </trkpt>
      <trkpt lat="49.92900389246642589569091796875" lon="11.2742419727146625518798828125">
        <ele>405.399993896484375</ele>
        <time>2018-08-17T11:40:03.000Z</time>
      </trkpt>
      <trkpt lat="49.92917689494788646697998046875" lon="11.274653188884258270263671875">
        <ele>404</ele>
        <time>2018-08-17T11:40:06.000Z</time>
      </trkpt>
      <trkpt lat="49.92933698929846286773681640625" lon="11.27507421188056468963623046875">
        <ele>403</ele>
        <time>2018-08-17T11:40:09.000Z</time>
      </trkpt>
      <trkpt lat="49.92950328625738620758056640625" lon="11.27565876580774784088134765625">
        <ele>401.600006103515625</ele>
        <time>2018-08-17T11:40:13.000Z</time>
      </trkpt>
      <trkpt lat="49.92961443029344081878662109375" lon="11.27612681128084659576416015625">
        <ele>400.20001220703125</ele>
        <time>2018-08-17T11:40:16.000Z</time>
      </trkpt>
      <trkpt lat="49.9297078885138034820556640625" lon="11.27652595750987529754638671875">
        <ele>399.20001220703125</ele>
        <time>2018-08-17T11:40:19.000Z</time>
      </trkpt>
      <trkpt lat="49.92992975749075412750244140625" lon="11.27705753780901432037353515625">
        <ele>398.399993896484375</ele>
        <time>2018-08-17T11:40:24.000Z</time>
      </trkpt>
      <trkpt lat="49.930161349475383758544921875" lon="11.27782783471047878265380859375">
        <ele>398.600006103515625</ele>
        <time>2018-08-17T11:40:31.000Z</time>
      </trkpt>
      <trkpt lat="49.9304277263581752777099609375" lon="11.2785603292286396026611328125">
        <ele>399.399993896484375</ele>
        <time>2018-08-17T11:40:38.000Z</time>
      </trkpt>
      <trkpt lat="49.9307361803948879241943359375" lon="11.27923649735748767852783203125">
        <ele>400.399993896484375</ele>
        <time>2018-08-17T11:40:45.000Z</time>
      </trkpt>
      <trkpt lat="49.93110037408769130706787109375" lon="11.27990386448800563812255859375">
        <ele>401</ele>
        <time>2018-08-17T11:40:52.000Z</time>
      </trkpt>
      <trkpt lat="49.93152785114943981170654296875" lon="11.28060509450733661651611328125">
        <ele>400.600006103515625</ele>
        <time>2018-08-17T11:40:59.000Z</time>
      </trkpt>
      <trkpt lat="49.93189900182187557220458984375" lon="11.28127430565655231475830078125">
        <ele>399.399993896484375</ele>
        <time>2018-08-17T11:41:05.000Z</time>
      </trkpt>
      <trkpt lat="49.93207837454974651336669921875" lon="11.2816502340137958526611328125">
        <ele>398.399993896484375</ele>
        <time>2018-08-17T11:41:08.000Z</time>
      </trkpt>
      <trkpt lat="49.93224785663187503814697265625" lon="11.282072179019451141357421875">
        <ele>397.79998779296875</ele>
        <time>2018-08-17T11:41:11.000Z</time>
      </trkpt>
      <trkpt lat="49.93230334483087062835693359375" lon="11.28222179599106311798095703125">
        <ele>397.399993896484375</ele>
        <time>2018-08-17T11:41:12.000Z</time>
      </trkpt>
      <trkpt lat="49.9324125610291957855224609375" lon="11.2825259752571582794189453125">
        <ele>396</ele>
        <time>2018-08-17T11:41:14.000Z</time>
      </trkpt>
      <trkpt lat="49.9325181730091571807861328125" lon="11.28282956779003143310546875">
        <ele>394.79998779296875</ele>
        <time>2018-08-17T11:41:16.000Z</time>
      </trkpt>
      <trkpt lat="49.9326204322278499603271484375" lon="11.28313341177999973297119140625">
        <ele>393.79998779296875</ele>
        <time>2018-08-17T11:41:18.000Z</time>
      </trkpt>
      <trkpt lat="49.93272713385522365570068359375" lon="11.2834302149713039398193359375">
        <ele>392.79998779296875</ele>
        <time>2018-08-17T11:41:20.000Z</time>
      </trkpt>
      <trkpt lat="49.932897873222827911376953125" lon="11.28385358490049839019775390625">
        <ele>391.20001220703125</ele>
        <time>2018-08-17T11:41:23.000Z</time>
      </trkpt>
      <trkpt lat="49.9330837838351726531982421875" lon="11.28423772752285003662109375">
        <ele>390</ele>
        <time>2018-08-17T11:41:26.000Z</time>
      </trkpt>
      <trkpt lat="49.933275394141674041748046875" lon="11.2845803797245025634765625">
        <ele>388.79998779296875</ele>
        <time>2018-08-17T11:41:29.000Z</time>
      </trkpt>
      <trkpt lat="49.933656938374042510986328125" lon="11.28512713126838207244873046875">
        <ele>387.79998779296875</ele>
        <time>2018-08-17T11:41:35.000Z</time>
      </trkpt>
      <trkpt lat="49.93402884341776371002197265625" lon="11.285544298589229583740234375">
        <ele>387.79998779296875</ele>
        <time>2018-08-17T11:41:41.000Z</time>
      </trkpt>
      <trkpt lat="49.93442974984645843505859375" lon="11.28612256608903408050537109375">
        <ele>388.79998779296875</ele>
        <time>2018-08-17T11:41:50.000Z</time>
      </trkpt>
      <trkpt lat="49.93446520529687404632568359375" lon="11.286173947155475616455078125">
        <ele>388.600006103515625</ele>
        <time>2018-08-17T11:41:51.000Z</time>
      </trkpt>
      <trkpt lat="49.93453762494027614593505859375" lon="11.2862693332135677337646484375">
        <ele>389</ele>
        <time>2018-08-17T11:41:53.000Z</time>
      </trkpt>
      <trkpt lat="49.934609122574329376220703125" lon="11.2863774597644805908203125">
        <ele>389.399993896484375</ele>
        <time>2018-08-17T11:41:55.000Z</time>
      </trkpt>
      <trkpt lat="49.934823699295520782470703125" lon="11.28677702508866786956787109375">
        <ele>390.399993896484375</ele>
        <time>2018-08-17T11:42:01.000Z</time>
      </trkpt>
      <trkpt lat="49.93485898710787296295166015625" lon="11.28685891628265380859375">
        <ele>390.600006103515625</ele>
        <time>2018-08-17T11:42:02.000Z</time>
      </trkpt>
      <trkpt lat="49.9350981228053569793701171875" lon="11.28761068917810916900634765625">
        <ele>391</ele>
        <time>2018-08-17T11:42:09.000Z</time>
      </trkpt>
      <trkpt lat="49.93529987521469593048095703125" lon="11.28844334743916988372802734375">
        <ele>389.79998779296875</ele>
        <time>2018-08-17T11:42:15.000Z</time>
      </trkpt>
      <trkpt lat="49.93531890213489532470703125" lon="11.28872564993798732757568359375">
        <ele>388.79998779296875</ele>
        <time>2018-08-17T11:42:17.000Z</time>
      </trkpt>
      <trkpt lat="49.9353222548961639404296875" lon="11.28901608288288116455078125">
        <ele>388</ele>
        <time>2018-08-17T11:42:19.000Z</time>
      </trkpt>
      <trkpt lat="49.9353227578103542327880859375" lon="11.289167292416095733642578125">
        <ele>387.20001220703125</ele>
        <time>2018-08-17T11:42:20.000Z</time>
      </trkpt>
      <trkpt lat="49.9353271164000034332275390625" lon="11.28947817720472812652587890625">
        <ele>386.20001220703125</ele>
        <time>2018-08-17T11:42:22.000Z</time>
      </trkpt>
      <trkpt lat="49.935342706739902496337890625" lon="11.2899339012801647186279296875">
        <ele>384.79998779296875</ele>
        <time>2018-08-17T11:42:25.000Z</time>
      </trkpt>
      <trkpt lat="49.93535955436527729034423828125" lon="11.29007765091955661773681640625">
        <ele>384.399993896484375</ele>
        <time>2018-08-17T11:42:26.000Z</time>
      </trkpt>
      <trkpt lat="49.9354173056781291961669921875" lon="11.290345452725887298583984375">
        <ele>383.79998779296875</ele>
        <time>2018-08-17T11:42:28.000Z</time>
      </trkpt>
      <trkpt lat="49.93554563261568546295166015625" lon="11.2906958162784576416015625">
        <ele>382.399993896484375</ele>
        <time>2018-08-17T11:42:31.000Z</time>
      </trkpt>
      <trkpt lat="49.9356975965201854705810546875" lon="11.29102178849279880523681640625">
        <ele>381.399993896484375</ele>
        <time>2018-08-17T11:42:34.000Z</time>
      </trkpt>
      <trkpt lat="49.93589029647409915924072265625" lon="11.29153174348175525665283203125">
        <ele>380.20001220703125</ele>
        <time>2018-08-17T11:42:40.000Z</time>
      </trkpt>
      <trkpt lat="49.93593555875122547149658203125" lon="11.29160868935286998748779296875">
        <ele>379.600006103515625</ele>
        <time>2018-08-17T11:42:46.000Z</time>
      </trkpt>
      <trkpt lat="49.93594930507242679595947265625" lon="11.2916213460266590118408203125">
        <ele>379.600006103515625</ele>
        <time>2018-08-17T11:42:56.000Z</time>
      </trkpt>
      <trkpt lat="49.9359705112874507904052734375" lon="11.29162880592048168182373046875">
        <ele>379.600006103515625</ele>
        <time>2018-08-17T11:42:57.000Z</time>
      </trkpt>
      <trkpt lat="49.93640745989978313446044921875" lon="11.2912917695939540863037109375">
        <ele>379.79998779296875</ele>
        <time>2018-08-17T11:43:11.000Z</time>
      </trkpt>
      <trkpt lat="49.93648725561797618865966796875" lon="11.29107828252017498016357421875">
        <ele>379.79998779296875</ele>
        <time>2018-08-17T11:43:14.000Z</time>
      </trkpt>
      <trkpt lat="49.9365512095391750335693359375" lon="11.29093252122402191162109375">
        <ele>380</ele>
        <time>2018-08-17T11:43:16.000Z</time>
      </trkpt>
      <trkpt lat="49.93679277598857879638671875" lon="11.29085146822035312652587890625">
        <ele>380.79998779296875</ele>
        <time>2018-08-17T11:43:21.000Z</time>
      </trkpt>
      <trkpt lat="49.936960078775882720947265625" lon="11.29081425257027149200439453125">
        <ele>381</ele>
        <time>2018-08-17T11:43:25.000Z</time>
      </trkpt>
      <trkpt lat="49.93705973960459232330322265625" lon="11.290766559541225433349609375">
        <ele>381.399993896484375</ele>
        <time>2018-08-17T11:43:28.000Z</time>
      </trkpt>
      <trkpt lat="49.9370951950550079345703125" lon="11.2907365523278713226318359375">
        <ele>381.600006103515625</ele>
        <time>2018-08-17T11:43:29.000Z</time>
      </trkpt>
      <trkpt lat="49.93719502352178096771240234375" lon="11.290600597858428955078125">
        <ele>382.399993896484375</ele>
        <time>2018-08-17T11:43:32.000Z</time>
      </trkpt>
      <trkpt lat="49.9372596479952335357666015625" lon="11.29050227813422679901123046875">
        <ele>383.600006103515625</ele>
        <time>2018-08-17T11:43:34.000Z</time>
      </trkpt>
      <trkpt lat="49.93729032576084136962890625" lon="11.29045181907713413238525390625">
        <ele>383.79998779296875</ele>
        <time>2018-08-17T11:43:35.000Z</time>
      </trkpt>
      <trkpt lat="49.9373337440192699432373046875" lon="11.2903244979679584503173828125">
        <ele>384.600006103515625</ele>
        <time>2018-08-17T11:43:37.000Z</time>
      </trkpt>
      <trkpt lat="49.937360398471355438232421875" lon="11.290175803005695343017578125">
        <ele>385.20001220703125</ele>
        <time>2018-08-17T11:43:39.000Z</time>
      </trkpt>
      <trkpt lat="49.93737573735415935516357421875" lon="11.2901018746197223663330078125">
        <ele>385.399993896484375</ele>
        <time>2018-08-17T11:43:40.000Z</time>
      </trkpt>
      <trkpt lat="49.93739685975015163421630859375" lon="11.29003129899501800537109375">
        <ele>385.79998779296875</ele>
        <time>2018-08-17T11:43:41.000Z</time>
      </trkpt>
      <trkpt lat="49.93755393661558628082275390625" lon="11.28974840976297855377197265625">
        <ele>386.79998779296875</ele>
        <time>2018-08-17T11:43:46.000Z</time>
      </trkpt>
      <trkpt lat="49.9375902302563190460205078125" lon="11.28970901481807231903076171875">
        <ele>387</ele>
        <time>2018-08-17T11:43:47.000Z</time>
      </trkpt>
      <trkpt lat="49.93766508065164089202880859375" lon="11.28961966373026371002197265625">
        <ele>387.20001220703125</ele>
        <time>2018-08-17T11:43:49.000Z</time>
      </trkpt>
      <trkpt lat="49.9377602152526378631591796875" lon="11.289472393691539764404296875">
        <ele>387.79998779296875</ele>
        <time>2018-08-17T11:43:52.000Z</time>
      </trkpt>
      <trkpt lat="49.93792994879186153411865234375" lon="11.2892703898251056671142578125">
        <ele>389</ele>
        <time>2018-08-17T11:43:56.000Z</time>
      </trkpt>
      <trkpt lat="49.93810513056814670562744140625" lon="11.28904759883880615234375">
        <ele>390</ele>
        <time>2018-08-17T11:44:00.000Z</time>
      </trkpt>
      <trkpt lat="49.93840889073908329010009765625" lon="11.288640908896923065185546875">
        <ele>390.600006103515625</ele>
        <time>2018-08-17T11:44:07.000Z</time>
      </trkpt>
      <trkpt lat="49.93860318325459957122802734375" lon="11.2885016016662120819091796875">
        <ele>391</ele>
        <time>2018-08-17T11:44:11.000Z</time>
      </trkpt>
      <trkpt lat="49.93869856931269168853759765625" lon="11.28846564330160617828369140625">
        <ele>391.20001220703125</ele>
        <time>2018-08-17T11:44:13.000Z</time>
      </trkpt>
      <trkpt lat="49.939148761332035064697265625" lon="11.28843345679342746734619140625">
        <ele>392.20001220703125</ele>
        <time>2018-08-17T11:44:22.000Z</time>
      </trkpt>
      <trkpt lat="49.9393943510949611663818359375" lon="11.2884037010371685028076171875">
        <ele>393.20001220703125</ele>
        <time>2018-08-17T11:44:27.000Z</time>
      </trkpt>
      <trkpt lat="49.93964019231498241424560546875" lon="11.288375370204448699951171875">
        <ele>394.20001220703125</ele>
        <time>2018-08-17T11:44:32.000Z</time>
      </trkpt>
      <trkpt lat="49.9398908950388431549072265625" lon="11.2883383221924304962158203125">
        <ele>395.399993896484375</ele>
        <time>2018-08-17T11:44:37.000Z</time>
      </trkpt>
      <trkpt lat="49.94014360941946506500244140625" lon="11.28830119036138057708740234375">
        <ele>396.399993896484375</ele>
        <time>2018-08-17T11:44:42.000Z</time>
      </trkpt>
      <trkpt lat="49.940456338226795196533203125" lon="11.28825793974101543426513671875">
        <ele>397.600006103515625</ele>
        <time>2018-08-17T11:44:48.000Z</time>
      </trkpt>
      <trkpt lat="49.9407161772251129150390625" lon="11.2882179580628871917724609375">
        <ele>398.79998779296875</ele>
        <time>2018-08-17T11:44:53.000Z</time>
      </trkpt>
      <trkpt lat="49.94096922688186168670654296875" lon="11.28816590644419193267822265625">
        <ele>400</ele>
        <time>2018-08-17T11:44:58.000Z</time>
      </trkpt>
      <trkpt lat="49.94123929180204868316650390625" lon="11.28811812959611415863037109375">
        <ele>401</ele>
        <time>2018-08-17T11:45:03.000Z</time>
      </trkpt>
      <trkpt lat="49.94145839475095272064208984375" lon="11.28807504661381244659423828125">
        <ele>402.20001220703125</ele>
        <time>2018-08-17T11:45:07.000Z</time>
      </trkpt>
      <trkpt lat="49.941785372793674468994140625" lon="11.28799390979111194610595703125">
        <ele>403.20001220703125</ele>
        <time>2018-08-17T11:45:13.000Z</time>
      </trkpt>
      <trkpt lat="49.94206474162638187408447265625" lon="11.2879202328622341156005859375">
        <ele>404.399993896484375</ele>
        <time>2018-08-17T11:45:18.000Z</time>
      </trkpt>
      <trkpt lat="49.94229809381067752838134765625" lon="11.2878478132188320159912109375">
        <ele>405.399993896484375</ele>
        <time>2018-08-17T11:45:22.000Z</time>
      </trkpt>
      <trkpt lat="49.94254209101200103759765625" lon="11.2877784110605716705322265625">
        <ele>406.600006103515625</ele>
        <time>2018-08-17T11:45:26.000Z</time>
      </trkpt>
      <trkpt lat="49.9428607709705829620361328125" lon="11.287674643099308013916015625">
        <ele>407.600006103515625</ele>
        <time>2018-08-17T11:45:31.000Z</time>
      </trkpt>
      <trkpt lat="49.94341590441763401031494140625" lon="11.2874397821724414825439453125">
        <ele>408.399993896484375</ele>
        <time>2018-08-17T11:45:39.000Z</time>
      </trkpt>
      <trkpt lat="49.94397413916885852813720703125" lon="11.28715035505592823028564453125">
        <ele>408.399993896484375</ele>
        <time>2018-08-17T11:45:47.000Z</time>
      </trkpt>
      <trkpt lat="49.94407832622528076171875" lon="11.2872624211013317108154296875">
        <ele>407.79998779296875</ele>
        <time>2018-08-17T11:45:51.000Z</time>
      </trkpt>
      <trkpt lat="49.94410003535449504852294921875" lon="11.28728731535375118255615234375">
        <ele>407.399993896484375</ele>
        <time>2018-08-17T11:45:52.000Z</time>
      </trkpt>
      <trkpt lat="49.9444935657083988189697265625" lon="11.28698271699249744415283203125">
        <ele>406.600006103515625</ele>
        <time>2018-08-17T11:46:01.000Z</time>
      </trkpt>
      <trkpt lat="49.9446833319962024688720703125" lon="11.2868771888315677642822265625">
        <ele>406.600006103515625</ele>
        <time>2018-08-17T11:46:04.000Z</time>
      </trkpt>
      <trkpt lat="49.9451901018619537353515625" lon="11.286588013172149658203125">
        <ele>406.600006103515625</ele>
        <time>2018-08-17T11:46:12.000Z</time>
      </trkpt>
      <trkpt lat="49.94572444818913936614990234375" lon="11.286274529993534088134765625">
        <ele>407.20001220703125</ele>
        <time>2018-08-17T11:46:20.000Z</time>
      </trkpt>
      <trkpt lat="49.9460073374211788177490234375" lon="11.2861244939267635345458984375">
        <ele>407.79998779296875</ele>
        <time>2018-08-17T11:46:24.000Z</time>
      </trkpt>
      <trkpt lat="49.9465749599039554595947265625" lon="11.28585417754948139190673828125">
        <ele>408.600006103515625</ele>
        <time>2018-08-17T11:46:32.000Z</time>
      </trkpt>
      <trkpt lat="49.9468693323433399200439453125" lon="11.28574387170374393463134765625">
        <ele>409</ele>
        <time>2018-08-17T11:46:36.000Z</time>
      </trkpt>
      <trkpt lat="49.94739781133830547332763671875" lon="11.28555678762495517730712890625">
        <ele>410</ele>
        <time>2018-08-17T11:46:43.000Z</time>
      </trkpt>
      <trkpt lat="49.9474738352000713348388671875" lon="11.28552895970642566680908203125">
        <ele>410.20001220703125</ele>
        <time>2018-08-17T11:46:44.000Z</time>
      </trkpt>
      <trkpt lat="49.948032237589359283447265625" lon="11.28533567301928997039794921875">
        <ele>410.600006103515625</ele>
        <time>2018-08-17T11:46:51.000Z</time>
      </trkpt>
      <trkpt lat="49.94856574572622776031494140625" lon="11.2851317413151264190673828125">
        <ele>410.79998779296875</ele>
        <time>2018-08-17T11:46:58.000Z</time>
      </trkpt>
      <trkpt lat="49.94890538044273853302001953125" lon="11.28500483930110931396484375">
        <ele>411.20001220703125</ele>
        <time>2018-08-17T11:47:03.000Z</time>
      </trkpt>
      <trkpt lat="49.94917460717260837554931640625" lon="11.28492210991680622100830078125">
        <ele>412.399993896484375</ele>
        <time>2018-08-17T11:47:07.000Z</time>
      </trkpt>
      <trkpt lat="49.94944098405539989471435546875" lon="11.28479353152215480804443359375">
        <ele>413.399993896484375</ele>
        <time>2018-08-17T11:47:11.000Z</time>
      </trkpt>
      <trkpt lat="49.9499749951064586639404296875" lon="11.28448088653385639190673828125">
        <ele>414.399993896484375</ele>
        <time>2018-08-17T11:47:18.000Z</time>
      </trkpt>
      <trkpt lat="49.9505456350743770599365234375" lon="11.2841192074120044708251953125">
        <ele>414.600006103515625</ele>
        <time>2018-08-17T11:47:25.000Z</time>
      </trkpt>
      <trkpt lat="49.9511072225868701934814453125" lon="11.28379591740667819976806640625">
        <ele>415.20001220703125</ele>
        <time>2018-08-17T11:47:33.000Z</time>
      </trkpt>
      <trkpt lat="49.95117519982159137725830078125" lon="11.2837571091949939727783203125">
        <ele>415.600006103515625</ele>
        <time>2018-08-17T11:47:34.000Z</time>
      </trkpt>
      <trkpt lat="49.9514438398182392120361328125" lon="11.28360413946211338043212890625">
        <ele>417</ele>
        <time>2018-08-17T11:47:38.000Z</time>
      </trkpt>
      <trkpt lat="49.95157652534544467926025390625" lon="11.2835277803242206573486328125">
        <ele>417.600006103515625</ele>
        <time>2018-08-17T11:47:40.000Z</time>
      </trkpt>
      <trkpt lat="49.95170912705361843109130859375" lon="11.28345108591020107269287109375">
        <ele>418.399993896484375</ele>
        <time>2018-08-17T11:47:42.000Z</time>
      </trkpt>
      <trkpt lat="49.95196728967130184173583984375" lon="11.2832920812070369720458984375">
        <ele>419.399993896484375</ele>
        <time>2018-08-17T11:47:46.000Z</time>
      </trkpt>
      <trkpt lat="49.95228798128664493560791015625" lon="11.28306065686047077178955078125">
        <ele>420.600006103515625</ele>
        <time>2018-08-17T11:47:51.000Z</time>
      </trkpt>
      <trkpt lat="49.95255402289330959320068359375" lon="11.28283887170255184173583984375">
        <ele>421.600006103515625</ele>
        <time>2018-08-17T11:47:55.000Z</time>
      </trkpt>
      <trkpt lat="49.95307319797575473785400390625" lon="11.28241944126784801483154296875">
        <ele>422</ele>
        <time>2018-08-17T11:48:02.000Z</time>
      </trkpt>
      <trkpt lat="49.95357326231896877288818359375" lon="11.28199464641511440277099609375">
        <ele>421.79998779296875</ele>
        <time>2018-08-17T11:48:09.000Z</time>
      </trkpt>
      <trkpt lat="49.954100735485553741455078125" lon="11.281539089977741241455078125">
        <ele>422.20001220703125</ele>
        <time>2018-08-17T11:48:17.000Z</time>
      </trkpt>
      <trkpt lat="49.95428890921175479888916015625" lon="11.2813793309032917022705078125">
        <ele>422.600006103515625</ele>
        <time>2018-08-17T11:48:20.000Z</time>
      </trkpt>
      <trkpt lat="49.95460054837167263031005859375" lon="11.2811225093901157379150390625">
        <ele>423.79998779296875</ele>
        <time>2018-08-17T11:48:25.000Z</time>
      </trkpt>
      <trkpt lat="49.95490665547549724578857421875" lon="11.28087298013269901275634765625">
        <ele>425.20001220703125</ele>
        <time>2018-08-17T11:48:30.000Z</time>
      </trkpt>
      <trkpt lat="49.95520806871354579925537109375" lon="11.280621774494647979736328125">
        <ele>426.20001220703125</ele>
        <time>2018-08-17T11:48:35.000Z</time>
      </trkpt>
      <trkpt lat="49.95555575005710124969482421875" lon="11.28031373955309391021728515625">
        <ele>427.399993896484375</ele>
        <time>2018-08-17T11:48:41.000Z</time>
      </trkpt>
      <trkpt lat="49.95588012970983982086181640625" lon="11.2799943052232265472412109375">
        <ele>428.399993896484375</ele>
        <time>2018-08-17T11:48:47.000Z</time>
      </trkpt>
      <trkpt lat="49.95610208250582218170166015625" lon="11.2798042036592960357666015625">
        <ele>429.399993896484375</ele>
        <time>2018-08-17T11:48:51.000Z</time>
      </trkpt>
      <trkpt lat="49.95637617073953151702880859375" lon="11.2799393199384212493896484375">
        <ele>430.399993896484375</ele>
        <time>2018-08-17T11:48:56.000Z</time>
      </trkpt>
      <trkpt lat="49.9564196728169918060302734375" lon="11.2799983285367488861083984375">
        <ele>430.600006103515625</ele>
        <time>2018-08-17T11:48:57.000Z</time>
      </trkpt>
      <trkpt lat="49.95667255483567714691162109375" lon="11.28026001155376434326171875">
        <ele>431.79998779296875</ele>
        <time>2018-08-17T11:49:02.000Z</time>
      </trkpt>
      <trkpt lat="49.9567090161144733428955078125" lon="11.2803503684699535369873046875">
        <ele>432</ele>
        <time>2018-08-17T11:49:03.000Z</time>
      </trkpt>
      <trkpt lat="49.956828542053699493408203125" lon="11.2806321680545806884765625">
        <ele>433</ele>
        <time>2018-08-17T11:49:06.000Z</time>
      </trkpt>
      <trkpt lat="49.9571274407207965850830078125" lon="11.28135460428893566131591796875">
        <ele>433</ele>
        <time>2018-08-17T11:49:13.000Z</time>
      </trkpt>
      <trkpt lat="49.9574328772723674774169921875" lon="11.28212959505617618560791015625">
        <ele>432.20001220703125</ele>
        <time>2018-08-17T11:49:20.000Z</time>
      </trkpt>
      <trkpt lat="49.9574784748256206512451171875" lon="11.28224073909223079681396484375">
        <ele>432.20001220703125</ele>
        <time>2018-08-17T11:49:21.000Z</time>
      </trkpt>
      <trkpt lat="49.95781467296183109283447265625" lon="11.2829058431088924407958984375">
        <ele>430.79998779296875</ele>
        <time>2018-08-17T11:49:27.000Z</time>
      </trkpt>
      <trkpt lat="49.9579968117177486419677734375" lon="11.283287890255451202392578125">
        <ele>430.20001220703125</ele>
        <time>2018-08-17T11:49:30.000Z</time>
      </trkpt>
      <trkpt lat="49.9580454267561435699462890625" lon="11.2834385968744754791259765625">
        <ele>429.79998779296875</ele>
        <time>2018-08-17T11:49:31.000Z</time>
      </trkpt>
      <trkpt lat="49.9581188522279262542724609375" lon="11.2839795649051666259765625">
        <ele>428.399993896484375</ele>
        <time>2018-08-17T11:49:34.000Z</time>
      </trkpt>
      <trkpt lat="49.95812564156949520111083984375" lon="11.28417042084038257598876953125">
        <ele>427.399993896484375</ele>
        <time>2018-08-17T11:49:35.000Z</time>
      </trkpt>
      <trkpt lat="49.95812882669270038604736328125" lon="11.28436320461332798004150390625">
        <ele>426.79998779296875</ele>
        <time>2018-08-17T11:49:36.000Z</time>
      </trkpt>
      <trkpt lat="49.9581312574446201324462890625" lon="11.28475002944469451904296875">
        <ele>425.399993896484375</ele>
        <time>2018-08-17T11:49:38.000Z</time>
      </trkpt>
      <trkpt lat="49.95814240537583827972412109375" lon="11.2851381115615367889404296875">
        <ele>423.79998779296875</ele>
        <time>2018-08-17T11:49:40.000Z</time>
      </trkpt>
      <trkpt lat="49.95816193521022796630859375" lon="11.28533014096319675445556640625">
        <ele>422.600006103515625</ele>
        <time>2018-08-17T11:49:41.000Z</time>
      </trkpt>
      <trkpt lat="49.958234019577503204345703125" lon="11.28570414148271083831787109375">
        <ele>420.79998779296875</ele>
        <time>2018-08-17T11:49:43.000Z</time>
      </trkpt>
      <trkpt lat="49.9583109654486179351806640625" lon="11.28608786500990390777587890625">
        <ele>419</ele>
        <time>2018-08-17T11:49:45.000Z</time>
      </trkpt>
      <trkpt lat="49.9583760090172290802001953125" lon="11.28648835234344005584716796875">
        <ele>417.399993896484375</ele>
        <time>2018-08-17T11:49:47.000Z</time>
      </trkpt>
      <trkpt lat="49.95842688716948032379150390625" lon="11.28686352632939815521240234375">
        <ele>415.79998779296875</ele>
        <time>2018-08-17T11:49:49.000Z</time>
      </trkpt>
      <trkpt lat="49.95844130404293537139892578125" lon="11.28705044277012348175048828125">
        <ele>415.20001220703125</ele>
        <time>2018-08-17T11:49:50.000Z</time>
      </trkpt>
      <trkpt lat="49.958435185253620147705078125" lon="11.28724004141986370086669921875">
        <ele>414.399993896484375</ele>
        <time>2018-08-17T11:49:51.000Z</time>
      </trkpt>
      <trkpt lat="49.958366118371486663818359375" lon="11.28760867752134799957275390625">
        <ele>413</ele>
        <time>2018-08-17T11:49:53.000Z</time>
      </trkpt>
      <trkpt lat="49.9583250470459461212158203125" lon="11.28779592923820018768310546875">
        <ele>412</ele>
        <time>2018-08-17T11:49:54.000Z</time>
      </trkpt>
      <trkpt lat="49.95828757993876934051513671875" lon="11.28798343241214752197265625">
        <ele>410.399993896484375</ele>
        <time>2018-08-17T11:49:55.000Z</time>
      </trkpt>
      <trkpt lat="49.95825958438217639923095703125" lon="11.28816590644419193267822265625">
        <ele>409</ele>
        <time>2018-08-17T11:49:56.000Z</time>
      </trkpt>
      <trkpt lat="49.9582445807754993438720703125" lon="11.288344524800777435302734375">
        <ele>407.79998779296875</ele>
        <time>2018-08-17T11:49:57.000Z</time>
      </trkpt>
      <trkpt lat="49.958246760070323944091796875" lon="11.2885213829576969146728515625">
        <ele>406.600006103515625</ele>
        <time>2018-08-17T11:49:58.000Z</time>
      </trkpt>
      <trkpt lat="49.95826662518084049224853515625" lon="11.28869011066854000091552734375">
        <ele>405</ele>
        <time>2018-08-17T11:49:59.000Z</time>
      </trkpt>
      <trkpt lat="49.9582985602319240570068359375" lon="11.288850791752338409423828125">
        <ele>403.399993896484375</ele>
        <time>2018-08-17T11:50:00.000Z</time>
      </trkpt>
      <trkpt lat="49.958336614072322845458984375" lon="11.2890058569610118865966796875">
        <ele>401.79998779296875</ele>
        <time>2018-08-17T11:50:01.000Z</time>
      </trkpt>
      <trkpt lat="49.958376847207546234130859375" lon="11.2891547195613384246826171875">
        <ele>400.399993896484375</ele>
        <time>2018-08-17T11:50:02.000Z</time>
      </trkpt>
      <trkpt lat="49.95841699652373790740966796875" lon="11.289299391210079193115234375">
        <ele>399.399993896484375</ele>
        <time>2018-08-17T11:50:03.000Z</time>
      </trkpt>
      <trkpt lat="49.958462007343769073486328125" lon="11.289439536631107330322265625">
        <ele>398.20001220703125</ele>
        <time>2018-08-17T11:50:04.000Z</time>
      </trkpt>
      <trkpt lat="49.9585128016769886016845703125" lon="11.28956995904445648193359375">
        <ele>396.79998779296875</ele>
        <time>2018-08-17T11:50:05.000Z</time>
      </trkpt>
      <trkpt lat="49.95873299427330493927001953125" lon="11.2900576181709766387939453125">
        <ele>395.79998779296875</ele>
        <time>2018-08-17T11:50:09.000Z</time>
      </trkpt>
      <trkpt lat="49.95891605503857135772705078125" lon="11.290934868156909942626953125">
        <ele>395.600006103515625</ele>
        <time>2018-08-17T11:50:16.000Z</time>
      </trkpt>
      <trkpt lat="49.95903440751135349273681640625" lon="11.29184455610811710357666015625">
        <ele>396.399993896484375</ele>
        <time>2018-08-17T11:50:24.000Z</time>
      </trkpt>
      <trkpt lat="49.959047734737396240234375" lon="11.29194849170744419097900390625">
        <ele>396.600006103515625</ele>
        <time>2018-08-17T11:50:25.000Z</time>
      </trkpt>
      <trkpt lat="49.95915125124156475067138671875" lon="11.29247210919857025146484375">
        <ele>397.600006103515625</ele>
        <time>2018-08-17T11:50:30.000Z</time>
      </trkpt>
      <trkpt lat="49.95929357595741748809814453125" lon="11.292849965393543243408203125">
        <ele>398.600006103515625</ele>
        <time>2018-08-17T11:50:34.000Z</time>
      </trkpt>
      <trkpt lat="49.9594039656221866607666015625" lon="11.2929973192512989044189453125">
        <ele>398.79998779296875</ele>
        <time>2018-08-17T11:50:36.000Z</time>
      </trkpt>
      <trkpt lat="49.959917776286602020263671875" lon="11.29287452436983585357666015625">
        <ele>399.20001220703125</ele>
        <time>2018-08-17T11:50:43.000Z</time>
      </trkpt>
      <trkpt lat="49.960037805140018463134765625" lon="11.2926710955798625946044921875">
        <ele>399.20001220703125</ele>
        <time>2018-08-17T11:50:45.000Z</time>
      </trkpt>
      <trkpt lat="49.960498474538326263427734375" lon="11.29203021526336669921875">
        <ele>398.79998779296875</ele>
        <time>2018-08-17T11:50:52.000Z</time>
      </trkpt>
      <trkpt lat="49.96088010258972644805908203125" lon="11.29172704182565212249755859375">
        <ele>398.20001220703125</ele>
        <time>2018-08-17T11:50:57.000Z</time>
      </trkpt>
      <trkpt lat="49.961440265178680419921875" lon="11.2917179055511951446533203125">
        <ele>398</ele>
        <time>2018-08-17T11:51:04.000Z</time>
      </trkpt>
      <trkpt lat="49.96151444502174854278564453125" lon="11.29175570793449878692626953125">
        <ele>398</ele>
        <time>2018-08-17T11:51:05.000Z</time>
      </trkpt>
      <trkpt lat="49.96165526099503040313720703125" lon="11.291850842535495758056640625">
        <ele>398.20001220703125</ele>
        <time>2018-08-17T11:51:07.000Z</time>
      </trkpt>
      <trkpt lat="49.9621515534818172454833984375" lon="11.29240237176418304443359375">
        <ele>399.20001220703125</ele>
        <time>2018-08-17T11:51:15.000Z</time>
      </trkpt>
      <trkpt lat="49.96253469027578830718994140625" lon="11.29308457486331462860107421875">
        <ele>399.600006103515625</ele>
        <time>2018-08-17T11:51:23.000Z</time>
      </trkpt>
      <trkpt lat="49.9628804437816143035888671875" lon="11.29380038939416408538818359375">
        <ele>400.399993896484375</ele>
        <time>2018-08-17T11:51:31.000Z</time>
      </trkpt>
      <trkpt lat="49.9629622511565685272216796875" lon="11.29398621618747711181640625">
        <ele>400.600006103515625</ele>
        <time>2018-08-17T11:51:33.000Z</time>
      </trkpt>
      <trkpt lat="49.963255785405635833740234375" lon="11.29476665519177913665771484375">
        <ele>401</ele>
        <time>2018-08-17T11:51:41.000Z</time>
      </trkpt>
      <trkpt lat="49.96350648812949657440185546875" lon="11.2954444997012615203857421875">
        <ele>401.600006103515625</ele>
        <time>2018-08-17T11:51:48.000Z</time>
      </trkpt>
      <trkpt lat="49.96397855691611766815185546875" lon="11.29598739556968212127685546875">
        <ele>401.79998779296875</ele>
        <time>2018-08-17T11:51:56.000Z</time>
      </trkpt>
      <trkpt lat="49.96448499150574207305908203125" lon="11.29650942049920558929443359375">
        <ele>401.79998779296875</ele>
        <time>2018-08-17T11:52:04.000Z</time>
      </trkpt>
      <trkpt lat="49.96482496149837970733642578125" lon="11.2971574254333972930908203125">
        <ele>401.399993896484375</ele>
        <time>2018-08-17T11:52:11.000Z</time>
      </trkpt>
      <trkpt lat="49.9651013128459453582763671875" lon="11.29789411090314388275146484375">
        <ele>401.20001220703125</ele>
        <time>2018-08-17T11:52:18.000Z</time>
      </trkpt>
      <trkpt lat="49.9654141254723072052001953125" lon="11.29861478693783283233642578125">
        <ele>401.20001220703125</ele>
        <time>2018-08-17T11:52:25.000Z</time>
      </trkpt>
      <trkpt lat="49.96564219705760478973388671875" lon="11.2989451177418231964111328125">
        <ele>401.20001220703125</ele>
        <time>2018-08-17T11:52:29.000Z</time>
      </trkpt>
      <trkpt lat="49.96584872715175151824951171875" lon="11.29911594092845916748046875">
        <ele>401.399993896484375</ele>
        <time>2018-08-17T11:52:32.000Z</time>
      </trkpt>
      <trkpt lat="49.9659941531717777252197265625" lon="11.29919732920825481414794921875">
        <ele>401.399993896484375</ele>
        <time>2018-08-17T11:52:34.000Z</time>
      </trkpt>
      <trkpt lat="49.9663951434195041656494140625" lon="11.29924443550407886505126953125">
        <ele>401.600006103515625</ele>
        <time>2018-08-17T11:52:39.000Z</time>
      </trkpt>
      <trkpt lat="49.9669661186635494232177734375" lon="11.29921384155750274658203125">
        <ele>401.600006103515625</ele>
        <time>2018-08-17T11:52:46.000Z</time>
      </trkpt>
      <trkpt lat="49.96755762957036495208740234375" lon="11.2992183677852153778076171875">
        <ele>401.600006103515625</ele>
        <time>2018-08-17T11:52:54.000Z</time>
      </trkpt>
      <trkpt lat="49.9678978510200977325439453125" lon="11.29923052154481410980224609375">
        <ele>402.20001220703125</ele>
        <time>2018-08-17T11:52:59.000Z</time>
      </trkpt>
      <trkpt lat="49.96809558011591434478759765625" lon="11.29925181157886981964111328125">
        <ele>403.20001220703125</ele>
        <time>2018-08-17T11:53:02.000Z</time>
      </trkpt>
      <trkpt lat="49.96835374273359775543212890625" lon="11.2993320263922214508056640625">
        <ele>404.399993896484375</ele>
        <time>2018-08-17T11:53:06.000Z</time>
      </trkpt>
      <trkpt lat="49.96854283846914768218994140625" lon="11.29946588538587093353271484375">
        <ele>405.20001220703125</ele>
        <time>2018-08-17T11:53:09.000Z</time>
      </trkpt>
      <trkpt lat="49.9685990810394287109375" lon="11.2995350360870361328125">
        <ele>405.600006103515625</ele>
        <time>2018-08-17T11:53:10.000Z</time>
      </trkpt>
      <trkpt lat="49.96875473298132419586181640625" lon="11.29978724755346775054931640625">
        <ele>406.20001220703125</ele>
        <time>2018-08-17T11:53:13.000Z</time>
      </trkpt>
      <trkpt lat="49.9690793640911579132080078125" lon="11.3003039918839931488037109375">
        <ele>406.399993896484375</ele>
        <time>2018-08-17T11:53:19.000Z</time>
      </trkpt>
      <trkpt lat="49.96914960443973541259765625" lon="11.300358138978481292724609375">
        <ele>406.600006103515625</ele>
        <time>2018-08-17T11:53:20.000Z</time>
      </trkpt>
      <trkpt lat="49.969656877219676971435546875" lon="11.30003166384994983673095703125">
        <ele>406.600006103515625</ele>
        <time>2018-08-17T11:53:27.000Z</time>
      </trkpt>
      <trkpt lat="49.96981051750481128692626953125" lon="11.29967392422258853912353515625">
        <ele>406.399993896484375</ele>
        <time>2018-08-17T11:53:30.000Z</time>
      </trkpt>
      <trkpt lat="49.97006683610379695892333984375" lon="11.2989270128309726715087890625">
        <ele>405.79998779296875</ele>
        <time>2018-08-17T11:53:36.000Z</time>
      </trkpt>
      <trkpt lat="49.9702695943415164947509765625" lon="11.29832527600228786468505859375">
        <ele>405.20001220703125</ele>
        <time>2018-08-17T11:53:41.000Z</time>
      </trkpt>
      <trkpt lat="49.97042222879827022552490234375" lon="11.29801162518560886383056640625">
        <ele>405.20001220703125</ele>
        <time>2018-08-17T11:53:44.000Z</time>
      </trkpt>
      <trkpt lat="49.9708851613104343414306640625" lon="11.29755564965307712554931640625">
        <ele>405.20001220703125</ele>
        <time>2018-08-17T11:53:51.000Z</time>
      </trkpt>
      <trkpt lat="49.9714246205985546112060546875" lon="11.29766293801367282867431640625">
        <ele>405.79998779296875</ele>
        <time>2018-08-17T11:53:58.000Z</time>
      </trkpt>
      <trkpt lat="49.971635006368160247802734375" lon="11.2978725694119930267333984375">
        <ele>406</ele>
        <time>2018-08-17T11:54:01.000Z</time>
      </trkpt>
      <trkpt lat="49.97211503796279430389404296875" lon="11.2983858771622180938720703125">
        <ele>406</ele>
        <time>2018-08-17T11:54:08.000Z</time>
      </trkpt>
      <trkpt lat="49.97251451946794986724853515625" lon="11.2984715402126312255859375">
        <ele>406</ele>
        <time>2018-08-17T11:54:13.000Z</time>
      </trkpt>
      <trkpt lat="49.97288935817778110504150390625" lon="11.2984546087682247161865234375">
        <ele>406.20001220703125</ele>
        <time>2018-08-17T11:54:18.000Z</time>
      </trkpt>
      <trkpt lat="49.97346435673534870147705078125" lon="11.29841211251914501190185546875">
        <ele>406.79998779296875</ele>
        <time>2018-08-17T11:54:26.000Z</time>
      </trkpt>
      <trkpt lat="49.97353191487491130828857421875" lon="11.2983977794647216796875">
        <ele>407.20001220703125</ele>
        <time>2018-08-17T11:54:27.000Z</time>
      </trkpt>
      <trkpt lat="49.97399711050093173980712890625" lon="11.2982775829732418060302734375">
        <ele>408.399993896484375</ele>
        <time>2018-08-17T11:54:34.000Z</time>
      </trkpt>
      <trkpt lat="49.97413138858973979949951171875" lon="11.298249922692775726318359375">
        <ele>408.79998779296875</ele>
        <time>2018-08-17T11:54:36.000Z</time>
      </trkpt>
      <trkpt lat="49.9743421934545040130615234375" lon="11.2988307885825634002685546875">
        <ele>409.20001220703125</ele>
        <time>2018-08-17T11:54:43.000Z</time>
      </trkpt>
      <trkpt lat="49.9743462167680263519287109375" lon="11.2989441119134426116943359375">
        <ele>409.20001220703125</ele>
        <time>2018-08-17T11:54:44.000Z</time>
      </trkpt>
      <trkpt lat="49.9745683372020721435546875" lon="11.299376785755157470703125">
        <ele>409</ele>
        <time>2018-08-17T11:54:49.000Z</time>
      </trkpt>
      <trkpt lat="49.9750536493957042694091796875" lon="11.29985463805496692657470703125">
        <ele>408.20001220703125</ele>
        <time>2018-08-17T11:54:57.000Z</time>
      </trkpt>
      <trkpt lat="49.97551289387047290802001953125" lon="11.30011011846363544464111328125">
        <ele>408.399993896484375</ele>
        <time>2018-08-17T11:55:05.000Z</time>
      </trkpt>
      <trkpt lat="49.975608028471469879150390625" lon="11.3001554645597934722900390625">
        <ele>408.600006103515625</ele>
        <time>2018-08-17T11:55:07.000Z</time>
      </trkpt>
      <trkpt lat="49.9757466651499271392822265625" lon="11.30045578815042972564697265625">
        <ele>409.600006103515625</ele>
        <time>2018-08-17T11:55:12.000Z</time>
      </trkpt>
      <trkpt lat="49.97577222995460033416748046875" lon="11.30052066408097743988037109375">
        <ele>410</ele>
        <time>2018-08-17T11:55:13.000Z</time>
      </trkpt>
      <trkpt lat="49.97586493380367755889892578125" lon="11.30072350613772869110107421875">
        <ele>410.600006103515625</ele>
        <time>2018-08-17T11:55:16.000Z</time>
      </trkpt>
      <trkpt lat="49.97603978030383586883544921875" lon="11.3010224886238574981689453125">
        <ele>411.600006103515625</ele>
        <time>2018-08-17T11:55:20.000Z</time>
      </trkpt>
      <trkpt lat="49.9760866351425647735595703125" lon="11.30110035650432109832763671875">
        <ele>411.79998779296875</ele>
        <time>2018-08-17T11:55:21.000Z</time>
      </trkpt>
      <trkpt lat="49.97614036314189434051513671875" lon="11.30117529071867465972900390625">
        <ele>411.79998779296875</ele>
        <time>2018-08-17T11:55:22.000Z</time>
      </trkpt>
      <trkpt lat="49.976514615118503570556640625" lon="11.30183947272598743438720703125">
        <ele>411.600006103515625</ele>
        <time>2018-08-17T11:55:30.000Z</time>
      </trkpt>
      <trkpt lat="49.97667093761265277862548828125" lon="11.30208925344049930572509765625">
        <ele>411.399993896484375</ele>
        <time>2018-08-17T11:55:33.000Z</time>
      </trkpt>
      <trkpt lat="49.97684729285538196563720703125" lon="11.30234423093497753143310546875">
        <ele>411.20001220703125</ele>
        <time>2018-08-17T11:55:36.000Z</time>
      </trkpt>
      <trkpt lat="49.97712238691747188568115234375" lon="11.30305468104779720306396484375">
        <ele>410.600006103515625</ele>
        <time>2018-08-17T11:55:43.000Z</time>
      </trkpt>
      <trkpt lat="49.9771692417562007904052734375" lon="11.303139589726924896240234375">
        <ele>410.600006103515625</ele>
        <time>2018-08-17T11:55:44.000Z</time>
      </trkpt>
      <trkpt lat="49.977674670517444610595703125" lon="11.3030661642551422119140625">
        <ele>411</ele>
        <time>2018-08-17T11:55:53.000Z</time>
      </trkpt>
      <trkpt lat="49.9778594076633453369140625" lon="11.30284798331558704376220703125">
        <ele>411.600006103515625</ele>
        <time>2018-08-17T11:55:56.000Z</time>
      </trkpt>
      <trkpt lat="49.9780042469501495361328125" lon="11.30277070216834545135498046875">
        <ele>411.79998779296875</ele>
        <time>2018-08-17T11:55:58.000Z</time>
      </trkpt>
      <trkpt lat="49.9783353321254253387451171875" lon="11.30328551866114139556884765625">
        <ele>411.79998779296875</ele>
        <time>2018-08-17T11:56:06.000Z</time>
      </trkpt>
      <trkpt lat="49.9783219210803508758544921875" lon="11.303418539464473724365234375">
        <ele>411.79998779296875</ele>
        <time>2018-08-17T11:56:08.000Z</time>
      </trkpt>
      <trkpt lat="49.97827959246933460235595703125" lon="11.30377183668315410614013671875">
        <ele>413</ele>
        <time>2018-08-17T11:56:16.000Z</time>
      </trkpt>
      <trkpt lat="49.97826970182359218597412109375" lon="11.30389253608882427215576171875">
        <ele>414.600006103515625</ele>
        <time>2018-08-17T11:56:19.000Z</time>
      </trkpt>
      <trkpt lat="49.97826349921524524688720703125" lon="11.30401507951319217681884765625">
        <ele>416</ele>
        <time>2018-08-17T11:56:22.000Z</time>
      </trkpt>
      <trkpt lat="49.9782602302730083465576171875" lon="11.30415044724941253662109375">
        <ele>417.20001220703125</ele>
        <time>2018-08-17T11:56:25.000Z</time>
      </trkpt>
      <trkpt lat="49.97825947590172290802001953125" lon="11.30428380332887172698974609375">
        <ele>418.399993896484375</ele>
        <time>2018-08-17T11:56:28.000Z</time>
      </trkpt>
      <trkpt lat="49.9782625772058963775634765625" lon="11.30441464483737945556640625">
        <ele>419.399993896484375</ele>
        <time>2018-08-17T11:56:31.000Z</time>
      </trkpt>
      <trkpt lat="49.97826836071908473968505859375" lon="11.30454079248011112213134765625">
        <ele>420.399993896484375</ele>
        <time>2018-08-17T11:56:34.000Z</time>
      </trkpt>
      <trkpt lat="49.978270120918750762939453125" lon="11.30467708222568035125732421875">
        <ele>421.399993896484375</ele>
        <time>2018-08-17T11:56:37.000Z</time>
      </trkpt>
      <trkpt lat="49.97827841900289058685302734375" lon="11.3048510067164897918701171875">
        <ele>422.600006103515625</ele>
        <time>2018-08-17T11:56:41.000Z</time>
      </trkpt>
      <trkpt lat="49.97829115949571132659912109375" lon="11.3050230033695697784423828125">
        <ele>423.79998779296875</ele>
        <time>2018-08-17T11:56:45.000Z</time>
      </trkpt>
      <trkpt lat="49.978296943008899688720703125" lon="11.30514730699360370635986328125">
        <ele>425</ele>
        <time>2018-08-17T11:56:48.000Z</time>
      </trkpt>
      <trkpt lat="49.97832753695547580718994140625" lon="11.30531494505703449249267578125">
        <ele>426.20001220703125</ele>
        <time>2018-08-17T11:56:52.000Z</time>
      </trkpt>
      <trkpt lat="49.9783681891858577728271484375" lon="11.30548140965402126312255859375">
        <ele>427.399993896484375</ele>
        <time>2018-08-17T11:56:56.000Z</time>
      </trkpt>
      <trkpt lat="49.97841797769069671630859375" lon="11.30564452148973941802978515625">
        <ele>428.600006103515625</ele>
        <time>2018-08-17T11:57:00.000Z</time>
      </trkpt>
      <trkpt lat="49.97847422026097774505615234375" lon="11.30579740740358829498291015625">
        <ele>429.600006103515625</ele>
        <time>2018-08-17T11:57:04.000Z</time>
      </trkpt>
      <trkpt lat="49.9785406887531280517578125" lon="11.30593411624431610107421875">
        <ele>430.600006103515625</ele>
        <time>2018-08-17T11:57:08.000Z</time>
      </trkpt>
      <trkpt lat="49.978628866374492645263671875" lon="11.3061066158115863800048828125">
        <ele>432</ele>
        <time>2018-08-17T11:57:13.000Z</time>
      </trkpt>
      <trkpt lat="49.9787150323390960693359375" lon="11.3062311708927154541015625">
        <ele>433.399993896484375</ele>
        <time>2018-08-17T11:57:17.000Z</time>
      </trkpt>
      <trkpt lat="49.978806562721729278564453125" lon="11.30634826608002185821533203125">
        <ele>434.399993896484375</ele>
        <time>2018-08-17T11:57:21.000Z</time>
      </trkpt>
      <trkpt lat="49.97892349027097225189208984375" lon="11.306486986577510833740234375">
        <ele>435.600006103515625</ele>
        <time>2018-08-17T11:57:26.000Z</time>
      </trkpt>
      <trkpt lat="49.97905340977013111114501953125" lon="11.306613720953464508056640625">
        <ele>436.79998779296875</ele>
        <time>2018-08-17T11:57:31.000Z</time>
      </trkpt>
      <trkpt lat="49.97919137589633464813232421875" lon="11.30672645755112171173095703125">
        <ele>438</ele>
        <time>2018-08-17T11:57:36.000Z</time>
      </trkpt>
      <trkpt lat="49.9793354608118534088134765625" lon="11.30681815557181835174560546875">
        <ele>439.20001220703125</ele>
        <time>2018-08-17T11:57:41.000Z</time>
      </trkpt>
      <trkpt lat="49.97939455322921276092529296875" lon="11.30685587413609027862548828125">
        <ele>439.600006103515625</ele>
        <time>2018-08-17T11:57:43.000Z</time>
      </trkpt>
      <trkpt lat="49.9794499576091766357421875" lon="11.30688018165528774261474609375">
        <ele>440.20001220703125</ele>
        <time>2018-08-17T11:57:45.000Z</time>
      </trkpt>
      <trkpt lat="49.97953838668763637542724609375" lon="11.30692007951438426971435546875">
        <ele>441.399993896484375</ele>
        <time>2018-08-17T11:57:48.000Z</time>
      </trkpt>
      <trkpt lat="49.97969311662018299102783203125" lon="11.3070014677941799163818359375">
        <ele>442.399993896484375</ele>
        <time>2018-08-17T11:57:53.000Z</time>
      </trkpt>
      <trkpt lat="49.97985220514237880706787109375" lon="11.3070815987884998321533203125">
        <ele>443.600006103515625</ele>
        <time>2018-08-17T11:57:58.000Z</time>
      </trkpt>
      <trkpt lat="49.9800147302448749542236328125" lon="11.30715846084058284759521484375">
        <ele>444.79998779296875</ele>
        <time>2018-08-17T11:58:03.000Z</time>
      </trkpt>
      <trkpt lat="49.980172477662563323974609375" lon="11.307229958474636077880859375">
        <ele>445.79998779296875</ele>
        <time>2018-08-17T11:58:08.000Z</time>
      </trkpt>
      <trkpt lat="49.98033047653734683990478515625" lon="11.3072961755096912384033203125">
        <ele>447</ele>
        <time>2018-08-17T11:58:13.000Z</time>
      </trkpt>
      <trkpt lat="49.98046022839844226837158203125" lon="11.30737286992371082305908203125">
        <ele>448</ele>
        <time>2018-08-17T11:58:17.000Z</time>
      </trkpt>
      <trkpt lat="49.98059190809726715087890625" lon="11.3074376620352268218994140625">
        <ele>449</ele>
        <time>2018-08-17T11:58:21.000Z</time>
      </trkpt>
      <trkpt lat="49.9807523377239704132080078125" lon="11.3075355626642704010009765625">
        <ele>450.20001220703125</ele>
        <time>2018-08-17T11:58:26.000Z</time>
      </trkpt>
      <trkpt lat="49.98091335408389568328857421875" lon="11.3076468743383884429931640625">
        <ele>451.20001220703125</ele>
        <time>2018-08-17T11:58:31.000Z</time>
      </trkpt>
      <trkpt lat="49.98108417727053165435791015625" lon="11.30775927565991878509521484375">
        <ele>452.399993896484375</ele>
        <time>2018-08-17T11:58:36.000Z</time>
      </trkpt>
      <trkpt lat="49.9812569282948970794677734375" lon="11.307901181280612945556640625">
        <ele>453.399993896484375</ele>
        <time>2018-08-17T11:58:41.000Z</time>
      </trkpt>
      <trkpt lat="49.98143722303211688995361328125" lon="11.30807259120047092437744140625">
        <ele>454.600006103515625</ele>
        <time>2018-08-17T11:58:46.000Z</time>
      </trkpt>
      <trkpt lat="49.98171801678836345672607421875" lon="11.30840350873768329620361328125">
        <ele>455.600006103515625</ele>
        <time>2018-08-17T11:58:54.000Z</time>
      </trkpt>
      <trkpt lat="49.9819137342274188995361328125" lon="11.30871514789760112762451171875">
        <ele>456.600006103515625</ele>
        <time>2018-08-17T11:59:00.000Z</time>
      </trkpt>
      <trkpt lat="49.982118420302867889404296875" lon="11.3091462291777133941650390625">
        <ele>457.600006103515625</ele>
        <time>2018-08-17T11:59:07.000Z</time>
      </trkpt>
      <trkpt lat="49.982141219079494476318359375" lon="11.30921311676502227783203125">
        <ele>457.79998779296875</ele>
        <time>2018-08-17T11:59:08.000Z</time>
      </trkpt>
      <trkpt lat="49.98231866396963596343994140625" lon="11.30984268151223659515380859375">
        <ele>458.79998779296875</ele>
        <time>2018-08-17T11:59:17.000Z</time>
      </trkpt>
      <trkpt lat="49.98239946551620960235595703125" lon="11.31028608419001102447509765625">
        <ele>459.79998779296875</ele>
        <time>2018-08-17T11:59:23.000Z</time>
      </trkpt>
      <trkpt lat="49.9824942648410797119140625" lon="11.31086594425141811370849609375">
        <ele>461</ele>
        <time>2018-08-17T11:59:31.000Z</time>
      </trkpt>
      <trkpt lat="49.982553608715534210205078125" lon="11.311355531215667724609375">
        <ele>462.399993896484375</ele>
        <time>2018-08-17T11:59:38.000Z</time>
      </trkpt>
      <trkpt lat="49.98256358318030834197998046875" lon="11.3114257715642452239990234375">
        <ele>462.79998779296875</ele>
        <time>2018-08-17T11:59:39.000Z</time>
      </trkpt>
      <trkpt lat="49.982602894306182861328125" lon="11.31162936799228191375732421875">
        <ele>463.399993896484375</ele>
        <time>2018-08-17T11:59:42.000Z</time>
      </trkpt>
      <trkpt lat="49.9826473183929920196533203125" lon="11.31181695498526096343994140625">
        <ele>464.399993896484375</ele>
        <time>2018-08-17T11:59:45.000Z</time>
      </trkpt>
      <trkpt lat="49.98274915851652622222900390625" lon="11.3121650554239749908447265625">
        <ele>465.600006103515625</ele>
        <time>2018-08-17T11:59:52.000Z</time>
      </trkpt>
      <trkpt lat="49.98282082378864288330078125" lon="11.31233260966837406158447265625">
        <ele>466.79998779296875</ele>
        <time>2018-08-17T11:59:56.000Z</time>
      </trkpt>
      <trkpt lat="49.98287983238697052001953125" lon="11.31245129741728305816650390625">
        <ele>467.79998779296875</ele>
        <time>2018-08-17T11:59:59.000Z</time>
      </trkpt>
      <trkpt lat="49.98294110409915447235107421875" lon="11.31255456246435642242431640625">
        <ele>469</ele>
        <time>2018-08-17T12:00:02.000Z</time>
      </trkpt>
      <trkpt lat="49.98300581239163875579833984375" lon="11.31265413947403430938720703125">
        <ele>470.20001220703125</ele>
        <time>2018-08-17T12:00:05.000Z</time>
      </trkpt>
      <trkpt lat="49.9830721132457256317138671875" lon="11.31274935789406299591064453125">
        <ele>471.399993896484375</ele>
        <time>2018-08-17T12:00:08.000Z</time>
      </trkpt>
      <trkpt lat="49.98311326839029788970947265625" lon="11.312813647091388702392578125">
        <ele>472.600006103515625</ele>
        <time>2018-08-17T12:00:11.000Z</time>
      </trkpt>
      <trkpt lat="49.98316288925707340240478515625" lon="11.3129278086125850677490234375">
        <ele>473.79998779296875</ele>
        <time>2018-08-17T12:00:13.000Z</time>
      </trkpt>
      <trkpt lat="49.98317412100732326507568359375" lon="11.31311397068202495574951171875">
        <ele>475</ele>
        <time>2018-08-17T12:00:17.000Z</time>
      </trkpt>
      <trkpt lat="49.9831354804337024688720703125" lon="11.3132878951728343963623046875">
        <ele>476.399993896484375</ele>
        <time>2018-08-17T12:00:21.000Z</time>
      </trkpt>
      <trkpt lat="49.9830965884029865264892578125" lon="11.31346802227199077606201171875">
        <ele>477.600006103515625</ele>
        <time>2018-08-17T12:00:25.000Z</time>
      </trkpt>
      <trkpt lat="49.983061216771602630615234375" lon="11.31364722736179828643798828125">
        <ele>478.79998779296875</ele>
        <time>2018-08-17T12:00:29.000Z</time>
      </trkpt>
      <trkpt lat="49.98301704414188861846923828125" lon="11.31381536833941936492919921875">
        <ele>480</ele>
        <time>2018-08-17T12:00:33.000Z</time>
      </trkpt>
      <trkpt lat="49.9829728715121746063232421875" lon="11.31399256177246570587158203125">
        <ele>481</ele>
        <time>2018-08-17T12:00:37.000Z</time>
      </trkpt>
      <trkpt lat="49.9829556047916412353515625" lon="11.31419372744858264923095703125">
        <ele>482.399993896484375</ele>
        <time>2018-08-17T12:00:41.000Z</time>
      </trkpt>
      <trkpt lat="49.9829587899148464202880859375" lon="11.31445038132369518280029296875">
        <ele>483.399993896484375</ele>
        <time>2018-08-17T12:00:46.000Z</time>
      </trkpt>
      <trkpt lat="49.98299273662269115447998046875" lon="11.31469429470598697662353515625">
        <ele>484.399993896484375</ele>
        <time>2018-08-17T12:00:51.000Z</time>
      </trkpt>
      <trkpt lat="49.98304101638495922088623046875" lon="11.3149914331734180450439453125">
        <ele>485.79998779296875</ele>
        <time>2018-08-17T12:00:57.000Z</time>
      </trkpt>
      <trkpt lat="49.9830774776637554168701171875" lon="11.3152338378131389617919921875">
        <ele>487</ele>
        <time>2018-08-17T12:01:02.000Z</time>
      </trkpt>
      <trkpt lat="49.98309667222201824188232421875" lon="11.3154373504221439361572265625">
        <ele>488.20001220703125</ele>
        <time>2018-08-17T12:01:06.000Z</time>
      </trkpt>
      <trkpt lat="49.98309633694589138031005859375" lon="11.31567849777638912200927734375">
        <ele>489.399993896484375</ele>
        <time>2018-08-17T12:01:10.000Z</time>
      </trkpt>
      <trkpt lat="49.9830885417759418487548828125" lon="11.3158738799393177032470703125">
        <ele>490.20001220703125</ele>
        <time>2018-08-17T12:01:13.000Z</time>
      </trkpt>
      <trkpt lat="49.98309046961367130279541015625" lon="11.31594152189791202545166015625">
        <ele>490.399993896484375</ele>
        <time>2018-08-17T12:01:14.000Z</time>
      </trkpt>
      <trkpt lat="49.983093403279781341552734375" lon="11.31607864983379840850830078125">
        <ele>490.79998779296875</ele>
        <time>2018-08-17T12:01:16.000Z</time>
      </trkpt>
      <trkpt lat="49.9830687604844570159912109375" lon="11.3165028579533100128173828125">
        <ele>491.399993896484375</ele>
        <time>2018-08-17T12:01:22.000Z</time>
      </trkpt>
      <trkpt lat="49.9830253422260284423828125" lon="11.317265443503856658935546875">
        <ele>491.399993896484375</ele>
        <time>2018-08-17T12:01:31.000Z</time>
      </trkpt>
      <trkpt lat="49.983153752982616424560546875" lon="11.31805728189647197723388671875">
        <ele>490.79998779296875</ele>
        <time>2018-08-17T12:01:41.000Z</time>
      </trkpt>
      <trkpt lat="49.983149059116840362548828125" lon="11.31814864464104175567626953125">
        <ele>490.79998779296875</ele>
        <time>2018-08-17T12:01:42.000Z</time>
      </trkpt>
      <trkpt lat="49.98327671550214290618896484375" lon="11.3190036825835704803466796875">
        <ele>490.79998779296875</ele>
        <time>2018-08-17T12:01:51.000Z</time>
      </trkpt>
      <trkpt lat="49.98333438299596309661865234375" lon="11.31941582076251506805419921875">
        <ele>490.600006103515625</ele>
        <time>2018-08-17T12:01:55.000Z</time>
      </trkpt>
      <trkpt lat="49.9833255819976329803466796875" lon="11.31985067389905452728271484375">
        <ele>490</ele>
        <time>2018-08-17T12:01:59.000Z</time>
      </trkpt>
      <trkpt lat="49.98328576795756816864013671875" lon="11.32046707905828952789306640625">
        <ele>489</ele>
        <time>2018-08-17T12:02:05.000Z</time>
      </trkpt>
      <trkpt lat="49.983289204537868499755859375" lon="11.3213318400084972381591796875">
        <ele>488.20001220703125</ele>
        <time>2018-08-17T12:02:14.000Z</time>
      </trkpt>
      <trkpt lat="49.98328794725239276885986328125" lon="11.32151783443987369537353515625">
        <ele>488.20001220703125</ele>
        <time>2018-08-17T12:02:16.000Z</time>
      </trkpt>
      <trkpt lat="49.98325391672551631927490234375" lon="11.32206265814602375030517578125">
        <ele>488.20001220703125</ele>
        <time>2018-08-17T12:02:22.000Z</time>
      </trkpt>
      <trkpt lat="49.9831787310540676116943359375" lon="11.32265525870025157928466796875">
        <ele>488.20001220703125</ele>
        <time>2018-08-17T12:02:28.000Z</time>
      </trkpt>
      <trkpt lat="49.98317110352218151092529296875" lon="11.322990618646144866943359375">
        <ele>488</ele>
        <time>2018-08-17T12:02:31.000Z</time>
      </trkpt>
      <trkpt lat="49.98327537439763545989990234375" lon="11.32390416227281093597412109375">
        <ele>488</ele>
        <time>2018-08-17T12:02:39.000Z</time>
      </trkpt>
      <trkpt lat="49.983434379100799560546875" lon="11.32470949552953243255615234375">
        <ele>487.399993896484375</ele>
        <time>2018-08-17T12:02:46.000Z</time>
      </trkpt>
      <trkpt lat="49.98345172964036464691162109375" lon="11.32481846027076244354248046875">
        <ele>487.399993896484375</ele>
        <time>2018-08-17T12:02:47.000Z</time>
      </trkpt>
      <trkpt lat="49.983643926680088043212890625" lon="11.3256931118667125701904296875">
        <ele>487.20001220703125</ele>
        <time>2018-08-17T12:02:55.000Z</time>
      </trkpt>
      <trkpt lat="49.98385347425937652587890625" lon="11.32651881314814090728759765625">
        <ele>487.399993896484375</ele>
        <time>2018-08-17T12:03:03.000Z</time>
      </trkpt>
      <trkpt lat="49.98412647284567356109619140625" lon="11.3272454403340816497802734375">
        <ele>488.399993896484375</ele>
        <time>2018-08-17T12:03:11.000Z</time>
      </trkpt>
      <trkpt lat="49.984356723725795745849609375" lon="11.327728070318698883056640625">
        <ele>489.399993896484375</ele>
        <time>2018-08-17T12:03:17.000Z</time>
      </trkpt>
      <trkpt lat="49.9848205782473087310791015625" lon="11.32831446826457977294921875">
        <ele>490.399993896484375</ele>
        <time>2018-08-17T12:03:26.000Z</time>
      </trkpt>
      <trkpt lat="49.98532676137983798980712890625" lon="11.32881662808358669281005859375">
        <ele>491.399993896484375</ele>
        <time>2018-08-17T12:03:35.000Z</time>
      </trkpt>
      <trkpt lat="49.98578156344592571258544921875" lon="11.329317279160022735595703125">
        <ele>492.399993896484375</ele>
        <time>2018-08-17T12:03:44.000Z</time>
      </trkpt>
      <trkpt lat="49.98603704385459423065185546875" lon="11.32959832437336444854736328125">
        <ele>493.600006103515625</ele>
        <time>2018-08-17T12:03:50.000Z</time>
      </trkpt>
      <trkpt lat="49.986194036900997161865234375" lon="11.3297688961029052734375">
        <ele>494.600006103515625</ele>
        <time>2018-08-17T12:03:54.000Z</time>
      </trkpt>
      <trkpt lat="49.98638036660850048065185546875" lon="11.33000551722943782806396484375">
        <ele>496</ele>
        <time>2018-08-17T12:03:59.000Z</time>
      </trkpt>
      <trkpt lat="49.98648597858846187591552734375" lon="11.330154128372669219970703125">
        <ele>497</ele>
        <time>2018-08-17T12:04:02.000Z</time>
      </trkpt>
      <trkpt lat="49.98658086173236370086669921875" lon="11.3303075172007083892822265625">
        <ele>498</ele>
        <time>2018-08-17T12:04:05.000Z</time>
      </trkpt>
      <trkpt lat="49.98666568659245967864990234375" lon="11.33046501316130161285400390625">
        <ele>498.79998779296875</ele>
        <time>2018-08-17T12:04:08.000Z</time>
      </trkpt>
      <trkpt lat="49.986716397106647491455078125" lon="11.33057288825511932373046875">
        <ele>499.79998779296875</ele>
        <time>2018-08-17T12:04:10.000Z</time>
      </trkpt>
      <trkpt lat="49.98679049313068389892578125" lon="11.330726109445095062255859375">
        <ele>501</ele>
        <time>2018-08-17T12:04:13.000Z</time>
      </trkpt>
      <trkpt lat="49.98689048923552036285400390625" lon="11.3310183025896549224853515625">
        <ele>502</ele>
        <time>2018-08-17T12:04:18.000Z</time>
      </trkpt>
      <trkpt lat="49.98695771209895610809326171875" lon="11.33128090761601924896240234375">
        <ele>503.20001220703125</ele>
        <time>2018-08-17T12:04:22.000Z</time>
      </trkpt>
      <trkpt lat="49.9870045669376850128173828125" lon="11.331491880118846893310546875">
        <ele>504.20001220703125</ele>
        <time>2018-08-17T12:04:25.000Z</time>
      </trkpt>
      <trkpt lat="49.98704153113067150115966796875" lon="11.33163143880665302276611328125">
        <ele>504.79998779296875</ele>
        <time>2018-08-17T12:04:27.000Z</time>
      </trkpt>
      <trkpt lat="49.98709064908325672149658203125" lon="11.331820450723171234130859375">
        <ele>505.399993896484375</ele>
        <time>2018-08-17T12:04:30.000Z</time>
      </trkpt>
      <trkpt lat="49.9871371686458587646484375" lon="11.33201348595321178436279296875">
        <ele>506</ele>
        <time>2018-08-17T12:04:33.000Z</time>
      </trkpt>
      <trkpt lat="49.987133480608463287353515625" lon="11.33215363137423992156982421875">
        <ele>506.399993896484375</ele>
        <time>2018-08-17T12:04:35.000Z</time>
      </trkpt>
      <trkpt lat="49.9870109371840953826904296875" lon="11.3323939405381679534912109375">
        <ele>507</ele>
        <time>2018-08-17T12:04:39.000Z</time>
      </trkpt>
      <trkpt lat="49.98697363771498203277587890625" lon="11.33245068602263927459716796875">
        <ele>507.20001220703125</ele>
        <time>2018-08-17T12:04:40.000Z</time>
      </trkpt>
      <trkpt lat="49.98689778149127960205078125" lon="11.33256719447672367095947265625">
        <ele>507.399993896484375</ele>
        <time>2018-08-17T12:04:42.000Z</time>
      </trkpt>
      <trkpt lat="49.98686081729829311370849609375" lon="11.33270080201327800750732421875">
        <ele>507.399993896484375</ele>
        <time>2018-08-17T12:04:44.000Z</time>
      </trkpt>
      <trkpt lat="49.98698000796139240264892578125" lon="11.33304999209940433502197265625">
        <ele>507.600006103515625</ele>
        <time>2018-08-17T12:04:49.000Z</time>
      </trkpt>
      <trkpt lat="49.98726398684084415435791015625" lon="11.33365768007934093475341796875">
        <ele>508</ele>
        <time>2018-08-17T12:04:58.000Z</time>
      </trkpt>
      <trkpt lat="49.9872979335486888885498046875" lon="11.33399580605328083038330078125">
        <ele>508.399993896484375</ele>
        <time>2018-08-17T12:05:02.000Z</time>
      </trkpt>
      <trkpt lat="49.98729550279676914215087890625" lon="11.3340823911130428314208984375">
        <ele>508.600006103515625</ele>
        <time>2018-08-17T12:05:03.000Z</time>
      </trkpt>
      <trkpt lat="49.98735216446220874786376953125" lon="11.3347886502742767333984375">
        <ele>509.600006103515625</ele>
        <time>2018-08-17T12:05:11.000Z</time>
      </trkpt>
      <trkpt lat="49.98760261572897434234619140625" lon="11.3355638086795806884765625">
        <ele>510.399993896484375</ele>
        <time>2018-08-17T12:05:20.000Z</time>
      </trkpt>
      <trkpt lat="49.98774125240743160247802734375" lon="11.33590905927121639251708984375">
        <ele>510.600006103515625</ele>
        <time>2018-08-17T12:05:24.000Z</time>
      </trkpt>
      <trkpt lat="49.98804467730224132537841796875" lon="11.3366697169840335845947265625">
        <ele>510.79998779296875</ele>
        <time>2018-08-17T12:05:32.000Z</time>
      </trkpt>
      <trkpt lat="49.98808088712394237518310546875" lon="11.33677206002175807952880859375">
        <ele>510.79998779296875</ele>
        <time>2018-08-17T12:05:33.000Z</time>
      </trkpt>
      <trkpt lat="49.988273419439792633056640625" lon="11.337582506239414215087890625">
        <ele>510.399993896484375</ele>
        <time>2018-08-17T12:05:40.000Z</time>
      </trkpt>
      <trkpt lat="49.9884053505957126617431640625" lon="11.33810176514089107513427734375">
        <ele>510</ele>
        <time>2018-08-17T12:05:44.000Z</time>
      </trkpt>
      <trkpt lat="49.9887540377676486968994140625" lon="11.3386617600917816162109375">
        <ele>509.399993896484375</ele>
        <time>2018-08-17T12:05:49.000Z</time>
      </trkpt>
      <trkpt lat="49.98912493698298931121826171875" lon="11.33876812644302845001220703125">
        <ele>507.399993896484375</ele>
        <time>2018-08-17T12:05:53.000Z</time>
      </trkpt>
      <trkpt lat="49.98930883593857288360595703125" lon="11.33875605650246143341064453125">
        <ele>506.399993896484375</ele>
        <time>2018-08-17T12:05:55.000Z</time>
      </trkpt>
      <trkpt lat="49.9896911345422267913818359375" lon="11.33878044784069061279296875">
        <ele>505.399993896484375</ele>
        <time>2018-08-17T12:05:59.000Z</time>
      </trkpt>
      <trkpt lat="49.99010863713920116424560546875" lon="11.339260898530483245849609375">
        <ele>505</ele>
        <time>2018-08-17T12:06:04.000Z</time>
      </trkpt>
      <trkpt lat="49.99018206261098384857177734375" lon="11.3393891416490077972412109375">
        <ele>504.20001220703125</ele>
        <time>2018-08-17T12:06:05.000Z</time>
      </trkpt>
      <trkpt lat="49.990400411188602447509765625" lon="11.3397646509110927581787109375">
        <ele>502.600006103515625</ele>
        <time>2018-08-17T12:06:08.000Z</time>
      </trkpt>
      <trkpt lat="49.9906456656754016876220703125" lon="11.34006899781525135040283203125">
        <ele>501.20001220703125</ele>
        <time>2018-08-17T12:06:11.000Z</time>
      </trkpt>
      <trkpt lat="49.9908203445374965667724609375" lon="11.34019254706799983978271484375">
        <ele>500</ele>
        <time>2018-08-17T12:06:13.000Z</time>
      </trkpt>
      <trkpt lat="49.990995191037654876708984375" lon="11.3402440957725048065185546875">
        <ele>498.79998779296875</ele>
        <time>2018-08-17T12:06:15.000Z</time>
      </trkpt>
      <trkpt lat="49.9910778366029262542724609375" lon="11.3402538187801837921142578125">
        <ele>498.399993896484375</ele>
        <time>2018-08-17T12:06:16.000Z</time>
      </trkpt>
      <trkpt lat="49.99141386710107326507568359375" lon="11.3403248973190784454345703125">
        <ele>498</ele>
        <time>2018-08-17T12:06:21.000Z</time>
      </trkpt>
      <trkpt lat="49.99161117710173130035400390625" lon="11.3404673896729946136474609375">
        <ele>498.600006103515625</ele>
        <time>2018-08-17T12:06:25.000Z</time>
      </trkpt>
      <trkpt lat="49.99173103831708431243896484375" lon="11.3406175933778285980224609375">
        <ele>500</ele>
        <time>2018-08-17T12:06:28.000Z</time>
      </trkpt>
      <trkpt lat="49.99183698557317256927490234375" lon="11.340784728527069091796875">
        <ele>501.20001220703125</ele>
        <time>2018-08-17T12:06:31.000Z</time>
      </trkpt>
      <trkpt lat="49.99193790368735790252685546875" lon="11.34096552617847919464111328125">
        <ele>502.399993896484375</ele>
        <time>2018-08-17T12:06:34.000Z</time>
      </trkpt>
      <trkpt lat="49.9920402467250823974609375" lon="11.34114707820117473602294921875">
        <ele>503.399993896484375</ele>
        <time>2018-08-17T12:06:37.000Z</time>
      </trkpt>
      <trkpt lat="49.9921770393848419189453125" lon="11.34139367379248142242431640625">
        <ele>504.600006103515625</ele>
        <time>2018-08-17T12:06:41.000Z</time>
      </trkpt>
      <trkpt lat="49.99231492169201374053955078125" lon="11.34164370596408843994140625">
        <ele>505.79998779296875</ele>
        <time>2018-08-17T12:06:45.000Z</time>
      </trkpt>
      <trkpt lat="49.9925205297768115997314453125" lon="11.34200689382851123809814453125">
        <ele>506.79998779296875</ele>
        <time>2018-08-17T12:06:51.000Z</time>
      </trkpt>
      <trkpt lat="49.9926432408392429351806640625" lon="11.34225617162883281707763671875">
        <ele>507.399993896484375</ele>
        <time>2018-08-17T12:06:55.000Z</time>
      </trkpt>
      <trkpt lat="49.99269663356244564056396484375" lon="11.34239070117473602294921875">
        <ele>507.79998779296875</ele>
        <time>2018-08-17T12:06:57.000Z</time>
      </trkpt>
      <trkpt lat="49.992741309106349945068359375" lon="11.34253595955669879913330078125">
        <ele>508.20001220703125</ele>
        <time>2018-08-17T12:06:59.000Z</time>
      </trkpt>
      <trkpt lat="49.99283107928931713104248046875" lon="11.3428263925015926361083984375">
        <ele>509</ele>
        <time>2018-08-17T12:07:03.000Z</time>
      </trkpt>
      <trkpt lat="49.99285756610333919525146484375" lon="11.342896632850170135498046875">
        <ele>509.20001220703125</ele>
        <time>2018-08-17T12:07:04.000Z</time>
      </trkpt>
      <trkpt lat="49.99298044480383396148681640625" lon="11.3431626744568347930908203125">
        <ele>510.20001220703125</ele>
        <time>2018-08-17T12:07:08.000Z</time>
      </trkpt>
      <trkpt lat="49.99301179312169551849365234375" lon="11.34322344325482845306396484375">
        <ele>510.399993896484375</ele>
        <time>2018-08-17T12:07:09.000Z</time>
      </trkpt>
      <trkpt lat="49.9932088516652584075927734375" lon="11.34347573854029178619384765625">
        <ele>511.399993896484375</ele>
        <time>2018-08-17T12:07:14.000Z</time>
      </trkpt>
      <trkpt lat="49.9934643320739269256591796875" lon="11.3437571190297603607177734375">
        <ele>512.4000244140625</ele>
        <time>2018-08-17T12:07:20.000Z</time>
      </trkpt>
      <trkpt lat="49.99366004951298236846923828125" lon="11.34391981177031993865966796875">
        <ele>513.4000244140625</ele>
        <time>2018-08-17T12:07:24.000Z</time>
      </trkpt>
      <trkpt lat="49.99406774528324604034423828125" lon="11.34413539431989192962646484375">
        <ele>514.5999755859375</ele>
        <time>2018-08-17T12:07:31.000Z</time>
      </trkpt>
      <trkpt lat="49.99419531784951686859130859375" lon="11.34418484754860401153564453125">
        <ele>514.5999755859375</ele>
        <time>2018-08-17T12:07:33.000Z</time>
      </trkpt>
      <trkpt lat="49.9947658739984035491943359375" lon="11.3441470451653003692626953125">
        <ele>514.5999755859375</ele>
        <time>2018-08-17T12:07:41.000Z</time>
      </trkpt>
      <trkpt lat="49.995343722403049468994140625" lon="11.34400648064911365509033203125">
        <ele>514</ele>
        <time>2018-08-17T12:07:49.000Z</time>
      </trkpt>
      <trkpt lat="49.99590933322906494140625" lon="11.34399524889886379241943359375">
        <ele>514</ele>
        <time>2018-08-17T12:07:57.000Z</time>
      </trkpt>
      <trkpt lat="49.99650184996426105499267578125" lon="11.3441309519112110137939453125">
        <ele>514.5999755859375</ele>
        <time>2018-08-17T12:08:05.000Z</time>
      </trkpt>
      <trkpt lat="49.9971238709986209869384765625" lon="11.344144530594348907470703125">
        <ele>514.79998779296875</ele>
        <time>2018-08-17T12:08:12.000Z</time>
      </trkpt>
      <trkpt lat="49.99770381487905979156494140625" lon="11.344023160636425018310546875">
        <ele>513.4000244140625</ele>
        <time>2018-08-17T12:08:18.000Z</time>
      </trkpt>
      <trkpt lat="49.99798745848238468170166015625" lon="11.343958787620067596435546875">
        <ele>512.4000244140625</ele>
        <time>2018-08-17T12:08:21.000Z</time>
      </trkpt>
      <trkpt lat="49.99826523475348949432373046875" lon="11.34390723891556262969970703125">
        <ele>511.399993896484375</ele>
        <time>2018-08-17T12:08:24.000Z</time>
      </trkpt>
      <trkpt lat="49.99879463575780391693115234375" lon="11.343925260007381439208984375">
        <ele>510.20001220703125</ele>
        <time>2018-08-17T12:08:30.000Z</time>
      </trkpt>
      <trkpt lat="49.9993625096976757049560546875" lon="11.34412340819835662841796875">
        <ele>509.79998779296875</ele>
        <time>2018-08-17T12:08:37.000Z</time>
      </trkpt>
      <trkpt lat="49.99990590848028659820556640625" lon="11.34445927105844020843505859375">
        <ele>510</ele>
        <time>2018-08-17T12:08:44.000Z</time>
      </trkpt>
      <trkpt lat="50.00041318126022815704345703125" lon="11.34486696682870388031005859375">
        <ele>510.20001220703125</ele>
        <time>2018-08-17T12:08:50.000Z</time>
      </trkpt>
      <trkpt lat="50.00067821703851222991943359375" lon="11.3451327569782733917236328125">
        <ele>510.20001220703125</ele>
        <time>2018-08-17T12:08:53.000Z</time>
      </trkpt>
      <trkpt lat="50.00116520561277866363525390625" lon="11.34563885629177093505859375">
        <ele>509</ele>
        <time>2018-08-17T12:08:58.000Z</time>
      </trkpt>
      <trkpt lat="50.00148572959005832672119140625" lon="11.34596482850611209869384765625">
        <ele>508</ele>
        <time>2018-08-17T12:09:01.000Z</time>
      </trkpt>
      <trkpt lat="50.001723356544971466064453125" lon="11.3461731187999248504638671875">
        <ele>506.79998779296875</ele>
        <time>2018-08-17T12:09:03.000Z</time>
      </trkpt>
      <trkpt lat="50.00197472982108592987060546875" lon="11.34632357396185398101806640625">
        <ele>505.600006103515625</ele>
        <time>2018-08-17T12:09:05.000Z</time>
      </trkpt>
      <trkpt lat="50.002235658466815948486328125" lon="11.3463893719017505645751953125">
        <ele>503.79998779296875</ele>
        <time>2018-08-17T12:09:07.000Z</time>
      </trkpt>
      <trkpt lat="50.00236700288951396942138671875" lon="11.346395574510097503662109375">
        <ele>502.79998779296875</ele>
        <time>2018-08-17T12:09:08.000Z</time>
      </trkpt>
      <trkpt lat="50.002499185502529144287109375" lon="11.346391551196575164794921875">
        <ele>501.79998779296875</ele>
        <time>2018-08-17T12:09:09.000Z</time>
      </trkpt>
      <trkpt lat="50.0026307813823223114013671875" lon="11.34638342075049877166748046875">
        <ele>500.600006103515625</ele>
        <time>2018-08-17T12:09:10.000Z</time>
      </trkpt>
      <trkpt lat="50.00276128761470317840576171875" lon="11.346374452114105224609375">
        <ele>499.600006103515625</ele>
        <time>2018-08-17T12:09:11.000Z</time>
      </trkpt>
      <trkpt lat="50.003026910126209259033203125" lon="11.3463524915277957916259765625">
        <ele>497.79998779296875</ele>
        <time>2018-08-17T12:09:13.000Z</time>
      </trkpt>
      <trkpt lat="50.00329102389514446258544921875" lon="11.346328519284725189208984375">
        <ele>495.79998779296875</ele>
        <time>2018-08-17T12:09:15.000Z</time>
      </trkpt>
      <trkpt lat="50.0035531260073184967041015625" lon="11.34630831889808177947998046875">
        <ele>494.399993896484375</ele>
        <time>2018-08-17T12:09:17.000Z</time>
      </trkpt>
      <trkpt lat="50.00368799082934856414794921875" lon="11.34629574604332447052001953125">
        <ele>493.20001220703125</ele>
        <time>2018-08-17T12:09:18.000Z</time>
      </trkpt>
      <trkpt lat="50.0039655156433582305908203125" lon="11.34627697058022022247314453125">
        <ele>492</ele>
        <time>2018-08-17T12:09:20.000Z</time>
      </trkpt>
      <trkpt lat="50.00424991361796855926513671875" lon="11.34625039994716644287109375">
        <ele>490.600006103515625</ele>
        <time>2018-08-17T12:09:22.000Z</time>
      </trkpt>
      <trkpt lat="50.00453154556453227996826171875" lon="11.34627110324800014495849609375">
        <ele>488.79998779296875</ele>
        <time>2018-08-17T12:09:24.000Z</time>
      </trkpt>
      <trkpt lat="50.0047835893929004669189453125" lon="11.34638794697821140289306640625">
        <ele>486.79998779296875</ele>
        <time>2018-08-17T12:09:26.000Z</time>
      </trkpt>
      <trkpt lat="50.004895739257335662841796875" lon="11.34646841324865818023681640625">
        <ele>485.79998779296875</ele>
        <time>2018-08-17T12:09:27.000Z</time>
      </trkpt>
      <trkpt lat="50.00499875284731388092041015625" lon="11.34655793197453022003173828125">
        <ele>484.600006103515625</ele>
        <time>2018-08-17T12:09:28.000Z</time>
      </trkpt>
      <trkpt lat="50.00509279780089855194091796875" lon="11.3466518931090831756591796875">
        <ele>483.600006103515625</ele>
        <time>2018-08-17T12:09:29.000Z</time>
      </trkpt>
      <trkpt lat="50.005309469997882843017578125" lon="11.3469546474516391754150390625">
        <ele>482.399993896484375</ele>
        <time>2018-08-17T12:09:32.000Z</time>
      </trkpt>
      <trkpt lat="50.00536168925464153289794921875" lon="11.34706252254545688629150390625">
        <ele>482.399993896484375</ele>
        <time>2018-08-17T12:09:33.000Z</time>
      </trkpt>
      <trkpt lat="50.00567751936614513397216796875" lon="11.3478052429854869842529296875">
        <ele>483</ele>
        <time>2018-08-17T12:09:41.000Z</time>
      </trkpt>
      <trkpt lat="50.00571054406464099884033203125" lon="11.3478820212185382843017578125">
        <ele>483.600006103515625</ele>
        <time>2018-08-17T12:09:42.000Z</time>
      </trkpt>
      <trkpt lat="50.00579704530537128448486328125" lon="11.348102129995822906494140625">
        <ele>485</ele>
        <time>2018-08-17T12:09:45.000Z</time>
      </trkpt>
      <trkpt lat="50.00586192123591899871826171875" lon="11.3483115099370479583740234375">
        <ele>486.20001220703125</ele>
        <time>2018-08-17T12:09:48.000Z</time>
      </trkpt>
      <trkpt lat="50.00595043413341045379638671875" lon="11.348589956760406494140625">
        <ele>487.399993896484375</ele>
        <time>2018-08-17T12:09:52.000Z</time>
      </trkpt>
      <trkpt lat="50.0060163997113704681396484375" lon="11.3487976603209972381591796875">
        <ele>488.600006103515625</ele>
        <time>2018-08-17T12:09:55.000Z</time>
      </trkpt>
      <trkpt lat="50.0060777552425861358642578125" lon="11.34899924509227275848388671875">
        <ele>490</ele>
        <time>2018-08-17T12:09:58.000Z</time>
      </trkpt>
      <trkpt lat="50.0061407871544361114501953125" lon="11.349205188453197479248046875">
        <ele>491</ele>
        <time>2018-08-17T12:10:01.000Z</time>
      </trkpt>
      <trkpt lat="50.0062192417681217193603515625" lon="11.34946393780410289764404296875">
        <ele>492.399993896484375</ele>
        <time>2018-08-17T12:10:05.000Z</time>
      </trkpt>
      <trkpt lat="50.00630230642855167388916015625" lon="11.349734924733638763427734375">
        <ele>493.600006103515625</ele>
        <time>2018-08-17T12:10:09.000Z</time>
      </trkpt>
      <trkpt lat="50.0063976086676120758056640625" lon="11.35002971626818180084228515625">
        <ele>495</ele>
        <time>2018-08-17T12:10:13.000Z</time>
      </trkpt>
      <trkpt lat="50.00648017041385173797607421875" lon="11.35030715726315975189208984375">
        <ele>496.20001220703125</ele>
        <time>2018-08-17T12:10:17.000Z</time>
      </trkpt>
      <trkpt lat="50.006585530936717987060546875" lon="11.3506698422133922576904296875">
        <ele>497.399993896484375</ele>
        <time>2018-08-17T12:10:22.000Z</time>
      </trkpt>
      <trkpt lat="50.00669055618345737457275390625" lon="11.35106504894793033599853515625">
        <ele>498.600006103515625</ele>
        <time>2018-08-17T12:10:27.000Z</time>
      </trkpt>
      <trkpt lat="50.00680270604789257049560546875" lon="11.35156477801501750946044921875">
        <ele>499.600006103515625</ele>
        <time>2018-08-17T12:10:33.000Z</time>
      </trkpt>
      <trkpt lat="50.00690731219947338104248046875" lon="11.3520930893719196319580078125">
        <ele>500.79998779296875</ele>
        <time>2018-08-17T12:10:39.000Z</time>
      </trkpt>
      <trkpt lat="50.007079727947711944580078125" lon="11.35291761718690395355224609375">
        <ele>501.399993896484375</ele>
        <time>2018-08-17T12:10:48.000Z</time>
      </trkpt>
      <trkpt lat="50.00719514675438404083251953125" lon="11.3534439168870449066162109375">
        <ele>501.79998779296875</ele>
        <time>2018-08-17T12:10:54.000Z</time>
      </trkpt>
      <trkpt lat="50.00736094079911708831787109375" lon="11.3540256209671497344970703125">
        <ele>502.79998779296875</ele>
        <time>2018-08-17T12:11:01.000Z</time>
      </trkpt>
      <trkpt lat="50.00750578008592128753662109375" lon="11.3544510863721370697021484375">
        <ele>504</ele>
        <time>2018-08-17T12:11:06.000Z</time>
      </trkpt>
      <trkpt lat="50.007874667644500732421875" lon="11.35519514791667461395263671875">
        <ele>504.600006103515625</ele>
        <time>2018-08-17T12:11:14.000Z</time>
      </trkpt>
      <trkpt lat="50.0082372687757015228271484375" lon="11.35590073652565479278564453125">
        <ele>504.20001220703125</ele>
        <time>2018-08-17T12:11:20.000Z</time>
      </trkpt>
      <trkpt lat="50.00846399925649166107177734375" lon="11.3565090112388134002685546875">
        <ele>502.79998779296875</ele>
        <time>2018-08-17T12:11:24.000Z</time>
      </trkpt>
      <trkpt lat="50.0086342357099056243896484375" lon="11.357010416686534881591796875">
        <ele>501.600006103515625</ele>
        <time>2018-08-17T12:11:27.000Z</time>
      </trkpt>
      <trkpt lat="50.008755438029766082763671875" lon="11.357380561530590057373046875">
        <ele>500.399993896484375</ele>
        <time>2018-08-17T12:11:29.000Z</time>
      </trkpt>
      <trkpt lat="50.008882172405719757080078125" lon="11.3577609322965145111083984375">
        <ele>499</ele>
        <time>2018-08-17T12:11:31.000Z</time>
      </trkpt>
      <trkpt lat="50.009008236229419708251953125" lon="11.35813317261636257171630859375">
        <ele>497.20001220703125</ele>
        <time>2018-08-17T12:11:33.000Z</time>
      </trkpt>
      <trkpt lat="50.009139664471149444580078125" lon="11.35850952006876468658447265625">
        <ele>495.20001220703125</ele>
        <time>2018-08-17T12:11:35.000Z</time>
      </trkpt>
      <trkpt lat="50.00920772552490234375" lon="11.35870297439396381378173828125">
        <ele>494.20001220703125</ele>
        <time>2018-08-17T12:11:36.000Z</time>
      </trkpt>
      <trkpt lat="50.00927721150219440460205078125" lon="11.3589008711278438568115234375">
        <ele>492.79998779296875</ele>
        <time>2018-08-17T12:11:37.000Z</time>
      </trkpt>
      <trkpt lat="50.0093470327556133270263671875" lon="11.359104216098785400390625">
        <ele>491.79998779296875</ele>
        <time>2018-08-17T12:11:38.000Z</time>
      </trkpt>
      <trkpt lat="50.00941685400903224945068359375" lon="11.35931267403066158294677734375">
        <ele>490.600006103515625</ele>
        <time>2018-08-17T12:11:39.000Z</time>
      </trkpt>
      <trkpt lat="50.00954275019466876983642578125" lon="11.3597477786242961883544921875">
        <ele>488.79998779296875</ele>
        <time>2018-08-17T12:11:41.000Z</time>
      </trkpt>
      <trkpt lat="50.009637214243412017822265625" lon="11.3601983897387981414794921875">
        <ele>487.20001220703125</ele>
        <time>2018-08-17T12:11:43.000Z</time>
      </trkpt>
      <trkpt lat="50.0097155012190341949462890625" lon="11.360670290887355804443359375">
        <ele>483.600006103515625</ele>
        <time>2018-08-17T12:11:45.000Z</time>
      </trkpt>
      <trkpt lat="50.00974726863205432891845703125" lon="11.36090691201388835906982421875">
        <ele>482.600006103515625</ele>
        <time>2018-08-17T12:11:46.000Z</time>
      </trkpt>
      <trkpt lat="50.00978213734924793243408203125" lon="11.36113934218883514404296875">
        <ele>481.399993896484375</ele>
        <time>2018-08-17T12:11:47.000Z</time>
      </trkpt>
      <trkpt lat="50.0098170898854732513427734375" lon="11.3613691739737987518310546875">
        <ele>480.20001220703125</ele>
        <time>2018-08-17T12:11:48.000Z</time>
      </trkpt>
      <trkpt lat="50.009852461516857147216796875" lon="11.361601017415523529052734375">
        <ele>479</ele>
        <time>2018-08-17T12:11:49.000Z</time>
      </trkpt>
      <trkpt lat="50.00989294610917568206787109375" lon="11.36183696798980236053466796875">
        <ele>477.79998779296875</ele>
        <time>2018-08-17T12:11:50.000Z</time>
      </trkpt>
      <trkpt lat="50.00993602909147739410400390625" lon="11.36207518167793750762939453125">
        <ele>476.600006103515625</ele>
        <time>2018-08-17T12:11:51.000Z</time>
      </trkpt>
      <trkpt lat="50.00998028554022312164306640625" lon="11.3623149879276752471923828125">
        <ele>475.600006103515625</ele>
        <time>2018-08-17T12:11:52.000Z</time>
      </trkpt>
      <trkpt lat="50.01002906821668148040771484375" lon="11.36255647055804729461669921875">
        <ele>474.20001220703125</ele>
        <time>2018-08-17T12:11:53.000Z</time>
      </trkpt>
      <trkpt lat="50.010079443454742431640625" lon="11.36279988102614879608154296875">
        <ele>472.79998779296875</ele>
        <time>2018-08-17T12:11:54.000Z</time>
      </trkpt>
      <trkpt lat="50.01013166271150112152099609375" lon="11.3630442135035991668701171875">
        <ele>471.399993896484375</ele>
        <time>2018-08-17T12:11:55.000Z</time>
      </trkpt>
      <trkpt lat="50.01018446870148181915283203125" lon="11.3632903061807155609130859375">
        <ele>470</ele>
        <time>2018-08-17T12:11:56.000Z</time>
      </trkpt>
      <trkpt lat="50.01023777760565280914306640625" lon="11.36353732086718082427978515625">
        <ele>468.399993896484375</ele>
        <time>2018-08-17T12:11:57.000Z</time>
      </trkpt>
      <trkpt lat="50.01029360108077526092529296875" lon="11.36378534138202667236328125">
        <ele>467.20001220703125</ele>
        <time>2018-08-17T12:11:58.000Z</time>
      </trkpt>
      <trkpt lat="50.0103495083749294281005859375" lon="11.36403210461139678955078125">
        <ele>465.79998779296875</ele>
        <time>2018-08-17T12:11:59.000Z</time>
      </trkpt>
      <trkpt lat="50.01040742732584476470947265625" lon="11.36427752673625946044921875">
        <ele>464.20001220703125</ele>
        <time>2018-08-17T12:12:00.000Z</time>
      </trkpt>
      <trkpt lat="50.0104681961238384246826171875" lon="11.36452269740402698516845703125">
        <ele>462.600006103515625</ele>
        <time>2018-08-17T12:12:01.000Z</time>
      </trkpt>
      <trkpt lat="50.0105313956737518310546875" lon="11.36476895771920680999755859375">
        <ele>461.20001220703125</ele>
        <time>2018-08-17T12:12:02.000Z</time>
      </trkpt>
      <trkpt lat="50.01059107482433319091796875" lon="11.3650129549205303192138671875">
        <ele>459.79998779296875</ele>
        <time>2018-08-17T12:12:03.000Z</time>
      </trkpt>
      <trkpt lat="50.01065117307007312774658203125" lon="11.36525653302669525146484375">
        <ele>458.600006103515625</ele>
        <time>2018-08-17T12:12:04.000Z</time>
      </trkpt>
      <trkpt lat="50.01071152277290821075439453125" lon="11.3655017875134944915771484375">
        <ele>457.20001220703125</ele>
        <time>2018-08-17T12:12:05.000Z</time>
      </trkpt>
      <trkpt lat="50.01077078282833099365234375" lon="11.36574695818126201629638671875">
        <ele>456</ele>
        <time>2018-08-17T12:12:06.000Z</time>
      </trkpt>
      <trkpt lat="50.01083071343600749969482421875" lon="11.365993134677410125732421875">
        <ele>454.600006103515625</ele>
        <time>2018-08-17T12:12:07.000Z</time>
      </trkpt>
      <trkpt lat="50.0108913145959377288818359375" lon="11.36623512022197246551513671875">
        <ele>453</ele>
        <time>2018-08-17T12:12:08.000Z</time>
      </trkpt>
      <trkpt lat="50.01095627434551715850830078125" lon="11.36646361090242862701416015625">
        <ele>451.600006103515625</ele>
        <time>2018-08-17T12:12:09.000Z</time>
      </trkpt>
      <trkpt lat="50.01102550886571407318115234375" lon="11.36667919345200061798095703125">
        <ele>450.20001220703125</ele>
        <time>2018-08-17T12:12:10.000Z</time>
      </trkpt>
      <trkpt lat="50.01110027544200420379638671875" lon="11.3668864779174327850341796875">
        <ele>449</ele>
        <time>2018-08-17T12:12:11.000Z</time>
      </trkpt>
      <trkpt lat="50.01117638312280178070068359375" lon="11.36709116399288177490234375">
        <ele>447.79998779296875</ele>
        <time>2018-08-17T12:12:12.000Z</time>
      </trkpt>
      <trkpt lat="50.0112510658800601959228515625" lon="11.36729526333510875701904296875">
        <ele>446.399993896484375</ele>
        <time>2018-08-17T12:12:13.000Z</time>
      </trkpt>
      <trkpt lat="50.0113265030086040496826171875" lon="11.36750196106731891632080078125">
        <ele>443.79998779296875</ele>
        <time>2018-08-17T12:12:14.000Z</time>
      </trkpt>
      <trkpt lat="50.01140168868005275726318359375" lon="11.36771402321755886077880859375">
        <ele>442.399993896484375</ele>
        <time>2018-08-17T12:12:15.000Z</time>
      </trkpt>
      <trkpt lat="50.0114710070192813873291015625" lon="11.36793069541454315185546875">
        <ele>441.20001220703125</ele>
        <time>2018-08-17T12:12:16.000Z</time>
      </trkpt>
      <trkpt lat="50.01153714023530483245849609375" lon="11.3681544922292232513427734375">
        <ele>440</ele>
        <time>2018-08-17T12:12:17.000Z</time>
      </trkpt>
      <trkpt lat="50.01159732230007648468017578125" lon="11.3683858327567577362060546875">
        <ele>438.600006103515625</ele>
        <time>2018-08-17T12:12:18.000Z</time>
      </trkpt>
      <trkpt lat="50.011656247079372406005859375" lon="11.36861943639814853668212890625">
        <ele>437.20001220703125</ele>
        <time>2018-08-17T12:12:19.000Z</time>
      </trkpt>
      <trkpt lat="50.011716596782207489013671875" lon="11.36884943582117557525634765625">
        <ele>435.79998779296875</ele>
        <time>2018-08-17T12:12:20.000Z</time>
      </trkpt>
      <trkpt lat="50.0117761082947254180908203125" lon="11.36907658539712429046630859375">
        <ele>434.399993896484375</ele>
        <time>2018-08-17T12:12:21.000Z</time>
      </trkpt>
      <trkpt lat="50.01182899810373783111572265625" lon="11.3693028129637241363525390625">
        <ele>432.79998779296875</ele>
        <time>2018-08-17T12:12:22.000Z</time>
      </trkpt>
      <trkpt lat="50.01187560148537158966064453125" lon="11.3695230893790721893310546875">
        <ele>431.600006103515625</ele>
        <time>2018-08-17T12:12:23.000Z</time>
      </trkpt>
      <trkpt lat="50.01191784627735614776611328125" lon="11.3697437010705471038818359375">
        <ele>430.20001220703125</ele>
        <time>2018-08-17T12:12:24.000Z</time>
      </trkpt>
      <trkpt lat="50.01194952987134456634521484375" lon="11.3699653185904026031494140625">
        <ele>429</ele>
        <time>2018-08-17T12:12:25.000Z</time>
      </trkpt>
      <trkpt lat="50.011963360011577606201171875" lon="11.37019624002277851104736328125">
        <ele>427.600006103515625</ele>
        <time>2018-08-17T12:12:26.000Z</time>
      </trkpt>
      <trkpt lat="50.01196310855448246002197265625" lon="11.37043462134897708892822265625">
        <ele>426.20001220703125</ele>
        <time>2018-08-17T12:12:27.000Z</time>
      </trkpt>
      <trkpt lat="50.0119548104703426361083984375" lon="11.370675265789031982421875">
        <ele>425</ele>
        <time>2018-08-17T12:12:28.000Z</time>
      </trkpt>
      <trkpt lat="50.01194466836750507354736328125" lon="11.370919011533260345458984375">
        <ele>423.79998779296875</ele>
        <time>2018-08-17T12:12:29.000Z</time>
      </trkpt>
      <trkpt lat="50.01193561591207981109619140625" lon="11.37116367928683757781982421875">
        <ele>422.399993896484375</ele>
        <time>2018-08-17T12:12:30.000Z</time>
      </trkpt>
      <trkpt lat="50.0119286589324474334716796875" lon="11.37140926904976367950439453125">
        <ele>421</ele>
        <time>2018-08-17T12:12:31.000Z</time>
      </trkpt>
      <trkpt lat="50.01192279160022735595703125" lon="11.3716460578143596649169921875">
        <ele>419.600006103515625</ele>
        <time>2018-08-17T12:12:32.000Z</time>
      </trkpt>
      <trkpt lat="50.01192069612443447113037109375" lon="11.37186708860099315643310546875">
        <ele>418.20001220703125</ele>
        <time>2018-08-17T12:12:33.000Z</time>
      </trkpt>
      <trkpt lat="50.01192019321024417877197265625" lon="11.37207596562802791595458984375">
        <ele>417</ele>
        <time>2018-08-17T12:12:34.000Z</time>
      </trkpt>
      <trkpt lat="50.01192069612443447113037109375" lon="11.3722780533134937286376953125">
        <ele>415.600006103515625</ele>
        <time>2018-08-17T12:12:35.000Z</time>
      </trkpt>
      <trkpt lat="50.01192170195281505584716796875" lon="11.37248014099895954132080078125">
        <ele>414</ele>
        <time>2018-08-17T12:12:36.000Z</time>
      </trkpt>
      <trkpt lat="50.01193008385598659515380859375" lon="11.37268264777958393096923828125">
        <ele>412.600006103515625</ele>
        <time>2018-08-17T12:12:37.000Z</time>
      </trkpt>
      <trkpt lat="50.01195724122226238250732421875" lon="11.3728845678269863128662109375">
        <ele>411</ele>
        <time>2018-08-17T12:12:38.000Z</time>
      </trkpt>
      <trkpt lat="50.0120024196803569793701171875" lon="11.37307609431445598602294921875">
        <ele>409.79998779296875</ele>
        <time>2018-08-17T12:12:39.000Z</time>
      </trkpt>
      <trkpt lat="50.0120567344129085540771484375" lon="11.373256556689739227294921875">
        <ele>408.399993896484375</ele>
        <time>2018-08-17T12:12:40.000Z</time>
      </trkpt>
      <trkpt lat="50.01211347989737987518310546875" lon="11.37343131937086582183837890625">
        <ele>407</ele>
        <time>2018-08-17T12:12:41.000Z</time>
      </trkpt>
      <trkpt lat="50.0121730752289295196533203125" lon="11.3736037351191043853759765625">
        <ele>405.600006103515625</ele>
        <time>2018-08-17T12:12:42.000Z</time>
      </trkpt>
      <trkpt lat="50.01223300583660602569580078125" lon="11.37377380393445491790771484375">
        <ele>402.79998779296875</ele>
        <time>2018-08-17T12:12:43.000Z</time>
      </trkpt>
      <trkpt lat="50.01228983514010906219482421875" lon="11.3739408552646636962890625">
        <ele>401.399993896484375</ele>
        <time>2018-08-17T12:12:44.000Z</time>
      </trkpt>
      <trkpt lat="50.01234582625329494476318359375" lon="11.3741071522235870361328125">
        <ele>400</ele>
        <time>2018-08-17T12:12:45.000Z</time>
      </trkpt>
      <trkpt lat="50.01245629973709583282470703125" lon="11.37444452382624149322509765625">
        <ele>398.399993896484375</ele>
        <time>2018-08-17T12:12:47.000Z</time>
      </trkpt>
      <trkpt lat="50.012569539248943328857421875" lon="11.37478382326662540435791015625">
        <ele>397.20001220703125</ele>
        <time>2018-08-17T12:12:49.000Z</time>
      </trkpt>
      <trkpt lat="50.01271806657314300537109375" lon="11.3752834685146808624267578125">
        <ele>396</ele>
        <time>2018-08-17T12:12:52.000Z</time>
      </trkpt>
      <trkpt lat="50.01287388615310192108154296875" lon="11.37576316483318805694580078125">
        <ele>394.399993896484375</ele>
        <time>2018-08-17T12:12:55.000Z</time>
      </trkpt>
      <trkpt lat="50.01299324445426464080810546875" lon="11.37602400965988636016845703125">
        <ele>393.20001220703125</ele>
        <time>2018-08-17T12:12:57.000Z</time>
      </trkpt>
      <trkpt lat="50.01309734769165515899658203125" lon="11.3762564398348331451416015625">
        <ele>391.399993896484375</ele>
        <time>2018-08-17T12:12:59.000Z</time>
      </trkpt>
      <trkpt lat="50.013196170330047607421875" lon="11.37646540068089962005615234375">
        <ele>390.399993896484375</ele>
        <time>2018-08-17T12:13:01.000Z</time>
      </trkpt>
      <trkpt lat="50.0135456956923007965087890625" lon="11.37722614221274852752685546875">
        <ele>390.399993896484375</ele>
        <time>2018-08-17T12:13:10.000Z</time>
      </trkpt>
      <trkpt lat="50.01367301680147647857666015625" lon="11.377554126083850860595703125">
        <ele>391.600006103515625</ele>
        <time>2018-08-17T12:13:13.000Z</time>
      </trkpt>
      <trkpt lat="50.01396051608026027679443359375" lon="11.37830757535994052886962890625">
        <ele>391.79998779296875</ele>
        <time>2018-08-17T12:13:19.000Z</time>
      </trkpt>
      <trkpt lat="50.01424684189260005950927734375" lon="11.37904576957225799560546875">
        <ele>391.20001220703125</ele>
        <time>2018-08-17T12:13:24.000Z</time>
      </trkpt>
      <trkpt lat="50.0143776834011077880859375" lon="11.3793436624109745025634765625">
        <ele>390.399993896484375</ele>
        <time>2018-08-17T12:13:26.000Z</time>
      </trkpt>
      <trkpt lat="50.01445756293833255767822265625" lon="11.37948003597557544708251953125">
        <ele>389.79998779296875</ele>
        <time>2018-08-17T12:13:27.000Z</time>
      </trkpt>
      <trkpt lat="50.01454222016036510467529296875" lon="11.3796045072376728057861328125">
        <ele>389.399993896484375</ele>
        <time>2018-08-17T12:13:28.000Z</time>
      </trkpt>
      <trkpt lat="50.014717318117618560791015625" lon="11.3798378594219684600830078125">
        <ele>388</ele>
        <time>2018-08-17T12:13:30.000Z</time>
      </trkpt>
      <trkpt lat="50.01489006914198398590087890625" lon="11.38006174005568027496337890625">
        <ele>386.79998779296875</ele>
        <time>2018-08-17T12:13:32.000Z</time>
      </trkpt>
      <trkpt lat="50.0150460563600063323974609375" lon="11.38028587214648723602294921875">
        <ele>385.79998779296875</ele>
        <time>2018-08-17T12:13:34.000Z</time>
      </trkpt>
      <trkpt lat="50.0151794962584972381591796875" lon="11.38051025569438934326171875">
        <ele>384.79998779296875</ele>
        <time>2018-08-17T12:13:36.000Z</time>
      </trkpt>
      <trkpt lat="50.01529457978904247283935546875" lon="11.3807353936135768890380859375">
        <ele>383.600006103515625</ele>
        <time>2018-08-17T12:13:38.000Z</time>
      </trkpt>
      <trkpt lat="50.0154514051973819732666015625" lon="11.3810701668262481689453125">
        <ele>382.79998779296875</ele>
        <time>2018-08-17T12:13:41.000Z</time>
      </trkpt>
      <trkpt lat="50.0158081389963626861572265625" lon="11.3817901723086833953857421875">
        <ele>382.600006103515625</ele>
        <time>2018-08-17T12:13:48.000Z</time>
      </trkpt>
      <trkpt lat="50.01622530631721019744873046875" lon="11.3825130276381969451904296875">
        <ele>382.600006103515625</ele>
        <time>2018-08-17T12:13:55.000Z</time>
      </trkpt>
      <trkpt lat="50.0165816210210323333740234375" lon="11.38315902091562747955322265625">
        <ele>382.399993896484375</ele>
        <time>2018-08-17T12:14:01.000Z</time>
      </trkpt>
      <trkpt lat="50.01682276837527751922607421875" lon="11.38358716852962970733642578125">
        <ele>381.600006103515625</ele>
        <time>2018-08-17T12:14:05.000Z</time>
      </trkpt>
      <trkpt lat="50.0170483253896236419677734375" lon="11.3839852251112461090087890625">
        <ele>380.399993896484375</ele>
        <time>2018-08-17T12:14:09.000Z</time>
      </trkpt>
      <trkpt lat="50.01719995401799678802490234375" lon="11.38417926616966724395751953125">
        <ele>380.20001220703125</ele>
        <time>2018-08-17T12:14:12.000Z</time>
      </trkpt>
      <trkpt lat="50.017726756632328033447265625" lon="11.38458964414894580841064453125">
        <ele>380.79998779296875</ele>
        <time>2018-08-17T12:14:21.000Z</time>
      </trkpt>
      <trkpt lat="50.01794929616153240203857421875" lon="11.3846718706190586090087890625">
        <ele>381.399993896484375</ele>
        <time>2018-08-17T12:14:24.000Z</time>
      </trkpt>
      <trkpt lat="50.01829027198255062103271484375" lon="11.38480874709784984588623046875">
        <ele>381.600006103515625</ele>
        <time>2018-08-17T12:14:28.000Z</time>
      </trkpt>
      <trkpt lat="50.0188249535858631134033203125" lon="11.3852834142744541168212890625">
        <ele>380.79998779296875</ele>
        <time>2018-08-17T12:14:34.000Z</time>
      </trkpt>
      <trkpt lat="50.01899988390505313873291015625" lon="11.38548064045608043670654296875">
        <ele>380.20001220703125</ele>
        <time>2018-08-17T12:14:36.000Z</time>
      </trkpt>
      <trkpt lat="50.01917556859552860260009765625" lon="11.3856817223131656646728515625">
        <ele>379</ele>
        <time>2018-08-17T12:14:38.000Z</time>
      </trkpt>
      <trkpt lat="50.019261650741100311279296875" lon="11.38578641228377819061279296875">
        <ele>377.600006103515625</ele>
        <time>2018-08-17T12:14:39.000Z</time>
      </trkpt>
      <trkpt lat="50.01943389885127544403076171875" lon="11.3859975524246692657470703125">
        <ele>376.399993896484375</ele>
        <time>2018-08-17T12:14:41.000Z</time>
      </trkpt>
      <trkpt lat="50.01959918998181819915771484375" lon="11.3862081058323383331298828125">
        <ele>375</ele>
        <time>2018-08-17T12:14:43.000Z</time>
      </trkpt>
      <trkpt lat="50.01975526101887226104736328125" lon="11.3864200003445148468017578125">
        <ele>373.79998779296875</ele>
        <time>2018-08-17T12:14:45.000Z</time>
      </trkpt>
      <trkpt lat="50.01990563236176967620849609375" lon="11.3866265304386615753173828125">
        <ele>372.600006103515625</ele>
        <time>2018-08-17T12:14:47.000Z</time>
      </trkpt>
      <trkpt lat="50.02009975723922252655029296875" lon="11.38694680295884609222412109375">
        <ele>371.20001220703125</ele>
        <time>2018-08-17T12:14:50.000Z</time>
      </trkpt>
      <trkpt lat="50.02019782550632953643798828125" lon="11.3871522434055805206298828125">
        <ele>370.600006103515625</ele>
        <time>2018-08-17T12:14:52.000Z</time>
      </trkpt>
      <trkpt lat="50.020266138017177581787109375" lon="11.387357600033283233642578125">
        <ele>370.20001220703125</ele>
        <time>2018-08-17T12:14:54.000Z</time>
      </trkpt>
      <trkpt lat="50.02029740251600742340087890625" lon="11.38754568994045257568359375">
        <ele>370.20001220703125</ele>
        <time>2018-08-17T12:14:56.000Z</time>
      </trkpt>
      <trkpt lat="50.020324476063251495361328125" lon="11.3876856677234172821044921875">
        <ele>370.20001220703125</ele>
        <time>2018-08-17T12:14:58.000Z</time>
      </trkpt>
      <trkpt lat="50.02061842940747737884521484375" lon="11.387826316058635711669921875">
        <ele>370</ele>
        <time>2018-08-17T12:15:05.000Z</time>
      </trkpt>
      <trkpt lat="50.0211609899997711181640625" lon="11.38785003684461116790771484375">
        <ele>371.20001220703125</ele>
        <time>2018-08-17T12:15:15.000Z</time>
      </trkpt>
      <trkpt lat="50.0212158076465129852294921875" lon="11.38785942457616329193115234375">
        <ele>371.20001220703125</ele>
        <time>2018-08-17T12:15:16.000Z</time>
      </trkpt>
      <trkpt lat="50.0214323960244655609130859375" lon="11.38790887780487537384033203125">
        <ele>372.399993896484375</ele>
        <time>2018-08-17T12:15:20.000Z</time>
      </trkpt>
      <trkpt lat="50.021728612482547760009765625" lon="11.387998647987842559814453125">
        <ele>373.600006103515625</ele>
        <time>2018-08-17T12:15:25.000Z</time>
      </trkpt>
      <trkpt lat="50.02204234711825847625732421875" lon="11.3881211914122104644775390625">
        <ele>374.600006103515625</ele>
        <time>2018-08-17T12:15:30.000Z</time>
      </trkpt>
      <trkpt lat="50.0225773639976978302001953125" lon="11.3884078525006771087646484375">
        <ele>375.600006103515625</ele>
        <time>2018-08-17T12:15:38.000Z</time>
      </trkpt>
      <trkpt lat="50.02307902090251445770263671875" lon="11.3888071663677692413330078125">
        <ele>375.600006103515625</ele>
        <time>2018-08-17T12:15:45.000Z</time>
      </trkpt>
      <trkpt lat="50.02358637750148773193359375" lon="11.3892333023250102996826171875">
        <ele>374.600006103515625</ele>
        <time>2018-08-17T12:15:51.000Z</time>
      </trkpt>
      <trkpt lat="50.0239526666700839996337890625" lon="11.3895615376532077789306640625">
        <ele>373.399993896484375</ele>
        <time>2018-08-17T12:15:55.000Z</time>
      </trkpt>
      <trkpt lat="50.02404637634754180908203125" lon="11.3896423391997814178466796875">
        <ele>373.20001220703125</ele>
        <time>2018-08-17T12:15:56.000Z</time>
      </trkpt>
      <trkpt lat="50.024318955838680267333984375" lon="11.389874853193759918212890625">
        <ele>372</ele>
        <time>2018-08-17T12:15:59.000Z</time>
      </trkpt>
      <trkpt lat="50.0244941376149654388427734375" lon="11.3900208659470081329345703125">
        <ele>370.79998779296875</ele>
        <time>2018-08-17T12:16:01.000Z</time>
      </trkpt>
      <trkpt lat="50.02467342652380466461181640625" lon="11.3901331834495067596435546875">
        <ele>369.79998779296875</ele>
        <time>2018-08-17T12:16:03.000Z</time>
      </trkpt>
      <trkpt lat="50.0249521248042583465576171875" lon="11.39014835469424724578857421875">
        <ele>368.399993896484375</ele>
        <time>2018-08-17T12:16:06.000Z</time>
      </trkpt>
      <trkpt lat="50.025040805339813232421875" lon="11.39014265500009059906005859375">
        <ele>368</ele>
        <time>2018-08-17T12:16:07.000Z</time>
      </trkpt>
      <trkpt lat="50.025200732052326202392578125" lon="11.39018707908689975738525390625">
        <ele>367.399993896484375</ele>
        <time>2018-08-17T12:16:09.000Z</time>
      </trkpt>
      <trkpt lat="50.0253262929618358612060546875" lon="11.3905901648104190826416015625">
        <ele>367.20001220703125</ele>
        <time>2018-08-17T12:16:13.000Z</time>
      </trkpt>
      <trkpt lat="50.025447495281696319580078125" lon="11.39149415306746959686279296875">
        <ele>367</ele>
        <time>2018-08-17T12:16:21.000Z</time>
      </trkpt>
      <trkpt lat="50.025507844984531402587890625" lon="11.39239185489714145660400390625">
        <ele>367.79998779296875</ele>
        <time>2018-08-17T12:16:30.000Z</time>
      </trkpt>
      <trkpt lat="50.025531314313411712646484375" lon="11.392742805182933807373046875">
        <ele>368.20001220703125</ele>
        <time>2018-08-17T12:16:34.000Z</time>
      </trkpt>
      <trkpt lat="50.02574957907199859619140625" lon="11.39297054149210453033447265625">
        <ele>368.20001220703125</ele>
        <time>2018-08-17T12:16:39.000Z</time>
      </trkpt>
      <trkpt lat="50.026264227926731109619140625" lon="11.3932546041905879974365234375">
        <ele>368.20001220703125</ele>
        <time>2018-08-17T12:16:49.000Z</time>
      </trkpt>
      <trkpt lat="50.026822797954082489013671875" lon="11.39351100660860538482666015625">
        <ele>368.20001220703125</ele>
        <time>2018-08-17T12:16:57.000Z</time>
      </trkpt>
      <trkpt lat="50.027379691600799560546875" lon="11.39376296661794185638427734375">
        <ele>368</ele>
        <time>2018-08-17T12:17:04.000Z</time>
      </trkpt>
      <trkpt lat="50.02787380479276180267333984375" lon="11.3941162638366222381591796875">
        <ele>367.20001220703125</ele>
        <time>2018-08-17T12:17:10.000Z</time>
      </trkpt>
      <trkpt lat="50.02804219722747802734375" lon="11.39429035596549510955810546875">
        <ele>366.600006103515625</ele>
        <time>2018-08-17T12:17:12.000Z</time>
      </trkpt>
      <trkpt lat="50.02849825657904148101806640625" lon="11.39471414498984813690185546875">
        <ele>365.600006103515625</ele>
        <time>2018-08-17T12:17:17.000Z</time>
      </trkpt>
      <trkpt lat="50.028780139982700347900390625" lon="11.39490860514342784881591796875">
        <ele>364</ele>
        <time>2018-08-17T12:17:20.000Z</time>
      </trkpt>
      <trkpt lat="50.029075182974338531494140625" lon="11.39509350992739200592041015625">
        <ele>362.399993896484375</ele>
        <time>2018-08-17T12:17:23.000Z</time>
      </trkpt>
      <trkpt lat="50.02926805056631565093994140625" lon="11.39530004002153873443603515625">
        <ele>360.79998779296875</ele>
        <time>2018-08-17T12:17:25.000Z</time>
      </trkpt>
      <trkpt lat="50.02958111464977264404296875" lon="11.3958550058305263519287109375">
        <ele>359.600006103515625</ele>
        <time>2018-08-17T12:17:29.000Z</time>
      </trkpt>
      <trkpt lat="50.0297207571566104888916015625" lon="11.3961386494338512420654296875">
        <ele>358</ele>
        <time>2018-08-17T12:17:31.000Z</time>
      </trkpt>
      <trkpt lat="50.02987925894558429718017578125" lon="11.39636253006756305694580078125">
        <ele>356.399993896484375</ele>
        <time>2018-08-17T12:17:33.000Z</time>
      </trkpt>
      <trkpt lat="50.02995670773088932037353515625" lon="11.39646495692431926727294921875">
        <ele>355.399993896484375</ele>
        <time>2018-08-17T12:17:34.000Z</time>
      </trkpt>
      <trkpt lat="50.03011076711118221282958984375" lon="11.39666478149592876434326171875">
        <ele>353.399993896484375</ele>
        <time>2018-08-17T12:17:36.000Z</time>
      </trkpt>
      <trkpt lat="50.03026717342436313629150390625" lon="11.39685186557471752166748046875">
        <ele>351.600006103515625</ele>
        <time>2018-08-17T12:17:38.000Z</time>
      </trkpt>
      <trkpt lat="50.03072465769946575164794921875" lon="11.39733952470123767852783203125">
        <ele>350.600006103515625</ele>
        <time>2018-08-17T12:17:44.000Z</time>
      </trkpt>
      <trkpt lat="50.03117711283266544342041015625" lon="11.397844366729259490966796875">
        <ele>350.600006103515625</ele>
        <time>2018-08-17T12:17:51.000Z</time>
      </trkpt>
      <trkpt lat="50.03149981610476970672607421875" lon="11.39837821014225482940673828125">
        <ele>351.79998779296875</ele>
        <time>2018-08-17T12:17:58.000Z</time>
      </trkpt>
      <trkpt lat="50.0320341624319553375244140625" lon="11.39872354455292224884033203125">
        <ele>352.399993896484375</ele>
        <time>2018-08-17T12:18:07.000Z</time>
      </trkpt>
      <trkpt lat="50.03252861090004444122314453125" lon="11.3988317549228668212890625">
        <ele>352.79998779296875</ele>
        <time>2018-08-17T12:18:15.000Z</time>
      </trkpt>
      <trkpt lat="50.032941587269306182861328125" lon="11.3988131470978260040283203125">
        <ele>353.79998779296875</ele>
        <time>2018-08-17T12:18:22.000Z</time>
      </trkpt>
      <trkpt lat="50.03316320478916168212890625" lon="11.39876863919198513031005859375">
        <ele>355</ele>
        <time>2018-08-17T12:18:26.000Z</time>
      </trkpt>
      <trkpt lat="50.03343838267028331756591796875" lon="11.39864508993923664093017578125">
        <ele>356.20001220703125</ele>
        <time>2018-08-17T12:18:31.000Z</time>
      </trkpt>
      <trkpt lat="50.03378572873771190643310546875" lon="11.39845213852822780609130859375">
        <ele>357.20001220703125</ele>
        <time>2018-08-17T12:18:37.000Z</time>
      </trkpt>
      <trkpt lat="50.03384792245924472808837890625" lon="11.39844023622572422027587890625">
        <ele>357.600006103515625</ele>
        <time>2018-08-17T12:18:38.000Z</time>
      </trkpt>
      <trkpt lat="50.034410767257213592529296875" lon="11.39851458370685577392578125">
        <ele>358.600006103515625</ele>
        <time>2018-08-17T12:18:47.000Z</time>
      </trkpt>
      <trkpt lat="50.03447891212999820709228515625" lon="11.3985258154571056365966796875">
        <ele>358.600006103515625</ele>
        <time>2018-08-17T12:18:48.000Z</time>
      </trkpt>
      <trkpt lat="50.0351005978882312774658203125" lon="11.398494802415370941162109375">
        <ele>358.79998779296875</ele>
        <time>2018-08-17T12:18:56.000Z</time>
      </trkpt>
      <trkpt lat="50.0357181765139102935791015625" lon="11.398313753306865692138671875">
        <ele>358.20001220703125</ele>
        <time>2018-08-17T12:19:03.000Z</time>
      </trkpt>
      <trkpt lat="50.035910122096538543701171875" lon="11.3982857577502727508544921875">
        <ele>357.600006103515625</ele>
        <time>2018-08-17T12:19:05.000Z</time>
      </trkpt>
      <trkpt lat="50.03642217256128787994384765625" lon="11.39837116934359073638916015625">
        <ele>356.600006103515625</ele>
        <time>2018-08-17T12:19:10.000Z</time>
      </trkpt>
      <trkpt lat="50.03673456609249114990234375" lon="11.3984238915145397186279296875">
        <ele>355.399993896484375</ele>
        <time>2018-08-17T12:19:13.000Z</time>
      </trkpt>
      <trkpt lat="50.03704897128045558929443359375" lon="11.3983967341482639312744140625">
        <ele>354.399993896484375</ele>
        <time>2018-08-17T12:19:16.000Z</time>
      </trkpt>
      <trkpt lat="50.03736044280230998992919921875" lon="11.39827092178165912628173828125">
        <ele>353.20001220703125</ele>
        <time>2018-08-17T12:19:19.000Z</time>
      </trkpt>
      <trkpt lat="50.03778557293117046356201171875" lon="11.3980319537222385406494140625">
        <ele>351.399993896484375</ele>
        <time>2018-08-17T12:19:23.000Z</time>
      </trkpt>
      <trkpt lat="50.038112215697765350341796875" lon="11.39783958904445171356201171875">
        <ele>350.399993896484375</ele>
        <time>2018-08-17T12:19:26.000Z</time>
      </trkpt>
      <trkpt lat="50.0383336655795574188232421875" lon="11.39771486632525920867919921875">
        <ele>349.399993896484375</ele>
        <time>2018-08-17T12:19:28.000Z</time>
      </trkpt>
      <trkpt lat="50.0385572947561740875244140625" lon="11.3976001180708408355712890625">
        <ele>348.20001220703125</ele>
        <time>2018-08-17T12:19:30.000Z</time>
      </trkpt>
      <trkpt lat="50.03889919258654117584228515625" lon="11.3974532671272754669189453125">
        <ele>347</ele>
        <time>2018-08-17T12:19:33.000Z</time>
      </trkpt>
      <trkpt lat="50.0392355583608150482177734375" lon="11.397263668477535247802734375">
        <ele>345.600006103515625</ele>
        <time>2018-08-17T12:19:36.000Z</time>
      </trkpt>
      <trkpt lat="50.0396342016756534576416015625" lon="11.396880783140659332275390625">
        <ele>344.20001220703125</ele>
        <time>2018-08-17T12:19:40.000Z</time>
      </trkpt>
      <trkpt lat="50.0399741716682910919189453125" lon="11.39644400216639041900634765625">
        <ele>343</ele>
        <time>2018-08-17T12:19:44.000Z</time>
      </trkpt>
      <trkpt lat="50.04029310308396816253662109375" lon="11.396054327487945556640625">
        <ele>342</ele>
        <time>2018-08-17T12:19:48.000Z</time>
      </trkpt>
      <trkpt lat="50.0407355837523937225341796875" lon="11.39551880769431591033935546875">
        <ele>341.600006103515625</ele>
        <time>2018-08-17T12:19:55.000Z</time>
      </trkpt>
      <trkpt lat="50.04114788956940174102783203125" lon="11.395185291767120361328125">
        <ele>343.20001220703125</ele>
        <time>2018-08-17T12:20:03.000Z</time>
      </trkpt>
      <trkpt lat="50.041269846260547637939453125" lon="11.3951244391500949859619140625">
        <ele>344.399993896484375</ele>
        <time>2018-08-17T12:20:05.000Z</time>
      </trkpt>
      <trkpt lat="50.04141426645219326019287109375" lon="11.3950766623020172119140625">
        <ele>345.399993896484375</ele>
        <time>2018-08-17T12:20:07.000Z</time>
      </trkpt>
      <trkpt lat="50.04202949814498424530029296875" lon="11.39499929733574390411376953125">
        <ele>346</ele>
        <time>2018-08-17T12:20:14.000Z</time>
      </trkpt>
      <trkpt lat="50.04245848394930362701416015625" lon="11.3950329087674617767333984375">
        <ele>345.600006103515625</ele>
        <time>2018-08-17T12:20:18.000Z</time>
      </trkpt>
      <trkpt lat="50.0428692810237407684326171875" lon="11.3952880539000034332275390625">
        <ele>343.399993896484375</ele>
        <time>2018-08-17T12:20:22.000Z</time>
      </trkpt>
      <trkpt lat="50.04306701011955738067626953125" lon="11.39544202946126461029052734375">
        <ele>342</ele>
        <time>2018-08-17T12:20:24.000Z</time>
      </trkpt>
      <trkpt lat="50.043261386454105377197265625" lon="11.395583935081958770751953125">
        <ele>341</ele>
        <time>2018-08-17T12:20:26.000Z</time>
      </trkpt>
      <trkpt lat="50.04345525987446308135986328125" lon="11.39570723287761211395263671875">
        <ele>340</ele>
        <time>2018-08-17T12:20:28.000Z</time>
      </trkpt>
      <trkpt lat="50.04364821128547191619873046875" lon="11.39579239301383495330810546875">
        <ele>338.399993896484375</ele>
        <time>2018-08-17T12:20:30.000Z</time>
      </trkpt>
      <trkpt lat="50.043839402496814727783203125" lon="11.3958100788295269012451171875">
        <ele>337.20001220703125</ele>
        <time>2018-08-17T12:20:32.000Z</time>
      </trkpt>
      <trkpt lat="50.0441168434917926788330078125" lon="11.39571561478078365325927734375">
        <ele>336.20001220703125</ele>
        <time>2018-08-17T12:20:35.000Z</time>
      </trkpt>
      <trkpt lat="50.044204182922840118408203125" lon="11.3956654071807861328125">
        <ele>336.20001220703125</ele>
        <time>2018-08-17T12:20:36.000Z</time>
      </trkpt>
      <trkpt lat="50.04478295333683490753173828125" lon="11.39533474110066890716552734375">
        <ele>335.600006103515625</ele>
        <time>2018-08-17T12:20:43.000Z</time>
      </trkpt>
      <trkpt lat="50.04528871737420558929443359375" lon="11.3950543664395809173583984375">
        <ele>335.20001220703125</ele>
        <time>2018-08-17T12:20:50.000Z</time>
      </trkpt>
      <trkpt lat="50.04546658135950565338134765625" lon="11.39496912248432636260986328125">
        <ele>335</ele>
        <time>2018-08-17T12:20:53.000Z</time>
      </trkpt>
      <trkpt lat="50.045639835298061370849609375" lon="11.39466955326497554779052734375">
        <ele>335</ele>
        <time>2018-08-17T12:20:57.000Z</time>
      </trkpt>
      <trkpt lat="50.04571191966533660888671875" lon="11.394497640430927276611328125">
        <ele>335</ele>
        <time>2018-08-17T12:20:59.000Z</time>
      </trkpt>
      <trkpt lat="50.04592121578752994537353515625" lon="11.39403018169105052947998046875">
        <ele>335.20001220703125</ele>
        <time>2018-08-17T12:21:06.000Z</time>
      </trkpt>
      <trkpt lat="50.0459742732346057891845703125" lon="11.39363589696586132049560546875">
        <ele>336.600006103515625</ele>
        <time>2018-08-17T12:21:12.000Z</time>
      </trkpt>
      <trkpt lat="50.0459793023765087127685546875" lon="11.39355811290442943572998046875">
        <ele>337</ele>
        <time>2018-08-17T12:21:13.000Z</time>
      </trkpt>
      <trkpt lat="50.04598282277584075927734375" lon="11.39339064247906208038330078125">
        <ele>338</ele>
        <time>2018-08-17T12:21:15.000Z</time>
      </trkpt>
      <trkpt lat="50.04598148167133331298828125" lon="11.393198110163211822509765625">
        <ele>338.79998779296875</ele>
        <time>2018-08-17T12:21:17.000Z</time>
      </trkpt>
      <trkpt lat="50.0459786318242549896240234375" lon="11.39309878461062908172607421875">
        <ele>339.399993896484375</ele>
        <time>2018-08-17T12:21:18.000Z</time>
      </trkpt>
      <trkpt lat="50.04598072730004787445068359375" lon="11.39299929141998291015625">
        <ele>339.600006103515625</ele>
        <time>2018-08-17T12:21:19.000Z</time>
      </trkpt>
      <trkpt lat="50.04604627378284931182861328125" lon="11.392504759132862091064453125">
        <ele>340</ele>
        <time>2018-08-17T12:21:24.000Z</time>
      </trkpt>
      <trkpt lat="50.046091116964817047119140625" lon="11.39231625013053417205810546875">
        <ele>340</ele>
        <time>2018-08-17T12:21:26.000Z</time>
      </trkpt>
      <trkpt lat="50.04640535451471805572509765625" lon="11.3922491110861301422119140625">
        <ele>340.20001220703125</ele>
        <time>2018-08-17T12:21:32.000Z</time>
      </trkpt>
      <trkpt lat="50.0467028282582759857177734375" lon="11.3925015740096569061279296875">
        <ele>340.399993896484375</ele>
        <time>2018-08-17T12:21:39.000Z</time>
      </trkpt>
      <trkpt lat="50.04673006944358348846435546875" lon="11.39255194924771785736083984375">
        <ele>340.399993896484375</ele>
        <time>2018-08-17T12:21:40.000Z</time>
      </trkpt>
      <trkpt lat="50.04685261286795139312744140625" lon="11.39274674467742443084716796875">
        <ele>341.399993896484375</ele>
        <time>2018-08-17T12:21:44.000Z</time>
      </trkpt>
      <trkpt lat="50.046881698071956634521484375" lon="11.39278915710747241973876953125">
        <ele>342.20001220703125</ele>
        <time>2018-08-17T12:21:45.000Z</time>
      </trkpt>
      <trkpt lat="50.0469549559056758880615234375" lon="11.39292192645370960235595703125">
        <ele>343.399993896484375</ele>
        <time>2018-08-17T12:21:48.000Z</time>
      </trkpt>
      <trkpt lat="50.04706651903688907623291015625" lon="11.39304329641163349151611328125">
        <ele>344.20001220703125</ele>
        <time>2018-08-17T12:21:51.000Z</time>
      </trkpt>
      <trkpt lat="50.04711546935141086578369140625" lon="11.393054611980915069580078125">
        <ele>344.600006103515625</ele>
        <time>2018-08-17T12:21:52.000Z</time>
      </trkpt>
      <trkpt lat="50.04728092812001705169677734375" lon="11.39290767721831798553466796875">
        <ele>345.79998779296875</ele>
        <time>2018-08-17T12:21:56.000Z</time>
      </trkpt>
      <trkpt lat="50.04731512628495693206787109375" lon="11.39284950681030750274658203125">
        <ele>346.20001220703125</ele>
        <time>2018-08-17T12:21:57.000Z</time>
      </trkpt>
      <trkpt lat="50.047424174845218658447265625" lon="11.3926112093031406402587890625">
        <ele>347</ele>
        <time>2018-08-17T12:22:01.000Z</time>
      </trkpt>
      <trkpt lat="50.04763632081449031829833984375" lon="11.3921740092337131500244140625">
        <ele>348</ele>
        <time>2018-08-17T12:22:08.000Z</time>
      </trkpt>
      <trkpt lat="50.04766800440847873687744140625" lon="11.39211952686309814453125">
        <ele>348</ele>
        <time>2018-08-17T12:22:09.000Z</time>
      </trkpt>
      <trkpt lat="50.04786648787558078765869140625" lon="11.39191743917763233184814453125">
        <ele>348.79998779296875</ele>
        <time>2018-08-17T12:22:14.000Z</time>
      </trkpt>
      <trkpt lat="50.0479664839804172515869140625" lon="11.3918682374060153961181640625">
        <ele>349.20001220703125</ele>
        <time>2018-08-17T12:22:16.000Z</time>
      </trkpt>
      <trkpt lat="50.048157759010791778564453125" lon="11.39182674698531627655029296875">
        <ele>350</ele>
        <time>2018-08-17T12:22:19.000Z</time>
      </trkpt>
      <trkpt lat="50.04830888472497463226318359375" lon="11.3918072171509265899658203125">
        <ele>350.20001220703125</ele>
        <time>2018-08-17T12:22:21.000Z</time>
      </trkpt>
      <trkpt lat="50.0488579832017421722412109375" lon="11.39156238175928592681884765625">
        <ele>350.20001220703125</ele>
        <time>2018-08-17T12:22:27.000Z</time>
      </trkpt>
      <trkpt lat="50.04935645498335361480712890625" lon="11.39132332988083362579345703125">
        <ele>348.79998779296875</ele>
        <time>2018-08-17T12:22:32.000Z</time>
      </trkpt>
      <trkpt lat="50.04955611191689968109130859375" lon="11.39126046560704708099365234375">
        <ele>348</ele>
        <time>2018-08-17T12:22:34.000Z</time>
      </trkpt>
      <trkpt lat="50.049755685031414031982421875" lon="11.3911970146000385284423828125">
        <ele>346.79998779296875</ele>
        <time>2018-08-17T12:22:36.000Z</time>
      </trkpt>
      <trkpt lat="50.0499506480991840362548828125" lon="11.39113306067883968353271484375">
        <ele>345.79998779296875</ele>
        <time>2018-08-17T12:22:38.000Z</time>
      </trkpt>
      <trkpt lat="50.05049874074757099151611328125" lon="11.3909435458481311798095703125">
        <ele>345.20001220703125</ele>
        <time>2018-08-17T12:22:44.000Z</time>
      </trkpt>
      <trkpt lat="50.05107005126774311065673828125" lon="11.3906253688037395477294921875">
        <ele>345.20001220703125</ele>
        <time>2018-08-17T12:22:51.000Z</time>
      </trkpt>
      <trkpt lat="50.05157011561095714569091796875" lon="11.39018489979207515716552734375">
        <ele>345.20001220703125</ele>
        <time>2018-08-17T12:22:58.000Z</time>
      </trkpt>
      <trkpt lat="50.05209557712078094482421875" lon="11.389713920652866363525390625">
        <ele>345.79998779296875</ele>
        <time>2018-08-17T12:23:06.000Z</time>
      </trkpt>
      <trkpt lat="50.05253822542726993560791015625" lon="11.389324329793453216552734375">
        <ele>346.79998779296875</ele>
        <time>2018-08-17T12:23:13.000Z</time>
      </trkpt>
      <trkpt lat="50.053037703037261962890625" lon="11.38888008892536163330078125">
        <ele>347.600006103515625</ele>
        <time>2018-08-17T12:23:21.000Z</time>
      </trkpt>
      <trkpt lat="50.05321866832673549652099609375" lon="11.38871538452804088592529296875">
        <ele>348</ele>
        <time>2018-08-17T12:23:24.000Z</time>
      </trkpt>
      <trkpt lat="50.053644888103008270263671875" lon="11.38832830823957920074462890625">
        <ele>349</ele>
        <time>2018-08-17T12:23:31.000Z</time>
      </trkpt>
      <trkpt lat="50.053828619420528411865234375" lon="11.3881718181073665618896484375">
        <ele>349.399993896484375</ele>
        <time>2018-08-17T12:23:34.000Z</time>
      </trkpt>
      <trkpt lat="50.054022409021854400634765625" lon="11.3880772702395915985107421875">
        <ele>349.600006103515625</ele>
        <time>2018-08-17T12:23:37.000Z</time>
      </trkpt>
      <trkpt lat="50.05460235290229320526123046875" lon="11.3882137276232242584228515625">
        <ele>350.20001220703125</ele>
        <time>2018-08-17T12:23:46.000Z</time>
      </trkpt>
      <trkpt lat="50.05466722883284091949462890625" lon="11.3882274739444255828857421875">
        <ele>350.399993896484375</ele>
        <time>2018-08-17T12:23:47.000Z</time>
      </trkpt>
      <trkpt lat="50.05492622964084148406982421875" lon="11.3882422260940074920654296875">
        <ele>351</ele>
        <time>2018-08-17T12:23:51.000Z</time>
      </trkpt>
      <trkpt lat="50.0552587397396564483642578125" lon="11.3880967162549495697021484375">
        <ele>351.600006103515625</ele>
        <time>2018-08-17T12:23:57.000Z</time>
      </trkpt>
      <trkpt lat="50.05549133755266666412353515625" lon="11.38789949007332324981689453125">
        <ele>352.600006103515625</ele>
        <time>2018-08-17T12:24:02.000Z</time>
      </trkpt>
      <trkpt lat="50.0557686947286128997802734375" lon="11.3876323588192462921142578125">
        <ele>353.79998779296875</ele>
        <time>2018-08-17T12:24:09.000Z</time>
      </trkpt>
      <trkpt lat="50.0559116899967193603515625" lon="11.38748894445598125457763671875">
        <ele>355.20001220703125</ele>
        <time>2018-08-17T12:24:13.000Z</time>
      </trkpt>
      <trkpt lat="50.05600431002676486968994140625" lon="11.38738584704697132110595703125">
        <ele>356.20001220703125</ele>
        <time>2018-08-17T12:24:16.000Z</time>
      </trkpt>
      <trkpt lat="50.05612601526081562042236328125" lon="11.3872514851391315460205078125">
        <ele>357.399993896484375</ele>
        <time>2018-08-17T12:24:20.000Z</time>
      </trkpt>
      <trkpt lat="50.05621687509119510650634765625" lon="11.3871582783758640289306640625">
        <ele>358.399993896484375</ele>
        <time>2018-08-17T12:24:23.000Z</time>
      </trkpt>
      <trkpt lat="50.05631092004477977752685546875" lon="11.38706012628972530364990234375">
        <ele>359.600006103515625</ele>
        <time>2018-08-17T12:24:26.000Z</time>
      </trkpt>
      <trkpt lat="50.056374371051788330078125" lon="11.386992149055004119873046875">
        <ele>360.79998779296875</ele>
        <time>2018-08-17T12:24:28.000Z</time>
      </trkpt>
      <trkpt lat="50.056499429047107696533203125" lon="11.3868575356900691986083984375">
        <ele>362</ele>
        <time>2018-08-17T12:24:32.000Z</time>
      </trkpt>
      <trkpt lat="50.05662054754793643951416015625" lon="11.38671982102096080780029296875">
        <ele>363.20001220703125</ele>
        <time>2018-08-17T12:24:36.000Z</time>
      </trkpt>
      <trkpt lat="50.05673789419233798980712890625" lon="11.38659861870110034942626953125">
        <ele>364.20001220703125</ele>
        <time>2018-08-17T12:24:40.000Z</time>
      </trkpt>
      <trkpt lat="50.0568221323192119598388671875" lon="11.38650557957589626312255859375">
        <ele>365.399993896484375</ele>
        <time>2018-08-17T12:24:44.000Z</time>
      </trkpt>
      <trkpt lat="50.05684032104909420013427734375" lon="11.3864815235137939453125">
        <ele>366</ele>
        <time>2018-08-17T12:24:46.000Z</time>
      </trkpt>
      <trkpt lat="50.05684384144842624664306640625" lon="11.386456377804279327392578125">
        <ele>366.399993896484375</ele>
        <time>2018-08-17T12:24:47.000Z</time>
      </trkpt>
      <trkpt lat="50.05684467963874340057373046875" lon="11.38637063093483448028564453125">
        <ele>366.79998779296875</ele>
        <time>2018-08-17T12:24:49.000Z</time>
      </trkpt>
      <trkpt lat="50.05686244927346706390380859375" lon="11.38620936311781406402587890625">
        <ele>367.399993896484375</ele>
        <time>2018-08-17T12:24:52.000Z</time>
      </trkpt>
      <trkpt lat="50.05696118809282779693603515625" lon="11.38611163012683391571044921875">
        <ele>367.600006103515625</ele>
        <time>2018-08-17T12:24:56.000Z</time>
      </trkpt>
      <trkpt lat="50.0572429038584232330322265625" lon="11.38596846722066402435302734375">
        <ele>368.399993896484375</ele>
        <time>2018-08-17T12:25:07.000Z</time>
      </trkpt>
      <trkpt lat="50.05757306702435016632080078125" lon="11.3857598416507244110107421875">
        <ele>369.600006103515625</ele>
        <time>2018-08-17T12:25:18.000Z</time>
      </trkpt>
      <trkpt lat="50.05773567594587802886962890625" lon="11.385648362338542938232421875">
        <ele>370.600006103515625</ele>
        <time>2018-08-17T12:25:26.000Z</time>
      </trkpt>
      <trkpt lat="50.05787414498627185821533203125" lon="11.38557686470448970794677734375">
        <ele>371.600006103515625</ele>
        <time>2018-08-17T12:25:32.000Z</time>
      </trkpt>
      <trkpt lat="50.058396421372890472412109375" lon="11.385321132838726043701171875">
        <ele>371.20001220703125</ele>
        <time>2018-08-17T12:25:49.000Z</time>
      </trkpt>
      <trkpt lat="50.05847730673849582672119140625" lon="11.3852817378938198089599609375">
        <ele>370.20001220703125</ele>
        <time>2018-08-17T12:25:51.000Z</time>
      </trkpt>
      <trkpt lat="50.05864620208740234375" lon="11.38519196771085262298583984375">
        <ele>369</ele>
        <time>2018-08-17T12:25:55.000Z</time>
      </trkpt>
      <trkpt lat="50.05876782350242137908935546875" lon="11.38513547368347644805908203125">
        <ele>367.600006103515625</ele>
        <time>2018-08-17T12:25:58.000Z</time>
      </trkpt>
      <trkpt lat="50.0588508881628513336181640625" lon="11.38509624637663364410400390625">
        <ele>366.399993896484375</ele>
        <time>2018-08-17T12:26:00.000Z</time>
      </trkpt>
      <trkpt lat="50.05889271385967731475830078125" lon="11.38507445342838764190673828125">
        <ele>365.20001220703125</ele>
        <time>2018-08-17T12:26:02.000Z</time>
      </trkpt>
      <trkpt lat="50.05902732722461223602294921875" lon="11.38501695357263088226318359375">
        <ele>364</ele>
        <time>2018-08-17T12:26:04.000Z</time>
      </trkpt>
      <trkpt lat="50.05911516956984996795654296875" lon="11.384972445666790008544921875">
        <ele>362.600006103515625</ele>
        <time>2018-08-17T12:26:06.000Z</time>
      </trkpt>
      <trkpt lat="50.05918943323194980621337890625" lon="11.384934894740581512451171875">
        <ele>361.399993896484375</ele>
        <time>2018-08-17T12:26:08.000Z</time>
      </trkpt>
      <trkpt lat="50.05925699137151241302490234375" lon="11.38489223085343837738037109375">
        <ele>360.20001220703125</ele>
        <time>2018-08-17T12:26:10.000Z</time>
      </trkpt>
      <trkpt lat="50.0593234598636627197265625" lon="11.3848401792347431182861328125">
        <ele>359</ele>
        <time>2018-08-17T12:26:12.000Z</time>
      </trkpt>
      <trkpt lat="50.05938758142292499542236328125" lon="11.3847831822931766510009765625">
        <ele>357.600006103515625</ele>
        <time>2018-08-17T12:26:14.000Z</time>
      </trkpt>
      <trkpt lat="50.059442818164825439453125" lon="11.3847261853516101837158203125">
        <ele>356.399993896484375</ele>
        <time>2018-08-17T12:26:16.000Z</time>
      </trkpt>
      <trkpt lat="50.05953091196715831756591796875" lon="11.3846524246037006378173828125">
        <ele>354.600006103515625</ele>
        <time>2018-08-17T12:26:19.000Z</time>
      </trkpt>
      <trkpt lat="50.0596250407397747039794921875" lon="11.3845545239746570587158203125">
        <ele>353.399993896484375</ele>
        <time>2018-08-17T12:26:22.000Z</time>
      </trkpt>
      <trkpt lat="50.05966099910438060760498046875" lon="11.38452040962874889373779296875">
        <ele>353</ele>
        <time>2018-08-17T12:26:23.000Z</time>
      </trkpt>
      <trkpt lat="50.05982846952974796295166015625" lon="11.38438998721539974212646484375">
        <ele>351.399993896484375</ele>
        <time>2018-08-17T12:26:27.000Z</time>
      </trkpt>
      <trkpt lat="50.05997012369334697723388671875" lon="11.3843218423426151275634765625">
        <ele>350</ele>
        <time>2018-08-17T12:26:30.000Z</time>
      </trkpt>
      <trkpt lat="50.0601309724152088165283203125" lon="11.38428286649286746978759765625">
        <ele>348.79998779296875</ele>
        <time>2018-08-17T12:26:34.000Z</time>
      </trkpt>
      <trkpt lat="50.06019962020218372344970703125" lon="11.38427364639937877655029296875">
        <ele>347.79998779296875</ele>
        <time>2018-08-17T12:26:36.000Z</time>
      </trkpt>
      <trkpt lat="50.06030875258147716522216796875" lon="11.38429426588118076324462890625">
        <ele>346.600006103515625</ele>
        <time>2018-08-17T12:26:39.000Z</time>
      </trkpt>
      <trkpt lat="50.06043213419616222381591796875" lon="11.3843476586043834686279296875">
        <ele>345.20001220703125</ele>
        <time>2018-08-17T12:26:42.000Z</time>
      </trkpt>
      <trkpt lat="50.06047345697879791259765625" lon="11.38435226865112781524658203125">
        <ele>344</ele>
        <time>2018-08-17T12:26:43.000Z</time>
      </trkpt>
      <trkpt lat="50.060598850250244140625" lon="11.38434338383376598358154296875">
        <ele>343</ele>
        <time>2018-08-17T12:26:46.000Z</time>
      </trkpt>
      <trkpt lat="50.06079708226025104522705078125" lon="11.3842812739312648773193359375">
        <ele>342.20001220703125</ele>
        <time>2018-08-17T12:26:50.000Z</time>
      </trkpt>
      <trkpt lat="50.0611679814755916595458984375" lon="11.3840502686798572540283203125">
        <ele>342.399993896484375</ele>
        <time>2018-08-17T12:27:02.000Z</time>
      </trkpt>
      <trkpt lat="50.061235539615154266357421875" lon="11.38408404774963855743408203125">
        <ele>343.79998779296875</ele>
        <time>2018-08-17T12:27:06.000Z</time>
      </trkpt>
      <trkpt lat="50.06125666201114654541015625" lon="11.384092010557651519775390625">
        <ele>344</ele>
        <time>2018-08-17T12:27:07.000Z</time>
      </trkpt>
      <trkpt lat="50.0612732581794261932373046875" lon="11.384102739393711090087890625">
        <ele>344.20001220703125</ele>
        <time>2018-08-17T12:27:08.000Z</time>
      </trkpt>
      <trkpt lat="50.06181724369525909423828125" lon="11.38436785899102687835693359375">
        <ele>344.399993896484375</ele>
        <time>2018-08-17T12:27:27.000Z</time>
      </trkpt>
      <trkpt lat="50.06213081069290637969970703125" lon="11.3843949325382709503173828125">
        <ele>343.79998779296875</ele>
        <time>2018-08-17T12:27:33.000Z</time>
      </trkpt>
      <trkpt lat="50.06261008791625499725341796875" lon="11.38437590561807155609130859375">
        <ele>343</ele>
        <time>2018-08-17T12:27:41.000Z</time>
      </trkpt>
      <trkpt lat="50.0626710243523120880126953125" lon="11.3843567110598087310791015625">
        <ele>342.79998779296875</ele>
        <time>2018-08-17T12:27:42.000Z</time>
      </trkpt>
      <trkpt lat="50.06326018832623958587646484375" lon="11.3841770030558109283447265625">
        <ele>342</ele>
        <time>2018-08-17T12:27:50.000Z</time>
      </trkpt>
      <trkpt lat="50.06333964876830577850341796875" lon="11.38414858840405941009521484375">
        <ele>342</ele>
        <time>2018-08-17T12:27:51.000Z</time>
      </trkpt>
      <trkpt lat="50.06366369314491748809814453125" lon="11.3840435631573200225830078125">
        <ele>341.399993896484375</ele>
        <time>2018-08-17T12:27:55.000Z</time>
      </trkpt>
      <trkpt lat="50.0639802776277065277099609375" lon="11.38401011936366558074951171875">
        <ele>340.79998779296875</ele>
        <time>2018-08-17T12:27:59.000Z</time>
      </trkpt>
      <trkpt lat="50.06448931060731410980224609375" lon="11.38408505357801914215087890625">
        <ele>340.20001220703125</ele>
        <time>2018-08-17T12:28:05.000Z</time>
      </trkpt>
      <trkpt lat="50.06473439745604991912841796875" lon="11.38419150374829769134521484375">
        <ele>339.79998779296875</ele>
        <time>2018-08-17T12:28:08.000Z</time>
      </trkpt>
      <trkpt lat="50.06523027084767818450927734375" lon="11.38452577404677867889404296875">
        <ele>339</ele>
        <time>2018-08-17T12:28:14.000Z</time>
      </trkpt>
      <trkpt lat="50.0653790496289730072021484375" lon="11.3846576213836669921875">
        <ele>338.79998779296875</ele>
        <time>2018-08-17T12:28:16.000Z</time>
      </trkpt>
      <trkpt lat="50.06592915393412113189697265625" lon="11.38513362966477870941162109375">
        <ele>337.600006103515625</ele>
        <time>2018-08-17T12:28:23.000Z</time>
      </trkpt>
      <trkpt lat="50.0663481652736663818359375" lon="11.38565129600465297698974609375">
        <ele>336.600006103515625</ele>
        <time>2018-08-17T12:28:29.000Z</time>
      </trkpt>
      <trkpt lat="50.06662242114543914794921875" lon="11.38615588657557964324951171875">
        <ele>335.600006103515625</ele>
        <time>2018-08-17T12:28:34.000Z</time>
      </trkpt>
      <trkpt lat="50.06686625070869922637939453125" lon="11.38686600141227245330810546875">
        <ele>334.399993896484375</ele>
        <time>2018-08-17T12:28:40.000Z</time>
      </trkpt>
      <trkpt lat="50.067057944834232330322265625" lon="11.38764350675046443939208984375">
        <ele>333.399993896484375</ele>
        <time>2018-08-17T12:28:46.000Z</time>
      </trkpt>
      <trkpt lat="50.0672099925577640533447265625" lon="11.38817332684993743896484375">
        <ele>332.399993896484375</ele>
        <time>2018-08-17T12:28:50.000Z</time>
      </trkpt>
      <trkpt lat="50.067393220961093902587890625" lon="11.38869325630366802215576171875">
        <ele>331.20001220703125</ele>
        <time>2018-08-17T12:28:54.000Z</time>
      </trkpt>
      <trkpt lat="50.06771164946258068084716796875" lon="11.38941510580480098724365234375">
        <ele>330.399993896484375</ele>
        <time>2018-08-17T12:29:00.000Z</time>
      </trkpt>
      <trkpt lat="50.0679465942084789276123046875" lon="11.38984744437038898468017578125">
        <ele>329.20001220703125</ele>
        <time>2018-08-17T12:29:04.000Z</time>
      </trkpt>
      <trkpt lat="50.068268962204456329345703125" lon="11.39034231193363666534423828125">
        <ele>328.20001220703125</ele>
        <time>2018-08-17T12:29:09.000Z</time>
      </trkpt>
      <trkpt lat="50.06872334517538547515869140625" lon="11.39088747091591358184814453125">
        <ele>327.20001220703125</ele>
        <time>2018-08-17T12:29:15.000Z</time>
      </trkpt>
      <trkpt lat="50.06880263797938823699951171875" lon="11.39097363688051700592041015625">
        <ele>327</ele>
        <time>2018-08-17T12:29:16.000Z</time>
      </trkpt>
      <trkpt lat="50.06923019886016845703125" lon="11.39135400764644145965576171875">
        <ele>326</ele>
        <time>2018-08-17T12:29:21.000Z</time>
      </trkpt>
      <trkpt lat="50.06977267563343048095703125" lon="11.39171476475894451141357421875">
        <ele>324.79998779296875</ele>
        <time>2018-08-17T12:29:27.000Z</time>
      </trkpt>
      <trkpt lat="50.070321522653102874755859375" lon="11.3919614441692829132080078125">
        <ele>323.600006103515625</ele>
        <time>2018-08-17T12:29:33.000Z</time>
      </trkpt>
      <trkpt lat="50.0707766599953174591064453125" lon="11.39212128706276416778564453125">
        <ele>322.600006103515625</ele>
        <time>2018-08-17T12:29:38.000Z</time>
      </trkpt>
      <trkpt lat="50.071387700736522674560546875" lon="11.3923148252069950103759765625">
        <ele>321.399993896484375</ele>
        <time>2018-08-17T12:29:45.000Z</time>
      </trkpt>
      <trkpt lat="50.07193612866103649139404296875" lon="11.39246293343603610992431640625">
        <ele>320.20001220703125</ele>
        <time>2018-08-17T12:29:51.000Z</time>
      </trkpt>
      <trkpt lat="50.07246485911309719085693359375" lon="11.39267968945205211639404296875">
        <ele>319</ele>
        <time>2018-08-17T12:29:57.000Z</time>
      </trkpt>
      <trkpt lat="50.07286400534212589263916015625" lon="11.39299535192549228668212890625">
        <ele>317.79998779296875</ele>
        <time>2018-08-17T12:30:02.000Z</time>
      </trkpt>
      <trkpt lat="50.07323968224227428436279296875" lon="11.39344990253448486328125">
        <ele>316.79998779296875</ele>
        <time>2018-08-17T12:30:08.000Z</time>
      </trkpt>
      <trkpt lat="50.07336172275245189666748046875" lon="11.39366649091243743896484375">
        <ele>316.600006103515625</ele>
        <time>2018-08-17T12:30:09.000Z</time>
      </trkpt>
      <trkpt lat="50.073537491261959075927734375" lon="11.3940217159688472747802734375">
        <ele>315.600006103515625</ele>
        <time>2018-08-17T12:30:12.000Z</time>
      </trkpt>
      <trkpt lat="50.0738414190709590911865234375" lon="11.39477550052106380462646484375">
        <ele>315</ele>
        <time>2018-08-17T12:30:18.000Z</time>
      </trkpt>
      <trkpt lat="50.07399774156510829925537109375" lon="11.3951378501951694488525390625">
        <ele>314.600006103515625</ele>
        <time>2018-08-17T12:30:21.000Z</time>
      </trkpt>
      <trkpt lat="50.0744026713073253631591796875" lon="11.39582701027393341064453125">
        <ele>313.79998779296875</ele>
        <time>2018-08-17T12:30:27.000Z</time>
      </trkpt>
      <trkpt lat="50.07447668351233005523681640625" lon="11.39593622647225856781005859375">
        <ele>313.399993896484375</ele>
        <time>2018-08-17T12:30:28.000Z</time>
      </trkpt>
      <trkpt lat="50.0749310664832592010498046875" lon="11.39658875763416290283203125">
        <ele>312.20001220703125</ele>
        <time>2018-08-17T12:30:34.000Z</time>
      </trkpt>
      <trkpt lat="50.07523390464484691619873046875" lon="11.39700374566018581390380859375">
        <ele>311.20001220703125</ele>
        <time>2018-08-17T12:30:38.000Z</time>
      </trkpt>
      <trkpt lat="50.075710080564022064208984375" lon="11.3974767364561557769775390625">
        <ele>310.399993896484375</ele>
        <time>2018-08-17T12:30:44.000Z</time>
      </trkpt>
      <trkpt lat="50.07600990124046802520751953125" lon="11.39768888242542743682861328125">
        <ele>310.399993896484375</ele>
        <time>2018-08-17T12:30:48.000Z</time>
      </trkpt>
      <trkpt lat="50.076305866241455078125" lon="11.397843696177005767822265625">
        <ele>310.20001220703125</ele>
        <time>2018-08-17T12:30:52.000Z</time>
      </trkpt>
      <trkpt lat="50.07685211487114429473876953125" lon="11.39803539030253887176513671875">
        <ele>309.600006103515625</ele>
        <time>2018-08-17T12:30:59.000Z</time>
      </trkpt>
      <trkpt lat="50.0770084373652935028076171875" lon="11.39807947911322116851806640625">
        <ele>309.20001220703125</ele>
        <time>2018-08-17T12:31:01.000Z</time>
      </trkpt>
      <trkpt lat="50.07760799489915370941162109375" lon="11.39834350906312465667724609375">
        <ele>308.399993896484375</ele>
        <time>2018-08-17T12:31:09.000Z</time>
      </trkpt>
      <trkpt lat="50.07812599651515483856201171875" lon="11.398795880377292633056640625">
        <ele>308.20001220703125</ele>
        <time>2018-08-17T12:31:18.000Z</time>
      </trkpt>
      <trkpt lat="50.07818902842700481414794921875" lon="11.39884826727211475372314453125">
        <ele>308.20001220703125</ele>
        <time>2018-08-17T12:31:19.000Z</time>
      </trkpt>
      <trkpt lat="50.0783649645745754241943359375" lon="11.39898933470249176025390625">
        <ele>308</ele>
        <time>2018-08-17T12:31:21.000Z</time>
      </trkpt>
      <trkpt lat="50.07869613356888294219970703125" lon="11.39916501939296722412109375">
        <ele>307.79998779296875</ele>
        <time>2018-08-17T12:31:27.000Z</time>
      </trkpt>
      <trkpt lat="50.0792923383414745330810546875" lon="11.39919661916792392730712890625">
        <ele>307.600006103515625</ele>
        <time>2018-08-17T12:31:35.000Z</time>
      </trkpt>
      <trkpt lat="50.07936920039355754852294921875" lon="11.39918119646608829498291015625">
        <ele>307.600006103515625</ele>
        <time>2018-08-17T12:31:36.000Z</time>
      </trkpt>
      <trkpt lat="50.079956017434597015380859375" lon="11.39898422174155712127685546875">
        <ele>307.20001220703125</ele>
        <time>2018-08-17T12:31:44.000Z</time>
      </trkpt>
      <trkpt lat="50.0800245814025402069091796875" lon="11.39896511100232601165771484375">
        <ele>307.20001220703125</ele>
        <time>2018-08-17T12:31:45.000Z</time>
      </trkpt>
      <trkpt lat="50.0806143321096897125244140625" lon="11.39893560670316219329833984375">
        <ele>306.600006103515625</ele>
        <time>2018-08-17T12:31:53.000Z</time>
      </trkpt>
      <trkpt lat="50.081197209656238555908203125" lon="11.39914616011083126068115234375">
        <ele>306.20001220703125</ele>
        <time>2018-08-17T12:32:01.000Z</time>
      </trkpt>
      <trkpt lat="50.08145662955939769744873046875" lon="11.39935319311916828155517578125">
        <ele>306.20001220703125</ele>
        <time>2018-08-17T12:32:05.000Z</time>
      </trkpt>
      <trkpt lat="50.08170858956873416900634765625" lon="11.39962040819227695465087890625">
        <ele>305.79998779296875</ele>
        <time>2018-08-17T12:32:09.000Z</time>
      </trkpt>
      <trkpt lat="50.08214578963816165924072265625" lon="11.400142349302768707275390625">
        <ele>305.600006103515625</ele>
        <time>2018-08-17T12:32:18.000Z</time>
      </trkpt>
      <trkpt lat="50.08227135054767131805419921875" lon="11.4003239013254642486572265625">
        <ele>305.20001220703125</ele>
        <time>2018-08-17T12:32:21.000Z</time>
      </trkpt>
      <trkpt lat="50.08277929387986660003662109375" lon="11.40095028094947338104248046875">
        <ele>304.399993896484375</ele>
        <time>2018-08-17T12:32:29.000Z</time>
      </trkpt>
      <trkpt lat="50.08311457000672817230224609375" lon="11.4013900794088840484619140625">
        <ele>304</ele>
        <time>2018-08-17T12:32:36.000Z</time>
      </trkpt>
      <trkpt lat="50.0835862196981906890869140625" lon="11.4019805006682872772216796875">
        <ele>303.600006103515625</ele>
        <time>2018-08-17T12:32:43.000Z</time>
      </trkpt>
      <trkpt lat="50.084053091704845428466796875" lon="11.402575783431529998779296875">
        <ele>303.600006103515625</ele>
        <time>2018-08-17T12:32:51.000Z</time>
      </trkpt>
      <trkpt lat="50.084502696990966796875" lon="11.40315086580812931060791015625">
        <ele>303.600006103515625</ele>
        <time>2018-08-17T12:32:59.000Z</time>
      </trkpt>
      <trkpt lat="50.08493763394653797149658203125" lon="11.40373877249658107757568359375">
        <ele>303.600006103515625</ele>
        <time>2018-08-17T12:33:07.000Z</time>
      </trkpt>
      <trkpt lat="50.08527559228241443634033203125" lon="11.40447017736732959747314453125">
        <ele>303.79998779296875</ele>
        <time>2018-08-17T12:33:15.000Z</time>
      </trkpt>
      <trkpt lat="50.0853417254984378814697265625" lon="11.40467385761439800262451171875">
        <ele>303.79998779296875</ele>
        <time>2018-08-17T12:33:18.000Z</time>
      </trkpt>
      <trkpt lat="50.08549435995519161224365234375" lon="11.40532513149082660675048828125">
        <ele>304</ele>
        <time>2018-08-17T12:33:24.000Z</time>
      </trkpt>
      <trkpt lat="50.08558304049074649810791015625" lon="11.40619106590747833251953125">
        <ele>304.399993896484375</ele>
        <time>2018-08-17T12:33:32.000Z</time>
      </trkpt>
      <trkpt lat="50.08561707101762294769287109375" lon="11.4067578501999378204345703125">
        <ele>304.600006103515625</ele>
        <time>2018-08-17T12:33:36.000Z</time>
      </trkpt>
      <trkpt lat="50.08562025614082813262939453125" lon="11.4069751091301441192626953125">
        <ele>304.79998779296875</ele>
        <time>2018-08-17T12:33:39.000Z</time>
      </trkpt>
      <trkpt lat="50.0857531093060970306396484375" lon="11.4072627760469913482666015625">
        <ele>304.79998779296875</ele>
        <time>2018-08-17T12:33:43.000Z</time>
      </trkpt>
      <trkpt lat="50.085836090147495269775390625" lon="11.40732304193079471588134765625">
        <ele>305</ele>
        <time>2018-08-17T12:33:44.000Z</time>
      </trkpt>
      <trkpt lat="50.08590876124799251556396484375" lon="11.407266296446323394775390625">
        <ele>305</ele>
        <time>2018-08-17T12:33:46.000Z</time>
      </trkpt>
      <trkpt lat="50.085942707955837249755859375" lon="11.407233774662017822265625">
        <ele>305</ele>
        <time>2018-08-17T12:33:48.000Z</time>
      </trkpt>
      <trkpt lat="50.08603214286267757415771484375" lon="11.40718339942395687103271484375">
        <ele>305</ele>
        <time>2018-08-17T12:33:51.000Z</time>
      </trkpt>
      <trkpt lat="50.0860850326716899871826171875" lon="11.4072607643902301788330078125">
        <ele>305.20001220703125</ele>
        <time>2018-08-17T12:33:54.000Z</time>
      </trkpt>
      <trkpt lat="50.086107663810253143310546875" lon="11.40746737830340862274169921875">
        <ele>306.20001220703125</ele>
        <time>2018-08-17T12:33:58.000Z</time>
      </trkpt>
      <trkpt lat="50.0861160457134246826171875" lon="11.407590843737125396728515625">
        <ele>307.20001220703125</ele>
        <time>2018-08-17T12:34:00.000Z</time>
      </trkpt>
      <trkpt lat="50.0861777365207672119140625" lon="11.407763175666332244873046875">
        <ele>308.600006103515625</ele>
        <time>2018-08-17T12:34:03.000Z</time>
      </trkpt>
      <trkpt lat="50.08623917587101459503173828125" lon="11.4078572206199169158935546875">
        <ele>309.20001220703125</ele>
        <time>2018-08-17T12:34:05.000Z</time>
      </trkpt>
      <trkpt lat="50.0862986035645008087158203125" lon="11.40793089754879474639892578125">
        <ele>309.79998779296875</ele>
        <time>2018-08-17T12:34:07.000Z</time>
      </trkpt>
      <trkpt lat="50.08644956164062023162841796875" lon="11.40807154588401317596435546875">
        <ele>310.79998779296875</ele>
        <time>2018-08-17T12:34:11.000Z</time>
      </trkpt>
      <trkpt lat="50.08650697767734527587890625" lon="11.40813164412975311279296875">
        <ele>312</ele>
        <time>2018-08-17T12:34:14.000Z</time>
      </trkpt>
      <trkpt lat="50.0865886174142360687255859375" lon="11.40824605710804462432861328125">
        <ele>313.20001220703125</ele>
        <time>2018-08-17T12:34:17.000Z</time>
      </trkpt>
      <trkpt lat="50.0866177864372730255126953125" lon="11.408287547528743743896484375">
        <ele>313.600006103515625</ele>
        <time>2018-08-17T12:34:18.000Z</time>
      </trkpt>
      <trkpt lat="50.086687020957469940185546875" lon="11.40836323611438274383544921875">
        <ele>314.20001220703125</ele>
        <time>2018-08-17T12:34:20.000Z</time>
      </trkpt>
      <trkpt lat="50.0868321955204010009765625" lon="11.4085091650485992431640625">
        <ele>315.20001220703125</ele>
        <time>2018-08-17T12:34:24.000Z</time>
      </trkpt>
      <trkpt lat="50.08715473115444183349609375" lon="11.40877663157880306243896484375">
        <ele>316.399993896484375</ele>
        <time>2018-08-17T12:34:31.000Z</time>
      </trkpt>
      <trkpt lat="50.087322033941745758056640625" lon="11.40889649279415607452392578125">
        <ele>316.79998779296875</ele>
        <time>2018-08-17T12:34:35.000Z</time>
      </trkpt>
      <trkpt lat="50.08736268617212772369384765625" lon="11.40892163850367069244384765625">
        <ele>317</ele>
        <time>2018-08-17T12:34:37.000Z</time>
      </trkpt>
      <trkpt lat="50.08744449354708194732666015625" lon="11.4091748557984828948974609375">
        <ele>317.20001220703125</ele>
        <time>2018-08-17T12:34:41.000Z</time>
      </trkpt>
      <trkpt lat="50.087466873228549957275390625" lon="11.40924274921417236328125">
        <ele>317.20001220703125</ele>
        <time>2018-08-17T12:34:42.000Z</time>
      </trkpt>
      <trkpt lat="50.0877627544105052947998046875" lon="11.4097845554351806640625">
        <ele>317.399993896484375</ele>
        <time>2018-08-17T12:34:51.000Z</time>
      </trkpt>
      <trkpt lat="50.0881372578442096710205078125" lon="11.4105297066271305084228515625">
        <ele>317.600006103515625</ele>
        <time>2018-08-17T12:35:01.000Z</time>
      </trkpt>
      <trkpt lat="50.08854067884385585784912109375" lon="11.41133554279804229736328125">
        <ele>318</ele>
        <time>2018-08-17T12:35:10.000Z</time>
      </trkpt>
      <trkpt lat="50.0889093987643718719482421875" lon="11.4119754172861576080322265625">
        <ele>318.399993896484375</ele>
        <time>2018-08-17T12:35:18.000Z</time>
      </trkpt>
      <trkpt lat="50.08932673372328281402587890625" lon="11.41265041194856166839599609375">
        <ele>318.600006103515625</ele>
        <time>2018-08-17T12:35:28.000Z</time>
      </trkpt>
      <trkpt lat="50.0897536240518093109130859375" lon="11.4132115803658962249755859375">
        <ele>318.600006103515625</ele>
        <time>2018-08-17T12:35:35.000Z</time>
      </trkpt>
      <trkpt lat="50.09024136699736118316650390625" lon="11.41367870382964611053466796875">
        <ele>318.79998779296875</ele>
        <time>2018-08-17T12:35:43.000Z</time>
      </trkpt>
      <trkpt lat="50.09074092842638492584228515625" lon="11.414166279137134552001953125">
        <ele>318.600006103515625</ele>
        <time>2018-08-17T12:35:51.000Z</time>
      </trkpt>
      <trkpt lat="50.0912095606327056884765625" lon="11.41476365737617015838623046875">
        <ele>318.399993896484375</ele>
        <time>2018-08-17T12:35:59.000Z</time>
      </trkpt>
      <trkpt lat="50.09156805463135242462158203125" lon="11.4153891988098621368408203125">
        <ele>318</ele>
        <time>2018-08-17T12:36:06.000Z</time>
      </trkpt>
      <trkpt lat="50.0917709805071353912353515625" lon="11.41621707938611507415771484375">
        <ele>317.79998779296875</ele>
        <time>2018-08-17T12:36:13.000Z</time>
      </trkpt>
      <trkpt lat="50.0918293185532093048095703125" lon="11.41710556112229824066162109375">
        <ele>317.600006103515625</ele>
        <time>2018-08-17T12:36:21.000Z</time>
      </trkpt>
      <trkpt lat="50.09176419116556644439697265625" lon="11.4179896004498004913330078125">
        <ele>318</ele>
        <time>2018-08-17T12:36:29.000Z</time>
      </trkpt>
      <trkpt lat="50.09178698994219303131103515625" lon="11.41853593289852142333984375">
        <ele>318.20001220703125</ele>
        <time>2018-08-17T12:36:34.000Z</time>
      </trkpt>
      <trkpt lat="50.09186997078359127044677734375" lon="11.4191379211843013763427734375">
        <ele>318.600006103515625</ele>
        <time>2018-08-17T12:36:40.000Z</time>
      </trkpt>
      <trkpt lat="50.091921351850032806396484375" lon="11.41924764029681682586669921875">
        <ele>318.79998779296875</ele>
        <time>2018-08-17T12:36:42.000Z</time>
      </trkpt>
      <trkpt lat="50.09196351282298564910888671875" lon="11.41942818649113178253173828125">
        <ele>319</ele>
        <time>2018-08-17T12:36:46.000Z</time>
      </trkpt>
      <trkpt lat="50.09196351282298564910888671875" lon="11.41942818649113178253173828125">
        <ele>319.20001220703125</ele>
        <time>2018-08-17T12:36:47.000Z</time>
      </trkpt>
      <trkpt lat="50.091969631612300872802734375" lon="11.4199756085872650146484375">
        <ele>319.600006103515625</ele>
        <time>2018-08-17T12:36:58.000Z</time>
      </trkpt>
      <trkpt lat="50.09188556112349033355712890625" lon="11.42023888416588306427001953125">
        <ele>319.600006103515625</ele>
        <time>2018-08-17T12:37:04.000Z</time>
      </trkpt>
      <trkpt lat="50.0918953679502010345458984375" lon="11.4204857312142848968505859375">
        <ele>319.600006103515625</ele>
        <time>2018-08-17T12:37:08.000Z</time>
      </trkpt>
      <trkpt lat="50.09195228107273578643798828125" lon="11.420995853841304779052734375">
        <ele>320.399993896484375</ele>
        <time>2018-08-17T12:37:16.000Z</time>
      </trkpt>
      <trkpt lat="50.09204548783600330352783203125" lon="11.4214481413364410400390625">
        <ele>321.399993896484375</ele>
        <time>2018-08-17T12:37:24.000Z</time>
      </trkpt>
      <trkpt lat="50.09220935404300689697265625" lon="11.42197360284626483917236328125">
        <ele>322.399993896484375</ele>
        <time>2018-08-17T12:37:32.000Z</time>
      </trkpt>
      <trkpt lat="50.09241814725100994110107421875" lon="11.42242915928363800048828125">
        <ele>323.600006103515625</ele>
        <time>2018-08-17T12:37:38.000Z</time>
      </trkpt>
      <trkpt lat="50.0928364880383014678955078125" lon="11.42302117310464382171630859375">
        <ele>324.399993896484375</ele>
        <time>2018-08-17T12:37:48.000Z</time>
      </trkpt>
      <trkpt lat="50.0932844169437885284423828125" lon="11.4234758913516998291015625">
        <ele>324.399993896484375</ele>
        <time>2018-08-17T12:37:56.000Z</time>
      </trkpt>
      <trkpt lat="50.0935811363160610198974609375" lon="11.4238099940121173858642578125">
        <ele>323.399993896484375</ele>
        <time>2018-08-17T12:38:02.000Z</time>
      </trkpt>
      <trkpt lat="50.09369169361889362335205078125" lon="11.42407746054232120513916015625">
        <ele>322.79998779296875</ele>
        <time>2018-08-17T12:38:05.000Z</time>
      </trkpt>
      <trkpt lat="50.0937424041330814361572265625" lon="11.42414267174899578094482421875">
        <ele>322.600006103515625</ele>
        <time>2018-08-17T12:38:06.000Z</time>
      </trkpt>
      <trkpt lat="50.093938373029232025146484375" lon="11.42419799230992794036865234375">
        <ele>322.20001220703125</ele>
        <time>2018-08-17T12:38:09.000Z</time>
      </trkpt>
      <trkpt lat="50.09400534443557262420654296875" lon="11.42422112636268138885498046875">
        <ele>322.20001220703125</ele>
        <time>2018-08-17T12:38:10.000Z</time>
      </trkpt>
      <trkpt lat="50.09451697580516338348388671875" lon="11.4246753416955471038818359375">
        <ele>322</ele>
        <time>2018-08-17T12:38:17.000Z</time>
      </trkpt>
      <trkpt lat="50.0949829258024692535400390625" lon="11.42523634247481822967529296875">
        <ele>322.20001220703125</ele>
        <time>2018-08-17T12:38:25.000Z</time>
      </trkpt>
      <trkpt lat="50.09541668929159641265869140625" lon="11.42594209872186183929443359375">
        <ele>322.399993896484375</ele>
        <time>2018-08-17T12:38:33.000Z</time>
      </trkpt>
      <trkpt lat="50.09582136757671833038330078125" lon="11.42660544253885746002197265625">
        <ele>322.399993896484375</ele>
        <time>2018-08-17T12:38:41.000Z</time>
      </trkpt>
      <trkpt lat="50.09619872085750102996826171875" lon="11.4271996356546878814697265625">
        <ele>321.79998779296875</ele>
        <time>2018-08-17T12:38:47.000Z</time>
      </trkpt>
      <trkpt lat="50.09676617570221424102783203125" lon="11.4278825931251049041748046875">
        <ele>321</ele>
        <time>2018-08-17T12:38:54.000Z</time>
      </trkpt>
      <trkpt lat="50.09685200639069080352783203125" lon="11.42794135026633739471435546875">
        <ele>320.79998779296875</ele>
        <time>2018-08-17T12:38:56.000Z</time>
      </trkpt>
      <trkpt lat="50.09744091890752315521240234375" lon="11.42800002358853816986083984375">
        <ele>320.399993896484375</ele>
        <time>2018-08-17T12:39:01.000Z</time>
      </trkpt>
      <trkpt lat="50.09764426387846469879150390625" lon="11.42792232334613800048828125">
        <ele>319.600006103515625</ele>
        <time>2018-08-17T12:39:04.000Z</time>
      </trkpt>
      <trkpt lat="50.09812018834054470062255859375" lon="11.42769207246601581573486328125">
        <ele>318.20001220703125</ele>
        <time>2018-08-17T12:39:08.000Z</time>
      </trkpt>
      <trkpt lat="50.09839947335422039031982421875" lon="11.42757338471710681915283203125">
        <ele>317</ele>
        <time>2018-08-17T12:39:11.000Z</time>
      </trkpt>
      <trkpt lat="50.0985797680914402008056640625" lon="11.42753013409674167633056640625">
        <ele>316</ele>
        <time>2018-08-17T12:39:13.000Z</time>
      </trkpt>
      <trkpt lat="50.0985797680914402008056640625" lon="11.42753013409674167633056640625">
        <ele>315.79998779296875</ele>
        <time>2018-08-17T12:39:14.000Z</time>
      </trkpt>
      <trkpt lat="50.0990201532840728759765625" lon="11.42761663533747196197509765625">
        <ele>315.600006103515625</ele>
        <time>2018-08-17T12:39:19.000Z</time>
      </trkpt>
      <trkpt lat="50.09932525455951690673828125" lon="11.4278929866850376129150390625">
        <ele>315.399993896484375</ele>
        <time>2018-08-17T12:39:22.000Z</time>
      </trkpt>
      <trkpt lat="50.099667571485042572021484375" lon="11.42869186587631702423095703125">
        <ele>315.600006103515625</ele>
        <time>2018-08-17T12:39:29.000Z</time>
      </trkpt>
      <trkpt lat="50.09969380684196949005126953125" lon="11.42882497049868106842041015625">
        <ele>315.600006103515625</ele>
        <time>2018-08-17T12:39:30.000Z</time>
      </trkpt>
      <trkpt lat="50.09984451346099376678466796875" lon="11.4297433756291866302490234375">
        <ele>315.79998779296875</ele>
        <time>2018-08-17T12:39:37.000Z</time>
      </trkpt>
      <trkpt lat="50.0999969802796840667724609375" lon="11.43064350821077823638916015625">
        <ele>315.79998779296875</ele>
        <time>2018-08-17T12:39:44.000Z</time>
      </trkpt>
      <trkpt lat="50.10013435967266559600830078125" lon="11.43157239072024822235107421875">
        <ele>315.79998779296875</ele>
        <time>2018-08-17T12:39:51.000Z</time>
      </trkpt>
      <trkpt lat="50.10021817870438098907470703125" lon="11.4325285144150257110595703125">
        <ele>315.79998779296875</ele>
        <time>2018-08-17T12:39:58.000Z</time>
      </trkpt>
      <trkpt lat="50.10030266828835010528564453125" lon="11.4334719814360141754150390625">
        <ele>315.600006103515625</ele>
        <time>2018-08-17T12:40:05.000Z</time>
      </trkpt>
      <trkpt lat="50.100368969142436981201171875" lon="11.434307657182216644287109375">
        <ele>316</ele>
        <time>2018-08-17T12:40:11.000Z</time>
      </trkpt>
      <trkpt lat="50.1004412211477756500244140625" lon="11.435178704559803009033203125">
        <ele>316</ele>
        <time>2018-08-17T12:40:17.000Z</time>
      </trkpt>
      <trkpt lat="50.10051389224827289581298828125" lon="11.436024270951747894287109375">
        <ele>316</ele>
        <time>2018-08-17T12:40:23.000Z</time>
      </trkpt>
      <trkpt lat="50.10059100575745105743408203125" lon="11.436963714659214019775390625">
        <ele>316</ele>
        <time>2018-08-17T12:40:30.000Z</time>
      </trkpt>
      <trkpt lat="50.100645907223224639892578125" lon="11.43789620138704776763916015625">
        <ele>316.600006103515625</ele>
        <time>2018-08-17T12:40:37.000Z</time>
      </trkpt>
      <trkpt lat="50.10057759471237659454345703125" lon="11.43885500729084014892578125">
        <ele>316.600006103515625</ele>
        <time>2018-08-17T12:40:44.000Z</time>
      </trkpt>
      <trkpt lat="50.10042420588433742523193359375" lon="11.43978866748511791229248046875">
        <ele>316.20001220703125</ele>
        <time>2018-08-17T12:40:51.000Z</time>
      </trkpt>
      <trkpt lat="50.10026981122791767120361328125" lon="11.4406608045101165771484375">
        <ele>315.600006103515625</ele>
        <time>2018-08-17T12:40:58.000Z</time>
      </trkpt>
      <trkpt lat="50.1001280732452869415283203125" lon="11.4415244758129119873046875">
        <ele>315.600006103515625</ele>
        <time>2018-08-17T12:41:05.000Z</time>
      </trkpt>
      <trkpt lat="50.1000020094215869903564453125" lon="11.44244103692471981048583984375">
        <ele>315.600006103515625</ele>
        <time>2018-08-17T12:41:13.000Z</time>
      </trkpt>
      <trkpt lat="50.0999403186142444610595703125" lon="11.4433120004832744598388671875">
        <ele>315.600006103515625</ele>
        <time>2018-08-17T12:41:22.000Z</time>
      </trkpt>
      <trkpt lat="50.09992330335080623626708984375" lon="11.44350587390363216400146484375">
        <ele>315.399993896484375</ele>
        <time>2018-08-17T12:41:26.000Z</time>
      </trkpt>
      <trkpt lat="50.09992472827434539794921875" lon="11.44352473318576812744140625">
        <ele>315.20001220703125</ele>
        <time>2018-08-17T12:41:29.000Z</time>
      </trkpt>
      <trkpt lat="50.09989832527935504913330078125" lon="11.44363596104085445404052734375">
        <ele>314.600006103515625</ele>
        <time>2018-08-17T12:41:42.000Z</time>
      </trkpt>
      <trkpt lat="50.0998467765748500823974609375" lon="11.4437614381313323974609375">
        <ele>314.600006103515625</ele>
        <time>2018-08-17T12:41:49.000Z</time>
      </trkpt>
      <trkpt lat="50.0998370535671710968017578125" lon="11.44378733821213245391845703125">
        <ele>314.600006103515625</ele>
        <time>2018-08-17T12:41:53.000Z</time>
      </trkpt>
      <trkpt lat="50.09984157979488372802734375" lon="11.44381969235837459564208984375">
        <ele>314.79998779296875</ele>
        <time>2018-08-17T12:41:59.000Z</time>
      </trkpt>
      <trkpt lat="50.1000026799738407135009765625" lon="11.44425655715167522430419921875">
        <ele>314.79998779296875</ele>
        <time>2018-08-17T12:42:10.000Z</time>
      </trkpt>
      <trkpt lat="50.10030090808868408203125" lon="11.4449898898601531982421875">
        <ele>314.79998779296875</ele>
        <time>2018-08-17T12:42:20.000Z</time>
      </trkpt>
      <trkpt lat="50.1006777584552764892578125" lon="11.44563705660402774810791015625">
        <ele>314.79998779296875</ele>
        <time>2018-08-17T12:42:29.000Z</time>
      </trkpt>
      <trkpt lat="50.1010752283036708831787109375" lon="11.4462989754974842071533203125">
        <ele>314.79998779296875</ele>
        <time>2018-08-17T12:42:38.000Z</time>
      </trkpt>
      <trkpt lat="50.10142500512301921844482421875" lon="11.44681571982800960540771484375">
        <ele>315.20001220703125</ele>
        <time>2018-08-17T12:42:46.000Z</time>
      </trkpt>
      <trkpt lat="50.101997740566730499267578125" lon="11.4470613934099674224853515625">
        <ele>315.600006103515625</ele>
        <time>2018-08-17T12:42:55.000Z</time>
      </trkpt>
      <trkpt lat="50.10219027288258075714111328125" lon="11.4470583759248256683349609375">
        <ele>315.600006103515625</ele>
        <time>2018-08-17T12:42:58.000Z</time>
      </trkpt>
      <trkpt lat="50.10283970274031162261962890625" lon="11.44687020219862461090087890625">
        <ele>314.79998779296875</ele>
        <time>2018-08-17T12:43:08.000Z</time>
      </trkpt>
      <trkpt lat="50.103041790425777435302734375" lon="11.4467955194413661956787109375">
        <ele>314.600006103515625</ele>
        <time>2018-08-17T12:43:11.000Z</time>
      </trkpt>
      <trkpt lat="50.10324689559638500213623046875" lon="11.4467333257198333740234375">
        <ele>314.399993896484375</ele>
        <time>2018-08-17T12:43:14.000Z</time>
      </trkpt>
      <trkpt lat="50.1035271026194095611572265625" lon="11.446767188608646392822265625">
        <ele>314</ele>
        <time>2018-08-17T12:43:18.000Z</time>
      </trkpt>
      <trkpt lat="50.10372768156230449676513671875" lon="11.446875147521495819091796875">
        <ele>313.399993896484375</ele>
        <time>2018-08-17T12:43:21.000Z</time>
      </trkpt>
      <trkpt lat="50.1041946373879909515380859375" lon="11.4473205618560314178466796875">
        <ele>313</ele>
        <time>2018-08-17T12:43:29.000Z</time>
      </trkpt>
      <trkpt lat="50.10465145111083984375" lon="11.44782523624598979949951171875">
        <ele>312.399993896484375</ele>
        <time>2018-08-17T12:43:38.000Z</time>
      </trkpt>
      <trkpt lat="50.10470216162502765655517578125" lon="11.44788458012044429779052734375">
        <ele>312.399993896484375</ele>
        <time>2018-08-17T12:43:39.000Z</time>
      </trkpt>
      <trkpt lat="50.10512997396290302276611328125" lon="11.4484045095741748809814453125">
        <ele>312.20001220703125</ele>
        <time>2018-08-17T12:43:47.000Z</time>
      </trkpt>
      <trkpt lat="50.10550229810178279876708984375" lon="11.44886098802089691162109375">
        <ele>312</ele>
        <time>2018-08-17T12:43:54.000Z</time>
      </trkpt>
      <trkpt lat="50.10559282265603542327880859375" lon="11.4490076713263988494873046875">
        <ele>312</ele>
        <time>2018-08-17T12:43:56.000Z</time>
      </trkpt>
      <trkpt lat="50.1057707704603672027587890625" lon="11.4492889679968357086181640625">
        <ele>312</ele>
        <time>2018-08-17T12:44:00.000Z</time>
      </trkpt>
      <trkpt lat="50.10611099191009998321533203125" lon="11.44998474977910518646240234375">
        <ele>312.20001220703125</ele>
        <time>2018-08-17T12:44:09.000Z</time>
      </trkpt>
      <trkpt lat="50.10627754032611846923828125" lon="11.4502837322652339935302734375">
        <ele>312.399993896484375</ele>
        <time>2018-08-17T12:44:13.000Z</time>
      </trkpt>
      <trkpt lat="50.1067145727574825286865234375" lon="11.45086082629859447479248046875">
        <ele>312.600006103515625</ele>
        <time>2018-08-17T12:44:23.000Z</time>
      </trkpt>
      <trkpt lat="50.10714079253375530242919921875" lon="11.45138586871325969696044921875">
        <ele>312.399993896484375</ele>
        <time>2018-08-17T12:44:33.000Z</time>
      </trkpt>
      <trkpt lat="50.1072392798960208892822265625" lon="11.45152701996266841888427734375">
        <ele>312.399993896484375</ele>
        <time>2018-08-17T12:44:36.000Z</time>
      </trkpt>
      <trkpt lat="50.10756206698715686798095703125" lon="11.45222808234393596649169921875">
        <ele>312.399993896484375</ele>
        <time>2018-08-17T12:44:47.000Z</time>
      </trkpt>
      <trkpt lat="50.1075832732021808624267578125" lon="11.4522984065115451812744140625">
        <ele>312.399993896484375</ele>
        <time>2018-08-17T12:44:48.000Z</time>
      </trkpt>
      <trkpt lat="50.107732973992824554443359375" lon="11.4529962837696075439453125">
        <ele>313</ele>
        <time>2018-08-17T12:45:00.000Z</time>
      </trkpt>
      <trkpt lat="50.10773657821118831634521484375" lon="11.45307213999330997467041015625">
        <ele>313.20001220703125</ele>
        <time>2018-08-17T12:45:07.000Z</time>
      </trkpt>
      <trkpt lat="50.1078018732368946075439453125" lon="11.4529548771679401397705078125">
        <ele>313.399993896484375</ele>
        <time>2018-08-17T12:45:13.000Z</time>
      </trkpt>
      <trkpt lat="50.107868425548076629638671875" lon="11.45493309013545513153076171875">
        <ele>312.399993896484375</ele>
        <time>2018-08-17T12:47:25.000Z</time>
      </trkpt>
      <trkpt lat="50.107868425548076629638671875" lon="11.4549330063164234161376953125">
        <ele>312.399993896484375</ele>
        <time>2018-08-17T12:47:26.000Z</time>
      </trkpt>
      <trkpt lat="50.107928775250911712646484375" lon="11.4549554698169231414794921875">
        <ele>315</ele>
        <time>2018-08-17T13:30:53.000Z</time>
      </trkpt>
      <trkpt lat="50.1079802401363849639892578125" lon="11.4550771750509738922119140625">
        <ele>315</ele>
        <time>2018-08-17T13:31:00.000Z</time>
      </trkpt>
      <trkpt lat="50.1080114208161830902099609375" lon="11.45583867095410823822021484375">
        <ele>315</ele>
        <time>2018-08-17T13:31:31.000Z</time>
      </trkpt>
      <trkpt lat="50.10792701505124568939208984375" lon="11.45653571002185344696044921875">
        <ele>315.600006103515625</ele>
        <time>2018-08-17T13:31:42.000Z</time>
      </trkpt>
      <trkpt lat="50.1080714352428913116455078125" lon="11.4572668634355068206787109375">
        <ele>316.79998779296875</ele>
        <time>2018-08-17T13:31:55.000Z</time>
      </trkpt>
      <trkpt lat="50.10810010135173797607421875" lon="11.45731908269226551055908203125">
        <ele>316.79998779296875</ele>
        <time>2018-08-17T13:31:56.000Z</time>
      </trkpt>
      <trkpt lat="50.1081280969083309173583984375" lon="11.45737339742481708526611328125">
        <ele>316.79998779296875</ele>
        <time>2018-08-17T13:31:57.000Z</time>
      </trkpt>
      <trkpt lat="50.10827050544321537017822265625" lon="11.45764078013598918914794921875">
        <ele>317</ele>
        <time>2018-08-17T13:32:02.000Z</time>
      </trkpt>
      <trkpt lat="50.10847938247025012969970703125" lon="11.45773516036570072174072265625">
        <ele>317</ele>
        <time>2018-08-17T13:32:08.000Z</time>
      </trkpt>
      <trkpt lat="50.1085196994245052337646484375" lon="11.45770289003849029541015625">
        <ele>317</ele>
        <time>2018-08-17T13:32:09.000Z</time>
      </trkpt>
      <trkpt lat="50.1086414046585559844970703125" lon="11.45760306157171726226806640625">
        <ele>317</ele>
        <time>2018-08-17T13:32:12.000Z</time>
      </trkpt>
      <trkpt lat="50.10871566832065582275390625" lon="11.45750750787556171417236328125">
        <ele>317</ele>
        <time>2018-08-17T13:32:14.000Z</time>
      </trkpt>
      <trkpt lat="50.10914909653365612030029296875" lon="11.45691926591098308563232421875">
        <ele>316</ele>
        <time>2018-08-17T13:32:25.000Z</time>
      </trkpt>
      <trkpt lat="50.1091858930885791778564453125" lon="11.45685807801783084869384765625">
        <ele>316</ele>
        <time>2018-08-17T13:32:26.000Z</time>
      </trkpt>
      <trkpt lat="50.109224952757358551025390625" lon="11.456533111631870269775390625">
        <ele>315.79998779296875</ele>
        <time>2018-08-17T13:32:30.000Z</time>
      </trkpt>
      <trkpt lat="50.10924632661044597625732421875" lon="11.4564625360071659088134765625">
        <ele>315.79998779296875</ele>
        <time>2018-08-17T13:32:31.000Z</time>
      </trkpt>
      <trkpt lat="50.1093974523246288299560546875" lon="11.4561639726161956787109375">
        <ele>315.399993896484375</ele>
        <time>2018-08-17T13:32:42.000Z</time>
      </trkpt>
      <trkpt lat="50.1095764897763729095458984375" lon="11.4557762257754802703857421875">
        <ele>315.600006103515625</ele>
        <time>2018-08-17T13:32:54.000Z</time>
      </trkpt>
      <trkpt lat="50.10987144894897937774658203125" lon="11.4557970128953456878662109375">
        <ele>315.600006103515625</ele>
        <time>2018-08-17T13:33:01.000Z</time>
      </trkpt>
      <trkpt lat="50.1103337109088897705078125" lon="11.4562506414949893951416015625">
        <ele>315.399993896484375</ele>
        <time>2018-08-17T13:33:11.000Z</time>
      </trkpt>
      <trkpt lat="50.11038173921406269073486328125" lon="11.45630143582820892333984375">
        <ele>315.600006103515625</ele>
        <time>2018-08-17T13:33:12.000Z</time>
      </trkpt>
      <trkpt lat="50.1105199567973613739013671875" lon="11.4564611949026584625244140625">
        <ele>315.600006103515625</ele>
        <time>2018-08-17T13:33:15.000Z</time>
      </trkpt>
      <trkpt lat="50.1106386445462703704833984375" lon="11.45676135085523128509521484375">
        <ele>315.600006103515625</ele>
        <time>2018-08-17T13:33:19.000Z</time>
      </trkpt>
      <trkpt lat="50.11082598008215427398681640625" lon="11.4576269499957561492919921875">
        <ele>315.600006103515625</ele>
        <time>2018-08-17T13:33:29.000Z</time>
      </trkpt>
      <trkpt lat="50.1109886728227138519287109375" lon="11.45830060355365276336669921875">
        <ele>315</ele>
        <time>2018-08-17T13:33:37.000Z</time>
      </trkpt>
      <trkpt lat="50.11103619821369647979736328125" lon="11.45854518748819828033447265625">
        <ele>314.79998779296875</ele>
        <time>2018-08-17T13:33:40.000Z</time>
      </trkpt>
      <trkpt lat="50.1111093722283840179443359375" lon="11.45907425321638584136962890625">
        <ele>314.79998779296875</ele>
        <time>2018-08-17T13:33:47.000Z</time>
      </trkpt>
      <trkpt lat="50.11122110299766063690185546875" lon="11.45959510467946529388427734375">
        <ele>314.600006103515625</ele>
        <time>2018-08-17T13:33:54.000Z</time>
      </trkpt>
      <trkpt lat="50.11140231974422931671142578125" lon="11.4604635536670684814453125">
        <ele>315</ele>
        <time>2018-08-17T13:34:05.000Z</time>
      </trkpt>
      <trkpt lat="50.1114198379218578338623046875" lon="11.46054795943200588226318359375">
        <ele>315</ele>
        <time>2018-08-17T13:34:06.000Z</time>
      </trkpt>
      <trkpt lat="50.11157766915857791900634765625" lon="11.4613847248256206512451171875">
        <ele>315.20001220703125</ele>
        <time>2018-08-17T13:34:16.000Z</time>
      </trkpt>
      <trkpt lat="50.11172384954988956451416015625" lon="11.462217383086681365966796875">
        <ele>315.399993896484375</ele>
        <time>2018-08-17T13:34:26.000Z</time>
      </trkpt>
      <trkpt lat="50.11179492808878421783447265625" lon="11.46262482739984989166259765625">
        <ele>315.600006103515625</ele>
        <time>2018-08-17T13:34:31.000Z</time>
      </trkpt>
      <trkpt lat="50.11192216537892818450927734375" lon="11.463373415172100067138671875">
        <ele>316.20001220703125</ele>
        <time>2018-08-17T13:34:40.000Z</time>
      </trkpt>
      <trkpt lat="50.11192987672984600067138671875" lon="11.4634620957076549530029296875">
        <ele>316.20001220703125</ele>
        <time>2018-08-17T13:34:41.000Z</time>
      </trkpt>
      <trkpt lat="50.11191864497959613800048828125" lon="11.46388077177107334136962890625">
        <ele>316.399993896484375</ele>
        <time>2018-08-17T13:34:46.000Z</time>
      </trkpt>
      <trkpt lat="50.111705996096134185791015625" lon="11.464386619627475738525390625">
        <ele>317.399993896484375</ele>
        <time>2018-08-17T13:34:56.000Z</time>
      </trkpt>
      <trkpt lat="50.11167607270181179046630859375" lon="11.4644064009189605712890625">
        <ele>317.399993896484375</ele>
        <time>2018-08-17T13:34:57.000Z</time>
      </trkpt>
      <trkpt lat="50.1113799400627613067626953125" lon="11.464628688991069793701171875">
        <ele>318</ele>
        <time>2018-08-17T13:35:12.000Z</time>
      </trkpt>
      <trkpt lat="50.111416317522525787353515625" lon="11.46466322243213653564453125">
        <ele>317.79998779296875</ele>
        <time>2018-08-17T13:35:13.000Z</time>
      </trkpt>
      <trkpt lat="50.111571215093135833740234375" lon="11.4648715965449810028076171875">
        <ele>317.600006103515625</ele>
        <time>2018-08-17T13:35:17.000Z</time>
      </trkpt>
      <trkpt lat="50.11162963695824146270751953125" lon="11.4649802260100841522216796875">
        <ele>317.399993896484375</ele>
        <time>2018-08-17T13:35:19.000Z</time>
      </trkpt>
      <trkpt lat="50.11171664111316204071044921875" lon="11.46515884436666965484619140625">
        <ele>317.20001220703125</ele>
        <time>2018-08-17T13:35:23.000Z</time>
      </trkpt>
      <trkpt lat="50.11173851788043975830078125" lon="11.4652122370898723602294921875">
        <ele>317.20001220703125</ele>
        <time>2018-08-17T13:35:24.000Z</time>
      </trkpt>
      <trkpt lat="50.11184052564203739166259765625" lon="11.4654693938791751861572265625">
        <ele>316.79998779296875</ele>
        <time>2018-08-17T13:35:28.000Z</time>
      </trkpt>
      <trkpt lat="50.11193088255822658538818359375" lon="11.46567885763943195343017578125">
        <ele>316.600006103515625</ele>
        <time>2018-08-17T13:35:31.000Z</time>
      </trkpt>
      <trkpt lat="50.11220614425837993621826171875" lon="11.46623726002871990203857421875">
        <ele>316.399993896484375</ele>
        <time>2018-08-17T13:35:38.000Z</time>
      </trkpt>
      <trkpt lat="50.11224470101296901702880859375" lon="11.46651017479598522186279296875">
        <ele>315.399993896484375</ele>
        <time>2018-08-17T13:35:41.000Z</time>
      </trkpt>
      <trkpt lat="50.11225308291614055633544921875" lon="11.466772444546222686767578125">
        <ele>315.20001220703125</ele>
        <time>2018-08-17T13:35:44.000Z</time>
      </trkpt>
      <trkpt lat="50.1122898794710636138916015625" lon="11.4676657877862453460693359375">
        <ele>314.600006103515625</ele>
        <time>2018-08-17T13:35:55.000Z</time>
      </trkpt>
      <trkpt lat="50.112293064594268798828125" lon="11.46783183328807353973388671875">
        <ele>314.399993896484375</ele>
        <time>2018-08-17T13:35:57.000Z</time>
      </trkpt>
      <trkpt lat="50.1122996024787425994873046875" lon="11.46833709441125392913818359375">
        <ele>314</ele>
        <time>2018-08-17T13:36:03.000Z</time>
      </trkpt>
      <trkpt lat="50.1122861914336681365966796875" lon="11.46923194639384746551513671875">
        <ele>314</ele>
        <time>2018-08-17T13:36:13.000Z</time>
      </trkpt>
      <trkpt lat="50.1122761331498622894287109375" lon="11.47007080726325511932373046875">
        <ele>314.399993896484375</ele>
        <time>2018-08-17T13:36:22.000Z</time>
      </trkpt>
      <trkpt lat="50.11225693859159946441650390625" lon="11.4709276892244815826416015625">
        <ele>314.600006103515625</ele>
        <time>2018-08-17T13:36:31.000Z</time>
      </trkpt>
      <trkpt lat="50.11222760193049907684326171875" lon="11.4717829786241054534912109375">
        <ele>314.600006103515625</ele>
        <time>2018-08-17T13:36:40.000Z</time>
      </trkpt>
      <trkpt lat="50.1121564395725727081298828125" lon="11.47269601933658123016357421875">
        <ele>315</ele>
        <time>2018-08-17T13:36:49.000Z</time>
      </trkpt>
      <trkpt lat="50.112105309963226318359375" lon="11.47361551411449909210205078125">
        <ele>315.20001220703125</ele>
        <time>2018-08-17T13:36:58.000Z</time>
      </trkpt>
      <trkpt lat="50.1120525039732456207275390625" lon="11.474514305591583251953125">
        <ele>315.20001220703125</ele>
        <time>2018-08-17T13:37:07.000Z</time>
      </trkpt>
      <trkpt lat="50.11200581677258014678955078125" lon="11.47539717145264148712158203125">
        <ele>315.399993896484375</ele>
        <time>2018-08-17T13:37:16.000Z</time>
      </trkpt>
      <trkpt lat="50.1119519211351871490478515625" lon="11.47630526684224605560302734375">
        <ele>315.399993896484375</ele>
        <time>2018-08-17T13:37:25.000Z</time>
      </trkpt>
      <trkpt lat="50.11189274489879608154296875" lon="11.477240435779094696044921875">
        <ele>315.399993896484375</ele>
        <time>2018-08-17T13:37:34.000Z</time>
      </trkpt>
      <trkpt lat="50.11183750815689563751220703125" lon="11.478128246963024139404296875">
        <ele>315.600006103515625</ele>
        <time>2018-08-17T13:37:43.000Z</time>
      </trkpt>
      <trkpt lat="50.1118198223412036895751953125" lon="11.478396467864513397216796875">
        <ele>315.79998779296875</ele>
        <time>2018-08-17T13:37:46.000Z</time>
      </trkpt>
      <trkpt lat="50.11180448345839977264404296875" lon="11.47884062491357326507568359375">
        <ele>316.600006103515625</ele>
        <time>2018-08-17T13:37:51.000Z</time>
      </trkpt>
      <trkpt lat="50.111756287515163421630859375" lon="11.4796894602477550506591796875">
        <ele>316.79998779296875</ele>
        <time>2018-08-17T13:38:01.000Z</time>
      </trkpt>
      <trkpt lat="50.111726112663745880126953125" lon="11.48027502000331878662109375">
        <ele>317</ele>
        <time>2018-08-17T13:38:08.000Z</time>
      </trkpt>
      <trkpt lat="50.1116709597408771514892578125" lon="11.48118856362998485565185546875">
        <ele>317.79998779296875</ele>
        <time>2018-08-17T13:38:19.000Z</time>
      </trkpt>
      <trkpt lat="50.1115997135639190673828125" lon="11.48207008838653564453125">
        <ele>317.600006103515625</ele>
        <time>2018-08-17T13:38:30.000Z</time>
      </trkpt>
      <trkpt lat="50.11157012544572353363037109375" lon="11.4826898463070392608642578125">
        <ele>318</ele>
        <time>2018-08-17T13:38:37.000Z</time>
      </trkpt>
      <trkpt lat="50.11155168525874614715576171875" lon="11.48297290317714214324951171875">
        <ele>318</ele>
        <time>2018-08-17T13:38:40.000Z</time>
      </trkpt>
      <trkpt lat="50.1114168204367160797119140625" lon="11.48386457003653049468994140625">
        <ele>317.79998779296875</ele>
        <time>2018-08-17T13:38:49.000Z</time>
      </trkpt>
      <trkpt lat="50.1113341748714447021484375" lon="11.48435574956238269805908203125">
        <ele>317.399993896484375</ele>
        <time>2018-08-17T13:38:54.000Z</time>
      </trkpt>
      <trkpt lat="50.11139460839331150054931640625" lon="11.48478087969124317169189453125">
        <ele>317.399993896484375</ele>
        <time>2018-08-17T13:38:58.000Z</time>
      </trkpt>
      <trkpt lat="50.111408941447734832763671875" lon="11.48488732986152172088623046875">
        <ele>317.399993896484375</ele>
        <time>2018-08-17T13:38:59.000Z</time>
      </trkpt>
      <trkpt lat="50.11140986345708370208740234375" lon="11.48510777391493320465087890625">
        <ele>317.20001220703125</ele>
        <time>2018-08-17T13:39:01.000Z</time>
      </trkpt>
      <trkpt lat="50.1113574765622615814208984375" lon="11.48598988540470600128173828125">
        <ele>317</ele>
        <time>2018-08-17T13:39:09.000Z</time>
      </trkpt>
      <trkpt lat="50.11131380684673786163330078125" lon="11.486866213381290435791015625">
        <ele>316.79998779296875</ele>
        <time>2018-08-17T13:39:17.000Z</time>
      </trkpt>
      <trkpt lat="50.11125429533421993255615234375" lon="11.4877169765532016754150390625">
        <ele>317</ele>
        <time>2018-08-17T13:39:25.000Z</time>
      </trkpt>
      <trkpt lat="50.1111992262303829193115234375" lon="11.48857855238020420074462890625">
        <ele>317</ele>
        <time>2018-08-17T13:39:33.000Z</time>
      </trkpt>
      <trkpt lat="50.11115069501101970672607421875" lon="11.4894577302038669586181640625">
        <ele>317</ele>
        <time>2018-08-17T13:39:41.000Z</time>
      </trkpt>
      <trkpt lat="50.11112068779766559600830078125" lon="11.49031310342252254486083984375">
        <ele>316.79998779296875</ele>
        <time>2018-08-17T13:39:49.000Z</time>
      </trkpt>
      <trkpt lat="50.11113510467112064361572265625" lon="11.4912336878478527069091796875">
        <ele>316.79998779296875</ele>
        <time>2018-08-17T13:39:58.000Z</time>
      </trkpt>
      <trkpt lat="50.1111998967826366424560546875" lon="11.4921577088534832000732421875">
        <ele>317</ele>
        <time>2018-08-17T13:40:07.000Z</time>
      </trkpt>
      <trkpt lat="50.11132302694022655487060546875" lon="11.49305448867380619049072265625">
        <ele>317.20001220703125</ele>
        <time>2018-08-17T13:40:16.000Z</time>
      </trkpt>
      <trkpt lat="50.11150206439197063446044921875" lon="11.49387876503169536590576171875">
        <ele>317.399993896484375</ele>
        <time>2018-08-17T13:40:25.000Z</time>
      </trkpt>
      <trkpt lat="50.11171965859830379486083984375" lon="11.4946783147752285003662109375">
        <ele>317.399993896484375</ele>
        <time>2018-08-17T13:40:34.000Z</time>
      </trkpt>
      <trkpt lat="50.11198251508176326751708984375" lon="11.4954675547778606414794921875">
        <ele>317.399993896484375</ele>
        <time>2018-08-17T13:40:43.000Z</time>
      </trkpt>
      <trkpt lat="50.1122851856052875518798828125" lon="11.49624933488667011260986328125">
        <ele>317.399993896484375</ele>
        <time>2018-08-17T13:40:52.000Z</time>
      </trkpt>
      <trkpt lat="50.1126345433294773101806640625" lon="11.49697554297745227813720703125">
        <ele>317.399993896484375</ele>
        <time>2018-08-17T13:41:01.000Z</time>
      </trkpt>
      <trkpt lat="50.11300384998321533203125" lon="11.49763218127191066741943359375">
        <ele>317.399993896484375</ele>
        <time>2018-08-17T13:41:10.000Z</time>
      </trkpt>
      <trkpt lat="50.11314005590975284576416015625" lon="11.49792236275970935821533203125">
        <ele>317.79998779296875</ele>
        <time>2018-08-17T13:41:14.000Z</time>
      </trkpt>
      <trkpt lat="50.113254301249980926513671875" lon="11.4981876499950885772705078125">
        <ele>318.20001220703125</ele>
        <time>2018-08-17T13:41:18.000Z</time>
      </trkpt>
      <trkpt lat="50.11331968009471893310546875" lon="11.49828865192830562591552734375">
        <ele>318.20001220703125</ele>
        <time>2018-08-17T13:41:20.000Z</time>
      </trkpt>
      <trkpt lat="50.11342135258018970489501953125" lon="11.49844220839440822601318359375">
        <ele>318.600006103515625</ele>
        <time>2018-08-17T13:41:23.000Z</time>
      </trkpt>
      <trkpt lat="50.1134871505200862884521484375" lon="11.49864815175533294677734375">
        <ele>319.399993896484375</ele>
        <time>2018-08-17T13:41:26.000Z</time>
      </trkpt>
      <trkpt lat="50.11355211026966571807861328125" lon="11.4989527501165866851806640625">
        <ele>320.399993896484375</ele>
        <time>2018-08-17T13:41:30.000Z</time>
      </trkpt>
      <trkpt lat="50.11359837837517261505126953125" lon="11.49909515865147113800048828125">
        <ele>320.600006103515625</ele>
        <time>2018-08-17T13:41:32.000Z</time>
      </trkpt>
      <trkpt lat="50.114046223461627960205078125" lon="11.49963445030152797698974609375">
        <ele>320.20001220703125</ele>
        <time>2018-08-17T13:41:42.000Z</time>
      </trkpt>
      <trkpt lat="50.1144373230636119842529296875" lon="11.50002370588481426239013671875">
        <ele>319.600006103515625</ele>
        <time>2018-08-17T13:41:50.000Z</time>
      </trkpt>
      <trkpt lat="50.11483638547360897064208984375" lon="11.5006224252283573150634765625">
        <ele>320</ele>
        <time>2018-08-17T13:42:00.000Z</time>
      </trkpt>
      <trkpt lat="50.11521759442985057830810546875" lon="11.5012845955789089202880859375">
        <ele>320.79998779296875</ele>
        <time>2018-08-17T13:42:09.000Z</time>
      </trkpt>
      <trkpt lat="50.115614645183086395263671875" lon="11.50196813978254795074462890625">
        <ele>320.79998779296875</ele>
        <time>2018-08-17T13:42:18.000Z</time>
      </trkpt>
      <trkpt lat="50.11601261794567108154296875" lon="11.50263349525630474090576171875">
        <ele>320.600006103515625</ele>
        <time>2018-08-17T13:42:27.000Z</time>
      </trkpt>
      <trkpt lat="50.11641419492661952972412109375" lon="11.50329239666461944580078125">
        <ele>320.600006103515625</ele>
        <time>2018-08-17T13:42:36.000Z</time>
      </trkpt>
      <trkpt lat="50.11681769974529743194580078125" lon="11.5039004199206829071044921875">
        <ele>321</ele>
        <time>2018-08-17T13:42:45.000Z</time>
      </trkpt>
      <trkpt lat="50.11700545437633991241455078125" lon="11.5041589178144931793212890625">
        <ele>321.20001220703125</ele>
        <time>2018-08-17T13:42:49.000Z</time>
      </trkpt>
      <trkpt lat="50.11735196225345134735107421875" lon="11.5045870654284954071044921875">
        <ele>321.20001220703125</ele>
        <time>2018-08-17T13:42:56.000Z</time>
      </trkpt>
      <trkpt lat="50.1178236119449138641357421875" lon="11.5050913207232952117919921875">
        <ele>321.20001220703125</ele>
        <time>2018-08-17T13:43:05.000Z</time>
      </trkpt>
      <trkpt lat="50.11828713119029998779296875" lon="11.5055342204868793487548828125">
        <ele>321.79998779296875</ele>
        <time>2018-08-17T13:43:18.000Z</time>
      </trkpt>
      <trkpt lat="50.11843842454254627227783203125" lon="11.50564930401742458343505859375">
        <ele>322.399993896484375</ele>
        <time>2018-08-17T13:43:24.000Z</time>
      </trkpt>
      <trkpt lat="50.11858217418193817138671875" lon="11.50573982857167720794677734375">
        <ele>322.399993896484375</ele>
        <time>2018-08-17T13:43:27.000Z</time>
      </trkpt>
      <trkpt lat="50.11910478584468364715576171875" lon="11.50615205056965351104736328125">
        <ele>321.79998779296875</ele>
        <time>2018-08-17T13:43:36.000Z</time>
      </trkpt>
      <trkpt lat="50.11961708776652812957763671875" lon="11.506562344729900360107421875">
        <ele>321.20001220703125</ele>
        <time>2018-08-17T13:43:45.000Z</time>
      </trkpt>
      <trkpt lat="50.1201122067868709564208984375" lon="11.5069745667278766632080078125">
        <ele>321.399993896484375</ele>
        <time>2018-08-17T13:43:54.000Z</time>
      </trkpt>
      <trkpt lat="50.12059986591339111328125" lon="11.50741587392985820770263671875">
        <ele>321.399993896484375</ele>
        <time>2018-08-17T13:44:03.000Z</time>
      </trkpt>
      <trkpt lat="50.12107796967029571533203125" lon="11.50790336541831493377685546875">
        <ele>321.399993896484375</ele>
        <time>2018-08-17T13:44:12.000Z</time>
      </trkpt>
      <trkpt lat="50.12155028991401195526123046875" lon="11.5084122307598590850830078125">
        <ele>321.600006103515625</ele>
        <time>2018-08-17T13:44:21.000Z</time>
      </trkpt>
      <trkpt lat="50.1220236159861087799072265625" lon="11.5089355967938899993896484375">
        <ele>321.79998779296875</ele>
        <time>2018-08-17T13:44:30.000Z</time>
      </trkpt>
      <trkpt lat="50.1224725507199764251708984375" lon="11.50945334695279598236083984375">
        <ele>322.20001220703125</ele>
        <time>2018-08-17T13:44:39.000Z</time>
      </trkpt>
      <trkpt lat="50.1227394305169582366943359375" lon="11.5097996033728122711181640625">
        <ele>322.600006103515625</ele>
        <time>2018-08-17T13:44:45.000Z</time>
      </trkpt>
      <trkpt lat="50.12282676994800567626953125" lon="11.50992281734943389892578125">
        <ele>323</ele>
        <time>2018-08-17T13:44:47.000Z</time>
      </trkpt>
      <trkpt lat="50.12310094200074672698974609375" lon="11.51031014509499073028564453125">
        <ele>323.79998779296875</ele>
        <time>2018-08-17T13:44:53.000Z</time>
      </trkpt>
      <trkpt lat="50.1235082186758518218994140625" lon="11.51091230101883411407470703125">
        <ele>324.20001220703125</ele>
        <time>2018-08-17T13:45:02.000Z</time>
      </trkpt>
      <trkpt lat="50.12389051727950572967529296875" lon="11.51152468286454677581787109375">
        <ele>324.399993896484375</ele>
        <time>2018-08-17T13:45:11.000Z</time>
      </trkpt>
      <trkpt lat="50.124286226928234100341796875" lon="11.5121716819703578948974609375">
        <ele>324.600006103515625</ele>
        <time>2018-08-17T13:45:20.000Z</time>
      </trkpt>
      <trkpt lat="50.12465846724808216094970703125" lon="11.51283360086381435394287109375">
        <ele>324.600006103515625</ele>
        <time>2018-08-17T13:45:29.000Z</time>
      </trkpt>
      <trkpt lat="50.1249710284173488616943359375" lon="11.51345126330852508544921875">
        <ele>324.600006103515625</ele>
        <time>2018-08-17T13:45:37.000Z</time>
      </trkpt>
      <trkpt lat="50.1251220703125" lon="11.5141568519175052642822265625">
        <ele>324.600006103515625</ele>
        <time>2018-08-17T13:45:45.000Z</time>
      </trkpt>
      <trkpt lat="50.1251748763024806976318359375" lon="11.51423438452184200286865234375">
        <ele>324.600006103515625</ele>
        <time>2018-08-17T13:45:46.000Z</time>
      </trkpt>
      <trkpt lat="50.1252707652747631072998046875" lon="11.51439313776791095733642578125">
        <ele>324.600006103515625</ele>
        <time>2018-08-17T13:45:48.000Z</time>
      </trkpt>
      <trkpt lat="50.12559413909912109375" lon="11.5150882489979267120361328125">
        <ele>323.600006103515625</ele>
        <time>2018-08-17T13:45:56.000Z</time>
      </trkpt>
      <trkpt lat="50.12588859535753726959228515625" lon="11.51581973768770694732666015625">
        <ele>323.79998779296875</ele>
        <time>2018-08-17T13:46:04.000Z</time>
      </trkpt>
      <trkpt lat="50.1260033436119556427001953125" lon="11.51608091779053211212158203125">
        <ele>324</ele>
        <time>2018-08-17T13:46:07.000Z</time>
      </trkpt>
      <trkpt lat="50.1261491887271404266357421875" lon="11.5162972547113895416259765625">
        <ele>324.20001220703125</ele>
        <time>2018-08-17T13:46:10.000Z</time>
      </trkpt>
      <trkpt lat="50.1264499314129352569580078125" lon="11.5171049349009990692138671875">
        <ele>324.600006103515625</ele>
        <time>2018-08-17T13:46:19.000Z</time>
      </trkpt>
      <trkpt lat="50.126517824828624725341796875" lon="11.517291851341724395751953125">
        <ele>325</ele>
        <time>2018-08-17T13:46:21.000Z</time>
      </trkpt>
      <trkpt lat="50.12668152339756488800048828125" lon="11.51778512634336948394775390625">
        <ele>325.399993896484375</ele>
        <time>2018-08-17T13:46:27.000Z</time>
      </trkpt>
      <trkpt lat="50.12665470130741596221923828125" lon="11.51805837638676166534423828125">
        <ele>325.20001220703125</ele>
        <time>2018-08-17T13:46:34.000Z</time>
      </trkpt>
      <trkpt lat="50.1269005425274372100830078125" lon="11.51886069215834140777587890625">
        <ele>325.399993896484375</ele>
        <time>2018-08-17T13:46:46.000Z</time>
      </trkpt>
      <trkpt lat="50.12698628939688205718994140625" lon="11.51926822029054164886474609375">
        <ele>325.600006103515625</ele>
        <time>2018-08-17T13:46:51.000Z</time>
      </trkpt>
      <trkpt lat="50.12701327912509441375732421875" lon="11.519620008766651153564453125">
        <ele>325.600006103515625</ele>
        <time>2018-08-17T13:46:55.000Z</time>
      </trkpt>
      <trkpt lat="50.127097181975841522216796875" lon="11.5204902179539203643798828125">
        <ele>325.600006103515625</ele>
        <time>2018-08-17T13:47:05.000Z</time>
      </trkpt>
      <trkpt lat="50.12712769210338592529296875" lon="11.5205720253288745880126953125">
        <ele>325.600006103515625</ele>
        <time>2018-08-17T13:47:06.000Z</time>
      </trkpt>
      <trkpt lat="50.12717974372208118438720703125" lon="11.5211292542517185211181640625">
        <ele>325.600006103515625</ele>
        <time>2018-08-17T13:47:12.000Z</time>
      </trkpt>
      <trkpt lat="50.12739130295813083648681640625" lon="11.521284319460391998291015625">
        <ele>325.600006103515625</ele>
        <time>2018-08-17T13:47:17.000Z</time>
      </trkpt>
      <trkpt lat="50.12743639759719371795654296875" lon="11.52129362337291240692138671875">
        <ele>325.600006103515625</ele>
        <time>2018-08-17T13:47:18.000Z</time>
      </trkpt>
      <trkpt lat="50.12764879502356052398681640625" lon="11.52148774825036525726318359375">
        <ele>325.79998779296875</ele>
        <time>2018-08-17T13:47:24.000Z</time>
      </trkpt>
      <trkpt lat="50.12766589410603046417236328125" lon="11.52156670577824115753173828125">
        <ele>325.79998779296875</ele>
        <time>2018-08-17T13:47:25.000Z</time>
      </trkpt>
      <trkpt lat="50.1278436742722988128662109375" lon="11.52236332185566425323486328125">
        <ele>325.79998779296875</ele>
        <time>2018-08-17T13:47:34.000Z</time>
      </trkpt>
      <trkpt lat="50.1280186884105205535888671875" lon="11.52317552827298641204833984375">
        <ele>325.79998779296875</ele>
        <time>2018-08-17T13:47:43.000Z</time>
      </trkpt>
      <trkpt lat="50.1281548105180263519287109375" lon="11.52368799783289432525634765625">
        <ele>326</ele>
        <time>2018-08-17T13:47:49.000Z</time>
      </trkpt>
      <trkpt lat="50.1281983964145183563232421875" lon="11.52384976856410503387451171875">
        <ele>326.399993896484375</ele>
        <time>2018-08-17T13:47:51.000Z</time>
      </trkpt>
      <trkpt lat="50.12847273610532283782958984375" lon="11.5245980210602283477783203125">
        <ele>327</ele>
        <time>2018-08-17T13:48:00.000Z</time>
      </trkpt>
      <trkpt lat="50.12853182852268218994140625" lon="11.5247773937880992889404296875">
        <ele>327</ele>
        <time>2018-08-17T13:48:02.000Z</time>
      </trkpt>
      <trkpt lat="50.12880868278443813323974609375" lon="11.5255565755069255828857421875">
        <ele>327.20001220703125</ele>
        <time>2018-08-17T13:48:11.000Z</time>
      </trkpt>
      <trkpt lat="50.12908159755170345306396484375" lon="11.52630918659269809722900390625">
        <ele>327.399993896484375</ele>
        <time>2018-08-17T13:48:20.000Z</time>
      </trkpt>
      <trkpt lat="50.12924856506288051605224609375" lon="11.52712055481970310211181640625">
        <ele>328</ele>
        <time>2018-08-17T13:48:30.000Z</time>
      </trkpt>
      <trkpt lat="50.12926180846989154815673828125" lon="11.5272024460136890411376953125">
        <ele>328.20001220703125</ele>
        <time>2018-08-17T13:48:31.000Z</time>
      </trkpt>
      <trkpt lat="50.1293735392391681671142578125" lon="11.5275963954627513885498046875">
        <ele>328.20001220703125</ele>
        <time>2018-08-17T13:48:37.000Z</time>
      </trkpt>
      <trkpt lat="50.12958803214132785797119140625" lon="11.52746572159230709075927734375">
        <ele>328.399993896484375</ele>
        <time>2018-08-17T13:48:43.000Z</time>
      </trkpt>
      <trkpt lat="50.12969749979674816131591796875" lon="11.52737461030483245849609375">
        <ele>328.399993896484375</ele>
        <time>2018-08-17T13:48:46.000Z</time>
      </trkpt>
      <trkpt lat="50.12988760136067867279052734375" lon="11.527381651103496551513671875">
        <ele>328.399993896484375</ele>
        <time>2018-08-17T13:48:50.000Z</time>
      </trkpt>
      <trkpt lat="50.130097568035125732421875" lon="11.52742691338062286376953125">
        <ele>328.600006103515625</ele>
        <time>2018-08-17T13:48:54.000Z</time>
      </trkpt>
      <trkpt lat="50.13052579946815967559814453125" lon="11.52771583758294582366943359375">
        <ele>329</ele>
        <time>2018-08-17T13:49:03.000Z</time>
      </trkpt>
      <trkpt lat="50.130698718130588531494140625" lon="11.5276416577398777008056640625">
        <ele>329</ele>
        <time>2018-08-17T13:49:07.000Z</time>
      </trkpt>
      <trkpt lat="50.13077490963041782379150390625" lon="11.52758256532251834869384765625">
        <ele>329.20001220703125</ele>
        <time>2018-08-17T13:49:09.000Z</time>
      </trkpt>
      <trkpt lat="50.13098931871354579925537109375" lon="11.52771097607910633087158203125">
        <ele>329.399993896484375</ele>
        <time>2018-08-17T13:49:15.000Z</time>
      </trkpt>
      <trkpt lat="50.131282769143581390380859375" lon="11.52808899991214275360107421875">
        <ele>330.20001220703125</ele>
        <time>2018-08-17T13:49:24.000Z</time>
      </trkpt>
      <trkpt lat="50.13143741525709629058837890625" lon="11.5283008106052875518798828125">
        <ele>331.399993896484375</ele>
        <time>2018-08-17T13:49:29.000Z</time>
      </trkpt>
      <trkpt lat="50.1315508224070072174072265625" lon="11.52845797128975391387939453125">
        <ele>332.399993896484375</ele>
        <time>2018-08-17T13:49:33.000Z</time>
      </trkpt>
      <trkpt lat="50.131692476570606231689453125" lon="11.52865025214850902557373046875">
        <ele>333.600006103515625</ele>
        <time>2018-08-17T13:49:38.000Z</time>
      </trkpt>
      <trkpt lat="50.13179884292185306549072265625" lon="11.52880297042429447174072265625">
        <ele>334.79998779296875</ele>
        <time>2018-08-17T13:49:42.000Z</time>
      </trkpt>
      <trkpt lat="50.13188366778194904327392578125" lon="11.52891285717487335205078125">
        <ele>336</ele>
        <time>2018-08-17T13:49:45.000Z</time>
      </trkpt>
      <trkpt lat="50.1319863460958003997802734375" lon="11.5290528349578380584716796875">
        <ele>337.20001220703125</ele>
        <time>2018-08-17T13:49:49.000Z</time>
      </trkpt>
      <trkpt lat="50.13213646598160266876220703125" lon="11.52924721129238605499267578125">
        <ele>338.600006103515625</ele>
        <time>2018-08-17T13:49:54.000Z</time>
      </trkpt>
      <trkpt lat="50.13229404576122760772705078125" lon="11.52945223264396190643310546875">
        <ele>339.79998779296875</ele>
        <time>2018-08-17T13:49:59.000Z</time>
      </trkpt>
      <trkpt lat="50.13246168382465839385986328125" lon="11.5296979062259197235107421875">
        <ele>340.79998779296875</ele>
        <time>2018-08-17T13:50:04.000Z</time>
      </trkpt>
      <trkpt lat="50.13266234658658504486083984375" lon="11.530041061341762542724609375">
        <ele>341.79998779296875</ele>
        <time>2018-08-17T13:50:10.000Z</time>
      </trkpt>
      <trkpt lat="50.132794864475727081298828125" lon="11.5302843041718006134033203125">
        <ele>342.399993896484375</ele>
        <time>2018-08-17T13:50:14.000Z</time>
      </trkpt>
      <trkpt lat="50.132930986583232879638671875" lon="11.5305458195507526397705078125">
        <ele>342.79998779296875</ele>
        <time>2018-08-17T13:50:18.000Z</time>
      </trkpt>
      <trkpt lat="50.1329606585204601287841796875" lon="11.53061782009899616241455078125">
        <ele>342.79998779296875</ele>
        <time>2018-08-17T13:50:19.000Z</time>
      </trkpt>
      <trkpt lat="50.13325662352144718170166015625" lon="11.53138275258243083953857421875">
        <ele>343.20001220703125</ele>
        <time>2018-08-17T13:50:29.000Z</time>
      </trkpt>
      <trkpt lat="50.1335400156676769256591796875" lon="11.53220183216035366058349609375">
        <ele>343.79998779296875</ele>
        <time>2018-08-17T13:50:39.000Z</time>
      </trkpt>
      <trkpt lat="50.13364336453378200531005859375" lon="11.532556973397731781005859375">
        <ele>344</ele>
        <time>2018-08-17T13:50:43.000Z</time>
      </trkpt>
      <trkpt lat="50.13367454521358013153076171875" lon="11.532744057476520538330078125">
        <ele>344</ele>
        <time>2018-08-17T13:50:45.000Z</time>
      </trkpt>
      <trkpt lat="50.1335916481912136077880859375" lon="11.53335082344710826873779296875">
        <ele>344.399993896484375</ele>
        <time>2018-08-17T13:50:52.000Z</time>
      </trkpt>
      <trkpt lat="50.133388303220272064208984375" lon="11.53392867185175418853759765625">
        <ele>345.399993896484375</ele>
        <time>2018-08-17T13:50:59.000Z</time>
      </trkpt>
      <trkpt lat="50.133101306855678558349609375" lon="11.5346936881542205810546875">
        <ele>346</ele>
        <time>2018-08-17T13:51:08.000Z</time>
      </trkpt>
      <trkpt lat="50.13295889832079410552978515625" lon="11.53519987128674983978271484375">
        <ele>346.20001220703125</ele>
        <time>2018-08-17T13:51:14.000Z</time>
      </trkpt>
      <trkpt lat="50.13341252692043781280517578125" lon="11.53547488152980804443359375">
        <ele>346</ele>
        <time>2018-08-17T13:51:23.000Z</time>
      </trkpt>
      <trkpt lat="50.13394561596214771270751953125" lon="11.53566305525600910186767578125">
        <ele>345.399993896484375</ele>
        <time>2018-08-17T13:51:30.000Z</time>
      </trkpt>
      <trkpt lat="50.13434828259050846099853515625" lon="11.5358150191605091094970703125">
        <ele>344.399993896484375</ele>
        <time>2018-08-17T13:51:35.000Z</time>
      </trkpt>
      <trkpt lat="50.13458113186061382293701171875" lon="11.53591065667569637298583984375">
        <ele>343.20001220703125</ele>
        <time>2018-08-17T13:51:38.000Z</time>
      </trkpt>
      <trkpt lat="50.1349850557744503021240234375" lon="11.53619597665965557098388671875">
        <ele>342.20001220703125</ele>
        <time>2018-08-17T13:51:44.000Z</time>
      </trkpt>
      <trkpt lat="50.13546424917876720428466796875" lon="11.536755301058292388916015625">
        <ele>341.79998779296875</ele>
        <time>2018-08-17T13:51:52.000Z</time>
      </trkpt>
      <trkpt lat="50.135825090110301971435546875" lon="11.53739861212670803070068359375">
        <ele>342</ele>
        <time>2018-08-17T13:52:00.000Z</time>
      </trkpt>
      <trkpt lat="50.136190541088581085205078125" lon="11.5380871854722499847412109375">
        <ele>342.399993896484375</ele>
        <time>2018-08-17T13:52:09.000Z</time>
      </trkpt>
      <trkpt lat="50.13645909726619720458984375" lon="11.5386041812598705291748046875">
        <ele>343.399993896484375</ele>
        <time>2018-08-17T13:52:16.000Z</time>
      </trkpt>
      <trkpt lat="50.13683192431926727294921875" lon="11.53933030553162097930908203125">
        <ele>344.20001220703125</ele>
        <time>2018-08-17T13:52:26.000Z</time>
      </trkpt>
      <trkpt lat="50.13690032064914703369140625" lon="11.5394728817045688629150390625">
        <ele>344.600006103515625</ele>
        <time>2018-08-17T13:52:28.000Z</time>
      </trkpt>
      <trkpt lat="50.137182287871837615966796875" lon="11.540025584399700164794921875">
        <ele>345.79998779296875</ele>
        <time>2018-08-17T13:52:36.000Z</time>
      </trkpt>
      <trkpt lat="50.13735830783843994140625" lon="11.54035574756562709808349609375">
        <ele>346.79998779296875</ele>
        <time>2018-08-17T13:52:41.000Z</time>
      </trkpt>
      <trkpt lat="50.13758688233792781829833984375" lon="11.54093493707478046417236328125">
        <ele>347.79998779296875</ele>
        <time>2018-08-17T13:52:49.000Z</time>
      </trkpt>
      <trkpt lat="50.1377001218497753143310546875" lon="11.54142762534320354461669921875">
        <ele>349</ele>
        <time>2018-08-17T13:52:55.000Z</time>
      </trkpt>
      <trkpt lat="50.1378516666591167449951171875" lon="11.54218233190476894378662109375">
        <ele>350.399993896484375</ele>
        <time>2018-08-17T13:53:04.000Z</time>
      </trkpt>
      <trkpt lat="50.13800329528748989105224609375" lon="11.54263227246701717376708984375">
        <ele>351.600006103515625</ele>
        <time>2018-08-17T13:53:10.000Z</time>
      </trkpt>
      <trkpt lat="50.13815601356327533721923828125" lon="11.5429621003568172454833984375">
        <ele>352.20001220703125</ele>
        <time>2018-08-17T13:53:15.000Z</time>
      </trkpt>
      <trkpt lat="50.13825215399265289306640625" lon="11.54311171732842922210693359375">
        <ele>352.399993896484375</ele>
        <time>2018-08-17T13:53:18.000Z</time>
      </trkpt>
      <trkpt lat="50.1382855139672756195068359375" lon="11.54315127991139888763427734375">
        <ele>352.600006103515625</ele>
        <time>2018-08-17T13:53:19.000Z</time>
      </trkpt>
      <trkpt lat="50.1384580135345458984375" lon="11.543362922966480255126953125">
        <ele>353.600006103515625</ele>
        <time>2018-08-17T13:53:24.000Z</time>
      </trkpt>
      <trkpt lat="50.1389607600867748260498046875" lon="11.54375678859651088714599609375">
        <ele>354.79998779296875</ele>
        <time>2018-08-17T13:53:36.000Z</time>
      </trkpt>
      <trkpt lat="50.1392752490937709808349609375" lon="11.544016040861606597900390625">
        <ele>355.79998779296875</ele>
        <time>2018-08-17T13:53:46.000Z</time>
      </trkpt>
      <trkpt lat="50.1393337547779083251953125" lon="11.54406406916677951812744140625">
        <ele>356.600006103515625</ele>
        <time>2018-08-17T13:53:51.000Z</time>
      </trkpt>
      <trkpt lat="50.13939217664301395416259765625" lon="11.54407110996544361114501953125">
        <ele>357</ele>
        <time>2018-08-17T13:54:30.000Z</time>
      </trkpt>
      <trkpt lat="50.139506757259368896484375" lon="11.54423187486827373504638671875">
        <ele>357</ele>
        <time>2018-08-17T13:54:35.000Z</time>
      </trkpt>
      <trkpt lat="50.1398240961134433746337890625" lon="11.54470863752067089080810546875">
        <ele>357.399993896484375</ele>
        <time>2018-08-17T13:54:45.000Z</time>
      </trkpt>
      <trkpt lat="50.1399531774222850799560546875" lon="11.54501055367290973663330078125">
        <ele>358.399993896484375</ele>
        <time>2018-08-17T13:54:50.000Z</time>
      </trkpt>
      <trkpt lat="50.14019432477653026580810546875" lon="11.54565378092229366302490234375">
        <ele>359.399993896484375</ele>
        <time>2018-08-17T13:54:59.000Z</time>
      </trkpt>
      <trkpt lat="50.14042197726666927337646484375" lon="11.54626616276800632476806640625">
        <ele>360.600006103515625</ele>
        <time>2018-08-17T13:55:07.000Z</time>
      </trkpt>
      <trkpt lat="50.140712074935436248779296875" lon="11.547047607600688934326171875">
        <ele>361.79998779296875</ele>
        <time>2018-08-17T13:55:17.000Z</time>
      </trkpt>
      <trkpt lat="50.140910558402538299560546875" lon="11.54755881987512111663818359375">
        <ele>362.79998779296875</ele>
        <time>2018-08-17T13:55:24.000Z</time>
      </trkpt>
      <trkpt lat="50.14114357531070709228515625" lon="11.5480569563806056976318359375">
        <ele>364</ele>
        <time>2018-08-17T13:55:31.000Z</time>
      </trkpt>
      <trkpt lat="50.14140115119516849517822265625" lon="11.5484244190156459808349609375">
        <ele>365.20001220703125</ele>
        <time>2018-08-17T13:55:37.000Z</time>
      </trkpt>
      <trkpt lat="50.14165897853672504425048828125" lon="11.54874066822230815887451171875">
        <ele>366.20001220703125</ele>
        <time>2018-08-17T13:55:43.000Z</time>
      </trkpt>
      <trkpt lat="50.1419303007423877716064453125" lon="11.54907879419624805450439453125">
        <ele>367.20001220703125</ele>
        <time>2018-08-17T13:55:49.000Z</time>
      </trkpt>
      <trkpt lat="50.14234310947358608245849609375" lon="11.5496443212032318115234375">
        <ele>368.399993896484375</ele>
        <time>2018-08-17T13:55:59.000Z</time>
      </trkpt>
      <trkpt lat="50.1425991766154766082763671875" lon="11.54999895952641963958740234375">
        <ele>368.600006103515625</ele>
        <time>2018-08-17T13:56:05.000Z</time>
      </trkpt>
      <trkpt lat="50.14291542582213878631591796875" lon="11.55053615570068359375">
        <ele>369.399993896484375</ele>
        <time>2018-08-17T13:56:14.000Z</time>
      </trkpt>
      <trkpt lat="50.14298935420811176300048828125" lon="11.5506674163043498992919921875">
        <ele>369.600006103515625</ele>
        <time>2018-08-17T13:56:16.000Z</time>
      </trkpt>
      <trkpt lat="50.14309999532997608184814453125" lon="11.5508766286075115203857421875">
        <ele>370</ele>
        <time>2018-08-17T13:56:19.000Z</time>
      </trkpt>
      <trkpt lat="50.14323326759040355682373046875" lon="11.551149375736713409423828125">
        <ele>370.600006103515625</ele>
        <time>2018-08-17T13:56:23.000Z</time>
      </trkpt>
      <trkpt lat="50.14358966611325740814208984375" lon="11.55178866349160671234130859375">
        <ele>371.20001220703125</ele>
        <time>2018-08-17T13:56:32.000Z</time>
      </trkpt>
      <trkpt lat="50.14363140799105167388916015625" lon="11.55186074785888195037841796875">
        <ele>371.600006103515625</ele>
        <time>2018-08-17T13:56:33.000Z</time>
      </trkpt>
      <trkpt lat="50.1437924243509769439697265625" lon="11.55215847305953502655029296875">
        <ele>372.79998779296875</ele>
        <time>2018-08-17T13:56:37.000Z</time>
      </trkpt>
      <trkpt lat="50.14411588199436664581298828125" lon="11.55272089876234531402587890625">
        <ele>373.600006103515625</ele>
        <time>2018-08-17T13:56:45.000Z</time>
      </trkpt>
      <trkpt lat="50.1444093324244022369384765625" lon="11.55326002277433872222900390625">
        <ele>374.600006103515625</ele>
        <time>2018-08-17T13:56:53.000Z</time>
      </trkpt>
      <trkpt lat="50.14462399296462535858154296875" lon="11.55365229584276676177978515625">
        <ele>375.79998779296875</ele>
        <time>2018-08-17T13:56:59.000Z</time>
      </trkpt>
      <trkpt lat="50.14487243257462978363037109375" lon="11.55409167520701885223388671875">
        <ele>376.600006103515625</ele>
        <time>2018-08-17T13:57:06.000Z</time>
      </trkpt>
      <trkpt lat="50.145035795867443084716796875" lon="11.55440951697528362274169921875">
        <ele>377.79998779296875</ele>
        <time>2018-08-17T13:57:11.000Z</time>
      </trkpt>
      <trkpt lat="50.1453229598701000213623046875" lon="11.55497194267809391021728515625">
        <ele>378.600006103515625</ele>
        <time>2018-08-17T13:57:19.000Z</time>
      </trkpt>
      <trkpt lat="50.14558405615389347076416015625" lon="11.55559890903532505035400390625">
        <ele>380</ele>
        <time>2018-08-17T13:57:28.000Z</time>
      </trkpt>
      <trkpt lat="50.14571531675755977630615234375" lon="11.5559634380042552947998046875">
        <ele>381</ele>
        <time>2018-08-17T13:57:33.000Z</time>
      </trkpt>
      <trkpt lat="50.14584121294319629669189453125" lon="11.556321680545806884765625">
        <ele>381.79998779296875</ele>
        <time>2018-08-17T13:57:38.000Z</time>
      </trkpt>
      <trkpt lat="50.14598588459193706512451171875" lon="11.55674479901790618896484375">
        <ele>383</ele>
        <time>2018-08-17T13:57:44.000Z</time>
      </trkpt>
      <trkpt lat="50.14600331895053386688232421875" lon="11.55681512318551540374755859375">
        <ele>383.20001220703125</ele>
        <time>2018-08-17T13:57:45.000Z</time>
      </trkpt>
      <trkpt lat="50.14611563645303249359130859375" lon="11.55717168934643268585205078125">
        <ele>383.79998779296875</ele>
        <time>2018-08-17T13:57:50.000Z</time>
      </trkpt>
      <trkpt lat="50.146198533475399017333984375" lon="11.5573930554091930389404296875">
        <ele>384.399993896484375</ele>
        <time>2018-08-17T13:57:53.000Z</time>
      </trkpt>
      <trkpt lat="50.14629400335252285003662109375" lon="11.55760335735976696014404296875">
        <ele>385</ele>
        <time>2018-08-17T13:57:56.000Z</time>
      </trkpt>
      <trkpt lat="50.14651067554950714111328125" lon="11.55807173810899257659912109375">
        <ele>385.79998779296875</ele>
        <time>2018-08-17T13:58:03.000Z</time>
      </trkpt>
      <trkpt lat="50.14660849235951900482177734375" lon="11.55825354158878326416015625">
        <ele>386.399993896484375</ele>
        <time>2018-08-17T13:58:06.000Z</time>
      </trkpt>
      <trkpt lat="50.14667906798422336578369140625" lon="11.55835948884487152099609375">
        <ele>386.79998779296875</ele>
        <time>2018-08-17T13:58:08.000Z</time>
      </trkpt>
      <trkpt lat="50.14671494252979755401611328125" lon="11.55840869061648845672607421875">
        <ele>387.20001220703125</ele>
        <time>2018-08-17T13:58:09.000Z</time>
      </trkpt>
      <trkpt lat="50.14682876877486705780029296875" lon="11.55855101533234119415283203125">
        <ele>387.600006103515625</ele>
        <time>2018-08-17T13:58:12.000Z</time>
      </trkpt>
      <trkpt lat="50.14690990559756755828857421875" lon="11.5586433000862598419189453125">
        <ele>388</ele>
        <time>2018-08-17T13:58:14.000Z</time>
      </trkpt>
      <trkpt lat="50.14717376790940761566162109375" lon="11.55890523456037044525146484375">
        <ele>388.79998779296875</ele>
        <time>2018-08-17T13:58:21.000Z</time>
      </trkpt>
      <trkpt lat="50.14741323888301849365234375" lon="11.55909240245819091796875">
        <ele>389.79998779296875</ele>
        <time>2018-08-17T13:58:27.000Z</time>
      </trkpt>
      <trkpt lat="50.147526562213897705078125" lon="11.55916088260710239410400390625">
        <ele>390</ele>
        <time>2018-08-17T13:58:30.000Z</time>
      </trkpt>
      <trkpt lat="50.1476915180683135986328125" lon="11.559271775186061859130859375">
        <ele>390.79998779296875</ele>
        <time>2018-08-17T13:58:34.000Z</time>
      </trkpt>
      <trkpt lat="50.14786544255912303924560546875" lon="11.5593661554157733917236328125">
        <ele>391.79998779296875</ele>
        <time>2018-08-17T13:58:38.000Z</time>
      </trkpt>
      <trkpt lat="50.14810114167630672454833984375" lon="11.55948777683079242706298828125">
        <ele>392.600006103515625</ele>
        <time>2018-08-17T13:58:44.000Z</time>
      </trkpt>
      <trkpt lat="50.14813869260251522064208984375" lon="11.5595039539039134979248046875">
        <ele>392.600006103515625</ele>
        <time>2018-08-17T13:58:45.000Z</time>
      </trkpt>
      <trkpt lat="50.1483548618853092193603515625" lon="11.55963965691626071929931640625">
        <ele>393.600006103515625</ele>
        <time>2018-08-17T13:58:51.000Z</time>
      </trkpt>
      <trkpt lat="50.14862819574773311614990234375" lon="11.55982933938503265380859375">
        <ele>394.399993896484375</ele>
        <time>2018-08-17T13:58:56.000Z</time>
      </trkpt>
      <trkpt lat="50.14869474805891513824462890625" lon="11.55989027582108974456787109375">
        <ele>394.600006103515625</ele>
        <time>2018-08-17T13:58:57.000Z</time>
      </trkpt>
      <trkpt lat="50.14902533032000064849853515625" lon="11.5602905116975307464599609375">
        <ele>396</ele>
        <time>2018-08-17T13:59:04.000Z</time>
      </trkpt>
      <trkpt lat="50.14924594201147556304931640625" lon="11.56064447946846485137939453125">
        <ele>396.79998779296875</ele>
        <time>2018-08-17T13:59:10.000Z</time>
      </trkpt>
      <trkpt lat="50.14949019066989421844482421875" lon="11.5609942562878131866455078125">
        <ele>397.79998779296875</ele>
        <time>2018-08-17T13:59:16.000Z</time>
      </trkpt>
      <trkpt lat="50.14973259530961513519287109375" lon="11.56131788156926631927490234375">
        <ele>399</ele>
        <time>2018-08-17T13:59:22.000Z</time>
      </trkpt>
      <trkpt lat="50.149987153708934783935546875" lon="11.56167176552116870880126953125">
        <ele>399.79998779296875</ele>
        <time>2018-08-17T13:59:29.000Z</time>
      </trkpt>
      <trkpt lat="50.1501700468361377716064453125" lon="11.561898328363895416259765625">
        <ele>401</ele>
        <time>2018-08-17T13:59:34.000Z</time>
      </trkpt>
      <trkpt lat="50.15035922639071941375732421875" lon="11.56216579489409923553466796875">
        <ele>402.20001220703125</ele>
        <time>2018-08-17T13:59:40.000Z</time>
      </trkpt>
      <trkpt lat="50.1504878886044025421142578125" lon="11.562365032732486724853515625">
        <ele>403</ele>
        <time>2018-08-17T13:59:47.000Z</time>
      </trkpt>
      <trkpt lat="50.1504957675933837890625" lon="11.5624040924012660980224609375">
        <ele>403.79998779296875</ele>
        <time>2018-08-17T13:59:51.000Z</time>
      </trkpt>
      <trkpt lat="50.15052460134029388427734375" lon="11.56247559003531932830810546875">
        <ele>404.600006103515625</ele>
        <time>2018-08-17T14:00:22.000Z</time>
      </trkpt>
      <trkpt lat="50.15083012171089649200439453125" lon="11.5630070865154266357421875">
        <ele>405.600006103515625</ele>
        <time>2018-08-17T14:00:36.000Z</time>
      </trkpt>
      <trkpt lat="50.15096272341907024383544921875" lon="11.5632892213761806488037109375">
        <ele>406.600006103515625</ele>
        <time>2018-08-17T14:00:42.000Z</time>
      </trkpt>
      <trkpt lat="50.151050649583339691162109375" lon="11.5634858608245849609375">
        <ele>407.600006103515625</ele>
        <time>2018-08-17T14:00:46.000Z</time>
      </trkpt>
      <trkpt lat="50.15114016830921173095703125" lon="11.5636831708252429962158203125">
        <ele>408.600006103515625</ele>
        <time>2018-08-17T14:00:50.000Z</time>
      </trkpt>
      <trkpt lat="50.15125416219234466552734375" lon="11.5638933889567852020263671875">
        <ele>409.600006103515625</ele>
        <time>2018-08-17T14:00:55.000Z</time>
      </trkpt>
      <trkpt lat="50.1513572596013545989990234375" lon="11.5640388987958431243896484375">
        <ele>411</ele>
        <time>2018-08-17T14:00:59.000Z</time>
      </trkpt>
      <trkpt lat="50.15150469727814197540283203125" lon="11.56418281607329845428466796875">
        <ele>412</ele>
        <time>2018-08-17T14:01:04.000Z</time>
      </trkpt>
      <trkpt lat="50.15171323902904987335205078125" lon="11.56426546163856983184814453125">
        <ele>413</ele>
        <time>2018-08-17T14:01:10.000Z</time>
      </trkpt>
      <trkpt lat="50.1518910191953182220458984375" lon="11.564286835491657257080078125">
        <ele>414.20001220703125</ele>
        <time>2018-08-17T14:01:15.000Z</time>
      </trkpt>
      <trkpt lat="50.15207332558929920196533203125" lon="11.5642846561968326568603515625">
        <ele>415.399993896484375</ele>
        <time>2018-08-17T14:01:20.000Z</time>
      </trkpt>
      <trkpt lat="50.15225605107843875885009765625" lon="11.5642816387116909027099609375">
        <ele>416.600006103515625</ele>
        <time>2018-08-17T14:01:25.000Z</time>
      </trkpt>
      <trkpt lat="50.15242402441799640655517578125" lon="11.56424215994775295257568359375">
        <ele>417.600006103515625</ele>
        <time>2018-08-17T14:01:30.000Z</time>
      </trkpt>
      <trkpt lat="50.15258453786373138427734375" lon="11.56417778693139553070068359375">
        <ele>418.79998779296875</ele>
        <time>2018-08-17T14:01:35.000Z</time>
      </trkpt>
      <trkpt lat="50.1527352444827556610107421875" lon="11.56409539282321929931640625">
        <ele>420</ele>
        <time>2018-08-17T14:01:40.000Z</time>
      </trkpt>
      <trkpt lat="50.1528770662844181060791015625" lon="11.56406697817146778106689453125">
        <ele>420.79998779296875</ele>
        <time>2018-08-17T14:01:44.000Z</time>
      </trkpt>
      <trkpt lat="50.153012014925479888916015625" lon="11.56405893154442310333251953125">
        <ele>422</ele>
        <time>2018-08-17T14:01:48.000Z</time>
      </trkpt>
      <trkpt lat="50.15315123833715915679931640625" lon="11.56405976973474025726318359375">
        <ele>423</ele>
        <time>2018-08-17T14:01:52.000Z</time>
      </trkpt>
      <trkpt lat="50.15325617976486682891845703125" lon="11.56406848691403865814208984375">
        <ele>424</ele>
        <time>2018-08-17T14:01:55.000Z</time>
      </trkpt>
      <trkpt lat="50.15343555249273777008056640625" lon="11.56408290378749370574951171875">
        <ele>425</ele>
        <time>2018-08-17T14:02:00.000Z</time>
      </trkpt>
      <trkpt lat="50.1535781286656856536865234375" lon="11.56409002840518951416015625">
        <ele>426</ele>
        <time>2018-08-17T14:02:04.000Z</time>
      </trkpt>
      <trkpt lat="50.15374903567135334014892578125" lon="11.5641086362302303314208984375">
        <ele>427.20001220703125</ele>
        <time>2018-08-17T14:02:09.000Z</time>
      </trkpt>
      <trkpt lat="50.15392287634313106536865234375" lon="11.56412263400852680206298828125">
        <ele>428</ele>
        <time>2018-08-17T14:02:14.000Z</time>
      </trkpt>
      <trkpt lat="50.154090262949466705322265625" lon="11.56411374919116497039794921875">
        <ele>429.20001220703125</ele>
        <time>2018-08-17T14:02:19.000Z</time>
      </trkpt>
      <trkpt lat="50.154221020638942718505859375" lon="11.56409136950969696044921875">
        <ele>430.20001220703125</ele>
        <time>2018-08-17T14:02:23.000Z</time>
      </trkpt>
      <trkpt lat="50.15438874252140522003173828125" lon="11.564051806926727294921875">
        <ele>431.399993896484375</ele>
        <time>2018-08-17T14:02:28.000Z</time>
      </trkpt>
      <trkpt lat="50.15455327928066253662109375" lon="11.5640097297728061676025390625">
        <ele>432.600006103515625</ele>
        <time>2018-08-17T14:02:33.000Z</time>
      </trkpt>
      <trkpt lat="50.15467590652406215667724609375" lon="11.56397477723658084869384765625">
        <ele>433.399993896484375</ele>
        <time>2018-08-17T14:02:37.000Z</time>
      </trkpt>
      <trkpt lat="50.15478654764592647552490234375" lon="11.5639990009367465972900390625">
        <ele>434.399993896484375</ele>
        <time>2018-08-17T14:02:41.000Z</time>
      </trkpt>
      <trkpt lat="50.1548736356198787689208984375" lon="11.56413420103490352630615234375">
        <ele>435.600006103515625</ele>
        <time>2018-08-17T14:02:46.000Z</time>
      </trkpt>
      <trkpt lat="50.15490657649934291839599609375" lon="11.5642075426876544952392578125">
        <ele>436.20001220703125</ele>
        <time>2018-08-17T14:02:48.000Z</time>
      </trkpt>
      <trkpt lat="50.15493658371269702911376953125" lon="11.56427669338881969451904296875">
        <ele>437</ele>
        <time>2018-08-17T14:02:50.000Z</time>
      </trkpt>
      <trkpt lat="50.15501470305025577545166015625" lon="11.5643832273781299591064453125">
        <ele>438.399993896484375</ele>
        <time>2018-08-17T14:02:54.000Z</time>
      </trkpt>
      <trkpt lat="50.155100114643573760986328125" lon="11.5644650347530841827392578125">
        <ele>439.399993896484375</ele>
        <time>2018-08-17T14:02:58.000Z</time>
      </trkpt>
      <trkpt lat="50.1551968418061733245849609375" lon="11.56451138667762279510498046875">
        <ele>440.399993896484375</ele>
        <time>2018-08-17T14:03:02.000Z</time>
      </trkpt>
      <trkpt lat="50.155332125723361968994140625" lon="11.56456402502954006195068359375">
        <ele>441.600006103515625</ele>
        <time>2018-08-17T14:03:07.000Z</time>
      </trkpt>
      <trkpt lat="50.155446790158748626708984375" lon="11.5646095387637615203857421875">
        <ele>442.600006103515625</ele>
        <time>2018-08-17T14:03:11.000Z</time>
      </trkpt>
      <trkpt lat="50.1555304415524005889892578125" lon="11.56465806998312473297119140625">
        <ele>443.600006103515625</ele>
        <time>2018-08-17T14:03:14.000Z</time>
      </trkpt>
      <trkpt lat="50.15563982538878917694091796875" lon="11.56471758149564266204833984375">
        <ele>445</ele>
        <time>2018-08-17T14:03:18.000Z</time>
      </trkpt>
      <trkpt lat="50.155731774866580963134765625" lon="11.56478497199714183807373046875">
        <ele>446.399993896484375</ele>
        <time>2018-08-17T14:03:22.000Z</time>
      </trkpt>
      <trkpt lat="50.1558211259543895721435546875" lon="11.56485923565924167633056640625">
        <ele>447.600006103515625</ele>
        <time>2018-08-17T14:03:26.000Z</time>
      </trkpt>
      <trkpt lat="50.15592388808727264404296875" lon="11.56493450514972209930419921875">
        <ele>448.600006103515625</ele>
        <time>2018-08-17T14:03:30.000Z</time>
      </trkpt>
      <trkpt lat="50.1560142450034618377685546875" lon="11.56500910408794879913330078125">
        <ele>449.399993896484375</ele>
        <time>2018-08-17T14:03:34.000Z</time>
      </trkpt>
      <trkpt lat="50.1561061106622219085693359375" lon="11.56510122120380401611328125">
        <ele>450.600006103515625</ele>
        <time>2018-08-17T14:03:38.000Z</time>
      </trkpt>
      <trkpt lat="50.1561919413506984710693359375" lon="11.56521596945822238922119140625">
        <ele>451.79998779296875</ele>
        <time>2018-08-17T14:03:42.000Z</time>
      </trkpt>
      <trkpt lat="50.15626561827957630157470703125" lon="11.565343625843524932861328125">
        <ele>452.79998779296875</ele>
        <time>2018-08-17T14:03:46.000Z</time>
      </trkpt>
      <trkpt lat="50.1563374511897563934326171875" lon="11.56547932885587215423583984375">
        <ele>454.20001220703125</ele>
        <time>2018-08-17T14:03:50.000Z</time>
      </trkpt>
      <trkpt lat="50.15639738179743289947509765625" lon="11.56560949981212615966796875">
        <ele>455.20001220703125</ele>
        <time>2018-08-17T14:03:54.000Z</time>
      </trkpt>
      <trkpt lat="50.15641112811863422393798828125" lon="11.56570195220410823822021484375">
        <ele>455.79998779296875</ele>
        <time>2018-08-17T14:03:57.000Z</time>
      </trkpt>
      <trkpt lat="50.15639738179743289947509765625" lon="11.56575433909893035888671875">
        <ele>456.20001220703125</ele>
        <time>2018-08-17T14:03:59.000Z</time>
      </trkpt>
      <trkpt lat="50.1563183404505252838134765625" lon="11.565805636346340179443359375">
        <ele>457.399993896484375</ele>
        <time>2018-08-17T14:04:03.000Z</time>
      </trkpt>
      <trkpt lat="50.1562009938061237335205078125" lon="11.5657752938568592071533203125">
        <ele>458.20001220703125</ele>
        <time>2018-08-17T14:04:07.000Z</time>
      </trkpt>
      <trkpt lat="50.156170986592769622802734375" lon="11.5657652355730533599853515625">
        <ele>458.399993896484375</ele>
        <time>2018-08-17T14:04:08.000Z</time>
      </trkpt>
      <trkpt lat="50.156134776771068572998046875" lon="11.565741933882236480712890625">
        <ele>458.79998779296875</ele>
        <time>2018-08-17T14:04:10.000Z</time>
      </trkpt>
      <trkpt lat="50.156125724315643310546875" lon="11.56568049453198909759521484375">
        <ele>459.399993896484375</ele>
        <time>2018-08-17T14:04:17.000Z</time>
      </trkpt>
      <trkpt lat="50.15612714923918247222900390625" lon="11.56567295081913471221923828125">
        <ele>459.399993896484375</ele>
        <time>2018-08-17T14:04:19.000Z</time>
      </trkpt>
      <trkpt lat="50.156074427068233489990234375" lon="11.56568904407322406768798828125">
        <ele>459.600006103515625</ele>
        <time>2018-08-17T14:04:25.000Z</time>
      </trkpt>
      <trkpt lat="50.15599639154970645904541015625" lon="11.56571544706821441650390625">
        <ele>459.600006103515625</ele>
        <time>2018-08-17T14:04:29.000Z</time>
      </trkpt>
      <trkpt lat="50.15545492060482501983642578125" lon="11.5657697618007659912109375">
        <ele>460</ele>
        <time>2018-08-17T14:04:48.000Z</time>
      </trkpt>
      <trkpt lat="50.1554167829453945159912109375" lon="11.56577738933265209197998046875">
        <ele>460.20001220703125</ele>
        <time>2018-08-17T14:04:50.000Z</time>
      </trkpt>
      <trkpt lat="50.15534578822553157806396484375" lon="11.5657283551990985870361328125">
        <ele>460.20001220703125</ele>
        <time>2018-08-17T14:04:54.000Z</time>
      </trkpt>
      <trkpt lat="50.15479844994843006134033203125" lon="11.5655553527176380157470703125">
        <ele>459.79998779296875</ele>
        <time>2018-08-17T14:05:09.000Z</time>
      </trkpt>
      <trkpt lat="50.15445445664227008819580078125" lon="11.56545300967991352081298828125">
        <ele>459</ele>
        <time>2018-08-17T14:05:17.000Z</time>
      </trkpt>
      <trkpt lat="50.153893120586872100830078125" lon="11.565502546727657318115234375">
        <ele>459</ele>
        <time>2018-08-17T14:05:33.000Z</time>
      </trkpt>
      <trkpt lat="50.153732858598232269287109375" lon="11.5655281953513622283935546875">
        <ele>459.600006103515625</ele>
        <time>2018-08-17T14:05:39.000Z</time>
      </trkpt>
      <trkpt lat="50.153770409524440765380859375" lon="11.56566691584885120391845703125">
        <ele>460.399993896484375</ele>
        <time>2018-08-17T14:05:47.000Z</time>
      </trkpt>
      <trkpt lat="50.15388247556984424591064453125" lon="11.5657132677733898162841796875">
        <ele>460.79998779296875</ele>
        <time>2018-08-17T14:05:52.000Z</time>
      </trkpt>
      <trkpt lat="50.154043994843959808349609375" lon="11.5657340548932552337646484375">
        <ele>461.79998779296875</ele>
        <time>2018-08-17T14:06:00.000Z</time>
      </trkpt>
      <trkpt lat="50.1541467569768428802490234375" lon="11.5657421015202999114990234375">
        <ele>462.79998779296875</ele>
        <time>2018-08-17T14:06:08.000Z</time>
      </trkpt>
      <trkpt lat="50.15420325100421905517578125" lon="11.565752327442169189453125">
        <ele>463</ele>
        <time>2018-08-17T14:06:26.000Z</time>
      </trkpt>
      <trkpt lat="50.1542503573000431060791015625" lon="11.56576263718307018280029296875">
        <ele>463</ele>
        <time>2018-08-17T14:06:32.000Z</time>
      </trkpt>
      <trkpt lat="50.154308192431926727294921875" lon="11.56580907292664051055908203125">
        <ele>463.399993896484375</ele>
        <time>2018-08-17T14:06:37.000Z</time>
      </trkpt>
      <trkpt lat="50.15431883744895458221435546875" lon="11.56583011150360107421875">
        <ele>463.600006103515625</ele>
        <time>2018-08-17T14:06:38.000Z</time>
      </trkpt>
      <trkpt lat="50.15439980663359165191650390625" lon="11.56597025692462921142578125">
        <ele>464</ele>
        <time>2018-08-17T14:06:47.000Z</time>
      </trkpt>
      <trkpt lat="50.15441305004060268402099609375" lon="11.56598366796970367431640625">
        <ele>464.20001220703125</ele>
        <time>2018-08-17T14:06:50.000Z</time>
      </trkpt>
      <trkpt lat="50.15447147190570831298828125" lon="11.56601811759173870086669921875">
        <ele>465.399993896484375</ele>
        <time>2018-08-17T14:07:07.000Z</time>
      </trkpt>
      <trkpt lat="50.15459879301488399505615234375" lon="11.56603731215000152587890625">
        <ele>466</ele>
        <time>2018-08-17T14:07:21.000Z</time>
      </trkpt>
      <trkpt lat="50.15468613244593143463134765625" lon="11.5661109052598476409912109375">
        <ele>466.79998779296875</ele>
        <time>2018-08-17T14:11:31.000Z</time>
      </trkpt>
      <trkpt lat="50.1549200713634490966796875" lon="11.5662034414708614349365234375">
        <ele>468</ele>
        <time>2018-08-17T14:11:46.000Z</time>
      </trkpt>
      <trkpt lat="50.15498402528464794158935546875" lon="11.56627795659005641937255859375">
        <ele>469</ele>
        <time>2018-08-17T14:11:50.000Z</time>
      </trkpt>
      <trkpt lat="50.155101455748081207275390625" lon="11.566410474479198455810546875">
        <ele>470.20001220703125</ele>
        <time>2018-08-17T14:11:57.000Z</time>
      </trkpt>
      <trkpt lat="50.15522181987762451171875" lon="11.56648264266550540924072265625">
        <ele>471.20001220703125</ele>
        <time>2018-08-17T14:12:03.000Z</time>
      </trkpt>
      <trkpt lat="50.155299939215183258056640625" lon="11.56653276644647121429443359375">
        <ele>472.399993896484375</ele>
        <time>2018-08-17T14:12:08.000Z</time>
      </trkpt>
      <trkpt lat="50.1553141884505748748779296875" lon="11.5665422379970550537109375">
        <ele>472.600006103515625</ele>
        <time>2018-08-17T14:12:09.000Z</time>
      </trkpt>
      <trkpt lat="50.15533925034105777740478515625" lon="11.566600911319255828857421875">
        <ele>473.399993896484375</ele>
        <time>2018-08-17T14:12:12.000Z</time>
      </trkpt>
      <trkpt lat="50.15533623285591602325439453125" lon="11.5666178427636623382568359375">
        <ele>473.79998779296875</ele>
        <time>2018-08-17T14:12:13.000Z</time>
      </trkpt>
      <trkpt lat="50.1553155295550823211669921875" lon="11.56661725603044033050537109375">
        <ele>474.399993896484375</ele>
        <time>2018-08-17T14:12:16.000Z</time>
      </trkpt>
      <trkpt lat="50.15529952012002468109130859375" lon="11.56659194268286228179931640625">
        <ele>474.600006103515625</ele>
        <time>2018-08-17T14:12:17.000Z</time>
      </trkpt>
      <trkpt lat="50.15514395199716091156005859375" lon="11.56643955968320369720458984375">
        <ele>474.79998779296875</ele>
        <time>2018-08-17T14:12:21.000Z</time>
      </trkpt>
      <trkpt lat="50.15485293231904506683349609375" lon="11.566154323518276214599609375">
        <ele>474.79998779296875</ele>
        <time>2018-08-17T14:12:28.000Z</time>
      </trkpt>
      <trkpt lat="50.15470071695744991302490234375" lon="11.5660733543336391448974609375">
        <ele>473.399993896484375</ele>
        <time>2018-08-17T14:12:31.000Z</time>
      </trkpt>
      <trkpt lat="50.15460181050002574920654296875" lon="11.56603521667420864105224609375">
        <ele>472.20001220703125</ele>
        <time>2018-08-17T14:12:33.000Z</time>
      </trkpt>
      <trkpt lat="50.15447993762791156768798828125" lon="11.565998084843158721923828125">
        <ele>470.79998779296875</ele>
        <time>2018-08-17T14:12:36.000Z</time>
      </trkpt>
      <trkpt lat="50.154430232942104339599609375" lon="11.5659682452678680419921875">
        <ele>469.600006103515625</ele>
        <time>2018-08-17T14:12:38.000Z</time>
      </trkpt>
      <trkpt lat="50.1543951965868473052978515625" lon="11.56591124832630157470703125">
        <ele>468.600006103515625</ele>
        <time>2018-08-17T14:12:40.000Z</time>
      </trkpt>
      <trkpt lat="50.15439444221556186676025390625" lon="11.56586757861077785491943359375">
        <ele>468.20001220703125</ele>
        <time>2018-08-17T14:12:41.000Z</time>
      </trkpt>
      <trkpt lat="50.1544481702148914337158203125" lon="11.565818376839160919189453125">
        <ele>467</ele>
        <time>2018-08-17T14:12:43.000Z</time>
      </trkpt>
      <trkpt lat="50.1545333303511142730712890625" lon="11.56582684256136417388916015625">
        <ele>466.399993896484375</ele>
        <time>2018-08-17T14:12:45.000Z</time>
      </trkpt>
      <trkpt lat="50.1546196639537811279296875" lon="11.56584151089191436767578125">
        <ele>465.79998779296875</ele>
        <time>2018-08-17T14:12:47.000Z</time>
      </trkpt>
      <trkpt lat="50.154719240963459014892578125" lon="11.56582516618072986602783203125">
        <ele>464.600006103515625</ele>
        <time>2018-08-17T14:12:50.000Z</time>
      </trkpt>
      <trkpt lat="50.15485092066228389739990234375" lon="11.565863974392414093017578125">
        <ele>464.20001220703125</ele>
        <time>2018-08-17T14:12:53.000Z</time>
      </trkpt>
      <trkpt lat="50.15524419955909252166748046875" lon="11.565839834511280059814453125">
        <ele>463.79998779296875</ele>
        <time>2018-08-17T14:13:00.000Z</time>
      </trkpt>
      <trkpt lat="50.15543363057076930999755859375" lon="11.5657588653266429901123046875">
        <ele>463.600006103515625</ele>
        <time>2018-08-17T14:13:03.000Z</time>
      </trkpt>
      <trkpt lat="50.155789442360401153564453125" lon="11.56572257168591022491455078125">
        <ele>462.399993896484375</ele>
        <time>2018-08-17T14:13:08.000Z</time>
      </trkpt>
      <trkpt lat="50.1560082100331783294677734375" lon="11.565728522837162017822265625">
        <ele>461.399993896484375</ele>
        <time>2018-08-17T14:13:11.000Z</time>
      </trkpt>
      <trkpt lat="50.15607937239110469818115234375" lon="11.5657457895576953887939453125">
        <ele>461.20001220703125</ele>
        <time>2018-08-17T14:13:12.000Z</time>
      </trkpt>
      <trkpt lat="50.15641967765986919403076171875" lon="11.56586305238306522369384765625">
        <ele>460.399993896484375</ele>
        <time>2018-08-17T14:13:17.000Z</time>
      </trkpt>
      <trkpt lat="50.1566157303750514984130859375" lon="11.56587897799909114837646484375">
        <ele>460</ele>
        <time>2018-08-17T14:13:20.000Z</time>
      </trkpt>
      <trkpt lat="50.15677423216402530670166015625" lon="11.56597654335200786590576171875">
        <ele>459.79998779296875</ele>
        <time>2018-08-17T14:13:23.000Z</time>
      </trkpt>
      <trkpt lat="50.1569107733666896820068359375" lon="11.566052734851837158203125">
        <ele>459.79998779296875</ele>
        <time>2018-08-17T14:13:26.000Z</time>
      </trkpt>
      <trkpt lat="50.1572715304791927337646484375" lon="11.56619078479707241058349609375">
        <ele>461.399993896484375</ele>
        <time>2018-08-17T14:13:35.000Z</time>
      </trkpt>
      <trkpt lat="50.15738292597234249114990234375" lon="11.566234789788722991943359375">
        <ele>462.600006103515625</ele>
        <time>2018-08-17T14:13:38.000Z</time>
      </trkpt>
      <trkpt lat="50.1575186289846897125244140625" lon="11.56629606150090694427490234375">
        <ele>463.79998779296875</ele>
        <time>2018-08-17T14:13:42.000Z</time>
      </trkpt>
      <trkpt lat="50.15768744051456451416015625" lon="11.5663616918027400970458984375">
        <ele>465</ele>
        <time>2018-08-17T14:13:47.000Z</time>
      </trkpt>
      <trkpt lat="50.1578552462160587310791015625" lon="11.56642011366784572601318359375">
        <ele>466.399993896484375</ele>
        <time>2018-08-17T14:13:52.000Z</time>
      </trkpt>
      <trkpt lat="50.15802095644176006317138671875" lon="11.56648046337068080902099609375">
        <ele>467.399993896484375</ele>
        <time>2018-08-17T14:13:57.000Z</time>
      </trkpt>
      <trkpt lat="50.15818507410585880279541015625" lon="11.56653779558837413787841796875">
        <ele>468.600006103515625</ele>
        <time>2018-08-17T14:14:02.000Z</time>
      </trkpt>
      <trkpt lat="50.158359669148921966552734375" lon="11.5666004084050655364990234375">
        <ele>469.79998779296875</ele>
        <time>2018-08-17T14:14:07.000Z</time>
      </trkpt>
      <trkpt lat="50.158540718257427215576171875" lon="11.56665899790823459625244140625">
        <ele>471</ele>
        <time>2018-08-17T14:14:12.000Z</time>
      </trkpt>
      <trkpt lat="50.15868798829615116119384765625" lon="11.56670912168920040130615234375">
        <ele>472.20001220703125</ele>
        <time>2018-08-17T14:14:16.000Z</time>
      </trkpt>
      <trkpt lat="50.158890746533870697021484375" lon="11.56678137369453907012939453125">
        <ele>473.20001220703125</ele>
        <time>2018-08-17T14:14:21.000Z</time>
      </trkpt>
      <trkpt lat="50.15916399657726287841796875" lon="11.566884554922580718994140625">
        <ele>474.20001220703125</ele>
        <time>2018-08-17T14:14:27.000Z</time>
      </trkpt>
      <trkpt lat="50.15950438566505908966064453125" lon="11.5670121274888515472412109375">
        <ele>475.399993896484375</ele>
        <time>2018-08-17T14:14:34.000Z</time>
      </trkpt>
      <trkpt lat="50.1600291766226291656494140625" lon="11.56720801256597042083740234375">
        <ele>475.79998779296875</ele>
        <time>2018-08-17T14:14:43.000Z</time>
      </trkpt>
      <trkpt lat="50.16063460148870944976806640625" lon="11.5674335695803165435791015625">
        <ele>475.20001220703125</ele>
        <time>2018-08-17T14:14:51.000Z</time>
      </trkpt>
      <trkpt lat="50.16103944741189479827880859375" lon="11.5675817616283893585205078125">
        <ele>474.20001220703125</ele>
        <time>2018-08-17T14:14:56.000Z</time>
      </trkpt>
      <trkpt lat="50.16135376878082752227783203125" lon="11.56767052598297595977783203125">
        <ele>473</ele>
        <time>2018-08-17T14:15:00.000Z</time>
      </trkpt>
      <trkpt lat="50.16195206902921199798583984375" lon="11.567677818238735198974609375">
        <ele>472.399993896484375</ele>
        <time>2018-08-17T14:15:08.000Z</time>
      </trkpt>
      <trkpt lat="50.162501670420169830322265625" lon="11.56764957122504711151123046875">
        <ele>472</ele>
        <time>2018-08-17T14:15:16.000Z</time>
      </trkpt>
      <trkpt lat="50.163061581552028656005859375" lon="11.56768687069416046142578125">
        <ele>473.600006103515625</ele>
        <time>2018-08-17T14:15:25.000Z</time>
      </trkpt>
      <trkpt lat="50.16348629258573055267333984375" lon="11.56781502999365329742431640625">
        <ele>474</ele>
        <time>2018-08-17T14:15:32.000Z</time>
      </trkpt>
      <trkpt lat="50.16403061337769031524658203125" lon="11.56813002191483974456787109375">
        <ele>474.600006103515625</ele>
        <time>2018-08-17T14:15:42.000Z</time>
      </trkpt>
      <trkpt lat="50.16421853564679622650146484375" lon="11.56828978098928928375244140625">
        <ele>475.20001220703125</ele>
        <time>2018-08-17T14:15:46.000Z</time>
      </trkpt>
      <trkpt lat="50.1644320227205753326416015625" lon="11.56848340295255184173583984375">
        <ele>476.399993896484375</ele>
        <time>2018-08-17T14:15:51.000Z</time>
      </trkpt>
      <trkpt lat="50.16469144262373447418212890625" lon="11.56873620115220546722412109375">
        <ele>477.600006103515625</ele>
        <time>2018-08-17T14:15:58.000Z</time>
      </trkpt>
      <trkpt lat="50.16479571349918842315673828125" lon="11.5688407234847545623779296875">
        <ele>479</ele>
        <time>2018-08-17T14:16:01.000Z</time>
      </trkpt>
      <trkpt lat="50.16496083699166774749755859375" lon="11.56899788416922092437744140625">
        <ele>480</ele>
        <time>2018-08-17T14:16:06.000Z</time>
      </trkpt>
      <trkpt lat="50.16513518057763576507568359375" lon="11.56916501931846141815185546875">
        <ele>481.20001220703125</ele>
        <time>2018-08-17T14:16:11.000Z</time>
      </trkpt>
      <trkpt lat="50.16530491411685943603515625" lon="11.56933550722897052764892578125">
        <ele>482.399993896484375</ele>
        <time>2018-08-17T14:16:16.000Z</time>
      </trkpt>
      <trkpt lat="50.16544816084206104278564453125" lon="11.5694770775735378265380859375">
        <ele>483.399993896484375</ele>
        <time>2018-08-17T14:16:20.000Z</time>
      </trkpt>
      <trkpt lat="50.1656648330390453338623046875" lon="11.56969458796083927154541015625">
        <ele>484.600006103515625</ele>
        <time>2018-08-17T14:16:26.000Z</time>
      </trkpt>
      <trkpt lat="50.16586172394454479217529296875" lon="11.56988837756216526031494140625">
        <ele>485.600006103515625</ele>
        <time>2018-08-17T14:16:31.000Z</time>
      </trkpt>
      <trkpt lat="50.16610681079328060150146484375" lon="11.5701332129538059234619140625">
        <ele>486.600006103515625</ele>
        <time>2018-08-17T14:16:37.000Z</time>
      </trkpt>
      <trkpt lat="50.16653277911245822906494140625" lon="11.57054853625595569610595703125">
        <ele>487.79998779296875</ele>
        <time>2018-08-17T14:16:47.000Z</time>
      </trkpt>
      <trkpt lat="50.1669509522616863250732421875" lon="11.57096025533974170684814453125">
        <ele>488.600006103515625</ele>
        <time>2018-08-17T14:16:58.000Z</time>
      </trkpt>
      <trkpt lat="50.16714197583496570587158203125" lon="11.57116611488163471221923828125">
        <ele>489.79998779296875</ele>
        <time>2018-08-17T14:17:05.000Z</time>
      </trkpt>
      <trkpt lat="50.16732151620090007781982421875" lon="11.5713487565517425537109375">
        <ele>491</ele>
        <time>2018-08-17T14:17:11.000Z</time>
      </trkpt>
      <trkpt lat="50.1674753241240978240966796875" lon="11.571508683264255523681640625">
        <ele>492</ele>
        <time>2018-08-17T14:17:16.000Z</time>
      </trkpt>
      <trkpt lat="50.16765318810939788818359375" lon="11.57167204655706882476806640625">
        <ele>493.20001220703125</ele>
        <time>2018-08-17T14:17:21.000Z</time>
      </trkpt>
      <trkpt lat="50.16778989695012569427490234375" lon="11.57179861329495906829833984375">
        <ele>494.79998779296875</ele>
        <time>2018-08-17T14:17:25.000Z</time>
      </trkpt>
      <trkpt lat="50.16792065463960170745849609375" lon="11.57191964797675609588623046875">
        <ele>496</ele>
        <time>2018-08-17T14:17:29.000Z</time>
      </trkpt>
      <trkpt lat="50.168046467006206512451171875" lon="11.5720405988395214080810546875">
        <ele>497</ele>
        <time>2018-08-17T14:17:33.000Z</time>
      </trkpt>
      <trkpt lat="50.16816817224025726318359375" lon="11.57215543091297149658203125">
        <ele>498.399993896484375</ele>
        <time>2018-08-17T14:17:37.000Z</time>
      </trkpt>
      <trkpt lat="50.1682883687317371368408203125" lon="11.57226515002548694610595703125">
        <ele>499.399993896484375</ele>
        <time>2018-08-17T14:17:41.000Z</time>
      </trkpt>
      <trkpt lat="50.16840227879583835601806640625" lon="11.5723775513470172882080078125">
        <ele>500.600006103515625</ele>
        <time>2018-08-17T14:17:45.000Z</time>
      </trkpt>
      <trkpt lat="50.1684878580272197723388671875" lon="11.57245910726487636566162109375">
        <ele>501.600006103515625</ele>
        <time>2018-08-17T14:17:48.000Z</time>
      </trkpt>
      <trkpt lat="50.1686021871864795684814453125" lon="11.572564803063869476318359375">
        <ele>502.600006103515625</ele>
        <time>2018-08-17T14:17:52.000Z</time>
      </trkpt>
      <trkpt lat="50.1687161810696125030517578125" lon="11.572670079767704010009765625">
        <ele>503.79998779296875</ele>
        <time>2018-08-17T14:17:56.000Z</time>
      </trkpt>
      <trkpt lat="50.16883327625691890716552734375" lon="11.57277259044349193572998046875">
        <ele>505</ele>
        <time>2018-08-17T14:18:00.000Z</time>
      </trkpt>
      <trkpt lat="50.1689803786575794219970703125" lon="11.57289664261043071746826171875">
        <ele>506.20001220703125</ele>
        <time>2018-08-17T14:18:05.000Z</time>
      </trkpt>
      <trkpt lat="50.16909328289330005645751953125" lon="11.57298557460308074951171875">
        <ele>507.20001220703125</ele>
        <time>2018-08-17T14:18:09.000Z</time>
      </trkpt>
      <trkpt lat="50.1692403852939605712890625" lon="11.57309529371559619903564453125">
        <ele>508.399993896484375</ele>
        <time>2018-08-17T14:18:14.000Z</time>
      </trkpt>
      <trkpt lat="50.16935865394771099090576171875" lon="11.5731825493276119232177734375">
        <ele>509.600006103515625</ele>
        <time>2018-08-17T14:18:18.000Z</time>
      </trkpt>
      <trkpt lat="50.16947935335338115692138671875" lon="11.57326410524547100067138671875">
        <ele>510.79998779296875</ele>
        <time>2018-08-17T14:18:22.000Z</time>
      </trkpt>
      <trkpt lat="50.1696298085153102874755859375" lon="11.57336552627384662628173828125">
        <ele>512</ele>
        <time>2018-08-17T14:18:27.000Z</time>
      </trkpt>
      <trkpt lat="50.16981664113700389862060546875" lon="11.573491506278514862060546875">
        <ele>513.20001220703125</ele>
        <time>2018-08-17T14:18:33.000Z</time>
      </trkpt>
      <trkpt lat="50.169984363019466400146484375" lon="11.5735982917249202728271484375">
        <ele>514.4000244140625</ele>
        <time>2018-08-17T14:18:38.000Z</time>
      </trkpt>
      <trkpt lat="50.170162059366703033447265625" lon="11.573706753551959991455078125">
        <ele>515.5999755859375</ele>
        <time>2018-08-17T14:18:43.000Z</time>
      </trkpt>
      <trkpt lat="50.170373953878879547119140625" lon="11.57383315265178680419921875">
        <ele>516.79998779296875</ele>
        <time>2018-08-17T14:18:49.000Z</time>
      </trkpt>
      <trkpt lat="50.17050881870090961456298828125" lon="11.57391889952123165130615234375">
        <ele>518</ele>
        <time>2018-08-17T14:18:53.000Z</time>
      </trkpt>
      <trkpt lat="50.17067796550691127777099609375" lon="11.5740240924060344696044921875">
        <ele>519.20001220703125</ele>
        <time>2018-08-17T14:18:58.000Z</time>
      </trkpt>
      <trkpt lat="50.1708461903035640716552734375" lon="11.57412978820502758026123046875">
        <ele>520.4000244140625</ele>
        <time>2018-08-17T14:19:03.000Z</time>
      </trkpt>
      <trkpt lat="50.17105397768318653106689453125" lon="11.57426230609416961669921875">
        <ele>521.5999755859375</ele>
        <time>2018-08-17T14:19:09.000Z</time>
      </trkpt>
      <trkpt lat="50.17125849612057209014892578125" lon="11.57438677735626697540283203125">
        <ele>522.5999755859375</ele>
        <time>2018-08-17T14:19:15.000Z</time>
      </trkpt>
      <trkpt lat="50.17140115611255168914794921875" lon="11.57447260804474353790283203125">
        <ele>523.5999755859375</ele>
        <time>2018-08-17T14:19:19.000Z</time>
      </trkpt>
      <trkpt lat="50.17164858989417552947998046875" lon="11.57463110983371734619140625">
        <ele>524.79998779296875</ele>
        <time>2018-08-17T14:19:26.000Z</time>
      </trkpt>
      <trkpt lat="50.17192066647112369537353515625" lon="11.5748257376253604888916015625">
        <ele>525.79998779296875</ele>
        <time>2018-08-17T14:19:34.000Z</time>
      </trkpt>
      <trkpt lat="50.172093249857425689697265625" lon="11.57496965490281581878662109375">
        <ele>527.20001220703125</ele>
        <time>2018-08-17T14:19:39.000Z</time>
      </trkpt>
      <trkpt lat="50.17219391651451587677001953125" lon="11.57505758106708526611328125">
        <ele>528.4000244140625</ele>
        <time>2018-08-17T14:19:42.000Z</time>
      </trkpt>
      <trkpt lat="50.17239877022802829742431640625" lon="11.5752647817134857177734375">
        <ele>529.5999755859375</ele>
        <time>2018-08-17T14:19:48.000Z</time>
      </trkpt>
      <trkpt lat="50.17259440384805202484130859375" lon="11.575494445860385894775390625">
        <ele>530.79998779296875</ele>
        <time>2018-08-17T14:19:54.000Z</time>
      </trkpt>
      <trkpt lat="50.1727478764951229095458984375" lon="11.5757001377642154693603515625">
        <ele>532</ele>
        <time>2018-08-17T14:19:59.000Z</time>
      </trkpt>
      <trkpt lat="50.17294610850512981414794921875" lon="11.57600096426904201507568359375">
        <ele>533.20001220703125</ele>
        <time>2018-08-17T14:20:06.000Z</time>
      </trkpt>
      <trkpt lat="50.1730519719421863555908203125" lon="11.5761862881481647491455078125">
        <ele>534.20001220703125</ele>
        <time>2018-08-17T14:20:10.000Z</time>
      </trkpt>
      <trkpt lat="50.1732028461992740631103515625" lon="11.57646733336150646209716796875">
        <ele>535.4000244140625</ele>
        <time>2018-08-17T14:20:16.000Z</time>
      </trkpt>
      <trkpt lat="50.17331935465335845947265625" lon="11.5767220593988895416259765625">
        <ele>536.4000244140625</ele>
        <time>2018-08-17T14:20:21.000Z</time>
      </trkpt>
      <trkpt lat="50.17342236824333667755126953125" lon="11.576977707445621490478515625">
        <ele>537.4000244140625</ele>
        <time>2018-08-17T14:20:26.000Z</time>
      </trkpt>
      <trkpt lat="50.17348221503198146820068359375" lon="11.5771321021020412445068359375">
        <ele>538.79998779296875</ele>
        <time>2018-08-17T14:20:29.000Z</time>
      </trkpt>
      <trkpt lat="50.17358087003231048583984375" lon="11.577406190335750579833984375">
        <ele>539.79998779296875</ele>
        <time>2018-08-17T14:20:34.000Z</time>
      </trkpt>
      <trkpt lat="50.173683129251003265380859375" lon="11.57774942927062511444091796875">
        <ele>541</ele>
        <time>2018-08-17T14:20:40.000Z</time>
      </trkpt>
      <trkpt lat="50.17375395633280277252197265625" lon="11.5780601464211940765380859375">
        <ele>542</ele>
        <time>2018-08-17T14:20:45.000Z</time>
      </trkpt>
      <trkpt lat="50.17379754222929477691650390625" lon="11.57825150527060031890869140625">
        <ele>542.79998779296875</ele>
        <time>2018-08-17T14:20:48.000Z</time>
      </trkpt>
      <trkpt lat="50.1738221012055873870849609375" lon="11.57838352024555206298828125">
        <ele>543</ele>
        <time>2018-08-17T14:20:50.000Z</time>
      </trkpt>
      <trkpt lat="50.17383299767971038818359375" lon="11.578450240194797515869140625">
        <ele>543.20001220703125</ele>
        <time>2018-08-17T14:20:51.000Z</time>
      </trkpt>
      <trkpt lat="50.17387323081493377685546875" lon="11.5788004361093044281005859375">
        <ele>544</ele>
        <time>2018-08-17T14:20:56.000Z</time>
      </trkpt>
      <trkpt lat="50.173935927450656890869140625" lon="11.5795189328491687774658203125">
        <ele>545</ele>
        <time>2018-08-17T14:21:06.000Z</time>
      </trkpt>
      <trkpt lat="50.17394104041159152984619140625" lon="11.5798781812191009521484375">
        <ele>545.4000244140625</ele>
        <time>2018-08-17T14:21:11.000Z</time>
      </trkpt>
      <trkpt lat="50.17392796464264392852783203125" lon="11.5801616571843624114990234375">
        <ele>546</ele>
        <time>2018-08-17T14:21:15.000Z</time>
      </trkpt>
      <trkpt lat="50.173903070390224456787109375" lon="11.5805841051042079925537109375">
        <ele>547</ele>
        <time>2018-08-17T14:21:21.000Z</time>
      </trkpt>
      <trkpt lat="50.17388538457453250885009765625" lon="11.58079004846513271331787109375">
        <ele>547.5999755859375</ele>
        <time>2018-08-17T14:21:24.000Z</time>
      </trkpt>
      <trkpt lat="50.173862837255001068115234375" lon="11.5809928067028522491455078125">
        <ele>548.20001220703125</ele>
        <time>2018-08-17T14:21:27.000Z</time>
      </trkpt>
      <trkpt lat="50.1737872324883937835693359375" lon="11.58147166483104228973388671875">
        <ele>549.4000244140625</ele>
        <time>2018-08-17T14:21:34.000Z</time>
      </trkpt>
      <trkpt lat="50.1737436465919017791748046875" lon="11.5816955454647541046142578125">
        <ele>550.4000244140625</ele>
        <time>2018-08-17T14:21:37.000Z</time>
      </trkpt>
      <trkpt lat="50.17368857748806476593017578125" lon="11.5819158218801021575927734375">
        <ele>551.4000244140625</ele>
        <time>2018-08-17T14:21:40.000Z</time>
      </trkpt>
      <trkpt lat="50.17366980202496051788330078125" lon="11.58199083991348743438720703125">
        <ele>551.5999755859375</ele>
        <time>2018-08-17T14:21:41.000Z</time>
      </trkpt>
      <trkpt lat="50.17360609956085681915283203125" lon="11.582228802144527435302734375">
        <ele>552.5999755859375</ele>
        <time>2018-08-17T14:21:44.000Z</time>
      </trkpt>
      <trkpt lat="50.1734970510005950927734375" lon="11.5825872123241424560546875">
        <ele>553.79998779296875</ele>
        <time>2018-08-17T14:21:49.000Z</time>
      </trkpt>
      <trkpt lat="50.17348087392747402191162109375" lon="11.58264965750277042388916015625">
        <ele>554</ele>
        <time>2018-08-17T14:21:50.000Z</time>
      </trkpt>
      <trkpt lat="50.17342798411846160888671875" lon="11.58281360752880573272705078125">
        <ele>555</ele>
        <time>2018-08-17T14:21:53.000Z</time>
      </trkpt>
      <trkpt lat="50.17340962775051593780517578125" lon="11.582868508994579315185546875">
        <ele>555.4000244140625</ele>
        <time>2018-08-17T14:21:54.000Z</time>
      </trkpt>
      <trkpt lat="50.17334894277155399322509765625" lon="11.5830386616289615631103515625">
        <ele>556</ele>
        <time>2018-08-17T14:21:57.000Z</time>
      </trkpt>
      <trkpt lat="50.1732538081705570220947265625" lon="11.5833212994039058685302734375">
        <ele>557.20001220703125</ele>
        <time>2018-08-17T14:22:02.000Z</time>
      </trkpt>
      <trkpt lat="50.173200331628322601318359375" lon="11.5834889374673366546630859375">
        <ele>558</ele>
        <time>2018-08-17T14:22:05.000Z</time>
      </trkpt>
      <trkpt lat="50.17316353507339954376220703125" lon="11.58360066823661327362060546875">
        <ele>558.20001220703125</ele>
        <time>2018-08-17T14:22:07.000Z</time>
      </trkpt>
      <trkpt lat="50.173092372715473175048828125" lon="11.5838185139000415802001953125">
        <ele>559.4000244140625</ele>
        <time>2018-08-17T14:22:11.000Z</time>
      </trkpt>
      <trkpt lat="50.17303914763033390045166015625" lon="11.58398103900253772735595703125">
        <ele>560.4000244140625</ele>
        <time>2018-08-17T14:22:14.000Z</time>
      </trkpt>
      <trkpt lat="50.17295113764703273773193359375" lon="11.5842577256262302398681640625">
        <ele>561.5999755859375</ele>
        <time>2018-08-17T14:22:19.000Z</time>
      </trkpt>
      <trkpt lat="50.1728719286620616912841796875" lon="11.584531478583812713623046875">
        <ele>562.79998779296875</ele>
        <time>2018-08-17T14:22:24.000Z</time>
      </trkpt>
      <trkpt lat="50.17280261032283306121826171875" lon="11.58480741083621978759765625">
        <ele>564</ele>
        <time>2018-08-17T14:22:29.000Z</time>
      </trkpt>
      <trkpt lat="50.17274477519094944000244140625" lon="11.585089378058910369873046875">
        <ele>565</ele>
        <time>2018-08-17T14:22:34.000Z</time>
      </trkpt>
      <trkpt lat="50.172708816826343536376953125" lon="11.58531610853970050811767578125">
        <ele>566</ele>
        <time>2018-08-17T14:22:38.000Z</time>
      </trkpt>
      <trkpt lat="50.1726821623742580413818359375" lon="11.585550047457218170166015625">
        <ele>567</ele>
        <time>2018-08-17T14:22:42.000Z</time>
      </trkpt>
      <trkpt lat="50.17266883514821529388427734375" lon="11.5857252292335033416748046875">
        <ele>567.79998779296875</ele>
        <time>2018-08-17T14:22:45.000Z</time>
      </trkpt>
      <trkpt lat="50.1726664043962955474853515625" lon="11.5857832320034503936767578125">
        <ele>568.20001220703125</ele>
        <time>2018-08-17T14:22:46.000Z</time>
      </trkpt>
      <trkpt lat="50.17265659756958484649658203125" lon="11.5860722400248050689697265625">
        <ele>569.4000244140625</ele>
        <time>2018-08-17T14:22:51.000Z</time>
      </trkpt>
      <trkpt lat="50.17265710048377513885498046875" lon="11.586299724876880645751953125">
        <ele>570.4000244140625</ele>
        <time>2018-08-17T14:22:55.000Z</time>
      </trkpt>
      <trkpt lat="50.1726670749485492706298828125" lon="11.586527042090892791748046875">
        <ele>571.4000244140625</ele>
        <time>2018-08-17T14:22:59.000Z</time>
      </trkpt>
      <trkpt lat="50.1726868562400341033935546875" lon="11.586808674037456512451171875">
        <ele>572.5999755859375</ele>
        <time>2018-08-17T14:23:04.000Z</time>
      </trkpt>
      <trkpt lat="50.17270621843636035919189453125" lon="11.58710665069520473480224609375">
        <ele>573.79998779296875</ele>
        <time>2018-08-17T14:23:09.000Z</time>
      </trkpt>
      <trkpt lat="50.17272834666073322296142578125" lon="11.58734402619302272796630859375">
        <ele>575</ele>
        <time>2018-08-17T14:23:13.000Z</time>
      </trkpt>
      <trkpt lat="50.17274712212383747100830078125" lon="11.587569750845432281494140625">
        <ele>576.20001220703125</ele>
        <time>2018-08-17T14:23:17.000Z</time>
      </trkpt>
      <trkpt lat="50.17276774160563945770263671875" lon="11.58779614605009555816650390625">
        <ele>577</ele>
        <time>2018-08-17T14:23:21.000Z</time>
      </trkpt>
      <trkpt lat="50.17278852872550487518310546875" lon="11.5880272351205348968505859375">
        <ele>578.20001220703125</ele>
        <time>2018-08-17T14:23:25.000Z</time>
      </trkpt>
      <trkpt lat="50.1727907918393611907958984375" lon="11.588147096335887908935546875">
        <ele>578.5999755859375</ele>
        <time>2018-08-17T14:23:27.000Z</time>
      </trkpt>
      <trkpt lat="50.1727904565632343292236328125" lon="11.58826502971351146697998046875">
        <ele>579.20001220703125</ele>
        <time>2018-08-17T14:23:29.000Z</time>
      </trkpt>
      <trkpt lat="50.1727862656116485595703125" lon="11.5884932689368724822998046875">
        <ele>580.4000244140625</ele>
        <time>2018-08-17T14:23:33.000Z</time>
      </trkpt>
      <trkpt lat="50.172772519290447235107421875" lon="11.5887267887592315673828125">
        <ele>581.4000244140625</ele>
        <time>2018-08-17T14:23:37.000Z</time>
      </trkpt>
      <trkpt lat="50.17276019789278507232666015625" lon="11.58896676264703273773193359375">
        <ele>582.5999755859375</ele>
        <time>2018-08-17T14:23:41.000Z</time>
      </trkpt>
      <trkpt lat="50.17273840494453907012939453125" lon="11.58916289918124675750732421875">
        <ele>583.5999755859375</ele>
        <time>2018-08-17T14:23:44.000Z</time>
      </trkpt>
      <trkpt lat="50.17270253039896488189697265625" lon="11.58943413756787776947021484375">
        <ele>584.5999755859375</ele>
        <time>2018-08-17T14:23:48.000Z</time>
      </trkpt>
      <trkpt lat="50.172641091048717498779296875" lon="11.58978424966335296630859375">
        <ele>585.79998779296875</ele>
        <time>2018-08-17T14:23:53.000Z</time>
      </trkpt>
      <trkpt lat="50.1725416816771030426025390625" lon="11.590300910174846649169921875">
        <ele>587</ele>
        <time>2018-08-17T14:24:00.000Z</time>
      </trkpt>
      <trkpt lat="50.1723824255168437957763671875" lon="11.59116114489734172821044921875">
        <ele>587.79998779296875</ele>
        <time>2018-08-17T14:24:10.000Z</time>
      </trkpt>
      <trkpt lat="50.172352083027362823486328125" lon="11.59135962836444377899169921875">
        <ele>587.79998779296875</ele>
        <time>2018-08-17T14:24:12.000Z</time>
      </trkpt>
      <trkpt lat="50.172260887920856475830078125" lon="11.59220821224153041839599609375">
        <ele>587.79998779296875</ele>
        <time>2018-08-17T14:24:20.000Z</time>
      </trkpt>
      <trkpt lat="50.17221688292920589447021484375" lon="11.5931599773466587066650390625">
        <ele>587</ele>
        <time>2018-08-17T14:24:28.000Z</time>
      </trkpt>
      <trkpt lat="50.17217698507010936737060546875" lon="11.594043932855129241943359375">
        <ele>585.79998779296875</ele>
        <time>2018-08-17T14:24:35.000Z</time>
      </trkpt>
      <trkpt lat="50.17217262648046016693115234375" lon="11.594171337783336639404296875">
        <ele>585.4000244140625</ele>
        <time>2018-08-17T14:24:36.000Z</time>
      </trkpt>
      <trkpt lat="50.17217447049915790557861328125" lon="11.594685651361942291259765625">
        <ele>584.5999755859375</ele>
        <time>2018-08-17T14:24:40.000Z</time>
      </trkpt>
      <trkpt lat="50.17220347188413143157958984375" lon="11.5949453227221965789794921875">
        <ele>584.4000244140625</ele>
        <time>2018-08-17T14:24:42.000Z</time>
      </trkpt>
      <trkpt lat="50.17222727648913860321044921875" lon="11.595072560012340545654296875">
        <ele>584.4000244140625</ele>
        <time>2018-08-17T14:24:43.000Z</time>
      </trkpt>
      <trkpt lat="50.17225719988346099853515625" lon="11.595197618007659912109375">
        <ele>584.20001220703125</ele>
        <time>2018-08-17T14:24:44.000Z</time>
      </trkpt>
      <trkpt lat="50.17268425785005092620849609375" lon="11.59579466097056865692138671875">
        <ele>583.4000244140625</ele>
        <time>2018-08-17T14:24:51.000Z</time>
      </trkpt>
      <trkpt lat="50.1727596111595630645751953125" lon="11.59584294073283672332763671875">
        <ele>583.20001220703125</ele>
        <time>2018-08-17T14:24:52.000Z</time>
      </trkpt>
      <trkpt lat="50.17326680012047290802001953125" lon="11.59620436839759349822998046875">
        <ele>582.79998779296875</ele>
        <time>2018-08-17T14:24:59.000Z</time>
      </trkpt>
      <trkpt lat="50.17333410680294036865234375" lon="11.5962606109678745269775390625">
        <ele>582.79998779296875</ele>
        <time>2018-08-17T14:25:00.000Z</time>
      </trkpt>
      <trkpt lat="50.17358715645968914031982421875" lon="11.596498154103755950927734375">
        <ele>582.79998779296875</ele>
        <time>2018-08-17T14:25:04.000Z</time>
      </trkpt>
      <trkpt lat="50.17410884611308574676513671875" lon="11.59694180823862552642822265625">
        <ele>583.79998779296875</ele>
        <time>2018-08-17T14:25:13.000Z</time>
      </trkpt>
      <trkpt lat="50.17421848140656948089599609375" lon="11.59703987650573253631591796875">
        <ele>584.4000244140625</ele>
        <time>2018-08-17T14:25:15.000Z</time>
      </trkpt>
      <trkpt lat="50.174467675387859344482421875" lon="11.59734112210571765899658203125">
        <ele>585.4000244140625</ele>
        <time>2018-08-17T14:25:20.000Z</time>
      </trkpt>
      <trkpt lat="50.17455224879086017608642578125" lon="11.5974873863160610198974609375">
        <ele>586</ele>
        <time>2018-08-17T14:25:22.000Z</time>
      </trkpt>
      <trkpt lat="50.17465366981923580169677734375" lon="11.59773155115544795989990234375">
        <ele>586.20001220703125</ele>
        <time>2018-08-17T14:25:25.000Z</time>
      </trkpt>
      <trkpt lat="50.1747887022793292999267578125" lon="11.59827888943254947662353515625">
        <ele>587.4000244140625</ele>
        <time>2018-08-17T14:25:31.000Z</time>
      </trkpt>
      <trkpt lat="50.1748621277511119842529296875" lon="11.5987577475607395172119140625">
        <ele>588.5999755859375</ele>
        <time>2018-08-17T14:25:36.000Z</time>
      </trkpt>
      <trkpt lat="50.1749347150325775146484375" lon="11.59925387240946292877197265625">
        <ele>589.79998779296875</ele>
        <time>2018-08-17T14:25:41.000Z</time>
      </trkpt>
      <trkpt lat="50.17503856681287288665771484375" lon="11.6001370735466480255126953125">
        <ele>590.4000244140625</ele>
        <time>2018-08-17T14:25:49.000Z</time>
      </trkpt>
      <trkpt lat="50.17504535615444183349609375" lon="11.60025936551392078399658203125">
        <ele>590.4000244140625</ele>
        <time>2018-08-17T14:25:50.000Z</time>
      </trkpt>
      <trkpt lat="50.1750767044723033905029296875" lon="11.60091147758066654205322265625">
        <ele>590.20001220703125</ele>
        <time>2018-08-17T14:25:55.000Z</time>
      </trkpt>
      <trkpt lat="50.17539747990667819976806640625" lon="11.6015757434070110321044921875">
        <ele>589.20001220703125</ele>
        <time>2018-08-17T14:26:01.000Z</time>
      </trkpt>
      <trkpt lat="50.17553729005157947540283203125" lon="11.60174958407878875732421875">
        <ele>588.5999755859375</ele>
        <time>2018-08-17T14:26:03.000Z</time>
      </trkpt>
      <trkpt lat="50.17573962919414043426513671875" lon="11.60199793986976146697998046875">
        <ele>587.5999755859375</ele>
        <time>2018-08-17T14:26:06.000Z</time>
      </trkpt>
      <trkpt lat="50.17580484040081501007080078125" lon="11.60208041779696941375732421875">
        <ele>587.4000244140625</ele>
        <time>2018-08-17T14:26:07.000Z</time>
      </trkpt>
      <trkpt lat="50.17600600607693195343017578125" lon="11.60230807028710842132568359375">
        <ele>586.20001220703125</ele>
        <time>2018-08-17T14:26:10.000Z</time>
      </trkpt>
      <trkpt lat="50.176509507000446319580078125" lon="11.6026348806917667388916015625">
        <ele>585.5999755859375</ele>
        <time>2018-08-17T14:26:17.000Z</time>
      </trkpt>
      <trkpt lat="50.176983587443828582763671875" lon="11.60316989757120609283447265625">
        <ele>586.20001220703125</ele>
        <time>2018-08-17T14:26:25.000Z</time>
      </trkpt>
      <trkpt lat="50.17719757743179798126220703125" lon="11.60401915200054645538330078125">
        <ele>587.20001220703125</ele>
        <time>2018-08-17T14:26:33.000Z</time>
      </trkpt>
      <trkpt lat="50.17725172452628612518310546875" lon="11.60493076778948307037353515625">
        <ele>587.79998779296875</ele>
        <time>2018-08-17T14:26:41.000Z</time>
      </trkpt>
      <trkpt lat="50.177261866629123687744140625" lon="11.60515196621417999267578125">
        <ele>588</ele>
        <time>2018-08-17T14:26:43.000Z</time>
      </trkpt>
      <trkpt lat="50.1773280836641788482666015625" lon="11.60589837469160556793212890625">
        <ele>589.20001220703125</ele>
        <time>2018-08-17T14:26:50.000Z</time>
      </trkpt>
      <trkpt lat="50.17743160016834735870361328125" lon="11.606476642191410064697265625">
        <ele>590.4000244140625</ele>
        <time>2018-08-17T14:26:56.000Z</time>
      </trkpt>
      <trkpt lat="50.17749479971826076507568359375" lon="11.60675701685249805450439453125">
        <ele>591.4000244140625</ele>
        <time>2018-08-17T14:26:59.000Z</time>
      </trkpt>
      <trkpt lat="50.17762555740773677825927734375" lon="11.60722405649721622467041015625">
        <ele>592.79998779296875</ele>
        <time>2018-08-17T14:27:04.000Z</time>
      </trkpt>
      <trkpt lat="50.17774843610823154449462890625" lon="11.60760526545345783233642578125">
        <ele>593.79998779296875</ele>
        <time>2018-08-17T14:27:08.000Z</time>
      </trkpt>
      <trkpt lat="50.177874080836772918701171875" lon="11.60798898898065090179443359375">
        <ele>594.4000244140625</ele>
        <time>2018-08-17T14:27:12.000Z</time>
      </trkpt>
      <trkpt lat="50.17793417908251285552978515625" lon="11.6081867180764675140380859375">
        <ele>594.5999755859375</ele>
        <time>2018-08-17T14:27:14.000Z</time>
      </trkpt>
      <trkpt lat="50.1782043278217315673828125" lon="11.608943939208984375">
        <ele>594.5999755859375</ele>
        <time>2018-08-17T14:27:21.000Z</time>
      </trkpt>
      <trkpt lat="50.1784941740334033966064453125" lon="11.60981305874884128570556640625">
        <ele>594.4000244140625</ele>
        <time>2018-08-17T14:27:28.000Z</time>
      </trkpt>
      <trkpt lat="50.17876423895359039306640625" lon="11.610677652060985565185546875">
        <ele>593</ele>
        <time>2018-08-17T14:27:34.000Z</time>
      </trkpt>
      <trkpt lat="50.178808830678462982177734375" lon="11.6108389198780059814453125">
        <ele>592.5999755859375</ele>
        <time>2018-08-17T14:27:35.000Z</time>
      </trkpt>
      <trkpt lat="50.1788944937288761138916015625" lon="11.61117377690970897674560546875">
        <ele>591.5999755859375</ele>
        <time>2018-08-17T14:27:37.000Z</time>
      </trkpt>
      <trkpt lat="50.1789726130664348602294921875" lon="11.61152313463389873504638671875">
        <ele>590.4000244140625</ele>
        <time>2018-08-17T14:27:39.000Z</time>
      </trkpt>
      <trkpt lat="50.17904042266309261322021484375" lon="11.6118804551661014556884765625">
        <ele>589.4000244140625</ele>
        <time>2018-08-17T14:27:41.000Z</time>
      </trkpt>
      <trkpt lat="50.17910747788846492767333984375" lon="11.6122422181069850921630859375">
        <ele>588</ele>
        <time>2018-08-17T14:27:43.000Z</time>
      </trkpt>
      <trkpt lat="50.1791724376380443572998046875" lon="11.6126012988388538360595703125">
        <ele>586.4000244140625</ele>
        <time>2018-08-17T14:27:45.000Z</time>
      </trkpt>
      <trkpt lat="50.1792334578931331634521484375" lon="11.61295459605753421783447265625">
        <ele>584.79998779296875</ele>
        <time>2018-08-17T14:27:47.000Z</time>
      </trkpt>
      <trkpt lat="50.1792928017675876617431640625" lon="11.613302864134311676025390625">
        <ele>583.20001220703125</ele>
        <time>2018-08-17T14:27:49.000Z</time>
      </trkpt>
      <trkpt lat="50.17934636212885379791259765625" lon="11.61364777944982051849365234375">
        <ele>581.79998779296875</ele>
        <time>2018-08-17T14:27:51.000Z</time>
      </trkpt>
      <trkpt lat="50.17944443039596080780029296875" lon="11.61432134918868541717529296875">
        <ele>580.79998779296875</ele>
        <time>2018-08-17T14:27:55.000Z</time>
      </trkpt>
      <trkpt lat="50.1795700751245021820068359375" lon="11.61529046483337879180908203125">
        <ele>579.79998779296875</ele>
        <time>2018-08-17T14:28:01.000Z</time>
      </trkpt>
      <trkpt lat="50.1795888505876064300537109375" lon="11.6154494695365428924560546875">
        <ele>579.5999755859375</ele>
        <time>2018-08-17T14:28:02.000Z</time>
      </trkpt>
      <trkpt lat="50.17973813228309154510498046875" lon="11.61638296209275722503662109375">
        <ele>578.79998779296875</ele>
        <time>2018-08-17T14:28:08.000Z</time>
      </trkpt>
      <trkpt lat="50.17983687110245227813720703125" lon="11.61683390848338603973388671875">
        <ele>578.4000244140625</ele>
        <time>2018-08-17T14:28:11.000Z</time>
      </trkpt>
      <trkpt lat="50.18012168817222118377685546875" lon="11.6177383996546268463134765625">
        <ele>577.4000244140625</ele>
        <time>2018-08-17T14:28:17.000Z</time>
      </trkpt>
      <trkpt lat="50.18034565262496471405029296875" lon="11.6183455847203731536865234375">
        <ele>576</ele>
        <time>2018-08-17T14:28:21.000Z</time>
      </trkpt>
      <trkpt lat="50.18051312305033206939697265625" lon="11.61853426136076450347900390625">
        <ele>575</ele>
        <time>2018-08-17T14:28:23.000Z</time>
      </trkpt>
      <trkpt lat="50.180713869631290435791015625" lon="11.618610955774784088134765625">
        <ele>574</ele>
        <time>2018-08-17T14:28:25.000Z</time>
      </trkpt>
      <trkpt lat="50.180813781917095184326171875" lon="11.618635095655918121337890625">
        <ele>573.20001220703125</ele>
        <time>2018-08-17T14:28:26.000Z</time>
      </trkpt>
      <trkpt lat="50.18091243691742420196533203125" lon="11.61866485141217708587646484375">
        <ele>572.20001220703125</ele>
        <time>2018-08-17T14:28:27.000Z</time>
      </trkpt>
      <trkpt lat="50.18110304139554500579833984375" lon="11.61874917335808277130126953125">
        <ele>570.4000244140625</ele>
        <time>2018-08-17T14:28:29.000Z</time>
      </trkpt>
      <trkpt lat="50.18128442578017711639404296875" lon="11.6188582219183444976806640625">
        <ele>569.20001220703125</ele>
        <time>2018-08-17T14:28:31.000Z</time>
      </trkpt>
      <trkpt lat="50.18145189620554447174072265625" lon="11.6189839504659175872802734375">
        <ele>567.4000244140625</ele>
        <time>2018-08-17T14:28:33.000Z</time>
      </trkpt>
      <trkpt lat="50.1819347776472568511962890625" lon="11.6194885410368442535400390625">
        <ele>566.79998779296875</ele>
        <time>2018-08-17T14:28:40.000Z</time>
      </trkpt>
      <trkpt lat="50.18230265937745571136474609375" lon="11.62011374719440937042236328125">
        <ele>567.79998779296875</ele>
        <time>2018-08-17T14:28:48.000Z</time>
      </trkpt>
      <trkpt lat="50.18243861384689807891845703125" lon="11.62032228894531726837158203125">
        <ele>568.5999755859375</ele>
        <time>2018-08-17T14:28:51.000Z</time>
      </trkpt>
      <trkpt lat="50.18266819417476654052734375" lon="11.62066393531858921051025390625">
        <ele>569.4000244140625</ele>
        <time>2018-08-17T14:28:56.000Z</time>
      </trkpt>
      <trkpt lat="50.1828872971236705780029296875" lon="11.62100206129252910614013671875">
        <ele>570.5999755859375</ele>
        <time>2018-08-17T14:29:01.000Z</time>
      </trkpt>
      <trkpt lat="50.18312542699277400970458984375" lon="11.62141176871955394744873046875">
        <ele>571.5999755859375</ele>
        <time>2018-08-17T14:29:07.000Z</time>
      </trkpt>
      <trkpt lat="50.1833506487309932708740234375" lon="11.621891967952251434326171875">
        <ele>572.79998779296875</ele>
        <time>2018-08-17T14:29:14.000Z</time>
      </trkpt>
      <trkpt lat="50.18351971171796321868896484375" lon="11.62229069508612155914306640625">
        <ele>574</ele>
        <time>2018-08-17T14:29:20.000Z</time>
      </trkpt>
      <trkpt lat="50.18364694900810718536376953125" lon="11.62261725403368473052978515625">
        <ele>575.20001220703125</ele>
        <time>2018-08-17T14:29:25.000Z</time>
      </trkpt>
      <trkpt lat="50.18367544747889041900634765625" lon="11.622676849365234375">
        <ele>575.4000244140625</ele>
        <time>2018-08-17T14:29:26.000Z</time>
      </trkpt>
      <trkpt lat="50.18373479135334491729736328125" lon="11.6228015720844268798828125">
        <ele>576.4000244140625</ele>
        <time>2018-08-17T14:29:28.000Z</time>
      </trkpt>
      <trkpt lat="50.18377250991761684417724609375" lon="11.62286183796823024749755859375">
        <ele>576.5999755859375</ele>
        <time>2018-08-17T14:29:29.000Z</time>
      </trkpt>
      <trkpt lat="50.18389170058071613311767578125" lon="11.6230134665966033935546875">
        <ele>577.5999755859375</ele>
        <time>2018-08-17T14:29:32.000Z</time>
      </trkpt>
      <trkpt lat="50.184152461588382720947265625" lon="11.62331161089241504669189453125">
        <ele>578.5999755859375</ele>
        <time>2018-08-17T14:29:38.000Z</time>
      </trkpt>
      <trkpt lat="50.18453107215464115142822265625" lon="11.6237478889524936676025390625">
        <ele>579.5999755859375</ele>
        <time>2018-08-17T14:29:47.000Z</time>
      </trkpt>
      <trkpt lat="50.1848513446748256683349609375" lon="11.62413664162158966064453125">
        <ele>580.79998779296875</ele>
        <time>2018-08-17T14:29:55.000Z</time>
      </trkpt>
      <trkpt lat="50.1851021312177181243896484375" lon="11.6244425810873508453369140625">
        <ele>582</ele>
        <time>2018-08-17T14:30:01.000Z</time>
      </trkpt>
      <trkpt lat="50.185361467301845550537109375" lon="11.6247641108930110931396484375">
        <ele>583</ele>
        <time>2018-08-17T14:30:07.000Z</time>
      </trkpt>
      <trkpt lat="50.1854850165545940399169921875" lon="11.624943651258945465087890625">
        <ele>583.5999755859375</ele>
        <time>2018-08-17T14:30:10.000Z</time>
      </trkpt>
      <trkpt lat="50.1855705119669437408447265625" lon="11.62517675198614597320556640625">
        <ele>584.20001220703125</ele>
        <time>2018-08-17T14:30:13.000Z</time>
      </trkpt>
      <trkpt lat="50.18560253083705902099609375" lon="11.62525269202888011932373046875">
        <ele>584.4000244140625</ele>
        <time>2018-08-17T14:30:14.000Z</time>
      </trkpt>
      <trkpt lat="50.185953564941883087158203125" lon="11.62543592043220996856689453125">
        <ele>585.20001220703125</ele>
        <time>2018-08-17T14:30:20.000Z</time>
      </trkpt>
      <trkpt lat="50.18607820384204387664794921875" lon="11.6255339048802852630615234375">
        <ele>585.4000244140625</ele>
        <time>2018-08-17T14:30:22.000Z</time>
      </trkpt>
      <trkpt lat="50.1865977980196475982666015625" lon="11.625914275646209716796875">
        <ele>585.4000244140625</ele>
        <time>2018-08-17T14:30:30.000Z</time>
      </trkpt>
      <trkpt lat="50.18716550432145595550537109375" lon="11.626243852078914642333984375">
        <ele>585</ele>
        <time>2018-08-17T14:30:38.000Z</time>
      </trkpt>
      <trkpt lat="50.1877260021865367889404296875" lon="11.6265310160815715789794921875">
        <ele>584.5999755859375</ele>
        <time>2018-08-17T14:30:45.000Z</time>
      </trkpt>
      <trkpt lat="50.1879660598933696746826171875" lon="11.62666470743715763092041015625">
        <ele>584</ele>
        <time>2018-08-17T14:30:48.000Z</time>
      </trkpt>
      <trkpt lat="50.18849956803023815155029296875" lon="11.62703686393797397613525390625">
        <ele>583.4000244140625</ele>
        <time>2018-08-17T14:30:55.000Z</time>
      </trkpt>
      <trkpt lat="50.1888575591146945953369140625" lon="11.6274278797209262847900390625">
        <ele>583</ele>
        <time>2018-08-17T14:31:00.000Z</time>
      </trkpt>
      <trkpt lat="50.18925326876342296600341796875" lon="11.62800547666847705841064453125">
        <ele>582.20001220703125</ele>
        <time>2018-08-17T14:31:06.000Z</time>
      </trkpt>
      <trkpt lat="50.18938285298645496368408203125" lon="11.62820530124008655548095703125">
        <ele>581.79998779296875</ele>
        <time>2018-08-17T14:31:08.000Z</time>
      </trkpt>
      <trkpt lat="50.1897661574184894561767578125" lon="11.6288129054009914398193359375">
        <ele>580.5999755859375</ele>
        <time>2018-08-17T14:31:14.000Z</time>
      </trkpt>
      <trkpt lat="50.18998232670128345489501953125" lon="11.62910786457359790802001953125">
        <ele>579.5999755859375</ele>
        <time>2018-08-17T14:31:17.000Z</time>
      </trkpt>
      <trkpt lat="50.1903693191707134246826171875" lon="11.62963592447340488433837890625">
        <ele>578</ele>
        <time>2018-08-17T14:31:22.000Z</time>
      </trkpt>
      <trkpt lat="50.19068665802478790283203125" lon="11.6301412694156169891357421875">
        <ele>576.79998779296875</ele>
        <time>2018-08-17T14:31:26.000Z</time>
      </trkpt>
      <trkpt lat="50.19083686172962188720703125" lon="11.63043849170207977294921875">
        <ele>575.79998779296875</ele>
        <time>2018-08-17T14:31:28.000Z</time>
      </trkpt>
      <trkpt lat="50.1910293102264404296875" lon="11.63094542920589447021484375">
        <ele>574.4000244140625</ele>
        <time>2018-08-17T14:31:31.000Z</time>
      </trkpt>
      <trkpt lat="50.1911545358598232269287109375" lon="11.63151313550770282745361328125">
        <ele>572.79998779296875</ele>
        <time>2018-08-17T14:31:34.000Z</time>
      </trkpt>
      <trkpt lat="50.19119233824312686920166015625" lon="11.631897278130054473876953125">
        <ele>571.79998779296875</ele>
        <time>2018-08-17T14:31:36.000Z</time>
      </trkpt>
      <trkpt lat="50.19119753502309322357177734375" lon="11.63227178156375885009765625">
        <ele>570.4000244140625</ele>
        <time>2018-08-17T14:31:38.000Z</time>
      </trkpt>
      <trkpt lat="50.19117104820907115936279296875" lon="11.63263245485723018646240234375">
        <ele>569.20001220703125</ele>
        <time>2018-08-17T14:31:40.000Z</time>
      </trkpt>
      <trkpt lat="50.19111271016299724578857421875" lon="11.6329740174114704132080078125">
        <ele>568</ele>
        <time>2018-08-17T14:31:42.000Z</time>
      </trkpt>
      <trkpt lat="50.19088606350123882293701171875" lon="11.633809022605419158935546875">
        <ele>567.20001220703125</ele>
        <time>2018-08-17T14:31:48.000Z</time>
      </trkpt>
      <trkpt lat="50.1906905137002468109130859375" lon="11.63457185961306095123291015625">
        <ele>569</ele>
        <time>2018-08-17T14:31:57.000Z</time>
      </trkpt>
      <trkpt lat="50.1906690560281276702880859375" lon="11.63469825871288776397705078125">
        <ele>570</ele>
        <time>2018-08-17T14:31:59.000Z</time>
      </trkpt>
      <trkpt lat="50.190644077956676483154296875" lon="11.634895987808704376220703125">
        <ele>571.20001220703125</ele>
        <time>2018-08-17T14:32:02.000Z</time>
      </trkpt>
      <trkpt lat="50.1906355284154415130615234375" lon="11.6350882686674594879150390625">
        <ele>572.20001220703125</ele>
        <time>2018-08-17T14:32:05.000Z</time>
      </trkpt>
      <trkpt lat="50.190637372434139251708984375" lon="11.63534366525709629058837890625">
        <ele>573.4000244140625</ele>
        <time>2018-08-17T14:32:09.000Z</time>
      </trkpt>
      <trkpt lat="50.1906633563339710235595703125" lon="11.63562647067010402679443359375">
        <ele>575</ele>
        <time>2018-08-17T14:32:14.000Z</time>
      </trkpt>
      <trkpt lat="50.19069713540375232696533203125" lon="11.635818667709827423095703125">
        <ele>576.20001220703125</ele>
        <time>2018-08-17T14:32:18.000Z</time>
      </trkpt>
      <trkpt lat="50.19074826501309871673583984375" lon="11.6360035724937915802001953125">
        <ele>577.20001220703125</ele>
        <time>2018-08-17T14:32:22.000Z</time>
      </trkpt>
      <trkpt lat="50.190822780132293701171875" lon="11.63622762076556682586669921875">
        <ele>578.4000244140625</ele>
        <time>2018-08-17T14:32:27.000Z</time>
      </trkpt>
      <trkpt lat="50.19091003574430942535400390625" lon="11.636432223021984100341796875">
        <ele>579.4000244140625</ele>
        <time>2018-08-17T14:32:32.000Z</time>
      </trkpt>
      <trkpt lat="50.1909855566918849945068359375" lon="11.6365852765738964080810546875">
        <ele>580.4000244140625</ele>
        <time>2018-08-17T14:32:36.000Z</time>
      </trkpt>
      <trkpt lat="50.19106258638203144073486328125" lon="11.6367276012897491455078125">
        <ele>581.5999755859375</ele>
        <time>2018-08-17T14:32:40.000Z</time>
      </trkpt>
      <trkpt lat="50.1911176554858684539794921875" lon="11.6368286870419979095458984375">
        <ele>582.79998779296875</ele>
        <time>2018-08-17T14:32:43.000Z</time>
      </trkpt>
      <trkpt lat="50.191195271909236907958984375" lon="11.6369547508656978607177734375">
        <ele>584</ele>
        <time>2018-08-17T14:32:47.000Z</time>
      </trkpt>
      <trkpt lat="50.191271044313907623291015625" lon="11.6370717622339725494384765625">
        <ele>585</ele>
        <time>2018-08-17T14:32:51.000Z</time>
      </trkpt>
      <trkpt lat="50.1913536898791790008544921875" lon="11.63718366064131259918212890625">
        <ele>586</ele>
        <time>2018-08-17T14:32:55.000Z</time>
      </trkpt>
      <trkpt lat="50.19143742509186267852783203125" lon="11.63729748688638210296630859375">
        <ele>587.20001220703125</ele>
        <time>2018-08-17T14:32:59.000Z</time>
      </trkpt>
      <trkpt lat="50.1915260218083858489990234375" lon="11.637417264282703399658203125">
        <ele>588.20001220703125</ele>
        <time>2018-08-17T14:33:03.000Z</time>
      </trkpt>
      <trkpt lat="50.19161394797265529632568359375" lon="11.6375320963561534881591796875">
        <ele>589.4000244140625</ele>
        <time>2018-08-17T14:33:07.000Z</time>
      </trkpt>
      <trkpt lat="50.19169642589986324310302734375" lon="11.63764298893511295318603515625">
        <ele>590.20001220703125</ele>
        <time>2018-08-17T14:33:11.000Z</time>
      </trkpt>
      <trkpt lat="50.19176063127815723419189453125" lon="11.63772932253777980804443359375">
        <ele>591.4000244140625</ele>
        <time>2018-08-17T14:33:14.000Z</time>
      </trkpt>
      <trkpt lat="50.1918460428714752197265625" lon="11.63784809410572052001953125">
        <ele>592.5999755859375</ele>
        <time>2018-08-17T14:33:18.000Z</time>
      </trkpt>
      <trkpt lat="50.1919239945709705352783203125" lon="11.6379763372242450714111328125">
        <ele>593.79998779296875</ele>
        <time>2018-08-17T14:33:22.000Z</time>
      </trkpt>
      <trkpt lat="50.1920042932033538818359375" lon="11.63810198195278644561767578125">
        <ele>595</ele>
        <time>2018-08-17T14:33:26.000Z</time>
      </trkpt>
      <trkpt lat="50.19207679666578769683837890625" lon="11.6382537782192230224609375">
        <ele>596.4000244140625</ele>
        <time>2018-08-17T14:33:30.000Z</time>
      </trkpt>
      <trkpt lat="50.19214577972888946533203125" lon="11.6384088434278964996337890625">
        <ele>597.5999755859375</ele>
        <time>2018-08-17T14:33:34.000Z</time>
      </trkpt>
      <trkpt lat="50.1922099851071834564208984375" lon="11.638561896979808807373046875">
        <ele>598.79998779296875</ele>
        <time>2018-08-17T14:33:38.000Z</time>
      </trkpt>
      <trkpt lat="50.19225843250751495361328125" lon="11.63868117146193981170654296875">
        <ele>599.79998779296875</ele>
        <time>2018-08-17T14:33:41.000Z</time>
      </trkpt>
      <trkpt lat="50.19232389517128467559814453125" lon="11.63884797133505344390869140625">
        <ele>600.79998779296875</ele>
        <time>2018-08-17T14:33:45.000Z</time>
      </trkpt>
      <trkpt lat="50.19239832647144794464111328125" lon="11.63901887834072113037109375">
        <ele>601.79998779296875</ele>
        <time>2018-08-17T14:33:49.000Z</time>
      </trkpt>
      <trkpt lat="50.1925053633749485015869140625" lon="11.6392430104315280914306640625">
        <ele>603</ele>
        <time>2018-08-17T14:33:54.000Z</time>
      </trkpt>
      <trkpt lat="50.19263033755123615264892578125" lon="11.63948482833802700042724609375">
        <ele>604.20001220703125</ele>
        <time>2018-08-17T14:33:59.000Z</time>
      </trkpt>
      <trkpt lat="50.19279244355857372283935546875" lon="11.63976830430328845977783203125">
        <ele>605.4000244140625</ele>
        <time>2018-08-17T14:34:05.000Z</time>
      </trkpt>
      <trkpt lat="50.19297324120998382568359375" lon="11.64005697704851627349853515625">
        <ele>606.79998779296875</ele>
        <time>2018-08-17T14:34:11.000Z</time>
      </trkpt>
      <trkpt lat="50.19318320788443088531494140625" lon="11.640349924564361572265625">
        <ele>607.79998779296875</ele>
        <time>2018-08-17T14:34:17.000Z</time>
      </trkpt>
      <trkpt lat="50.193414799869060516357421875" lon="11.64063381962478160858154296875">
        <ele>608.79998779296875</ele>
        <time>2018-08-17T14:34:23.000Z</time>
      </trkpt>
      <trkpt lat="50.19375099800527095794677734375" lon="11.6410132683813571929931640625">
        <ele>609.79998779296875</ele>
        <time>2018-08-17T14:34:31.000Z</time>
      </trkpt>
      <trkpt lat="50.19405744038522243499755859375" lon="11.6413408331573009490966796875">
        <ele>611</ele>
        <time>2018-08-17T14:34:38.000Z</time>
      </trkpt>
      <trkpt lat="50.19427486695349216461181640625" lon="11.64157896302640438079833984375">
        <ele>612</ele>
        <time>2018-08-17T14:34:43.000Z</time>
      </trkpt>
      <trkpt lat="50.19468180835247039794921875" lon="11.64204231463372707366943359375">
        <ele>613</ele>
        <time>2018-08-17T14:34:52.000Z</time>
      </trkpt>
      <trkpt lat="50.19505287520587444305419921875" lon="11.64257372729480266571044921875">
        <ele>613.4000244140625</ele>
        <time>2018-08-17T14:35:00.000Z</time>
      </trkpt>
      <trkpt lat="50.19541631452739238739013671875" lon="11.64335341192781925201416015625">
        <ele>613.4000244140625</ele>
        <time>2018-08-17T14:35:08.000Z</time>
      </trkpt>
      <trkpt lat="50.1956831105053424835205078125" lon="11.6441397182643413543701171875">
        <ele>612.79998779296875</ele>
        <time>2018-08-17T14:35:14.000Z</time>
      </trkpt>
      <trkpt lat="50.19581244327127933502197265625" lon="11.644569374620914459228515625">
        <ele>611.79998779296875</ele>
        <time>2018-08-17T14:35:17.000Z</time>
      </trkpt>
      <trkpt lat="50.19593565724790096282958984375" lon="11.64499777369201183319091796875">
        <ele>610.79998779296875</ele>
        <time>2018-08-17T14:35:20.000Z</time>
      </trkpt>
      <trkpt lat="50.19605032168328762054443359375" lon="11.64541862905025482177734375">
        <ele>609.5999755859375</ele>
        <time>2018-08-17T14:35:23.000Z</time>
      </trkpt>
      <trkpt lat="50.19618744961917400360107421875" lon="11.645964123308658599853515625">
        <ele>608.4000244140625</ele>
        <time>2018-08-17T14:35:27.000Z</time>
      </trkpt>
      <trkpt lat="50.196383334696292877197265625" lon="11.6467595659196376800537109375">
        <ele>607.5999755859375</ele>
        <time>2018-08-17T14:35:33.000Z</time>
      </trkpt>
      <trkpt lat="50.19641677848994731903076171875" lon="11.646894179284572601318359375">
        <ele>607.4000244140625</ele>
        <time>2018-08-17T14:35:34.000Z</time>
      </trkpt>
      <trkpt lat="50.19659221172332763671875" lon="11.647582165896892547607421875">
        <ele>606.4000244140625</ele>
        <time>2018-08-17T14:35:39.000Z</time>
      </trkpt>
      <trkpt lat="50.1967974007129669189453125" lon="11.6483977250754833221435546875">
        <ele>605.20001220703125</ele>
        <time>2018-08-17T14:35:45.000Z</time>
      </trkpt>
      <trkpt lat="50.19702999852597713470458984375" lon="11.649206243455410003662109375">
        <ele>604</ele>
        <time>2018-08-17T14:35:51.000Z</time>
      </trkpt>
      <trkpt lat="50.1973055116832256317138671875" lon="11.64983756840229034423828125">
        <ele>602.79998779296875</ele>
        <time>2018-08-17T14:35:56.000Z</time>
      </trkpt>
      <trkpt lat="50.197472311556339263916015625" lon="11.65022053755819797515869140625">
        <ele>602</ele>
        <time>2018-08-17T14:35:59.000Z</time>
      </trkpt>
      <trkpt lat="50.1975613273680210113525390625" lon="11.65049144066870212554931640625">
        <ele>601.4000244140625</ele>
        <time>2018-08-17T14:36:01.000Z</time>
      </trkpt>
      <trkpt lat="50.1977066695690155029296875" lon="11.650873236358165740966796875">
        <ele>600.79998779296875</ele>
        <time>2018-08-17T14:36:04.000Z</time>
      </trkpt>
      <trkpt lat="50.19776576198637485504150390625" lon="11.650986559689044952392578125">
        <ele>600.20001220703125</ele>
        <time>2018-08-17T14:36:05.000Z</time>
      </trkpt>
      <trkpt lat="50.19782938063144683837890625" lon="11.6510893218219280242919921875">
        <ele>600</ele>
        <time>2018-08-17T14:36:06.000Z</time>
      </trkpt>
      <trkpt lat="50.198276303708553314208984375" lon="11.651579998433589935302734375">
        <ele>599.20001220703125</ele>
        <time>2018-08-17T14:36:12.000Z</time>
      </trkpt>
      <trkpt lat="50.1984353922307491302490234375" lon="11.65171444416046142578125">
        <ele>599</ele>
        <time>2018-08-17T14:36:14.000Z</time>
      </trkpt>
      <trkpt lat="50.1986657269299030303955078125" lon="11.651918627321720123291015625">
        <ele>599</ele>
        <time>2018-08-17T14:36:17.000Z</time>
      </trkpt>
      <trkpt lat="50.19879774190485477447509765625" lon="11.6520827449858188629150390625">
        <ele>598.79998779296875</ele>
        <time>2018-08-17T14:36:19.000Z</time>
      </trkpt>
      <trkpt lat="50.19926813431084156036376953125" lon="11.65262748487293720245361328125">
        <ele>599.4000244140625</ele>
        <time>2018-08-17T14:36:27.000Z</time>
      </trkpt>
      <trkpt lat="50.19943459890782833099365234375" lon="11.6528173349797725677490234375">
        <ele>600.20001220703125</ele>
        <time>2018-08-17T14:36:31.000Z</time>
      </trkpt>
      <trkpt lat="50.19950685091316699981689453125" lon="11.6529745794832706451416015625">
        <ele>601.20001220703125</ele>
        <time>2018-08-17T14:36:34.000Z</time>
      </trkpt>
      <trkpt lat="50.199566446244716644287109375" lon="11.653124950826168060302734375">
        <ele>602.4000244140625</ele>
        <time>2018-08-17T14:36:37.000Z</time>
      </trkpt>
      <trkpt lat="50.19961950369179248809814453125" lon="11.65327423252165317535400390625">
        <ele>603.4000244140625</ele>
        <time>2018-08-17T14:36:40.000Z</time>
      </trkpt>
      <trkpt lat="50.19968236796557903289794921875" lon="11.653491072356700897216796875">
        <ele>604.20001220703125</ele>
        <time>2018-08-17T14:36:44.000Z</time>
      </trkpt>
      <trkpt lat="50.1997372694313526153564453125" lon="11.653711684048175811767578125">
        <ele>605.4000244140625</ele>
        <time>2018-08-17T14:36:48.000Z</time>
      </trkpt>
      <trkpt lat="50.1997902430593967437744140625" lon="11.653934977948665618896484375">
        <ele>606.4000244140625</ele>
        <time>2018-08-17T14:36:52.000Z</time>
      </trkpt>
      <trkpt lat="50.1998217590153217315673828125" lon="11.65409691631793975830078125">
        <ele>607.5999755859375</ele>
        <time>2018-08-17T14:36:55.000Z</time>
      </trkpt>
      <trkpt lat="50.199861824512481689453125" lon="11.65431090630590915679931640625">
        <ele>608.79998779296875</ele>
        <time>2018-08-17T14:36:59.000Z</time>
      </trkpt>
      <trkpt lat="50.19988688640296459197998046875" lon="11.65446362458169460296630859375">
        <ele>610.20001220703125</ele>
        <time>2018-08-17T14:37:02.000Z</time>
      </trkpt>
      <trkpt lat="50.199913792312145233154296875" lon="11.6546248085796833038330078125">
        <ele>611.4000244140625</ele>
        <time>2018-08-17T14:37:05.000Z</time>
      </trkpt>
      <trkpt lat="50.19994656555354595184326171875" lon="11.6548271477222442626953125">
        <ele>612.4000244140625</ele>
        <time>2018-08-17T14:37:09.000Z</time>
      </trkpt>
      <trkpt lat="50.19997506402432918548583984375" lon="11.65503359399735927581787109375">
        <ele>613.5999755859375</ele>
        <time>2018-08-17T14:37:13.000Z</time>
      </trkpt>
      <trkpt lat="50.20000708289444446563720703125" lon="11.65524800308048725128173828125">
        <ele>615</ele>
        <time>2018-08-17T14:37:17.000Z</time>
      </trkpt>
      <trkpt lat="50.20003675483167171478271484375" lon="11.6554653458297252655029296875">
        <ele>616</ele>
        <time>2018-08-17T14:37:21.000Z</time>
      </trkpt>
      <trkpt lat="50.20006776787340641021728515625" lon="11.6556869633495807647705078125">
        <ele>617.20001220703125</ele>
        <time>2018-08-17T14:37:25.000Z</time>
      </trkpt>
      <trkpt lat="50.20009291358292102813720703125" lon="11.65591285564005374908447265625">
        <ele>618.4000244140625</ele>
        <time>2018-08-17T14:37:29.000Z</time>
      </trkpt>
      <trkpt lat="50.2001126110553741455078125" lon="11.65610178373754024505615234375">
        <ele>619.5999755859375</ele>
        <time>2018-08-17T14:37:32.000Z</time>
      </trkpt>
      <trkpt lat="50.20014035515487194061279296875" lon="11.65641560219228267669677734375">
        <ele>620.79998779296875</ele>
        <time>2018-08-17T14:37:37.000Z</time>
      </trkpt>
      <trkpt lat="50.2001674287021160125732421875" lon="11.6566644608974456787109375">
        <ele>621.5999755859375</ele>
        <time>2018-08-17T14:37:41.000Z</time>
      </trkpt>
      <trkpt lat="50.20017220638692378997802734375" lon="11.65678909979760646820068359375">
        <ele>622</ele>
        <time>2018-08-17T14:37:43.000Z</time>
      </trkpt>
      <trkpt lat="50.20018746145069599151611328125" lon="11.65697501040995121002197265625">
        <ele>622.79998779296875</ele>
        <time>2018-08-17T14:37:46.000Z</time>
      </trkpt>
      <trkpt lat="50.2002059854567050933837890625" lon="11.65722462348639965057373046875">
        <ele>623.79998779296875</ele>
        <time>2018-08-17T14:37:50.000Z</time>
      </trkpt>
      <trkpt lat="50.20021746866405010223388671875" lon="11.65754598565399646759033203125">
        <ele>624.79998779296875</ele>
        <time>2018-08-17T14:37:55.000Z</time>
      </trkpt>
      <trkpt lat="50.2002264373004436492919921875" lon="11.6576810181140899658203125">
        <ele>625.20001220703125</ele>
        <time>2018-08-17T14:37:57.000Z</time>
      </trkpt>
      <trkpt lat="50.20023574121296405792236328125" lon="11.65788746438920497894287109375">
        <ele>625.79998779296875</ele>
        <time>2018-08-17T14:38:00.000Z</time>
      </trkpt>
      <trkpt lat="50.20025451667606830596923828125" lon="11.658250652253627777099609375">
        <ele>626.79998779296875</ele>
        <time>2018-08-17T14:38:05.000Z</time>
      </trkpt>
      <trkpt lat="50.20028284750878810882568359375" lon="11.65878851898014545440673828125">
        <ele>628</ele>
        <time>2018-08-17T14:38:12.000Z</time>
      </trkpt>
      <trkpt lat="50.20028217695653438568115234375" lon="11.658956743776798248291015625">
        <ele>628.20001220703125</ele>
        <time>2018-08-17T14:38:14.000Z</time>
      </trkpt>
      <trkpt lat="50.2003112621605396270751953125" lon="11.6594182513654232025146484375">
        <ele>629</ele>
        <time>2018-08-17T14:38:20.000Z</time>
      </trkpt>
      <trkpt lat="50.20035090856254100799560546875" lon="11.65969929657876491546630859375">
        <ele>630.20001220703125</ele>
        <time>2018-08-17T14:38:24.000Z</time>
      </trkpt>
      <trkpt lat="50.20038996823132038116455078125" lon="11.65990532375872135162353515625">
        <ele>631.20001220703125</ele>
        <time>2018-08-17T14:38:27.000Z</time>
      </trkpt>
      <trkpt lat="50.2004178799688816070556640625" lon="11.66003943420946598052978515625">
        <ele>631.5999755859375</ele>
        <time>2018-08-17T14:38:29.000Z</time>
      </trkpt>
      <trkpt lat="50.200481079518795013427734375" lon="11.66029692627489566802978515625">
        <ele>632.20001220703125</ele>
        <time>2018-08-17T14:38:33.000Z</time>
      </trkpt>
      <trkpt lat="50.20057638175785541534423828125" lon="11.6606805659830570220947265625">
        <ele>633.20001220703125</ele>
        <time>2018-08-17T14:38:39.000Z</time>
      </trkpt>
      <trkpt lat="50.2006651461124420166015625" lon="11.66106672026216983795166015625">
        <ele>634.4000244140625</ele>
        <time>2018-08-17T14:38:45.000Z</time>
      </trkpt>
      <trkpt lat="50.2007367275655269622802734375" lon="11.661324463784694671630859375">
        <ele>635.4000244140625</ele>
        <time>2018-08-17T14:38:49.000Z</time>
      </trkpt>
      <trkpt lat="50.20078995265066623687744140625" lon="11.66152202524244785308837890625">
        <ele>636.20001220703125</ele>
        <time>2018-08-17T14:38:52.000Z</time>
      </trkpt>
      <trkpt lat="50.20084426738321781158447265625" lon="11.66172017343342304229736328125">
        <ele>636.5999755859375</ele>
        <time>2018-08-17T14:38:55.000Z</time>
      </trkpt>
      <trkpt lat="50.2009204588830471038818359375" lon="11.66199007071554660797119140625">
        <ele>637.5999755859375</ele>
        <time>2018-08-17T14:38:59.000Z</time>
      </trkpt>
      <trkpt lat="50.2010525576770305633544921875" lon="11.66247270070016384124755859375">
        <ele>639</ele>
        <time>2018-08-17T14:39:06.000Z</time>
      </trkpt>
      <trkpt lat="50.201168060302734375" lon="11.66287352330982685089111328125">
        <ele>640.20001220703125</ele>
        <time>2018-08-17T14:39:12.000Z</time>
      </trkpt>
      <trkpt lat="50.20128565840423107147216796875" lon="11.66326344944536685943603515625">
        <ele>641.4000244140625</ele>
        <time>2018-08-17T14:39:18.000Z</time>
      </trkpt>
      <trkpt lat="50.2013020031154155731201171875" lon="11.6633339412510395050048828125">
        <ele>641.5999755859375</ele>
        <time>2018-08-17T14:39:19.000Z</time>
      </trkpt>
      <trkpt lat="50.2013942040503025054931640625" lon="11.66366276331245899200439453125">
        <ele>642.4000244140625</ele>
        <time>2018-08-17T14:39:24.000Z</time>
      </trkpt>
      <trkpt lat="50.20149101503193378448486328125" lon="11.66399694979190826416015625">
        <ele>643.4000244140625</ele>
        <time>2018-08-17T14:39:29.000Z</time>
      </trkpt>
      <trkpt lat="50.20155069418251514434814453125" lon="11.66419819928705692291259765625">
        <ele>644.5999755859375</ele>
        <time>2018-08-17T14:39:32.000Z</time>
      </trkpt>
      <trkpt lat="50.20167776383459568023681640625" lon="11.6646053083240985870361328125">
        <ele>645.79998779296875</ele>
        <time>2018-08-17T14:39:38.000Z</time>
      </trkpt>
      <trkpt lat="50.2017921768128871917724609375" lon="11.66498375125229358673095703125">
        <ele>647</ele>
        <time>2018-08-17T14:39:43.000Z</time>
      </trkpt>
      <trkpt lat="50.2020101062953472137451171875" lon="11.6656517051160335540771484375">
        <ele>648</ele>
        <time>2018-08-17T14:39:51.000Z</time>
      </trkpt>
      <trkpt lat="50.20213298499584197998046875" lon="11.6660101152956485748291015625">
        <ele>649.20001220703125</ele>
        <time>2018-08-17T14:39:56.000Z</time>
      </trkpt>
      <trkpt lat="50.20225829444825649261474609375" lon="11.6663712076842784881591796875">
        <ele>650.4000244140625</ele>
        <time>2018-08-17T14:40:01.000Z</time>
      </trkpt>
      <trkpt lat="50.2025043033063411712646484375" lon="11.6670494712889194488525390625">
        <ele>651.20001220703125</ele>
        <time>2018-08-17T14:40:10.000Z</time>
      </trkpt>
      <trkpt lat="50.2027963288128376007080078125" lon="11.66786092333495616912841796875">
        <ele>652.20001220703125</ele>
        <time>2018-08-17T14:40:20.000Z</time>
      </trkpt>
      <trkpt lat="50.2028261683881282806396484375" lon="11.66794373653829097747802734375">
        <ele>652.4000244140625</ele>
        <time>2018-08-17T14:40:21.000Z</time>
      </trkpt>
      <trkpt lat="50.203038565814495086669921875" lon="11.6685303859412670135498046875">
        <ele>653.5999755859375</ele>
        <time>2018-08-17T14:40:28.000Z</time>
      </trkpt>
      <trkpt lat="50.20332681946456432342529296875" lon="11.66927226819097995758056640625">
        <ele>654.4000244140625</ele>
        <time>2018-08-17T14:40:37.000Z</time>
      </trkpt>
      <trkpt lat="50.20336269401013851165771484375" lon="11.66935306973755359649658203125">
        <ele>654.5999755859375</ele>
        <time>2018-08-17T14:40:38.000Z</time>
      </trkpt>
      <trkpt lat="50.20375831983983516693115234375" lon="11.6700505279004573822021484375">
        <ele>655</ele>
        <time>2018-08-17T14:40:47.000Z</time>
      </trkpt>
      <trkpt lat="50.2041924186050891876220703125" lon="11.6706523485481739044189453125">
        <ele>655</ele>
        <time>2018-08-17T14:40:55.000Z</time>
      </trkpt>
      <trkpt lat="50.2046333067119121551513671875" lon="11.67126196436583995819091796875">
        <ele>654.5999755859375</ele>
        <time>2018-08-17T14:41:02.000Z</time>
      </trkpt>
      <trkpt lat="50.2050399966537952423095703125" lon="11.67200091294944286346435546875">
        <ele>653.79998779296875</ele>
        <time>2018-08-17T14:41:09.000Z</time>
      </trkpt>
      <trkpt lat="50.20509456284344196319580078125" lon="11.67211574502289295196533203125">
        <ele>653.4000244140625</ele>
        <time>2018-08-17T14:41:10.000Z</time>
      </trkpt>
      <trkpt lat="50.20535171963274478912353515625" lon="11.6727220080792903900146484375">
        <ele>652.20001220703125</ele>
        <time>2018-08-17T14:41:15.000Z</time>
      </trkpt>
      <trkpt lat="50.20564709790050983428955078125" lon="11.67350026778876781463623046875">
        <ele>651.4000244140625</ele>
        <time>2018-08-17T14:41:21.000Z</time>
      </trkpt>
      <trkpt lat="50.205698646605014801025390625" lon="11.67363488115370273590087890625">
        <ele>651.20001220703125</ele>
        <time>2018-08-17T14:41:22.000Z</time>
      </trkpt>
      <trkpt lat="50.20602730102837085723876953125" lon="11.67450861074030399322509765625">
        <ele>650.20001220703125</ele>
        <time>2018-08-17T14:41:28.000Z</time>
      </trkpt>
      <trkpt lat="50.20608882419764995574951171875" lon="11.674666106700897216796875">
        <ele>650</ele>
        <time>2018-08-17T14:41:29.000Z</time>
      </trkpt>
      <trkpt lat="50.20635419525206089019775390625" lon="11.67533640749752521514892578125">
        <ele>648.5999755859375</ele>
        <time>2018-08-17T14:41:33.000Z</time>
      </trkpt>
      <trkpt lat="50.2065973542630672454833984375" lon="11.6758491285145282745361328125">
        <ele>647.20001220703125</ele>
        <time>2018-08-17T14:41:36.000Z</time>
      </trkpt>
      <trkpt lat="50.20678033120930194854736328125" lon="11.67618348263204097747802734375">
        <ele>645.79998779296875</ele>
        <time>2018-08-17T14:41:38.000Z</time>
      </trkpt>
      <trkpt lat="50.20697562955319881439208984375" lon="11.67650082148611545562744140625">
        <ele>644.20001220703125</ele>
        <time>2018-08-17T14:41:40.000Z</time>
      </trkpt>
      <trkpt lat="50.20718467421829700469970703125" lon="11.6767986305058002471923828125">
        <ele>642.5999755859375</ele>
        <time>2018-08-17T14:41:42.000Z</time>
      </trkpt>
      <trkpt lat="50.20739455707371234893798828125" lon="11.677075065672397613525390625">
        <ele>640.5999755859375</ele>
        <time>2018-08-17T14:41:44.000Z</time>
      </trkpt>
      <trkpt lat="50.20759471692144870758056640625" lon="11.67734052054584026336669921875">
        <ele>638.79998779296875</ele>
        <time>2018-08-17T14:41:46.000Z</time>
      </trkpt>
      <trkpt lat="50.20778448320925235748291015625" lon="11.67761058546602725982666015625">
        <ele>636.5999755859375</ele>
        <time>2018-08-17T14:41:48.000Z</time>
      </trkpt>
      <trkpt lat="50.20796234719455242156982421875" lon="11.67788567952811717987060546875">
        <ele>634.20001220703125</ele>
        <time>2018-08-17T14:41:50.000Z</time>
      </trkpt>
      <trkpt lat="50.20813266746699810028076171875" lon="11.67816412635147571563720703125">
        <ele>632.79998779296875</ele>
        <time>2018-08-17T14:41:52.000Z</time>
      </trkpt>
      <trkpt lat="50.20836451090872287750244140625" lon="11.678593195974826812744140625">
        <ele>631.4000244140625</ele>
        <time>2018-08-17T14:41:55.000Z</time>
      </trkpt>
      <trkpt lat="50.208573304116725921630859375" lon="11.67902712710201740264892578125">
        <ele>630.20001220703125</ele>
        <time>2018-08-17T14:41:58.000Z</time>
      </trkpt>
      <trkpt lat="50.20880958996713161468505859375" lon="11.67959533631801605224609375">
        <ele>629.20001220703125</ele>
        <time>2018-08-17T14:42:02.000Z</time>
      </trkpt>
      <trkpt lat="50.20907563157379627227783203125" lon="11.68038122355937957763671875">
        <ele>628.5999755859375</ele>
        <time>2018-08-17T14:42:08.000Z</time>
      </trkpt>
      <trkpt lat="50.2093045413494110107421875" lon="11.68117825873196125030517578125">
        <ele>629.20001220703125</ele>
        <time>2018-08-17T14:42:16.000Z</time>
      </trkpt>
      <trkpt lat="50.2093992568552494049072265625" lon="11.68149224482476711273193359375">
        <ele>630.5999755859375</ele>
        <time>2018-08-17T14:42:20.000Z</time>
      </trkpt>
      <trkpt lat="50.20947016775608062744140625" lon="11.681714616715908050537109375">
        <ele>631.5999755859375</ele>
        <time>2018-08-17T14:42:23.000Z</time>
      </trkpt>
      <trkpt lat="50.2095437608659267425537109375" lon="11.681929863989353179931640625">
        <ele>632.79998779296875</ele>
        <time>2018-08-17T14:42:26.000Z</time>
      </trkpt>
      <trkpt lat="50.2096228860318660736083984375" lon="11.6821436025202274322509765625">
        <ele>633.79998779296875</ele>
        <time>2018-08-17T14:42:29.000Z</time>
      </trkpt>
      <trkpt lat="50.20970561541616916656494140625" lon="11.68236128054559230804443359375">
        <ele>635</ele>
        <time>2018-08-17T14:42:32.000Z</time>
      </trkpt>
      <trkpt lat="50.20979471504688262939453125" lon="11.68257392942905426025390625">
        <ele>636.20001220703125</ele>
        <time>2018-08-17T14:42:35.000Z</time>
      </trkpt>
      <trkpt lat="50.209892950952053070068359375" lon="11.68278540484607219696044921875">
        <ele>637.20001220703125</ele>
        <time>2018-08-17T14:42:38.000Z</time>
      </trkpt>
      <trkpt lat="50.21003544330596923828125" lon="11.68307508341968059539794921875">
        <ele>638.5999755859375</ele>
        <time>2018-08-17T14:42:42.000Z</time>
      </trkpt>
      <trkpt lat="50.21019193343818187713623046875" lon="11.68337733484804630279541015625">
        <ele>639.5999755859375</ele>
        <time>2018-08-17T14:42:46.000Z</time>
      </trkpt>
      <trkpt lat="50.21035470999777317047119140625" lon="11.683668605983257293701171875">
        <ele>640.79998779296875</ele>
        <time>2018-08-17T14:42:50.000Z</time>
      </trkpt>
      <trkpt lat="50.21072669886052608489990234375" lon="11.68429029174149036407470703125">
        <ele>641.79998779296875</ele>
        <time>2018-08-17T14:42:58.000Z</time>
      </trkpt>
      <trkpt lat="50.211107321083545684814453125" lon="11.6849056072533130645751953125">
        <ele>641.79998779296875</ele>
        <time>2018-08-17T14:43:05.000Z</time>
      </trkpt>
      <trkpt lat="50.21143798716366291046142578125" lon="11.685658134520053863525390625">
        <ele>640.79998779296875</ele>
        <time>2018-08-17T14:43:12.000Z</time>
      </trkpt>
      <trkpt lat="50.21170578896999359130859375" lon="11.6864006035029888153076171875">
        <ele>640</ele>
        <time>2018-08-17T14:43:18.000Z</time>
      </trkpt>
      <trkpt lat="50.21181986667215824127197265625" lon="11.68664158321917057037353515625">
        <ele>639.4000244140625</ele>
        <time>2018-08-17T14:43:20.000Z</time>
      </trkpt>
      <trkpt lat="50.2121745049953460693359375" lon="11.68720082379877567291259765625">
        <ele>638.4000244140625</ele>
        <time>2018-08-17T14:43:25.000Z</time>
      </trkpt>
      <trkpt lat="50.2123134769499301910400390625" lon="11.687455885112285614013671875">
        <ele>637.79998779296875</ele>
        <time>2018-08-17T14:43:27.000Z</time>
      </trkpt>
      <trkpt lat="50.212421603500843048095703125" lon="11.687762998044490814208984375">
        <ele>637.20001220703125</ele>
        <time>2018-08-17T14:43:29.000Z</time>
      </trkpt>
      <trkpt lat="50.21250248886644840240478515625" lon="11.6881031356751918792724609375">
        <ele>636.4000244140625</ele>
        <time>2018-08-17T14:43:31.000Z</time>
      </trkpt>
      <trkpt lat="50.212540291249752044677734375" lon="11.68827873654663562774658203125">
        <ele>636</ele>
        <time>2018-08-17T14:43:32.000Z</time>
      </trkpt>
      <trkpt lat="50.21266040392220020294189453125" lon="11.68880746699869632720947265625">
        <ele>634.4000244140625</ele>
        <time>2018-08-17T14:43:35.000Z</time>
      </trkpt>
      <trkpt lat="50.212738774716854095458984375" lon="11.6891579143702983856201171875">
        <ele>633.20001220703125</ele>
        <time>2018-08-17T14:43:37.000Z</time>
      </trkpt>
      <trkpt lat="50.21285385824739933013916015625" lon="11.68967373669147491455078125">
        <ele>632</ele>
        <time>2018-08-17T14:43:40.000Z</time>
      </trkpt>
      <trkpt lat="50.21292929537594318389892578125" lon="11.69000825844705104827880859375">
        <ele>631</ele>
        <time>2018-08-17T14:43:42.000Z</time>
      </trkpt>
      <trkpt lat="50.2130450494587421417236328125" lon="11.6904970072209835052490234375">
        <ele>629.5999755859375</ele>
        <time>2018-08-17T14:43:45.000Z</time>
      </trkpt>
      <trkpt lat="50.213179998099803924560546875" lon="11.69095239602029323577880859375">
        <ele>628.4000244140625</ele>
        <time>2018-08-17T14:43:48.000Z</time>
      </trkpt>
      <trkpt lat="50.21349121816456317901611328125" lon="11.69182076118886470794677734375">
        <ele>627.4000244140625</ele>
        <time>2018-08-17T14:43:54.000Z</time>
      </trkpt>
      <trkpt lat="50.2136881090700626373291015625" lon="11.6926169581711292266845703125">
        <ele>626.4000244140625</ele>
        <time>2018-08-17T14:43:59.000Z</time>
      </trkpt>
      <trkpt lat="50.21379279904067516326904296875" lon="11.69291761703789234161376953125">
        <ele>625.20001220703125</ele>
        <time>2018-08-17T14:44:01.000Z</time>
      </trkpt>
      <trkpt lat="50.21395289339125156402587890625" lon="11.693160943686962127685546875">
        <ele>624.20001220703125</ele>
        <time>2018-08-17T14:44:03.000Z</time>
      </trkpt>
      <trkpt lat="50.21425682120025157928466796875" lon="11.69340242631733417510986328125">
        <ele>623.20001220703125</ele>
        <time>2018-08-17T14:44:06.000Z</time>
      </trkpt>
      <trkpt lat="50.21436654031276702880859375" lon="11.69346562586724758148193359375">
        <ele>623</ele>
        <time>2018-08-17T14:44:07.000Z</time>
      </trkpt>
      <trkpt lat="50.2149363420903682708740234375" lon="11.69377944432199001312255859375">
        <ele>621.5999755859375</ele>
        <time>2018-08-17T14:44:12.000Z</time>
      </trkpt>
      <trkpt lat="50.215270109474658966064453125" lon="11.6940046660602092742919921875">
        <ele>620</ele>
        <time>2018-08-17T14:44:15.000Z</time>
      </trkpt>
      <trkpt lat="50.215484015643596649169921875" lon="11.694188900291919708251953125">
        <ele>618.4000244140625</ele>
        <time>2018-08-17T14:44:17.000Z</time>
      </trkpt>
      <trkpt lat="50.21570202894508838653564453125" lon="11.6943731345236301422119140625">
        <ele>617.20001220703125</ele>
        <time>2018-08-17T14:44:19.000Z</time>
      </trkpt>
      <trkpt lat="50.2159240655601024627685546875" lon="11.69455778785049915313720703125">
        <ele>615.79998779296875</ele>
        <time>2018-08-17T14:44:21.000Z</time>
      </trkpt>
      <trkpt lat="50.21625607274472713470458984375" lon="11.6948348097503185272216796875">
        <ele>614.5999755859375</ele>
        <time>2018-08-17T14:44:24.000Z</time>
      </trkpt>
      <trkpt lat="50.2165993116796016693115234375" lon="11.6950342990458011627197265625">
        <ele>613.20001220703125</ele>
        <time>2018-08-17T14:44:27.000Z</time>
      </trkpt>
      <trkpt lat="50.216832496225833892822265625" lon="11.6950326226651668548583984375">
        <ele>612</ele>
        <time>2018-08-17T14:44:29.000Z</time>
      </trkpt>
      <trkpt lat="50.21712242625653743743896484375" lon="11.69489272870123386383056640625">
        <ele>610.79998779296875</ele>
        <time>2018-08-17T14:44:32.000Z</time>
      </trkpt>
      <trkpt lat="50.2173312194645404815673828125" lon="11.6950200498104095458984375">
        <ele>609.5999755859375</ele>
        <time>2018-08-17T14:44:35.000Z</time>
      </trkpt>
      <trkpt lat="50.2173967659473419189453125" lon="11.695249713957309722900390625">
        <ele>609.20001220703125</ele>
        <time>2018-08-17T14:44:37.000Z</time>
      </trkpt>
      <trkpt lat="50.2174478955566883087158203125" lon="11.69553947634994983673095703125">
        <ele>609</ele>
        <time>2018-08-17T14:44:40.000Z</time>
      </trkpt>
      <trkpt lat="50.217444710433483123779296875" lon="11.695703677833080291748046875">
        <ele>608.5999755859375</ele>
        <time>2018-08-17T14:44:44.000Z</time>
      </trkpt>
      <trkpt lat="50.2175196446478366851806640625" lon="11.6958292387425899505615234375">
        <ele>608.20001220703125</ele>
        <time>2018-08-17T14:44:51.000Z</time>
      </trkpt>
      <trkpt lat="50.21779348142445087432861328125" lon="11.69644405134022235870361328125">
        <ele>609.4000244140625</ele>
        <time>2018-08-17T14:45:06.000Z</time>
      </trkpt>
      <trkpt lat="50.21799623966217041015625" lon="11.696646474301815032958984375">
        <ele>610.4000244140625</ele>
        <time>2018-08-17T14:45:12.000Z</time>
      </trkpt>
      <trkpt lat="50.2181182801723480224609375" lon="11.696728952229022979736328125">
        <ele>610.79998779296875</ele>
        <time>2018-08-17T14:45:15.000Z</time>
      </trkpt>
      <trkpt lat="50.2182844094932079315185546875" lon="11.69681436382234096527099609375">
        <ele>611.4000244140625</ele>
        <time>2018-08-17T14:45:19.000Z</time>
      </trkpt>
      <trkpt lat="50.21850049495697021484375" lon="11.696885526180267333984375">
        <ele>612.5999755859375</ele>
        <time>2018-08-17T14:45:24.000Z</time>
      </trkpt>
      <trkpt lat="50.2187754213809967041015625" lon="11.69693271629512310028076171875">
        <ele>613.79998779296875</ele>
        <time>2018-08-17T14:45:30.000Z</time>
      </trkpt>
      <trkpt lat="50.21896493621170520782470703125" lon="11.6969460435211658477783203125">
        <ele>614.5999755859375</ele>
        <time>2018-08-17T14:45:34.000Z</time>
      </trkpt>
      <trkpt lat="50.219059400260448455810546875" lon="11.6969614662230014801025390625">
        <ele>614.79998779296875</ele>
        <time>2018-08-17T14:45:36.000Z</time>
      </trkpt>
      <trkpt lat="50.21932837553322315216064453125" lon="11.69700245372951030731201171875">
        <ele>615.79998779296875</ele>
        <time>2018-08-17T14:45:42.000Z</time>
      </trkpt>
      <trkpt lat="50.21959860809147357940673828125" lon="11.69700957834720611572265625">
        <ele>616.79998779296875</ele>
        <time>2018-08-17T14:45:49.000Z</time>
      </trkpt>
      <trkpt lat="50.2196798287332057952880859375" lon="11.69703095220029354095458984375">
        <ele>617.4000244140625</ele>
        <time>2018-08-17T14:45:51.000Z</time>
      </trkpt>
      <trkpt lat="50.21984185092151165008544921875" lon="11.69711778871715068817138671875">
        <ele>618</ele>
        <time>2018-08-17T14:45:55.000Z</time>
      </trkpt>
      <trkpt lat="50.220122896134853363037109375" lon="11.69726304709911346435546875">
        <ele>619</ele>
        <time>2018-08-17T14:46:02.000Z</time>
      </trkpt>
      <trkpt lat="50.22031894885003566741943359375" lon="11.6973580978810787200927734375">
        <ele>620.4000244140625</ele>
        <time>2018-08-17T14:46:07.000Z</time>
      </trkpt>
      <trkpt lat="50.22050745785236358642578125" lon="11.6974264942109584808349609375">
        <ele>621.4000244140625</ele>
        <time>2018-08-17T14:46:12.000Z</time>
      </trkpt>
      <trkpt lat="50.2206548117101192474365234375" lon="11.69745775870978832244873046875">
        <ele>622.5999755859375</ele>
        <time>2018-08-17T14:46:16.000Z</time>
      </trkpt>
      <trkpt lat="50.2208013273775577545166015625" lon="11.69748843647539615631103515625">
        <ele>623.5999755859375</ele>
        <time>2018-08-17T14:46:20.000Z</time>
      </trkpt>
      <trkpt lat="50.22095580585300922393798828125" lon="11.69751919806003570556640625">
        <ele>624.5999755859375</ele>
        <time>2018-08-17T14:46:24.000Z</time>
      </trkpt>
      <trkpt lat="50.2211064286530017852783203125" lon="11.6975502111017704010009765625">
        <ele>625.79998779296875</ele>
        <time>2018-08-17T14:46:28.000Z</time>
      </trkpt>
      <trkpt lat="50.22129736840724945068359375" lon="11.69760636985301971435546875">
        <ele>627.20001220703125</ele>
        <time>2018-08-17T14:46:33.000Z</time>
      </trkpt>
      <trkpt lat="50.2214507572352886199951171875" lon="11.69765104539692401885986328125">
        <ele>628.4000244140625</ele>
        <time>2018-08-17T14:46:37.000Z</time>
      </trkpt>
      <trkpt lat="50.2216354943811893463134765625" lon="11.6977020911872386932373046875">
        <ele>629.5999755859375</ele>
        <time>2018-08-17T14:46:42.000Z</time>
      </trkpt>
      <trkpt lat="50.2218621410429477691650390625" lon="11.69775749556720256805419921875">
        <ele>630.79998779296875</ele>
        <time>2018-08-17T14:46:48.000Z</time>
      </trkpt>
      <trkpt lat="50.222101025283336639404296875" lon="11.69781734235584735870361328125">
        <ele>632</ele>
        <time>2018-08-17T14:46:55.000Z</time>
      </trkpt>
      <trkpt lat="50.222247205674648284912109375" lon="11.69789395295083522796630859375">
        <ele>633.20001220703125</ele>
        <time>2018-08-17T14:46:59.000Z</time>
      </trkpt>
      <trkpt lat="50.2223311923444271087646484375" lon="11.69794038869440555572509765625">
        <ele>634.79998779296875</ele>
        <time>2018-08-17T14:47:01.000Z</time>
      </trkpt>
      <trkpt lat="50.2224673144519329071044921875" lon="11.6980035044252872467041015625">
        <ele>636</ele>
        <time>2018-08-17T14:47:04.000Z</time>
      </trkpt>
      <trkpt lat="50.22274064831435680389404296875" lon="11.69816351495683193206787109375">
        <ele>637</ele>
        <time>2018-08-17T14:47:10.000Z</time>
      </trkpt>
      <trkpt lat="50.222878195345401763916015625" lon="11.69826057739555835723876953125">
        <ele>637.5999755859375</ele>
        <time>2018-08-17T14:47:13.000Z</time>
      </trkpt>
      <trkpt lat="50.2229745872318744659423828125" lon="11.69834976084530353546142578125">
        <ele>637.79998779296875</ele>
        <time>2018-08-17T14:47:15.000Z</time>
      </trkpt>
      <trkpt lat="50.22349518723785877227783203125" lon="11.69876550324261188507080078125">
        <ele>637.79998779296875</ele>
        <time>2018-08-17T14:47:23.000Z</time>
      </trkpt>
      <trkpt lat="50.22402383387088775634765625" lon="11.699173115193843841552734375">
        <ele>636</ele>
        <time>2018-08-17T14:47:30.000Z</time>
      </trkpt>
      <trkpt lat="50.224339999258518218994140625" lon="11.6994093172252178192138671875">
        <ele>634.79998779296875</ele>
        <time>2018-08-17T14:47:34.000Z</time>
      </trkpt>
      <trkpt lat="50.2247488684952259063720703125" lon="11.6997013427317142486572265625">
        <ele>633.79998779296875</ele>
        <time>2018-08-17T14:47:39.000Z</time>
      </trkpt>
      <trkpt lat="50.22524734027683734893798828125" lon="11.7000429891049861907958984375">
        <ele>632.79998779296875</ele>
        <time>2018-08-17T14:47:45.000Z</time>
      </trkpt>
      <trkpt lat="50.2253302372992038726806640625" lon="11.7001006565988063812255859375">
        <ele>632.5999755859375</ele>
        <time>2018-08-17T14:47:46.000Z</time>
      </trkpt>
      <trkpt lat="50.22575327195227146148681640625" lon="11.70036292634904384613037109375">
        <ele>631.5999755859375</ele>
        <time>2018-08-17T14:47:51.000Z</time>
      </trkpt>
      <trkpt lat="50.22627244703471660614013671875" lon="11.70066651888191699981689453125">
        <ele>630.20001220703125</ele>
        <time>2018-08-17T14:47:57.000Z</time>
      </trkpt>
      <trkpt lat="50.22653865627944469451904296875" lon="11.70082359574735164642333984375">
        <ele>629.20001220703125</ele>
        <time>2018-08-17T14:48:00.000Z</time>
      </trkpt>
      <trkpt lat="50.226903855800628662109375" lon="11.70107488520443439483642578125">
        <ele>628</ele>
        <time>2018-08-17T14:48:04.000Z</time>
      </trkpt>
      <trkpt lat="50.2272967994213104248046875" lon="11.70140563510358333587646484375">
        <ele>627</ele>
        <time>2018-08-17T14:48:08.000Z</time>
      </trkpt>
      <trkpt lat="50.22772528231143951416015625" lon="11.701827161014080047607421875">
        <ele>625.4000244140625</ele>
        <time>2018-08-17T14:48:12.000Z</time>
      </trkpt>
      <trkpt lat="50.22805594839155673980712890625" lon="11.70219965279102325439453125">
        <ele>623.79998779296875</ele>
        <time>2018-08-17T14:48:15.000Z</time>
      </trkpt>
      <trkpt lat="50.22825024090707302093505859375" lon="11.702430658042430877685546875">
        <ele>622.4000244140625</ele>
        <time>2018-08-17T14:48:17.000Z</time>
      </trkpt>
      <trkpt lat="50.22840446792542934417724609375" lon="11.70261866413056850433349609375">
        <ele>620.5999755859375</ele>
        <time>2018-08-17T14:48:19.000Z</time>
      </trkpt>
      <trkpt lat="50.22854394279420375823974609375" lon="11.70277364552021026611328125">
        <ele>617.4000244140625</ele>
        <time>2018-08-17T14:48:21.000Z</time>
      </trkpt>
      <trkpt lat="50.2286578528583049774169921875" lon="11.70291244983673095703125">
        <ele>615.4000244140625</ele>
        <time>2018-08-17T14:48:23.000Z</time>
      </trkpt>
      <trkpt lat="50.2287098206579685211181640625" lon="11.70307941734790802001953125">
        <ele>613.5999755859375</ele>
        <time>2018-08-17T14:48:25.000Z</time>
      </trkpt>
      <trkpt lat="50.228748209774494171142578125" lon="11.70326172374188899993896484375">
        <ele>612.20001220703125</ele>
        <time>2018-08-17T14:48:27.000Z</time>
      </trkpt>
      <trkpt lat="50.2288362197577953338623046875" lon="11.7034383304417133331298828125">
        <ele>610.4000244140625</ele>
        <time>2018-08-17T14:48:29.000Z</time>
      </trkpt>
      <trkpt lat="50.228950046002864837646484375" lon="11.703636646270751953125">
        <ele>609</ele>
        <time>2018-08-17T14:48:31.000Z</time>
      </trkpt>
      <trkpt lat="50.22906680591404438018798828125" lon="11.70387343503534793853759765625">
        <ele>607.5999755859375</ele>
        <time>2018-08-17T14:48:33.000Z</time>
      </trkpt>
      <trkpt lat="50.22917241789400577545166015625" lon="11.7041430808603763580322265625">
        <ele>605.5999755859375</ele>
        <time>2018-08-17T14:48:35.000Z</time>
      </trkpt>
      <trkpt lat="50.22927937097847461700439453125" lon="11.7044292390346527099609375">
        <ele>604.4000244140625</ele>
        <time>2018-08-17T14:48:37.000Z</time>
      </trkpt>
      <trkpt lat="50.22938615642488002777099609375" lon="11.70472017489373683929443359375">
        <ele>603.20001220703125</ele>
        <time>2018-08-17T14:48:39.000Z</time>
      </trkpt>
      <trkpt lat="50.22955588996410369873046875" lon="11.705147065222263336181640625">
        <ele>601.5999755859375</ele>
        <time>2018-08-17T14:48:42.000Z</time>
      </trkpt>
      <trkpt lat="50.22967499680817127227783203125" lon="11.70541972853243350982666015625">
        <ele>600.4000244140625</ele>
        <time>2018-08-17T14:48:44.000Z</time>
      </trkpt>
      <trkpt lat="50.22979401983320713043212890625" lon="11.7056866921484470367431640625">
        <ele>599.20001220703125</ele>
        <time>2018-08-17T14:48:46.000Z</time>
      </trkpt>
      <trkpt lat="50.2299721352756023406982421875" lon="11.70606882311403751373291015625">
        <ele>597.79998779296875</ele>
        <time>2018-08-17T14:48:49.000Z</time>
      </trkpt>
      <trkpt lat="50.2300348319113254547119140625" lon="11.70618533156812191009521484375">
        <ele>597.4000244140625</ele>
        <time>2018-08-17T14:48:50.000Z</time>
      </trkpt>
      <trkpt lat="50.23033716715872287750244140625" lon="11.70651339925825595855712890625">
        <ele>596.79998779296875</ele>
        <time>2018-08-17T14:48:54.000Z</time>
      </trkpt>
      <trkpt lat="50.230417214334011077880859375" lon="11.70656452886760234832763671875">
        <ele>596.79998779296875</ele>
        <time>2018-08-17T14:48:55.000Z</time>
      </trkpt>
      <trkpt lat="50.23063841275870800018310546875" lon="11.70666729100048542022705078125">
        <ele>596.5999755859375</ele>
        <time>2018-08-17T14:48:58.000Z</time>
      </trkpt>
      <trkpt lat="50.230875872075557708740234375" lon="11.7067225277423858642578125">
        <ele>597.20001220703125</ele>
        <time>2018-08-17T14:49:02.000Z</time>
      </trkpt>
      <trkpt lat="50.23097486235201358795166015625" lon="11.70677189715206623077392578125">
        <ele>598</ele>
        <time>2018-08-17T14:49:04.000Z</time>
      </trkpt>
      <trkpt lat="50.231109224259853363037109375" lon="11.70686644501984119415283203125">
        <ele>599.20001220703125</ele>
        <time>2018-08-17T14:49:07.000Z</time>
      </trkpt>
      <trkpt lat="50.23119245655834674835205078125" lon="11.70693199150264263153076171875">
        <ele>600</ele>
        <time>2018-08-17T14:49:09.000Z</time>
      </trkpt>
      <trkpt lat="50.2312310971319675445556640625" lon="11.70696954242885112762451171875">
        <ele>600.20001220703125</ele>
        <time>2018-08-17T14:49:10.000Z</time>
      </trkpt>
      <trkpt lat="50.2313749305903911590576171875" lon="11.70711739920079708099365234375">
        <ele>601.5999755859375</ele>
        <time>2018-08-17T14:49:14.000Z</time>
      </trkpt>
      <trkpt lat="50.2314657904207706451416015625" lon="11.70723860152065753936767578125">
        <ele>602.5999755859375</ele>
        <time>2018-08-17T14:49:17.000Z</time>
      </trkpt>
      <trkpt lat="50.23156645707786083221435546875" lon="11.70741277746856212615966796875">
        <ele>604</ele>
        <time>2018-08-17T14:49:21.000Z</time>
      </trkpt>
      <trkpt lat="50.23163485340774059295654296875" lon="11.70755543746054172515869140625">
        <ele>605</ele>
        <time>2018-08-17T14:49:24.000Z</time>
      </trkpt>
      <trkpt lat="50.23172806017100811004638671875" lon="11.707750149071216583251953125">
        <ele>606.20001220703125</ele>
        <time>2018-08-17T14:49:28.000Z</time>
      </trkpt>
      <trkpt lat="50.23182512260973453521728515625" lon="11.70794284902513027191162109375">
        <ele>607.4000244140625</ele>
        <time>2018-08-17T14:49:32.000Z</time>
      </trkpt>
      <trkpt lat="50.23192428052425384521484375" lon="11.70812155120074748992919921875">
        <ele>608.4000244140625</ele>
        <time>2018-08-17T14:49:36.000Z</time>
      </trkpt>
      <trkpt lat="50.2320228517055511474609375" lon="11.7082746885716915130615234375">
        <ele>609.4000244140625</ele>
        <time>2018-08-17T14:49:40.000Z</time>
      </trkpt>
      <trkpt lat="50.232082866132259368896484375" lon="11.708375103771686553955078125">
        <ele>610.5999755859375</ele>
        <time>2018-08-17T14:49:43.000Z</time>
      </trkpt>
      <trkpt lat="50.23228880949318408966064453125" lon="11.70869998633861541748046875">
        <ele>611.5999755859375</ele>
        <time>2018-08-17T14:49:50.000Z</time>
      </trkpt>
      <trkpt lat="50.23256926797330379486083984375" lon="11.709491908550262451171875">
        <ele>612.4000244140625</ele>
        <time>2018-08-17T14:50:01.000Z</time>
      </trkpt>
      <trkpt lat="50.23262626491487026214599609375" lon="11.70972048304975032806396484375">
        <ele>612.5999755859375</ele>
        <time>2018-08-17T14:50:04.000Z</time>
      </trkpt>
      <trkpt lat="50.23279239423573017120361328125" lon="11.710555069148540496826171875">
        <ele>613.5999755859375</ele>
        <time>2018-08-17T14:50:15.000Z</time>
      </trkpt>
      <trkpt lat="50.2328669093549251556396484375" lon="11.7109921015799045562744140625">
        <ele>614.79998779296875</ele>
        <time>2018-08-17T14:50:21.000Z</time>
      </trkpt>
      <trkpt lat="50.23292683996260166168212890625" lon="11.7112847976386547088623046875">
        <ele>615.79998779296875</ele>
        <time>2018-08-17T14:50:25.000Z</time>
      </trkpt>
      <trkpt lat="50.23300797678530216217041015625" lon="11.71158478595316410064697265625">
        <ele>617</ele>
        <time>2018-08-17T14:50:29.000Z</time>
      </trkpt>
      <trkpt lat="50.23311677388846874237060546875" lon="11.71187999658286571502685546875">
        <ele>617.5999755859375</ele>
        <time>2018-08-17T14:50:33.000Z</time>
      </trkpt>
      <trkpt lat="50.23318768478929996490478515625" lon="11.71201293356716632843017578125">
        <ele>618.20001220703125</ele>
        <time>2018-08-17T14:50:35.000Z</time>
      </trkpt>
      <trkpt lat="50.2332705818116664886474609375" lon="11.7121317051351070404052734375">
        <ele>618.4000244140625</ele>
        <time>2018-08-17T14:50:37.000Z</time>
      </trkpt>
      <trkpt lat="50.2335139922797679901123046875" lon="11.7123610340058803558349609375">
        <ele>619.20001220703125</ele>
        <time>2018-08-17T14:50:42.000Z</time>
      </trkpt>
      <trkpt lat="50.23393459618091583251953125" lon="11.71265901066362857818603515625">
        <ele>620</ele>
        <time>2018-08-17T14:50:50.000Z</time>
      </trkpt>
      <trkpt lat="50.23445938713848590850830078125" lon="11.71307927928864955902099609375">
        <ele>620.20001220703125</ele>
        <time>2018-08-17T14:50:59.000Z</time>
      </trkpt>
      <trkpt lat="50.2349124290049076080322265625" lon="11.7135770805180072784423828125">
        <ele>619.5999755859375</ele>
        <time>2018-08-17T14:51:06.000Z</time>
      </trkpt>
      <trkpt lat="50.23517285473644733428955078125" lon="11.713880002498626708984375">
        <ele>618.79998779296875</ele>
        <time>2018-08-17T14:51:10.000Z</time>
      </trkpt>
      <trkpt lat="50.23545364849269390106201171875" lon="11.7141842655837535858154296875">
        <ele>617.5999755859375</ele>
        <time>2018-08-17T14:51:14.000Z</time>
      </trkpt>
      <trkpt lat="50.23582563735544681549072265625" lon="11.71458064578473567962646484375">
        <ele>616.5999755859375</ele>
        <time>2018-08-17T14:51:19.000Z</time>
      </trkpt>
      <trkpt lat="50.2362374402582645416259765625" lon="11.7150281555950641632080078125">
        <ele>615.4000244140625</ele>
        <time>2018-08-17T14:51:24.000Z</time>
      </trkpt>
      <trkpt lat="50.23660951294004917144775390625" lon="11.7155126295983791351318359375">
        <ele>614.20001220703125</ele>
        <time>2018-08-17T14:51:29.000Z</time>
      </trkpt>
      <trkpt lat="50.2366686053574085235595703125" lon="11.71560072340071201324462890625">
        <ele>613.79998779296875</ele>
        <time>2018-08-17T14:51:30.000Z</time>
      </trkpt>
      <trkpt lat="50.2367785759270191192626953125" lon="11.71577406115829944610595703125">
        <ele>612.5999755859375</ele>
        <time>2018-08-17T14:51:32.000Z</time>
      </trkpt>
      <trkpt lat="50.23703045211732387542724609375" lon="11.7159639112651348114013671875">
        <ele>611.4000244140625</ele>
        <time>2018-08-17T14:51:36.000Z</time>
      </trkpt>
      <trkpt lat="50.23709264583885669708251953125" lon="11.715981177985668182373046875">
        <ele>611.20001220703125</ele>
        <time>2018-08-17T14:51:37.000Z</time>
      </trkpt>
      <trkpt lat="50.23765138350427150726318359375" lon="11.71606893651187419891357421875">
        <ele>610.79998779296875</ele>
        <time>2018-08-17T14:51:46.000Z</time>
      </trkpt>
      <trkpt lat="50.23802152834832668304443359375" lon="11.71612425707280635833740234375">
        <ele>610.5999755859375</ele>
        <time>2018-08-17T14:51:53.000Z</time>
      </trkpt>
      <trkpt lat="50.23820559494197368621826171875" lon="11.7162019573152065277099609375">
        <ele>611</ele>
        <time>2018-08-17T14:52:00.000Z</time>
      </trkpt>
      <trkpt lat="50.23839703761041164398193359375" lon="11.71627529896795749664306640625">
        <ele>611.20001220703125</ele>
        <time>2018-08-17T14:52:05.000Z</time>
      </trkpt>
      <trkpt lat="50.23891252465546131134033203125" lon="11.71652172692120075225830078125">
        <ele>611.20001220703125</ele>
        <time>2018-08-17T14:52:15.000Z</time>
      </trkpt>
      <trkpt lat="50.23938157595694065093994140625" lon="11.7169419117271900177001953125">
        <ele>611</ele>
        <time>2018-08-17T14:52:23.000Z</time>
      </trkpt>
      <trkpt lat="50.239572934806346893310546875" lon="11.71733058057725429534912109375">
        <ele>610.79998779296875</ele>
        <time>2018-08-17T14:52:27.000Z</time>
      </trkpt>
      <trkpt lat="50.23970260284841060638427734375" lon="11.717664934694766998291015625">
        <ele>610.4000244140625</ele>
        <time>2018-08-17T14:52:30.000Z</time>
      </trkpt>
      <trkpt lat="50.2397430874407291412353515625" lon="11.7177851311862468719482421875">
        <ele>610</ele>
        <time>2018-08-17T14:52:31.000Z</time>
      </trkpt>
      <trkpt lat="50.239884071052074432373046875" lon="11.71812719665467739105224609375">
        <ele>608.79998779296875</ele>
        <time>2018-08-17T14:52:34.000Z</time>
      </trkpt>
      <trkpt lat="50.23997736163437366485595703125" lon="11.71838653273880481719970703125">
        <ele>607.79998779296875</ele>
        <time>2018-08-17T14:52:37.000Z</time>
      </trkpt>
      <trkpt lat="50.23999462835490703582763671875" lon="11.71847504563629627227783203125">
        <ele>606.5999755859375</ele>
        <time>2018-08-17T14:52:41.000Z</time>
      </trkpt>
      <trkpt lat="50.23999563418328762054443359375" lon="11.71858618967235088348388671875">
        <ele>605.5999755859375</ele>
        <time>2018-08-17T14:52:44.000Z</time>
      </trkpt>
      <trkpt lat="50.24000577628612518310546875" lon="11.71864788047969341278076171875">
        <ele>605.4000244140625</ele>
        <time>2018-08-17T14:52:45.000Z</time>
      </trkpt>
      <trkpt lat="50.24017718620598316192626953125" lon="11.718678809702396392822265625">
        <ele>604.4000244140625</ele>
        <time>2018-08-17T14:52:50.000Z</time>
      </trkpt>
      <trkpt lat="50.2404136396944522857666015625" lon="11.71862290240824222564697265625">
        <ele>604.20001220703125</ele>
        <time>2018-08-17T14:52:56.000Z</time>
      </trkpt>
      <trkpt lat="50.24055453948676586151123046875" lon="11.7186477966606616973876953125">
        <ele>604.4000244140625</ele>
        <time>2018-08-17T14:52:59.000Z</time>
      </trkpt>
      <trkpt lat="50.240690410137176513671875" lon="11.7186890356242656707763671875">
        <ele>605.20001220703125</ele>
        <time>2018-08-17T14:53:02.000Z</time>
      </trkpt>
      <trkpt lat="50.24073290638625621795654296875" lon="11.7187106609344482421875">
        <ele>605.4000244140625</ele>
        <time>2018-08-17T14:53:03.000Z</time>
      </trkpt>
      <trkpt lat="50.2409105189144611358642578125" lon="11.71880654990673065185546875">
        <ele>606.4000244140625</ele>
        <time>2018-08-17T14:53:07.000Z</time>
      </trkpt>
      <trkpt lat="50.241137333214282989501953125" lon="11.7189968191087245941162109375">
        <ele>607.5999755859375</ele>
        <time>2018-08-17T14:53:12.000Z</time>
      </trkpt>
      <trkpt lat="50.24138853885233402252197265625" lon="11.719319187104701995849609375">
        <ele>608.5999755859375</ele>
        <time>2018-08-17T14:53:18.000Z</time>
      </trkpt>
      <trkpt lat="50.24158551357686519622802734375" lon="11.7195971310138702392578125">
        <ele>609.79998779296875</ele>
        <time>2018-08-17T14:53:23.000Z</time>
      </trkpt>
      <trkpt lat="50.241859517991542816162109375" lon="11.7198524437844753265380859375">
        <ele>610.79998779296875</ele>
        <time>2018-08-17T14:53:29.000Z</time>
      </trkpt>
      <trkpt lat="50.242005698382854461669921875" lon="11.71994204632937908172607421875">
        <ele>611.20001220703125</ele>
        <time>2018-08-17T14:53:32.000Z</time>
      </trkpt>
      <trkpt lat="50.24214089848101139068603515625" lon="11.720143295824527740478515625">
        <ele>612</ele>
        <time>2018-08-17T14:53:36.000Z</time>
      </trkpt>
      <trkpt lat="50.2422402240335941314697265625" lon="11.7202484048902988433837890625">
        <ele>612.5999755859375</ele>
        <time>2018-08-17T14:53:39.000Z</time>
      </trkpt>
      <trkpt lat="50.24230535142123699188232421875" lon="11.7203147895634174346923828125">
        <ele>613.20001220703125</ele>
        <time>2018-08-17T14:53:41.000Z</time>
      </trkpt>
      <trkpt lat="50.24247315712273120880126953125" lon="11.720547638833522796630859375">
        <ele>614.20001220703125</ele>
        <time>2018-08-17T14:53:46.000Z</time>
      </trkpt>
      <trkpt lat="50.2425895817577838897705078125" lon="11.72070094384253025054931640625">
        <ele>615.20001220703125</ele>
        <time>2018-08-17T14:53:49.000Z</time>
      </trkpt>
      <trkpt lat="50.24272746406495571136474609375" lon="11.72085567377507686614990234375">
        <ele>615.79998779296875</ele>
        <time>2018-08-17T14:53:52.000Z</time>
      </trkpt>
      <trkpt lat="50.2430650033056735992431640625" lon="11.72097050584852695465087890625">
        <ele>615.79998779296875</ele>
        <time>2018-08-17T14:53:57.000Z</time>
      </trkpt>
      <trkpt lat="50.24364260025322437286376953125" lon="11.7211114056408405303955078125">
        <ele>615</ele>
        <time>2018-08-17T14:54:04.000Z</time>
      </trkpt>
      <trkpt lat="50.243815518915653228759765625" lon="11.72122447751462459564208984375">
        <ele>614.20001220703125</ele>
        <time>2018-08-17T14:54:06.000Z</time>
      </trkpt>
      <trkpt lat="50.24406622163951396942138671875" lon="11.72146319411695003509521484375">
        <ele>612.5999755859375</ele>
        <time>2018-08-17T14:54:09.000Z</time>
      </trkpt>
      <trkpt lat="50.2442277409136295318603515625" lon="11.721651367843151092529296875">
        <ele>611.5999755859375</ele>
        <time>2018-08-17T14:54:11.000Z</time>
      </trkpt>
      <trkpt lat="50.2443779446184635162353515625" lon="11.72184926457703113555908203125">
        <ele>610.4000244140625</ele>
        <time>2018-08-17T14:54:13.000Z</time>
      </trkpt>
      <trkpt lat="50.24451901204884052276611328125" lon="11.72208764590322971343994140625">
        <ele>609</ele>
        <time>2018-08-17T14:54:15.000Z</time>
      </trkpt>
      <trkpt lat="50.24458564817905426025390625" lon="11.72222544439136981964111328125">
        <ele>607.4000244140625</ele>
        <time>2018-08-17T14:54:16.000Z</time>
      </trkpt>
      <trkpt lat="50.24471439421176910400390625" lon="11.72252275049686431884765625">
        <ele>606.20001220703125</ele>
        <time>2018-08-17T14:54:18.000Z</time>
      </trkpt>
      <trkpt lat="50.244769044220447540283203125" lon="11.722680665552616119384765625">
        <ele>605.5999755859375</ele>
        <time>2018-08-17T14:54:19.000Z</time>
      </trkpt>
      <trkpt lat="50.24481455795466899871826171875" lon="11.72284595668315887451171875">
        <ele>604.79998779296875</ele>
        <time>2018-08-17T14:54:20.000Z</time>
      </trkpt>
      <trkpt lat="50.24489720351994037628173828125" lon="11.72317410819232463836669921875">
        <ele>602.79998779296875</ele>
        <time>2018-08-17T14:54:22.000Z</time>
      </trkpt>
      <trkpt lat="50.2449462376534938812255859375" lon="11.72333470545709133148193359375">
        <ele>601.79998779296875</ele>
        <time>2018-08-17T14:54:23.000Z</time>
      </trkpt>
      <trkpt lat="50.24504053406417369842529296875" lon="11.72366964630782604217529296875">
        <ele>600.20001220703125</ele>
        <time>2018-08-17T14:54:25.000Z</time>
      </trkpt>
      <trkpt lat="50.245091915130615234375" lon="11.72383711673319339752197265625">
        <ele>599.20001220703125</ele>
        <time>2018-08-17T14:54:26.000Z</time>
      </trkpt>
      <trkpt lat="50.245198868215084075927734375" lon="11.72417457215487957000732421875">
        <ele>597.20001220703125</ele>
        <time>2018-08-17T14:54:28.000Z</time>
      </trkpt>
      <trkpt lat="50.2452909015119075775146484375" lon="11.72453398816287517547607421875">
        <ele>595.20001220703125</ele>
        <time>2018-08-17T14:54:30.000Z</time>
      </trkpt>
      <trkpt lat="50.24532216601073741912841796875" lon="11.7247243411839008331298828125">
        <ele>594.20001220703125</ele>
        <time>2018-08-17T14:54:31.000Z</time>
      </trkpt>
      <trkpt lat="50.24536223150789737701416015625" lon="11.72510479576885700225830078125">
        <ele>592</ele>
        <time>2018-08-17T14:54:33.000Z</time>
      </trkpt>
      <trkpt lat="50.2453857846558094024658203125" lon="11.725281737744808197021484375">
        <ele>590.5999755859375</ele>
        <time>2018-08-17T14:54:34.000Z</time>
      </trkpt>
      <trkpt lat="50.24541436694562435150146484375" lon="11.72544023953378200531005859375">
        <ele>589.4000244140625</ele>
        <time>2018-08-17T14:54:35.000Z</time>
      </trkpt>
      <trkpt lat="50.24544588290154933929443359375" lon="11.7255704104900360107421875">
        <ele>588.4000244140625</ele>
        <time>2018-08-17T14:54:36.000Z</time>
      </trkpt>
      <trkpt lat="50.24547614157199859619140625" lon="11.72566831111907958984375">
        <ele>587.20001220703125</ele>
        <time>2018-08-17T14:54:37.000Z</time>
      </trkpt>
      <trkpt lat="50.2455048076808452606201171875" lon="11.72573125921189785003662109375">
        <ele>586</ele>
        <time>2018-08-17T14:54:38.000Z</time>
      </trkpt>
      <trkpt lat="50.24553489871323108673095703125" lon="11.72575942240655422210693359375">
        <ele>585</ele>
        <time>2018-08-17T14:54:39.000Z</time>
      </trkpt>
      <trkpt lat="50.24556624703109264373779296875" lon="11.72574634663760662078857421875">
        <ele>583.79998779296875</ele>
        <time>2018-08-17T14:54:40.000Z</time>
      </trkpt>
      <trkpt lat="50.24559088982641696929931640625" lon="11.72571248374879360198974609375">
        <ele>582.79998779296875</ele>
        <time>2018-08-17T14:54:41.000Z</time>
      </trkpt>
      <trkpt lat="50.24561670608818531036376953125" lon="11.72566839493811130523681640625">
        <ele>581.79998779296875</ele>
        <time>2018-08-17T14:54:42.000Z</time>
      </trkpt>
      <trkpt lat="50.24564788676798343658447265625" lon="11.72562363557517528533935546875">
        <ele>580</ele>
        <time>2018-08-17T14:54:43.000Z</time>
      </trkpt>
      <trkpt lat="50.2457200549542903900146484375" lon="11.7255221307277679443359375">
        <ele>578.5999755859375</ele>
        <time>2018-08-17T14:54:45.000Z</time>
      </trkpt>
      <trkpt lat="50.24589188396930694580078125" lon="11.72530747018754482269287109375">
        <ele>577.5999755859375</ele>
        <time>2018-08-17T14:54:49.000Z</time>
      </trkpt>
      <trkpt lat="50.2459946461021900177001953125" lon="11.72520068474113941192626953125">
        <ele>577.20001220703125</ele>
        <time>2018-08-17T14:54:51.000Z</time>
      </trkpt>
      <trkpt lat="50.24654240347445011138916015625" lon="11.7248239181935787200927734375">
        <ele>576.5999755859375</ele>
        <time>2018-08-17T14:55:01.000Z</time>
      </trkpt>
      <trkpt lat="50.24660526774823665618896484375" lon="11.72479324042797088623046875">
        <ele>576.5999755859375</ele>
        <time>2018-08-17T14:55:02.000Z</time>
      </trkpt>
      <trkpt lat="50.2471251972019672393798828125" lon="11.724528372287750244140625">
        <ele>575.79998779296875</ele>
        <time>2018-08-17T14:55:10.000Z</time>
      </trkpt>
      <trkpt lat="50.24733013473451137542724609375" lon="11.72444899566471576690673828125">
        <ele>575.4000244140625</ele>
        <time>2018-08-17T14:55:13.000Z</time>
      </trkpt>
      <trkpt lat="50.2478933148086071014404296875" lon="11.7243582196533679962158203125">
        <ele>574.5999755859375</ele>
        <time>2018-08-17T14:55:22.000Z</time>
      </trkpt>
      <trkpt lat="50.24798140861093997955322265625" lon="11.7243558727204799652099609375">
        <ele>574.4000244140625</ele>
        <time>2018-08-17T14:55:24.000Z</time>
      </trkpt>
      <trkpt lat="50.2483306825160980224609375" lon="11.72438688576221466064453125">
        <ele>573.20001220703125</ele>
        <time>2018-08-17T14:55:34.000Z</time>
      </trkpt>
      <trkpt lat="50.24834015406668186187744140625" lon="11.724381186068058013916015625">
        <ele>573</ele>
        <time>2018-08-17T14:55:36.000Z</time>
      </trkpt>
      <trkpt lat="50.24840109050273895263671875" lon="11.7244138754904270172119140625">
        <ele>571.79998779296875</ele>
        <time>2018-08-17T14:56:49.000Z</time>
      </trkpt>
      <trkpt lat="50.24859211407601833343505859375" lon="11.7244785837829113006591796875">
        <ele>571.79998779296875</ele>
        <time>2018-08-17T14:56:55.000Z</time>
      </trkpt>
      <trkpt lat="50.24899964220821857452392578125" lon="11.7246995307505130767822265625">
        <ele>571.79998779296875</ele>
        <time>2018-08-17T14:57:03.000Z</time>
      </trkpt>
      <trkpt lat="50.24948813952505588531494140625" lon="11.7251511476933956146240234375">
        <ele>570.79998779296875</ele>
        <time>2018-08-17T14:57:13.000Z</time>
      </trkpt>
      <trkpt lat="50.24953390471637248992919921875" lon="11.72521308995783329010009765625">
        <ele>570.79998779296875</ele>
        <time>2018-08-17T14:57:14.000Z</time>
      </trkpt>
      <trkpt lat="50.2499418519437313079833984375" lon="11.725818850100040435791015625">
        <ele>570</ele>
        <time>2018-08-17T14:57:22.000Z</time>
      </trkpt>
      <trkpt lat="50.25002391077578067779541015625" lon="11.72597986645996570587158203125">
        <ele>569.5999755859375</ele>
        <time>2018-08-17T14:57:24.000Z</time>
      </trkpt>
      <trkpt lat="50.2501446940004825592041015625" lon="11.7262565530836582183837890625">
        <ele>569.20001220703125</ele>
        <time>2018-08-17T14:57:27.000Z</time>
      </trkpt>
      <trkpt lat="50.25028039701282978057861328125" lon="11.7266270332038402557373046875">
        <ele>568.5999755859375</ele>
        <time>2018-08-17T14:57:31.000Z</time>
      </trkpt>
      <trkpt lat="50.25047175586223602294921875" lon="11.72731912694871425628662109375">
        <ele>568</ele>
        <time>2018-08-17T14:57:38.000Z</time>
      </trkpt>
      <trkpt lat="50.2505661360919475555419921875" lon="11.72797274775803089141845703125">
        <ele>567.79998779296875</ele>
        <time>2018-08-17T14:57:44.000Z</time>
      </trkpt>
      <trkpt lat="50.250616930425167083740234375" lon="11.72868453897535800933837890625">
        <ele>567.5999755859375</ele>
        <time>2018-08-17T14:57:50.000Z</time>
      </trkpt>
      <trkpt lat="50.25065490044653415679931640625" lon="11.72925467602908611297607421875">
        <ele>567.4000244140625</ele>
        <time>2018-08-17T14:57:55.000Z</time>
      </trkpt>
      <trkpt lat="50.25070670060813426971435546875" lon="11.73000435344874858856201171875">
        <ele>567.20001220703125</ele>
        <time>2018-08-17T14:58:02.000Z</time>
      </trkpt>
      <trkpt lat="50.2507170103490352630615234375" lon="11.73021859489381313323974609375">
        <ele>567.4000244140625</ele>
        <time>2018-08-17T14:58:04.000Z</time>
      </trkpt>
      <trkpt lat="50.25086595676839351654052734375" lon="11.7310828529298305511474609375">
        <ele>567.20001220703125</ele>
        <time>2018-08-17T14:58:12.000Z</time>
      </trkpt>
      <trkpt lat="50.25113786570727825164794921875" lon="11.73186899162828922271728515625">
        <ele>567.20001220703125</ele>
        <time>2018-08-17T14:58:20.000Z</time>
      </trkpt>
      <trkpt lat="50.25150708854198455810546875" lon="11.7325181700289249420166015625">
        <ele>567.20001220703125</ele>
        <time>2018-08-17T14:58:28.000Z</time>
      </trkpt>
      <trkpt lat="50.251675732433795928955078125" lon="11.7327273823320865631103515625">
        <ele>567.20001220703125</ele>
        <time>2018-08-17T14:58:31.000Z</time>
      </trkpt>
      <trkpt lat="50.2521635591983795166015625" lon="11.73316734842956066131591796875">
        <ele>566.79998779296875</ele>
        <time>2018-08-17T14:58:39.000Z</time>
      </trkpt>
      <trkpt lat="50.25223170407116413116455078125" lon="11.7332182265818119049072265625">
        <ele>566.79998779296875</ele>
        <time>2018-08-17T14:58:40.000Z</time>
      </trkpt>
      <trkpt lat="50.252742581069469451904296875" lon="11.7336108349263668060302734375">
        <ele>565.5999755859375</ele>
        <time>2018-08-17T14:58:47.000Z</time>
      </trkpt>
      <trkpt lat="50.253246836364269256591796875" lon="11.73404443077743053436279296875">
        <ele>564.4000244140625</ele>
        <time>2018-08-17T14:58:54.000Z</time>
      </trkpt>
      <trkpt lat="50.2533965371549129486083984375" lon="11.73417284153401851654052734375">
        <ele>564.20001220703125</ele>
        <time>2018-08-17T14:58:56.000Z</time>
      </trkpt>
      <trkpt lat="50.25393859483301639556884765625" lon="11.7346035875380039215087890625">
        <ele>563.20001220703125</ele>
        <time>2018-08-17T14:59:03.000Z</time>
      </trkpt>
      <trkpt lat="50.25448224507272243499755859375" lon="11.7350250296294689178466796875">
        <ele>562.4000244140625</ele>
        <time>2018-08-17T14:59:10.000Z</time>
      </trkpt>
      <trkpt lat="50.254699252545833587646484375" lon="11.73520800657570362091064453125">
        <ele>562</ele>
        <time>2018-08-17T14:59:13.000Z</time>
      </trkpt>
      <trkpt lat="50.25516453199088573455810546875" lon="11.73563682474195957183837890625">
        <ele>561</ele>
        <time>2018-08-17T14:59:20.000Z</time>
      </trkpt>
      <trkpt lat="50.25566174648702144622802734375" lon="11.7359879426658153533935546875">
        <ele>559.79998779296875</ele>
        <time>2018-08-17T14:59:27.000Z</time>
      </trkpt>
      <trkpt lat="50.2557374350726604461669921875" lon="11.736030019819736480712890625">
        <ele>559.79998779296875</ele>
        <time>2018-08-17T14:59:28.000Z</time>
      </trkpt>
      <trkpt lat="50.25632693432271480560302734375" lon="11.73621333204209804534912109375">
        <ele>558.79998779296875</ele>
        <time>2018-08-17T14:59:35.000Z</time>
      </trkpt>
      <trkpt lat="50.2565092407166957855224609375" lon="11.73620981164276599884033203125">
        <ele>558.4000244140625</ele>
        <time>2018-08-17T14:59:37.000Z</time>
      </trkpt>
      <trkpt lat="50.25711030699312686920166015625" lon="11.73604083247482776641845703125">
        <ele>557.5999755859375</ele>
        <time>2018-08-17T14:59:44.000Z</time>
      </trkpt>
      <trkpt lat="50.25726738385856151580810546875" lon="11.73594410531222820281982421875">
        <ele>557.20001220703125</ele>
        <time>2018-08-17T14:59:46.000Z</time>
      </trkpt>
      <trkpt lat="50.2578107826411724090576171875" lon="11.73550237901508808135986328125">
        <ele>556.4000244140625</ele>
        <time>2018-08-17T14:59:53.000Z</time>
      </trkpt>
      <trkpt lat="50.2578872255980968475341796875" lon="11.73543230630457401275634765625">
        <ele>556.20001220703125</ele>
        <time>2018-08-17T14:59:54.000Z</time>
      </trkpt>
      <trkpt lat="50.257965512573719024658203125" lon="11.7353631556034088134765625">
        <ele>556</ele>
        <time>2018-08-17T14:59:55.000Z</time>
      </trkpt>
      <trkpt lat="50.25837060995399951934814453125" lon="11.7350327409803867340087890625">
        <ele>555</ele>
        <time>2018-08-17T15:00:00.000Z</time>
      </trkpt>
      <trkpt lat="50.25873002596199512481689453125" lon="11.7348483391106128692626953125">
        <ele>554.5999755859375</ele>
        <time>2018-08-17T15:00:04.000Z</time>
      </trkpt>
      <trkpt lat="50.2591015957295894622802734375" lon="11.734763346612453460693359375">
        <ele>554</ele>
        <time>2018-08-17T15:00:08.000Z</time>
      </trkpt>
      <trkpt lat="50.25963493622839450836181640625" lon="11.7348027415573596954345703125">
        <ele>553</ele>
        <time>2018-08-17T15:00:14.000Z</time>
      </trkpt>
      <trkpt lat="50.26022099889814853668212890625" lon="11.73494397662580013275146484375">
        <ele>552.79998779296875</ele>
        <time>2018-08-17T15:00:21.000Z</time>
      </trkpt>
      <trkpt lat="50.26075677014887332916259765625" lon="11.73510004766285419464111328125">
        <ele>552.4000244140625</ele>
        <time>2018-08-17T15:00:28.000Z</time>
      </trkpt>
      <trkpt lat="50.26130276732146739959716796875" lon="11.7352499999105930328369140625">
        <ele>552.20001220703125</ele>
        <time>2018-08-17T15:00:35.000Z</time>
      </trkpt>
      <trkpt lat="50.26161943562328815460205078125" lon="11.73533859662711620330810546875">
        <ele>552</ele>
        <time>2018-08-17T15:00:39.000Z</time>
      </trkpt>
      <trkpt lat="50.26217079721391201019287109375" lon="11.73549768514931201934814453125">
        <ele>551.79998779296875</ele>
        <time>2018-08-17T15:00:46.000Z</time>
      </trkpt>
      <trkpt lat="50.2627172134816646575927734375" lon="11.73564487136900424957275390625">
        <ele>551.4000244140625</ele>
        <time>2018-08-17T15:00:53.000Z</time>
      </trkpt>
      <trkpt lat="50.2632643841207027435302734375" lon="11.7358003556728363037109375">
        <ele>551.4000244140625</ele>
        <time>2018-08-17T15:01:00.000Z</time>
      </trkpt>
      <trkpt lat="50.2638085372745990753173828125" lon="11.7359426803886890411376953125">
        <ele>551.5999755859375</ele>
        <time>2018-08-17T15:01:07.000Z</time>
      </trkpt>
      <trkpt lat="50.26441949419677257537841796875" lon="11.735999174416065216064453125">
        <ele>551.4000244140625</ele>
        <time>2018-08-17T15:01:15.000Z</time>
      </trkpt>
      <trkpt lat="50.2649136073887348175048828125" lon="11.7358498089015483856201171875">
        <ele>551.4000244140625</ele>
        <time>2018-08-17T15:01:22.000Z</time>
      </trkpt>
      <trkpt lat="50.26528417132794857025146484375" lon="11.73558535985648632049560546875">
        <ele>551.20001220703125</ele>
        <time>2018-08-17T15:01:28.000Z</time>
      </trkpt>
      <trkpt lat="50.26532649993896484375" lon="11.7355956695973873138427734375">
        <ele>551.20001220703125</ele>
        <time>2018-08-17T15:01:29.000Z</time>
      </trkpt>
      <trkpt lat="50.26540420018136501312255859375" lon="11.735795326530933380126953125">
        <ele>550.79998779296875</ele>
        <time>2018-08-17T15:01:32.000Z</time>
      </trkpt>
      <trkpt lat="50.2654326148331165313720703125" lon="11.7358823306858539581298828125">
        <ele>550.79998779296875</ele>
        <time>2018-08-17T15:01:33.000Z</time>
      </trkpt>
      <trkpt lat="50.26575003750622272491455078125" lon="11.73660057596862316131591796875">
        <ele>550</ele>
        <time>2018-08-17T15:01:41.000Z</time>
      </trkpt>
      <trkpt lat="50.266078524291515350341796875" lon="11.73716182820498943328857421875">
        <ele>548.79998779296875</ele>
        <time>2018-08-17T15:01:47.000Z</time>
      </trkpt>
      <trkpt lat="50.266412794589996337890625" lon="11.73754890449345111846923828125">
        <ele>547.5999755859375</ele>
        <time>2018-08-17T15:01:52.000Z</time>
      </trkpt>
      <trkpt lat="50.266682691872119903564453125" lon="11.7378453724086284637451171875">
        <ele>546.5999755859375</ele>
        <time>2018-08-17T15:01:56.000Z</time>
      </trkpt>
      <trkpt lat="50.2669993601739406585693359375" lon="11.73826153390109539031982421875">
        <ele>545.20001220703125</ele>
        <time>2018-08-17T15:02:01.000Z</time>
      </trkpt>
      <trkpt lat="50.26711377315223217010498046875" lon="11.73841324634850025177001953125">
        <ele>544.79998779296875</ele>
        <time>2018-08-17T15:02:03.000Z</time>
      </trkpt>
      <trkpt lat="50.2673607878386974334716796875" lon="11.73835457302629947662353515625">
        <ele>544.20001220703125</ele>
        <time>2018-08-17T15:02:07.000Z</time>
      </trkpt>
      <trkpt lat="50.26741988025605678558349609375" lon="11.73830629326403141021728515625">
        <ele>543.5999755859375</ele>
        <time>2018-08-17T15:02:08.000Z</time>
      </trkpt>
      <trkpt lat="50.26753588579595088958740234375" lon="11.73824192024767398834228515625">
        <ele>542.4000244140625</ele>
        <time>2018-08-17T15:02:10.000Z</time>
      </trkpt>
      <trkpt lat="50.267635546624660491943359375" lon="11.738197915256023406982421875">
        <ele>541.4000244140625</ele>
        <time>2018-08-17T15:02:12.000Z</time>
      </trkpt>
      <trkpt lat="50.267721712589263916015625" lon="11.738264299929141998291015625">
        <ele>539.79998779296875</ele>
        <time>2018-08-17T15:02:14.000Z</time>
      </trkpt>
      <trkpt lat="50.26780025102198123931884765625" lon="11.73838759772479534149169921875">
        <ele>539</ele>
        <time>2018-08-17T15:02:16.000Z</time>
      </trkpt>
      <trkpt lat="50.2678415738046169281005859375" lon="11.7384592629969120025634765625">
        <ele>538.5999755859375</ele>
        <time>2018-08-17T15:02:17.000Z</time>
      </trkpt>
      <trkpt lat="50.2679656259715557098388671875" lon="11.7387107200920581817626953125">
        <ele>537.20001220703125</ele>
        <time>2018-08-17T15:02:20.000Z</time>
      </trkpt>
      <trkpt lat="50.26806260459125041961669921875" lon="11.7388921044766902923583984375">
        <ele>536</ele>
        <time>2018-08-17T15:02:24.000Z</time>
      </trkpt>
      <trkpt lat="50.2682268060743808746337890625" lon="11.7389036715030670166015625">
        <ele>535</ele>
        <time>2018-08-17T15:02:30.000Z</time>
      </trkpt>
      <trkpt lat="50.26826527900993824005126953125" lon="11.73889587633311748504638671875">
        <ele>534.79998779296875</ele>
        <time>2018-08-17T15:02:31.000Z</time>
      </trkpt>
      <trkpt lat="50.26847340166568756103515625" lon="11.73890409059822559356689453125">
        <ele>534.4000244140625</ele>
        <time>2018-08-17T15:02:36.000Z</time>
      </trkpt>
      <trkpt lat="50.26865252293646335601806640625" lon="11.7389688827097415924072265625">
        <ele>534.4000244140625</ele>
        <time>2018-08-17T15:02:41.000Z</time>
      </trkpt>
      <trkpt lat="50.268878750503063201904296875" lon="11.73840737901628017425537109375">
        <ele>535</ele>
        <time>2018-08-17T15:02:58.000Z</time>
      </trkpt>
      <trkpt lat="50.2689701132476329803466796875" lon="11.73749911598861217498779296875">
        <ele>534.5999755859375</ele>
        <time>2018-08-17T15:03:09.000Z</time>
      </trkpt>
      <trkpt lat="50.2690173871815204620361328125" lon="11.73726760782301425933837890625">
        <ele>534.4000244140625</ele>
        <time>2018-08-17T15:03:12.000Z</time>
      </trkpt>
      <trkpt lat="50.269132219254970550537109375" lon="11.73694431781768798828125">
        <ele>534.20001220703125</ele>
        <time>2018-08-17T15:03:17.000Z</time>
      </trkpt>
      <trkpt lat="50.26951217092573642730712890625" lon="11.73634258098900318145751953125">
        <ele>534.4000244140625</ele>
        <time>2018-08-17T15:03:28.000Z</time>
      </trkpt>
      <trkpt lat="50.26976647786796092987060546875" lon="11.736089698970317840576171875">
        <ele>534.4000244140625</ele>
        <time>2018-08-17T15:03:34.000Z</time>
      </trkpt>
      <trkpt lat="50.27012740261852741241455078125" lon="11.7358595319092273712158203125">
        <ele>534.20001220703125</ele>
        <time>2018-08-17T15:03:41.000Z</time>
      </trkpt>
      <trkpt lat="50.270674489438533782958984375" lon="11.7356211505830287933349609375">
        <ele>534</ele>
        <time>2018-08-17T15:03:50.000Z</time>
      </trkpt>
      <trkpt lat="50.27127438224852085113525390625" lon="11.73558535985648632049560546875">
        <ele>534.20001220703125</ele>
        <time>2018-08-17T15:03:59.000Z</time>
      </trkpt>
      <trkpt lat="50.2718585170805454254150390625" lon="11.735776551067829132080078125">
        <ele>534.5999755859375</ele>
        <time>2018-08-17T15:04:08.000Z</time>
      </trkpt>
      <trkpt lat="50.27204635553061962127685546875" lon="11.73584452830255031585693359375">
        <ele>534.79998779296875</ele>
        <time>2018-08-17T15:04:11.000Z</time>
      </trkpt>
      <trkpt lat="50.27256335131824016571044921875" lon="11.7359638027846813201904296875">
        <ele>534.79998779296875</ele>
        <time>2018-08-17T15:04:19.000Z</time>
      </trkpt>
      <trkpt lat="50.2731345780193805694580078125" lon="11.7362474463880062103271484375">
        <ele>534.5999755859375</ele>
        <time>2018-08-17T15:04:27.000Z</time>
      </trkpt>
      <trkpt lat="50.27327463962137699127197265625" lon="11.7363473586738109588623046875">
        <ele>534.4000244140625</ele>
        <time>2018-08-17T15:04:29.000Z</time>
      </trkpt>
      <trkpt lat="50.27334253303706645965576171875" lon="11.736414916813373565673828125">
        <ele>534</ele>
        <time>2018-08-17T15:04:30.000Z</time>
      </trkpt>
      <trkpt lat="50.2734041400253772735595703125" lon="11.73649035394191741943359375">
        <ele>533.5999755859375</ele>
        <time>2018-08-17T15:04:31.000Z</time>
      </trkpt>
      <trkpt lat="50.273605473339557647705078125" lon="11.7367081157863140106201171875">
        <ele>532.79998779296875</ele>
        <time>2018-08-17T15:04:34.000Z</time>
      </trkpt>
      <trkpt lat="50.27401291765272617340087890625" lon="11.73710231669247150421142578125">
        <ele>531.79998779296875</ele>
        <time>2018-08-17T15:04:40.000Z</time>
      </trkpt>
      <trkpt lat="50.27428348548710346221923828125" lon="11.73725201748311519622802734375">
        <ele>531.5999755859375</ele>
        <time>2018-08-17T15:04:44.000Z</time>
      </trkpt>
      <trkpt lat="50.27462094090878963470458984375" lon="11.73721765168011188507080078125">
        <ele>531.5999755859375</ele>
        <time>2018-08-17T15:04:49.000Z</time>
      </trkpt>
      <trkpt lat="50.27485437691211700439453125" lon="11.73699519596993923187255859375">
        <ele>531.79998779296875</ele>
        <time>2018-08-17T15:04:53.000Z</time>
      </trkpt>
      <trkpt lat="50.2749500982463359832763671875" lon="11.7368345148861408233642578125">
        <ele>531.79998779296875</ele>
        <time>2018-08-17T15:04:55.000Z</time>
      </trkpt>
      <trkpt lat="50.2750803530216217041015625" lon="11.73593890853226184844970703125">
        <ele>532.5999755859375</ele>
        <time>2018-08-17T15:05:03.000Z</time>
      </trkpt>
      <trkpt lat="50.27515956200659275054931640625" lon="11.735001392662525177001953125">
        <ele>532.4000244140625</ele>
        <time>2018-08-17T15:05:11.000Z</time>
      </trkpt>
      <trkpt lat="50.27518051676452159881591796875" lon="11.73406898975372314453125">
        <ele>532</ele>
        <time>2018-08-17T15:05:19.000Z</time>
      </trkpt>
      <trkpt lat="50.27543784119188785552978515625" lon="11.73352022655308246612548828125">
        <ele>531.5999755859375</ele>
        <time>2018-08-17T15:05:25.000Z</time>
      </trkpt>
      <trkpt lat="50.27570941485464572906494140625" lon="11.73315159045159816741943359375">
        <ele>531.4000244140625</ele>
        <time>2018-08-17T15:05:30.000Z</time>
      </trkpt>
      <trkpt lat="50.2759472094476222991943359375" lon="11.73321135342121124267578125">
        <ele>530.79998779296875</ele>
        <time>2018-08-17T15:05:34.000Z</time>
      </trkpt>
      <trkpt lat="50.27600110508501529693603515625" lon="11.73325787298381328582763671875">
        <ele>530.5999755859375</ele>
        <time>2018-08-17T15:05:35.000Z</time>
      </trkpt>
      <trkpt lat="50.2763599343597888946533203125" lon="11.7335231602191925048828125">
        <ele>529.5999755859375</ele>
        <time>2018-08-17T15:05:42.000Z</time>
      </trkpt>
      <trkpt lat="50.2765946276485919952392578125" lon="11.7336835898458957672119140625">
        <ele>529.5999755859375</ele>
        <time>2018-08-17T15:05:46.000Z</time>
      </trkpt>
      <trkpt lat="50.27676754631102085113525390625" lon="11.73383572138845920562744140625">
        <ele>529.5999755859375</ele>
        <time>2018-08-17T15:05:49.000Z</time>
      </trkpt>
      <trkpt lat="50.27688656933605670928955078125" lon="11.733921803534030914306640625">
        <ele>529.79998779296875</ele>
        <time>2018-08-17T15:05:51.000Z</time>
      </trkpt>
      <trkpt lat="50.27725738473236560821533203125" lon="11.73454835079610347747802734375">
        <ele>530</ele>
        <time>2018-08-17T15:06:00.000Z</time>
      </trkpt>
      <trkpt lat="50.27743868529796600341796875" lon="11.73466284759342670440673828125">
        <ele>530.20001220703125</ele>
        <time>2018-08-17T15:06:03.000Z</time>
      </trkpt>
      <trkpt lat="50.27796532027423381805419921875" lon="11.7348231934010982513427734375">
        <ele>531.4000244140625</ele>
        <time>2018-08-17T15:06:11.000Z</time>
      </trkpt>
      <trkpt lat="50.278431437909603118896484375" lon="11.734981276094913482666015625">
        <ele>531.5999755859375</ele>
        <time>2018-08-17T15:06:18.000Z</time>
      </trkpt>
      <trkpt lat="50.27862229384481906890869140625" lon="11.73505998216569423675537109375">
        <ele>531.5999755859375</ele>
        <time>2018-08-17T15:06:21.000Z</time>
      </trkpt>
      <trkpt lat="50.27920081280171871185302734375" lon="11.73530079424381256103515625">
        <ele>532.4000244140625</ele>
        <time>2018-08-17T15:06:30.000Z</time>
      </trkpt>
      <trkpt lat="50.279736332595348358154296875" lon="11.73551377840340137481689453125">
        <ele>532.5999755859375</ele>
        <time>2018-08-17T15:06:38.000Z</time>
      </trkpt>
      <trkpt lat="50.2798702754080295562744140625" lon="11.735563986003398895263671875">
        <ele>532.5999755859375</ele>
        <time>2018-08-17T15:06:40.000Z</time>
      </trkpt>
      <trkpt lat="50.27999826706945896148681640625" lon="11.7356208153069019317626953125">
        <ele>532.5999755859375</ele>
        <time>2018-08-17T15:06:42.000Z</time>
      </trkpt>
      <trkpt lat="50.28011796064674854278564453125" lon="11.73568376339972019195556640625">
        <ele>532.5999755859375</ele>
        <time>2018-08-17T15:06:44.000Z</time>
      </trkpt>
      <trkpt lat="50.28071357868611812591552734375" lon="11.73588828183710575103759765625">
        <ele>532.79998779296875</ele>
        <time>2018-08-17T15:06:53.000Z</time>
      </trkpt>
      <trkpt lat="50.28128170408308506011962890625" lon="11.73620159737765789031982421875">
        <ele>532.79998779296875</ele>
        <time>2018-08-17T15:07:01.000Z</time>
      </trkpt>
      <trkpt lat="50.28159367851912975311279296875" lon="11.7365153320133686065673828125">
        <ele>532.5999755859375</ele>
        <time>2018-08-17T15:07:07.000Z</time>
      </trkpt>
      <trkpt lat="50.28168252669274806976318359375" lon="11.73660292290151119232177734375">
        <ele>532.5999755859375</ele>
        <time>2018-08-17T15:07:09.000Z</time>
      </trkpt>
      <trkpt lat="50.28200271539390087127685546875" lon="11.73684901557862758636474609375">
        <ele>533.5999755859375</ele>
        <time>2018-08-17T15:07:16.000Z</time>
      </trkpt>
      <trkpt lat="50.282132215797901153564453125" lon="11.73695177771151065826416015625">
        <ele>534.5999755859375</ele>
        <time>2018-08-17T15:07:18.000Z</time>
      </trkpt>
      <trkpt lat="50.2821987681090831756591796875" lon="11.7370019853115081787109375">
        <ele>534.79998779296875</ele>
        <time>2018-08-17T15:07:19.000Z</time>
      </trkpt>
      <trkpt lat="50.2827137522399425506591796875" lon="11.73733885399997234344482421875">
        <ele>535</ele>
        <time>2018-08-17T15:07:27.000Z</time>
      </trkpt>
      <trkpt lat="50.2830545604228973388671875" lon="11.73760657198727130889892578125">
        <ele>534.79998779296875</ele>
        <time>2018-08-17T15:07:33.000Z</time>
      </trkpt>
      <trkpt lat="50.2835016511380672454833984375" lon="11.7380158603191375732421875">
        <ele>533.79998779296875</ele>
        <time>2018-08-17T15:07:40.000Z</time>
      </trkpt>
      <trkpt lat="50.2835754118859767913818359375" lon="11.73809087835252285003662109375">
        <ele>533.5999755859375</ele>
        <time>2018-08-17T15:07:41.000Z</time>
      </trkpt>
      <trkpt lat="50.28404538519680500030517578125" lon="11.7385021783411502838134765625">
        <ele>532.4000244140625</ele>
        <time>2018-08-17T15:07:47.000Z</time>
      </trkpt>
      <trkpt lat="50.284529440104961395263671875" lon="11.738932840526103973388671875">
        <ele>531.79998779296875</ele>
        <time>2018-08-17T15:07:56.000Z</time>
      </trkpt>
      <trkpt lat="50.28485390357673168182373046875" lon="11.73931044526398181915283203125">
        <ele>533.5999755859375</ele>
        <time>2018-08-17T15:08:04.000Z</time>
      </trkpt>
      <trkpt lat="50.28491668403148651123046875" lon="11.73941169865429401397705078125">
        <ele>534.4000244140625</ele>
        <time>2018-08-17T15:08:06.000Z</time>
      </trkpt>
      <trkpt lat="50.28494216501712799072265625" lon="11.7394620738923549652099609375">
        <ele>534.5999755859375</ele>
        <time>2018-08-17T15:08:07.000Z</time>
      </trkpt>
      <trkpt lat="50.2850191108882427215576171875" lon="11.7395945079624652862548828125">
        <ele>535.5999755859375</ele>
        <time>2018-08-17T15:08:10.000Z</time>
      </trkpt>
      <trkpt lat="50.28508809395134449005126953125" lon="11.73972375690937042236328125">
        <ele>536.79998779296875</ele>
        <time>2018-08-17T15:08:13.000Z</time>
      </trkpt>
      <trkpt lat="50.28515565209090709686279296875" lon="11.73985518515110015869140625">
        <ele>538</ele>
        <time>2018-08-17T15:08:16.000Z</time>
      </trkpt>
      <trkpt lat="50.2851974777877330780029296875" lon="11.7399364896118640899658203125">
        <ele>539</ele>
        <time>2018-08-17T15:08:18.000Z</time>
      </trkpt>
      <trkpt lat="50.28526176698505878448486328125" lon="11.74005626700818538665771484375">
        <ele>540</ele>
        <time>2018-08-17T15:08:21.000Z</time>
      </trkpt>
      <trkpt lat="50.2853429876267910003662109375" lon="11.74022893421351909637451171875">
        <ele>541.20001220703125</ele>
        <time>2018-08-17T15:08:25.000Z</time>
      </trkpt>
      <trkpt lat="50.2854291535913944244384765625" lon="11.74041836522519588470458984375">
        <ele>542.4000244140625</ele>
        <time>2018-08-17T15:08:29.000Z</time>
      </trkpt>
      <trkpt lat="50.28556904755532741546630859375" lon="11.74064065329730510711669921875">
        <ele>543.4000244140625</ele>
        <time>2018-08-17T15:08:34.000Z</time>
      </trkpt>
      <trkpt lat="50.28565772809088230133056640625" lon="11.74078322947025299072265625">
        <ele>543.79998779296875</ele>
        <time>2018-08-17T15:08:37.000Z</time>
      </trkpt>
      <trkpt lat="50.2858462370932102203369140625" lon="11.7410854808986186981201171875">
        <ele>544.5999755859375</ele>
        <time>2018-08-17T15:08:43.000Z</time>
      </trkpt>
      <trkpt lat="50.28609911911189556121826171875" lon="11.74166659824550151824951171875">
        <ele>545.79998779296875</ele>
        <time>2018-08-17T15:08:53.000Z</time>
      </trkpt>
      <trkpt lat="50.2862908132374286651611328125" lon="11.74218409694731235504150390625">
        <ele>546.79998779296875</ele>
        <time>2018-08-17T15:09:01.000Z</time>
      </trkpt>
      <trkpt lat="50.2863240055739879608154296875" lon="11.74224461428821086883544921875">
        <ele>546.79998779296875</ele>
        <time>2018-08-17T15:09:02.000Z</time>
      </trkpt>
      <trkpt lat="50.2866728603839874267578125" lon="11.742661781609058380126953125">
        <ele>547.4000244140625</ele>
        <time>2018-08-17T15:09:10.000Z</time>
      </trkpt>
      <trkpt lat="50.2868440188467502593994140625" lon="11.74275465309619903564453125">
        <ele>547.4000244140625</ele>
        <time>2018-08-17T15:09:13.000Z</time>
      </trkpt>
      <trkpt lat="50.28722564689815044403076171875" lon="11.74299345351755619049072265625">
        <ele>546.79998779296875</ele>
        <time>2018-08-17T15:09:20.000Z</time>
      </trkpt>
      <trkpt lat="50.28733913786709308624267578125" lon="11.74309202469885349273681640625">
        <ele>546.5999755859375</ele>
        <time>2018-08-17T15:09:22.000Z</time>
      </trkpt>
      <trkpt lat="50.28787675313651561737060546875" lon="11.74307517707347869873046875">
        <ele>545.79998779296875</ele>
        <time>2018-08-17T15:09:28.000Z</time>
      </trkpt>
      <trkpt lat="50.2879871428012847900390625" lon="11.7430582456290721893310546875">
        <ele>545.5999755859375</ele>
        <time>2018-08-17T15:09:29.000Z</time>
      </trkpt>
      <trkpt lat="50.2883085049688816070556640625" lon="11.7430136539041996002197265625">
        <ele>544.79998779296875</ele>
        <time>2018-08-17T15:09:32.000Z</time>
      </trkpt>
      <trkpt lat="50.28848310001194477081298828125" lon="11.742987334728240966796875">
        <ele>543.79998779296875</ele>
        <time>2018-08-17T15:09:34.000Z</time>
      </trkpt>
      <trkpt lat="50.28855887241661548614501953125" lon="11.74296788871288299560546875">
        <ele>543</ele>
        <time>2018-08-17T15:09:35.000Z</time>
      </trkpt>
      <trkpt lat="50.2886263467371463775634765625" lon="11.74293025396764278411865234375">
        <ele>542.20001220703125</ele>
        <time>2018-08-17T15:09:36.000Z</time>
      </trkpt>
      <trkpt lat="50.28872516937553882598876953125" lon="11.74279413186013698577880859375">
        <ele>540.5999755859375</ele>
        <time>2018-08-17T15:09:38.000Z</time>
      </trkpt>
      <trkpt lat="50.28878853656351566314697265625" lon="11.74262582324445247650146484375">
        <ele>538.5999755859375</ele>
        <time>2018-08-17T15:09:40.000Z</time>
      </trkpt>
      <trkpt lat="50.288842432200908660888671875" lon="11.74257620237767696380615234375">
        <ele>536.5999755859375</ele>
        <time>2018-08-17T15:09:41.000Z</time>
      </trkpt>
      <trkpt lat="50.28897679410874843597412109375" lon="11.74257318489253520965576171875">
        <ele>534.79998779296875</ele>
        <time>2018-08-17T15:09:43.000Z</time>
      </trkpt>
      <trkpt lat="50.28911744244396686553955078125" lon="11.7425845004618167877197265625">
        <ele>533</ele>
        <time>2018-08-17T15:09:45.000Z</time>
      </trkpt>
      <trkpt lat="50.28925247490406036376953125" lon="11.7426029406487941741943359375">
        <ele>531.20001220703125</ele>
        <time>2018-08-17T15:09:47.000Z</time>
      </trkpt>
      <trkpt lat="50.28931609354913234710693359375" lon="11.74259782768785953521728515625">
        <ele>530</ele>
        <time>2018-08-17T15:09:48.000Z</time>
      </trkpt>
      <trkpt lat="50.2893743477761745452880859375" lon="11.7425715923309326171875">
        <ele>529</ele>
        <time>2018-08-17T15:09:49.000Z</time>
      </trkpt>
      <trkpt lat="50.289490520954132080078125" lon="11.74251182936131954193115234375">
        <ele>527.5999755859375</ele>
        <time>2018-08-17T15:09:51.000Z</time>
      </trkpt>
      <trkpt lat="50.2900524437427520751953125" lon="11.74251685850322246551513671875">
        <ele>526.79998779296875</ele>
        <time>2018-08-17T15:09:58.000Z</time>
      </trkpt>
      <trkpt lat="50.2903054095804691314697265625" lon="11.74252959899604320526123046875">
        <ele>526.4000244140625</ele>
        <time>2018-08-17T15:10:01.000Z</time>
      </trkpt>
      <trkpt lat="50.29047648422420024871826171875" lon="11.74254602752625942230224609375">
        <ele>525.20001220703125</ele>
        <time>2018-08-17T15:10:03.000Z</time>
      </trkpt>
      <trkpt lat="50.29090664349496364593505859375" lon="11.74258240498602390289306640625">
        <ele>524.20001220703125</ele>
        <time>2018-08-17T15:10:08.000Z</time>
      </trkpt>
      <trkpt lat="50.2914731763303279876708984375" lon="11.74266907386481761932373046875">
        <ele>523.5999755859375</ele>
        <time>2018-08-17T15:10:15.000Z</time>
      </trkpt>
      <trkpt lat="50.2920156531035900115966796875" lon="11.74284978769719600677490234375">
        <ele>523.4000244140625</ele>
        <time>2018-08-17T15:10:22.000Z</time>
      </trkpt>
      <trkpt lat="50.29254631139338016510009765625" lon="11.74301742576062679290771484375">
        <ele>523.4000244140625</ele>
        <time>2018-08-17T15:10:29.000Z</time>
      </trkpt>
      <trkpt lat="50.29311896301805973052978515625" lon="11.743125133216381072998046875">
        <ele>523.5999755859375</ele>
        <time>2018-08-17T15:10:36.000Z</time>
      </trkpt>
      <trkpt lat="50.293679125607013702392578125" lon="11.7432059347629547119140625">
        <ele>523.5999755859375</ele>
        <time>2018-08-17T15:10:43.000Z</time>
      </trkpt>
      <trkpt lat="50.29424163512885570526123046875" lon="11.743266284465789794921875">
        <ele>523.5999755859375</ele>
        <time>2018-08-17T15:10:50.000Z</time>
      </trkpt>
      <trkpt lat="50.29481914825737476348876953125" lon="11.7431849800050258636474609375">
        <ele>523.4000244140625</ele>
        <time>2018-08-17T15:10:57.000Z</time>
      </trkpt>
      <trkpt lat="50.29526758007705211639404296875" lon="11.7430485226213932037353515625">
        <ele>523.20001220703125</ele>
        <time>2018-08-17T15:11:02.000Z</time>
      </trkpt>
      <trkpt lat="50.295450724661350250244140625" lon="11.74296596087515354156494140625">
        <ele>522.79998779296875</ele>
        <time>2018-08-17T15:11:04.000Z</time>
      </trkpt>
      <trkpt lat="50.29572355560958385467529296875" lon="11.7427873425185680389404296875">
        <ele>521.79998779296875</ele>
        <time>2018-08-17T15:11:07.000Z</time>
      </trkpt>
      <trkpt lat="50.29597199521958827972412109375" lon="11.742676533758640289306640625">
        <ele>520.4000244140625</ele>
        <time>2018-08-17T15:11:10.000Z</time>
      </trkpt>
      <trkpt lat="50.29603200964629650115966796875" lon="11.74264342524111270904541015625">
        <ele>520</ele>
        <time>2018-08-17T15:11:11.000Z</time>
      </trkpt>
      <trkpt lat="50.29607509262859821319580078125" lon="11.74249389208853244781494140625">
        <ele>519</ele>
        <time>2018-08-17T15:11:14.000Z</time>
      </trkpt>
      <trkpt lat="50.2959031797945499420166015625" lon="11.742216534912586212158203125">
        <ele>518.4000244140625</ele>
        <time>2018-08-17T15:11:21.000Z</time>
      </trkpt>
      <trkpt lat="50.2958927862346172332763671875" lon="11.74214436672627925872802734375">
        <ele>518.4000244140625</ele>
        <time>2018-08-17T15:11:22.000Z</time>
      </trkpt>
      <trkpt lat="50.29575121589004993438720703125" lon="11.74184462986886501312255859375">
        <ele>518.4000244140625</ele>
        <time>2018-08-17T15:11:26.000Z</time>
      </trkpt>
      <trkpt lat="50.29561375267803668975830078125" lon="11.7413342557847499847412109375">
        <ele>518.5999755859375</ele>
        <time>2018-08-17T15:11:31.000Z</time>
      </trkpt>
      <trkpt lat="50.2955856733024120330810546875" lon="11.74111305736005306243896484375">
        <ele>518.5999755859375</ele>
        <time>2018-08-17T15:11:33.000Z</time>
      </trkpt>
      <trkpt lat="50.2957690693438053131103515625" lon="11.74081566743552684783935546875">
        <ele>519</ele>
        <time>2018-08-17T15:11:38.000Z</time>
      </trkpt>
      <trkpt lat="50.296185649931430816650390625" lon="11.7406650446355342864990234375">
        <ele>519</ele>
        <time>2018-08-17T15:11:45.000Z</time>
      </trkpt>
      <trkpt lat="50.2965438924729824066162109375" lon="11.74064752645790576934814453125">
        <ele>520</ele>
        <time>2018-08-17T15:11:50.000Z</time>
      </trkpt>
      <trkpt lat="50.2971038036048412322998046875" lon="11.740532778203487396240234375">
        <ele>520.20001220703125</ele>
        <time>2018-08-17T15:11:57.000Z</time>
      </trkpt>
      <trkpt lat="50.29764267615973949432373046875" lon="11.740157268941402435302734375">
        <ele>519.4000244140625</ele>
        <time>2018-08-17T15:12:04.000Z</time>
      </trkpt>
      <trkpt lat="50.2977897785604000091552734375" lon="11.74004453234374523162841796875">
        <ele>519</ele>
        <time>2018-08-17T15:12:06.000Z</time>
      </trkpt>
      <trkpt lat="50.29800343327224254608154296875" lon="11.73987739719450473785400390625">
        <ele>518.5999755859375</ele>
        <time>2018-08-17T15:12:09.000Z</time>
      </trkpt>
      <trkpt lat="50.29818045906722545623779296875" lon="11.73967841081321239471435546875">
        <ele>518.5999755859375</ele>
        <time>2018-08-17T15:12:12.000Z</time>
      </trkpt>
      <trkpt lat="50.29871002770960330963134765625" lon="11.739276163280010223388671875">
        <ele>518.79998779296875</ele>
        <time>2018-08-17T15:12:20.000Z</time>
      </trkpt>
      <trkpt lat="50.299303047358989715576171875" lon="11.73911229707300662994384765625">
        <ele>518.79998779296875</ele>
        <time>2018-08-17T15:12:27.000Z</time>
      </trkpt>
      <trkpt lat="50.2997233159840106964111328125" lon="11.73900919966399669647216796875">
        <ele>518.79998779296875</ele>
        <time>2018-08-17T15:12:34.000Z</time>
      </trkpt>
      <trkpt lat="50.2998725138604640960693359375" lon="11.73900517635047435760498046875">
        <ele>519.4000244140625</ele>
        <time>2018-08-17T15:12:38.000Z</time>
      </trkpt>
      <trkpt lat="50.299961864948272705078125" lon="11.7390235327184200286865234375">
        <ele>520.20001220703125</ele>
        <time>2018-08-17T15:12:40.000Z</time>
      </trkpt>
      <trkpt lat="50.30011483468115329742431640625" lon="11.7390617541968822479248046875">
        <ele>521.4000244140625</ele>
        <time>2018-08-17T15:12:43.000Z</time>
      </trkpt>
      <trkpt lat="50.3003120608627796173095703125" lon="11.7391345091164112091064453125">
        <ele>521.79998779296875</ele>
        <time>2018-08-17T15:12:48.000Z</time>
      </trkpt>
      <trkpt lat="50.300460420548915863037109375" lon="11.73918153159320354461669921875">
        <ele>521.79998779296875</ele>
        <time>2018-08-17T15:12:50.000Z</time>
      </trkpt>
      <trkpt lat="50.3007408790290355682373046875" lon="11.73908765427768230438232421875">
        <ele>520.4000244140625</ele>
        <time>2018-08-17T15:12:58.000Z</time>
      </trkpt>
      <trkpt lat="50.3008253686130046844482421875" lon="11.73923148773610591888427734375">
        <ele>520.4000244140625</ele>
        <time>2018-08-17T15:13:01.000Z</time>
      </trkpt>
      <trkpt lat="50.30100029893219470977783203125" lon="11.73961739055812358856201171875">
        <ele>521.5999755859375</ele>
        <time>2018-08-17T15:13:10.000Z</time>
      </trkpt>
      <trkpt lat="50.301074646413326263427734375" lon="11.7397110164165496826171875">
        <ele>522.79998779296875</ele>
        <time>2018-08-17T15:13:13.000Z</time>
      </trkpt>
      <trkpt lat="50.30115075409412384033203125" lon="11.7398231662809848785400390625">
        <ele>523.79998779296875</ele>
        <time>2018-08-17T15:13:16.000Z</time>
      </trkpt>
      <trkpt lat="50.30121646821498870849609375" lon="11.73989483155310153961181640625">
        <ele>524.79998779296875</ele>
        <time>2018-08-17T15:13:19.000Z</time>
      </trkpt>
      <trkpt lat="50.3013644926249980926513671875" lon="11.74002860672771930694580078125">
        <ele>526.20001220703125</ele>
        <time>2018-08-17T15:13:22.000Z</time>
      </trkpt>
      <trkpt lat="50.30139542184770107269287109375" lon="11.7400702647864818572998046875">
        <ele>526.5999755859375</ele>
        <time>2018-08-17T15:13:23.000Z</time>
      </trkpt>
      <trkpt lat="50.30143615789711475372314453125" lon="11.7404833249747753143310546875">
        <ele>527.20001220703125</ele>
        <time>2018-08-17T15:13:28.000Z</time>
      </trkpt>
      <trkpt lat="50.3014318831264972686767578125" lon="11.74110685475170612335205078125">
        <ele>527.20001220703125</ele>
        <time>2018-08-17T15:13:33.000Z</time>
      </trkpt>
      <trkpt lat="50.3017229028046131134033203125" lon="11.74144171178340911865234375">
        <ele>526.4000244140625</ele>
        <time>2018-08-17T15:13:37.000Z</time>
      </trkpt>
      <trkpt lat="50.30190487392246723175048828125" lon="11.74152678810060024261474609375">
        <ele>525.20001220703125</ele>
        <time>2018-08-17T15:13:39.000Z</time>
      </trkpt>
      <trkpt lat="50.302080810070037841796875" lon="11.7415992915630340576171875">
        <ele>523.5999755859375</ele>
        <time>2018-08-17T15:13:41.000Z</time>
      </trkpt>
      <trkpt lat="50.302255488932132720947265625" lon="11.74166643060743808746337890625">
        <ele>521.5999755859375</ele>
        <time>2018-08-17T15:13:43.000Z</time>
      </trkpt>
      <trkpt lat="50.30243427492678165435791015625" lon="11.74171772785484790802001953125">
        <ele>519.79998779296875</ele>
        <time>2018-08-17T15:13:45.000Z</time>
      </trkpt>
      <trkpt lat="50.30278329737484455108642578125" lon="11.7418167181313037872314453125">
        <ele>518.79998779296875</ele>
        <time>2018-08-17T15:13:49.000Z</time>
      </trkpt>
      <trkpt lat="50.30308990739285945892333984375" lon="11.742121316492557525634765625">
        <ele>518.20001220703125</ele>
        <time>2018-08-17T15:13:53.000Z</time>
      </trkpt>
      <trkpt lat="50.3033496625721454620361328125" lon="11.74228535033762454986572265625">
        <ele>518</ele>
        <time>2018-08-17T15:13:56.000Z</time>
      </trkpt>
      <trkpt lat="50.3034395165741443634033203125" lon="11.74231887795031070709228515625">
        <ele>518</ele>
        <time>2018-08-17T15:13:57.000Z</time>
      </trkpt>
      <trkpt lat="50.30361679382622241973876953125" lon="11.7423719353973865509033203125">
        <ele>517.79998779296875</ele>
        <time>2018-08-17T15:13:59.000Z</time>
      </trkpt>
      <trkpt lat="50.30386875383555889129638671875" lon="11.74246572889387607574462890625">
        <ele>517.5999755859375</ele>
        <time>2018-08-17T15:14:02.000Z</time>
      </trkpt>
      <trkpt lat="50.304406620562076568603515625" lon="11.74249607138335704803466796875">
        <ele>517.4000244140625</ele>
        <time>2018-08-17T15:14:10.000Z</time>
      </trkpt>
      <trkpt lat="50.30478070490062236785888671875" lon="11.74228400923311710357666015625">
        <ele>518.20001220703125</ele>
        <time>2018-08-17T15:14:16.000Z</time>
      </trkpt>
      <trkpt lat="50.30492604710161685943603515625" lon="11.7421047203242778778076171875">
        <ele>519</ele>
        <time>2018-08-17T15:14:19.000Z</time>
      </trkpt>
      <trkpt lat="50.30501204542815685272216796875" lon="11.7419940792024135589599609375">
        <ele>519.20001220703125</ele>
        <time>2018-08-17T15:14:21.000Z</time>
      </trkpt>
      <trkpt lat="50.30514028854668140411376953125" lon="11.74188603647053241729736328125">
        <ele>519.5999755859375</ele>
        <time>2018-08-17T15:14:24.000Z</time>
      </trkpt>
      <trkpt lat="50.3052808530628681182861328125" lon="11.74186340533196926116943359375">
        <ele>520</ele>
        <time>2018-08-17T15:14:27.000Z</time>
      </trkpt>
      <trkpt lat="50.30543080531060695648193359375" lon="11.7418774031102657318115234375">
        <ele>520.4000244140625</ele>
        <time>2018-08-17T15:14:30.000Z</time>
      </trkpt>
      <trkpt lat="50.30552686192095279693603515625" lon="11.7419587075710296630859375">
        <ele>521</ele>
        <time>2018-08-17T15:14:32.000Z</time>
      </trkpt>
      <trkpt lat="50.3059557639062404632568359375" lon="11.74249716103076934814453125">
        <ele>521.79998779296875</ele>
        <time>2018-08-17T15:14:41.000Z</time>
      </trkpt>
      <trkpt lat="50.30608375556766986846923828125" lon="11.74275004304945468902587890625">
        <ele>522</ele>
        <time>2018-08-17T15:14:44.000Z</time>
      </trkpt>
      <trkpt lat="50.3064667247235774993896484375" lon="11.7433583177626132965087890625">
        <ele>521.20001220703125</ele>
        <time>2018-08-17T15:14:51.000Z</time>
      </trkpt>
      <trkpt lat="50.306599996984004974365234375" lon="11.74352671019732952117919921875">
        <ele>520.5999755859375</ele>
        <time>2018-08-17T15:14:53.000Z</time>
      </trkpt>
      <trkpt lat="50.30675380490720272064208984375" lon="11.74366283230483531951904296875">
        <ele>520</ele>
        <time>2018-08-17T15:14:55.000Z</time>
      </trkpt>
      <trkpt lat="50.30683544464409351348876953125" lon="11.7437184043228626251220703125">
        <ele>519.79998779296875</ele>
        <time>2018-08-17T15:14:56.000Z</time>
      </trkpt>
      <trkpt lat="50.30719242990016937255859375" lon="11.743821837007999420166015625">
        <ele>518.79998779296875</ele>
        <time>2018-08-17T15:15:00.000Z</time>
      </trkpt>
      <trkpt lat="50.30747330747544765472412109375" lon="11.74374430440366268157958984375">
        <ele>517.79998779296875</ele>
        <time>2018-08-17T15:15:03.000Z</time>
      </trkpt>
      <trkpt lat="50.30774689279496669769287109375" lon="11.74360759556293487548828125">
        <ele>517</ele>
        <time>2018-08-17T15:15:06.000Z</time>
      </trkpt>
      <trkpt lat="50.30783222056925296783447265625" lon="11.74354213289916515350341796875">
        <ele>516.5999755859375</ele>
        <time>2018-08-17T15:15:07.000Z</time>
      </trkpt>
      <trkpt lat="50.3081493079662322998046875" lon="11.74328304827213287353515625">
        <ele>515.20001220703125</ele>
        <time>2018-08-17T15:15:11.000Z</time>
      </trkpt>
      <trkpt lat="50.30848802067339420318603515625" lon="11.74316293559968471527099609375">
        <ele>514</ele>
        <time>2018-08-17T15:15:15.000Z</time>
      </trkpt>
      <trkpt lat="50.3090451657772064208984375" lon="11.74282849766314029693603515625">
        <ele>513.79998779296875</ele>
        <time>2018-08-17T15:15:23.000Z</time>
      </trkpt>
      <trkpt lat="50.30922017991542816162109375" lon="11.7431522905826568603515625">
        <ele>514.4000244140625</ele>
        <time>2018-08-17T15:15:30.000Z</time>
      </trkpt>
      <trkpt lat="50.3092463314533233642578125" lon="11.74368563108146190643310546875">
        <ele>514.4000244140625</ele>
        <time>2018-08-17T15:15:36.000Z</time>
      </trkpt>
      <trkpt lat="50.30945579521358013153076171875" lon="11.74379476346075534820556640625">
        <ele>514.4000244140625</ele>
        <time>2018-08-17T15:15:40.000Z</time>
      </trkpt>
      <trkpt lat="50.31002375297248363494873046875" lon="11.74392300657927989959716796875">
        <ele>513.5999755859375</ele>
        <time>2018-08-17T15:15:53.000Z</time>
      </trkpt>
      <trkpt lat="50.310575701296329498291015625" lon="11.7441592924296855926513671875">
        <ele>513.5999755859375</ele>
        <time>2018-08-17T15:16:02.000Z</time>
      </trkpt>
      <trkpt lat="50.3110489435493946075439453125" lon="11.74458718858659267425537109375">
        <ele>513.4000244140625</ele>
        <time>2018-08-17T15:16:10.000Z</time>
      </trkpt>
      <trkpt lat="50.3111775219440460205078125" lon="11.744665391743183135986328125">
        <ele>513.4000244140625</ele>
        <time>2018-08-17T15:16:12.000Z</time>
      </trkpt>
      <trkpt lat="50.3117399476468563079833984375" lon="11.74477812834084033966064453125">
        <ele>513.20001220703125</ele>
        <time>2018-08-17T15:16:20.000Z</time>
      </trkpt>
      <trkpt lat="50.31194622628390789031982421875" lon="11.744817607104778289794921875">
        <ele>513</ele>
        <time>2018-08-17T15:16:23.000Z</time>
      </trkpt>
      <trkpt lat="50.31201210804283618927001953125" lon="11.74484468065202236175537109375">
        <ele>513</ele>
        <time>2018-08-17T15:16:24.000Z</time>
      </trkpt>
      <trkpt lat="50.31226457096636295318603515625" lon="11.74499186687171459197998046875">
        <ele>512.5999755859375</ele>
        <time>2018-08-17T15:16:28.000Z</time>
      </trkpt>
      <trkpt lat="50.31273119151592254638671875" lon="11.74502908252179622650146484375">
        <ele>512</ele>
        <time>2018-08-17T15:16:35.000Z</time>
      </trkpt>
      <trkpt lat="50.3127806447446346282958984375" lon="11.7450598441064357757568359375">
        <ele>512</ele>
        <time>2018-08-17T15:16:36.000Z</time>
      </trkpt>
      <trkpt lat="50.3128523938357830047607421875" lon="11.74525924958288669586181640625">
        <ele>511.79998779296875</ele>
        <time>2018-08-17T15:16:39.000Z</time>
      </trkpt>
      <trkpt lat="50.31291953288018703460693359375" lon="11.74571312963962554931640625">
        <ele>511.399993896484375</ele>
        <time>2018-08-17T15:16:45.000Z</time>
      </trkpt>
      <trkpt lat="50.31312103383243083953857421875" lon="11.7457816936075687408447265625">
        <ele>511.20001220703125</ele>
        <time>2018-08-17T15:16:50.000Z</time>
      </trkpt>
      <trkpt lat="50.3131675533950328826904296875" lon="11.7457917518913745880126953125">
        <ele>511.20001220703125</ele>
        <time>2018-08-17T15:16:51.000Z</time>
      </trkpt>
      <trkpt lat="50.3132577426731586456298828125" lon="11.7458195798099040985107421875">
        <ele>511.20001220703125</ele>
        <time>2018-08-17T15:16:53.000Z</time>
      </trkpt>
      <trkpt lat="50.3136587329208850860595703125" lon="11.746019907295703887939453125">
        <ele>511.600006103515625</ele>
        <time>2018-08-17T15:17:05.000Z</time>
      </trkpt>
      <trkpt lat="50.313691087067127227783203125" lon="11.7460120283067226409912109375">
        <ele>511.600006103515625</ele>
        <time>2018-08-17T15:17:07.000Z</time>
      </trkpt>
      <trkpt lat="50.31392971985042095184326171875" lon="11.746384687721729278564453125">
        <ele>511.600006103515625</ele>
        <time>2018-08-17T15:17:18.000Z</time>
      </trkpt>
      <trkpt lat="50.3143141977488994598388671875" lon="11.7470114864408969879150390625">
        <ele>512.20001220703125</ele>
        <time>2018-08-17T15:17:30.000Z</time>
      </trkpt>
      <trkpt lat="50.31442106701433658599853515625" lon="11.74724341370165348052978515625">
        <ele>512.79998779296875</ele>
        <time>2018-08-17T15:17:35.000Z</time>
      </trkpt>
      <trkpt lat="50.314440429210662841796875" lon="11.74728750251233577728271484375">
        <ele>513.20001220703125</ele>
        <time>2018-08-17T15:17:36.000Z</time>
      </trkpt>
      <trkpt lat="50.314537324011325836181640625" lon="11.74749956466257572174072265625">
        <ele>514.4000244140625</ele>
        <time>2018-08-17T15:17:41.000Z</time>
      </trkpt>
      <trkpt lat="50.31461837701499462127685546875" lon="11.747665442526340484619140625">
        <ele>515.4000244140625</ele>
        <time>2018-08-17T15:17:45.000Z</time>
      </trkpt>
      <trkpt lat="50.31472398899495601654052734375" lon="11.747819669544696807861328125">
        <ele>516.5999755859375</ele>
        <time>2018-08-17T15:17:49.000Z</time>
      </trkpt>
      <trkpt lat="50.31482867896556854248046875" lon="11.74796216189861297607421875">
        <ele>517.79998779296875</ele>
        <time>2018-08-17T15:17:53.000Z</time>
      </trkpt>
      <trkpt lat="50.31494929455220699310302734375" lon="11.748089231550693511962890625">
        <ele>519.20001220703125</ele>
        <time>2018-08-17T15:17:57.000Z</time>
      </trkpt>
      <trkpt lat="50.31509145162999629974365234375" lon="11.748153604567050933837890625">
        <ele>519.79998779296875</ele>
        <time>2018-08-17T15:18:01.000Z</time>
      </trkpt>
      <trkpt lat="50.3151310980319976806640625" lon="11.74816190265119075775146484375">
        <ele>520</ele>
        <time>2018-08-17T15:18:02.000Z</time>
      </trkpt>
      <trkpt lat="50.31538967974483966827392578125" lon="11.748180091381072998046875">
        <ele>521.20001220703125</ele>
        <time>2018-08-17T15:18:08.000Z</time>
      </trkpt>
      <trkpt lat="50.31566192395985126495361328125" lon="11.74824672751128673553466796875">
        <ele>521.4000244140625</ele>
        <time>2018-08-17T15:18:14.000Z</time>
      </trkpt>
      <trkpt lat="50.3160197474062442779541015625" lon="11.74866179935634136199951171875">
        <ele>522.20001220703125</ele>
        <time>2018-08-17T15:18:25.000Z</time>
      </trkpt>
      <trkpt lat="50.3160596452653408050537109375" lon="11.74870111048221588134765625">
        <ele>523.4000244140625</ele>
        <time>2018-08-17T15:18:31.000Z</time>
      </trkpt>
      <trkpt lat="50.316046737134456634521484375" lon="11.74874997697770595550537109375">
        <ele>524.5999755859375</ele>
        <time>2018-08-17T15:18:54.000Z</time>
      </trkpt>
      <trkpt lat="50.31598068773746490478515625" lon="11.74908760003745555877685546875">
        <ele>524.5999755859375</ele>
        <time>2018-08-17T15:19:03.000Z</time>
      </trkpt>
      <trkpt lat="50.315978340804576873779296875" lon="11.7497607506811618804931640625">
        <ele>525.5999755859375</ele>
        <time>2018-08-17T15:19:14.000Z</time>
      </trkpt>
      <trkpt lat="50.31604866497218608856201171875" lon="11.74993031658232212066650390625">
        <ele>526.5999755859375</ele>
        <time>2018-08-17T15:19:17.000Z</time>
      </trkpt>
      <trkpt lat="50.31614706851541996002197265625" lon="11.75004892051219940185546875">
        <ele>528</ele>
        <time>2018-08-17T15:19:20.000Z</time>
      </trkpt>
      <trkpt lat="50.316268019378185272216796875" lon="11.75011957995593547821044921875">
        <ele>529</ele>
        <time>2018-08-17T15:19:23.000Z</time>
      </trkpt>
      <trkpt lat="50.3163563646376132965087890625" lon="11.7501500062644481658935546875">
        <ele>529.5999755859375</ele>
        <time>2018-08-17T15:19:25.000Z</time>
      </trkpt>
      <trkpt lat="50.3164462186396121978759765625" lon="11.7501976154744625091552734375">
        <ele>530.20001220703125</ele>
        <time>2018-08-17T15:19:27.000Z</time>
      </trkpt>
      <trkpt lat="50.31649030745029449462890625" lon="11.7502311430871486663818359375">
        <ele>530.4000244140625</ele>
        <time>2018-08-17T15:19:28.000Z</time>
      </trkpt>
      <trkpt lat="50.3165947459638118743896484375" lon="11.7503950931131839752197265625">
        <ele>531.20001220703125</ele>
        <time>2018-08-17T15:19:31.000Z</time>
      </trkpt>
      <trkpt lat="50.31662986613810062408447265625" lon="11.75054236315190792083740234375">
        <ele>531.79998779296875</ele>
        <time>2018-08-17T15:19:33.000Z</time>
      </trkpt>
      <trkpt lat="50.3166733682155609130859375" lon="11.750767417252063751220703125">
        <ele>532.20001220703125</ele>
        <time>2018-08-17T15:19:36.000Z</time>
      </trkpt>
      <trkpt lat="50.316709242761135101318359375" lon="11.75092407502233982086181640625">
        <ele>532.4000244140625</ele>
        <time>2018-08-17T15:19:38.000Z</time>
      </trkpt>
      <trkpt lat="50.31674771569669246673583984375" lon="11.75108668394386768341064453125">
        <ele>532.4000244140625</ele>
        <time>2018-08-17T15:19:40.000Z</time>
      </trkpt>
      <trkpt lat="50.31691418029367923736572265625" lon="11.7519444040954113006591796875">
        <ele>532.20001220703125</ele>
        <time>2018-08-17T15:19:49.000Z</time>
      </trkpt>
      <trkpt lat="50.31700805760920047760009765625" lon="11.75231681205332279205322265625">
        <ele>531.4000244140625</ele>
        <time>2018-08-17T15:19:53.000Z</time>
      </trkpt>
      <trkpt lat="50.3170718438923358917236328125" lon="11.7524929158389568328857421875">
        <ele>531.4000244140625</ele>
        <time>2018-08-17T15:19:55.000Z</time>
      </trkpt>
      <trkpt lat="50.31740485690534114837646484375" lon="11.7531584389507770538330078125">
        <ele>531</ele>
        <time>2018-08-17T15:20:03.000Z</time>
      </trkpt>
      <trkpt lat="50.31754701398313045501708984375" lon="11.75340495072305202484130859375">
        <ele>530.79998779296875</ele>
        <time>2018-08-17T15:20:06.000Z</time>
      </trkpt>
      <trkpt lat="50.31772680580615997314453125" lon="11.75362472422420978546142578125">
        <ele>530.5999755859375</ele>
        <time>2018-08-17T15:20:09.000Z</time>
      </trkpt>
      <trkpt lat="50.31799276359379291534423828125" lon="11.75387601368129253387451171875">
        <ele>530.4000244140625</ele>
        <time>2018-08-17T15:20:13.000Z</time>
      </trkpt>
      <trkpt lat="50.318116731941699981689453125" lon="11.75402353517711162567138671875">
        <ele>530.20001220703125</ele>
        <time>2018-08-17T15:20:15.000Z</time>
      </trkpt>
      <trkpt lat="50.3182966075837612152099609375" lon="11.75440440885722637176513671875">
        <ele>529.20001220703125</ele>
        <time>2018-08-17T15:20:19.000Z</time>
      </trkpt>
      <trkpt lat="50.31846734695136547088623046875" lon="11.75522382371127605438232421875">
        <ele>528.5999755859375</ele>
        <time>2018-08-17T15:20:26.000Z</time>
      </trkpt>
      <trkpt lat="50.3184897266328334808349609375" lon="11.7555003426969051361083984375">
        <ele>528.4000244140625</ele>
        <time>2018-08-17T15:20:28.000Z</time>
      </trkpt>
      <trkpt lat="50.31849098391830921173095703125" lon="11.7556404881179332733154296875">
        <ele>528.20001220703125</ele>
        <time>2018-08-17T15:20:29.000Z</time>
      </trkpt>
      <trkpt lat="50.31843063421547412872314453125" lon="11.7561836354434490203857421875">
        <ele>527.20001220703125</ele>
        <time>2018-08-17T15:20:33.000Z</time>
      </trkpt>
      <trkpt lat="50.31840682961046695709228515625" lon="11.75631280057132244110107421875">
        <ele>527</ele>
        <time>2018-08-17T15:20:34.000Z</time>
      </trkpt>
      <trkpt lat="50.3183153830468654632568359375" lon="11.75666903145611286163330078125">
        <ele>526</ele>
        <time>2018-08-17T15:20:37.000Z</time>
      </trkpt>
      <trkpt lat="50.3182102739810943603515625" lon="11.75753488205373287200927734375">
        <ele>525.5999755859375</ele>
        <time>2018-08-17T15:20:45.000Z</time>
      </trkpt>
      <trkpt lat="50.31834010966122150421142578125" lon="11.75838698633015155792236328125">
        <ele>527</ele>
        <time>2018-08-17T15:20:54.000Z</time>
      </trkpt>
      <trkpt lat="50.31835670582950115203857421875" lon="11.7584752477705478668212890625">
        <ele>527.20001220703125</ele>
        <time>2018-08-17T15:20:55.000Z</time>
      </trkpt>
      <trkpt lat="50.3184394352138042449951171875" lon="11.7589271999895572662353515625">
        <ele>528.4000244140625</ele>
        <time>2018-08-17T15:21:00.000Z</time>
      </trkpt>
      <trkpt lat="50.3185222484171390533447265625" lon="11.75939164124429225921630859375">
        <ele>529.4000244140625</ele>
        <time>2018-08-17T15:21:05.000Z</time>
      </trkpt>
      <trkpt lat="50.318592488765716552734375" lon="11.7598726786673069000244140625">
        <ele>530.4000244140625</ele>
        <time>2018-08-17T15:21:10.000Z</time>
      </trkpt>
      <trkpt lat="50.318631045520305633544921875" lon="11.76070307381451129913330078125">
        <ele>531.4000244140625</ele>
        <time>2018-08-17T15:21:18.000Z</time>
      </trkpt>
      <trkpt lat="50.31857631169259548187255859375" lon="11.761541180312633514404296875">
        <ele>532.20001220703125</ele>
        <time>2018-08-17T15:21:26.000Z</time>
      </trkpt>
      <trkpt lat="50.31853876076638698577880859375" lon="11.76196069456636905670166015625">
        <ele>532.5999755859375</ele>
        <time>2018-08-17T15:21:30.000Z</time>
      </trkpt>
      <trkpt lat="50.31853490509092807769775390625" lon="11.76286677829921245574951171875">
        <ele>533.5999755859375</ele>
        <time>2018-08-17T15:21:39.000Z</time>
      </trkpt>
      <trkpt lat="50.3185527585446834564208984375" lon="11.7631454765796661376953125">
        <ele>533.5999755859375</ele>
        <time>2018-08-17T15:21:42.000Z</time>
      </trkpt>
      <trkpt lat="50.3186084143817424774169921875" lon="11.76339902915060520172119140625">
        <ele>534</ele>
        <time>2018-08-17T15:21:45.000Z</time>
      </trkpt>
      <trkpt lat="50.31867823563516139984130859375" lon="11.76363506354391574859619140625">
        <ele>534.5999755859375</ele>
        <time>2018-08-17T15:21:48.000Z</time>
      </trkpt>
      <trkpt lat="50.3188216499984264373779296875" lon="11.7640005983412265777587890625">
        <ele>535.5999755859375</ele>
        <time>2018-08-17T15:21:53.000Z</time>
      </trkpt>
      <trkpt lat="50.31894846819341182708740234375" lon="11.76426270045340061187744140625">
        <ele>536.4000244140625</ele>
        <time>2018-08-17T15:21:57.000Z</time>
      </trkpt>
      <trkpt lat="50.31901267357170581817626953125" lon="11.76438239403069019317626953125">
        <ele>536.79998779296875</ele>
        <time>2018-08-17T15:21:59.000Z</time>
      </trkpt>
      <trkpt lat="50.31918031163513660430908203125" lon="11.76465832628309726715087890625">
        <ele>537.79998779296875</ele>
        <time>2018-08-17T15:22:04.000Z</time>
      </trkpt>
      <trkpt lat="50.319334454834461212158203125" lon="11.76491129212081432342529296875">
        <ele>539</ele>
        <time>2018-08-17T15:22:09.000Z</time>
      </trkpt>
      <trkpt lat="50.31939254142343997955322265625" lon="11.765002571046352386474609375">
        <ele>539.4000244140625</ele>
        <time>2018-08-17T15:22:11.000Z</time>
      </trkpt>
      <trkpt lat="50.31950318254530429840087890625" lon="11.76517599262297153472900390625">
        <ele>540</ele>
        <time>2018-08-17T15:22:15.000Z</time>
      </trkpt>
      <trkpt lat="50.31960971653461456298828125" lon="11.76534228958189487457275390625">
        <ele>541.20001220703125</ele>
        <time>2018-08-17T15:22:19.000Z</time>
      </trkpt>
      <trkpt lat="50.319757573306560516357421875" lon="11.76559056155383586883544921875">
        <ele>542.4000244140625</ele>
        <time>2018-08-17T15:22:25.000Z</time>
      </trkpt>
      <trkpt lat="50.3198911808431148529052734375" lon="11.76579658873379230499267578125">
        <ele>543.4000244140625</ele>
        <time>2018-08-17T15:22:30.000Z</time>
      </trkpt>
      <trkpt lat="50.32002805732190608978271484375" lon="11.76598484627902507781982421875">
        <ele>544.4000244140625</ele>
        <time>2018-08-17T15:22:35.000Z</time>
      </trkpt>
      <trkpt lat="50.32016367651522159576416015625" lon="11.76618668250739574432373046875">
        <ele>545.4000244140625</ele>
        <time>2018-08-17T15:22:40.000Z</time>
      </trkpt>
      <trkpt lat="50.32030097208917140960693359375" lon="11.76639606244862079620361328125">
        <ele>546.4000244140625</ele>
        <time>2018-08-17T15:22:45.000Z</time>
      </trkpt>
      <trkpt lat="50.320459306240081787109375" lon="11.7666445858776569366455078125">
        <ele>547.5999755859375</ele>
        <time>2018-08-17T15:22:51.000Z</time>
      </trkpt>
      <trkpt lat="50.32061881385743618011474609375" lon="11.76690316759049892425537109375">
        <ele>548.79998779296875</ele>
        <time>2018-08-17T15:22:57.000Z</time>
      </trkpt>
      <trkpt lat="50.32077773474156856536865234375" lon="11.7671521939337253570556640625">
        <ele>549.79998779296875</ele>
        <time>2018-08-17T15:23:03.000Z</time>
      </trkpt>
      <trkpt lat="50.3208735398948192596435546875" lon="11.7673189938068389892578125">
        <ele>551</ele>
        <time>2018-08-17T15:23:07.000Z</time>
      </trkpt>
      <trkpt lat="50.32101980410516262054443359375" lon="11.76756449975073337554931640625">
        <ele>552</ele>
        <time>2018-08-17T15:23:13.000Z</time>
      </trkpt>
      <trkpt lat="50.3211588598787784576416015625" lon="11.76782232709228992462158203125">
        <ele>553</ele>
        <time>2018-08-17T15:23:19.000Z</time>
      </trkpt>
      <trkpt lat="50.321272350847721099853515625" lon="11.76804260350763797760009765625">
        <ele>554.20001220703125</ele>
        <time>2018-08-17T15:23:24.000Z</time>
      </trkpt>
      <trkpt lat="50.32142196781933307647705078125" lon="11.76836983300745487213134765625">
        <ele>555.20001220703125</ele>
        <time>2018-08-17T15:23:31.000Z</time>
      </trkpt>
      <trkpt lat="50.321501679718494415283203125" lon="11.7685657180845737457275390625">
        <ele>556.20001220703125</ele>
        <time>2018-08-17T15:23:35.000Z</time>
      </trkpt>
      <trkpt lat="50.3215992450714111328125" lon="11.7688242159783840179443359375">
        <ele>557.4000244140625</ele>
        <time>2018-08-17T15:23:40.000Z</time>
      </trkpt>
      <trkpt lat="50.3217197768390178680419921875" lon="11.76919092424213886260986328125">
        <ele>558.5999755859375</ele>
        <time>2018-08-17T15:23:47.000Z</time>
      </trkpt>
      <trkpt lat="50.32179596833884716033935546875" lon="11.7694498412311077117919921875">
        <ele>559.79998779296875</ele>
        <time>2018-08-17T15:23:52.000Z</time>
      </trkpt>
      <trkpt lat="50.321865789592266082763671875" lon="11.76971110515296459197998046875">
        <ele>560.79998779296875</ele>
        <time>2018-08-17T15:23:57.000Z</time>
      </trkpt>
      <trkpt lat="50.3219296596944332122802734375" lon="11.76999005489051342010498046875">
        <ele>561.79998779296875</ele>
        <time>2018-08-17T15:24:02.000Z</time>
      </trkpt>
      <trkpt lat="50.32200702466070652008056640625" lon="11.77033337764441967010498046875">
        <ele>563</ele>
        <time>2018-08-17T15:24:08.000Z</time>
      </trkpt>
      <trkpt lat="50.32205857336521148681640625" lon="11.770626492798328399658203125">
        <ele>564</ele>
        <time>2018-08-17T15:24:13.000Z</time>
      </trkpt>
      <trkpt lat="50.322105847299098968505859375" lon="11.770923547446727752685546875">
        <ele>565.20001220703125</ele>
        <time>2018-08-17T15:24:18.000Z</time>
      </trkpt>
      <trkpt lat="50.32214197330176830291748046875" lon="11.77121515385806560516357421875">
        <ele>566.20001220703125</ele>
        <time>2018-08-17T15:24:23.000Z</time>
      </trkpt>
      <trkpt lat="50.32219243235886096954345703125" lon="11.7715607397258281707763671875">
        <ele>567.4000244140625</ele>
        <time>2018-08-17T15:24:29.000Z</time>
      </trkpt>
      <trkpt lat="50.32222755253314971923828125" lon="11.77184329368174076080322265625">
        <ele>568.5999755859375</ele>
        <time>2018-08-17T15:24:34.000Z</time>
      </trkpt>
      <trkpt lat="50.32226954586803913116455078125" lon="11.77212241105735301971435546875">
        <ele>569.79998779296875</ele>
        <time>2018-08-17T15:24:39.000Z</time>
      </trkpt>
      <trkpt lat="50.32230206765234470367431640625" lon="11.77235425449907779693603515625">
        <ele>570.79998779296875</ele>
        <time>2018-08-17T15:24:43.000Z</time>
      </trkpt>
      <trkpt lat="50.32233911566436290740966796875" lon="11.77265801467001438140869140625">
        <ele>572</ele>
        <time>2018-08-17T15:24:48.000Z</time>
      </trkpt>
      <trkpt lat="50.3223799355328083038330078125" lon="11.77296780981123447418212890625">
        <ele>573</ele>
        <time>2018-08-17T15:24:53.000Z</time>
      </trkpt>
      <trkpt lat="50.3224141336977481842041015625" lon="11.7732807062566280364990234375">
        <ele>573.79998779296875</ele>
        <time>2018-08-17T15:24:58.000Z</time>
      </trkpt>
      <trkpt lat="50.3224248625338077545166015625" lon="11.7733423970639705657958984375">
        <ele>574.20001220703125</ele>
        <time>2018-08-17T15:24:59.000Z</time>
      </trkpt>
      <trkpt lat="50.32247004099190235137939453125" lon="11.77371933124959468841552734375">
        <ele>575.20001220703125</ele>
        <time>2018-08-17T15:25:05.000Z</time>
      </trkpt>
      <trkpt lat="50.32251463271677494049072265625" lon="11.77409894764423370361328125">
        <ele>576.20001220703125</ele>
        <time>2018-08-17T15:25:11.000Z</time>
      </trkpt>
      <trkpt lat="50.3225522674620151519775390625" lon="11.77440614439547061920166015625">
        <ele>577.20001220703125</ele>
        <time>2018-08-17T15:25:16.000Z</time>
      </trkpt>
      <trkpt lat="50.32259694300591945648193359375" lon="11.77477092482149600982666015625">
        <ele>578.4000244140625</ele>
        <time>2018-08-17T15:25:22.000Z</time>
      </trkpt>
      <trkpt lat="50.32262912951409816741943359375" lon="11.775020621716976165771484375">
        <ele>579</ele>
        <time>2018-08-17T15:25:26.000Z</time>
      </trkpt>
      <trkpt lat="50.322655700147151947021484375" lon="11.7752118967473506927490234375">
        <ele>579.5999755859375</ele>
        <time>2018-08-17T15:25:29.000Z</time>
      </trkpt>
      <trkpt lat="50.32271881587803363800048828125" lon="11.775756888091564178466796875">
        <ele>580.5999755859375</ele>
        <time>2018-08-17T15:25:37.000Z</time>
      </trkpt>
      <trkpt lat="50.32277514226734638214111328125" lon="11.776170618832111358642578125">
        <ele>581.5999755859375</ele>
        <time>2018-08-17T15:25:43.000Z</time>
      </trkpt>
      <trkpt lat="50.32284353859722614288330078125" lon="11.77666305564343929290771484375">
        <ele>582.5999755859375</ele>
        <time>2018-08-17T15:25:50.000Z</time>
      </trkpt>
      <trkpt lat="50.32289902679622173309326171875" lon="11.7770777083933353424072265625">
        <ele>583.4000244140625</ele>
        <time>2018-08-17T15:25:56.000Z</time>
      </trkpt>
      <trkpt lat="50.32295971177518367767333984375" lon="11.777508370578289031982421875">
        <ele>584.5999755859375</ele>
        <time>2018-08-17T15:26:03.000Z</time>
      </trkpt>
      <trkpt lat="50.32304051332175731658935546875" lon="11.77802125923335552215576171875">
        <ele>585.5999755859375</ele>
        <time>2018-08-17T15:26:09.000Z</time>
      </trkpt>
      <trkpt lat="50.32316657714545726776123046875" lon="11.77869047038257122039794921875">
        <ele>586.5999755859375</ele>
        <time>2018-08-17T15:26:18.000Z</time>
      </trkpt>
      <trkpt lat="50.32329280860722064971923828125" lon="11.77936102263629436492919921875">
        <ele>587.79998779296875</ele>
        <time>2018-08-17T15:26:27.000Z</time>
      </trkpt>
      <trkpt lat="50.32344703562557697296142578125" lon="11.78004741668701171875">
        <ele>589</ele>
        <time>2018-08-17T15:26:36.000Z</time>
      </trkpt>
      <trkpt lat="50.3236700780689716339111328125" lon="11.78088284097611904144287109375">
        <ele>589.5999755859375</ele>
        <time>2018-08-17T15:26:47.000Z</time>
      </trkpt>
      <trkpt lat="50.32380259595811367034912109375" lon="11.78133957087993621826171875">
        <ele>590</ele>
        <time>2018-08-17T15:26:53.000Z</time>
      </trkpt>
      <trkpt lat="50.32402086071670055389404296875" lon="11.782010458409786224365234375">
        <ele>591</ele>
        <time>2018-08-17T15:27:02.000Z</time>
      </trkpt>
      <trkpt lat="50.32426728866994380950927734375" lon="11.78269517607986927032470703125">
        <ele>592</ele>
        <time>2018-08-17T15:27:11.000Z</time>
      </trkpt>
      <trkpt lat="50.324475578963756561279296875" lon="11.78326145745813846588134765625">
        <ele>592.79998779296875</ele>
        <time>2018-08-17T15:27:19.000Z</time>
      </trkpt>
      <trkpt lat="50.3245143033564090728759765625" lon="11.783389113843441009521484375">
        <ele>593</ele>
        <time>2018-08-17T15:27:21.000Z</time>
      </trkpt>
      <trkpt lat="50.324627459049224853515625" lon="11.7836021818220615386962890625">
        <ele>593.5999755859375</ele>
        <time>2018-08-17T15:27:25.000Z</time>
      </trkpt>
      <trkpt lat="50.32469811849296092987060546875" lon="11.78371340967714786529541015625">
        <ele>593.5999755859375</ele>
        <time>2018-08-17T15:27:27.000Z</time>
      </trkpt>
      <trkpt lat="50.32486106269061565399169921875" lon="11.7840323410928249359130859375">
        <ele>594.20001220703125</ele>
        <time>2018-08-17T15:27:32.000Z</time>
      </trkpt>
      <trkpt lat="50.32522584311664104461669921875" lon="11.78465821780264377593994140625">
        <ele>594.5999755859375</ele>
        <time>2018-08-17T15:27:42.000Z</time>
      </trkpt>
      <trkpt lat="50.325505547225475311279296875" lon="11.78507178090512752532958984375">
        <ele>595.4000244140625</ele>
        <time>2018-08-17T15:27:49.000Z</time>
      </trkpt>
      <trkpt lat="50.32594651915132999420166015625" lon="11.785629428923130035400390625">
        <ele>596.20001220703125</ele>
        <time>2018-08-17T15:27:59.000Z</time>
      </trkpt>
      <trkpt lat="50.32604089938104152679443359375" lon="11.785734035074710845947265625">
        <ele>596.4000244140625</ele>
        <time>2018-08-17T15:28:01.000Z</time>
      </trkpt>
      <trkpt lat="50.32648958265781402587890625" lon="11.7861690558493137359619140625">
        <ele>597.5999755859375</ele>
        <time>2018-08-17T15:28:10.000Z</time>
      </trkpt>
      <trkpt lat="50.3269460611045360565185546875" lon="11.78655202500522136688232421875">
        <ele>598.5999755859375</ele>
        <time>2018-08-17T15:28:19.000Z</time>
      </trkpt>
      <trkpt lat="50.3274799883365631103515625" lon="11.78688227199018001556396484375">
        <ele>599.79998779296875</ele>
        <time>2018-08-17T15:28:29.000Z</time>
      </trkpt>
      <trkpt lat="50.32802975736558437347412109375" lon="11.78713238798081874847412109375">
        <ele>600.4000244140625</ele>
        <time>2018-08-17T15:28:39.000Z</time>
      </trkpt>
      <trkpt lat="50.328314490616321563720703125" lon="11.787245459854602813720703125">
        <ele>600.79998779296875</ele>
        <time>2018-08-17T15:28:44.000Z</time>
      </trkpt>
      <trkpt lat="50.32877038232982158660888671875" lon="11.78740513511002063751220703125">
        <ele>602</ele>
        <time>2018-08-17T15:28:52.000Z</time>
      </trkpt>
      <trkpt lat="50.32931973226368427276611328125" lon="11.78759674541652202606201171875">
        <ele>602.79998779296875</ele>
        <time>2018-08-17T15:29:02.000Z</time>
      </trkpt>
      <trkpt lat="50.32942987047135829925537109375" lon="11.78764301352202892303466796875">
        <ele>603</ele>
        <time>2018-08-17T15:29:04.000Z</time>
      </trkpt>
      <trkpt lat="50.329972766339778900146484375" lon="11.78790754638612270355224609375">
        <ele>603.79998779296875</ele>
        <time>2018-08-17T15:29:14.000Z</time>
      </trkpt>
      <trkpt lat="50.33018541522324085235595703125" lon="11.7880256474018096923828125">
        <ele>604</ele>
        <time>2018-08-17T15:29:18.000Z</time>
      </trkpt>
      <trkpt lat="50.33069838769733905792236328125" lon="11.78840258158743381500244140625">
        <ele>604.79998779296875</ele>
        <time>2018-08-17T15:29:28.000Z</time>
      </trkpt>
      <trkpt lat="50.33087876625359058380126953125" lon="11.7885880731046199798583984375">
        <ele>605</ele>
        <time>2018-08-17T15:29:33.000Z</time>
      </trkpt>
      <trkpt lat="50.3309623338282108306884765625" lon="11.78868773393332958221435546875">
        <ele>605.20001220703125</ele>
        <time>2018-08-17T15:29:34.000Z</time>
      </trkpt>
      <trkpt lat="50.3311105258762836456298828125" lon="11.78892041556537151336669921875">
        <ele>606</ele>
        <time>2018-08-17T15:29:39.000Z</time>
      </trkpt>
      <trkpt lat="50.33136139623820781707763671875" lon="11.7895516566932201385498046875">
        <ele>607</ele>
        <time>2018-08-17T15:29:47.000Z</time>
      </trkpt>
      <trkpt lat="50.3314132802188396453857421875" lon="11.7895838432013988494873046875">
        <ele>607.20001220703125</ele>
        <time>2018-08-17T15:29:48.000Z</time>
      </trkpt>
      <trkpt lat="50.331559292972087860107421875" lon="11.7897866852581501007080078125">
        <ele>607.79998779296875</ele>
        <time>2018-08-17T15:29:52.000Z</time>
      </trkpt>
      <trkpt lat="50.3316278569400310516357421875" lon="11.789887435734272003173828125">
        <ele>608.20001220703125</ele>
        <time>2018-08-17T15:29:54.000Z</time>
      </trkpt>
      <trkpt lat="50.33177764154970645904541015625" lon="11.79007024504244327545166015625">
        <ele>609.20001220703125</ele>
        <time>2018-08-17T15:29:59.000Z</time>
      </trkpt>
      <trkpt lat="50.33194092102348804473876953125" lon="11.79025590419769287109375">
        <ele>610.4000244140625</ele>
        <time>2018-08-17T15:30:04.000Z</time>
      </trkpt>
      <trkpt lat="50.33205910585820674896240234375" lon="11.7903556488454341888427734375">
        <ele>611.4000244140625</ele>
        <time>2018-08-17T15:30:07.000Z</time>
      </trkpt>
      <trkpt lat="50.33225792460143566131591796875" lon="11.7904998175799846649169921875">
        <ele>612.79998779296875</ele>
        <time>2018-08-17T15:30:12.000Z</time>
      </trkpt>
      <trkpt lat="50.3324281610548496246337890625" lon="11.79057684727013111114501953125">
        <ele>613.79998779296875</ele>
        <time>2018-08-17T15:30:16.000Z</time>
      </trkpt>
      <trkpt lat="50.33264550380408763885498046875" lon="11.79066292941570281982421875">
        <ele>614.79998779296875</ele>
        <time>2018-08-17T15:30:21.000Z</time>
      </trkpt>
      <trkpt lat="50.3328656964004039764404296875" lon="11.79074163548648357391357421875">
        <ele>615.79998779296875</ele>
        <time>2018-08-17T15:30:27.000Z</time>
      </trkpt>
      <trkpt lat="50.33319502137601375579833984375" lon="11.79087339900434017181396484375">
        <ele>617</ele>
        <time>2018-08-17T15:30:34.000Z</time>
      </trkpt>
      <trkpt lat="50.3333739750087261199951171875" lon="11.79093777202069759368896484375">
        <ele>618</ele>
        <time>2018-08-17T15:30:38.000Z</time>
      </trkpt>
      <trkpt lat="50.33372777514159679412841796875" lon="11.79107255302369594573974609375">
        <ele>619</ele>
        <time>2018-08-17T15:30:46.000Z</time>
      </trkpt>
      <trkpt lat="50.333813689649105072021484375" lon="11.79110775701701641082763671875">
        <ele>619.4000244140625</ele>
        <time>2018-08-17T15:30:48.000Z</time>
      </trkpt>
      <trkpt lat="50.3339409269392490386962890625" lon="11.79115586914122104644775390625">
        <ele>620.20001220703125</ele>
        <time>2018-08-17T15:30:51.000Z</time>
      </trkpt>
      <trkpt lat="50.33424560911953449249267578125" lon="11.79127254523336887359619140625">
        <ele>621.4000244140625</ele>
        <time>2018-08-17T15:30:58.000Z</time>
      </trkpt>
      <trkpt lat="50.33449622802436351776123046875" lon="11.791376732289791107177734375">
        <ele>622.4000244140625</ele>
        <time>2018-08-17T15:31:04.000Z</time>
      </trkpt>
      <trkpt lat="50.334692783653736114501953125" lon="11.79146935231983661651611328125">
        <ele>623.5999755859375</ele>
        <time>2018-08-17T15:31:09.000Z</time>
      </trkpt>
      <trkpt lat="50.33488414250314235687255859375" lon="11.79158150218427181243896484375">
        <ele>624.79998779296875</ele>
        <time>2018-08-17T15:31:14.000Z</time>
      </trkpt>
      <trkpt lat="50.33506460487842559814453125" lon="11.7917110025882720947265625">
        <ele>626</ele>
        <time>2018-08-17T15:31:19.000Z</time>
      </trkpt>
      <trkpt lat="50.3352034091949462890625" lon="11.79183882661163806915283203125">
        <ele>627</ele>
        <time>2018-08-17T15:31:23.000Z</time>
      </trkpt>
      <trkpt lat="50.33533827401697635650634765625" lon="11.7919857613742351531982421875">
        <ele>628.20001220703125</ele>
        <time>2018-08-17T15:31:27.000Z</time>
      </trkpt>
      <trkpt lat="50.33546752296388149261474609375" lon="11.7921517230570316314697265625">
        <ele>629.4000244140625</ele>
        <time>2018-08-17T15:31:31.000Z</time>
      </trkpt>
      <trkpt lat="50.3355883061885833740234375" lon="11.792332269251346588134765625">
        <ele>630.5999755859375</ele>
        <time>2018-08-17T15:31:35.000Z</time>
      </trkpt>
      <trkpt lat="50.33572535030543804168701171875" lon="11.7925704829394817352294921875">
        <ele>631.5999755859375</ele>
        <time>2018-08-17T15:31:40.000Z</time>
      </trkpt>
      <trkpt lat="50.33587940968573093414306640625" lon="11.79289980791509151458740234375">
        <ele>632.5999755859375</ele>
        <time>2018-08-17T15:31:46.000Z</time>
      </trkpt>
      <trkpt lat="50.33599038608372211456298828125" lon="11.793197281658649444580078125">
        <ele>633.79998779296875</ele>
        <time>2018-08-17T15:31:51.000Z</time>
      </trkpt>
      <trkpt lat="50.33609650097787380218505859375" lon="11.793573796749114990234375">
        <ele>634.79998779296875</ele>
        <time>2018-08-17T15:31:57.000Z</time>
      </trkpt>
      <trkpt lat="50.3361735306680202484130859375" lon="11.7938227392733097076416015625">
        <ele>635.79998779296875</ele>
        <time>2018-08-17T15:32:01.000Z</time>
      </trkpt>
      <trkpt lat="50.33641509711742401123046875" lon="11.79427963681519031524658203125">
        <ele>636.79998779296875</ele>
        <time>2018-08-17T15:32:09.000Z</time>
      </trkpt>
      <trkpt lat="50.3364538215100765228271484375" lon="11.79432054050266742706298828125">
        <ele>637</ele>
        <time>2018-08-17T15:32:10.000Z</time>
      </trkpt>
      <trkpt lat="50.33653319813311100006103515625" lon="11.794390194118022918701171875">
        <ele>637.79998779296875</ele>
        <time>2018-08-17T15:32:12.000Z</time>
      </trkpt>
      <trkpt lat="50.3366127423942089080810546875" lon="11.79443679749965667724609375">
        <ele>638.20001220703125</ele>
        <time>2018-08-17T15:32:14.000Z</time>
      </trkpt>
      <trkpt lat="50.3367984853684902191162109375" lon="11.79447812028229236602783203125">
        <ele>638.5999755859375</ele>
        <time>2018-08-17T15:32:19.000Z</time>
      </trkpt>
      <trkpt lat="50.33692681230604648590087890625" lon="11.79414443671703338623046875">
        <ele>638.5999755859375</ele>
        <time>2018-08-17T15:32:24.000Z</time>
      </trkpt>
      <trkpt lat="50.33703711815178394317626953125" lon="11.79326592944562435150146484375">
        <ele>638.79998779296875</ele>
        <time>2018-08-17T15:32:33.000Z</time>
      </trkpt>
      <trkpt lat="50.3372920118272304534912109375" lon="11.79306208156049251556396484375">
        <ele>639.20001220703125</ele>
        <time>2018-08-17T15:32:38.000Z</time>
      </trkpt>
      <trkpt lat="50.33740474842488765716552734375" lon="11.793110780417919158935546875">
        <ele>639.5999755859375</ele>
        <time>2018-08-17T15:32:40.000Z</time>
      </trkpt>
      <trkpt lat="50.33773683942854404449462890625" lon="11.79332829080522060394287109375">
        <ele>640.20001220703125</ele>
        <time>2018-08-17T15:32:47.000Z</time>
      </trkpt>
      <trkpt lat="50.33794236369431018829345703125" lon="11.79346558637917041778564453125">
        <ele>641.20001220703125</ele>
        <time>2018-08-17T15:32:51.000Z</time>
      </trkpt>
      <trkpt lat="50.33820052631199359893798828125" lon="11.79362819530069828033447265625">
        <ele>642.20001220703125</ele>
        <time>2018-08-17T15:32:57.000Z</time>
      </trkpt>
      <trkpt lat="50.3386934660375118255615234375" lon="11.793936230242252349853515625">
        <ele>643.20001220703125</ele>
        <time>2018-08-17T15:33:05.000Z</time>
      </trkpt>
      <trkpt lat="50.339210294187068939208984375" lon="11.79425147362053394317626953125">
        <ele>643.5999755859375</ele>
        <time>2018-08-17T15:33:13.000Z</time>
      </trkpt>
      <trkpt lat="50.3397254459559917449951171875" lon="11.79458163678646087646484375">
        <ele>643.20001220703125</ele>
        <time>2018-08-17T15:33:21.000Z</time>
      </trkpt>
      <trkpt lat="50.340058542788028717041015625" lon="11.794797889888286590576171875">
        <ele>642.20001220703125</ele>
        <time>2018-08-17T15:33:24.000Z</time>
      </trkpt>
      <trkpt lat="50.3404967486858367919921875" lon="11.79508647881448268890380859375">
        <ele>641.20001220703125</ele>
        <time>2018-08-17T15:33:29.000Z</time>
      </trkpt>
      <trkpt lat="50.3407694958150386810302734375" lon="11.79527574218809604644775390625">
        <ele>640</ele>
        <time>2018-08-17T15:33:33.000Z</time>
      </trkpt>
      <trkpt lat="50.34129931591451168060302734375" lon="11.79569399915635585784912109375">
        <ele>638.79998779296875</ele>
        <time>2018-08-17T15:33:38.000Z</time>
      </trkpt>
      <trkpt lat="50.34163677133619785308837890625" lon="11.79598619230091571807861328125">
        <ele>637.79998779296875</ele>
        <time>2018-08-17T15:33:42.000Z</time>
      </trkpt>
      <trkpt lat="50.34216734580695629119873046875" lon="11.79644769988954067230224609375">
        <ele>637.5999755859375</ele>
        <time>2018-08-17T15:33:49.000Z</time>
      </trkpt>
      <trkpt lat="50.342651903629302978515625" lon="11.79688171483576297760009765625">
        <ele>637.5999755859375</ele>
        <time>2018-08-17T15:33:56.000Z</time>
      </trkpt>
      <trkpt lat="50.34291869960725307464599609375" lon="11.79711121134459972381591796875">
        <ele>637.79998779296875</ele>
        <time>2018-08-17T15:34:00.000Z</time>
      </trkpt>
      <trkpt lat="50.34339579753577709197998046875" lon="11.797516979277133941650390625">
        <ele>638.4000244140625</ele>
        <time>2018-08-17T15:34:07.000Z</time>
      </trkpt>
      <trkpt lat="50.3439546190202236175537109375" lon="11.79783591069281101226806640625">
        <ele>638.5999755859375</ele>
        <time>2018-08-17T15:34:15.000Z</time>
      </trkpt>
      <trkpt lat="50.344401039183139801025390625" lon="11.79798209108412265777587890625">
        <ele>638.5999755859375</ele>
        <time>2018-08-17T15:34:21.000Z</time>
      </trkpt>
      <trkpt lat="50.345004536211490631103515625" lon="11.79816615767776966094970703125">
        <ele>639.20001220703125</ele>
        <time>2018-08-17T15:34:29.000Z</time>
      </trkpt>
      <trkpt lat="50.3455491922795772552490234375" lon="11.79834603331983089447021484375">
        <ele>639.20001220703125</ele>
        <time>2018-08-17T15:34:36.000Z</time>
      </trkpt>
      <trkpt lat="50.3461134620010852813720703125" lon="11.79853144101798534393310546875">
        <ele>639</ele>
        <time>2018-08-17T15:34:43.000Z</time>
      </trkpt>
      <trkpt lat="50.34671285189688205718994140625" lon="11.7987155914306640625">
        <ele>638</ele>
        <time>2018-08-17T15:34:50.000Z</time>
      </trkpt>
      <trkpt lat="50.34680170007050037384033203125" lon="11.79874710738658905029296875">
        <ele>637.4000244140625</ele>
        <time>2018-08-17T15:34:51.000Z</time>
      </trkpt>
      <trkpt lat="50.34706480801105499267578125" lon="11.79890401661396026611328125">
        <ele>636</ele>
        <time>2018-08-17T15:34:54.000Z</time>
      </trkpt>
      <trkpt lat="50.3472483716905117034912109375" lon="11.79905556142330169677734375">
        <ele>634.79998779296875</ele>
        <time>2018-08-17T15:34:56.000Z</time>
      </trkpt>
      <trkpt lat="50.34742397256195545196533203125" lon="11.79925806820392608642578125">
        <ele>633.79998779296875</ele>
        <time>2018-08-17T15:34:58.000Z</time>
      </trkpt>
      <trkpt lat="50.34750192426145076751708984375" lon="11.7993842996656894683837890625">
        <ele>632.20001220703125</ele>
        <time>2018-08-17T15:35:00.000Z</time>
      </trkpt>
      <trkpt lat="50.34763184376060962677001953125" lon="11.7996790073812007904052734375">
        <ele>630.20001220703125</ele>
        <time>2018-08-17T15:35:02.000Z</time>
      </trkpt>
      <trkpt lat="50.34778439439833164215087890625" lon="11.8001607991755008697509765625">
        <ele>628.4000244140625</ele>
        <time>2018-08-17T15:35:04.000Z</time>
      </trkpt>
      <trkpt lat="50.34782999195158481597900390625" lon="11.80030706338584423065185546875">
        <ele>626.79998779296875</ele>
        <time>2018-08-17T15:35:06.000Z</time>
      </trkpt>
      <trkpt lat="50.34788011573255062103271484375" lon="11.8004394136369228363037109375">
        <ele>625.5999755859375</ele>
        <time>2018-08-17T15:35:07.000Z</time>
      </trkpt>
      <trkpt lat="50.34807457588613033294677734375" lon="11.80074074305593967437744140625">
        <ele>624</ele>
        <time>2018-08-17T15:35:09.000Z</time>
      </trkpt>
      <trkpt lat="50.3481435589492321014404296875" lon="11.800810061395168304443359375">
        <ele>622.79998779296875</ele>
        <time>2018-08-17T15:35:10.000Z</time>
      </trkpt>
      <trkpt lat="50.34829032607376575469970703125" lon="11.80093042552471160888671875">
        <ele>621.20001220703125</ele>
        <time>2018-08-17T15:35:12.000Z</time>
      </trkpt>
      <trkpt lat="50.34844790585339069366455078125" lon="11.8010191060602664947509765625">
        <ele>620</ele>
        <time>2018-08-17T15:35:14.000Z</time>
      </trkpt>
      <trkpt lat="50.3486045636236667633056640625" lon="11.8010978959500789642333984375">
        <ele>618.5999755859375</ele>
        <time>2018-08-17T15:35:16.000Z</time>
      </trkpt>
      <trkpt lat="50.348758958280086517333984375" lon="11.80116604082286357879638671875">
        <ele>617.20001220703125</ele>
        <time>2018-08-17T15:35:18.000Z</time>
      </trkpt>
      <trkpt lat="50.34906347282230854034423828125" lon="11.801255308091640472412109375">
        <ele>616</ele>
        <time>2018-08-17T15:35:22.000Z</time>
      </trkpt>
      <trkpt lat="50.34936077892780303955078125" lon="11.8013221956789493560791015625">
        <ele>615.4000244140625</ele>
        <time>2018-08-17T15:35:27.000Z</time>
      </trkpt>
      <trkpt lat="50.3497852385044097900390625" lon="11.80194572545588016510009765625">
        <ele>615.4000244140625</ele>
        <time>2018-08-17T15:35:34.000Z</time>
      </trkpt>
      <trkpt lat="50.34998464398086071014404296875" lon="11.80223842151463031768798828125">
        <ele>615.5999755859375</ele>
        <time>2018-08-17T15:35:38.000Z</time>
      </trkpt>
      <trkpt lat="50.35048671998083591461181640625" lon="11.8027373962104320526123046875">
        <ele>616.79998779296875</ele>
        <time>2018-08-17T15:35:47.000Z</time>
      </trkpt>
      <trkpt lat="50.3507328964769840240478515625" lon="11.80291215889155864715576171875">
        <ele>617</ele>
        <time>2018-08-17T15:35:51.000Z</time>
      </trkpt>
      <trkpt lat="50.35124637186527252197265625" lon="11.80322731845080852508544921875">
        <ele>617.5999755859375</ele>
        <time>2018-08-17T15:35:59.000Z</time>
      </trkpt>
      <trkpt lat="50.35144351422786712646484375" lon="11.80334667675197124481201171875">
        <ele>618</ele>
        <time>2018-08-17T15:36:02.000Z</time>
      </trkpt>
      <trkpt lat="50.35197886638343334197998046875" lon="11.80366820655763149261474609375">
        <ele>618.20001220703125</ele>
        <time>2018-08-17T15:36:10.000Z</time>
      </trkpt>
      <trkpt lat="50.35252444446086883544921875" lon="11.80404824204742908477783203125">
        <ele>618</ele>
        <time>2018-08-17T15:36:18.000Z</time>
      </trkpt>
      <trkpt lat="50.35301067866384983062744140625" lon="11.8045626394450664520263671875">
        <ele>617.79998779296875</ele>
        <time>2018-08-17T15:36:26.000Z</time>
      </trkpt>
      <trkpt lat="50.3534291870892047882080078125" lon="11.80511735379695892333984375">
        <ele>617.79998779296875</ele>
        <time>2018-08-17T15:36:34.000Z</time>
      </trkpt>
      <trkpt lat="50.3539046086370944976806640625" lon="11.80584213696420192718505859375">
        <ele>618.5999755859375</ele>
        <time>2018-08-17T15:36:44.000Z</time>
      </trkpt>
      <trkpt lat="50.35405087284743785858154296875" lon="11.80606375448405742645263671875">
        <ele>619</ele>
        <time>2018-08-17T15:36:47.000Z</time>
      </trkpt>
      <trkpt lat="50.35447265021502971649169921875" lon="11.80671519599854946136474609375">
        <ele>620</ele>
        <time>2018-08-17T15:36:56.000Z</time>
      </trkpt>
      <trkpt lat="50.35451808013021945953369140625" lon="11.80678577162325382232666015625">
        <ele>620.20001220703125</ele>
        <time>2018-08-17T15:36:57.000Z</time>
      </trkpt>
      <trkpt lat="50.35484229214489459991455078125" lon="11.8072793819010257720947265625">
        <ele>621.20001220703125</ele>
        <time>2018-08-17T15:37:04.000Z</time>
      </trkpt>
      <trkpt lat="50.355209000408649444580078125" lon="11.80770845152437686920166015625">
        <ele>622</ele>
        <time>2018-08-17T15:37:11.000Z</time>
      </trkpt>
      <trkpt lat="50.35539449192583560943603515625" lon="11.8078356049954891204833984375">
        <ele>622.5999755859375</ele>
        <time>2018-08-17T15:37:14.000Z</time>
      </trkpt>
      <trkpt lat="50.35593219101428985595703125" lon="11.80796124972403049468994140625">
        <ele>623</ele>
        <time>2018-08-17T15:37:22.000Z</time>
      </trkpt>
      <trkpt lat="50.3564905934035778045654296875" lon="11.80792269296944141387939453125">
        <ele>623</ele>
        <time>2018-08-17T15:37:30.000Z</time>
      </trkpt>
      <trkpt lat="50.35706341266632080078125" lon="11.807873658835887908935546875">
        <ele>622.79998779296875</ele>
        <time>2018-08-17T15:37:38.000Z</time>
      </trkpt>
      <trkpt lat="50.357210598886013031005859375" lon="11.80789285339415073394775390625">
        <ele>622.79998779296875</ele>
        <time>2018-08-17T15:37:40.000Z</time>
      </trkpt>
      <trkpt lat="50.3574330545961856842041015625" lon="11.8079710565507411956787109375">
        <ele>622.4000244140625</ele>
        <time>2018-08-17T15:37:43.000Z</time>
      </trkpt>
      <trkpt lat="50.3576462902128696441650390625" lon="11.80813215672969818115234375">
        <ele>622.20001220703125</ele>
        <time>2018-08-17T15:37:46.000Z</time>
      </trkpt>
      <trkpt lat="50.35797259770333766937255859375" lon="11.8085567839443683624267578125">
        <ele>621.4000244140625</ele>
        <time>2018-08-17T15:37:51.000Z</time>
      </trkpt>
      <trkpt lat="50.35816538147628307342529296875" lon="11.8089829199016094207763671875">
        <ele>620.20001220703125</ele>
        <time>2018-08-17T15:37:56.000Z</time>
      </trkpt>
      <trkpt lat="50.3582918643951416015625" lon="11.80930285714566707611083984375">
        <ele>618.4000244140625</ele>
        <time>2018-08-17T15:38:00.000Z</time>
      </trkpt>
      <trkpt lat="50.3583322651684284210205078125" lon="11.8093953095376491546630859375">
        <ele>617.20001220703125</ele>
        <time>2018-08-17T15:38:02.000Z</time>
      </trkpt>
      <trkpt lat="50.35836922936141490936279296875" lon="11.80943730287253856658935546875">
        <ele>615.5999755859375</ele>
        <time>2018-08-17T15:38:04.000Z</time>
      </trkpt>
      <trkpt lat="50.35840108059346675872802734375" lon="11.80944618768990039825439453125">
        <ele>614.79998779296875</ele>
        <time>2018-08-17T15:38:05.000Z</time>
      </trkpt>
      <trkpt lat="50.35840108059346675872802734375" lon="11.80944618768990039825439453125">
        <ele>614.20001220703125</ele>
        <time>2018-08-17T15:38:06.000Z</time>
      </trkpt>
      <trkpt lat="50.35842421464622020721435546875" lon="11.80940595455467700958251953125">
        <ele>613.79998779296875</ele>
        <time>2018-08-17T15:38:07.000Z</time>
      </trkpt>
      <trkpt lat="50.3584392182528972625732421875" lon="11.80938399396836757659912109375">
        <ele>613.20001220703125</ele>
        <time>2018-08-17T15:38:08.000Z</time>
      </trkpt>
      <trkpt lat="50.3584968857467174530029296875" lon="11.8092742748558521270751953125">
        <ele>612.20001220703125</ele>
        <time>2018-08-17T15:38:13.000Z</time>
      </trkpt>
      <trkpt lat="50.35852454602718353271484375" lon="11.80922440253198146820068359375">
        <ele>612.20001220703125</ele>
        <time>2018-08-17T15:38:16.000Z</time>
      </trkpt>
      <trkpt lat="50.358577184379100799560546875" lon="11.80918919853866100311279296875">
        <ele>612</ele>
        <time>2018-08-17T15:38:20.000Z</time>
      </trkpt>
      <trkpt lat="50.3587359376251697540283203125" lon="11.8090298585593700408935546875">
        <ele>612</ele>
        <time>2018-08-17T15:38:25.000Z</time>
      </trkpt>
      <trkpt lat="50.35914019681513309478759765625" lon="11.80821304209530353546142578125">
        <ele>612</ele>
        <time>2018-08-17T15:38:34.000Z</time>
      </trkpt>
      <trkpt lat="50.3593538515269756317138671875" lon="11.80764910764992237091064453125">
        <ele>611.20001220703125</ele>
        <time>2018-08-17T15:38:39.000Z</time>
      </trkpt>
      <trkpt lat="50.359560213983058929443359375" lon="11.80700018070638179779052734375">
        <ele>610</ele>
        <time>2018-08-17T15:38:44.000Z</time>
      </trkpt>
      <trkpt lat="50.3596450388431549072265625" lon="11.806719303131103515625">
        <ele>609</ele>
        <time>2018-08-17T15:38:47.000Z</time>
      </trkpt>
      <trkpt lat="50.359811000525951385498046875" lon="11.80613449774682521820068359375">
        <ele>607.79998779296875</ele>
        <time>2018-08-17T15:38:50.000Z</time>
      </trkpt>
      <trkpt lat="50.35989649593830108642578125" lon="11.80584616027772426605224609375">
        <ele>606.5999755859375</ele>
        <time>2018-08-17T15:38:52.000Z</time>
      </trkpt>
      <trkpt lat="50.3599731065332889556884765625" lon="11.8055889196693897247314453125">
        <ele>605.20001220703125</ele>
        <time>2018-08-17T15:38:54.000Z</time>
      </trkpt>
      <trkpt lat="50.36001727916300296783447265625" lon="11.80549914948642253875732421875">
        <ele>604.5999755859375</ele>
        <time>2018-08-17T15:38:56.000Z</time>
      </trkpt>
      <trkpt lat="50.3600733540952205657958984375" lon="11.8054571561515331268310546875">
        <ele>603.79998779296875</ele>
        <time>2018-08-17T15:38:57.000Z</time>
      </trkpt>
      <trkpt lat="50.3602476976811885833740234375" lon="11.80558213032782077789306640625">
        <ele>602.4000244140625</ele>
        <time>2018-08-17T15:38:59.000Z</time>
      </trkpt>
      <trkpt lat="50.36030041985213756561279296875" lon="11.8056573159992694854736328125">
        <ele>601.79998779296875</ele>
        <time>2018-08-17T15:39:00.000Z</time>
      </trkpt>
      <trkpt lat="50.360357500612735748291015625" lon="11.80573451332747936248779296875">
        <ele>600.79998779296875</ele>
        <time>2018-08-17T15:39:01.000Z</time>
      </trkpt>
      <trkpt lat="50.36048163659870624542236328125" lon="11.80589762516319751739501953125">
        <ele>599.20001220703125</ele>
        <time>2018-08-17T15:39:03.000Z</time>
      </trkpt>
      <trkpt lat="50.360619015991687774658203125" lon="11.8060767464339733123779296875">
        <ele>597.79998779296875</ele>
        <time>2018-08-17T15:39:05.000Z</time>
      </trkpt>
      <trkpt lat="50.36076980642974376678466796875" lon="11.80628084577620029449462890625">
        <ele>596.5999755859375</ele>
        <time>2018-08-17T15:39:07.000Z</time>
      </trkpt>
      <trkpt lat="50.36093543283641338348388671875" lon="11.80649944581091403961181640625">
        <ele>595.5999755859375</ele>
        <time>2018-08-17T15:39:10.000Z</time>
      </trkpt>
      <trkpt lat="50.36111555993556976318359375" lon="11.80669709108769893646240234375">
        <ele>594.79998779296875</ele>
        <time>2018-08-17T15:39:12.000Z</time>
      </trkpt>
      <trkpt lat="50.36121823824942111968994140625" lon="11.80676498450338840484619140625">
        <ele>594.20001220703125</ele>
        <time>2018-08-17T15:39:13.000Z</time>
      </trkpt>
      <trkpt lat="50.3614476509392261505126953125" lon="11.80678979493677616119384765625">
        <ele>592.79998779296875</ele>
        <time>2018-08-17T15:39:15.000Z</time>
      </trkpt>
      <trkpt lat="50.361797846853733062744140625" lon="11.80665962398052215576171875">
        <ele>591.20001220703125</ele>
        <time>2018-08-17T15:39:17.000Z</time>
      </trkpt>
      <trkpt lat="50.36191360093653202056884765625" lon="11.80661226622760295867919921875">
        <ele>589.5999755859375</ele>
        <time>2018-08-17T15:39:19.000Z</time>
      </trkpt>
      <trkpt lat="50.36213345825672149658203125" lon="11.806521825492382049560546875">
        <ele>588.4000244140625</ele>
        <time>2018-08-17T15:39:20.000Z</time>
      </trkpt>
      <trkpt lat="50.36223898641765117645263671875" lon="11.80647849105298519134521484375">
        <ele>586</ele>
        <time>2018-08-17T15:39:21.000Z</time>
      </trkpt>
      <trkpt lat="50.3623418323695659637451171875" lon="11.8064381740987300872802734375">
        <ele>584.5999755859375</ele>
        <time>2018-08-17T15:39:22.000Z</time>
      </trkpt>
      <trkpt lat="50.3624439239501953125" lon="11.80639970116317272186279296875">
        <ele>583.4000244140625</ele>
        <time>2018-08-17T15:39:23.000Z</time>
      </trkpt>
      <trkpt lat="50.36254727281630039215087890625" lon="11.8063603900372982025146484375">
        <ele>582.20001220703125</ele>
        <time>2018-08-17T15:39:24.000Z</time>
      </trkpt>
      <trkpt lat="50.362649448215961456298828125" lon="11.80631739087402820587158203125">
        <ele>580.79998779296875</ele>
        <time>2018-08-17T15:39:25.000Z</time>
      </trkpt>
      <trkpt lat="50.362649448215961456298828125" lon="11.80631739087402820587158203125">
        <ele>579.5999755859375</ele>
        <time>2018-08-17T15:39:26.000Z</time>
      </trkpt>
      <trkpt lat="50.3627468459308147430419921875" lon="11.80627078749239444732666015625">
        <ele>578.4000244140625</ele>
        <time>2018-08-17T15:39:27.000Z</time>
      </trkpt>
      <trkpt lat="50.36283493973314762115478515625" lon="11.8062135390937328338623046875">
        <ele>577.20001220703125</ele>
        <time>2018-08-17T15:39:28.000Z</time>
      </trkpt>
      <trkpt lat="50.3629118017852306365966796875" lon="11.80613449774682521820068359375">
        <ele>576</ele>
        <time>2018-08-17T15:39:29.000Z</time>
      </trkpt>
      <trkpt lat="50.3629790246486663818359375" lon="11.80603072978556156158447265625">
        <ele>574.79998779296875</ele>
        <time>2018-08-17T15:39:30.000Z</time>
      </trkpt>
      <trkpt lat="50.36303945817053318023681640625" lon="11.80591799318790435791015625">
        <ele>573.5999755859375</ele>
        <time>2018-08-17T15:39:31.000Z</time>
      </trkpt>
      <trkpt lat="50.363098047673702239990234375" lon="11.80580525659024715423583984375">
        <ele>572.4000244140625</ele>
        <time>2018-08-17T15:39:32.000Z</time>
      </trkpt>
      <trkpt lat="50.3631696291267871856689453125" lon="11.8057092837989330291748046875">
        <ele>571.4000244140625</ele>
        <time>2018-08-17T15:39:33.000Z</time>
      </trkpt>
      <trkpt lat="50.3634284622967243194580078125" lon="11.8054895102977752685546875">
        <ele>569.4000244140625</ele>
        <time>2018-08-17T15:39:35.000Z</time>
      </trkpt>
      <trkpt lat="50.3634284622967243194580078125" lon="11.8054895102977752685546875">
        <ele>568.20001220703125</ele>
        <time>2018-08-17T15:39:36.000Z</time>
      </trkpt>
      <trkpt lat="50.3635260276496410369873046875" lon="11.80542924441397190093994140625">
        <ele>567</ele>
        <time>2018-08-17T15:39:37.000Z</time>
      </trkpt>
      <trkpt lat="50.363727696239948272705078125" lon="11.8053393065929412841796875">
        <ele>566</ele>
        <time>2018-08-17T15:39:38.000Z</time>
      </trkpt>
      <trkpt lat="50.363825596868991851806640625" lon="11.80529597215354442596435546875">
        <ele>564.20001220703125</ele>
        <time>2018-08-17T15:39:40.000Z</time>
      </trkpt>
      <trkpt lat="50.36408451385796070098876953125" lon="11.8051228858530521392822265625">
        <ele>562.5999755859375</ele>
        <time>2018-08-17T15:39:42.000Z</time>
      </trkpt>
      <trkpt lat="50.3641617111861705780029296875" lon="11.805053316056728363037109375">
        <ele>561.20001220703125</ele>
        <time>2018-08-17T15:39:44.000Z</time>
      </trkpt>
      <trkpt lat="50.3643736056983470916748046875" lon="11.8048271723091602325439453125">
        <ele>559.79998779296875</ele>
        <time>2018-08-17T15:39:46.000Z</time>
      </trkpt>
      <trkpt lat="50.36444124765694141387939453125" lon="11.804752908647060394287109375">
        <ele>558</ele>
        <time>2018-08-17T15:39:48.000Z</time>
      </trkpt>
      <trkpt lat="50.3646419942378997802734375" lon="11.8045713566243648529052734375">
        <ele>556.79998779296875</ele>
        <time>2018-08-17T15:39:51.000Z</time>
      </trkpt>
      <trkpt lat="50.36476797424256801605224609375" lon="11.80449583567678928375244140625">
        <ele>556.4000244140625</ele>
        <time>2018-08-17T15:39:52.000Z</time>
      </trkpt>
      <trkpt lat="50.3649261407554149627685546875" lon="11.80442576296627521514892578125">
        <ele>556.20001220703125</ele>
        <time>2018-08-17T15:39:55.000Z</time>
      </trkpt>
      <trkpt lat="50.3650458343327045440673828125" lon="11.80431948043406009674072265625">
        <ele>556.20001220703125</ele>
        <time>2018-08-17T15:39:58.000Z</time>
      </trkpt>
      <trkpt lat="50.36527658812701702117919921875" lon="11.80411429144442081451416015625">
        <ele>557</ele>
        <time>2018-08-17T15:40:05.000Z</time>
      </trkpt>
      <trkpt lat="50.3653849661350250244140625" lon="11.80414111353456974029541015625">
        <ele>558</ele>
        <time>2018-08-17T15:40:08.000Z</time>
      </trkpt>
      <trkpt lat="50.36541824229061603546142578125" lon="11.80416357703506946563720703125">
        <ele>558.20001220703125</ele>
        <time>2018-08-17T15:40:09.000Z</time>
      </trkpt>
      <trkpt lat="50.36555117927491664886474609375" lon="11.804276145994663238525390625">
        <ele>559</ele>
        <time>2018-08-17T15:40:13.000Z</time>
      </trkpt>
      <trkpt lat="50.36568461917340755462646484375" lon="11.80440229363739490509033203125">
        <ele>560.20001220703125</ele>
        <time>2018-08-17T15:40:17.000Z</time>
      </trkpt>
      <trkpt lat="50.36578402854502201080322265625" lon="11.804481334984302520751953125">
        <ele>561.20001220703125</ele>
        <time>2018-08-17T15:40:20.000Z</time>
      </trkpt>
      <trkpt lat="50.36601637490093708038330078125" lon="11.8046615459024906158447265625">
        <ele>562.4000244140625</ele>
        <time>2018-08-17T15:40:27.000Z</time>
      </trkpt>
      <trkpt lat="50.36618627607822418212890625" lon="11.80476958863437175750732421875">
        <ele>563.5999755859375</ele>
        <time>2018-08-17T15:40:32.000Z</time>
      </trkpt>
      <trkpt lat="50.366359613835811614990234375" lon="11.80484184063971042633056640625">
        <ele>564.79998779296875</ele>
        <time>2018-08-17T15:40:37.000Z</time>
      </trkpt>
      <trkpt lat="50.36655650474131107330322265625" lon="11.80492381565272808074951171875">
        <ele>566</ele>
        <time>2018-08-17T15:40:42.000Z</time>
      </trkpt>
      <trkpt lat="50.3667084686458110809326171875" lon="11.80496036075055599212646484375">
        <ele>567</ele>
        <time>2018-08-17T15:40:46.000Z</time>
      </trkpt>
      <trkpt lat="50.366859845817089080810546875" lon="11.8049710057675838470458984375">
        <ele>568</ele>
        <time>2018-08-17T15:40:50.000Z</time>
      </trkpt>
      <trkpt lat="50.3670018352568149566650390625" lon="11.8049756996333599090576171875">
        <ele>569.20001220703125</ele>
        <time>2018-08-17T15:40:54.000Z</time>
      </trkpt>
      <trkpt lat="50.3671738319098949432373046875" lon="11.80496438406407833099365234375">
        <ele>570.4000244140625</ele>
        <time>2018-08-17T15:40:59.000Z</time>
      </trkpt>
      <trkpt lat="50.3673387877643108367919921875" lon="11.8049237318336963653564453125">
        <ele>571.5999755859375</ele>
        <time>2018-08-17T15:41:04.000Z</time>
      </trkpt>
      <trkpt lat="50.36749326623976230621337890625" lon="11.8048533238470554351806640625">
        <ele>572.79998779296875</ele>
        <time>2018-08-17T15:41:09.000Z</time>
      </trkpt>
      <trkpt lat="50.3676080144941806793212890625" lon="11.8047902919352054595947265625">
        <ele>573.79998779296875</ele>
        <time>2018-08-17T15:41:13.000Z</time>
      </trkpt>
      <trkpt lat="50.367718152701854705810546875" lon="11.80470773018896579742431640625">
        <ele>575</ele>
        <time>2018-08-17T15:41:17.000Z</time>
      </trkpt>
      <trkpt lat="50.36779828369617462158203125" lon="11.80464017204940319061279296875">
        <ele>576.20001220703125</ele>
        <time>2018-08-17T15:41:20.000Z</time>
      </trkpt>
      <trkpt lat="50.36792962811887264251708984375" lon="11.80452802218496799468994140625">
        <ele>577.20001220703125</ele>
        <time>2018-08-17T15:41:25.000Z</time>
      </trkpt>
      <trkpt lat="50.36800749599933624267578125" lon="11.80446163751184940338134765625">
        <ele>578.20001220703125</ele>
        <time>2018-08-17T15:41:28.000Z</time>
      </trkpt>
      <trkpt lat="50.36816951818764209747314453125" lon="11.8043369986116886138916015625">
        <ele>579.4000244140625</ele>
        <time>2018-08-17T15:41:34.000Z</time>
      </trkpt>
      <trkpt lat="50.36828912794589996337890625" lon="11.804241947829723358154296875">
        <ele>580.4000244140625</ele>
        <time>2018-08-17T15:41:38.000Z</time>
      </trkpt>
      <trkpt lat="50.3684435226023197174072265625" lon="11.80411010049283504486083984375">
        <ele>581.79998779296875</ele>
        <time>2018-08-17T15:41:43.000Z</time>
      </trkpt>
      <trkpt lat="50.3686138428747653961181640625" lon="11.8039740622043609619140625">
        <ele>582.79998779296875</ele>
        <time>2018-08-17T15:41:48.000Z</time>
      </trkpt>
      <trkpt lat="50.3688086383044719696044921875" lon="11.80385428480803966522216796875">
        <ele>583.79998779296875</ele>
        <time>2018-08-17T15:41:53.000Z</time>
      </trkpt>
      <trkpt lat="50.369012989103794097900390625" lon="11.80377834476530551910400390625">
        <ele>585</ele>
        <time>2018-08-17T15:41:58.000Z</time>
      </trkpt>
      <trkpt lat="50.3692679665982723236083984375" lon="11.80367675609886646270751953125">
        <ele>586</ele>
        <time>2018-08-17T15:42:04.000Z</time>
      </trkpt>
      <trkpt lat="50.36962218582630157470703125" lon="11.803559996187686920166015625">
        <ele>587.20001220703125</ele>
        <time>2018-08-17T15:42:12.000Z</time>
      </trkpt>
      <trkpt lat="50.37015770561993122100830078125" lon="11.80339797399938106536865234375">
        <ele>587.5999755859375</ele>
        <time>2018-08-17T15:42:22.000Z</time>
      </trkpt>
      <trkpt lat="50.37026868201792240142822265625" lon="11.8033509515225887298583984375">
        <ele>587.4000244140625</ele>
        <time>2018-08-17T15:42:25.000Z</time>
      </trkpt>
      <trkpt lat="50.37039089016616344451904296875" lon="11.80319798178970813751220703125">
        <ele>587.20001220703125</ele>
        <time>2018-08-17T15:42:28.000Z</time>
      </trkpt>
      <trkpt lat="50.37054059095680713653564453125" lon="11.80303637869656085968017578125">
        <ele>586.5999755859375</ele>
        <time>2018-08-17T15:42:32.000Z</time>
      </trkpt>
      <trkpt lat="50.3708518110215663909912109375" lon="11.80248334072530269622802734375">
        <ele>588.4000244140625</ele>
        <time>2018-08-17T15:42:44.000Z</time>
      </trkpt>
      <trkpt lat="50.37089145742356777191162109375" lon="11.80240756832063198089599609375">
        <ele>589.5999755859375</ele>
        <time>2018-08-17T15:42:46.000Z</time>
      </trkpt>
      <trkpt lat="50.3709678165614604949951171875" lon="11.802323497831821441650390625">
        <ele>590.79998779296875</ele>
        <time>2018-08-17T15:42:49.000Z</time>
      </trkpt>
      <trkpt lat="50.37102892063558101654052734375" lon="11.80228083394467830657958984375">
        <ele>592</ele>
        <time>2018-08-17T15:42:52.000Z</time>
      </trkpt>
      <trkpt lat="50.3711827285587787628173828125" lon="11.80219248868525028228759765625">
        <ele>593.20001220703125</ele>
        <time>2018-08-17T15:42:56.000Z</time>
      </trkpt>
      <trkpt lat="50.37128540687263011932373046875" lon="11.80214437656104564666748046875">
        <ele>594.5999755859375</ele>
        <time>2018-08-17T15:43:00.000Z</time>
      </trkpt>
      <trkpt lat="50.3714268095791339874267578125" lon="11.80208486504852771759033203125">
        <ele>595.79998779296875</ele>
        <time>2018-08-17T15:43:03.000Z</time>
      </trkpt>
      <trkpt lat="50.3716222755610942840576171875" lon="11.8019769899547100067138671875">
        <ele>596.79998779296875</ele>
        <time>2018-08-17T15:43:08.000Z</time>
      </trkpt>
      <trkpt lat="50.37193299271166324615478515625" lon="11.80183474905788898468017578125">
        <ele>598</ele>
        <time>2018-08-17T15:43:15.000Z</time>
      </trkpt>
      <trkpt lat="50.37227296270430088043212890625" lon="11.80165839381515979766845703125">
        <ele>599</ele>
        <time>2018-08-17T15:43:22.000Z</time>
      </trkpt>
      <trkpt lat="50.37280873395502567291259765625" lon="11.801362596452236175537109375">
        <ele>599</ele>
        <time>2018-08-17T15:43:31.000Z</time>
      </trkpt>
      <trkpt lat="50.37310905754566192626953125" lon="11.80117852985858917236328125">
        <ele>598.4000244140625</ele>
        <time>2018-08-17T15:43:35.000Z</time>
      </trkpt>
      <trkpt lat="50.3731893561780452728271484375" lon="11.80111440829932689666748046875">
        <ele>598.20001220703125</ele>
        <time>2018-08-17T15:43:36.000Z</time>
      </trkpt>
      <trkpt lat="50.37327074445784091949462890625" lon="11.801038049161434173583984375">
        <ele>597.79998779296875</ele>
        <time>2018-08-17T15:43:38.000Z</time>
      </trkpt>
      <trkpt lat="50.3734304197132587432861328125" lon="11.80083881132304668426513671875">
        <ele>596.79998779296875</ele>
        <time>2018-08-17T15:43:40.000Z</time>
      </trkpt>
      <trkpt lat="50.37363787181675434112548828125" lon="11.80043312720954418182373046875">
        <ele>595.4000244140625</ele>
        <time>2018-08-17T15:43:43.000Z</time>
      </trkpt>
      <trkpt lat="50.3736926056444644927978515625" lon="11.8002779781818389892578125">
        <ele>594.79998779296875</ele>
        <time>2018-08-17T15:43:44.000Z</time>
      </trkpt>
      <trkpt lat="50.373745076358318328857421875" lon="11.80012132041156291961669921875">
        <ele>594.20001220703125</ele>
        <time>2018-08-17T15:43:45.000Z</time>
      </trkpt>
      <trkpt lat="50.37384708411991596221923828125" lon="11.79981202818453311920166015625">
        <ele>592.5999755859375</ele>
        <time>2018-08-17T15:43:47.000Z</time>
      </trkpt>
      <trkpt lat="50.37395185790956020355224609375" lon="11.79952302016317844390869140625">
        <ele>590.5999755859375</ele>
        <time>2018-08-17T15:43:49.000Z</time>
      </trkpt>
      <trkpt lat="50.37402008660137653350830078125" lon="11.7994017340242862701416015625">
        <ele>589.5999755859375</ele>
        <time>2018-08-17T15:43:50.000Z</time>
      </trkpt>
      <trkpt lat="50.37419141270220279693603515625" lon="11.799249686300754547119140625">
        <ele>588.4000244140625</ele>
        <time>2018-08-17T15:43:52.000Z</time>
      </trkpt>
      <trkpt lat="50.37438151426613330841064453125" lon="11.799249686300754547119140625">
        <ele>587.20001220703125</ele>
        <time>2018-08-17T15:43:54.000Z</time>
      </trkpt>
      <trkpt lat="50.3747195564210414886474609375" lon="11.79952000267803668975830078125">
        <ele>586.5999755859375</ele>
        <time>2018-08-17T15:43:57.000Z</time>
      </trkpt>
      <trkpt lat="50.37495978176593780517578125" lon="11.79977632127702236175537109375">
        <ele>586</ele>
        <time>2018-08-17T15:44:00.000Z</time>
      </trkpt>
      <trkpt lat="50.3754082135856151580810546875" lon="11.8004142679274082183837890625">
        <ele>585.4000244140625</ele>
        <time>2018-08-17T15:44:06.000Z</time>
      </trkpt>
      <trkpt lat="50.375537462532520294189453125" lon="11.8006680719554424285888671875">
        <ele>585</ele>
        <time>2018-08-17T15:44:08.000Z</time>
      </trkpt>
      <trkpt lat="50.3759030811488628387451171875" lon="11.8013044260442256927490234375">
        <ele>583.5999755859375</ele>
        <time>2018-08-17T15:44:13.000Z</time>
      </trkpt>
      <trkpt lat="50.37633315660059452056884765625" lon="11.80157817900180816650390625">
        <ele>582.4000244140625</ele>
        <time>2018-08-17T15:44:17.000Z</time>
      </trkpt>
      <trkpt lat="50.3765883855521678924560546875" lon="11.80156032554805278778076171875">
        <ele>581.4000244140625</ele>
        <time>2018-08-17T15:44:19.000Z</time>
      </trkpt>
      <trkpt lat="50.37671889178454875946044921875" lon="11.8015252053737640380859375">
        <ele>581</ele>
        <time>2018-08-17T15:44:20.000Z</time>
      </trkpt>
      <trkpt lat="50.3768522478640079498291015625" lon="11.80148840881884098052978515625">
        <ele>580.4000244140625</ele>
        <time>2018-08-17T15:44:21.000Z</time>
      </trkpt>
      <trkpt lat="50.3769890405237674713134765625" lon="11.80145454593002796173095703125">
        <ele>578.79998779296875</ele>
        <time>2018-08-17T15:44:23.000Z</time>
      </trkpt>
      <trkpt lat="50.3772713430225849151611328125" lon="11.80139855481684207916259765625">
        <ele>577.79998779296875</ele>
        <time>2018-08-17T15:44:24.000Z</time>
      </trkpt>
      <trkpt lat="50.3775603510439395904541015625" lon="11.80136854760348796844482421875">
        <ele>575.79998779296875</ele>
        <time>2018-08-17T15:44:26.000Z</time>
      </trkpt>
      <trkpt lat="50.3778483532369136810302734375" lon="11.80133719928562641143798828125">
        <ele>573.79998779296875</ele>
        <time>2018-08-17T15:44:28.000Z</time>
      </trkpt>
      <trkpt lat="50.3781350143253803253173828125" lon="11.80126075632870197296142578125">
        <ele>572</ele>
        <time>2018-08-17T15:44:30.000Z</time>
      </trkpt>
      <trkpt lat="50.378275327384471893310546875" lon="11.80120761506259441375732421875">
        <ele>570.79998779296875</ele>
        <time>2018-08-17T15:44:31.000Z</time>
      </trkpt>
      <trkpt lat="50.3784139640629291534423828125" lon="11.80116151459515094757080078125">
        <ele>568.79998779296875</ele>
        <time>2018-08-17T15:44:33.000Z</time>
      </trkpt>
      <trkpt lat="50.37855402566492557525634765625" lon="11.80112832225859165191650390625">
        <ele>566.5999755859375</ele>
        <time>2018-08-17T15:44:34.000Z</time>
      </trkpt>
      <trkpt lat="50.37869450636208057403564453125" lon="11.80112865753471851348876953125">
        <ele>565.5999755859375</ele>
        <time>2018-08-17T15:44:35.000Z</time>
      </trkpt>
      <trkpt lat="50.37883616052567958831787109375" lon="11.80115112103521823883056640625">
        <ele>564.79998779296875</ele>
        <time>2018-08-17T15:44:36.000Z</time>
      </trkpt>
      <trkpt lat="50.37927118130028247833251953125" lon="11.8012826330959796905517578125">
        <ele>563.20001220703125</ele>
        <time>2018-08-17T15:44:38.000Z</time>
      </trkpt>
      <trkpt lat="50.37956370972096920013427734375" lon="11.801362931728363037109375">
        <ele>561.5999755859375</ele>
        <time>2018-08-17T15:44:40.000Z</time>
      </trkpt>
      <trkpt lat="50.3798479400575160980224609375" lon="11.8014286458492279052734375">
        <ele>560</ele>
        <time>2018-08-17T15:44:42.000Z</time>
      </trkpt>
      <trkpt lat="50.37998615764081478118896484375" lon="11.8014599941670894622802734375">
        <ele>558.79998779296875</ele>
        <time>2018-08-17T15:44:43.000Z</time>
      </trkpt>
      <trkpt lat="50.380123369395732879638671875" lon="11.8014876544475555419921875">
        <ele>557.5999755859375</ele>
        <time>2018-08-17T15:44:44.000Z</time>
      </trkpt>
      <trkpt lat="50.3802606649696826934814453125" lon="11.8015149794518947601318359375">
        <ele>556.20001220703125</ele>
        <time>2018-08-17T15:44:45.000Z</time>
      </trkpt>
      <trkpt lat="50.38039661943912506103515625" lon="11.80154607631266117095947265625">
        <ele>554.79998779296875</ele>
        <time>2018-08-17T15:44:46.000Z</time>
      </trkpt>
      <trkpt lat="50.3805298916995525360107421875" lon="11.80158077739179134368896484375">
        <ele>553.79998779296875</ele>
        <time>2018-08-17T15:44:47.000Z</time>
      </trkpt>
      <trkpt lat="50.3807944245636463165283203125" lon="11.8016507662832736968994140625">
        <ele>552</ele>
        <time>2018-08-17T15:44:49.000Z</time>
      </trkpt>
      <trkpt lat="50.38105241954326629638671875" lon="11.8017245270311832427978515625">
        <ele>550.79998779296875</ele>
        <time>2018-08-17T15:44:51.000Z</time>
      </trkpt>
      <trkpt lat="50.3813057206571102142333984375" lon="11.801795773208141326904296875">
        <ele>549.5999755859375</ele>
        <time>2018-08-17T15:44:53.000Z</time>
      </trkpt>
      <trkpt lat="50.38155533373355865478515625" lon="11.80187330581247806549072265625">
        <ele>548.5999755859375</ele>
        <time>2018-08-17T15:44:55.000Z</time>
      </trkpt>
      <trkpt lat="50.38180083967745304107666015625" lon="11.8019555322825908660888671875">
        <ele>547.4000244140625</ele>
        <time>2018-08-17T15:44:57.000Z</time>
      </trkpt>
      <trkpt lat="50.3821675479412078857421875" lon="11.802071370184421539306640625">
        <ele>546</ele>
        <time>2018-08-17T15:45:00.000Z</time>
      </trkpt>
      <trkpt lat="50.38242428563535213470458984375" lon="11.8021355755627155303955078125">
        <ele>544.79998779296875</ele>
        <time>2018-08-17T15:45:02.000Z</time>
      </trkpt>
      <trkpt lat="50.3826878964900970458984375" lon="11.8021992780268192291259765625">
        <ele>543.4000244140625</ele>
        <time>2018-08-17T15:45:04.000Z</time>
      </trkpt>
      <trkpt lat="50.38295284844934940338134765625" lon="11.80226750671863555908203125">
        <ele>542.20001220703125</ele>
        <time>2018-08-17T15:45:06.000Z</time>
      </trkpt>
      <trkpt lat="50.38321754895150661468505859375" lon="11.80234772153198719024658203125">
        <ele>541.20001220703125</ele>
        <time>2018-08-17T15:45:08.000Z</time>
      </trkpt>
      <trkpt lat="50.38334797136485576629638671875" lon="11.8023915588855743408203125">
        <ele>539.4000244140625</ele>
        <time>2018-08-17T15:45:10.000Z</time>
      </trkpt>
      <trkpt lat="50.38358040153980255126953125" lon="11.8024819158017635345458984375">
        <ele>537.5999755859375</ele>
        <time>2018-08-17T15:45:12.000Z</time>
      </trkpt>
      <trkpt lat="50.3837881051003932952880859375" lon="11.8025291897356510162353515625">
        <ele>536</ele>
        <time>2018-08-17T15:45:14.000Z</time>
      </trkpt>
      <trkpt lat="50.3838903643190860748291015625" lon="11.80250530131161212921142578125">
        <ele>535</ele>
        <time>2018-08-17T15:45:15.000Z</time>
      </trkpt>
      <trkpt lat="50.38418834097683429718017578125" lon="11.8023166246712207794189453125">
        <ele>533.20001220703125</ele>
        <time>2018-08-17T15:45:17.000Z</time>
      </trkpt>
      <trkpt lat="50.38427450694143772125244140625" lon="11.80226021446287631988525390625">
        <ele>532</ele>
        <time>2018-08-17T15:45:18.000Z</time>
      </trkpt>
      <trkpt lat="50.38427450694143772125244140625" lon="11.80226021446287631988525390625">
        <ele>531</ele>
        <time>2018-08-17T15:45:19.000Z</time>
      </trkpt>
      <trkpt lat="50.38436050526797771453857421875" lon="11.80222769267857074737548828125">
        <ele>530</ele>
        <time>2018-08-17T15:45:20.000Z</time>
      </trkpt>
      <trkpt lat="50.38444633595645427703857421875" lon="11.802221238613128662109375">
        <ele>529</ele>
        <time>2018-08-17T15:45:21.000Z</time>
      </trkpt>
      <trkpt lat="50.38461950607597827911376953125" lon="11.80223272182047367095947265625">
        <ele>527</ele>
        <time>2018-08-17T15:45:23.000Z</time>
      </trkpt>
      <trkpt lat="50.38470567204058170318603515625" lon="11.80223104543983936309814453125">
        <ele>526</ele>
        <time>2018-08-17T15:45:24.000Z</time>
      </trkpt>
      <trkpt lat="50.38479083217680454254150390625" lon="11.8022297881543636322021484375">
        <ele>525</ele>
        <time>2018-08-17T15:45:25.000Z</time>
      </trkpt>
      <trkpt lat="50.3850348293781280517578125" lon="11.80225535295903682708740234375">
        <ele>523.20001220703125</ele>
        <time>2018-08-17T15:45:27.000Z</time>
      </trkpt>
      <trkpt lat="50.38519165478646755218505859375" lon="11.802329532802104949951171875">
        <ele>521.79998779296875</ele>
        <time>2018-08-17T15:45:29.000Z</time>
      </trkpt>
      <trkpt lat="50.38548653014004230499267578125" lon="11.8022247590124607086181640625">
        <ele>520.79998779296875</ele>
        <time>2018-08-17T15:45:33.000Z</time>
      </trkpt>
      <trkpt lat="50.3855623863637447357177734375" lon="11.8020349927246570587158203125">
        <ele>520</ele>
        <time>2018-08-17T15:45:36.000Z</time>
      </trkpt>
      <trkpt lat="50.385620556771755218505859375" lon="11.80184614844620227813720703125">
        <ele>519.5999755859375</ele>
        <time>2018-08-17T15:45:38.000Z</time>
      </trkpt>
      <trkpt lat="50.3856515698134899139404296875" lon="11.8017597310245037078857421875">
        <ele>519.5999755859375</ele>
        <time>2018-08-17T15:45:39.000Z</time>
      </trkpt>
      <trkpt lat="50.3858503885567188262939453125" lon="11.801652945578098297119140625">
        <ele>519.4000244140625</ele>
        <time>2018-08-17T15:45:43.000Z</time>
      </trkpt>
      <trkpt lat="50.38604308851063251495361328125" lon="11.8017344176769256591796875">
        <ele>519.4000244140625</ele>
        <time>2018-08-17T15:45:47.000Z</time>
      </trkpt>
      <trkpt lat="50.38610863499343395233154296875" lon="11.802215874195098876953125">
        <ele>519.4000244140625</ele>
        <time>2018-08-17T15:45:52.000Z</time>
      </trkpt>
      <trkpt lat="50.38610444404184818267822265625" lon="11.80242718197405338287353515625">
        <ele>519.5999755859375</ele>
        <time>2018-08-17T15:45:54.000Z</time>
      </trkpt>
      <trkpt lat="50.3861881792545318603515625" lon="11.80331717245280742645263671875">
        <ele>519.4000244140625</ele>
        <time>2018-08-17T15:46:02.000Z</time>
      </trkpt>
      <trkpt lat="50.38620821200311183929443359375" lon="11.8041616491973400115966796875">
        <ele>519</ele>
        <time>2018-08-17T15:46:09.000Z</time>
      </trkpt>
      <trkpt lat="50.3861615248024463653564453125" lon="11.80492565967142581939697265625">
        <ele>518.5999755859375</ele>
        <time>2018-08-17T15:46:15.000Z</time>
      </trkpt>
      <trkpt lat="50.38603470660746097564697265625" lon="11.80580995045602321624755859375">
        <ele>517.79998779296875</ele>
        <time>2018-08-17T15:46:22.000Z</time>
      </trkpt>
      <trkpt lat="50.38596295751631259918212890625" lon="11.806047745048999786376953125">
        <ele>517.4000244140625</ele>
        <time>2018-08-17T15:46:24.000Z</time>
      </trkpt>
      <trkpt lat="50.38567378185689449310302734375" lon="11.8068918026983737945556640625">
        <ele>516.79998779296875</ele>
        <time>2018-08-17T15:46:31.000Z</time>
      </trkpt>
      <trkpt lat="50.3854926489293575286865234375" lon="11.80740133859217166900634765625">
        <ele>516.20001220703125</ele>
        <time>2018-08-17T15:46:35.000Z</time>
      </trkpt>
      <trkpt lat="50.3852896392345428466796875" lon="11.80810558609664440155029296875">
        <ele>515.20001220703125</ele>
        <time>2018-08-17T15:46:40.000Z</time>
      </trkpt>
      <trkpt lat="50.3850973583757877349853515625" lon="11.80887923575937747955322265625">
        <ele>514</ele>
        <time>2018-08-17T15:46:45.000Z</time>
      </trkpt>
      <trkpt lat="50.38500339724123477935791015625" lon="11.8093480356037616729736328125">
        <ele>512.79998779296875</ele>
        <time>2018-08-17T15:46:48.000Z</time>
      </trkpt>
      <trkpt lat="50.38493231870234012603759765625" lon="11.80981080047786235809326171875">
        <ele>510.79998779296875</ele>
        <time>2018-08-17T15:46:51.000Z</time>
      </trkpt>
      <trkpt lat="50.3849082626402378082275390625" lon="11.81007407605648040771484375">
        <ele>509.79998779296875</ele>
        <time>2018-08-17T15:46:53.000Z</time>
      </trkpt>
      <trkpt lat="50.38499954156577587127685546875" lon="11.810386888682842254638671875">
        <ele>508.600006103515625</ele>
        <time>2018-08-17T15:46:57.000Z</time>
      </trkpt>
      <trkpt lat="50.38521386682987213134765625" lon="11.8104266189038753509521484375">
        <ele>508.20001220703125</ele>
        <time>2018-08-17T15:47:00.000Z</time>
      </trkpt>
      <trkpt lat="50.38545836694538593292236328125" lon="11.81043257005512714385986328125">
        <ele>507.79998779296875</ele>
        <time>2018-08-17T15:47:03.000Z</time>
      </trkpt>
      <trkpt lat="50.38554319180548191070556640625" lon="11.8104474060237407684326171875">
        <ele>507.600006103515625</ele>
        <time>2018-08-17T15:47:04.000Z</time>
      </trkpt>
      <trkpt lat="50.38607778958976268768310546875" lon="11.8106230907142162322998046875">
        <ele>506.600006103515625</ele>
        <time>2018-08-17T15:47:10.000Z</time>
      </trkpt>
      <trkpt lat="50.386348105967044830322265625" lon="11.8107806704938411712646484375">
        <ele>505.399993896484375</ele>
        <time>2018-08-17T15:47:13.000Z</time>
      </trkpt>
      <trkpt lat="50.38689083419740200042724609375" lon="11.8111836723983287811279296875">
        <ele>504.399993896484375</ele>
        <time>2018-08-17T15:47:19.000Z</time>
      </trkpt>
      <trkpt lat="50.38744546473026275634765625" lon="11.811621375381946563720703125">
        <ele>503.399993896484375</ele>
        <time>2018-08-17T15:47:25.000Z</time>
      </trkpt>
      <trkpt lat="50.38801820017397403717041015625" lon="11.812039129436016082763671875">
        <ele>502.399993896484375</ele>
        <time>2018-08-17T15:47:31.000Z</time>
      </trkpt>
      <trkpt lat="50.38864918984472751617431640625" lon="11.81223903782665729522705078125">
        <ele>501.79998779296875</ele>
        <time>2018-08-17T15:47:37.000Z</time>
      </trkpt>
      <trkpt lat="50.38898681290447711944580078125" lon="11.81222579441964626312255859375">
        <ele>501</ele>
        <time>2018-08-17T15:47:40.000Z</time>
      </trkpt>
      <trkpt lat="50.38933164440095424652099609375" lon="11.8121318332850933074951171875">
        <ele>500</ele>
        <time>2018-08-17T15:47:43.000Z</time>
      </trkpt>
      <trkpt lat="50.3896723687648773193359375" lon="11.81197836063802242279052734375">
        <ele>498.79998779296875</ele>
        <time>2018-08-17T15:47:46.000Z</time>
      </trkpt>
      <trkpt lat="50.3899045474827289581298828125" lon="11.8118800409138202667236328125">
        <ele>497.79998779296875</ele>
        <time>2018-08-17T15:47:48.000Z</time>
      </trkpt>
      <trkpt lat="50.39025600068271160125732421875" lon="11.8117618560791015625">
        <ele>496.399993896484375</ele>
        <time>2018-08-17T15:47:51.000Z</time>
      </trkpt>
      <trkpt lat="50.3906022571027278900146484375" lon="11.811700500547885894775390625">
        <ele>495</ele>
        <time>2018-08-17T15:47:54.000Z</time>
      </trkpt>
      <trkpt lat="50.39082915522158145904541015625" lon="11.8116932921111583709716796875">
        <ele>493.79998779296875</ele>
        <time>2018-08-17T15:47:56.000Z</time>
      </trkpt>
      <trkpt lat="50.39116191677749156951904296875" lon="11.811710894107818603515625">
        <ele>492.399993896484375</ele>
        <time>2018-08-17T15:47:59.000Z</time>
      </trkpt>
      <trkpt lat="50.39147875271737575531005859375" lon="11.811754815280437469482421875">
        <ele>491.20001220703125</ele>
        <time>2018-08-17T15:48:02.000Z</time>
      </trkpt>
      <trkpt lat="50.39189256727695465087890625" lon="11.8118478544056415557861328125">
        <ele>490</ele>
        <time>2018-08-17T15:48:06.000Z</time>
      </trkpt>
      <trkpt lat="50.39231903851032257080078125" lon="11.81197064928710460662841796875">
        <ele>488.79998779296875</ele>
        <time>2018-08-17T15:48:10.000Z</time>
      </trkpt>
      <trkpt lat="50.3928400576114654541015625" lon="11.81217835284769535064697265625">
        <ele>487.79998779296875</ele>
        <time>2018-08-17T15:48:15.000Z</time>
      </trkpt>
      <trkpt lat="50.393257476389408111572265625" lon="11.81237515993416309356689453125">
        <ele>486.20001220703125</ele>
        <time>2018-08-17T15:48:19.000Z</time>
      </trkpt>
      <trkpt lat="50.3935630805790424346923828125" lon="11.81254413910210132598876953125">
        <ele>485</ele>
        <time>2018-08-17T15:48:22.000Z</time>
      </trkpt>
      <trkpt lat="50.3938624821603298187255859375" lon="11.8127303011715412139892578125">
        <ele>484</ele>
        <time>2018-08-17T15:48:25.000Z</time>
      </trkpt>
      <trkpt lat="50.39425333030521869659423828125" lon="11.8129961751401424407958984375">
        <ele>482.79998779296875</ele>
        <time>2018-08-17T15:48:29.000Z</time>
      </trkpt>
      <trkpt lat="50.3947821445763111114501953125" lon="11.81341300718486309051513671875">
        <ele>481.79998779296875</ele>
        <time>2018-08-17T15:48:35.000Z</time>
      </trkpt>
      <trkpt lat="50.39486168883740901947021484375" lon="11.81348023004829883575439453125">
        <ele>481.600006103515625</ele>
        <time>2018-08-17T15:48:36.000Z</time>
      </trkpt>
      <trkpt lat="50.39535303600132465362548828125" lon="11.81393352337181568145751953125">
        <ele>481.20001220703125</ele>
        <time>2018-08-17T15:48:43.000Z</time>
      </trkpt>
      <trkpt lat="50.395840108394622802734375" lon="11.814439706504344940185546875">
        <ele>481.600006103515625</ele>
        <time>2018-08-17T15:48:52.000Z</time>
      </trkpt>
      <trkpt lat="50.3961820900440216064453125" lon="11.81484815664589405059814453125">
        <ele>482.600006103515625</ele>
        <time>2018-08-17T15:49:00.000Z</time>
      </trkpt>
      <trkpt lat="50.3962583653628826141357421875" lon="11.81494086049497127532958984375">
        <ele>483.600006103515625</ele>
        <time>2018-08-17T15:49:02.000Z</time>
      </trkpt>
      <trkpt lat="50.39646380580961704254150390625" lon="11.8152017891407012939453125">
        <ele>484.79998779296875</ele>
        <time>2018-08-17T15:49:08.000Z</time>
      </trkpt>
      <trkpt lat="50.39661115966737270355224609375" lon="11.815359704196453094482421875">
        <ele>485.79998779296875</ele>
        <time>2018-08-17T15:49:12.000Z</time>
      </trkpt>
      <trkpt lat="50.3967659734189510345458984375" lon="11.81549306027591228485107421875">
        <ele>487</ele>
        <time>2018-08-17T15:49:16.000Z</time>
      </trkpt>
      <trkpt lat="50.39697057567536830902099609375" lon="11.81560101918876171112060546875">
        <ele>488.20001220703125</ele>
        <time>2018-08-17T15:49:21.000Z</time>
      </trkpt>
      <trkpt lat="50.397137962281703948974609375" lon="11.81562599726021289825439453125">
        <ele>489.399993896484375</ele>
        <time>2018-08-17T15:49:25.000Z</time>
      </trkpt>
      <trkpt lat="50.397305600345134735107421875" lon="11.81559632532298564910888671875">
        <ele>490.600006103515625</ele>
        <time>2018-08-17T15:49:29.000Z</time>
      </trkpt>
      <trkpt lat="50.397465862333774566650390625" lon="11.8155120871961116790771484375">
        <ele>491.600006103515625</ele>
        <time>2018-08-17T15:49:33.000Z</time>
      </trkpt>
      <trkpt lat="50.39761028252542018890380859375" lon="11.8153836764395236968994140625">
        <ele>492.600006103515625</ele>
        <time>2018-08-17T15:49:37.000Z</time>
      </trkpt>
      <trkpt lat="50.39764230139553546905517578125" lon="11.8153412640094757080078125">
        <ele>492.79998779296875</ele>
        <time>2018-08-17T15:49:38.000Z</time>
      </trkpt>
      <trkpt lat="50.397728048264980316162109375" lon="11.8152019567787647247314453125">
        <ele>494.20001220703125</ele>
        <time>2018-08-17T15:49:41.000Z</time>
      </trkpt>
      <trkpt lat="50.397752858698368072509765625" lon="11.81514772586524486541748046875">
        <ele>494.399993896484375</ele>
        <time>2018-08-17T15:49:42.000Z</time>
      </trkpt>
      <trkpt lat="50.3978177346289157867431640625" lon="11.81497321464121341705322265625">
        <ele>495.20001220703125</ele>
        <time>2018-08-17T15:49:45.000Z</time>
      </trkpt>
      <trkpt lat="50.397891998291015625" lon="11.814731396734714508056640625">
        <ele>496.20001220703125</ele>
        <time>2018-08-17T15:49:49.000Z</time>
      </trkpt>
      <trkpt lat="50.3979443013668060302734375" lon="11.81447884999215602874755859375">
        <ele>497.20001220703125</ele>
        <time>2018-08-17T15:49:53.000Z</time>
      </trkpt>
      <trkpt lat="50.39799056947231292724609375" lon="11.8141910992562770843505859375">
        <ele>498.399993896484375</ele>
        <time>2018-08-17T15:49:57.000Z</time>
      </trkpt>
      <trkpt lat="50.3980903141200542449951171875" lon="11.81379295885562896728515625">
        <ele>499.399993896484375</ele>
        <time>2018-08-17T15:50:02.000Z</time>
      </trkpt>
      <trkpt lat="50.39824672043323516845703125" lon="11.813442595303058624267578125">
        <ele>499.600006103515625</ele>
        <time>2018-08-17T15:50:06.000Z</time>
      </trkpt>
      <trkpt lat="50.3986307792365550994873046875" lon="11.81284488178789615631103515625">
        <ele>499.399993896484375</ele>
        <time>2018-08-17T15:50:12.000Z</time>
      </trkpt>
      <trkpt lat="50.39875072427093982696533203125" lon="11.81237868033349514007568359375">
        <ele>498.20001220703125</ele>
        <time>2018-08-17T15:50:15.000Z</time>
      </trkpt>
      <trkpt lat="50.3987749479711055755615234375" lon="11.81203166954219341278076171875">
        <ele>497.399993896484375</ele>
        <time>2018-08-17T15:50:17.000Z</time>
      </trkpt>
      <trkpt lat="50.3987840004265308380126953125" lon="11.8118649534881114959716796875">
        <ele>496.79998779296875</ele>
        <time>2018-08-17T15:50:18.000Z</time>
      </trkpt>
      <trkpt lat="50.39881140924990177154541015625" lon="11.811558343470096588134765625">
        <ele>495.600006103515625</ele>
        <time>2018-08-17T15:50:20.000Z</time>
      </trkpt>
      <trkpt lat="50.39890327490866184234619140625" lon="11.81129582226276397705078125">
        <ele>494.20001220703125</ele>
        <time>2018-08-17T15:50:22.000Z</time>
      </trkpt>
      <trkpt lat="50.3990421630442142486572265625" lon="11.8111089058220386505126953125">
        <ele>492.79998779296875</ele>
        <time>2018-08-17T15:50:24.000Z</time>
      </trkpt>
      <trkpt lat="50.399163700640201568603515625" lon="11.8109902180731296539306640625">
        <ele>490.79998779296875</ele>
        <time>2018-08-17T15:50:26.000Z</time>
      </trkpt>
      <trkpt lat="50.39927828125655651092529296875" lon="11.8109960854053497314453125">
        <ele>489.20001220703125</ele>
        <time>2018-08-17T15:50:28.000Z</time>
      </trkpt>
      <trkpt lat="50.39936813525855541229248046875" lon="11.811142265796661376953125">
        <ele>487.600006103515625</ele>
        <time>2018-08-17T15:50:30.000Z</time>
      </trkpt>
      <trkpt lat="50.3994280658662319183349609375" lon="11.81135885417461395263671875">
        <ele>486.20001220703125</ele>
        <time>2018-08-17T15:50:32.000Z</time>
      </trkpt>
      <trkpt lat="50.39948523044586181640625" lon="11.81160653941333293914794921875">
        <ele>484.79998779296875</ele>
        <time>2018-08-17T15:50:34.000Z</time>
      </trkpt>
      <trkpt lat="50.39949805475771427154541015625" lon="11.8118924461305141448974609375">
        <ele>483.399993896484375</ele>
        <time>2018-08-17T15:50:36.000Z</time>
      </trkpt>
      <trkpt lat="50.39944390766322612762451171875" lon="11.81218204088509082794189453125">
        <ele>482.600006103515625</ele>
        <time>2018-08-17T15:50:38.000Z</time>
      </trkpt>
      <trkpt lat="50.399423204362392425537109375" lon="11.81232553906738758087158203125">
        <ele>482.20001220703125</ele>
        <time>2018-08-17T15:50:39.000Z</time>
      </trkpt>
      <trkpt lat="50.39951674640178680419921875" lon="11.81273574940860271453857421875">
        <ele>480.600006103515625</ele>
        <time>2018-08-17T15:50:42.000Z</time>
      </trkpt>
      <trkpt lat="50.39967759512364864349365234375" lon="11.81295015849173069000244140625">
        <ele>479.600006103515625</ele>
        <time>2018-08-17T15:50:44.000Z</time>
      </trkpt>
      <trkpt lat="50.3998352587223052978515625" lon="11.81320966221392154693603515625">
        <ele>478</ele>
        <time>2018-08-17T15:50:46.000Z</time>
      </trkpt>
      <trkpt lat="50.40004891343414783477783203125" lon="11.813662536442279815673828125">
        <ele>476.79998779296875</ele>
        <time>2018-08-17T15:50:49.000Z</time>
      </trkpt>
      <trkpt lat="50.4002981074154376983642578125" lon="11.814128570258617401123046875">
        <ele>475.20001220703125</ele>
        <time>2018-08-17T15:50:52.000Z</time>
      </trkpt>
      <trkpt lat="50.40049147792160511016845703125" lon="11.8144174106419086456298828125">
        <ele>473.600006103515625</ele>
        <time>2018-08-17T15:50:54.000Z</time>
      </trkpt>
      <trkpt lat="50.40068292059004306793212890625" lon="11.81468772701919078826904296875">
        <ele>472</ele>
        <time>2018-08-17T15:50:56.000Z</time>
      </trkpt>
      <trkpt lat="50.40086749009788036346435546875" lon="11.81498117744922637939453125">
        <ele>470</ele>
        <time>2018-08-17T15:50:58.000Z</time>
      </trkpt>
      <trkpt lat="50.401068069040775299072265625" lon="11.81525937281548976898193359375">
        <ele>468.20001220703125</ele>
        <time>2018-08-17T15:51:00.000Z</time>
      </trkpt>
      <trkpt lat="50.40129907429218292236328125" lon="11.81549750268459320068359375">
        <ele>466.20001220703125</ele>
        <time>2018-08-17T15:51:02.000Z</time>
      </trkpt>
      <trkpt lat="50.4014065302908420562744140625" lon="11.81562247686088085174560546875">
        <ele>464</ele>
        <time>2018-08-17T15:51:03.000Z</time>
      </trkpt>
      <trkpt lat="50.40150065906345844268798828125" lon="11.8157516419887542724609375">
        <ele>462.79998779296875</ele>
        <time>2018-08-17T15:51:04.000Z</time>
      </trkpt>
      <trkpt lat="50.4015869088470935821533203125" lon="11.81587628088891506195068359375">
        <ele>461.600006103515625</ele>
        <time>2018-08-17T15:51:05.000Z</time>
      </trkpt>
      <trkpt lat="50.40167265571653842926025390625" lon="11.8159901909530162811279296875">
        <ele>460.399993896484375</ele>
        <time>2018-08-17T15:51:06.000Z</time>
      </trkpt>
      <trkpt lat="50.40176100097596645355224609375" lon="11.81609421037137508392333984375">
        <ele>459</ele>
        <time>2018-08-17T15:51:07.000Z</time>
      </trkpt>
      <trkpt lat="50.40185420773923397064208984375" lon="11.81618356145918369293212890625">
        <ele>457.600006103515625</ele>
        <time>2018-08-17T15:51:08.000Z</time>
      </trkpt>
      <trkpt lat="50.4019533656537532806396484375" lon="11.81624843738973140716552734375">
        <ele>456.20001220703125</ele>
        <time>2018-08-17T15:51:09.000Z</time>
      </trkpt>
      <trkpt lat="50.4020561277866363525390625" lon="11.8162872456014156341552734375">
        <ele>455.20001220703125</ele>
        <time>2018-08-17T15:51:10.000Z</time>
      </trkpt>
      <trkpt lat="50.40225855074822902679443359375" lon="11.81631624698638916015625">
        <ele>454</ele>
        <time>2018-08-17T15:51:12.000Z</time>
      </trkpt>
      <trkpt lat="50.40263037197291851043701171875" lon="11.8163844756782054901123046875">
        <ele>453.399993896484375</ele>
        <time>2018-08-17T15:51:16.000Z</time>
      </trkpt>
      <trkpt lat="50.40296606719493865966796875" lon="11.816663928329944610595703125">
        <ele>453.399993896484375</ele>
        <time>2018-08-17T15:51:21.000Z</time>
      </trkpt>
      <trkpt lat="50.40301392786204814910888671875" lon="11.8167274631559848785400390625">
        <ele>453.600006103515625</ele>
        <time>2018-08-17T15:51:22.000Z</time>
      </trkpt>
      <trkpt lat="50.40324895642697811126708984375" lon="11.8170721270143985748291015625">
        <ele>455</ele>
        <time>2018-08-17T15:51:28.000Z</time>
      </trkpt>
      <trkpt lat="50.40332003496587276458740234375" lon="11.8171720393002033233642578125">
        <ele>456.600006103515625</ele>
        <time>2018-08-17T15:51:30.000Z</time>
      </trkpt>
      <trkpt lat="50.40342598222196102142333984375" lon="11.8173100054264068603515625">
        <ele>457.79998779296875</ele>
        <time>2018-08-17T15:51:33.000Z</time>
      </trkpt>
      <trkpt lat="50.40358020924031734466552734375" lon="11.81748392991721630096435546875">
        <ele>459</ele>
        <time>2018-08-17T15:51:37.000Z</time>
      </trkpt>
      <trkpt lat="50.40375321172177791595458984375" lon="11.8176962435245513916015625">
        <ele>460</ele>
        <time>2018-08-17T15:51:41.000Z</time>
      </trkpt>
      <trkpt lat="50.40415696799755096435546875" lon="11.81810385547578334808349609375">
        <ele>460.20001220703125</ele>
        <time>2018-08-17T15:51:48.000Z</time>
      </trkpt>
      <trkpt lat="50.4043116979300975799560546875" lon="11.8181909434497356414794921875">
        <ele>460</ele>
        <time>2018-08-17T15:51:52.000Z</time>
      </trkpt>
      <trkpt lat="50.404363162815570831298828125" lon="11.81804962456226348876953125">
        <ele>459</ele>
        <time>2018-08-17T15:51:59.000Z</time>
      </trkpt>
      <trkpt lat="50.40437950752675533294677734375" lon="11.8180290050804615020751953125">
        <ele>459</ele>
        <time>2018-08-17T15:52:00.000Z</time>
      </trkpt>
      <trkpt lat="50.4044323973357677459716796875" lon="11.817941330373287200927734375">
        <ele>459</ele>
        <time>2018-08-17T15:52:04.000Z</time>
      </trkpt>
      <trkpt lat="50.4046429507434368133544921875" lon="11.81794677861034870147705078125">
        <ele>460.20001220703125</ele>
        <time>2018-08-17T15:52:12.000Z</time>
      </trkpt>
      <trkpt lat="50.404824502766132354736328125" lon="11.81801836006343364715576171875">
        <ele>461.600006103515625</ele>
        <time>2018-08-17T15:52:16.000Z</time>
      </trkpt>
      <trkpt lat="50.4052283428609371185302734375" lon="11.81818583048880100250244140625">
        <ele>462.600006103515625</ele>
        <time>2018-08-17T15:52:25.000Z</time>
      </trkpt>
      <trkpt lat="50.40531165897846221923828125" lon="11.818191446363925933837890625">
        <ele>462.79998779296875</ele>
        <time>2018-08-17T15:52:28.000Z</time>
      </trkpt>
      <trkpt lat="50.40544970892369747161865234375" lon="11.81819052435457706451416015625">
        <ele>463</ele>
        <time>2018-08-17T15:52:30.000Z</time>
      </trkpt>
      <trkpt lat="50.4056809656322002410888671875" lon="11.81806169450283050537109375">
        <ele>463.79998779296875</ele>
        <time>2018-08-17T15:52:35.000Z</time>
      </trkpt>
      <trkpt lat="50.40572069585323333740234375" lon="11.818023137748241424560546875">
        <ele>463.79998779296875</ele>
        <time>2018-08-17T15:52:36.000Z</time>
      </trkpt>
      <trkpt lat="50.40616267360746860504150390625" lon="11.81752483360469341278076171875">
        <ele>464.79998779296875</ele>
        <time>2018-08-17T15:52:50.000Z</time>
      </trkpt>
      <trkpt lat="50.40625202469527721405029296875" lon="11.81746632792055606842041015625">
        <ele>464.79998779296875</ele>
        <time>2018-08-17T15:52:54.000Z</time>
      </trkpt>
      <trkpt lat="50.40629007853567600250244140625" lon="11.81728058494627475738525390625">
        <ele>464.79998779296875</ele>
        <time>2018-08-17T15:53:00.000Z</time>
      </trkpt>
      <trkpt lat="50.40635663084685802459716796875" lon="11.817174889147281646728515625">
        <ele>464.79998779296875</ele>
        <time>2018-08-17T15:53:04.000Z</time>
      </trkpt>
      <trkpt lat="50.40649057365953922271728515625" lon="11.81692100130021572113037109375">
        <ele>466</ele>
        <time>2018-08-17T15:53:13.000Z</time>
      </trkpt>
      <trkpt lat="50.4065855406224727630615234375" lon="11.81673190556466579437255859375">
        <ele>467</ele>
        <time>2018-08-17T15:53:18.000Z</time>
      </trkpt>
      <trkpt lat="50.4066817648708820343017578125" lon="11.81653744541108608245849609375">
        <ele>468.20001220703125</ele>
        <time>2018-08-17T15:53:24.000Z</time>
      </trkpt>
      <trkpt lat="50.40678779594600200653076171875" lon="11.81634348817169666290283203125">
        <ele>469.20001220703125</ele>
        <time>2018-08-17T15:53:30.000Z</time>
      </trkpt>
      <trkpt lat="50.40687597356736660003662109375" lon="11.81617735885083675384521484375">
        <ele>470.20001220703125</ele>
        <time>2018-08-17T15:53:35.000Z</time>
      </trkpt>
      <trkpt lat="50.4069788195192813873291015625" lon="11.81597015820443630218505859375">
        <ele>471.20001220703125</ele>
        <time>2018-08-17T15:53:41.000Z</time>
      </trkpt>
      <trkpt lat="50.40704570710659027099609375" lon="11.815834455192089080810546875">
        <ele>472.399993896484375</ele>
        <time>2018-08-17T15:53:45.000Z</time>
      </trkpt>
      <trkpt lat="50.407097004354000091552734375" lon="11.8157343752682209014892578125">
        <ele>473.600006103515625</ele>
        <time>2018-08-17T15:53:48.000Z</time>
      </trkpt>
      <trkpt lat="50.40720437653362751007080078125" lon="11.8155399151146411895751953125">
        <ele>474.600006103515625</ele>
        <time>2018-08-17T15:53:53.000Z</time>
      </trkpt>
      <trkpt lat="50.40730579756200313568115234375" lon="11.81533967144787311553955078125">
        <ele>475.600006103515625</ele>
        <time>2018-08-17T15:53:58.000Z</time>
      </trkpt>
      <trkpt lat="50.4074099846184253692626953125" lon="11.8151369132101535797119140625">
        <ele>476.79998779296875</ele>
        <time>2018-08-17T15:54:03.000Z</time>
      </trkpt>
      <trkpt lat="50.40751718915998935699462890625" lon="11.81492124684154987335205078125">
        <ele>478</ele>
        <time>2018-08-17T15:54:08.000Z</time>
      </trkpt>
      <trkpt lat="50.40766663849353790283203125" lon="11.8147023953497409820556640625">
        <ele>479.20001220703125</ele>
        <time>2018-08-17T15:54:14.000Z</time>
      </trkpt>
      <trkpt lat="50.40774852968752384185791015625" lon="11.81455814279615879058837890625">
        <ele>480.399993896484375</ele>
        <time>2018-08-17T15:54:18.000Z</time>
      </trkpt>
      <trkpt lat="50.4078684747219085693359375" lon="11.81436292827129364013671875">
        <ele>481.399993896484375</ele>
        <time>2018-08-17T15:54:23.000Z</time>
      </trkpt>
      <trkpt lat="50.407982133328914642333984375" lon="11.81412865407764911651611328125">
        <ele>482.399993896484375</ele>
        <time>2018-08-17T15:54:28.000Z</time>
      </trkpt>
      <trkpt lat="50.40813610889017581939697265625" lon="11.81381315924227237701416015625">
        <ele>483.600006103515625</ele>
        <time>2018-08-17T15:54:35.000Z</time>
      </trkpt>
      <trkpt lat="50.40822495706379413604736328125" lon="11.8136308528482913970947265625">
        <ele>484.600006103515625</ele>
        <time>2018-08-17T15:54:39.000Z</time>
      </trkpt>
      <trkpt lat="50.4082649387419223785400390625" lon="11.81353270076215267181396484375">
        <ele>485.79998779296875</ele>
        <time>2018-08-17T15:54:41.000Z</time>
      </trkpt>
      <trkpt lat="50.40833224542438983917236328125" lon="11.813321895897388458251953125">
        <ele>487</ele>
        <time>2018-08-17T15:54:45.000Z</time>
      </trkpt>
      <trkpt lat="50.40837549604475498199462890625" lon="11.8131711892783641815185546875">
        <ele>488</ele>
        <time>2018-08-17T15:54:49.000Z</time>
      </trkpt>
      <trkpt lat="50.408485047519207000732421875" lon="11.81273306719958782196044921875">
        <ele>489.20001220703125</ele>
        <time>2018-08-17T15:54:56.000Z</time>
      </trkpt>
      <trkpt lat="50.408524610102176666259765625" lon="11.8125526048243045806884765625">
        <ele>489.600006103515625</ele>
        <time>2018-08-17T15:54:59.000Z</time>
      </trkpt>
      <trkpt lat="50.4085717163980007171630859375" lon="11.8123618327081203460693359375">
        <ele>490.399993896484375</ele>
        <time>2018-08-17T15:55:02.000Z</time>
      </trkpt>
      <trkpt lat="50.40861077606678009033203125" lon="11.81222713552415370941162109375">
        <ele>490.79998779296875</ele>
        <time>2018-08-17T15:55:04.000Z</time>
      </trkpt>
      <trkpt lat="50.40869501419365406036376953125" lon="11.812029071152210235595703125">
        <ele>491.399993896484375</ele>
        <time>2018-08-17T15:55:07.000Z</time>
      </trkpt>
      <trkpt lat="50.408729128539562225341796875" lon="11.81196930818259716033935546875">
        <ele>491.600006103515625</ele>
        <time>2018-08-17T15:55:08.000Z</time>
      </trkpt>
      <trkpt lat="50.4088007099926471710205078125" lon="11.811856068670749664306640625">
        <ele>491.79998779296875</ele>
        <time>2018-08-17T15:55:10.000Z</time>
      </trkpt>
      <trkpt lat="50.4089646600186824798583984375" lon="11.81170024909079074859619140625">
        <ele>492</ele>
        <time>2018-08-17T15:55:14.000Z</time>
      </trkpt>
      <trkpt lat="50.4091752134263515472412109375" lon="11.81154258549213409423828125">
        <ele>492.399993896484375</ele>
        <time>2018-08-17T15:55:19.000Z</time>
      </trkpt>
      <trkpt lat="50.4092643968760967254638671875" lon="11.81148382835090160369873046875">
        <ele>492.600006103515625</ele>
        <time>2018-08-17T15:55:21.000Z</time>
      </trkpt>
      <trkpt lat="50.40935500524938106536865234375" lon="11.81142725050449371337890625">
        <ele>492.79998779296875</ele>
        <time>2018-08-17T15:55:23.000Z</time>
      </trkpt>
      <trkpt lat="50.409933440387248992919921875" lon="11.811265982687473297119140625">
        <ele>493.600006103515625</ele>
        <time>2018-08-17T15:55:34.000Z</time>
      </trkpt>
      <trkpt lat="50.41038044728338718414306640625" lon="11.81124611757695674896240234375">
        <ele>493.79998779296875</ele>
        <time>2018-08-17T15:55:42.000Z</time>
      </trkpt>
      <trkpt lat="50.41092694737017154693603515625" lon="11.81131954304873943328857421875">
        <ele>494.79998779296875</ele>
        <time>2018-08-17T15:55:52.000Z</time>
      </trkpt>
      <trkpt lat="50.41108402423560619354248046875" lon="11.8113694153726100921630859375">
        <ele>495</ele>
        <time>2018-08-17T15:55:55.000Z</time>
      </trkpt>
      <trkpt lat="50.41153949685394763946533203125" lon="11.81161626242101192474365234375">
        <ele>496.20001220703125</ele>
        <time>2018-08-17T15:56:04.000Z</time>
      </trkpt>
      <trkpt lat="50.41181878186762332916259765625" lon="11.8118114769458770751953125">
        <ele>497.20001220703125</ele>
        <time>2018-08-17T15:56:10.000Z</time>
      </trkpt>
      <trkpt lat="50.41202732361853122711181640625" lon="11.811951287090778350830078125">
        <ele>498.399993896484375</ele>
        <time>2018-08-17T15:56:15.000Z</time>
      </trkpt>
      <trkpt lat="50.41219328530132770538330078125" lon="11.8120567314326763153076171875">
        <ele>499.600006103515625</ele>
        <time>2018-08-17T15:56:19.000Z</time>
      </trkpt>
      <trkpt lat="50.41235472075641155242919921875" lon="11.81215354241430759429931640625">
        <ele>500.79998779296875</ele>
        <time>2018-08-17T15:56:23.000Z</time>
      </trkpt>
      <trkpt lat="50.41250492446124553680419921875" lon="11.81221179664134979248046875">
        <ele>501.79998779296875</ele>
        <time>2018-08-17T15:56:27.000Z</time>
      </trkpt>
      <trkpt lat="50.412689410150051116943359375" lon="11.8122555501759052276611328125">
        <ele>503.20001220703125</ele>
        <time>2018-08-17T15:56:32.000Z</time>
      </trkpt>
      <trkpt lat="50.41284020058810710906982421875" lon="11.8122706376016139984130859375">
        <ele>504.20001220703125</ele>
        <time>2018-08-17T15:56:36.000Z</time>
      </trkpt>
      <trkpt lat="50.4129083454608917236328125" lon="11.81235521100461483001708984375">
        <ele>504.79998779296875</ele>
        <time>2018-08-17T15:56:39.000Z</time>
      </trkpt>
      <trkpt lat="50.41292150504887104034423828125" lon="11.812395192682743072509765625">
        <ele>505.399993896484375</ele>
        <time>2018-08-17T15:56:41.000Z</time>
      </trkpt>
      <trkpt lat="50.4129671864211559295654296875" lon="11.81250306777656078338623046875">
        <ele>505.79998779296875</ele>
        <time>2018-08-17T15:56:43.000Z</time>
      </trkpt>
      <trkpt lat="50.41304639540612697601318359375" lon="11.81255587376654148101806640625">
        <ele>506.600006103515625</ele>
        <time>2018-08-17T15:56:46.000Z</time>
      </trkpt>
      <trkpt lat="50.41309970431029796600341796875" lon="11.81254833005368709564208984375">
        <ele>507</ele>
        <time>2018-08-17T15:56:49.000Z</time>
      </trkpt>
      <trkpt lat="50.4132753051817417144775390625" lon="11.8126018904149532318115234375">
        <ele>507.399993896484375</ele>
        <time>2018-08-17T15:56:55.000Z</time>
      </trkpt>
      <trkpt lat="50.41329466737806797027587890625" lon="11.8126085959374904632568359375">
        <ele>507.399993896484375</ele>
        <time>2018-08-17T15:56:59.000Z</time>
      </trkpt>
      <trkpt lat="50.413113199174404144287109375" lon="11.8124593980610370635986328125">
        <ele>508.600006103515625</ele>
        <time>2018-08-17T16:20:41.000Z</time>
      </trkpt>
      <trkpt lat="50.4130540229380130767822265625" lon="11.8122511915862560272216796875">
        <ele>508.399993896484375</ele>
        <time>2018-08-17T16:20:58.000Z</time>
      </trkpt>
      <trkpt lat="50.41353774257004261016845703125" lon="11.81226301006972789764404296875">
        <ele>510</ele>
        <time>2018-08-17T16:21:16.000Z</time>
      </trkpt>
      <trkpt lat="50.4137379862368106842041015625" lon="11.81226803921163082122802734375">
        <ele>511.20001220703125</ele>
        <time>2018-08-17T16:21:23.000Z</time>
      </trkpt>
      <trkpt lat="50.41390101425349712371826171875" lon="11.81226074695587158203125">
        <ele>512.20001220703125</ele>
        <time>2018-08-17T16:21:29.000Z</time>
      </trkpt>
      <trkpt lat="50.4140348732471466064453125" lon="11.8122716434299945831298828125">
        <ele>513.20001220703125</ele>
        <time>2018-08-17T16:21:34.000Z</time>
      </trkpt>
      <trkpt lat="50.41414123959839344024658203125" lon="11.8123090267181396484375">
        <ele>514.4000244140625</ele>
        <time>2018-08-17T16:21:38.000Z</time>
      </trkpt>
      <trkpt lat="50.4143334366381168365478515625" lon="11.81237113662064075469970703125">
        <ele>515.79998779296875</ele>
        <time>2018-08-17T16:21:45.000Z</time>
      </trkpt>
      <trkpt lat="50.4144910164177417755126953125" lon="11.81244942359626293182373046875">
        <ele>517</ele>
        <time>2018-08-17T16:21:51.000Z</time>
      </trkpt>
      <trkpt lat="50.4146237857639789581298828125" lon="11.8125355057418346405029296875">
        <ele>518</ele>
        <time>2018-08-17T16:21:56.000Z</time>
      </trkpt>
      <trkpt lat="50.41478195227682590484619140625" lon="11.8126391060650348663330078125">
        <ele>519.4000244140625</ele>
        <time>2018-08-17T16:22:02.000Z</time>
      </trkpt>
      <trkpt lat="50.41493835859000682830810546875" lon="11.8127634935081005096435546875">
        <ele>520.5999755859375</ele>
        <time>2018-08-17T16:22:08.000Z</time>
      </trkpt>
      <trkpt lat="50.41506551206111907958984375" lon="11.81289986707270145416259765625">
        <ele>521.5999755859375</ele>
        <time>2018-08-17T16:22:13.000Z</time>
      </trkpt>
      <trkpt lat="50.41519023478031158447265625" lon="11.8130615539848804473876953125">
        <ele>522.5999755859375</ele>
        <time>2018-08-17T16:22:18.000Z</time>
      </trkpt>
      <trkpt lat="50.4153657518327236175537109375" lon="11.81331418454647064208984375">
        <ele>524</ele>
        <time>2018-08-17T16:22:25.000Z</time>
      </trkpt>
      <trkpt lat="50.4155675880610942840576171875" lon="11.8135200440883636474609375">
        <ele>525</ele>
        <time>2018-08-17T16:22:32.000Z</time>
      </trkpt>
      <trkpt lat="50.41573966853320598602294921875" lon="11.81341904215514659881591796875">
        <ele>526.20001220703125</ele>
        <time>2018-08-17T16:22:38.000Z</time>
      </trkpt>
      <trkpt lat="50.4159829951822757720947265625" lon="11.81326095946133136749267578125">
        <ele>527.20001220703125</ele>
        <time>2018-08-17T16:22:45.000Z</time>
      </trkpt>
      <trkpt lat="50.416109226644039154052734375" lon="11.813262887299060821533203125">
        <ele>527.5999755859375</ele>
        <time>2018-08-17T16:22:48.000Z</time>
      </trkpt>
      <trkpt lat="50.416378788650035858154296875" lon="11.81337051093578338623046875">
        <ele>527.79998779296875</ele>
        <time>2018-08-17T16:22:54.000Z</time>
      </trkpt>
      <trkpt lat="50.41675035841763019561767578125" lon="11.8136000074446201324462890625">
        <ele>527.79998779296875</ele>
        <time>2018-08-17T16:23:01.000Z</time>
      </trkpt>
      <trkpt lat="50.41732368059456348419189453125" lon="11.81393100880086421966552734375">
        <ele>526.20001220703125</ele>
        <time>2018-08-17T16:23:09.000Z</time>
      </trkpt>
      <trkpt lat="50.41755820624530315399169921875" lon="11.814082302153110504150390625">
        <ele>525.20001220703125</ele>
        <time>2018-08-17T16:23:12.000Z</time>
      </trkpt>
      <trkpt lat="50.417713187634944915771484375" lon="11.81418498046696186065673828125">
        <ele>524.20001220703125</ele>
        <time>2018-08-17T16:23:14.000Z</time>
      </trkpt>
      <trkpt lat="50.4179463721811771392822265625" lon="11.814330406486988067626953125">
        <ele>523</ele>
        <time>2018-08-17T16:23:17.000Z</time>
      </trkpt>
      <trkpt lat="50.41826278902590274810791015625" lon="11.81448522023856639862060546875">
        <ele>521.79998779296875</ele>
        <time>2018-08-17T16:23:21.000Z</time>
      </trkpt>
      <trkpt lat="50.4185706563293933868408203125" lon="11.814632825553417205810546875">
        <ele>520.79998779296875</ele>
        <time>2018-08-17T16:23:25.000Z</time>
      </trkpt>
      <trkpt lat="50.41908974759280681610107421875" lon="11.81487523019313812255859375">
        <ele>520.4000244140625</ele>
        <time>2018-08-17T16:23:32.000Z</time>
      </trkpt>
      <trkpt lat="50.4196556098759174346923828125" lon="11.81486391462385654449462890625">
        <ele>520.20001220703125</ele>
        <time>2018-08-17T16:23:40.000Z</time>
      </trkpt>
      <trkpt lat="50.419720150530338287353515625" lon="11.81483499705791473388671875">
        <ele>520.20001220703125</ele>
        <time>2018-08-17T16:23:41.000Z</time>
      </trkpt>
      <trkpt lat="50.41983791626989841461181640625" lon="11.8147681094706058502197265625">
        <ele>520.20001220703125</ele>
        <time>2018-08-17T16:23:43.000Z</time>
      </trkpt>
      <trkpt lat="50.42033714242279529571533203125" lon="11.8144695460796356201171875">
        <ele>522</ele>
        <time>2018-08-17T16:23:55.000Z</time>
      </trkpt>
      <trkpt lat="50.420440323650836944580078125" lon="11.81443224661052227020263671875">
        <ele>523.4000244140625</ele>
        <time>2018-08-17T16:23:58.000Z</time>
      </trkpt>
      <trkpt lat="50.4205457679927349090576171875" lon="11.814419925212860107421875">
        <ele>524.4000244140625</ele>
        <time>2018-08-17T16:24:01.000Z</time>
      </trkpt>
      <trkpt lat="50.420685745775699615478515625" lon="11.8144368566572666168212890625">
        <ele>525.5999755859375</ele>
        <time>2018-08-17T16:24:05.000Z</time>
      </trkpt>
      <trkpt lat="50.42085480876266956329345703125" lon="11.81450282223522663116455078125">
        <ele>526.5999755859375</ele>
        <time>2018-08-17T16:24:10.000Z</time>
      </trkpt>
      <trkpt lat="50.42099344544112682342529296875" lon="11.8145702965557575225830078125">
        <ele>527.79998779296875</ele>
        <time>2018-08-17T16:24:14.000Z</time>
      </trkpt>
      <trkpt lat="50.421130321919918060302734375" lon="11.8146323226392269134521484375">
        <ele>529</ele>
        <time>2018-08-17T16:24:18.000Z</time>
      </trkpt>
      <trkpt lat="50.42131908237934112548828125" lon="11.81471572257578372955322265625">
        <ele>530.20001220703125</ele>
        <time>2018-08-17T16:24:23.000Z</time>
      </trkpt>
      <trkpt lat="50.42148361913859844207763671875" lon="11.8147914111614227294921875">
        <ele>531.20001220703125</ele>
        <time>2018-08-17T16:24:27.000Z</time>
      </trkpt>
      <trkpt lat="50.42174949310719966888427734375" lon="11.81490004062652587890625">
        <ele>532.4000244140625</ele>
        <time>2018-08-17T16:24:33.000Z</time>
      </trkpt>
      <trkpt lat="50.4219368286430835723876953125" lon="11.814982853829860687255859375">
        <ele>533</ele>
        <time>2018-08-17T16:24:37.000Z</time>
      </trkpt>
      <trkpt lat="50.4224380664527416229248046875" lon="11.815366409718990325927734375">
        <ele>533.20001220703125</ele>
        <time>2018-08-17T16:24:47.000Z</time>
      </trkpt>
      <trkpt lat="50.42290518991649150848388671875" lon="11.8158088065683841705322265625">
        <ele>533</ele>
        <time>2018-08-17T16:24:56.000Z</time>
      </trkpt>
      <trkpt lat="50.42327533476054668426513671875" lon="11.81607015430927276611328125">
        <ele>533</ele>
        <time>2018-08-17T16:25:03.000Z</time>
      </trkpt>
      <trkpt lat="50.4238344915211200714111328125" lon="11.81609555147588253021240234375">
        <ele>533.20001220703125</ele>
        <time>2018-08-17T16:25:12.000Z</time>
      </trkpt>
      <trkpt lat="50.424387864768505096435546875" lon="11.81597971357405185699462890625">
        <ele>533.20001220703125</ele>
        <time>2018-08-17T16:25:20.000Z</time>
      </trkpt>
      <trkpt lat="50.42453597299754619598388671875" lon="11.81588281877338886260986328125">
        <ele>533.20001220703125</ele>
        <time>2018-08-17T16:25:22.000Z</time>
      </trkpt>
      <trkpt lat="50.4246844165027141571044921875" lon="11.8157135881483554840087890625">
        <ele>533.20001220703125</ele>
        <time>2018-08-17T16:25:24.000Z</time>
      </trkpt>
      <trkpt lat="50.4249234683811664581298828125" lon="11.8154163658618927001953125">
        <ele>533</ele>
        <time>2018-08-17T16:25:27.000Z</time>
      </trkpt>
      <trkpt lat="50.42531020939350128173828125" lon="11.81521360762417316436767578125">
        <ele>531.5999755859375</ele>
        <time>2018-08-17T16:25:31.000Z</time>
      </trkpt>
      <trkpt lat="50.425399057567119598388671875" lon="11.8151771463453769683837890625">
        <ele>531</ele>
        <time>2018-08-17T16:25:32.000Z</time>
      </trkpt>
      <trkpt lat="50.4254852235317230224609375" lon="11.81513515301048755645751953125">
        <ele>530.20001220703125</ele>
        <time>2018-08-17T16:25:33.000Z</time>
      </trkpt>
      <trkpt lat="50.42556091211736202239990234375" lon="11.81506742723286151885986328125">
        <ele>529.4000244140625</ele>
        <time>2018-08-17T16:25:34.000Z</time>
      </trkpt>
      <trkpt lat="50.42565755546092987060546875" lon="11.81483675725758075714111328125">
        <ele>527.79998779296875</ele>
        <time>2018-08-17T16:25:36.000Z</time>
      </trkpt>
      <trkpt lat="50.42566652409732341766357421875" lon="11.81455411948263645172119140625">
        <ele>526.79998779296875</ele>
        <time>2018-08-17T16:25:38.000Z</time>
      </trkpt>
      <trkpt lat="50.425653867423534393310546875" lon="11.8144132196903228759765625">
        <ele>526.4000244140625</ele>
        <time>2018-08-17T16:25:39.000Z</time>
      </trkpt>
      <trkpt lat="50.4256166517734527587890625" lon="11.813892535865306854248046875">
        <ele>525.5999755859375</ele>
        <time>2018-08-17T16:25:43.000Z</time>
      </trkpt>
      <trkpt lat="50.4256148077547550201416015625" lon="11.81368558667600154876708984375">
        <ele>524.5999755859375</ele>
        <time>2018-08-17T16:25:45.000Z</time>
      </trkpt>
      <trkpt lat="50.42562260292470455169677734375" lon="11.8136013485491275787353515625">
        <ele>524.4000244140625</ele>
        <time>2018-08-17T16:25:46.000Z</time>
      </trkpt>
      <trkpt lat="50.425593852996826171875" lon="11.81401164270937442779541015625">
        <ele>524</ele>
        <time>2018-08-17T16:25:59.000Z</time>
      </trkpt>
      <trkpt lat="50.42563098482787609100341796875" lon="11.81452796794474124908447265625">
        <ele>523.79998779296875</ele>
        <time>2018-08-17T16:26:05.000Z</time>
      </trkpt>
      <trkpt lat="50.42564389295876026153564453125" lon="11.8147811852395534515380859375">
        <ele>523.4000244140625</ele>
        <time>2018-08-17T16:26:08.000Z</time>
      </trkpt>
      <trkpt lat="50.4259762354195117950439453125" lon="11.81525216437876224517822265625">
        <ele>523.5999755859375</ele>
        <time>2018-08-17T16:26:19.000Z</time>
      </trkpt>
      <trkpt lat="50.4260181449353694915771484375" lon="11.81527010165154933929443359375">
        <ele>524</ele>
        <time>2018-08-17T16:26:20.000Z</time>
      </trkpt>
      <trkpt lat="50.42605913244187831878662109375" lon="11.81527731008827686309814453125">
        <ele>524.20001220703125</ele>
        <time>2018-08-17T16:26:21.000Z</time>
      </trkpt>
      <trkpt lat="50.42609919793903827667236328125" lon="11.81528552435338497161865234375">
        <ele>524.4000244140625</ele>
        <time>2018-08-17T16:26:22.000Z</time>
      </trkpt>
      <trkpt lat="50.4262447915971279144287109375" lon="11.8153193034231662750244140625">
        <ele>525.5999755859375</ele>
        <time>2018-08-17T16:26:26.000Z</time>
      </trkpt>
      <trkpt lat="50.4262639023363590240478515625" lon="11.815326511859893798828125">
        <ele>526</ele>
        <time>2018-08-17T16:26:28.000Z</time>
      </trkpt>
      <trkpt lat="50.42637127451598644256591796875" lon="11.81536138057708740234375">
        <ele>526.5999755859375</ele>
        <time>2018-08-17T16:26:31.000Z</time>
      </trkpt>
      <trkpt lat="50.426541678607463836669921875" lon="11.8154202215373516082763671875">
        <ele>527.79998779296875</ele>
        <time>2018-08-17T16:26:36.000Z</time>
      </trkpt>
      <trkpt lat="50.4266943968832492828369140625" lon="11.81544654071331024169921875">
        <ele>529</ele>
        <time>2018-08-17T16:26:41.000Z</time>
      </trkpt>
      <trkpt lat="50.42685943655669689178466796875" lon="11.8155218102037906646728515625">
        <ele>530</ele>
        <time>2018-08-17T16:26:47.000Z</time>
      </trkpt>
      <trkpt lat="50.42690553702414035797119140625" lon="11.815594732761383056640625">
        <ele>531.20001220703125</ele>
        <time>2018-08-17T16:26:50.000Z</time>
      </trkpt>
      <trkpt lat="50.42700578458607196807861328125" lon="11.81587561033666133880615234375">
        <ele>532.4000244140625</ele>
        <time>2018-08-17T16:26:55.000Z</time>
      </trkpt>
      <trkpt lat="50.42706026695668697357177734375" lon="11.8160649575293064117431640625">
        <ele>533.4000244140625</ele>
        <time>2018-08-17T16:26:59.000Z</time>
      </trkpt>
      <trkpt lat="50.42711759917438030242919921875" lon="11.81625363416969776153564453125">
        <ele>534.5999755859375</ele>
        <time>2018-08-17T16:27:03.000Z</time>
      </trkpt>
      <trkpt lat="50.4271647892892360687255859375" lon="11.8164270557463169097900390625">
        <ele>535.79998779296875</ele>
        <time>2018-08-17T16:27:07.000Z</time>
      </trkpt>
      <trkpt lat="50.4272152483463287353515625" lon="11.8166443146765232086181640625">
        <ele>537</ele>
        <time>2018-08-17T16:27:12.000Z</time>
      </trkpt>
      <trkpt lat="50.4272653721272945404052734375" lon="11.8168567121028900146484375">
        <ele>538</ele>
        <time>2018-08-17T16:27:17.000Z</time>
      </trkpt>
      <trkpt lat="50.42729965411126613616943359375" lon="11.8169856257736682891845703125">
        <ele>539</ele>
        <time>2018-08-17T16:27:20.000Z</time>
      </trkpt>
      <trkpt lat="50.42733100242912769317626953125" lon="11.8171572871506214141845703125">
        <ele>540.4000244140625</ele>
        <time>2018-08-17T16:27:24.000Z</time>
      </trkpt>
      <trkpt lat="50.42737291194498538970947265625" lon="11.817320398986339569091796875">
        <ele>541.4000244140625</ele>
        <time>2018-08-17T16:27:28.000Z</time>
      </trkpt>
      <trkpt lat="50.4274246282875537872314453125" lon="11.8175388313829898834228515625">
        <ele>542.4000244140625</ele>
        <time>2018-08-17T16:27:33.000Z</time>
      </trkpt>
      <trkpt lat="50.4274668730795383453369140625" lon="11.8177044577896595001220703125">
        <ele>543.4000244140625</ele>
        <time>2018-08-17T16:27:37.000Z</time>
      </trkpt>
      <trkpt lat="50.4275084473192691802978515625" lon="11.8178801424801349639892578125">
        <ele>544.4000244140625</ele>
        <time>2018-08-17T16:27:41.000Z</time>
      </trkpt>
      <trkpt lat="50.4275532066822052001953125" lon="11.818062029778957366943359375">
        <ele>545.79998779296875</ele>
        <time>2018-08-17T16:27:45.000Z</time>
      </trkpt>
      <trkpt lat="50.4275902546942234039306640625" lon="11.8181969784200191497802734375">
        <ele>546.79998779296875</ele>
        <time>2018-08-17T16:27:48.000Z</time>
      </trkpt>
      <trkpt lat="50.42763241566717624664306640625" lon="11.81837056763470172882080078125">
        <ele>548</ele>
        <time>2018-08-17T16:27:52.000Z</time>
      </trkpt>
      <trkpt lat="50.42767130769789218902587890625" lon="11.8185563944280147552490234375">
        <ele>549</ele>
        <time>2018-08-17T16:27:56.000Z</time>
      </trkpt>
      <trkpt lat="50.42770450003445148468017578125" lon="11.81873886846005916595458984375">
        <ele>550.20001220703125</ele>
        <time>2018-08-17T16:28:00.000Z</time>
      </trkpt>
      <trkpt lat="50.42773802764713764190673828125" lon="11.81890952400863170623779296875">
        <ele>551.20001220703125</ele>
        <time>2018-08-17T16:28:04.000Z</time>
      </trkpt>
      <trkpt lat="50.42778245173394680023193359375" lon="11.81907649151980876922607421875">
        <ele>552.4000244140625</ele>
        <time>2018-08-17T16:28:08.000Z</time>
      </trkpt>
      <trkpt lat="50.42781799100339412689208984375" lon="11.81924614124000072479248046875">
        <ele>553.4000244140625</ele>
        <time>2018-08-17T16:28:12.000Z</time>
      </trkpt>
      <trkpt lat="50.427853949368000030517578125" lon="11.8194110132753849029541015625">
        <ele>554.5999755859375</ele>
        <time>2018-08-17T16:28:16.000Z</time>
      </trkpt>
      <trkpt lat="50.4278911650180816650390625" lon="11.8195689283311367034912109375">
        <ele>555.79998779296875</ele>
        <time>2018-08-17T16:28:20.000Z</time>
      </trkpt>
      <trkpt lat="50.427930057048797607421875" lon="11.81974033825099468231201171875">
        <ele>556.79998779296875</ele>
        <time>2018-08-17T16:28:24.000Z</time>
      </trkpt>
      <trkpt lat="50.42797624133527278900146484375" lon="11.8199119158089160919189453125">
        <ele>558</ele>
        <time>2018-08-17T16:28:28.000Z</time>
      </trkpt>
      <trkpt lat="50.42801429517567157745361328125" lon="11.82008248753845691680908203125">
        <ele>559</ele>
        <time>2018-08-17T16:28:32.000Z</time>
      </trkpt>
      <trkpt lat="50.4280552826821804046630859375" lon="11.82025372982025146484375">
        <ele>560</ele>
        <time>2018-08-17T16:28:36.000Z</time>
      </trkpt>
      <trkpt lat="50.428090989589691162109375" lon="11.8204292468726634979248046875">
        <ele>561.20001220703125</ele>
        <time>2018-08-17T16:28:40.000Z</time>
      </trkpt>
      <trkpt lat="50.42812879197299480438232421875" lon="11.82061272673308849334716796875">
        <ele>562.20001220703125</ele>
        <time>2018-08-17T16:28:44.000Z</time>
      </trkpt>
      <trkpt lat="50.42815477587282657623291015625" lon="11.82075488381087779998779296875">
        <ele>563.4000244140625</ele>
        <time>2018-08-17T16:28:47.000Z</time>
      </trkpt>
      <trkpt lat="50.4282001219689846038818359375" lon="11.820984296500682830810546875">
        <ele>564.4000244140625</ele>
        <time>2018-08-17T16:28:52.000Z</time>
      </trkpt>
      <trkpt lat="50.42824161238968372344970703125" lon="11.82124220766127109527587890625">
        <ele>565.4000244140625</ele>
        <time>2018-08-17T16:28:57.000Z</time>
      </trkpt>
      <trkpt lat="50.4282658360898494720458984375" lon="11.82139165699481964111328125">
        <ele>566.4000244140625</ele>
        <time>2018-08-17T16:29:01.000Z</time>
      </trkpt>
      <trkpt lat="50.42831755243241786956787109375" lon="11.8216935731470584869384765625">
        <ele>567.79998779296875</ele>
        <time>2018-08-17T16:29:06.000Z</time>
      </trkpt>
      <trkpt lat="50.42835795320570468902587890625" lon="11.82198668830096721649169921875">
        <ele>569.20001220703125</ele>
        <time>2018-08-17T16:29:12.000Z</time>
      </trkpt>
      <trkpt lat="50.428377650678157806396484375" lon="11.8221746943891048431396484375">
        <ele>570.4000244140625</ele>
        <time>2018-08-17T16:29:16.000Z</time>
      </trkpt>
      <trkpt lat="50.4284079931676387786865234375" lon="11.82243847288191318511962890625">
        <ele>571.5999755859375</ele>
        <time>2018-08-17T16:29:21.000Z</time>
      </trkpt>
      <trkpt lat="50.4284455440938472747802734375" lon="11.82278749532997608184814453125">
        <ele>572.79998779296875</ele>
        <time>2018-08-17T16:29:27.000Z</time>
      </trkpt>
      <trkpt lat="50.428534559905529022216796875" lon="11.82353868149220943450927734375">
        <ele>574</ele>
        <time>2018-08-17T16:29:39.000Z</time>
      </trkpt>
      <trkpt lat="50.42864981107413768768310546875" lon="11.82441710494458675384521484375">
        <ele>574.20001220703125</ele>
        <time>2018-08-17T16:29:50.000Z</time>
      </trkpt>
      <trkpt lat="50.42879012413322925567626953125" lon="11.82504608295857906341552734375">
        <ele>573.79998779296875</ele>
        <time>2018-08-17T16:29:57.000Z</time>
      </trkpt>
      <trkpt lat="50.42900319211184978485107421875" lon="11.82524154894053936004638671875">
        <ele>573</ele>
        <time>2018-08-17T16:30:02.000Z</time>
      </trkpt>
      <trkpt lat="50.42905197478830814361572265625" lon="11.8252562172710895538330078125">
        <ele>572.79998779296875</ele>
        <time>2018-08-17T16:30:03.000Z</time>
      </trkpt>
      <trkpt lat="50.4291499592363834381103515625" lon="11.8252694606781005859375">
        <ele>572.4000244140625</ele>
        <time>2018-08-17T16:30:05.000Z</time>
      </trkpt>
      <trkpt lat="50.4297244548797607421875" lon="11.82516896165907382965087890625">
        <ele>572</ele>
        <time>2018-08-17T16:30:17.000Z</time>
      </trkpt>
      <trkpt lat="50.43026751838624477386474609375" lon="11.8250892497599124908447265625">
        <ele>573</ele>
        <time>2018-08-17T16:30:29.000Z</time>
      </trkpt>
      <trkpt lat="50.43040380813181400299072265625" lon="11.825082041323184967041015625">
        <ele>573.20001220703125</ele>
        <time>2018-08-17T16:30:32.000Z</time>
      </trkpt>
      <trkpt lat="50.43059491552412509918212890625" lon="11.8250637687742710113525390625">
        <ele>573.79998779296875</ele>
        <time>2018-08-17T16:30:36.000Z</time>
      </trkpt>
      <trkpt lat="50.43114812113344669342041015625" lon="11.82500618509948253631591796875">
        <ele>574.20001220703125</ele>
        <time>2018-08-17T16:30:46.000Z</time>
      </trkpt>
      <trkpt lat="50.43169043026864528656005859375" lon="11.82495203800499439239501953125">
        <ele>573.79998779296875</ele>
        <time>2018-08-17T16:30:54.000Z</time>
      </trkpt>
      <trkpt lat="50.43228588066995143890380859375" lon="11.824885904788970947265625">
        <ele>572.5999755859375</ele>
        <time>2018-08-17T16:31:02.000Z</time>
      </trkpt>
      <trkpt lat="50.4327350668609142303466796875" lon="11.8248384632170200347900390625">
        <ele>571.5999755859375</ele>
        <time>2018-08-17T16:31:08.000Z</time>
      </trkpt>
      <trkpt lat="50.433316938579082489013671875" lon="11.824815832078456878662109375">
        <ele>571.20001220703125</ele>
        <time>2018-08-17T16:31:16.000Z</time>
      </trkpt>
      <trkpt lat="50.433884225785732269287109375" lon="11.8248810432851314544677734375">
        <ele>571.20001220703125</ele>
        <time>2018-08-17T16:31:24.000Z</time>
      </trkpt>
      <trkpt lat="50.4344815202057361602783203125" lon="11.8249460868537425994873046875">
        <ele>572</ele>
        <time>2018-08-17T16:31:33.000Z</time>
      </trkpt>
      <trkpt lat="50.43473205529153347015380859375" lon="11.82497500441968441009521484375">
        <ele>572.5999755859375</ele>
        <time>2018-08-17T16:31:37.000Z</time>
      </trkpt>
      <trkpt lat="50.4351009428501129150390625" lon="11.82501808740198612213134765625">
        <ele>573.79998779296875</ele>
        <time>2018-08-17T16:31:43.000Z</time>
      </trkpt>
      <trkpt lat="50.4355366341769695281982421875" lon="11.82506603188812732696533203125">
        <ele>574.79998779296875</ele>
        <time>2018-08-17T16:31:50.000Z</time>
      </trkpt>
      <trkpt lat="50.43611557222902774810791015625" lon="11.82513241656124591827392578125">
        <ele>575.79998779296875</ele>
        <time>2018-08-17T16:31:59.000Z</time>
      </trkpt>
      <trkpt lat="50.43670347891747951507568359375" lon="11.82519963942468166351318359375">
        <ele>576.5999755859375</ele>
        <time>2018-08-17T16:32:08.000Z</time>
      </trkpt>
      <trkpt lat="50.43689860962331295013427734375" lon="11.82522428222000598907470703125">
        <ele>576.79998779296875</ele>
        <time>2018-08-17T16:32:11.000Z</time>
      </trkpt>
      <trkpt lat="50.4374597780406475067138671875" lon="11.82528781704604625701904296875">
        <ele>577.79998779296875</ele>
        <time>2018-08-17T16:32:20.000Z</time>
      </trkpt>
      <trkpt lat="50.43752104975283145904541015625" lon="11.825295276939868927001953125">
        <ele>578</ele>
        <time>2018-08-17T16:32:21.000Z</time>
      </trkpt>
      <trkpt lat="50.43806034140288829803466796875" lon="11.82536275126039981842041015625">
        <ele>579</ele>
        <time>2018-08-17T16:32:30.000Z</time>
      </trkpt>
      <trkpt lat="50.4381179250776767730712890625" lon="11.82537431828677654266357421875">
        <ele>579.20001220703125</ele>
        <time>2018-08-17T16:32:31.000Z</time>
      </trkpt>
      <trkpt lat="50.43840031139552593231201171875" lon="11.8254345841705799102783203125">
        <ele>580.4000244140625</ele>
        <time>2018-08-17T16:32:36.000Z</time>
      </trkpt>
      <trkpt lat="50.438619665801525115966796875" lon="11.825465597212314605712890625">
        <ele>581.4000244140625</ele>
        <time>2018-08-17T16:32:40.000Z</time>
      </trkpt>
      <trkpt lat="50.43899710290133953094482421875" lon="11.8255076743662357330322265625">
        <ele>582.4000244140625</ele>
        <time>2018-08-17T16:32:47.000Z</time>
      </trkpt>
      <trkpt lat="50.4392528347671031951904296875" lon="11.82553005404770374298095703125">
        <ele>583.4000244140625</ele>
        <time>2018-08-17T16:32:52.000Z</time>
      </trkpt>
      <trkpt lat="50.43950018472969532012939453125" lon="11.825546063482761383056640625">
        <ele>584.4000244140625</ele>
        <time>2018-08-17T16:32:57.000Z</time>
      </trkpt>
      <trkpt lat="50.43974694795906543731689453125" lon="11.8255589716136455535888671875">
        <ele>585.5999755859375</ele>
        <time>2018-08-17T16:33:02.000Z</time>
      </trkpt>
      <trkpt lat="50.439898073673248291015625" lon="11.825593672692775726318359375">
        <ele>586.4000244140625</ele>
        <time>2018-08-17T16:33:05.000Z</time>
      </trkpt>
      <trkpt lat="50.43999521993100643157958984375" lon="11.8256328999996185302734375">
        <ele>587.20001220703125</ele>
        <time>2018-08-17T16:33:07.000Z</time>
      </trkpt>
      <trkpt lat="50.44024248607456684112548828125" lon="11.82572786696255207061767578125">
        <ele>588.20001220703125</ele>
        <time>2018-08-17T16:33:12.000Z</time>
      </trkpt>
      <trkpt lat="50.44048354960978031158447265625" lon="11.82583414949476718902587890625">
        <ele>589.4000244140625</ele>
        <time>2018-08-17T16:33:17.000Z</time>
      </trkpt>
      <trkpt lat="50.4407733120024204254150390625" lon="11.82595417834818363189697265625">
        <ele>590.5999755859375</ele>
        <time>2018-08-17T16:33:23.000Z</time>
      </trkpt>
      <trkpt lat="50.4410177282989025115966796875" lon="11.82605492882430553436279296875">
        <ele>591.5999755859375</ele>
        <time>2018-08-17T16:33:28.000Z</time>
      </trkpt>
      <trkpt lat="50.44131251983344554901123046875" lon="11.82617177255451679229736328125">
        <ele>592.5999755859375</ele>
        <time>2018-08-17T16:33:34.000Z</time>
      </trkpt>
      <trkpt lat="50.44150270521640777587890625" lon="11.82624704204499721527099609375">
        <ele>594</ele>
        <time>2018-08-17T16:33:38.000Z</time>
      </trkpt>
      <trkpt lat="50.44174821116030216217041015625" lon="11.82634569704532623291015625">
        <ele>595</ele>
        <time>2018-08-17T16:33:43.000Z</time>
      </trkpt>
      <trkpt lat="50.4420047812163829803466796875" lon="11.82644703425467014312744140625">
        <ele>596</ele>
        <time>2018-08-17T16:33:48.000Z</time>
      </trkpt>
      <trkpt lat="50.44253577478229999542236328125" lon="11.826664544641971588134765625">
        <ele>597</ele>
        <time>2018-08-17T16:33:58.000Z</time>
      </trkpt>
      <trkpt lat="50.4425896704196929931640625" lon="11.82668709196150302886962890625">
        <ele>597.20001220703125</ele>
        <time>2018-08-17T16:33:59.000Z</time>
      </trkpt>
      <trkpt lat="50.44292737729847431182861328125" lon="11.82682321406900882720947265625">
        <ele>598.20001220703125</ele>
        <time>2018-08-17T16:34:05.000Z</time>
      </trkpt>
      <trkpt lat="50.44347220100462436676025390625" lon="11.827044077217578887939453125">
        <ele>598.5999755859375</ele>
        <time>2018-08-17T16:34:14.000Z</time>
      </trkpt>
      <trkpt lat="50.44402875937521457672119140625" lon="11.8273124657571315765380859375">
        <ele>598.79998779296875</ele>
        <time>2018-08-17T16:34:24.000Z</time>
      </trkpt>
      <trkpt lat="50.44407016597688198089599609375" lon="11.82734020985662937164306640625">
        <ele>599</ele>
        <time>2018-08-17T16:34:25.000Z</time>
      </trkpt>
      <trkpt lat="50.4446028359234333038330078125" lon="11.82771018706262111663818359375">
        <ele>599.5999755859375</ele>
        <time>2018-08-17T16:34:38.000Z</time>
      </trkpt>
      <trkpt lat="50.444822609424591064453125" lon="11.8278780765831470489501953125">
        <ele>599.79998779296875</ele>
        <time>2018-08-17T16:34:42.000Z</time>
      </trkpt>
      <trkpt lat="50.44533164240419864654541015625" lon="11.828251071274280548095703125">
        <ele>600.4000244140625</ele>
        <time>2018-08-17T16:34:51.000Z</time>
      </trkpt>
      <trkpt lat="50.4458673298358917236328125" lon="11.828648708760738372802734375">
        <ele>600.5999755859375</ele>
        <time>2018-08-17T16:35:00.000Z</time>
      </trkpt>
      <trkpt lat="50.446043349802494049072265625" lon="11.82880167849361896514892578125">
        <ele>601</ele>
        <time>2018-08-17T16:35:03.000Z</time>
      </trkpt>
      <trkpt lat="50.44609322212636470794677734375" lon="11.828862614929676055908203125">
        <ele>601</ele>
        <time>2018-08-17T16:35:04.000Z</time>
      </trkpt>
      <trkpt lat="50.44619581662118434906005859375" lon="11.8289910256862640380859375">
        <ele>601.20001220703125</ele>
        <time>2018-08-17T16:35:06.000Z</time>
      </trkpt>
      <trkpt lat="50.44662228785455226898193359375" lon="11.82953693903982639312744140625">
        <ele>601.5999755859375</ele>
        <time>2018-08-17T16:35:14.000Z</time>
      </trkpt>
      <trkpt lat="50.44705412350594997406005859375" lon="11.83009500615298748016357421875">
        <ele>601.5999755859375</ele>
        <time>2018-08-17T16:35:21.000Z</time>
      </trkpt>
      <trkpt lat="50.4475140385329723358154296875" lon="11.8306942284107208251953125">
        <ele>600.4000244140625</ele>
        <time>2018-08-17T16:35:28.000Z</time>
      </trkpt>
      <trkpt lat="50.447975881397724151611328125" lon="11.83128909207880496978759765625">
        <ele>599.4000244140625</ele>
        <time>2018-08-17T16:35:35.000Z</time>
      </trkpt>
      <trkpt lat="50.4481740295886993408203125" lon="11.831532754004001617431640625">
        <ele>599</ele>
        <time>2018-08-17T16:35:38.000Z</time>
      </trkpt>
      <trkpt lat="50.4485228843986988067626953125" lon="11.83197028934955596923828125">
        <ele>598.4000244140625</ele>
        <time>2018-08-17T16:35:43.000Z</time>
      </trkpt>
      <trkpt lat="50.44898279942572116851806640625" lon="11.8325444497168064117431640625">
        <ele>597.20001220703125</ele>
        <time>2018-08-17T16:35:50.000Z</time>
      </trkpt>
      <trkpt lat="50.44927583076059818267822265625" lon="11.8329196237027645111083984375">
        <ele>597.20001220703125</ele>
        <time>2018-08-17T16:35:56.000Z</time>
      </trkpt>
      <trkpt lat="50.4493547044694423675537109375" lon="11.833021380007266998291015625">
        <ele>597.20001220703125</ele>
        <time>2018-08-17T16:35:58.000Z</time>
      </trkpt>
      <trkpt lat="50.44963725842535495758056640625" lon="11.83326772414147853851318359375">
        <ele>597.4000244140625</ele>
        <time>2018-08-17T16:36:04.000Z</time>
      </trkpt>
      <trkpt lat="50.4498951695859432220458984375" lon="11.8333709053695201873779296875">
        <ele>597.79998779296875</ele>
        <time>2018-08-17T16:36:09.000Z</time>
      </trkpt>
      <trkpt lat="50.45021527446806430816650390625" lon="11.8334832228720188140869140625">
        <ele>599</ele>
        <time>2018-08-17T16:36:15.000Z</time>
      </trkpt>
      <trkpt lat="50.45053730718791484832763671875" lon="11.83358606882393360137939453125">
        <ele>600</ele>
        <time>2018-08-17T16:36:21.000Z</time>
      </trkpt>
      <trkpt lat="50.451002418994903564453125" lon="11.8337326683104038238525390625">
        <ele>601.20001220703125</ele>
        <time>2018-08-17T16:36:28.000Z</time>
      </trkpt>
      <trkpt lat="50.451600216329097747802734375" lon="11.83397666551172733306884765625">
        <ele>601.20001220703125</ele>
        <time>2018-08-17T16:36:35.000Z</time>
      </trkpt>
      <trkpt lat="50.45190858654677867889404296875" lon="11.83422829024493694305419921875">
        <ele>600</ele>
        <time>2018-08-17T16:36:39.000Z</time>
      </trkpt>
      <trkpt lat="50.4521455429494380950927734375" lon="11.83452987112104892730712890625">
        <ele>598.79998779296875</ele>
        <time>2018-08-17T16:36:43.000Z</time>
      </trkpt>
      <trkpt lat="50.45255918987095355987548828125" lon="11.83509640395641326904296875">
        <ele>598.5999755859375</ele>
        <time>2018-08-17T16:36:51.000Z</time>
      </trkpt>
      <trkpt lat="50.45298096723854541778564453125" lon="11.835651956498622894287109375">
        <ele>599.5999755859375</ele>
        <time>2018-08-17T16:37:00.000Z</time>
      </trkpt>
      <trkpt lat="50.45312413014471530914306640625" lon="11.835813559591770172119140625">
        <ele>600.20001220703125</ele>
        <time>2018-08-17T16:37:03.000Z</time>
      </trkpt>
      <trkpt lat="50.45335832051932811737060546875" lon="11.835898719727993011474609375">
        <ele>600.79998779296875</ele>
        <time>2018-08-17T16:37:08.000Z</time>
      </trkpt>
      <trkpt lat="50.45348807238042354583740234375" lon="11.83587290346622467041015625">
        <ele>601</ele>
        <time>2018-08-17T16:37:09.000Z</time>
      </trkpt>
      <trkpt lat="50.45355328358709812164306640625" lon="11.83585253544151782989501953125">
        <ele>601.20001220703125</ele>
        <time>2018-08-17T16:37:10.000Z</time>
      </trkpt>
      <trkpt lat="50.45408955775201320648193359375" lon="11.83565237559378147125244140625">
        <ele>601.4000244140625</ele>
        <time>2018-08-17T16:37:18.000Z</time>
      </trkpt>
      <trkpt lat="50.45463555492460727691650390625" lon="11.83536328375339508056640625">
        <ele>601.4000244140625</ele>
        <time>2018-08-17T16:37:26.000Z</time>
      </trkpt>
      <trkpt lat="50.45515238307416439056396484375" lon="11.83503613807260990142822265625">
        <ele>600.5999755859375</ele>
        <time>2018-08-17T16:37:33.000Z</time>
      </trkpt>
      <trkpt lat="50.45536628924310207366943359375" lon="11.83491996489465236663818359375">
        <ele>600</ele>
        <time>2018-08-17T16:37:36.000Z</time>
      </trkpt>
      <trkpt lat="50.45560165308415889739990234375" lon="11.83477160520851612091064453125">
        <ele>598.79998779296875</ele>
        <time>2018-08-17T16:37:40.000Z</time>
      </trkpt>
      <trkpt lat="50.45565663836896419525146484375" lon="11.8347324617207050323486328125">
        <ele>598.5999755859375</ele>
        <time>2018-08-17T16:37:41.000Z</time>
      </trkpt>
      <trkpt lat="50.45618553645908832550048828125" lon="11.8344226665794849395751953125">
        <ele>598</ele>
        <time>2018-08-17T16:37:49.000Z</time>
      </trkpt>
      <trkpt lat="50.45640178956091403961181640625" lon="11.8342932499945163726806640625">
        <ele>597.79998779296875</ele>
        <time>2018-08-17T16:37:52.000Z</time>
      </trkpt>
      <trkpt lat="50.45683513395488262176513671875" lon="11.8340340815484523773193359375">
        <ele>596.5999755859375</ele>
        <time>2018-08-17T16:37:58.000Z</time>
      </trkpt>
      <trkpt lat="50.45736872591078281402587890625" lon="11.83383836410939693450927734375">
        <ele>596.4000244140625</ele>
        <time>2018-08-17T16:38:05.000Z</time>
      </trkpt>
      <trkpt lat="50.45792964287102222442626953125" lon="11.8338111229240894317626953125">
        <ele>596</ele>
        <time>2018-08-17T16:38:12.000Z</time>
      </trkpt>
      <trkpt lat="50.45848201029002666473388671875" lon="11.83390927501022815704345703125">
        <ele>595.79998779296875</ele>
        <time>2018-08-17T16:38:19.000Z</time>
      </trkpt>
      <trkpt lat="50.459003783762454986572265625" lon="11.83423633687198162078857421875">
        <ele>595.5999755859375</ele>
        <time>2018-08-17T16:38:26.000Z</time>
      </trkpt>
      <trkpt lat="50.4590716771781444549560546875" lon="11.834298782050609588623046875">
        <ele>595.5999755859375</ele>
        <time>2018-08-17T16:38:27.000Z</time>
      </trkpt>
      <trkpt lat="50.4595343582332134246826171875" lon="11.83478468097746372222900390625">
        <ele>595.5999755859375</ele>
        <time>2018-08-17T16:38:35.000Z</time>
      </trkpt>
      <trkpt lat="50.46000533737242221832275390625" lon="11.83529279194772243499755859375">
        <ele>596.4000244140625</ele>
        <time>2018-08-17T16:38:45.000Z</time>
      </trkpt>
      <trkpt lat="50.46004925854504108428955078125" lon="11.8353399820625782012939453125">
        <ele>596.5999755859375</ele>
        <time>2018-08-17T16:38:46.000Z</time>
      </trkpt>
      <trkpt lat="50.4602659307420253753662109375" lon="11.835576854646205902099609375">
        <ele>597.79998779296875</ele>
        <time>2018-08-17T16:38:51.000Z</time>
      </trkpt>
      <trkpt lat="50.4604483209550380706787109375" lon="11.83577458374202251434326171875">
        <ele>598.79998779296875</ele>
        <time>2018-08-17T16:38:55.000Z</time>
      </trkpt>
      <trkpt lat="50.460745878517627716064453125" lon="11.83609359897673130035400390625">
        <ele>600</ele>
        <time>2018-08-17T16:39:01.000Z</time>
      </trkpt>
      <trkpt lat="50.46119414269924163818359375" lon="11.8365157954394817352294921875">
        <ele>601</ele>
        <time>2018-08-17T16:39:09.000Z</time>
      </trkpt>
      <trkpt lat="50.4616972245275974273681640625" lon="11.8368493951857089996337890625">
        <ele>601.20001220703125</ele>
        <time>2018-08-17T16:39:17.000Z</time>
      </trkpt>
      <trkpt lat="50.4622475802898406982421875" lon="11.8371999263763427734375">
        <ele>601.4000244140625</ele>
        <time>2018-08-17T16:39:26.000Z</time>
      </trkpt>
      <trkpt lat="50.46279215253889560699462890625" lon="11.8375343643128871917724609375">
        <ele>601.20001220703125</ele>
        <time>2018-08-17T16:39:34.000Z</time>
      </trkpt>
      <trkpt lat="50.463357679545879364013671875" lon="11.8378927744925022125244140625">
        <ele>600.4000244140625</ele>
        <time>2018-08-17T16:39:42.000Z</time>
      </trkpt>
      <trkpt lat="50.46385011635720729827880859375" lon="11.838210113346576690673828125">
        <ele>599.79998779296875</ele>
        <time>2018-08-17T16:39:49.000Z</time>
      </trkpt>
      <trkpt lat="50.46435470692813396453857421875" lon="11.83855050243437290191650390625">
        <ele>599.4000244140625</ele>
        <time>2018-08-17T16:39:56.000Z</time>
      </trkpt>
      <trkpt lat="50.46487052924931049346923828125" lon="11.8388603813946247100830078125">
        <ele>599</ele>
        <time>2018-08-17T16:40:03.000Z</time>
      </trkpt>
      <trkpt lat="50.46501335687935352325439453125" lon="11.83894478715956211090087890625">
        <ele>598.79998779296875</ele>
        <time>2018-08-17T16:40:05.000Z</time>
      </trkpt>
      <trkpt lat="50.465579889714717864990234375" lon="11.83923429809510707855224609375">
        <ele>598.5999755859375</ele>
        <time>2018-08-17T16:40:13.000Z</time>
      </trkpt>
      <trkpt lat="50.46612412668764591217041015625" lon="11.83946169912815093994140625">
        <ele>599</ele>
        <time>2018-08-17T16:40:21.000Z</time>
      </trkpt>
      <trkpt lat="50.4666184075176715850830078125" lon="11.83968272991478443145751953125">
        <ele>599.79998779296875</ele>
        <time>2018-08-17T16:40:29.000Z</time>
      </trkpt>
      <trkpt lat="50.4669892229139804840087890625" lon="11.8398397229611873626708984375">
        <ele>600.5999755859375</ele>
        <time>2018-08-17T16:40:35.000Z</time>
      </trkpt>
      <trkpt lat="50.4672946594655513763427734375" lon="11.83998431079089641571044921875">
        <ele>601.5999755859375</ele>
        <time>2018-08-17T16:40:40.000Z</time>
      </trkpt>
      <trkpt lat="50.46786538325250148773193359375" lon="11.84023861773312091827392578125">
        <ele>602.5999755859375</ele>
        <time>2018-08-17T16:40:49.000Z</time>
      </trkpt>
      <trkpt lat="50.46843342483043670654296875" lon="11.8404727242887020111083984375">
        <ele>603.4000244140625</ele>
        <time>2018-08-17T16:40:58.000Z</time>
      </trkpt>
      <trkpt lat="50.4686166532337665557861328125" lon="11.84055763296782970428466796875">
        <ele>603.79998779296875</ele>
        <time>2018-08-17T16:41:01.000Z</time>
      </trkpt>
      <trkpt lat="50.4691785760223865509033203125" lon="11.84080791659653186798095703125">
        <ele>604</ele>
        <time>2018-08-17T16:41:10.000Z</time>
      </trkpt>
      <trkpt lat="50.4695993475615978240966796875" lon="11.8410041369497776031494140625">
        <ele>604.5999755859375</ele>
        <time>2018-08-17T16:41:17.000Z</time>
      </trkpt>
      <trkpt lat="50.46969196759164333343505859375" lon="11.84110186994075775146484375">
        <ele>604.79998779296875</ele>
        <time>2018-08-17T16:41:19.000Z</time>
      </trkpt>
      <trkpt lat="50.4697679914534091949462890625" lon="11.84119935147464275360107421875">
        <ele>604.79998779296875</ele>
        <time>2018-08-17T16:41:21.000Z</time>
      </trkpt>
      <trkpt lat="50.47008692286908626556396484375" lon="11.8412539176642894744873046875">
        <ele>605.5999755859375</ele>
        <time>2018-08-17T16:41:28.000Z</time>
      </trkpt>
      <trkpt lat="50.47014039941132068634033203125" lon="11.84123153798282146453857421875">
        <ele>605.79998779296875</ele>
        <time>2018-08-17T16:41:29.000Z</time>
      </trkpt>
      <trkpt lat="50.470194630324840545654296875" lon="11.8412086553871631622314453125">
        <ele>606.20001220703125</ele>
        <time>2018-08-17T16:41:30.000Z</time>
      </trkpt>
      <trkpt lat="50.4704315029084682464599609375" lon="11.84110513888299465179443359375">
        <ele>607</ele>
        <time>2018-08-17T16:41:34.000Z</time>
      </trkpt>
      <trkpt lat="50.4709562100470066070556640625" lon="11.8408378399908542633056640625">
        <ele>607.5999755859375</ele>
        <time>2018-08-17T16:41:43.000Z</time>
      </trkpt>
      <trkpt lat="50.471214540302753448486328125" lon="11.84071102179586887359619140625">
        <ele>608</ele>
        <time>2018-08-17T16:41:48.000Z</time>
      </trkpt>
      <trkpt lat="50.4712663404643535614013671875" lon="11.84068554081022739410400390625">
        <ele>608</ele>
        <time>2018-08-17T16:41:49.000Z</time>
      </trkpt>
      <trkpt lat="50.47164495103061199188232421875" lon="11.84050365351140499114990234375">
        <ele>608.79998779296875</ele>
        <time>2018-08-17T16:41:56.000Z</time>
      </trkpt>
      <trkpt lat="50.47199078835546970367431640625" lon="11.84030382893979549407958984375">
        <ele>610</ele>
        <time>2018-08-17T16:42:03.000Z</time>
      </trkpt>
      <trkpt lat="50.47217166982591152191162109375" lon="11.84022939763963222503662109375">
        <ele>611</ele>
        <time>2018-08-17T16:42:07.000Z</time>
      </trkpt>
      <trkpt lat="50.4723472706973552703857421875" lon="11.8401216901838779449462890625">
        <ele>612.20001220703125</ele>
        <time>2018-08-17T16:42:11.000Z</time>
      </trkpt>
      <trkpt lat="50.4723908565938472747802734375" lon="11.84010182507336139678955078125">
        <ele>612.4000244140625</ele>
        <time>2018-08-17T16:42:12.000Z</time>
      </trkpt>
      <trkpt lat="50.4725246317684650421142578125" lon="11.8400365300476551055908203125">
        <ele>613.20001220703125</ele>
        <time>2018-08-17T16:42:15.000Z</time>
      </trkpt>
      <trkpt lat="50.47275421209633350372314453125" lon="11.83990694582462310791015625">
        <ele>614</ele>
        <time>2018-08-17T16:42:20.000Z</time>
      </trkpt>
      <trkpt lat="50.4729356802999973297119140625" lon="11.83981533162295818328857421875">
        <ele>615</ele>
        <time>2018-08-17T16:42:24.000Z</time>
      </trkpt>
      <trkpt lat="50.47317112796008586883544921875" lon="11.83969396166503429412841796875">
        <ele>616.20001220703125</ele>
        <time>2018-08-17T16:42:29.000Z</time>
      </trkpt>
      <trkpt lat="50.47336659394204616546630859375" lon="11.83959421701729297637939453125">
        <ele>617.20001220703125</ele>
        <time>2018-08-17T16:42:33.000Z</time>
      </trkpt>
      <trkpt lat="50.47356558032333850860595703125" lon="11.8394833244383335113525390625">
        <ele>618.5999755859375</ele>
        <time>2018-08-17T16:42:37.000Z</time>
      </trkpt>
      <trkpt lat="50.47366633079946041107177734375" lon="11.83942741714417934417724609375">
        <ele>619</ele>
        <time>2018-08-17T16:42:39.000Z</time>
      </trkpt>
      <trkpt lat="50.47381385229527950286865234375" lon="11.83933538384735584259033203125">
        <ele>619.79998779296875</ele>
        <time>2018-08-17T16:42:42.000Z</time>
      </trkpt>
      <trkpt lat="50.474118702113628387451171875" lon="11.839154250919818878173828125">
        <ele>620.79998779296875</ele>
        <time>2018-08-17T16:42:48.000Z</time>
      </trkpt>
      <trkpt lat="50.47449362464249134063720703125" lon="11.83893732726573944091796875">
        <ele>621.79998779296875</ele>
        <time>2018-08-17T16:42:55.000Z</time>
      </trkpt>
      <trkpt lat="50.475042052567005157470703125" lon="11.838743202388286590576171875">
        <ele>622.20001220703125</ele>
        <time>2018-08-17T16:43:04.000Z</time>
      </trkpt>
      <trkpt lat="50.47564529813826084136962890625" lon="11.83865695260465145111083984375">
        <ele>622.4000244140625</ele>
        <time>2018-08-17T16:43:13.000Z</time>
      </trkpt>
      <trkpt lat="50.47624292783439159393310546875" lon="11.838565170764923095703125">
        <ele>622.20001220703125</ele>
        <time>2018-08-17T16:43:21.000Z</time>
      </trkpt>
      <trkpt lat="50.476782806217670440673828125" lon="11.8384815193712711334228515625">
        <ele>622</ele>
        <time>2018-08-17T16:43:28.000Z</time>
      </trkpt>
      <trkpt lat="50.47735311090946197509765625" lon="11.83838747441768646240234375">
        <ele>621.5999755859375</ele>
        <time>2018-08-17T16:43:35.000Z</time>
      </trkpt>
      <trkpt lat="50.47793783247470855712890625" lon="11.8382870592176914215087890625">
        <ele>621.20001220703125</ele>
        <time>2018-08-17T16:43:42.000Z</time>
      </trkpt>
      <trkpt lat="50.4785371385514736175537109375" lon="11.83819242753088474273681640625">
        <ele>620.79998779296875</ele>
        <time>2018-08-17T16:43:49.000Z</time>
      </trkpt>
      <trkpt lat="50.47912177629768848419189453125" lon="11.838102154433727264404296875">
        <ele>620.5999755859375</ele>
        <time>2018-08-17T16:43:56.000Z</time>
      </trkpt>
      <trkpt lat="50.47937490977346897125244140625" lon="11.8380604125559329986572265625">
        <ele>620.4000244140625</ele>
        <time>2018-08-17T16:43:59.000Z</time>
      </trkpt>
      <trkpt lat="50.47996499575674533843994140625" lon="11.8379630148410797119140625">
        <ele>620</ele>
        <time>2018-08-17T16:44:06.000Z</time>
      </trkpt>
      <trkpt lat="50.4805585183203220367431640625" lon="11.83786503039300441741943359375">
        <ele>620</ele>
        <time>2018-08-17T16:44:13.000Z</time>
      </trkpt>
      <trkpt lat="50.48116142861545085906982421875" lon="11.83775908313691616058349609375">
        <ele>619.4000244140625</ele>
        <time>2018-08-17T16:44:20.000Z</time>
      </trkpt>
      <trkpt lat="50.4813413880765438079833984375" lon="11.8377231247723102569580078125">
        <ele>619.4000244140625</ele>
        <time>2018-08-17T16:44:22.000Z</time>
      </trkpt>
      <trkpt lat="50.48190490342676639556884765625" lon="11.837544254958629608154296875">
        <ele>619.20001220703125</ele>
        <time>2018-08-17T16:44:28.000Z</time>
      </trkpt>
      <trkpt lat="50.48243145458400249481201171875" lon="11.83730176649987697601318359375">
        <ele>618</ele>
        <time>2018-08-17T16:44:33.000Z</time>
      </trkpt>
      <trkpt lat="50.482782907783985137939453125" lon="11.83712507598102092742919921875">
        <ele>616.79998779296875</ele>
        <time>2018-08-17T16:44:36.000Z</time>
      </trkpt>
      <trkpt lat="50.48303067684173583984375" lon="11.83700923807919025421142578125">
        <ele>615.79998779296875</ele>
        <time>2018-08-17T16:44:38.000Z</time>
      </trkpt>
      <trkpt lat="50.48328540287911891937255859375" lon="11.8369161151349544525146484375">
        <ele>614.79998779296875</ele>
        <time>2018-08-17T16:44:40.000Z</time>
      </trkpt>
      <trkpt lat="50.4835515283048152923583984375" lon="11.83685325086116790771484375">
        <ele>613.5999755859375</ele>
        <time>2018-08-17T16:44:42.000Z</time>
      </trkpt>
      <trkpt lat="50.48382402397692203521728515625" lon="11.83681511320173740386962890625">
        <ele>612.20001220703125</ele>
        <time>2018-08-17T16:44:44.000Z</time>
      </trkpt>
      <trkpt lat="50.4840983636677265167236328125" lon="11.8368145264685153961181640625">
        <ele>610.4000244140625</ele>
        <time>2018-08-17T16:44:46.000Z</time>
      </trkpt>
      <trkpt lat="50.48437379300594329833984375" lon="11.8368470482528209686279296875">
        <ele>608.4000244140625</ele>
        <time>2018-08-17T16:44:48.000Z</time>
      </trkpt>
      <trkpt lat="50.484647043049335479736328125" lon="11.8369080685079097747802734375">
        <ele>606.5999755859375</ele>
        <time>2018-08-17T16:44:50.000Z</time>
      </trkpt>
      <trkpt lat="50.48490931279957294464111328125" lon="11.83698602020740509033203125">
        <ele>604.79998779296875</ele>
        <time>2018-08-17T16:44:52.000Z</time>
      </trkpt>
      <trkpt lat="50.485163033008575439453125" lon="11.83706204406917095184326171875">
        <ele>602.79998779296875</ele>
        <time>2018-08-17T16:44:54.000Z</time>
      </trkpt>
      <trkpt lat="50.4854099638760089874267578125" lon="11.837127842009067535400390625">
        <ele>601.20001220703125</ele>
        <time>2018-08-17T16:44:56.000Z</time>
      </trkpt>
      <trkpt lat="50.4856543801724910736083984375" lon="11.83718173764646053314208984375">
        <ele>599.5999755859375</ele>
        <time>2018-08-17T16:44:58.000Z</time>
      </trkpt>
      <trkpt lat="50.4858967848122119903564453125" lon="11.837210990488529205322265625">
        <ele>598.4000244140625</ele>
        <time>2018-08-17T16:45:00.000Z</time>
      </trkpt>
      <trkpt lat="50.48613625578582286834716796875" lon="11.83722876012325286865234375">
        <ele>596.79998779296875</ele>
        <time>2018-08-17T16:45:02.000Z</time>
      </trkpt>
      <trkpt lat="50.48670957796275615692138671875" lon="11.83723948895931243896484375">
        <ele>595.79998779296875</ele>
        <time>2018-08-17T16:45:07.000Z</time>
      </trkpt>
      <trkpt lat="50.48681938089430332183837890625" lon="11.83724208734929561614990234375">
        <ele>595.79998779296875</ele>
        <time>2018-08-17T16:45:08.000Z</time>
      </trkpt>
      <trkpt lat="50.48746311105787754058837890625" lon="11.83725482784211635589599609375">
        <ele>594.79998779296875</ele>
        <time>2018-08-17T16:45:14.000Z</time>
      </trkpt>
      <trkpt lat="50.487780869007110595703125" lon="11.83726103045046329498291015625">
        <ele>594.79998779296875</ele>
        <time>2018-08-17T16:45:17.000Z</time>
      </trkpt>
      <trkpt lat="50.4884076677262783050537109375" lon="11.83726765215396881103515625">
        <ele>594</ele>
        <time>2018-08-17T16:45:23.000Z</time>
      </trkpt>
      <trkpt lat="50.48880186863243579864501953125" lon="11.837268657982349395751953125">
        <ele>593.5999755859375</ele>
        <time>2018-08-17T16:45:27.000Z</time>
      </trkpt>
      <trkpt lat="50.48935255967080593109130859375" lon="11.83716866187751293182373046875">
        <ele>593.20001220703125</ele>
        <time>2018-08-17T16:45:33.000Z</time>
      </trkpt>
      <trkpt lat="50.4899200983345508575439453125" lon="11.8368715234100818634033203125">
        <ele>593.20001220703125</ele>
        <time>2018-08-17T16:45:40.000Z</time>
      </trkpt>
      <trkpt lat="50.490435250103473663330078125" lon="11.836567930877208709716796875">
        <ele>593.4000244140625</ele>
        <time>2018-08-17T16:45:47.000Z</time>
      </trkpt>
      <trkpt lat="50.49094713293015956878662109375" lon="11.8362878076732158660888671875">
        <ele>593.5999755859375</ele>
        <time>2018-08-17T16:45:54.000Z</time>
      </trkpt>
      <trkpt lat="50.49149028025567531585693359375" lon="11.83598396368324756622314453125">
        <ele>594.5999755859375</ele>
        <time>2018-08-17T16:46:02.000Z</time>
      </trkpt>
      <trkpt lat="50.49155482091009616851806640625" lon="11.835946999490261077880859375">
        <ele>594.79998779296875</ele>
        <time>2018-08-17T16:46:03.000Z</time>
      </trkpt>
      <trkpt lat="50.4920960403978824615478515625" lon="11.83563552796840667724609375">
        <ele>595.79998779296875</ele>
        <time>2018-08-17T16:46:12.000Z</time>
      </trkpt>
      <trkpt lat="50.49243609420955181121826171875" lon="11.83544106781482696533203125">
        <ele>596.79998779296875</ele>
        <time>2018-08-17T16:46:18.000Z</time>
      </trkpt>
      <trkpt lat="50.492714457213878631591796875" lon="11.83528105728328227996826171875">
        <ele>598</ele>
        <time>2018-08-17T16:46:23.000Z</time>
      </trkpt>
      <trkpt lat="50.49293464981019496917724609375" lon="11.835161782801151275634765625">
        <ele>599</ele>
        <time>2018-08-17T16:46:27.000Z</time>
      </trkpt>
      <trkpt lat="50.4933680780231952667236328125" lon="11.8349560908973217010498046875">
        <ele>600.4000244140625</ele>
        <time>2018-08-17T16:46:35.000Z</time>
      </trkpt>
      <trkpt lat="50.493667311966419219970703125" lon="11.83483279310166835784912109375">
        <ele>601.5999755859375</ele>
        <time>2018-08-17T16:46:40.000Z</time>
      </trkpt>
      <trkpt lat="50.49421171657741069793701171875" lon="11.83463011868298053741455078125">
        <ele>602</ele>
        <time>2018-08-17T16:46:48.000Z</time>
      </trkpt>
      <trkpt lat="50.4947869665920734405517578125" lon="11.8344280309975147247314453125">
        <ele>601.79998779296875</ele>
        <time>2018-08-17T16:46:56.000Z</time>
      </trkpt>
      <trkpt lat="50.49541435204446315765380859375" lon="11.83419191278517246246337890625">
        <ele>601.20001220703125</ele>
        <time>2018-08-17T16:47:04.000Z</time>
      </trkpt>
      <trkpt lat="50.4959235526621341705322265625" lon="11.83399527333676815032958984375">
        <ele>600.5999755859375</ele>
        <time>2018-08-17T16:47:10.000Z</time>
      </trkpt>
      <trkpt lat="50.49648120068013668060302734375" lon="11.83378438465297222137451171875">
        <ele>599.4000244140625</ele>
        <time>2018-08-17T16:47:16.000Z</time>
      </trkpt>
      <trkpt lat="50.49708218313753604888916015625" lon="11.8335553072392940521240234375">
        <ele>598.20001220703125</ele>
        <time>2018-08-17T16:47:22.000Z</time>
      </trkpt>
      <trkpt lat="50.49750245176255702972412109375" lon="11.8333952128887176513671875">
        <ele>596.79998779296875</ele>
        <time>2018-08-17T16:47:26.000Z</time>
      </trkpt>
      <trkpt lat="50.49771518446505069732666015625" lon="11.8333112262189388275146484375">
        <ele>595.5999755859375</ele>
        <time>2018-08-17T16:47:28.000Z</time>
      </trkpt>
      <trkpt lat="50.4980428330600261688232421875" lon="11.8331865034997463226318359375">
        <ele>594.4000244140625</ele>
        <time>2018-08-17T16:47:31.000Z</time>
      </trkpt>
      <trkpt lat="50.49826805479824542999267578125" lon="11.8331003375351428985595703125">
        <ele>593.20001220703125</ele>
        <time>2018-08-17T16:47:33.000Z</time>
      </trkpt>
      <trkpt lat="50.49849906004965305328369140625" lon="11.833016686141490936279296875">
        <ele>592.20001220703125</ele>
        <time>2018-08-17T16:47:35.000Z</time>
      </trkpt>
      <trkpt lat="50.4988501779735088348388671875" lon="11.832882575690746307373046875">
        <ele>590.79998779296875</ele>
        <time>2018-08-17T16:47:38.000Z</time>
      </trkpt>
      <trkpt lat="50.49908864311873912811279296875" lon="11.83279146440327167510986328125">
        <ele>589.5999755859375</ele>
        <time>2018-08-17T16:47:40.000Z</time>
      </trkpt>
      <trkpt lat="50.4993312992155551910400390625" lon="11.832699514925479888916015625">
        <ele>588.20001220703125</ele>
        <time>2018-08-17T16:47:42.000Z</time>
      </trkpt>
      <trkpt lat="50.49957747571170330047607421875" lon="11.832606978714466094970703125">
        <ele>586.79998779296875</ele>
        <time>2018-08-17T16:47:44.000Z</time>
      </trkpt>
      <trkpt lat="50.49982692115008831024169921875" lon="11.8325162865221500396728515625">
        <ele>585.4000244140625</ele>
        <time>2018-08-17T16:47:46.000Z</time>
      </trkpt>
      <trkpt lat="50.50007754005491733551025390625" lon="11.83242249302566051483154296875">
        <ele>584.20001220703125</ele>
        <time>2018-08-17T16:47:48.000Z</time>
      </trkpt>
      <trkpt lat="50.50020192749798297882080078125" lon="11.83237471617758274078369140625">
        <ele>583.5999755859375</ele>
        <time>2018-08-17T16:47:49.000Z</time>
      </trkpt>
      <trkpt lat="50.50032556056976318359375" lon="11.832328699529170989990234375">
        <ele>583</ele>
        <time>2018-08-17T16:47:50.000Z</time>
      </trkpt>
      <trkpt lat="50.50057089887559413909912109375" lon="11.83223574422299861907958984375">
        <ele>581.79998779296875</ele>
        <time>2018-08-17T16:47:52.000Z</time>
      </trkpt>
      <trkpt lat="50.50081531517207622528076171875" lon="11.83214354328811168670654296875">
        <ele>580.20001220703125</ele>
        <time>2018-08-17T16:47:54.000Z</time>
      </trkpt>
      <trkpt lat="50.50105805508792400360107421875" lon="11.832052767276763916015625">
        <ele>578.5999755859375</ele>
        <time>2018-08-17T16:47:56.000Z</time>
      </trkpt>
      <trkpt lat="50.5012978613376617431640625" lon="11.83196232654154300689697265625">
        <ele>577.20001220703125</ele>
        <time>2018-08-17T16:47:58.000Z</time>
      </trkpt>
      <trkpt lat="50.5016540922224521636962890625" lon="11.83182586915791034698486328125">
        <ele>576</ele>
        <time>2018-08-17T16:48:01.000Z</time>
      </trkpt>
      <trkpt lat="50.5020068027079105377197265625" lon="11.8316918425261974334716796875">
        <ele>574.79998779296875</ele>
        <time>2018-08-17T16:48:04.000Z</time>
      </trkpt>
      <trkpt lat="50.502363033592700958251953125" lon="11.8315671198070049285888671875">
        <ele>573.5999755859375</ele>
        <time>2018-08-17T16:48:07.000Z</time>
      </trkpt>
      <trkpt lat="50.50284557975828647613525390625" lon="11.83150702156126499176025390625">
        <ele>572.4000244140625</ele>
        <time>2018-08-17T16:48:11.000Z</time>
      </trkpt>
      <trkpt lat="50.50320700742304325103759765625" lon="11.8315912596881389617919921875">
        <ele>571</ele>
        <time>2018-08-17T16:48:14.000Z</time>
      </trkpt>
      <trkpt lat="50.5035671778023242950439453125" lon="11.83176367543637752532958984375">
        <ele>569.79998779296875</ele>
        <time>2018-08-17T16:48:17.000Z</time>
      </trkpt>
      <trkpt lat="50.50393522717058658599853515625" lon="11.8319624103605747222900390625">
        <ele>568.5999755859375</ele>
        <time>2018-08-17T16:48:20.000Z</time>
      </trkpt>
      <trkpt lat="50.5041931383311748504638671875" lon="11.8320753984153270721435546875">
        <ele>567.4000244140625</ele>
        <time>2018-08-17T16:48:22.000Z</time>
      </trkpt>
      <trkpt lat="50.50446345470845699310302734375" lon="11.83214102871716022491455078125">
        <ele>566</ele>
        <time>2018-08-17T16:48:24.000Z</time>
      </trkpt>
      <trkpt lat="50.50474374555051326751708984375" lon="11.83215125463902950286865234375">
        <ele>564.20001220703125</ele>
        <time>2018-08-17T16:48:26.000Z</time>
      </trkpt>
      <trkpt lat="50.5048854835331439971923828125" lon="11.83212929405272006988525390625">
        <ele>563.5999755859375</ele>
        <time>2018-08-17T16:48:27.000Z</time>
      </trkpt>
      <trkpt lat="50.5050262995064258575439453125" lon="11.832089312374591827392578125">
        <ele>563</ele>
        <time>2018-08-17T16:48:28.000Z</time>
      </trkpt>
      <trkpt lat="50.505304746329784393310546875" lon="11.8319560401141643524169921875">
        <ele>561.4000244140625</ele>
        <time>2018-08-17T16:48:30.000Z</time>
      </trkpt>
      <trkpt lat="50.50557129085063934326171875" lon="11.83174540288746356964111328125">
        <ele>559.4000244140625</ele>
        <time>2018-08-17T16:48:32.000Z</time>
      </trkpt>
      <trkpt lat="50.50569777376949787139892578125" lon="11.83161355555057525634765625">
        <ele>558.20001220703125</ele>
        <time>2018-08-17T16:48:33.000Z</time>
      </trkpt>
      <trkpt lat="50.5058202333748340606689453125" lon="11.83146997354924678802490234375">
        <ele>557.20001220703125</ele>
        <time>2018-08-17T16:48:34.000Z</time>
      </trkpt>
      <trkpt lat="50.50594051368534564971923828125" lon="11.831318177282810211181640625">
        <ele>556.20001220703125</ele>
        <time>2018-08-17T16:48:35.000Z</time>
      </trkpt>
      <trkpt lat="50.50606171600520610809326171875" lon="11.8311636149883270263671875">
        <ele>555</ele>
        <time>2018-08-17T16:48:36.000Z</time>
      </trkpt>
      <trkpt lat="50.50618358887732028961181640625" lon="11.83100930415093898773193359375">
        <ele>554</ele>
        <time>2018-08-17T16:48:37.000Z</time>
      </trkpt>
      <trkpt lat="50.50631049089133739471435546875" lon="11.83086429722607135772705078125">
        <ele>553</ele>
        <time>2018-08-17T16:48:38.000Z</time>
      </trkpt>
      <trkpt lat="50.506443679332733154296875" lon="11.83073638938367366790771484375">
        <ele>551.79998779296875</ele>
        <time>2018-08-17T16:48:39.000Z</time>
      </trkpt>
      <trkpt lat="50.50658273510634899139404296875" lon="11.83062775991857051849365234375">
        <ele>550.5999755859375</ele>
        <time>2018-08-17T16:48:40.000Z</time>
      </trkpt>
      <trkpt lat="50.50672623328864574432373046875" lon="11.83053840883076190948486328125">
        <ele>549.4000244140625</ele>
        <time>2018-08-17T16:48:41.000Z</time>
      </trkpt>
      <trkpt lat="50.50687308423221111297607421875" lon="11.83047051541507244110107421875">
        <ele>548.4000244140625</ele>
        <time>2018-08-17T16:48:42.000Z</time>
      </trkpt>
      <trkpt lat="50.5070211924612522125244140625" lon="11.83042240329086780548095703125">
        <ele>547.20001220703125</ele>
        <time>2018-08-17T16:48:43.000Z</time>
      </trkpt>
      <trkpt lat="50.50716997124254703521728515625" lon="11.8303949944674968719482421875">
        <ele>546</ele>
        <time>2018-08-17T16:48:44.000Z</time>
      </trkpt>
      <trkpt lat="50.50716997124254703521728515625" lon="11.8303949944674968719482421875">
        <ele>544.79998779296875</ele>
        <time>2018-08-17T16:48:45.000Z</time>
      </trkpt>
      <trkpt lat="50.50746300257742404937744140625" lon="11.83039851486682891845703125">
        <ele>543.5999755859375</ele>
        <time>2018-08-17T16:48:46.000Z</time>
      </trkpt>
      <trkpt lat="50.507605075836181640625" lon="11.83042558841407299041748046875">
        <ele>542.20001220703125</ele>
        <time>2018-08-17T16:48:47.000Z</time>
      </trkpt>
      <trkpt lat="50.507741533219814300537109375" lon="11.8304643966257572174072265625">
        <ele>541.20001220703125</ele>
        <time>2018-08-17T16:48:48.000Z</time>
      </trkpt>
      <trkpt lat="50.5078734643757343292236328125" lon="11.83050538413226604461669921875">
        <ele>540</ele>
        <time>2018-08-17T16:48:49.000Z</time>
      </trkpt>
      <trkpt lat="50.508128441870212554931640625" lon="11.830570511519908905029296875">
        <ele>538.20001220703125</ele>
        <time>2018-08-17T16:48:51.000Z</time>
      </trkpt>
      <trkpt lat="50.50838400609791278839111328125" lon="11.830589286983013153076171875">
        <ele>536.5999755859375</ele>
        <time>2018-08-17T16:48:53.000Z</time>
      </trkpt>
      <trkpt lat="50.50863848067820072174072265625" lon="11.8305572681128978729248046875">
        <ele>535</ele>
        <time>2018-08-17T16:48:55.000Z</time>
      </trkpt>
      <trkpt lat="50.5092772655189037322998046875" lon="11.83038602583110332489013671875">
        <ele>534</ele>
        <time>2018-08-17T16:49:00.000Z</time>
      </trkpt>
      <trkpt lat="50.509407185018062591552734375" lon="11.83035031892359256744384765625">
        <ele>534</ele>
        <time>2018-08-17T16:49:01.000Z</time>
      </trkpt>
      <trkpt lat="50.50992585718631744384765625" lon="11.83020564727485179901123046875">
        <ele>532.4000244140625</ele>
        <time>2018-08-17T16:49:05.000Z</time>
      </trkpt>
      <trkpt lat="50.510313771665096282958984375" lon="11.83010020293295383453369140625">
        <ele>530.79998779296875</ele>
        <time>2018-08-17T16:49:08.000Z</time>
      </trkpt>
      <trkpt lat="50.5105721019208431243896484375" lon="11.83002677746117115020751953125">
        <ele>529.4000244140625</ele>
        <time>2018-08-17T16:49:10.000Z</time>
      </trkpt>
      <trkpt lat="50.51083185710012912750244140625" lon="11.82995167560875415802001953125">
        <ele>528.4000244140625</ele>
        <time>2018-08-17T16:49:12.000Z</time>
      </trkpt>
      <trkpt lat="50.511225052177906036376953125" lon="11.829842962324619293212890625">
        <ele>526.5999755859375</ele>
        <time>2018-08-17T16:49:15.000Z</time>
      </trkpt>
      <trkpt lat="50.511357150971889495849609375" lon="11.82980750687420368194580078125">
        <ele>525.5999755859375</ele>
        <time>2018-08-17T16:49:16.000Z</time>
      </trkpt>
      <trkpt lat="50.5116190016269683837890625" lon="11.82973274029791355133056640625">
        <ele>523.79998779296875</ele>
        <time>2018-08-17T16:49:18.000Z</time>
      </trkpt>
      <trkpt lat="50.51187121309340000152587890625" lon="11.82966249994933605194091796875">
        <ele>522.20001220703125</ele>
        <time>2018-08-17T16:49:20.000Z</time>
      </trkpt>
      <trkpt lat="50.51211998797953128814697265625" lon="11.82962377555668354034423828125">
        <ele>520.79998779296875</ele>
        <time>2018-08-17T16:49:22.000Z</time>
      </trkpt>
      <trkpt lat="50.512367673218250274658203125" lon="11.82962260209023952484130859375">
        <ele>519.4000244140625</ele>
        <time>2018-08-17T16:49:24.000Z</time>
      </trkpt>
      <trkpt lat="50.512489378452301025390625" lon="11.82962880469858646392822265625">
        <ele>518.20001220703125</ele>
        <time>2018-08-17T16:49:25.000Z</time>
      </trkpt>
      <trkpt lat="50.5127265863120555877685546875" lon="11.8296463228762149810791015625">
        <ele>516.79998779296875</ele>
        <time>2018-08-17T16:49:27.000Z</time>
      </trkpt>
      <trkpt lat="50.512956418097019195556640625" lon="11.8296788446605205535888671875">
        <ele>515.79998779296875</ele>
        <time>2018-08-17T16:49:29.000Z</time>
      </trkpt>
      <trkpt lat="50.51329228095710277557373046875" lon="11.82973927818238735198974609375">
        <ele>514.79998779296875</ele>
        <time>2018-08-17T16:49:32.000Z</time>
      </trkpt>
      <trkpt lat="50.51384054124355316162109375" lon="11.82983349077403545379638671875">
        <ele>514</ele>
        <time>2018-08-17T16:49:37.000Z</time>
      </trkpt>
      <trkpt lat="50.514054782688617706298828125" lon="11.82985612191259860992431640625">
        <ele>513.79998779296875</ele>
        <time>2018-08-17T16:49:39.000Z</time>
      </trkpt>
      <trkpt lat="50.514570437371730804443359375" lon="11.8297381885349750518798828125">
        <ele>512.5999755859375</ele>
        <time>2018-08-17T16:49:44.000Z</time>
      </trkpt>
      <trkpt lat="50.51497109234333038330078125" lon="11.8295956961810588836669921875">
        <ele>511.399993896484375</ele>
        <time>2018-08-17T16:49:48.000Z</time>
      </trkpt>
      <trkpt lat="50.515570230782032012939453125" lon="11.82946049608290195465087890625">
        <ele>510.600006103515625</ele>
        <time>2018-08-17T16:49:54.000Z</time>
      </trkpt>
      <trkpt lat="50.51576930098235607147216796875" lon="11.82941171340644359588623046875">
        <ele>510.20001220703125</ele>
        <time>2018-08-17T16:49:56.000Z</time>
      </trkpt>
      <trkpt lat="50.51596208475530147552490234375" lon="11.82933577336370944976806640625">
        <ele>509.79998779296875</ele>
        <time>2018-08-17T16:49:58.000Z</time>
      </trkpt>
      <trkpt lat="50.5163495801389217376708984375" lon="11.82889513671398162841796875">
        <ele>509.20001220703125</ele>
        <time>2018-08-17T16:50:03.000Z</time>
      </trkpt>
      <trkpt lat="50.5165381729602813720703125" lon="11.8285754509270191192626953125">
        <ele>508.20001220703125</ele>
        <time>2018-08-17T16:50:06.000Z</time>
      </trkpt>
      <trkpt lat="50.51688325591385364532470703125" lon="11.82790095917880535125732421875">
        <ele>507.79998779296875</ele>
        <time>2018-08-17T16:50:12.000Z</time>
      </trkpt>
      <trkpt lat="50.5170938931405544281005859375" lon="11.827236525714397430419921875">
        <ele>507</ele>
        <time>2018-08-17T16:50:17.000Z</time>
      </trkpt>
      <trkpt lat="50.51730603910982608795166015625" lon="11.82639607228338718414306640625">
        <ele>506.399993896484375</ele>
        <time>2018-08-17T16:50:23.000Z</time>
      </trkpt>
      <trkpt lat="50.51744274795055389404296875" lon="11.82584202848374843597412109375">
        <ele>506</ele>
        <time>2018-08-17T16:50:27.000Z</time>
      </trkpt>
      <trkpt lat="50.5176444165408611297607421875" lon="11.82534120976924896240234375">
        <ele>505.600006103515625</ele>
        <time>2018-08-17T16:50:31.000Z</time>
      </trkpt>
      <trkpt lat="50.518152527511119842529296875" lon="11.82496779598295688629150390625">
        <ele>505.399993896484375</ele>
        <time>2018-08-17T16:50:37.000Z</time>
      </trkpt>
      <trkpt lat="50.5186542682349681854248046875" lon="11.82484424673020839691162109375">
        <ele>504.79998779296875</ele>
        <time>2018-08-17T16:50:42.000Z</time>
      </trkpt>
      <trkpt lat="50.51906188018620014190673828125" lon="11.824754141271114349365234375">
        <ele>503.79998779296875</ele>
        <time>2018-08-17T16:50:46.000Z</time>
      </trkpt>
      <trkpt lat="50.51948064006865024566650390625" lon="11.8246619403362274169921875">
        <ele>502.399993896484375</ele>
        <time>2018-08-17T16:50:50.000Z</time>
      </trkpt>
      <trkpt lat="50.5198897607624530792236328125" lon="11.82456479407846927642822265625">
        <ele>501.20001220703125</ele>
        <time>2018-08-17T16:50:54.000Z</time>
      </trkpt>
      <trkpt lat="50.520498454570770263671875" lon="11.82440788485109806060791015625">
        <ele>500.20001220703125</ele>
        <time>2018-08-17T16:51:00.000Z</time>
      </trkpt>
      <trkpt lat="50.52111326716840267181396484375" lon="11.82424695231020450592041015625">
        <ele>499.600006103515625</ele>
        <time>2018-08-17T16:51:06.000Z</time>
      </trkpt>
      <trkpt lat="50.52151660434901714324951171875" lon="11.82414100505411624908447265625">
        <ele>499.399993896484375</ele>
        <time>2018-08-17T16:51:10.000Z</time>
      </trkpt>
      <trkpt lat="50.52208841778337955474853515625" lon="11.823988370597362518310546875">
        <ele>498.600006103515625</ele>
        <time>2018-08-17T16:51:16.000Z</time>
      </trkpt>
      <trkpt lat="50.52264212630689144134521484375" lon="11.8238393403589725494384765625">
        <ele>498.600006103515625</ele>
        <time>2018-08-17T16:51:22.000Z</time>
      </trkpt>
      <trkpt lat="50.5232079885900020599365234375" lon="11.82369031012058258056640625">
        <ele>498.79998779296875</ele>
        <time>2018-08-17T16:51:28.000Z</time>
      </trkpt>
      <trkpt lat="50.5237860046327114105224609375" lon="11.82354404591023921966552734375">
        <ele>498.79998779296875</ele>
        <time>2018-08-17T16:51:34.000Z</time>
      </trkpt>
      <trkpt lat="50.5243925191462039947509765625" lon="11.82338646613061428070068359375">
        <ele>498.399993896484375</ele>
        <time>2018-08-17T16:51:40.000Z</time>
      </trkpt>
      <trkpt lat="50.5244981311261653900146484375" lon="11.8233598954975605010986328125">
        <ele>498.20001220703125</ele>
        <time>2018-08-17T16:51:41.000Z</time>
      </trkpt>
      <trkpt lat="50.5250432901084423065185546875" lon="11.82322268374264240264892578125">
        <ele>497.399993896484375</ele>
        <time>2018-08-17T16:51:46.000Z</time>
      </trkpt>
      <trkpt lat="50.525153763592243194580078125" lon="11.82319301180541515350341796875">
        <ele>497</ele>
        <time>2018-08-17T16:51:47.000Z</time>
      </trkpt>
      <trkpt lat="50.52549499087035655975341796875" lon="11.8231040798127651214599609375">
        <ele>495.399993896484375</ele>
        <time>2018-08-17T16:51:50.000Z</time>
      </trkpt>
      <trkpt lat="50.52583579905331134796142578125" lon="11.82300944812595844268798828125">
        <ele>494.399993896484375</ele>
        <time>2018-08-17T16:51:53.000Z</time>
      </trkpt>
      <trkpt lat="50.52605641074478626251220703125" lon="11.8229347653687000274658203125">
        <ele>493.20001220703125</ele>
        <time>2018-08-17T16:51:55.000Z</time>
      </trkpt>
      <trkpt lat="50.52626855671405792236328125" lon="11.82281264103949069976806640625">
        <ele>491.79998779296875</ele>
        <time>2018-08-17T16:51:57.000Z</time>
      </trkpt>
      <trkpt lat="50.52653602324426174163818359375" lon="11.82251005433499813079833984375">
        <ele>490.79998779296875</ele>
        <time>2018-08-17T16:52:00.000Z</time>
      </trkpt>
      <trkpt lat="50.5267300643026828765869140625" lon="11.8220855109393596649169921875">
        <ele>489.399993896484375</ele>
        <time>2018-08-17T16:52:03.000Z</time>
      </trkpt>
      <trkpt lat="50.5267847143113613128662109375" lon="11.8219339661300182342529296875">
        <ele>489</ele>
        <time>2018-08-17T16:52:04.000Z</time>
      </trkpt>
      <trkpt lat="50.526889152824878692626953125" lon="11.82161754928529262542724609375">
        <ele>488.20001220703125</ele>
        <time>2018-08-17T16:52:06.000Z</time>
      </trkpt>
      <trkpt lat="50.527053438127040863037109375" lon="11.82114162482321262359619140625">
        <ele>486.79998779296875</ele>
        <time>2018-08-17T16:52:09.000Z</time>
      </trkpt>
      <trkpt lat="50.5272106826305389404296875" lon="11.82067341171205043792724609375">
        <ele>485.600006103515625</ele>
        <time>2018-08-17T16:52:12.000Z</time>
      </trkpt>
      <trkpt lat="50.527426265180110931396484375" lon="11.8200564198195934295654296875">
        <ele>484.20001220703125</ele>
        <time>2018-08-17T16:52:16.000Z</time>
      </trkpt>
      <trkpt lat="50.5276507325470447540283203125" lon="11.819431968033313751220703125">
        <ele>483</ele>
        <time>2018-08-17T16:52:20.000Z</time>
      </trkpt>
      <trkpt lat="50.52787980996072292327880859375" lon="11.8188021518290042877197265625">
        <ele>481.79998779296875</ele>
        <time>2018-08-17T16:52:24.000Z</time>
      </trkpt>
      <trkpt lat="50.5281164310872554779052734375" lon="11.81815565563738346099853515625">
        <ele>480.79998779296875</ele>
        <time>2018-08-17T16:52:28.000Z</time>
      </trkpt>
      <trkpt lat="50.528354980051517486572265625" lon="11.817481331527233123779296875">
        <ele>479.399993896484375</ele>
        <time>2018-08-17T16:52:32.000Z</time>
      </trkpt>
      <trkpt lat="50.52853343077003955841064453125" lon="11.81696374900639057159423828125">
        <ele>478.20001220703125</ele>
        <time>2018-08-17T16:52:35.000Z</time>
      </trkpt>
      <trkpt lat="50.5287205986678600311279296875" lon="11.81644021533429622650146484375">
        <ele>476.79998779296875</ele>
        <time>2018-08-17T16:52:38.000Z</time>
      </trkpt>
      <trkpt lat="50.52890659309923648834228515625" lon="11.81591819040477275848388671875">
        <ele>475.399993896484375</ele>
        <time>2018-08-17T16:52:41.000Z</time>
      </trkpt>
      <trkpt lat="50.5290917493402957916259765625" lon="11.81540572084486484527587890625">
        <ele>473.79998779296875</ele>
        <time>2018-08-17T16:52:44.000Z</time>
      </trkpt>
      <trkpt lat="50.5292084254324436187744140625" lon="11.81507463566958904266357421875">
        <ele>472.600006103515625</ele>
        <time>2018-08-17T16:52:46.000Z</time>
      </trkpt>
      <trkpt lat="50.5293224193155765533447265625" lon="11.81475360877811908721923828125">
        <ele>471.399993896484375</ele>
        <time>2018-08-17T16:52:48.000Z</time>
      </trkpt>
      <trkpt lat="50.52949030883610248565673828125" lon="11.814290173351764678955078125">
        <ele>470.399993896484375</ele>
        <time>2018-08-17T16:52:51.000Z</time>
      </trkpt>
      <trkpt lat="50.5297177098691463470458984375" lon="11.81374928914010524749755859375">
        <ele>470.399993896484375</ele>
        <time>2018-08-17T16:52:55.000Z</time>
      </trkpt>
      <trkpt lat="50.53025591187179088592529296875" lon="11.81338098831474781036376953125">
        <ele>470.399993896484375</ele>
        <time>2018-08-17T16:53:02.000Z</time>
      </trkpt>
      <trkpt lat="50.53039957769215106964111328125" lon="11.8133832514286041259765625">
        <ele>470.600006103515625</ele>
        <time>2018-08-17T16:53:04.000Z</time>
      </trkpt>
      <trkpt lat="50.53066595457494258880615234375" lon="11.813396327197551727294921875">
        <ele>471.399993896484375</ele>
        <time>2018-08-17T16:53:08.000Z</time>
      </trkpt>
      <trkpt lat="50.5309015698730945587158203125" lon="11.8134085647761821746826171875">
        <ele>472.600006103515625</ele>
        <time>2018-08-17T16:53:12.000Z</time>
      </trkpt>
      <trkpt lat="50.53107415325939655303955078125" lon="11.81341652758419513702392578125">
        <ele>473.600006103515625</ele>
        <time>2018-08-17T16:53:15.000Z</time>
      </trkpt>
      <trkpt lat="50.5312479101121425628662109375" lon="11.81342893280088901519775390625">
        <ele>474.79998779296875</ele>
        <time>2018-08-17T16:53:18.000Z</time>
      </trkpt>
      <trkpt lat="50.53146935999393463134765625" lon="11.81344963610172271728515625">
        <ele>475.79998779296875</ele>
        <time>2018-08-17T16:53:22.000Z</time>
      </trkpt>
      <trkpt lat="50.531686283648014068603515625" lon="11.8134692497551441192626953125">
        <ele>476.79998779296875</ele>
        <time>2018-08-17T16:53:26.000Z</time>
      </trkpt>
      <trkpt lat="50.53195710293948650360107421875" lon="11.81347704492509365081787109375">
        <ele>478</ele>
        <time>2018-08-17T16:53:31.000Z</time>
      </trkpt>
      <trkpt lat="50.5320565961301326751708984375" lon="11.81348810903728008270263671875">
        <ele>478.399993896484375</ele>
        <time>2018-08-17T16:53:33.000Z</time>
      </trkpt>
      <trkpt lat="50.53220135159790515899658203125" lon="11.81350219063460826873779296875">
        <ele>479</ele>
        <time>2018-08-17T16:53:36.000Z</time>
      </trkpt>
      <trkpt lat="50.53238994441926479339599609375" lon="11.8135004304349422454833984375">
        <ele>480.20001220703125</ele>
        <time>2018-08-17T16:53:40.000Z</time>
      </trkpt>
      <trkpt lat="50.53265984170138835906982421875" lon="11.8134789727628231048583984375">
        <ele>481.20001220703125</ele>
        <time>2018-08-17T16:53:45.000Z</time>
      </trkpt>
      <trkpt lat="50.53294935263693332672119140625" lon="11.8134742788970470428466796875">
        <ele>482.399993896484375</ele>
        <time>2018-08-17T16:53:50.000Z</time>
      </trkpt>
      <trkpt lat="50.53325428627431392669677734375" lon="11.81345994584262371063232421875">
        <ele>483.399993896484375</ele>
        <time>2018-08-17T16:53:55.000Z</time>
      </trkpt>
      <trkpt lat="50.53378502838313579559326171875" lon="11.81326163001358509063720703125">
        <ele>483.79998779296875</ele>
        <time>2018-08-17T16:54:03.000Z</time>
      </trkpt>
      <trkpt lat="50.53431208245456218719482421875" lon="11.812961809337139129638671875">
        <ele>483.79998779296875</ele>
        <time>2018-08-17T16:54:11.000Z</time>
      </trkpt>
      <trkpt lat="50.53470318205654621124267578125" lon="11.812759302556514739990234375">
        <ele>484.600006103515625</ele>
        <time>2018-08-17T16:54:18.000Z</time>
      </trkpt>
      <trkpt lat="50.5349265597760677337646484375" lon="11.81264095008373260498046875">
        <ele>485.79998779296875</ele>
        <time>2018-08-17T16:54:23.000Z</time>
      </trkpt>
      <trkpt lat="50.535051785409450531005859375" lon="11.8125703744590282440185546875">
        <ele>486.79998779296875</ele>
        <time>2018-08-17T16:54:26.000Z</time>
      </trkpt>
      <trkpt lat="50.53516267798840999603271484375" lon="11.8124969489872455596923828125">
        <ele>487.79998779296875</ele>
        <time>2018-08-17T16:54:29.000Z</time>
      </trkpt>
      <trkpt lat="50.53526694886386394500732421875" lon="11.8124268762767314910888671875">
        <ele>488.79998779296875</ele>
        <time>2018-08-17T16:54:32.000Z</time>
      </trkpt>
      <trkpt lat="50.53540793247520923614501953125" lon="11.8123390339314937591552734375">
        <ele>490.20001220703125</ele>
        <time>2018-08-17T16:54:36.000Z</time>
      </trkpt>
      <trkpt lat="50.53555436432361602783203125" lon="11.81223702616989612579345703125">
        <ele>491.20001220703125</ele>
        <time>2018-08-17T16:54:40.000Z</time>
      </trkpt>
      <trkpt lat="50.53570381365716457366943359375" lon="11.8121489323675632476806640625">
        <ele>492.399993896484375</ele>
        <time>2018-08-17T16:54:44.000Z</time>
      </trkpt>
      <trkpt lat="50.5358120240271091461181640625" lon="11.812089420855045318603515625">
        <ele>493.399993896484375</ele>
        <time>2018-08-17T16:54:47.000Z</time>
      </trkpt>
      <trkpt lat="50.53596314974129199981689453125" lon="11.8120045959949493408203125">
        <ele>494.600006103515625</ele>
        <time>2018-08-17T16:54:51.000Z</time>
      </trkpt>
      <trkpt lat="50.53610983304679393768310546875" lon="11.81192555464804172515869140625">
        <ele>495.600006103515625</ele>
        <time>2018-08-17T16:54:55.000Z</time>
      </trkpt>
      <trkpt lat="50.536289624869823455810546875" lon="11.81181893683969974517822265625">
        <ele>496.79998779296875</ele>
        <time>2018-08-17T16:55:00.000Z</time>
      </trkpt>
      <trkpt lat="50.53648215718567371368408203125" lon="11.811710558831691741943359375">
        <ele>498</ele>
        <time>2018-08-17T16:55:05.000Z</time>
      </trkpt>
      <trkpt lat="50.536629259586334228515625" lon="11.81162565015256404876708984375">
        <ele>499.20001220703125</ele>
        <time>2018-08-17T16:55:09.000Z</time>
      </trkpt>
      <trkpt lat="50.53677854128181934356689453125" lon="11.81155440397560596466064453125">
        <ele>500</ele>
        <time>2018-08-17T16:55:13.000Z</time>
      </trkpt>
      <trkpt lat="50.5368919484317302703857421875" lon="11.8115003407001495361328125">
        <ele>501.20001220703125</ele>
        <time>2018-08-17T16:55:16.000Z</time>
      </trkpt>
      <trkpt lat="50.5370414815843105316162109375" lon="11.81141828186810016632080078125">
        <ele>502.20001220703125</ele>
        <time>2018-08-17T16:55:20.000Z</time>
      </trkpt>
      <trkpt lat="50.53721733391284942626953125" lon="11.8113251589238643646240234375">
        <ele>503.399993896484375</ele>
        <time>2018-08-17T16:55:25.000Z</time>
      </trkpt>
      <trkpt lat="50.53736477158963680267333984375" lon="11.81124796159565448760986328125">
        <ele>504.399993896484375</ele>
        <time>2018-08-17T16:55:29.000Z</time>
      </trkpt>
      <trkpt lat="50.537512041628360748291015625" lon="11.81116665713489055633544921875">
        <ele>505.600006103515625</ele>
        <time>2018-08-17T16:55:33.000Z</time>
      </trkpt>
      <trkpt lat="50.5376593954861164093017578125" lon="11.811088621616363525390625">
        <ele>506.79998779296875</ele>
        <time>2018-08-17T16:55:37.000Z</time>
      </trkpt>
      <trkpt lat="50.53780465386807918548583984375" lon="11.81101284921169281005859375">
        <ele>507.79998779296875</ele>
        <time>2018-08-17T16:55:41.000Z</time>
      </trkpt>
      <trkpt lat="50.5379153788089752197265625" lon="11.81095375679433345794677734375">
        <ele>508.79998779296875</ele>
        <time>2018-08-17T16:55:44.000Z</time>
      </trkpt>
      <trkpt lat="50.53806466050446033477783203125" lon="11.81087412871420383453369140625">
        <ele>510</ele>
        <time>2018-08-17T16:55:49.000Z</time>
      </trkpt>
      <trkpt lat="50.5382424406707286834716796875" lon="11.810771785676479339599609375">
        <ele>511</ele>
        <time>2018-08-17T16:55:53.000Z</time>
      </trkpt>
      <trkpt lat="50.53838484920561313629150390625" lon="11.810686290264129638671875">
        <ele>512.20001220703125</ele>
        <time>2018-08-17T16:55:57.000Z</time>
      </trkpt>
      <trkpt lat="50.53852432407438755035400390625" lon="11.81059417314827442169189453125">
        <ele>513.4000244140625</ele>
        <time>2018-08-17T16:56:02.000Z</time>
      </trkpt>
      <trkpt lat="50.53870017640292644500732421875" lon="11.8104636669158935546875">
        <ele>514.4000244140625</ele>
        <time>2018-08-17T16:56:06.000Z</time>
      </trkpt>
      <trkpt lat="50.53880411200225353240966796875" lon="11.81039116345345973968505859375">
        <ele>515.5999755859375</ele>
        <time>2018-08-17T16:56:10.000Z</time>
      </trkpt>
      <trkpt lat="50.538916848599910736083984375" lon="11.810320504009723663330078125">
        <ele>516.5999755859375</ele>
        <time>2018-08-17T16:56:13.000Z</time>
      </trkpt>
      <trkpt lat="50.5390725843608379364013671875" lon="11.81023827753961086273193359375">
        <ele>517.79998779296875</ele>
        <time>2018-08-17T16:56:17.000Z</time>
      </trkpt>
      <trkpt lat="50.53923175670206546783447265625" lon="11.81015160866081714630126953125">
        <ele>518.79998779296875</ele>
        <time>2018-08-17T16:56:21.000Z</time>
      </trkpt>
      <trkpt lat="50.53939000703394412994384765625" lon="11.810094527900218963623046875">
        <ele>520</ele>
        <time>2018-08-17T16:56:24.000Z</time>
      </trkpt>
      <trkpt lat="50.5395446531474590301513671875" lon="11.81002043187618255615234375">
        <ele>521</ele>
        <time>2018-08-17T16:56:28.000Z</time>
      </trkpt>
      <trkpt lat="50.53974665701389312744140625" lon="11.80990752764046192169189453125">
        <ele>522.20001220703125</ele>
        <time>2018-08-17T16:56:33.000Z</time>
      </trkpt>
      <trkpt lat="50.5399525165557861328125" lon="11.80980225093662738800048828125">
        <ele>523</ele>
        <time>2018-08-17T16:56:38.000Z</time>
      </trkpt>
      <trkpt lat="50.5401226691901683807373046875" lon="11.80973737500607967376708984375">
        <ele>524.20001220703125</ele>
        <time>2018-08-17T16:56:42.000Z</time>
      </trkpt>
      <trkpt lat="50.54025568999350070953369140625" lon="11.80968540720641613006591796875">
        <ele>524.79998779296875</ele>
        <time>2018-08-17T16:56:45.000Z</time>
      </trkpt>
      <trkpt lat="50.54040589369833469390869140625" lon="11.8096040189266204833984375">
        <ele>525.20001220703125</ele>
        <time>2018-08-17T16:56:48.000Z</time>
      </trkpt>
      <trkpt lat="50.5405588634312152862548828125" lon="11.80953101254999637603759765625">
        <ele>525.79998779296875</ele>
        <time>2018-08-17T16:56:51.000Z</time>
      </trkpt>
      <trkpt lat="50.5406621284782886505126953125" lon="11.80947862565517425537109375">
        <ele>526</ele>
        <time>2018-08-17T16:56:53.000Z</time>
      </trkpt>
      <trkpt lat="50.54076681844890117645263671875" lon="11.8094372190535068511962890625">
        <ele>526.4000244140625</ele>
        <time>2018-08-17T16:56:55.000Z</time>
      </trkpt>
      <trkpt lat="50.541033111512660980224609375" lon="11.80931861512362957000732421875">
        <ele>527.20001220703125</ele>
        <time>2018-08-17T16:57:00.000Z</time>
      </trkpt>
      <trkpt lat="50.54108717478811740875244140625" lon="11.809291876852512359619140625">
        <ele>527.4000244140625</ele>
        <time>2018-08-17T16:57:02.000Z</time>
      </trkpt>
      <trkpt lat="50.541602075099945068359375" lon="11.80901058018207550048828125">
        <ele>528.5999755859375</ele>
        <time>2018-08-17T16:57:11.000Z</time>
      </trkpt>
      <trkpt lat="50.54214362986385822296142578125" lon="11.8086107634007930755615234375">
        <ele>529.20001220703125</ele>
        <time>2018-08-17T16:57:19.000Z</time>
      </trkpt>
      <trkpt lat="50.54251134395599365234375" lon="11.8083247728645801544189453125">
        <ele>529.5999755859375</ele>
        <time>2018-08-17T16:57:25.000Z</time>
      </trkpt>
      <trkpt lat="50.54304921068251132965087890625" lon="11.80790953338146209716796875">
        <ele>530.4000244140625</ele>
        <time>2018-08-17T16:57:34.000Z</time>
      </trkpt>
      <trkpt lat="50.54317326284945011138916015625" lon="11.80781590752303600311279296875">
        <ele>530.5999755859375</ele>
        <time>2018-08-17T16:57:36.000Z</time>
      </trkpt>
      <trkpt lat="50.54322958923876285552978515625" lon="11.8077688850462436676025390625">
        <ele>530.5999755859375</ele>
        <time>2018-08-17T16:57:37.000Z</time>
      </trkpt>
      <trkpt lat="50.54328574799001216888427734375" lon="11.80772270075976848602294921875">
        <ele>530.79998779296875</ele>
        <time>2018-08-17T16:57:39.000Z</time>
      </trkpt>
      <trkpt lat="50.54370283149182796478271484375" lon="11.8074657954275608062744140625">
        <ele>531.5999755859375</ele>
        <time>2018-08-17T16:57:45.000Z</time>
      </trkpt>
      <trkpt lat="50.54394221864640712738037109375" lon="11.80736043490469455718994140625">
        <ele>532</ele>
        <time>2018-08-17T16:57:49.000Z</time>
      </trkpt>
      <trkpt lat="50.5441801808774471282958984375" lon="11.8072777055203914642333984375">
        <ele>532.5999755859375</ele>
        <time>2018-08-17T16:57:53.000Z</time>
      </trkpt>
      <trkpt lat="50.54453113116323947906494140625" lon="11.80717335082590579986572265625">
        <ele>533.79998779296875</ele>
        <time>2018-08-17T16:57:59.000Z</time>
      </trkpt>
      <trkpt lat="50.5448242463171482086181640625" lon="11.80709858424961566925048828125">
        <ele>535</ele>
        <time>2018-08-17T16:58:04.000Z</time>
      </trkpt>
      <trkpt lat="50.54511375725269317626953125" lon="11.8070289306342601776123046875">
        <ele>536</ele>
        <time>2018-08-17T16:58:09.000Z</time>
      </trkpt>
      <trkpt lat="50.54534400813281536102294921875" lon="11.806967742741107940673828125">
        <ele>537.20001220703125</ele>
        <time>2018-08-17T16:58:13.000Z</time>
      </trkpt>
      <trkpt lat="50.54574365727603435516357421875" lon="11.8068643100559711456298828125">
        <ele>538.5999755859375</ele>
        <time>2018-08-17T16:58:20.000Z</time>
      </trkpt>
      <trkpt lat="50.54601925425231456756591796875" lon="11.80679683573544025421142578125">
        <ele>539.79998779296875</ele>
        <time>2018-08-17T16:58:25.000Z</time>
      </trkpt>
      <trkpt lat="50.54635218344628810882568359375" lon="11.80671167559921741485595703125">
        <ele>541</ele>
        <time>2018-08-17T16:58:31.000Z</time>
      </trkpt>
      <trkpt lat="50.54668284952640533447265625" lon="11.80662634782493114471435546875">
        <ele>542.4000244140625</ele>
        <time>2018-08-17T16:58:38.000Z</time>
      </trkpt>
      <trkpt lat="50.54695903323590755462646484375" lon="11.80655191652476787567138671875">
        <ele>543.4000244140625</ele>
        <time>2018-08-17T16:58:43.000Z</time>
      </trkpt>
      <trkpt lat="50.54724276065826416015625" lon="11.80648863315582275390625">
        <ele>544.5999755859375</ele>
        <time>2018-08-17T16:58:48.000Z</time>
      </trkpt>
      <trkpt lat="50.5475979857146739959716796875" lon="11.80648067034780979156494140625">
        <ele>545.5999755859375</ele>
        <time>2018-08-17T16:58:53.000Z</time>
      </trkpt>
      <trkpt lat="50.548177175223827362060546875" lon="11.8066691793501377105712890625">
        <ele>546.4000244140625</ele>
        <time>2018-08-17T16:59:02.000Z</time>
      </trkpt>
      <trkpt lat="50.548742115497589111328125" lon="11.80710009299218654632568359375">
        <ele>546.4000244140625</ele>
        <time>2018-08-17T16:59:10.000Z</time>
      </trkpt>
      <trkpt lat="50.54919465444982051849365234375" lon="11.807615496218204498291015625">
        <ele>545.5999755859375</ele>
        <time>2018-08-17T16:59:16.000Z</time>
      </trkpt>
      <trkpt lat="50.5494205467402935028076171875" lon="11.807905174791812896728515625">
        <ele>544.5999755859375</ele>
        <time>2018-08-17T16:59:19.000Z</time>
      </trkpt>
      <trkpt lat="50.54965130053460597991943359375" lon="11.80819778703153133392333984375">
        <ele>543.5999755859375</ele>
        <time>2018-08-17T16:59:22.000Z</time>
      </trkpt>
      <trkpt lat="50.54997660219669342041015625" lon="11.80855770595371723175048828125">
        <ele>542.4000244140625</ele>
        <time>2018-08-17T16:59:26.000Z</time>
      </trkpt>
      <trkpt lat="50.55024457164108753204345703125" lon="11.808774881064891815185546875">
        <ele>541</ele>
        <time>2018-08-17T16:59:29.000Z</time>
      </trkpt>
      <trkpt lat="50.5505323223769664764404296875" lon="11.80892340838909149169921875">
        <ele>539.4000244140625</ele>
        <time>2018-08-17T16:59:32.000Z</time>
      </trkpt>
      <trkpt lat="50.550825856626033782958984375" lon="11.80899071507155895233154296875">
        <ele>538.20001220703125</ele>
        <time>2018-08-17T16:59:35.000Z</time>
      </trkpt>
      <trkpt lat="50.5510154552757740020751953125" lon="11.80900697596371173858642578125">
        <ele>536.79998779296875</ele>
        <time>2018-08-17T16:59:38.000Z</time>
      </trkpt>
      <trkpt lat="50.55110438726842403411865234375" lon="11.80902994237840175628662109375">
        <ele>536.5999755859375</ele>
        <time>2018-08-17T16:59:39.000Z</time>
      </trkpt>
      <trkpt lat="50.5512541718780994415283203125" lon="11.8091641366481781005859375">
        <ele>535.79998779296875</ele>
        <time>2018-08-17T16:59:41.000Z</time>
      </trkpt>
      <trkpt lat="50.55132550187408924102783203125" lon="11.80923446081578731536865234375">
        <ele>535.20001220703125</ele>
        <time>2018-08-17T16:59:42.000Z</time>
      </trkpt>
      <trkpt lat="50.5514801479876041412353515625" lon="11.8093009293079376220703125">
        <ele>534.4000244140625</ele>
        <time>2018-08-17T16:59:44.000Z</time>
      </trkpt>
      <trkpt lat="50.55184853263199329376220703125" lon="11.80957644246518611907958984375">
        <ele>533.5999755859375</ele>
        <time>2018-08-17T16:59:48.000Z</time>
      </trkpt>
      <trkpt lat="50.55228221230208873748779296875" lon="11.8101697973906993865966796875">
        <ele>533.20001220703125</ele>
        <time>2018-08-17T16:59:55.000Z</time>
      </trkpt>
      <trkpt lat="50.55280071683228015899658203125" lon="11.81067028082907199859619140625">
        <ele>532.4000244140625</ele>
        <time>2018-08-17T17:00:03.000Z</time>
      </trkpt>
      <trkpt lat="50.55333112366497516632080078125" lon="11.8108591251075267791748046875">
        <ele>532.79998779296875</ele>
        <time>2018-08-17T17:00:10.000Z</time>
      </trkpt>
      <trkpt lat="50.5538884364068508148193359375" lon="11.810958869755268096923828125">
        <ele>533.4000244140625</ele>
        <time>2018-08-17T17:00:17.000Z</time>
      </trkpt>
      <trkpt lat="50.5544419772922992706298828125" lon="11.8110522441565990447998046875">
        <ele>533.79998779296875</ele>
        <time>2018-08-17T17:00:24.000Z</time>
      </trkpt>
      <trkpt lat="50.5550679378211498260498046875" lon="11.81117713451385498046875">
        <ele>534</ele>
        <time>2018-08-17T17:00:31.000Z</time>
      </trkpt>
      <trkpt lat="50.5557153560221195220947265625" lon="11.81132004596292972564697265625">
        <ele>533.4000244140625</ele>
        <time>2018-08-17T17:00:37.000Z</time>
      </trkpt>
      <trkpt lat="50.5559557490050792694091796875" lon="11.81136581115424633026123046875">
        <ele>532</ele>
        <time>2018-08-17T17:00:39.000Z</time>
      </trkpt>
      <trkpt lat="50.55620879866182804107666015625" lon="11.81139246560633182525634765625">
        <ele>530.79998779296875</ele>
        <time>2018-08-17T17:00:41.000Z</time>
      </trkpt>
      <trkpt lat="50.55647601373493671417236328125" lon="11.8113925494253635406494140625">
        <ele>529.20001220703125</ele>
        <time>2018-08-17T17:00:43.000Z</time>
      </trkpt>
      <trkpt lat="50.5567506887018680572509765625" lon="11.81137100793421268463134765625">
        <ele>527.4000244140625</ele>
        <time>2018-08-17T17:00:45.000Z</time>
      </trkpt>
      <trkpt lat="50.557031817734241485595703125" lon="11.81132423691451549530029296875">
        <ele>525.5999755859375</ele>
        <time>2018-08-17T17:00:47.000Z</time>
      </trkpt>
      <trkpt lat="50.55717405863106250762939453125" lon="11.81129179894924163818359375">
        <ele>524.5999755859375</ele>
        <time>2018-08-17T17:00:48.000Z</time>
      </trkpt>
      <trkpt lat="50.55731789208948612213134765625" lon="11.811257265508174896240234375">
        <ele>523.4000244140625</ele>
        <time>2018-08-17T17:00:49.000Z</time>
      </trkpt>
      <trkpt lat="50.55746356956660747528076171875" lon="11.81122063659131526947021484375">
        <ele>522.20001220703125</ele>
        <time>2018-08-17T17:00:50.000Z</time>
      </trkpt>
      <trkpt lat="50.55761209689080715179443359375" lon="11.81118191219866275787353515625">
        <ele>521.20001220703125</ele>
        <time>2018-08-17T17:00:51.000Z</time>
      </trkpt>
      <trkpt lat="50.55776095949113368988037109375" lon="11.8111437745392322540283203125">
        <ele>519.79998779296875</ele>
        <time>2018-08-17T17:00:52.000Z</time>
      </trkpt>
      <trkpt lat="50.55791015736758708953857421875" lon="11.8111052177846431732177734375">
        <ele>518.5999755859375</ele>
        <time>2018-08-17T17:00:53.000Z</time>
      </trkpt>
      <trkpt lat="50.55805935524404048919677734375" lon="11.81106372736394405364990234375">
        <ele>517.4000244140625</ele>
        <time>2018-08-17T17:00:54.000Z</time>
      </trkpt>
      <trkpt lat="50.55820838548243045806884765625" lon="11.81101947091519832611083984375">
        <ele>515</ele>
        <time>2018-08-17T17:00:55.000Z</time>
      </trkpt>
      <trkpt lat="50.55835791863501071929931640625" lon="11.81097370572388172149658203125">
        <ele>513.79998779296875</ele>
        <time>2018-08-17T17:00:56.000Z</time>
      </trkpt>
      <trkpt lat="50.5585072003304958343505859375" lon="11.81092324666678905487060546875">
        <ele>512.5999755859375</ele>
        <time>2018-08-17T17:00:57.000Z</time>
      </trkpt>
      <trkpt lat="50.5588017404079437255859375" lon="11.810795255005359649658203125">
        <ele>510.600006103515625</ele>
        <time>2018-08-17T17:00:59.000Z</time>
      </trkpt>
      <trkpt lat="50.55894649587571620941162109375" lon="11.81071252562105655670166015625">
        <ele>509.399993896484375</ele>
        <time>2018-08-17T17:01:00.000Z</time>
      </trkpt>
      <trkpt lat="50.5590885691344738006591796875" lon="11.81061320006847381591796875">
        <ele>508.20001220703125</ele>
        <time>2018-08-17T17:01:01.000Z</time>
      </trkpt>
      <trkpt lat="50.55922678671777248382568359375" lon="11.81049576960504055023193359375">
        <ele>507</ele>
        <time>2018-08-17T17:01:02.000Z</time>
      </trkpt>
      <trkpt lat="50.5594910681247711181640625" lon="11.8102167360484600067138671875">
        <ele>505.399993896484375</ele>
        <time>2018-08-17T17:01:04.000Z</time>
      </trkpt>
      <trkpt lat="50.55974260903894901275634765625" lon="11.80989512242376804351806640625">
        <ele>503.600006103515625</ele>
        <time>2018-08-17T17:01:06.000Z</time>
      </trkpt>
      <trkpt lat="50.55986364372074604034423828125" lon="11.80972061119973659515380859375">
        <ele>502.600006103515625</ele>
        <time>2018-08-17T17:01:07.000Z</time>
      </trkpt>
      <trkpt lat="50.559983588755130767822265625" lon="11.809540651738643646240234375">
        <ele>501.20001220703125</ele>
        <time>2018-08-17T17:01:08.000Z</time>
      </trkpt>
      <trkpt lat="50.560103952884674072265625" lon="11.8093594349920749664306640625">
        <ele>500</ele>
        <time>2018-08-17T17:01:09.000Z</time>
      </trkpt>
      <trkpt lat="50.5602258257567882537841796875" lon="11.809180565178394317626953125">
        <ele>498.600006103515625</ele>
        <time>2018-08-17T17:01:10.000Z</time>
      </trkpt>
      <trkpt lat="50.56034979410469532012939453125" lon="11.8090063892304897308349609375">
        <ele>497.20001220703125</ele>
        <time>2018-08-17T17:01:11.000Z</time>
      </trkpt>
      <trkpt lat="50.56047636084258556365966796875" lon="11.80883891880512237548828125">
        <ele>495.79998779296875</ele>
        <time>2018-08-17T17:01:12.000Z</time>
      </trkpt>
      <trkpt lat="50.56060510687530040740966796875" lon="11.80868024937808513641357421875">
        <ele>494.600006103515625</ele>
        <time>2018-08-17T17:01:13.000Z</time>
      </trkpt>
      <trkpt lat="50.5607374571263790130615234375" lon="11.8085336498916149139404296875">
        <ele>493.20001220703125</ele>
        <time>2018-08-17T17:01:14.000Z</time>
      </trkpt>
      <trkpt lat="50.560872741043567657470703125" lon="11.808402054011821746826171875">
        <ele>491.79998779296875</ele>
        <time>2018-08-17T17:01:15.000Z</time>
      </trkpt>
      <trkpt lat="50.561010874807834625244140625" lon="11.8082858808338642120361328125">
        <ele>490.600006103515625</ele>
        <time>2018-08-17T17:01:16.000Z</time>
      </trkpt>
      <trkpt lat="50.56114993058145046234130859375" lon="11.80818521417677402496337890625">
        <ele>489</ele>
        <time>2018-08-17T17:01:17.000Z</time>
      </trkpt>
      <trkpt lat="50.56128881871700286865234375" lon="11.80810139514505863189697265625">
        <ele>487.600006103515625</ele>
        <time>2018-08-17T17:01:18.000Z</time>
      </trkpt>
      <trkpt lat="50.5614271201193332672119140625" lon="11.8080367706716060638427734375">
        <ele>486.20001220703125</ele>
        <time>2018-08-17T17:01:19.000Z</time>
      </trkpt>
      <trkpt lat="50.56156382896006107330322265625" lon="11.80799243040382862091064453125">
        <ele>485</ele>
        <time>2018-08-17T17:01:20.000Z</time>
      </trkpt>
      <trkpt lat="50.56169793941080570220947265625" lon="11.80796720087528228759765625">
        <ele>483.600006103515625</ele>
        <time>2018-08-17T17:01:21.000Z</time>
      </trkpt>
      <trkpt lat="50.56182861328125" lon="11.8079596571624279022216796875">
        <ele>482.600006103515625</ele>
        <time>2018-08-17T17:01:22.000Z</time>
      </trkpt>
      <trkpt lat="50.56195375509560108184814453125" lon="11.807966865599155426025390625">
        <ele>480.79998779296875</ele>
        <time>2018-08-17T17:01:23.000Z</time>
      </trkpt>
      <trkpt lat="50.56248282082378864288330078125" lon="11.808138191699981689453125">
        <ele>479.79998779296875</ele>
        <time>2018-08-17T17:01:28.000Z</time>
      </trkpt>
      <trkpt lat="50.5630408041179180145263671875" lon="11.8082831986248493194580078125">
        <ele>480.399993896484375</ele>
        <time>2018-08-17T17:01:35.000Z</time>
      </trkpt>
      <trkpt lat="50.563177429139614105224609375" lon="11.8082684464752674102783203125">
        <ele>481.79998779296875</ele>
        <time>2018-08-17T17:01:37.000Z</time>
      </trkpt>
      <trkpt lat="50.5633710511028766632080078125" lon="11.80822335183620452880859375">
        <ele>482.79998779296875</ele>
        <time>2018-08-17T17:01:40.000Z</time>
      </trkpt>
      <trkpt lat="50.563552267849445343017578125" lon="11.8081475794315338134765625">
        <ele>484</ele>
        <time>2018-08-17T17:01:43.000Z</time>
      </trkpt>
      <trkpt lat="50.5637881346046924591064453125" lon="11.80805009789764881134033203125">
        <ele>485.20001220703125</ele>
        <time>2018-08-17T17:01:47.000Z</time>
      </trkpt>
      <trkpt lat="50.56402358226478099822998046875" lon="11.80797348730266094207763671875">
        <ele>486.600006103515625</ele>
        <time>2018-08-17T17:01:51.000Z</time>
      </trkpt>
      <trkpt lat="50.56432499550282955169677734375" lon="11.80793073959648609161376953125">
        <ele>487.79998779296875</ele>
        <time>2018-08-17T17:01:56.000Z</time>
      </trkpt>
      <trkpt lat="50.56463143788278102874755859375" lon="11.807932667434215545654296875">
        <ele>489</ele>
        <time>2018-08-17T17:02:01.000Z</time>
      </trkpt>
      <trkpt lat="50.5649381317198276519775390625" lon="11.80793040432035923004150390625">
        <ele>490.399993896484375</ele>
        <time>2018-08-17T17:02:06.000Z</time>
      </trkpt>
      <trkpt lat="50.56530953384935855865478515625" lon="11.8079231120645999908447265625">
        <ele>491.399993896484375</ele>
        <time>2018-08-17T17:02:12.000Z</time>
      </trkpt>
      <trkpt lat="50.56568386964499950408935546875" lon="11.8079177476465702056884765625">
        <ele>492.399993896484375</ele>
        <time>2018-08-17T17:02:18.000Z</time>
      </trkpt>
      <trkpt lat="50.5659915693104267120361328125" lon="11.80790995247662067413330078125">
        <ele>493.600006103515625</ele>
        <time>2018-08-17T17:02:23.000Z</time>
      </trkpt>
      <trkpt lat="50.5663546733558177947998046875" lon="11.80789520032703876495361328125">
        <ele>494.600006103515625</ele>
        <time>2018-08-17T17:02:29.000Z</time>
      </trkpt>
      <trkpt lat="50.56671584956347942352294921875" lon="11.807884387671947479248046875">
        <ele>495.79998779296875</ele>
        <time>2018-08-17T17:02:35.000Z</time>
      </trkpt>
      <trkpt lat="50.5670825578272342681884765625" lon="11.807881705462932586669921875">
        <ele>497</ele>
        <time>2018-08-17T17:02:41.000Z</time>
      </trkpt>
      <trkpt lat="50.5675090290606021881103515625" lon="11.80786603130400180816650390625">
        <ele>498.20001220703125</ele>
        <time>2018-08-17T17:02:48.000Z</time>
      </trkpt>
      <trkpt lat="50.5677544511854648590087890625" lon="11.80786150507628917694091796875">
        <ele>499.20001220703125</ele>
        <time>2018-08-17T17:02:52.000Z</time>
      </trkpt>
      <trkpt lat="50.5682416073977947235107421875" lon="11.80781490169465541839599609375">
        <ele>500.399993896484375</ele>
        <time>2018-08-17T17:03:00.000Z</time>
      </trkpt>
      <trkpt lat="50.56862331926822662353515625" lon="11.80766679346561431884765625">
        <ele>501.600006103515625</ele>
        <time>2018-08-17T17:03:06.000Z</time>
      </trkpt>
      <trkpt lat="50.5692006647586822509765625" lon="11.80732556618750095367431640625">
        <ele>501.600006103515625</ele>
        <time>2018-08-17T17:03:14.000Z</time>
      </trkpt>
      <trkpt lat="50.5697907507419586181640625" lon="11.8069622106850147247314453125">
        <ele>501</ele>
        <time>2018-08-17T17:03:21.000Z</time>
      </trkpt>
      <trkpt lat="50.569888651371002197265625" lon="11.80692122317850589752197265625">
        <ele>501</ele>
        <time>2018-08-17T17:03:22.000Z</time>
      </trkpt>
      <trkpt lat="50.570098198950290679931640625" lon="11.8068961612880229949951171875">
        <ele>500.399993896484375</ele>
        <time>2018-08-17T17:03:24.000Z</time>
      </trkpt>
      <trkpt lat="50.57042576372623443603515625" lon="11.8070145137608051300048828125">
        <ele>498.79998779296875</ele>
        <time>2018-08-17T17:03:27.000Z</time>
      </trkpt>
      <trkpt lat="50.57071250863373279571533203125" lon="11.80734970606863498687744140625">
        <ele>497.399993896484375</ele>
        <time>2018-08-17T17:03:30.000Z</time>
      </trkpt>
      <trkpt lat="50.5708716809749603271484375" lon="11.80765313096344470977783203125">
        <ele>496.20001220703125</ele>
        <time>2018-08-17T17:03:32.000Z</time>
      </trkpt>
      <trkpt lat="50.57103596627712249755859375" lon="11.80797147564589977264404296875">
        <ele>495</ele>
        <time>2018-08-17T17:03:34.000Z</time>
      </trkpt>
      <trkpt lat="50.57122011668980121612548828125" lon="11.80826685391366481781005859375">
        <ele>493.20001220703125</ele>
        <time>2018-08-17T17:03:36.000Z</time>
      </trkpt>
      <trkpt lat="50.57144357822835445404052734375" lon="11.80849852971732616424560546875">
        <ele>491.600006103515625</ele>
        <time>2018-08-17T17:03:38.000Z</time>
      </trkpt>
      <trkpt lat="50.57169520296156406402587890625" lon="11.80866583250463008880615234375">
        <ele>489.79998779296875</ele>
        <time>2018-08-17T17:03:40.000Z</time>
      </trkpt>
      <trkpt lat="50.571954958140850067138671875" lon="11.8088176287710666656494140625">
        <ele>487.79998779296875</ele>
        <time>2018-08-17T17:03:42.000Z</time>
      </trkpt>
      <trkpt lat="50.57221806608140468597412109375" lon="11.80896674282848834991455078125">
        <ele>485</ele>
        <time>2018-08-17T17:03:44.000Z</time>
      </trkpt>
      <trkpt lat="50.5723500810563564300537109375" lon="11.809039413928985595703125">
        <ele>484</ele>
        <time>2018-08-17T17:03:45.000Z</time>
      </trkpt>
      <trkpt lat="50.57248326949775218963623046875" lon="11.80910772643983364105224609375">
        <ele>482.79998779296875</ele>
        <time>2018-08-17T17:03:46.000Z</time>
      </trkpt>
      <trkpt lat="50.57275132276117801666259765625" lon="11.80921384133398532867431640625">
        <ele>481</ele>
        <time>2018-08-17T17:03:48.000Z</time>
      </trkpt>
      <trkpt lat="50.57288677431643009185791015625" lon="11.809248961508274078369140625">
        <ele>480</ele>
        <time>2018-08-17T17:03:49.000Z</time>
      </trkpt>
      <trkpt lat="50.57302205823361873626708984375" lon="11.8092739395797252655029296875">
        <ele>478.79998779296875</ele>
        <time>2018-08-17T17:03:50.000Z</time>
      </trkpt>
      <trkpt lat="50.5731577612459659576416015625" lon="11.80928978137671947479248046875">
        <ele>477.79998779296875</ele>
        <time>2018-08-17T17:03:51.000Z</time>
      </trkpt>
      <trkpt lat="50.57342539541423320770263671875" lon="11.80930771864950656890869140625">
        <ele>476.399993896484375</ele>
        <time>2018-08-17T17:03:53.000Z</time>
      </trkpt>
      <trkpt lat="50.5736935324966907501220703125" lon="11.8093036115169525146484375">
        <ele>474.20001220703125</ele>
        <time>2018-08-17T17:03:55.000Z</time>
      </trkpt>
      <trkpt lat="50.57382638566195964813232421875" lon="11.809281148016452789306640625">
        <ele>473.399993896484375</ele>
        <time>2018-08-17T17:03:56.000Z</time>
      </trkpt>
      <trkpt lat="50.5739589035511016845703125" lon="11.8092400766909122467041015625">
        <ele>472.600006103515625</ele>
        <time>2018-08-17T17:03:57.000Z</time>
      </trkpt>
      <trkpt lat="50.57422201149165630340576171875" lon="11.80913873948156833648681640625">
        <ele>471.20001220703125</ele>
        <time>2018-08-17T17:03:59.000Z</time>
      </trkpt>
      <trkpt lat="50.57449207641184329986572265625" lon="11.809042431414127349853515625">
        <ele>470.20001220703125</ele>
        <time>2018-08-17T17:04:01.000Z</time>
      </trkpt>
      <trkpt lat="50.57477370835840702056884765625" lon="11.80896858684718608856201171875">
        <ele>468.79998779296875</ele>
        <time>2018-08-17T17:04:03.000Z</time>
      </trkpt>
      <trkpt lat="50.57504880242049694061279296875" lon="11.80892407894134521484375">
        <ele>467.600006103515625</ele>
        <time>2018-08-17T17:04:05.000Z</time>
      </trkpt>
      <trkpt lat="50.57532104663550853729248046875" lon="11.808896921575069427490234375">
        <ele>466</ele>
        <time>2018-08-17T17:04:07.000Z</time>
      </trkpt>
      <trkpt lat="50.57557619176805019378662109375" lon="11.80883464403450489044189453125">
        <ele>464.399993896484375</ele>
        <time>2018-08-17T17:04:09.000Z</time>
      </trkpt>
      <trkpt lat="50.57569504715502262115478515625" lon="11.80878200568258762359619140625">
        <ele>463.600006103515625</ele>
        <time>2018-08-17T17:04:10.000Z</time>
      </trkpt>
      <trkpt lat="50.57580585591495037078857421875" lon="11.8087146990001201629638671875">
        <ele>461.399993896484375</ele>
        <time>2018-08-17T17:04:11.000Z</time>
      </trkpt>
      <trkpt lat="50.57580585591495037078857421875" lon="11.8087146990001201629638671875">
        <ele>460</ele>
        <time>2018-08-17T17:04:12.000Z</time>
      </trkpt>
      <trkpt lat="50.57601808570325374603271484375" lon="11.80855192244052886962890625">
        <ele>458.79998779296875</ele>
        <time>2018-08-17T17:04:13.000Z</time>
      </trkpt>
      <trkpt lat="50.576114393770694732666015625" lon="11.8084615655243396759033203125">
        <ele>457.399993896484375</ele>
        <time>2018-08-17T17:04:14.000Z</time>
      </trkpt>
      <trkpt lat="50.57620516978204250335693359375" lon="11.808378584682941436767578125">
        <ele>455.79998779296875</ele>
        <time>2018-08-17T17:04:15.000Z</time>
      </trkpt>
      <trkpt lat="50.57628781534731388092041015625" lon="11.80830180644989013671875">
        <ele>454.600006103515625</ele>
        <time>2018-08-17T17:04:16.000Z</time>
      </trkpt>
      <trkpt lat="50.5763643421232700347900390625" lon="11.80822745896875858306884765625">
        <ele>453.20001220703125</ele>
        <time>2018-08-17T17:04:17.000Z</time>
      </trkpt>
      <trkpt lat="50.576434917747974395751953125" lon="11.80815168656408786773681640625">
        <ele>452.20001220703125</ele>
        <time>2018-08-17T17:04:18.000Z</time>
      </trkpt>
      <trkpt lat="50.576579757034778594970703125" lon="11.8080022372305393218994140625">
        <ele>450.399993896484375</ele>
        <time>2018-08-17T17:04:20.000Z</time>
      </trkpt>
      <trkpt lat="50.57672115974128246307373046875" lon="11.80786385200917720794677734375">
        <ele>449</ele>
        <time>2018-08-17T17:04:22.000Z</time>
      </trkpt>
      <trkpt lat="50.57690455578267574310302734375" lon="11.80771498940885066986083984375">
        <ele>447.600006103515625</ele>
        <time>2018-08-17T17:04:25.000Z</time>
      </trkpt>
      <trkpt lat="50.57703078724443912506103515625" lon="11.80761725641787052154541015625">
        <ele>446.399993896484375</ele>
        <time>2018-08-17T17:04:28.000Z</time>
      </trkpt>
      <trkpt lat="50.57716037146747112274169921875" lon="11.807533688843250274658203125">
        <ele>445.399993896484375</ele>
        <time>2018-08-17T17:04:31.000Z</time>
      </trkpt>
      <trkpt lat="50.577207393944263458251953125" lon="11.80750644765794277191162109375">
        <ele>445</ele>
        <time>2018-08-17T17:04:32.000Z</time>
      </trkpt>
      <trkpt lat="50.5773178674280643463134765625" lon="11.80747895501554012298583984375">
        <ele>444.399993896484375</ele>
        <time>2018-08-17T17:04:34.000Z</time>
      </trkpt>
      <trkpt lat="50.57738148607313632965087890625" lon="11.8074802123010158538818359375">
        <ele>444</ele>
        <time>2018-08-17T17:04:35.000Z</time>
      </trkpt>
      <trkpt lat="50.57752464897930622100830078125" lon="11.8074711598455905914306640625">
        <ele>443.399993896484375</ele>
        <time>2018-08-17T17:04:37.000Z</time>
      </trkpt>
      <trkpt lat="50.577599667012691497802734375" lon="11.807446181774139404296875">
        <ele>442.79998779296875</ele>
        <time>2018-08-17T17:04:39.000Z</time>
      </trkpt>
      <trkpt lat="50.5777473561465740203857421875" lon="11.8073568306863307952880859375">
        <ele>442.399993896484375</ele>
        <time>2018-08-17T17:04:40.000Z</time>
      </trkpt>
      <trkpt lat="50.57805773802101612091064453125" lon="11.80715139023959636688232421875">
        <ele>441.79998779296875</ele>
        <time>2018-08-17T17:04:44.000Z</time>
      </trkpt>
      <trkpt lat="50.578132085502147674560546875" lon="11.807107888162136077880859375">
        <ele>441.399993896484375</ele>
        <time>2018-08-17T17:04:45.000Z</time>
      </trkpt>
      <trkpt lat="50.578360073268413543701171875" lon="11.80719581432640552520751953125">
        <ele>440.600006103515625</ele>
        <time>2018-08-17T17:04:48.000Z</time>
      </trkpt>
      <trkpt lat="50.57866391725838184356689453125" lon="11.80743210017681121826171875">
        <ele>439.600006103515625</ele>
        <time>2018-08-17T17:04:52.000Z</time>
      </trkpt>
      <trkpt lat="50.57906826026737689971923828125" lon="11.807756982743740081787109375">
        <ele>438.600006103515625</ele>
        <time>2018-08-17T17:04:57.000Z</time>
      </trkpt>
      <trkpt lat="50.579415522515773773193359375" lon="11.80802176706492900848388671875">
        <ele>437.600006103515625</ele>
        <time>2018-08-17T17:05:01.000Z</time>
      </trkpt>
      <trkpt lat="50.5797935463488101959228515625" lon="11.8082977831363677978515625">
        <ele>436.399993896484375</ele>
        <time>2018-08-17T17:05:05.000Z</time>
      </trkpt>
      <trkpt lat="50.57999379001557826995849609375" lon="11.8084354139864444732666015625">
        <ele>435.399993896484375</ele>
        <time>2018-08-17T17:05:07.000Z</time>
      </trkpt>
      <trkpt lat="50.580097474157810211181640625" lon="11.8084937520325183868408203125">
        <ele>435</ele>
        <time>2018-08-17T17:05:08.000Z</time>
      </trkpt>
      <trkpt lat="50.580310709774494171142578125" lon="11.808581091463565826416015625">
        <ele>433.79998779296875</ele>
        <time>2018-08-17T17:05:10.000Z</time>
      </trkpt>
      <trkpt lat="50.580518245697021484375" lon="11.80864823050796985626220703125">
        <ele>432.600006103515625</ele>
        <time>2018-08-17T17:05:13.000Z</time>
      </trkpt>
      <trkpt lat="50.58090339414775371551513671875" lon="11.8087988533079624176025390625">
        <ele>431</ele>
        <time>2018-08-17T17:05:17.000Z</time>
      </trkpt>
      <trkpt lat="50.5812359042465686798095703125" lon="11.8089017830789089202880859375">
        <ele>430</ele>
        <time>2018-08-17T17:05:20.000Z</time>
      </trkpt>
      <trkpt lat="50.58153471909463405609130859375" lon="11.80901552550494670867919921875">
        <ele>429.399993896484375</ele>
        <time>2018-08-17T17:05:32.000Z</time>
      </trkpt>
      <trkpt lat="50.5815503932535648345947265625" lon="11.809022314846515655517578125">
        <ele>429.600006103515625</ele>
        <time>2018-08-17T17:05:37.000Z</time>
      </trkpt>
      <trkpt lat="50.582107119262218475341796875" lon="11.80926614440977573394775390625">
        <ele>429.79998779296875</ele>
        <time>2018-08-17T17:05:50.000Z</time>
      </trkpt>
      <trkpt lat="50.58262553997337818145751953125" lon="11.8095771968364715576171875">
        <ele>430.399993896484375</ele>
        <time>2018-08-17T17:06:00.000Z</time>
      </trkpt>
      <trkpt lat="50.58276132680475711822509765625" lon="11.80966562591493129730224609375">
        <ele>431</ele>
        <time>2018-08-17T17:06:03.000Z</time>
      </trkpt>
      <trkpt lat="50.58284983970224857330322265625" lon="11.8097282387316226959228515625">
        <ele>431.399993896484375</ele>
        <time>2018-08-17T17:06:05.000Z</time>
      </trkpt>
      <trkpt lat="50.582976154983043670654296875" lon="11.80980644188821315765380859375">
        <ele>432.600006103515625</ele>
        <time>2018-08-17T17:06:08.000Z</time>
      </trkpt>
      <trkpt lat="50.58318126015365123748779296875" lon="11.8099213577806949615478515625">
        <ele>433.79998779296875</ele>
        <time>2018-08-17T17:06:13.000Z</time>
      </trkpt>
      <trkpt lat="50.58333179913461208343505859375" lon="11.80999754928052425384521484375">
        <ele>435</ele>
        <time>2018-08-17T17:06:17.000Z</time>
      </trkpt>
      <trkpt lat="50.5834369920194149017333984375" lon="11.81006326340138912200927734375">
        <ele>436.20001220703125</ele>
        <time>2018-08-17T17:06:20.000Z</time>
      </trkpt>
      <trkpt lat="50.583581663668155670166015625" lon="11.81014909408986568450927734375">
        <ele>437.600006103515625</ele>
        <time>2018-08-17T17:06:24.000Z</time>
      </trkpt>
      <trkpt lat="50.583719126880168914794921875" lon="11.8102177418768405914306640625">
        <ele>438.79998779296875</ele>
        <time>2018-08-17T17:06:28.000Z</time>
      </trkpt>
      <trkpt lat="50.583857260644435882568359375" lon="11.81029259227216243743896484375">
        <ele>440.20001220703125</ele>
        <time>2018-08-17T17:06:32.000Z</time>
      </trkpt>
      <trkpt lat="50.58399145491421222686767578125" lon="11.8103692866861820220947265625">
        <ele>441.399993896484375</ele>
        <time>2018-08-17T17:06:36.000Z</time>
      </trkpt>
      <trkpt lat="50.58408918790519237518310546875" lon="11.81042720563709735870361328125">
        <ele>442.399993896484375</ele>
        <time>2018-08-17T17:06:40.000Z</time>
      </trkpt>
      <trkpt lat="50.584250874817371368408203125" lon="11.81053264997899532318115234375">
        <ele>443.399993896484375</ele>
        <time>2018-08-17T17:06:44.000Z</time>
      </trkpt>
      <trkpt lat="50.58438104577362537384033203125" lon="11.81060339324176311492919921875">
        <ele>444.600006103515625</ele>
        <time>2018-08-17T17:06:48.000Z</time>
      </trkpt>
      <trkpt lat="50.58454901911318302154541015625" lon="11.81069492362439632415771484375">
        <ele>445.600006103515625</ele>
        <time>2018-08-17T17:06:53.000Z</time>
      </trkpt>
      <trkpt lat="50.58464222587645053863525390625" lon="11.81077547371387481689453125">
        <ele>446.79998779296875</ele>
        <time>2018-08-17T17:06:57.000Z</time>
      </trkpt>
      <trkpt lat="50.58482729829847812652587890625" lon="11.8108926527202129364013671875">
        <ele>448.20001220703125</ele>
        <time>2018-08-17T17:07:02.000Z</time>
      </trkpt>
      <trkpt lat="50.58497129939496517181396484375" lon="11.81098996661603450775146484375">
        <ele>449.399993896484375</ele>
        <time>2018-08-17T17:07:06.000Z</time>
      </trkpt>
      <trkpt lat="50.58520314283668994903564453125" lon="11.811096332967281341552734375">
        <ele>450.600006103515625</ele>
        <time>2018-08-17T17:07:11.000Z</time>
      </trkpt>
      <trkpt lat="50.5853939987719058990478515625" lon="11.81115693412721157073974609375">
        <ele>451.79998779296875</ele>
        <time>2018-08-17T17:07:16.000Z</time>
      </trkpt>
      <trkpt lat="50.58558552525937557220458984375" lon="11.8112299405038356781005859375">
        <ele>452.79998779296875</ele>
        <time>2018-08-17T17:07:21.000Z</time>
      </trkpt>
      <trkpt lat="50.585811249911785125732421875" lon="11.81130462326109409332275390625">
        <ele>454</ele>
        <time>2018-08-17T17:07:27.000Z</time>
      </trkpt>
      <trkpt lat="50.58600537478923797607421875" lon="11.81137301959097385406494140625">
        <ele>455</ele>
        <time>2018-08-17T17:07:32.000Z</time>
      </trkpt>
      <trkpt lat="50.58619841001927852630615234375" lon="11.8114435113966464996337890625">
        <ele>456.20001220703125</ele>
        <time>2018-08-17T17:07:37.000Z</time>
      </trkpt>
      <trkpt lat="50.58638851158320903778076171875" lon="11.8115109018981456756591796875">
        <ele>457.399993896484375</ele>
        <time>2018-08-17T17:07:42.000Z</time>
      </trkpt>
      <trkpt lat="50.58661289513111114501953125" lon="11.811588518321514129638671875">
        <ele>458.600006103515625</ele>
        <time>2018-08-17T17:07:48.000Z</time>
      </trkpt>
      <trkpt lat="50.586768127977848052978515625" lon="11.81164316833019256591796875">
        <ele>459.600006103515625</ele>
        <time>2018-08-17T17:07:52.000Z</time>
      </trkpt>
      <trkpt lat="50.58696602471172809600830078125" lon="11.81170745752751827239990234375">
        <ele>460.79998779296875</ele>
        <time>2018-08-17T17:07:57.000Z</time>
      </trkpt>
      <trkpt lat="50.5871220119297504425048828125" lon="11.8117707408964633941650390625">
        <ele>461.79998779296875</ele>
        <time>2018-08-17T17:08:01.000Z</time>
      </trkpt>
      <trkpt lat="50.58731219731271266937255859375" lon="11.8118431605398654937744140625">
        <ele>463</ele>
        <time>2018-08-17T17:08:06.000Z</time>
      </trkpt>
      <trkpt lat="50.5874995328485965728759765625" lon="11.81191097013652324676513671875">
        <ele>464</ele>
        <time>2018-08-17T17:08:11.000Z</time>
      </trkpt>
      <trkpt lat="50.587651915848255157470703125" lon="11.8119616806507110595703125">
        <ele>465</ele>
        <time>2018-08-17T17:08:15.000Z</time>
      </trkpt>
      <trkpt lat="50.58788769878447055816650390625" lon="11.81204281747341156005859375">
        <ele>466.20001220703125</ele>
        <time>2018-08-17T17:08:21.000Z</time>
      </trkpt>
      <trkpt lat="50.58812473900616168975830078125" lon="11.81212035007774829864501953125">
        <ele>467.399993896484375</ele>
        <time>2018-08-17T17:08:27.000Z</time>
      </trkpt>
      <trkpt lat="50.58828617446124553680419921875" lon="11.8121787719428539276123046875">
        <ele>468.399993896484375</ele>
        <time>2018-08-17T17:08:31.000Z</time>
      </trkpt>
      <trkpt lat="50.5885472707450389862060546875" lon="11.81226720102131366729736328125">
        <ele>469.600006103515625</ele>
        <time>2018-08-17T17:08:37.000Z</time>
      </trkpt>
      <trkpt lat="50.58872823603451251983642578125" lon="11.81232847273349761962890625">
        <ele>470.79998779296875</ele>
        <time>2018-08-17T17:08:42.000Z</time>
      </trkpt>
      <trkpt lat="50.5889549665153026580810546875" lon="11.81239812634885311126708984375">
        <ele>471.79998779296875</ele>
        <time>2018-08-17T17:08:47.000Z</time>
      </trkpt>
      <trkpt lat="50.589242465794086456298828125" lon="11.81249451823532581329345703125">
        <ele>472.79998779296875</ele>
        <time>2018-08-17T17:08:52.000Z</time>
      </trkpt>
      <trkpt lat="50.58954245410859584808349609375" lon="11.81259979493916034698486328125">
        <ele>474</ele>
        <time>2018-08-17T17:08:58.000Z</time>
      </trkpt>
      <trkpt lat="50.5899561010301113128662109375" lon="11.8127950094640254974365234375">
        <ele>475.20001220703125</ele>
        <time>2018-08-17T17:09:06.000Z</time>
      </trkpt>
      <trkpt lat="50.59030361473560333251953125" lon="11.81311980821192264556884765625">
        <ele>476.399993896484375</ele>
        <time>2018-08-17T17:09:13.000Z</time>
      </trkpt>
      <trkpt lat="50.5907441675662994384765625" lon="11.8136459402740001678466796875">
        <ele>477.399993896484375</ele>
        <time>2018-08-17T17:09:22.000Z</time>
      </trkpt>
      <trkpt lat="50.5911392904818058013916015625" lon="11.8141260556876659393310546875">
        <ele>478.399993896484375</ele>
        <time>2018-08-17T17:09:30.000Z</time>
      </trkpt>
      <trkpt lat="50.5915919132530689239501953125" lon="11.8147121183574199676513671875">
        <ele>479.20001220703125</ele>
        <time>2018-08-17T17:09:39.000Z</time>
      </trkpt>
      <trkpt lat="50.59179148636758327484130859375" lon="11.8150165490806102752685546875">
        <ele>479.399993896484375</ele>
        <time>2018-08-17T17:09:43.000Z</time>
      </trkpt>
      <trkpt lat="50.59215836226940155029296875" lon="11.81570193730294704437255859375">
        <ele>479.600006103515625</ele>
        <time>2018-08-17T17:09:51.000Z</time>
      </trkpt>
      <trkpt lat="50.592514090240001678466796875" lon="11.8164283968508243560791015625">
        <ele>479.79998779296875</ele>
        <time>2018-08-17T17:09:59.000Z</time>
      </trkpt>
      <trkpt lat="50.592881552875041961669921875" lon="11.81717522442340850830078125">
        <ele>479.600006103515625</ele>
        <time>2018-08-17T17:10:07.000Z</time>
      </trkpt>
      <trkpt lat="50.59325228445231914520263671875" lon="11.8179357983171939849853515625">
        <ele>479.600006103515625</ele>
        <time>2018-08-17T17:10:15.000Z</time>
      </trkpt>
      <trkpt lat="50.59362812899053096771240234375" lon="11.8186878226697444915771484375">
        <ele>479.600006103515625</ele>
        <time>2018-08-17T17:10:23.000Z</time>
      </trkpt>
      <trkpt lat="50.5939834378659725189208984375" lon="11.819328032433986663818359375">
        <ele>480</ele>
        <time>2018-08-17T17:10:30.000Z</time>
      </trkpt>
      <trkpt lat="50.59440630488097667694091796875" lon="11.819986514747142791748046875">
        <ele>480.20001220703125</ele>
        <time>2018-08-17T17:10:38.000Z</time>
      </trkpt>
      <trkpt lat="50.59482640586793422698974609375" lon="11.820551455020904541015625">
        <ele>480.399993896484375</ele>
        <time>2018-08-17T17:10:46.000Z</time>
      </trkpt>
      <trkpt lat="50.594983734190464019775390625" lon="11.8207418918609619140625">
        <ele>480.79998779296875</ele>
        <time>2018-08-17T17:10:49.000Z</time>
      </trkpt>
      <trkpt lat="50.59524918906390666961669921875" lon="11.82104087434709072113037109375">
        <ele>482</ele>
        <time>2018-08-17T17:10:54.000Z</time>
      </trkpt>
      <trkpt lat="50.59551791287958621978759765625" lon="11.82131898589432239532470703125">
        <ele>483.20001220703125</ele>
        <time>2018-08-17T17:10:59.000Z</time>
      </trkpt>
      <trkpt lat="50.595781691372394561767578125" lon="11.8215745501220226287841796875">
        <ele>484.399993896484375</ele>
        <time>2018-08-17T17:11:04.000Z</time>
      </trkpt>
      <trkpt lat="50.596045218408107757568359375" lon="11.821823157370090484619140625">
        <ele>485.600006103515625</ele>
        <time>2018-08-17T17:11:09.000Z</time>
      </trkpt>
      <trkpt lat="50.5963097512722015380859375" lon="11.82205575518310070037841796875">
        <ele>486.79998779296875</ele>
        <time>2018-08-17T17:11:14.000Z</time>
      </trkpt>
      <trkpt lat="50.5966522358357906341552734375" lon="11.8223512172698974609375">
        <ele>487.79998779296875</ele>
        <time>2018-08-17T17:11:20.000Z</time>
      </trkpt>
      <trkpt lat="50.597165040671825408935546875" lon="11.822794117033481597900390625">
        <ele>488</ele>
        <time>2018-08-17T17:11:28.000Z</time>
      </trkpt>
      <trkpt lat="50.5976627580821514129638671875" lon="11.823229305446147918701171875">
        <ele>487.79998779296875</ele>
        <time>2018-08-17T17:11:35.000Z</time>
      </trkpt>
      <trkpt lat="50.59820129536092281341552734375" lon="11.823706068098545074462890625">
        <ele>487.20001220703125</ele>
        <time>2018-08-17T17:11:42.000Z</time>
      </trkpt>
      <trkpt lat="50.5984422750771045684814453125" lon="11.82391637004911899566650390625">
        <ele>486.600006103515625</ele>
        <time>2018-08-17T17:11:45.000Z</time>
      </trkpt>
      <trkpt lat="50.59894577600061893463134765625" lon="11.8243251554667949676513671875">
        <ele>485.600006103515625</ele>
        <time>2018-08-17T17:11:51.000Z</time>
      </trkpt>
      <trkpt lat="50.59903412126004695892333984375" lon="11.8243855051696300506591796875">
        <ele>485.600006103515625</ele>
        <time>2018-08-17T17:11:52.000Z</time>
      </trkpt>
      <trkpt lat="50.5995941162109375" lon="11.8246875889599323272705078125">
        <ele>484.600006103515625</ele>
        <time>2018-08-17T17:11:58.000Z</time>
      </trkpt>
      <trkpt lat="50.59969143010675907135009765625" lon="11.82472824119031429290771484375">
        <ele>484.399993896484375</ele>
        <time>2018-08-17T17:11:59.000Z</time>
      </trkpt>
      <trkpt lat="50.60018579475581645965576171875" lon="11.8248890899121761322021484375">
        <ele>483.600006103515625</ele>
        <time>2018-08-17T17:12:04.000Z</time>
      </trkpt>
      <trkpt lat="50.60057915747165679931640625" lon="11.82495497167110443115234375">
        <ele>482.399993896484375</ele>
        <time>2018-08-17T17:12:08.000Z</time>
      </trkpt>
      <trkpt lat="50.60094167478382587432861328125" lon="11.82495153509080410003662109375">
        <ele>481.399993896484375</ele>
        <time>2018-08-17T17:12:12.000Z</time>
      </trkpt>
      <trkpt lat="50.60118307359516620635986328125" lon="11.82492068968713283538818359375">
        <ele>480.20001220703125</ele>
        <time>2018-08-17T17:12:16.000Z</time>
      </trkpt>
      <trkpt lat="50.601252727210521697998046875" lon="11.82489135302603244781494140625">
        <ele>480.20001220703125</ele>
        <time>2018-08-17T17:12:17.000Z</time>
      </trkpt>
      <trkpt lat="50.6013308465480804443359375" lon="11.8244743533432483673095703125">
        <ele>479.600006103515625</ele>
        <time>2018-08-17T17:12:23.000Z</time>
      </trkpt>
      <trkpt lat="50.60129907913506031036376953125" lon="11.82430545799434185028076171875">
        <ele>479.600006103515625</ele>
        <time>2018-08-17T17:12:24.000Z</time>
      </trkpt>
      <trkpt lat="50.6014542281627655029296875" lon="11.8241689167916774749755859375">
        <ele>479.20001220703125</ele>
        <time>2018-08-17T17:12:28.000Z</time>
      </trkpt>
      <trkpt lat="50.601984970271587371826171875" lon="11.82391067035496234893798828125">
        <ele>479.20001220703125</ele>
        <time>2018-08-17T17:12:38.000Z</time>
      </trkpt>
      <trkpt lat="50.60250322334468364715576171875" lon="11.8236086703836917877197265625">
        <ele>479.600006103515625</ele>
        <time>2018-08-17T17:12:47.000Z</time>
      </trkpt>
      <trkpt lat="50.60304938815534114837646484375" lon="11.823262162506580352783203125">
        <ele>480.20001220703125</ele>
        <time>2018-08-17T17:12:57.000Z</time>
      </trkpt>
      <trkpt lat="50.603153742849826812744140625" lon="11.82323626242578029632568359375">
        <ele>480.399993896484375</ele>
        <time>2018-08-17T17:12:59.000Z</time>
      </trkpt>
      <trkpt lat="50.60334610752761363983154296875" lon="11.82338797487318515777587890625">
        <ele>480.600006103515625</ele>
        <time>2018-08-17T17:13:03.000Z</time>
      </trkpt>
      <trkpt lat="50.6035973131656646728515625" lon="11.82366441003978252410888671875">
        <ele>480.79998779296875</ele>
        <time>2018-08-17T17:13:09.000Z</time>
      </trkpt>
      <trkpt lat="50.60414574109017848968505859375" lon="11.82351487688720226287841796875">
        <ele>480.79998779296875</ele>
        <time>2018-08-17T17:13:16.000Z</time>
      </trkpt>
      <trkpt lat="50.60474060475826263427734375" lon="11.82326115667819976806640625">
        <ele>480.399993896484375</ele>
        <time>2018-08-17T17:13:24.000Z</time>
      </trkpt>
      <trkpt lat="50.605284087359905242919921875" lon="11.823097206652164459228515625">
        <ele>479.600006103515625</ele>
        <time>2018-08-17T17:13:32.000Z</time>
      </trkpt>
      <trkpt lat="50.605831257998943328857421875" lon="11.82303140871226787567138671875">
        <ele>479.20001220703125</ele>
        <time>2018-08-17T17:13:38.000Z</time>
      </trkpt>
      <trkpt lat="50.60640634037554264068603515625" lon="11.82309293188154697418212890625">
        <ele>478.600006103515625</ele>
        <time>2018-08-17T17:13:45.000Z</time>
      </trkpt>
      <trkpt lat="50.60665662400424480438232421875" lon="11.82317842729389667510986328125">
        <ele>478.20001220703125</ele>
        <time>2018-08-17T17:13:48.000Z</time>
      </trkpt>
      <trkpt lat="50.6072285212576389312744140625" lon="11.82347699068486690521240234375">
        <ele>477.20001220703125</ele>
        <time>2018-08-17T17:13:55.000Z</time>
      </trkpt>
      <trkpt lat="50.6077438406646251678466796875" lon="11.82387546636164188385009765625">
        <ele>476.600006103515625</ele>
        <time>2018-08-17T17:14:02.000Z</time>
      </trkpt>
      <trkpt lat="50.6082383729517459869384765625" lon="11.8242829106748104095458984375">
        <ele>476.79998779296875</ele>
        <time>2018-08-17T17:14:09.000Z</time>
      </trkpt>
      <trkpt lat="50.6087939254939556121826171875" lon="11.82468163780868053436279296875">
        <ele>476.79998779296875</ele>
        <time>2018-08-17T17:14:17.000Z</time>
      </trkpt>
      <trkpt lat="50.60946824960410594940185546875" lon="11.8249306641519069671630859375">
        <ele>476.79998779296875</ele>
        <time>2018-08-17T17:14:26.000Z</time>
      </trkpt>
      <trkpt lat="50.6100233830511569976806640625" lon="11.82491498999297618865966796875">
        <ele>476.600006103515625</ele>
        <time>2018-08-17T17:14:34.000Z</time>
      </trkpt>
      <trkpt lat="50.6101980619132518768310546875" lon="11.82487525977194309234619140625">
        <ele>475.79998779296875</ele>
        <time>2018-08-17T17:14:37.000Z</time>
      </trkpt>
      <trkpt lat="50.61024206690490245819091796875" lon="11.8248693086206912994384765625">
        <ele>475.600006103515625</ele>
        <time>2018-08-17T17:14:38.000Z</time>
      </trkpt>
      <trkpt lat="50.6104193441569805145263671875" lon="11.82496947236359119415283203125">
        <ele>475</ele>
        <time>2018-08-17T17:14:42.000Z</time>
      </trkpt>
      <trkpt lat="50.61046351678669452667236328125" lon="11.82498715817928314208984375">
        <ele>474.399993896484375</ele>
        <time>2018-08-17T17:14:44.000Z</time>
      </trkpt>
      <trkpt lat="50.61093005351722240447998046875" lon="11.8247844837605953216552734375">
        <ele>473.79998779296875</ele>
        <time>2018-08-17T17:14:51.000Z</time>
      </trkpt>
      <trkpt lat="50.6114709377288818359375" lon="11.82436865754425525665283203125">
        <ele>473.79998779296875</ele>
        <time>2018-08-17T17:14:59.000Z</time>
      </trkpt>
      <trkpt lat="50.611997656524181365966796875" lon="11.82399029843509197235107421875">
        <ele>473.399993896484375</ele>
        <time>2018-08-17T17:15:06.000Z</time>
      </trkpt>
      <trkpt lat="50.6125439889729022979736328125" lon="11.8236204050481319427490234375">
        <ele>472.79998779296875</ele>
        <time>2018-08-17T17:15:13.000Z</time>
      </trkpt>
      <trkpt lat="50.6126211024820804595947265625" lon="11.823567263782024383544921875">
        <ele>472.79998779296875</ele>
        <time>2018-08-17T17:15:14.000Z</time>
      </trkpt>
      <trkpt lat="50.61317212879657745361328125" lon="11.82318982668220996856689453125">
        <ele>472.399993896484375</ele>
        <time>2018-08-17T17:15:21.000Z</time>
      </trkpt>
      <trkpt lat="50.61363824643194675445556640625" lon="11.82286963798105716705322265625">
        <ele>471.79998779296875</ele>
        <time>2018-08-17T17:15:28.000Z</time>
      </trkpt>
      <trkpt lat="50.6141794659197330474853515625" lon="11.8225012533366680145263671875">
        <ele>471.20001220703125</ele>
        <time>2018-08-17T17:15:35.000Z</time>
      </trkpt>
      <trkpt lat="50.61472554691135883331298828125" lon="11.822136305272579193115234375">
        <ele>470.79998779296875</ele>
        <time>2018-08-17T17:15:42.000Z</time>
      </trkpt>
      <trkpt lat="50.614884383976459503173828125" lon="11.82203077711164951324462890625">
        <ele>470.79998779296875</ele>
        <time>2018-08-17T17:15:44.000Z</time>
      </trkpt>
      <trkpt lat="50.6154330633580684661865234375" lon="11.82166121900081634521484375">
        <ele>470.600006103515625</ele>
        <time>2018-08-17T17:15:51.000Z</time>
      </trkpt>
      <trkpt lat="50.61598031781613826751708984375" lon="11.821310184895992279052734375">
        <ele>470.600006103515625</ele>
        <time>2018-08-17T17:15:58.000Z</time>
      </trkpt>
      <trkpt lat="50.61651743017137050628662109375" lon="11.82094817049801349639892578125">
        <ele>470</ele>
        <time>2018-08-17T17:16:05.000Z</time>
      </trkpt>
      <trkpt lat="50.61659521423280239105224609375" lon="11.8208966217935085296630859375">
        <ele>470</ele>
        <time>2018-08-17T17:16:06.000Z</time>
      </trkpt>
      <trkpt lat="50.61714087612926959991455078125" lon="11.82050761766731739044189453125">
        <ele>469.600006103515625</ele>
        <time>2018-08-17T17:16:13.000Z</time>
      </trkpt>
      <trkpt lat="50.6176896393299102783203125" lon="11.8201358802616596221923828125">
        <ele>469.20001220703125</ele>
        <time>2018-08-17T17:16:20.000Z</time>
      </trkpt>
      <trkpt lat="50.61823504976928234100341796875" lon="11.81977093219757080078125">
        <ele>469</ele>
        <time>2018-08-17T17:16:26.000Z</time>
      </trkpt>
      <trkpt lat="50.61876713298261165618896484375" lon="11.81941411457955837249755859375">
        <ele>469</ele>
        <time>2018-08-17T17:16:34.000Z</time>
      </trkpt>
      <trkpt lat="50.619284547865390777587890625" lon="11.81906676851212978363037109375">
        <ele>469.20001220703125</ele>
        <time>2018-08-17T17:16:41.000Z</time>
      </trkpt>
      <trkpt lat="50.6198231689631938934326171875" lon="11.81870031170547008514404296875">
        <ele>469.79998779296875</ele>
        <time>2018-08-17T17:16:48.000Z</time>
      </trkpt>
      <trkpt lat="50.62037863768637180328369140625" lon="11.8183238804340362548828125">
        <ele>469.79998779296875</ele>
        <time>2018-08-17T17:16:54.000Z</time>
      </trkpt>
      <trkpt lat="50.620923377573490142822265625" lon="11.81795566342771053314208984375">
        <ele>469.399993896484375</ele>
        <time>2018-08-17T17:17:01.000Z</time>
      </trkpt>
      <trkpt lat="50.621232502162456512451171875" lon="11.81774762459099292755126953125">
        <ele>469.20001220703125</ele>
        <time>2018-08-17T17:17:05.000Z</time>
      </trkpt>
      <trkpt lat="50.62176986597478389739990234375" lon="11.81738519109785556793212890625">
        <ele>468.600006103515625</ele>
        <time>2018-08-17T17:17:12.000Z</time>
      </trkpt>
      <trkpt lat="50.622315444052219390869140625" lon="11.81701990775763988494873046875">
        <ele>468.20001220703125</ele>
        <time>2018-08-17T17:17:19.000Z</time>
      </trkpt>
      <trkpt lat="50.6224691681563854217529296875" lon="11.81691764853894710540771484375">
        <ele>468</ele>
        <time>2018-08-17T17:17:21.000Z</time>
      </trkpt>
      <trkpt lat="50.6229978986084461212158203125" lon="11.8165598250925540924072265625">
        <ele>467.79998779296875</ele>
        <time>2018-08-17T17:17:28.000Z</time>
      </trkpt>
      <trkpt lat="50.6234988011419773101806640625" lon="11.8162211962044239044189453125">
        <ele>467.79998779296875</ele>
        <time>2018-08-17T17:17:35.000Z</time>
      </trkpt>
      <trkpt lat="50.62383935786783695220947265625" lon="11.8159958906471729278564453125">
        <ele>468</ele>
        <time>2018-08-17T17:17:40.000Z</time>
      </trkpt>
      <trkpt lat="50.62435534782707691192626953125" lon="11.81564326398074626922607421875">
        <ele>469</ele>
        <time>2018-08-17T17:17:48.000Z</time>
      </trkpt>
      <trkpt lat="50.62441729009151458740234375" lon="11.81560135446488857269287109375">
        <ele>469.20001220703125</ele>
        <time>2018-08-17T17:17:49.000Z</time>
      </trkpt>
      <trkpt lat="50.62478232197463512420654296875" lon="11.81536205112934112548828125">
        <ele>470.399993896484375</ele>
        <time>2018-08-17T17:17:55.000Z</time>
      </trkpt>
      <trkpt lat="50.6250618584454059600830078125" lon="11.81517287157475948333740234375">
        <ele>471.600006103515625</ele>
        <time>2018-08-17T17:18:00.000Z</time>
      </trkpt>
      <trkpt lat="50.6253258883953094482421875" lon="11.81499148719012737274169921875">
        <ele>472.79998779296875</ele>
        <time>2018-08-17T17:18:05.000Z</time>
      </trkpt>
      <trkpt lat="50.6255372799932956695556640625" lon="11.814850084483623504638671875">
        <ele>474</ele>
        <time>2018-08-17T17:18:09.000Z</time>
      </trkpt>
      <trkpt lat="50.6259091012179851531982421875" lon="11.81459552608430385589599609375">
        <ele>475.20001220703125</ele>
        <time>2018-08-17T17:18:16.000Z</time>
      </trkpt>
      <trkpt lat="50.62618981115520000457763671875" lon="11.81442587636411190032958984375">
        <ele>476.20001220703125</ele>
        <time>2018-08-17T17:18:21.000Z</time>
      </trkpt>
      <trkpt lat="50.6264713592827320098876953125" lon="11.8142863176763057708740234375">
        <ele>477.399993896484375</ele>
        <time>2018-08-17T17:18:26.000Z</time>
      </trkpt>
      <trkpt lat="50.626700185239315032958984375" lon="11.8142045103013515472412109375">
        <ele>478.600006103515625</ele>
        <time>2018-08-17T17:18:30.000Z</time>
      </trkpt>
      <trkpt lat="50.6269363872706890106201171875" lon="11.8141503632068634033203125">
        <ele>479.399993896484375</ele>
        <time>2018-08-17T17:18:34.000Z</time>
      </trkpt>
      <trkpt lat="50.62734014354646205902099609375" lon="11.8141032569110393524169921875">
        <ele>480.600006103515625</ele>
        <time>2018-08-17T17:18:41.000Z</time>
      </trkpt>
      <trkpt lat="50.62763351015746593475341796875" lon="11.8141129799187183380126953125">
        <ele>481.79998779296875</ele>
        <time>2018-08-17T17:18:46.000Z</time>
      </trkpt>
      <trkpt lat="50.6279284693300724029541015625" lon="11.81413938291370868682861328125">
        <ele>482.600006103515625</ele>
        <time>2018-08-17T17:18:51.000Z</time>
      </trkpt>
      <trkpt lat="50.62823415733873844146728515625" lon="11.8141964636743068695068359375">
        <ele>484</ele>
        <time>2018-08-17T17:18:56.000Z</time>
      </trkpt>
      <trkpt lat="50.6286087445914745330810546875" lon="11.81426058523356914520263671875">
        <ele>485.20001220703125</ele>
        <time>2018-08-17T17:19:02.000Z</time>
      </trkpt>
      <trkpt lat="50.6290016882121562957763671875" lon="11.81432160548865795135498046875">
        <ele>486.20001220703125</ele>
        <time>2018-08-17T17:19:08.000Z</time>
      </trkpt>
      <trkpt lat="50.62954508699476718902587890625" lon="11.81441078893840312957763671875">
        <ele>487.399993896484375</ele>
        <time>2018-08-17T17:19:16.000Z</time>
      </trkpt>
      <trkpt lat="50.63011002726852893829345703125" lon="11.814504750072956085205078125">
        <ele>488.20001220703125</ele>
        <time>2018-08-17T17:19:24.000Z</time>
      </trkpt>
      <trkpt lat="50.63018294982612133026123046875" lon="11.814516149461269378662109375">
        <ele>488.399993896484375</ele>
        <time>2018-08-17T17:19:25.000Z</time>
      </trkpt>
      <trkpt lat="50.63076876103878021240234375" lon="11.81461178697645664215087890625">
        <ele>488.79998779296875</ele>
        <time>2018-08-17T17:19:33.000Z</time>
      </trkpt>
      <trkpt lat="50.6313687376677989959716796875" lon="11.8147107772529125213623046875">
        <ele>488.79998779296875</ele>
        <time>2018-08-17T17:19:42.000Z</time>
      </trkpt>
      <trkpt lat="50.63198287971317768096923828125" lon="11.81480658240616321563720703125">
        <ele>488.79998779296875</ele>
        <time>2018-08-17T17:19:50.000Z</time>
      </trkpt>
      <trkpt lat="50.63256181776523590087890625" lon="11.8148986995220184326171875">
        <ele>487.79998779296875</ele>
        <time>2018-08-17T17:19:56.000Z</time>
      </trkpt>
      <trkpt lat="50.6330104172229766845703125" lon="11.8149738013744354248046875">
        <ele>487.20001220703125</ele>
        <time>2018-08-17T17:20:01.000Z</time>
      </trkpt>
      <trkpt lat="50.63348256982862949371337890625" lon="11.81505435146391391754150390625">
        <ele>486.20001220703125</ele>
        <time>2018-08-17T17:20:06.000Z</time>
      </trkpt>
      <trkpt lat="50.63394877128303050994873046875" lon="11.81512827984988689422607421875">
        <ele>485</ele>
        <time>2018-08-17T17:20:11.000Z</time>
      </trkpt>
      <trkpt lat="50.6343148089945316314697265625" lon="11.81518946774303913116455078125">
        <ele>484.20001220703125</ele>
        <time>2018-08-17T17:20:15.000Z</time>
      </trkpt>
      <trkpt lat="50.634937249124050140380859375" lon="11.81528921239078044891357421875">
        <ele>483.399993896484375</ele>
        <time>2018-08-17T17:20:22.000Z</time>
      </trkpt>
      <trkpt lat="50.6351094134151935577392578125" lon="11.81531620211899280548095703125">
        <ele>483.20001220703125</ele>
        <time>2018-08-17T17:20:24.000Z</time>
      </trkpt>
      <trkpt lat="50.6356911174952983856201171875" lon="11.8153930641710758209228515625">
        <ele>482.79998779296875</ele>
        <time>2018-08-17T17:20:31.000Z</time>
      </trkpt>
      <trkpt lat="50.6363214366137981414794921875" lon="11.8154088221490383148193359375">
        <ele>483</ele>
        <time>2018-08-17T17:20:39.000Z</time>
      </trkpt>
      <trkpt lat="50.63686408102512359619140625" lon="11.8153424374759197235107421875">
        <ele>483.399993896484375</ele>
        <time>2018-08-17T17:20:46.000Z</time>
      </trkpt>
      <trkpt lat="50.6374576874077320098876953125" lon="11.81517421267926692962646484375">
        <ele>484</ele>
        <time>2018-08-17T17:20:54.000Z</time>
      </trkpt>
      <trkpt lat="50.63774409703910350799560546875" lon="11.81505166925489902496337890625">
        <ele>484.20001220703125</ele>
        <time>2018-08-17T17:20:58.000Z</time>
      </trkpt>
      <trkpt lat="50.638295710086822509765625" lon="11.81473332457244396209716796875">
        <ele>484.79998779296875</ele>
        <time>2018-08-17T17:21:06.000Z</time>
      </trkpt>
      <trkpt lat="50.6388158909976482391357421875" lon="11.8143409676849842071533203125">
        <ele>485.600006103515625</ele>
        <time>2018-08-17T17:21:14.000Z</time>
      </trkpt>
      <trkpt lat="50.63929642550647258758544921875" lon="11.81392597965896129608154296875">
        <ele>486.79998779296875</ele>
        <time>2018-08-17T17:21:22.000Z</time>
      </trkpt>
      <trkpt lat="50.639767907559871673583984375" lon="11.81348794139921665191650390625">
        <ele>487.399993896484375</ele>
        <time>2018-08-17T17:21:30.000Z</time>
      </trkpt>
      <trkpt lat="50.6399464420974254608154296875" lon="11.813321225345134735107421875">
        <ele>487.79998779296875</ele>
        <time>2018-08-17T17:21:33.000Z</time>
      </trkpt>
      <trkpt lat="50.64043133519589900970458984375" lon="11.81286600418388843536376953125">
        <ele>488.600006103515625</ele>
        <time>2018-08-17T17:21:41.000Z</time>
      </trkpt>
      <trkpt lat="50.6406159885227680206298828125" lon="11.81269199587404727935791015625">
        <ele>488.79998779296875</ele>
        <time>2018-08-17T17:21:44.000Z</time>
      </trkpt>
      <trkpt lat="50.6410991214215755462646484375" lon="11.81224239058792591094970703125">
        <ele>489.600006103515625</ele>
        <time>2018-08-17T17:21:52.000Z</time>
      </trkpt>
      <trkpt lat="50.64121730625629425048828125" lon="11.81213778443634510040283203125">
        <ele>489.79998779296875</ele>
        <time>2018-08-17T17:21:54.000Z</time>
      </trkpt>
      <trkpt lat="50.641699098050594329833984375" lon="11.8117543123662471771240234375">
        <ele>490.79998779296875</ele>
        <time>2018-08-17T17:22:02.000Z</time>
      </trkpt>
      <trkpt lat="50.6417622976005077362060546875" lon="11.81171047501266002655029296875">
        <ele>491</ele>
        <time>2018-08-17T17:22:03.000Z</time>
      </trkpt>
      <trkpt lat="50.64214442856609821319580078125" lon="11.8114842474460601806640625">
        <ele>492</ele>
        <time>2018-08-17T17:22:09.000Z</time>
      </trkpt>
      <trkpt lat="50.64259721897542476654052734375" lon="11.8112919665873050689697265625">
        <ele>493.20001220703125</ele>
        <time>2018-08-17T17:22:16.000Z</time>
      </trkpt>
      <trkpt lat="50.6429857201874256134033203125" lon="11.81120253168046474456787109375">
        <ele>494.399993896484375</ele>
        <time>2018-08-17T17:22:22.000Z</time>
      </trkpt>
      <trkpt lat="50.64304833300411701202392578125" lon="11.81120370514690876007080078125">
        <ele>494.600006103515625</ele>
        <time>2018-08-17T17:22:23.000Z</time>
      </trkpt>
      <trkpt lat="50.64326140098273754119873046875" lon="11.81134200654923915863037109375">
        <ele>495.399993896484375</ele>
        <time>2018-08-17T17:22:27.000Z</time>
      </trkpt>
      <trkpt lat="50.6433129496872425079345703125" lon="11.81137419305741786956787109375">
        <ele>495.600006103515625</ele>
        <time>2018-08-17T17:22:28.000Z</time>
      </trkpt>
      <trkpt lat="50.6435717828571796417236328125" lon="11.81128643453121185302734375">
        <ele>496.399993896484375</ele>
        <time>2018-08-17T17:22:33.000Z</time>
      </trkpt>
      <trkpt lat="50.6436294503509998321533203125" lon="11.8112430162727832794189453125">
        <ele>496.600006103515625</ele>
        <time>2018-08-17T17:22:34.000Z</time>
      </trkpt>
      <trkpt lat="50.6438980065286159515380859375" lon="11.81120504625141620635986328125">
        <ele>497.399993896484375</ele>
        <time>2018-08-17T17:22:38.000Z</time>
      </trkpt>
      <trkpt lat="50.64403521828353404998779296875" lon="11.8112332932651042938232421875">
        <ele>497.79998779296875</ele>
        <time>2018-08-17T17:22:40.000Z</time>
      </trkpt>
      <trkpt lat="50.64459194429218769073486328125" lon="11.81140772067010402679443359375">
        <ele>498.600006103515625</ele>
        <time>2018-08-17T17:22:49.000Z</time>
      </trkpt>
      <trkpt lat="50.64470694400370121002197265625" lon="11.8114582635462284088134765625">
        <ele>499</ele>
        <time>2018-08-17T17:22:51.000Z</time>
      </trkpt>
      <trkpt lat="50.64523257315158843994140625" lon="11.8117586709558963775634765625">
        <ele>500</ele>
        <time>2018-08-17T17:23:00.000Z</time>
      </trkpt>
      <trkpt lat="50.64555468969047069549560546875" lon="11.81201809085905551910400390625">
        <ele>501</ele>
        <time>2018-08-17T17:23:06.000Z</time>
      </trkpt>
      <trkpt lat="50.64580765552818775177001953125" lon="11.8122572265565395355224609375">
        <ele>502.20001220703125</ele>
        <time>2018-08-17T17:23:11.000Z</time>
      </trkpt>
      <trkpt lat="50.6460092402994632720947265625" lon="11.8124788440763950347900390625">
        <ele>503.399993896484375</ele>
        <time>2018-08-17T17:23:15.000Z</time>
      </trkpt>
      <trkpt lat="50.64631543122231960296630859375" lon="11.81284320540726184844970703125">
        <ele>504.600006103515625</ele>
        <time>2018-08-17T17:23:21.000Z</time>
      </trkpt>
      <trkpt lat="50.64678423106670379638671875" lon="11.81345273740589618682861328125">
        <ele>505.79998779296875</ele>
        <time>2018-08-17T17:23:30.000Z</time>
      </trkpt>
      <trkpt lat="50.64722604118287563323974609375" lon="11.81404483504593372344970703125">
        <ele>506.600006103515625</ele>
        <time>2018-08-17T17:23:38.000Z</time>
      </trkpt>
      <trkpt lat="50.64733969978988170623779296875" lon="11.81419705040752887725830078125">
        <ele>506.79998779296875</ele>
        <time>2018-08-17T17:23:40.000Z</time>
      </trkpt>
      <trkpt lat="50.6478120200335979461669921875" lon="11.81479074060916900634765625">
        <ele>506.600006103515625</ele>
        <time>2018-08-17T17:23:48.000Z</time>
      </trkpt>
      <trkpt lat="50.64827092923223972320556640625" lon="11.8152795732021331787109375">
        <ele>506.399993896484375</ele>
        <time>2018-08-17T17:23:55.000Z</time>
      </trkpt>
      <trkpt lat="50.64878021366894245147705078125" lon="11.81570210494101047515869140625">
        <ele>506.20001220703125</ele>
        <time>2018-08-17T17:24:02.000Z</time>
      </trkpt>
      <trkpt lat="50.64893075264990329742431640625" lon="11.8158128298819065093994140625">
        <ele>505.600006103515625</ele>
        <time>2018-08-17T17:24:04.000Z</time>
      </trkpt>
      <trkpt lat="50.64948194660246372222900390625" lon="11.8161293305456638336181640625">
        <ele>505.20001220703125</ele>
        <time>2018-08-17T17:24:11.000Z</time>
      </trkpt>
      <trkpt lat="50.6500690989196300506591796875" lon="11.81632488034665584564208984375">
        <ele>504.79998779296875</ele>
        <time>2018-08-17T17:24:18.000Z</time>
      </trkpt>
      <trkpt lat="50.65042390488088130950927734375" lon="11.81637248955667018890380859375">
        <ele>504.600006103515625</ele>
        <time>2018-08-17T17:24:22.000Z</time>
      </trkpt>
      <trkpt lat="50.65096420235931873321533203125" lon="11.8164045922458171844482421875">
        <ele>504.20001220703125</ele>
        <time>2018-08-17T17:24:28.000Z</time>
      </trkpt>
      <trkpt lat="50.6515064276754856109619140625" lon="11.8163801170885562896728515625">
        <ele>503.79998779296875</ele>
        <time>2018-08-17T17:24:34.000Z</time>
      </trkpt>
      <trkpt lat="50.65196734853088855743408203125" lon="11.8163110502064228057861328125">
        <ele>503.600006103515625</ele>
        <time>2018-08-17T17:24:39.000Z</time>
      </trkpt>
      <trkpt lat="50.6525261700153350830078125" lon="11.81617920286953449249267578125">
        <ele>503</ele>
        <time>2018-08-17T17:24:45.000Z</time>
      </trkpt>
      <trkpt lat="50.65308532677590847015380859375" lon="11.81599983014166355133056640625">
        <ele>502.600006103515625</ele>
        <time>2018-08-17T17:24:51.000Z</time>
      </trkpt>
      <trkpt lat="50.65327174030244350433349609375" lon="11.81593394838273525238037109375">
        <ele>502.399993896484375</ele>
        <time>2018-08-17T17:24:53.000Z</time>
      </trkpt>
      <trkpt lat="50.653828047215938568115234375" lon="11.815715096890926361083984375">
        <ele>501.79998779296875</ele>
        <time>2018-08-17T17:24:59.000Z</time>
      </trkpt>
      <trkpt lat="50.65401270054280757904052734375" lon="11.81563429534435272216796875">
        <ele>501.399993896484375</ele>
        <time>2018-08-17T17:25:01.000Z</time>
      </trkpt>
      <trkpt lat="50.65455819480121135711669921875" lon="11.81537202559411525726318359375">
        <ele>500.399993896484375</ele>
        <time>2018-08-17T17:25:07.000Z</time>
      </trkpt>
      <trkpt lat="50.65464704297482967376708984375" lon="11.81532609276473522186279296875">
        <ele>500.20001220703125</ele>
        <time>2018-08-17T17:25:08.000Z</time>
      </trkpt>
      <trkpt lat="50.65516906790435314178466796875" lon="11.81503473781049251556396484375">
        <ele>499.600006103515625</ele>
        <time>2018-08-17T17:25:14.000Z</time>
      </trkpt>
      <trkpt lat="50.65573954023420810699462890625" lon="11.8146819435060024261474609375">
        <ele>499.600006103515625</ele>
        <time>2018-08-17T17:25:21.000Z</time>
      </trkpt>
      <trkpt lat="50.65626709721982479095458984375" lon="11.81432059966027736663818359375">
        <ele>500</ele>
        <time>2018-08-17T17:25:28.000Z</time>
      </trkpt>
      <trkpt lat="50.6567645631730556488037109375" lon="11.8139116466045379638671875">
        <ele>500.79998779296875</ele>
        <time>2018-08-17T17:25:35.000Z</time>
      </trkpt>
      <trkpt lat="50.656972266733646392822265625" lon="11.81372229941189289093017578125">
        <ele>501.399993896484375</ele>
        <time>2018-08-17T17:25:38.000Z</time>
      </trkpt>
      <trkpt lat="50.6574475206434726715087890625" lon="11.8132409267127513885498046875">
        <ele>502.20001220703125</ele>
        <time>2018-08-17T17:25:45.000Z</time>
      </trkpt>
      <trkpt lat="50.65758339129388332366943359375" lon="11.81309290230274200439453125">
        <ele>502.399993896484375</ele>
        <time>2018-08-17T17:25:47.000Z</time>
      </trkpt>
      <trkpt lat="50.65804188139736652374267578125" lon="11.8125544488430023193359375">
        <ele>503.20001220703125</ele>
        <time>2018-08-17T17:25:54.000Z</time>
      </trkpt>
      <trkpt lat="50.65849835984408855438232421875" lon="11.8120024167001247406005859375">
        <ele>503.399993896484375</ele>
        <time>2018-08-17T17:26:01.000Z</time>
      </trkpt>
      <trkpt lat="50.658971183001995086669921875" lon="11.81145139038562774658203125">
        <ele>503.399993896484375</ele>
        <time>2018-08-17T17:26:08.000Z</time>
      </trkpt>
      <trkpt lat="50.6593133322894573211669921875" lon="11.81105551309883594512939453125">
        <ele>503.600006103515625</ele>
        <time>2018-08-17T17:26:13.000Z</time>
      </trkpt>
      <trkpt lat="50.659858994185924530029296875" lon="11.81041044183075428009033203125">
        <ele>503.79998779296875</ele>
        <time>2018-08-17T17:26:21.000Z</time>
      </trkpt>
      <trkpt lat="50.66035981290042400360107421875" lon="11.8098400533199310302734375">
        <ele>504.20001220703125</ele>
        <time>2018-08-17T17:26:28.000Z</time>
      </trkpt>
      <trkpt lat="50.6608153693377971649169921875" lon="11.80930419825017452239990234375">
        <ele>504</ele>
        <time>2018-08-17T17:26:34.000Z</time>
      </trkpt>
      <trkpt lat="50.66131015308201313018798828125" lon="11.80871285498142242431640625">
        <ele>503</ele>
        <time>2018-08-17T17:26:40.000Z</time>
      </trkpt>
      <trkpt lat="50.66155088134109973907470703125" lon="11.80843231268227100372314453125">
        <ele>502.20001220703125</ele>
        <time>2018-08-17T17:26:43.000Z</time>
      </trkpt>
      <trkpt lat="50.66183544695377349853515625" lon="11.80809888057410717010498046875">
        <ele>501</ele>
        <time>2018-08-17T17:26:47.000Z</time>
      </trkpt>
      <trkpt lat="50.6623060069978237152099609375" lon="11.8075482733547687530517578125">
        <ele>500.79998779296875</ele>
        <time>2018-08-17T17:26:55.000Z</time>
      </trkpt>
      <trkpt lat="50.66245260648429393768310546875" lon="11.80739278905093669891357421875">
        <ele>501.20001220703125</ele>
        <time>2018-08-17T17:26:58.000Z</time>
      </trkpt>
      <trkpt lat="50.66256559453904628753662109375" lon="11.8074061162769794464111328125">
        <ele>502.20001220703125</ele>
        <time>2018-08-17T17:27:00.000Z</time>
      </trkpt>
      <trkpt lat="50.6626702845096588134765625" lon="11.8075117282569408416748046875">
        <ele>502.600006103515625</ele>
        <time>2018-08-17T17:27:02.000Z</time>
      </trkpt>
      <trkpt lat="50.66277153789997100830078125" lon="11.80763301439583301544189453125">
        <ele>503.20001220703125</ele>
        <time>2018-08-17T17:27:04.000Z</time>
      </trkpt>
      <trkpt lat="50.66323757171630859375" lon="11.80813844315707683563232421875">
        <ele>503.79998779296875</ele>
        <time>2018-08-17T17:27:12.000Z</time>
      </trkpt>
      <trkpt lat="50.66373042762279510498046875" lon="11.8086706101894378662109375">
        <ele>503.79998779296875</ele>
        <time>2018-08-17T17:27:20.000Z</time>
      </trkpt>
      <trkpt lat="50.66419403068721294403076171875" lon="11.80914695374667644500732421875">
        <ele>503.399993896484375</ele>
        <time>2018-08-17T17:27:27.000Z</time>
      </trkpt>
      <trkpt lat="50.66467179916799068450927734375" lon="11.80964483879506587982177734375">
        <ele>502.600006103515625</ele>
        <time>2018-08-17T17:27:34.000Z</time>
      </trkpt>
      <trkpt lat="50.6651397608220577239990234375" lon="11.81017868220806121826171875">
        <ele>502</ele>
        <time>2018-08-17T17:27:42.000Z</time>
      </trkpt>
      <trkpt lat="50.665268339216709136962890625" lon="11.81034187786281108856201171875">
        <ele>501.79998779296875</ele>
        <time>2018-08-17T17:27:44.000Z</time>
      </trkpt>
      <trkpt lat="50.66579262726008892059326171875" lon="11.8109905533492565155029296875">
        <ele>501</ele>
        <time>2018-08-17T17:27:51.000Z</time>
      </trkpt>
      <trkpt lat="50.6659243069589138031005859375" lon="11.81115408428013324737548828125">
        <ele>500.79998779296875</ele>
        <time>2018-08-17T17:27:53.000Z</time>
      </trkpt>
      <trkpt lat="50.6663832999765872955322265625" lon="11.81173394434154033660888671875">
        <ele>499.79998779296875</ele>
        <time>2018-08-17T17:28:00.000Z</time>
      </trkpt>
      <trkpt lat="50.666448175907135009765625" lon="11.81181994266808032989501953125">
        <ele>499.79998779296875</ele>
        <time>2018-08-17T17:28:01.000Z</time>
      </trkpt>
      <trkpt lat="50.666896440088748931884765625" lon="11.81241991929709911346435546875">
        <ele>499</ele>
        <time>2018-08-17T17:28:08.000Z</time>
      </trkpt>
      <trkpt lat="50.66714446060359477996826171875" lon="11.81277195923030376434326171875">
        <ele>498.600006103515625</ele>
        <time>2018-08-17T17:28:12.000Z</time>
      </trkpt>
      <trkpt lat="50.6674702651798725128173828125" lon="11.81322458200156688690185546875">
        <ele>497.399993896484375</ele>
        <time>2018-08-17T17:28:17.000Z</time>
      </trkpt>
      <trkpt lat="50.66773873753845691680908203125" lon="11.8136271648108959197998046875">
        <ele>496</ele>
        <time>2018-08-17T17:28:21.000Z</time>
      </trkpt>
      <trkpt lat="50.66802305169403553009033203125" lon="11.8140392191708087921142578125">
        <ele>494.600006103515625</ele>
        <time>2018-08-17T17:28:25.000Z</time>
      </trkpt>
      <trkpt lat="50.6683175079524517059326171875" lon="11.81446309201419353485107421875">
        <ele>493.20001220703125</ele>
        <time>2018-08-17T17:28:29.000Z</time>
      </trkpt>
      <trkpt lat="50.66846410743892192840576171875" lon="11.8146789260208606719970703125">
        <ele>492.20001220703125</ele>
        <time>2018-08-17T17:28:31.000Z</time>
      </trkpt>
      <trkpt lat="50.66861028783023357391357421875" lon="11.81489174254238605499267578125">
        <ele>491.20001220703125</ele>
        <time>2018-08-17T17:28:33.000Z</time>
      </trkpt>
      <trkpt lat="50.6688231043517589569091796875" lon="11.8152100034058094024658203125">
        <ele>490</ele>
        <time>2018-08-17T17:28:36.000Z</time>
      </trkpt>
      <trkpt lat="50.66903457976877689361572265625" lon="11.8155164457857608795166015625">
        <ele>488.600006103515625</ele>
        <time>2018-08-17T17:28:39.000Z</time>
      </trkpt>
      <trkpt lat="50.6692445464432239532470703125" lon="11.81582464836537837982177734375">
        <ele>487.20001220703125</ele>
        <time>2018-08-17T17:28:42.000Z</time>
      </trkpt>
      <trkpt lat="50.6694540940225124359130859375" lon="11.816140897572040557861328125">
        <ele>486.20001220703125</ele>
        <time>2018-08-17T17:28:45.000Z</time>
      </trkpt>
      <trkpt lat="50.66973798908293247222900390625" lon="11.81655521504580974578857421875">
        <ele>484.79998779296875</ele>
        <time>2018-08-17T17:28:49.000Z</time>
      </trkpt>
      <trkpt lat="50.6698161922395229339599609375" lon="11.81664305739104747772216796875">
        <ele>484</ele>
        <time>2018-08-17T17:28:51.000Z</time>
      </trkpt>
      <trkpt lat="50.6699821539223194122314453125" lon="11.81678756140172481536865234375">
        <ele>483.600006103515625</ele>
        <time>2018-08-17T17:28:52.000Z</time>
      </trkpt>
      <trkpt lat="50.6702295877039432525634765625" lon="11.81697003543376922607421875">
        <ele>482.20001220703125</ele>
        <time>2018-08-17T17:28:55.000Z</time>
      </trkpt>
      <trkpt lat="50.67056243307888507843017578125" lon="11.81720472872257232666015625">
        <ele>481.399993896484375</ele>
        <time>2018-08-17T17:28:59.000Z</time>
      </trkpt>
      <trkpt lat="50.67109250463545322418212890625" lon="11.81740229018032550811767578125">
        <ele>480.20001220703125</ele>
        <time>2018-08-17T17:29:05.000Z</time>
      </trkpt>
      <trkpt lat="50.6716664135456085205078125" lon="11.81759306229650974273681640625">
        <ele>479.20001220703125</ele>
        <time>2018-08-17T17:29:12.000Z</time>
      </trkpt>
      <trkpt lat="50.67174294032156467437744140625" lon="11.81761217303574085235595703125">
        <ele>479</ele>
        <time>2018-08-17T17:29:14.000Z</time>
      </trkpt>
      <trkpt lat="50.67205491475760936737060546875" lon="11.81750572286546230316162109375">
        <ele>478.600006103515625</ele>
        <time>2018-08-17T17:29:18.000Z</time>
      </trkpt>
      <trkpt lat="50.6722177751362323760986328125" lon="11.8173886276781558990478515625">
        <ele>478.20001220703125</ele>
        <time>2018-08-17T17:29:19.000Z</time>
      </trkpt>
      <trkpt lat="50.67253880202770233154296875" lon="11.81711018085479736328125">
        <ele>477</ele>
        <time>2018-08-17T17:29:23.000Z</time>
      </trkpt>
      <trkpt lat="50.67275631241500377655029296875" lon="11.81692318059504032135009765625">
        <ele>475.79998779296875</ele>
        <time>2018-08-17T17:29:26.000Z</time>
      </trkpt>
      <trkpt lat="50.67282303236424922943115234375" lon="11.81687858887016773223876953125">
        <ele>474.399993896484375</ele>
        <time>2018-08-17T17:29:28.000Z</time>
      </trkpt>
      <trkpt lat="50.67303811199963092803955078125" lon="11.81689686141908168792724609375">
        <ele>473</ele>
        <time>2018-08-17T17:29:30.000Z</time>
      </trkpt>
      <trkpt lat="50.67310064099729061126708984375" lon="11.816967017948627471923828125">
        <ele>471.399993896484375</ele>
        <time>2018-08-17T17:29:32.000Z</time>
      </trkpt>
      <trkpt lat="50.6732323206961154937744140625" lon="11.81727220304310321807861328125">
        <ele>469.79998779296875</ele>
        <time>2018-08-17T17:29:34.000Z</time>
      </trkpt>
      <trkpt lat="50.67331127822399139404296875" lon="11.81748979724943637847900390625">
        <ele>468.600006103515625</ele>
        <time>2018-08-17T17:29:36.000Z</time>
      </trkpt>
      <trkpt lat="50.6735414452850818634033203125" lon="11.8181269057095050811767578125">
        <ele>467.399993896484375</ele>
        <time>2018-08-17T17:29:42.000Z</time>
      </trkpt>
      <trkpt lat="50.6737424433231353759765625" lon="11.81850668974220752716064453125">
        <ele>467.20001220703125</ele>
        <time>2018-08-17T17:29:46.000Z</time>
      </trkpt>
      <trkpt lat="50.6740349717438220977783203125" lon="11.81871523149311542510986328125">
        <ele>467</ele>
        <time>2018-08-17T17:29:50.000Z</time>
      </trkpt>
      <trkpt lat="50.67452355287969112396240234375" lon="11.81890784762799739837646484375">
        <ele>466.399993896484375</ele>
        <time>2018-08-17T17:29:56.000Z</time>
      </trkpt>
      <trkpt lat="50.67486318759620189666748046875" lon="11.8190613202750682830810546875">
        <ele>465.20001220703125</ele>
        <time>2018-08-17T17:30:00.000Z</time>
      </trkpt>
      <trkpt lat="50.675205253064632415771484375" lon="11.81928385980427265167236328125">
        <ele>463.79998779296875</ele>
        <time>2018-08-17T17:30:04.000Z</time>
      </trkpt>
      <trkpt lat="50.67542896606028079986572265625" lon="11.81948133744299411773681640625">
        <ele>462.79998779296875</ele>
        <time>2018-08-17T17:30:07.000Z</time>
      </trkpt>
      <trkpt lat="50.6756332330405712127685546875" lon="11.81970077566802501678466796875">
        <ele>461.399993896484375</ele>
        <time>2018-08-17T17:30:10.000Z</time>
      </trkpt>
      <trkpt lat="50.67575602792203426361083984375" lon="11.81982985697686672210693359375">
        <ele>460.399993896484375</ele>
        <time>2018-08-17T17:30:12.000Z</time>
      </trkpt>
      <trkpt lat="50.67587387748062610626220703125" lon="11.81993186473846435546875">
        <ele>459.600006103515625</ele>
        <time>2018-08-17T17:30:14.000Z</time>
      </trkpt>
      <trkpt lat="50.675939507782459259033203125" lon="11.8199397437274456024169921875">
        <ele>458.600006103515625</ele>
        <time>2018-08-17T17:30:15.000Z</time>
      </trkpt>
      <trkpt lat="50.676114857196807861328125" lon="11.81980169378221035003662109375">
        <ele>457.399993896484375</ele>
        <time>2018-08-17T17:30:18.000Z</time>
      </trkpt>
      <trkpt lat="50.6762897036969661712646484375" lon="11.81962382979691028594970703125">
        <ele>456.20001220703125</ele>
        <time>2018-08-17T17:30:21.000Z</time>
      </trkpt>
      <trkpt lat="50.6765753589570522308349609375" lon="11.819521486759185791015625">
        <ele>455.399993896484375</ele>
        <time>2018-08-17T17:30:25.000Z</time>
      </trkpt>
      <trkpt lat="50.6766571663320064544677734375" lon="11.81952240876853466033935546875">
        <ele>455</ele>
        <time>2018-08-17T17:30:26.000Z</time>
      </trkpt>
      <trkpt lat="50.67708858288824558258056640625" lon="11.81937019340693950653076171875">
        <ele>453.600006103515625</ele>
        <time>2018-08-17T17:30:31.000Z</time>
      </trkpt>
      <trkpt lat="50.6773357652127742767333984375" lon="11.8192245997488498687744140625">
        <ele>452.600006103515625</ele>
        <time>2018-08-17T17:30:34.000Z</time>
      </trkpt>
      <trkpt lat="50.67740969359874725341796875" lon="11.8191608972847461700439453125">
        <ele>452.20001220703125</ele>
        <time>2018-08-17T17:30:35.000Z</time>
      </trkpt>
      <trkpt lat="50.67747632972896099090576171875" lon="11.81909224949777126312255859375">
        <ele>451.20001220703125</ele>
        <time>2018-08-17T17:30:37.000Z</time>
      </trkpt>
      <trkpt lat="50.67769275046885013580322265625" lon="11.8187977932393550872802734375">
        <ele>450.20001220703125</ele>
        <time>2018-08-17T17:30:40.000Z</time>
      </trkpt>
      <trkpt lat="50.67818409763276576995849609375" lon="11.8182606808841228485107421875">
        <ele>450</ele>
        <time>2018-08-17T17:30:49.000Z</time>
      </trkpt>
      <trkpt lat="50.6784445233643054962158203125" lon="11.8179981596767902374267578125">
        <ele>450.600006103515625</ele>
        <time>2018-08-17T17:30:54.000Z</time>
      </trkpt>
      <trkpt lat="50.67849934101104736328125" lon="11.8179616145789623260498046875">
        <ele>451</ele>
        <time>2018-08-17T17:30:56.000Z</time>
      </trkpt>
      <trkpt lat="50.678676702082157135009765625" lon="11.81793219409883022308349609375">
        <ele>451.20001220703125</ele>
        <time>2018-08-17T17:30:58.000Z</time>
      </trkpt>
      <trkpt lat="50.67884777672588825225830078125" lon="11.81800142861902713775634765625">
        <ele>451.79998779296875</ele>
        <time>2018-08-17T17:31:01.000Z</time>
      </trkpt>
      <trkpt lat="50.67901323549449443817138671875" lon="11.818085499107837677001953125">
        <ele>452.399993896484375</ele>
        <time>2018-08-17T17:31:04.000Z</time>
      </trkpt>
      <trkpt lat="50.6793708913028240203857421875" lon="11.81824944913387298583984375">
        <ele>453.79998779296875</ele>
        <time>2018-08-17T17:31:10.000Z</time>
      </trkpt>
      <trkpt lat="50.67975201644003391265869140625" lon="11.81837978772819042205810546875">
        <ele>455</ele>
        <time>2018-08-17T17:31:16.000Z</time>
      </trkpt>
      <trkpt lat="50.6802996061742305755615234375" lon="11.81865924037992954254150390625">
        <ele>455.600006103515625</ele>
        <time>2018-08-17T17:31:24.000Z</time>
      </trkpt>
      <trkpt lat="50.6808635406196117401123046875" lon="11.81903491728007793426513671875">
        <ele>455.20001220703125</ele>
        <time>2018-08-17T17:31:32.000Z</time>
      </trkpt>
      <trkpt lat="50.68138648755848407745361328125" lon="11.81937404908239841461181640625">
        <ele>454.399993896484375</ele>
        <time>2018-08-17T17:31:39.000Z</time>
      </trkpt>
      <trkpt lat="50.68197104148566722869873046875" lon="11.81967076845467090606689453125">
        <ele>454</ele>
        <time>2018-08-17T17:31:46.000Z</time>
      </trkpt>
      <trkpt lat="50.68205921910703182220458984375" lon="11.8197087384760379791259765625">
        <ele>453.79998779296875</ele>
        <time>2018-08-17T17:31:47.000Z</time>
      </trkpt>
      <trkpt lat="50.68250815384089946746826171875" lon="11.8199090659618377685546875">
        <ele>452.600006103515625</ele>
        <time>2018-08-17T17:31:52.000Z</time>
      </trkpt>
      <trkpt lat="50.68288676440715789794921875" lon="11.820044852793216705322265625">
        <ele>451.20001220703125</ele>
        <time>2018-08-17T17:31:56.000Z</time>
      </trkpt>
      <trkpt lat="50.683183483779430389404296875" lon="11.82007075287401676177978515625">
        <ele>450</ele>
        <time>2018-08-17T17:31:59.000Z</time>
      </trkpt>
      <trkpt lat="50.68348179571330547332763671875" lon="11.82010394521057605743408203125">
        <ele>448.79998779296875</ele>
        <time>2018-08-17T17:32:02.000Z</time>
      </trkpt>
      <trkpt lat="50.68367424421012401580810546875" lon="11.82014049030840396881103515625">
        <ele>447.79998779296875</ele>
        <time>2018-08-17T17:32:04.000Z</time>
      </trkpt>
      <trkpt lat="50.684179924428462982177734375" lon="11.82021416723728179931640625">
        <ele>446.79998779296875</ele>
        <time>2018-08-17T17:32:10.000Z</time>
      </trkpt>
      <trkpt lat="50.6842525117099285125732421875" lon="11.8202166818082332611083984375">
        <ele>446.79998779296875</ele>
        <time>2018-08-17T17:32:11.000Z</time>
      </trkpt>
      <trkpt lat="50.68484033457934856414794921875" lon="11.82013504207134246826171875">
        <ele>447.79998779296875</ele>
        <time>2018-08-17T17:32:21.000Z</time>
      </trkpt>
      <trkpt lat="50.6848908774554729461669921875" lon="11.82012137956917285919189453125">
        <ele>448.20001220703125</ele>
        <time>2018-08-17T17:32:22.000Z</time>
      </trkpt>
      <trkpt lat="50.68503714166581630706787109375" lon="11.82007863186299800872802734375">
        <ele>449.600006103515625</ele>
        <time>2018-08-17T17:32:25.000Z</time>
      </trkpt>
      <trkpt lat="50.68518550135195255279541015625" lon="11.820036135613918304443359375">
        <ele>450.79998779296875</ele>
        <time>2018-08-17T17:32:28.000Z</time>
      </trkpt>
      <trkpt lat="50.68533562123775482177734375" lon="11.819987185299396514892578125">
        <ele>452</ele>
        <time>2018-08-17T17:32:31.000Z</time>
      </trkpt>
      <trkpt lat="50.68549663759768009185791015625" lon="11.81994301266968250274658203125">
        <ele>453</ele>
        <time>2018-08-17T17:32:34.000Z</time>
      </trkpt>
      <trkpt lat="50.6857803650200366973876953125" lon="11.81984930299222469329833984375">
        <ele>454.20001220703125</ele>
        <time>2018-08-17T17:32:39.000Z</time>
      </trkpt>
      <trkpt lat="50.6862656772136688232421875" lon="11.81975274346768856048583984375">
        <ele>454.600006103515625</ele>
        <time>2018-08-17T17:32:46.000Z</time>
      </trkpt>
      <trkpt lat="50.686897337436676025390625" lon="11.8197804875671863555908203125">
        <ele>454</ele>
        <time>2018-08-17T17:32:53.000Z</time>
      </trkpt>
      <trkpt lat="50.6872165203094482421875" lon="11.81980504654347896575927734375">
        <ele>452.20001220703125</ele>
        <time>2018-08-17T17:32:56.000Z</time>
      </trkpt>
      <trkpt lat="50.6875600107014179229736328125" lon="11.8198317848145961761474609375">
        <ele>450</ele>
        <time>2018-08-17T17:32:59.000Z</time>
      </trkpt>
      <trkpt lat="50.6877977214753627777099609375" lon="11.8198465369641780853271484375">
        <ele>448.600006103515625</ele>
        <time>2018-08-17T17:33:01.000Z</time>
      </trkpt>
      <trkpt lat="50.6880386173725128173828125" lon="11.8198515661060810089111328125">
        <ele>446.79998779296875</ele>
        <time>2018-08-17T17:33:03.000Z</time>
      </trkpt>
      <trkpt lat="50.6882751546800136566162109375" lon="11.8198408372700214385986328125">
        <ele>445.600006103515625</ele>
        <time>2018-08-17T17:33:05.000Z</time>
      </trkpt>
      <trkpt lat="50.68849970586597919464111328125" lon="11.81980722583830356597900390625">
        <ele>444.20001220703125</ele>
        <time>2018-08-17T17:33:07.000Z</time>
      </trkpt>
      <trkpt lat="50.6887011229991912841796875" lon="11.81977654807269573211669921875">
        <ele>442.600006103515625</ele>
        <time>2018-08-17T17:33:09.000Z</time>
      </trkpt>
      <trkpt lat="50.688860714435577392578125" lon="11.81975207291543483734130859375">
        <ele>440.600006103515625</ele>
        <time>2018-08-17T17:33:11.000Z</time>
      </trkpt>
      <trkpt lat="50.68892366252839565277099609375" lon="11.81975173763930797576904296875">
        <ele>439.79998779296875</ele>
        <time>2018-08-17T17:33:12.000Z</time>
      </trkpt>
      <trkpt lat="50.68897378630936145782470703125" lon="11.81977755390107631683349609375">
        <ele>439.20001220703125</ele>
        <time>2018-08-17T17:33:13.000Z</time>
      </trkpt>
      <trkpt lat="50.68901829421520233154296875" lon="11.82005516253411769866943359375">
        <ele>438.600006103515625</ele>
        <time>2018-08-17T17:33:17.000Z</time>
      </trkpt>
      <trkpt lat="50.68902097642421722412109375" lon="11.820211149752140045166015625">
        <ele>438.600006103515625</ele>
        <time>2018-08-17T17:33:19.000Z</time>
      </trkpt>
      <trkpt lat="50.68907939828932285308837890625" lon="11.82081959210336208343505859375">
        <ele>440.399993896484375</ele>
        <time>2018-08-17T17:33:28.000Z</time>
      </trkpt>
      <trkpt lat="50.689104460179805755615234375" lon="11.821007095277309417724609375">
        <ele>441.79998779296875</ele>
        <time>2018-08-17T17:33:31.000Z</time>
      </trkpt>
      <trkpt lat="50.68912197835743427276611328125" lon="11.8211990408599376678466796875">
        <ele>442.79998779296875</ele>
        <time>2018-08-17T17:33:34.000Z</time>
      </trkpt>
      <trkpt lat="50.6891639716923236846923828125" lon="11.82146516628563404083251953125">
        <ele>444</ele>
        <time>2018-08-17T17:33:38.000Z</time>
      </trkpt>
      <trkpt lat="50.6892348825931549072265625" lon="11.82178384624421596527099609375">
        <ele>445.399993896484375</ele>
        <time>2018-08-17T17:33:43.000Z</time>
      </trkpt>
      <trkpt lat="50.68930956535041332244873046875" lon="11.82203580625355243682861328125">
        <ele>446.600006103515625</ele>
        <time>2018-08-17T17:33:47.000Z</time>
      </trkpt>
      <trkpt lat="50.68933219648897647857666015625" lon="11.82209573686122894287109375">
        <ele>447.399993896484375</ele>
        <time>2018-08-17T17:33:48.000Z</time>
      </trkpt>
      <trkpt lat="50.6893570907413959503173828125" lon="11.8221535719931125640869140625">
        <ele>448</ele>
        <time>2018-08-17T17:33:49.000Z</time>
      </trkpt>
      <trkpt lat="50.68947619758546352386474609375" lon="11.82236638851463794708251953125">
        <ele>449</ele>
        <time>2018-08-17T17:33:53.000Z</time>
      </trkpt>
      <trkpt lat="50.689653642475605010986328125" lon="11.82260761968791484832763671875">
        <ele>450.399993896484375</ele>
        <time>2018-08-17T17:33:58.000Z</time>
      </trkpt>
      <trkpt lat="50.68984198383986949920654296875" lon="11.8228621780872344970703125">
        <ele>451.399993896484375</ele>
        <time>2018-08-17T17:34:03.000Z</time>
      </trkpt>
      <trkpt lat="50.690249092876911163330078125" lon="11.82345159351825714111328125">
        <ele>452.20001220703125</ele>
        <time>2018-08-17T17:34:13.000Z</time>
      </trkpt>
      <trkpt lat="50.69029075093567371368408203125" lon="11.8235166370868682861328125">
        <ele>452.399993896484375</ele>
        <time>2018-08-17T17:34:14.000Z</time>
      </trkpt>
      <trkpt lat="50.69066575728356838226318359375" lon="11.8241415917873382568359375">
        <ele>453</ele>
        <time>2018-08-17T17:34:23.000Z</time>
      </trkpt>
      <trkpt lat="50.69098167121410369873046875" lon="11.82459731586277484893798828125">
        <ele>453.600006103515625</ele>
        <time>2018-08-17T17:34:30.000Z</time>
      </trkpt>
      <trkpt lat="50.6914123333990573883056640625" lon="11.82518924586474895477294921875">
        <ele>454</ele>
        <time>2018-08-17T17:34:39.000Z</time>
      </trkpt>
      <trkpt lat="50.691867135465145111083984375" lon="11.82580950669944286346435546875">
        <ele>454.20001220703125</ele>
        <time>2018-08-17T17:34:48.000Z</time>
      </trkpt>
      <trkpt lat="50.6922327540814876556396484375" lon="11.82631887495517730712890625">
        <ele>454.600006103515625</ele>
        <time>2018-08-17T17:34:55.000Z</time>
      </trkpt>
      <trkpt lat="50.6925787590444087982177734375" lon="11.826916672289371490478515625">
        <ele>454.600006103515625</ele>
        <time>2018-08-17T17:35:02.000Z</time>
      </trkpt>
      <trkpt lat="50.6926803477108478546142578125" lon="11.82736284099519252777099609375">
        <ele>454.600006103515625</ele>
        <time>2018-08-17T17:35:06.000Z</time>
      </trkpt>
      <trkpt lat="50.6927339918911457061767578125" lon="11.827722676098346710205078125">
        <ele>454.600006103515625</ele>
        <time>2018-08-17T17:35:09.000Z</time>
      </trkpt>
      <trkpt lat="50.69285980425775051116943359375" lon="11.82862197048962116241455078125">
        <ele>454.399993896484375</ele>
        <time>2018-08-17T17:35:16.000Z</time>
      </trkpt>
      <trkpt lat="50.692974887788295745849609375" lon="11.82944633066654205322265625">
        <ele>453.600006103515625</ele>
        <time>2018-08-17T17:35:22.000Z</time>
      </trkpt>
      <trkpt lat="50.693092904984951019287109375" lon="11.8302945792675018310546875">
        <ele>452.600006103515625</ele>
        <time>2018-08-17T17:35:28.000Z</time>
      </trkpt>
      <trkpt lat="50.69315291941165924072265625" lon="11.83072348125278949737548828125">
        <ele>452.399993896484375</ele>
        <time>2018-08-17T17:35:31.000Z</time>
      </trkpt>
      <trkpt lat="50.69327554665505886077880859375" lon="11.831594444811344146728515625">
        <ele>451.600006103515625</ele>
        <time>2018-08-17T17:35:37.000Z</time>
      </trkpt>
      <trkpt lat="50.69329641759395599365234375" lon="11.831742636859416961669921875">
        <ele>451.399993896484375</ele>
        <time>2018-08-17T17:35:38.000Z</time>
      </trkpt>
      <trkpt lat="50.69340714253485202789306640625" lon="11.832488961517810821533203125">
        <ele>450.399993896484375</ele>
        <time>2018-08-17T17:35:43.000Z</time>
      </trkpt>
      <trkpt lat="50.69349062629044055938720703125" lon="11.8330973200500011444091796875">
        <ele>449.399993896484375</ele>
        <time>2018-08-17T17:35:47.000Z</time>
      </trkpt>
      <trkpt lat="50.6935876049101352691650390625" lon="11.83400474488735198974609375">
        <ele>448.399993896484375</ele>
        <time>2018-08-17T17:35:53.000Z</time>
      </trkpt>
      <trkpt lat="50.69360084831714630126953125" lon="11.8341564573347568511962890625">
        <ele>448.20001220703125</ele>
        <time>2018-08-17T17:35:54.000Z</time>
      </trkpt>
      <trkpt lat="50.6936992518603801727294921875" lon="11.83508693240582942962646484375">
        <ele>447.600006103515625</ele>
        <time>2018-08-17T17:36:00.000Z</time>
      </trkpt>
      <trkpt lat="50.69385926239192485809326171875" lon="11.83567416854202747344970703125">
        <ele>447.20001220703125</ele>
        <time>2018-08-17T17:36:04.000Z</time>
      </trkpt>
      <trkpt lat="50.694098062813282012939453125" lon="11.83618605136871337890625">
        <ele>446</ele>
        <time>2018-08-17T17:36:08.000Z</time>
      </trkpt>
      <trkpt lat="50.69438095204532146453857421875" lon="11.83681125752627849578857421875">
        <ele>444.600006103515625</ele>
        <time>2018-08-17T17:36:13.000Z</time>
      </trkpt>
      <trkpt lat="50.6945428065955638885498046875" lon="11.83762413449585437774658203125">
        <ele>444.20001220703125</ele>
        <time>2018-08-17T17:36:19.000Z</time>
      </trkpt>
      <trkpt lat="50.6945086084306240081787109375" lon="11.8385475687682628631591796875">
        <ele>444.600006103515625</ele>
        <time>2018-08-17T17:36:26.000Z</time>
      </trkpt>
      <trkpt lat="50.6943751685321331024169921875" lon="11.839303784072399139404296875">
        <ele>445.600006103515625</ele>
        <time>2018-08-17T17:36:32.000Z</time>
      </trkpt>
      <trkpt lat="50.69422789849340915679931640625" lon="11.840225122869014739990234375">
        <ele>445.79998779296875</ele>
        <time>2018-08-17T17:36:39.000Z</time>
      </trkpt>
      <trkpt lat="50.694234184920787811279296875" lon="11.84108636341989040374755859375">
        <ele>445.79998779296875</ele>
        <time>2018-08-17T17:36:45.000Z</time>
      </trkpt>
      <trkpt lat="50.694321356713771820068359375" lon="11.8419620208442211151123046875">
        <ele>444.600006103515625</ele>
        <time>2018-08-17T17:36:51.000Z</time>
      </trkpt>
      <trkpt lat="50.69438765756785869598388671875" lon="11.84283994138240814208984375">
        <ele>443.79998779296875</ele>
        <time>2018-08-17T17:36:57.000Z</time>
      </trkpt>
      <trkpt lat="50.69440240971744060516357421875" lon="11.843288205564022064208984375">
        <ele>443.399993896484375</ele>
        <time>2018-08-17T17:37:00.000Z</time>
      </trkpt>
      <trkpt lat="50.69439101032912731170654296875" lon="11.84420878998935222625732421875">
        <ele>442.20001220703125</ele>
        <time>2018-08-17T17:37:06.000Z</time>
      </trkpt>
      <trkpt lat="50.69434155710041522979736328125" lon="11.84497925452888011932373046875">
        <ele>441.20001220703125</ele>
        <time>2018-08-17T17:37:11.000Z</time>
      </trkpt>
      <trkpt lat="50.694315321743488311767578125" lon="11.8451280333101749420166015625">
        <ele>441</ele>
        <time>2018-08-17T17:37:12.000Z</time>
      </trkpt>
      <trkpt lat="50.6941567361354827880859375" lon="11.845857091248035430908203125">
        <ele>439.79998779296875</ele>
        <time>2018-08-17T17:37:17.000Z</time>
      </trkpt>
      <trkpt lat="50.6941367872059345245361328125" lon="11.84600553475320339202880859375">
        <ele>439.20001220703125</ele>
        <time>2018-08-17T17:37:18.000Z</time>
      </trkpt>
      <trkpt lat="50.69415246136486530303955078125" lon="11.84644876979291439056396484375">
        <ele>438.600006103515625</ele>
        <time>2018-08-17T17:37:21.000Z</time>
      </trkpt>
      <trkpt lat="50.69420610554516315460205078125" lon="11.84671665541827678680419921875">
        <ele>438.399993896484375</ele>
        <time>2018-08-17T17:37:23.000Z</time>
      </trkpt>
      <trkpt lat="50.694368965923786163330078125" lon="11.84746482409536838531494140625">
        <ele>438</ele>
        <time>2018-08-17T17:37:29.000Z</time>
      </trkpt>
      <trkpt lat="50.69455630145967006683349609375" lon="11.84786279685795307159423828125">
        <ele>438</ele>
        <time>2018-08-17T17:37:33.000Z</time>
      </trkpt>
      <trkpt lat="50.694926865398883819580078125" lon="11.8484821356832981109619140625">
        <ele>438.79998779296875</ele>
        <time>2018-08-17T17:37:40.000Z</time>
      </trkpt>
      <trkpt lat="50.69531955756247043609619140625" lon="11.84917406179010868072509765625">
        <ele>439.79998779296875</ele>
        <time>2018-08-17T17:37:48.000Z</time>
      </trkpt>
      <trkpt lat="50.69536113180220127105712890625" lon="11.84926609508693218231201171875">
        <ele>440</ele>
        <time>2018-08-17T17:37:49.000Z</time>
      </trkpt>
      <trkpt lat="50.69564728997647762298583984375" lon="11.8500334583222866058349609375">
        <ele>441.20001220703125</ele>
        <time>2018-08-17T17:37:57.000Z</time>
      </trkpt>
      <trkpt lat="50.69585080258548259735107421875" lon="11.8505910225212574005126953125">
        <ele>442.20001220703125</ele>
        <time>2018-08-17T17:38:03.000Z</time>
      </trkpt>
      <trkpt lat="50.69587695412337779998779296875" lon="11.8506882525980472564697265625">
        <ele>442.399993896484375</ele>
        <time>2018-08-17T17:38:04.000Z</time>
      </trkpt>
      <trkpt lat="50.69590226747095584869384765625" lon="11.851225197315216064453125">
        <ele>443.399993896484375</ele>
        <time>2018-08-17T17:38:09.000Z</time>
      </trkpt>
      <trkpt lat="50.695863626897335052490234375" lon="11.8514446355402469635009765625">
        <ele>443.79998779296875</ele>
        <time>2018-08-17T17:38:11.000Z</time>
      </trkpt>
      <trkpt lat="50.69576044566929340362548828125" lon="11.85188611038029193878173828125">
        <ele>444.399993896484375</ele>
        <time>2018-08-17T17:38:15.000Z</time>
      </trkpt>
      <trkpt lat="50.6956586055457592010498046875" lon="11.852209232747554779052734375">
        <ele>445</ele>
        <time>2018-08-17T17:38:18.000Z</time>
      </trkpt>
      <trkpt lat="50.69538183510303497314453125" lon="11.8526848219335079193115234375">
        <ele>445</ele>
        <time>2018-08-17T17:38:23.000Z</time>
      </trkpt>
      <trkpt lat="50.6951369158923625946044921875" lon="11.853046417236328125">
        <ele>445</ele>
        <time>2018-08-17T17:38:27.000Z</time>
      </trkpt>
      <trkpt lat="50.69502619095146656036376953125" lon="11.85367648489773273468017578125">
        <ele>444.600006103515625</ele>
        <time>2018-08-17T17:38:32.000Z</time>
      </trkpt>
      <trkpt lat="50.69497154094278812408447265625" lon="11.85463302768766880035400390625">
        <ele>444.20001220703125</ele>
        <time>2018-08-17T17:38:40.000Z</time>
      </trkpt>
      <trkpt lat="50.69497221149504184722900390625" lon="11.8547670543193817138671875">
        <ele>444.20001220703125</ele>
        <time>2018-08-17T17:38:41.000Z</time>
      </trkpt>
      <trkpt lat="50.6953704357147216796875" lon="11.85507408343255519866943359375">
        <ele>443.600006103515625</ele>
        <time>2018-08-17T17:38:46.000Z</time>
      </trkpt>
      <trkpt lat="50.695534385740756988525390625" lon="11.85507542453706264495849609375">
        <ele>443.399993896484375</ele>
        <time>2018-08-17T17:38:48.000Z</time>
      </trkpt>
      <trkpt lat="50.6960931234061717987060546875" lon="11.85512973926961421966552734375">
        <ele>443</ele>
        <time>2018-08-17T17:38:55.000Z</time>
      </trkpt>
      <trkpt lat="50.6966547109186649322509765625" lon="11.85526083223521709442138671875">
        <ele>443</ele>
        <time>2018-08-17T17:39:03.000Z</time>
      </trkpt>
      <trkpt lat="50.6971499137580394744873046875" lon="11.85540609061717987060546875">
        <ele>444.600006103515625</ele>
        <time>2018-08-17T17:39:12.000Z</time>
      </trkpt>
      <trkpt lat="50.697295926511287689208984375" lon="11.855431906878948211669921875">
        <ele>445.600006103515625</ele>
        <time>2018-08-17T17:39:15.000Z</time>
      </trkpt>
      <trkpt lat="50.69743238389492034912109375" lon="11.8554456532001495361328125">
        <ele>446.79998779296875</ele>
        <time>2018-08-17T17:39:18.000Z</time>
      </trkpt>
      <trkpt lat="50.69761745631694793701171875" lon="11.85542109422385692596435546875">
        <ele>447.79998779296875</ele>
        <time>2018-08-17T17:39:22.000Z</time>
      </trkpt>
      <trkpt lat="50.69774528034031391143798828125" lon="11.8553757481276988983154296875">
        <ele>449</ele>
        <time>2018-08-17T17:39:25.000Z</time>
      </trkpt>
      <trkpt lat="50.697908811271190643310546875" lon="11.85527977533638477325439453125">
        <ele>450</ele>
        <time>2018-08-17T17:39:29.000Z</time>
      </trkpt>
      <trkpt lat="50.69806731306016445159912109375" lon="11.85515723191201686859130859375">
        <ele>451.20001220703125</ele>
        <time>2018-08-17T17:39:33.000Z</time>
      </trkpt>
      <trkpt lat="50.6982459314167499542236328125" lon="11.8549921922385692596435546875">
        <ele>452.20001220703125</ele>
        <time>2018-08-17T17:39:38.000Z</time>
      </trkpt>
      <trkpt lat="50.69835414178669452667236328125" lon="11.85488917864859104156494140625">
        <ele>453</ele>
        <time>2018-08-17T17:39:41.000Z</time>
      </trkpt>
      <trkpt lat="50.69842253811657428741455078125" lon="11.85482061468064785003662109375">
        <ele>453.79998779296875</ele>
        <time>2018-08-17T17:39:43.000Z</time>
      </trkpt>
      <trkpt lat="50.6985580734908580780029296875" lon="11.854697652161121368408203125">
        <ele>454.79998779296875</ele>
        <time>2018-08-17T17:39:47.000Z</time>
      </trkpt>
      <trkpt lat="50.69874557666480541229248046875" lon="11.85458600521087646484375">
        <ele>456</ele>
        <time>2018-08-17T17:39:52.000Z</time>
      </trkpt>
      <trkpt lat="50.69882872514426708221435546875" lon="11.85455105267465114593505859375">
        <ele>456.600006103515625</ele>
        <time>2018-08-17T17:39:54.000Z</time>
      </trkpt>
      <trkpt lat="50.69891287945210933685302734375" lon="11.85452607460319995880126953125">
        <ele>457.20001220703125</ele>
        <time>2018-08-17T17:39:56.000Z</time>
      </trkpt>
      <trkpt lat="50.6989560462534427642822265625" lon="11.854515932500362396240234375">
        <ele>457.600006103515625</ele>
        <time>2018-08-17T17:39:57.000Z</time>
      </trkpt>
      <trkpt lat="50.69909158162772655487060546875" lon="11.85447393916547298431396484375">
        <ele>458.399993896484375</ele>
        <time>2018-08-17T17:40:00.000Z</time>
      </trkpt>
      <trkpt lat="50.699312947690486907958984375" lon="11.85442146845161914825439453125">
        <ele>459.600006103515625</ele>
        <time>2018-08-17T17:40:05.000Z</time>
      </trkpt>
      <trkpt lat="50.69949768483638763427734375" lon="11.85437268577516078948974609375">
        <ele>460.79998779296875</ele>
        <time>2018-08-17T17:40:09.000Z</time>
      </trkpt>
      <trkpt lat="50.699689798057079315185546875" lon="11.854338236153125762939453125">
        <ele>461.79998779296875</ele>
        <time>2018-08-17T17:40:13.000Z</time>
      </trkpt>
      <trkpt lat="50.699990876019001007080078125" lon="11.85432381927967071533203125">
        <ele>463.399993896484375</ele>
        <time>2018-08-17T17:40:19.000Z</time>
      </trkpt>
      <trkpt lat="50.7002978213131427764892578125" lon="11.85434334911406040191650390625">
        <ele>464.399993896484375</ele>
        <time>2018-08-17T17:40:25.000Z</time>
      </trkpt>
      <trkpt lat="50.7008208520710468292236328125" lon="11.854401268064975738525390625">
        <ele>465.399993896484375</ele>
        <time>2018-08-17T17:40:36.000Z</time>
      </trkpt>
      <trkpt lat="50.70123919285833835601806640625" lon="11.85448877513408660888671875">
        <ele>466.399993896484375</ele>
        <time>2018-08-17T17:40:43.000Z</time>
      </trkpt>
      <trkpt lat="50.70129199884831905364990234375" lon="11.8545120768249034881591796875">
        <ele>466.399993896484375</ele>
        <time>2018-08-17T17:40:44.000Z</time>
      </trkpt>
      <trkpt lat="50.70166683755815029144287109375" lon="11.85474517755210399627685546875">
        <ele>467.600006103515625</ele>
        <time>2018-08-17T17:40:51.000Z</time>
      </trkpt>
      <trkpt lat="50.702213086187839508056640625" lon="11.8551289848983287811279296875">
        <ele>468.399993896484375</ele>
        <time>2018-08-17T17:41:01.000Z</time>
      </trkpt>
      <trkpt lat="50.70231945253908634185791015625" lon="11.85521255247294902801513671875">
        <ele>468.600006103515625</ele>
        <time>2018-08-17T17:41:03.000Z</time>
      </trkpt>
      <trkpt lat="50.7023694925010204315185546875" lon="11.8552604131400585174560546875">
        <ele>468.79998779296875</ele>
        <time>2018-08-17T17:41:04.000Z</time>
      </trkpt>
      <trkpt lat="50.702534280717372894287109375" lon="11.85554598458111286163330078125">
        <ele>469.399993896484375</ele>
        <time>2018-08-17T17:41:08.000Z</time>
      </trkpt>
      <trkpt lat="50.7028068602085113525390625" lon="11.856347881257534027099609375">
        <ele>469.600006103515625</ele>
        <time>2018-08-17T17:41:16.000Z</time>
      </trkpt>
      <trkpt lat="50.7030963711440563201904296875" lon="11.85718238353729248046875">
        <ele>469</ele>
        <time>2018-08-17T17:41:23.000Z</time>
      </trkpt>
      <trkpt lat="50.70329695008695125579833984375" lon="11.857820414006710052490234375">
        <ele>467.399993896484375</ele>
        <time>2018-08-17T17:41:28.000Z</time>
      </trkpt>
      <trkpt lat="50.7033352553844451904296875" lon="11.857939772307872772216796875">
        <ele>467.20001220703125</ele>
        <time>2018-08-17T17:41:29.000Z</time>
      </trkpt>
      <trkpt lat="50.703439526259899139404296875" lon="11.8581639043986797332763671875">
        <ele>466</ele>
        <time>2018-08-17T17:41:31.000Z</time>
      </trkpt>
      <trkpt lat="50.70356466807425022125244140625" lon="11.85837940312922000885009765625">
        <ele>464.20001220703125</ele>
        <time>2018-08-17T17:41:33.000Z</time>
      </trkpt>
      <trkpt lat="50.7036924920976161956787109375" lon="11.858602277934551239013671875">
        <ele>462.79998779296875</ele>
        <time>2018-08-17T17:41:35.000Z</time>
      </trkpt>
      <trkpt lat="50.7038205675780773162841796875" lon="11.85882163234055042266845703125">
        <ele>461.399993896484375</ele>
        <time>2018-08-17T17:41:37.000Z</time>
      </trkpt>
      <trkpt lat="50.7039530016481876373291015625" lon="11.85902413912117481231689453125">
        <ele>460</ele>
        <time>2018-08-17T17:41:39.000Z</time>
      </trkpt>
      <trkpt lat="50.7040244154632091522216796875" lon="11.859111897647380828857421875">
        <ele>459.399993896484375</ele>
        <time>2018-08-17T17:41:40.000Z</time>
      </trkpt>
      <trkpt lat="50.70410211570560932159423828125" lon="11.85917937196791172027587890625">
        <ele>458.79998779296875</ele>
        <time>2018-08-17T17:41:41.000Z</time>
      </trkpt>
      <trkpt lat="50.70426204241812229156494140625" lon="11.85927140526473522186279296875">
        <ele>457.79998779296875</ele>
        <time>2018-08-17T17:41:43.000Z</time>
      </trkpt>
      <trkpt lat="50.7046419940888881683349609375" lon="11.85945563949644565582275390625">
        <ele>456.600006103515625</ele>
        <time>2018-08-17T17:41:48.000Z</time>
      </trkpt>
      <trkpt lat="50.70486252196133136749267578125" lon="11.8596052564680576324462890625">
        <ele>456.20001220703125</ele>
        <time>2018-08-17T17:41:51.000Z</time>
      </trkpt>
      <trkpt lat="50.70518908090889453887939453125" lon="11.8601453863084316253662109375">
        <ele>455.600006103515625</ele>
        <time>2018-08-17T17:41:57.000Z</time>
      </trkpt>
      <trkpt lat="50.70549837313592433929443359375" lon="11.860937140882015228271484375">
        <ele>454.600006103515625</ele>
        <time>2018-08-17T17:42:04.000Z</time>
      </trkpt>
      <trkpt lat="50.70559996180236339569091796875" lon="11.861161105334758758544921875">
        <ele>454.600006103515625</ele>
        <time>2018-08-17T17:42:06.000Z</time>
      </trkpt>
      <trkpt lat="50.70594060234725475311279296875" lon="11.86188186518847942352294921875">
        <ele>454</ele>
        <time>2018-08-17T17:42:13.000Z</time>
      </trkpt>
      <trkpt lat="50.70628291927278041839599609375" lon="11.8625379167497158050537109375">
        <ele>454.20001220703125</ele>
        <time>2018-08-17T17:42:21.000Z</time>
      </trkpt>
      <trkpt lat="50.7066638767719268798828125" lon="11.8629130907356739044189453125">
        <ele>455.600006103515625</ele>
        <time>2018-08-17T17:42:28.000Z</time>
      </trkpt>
      <trkpt lat="50.70704768411815166473388671875" lon="11.863149292767047882080078125">
        <ele>456.600006103515625</ele>
        <time>2018-08-17T17:42:35.000Z</time>
      </trkpt>
      <trkpt lat="50.707361586391925811767578125" lon="11.863303519785404205322265625">
        <ele>457.79998779296875</ele>
        <time>2018-08-17T17:42:41.000Z</time>
      </trkpt>
      <trkpt lat="50.70757909677922725677490234375" lon="11.8633526377379894256591796875">
        <ele>458.79998779296875</ele>
        <time>2018-08-17T17:42:45.000Z</time>
      </trkpt>
      <trkpt lat="50.70778914727270603179931640625" lon="11.86334886588156223297119140625">
        <ele>459.79998779296875</ele>
        <time>2018-08-17T17:42:49.000Z</time>
      </trkpt>
      <trkpt lat="50.7081042230129241943359375" lon="11.86328600160777568817138671875">
        <ele>461</ele>
        <time>2018-08-17T17:42:55.000Z</time>
      </trkpt>
      <trkpt lat="50.7083246670663356781005859375" lon="11.86320033855736255645751953125">
        <ele>462.20001220703125</ele>
        <time>2018-08-17T17:42:59.000Z</time>
      </trkpt>
      <trkpt lat="50.7086602784693241119384765625" lon="11.86300671659409999847412109375">
        <ele>463.399993896484375</ele>
        <time>2018-08-17T17:43:05.000Z</time>
      </trkpt>
      <trkpt lat="50.7091380469501018524169921875" lon="11.86277872882783412933349609375">
        <ele>464.399993896484375</ele>
        <time>2018-08-17T17:43:13.000Z</time>
      </trkpt>
      <trkpt lat="50.70968471467494964599609375" lon="11.862603127956390380859375">
        <ele>464.399993896484375</ele>
        <time>2018-08-17T17:43:21.000Z</time>
      </trkpt>
      <trkpt lat="50.710242278873920440673828125" lon="11.86243507079780101776123046875">
        <ele>463.79998779296875</ele>
        <time>2018-08-17T17:43:29.000Z</time>
      </trkpt>
      <trkpt lat="50.71053036488592624664306640625" lon="11.8623541854321956634521484375">
        <ele>463.399993896484375</ele>
        <time>2018-08-17T17:43:33.000Z</time>
      </trkpt>
      <trkpt lat="50.710837729275226593017578125" lon="11.862270869314670562744140625">
        <ele>462.20001220703125</ele>
        <time>2018-08-17T17:43:37.000Z</time>
      </trkpt>
      <trkpt lat="50.71126931346952915191650390625" lon="11.86216123402118682861328125">
        <ele>461.20001220703125</ele>
        <time>2018-08-17T17:43:42.000Z</time>
      </trkpt>
      <trkpt lat="50.71154926903545856475830078125" lon="11.8620819412171840667724609375">
        <ele>460.20001220703125</ele>
        <time>2018-08-17T17:43:45.000Z</time>
      </trkpt>
      <trkpt lat="50.71184833534061908721923828125" lon="11.86199351213872432708740234375">
        <ele>458.79998779296875</ele>
        <time>2018-08-17T17:43:48.000Z</time>
      </trkpt>
      <trkpt lat="50.7120589725673198699951171875" lon="11.861924864351749420166015625">
        <ele>457.399993896484375</ele>
        <time>2018-08-17T17:43:50.000Z</time>
      </trkpt>
      <trkpt lat="50.7122748903930187225341796875" lon="11.86184364371001720428466796875">
        <ele>456.399993896484375</ele>
        <time>2018-08-17T17:43:52.000Z</time>
      </trkpt>
      <trkpt lat="50.71249810047447681427001953125" lon="11.86176317743957042694091796875">
        <ele>455.399993896484375</ele>
        <time>2018-08-17T17:43:54.000Z</time>
      </trkpt>
      <trkpt lat="50.71272659115493297576904296875" lon="11.8617104552686214447021484375">
        <ele>454.20001220703125</ele>
        <time>2018-08-17T17:43:56.000Z</time>
      </trkpt>
      <trkpt lat="50.712953992187976837158203125" lon="11.86168807558715343475341796875">
        <ele>453</ele>
        <time>2018-08-17T17:43:58.000Z</time>
      </trkpt>
      <trkpt lat="50.71306941099464893341064453125" lon="11.86168556101620197296142578125">
        <ele>451.600006103515625</ele>
        <time>2018-08-17T17:43:59.000Z</time>
      </trkpt>
      <trkpt lat="50.71330091916024684906005859375" lon="11.8616933561861515045166015625">
        <ele>450</ele>
        <time>2018-08-17T17:44:01.000Z</time>
      </trkpt>
      <trkpt lat="50.71352723054587841033935546875" lon="11.8616993911564350128173828125">
        <ele>448.600006103515625</ele>
        <time>2018-08-17T17:44:03.000Z</time>
      </trkpt>
      <trkpt lat="50.71374800987541675567626953125" lon="11.86170794069766998291015625">
        <ele>447.399993896484375</ele>
        <time>2018-08-17T17:44:05.000Z</time>
      </trkpt>
      <trkpt lat="50.713966526091098785400390625" lon="11.86174909584224224090576171875">
        <ele>446</ele>
        <time>2018-08-17T17:44:07.000Z</time>
      </trkpt>
      <trkpt lat="50.71418143808841705322265625" lon="11.8618157319724559783935546875">
        <ele>444.79998779296875</ele>
        <time>2018-08-17T17:44:09.000Z</time>
      </trkpt>
      <trkpt lat="50.71450707502663135528564453125" lon="11.86193785630166530609130859375">
        <ele>443.600006103515625</ele>
        <time>2018-08-17T17:44:12.000Z</time>
      </trkpt>
      <trkpt lat="50.7147185504436492919921875" lon="11.8620175682008266448974609375">
        <ele>442.600006103515625</ele>
        <time>2018-08-17T17:44:14.000Z</time>
      </trkpt>
      <trkpt lat="50.71492281742393970489501953125" lon="11.86212259344756603240966796875">
        <ele>441.399993896484375</ele>
        <time>2018-08-17T17:44:16.000Z</time>
      </trkpt>
      <trkpt lat="50.71511593647301197052001953125" lon="11.8622646667063236236572265625">
        <ele>440</ele>
        <time>2018-08-17T17:44:18.000Z</time>
      </trkpt>
      <trkpt lat="50.7153185270726680755615234375" lon="11.86241076327860355377197265625">
        <ele>438.79998779296875</ele>
        <time>2018-08-17T17:44:20.000Z</time>
      </trkpt>
      <trkpt lat="50.715427659451961517333984375" lon="11.86246641911566257476806640625">
        <ele>438.399993896484375</ele>
        <time>2018-08-17T17:44:21.000Z</time>
      </trkpt>
      <trkpt lat="50.7156605087220668792724609375" lon="11.86251687817275524139404296875">
        <ele>437.20001220703125</ele>
        <time>2018-08-17T17:44:23.000Z</time>
      </trkpt>
      <trkpt lat="50.715904422104358673095703125" lon="11.86247983016073703765869140625">
        <ele>436</ele>
        <time>2018-08-17T17:44:25.000Z</time>
      </trkpt>
      <trkpt lat="50.7160289771854877471923828125" lon="11.86244110576808452606201171875">
        <ele>435.399993896484375</ele>
        <time>2018-08-17T17:44:26.000Z</time>
      </trkpt>
      <trkpt lat="50.7161543704569339752197265625" lon="11.86239483766257762908935546875">
        <ele>434.600006103515625</ele>
        <time>2018-08-17T17:44:27.000Z</time>
      </trkpt>
      <trkpt lat="50.7162814401090145111083984375" lon="11.86234370805323123931884765625">
        <ele>433.399993896484375</ele>
        <time>2018-08-17T17:44:28.000Z</time>
      </trkpt>
      <trkpt lat="50.7165328972041606903076171875" lon="11.86223742552101612091064453125">
        <ele>432.20001220703125</ele>
        <time>2018-08-17T17:44:30.000Z</time>
      </trkpt>
      <trkpt lat="50.7167833484709262847900390625" lon="11.8621285445988178253173828125">
        <ele>430.79998779296875</ele>
        <time>2018-08-17T17:44:32.000Z</time>
      </trkpt>
      <trkpt lat="50.71702617220580577850341796875" lon="11.86201647855341434478759765625">
        <ele>429</ele>
        <time>2018-08-17T17:44:34.000Z</time>
      </trkpt>
      <trkpt lat="50.7171464525163173675537109375" lon="11.861966438591480255126953125">
        <ele>428</ele>
        <time>2018-08-17T17:44:35.000Z</time>
      </trkpt>
      <trkpt lat="50.717266313731670379638671875" lon="11.86191338114440441131591796875">
        <ele>427</ele>
        <time>2018-08-17T17:44:36.000Z</time>
      </trkpt>
      <trkpt lat="50.7173838280141353607177734375" lon="11.86185956932604312896728515625">
        <ele>426</ele>
        <time>2018-08-17T17:44:37.000Z</time>
      </trkpt>
      <trkpt lat="50.71760854683816432952880859375" lon="11.8617540411651134490966796875">
        <ele>424.20001220703125</ele>
        <time>2018-08-17T17:44:39.000Z</time>
      </trkpt>
      <trkpt lat="50.717824213206768035888671875" lon="11.86164599843323230743408203125">
        <ele>422.600006103515625</ele>
        <time>2018-08-17T17:44:41.000Z</time>
      </trkpt>
      <trkpt lat="50.718036778271198272705078125" lon="11.861527226865291595458984375">
        <ele>421.600006103515625</ele>
        <time>2018-08-17T17:44:43.000Z</time>
      </trkpt>
      <trkpt lat="50.71824523620307445526123046875" lon="11.86138632707297801971435546875">
        <ele>420.20001220703125</ele>
        <time>2018-08-17T17:44:45.000Z</time>
      </trkpt>
      <trkpt lat="50.7185576297342777252197265625" lon="11.8611606024205684661865234375">
        <ele>418.79998779296875</ele>
        <time>2018-08-17T17:44:48.000Z</time>
      </trkpt>
      <trkpt lat="50.71885460056364536285400390625" lon="11.86093722470104694366455078125">
        <ele>417.79998779296875</ele>
        <time>2018-08-17T17:44:51.000Z</time>
      </trkpt>
      <trkpt lat="50.71917445398867130279541015625" lon="11.86073421500623226165771484375">
        <ele>416.600006103515625</ele>
        <time>2018-08-17T17:44:54.000Z</time>
      </trkpt>
      <trkpt lat="50.71941652335226535797119140625" lon="11.86062022112309932708740234375">
        <ele>415.399993896484375</ele>
        <time>2018-08-17T17:44:56.000Z</time>
      </trkpt>
      <trkpt lat="50.71954174898564815521240234375" lon="11.8605742044746875762939453125">
        <ele>414</ele>
        <time>2018-08-17T17:44:57.000Z</time>
      </trkpt>
      <trkpt lat="50.71979354135692119598388671875" lon="11.86051025055348873138427734375">
        <ele>412.79998779296875</ele>
        <time>2018-08-17T17:44:59.000Z</time>
      </trkpt>
      <trkpt lat="50.72003443725407123565673828125" lon="11.8604615516960620880126953125">
        <ele>411.600006103515625</ele>
        <time>2018-08-17T17:45:01.000Z</time>
      </trkpt>
      <trkpt lat="50.72026276029646396636962890625" lon="11.8604199774563312530517578125">
        <ele>410</ele>
        <time>2018-08-17T17:45:03.000Z</time>
      </trkpt>
      <trkpt lat="50.72037038393318653106689453125" lon="11.86039843596518039703369140625">
        <ele>408.79998779296875</ele>
        <time>2018-08-17T17:45:04.000Z</time>
      </trkpt>
      <trkpt lat="50.72047566063702106475830078125" lon="11.86037546955049037933349609375">
        <ele>407.79998779296875</ele>
        <time>2018-08-17T17:45:05.000Z</time>
      </trkpt>
      <trkpt lat="50.7205791771411895751953125" lon="11.86035476624965667724609375">
        <ele>406.79998779296875</ele>
        <time>2018-08-17T17:45:06.000Z</time>
      </trkpt>
      <trkpt lat="50.7206816039979457855224609375" lon="11.86034739017486572265625">
        <ele>406</ele>
        <time>2018-08-17T17:45:07.000Z</time>
      </trkpt>
      <trkpt lat="50.72078243829309940338134765625" lon="11.860360801219940185546875">
        <ele>405.399993896484375</ele>
        <time>2018-08-17T17:45:08.000Z</time>
      </trkpt>
      <trkpt lat="50.72096382267773151397705078125" lon="11.860461719334125518798828125">
        <ele>404.399993896484375</ele>
        <time>2018-08-17T17:45:10.000Z</time>
      </trkpt>
      <trkpt lat="50.7211773097515106201171875" lon="11.86073840595781803131103515625">
        <ele>403.399993896484375</ele>
        <time>2018-08-17T17:45:13.000Z</time>
      </trkpt>
      <trkpt lat="50.72126506827771663665771484375" lon="11.86127434484660625457763671875">
        <ele>402.20001220703125</ele>
        <time>2018-08-17T17:45:17.000Z</time>
      </trkpt>
      <trkpt lat="50.721286945044994354248046875" lon="11.8614026717841625213623046875">
        <ele>401.79998779296875</ele>
        <time>2018-08-17T17:45:18.000Z</time>
      </trkpt>
      <trkpt lat="50.721636302769184112548828125" lon="11.86172269284725189208984375">
        <ele>401</ele>
        <time>2018-08-17T17:45:23.000Z</time>
      </trkpt>
      <trkpt lat="50.72182347066700458526611328125" lon="11.8617111258208751678466796875">
        <ele>400.600006103515625</ele>
        <time>2018-08-17T17:45:25.000Z</time>
      </trkpt>
      <trkpt lat="50.7224169932305812835693359375" lon="11.86160341836512088775634765625">
        <ele>399.79998779296875</ele>
        <time>2018-08-17T17:45:31.000Z</time>
      </trkpt>
      <trkpt lat="50.7227177359163761138916015625" lon="11.86155647970736026763916015625">
        <ele>398.79998779296875</ele>
        <time>2018-08-17T17:45:34.000Z</time>
      </trkpt>
      <trkpt lat="50.72322023101150989532470703125" lon="11.8614854849874973297119140625">
        <ele>397.600006103515625</ele>
        <time>2018-08-17T17:45:39.000Z</time>
      </trkpt>
      <trkpt lat="50.72361786849796772003173828125" lon="11.86141423881053924560546875">
        <ele>396.600006103515625</ele>
        <time>2018-08-17T17:45:43.000Z</time>
      </trkpt>
      <trkpt lat="50.7240062020719051361083984375" lon="11.86137274838984012603759765625">
        <ele>395.399993896484375</ele>
        <time>2018-08-17T17:45:47.000Z</time>
      </trkpt>
      <trkpt lat="50.7241949625313282012939453125" lon="11.86141281388700008392333984375">
        <ele>394</ele>
        <time>2018-08-17T17:45:49.000Z</time>
      </trkpt>
      <trkpt lat="50.72447483427822589874267578125" lon="11.86149881221354007720947265625">
        <ele>392.600006103515625</ele>
        <time>2018-08-17T17:45:52.000Z</time>
      </trkpt>
      <trkpt lat="50.72476451285183429718017578125" lon="11.86158296652138233184814453125">
        <ele>391.399993896484375</ele>
        <time>2018-08-17T17:45:55.000Z</time>
      </trkpt>
      <trkpt lat="50.725152008235454559326171875" lon="11.8616967089474201202392578125">
        <ele>390.399993896484375</ele>
        <time>2018-08-17T17:45:59.000Z</time>
      </trkpt>
      <trkpt lat="50.72543456219136714935302734375" lon="11.861779354512691497802734375">
        <ele>389</ele>
        <time>2018-08-17T17:46:02.000Z</time>
      </trkpt>
      <trkpt lat="50.72600855492055416107177734375" lon="11.8619582243263721466064453125">
        <ele>388</ele>
        <time>2018-08-17T17:46:08.000Z</time>
      </trkpt>
      <trkpt lat="50.7265913486480712890625" lon="11.8621258623898029327392578125">
        <ele>387</ele>
        <time>2018-08-17T17:46:14.000Z</time>
      </trkpt>
      <trkpt lat="50.727061741054058074951171875" lon="11.86230531893670558929443359375">
        <ele>385.79998779296875</ele>
        <time>2018-08-17T17:46:19.000Z</time>
      </trkpt>
      <trkpt lat="50.72742895223200321197509765625" lon="11.862503550946712493896484375">
        <ele>384.79998779296875</ele>
        <time>2018-08-17T17:46:23.000Z</time>
      </trkpt>
      <trkpt lat="50.72796153835952281951904296875" lon="11.86281091533601284027099609375">
        <ele>384</ele>
        <time>2018-08-17T17:46:29.000Z</time>
      </trkpt>
      <trkpt lat="50.72823327966034412384033203125" lon="11.8628966622054576873779296875">
        <ele>383.600006103515625</ele>
        <time>2018-08-17T17:46:32.000Z</time>
      </trkpt>
      <trkpt lat="50.72874826379120349884033203125" lon="11.86303152702748775482177734375">
        <ele>382.399993896484375</ele>
        <time>2018-08-17T17:46:38.000Z</time>
      </trkpt>
      <trkpt lat="50.72932829149067401885986328125" lon="11.8630443513393402099609375">
        <ele>382</ele>
        <time>2018-08-17T17:46:45.000Z</time>
      </trkpt>
      <trkpt lat="50.72983690537512302398681640625" lon="11.8631162680685520172119140625">
        <ele>381.600006103515625</ele>
        <time>2018-08-17T17:46:51.000Z</time>
      </trkpt>
      <trkpt lat="50.73040536604821681976318359375" lon="11.86330058611929416656494140625">
        <ele>380.79998779296875</ele>
        <time>2018-08-17T17:46:58.000Z</time>
      </trkpt>
      <trkpt lat="50.73048390448093414306640625" lon="11.863340400159358978271484375">
        <ele>380.600006103515625</ele>
        <time>2018-08-17T17:47:00.000Z</time>
      </trkpt>
      <trkpt lat="50.7306349463760852813720703125" lon="11.8634317629039287567138671875">
        <ele>380.399993896484375</ele>
        <time>2018-08-17T17:47:01.000Z</time>
      </trkpt>
      <trkpt lat="50.73112738318741321563720703125" lon="11.863794364035129547119140625">
        <ele>379.600006103515625</ele>
        <time>2018-08-17T17:47:08.000Z</time>
      </trkpt>
      <trkpt lat="50.731267444789409637451171875" lon="11.86389469541609287261962890625">
        <ele>379.399993896484375</ele>
        <time>2018-08-17T17:47:10.000Z</time>
      </trkpt>
      <trkpt lat="50.73151999153196811676025390625" lon="11.8640939332544803619384765625">
        <ele>378.399993896484375</ele>
        <time>2018-08-17T17:47:14.000Z</time>
      </trkpt>
      <trkpt lat="50.73169399984180927276611328125" lon="11.86425738036632537841796875">
        <ele>377.20001220703125</ele>
        <time>2018-08-17T17:47:17.000Z</time>
      </trkpt>
      <trkpt lat="50.731852836906909942626953125" lon="11.86441990546882152557373046875">
        <ele>376</ele>
        <time>2018-08-17T17:47:20.000Z</time>
      </trkpt>
      <trkpt lat="50.7320206426084041595458984375" lon="11.864545382559299468994140625">
        <ele>375.399993896484375</ele>
        <time>2018-08-17T17:47:23.000Z</time>
      </trkpt>
      <trkpt lat="50.73215223848819732666015625" lon="11.864564158022403717041015625">
        <ele>374.79998779296875</ele>
        <time>2018-08-17T17:47:25.000Z</time>
      </trkpt>
      <trkpt lat="50.73235533200204372406005859375" lon="11.86457932926714420318603515625">
        <ele>373.79998779296875</ele>
        <time>2018-08-17T17:47:28.000Z</time>
      </trkpt>
      <trkpt lat="50.7324259914457798004150390625" lon="11.86457765288650989532470703125">
        <ele>373.600006103515625</ele>
        <time>2018-08-17T17:47:29.000Z</time>
      </trkpt>
      <trkpt lat="50.73269069194793701171875" lon="11.864563487470149993896484375">
        <ele>372.399993896484375</ele>
        <time>2018-08-17T17:47:33.000Z</time>
      </trkpt>
      <trkpt lat="50.732875764369964599609375" lon="11.864584274590015411376953125">
        <ele>371.399993896484375</ele>
        <time>2018-08-17T17:47:36.000Z</time>
      </trkpt>
      <trkpt lat="50.73299922980368137359619140625" lon="11.8645928241312503814697265625">
        <ele>370.79998779296875</ele>
        <time>2018-08-17T17:47:38.000Z</time>
      </trkpt>
      <trkpt lat="50.73312596417963504791259765625" lon="11.86459533870220184326171875">
        <ele>370.399993896484375</ele>
        <time>2018-08-17T17:47:40.000Z</time>
      </trkpt>
      <trkpt lat="50.73318631388247013092041015625" lon="11.86459609307348728179931640625">
        <ele>370</ele>
        <time>2018-08-17T17:47:41.000Z</time>
      </trkpt>
      <trkpt lat="50.73330215178430080413818359375" lon="11.864593327045440673828125">
        <ele>369.79998779296875</ele>
        <time>2018-08-17T17:47:43.000Z</time>
      </trkpt>
      <trkpt lat="50.733489654958248138427734375" lon="11.86461436562240123748779296875">
        <ele>369.20001220703125</ele>
        <time>2018-08-17T17:47:46.000Z</time>
      </trkpt>
      <trkpt lat="50.73369526304304599761962890625" lon="11.86464739032089710235595703125">
        <ele>368.20001220703125</ele>
        <time>2018-08-17T17:47:49.000Z</time>
      </trkpt>
      <trkpt lat="50.7337670959532260894775390625" lon="11.86467387713491916656494140625">
        <ele>368.20001220703125</ele>
        <time>2018-08-17T17:47:50.000Z</time>
      </trkpt>
      <trkpt lat="50.7341221533715724945068359375" lon="11.8648774735629558563232421875">
        <ele>367</ele>
        <time>2018-08-17T17:47:55.000Z</time>
      </trkpt>
      <trkpt lat="50.73427277617156505584716796875" lon="11.8649495579302310943603515625">
        <ele>366.399993896484375</ele>
        <time>2018-08-17T17:47:57.000Z</time>
      </trkpt>
      <trkpt lat="50.7343846745789051055908203125" lon="11.86499775387346744537353515625">
        <ele>366</ele>
        <time>2018-08-17T17:47:59.000Z</time>
      </trkpt>
      <trkpt lat="50.73451065458357334136962890625" lon="11.8650501407682895660400390625">
        <ele>365</ele>
        <time>2018-08-17T17:48:02.000Z</time>
      </trkpt>
      <trkpt lat="50.734549127519130706787109375" lon="11.86507872305810451507568359375">
        <ele>364.600006103515625</ele>
        <time>2018-08-17T17:48:03.000Z</time>
      </trkpt>
      <trkpt lat="50.7346270792186260223388671875" lon="11.865130774676799774169921875">
        <ele>364</ele>
        <time>2018-08-17T17:48:05.000Z</time>
      </trkpt>
      <trkpt lat="50.73470704257488250732421875" lon="11.86517645604908466339111328125">
        <ele>363.600006103515625</ele>
        <time>2018-08-17T17:48:07.000Z</time>
      </trkpt>
      <trkpt lat="50.73486990295350551605224609375" lon="11.86529749073088169097900390625">
        <ele>362.600006103515625</ele>
        <time>2018-08-17T17:48:17.000Z</time>
      </trkpt>
      <trkpt lat="50.735058076679706573486328125" lon="11.86544702388346195220947265625">
        <ele>362.600006103515625</ele>
        <time>2018-08-17T17:48:25.000Z</time>
      </trkpt>
      <trkpt lat="50.73516276665031909942626953125" lon="11.86523906886577606201171875">
        <ele>362.399993896484375</ele>
        <time>2018-08-17T17:48:30.000Z</time>
      </trkpt>
      <trkpt lat="50.735225044190883636474609375" lon="11.86502709053456783294677734375">
        <ele>362.399993896484375</ele>
        <time>2018-08-17T17:48:33.000Z</time>
      </trkpt>
      <trkpt lat="50.73542981408536434173583984375" lon="11.86416895128786563873291015625">
        <ele>362.399993896484375</ele>
        <time>2018-08-17T17:48:44.000Z</time>
      </trkpt>
      <trkpt lat="50.7354873977601528167724609375" lon="11.863829903304576873779296875">
        <ele>362.600006103515625</ele>
        <time>2018-08-17T17:48:49.000Z</time>
      </trkpt>
      <trkpt lat="50.73539494536817073822021484375" lon="11.86376729048788547515869140625">
        <ele>344.600006103515625</ele>
        <time>2018-08-18T06:18:19.000Z</time>
      </trkpt>
      <trkpt lat="50.73524859733879566192626953125" lon="11.86461905948817729949951171875">
        <ele>344.600006103515625</ele>
        <time>2018-08-18T06:18:40.000Z</time>
      </trkpt>
      <trkpt lat="50.73519679717719554901123046875" lon="11.86486314050853252410888671875">
        <ele>344.600006103515625</ele>
        <time>2018-08-18T06:18:44.000Z</time>
      </trkpt>
      <trkpt lat="50.73502966202795505523681640625" lon="11.86551676131784915924072265625">
        <ele>344.399993896484375</ele>
        <time>2018-08-18T06:19:01.000Z</time>
      </trkpt>
      <trkpt lat="50.735056735575199127197265625" lon="11.865556575357913970947265625">
        <ele>344.399993896484375</ele>
        <time>2018-08-18T06:19:03.000Z</time>
      </trkpt>
      <trkpt lat="50.7351139001548290252685546875" lon="11.86580493114888668060302734375">
        <ele>344.600006103515625</ele>
        <time>2018-08-18T06:19:11.000Z</time>
      </trkpt>
      <trkpt lat="50.735449679195880889892578125" lon="11.86608522199094295501708984375">
        <ele>345.20001220703125</ele>
        <time>2018-08-18T06:19:24.000Z</time>
      </trkpt>
      <trkpt lat="50.7356332428753376007080078125" lon="11.86627230606973171234130859375">
        <ele>345.600006103515625</ele>
        <time>2018-08-18T06:19:34.000Z</time>
      </trkpt>
      <trkpt lat="50.7356412895023822784423828125" lon="11.86650012619793415069580078125">
        <ele>346</ele>
        <time>2018-08-18T06:19:39.000Z</time>
      </trkpt>
      <trkpt lat="50.735664926469326019287109375" lon="11.8671107478439807891845703125">
        <ele>347</ele>
        <time>2018-08-18T06:19:51.000Z</time>
      </trkpt>
      <trkpt lat="50.7357291318476200103759765625" lon="11.8676317669451236724853515625">
        <ele>348.20001220703125</ele>
        <time>2018-08-18T06:20:01.000Z</time>
      </trkpt>
      <trkpt lat="50.7357857935130596160888671875" lon="11.86801875941455364227294921875">
        <ele>349</ele>
        <time>2018-08-18T06:20:09.000Z</time>
      </trkpt>
      <trkpt lat="50.7358806766569614410400390625" lon="11.86862259171903133392333984375">
        <ele>350.20001220703125</ele>
        <time>2018-08-18T06:20:21.000Z</time>
      </trkpt>
      <trkpt lat="50.73594697751104831695556640625" lon="11.869019307196140289306640625">
        <ele>351</ele>
        <time>2018-08-18T06:20:29.000Z</time>
      </trkpt>
      <trkpt lat="50.7360503263771533966064453125" lon="11.86962557025253772735595703125">
        <ele>352</ele>
        <time>2018-08-18T06:20:41.000Z</time>
      </trkpt>
      <trkpt lat="50.73612081818282604217529296875" lon="11.8701951205730438232421875">
        <ele>353.20001220703125</ele>
        <time>2018-08-18T06:20:51.000Z</time>
      </trkpt>
      <trkpt lat="50.7361978478729724884033203125" lon="11.87076584435999393463134765625">
        <ele>354.20001220703125</ele>
        <time>2018-08-18T06:21:01.000Z</time>
      </trkpt>
      <trkpt lat="50.73627320118248462677001953125" lon="11.87123036943376064300537109375">
        <ele>355.20001220703125</ele>
        <time>2018-08-18T06:21:09.000Z</time>
      </trkpt>
      <trkpt lat="50.7363128475844860076904296875" lon="11.8713456206023693084716796875">
        <ele>355.399993896484375</ele>
        <time>2018-08-18T06:21:11.000Z</time>
      </trkpt>
      <trkpt lat="50.7365539111196994781494140625" lon="11.87144092284142971038818359375">
        <ele>356</ele>
        <time>2018-08-18T06:21:17.000Z</time>
      </trkpt>
      <trkpt lat="50.7365961559116840362548828125" lon="11.87144930474460124969482421875">
        <ele>356.20001220703125</ele>
        <time>2018-08-18T06:21:18.000Z</time>
      </trkpt>
      <trkpt lat="50.7369978167116641998291015625" lon="11.8715950660407543182373046875">
        <ele>357</ele>
        <time>2018-08-18T06:21:28.000Z</time>
      </trkpt>
      <trkpt lat="50.73731121607124805450439453125" lon="11.87171769328415393829345703125">
        <ele>358</ele>
        <time>2018-08-18T06:21:36.000Z</time>
      </trkpt>
      <trkpt lat="50.73769007809460163116455078125" lon="11.871882565319538116455078125">
        <ele>359.20001220703125</ele>
        <time>2018-08-18T06:21:45.000Z</time>
      </trkpt>
      <trkpt lat="50.737789236009120941162109375" lon="11.87190075404942035675048828125">
        <ele>359.399993896484375</ele>
        <time>2018-08-18T06:21:47.000Z</time>
      </trkpt>
      <trkpt lat="50.73811286129057407379150390625" lon="11.8720134906470775604248046875">
        <ele>360.20001220703125</ele>
        <time>2018-08-18T06:21:54.000Z</time>
      </trkpt>
      <trkpt lat="50.7385980896651744842529296875" lon="11.87222764827311038970947265625">
        <ele>360.79998779296875</ele>
        <time>2018-08-18T06:22:04.000Z</time>
      </trkpt>
      <trkpt lat="50.7389796338975429534912109375" lon="11.87239495106041431427001953125">
        <ele>361</ele>
        <time>2018-08-18T06:22:12.000Z</time>
      </trkpt>
      <trkpt lat="50.73925715871155261993408203125" lon="11.872544400393962860107421875">
        <ele>361.399993896484375</ele>
        <time>2018-08-18T06:22:18.000Z</time>
      </trkpt>
      <trkpt lat="50.73982880450785160064697265625" lon="11.87276174314320087432861328125">
        <ele>361.79998779296875</ele>
        <time>2018-08-18T06:22:29.000Z</time>
      </trkpt>
      <trkpt lat="50.74014664627611637115478515625" lon="11.8728800117969512939453125">
        <ele>361.79998779296875</ele>
        <time>2018-08-18T06:22:35.000Z</time>
      </trkpt>
      <trkpt lat="50.74071192182600498199462890625" lon="11.87310858629643917083740234375">
        <ele>361.399993896484375</ele>
        <time>2018-08-18T06:22:45.000Z</time>
      </trkpt>
      <trkpt lat="50.74101216159760951995849609375" lon="11.873294077813625335693359375">
        <ele>361.20001220703125</ele>
        <time>2018-08-18T06:22:50.000Z</time>
      </trkpt>
      <trkpt lat="50.74145288206636905670166015625" lon="11.87385424040257930755615234375">
        <ele>360.600006103515625</ele>
        <time>2018-08-18T06:22:58.000Z</time>
      </trkpt>
      <trkpt lat="50.7416908442974090576171875" lon="11.87410469166934490203857421875">
        <ele>359.79998779296875</ele>
        <time>2018-08-18T06:23:02.000Z</time>
      </trkpt>
      <trkpt lat="50.74186258949339389801025390625" lon="11.87427165918052196502685546875">
        <ele>359.399993896484375</ele>
        <time>2018-08-18T06:23:05.000Z</time>
      </trkpt>
      <trkpt lat="50.7420655153691768646240234375" lon="11.87451154924929141998291015625">
        <ele>359.399993896484375</ele>
        <time>2018-08-18T06:23:09.000Z</time>
      </trkpt>
      <trkpt lat="50.74215109460055828094482421875" lon="11.87464557588100433349609375">
        <ele>359.399993896484375</ele>
        <time>2018-08-18T06:23:11.000Z</time>
      </trkpt>
      <trkpt lat="50.74223642237484455108642578125" lon="11.8747791834175586700439453125">
        <ele>359.399993896484375</ele>
        <time>2018-08-18T06:23:13.000Z</time>
      </trkpt>
      <trkpt lat="50.74258695356547832489013671875" lon="11.875440515577793121337890625">
        <ele>360</ele>
        <time>2018-08-18T06:23:23.000Z</time>
      </trkpt>
      <trkpt lat="50.742762051522731781005859375" lon="11.87579615972936153411865234375">
        <ele>361</ele>
        <time>2018-08-18T06:23:28.000Z</time>
      </trkpt>
      <trkpt lat="50.743161700665950775146484375" lon="11.87645648606121540069580078125">
        <ele>361.399993896484375</ele>
        <time>2018-08-18T06:23:37.000Z</time>
      </trkpt>
      <trkpt lat="50.74359856545925140380859375" lon="11.8770060874521732330322265625">
        <ele>360.79998779296875</ele>
        <time>2018-08-18T06:23:45.000Z</time>
      </trkpt>
      <trkpt lat="50.74406803585588932037353515625" lon="11.87743314541876316070556640625">
        <ele>360.20001220703125</ele>
        <time>2018-08-18T06:23:53.000Z</time>
      </trkpt>
      <trkpt lat="50.74458084069192409515380859375" lon="11.8777604587376117706298828125">
        <ele>359.79998779296875</ele>
        <time>2018-08-18T06:24:01.000Z</time>
      </trkpt>
      <trkpt lat="50.7447081618010997772216796875" lon="11.87784855253994464874267578125">
        <ele>359.79998779296875</ele>
        <time>2018-08-18T06:24:03.000Z</time>
      </trkpt>
      <trkpt lat="50.74477194808423519134521484375" lon="11.8779029510915279388427734375">
        <ele>359.79998779296875</ele>
        <time>2018-08-18T06:24:04.000Z</time>
      </trkpt>
      <trkpt lat="50.744832716882228851318359375" lon="11.87796413898468017578125">
        <ele>359.600006103515625</ele>
        <time>2018-08-18T06:24:05.000Z</time>
      </trkpt>
      <trkpt lat="50.7450276799499988555908203125" lon="11.878303103148937225341796875">
        <ele>359.399993896484375</ele>
        <time>2018-08-18T06:24:09.000Z</time>
      </trkpt>
      <trkpt lat="50.74523865245282649993896484375" lon="11.87889360822737216949462890625">
        <ele>358.600006103515625</ele>
        <time>2018-08-18T06:24:15.000Z</time>
      </trkpt>
      <trkpt lat="50.7454896904528141021728515625" lon="11.87969508580863475799560546875">
        <ele>358</ele>
        <time>2018-08-18T06:24:23.000Z</time>
      </trkpt>
      <trkpt lat="50.74573989026248455047607421875" lon="11.88048549927771091461181640625">
        <ele>357.399993896484375</ele>
        <time>2018-08-18T06:24:30.000Z</time>
      </trkpt>
      <trkpt lat="50.74577693827450275421142578125" lon="11.88059831969439983367919921875">
        <ele>357.20001220703125</ele>
        <time>2018-08-18T06:24:31.000Z</time>
      </trkpt>
      <trkpt lat="50.74581599794328212738037109375" lon="11.880702674388885498046875">
        <ele>357</ele>
        <time>2018-08-18T06:24:32.000Z</time>
      </trkpt>
      <trkpt lat="50.7459019124507904052734375" lon="11.8808714859187602996826171875">
        <ele>356.600006103515625</ele>
        <time>2018-08-18T06:24:34.000Z</time>
      </trkpt>
      <trkpt lat="50.7460378669202327728271484375" lon="11.8809308297932147979736328125">
        <ele>356</ele>
        <time>2018-08-18T06:24:36.000Z</time>
      </trkpt>
      <trkpt lat="50.746189914643764495849609375" lon="11.88087768852710723876953125">
        <ele>355.399993896484375</ele>
        <time>2018-08-18T06:24:38.000Z</time>
      </trkpt>
      <trkpt lat="50.74626660905778408050537109375" lon="11.88084173016250133514404296875">
        <ele>354.79998779296875</ele>
        <time>2018-08-18T06:24:39.000Z</time>
      </trkpt>
      <trkpt lat="50.746415220201015472412109375" lon="11.8807749263942241668701171875">
        <ele>354.20001220703125</ele>
        <time>2018-08-18T06:24:41.000Z</time>
      </trkpt>
      <trkpt lat="50.74656651355326175689697265625" lon="11.880711056292057037353515625">
        <ele>353.79998779296875</ele>
        <time>2018-08-18T06:24:43.000Z</time>
      </trkpt>
      <trkpt lat="50.7467996142804622650146484375" lon="11.8805975653231143951416015625">
        <ele>352.600006103515625</ele>
        <time>2018-08-18T06:24:46.000Z</time>
      </trkpt>
      <trkpt lat="50.74704629369080066680908203125" lon="11.8804304301738739013671875">
        <ele>351.79998779296875</ele>
        <time>2018-08-18T06:24:49.000Z</time>
      </trkpt>
      <trkpt lat="50.7471214793622493743896484375" lon="11.8803578428924083709716796875">
        <ele>351.600006103515625</ele>
        <time>2018-08-18T06:24:50.000Z</time>
      </trkpt>
      <trkpt lat="50.747374780476093292236328125" lon="11.88007512129843235015869140625">
        <ele>350.399993896484375</ele>
        <time>2018-08-18T06:24:54.000Z</time>
      </trkpt>
      <trkpt lat="50.747434459626674652099609375" lon="11.88001477159559726715087890625">
        <ele>350.20001220703125</ele>
        <time>2018-08-18T06:24:55.000Z</time>
      </trkpt>
      <trkpt lat="50.74766873382031917572021484375" lon="11.87996037304401397705078125">
        <ele>349</ele>
        <time>2018-08-18T06:24:59.000Z</time>
      </trkpt>
      <trkpt lat="50.7478439994156360626220703125" lon="11.880061626434326171875">
        <ele>348</ele>
        <time>2018-08-18T06:25:02.000Z</time>
      </trkpt>
      <trkpt lat="50.747904516756534576416015625" lon="11.88010764308273792266845703125">
        <ele>347.600006103515625</ele>
        <time>2018-08-18T06:25:03.000Z</time>
      </trkpt>
      <trkpt lat="50.7481021620333194732666015625" lon="11.88051047734916210174560546875">
        <ele>347.20001220703125</ele>
        <time>2018-08-18T06:25:08.000Z</time>
      </trkpt>
      <trkpt lat="50.748276673257350921630859375" lon="11.8812671117484569549560546875">
        <ele>347</ele>
        <time>2018-08-18T06:25:16.000Z</time>
      </trkpt>
      <trkpt lat="50.74838656000792980194091796875" lon="11.88162929378449916839599609375">
        <ele>346.79998779296875</ele>
        <time>2018-08-18T06:25:20.000Z</time>
      </trkpt>
      <trkpt lat="50.74844489805400371551513671875" lon="11.881933473050594329833984375">
        <ele>346.600006103515625</ele>
        <time>2018-08-18T06:25:23.000Z</time>
      </trkpt>
      <trkpt lat="50.7485782541334629058837890625" lon="11.8828378804028034210205078125">
        <ele>346.20001220703125</ele>
        <time>2018-08-18T06:25:32.000Z</time>
      </trkpt>
      <trkpt lat="50.7486295513808727264404296875" lon="11.883130408823490142822265625">
        <ele>346</ele>
        <time>2018-08-18T06:25:35.000Z</time>
      </trkpt>
      <trkpt lat="50.7487153820693492889404296875" lon="11.8834215961396694183349609375">
        <ele>345.79998779296875</ele>
        <time>2018-08-18T06:25:38.000Z</time>
      </trkpt>
      <trkpt lat="50.74896642006933689117431640625" lon="11.88418895937502384185791015625">
        <ele>344.600006103515625</ele>
        <time>2018-08-18T06:25:46.000Z</time>
      </trkpt>
      <trkpt lat="50.7489971816539764404296875" lon="11.88428116030991077423095703125">
        <ele>344.399993896484375</ele>
        <time>2018-08-18T06:25:47.000Z</time>
      </trkpt>
      <trkpt lat="50.7492776401340961456298828125" lon="11.88509370200335979461669921875">
        <ele>344.20001220703125</ele>
        <time>2018-08-18T06:25:56.000Z</time>
      </trkpt>
      <trkpt lat="50.74930588714778423309326171875" lon="11.88518724404275417327880859375">
        <ele>344.20001220703125</ele>
        <time>2018-08-18T06:25:57.000Z</time>
      </trkpt>
      <trkpt lat="50.7493302784860134124755859375" lon="11.88528246246278285980224609375">
        <ele>344.20001220703125</ele>
        <time>2018-08-18T06:25:58.000Z</time>
      </trkpt>
      <trkpt lat="50.74949967674911022186279296875" lon="11.88613238744437694549560546875">
        <ele>343.79998779296875</ele>
        <time>2018-08-18T06:26:06.000Z</time>
      </trkpt>
      <trkpt lat="50.7495354674756526947021484375" lon="11.88623297028243541717529296875">
        <ele>343.79998779296875</ele>
        <time>2018-08-18T06:26:07.000Z</time>
      </trkpt>
      <trkpt lat="50.74970520101487636566162109375" lon="11.88662608154118061065673828125">
        <ele>343.20001220703125</ele>
        <time>2018-08-18T06:26:11.000Z</time>
      </trkpt>
      <trkpt lat="50.74986445717513561248779296875" lon="11.88704618252813816070556640625">
        <ele>342.20001220703125</ele>
        <time>2018-08-18T06:26:15.000Z</time>
      </trkpt>
      <trkpt lat="50.7501714862883090972900390625" lon="11.887879930436611175537109375">
        <ele>341.20001220703125</ele>
        <time>2018-08-18T06:26:23.000Z</time>
      </trkpt>
      <trkpt lat="50.75041313655674457550048828125" lon="11.8886567652225494384765625">
        <ele>340.20001220703125</ele>
        <time>2018-08-18T06:26:30.000Z</time>
      </trkpt>
      <trkpt lat="50.75069300830364227294921875" lon="11.889428235590457916259765625">
        <ele>339.600006103515625</ele>
        <time>2018-08-18T06:26:37.000Z</time>
      </trkpt>
      <trkpt lat="50.75095159001648426055908203125" lon="11.88987859524786472320556640625">
        <ele>339</ele>
        <time>2018-08-18T06:26:42.000Z</time>
      </trkpt>
      <trkpt lat="50.75137068517506122589111328125" lon="11.8904292024672031402587890625">
        <ele>338.20001220703125</ele>
        <time>2018-08-18T06:26:49.000Z</time>
      </trkpt>
      <trkpt lat="50.751598589122295379638671875" lon="11.89076833426952362060546875">
        <ele>337.79998779296875</ele>
        <time>2018-08-18T06:26:53.000Z</time>
      </trkpt>
      <trkpt lat="50.75200821273028850555419921875" lon="11.8913267366588115692138671875">
        <ele>337.20001220703125</ele>
        <time>2018-08-18T06:27:00.000Z</time>
      </trkpt>
      <trkpt lat="50.752110891044139862060546875" lon="11.8914945423603057861328125">
        <ele>337</ele>
        <time>2018-08-18T06:27:02.000Z</time>
      </trkpt>
      <trkpt lat="50.752184651792049407958984375" lon="11.8916921876370906829833984375">
        <ele>336.79998779296875</ele>
        <time>2018-08-18T06:27:04.000Z</time>
      </trkpt>
      <trkpt lat="50.7522501982748508453369140625" lon="11.89201145432889461517333984375">
        <ele>336.600006103515625</ele>
        <time>2018-08-18T06:27:07.000Z</time>
      </trkpt>
      <trkpt lat="50.7523551397025585174560546875" lon="11.89285065047442913055419921875">
        <ele>336.399993896484375</ele>
        <time>2018-08-18T06:27:15.000Z</time>
      </trkpt>
      <trkpt lat="50.7523662038147449493408203125" lon="11.89295391552150249481201171875">
        <ele>336.600006103515625</ele>
        <time>2018-08-18T06:27:16.000Z</time>
      </trkpt>
      <trkpt lat="50.752449519932270050048828125" lon="11.89382194541394710540771484375">
        <ele>336.79998779296875</ele>
        <time>2018-08-18T06:27:24.000Z</time>
      </trkpt>
      <trkpt lat="50.75253325514495372772216796875" lon="11.8947400152683258056640625">
        <ele>337</ele>
        <time>2018-08-18T06:27:32.000Z</time>
      </trkpt>
      <trkpt lat="50.7527028210461139678955078125" lon="11.8955877609550952911376953125">
        <ele>337</ele>
        <time>2018-08-18T06:27:40.000Z</time>
      </trkpt>
      <trkpt lat="50.7527561299502849578857421875" lon="11.895787082612514495849609375">
        <ele>337</ele>
        <time>2018-08-18T06:27:42.000Z</time>
      </trkpt>
      <trkpt lat="50.7529640011489391326904296875" lon="11.89658110029995441436767578125">
        <ele>337.20001220703125</ele>
        <time>2018-08-18T06:27:50.000Z</time>
      </trkpt>
      <trkpt lat="50.75319073162972927093505859375" lon="11.89746270887553691864013671875">
        <ele>337.20001220703125</ele>
        <time>2018-08-18T06:27:58.000Z</time>
      </trkpt>
      <trkpt lat="50.753407739102840423583984375" lon="11.89830073155462741851806640625">
        <ele>336.399993896484375</ele>
        <time>2018-08-18T06:28:05.000Z</time>
      </trkpt>
      <trkpt lat="50.75360245071351528167724609375" lon="11.89903800375759601593017578125">
        <ele>335.399993896484375</ele>
        <time>2018-08-18T06:28:11.000Z</time>
      </trkpt>
      <trkpt lat="50.75376673601567745208740234375" lon="11.89965910278260707855224609375">
        <ele>334</ele>
        <time>2018-08-18T06:28:16.000Z</time>
      </trkpt>
      <trkpt lat="50.75396186672151088714599609375" lon="11.90041179768741130828857421875">
        <ele>332.79998779296875</ele>
        <time>2018-08-18T06:28:22.000Z</time>
      </trkpt>
      <trkpt lat="50.7541847415268421173095703125" lon="11.90124571323394775390625">
        <ele>331.79998779296875</ele>
        <time>2018-08-18T06:28:29.000Z</time>
      </trkpt>
      <trkpt lat="50.75439705513417720794677734375" lon="11.9020941294729709625244140625">
        <ele>331.600006103515625</ele>
        <time>2018-08-18T06:28:37.000Z</time>
      </trkpt>
      <trkpt lat="50.75461976230144500732421875" lon="11.90293961204588413238525390625">
        <ele>331.600006103515625</ele>
        <time>2018-08-18T06:28:45.000Z</time>
      </trkpt>
      <trkpt lat="50.75468706898391246795654296875" lon="11.903141699731349945068359375">
        <ele>331.600006103515625</ele>
        <time>2018-08-18T06:28:47.000Z</time>
      </trkpt>
      <trkpt lat="50.75505754910409450531005859375" lon="11.9037956558167934417724609375">
        <ele>331.600006103515625</ele>
        <time>2018-08-18T06:28:56.000Z</time>
      </trkpt>
      <trkpt lat="50.75508235953748226165771484375" lon="11.90414979122579097747802734375">
        <ele>331.79998779296875</ele>
        <time>2018-08-18T06:29:00.000Z</time>
      </trkpt>
      <trkpt lat="50.75519568286836147308349609375" lon="11.90446193329989910125732421875">
        <ele>332.79998779296875</ele>
        <time>2018-08-18T06:29:04.000Z</time>
      </trkpt>
      <trkpt lat="50.755228959023952484130859375" lon="11.904533095657825469970703125">
        <ele>332.79998779296875</ele>
        <time>2018-08-18T06:29:05.000Z</time>
      </trkpt>
      <trkpt lat="50.7552710361778736114501953125" lon="11.9050117023289203643798828125">
        <ele>333</ele>
        <time>2018-08-18T06:29:10.000Z</time>
      </trkpt>
      <trkpt lat="50.75528888963162899017333984375" lon="11.90550246275961399078369140625">
        <ele>333</ele>
        <time>2018-08-18T06:29:14.000Z</time>
      </trkpt>
      <trkpt lat="50.75550195761024951934814453125" lon="11.90637485124170780181884765625">
        <ele>332</ele>
        <time>2018-08-18T06:29:21.000Z</time>
      </trkpt>
      <trkpt lat="50.75559818185865879058837890625" lon="11.90674382261931896209716796875">
        <ele>331.20001220703125</ele>
        <time>2018-08-18T06:29:24.000Z</time>
      </trkpt>
      <trkpt lat="50.755743943154811859130859375" lon="11.9073566235601902008056640625">
        <ele>330</ele>
        <time>2018-08-18T06:29:29.000Z</time>
      </trkpt>
      <trkpt lat="50.75582499615848064422607421875" lon="11.90820344723761081695556640625">
        <ele>329.20001220703125</ele>
        <time>2018-08-18T06:29:36.000Z</time>
      </trkpt>
      <trkpt lat="50.75582885183393955230712890625" lon="11.908681802451610565185546875">
        <ele>328.79998779296875</ele>
        <time>2018-08-18T06:29:40.000Z</time>
      </trkpt>
      <trkpt lat="50.75582801364362239837646484375" lon="11.9093558751046657562255859375">
        <ele>328.399993896484375</ele>
        <time>2018-08-18T06:29:46.000Z</time>
      </trkpt>
      <trkpt lat="50.75555794872343540191650390625" lon="11.90957036800682544708251953125">
        <ele>328</ele>
        <time>2018-08-18T06:29:51.000Z</time>
      </trkpt>
      <trkpt lat="50.75540439225733280181884765625" lon="11.90959400497376918792724609375">
        <ele>327.79998779296875</ele>
        <time>2018-08-18T06:29:53.000Z</time>
      </trkpt>
      <trkpt lat="50.75524882413446903228759765625" lon="11.90963189117610454559326171875">
        <ele>327.399993896484375</ele>
        <time>2018-08-18T06:29:55.000Z</time>
      </trkpt>
      <trkpt lat="50.755092166364192962646484375" lon="11.90967145375907421112060546875">
        <ele>326.79998779296875</ele>
        <time>2018-08-18T06:29:57.000Z</time>
      </trkpt>
      <trkpt lat="50.75502737425267696380615234375" lon="11.90972928889095783233642578125">
        <ele>326.600006103515625</ele>
        <time>2018-08-18T06:29:58.000Z</time>
      </trkpt>
      <trkpt lat="50.75493919663131237030029296875" lon="11.91007085144519805908203125">
        <ele>325.399993896484375</ele>
        <time>2018-08-18T06:30:02.000Z</time>
      </trkpt>
      <trkpt lat="50.75509912334382534027099609375" lon="11.9104760326445102691650390625">
        <ele>324.399993896484375</ele>
        <time>2018-08-18T06:30:07.000Z</time>
      </trkpt>
      <trkpt lat="50.7551530189812183380126953125" lon="11.9109041802585124969482421875">
        <ele>324</ele>
        <time>2018-08-18T06:30:11.000Z</time>
      </trkpt>
      <trkpt lat="50.75516852550208568572998046875" lon="11.911796517670154571533203125">
        <ele>323.20001220703125</ele>
        <time>2018-08-18T06:30:19.000Z</time>
      </trkpt>
      <trkpt lat="50.75516718439757823944091796875" lon="11.91201151348650455474853515625">
        <ele>323.20001220703125</ele>
        <time>2018-08-18T06:30:21.000Z</time>
      </trkpt>
      <trkpt lat="50.75516617856919765472412109375" lon="11.91286562941968441009521484375">
        <ele>323</ele>
        <time>2018-08-18T06:30:29.000Z</time>
      </trkpt>
      <trkpt lat="50.75516165234148502349853515625" lon="11.91372192464768886566162109375">
        <ele>323</ele>
        <time>2018-08-18T06:30:37.000Z</time>
      </trkpt>
      <trkpt lat="50.75517690740525722503662109375" lon="11.91436045803129673004150390625">
        <ele>323.20001220703125</ele>
        <time>2018-08-18T06:30:43.000Z</time>
      </trkpt>
      <trkpt lat="50.75545661151409149169921875" lon="11.9150827266275882720947265625">
        <ele>323.20001220703125</ele>
        <time>2018-08-18T06:30:51.000Z</time>
      </trkpt>
      <trkpt lat="50.75595323927700519561767578125" lon="11.91550157032907009124755859375">
        <ele>323.600006103515625</ele>
        <time>2018-08-18T06:31:00.000Z</time>
      </trkpt>
      <trkpt lat="50.756132863461971282958984375" lon="11.91563501022756099700927734375">
        <ele>324</ele>
        <time>2018-08-18T06:31:03.000Z</time>
      </trkpt>
      <trkpt lat="50.75662177987396717071533203125" lon="11.91601688973605632781982421875">
        <ele>324.20001220703125</ele>
        <time>2018-08-18T06:31:11.000Z</time>
      </trkpt>
      <trkpt lat="50.75711765326559543609619140625" lon="11.91647135652601718902587890625">
        <ele>324</ele>
        <time>2018-08-18T06:31:19.000Z</time>
      </trkpt>
      <trkpt lat="50.75764403678476810455322265625" lon="11.91695884801447391510009765625">
        <ele>323.399993896484375</ele>
        <time>2018-08-18T06:31:27.000Z</time>
      </trkpt>
      <trkpt lat="50.75784620828926563262939453125" lon="11.917146183550357818603515625">
        <ele>323</ele>
        <time>2018-08-18T06:31:30.000Z</time>
      </trkpt>
      <trkpt lat="50.75831794179975986480712890625" lon="11.91758179105818271636962890625">
        <ele>322</ele>
        <time>2018-08-18T06:31:37.000Z</time>
      </trkpt>
      <trkpt lat="50.7584487833082675933837890625" lon="11.91770173609256744384765625">
        <ele>321.79998779296875</ele>
        <time>2018-08-18T06:31:39.000Z</time>
      </trkpt>
      <trkpt lat="50.75875447131693363189697265625" lon="11.91795386373996734619140625">
        <ele>321.399993896484375</ele>
        <time>2018-08-18T06:31:44.000Z</time>
      </trkpt>
      <trkpt lat="50.759040378034114837646484375" lon="11.917984373867511749267578125">
        <ele>321.20001220703125</ele>
        <time>2018-08-18T06:31:49.000Z</time>
      </trkpt>
      <trkpt lat="50.75909368693828582763671875" lon="11.917984373867511749267578125">
        <ele>321.20001220703125</ele>
        <time>2018-08-18T06:31:50.000Z</time>
      </trkpt>
      <trkpt lat="50.75931538827717304229736328125" lon="11.918257288634777069091796875">
        <ele>321.399993896484375</ele>
        <time>2018-08-18T06:31:55.000Z</time>
      </trkpt>
      <trkpt lat="50.759619064629077911376953125" lon="11.91895994357764720916748046875">
        <ele>321.600006103515625</ele>
        <time>2018-08-18T06:32:03.000Z</time>
      </trkpt>
      <trkpt lat="50.75997018255293369293212890625" lon="11.9196203537285327911376953125">
        <ele>321.79998779296875</ele>
        <time>2018-08-18T06:32:11.000Z</time>
      </trkpt>
      <trkpt lat="50.760369412600994110107421875" lon="11.9202996231615543365478515625">
        <ele>322.20001220703125</ele>
        <time>2018-08-18T06:32:20.000Z</time>
      </trkpt>
      <trkpt lat="50.76072857715189456939697265625" lon="11.920852996408939361572265625">
        <ele>322.79998779296875</ele>
        <time>2018-08-18T06:32:28.000Z</time>
      </trkpt>
      <trkpt lat="50.76114566065371036529541015625" lon="11.9214466027915477752685546875">
        <ele>323</ele>
        <time>2018-08-18T06:32:37.000Z</time>
      </trkpt>
      <trkpt lat="50.761569701135158538818359375" lon="11.9219907559454441070556640625">
        <ele>323.600006103515625</ele>
        <time>2018-08-18T06:32:46.000Z</time>
      </trkpt>
      <trkpt lat="50.762020647525787353515625" lon="11.92252476699650287628173828125">
        <ele>324.600006103515625</ele>
        <time>2018-08-18T06:32:55.000Z</time>
      </trkpt>
      <trkpt lat="50.76251409016549587249755859375" lon="11.92305752076208591461181640625">
        <ele>324.600006103515625</ele>
        <time>2018-08-18T06:33:04.000Z</time>
      </trkpt>
      <trkpt lat="50.76298934407532215118408203125" lon="11.92351936362683773040771484375">
        <ele>324.20001220703125</ele>
        <time>2018-08-18T06:33:12.000Z</time>
      </trkpt>
      <trkpt lat="50.76349812559783458709716796875" lon="11.92396192811429500579833984375">
        <ele>323.20001220703125</ele>
        <time>2018-08-18T06:33:20.000Z</time>
      </trkpt>
      <trkpt lat="50.76382636092603206634521484375" lon="11.92421707324683666229248046875">
        <ele>322.600006103515625</ele>
        <time>2018-08-18T06:33:25.000Z</time>
      </trkpt>
      <trkpt lat="50.76438392512500286102294921875" lon="11.9246173091232776641845703125">
        <ele>321.600006103515625</ele>
        <time>2018-08-18T06:33:33.000Z</time>
      </trkpt>
      <trkpt lat="50.764526836574077606201171875" lon="11.9247111864387989044189453125">
        <ele>321.20001220703125</ele>
        <time>2018-08-18T06:33:35.000Z</time>
      </trkpt>
      <trkpt lat="50.76488549821078777313232421875" lon="11.9249348156154155731201171875">
        <ele>320.20001220703125</ele>
        <time>2018-08-18T06:33:40.000Z</time>
      </trkpt>
      <trkpt lat="50.765392519533634185791015625" lon="11.9252311997115612030029296875">
        <ele>319.20001220703125</ele>
        <time>2018-08-18T06:33:47.000Z</time>
      </trkpt>
      <trkpt lat="50.76595167629420757293701171875" lon="11.925545521080493927001953125">
        <ele>318.600006103515625</ele>
        <time>2018-08-18T06:33:55.000Z</time>
      </trkpt>
      <trkpt lat="50.76645660214126110076904296875" lon="11.9258796237409114837646484375">
        <ele>318.399993896484375</ele>
        <time>2018-08-18T06:34:03.000Z</time>
      </trkpt>
      <trkpt lat="50.7669151760637760162353515625" lon="11.92620157264173030853271484375">
        <ele>319</ele>
        <time>2018-08-18T06:34:11.000Z</time>
      </trkpt>
      <trkpt lat="50.76740585267543792724609375" lon="11.92658579908311367034912109375">
        <ele>320</ele>
        <time>2018-08-18T06:34:20.000Z</time>
      </trkpt>
      <trkpt lat="50.76751506887376308441162109375" lon="11.9266822747886180877685546875">
        <ele>320.20001220703125</ele>
        <time>2018-08-18T06:34:22.000Z</time>
      </trkpt>
      <trkpt lat="50.76799702830612659454345703125" lon="11.9271348975598812103271484375">
        <ele>321.20001220703125</ele>
        <time>2018-08-18T06:34:31.000Z</time>
      </trkpt>
      <trkpt lat="50.7684809155762195587158203125" lon="11.9276163540780544281005859375">
        <ele>322.20001220703125</ele>
        <time>2018-08-18T06:34:40.000Z</time>
      </trkpt>
      <trkpt lat="50.7685865275561809539794921875" lon="11.92773378454148769378662109375">
        <ele>322.399993896484375</ele>
        <time>2018-08-18T06:34:42.000Z</time>
      </trkpt>
      <trkpt lat="50.76904711313545703887939453125" lon="11.9282999821007251739501953125">
        <ele>323</ele>
        <time>2018-08-18T06:34:51.000Z</time>
      </trkpt>
      <trkpt lat="50.76919781975448131561279296875" lon="11.92848999984562397003173828125">
        <ele>323.399993896484375</ele>
        <time>2018-08-18T06:34:54.000Z</time>
      </trkpt>
      <trkpt lat="50.76964574865996837615966796875" lon="11.92905192263424396514892578125">
        <ele>323.600006103515625</ele>
        <time>2018-08-18T06:35:03.000Z</time>
      </trkpt>
      <trkpt lat="50.769946910440921783447265625" lon="11.92942223511636257171630859375">
        <ele>324.20001220703125</ele>
        <time>2018-08-18T06:35:09.000Z</time>
      </trkpt>
      <trkpt lat="50.7703916542232036590576171875" lon="11.92996504716575145721435546875">
        <ele>325</ele>
        <time>2018-08-18T06:35:18.000Z</time>
      </trkpt>
      <trkpt lat="50.770493410527706146240234375" lon="11.930088512599468231201171875">
        <ele>325.20001220703125</ele>
        <time>2018-08-18T06:35:20.000Z</time>
      </trkpt>
      <trkpt lat="50.7709415070712566375732421875" lon="11.93069779314100742340087890625">
        <ele>325.79998779296875</ele>
        <time>2018-08-18T06:35:29.000Z</time>
      </trkpt>
      <trkpt lat="50.7713542319834232330322265625" lon="11.93130481056869029998779296875">
        <ele>325.79998779296875</ele>
        <time>2018-08-18T06:35:37.000Z</time>
      </trkpt>
      <trkpt lat="50.77179939486086368560791015625" lon="11.93195591680705547332763671875">
        <ele>325.79998779296875</ele>
        <time>2018-08-18T06:35:45.000Z</time>
      </trkpt>
      <trkpt lat="50.77223625965416431427001953125" lon="11.93253041245043277740478515625">
        <ele>324.79998779296875</ele>
        <time>2018-08-18T06:35:52.000Z</time>
      </trkpt>
      <trkpt lat="50.77258796431124210357666015625" lon="11.9329616613686084747314453125">
        <ele>324</ele>
        <time>2018-08-18T06:35:57.000Z</time>
      </trkpt>
      <trkpt lat="50.7729783095419406890869140625" lon="11.9334240071475505828857421875">
        <ele>322.600006103515625</ele>
        <time>2018-08-18T06:36:02.000Z</time>
      </trkpt>
      <trkpt lat="50.7732438482344150543212890625" lon="11.93365543149411678314208984375">
        <ele>321.399993896484375</ele>
        <time>2018-08-18T06:36:05.000Z</time>
      </trkpt>
      <trkpt lat="50.77352531254291534423828125" lon="11.93383748643100261688232421875">
        <ele>320.399993896484375</ele>
        <time>2018-08-18T06:36:08.000Z</time>
      </trkpt>
      <trkpt lat="50.7738376222550868988037109375" lon="11.933990456163883209228515625">
        <ele>319.20001220703125</ele>
        <time>2018-08-18T06:36:11.000Z</time>
      </trkpt>
      <trkpt lat="50.77415705658495426177978515625" lon="11.93414912559092044830322265625">
        <ele>317.79998779296875</ele>
        <time>2018-08-18T06:36:14.000Z</time>
      </trkpt>
      <trkpt lat="50.7744808495044708251953125" lon="11.934297569096088409423828125">
        <ele>316.20001220703125</ele>
        <time>2018-08-18T06:36:17.000Z</time>
      </trkpt>
      <trkpt lat="50.77468310482800006866455078125" lon="11.93441516719758510589599609375">
        <ele>315.20001220703125</ele>
        <time>2018-08-18T06:36:19.000Z</time>
      </trkpt>
      <trkpt lat="50.77497278340160846710205078125" lon="11.9345968030393123626708984375">
        <ele>314</ele>
        <time>2018-08-18T06:36:22.000Z</time>
      </trkpt>
      <trkpt lat="50.7752273418009281158447265625" lon="11.93481422960758209228515625">
        <ele>312.79998779296875</ele>
        <time>2018-08-18T06:36:25.000Z</time>
      </trkpt>
      <trkpt lat="50.7756689004600048065185546875" lon="11.935397945344448089599609375">
        <ele>312</ele>
        <time>2018-08-18T06:36:32.000Z</time>
      </trkpt>
      <trkpt lat="50.77603720128536224365234375" lon="11.93603589199483394622802734375">
        <ele>313</ele>
        <time>2018-08-18T06:36:40.000Z</time>
      </trkpt>
      <trkpt lat="50.7761949487030506134033203125" lon="11.93637183867394924163818359375">
        <ele>313.79998779296875</ele>
        <time>2018-08-18T06:36:44.000Z</time>
      </trkpt>
      <trkpt lat="50.7764852978289127349853515625" lon="11.93713543005287647247314453125">
        <ele>314.79998779296875</ele>
        <time>2018-08-18T06:36:52.000Z</time>
      </trkpt>
      <trkpt lat="50.77655461616814136505126953125" lon="11.9373450614511966705322265625">
        <ele>315</ele>
        <time>2018-08-18T06:36:54.000Z</time>
      </trkpt>
      <trkpt lat="50.77681764028966426849365234375" lon="11.9382020272314548492431640625">
        <ele>315</ele>
        <time>2018-08-18T06:37:02.000Z</time>
      </trkpt>
      <trkpt lat="50.7770596258342266082763671875" lon="11.9389776885509490966796875">
        <ele>314.20001220703125</ele>
        <time>2018-08-18T06:37:09.000Z</time>
      </trkpt>
      <trkpt lat="50.77720421366393566131591796875" lon="11.93941514007747173309326171875">
        <ele>314</ele>
        <time>2018-08-18T06:37:13.000Z</time>
      </trkpt>
      <trkpt lat="50.7773238234221935272216796875" lon="11.93972803652286529541015625">
        <ele>313.79998779296875</ele>
        <time>2018-08-18T06:37:16.000Z</time>
      </trkpt>
      <trkpt lat="50.77764225192368030548095703125" lon="11.94043052382767200469970703125">
        <ele>313.20001220703125</ele>
        <time>2018-08-18T06:37:23.000Z</time>
      </trkpt>
      <trkpt lat="50.77785129658877849578857421875" lon="11.94079983048141002655029296875">
        <ele>312.600006103515625</ele>
        <time>2018-08-18T06:37:27.000Z</time>
      </trkpt>
      <trkpt lat="50.7782049290835857391357421875" lon="11.9414478354156017303466796875">
        <ele>311.79998779296875</ele>
        <time>2018-08-18T06:37:34.000Z</time>
      </trkpt>
      <trkpt lat="50.77835404314100742340087890625" lon="11.94172360002994537353515625">
        <ele>311.399993896484375</ele>
        <time>2018-08-18T06:37:37.000Z</time>
      </trkpt>
      <trkpt lat="50.77873223461210727691650390625" lon="11.94245961494743824005126953125">
        <ele>311.399993896484375</ele>
        <time>2018-08-18T06:37:45.000Z</time>
      </trkpt>
      <trkpt lat="50.77908075414597988128662109375" lon="11.9431899301707744598388671875">
        <ele>311.79998779296875</ele>
        <time>2018-08-18T06:37:53.000Z</time>
      </trkpt>
      <trkpt lat="50.77939507551491260528564453125" lon="11.94388956762850284576416015625">
        <ele>312</ele>
        <time>2018-08-18T06:38:00.000Z</time>
      </trkpt>
      <trkpt lat="50.7796982489526271820068359375" lon="11.94460052065551280975341796875">
        <ele>311.79998779296875</ele>
        <time>2018-08-18T06:38:07.000Z</time>
      </trkpt>
      <trkpt lat="50.78000645153224468231201171875" lon="11.945420689880847930908203125">
        <ele>311.20001220703125</ele>
        <time>2018-08-18T06:38:15.000Z</time>
      </trkpt>
      <trkpt lat="50.7802963815629482269287109375" lon="11.94626198150217533111572265625">
        <ele>310.79998779296875</ele>
        <time>2018-08-18T06:38:23.000Z</time>
      </trkpt>
      <trkpt lat="50.78058714978396892547607421875" lon="11.94708508439362049102783203125">
        <ele>310.79998779296875</ele>
        <time>2018-08-18T06:38:31.000Z</time>
      </trkpt>
      <trkpt lat="50.780962407588958740234375" lon="11.94775530137121677398681640625">
        <ele>311</ele>
        <time>2018-08-18T06:38:39.000Z</time>
      </trkpt>
      <trkpt lat="50.78140840865671634674072265625" lon="11.94828621111810207366943359375">
        <ele>311.399993896484375</ele>
        <time>2018-08-18T06:38:47.000Z</time>
      </trkpt>
      <trkpt lat="50.781858600676059722900390625" lon="11.9488483853638172149658203125">
        <ele>311.79998779296875</ele>
        <time>2018-08-18T06:38:55.000Z</time>
      </trkpt>
      <trkpt lat="50.78223821707069873809814453125" lon="11.94960300810635089874267578125">
        <ele>311.79998779296875</ele>
        <time>2018-08-18T06:39:03.000Z</time>
      </trkpt>
      <trkpt lat="50.78254315070807933807373046875" lon="11.95032946765422821044921875">
        <ele>311.20001220703125</ele>
        <time>2018-08-18T06:39:10.000Z</time>
      </trkpt>
      <trkpt lat="50.78285160474479198455810546875" lon="11.9510719366371631622314453125">
        <ele>310.20001220703125</ele>
        <time>2018-08-18T06:39:17.000Z</time>
      </trkpt>
      <trkpt lat="50.78316860832273960113525390625" lon="11.9518353603780269622802734375">
        <ele>309.600006103515625</ele>
        <time>2018-08-18T06:39:24.000Z</time>
      </trkpt>
      <trkpt lat="50.783375389873981475830078125" lon="11.95225856266915798187255859375">
        <ele>309.20001220703125</ele>
        <time>2018-08-18T06:39:28.000Z</time>
      </trkpt>
      <trkpt lat="50.7834409363567829132080078125" lon="11.95234782993793487548828125">
        <ele>309</ele>
        <time>2018-08-18T06:39:29.000Z</time>
      </trkpt>
      <trkpt lat="50.78390973620116710662841796875" lon="11.952562071382999420166015625">
        <ele>308.20001220703125</ele>
        <time>2018-08-18T06:39:35.000Z</time>
      </trkpt>
      <trkpt lat="50.78399204649031162261962890625" lon="11.95255930535495281219482421875">
        <ele>308</ele>
        <time>2018-08-18T06:39:36.000Z</time>
      </trkpt>
      <trkpt lat="50.7844890095293521881103515625" lon="11.9525672681629657745361328125">
        <ele>307</ele>
        <time>2018-08-18T06:39:42.000Z</time>
      </trkpt>
      <trkpt lat="50.7845728285610675811767578125" lon="11.952602975070476531982421875">
        <ele>306.79998779296875</ele>
        <time>2018-08-18T06:39:43.000Z</time>
      </trkpt>
      <trkpt lat="50.78503894619643688201904296875" lon="11.95291704498231410980224609375">
        <ele>305.79998779296875</ele>
        <time>2018-08-18T06:39:49.000Z</time>
      </trkpt>
      <trkpt lat="50.78554253093898296356201171875" lon="11.953286938369274139404296875">
        <ele>304.79998779296875</ele>
        <time>2018-08-18T06:39:56.000Z</time>
      </trkpt>
      <trkpt lat="50.7856819219887256622314453125" lon="11.95339598692953586578369140625">
        <ele>304.79998779296875</ele>
        <time>2018-08-18T06:39:58.000Z</time>
      </trkpt>
      <trkpt lat="50.785743109881877899169921875" lon="11.95346631109714508056640625">
        <ele>304.79998779296875</ele>
        <time>2018-08-18T06:39:59.000Z</time>
      </trkpt>
      <trkpt lat="50.78580354340374469757080078125" lon="11.95414331741631031036376953125">
        <ele>304.79998779296875</ele>
        <time>2018-08-18T06:40:05.000Z</time>
      </trkpt>
      <trkpt lat="50.7856763899326324462890625" lon="11.95504571311175823211669921875">
        <ele>305</ele>
        <time>2018-08-18T06:40:13.000Z</time>
      </trkpt>
      <trkpt lat="50.78558259643614292144775390625" lon="11.955844424664974212646484375">
        <ele>305.600006103515625</ele>
        <time>2018-08-18T06:40:20.000Z</time>
      </trkpt>
      <trkpt lat="50.78553783707320690155029296875" lon="11.95630936883389949798583984375">
        <ele>305.79998779296875</ele>
        <time>2018-08-18T06:40:24.000Z</time>
      </trkpt>
      <trkpt lat="50.78565853647887706756591796875" lon="11.957079581916332244873046875">
        <ele>306</ele>
        <time>2018-08-18T06:40:31.000Z</time>
      </trkpt>
      <trkpt lat="50.78589004464447498321533203125" lon="11.9578887708485126495361328125">
        <ele>306.399993896484375</ele>
        <time>2018-08-18T06:40:39.000Z</time>
      </trkpt>
      <trkpt lat="50.78594955615699291229248046875" lon="11.95819378830492496490478515625">
        <ele>306.399993896484375</ele>
        <time>2018-08-18T06:40:42.000Z</time>
      </trkpt>
      <trkpt lat="50.78597336076200008392333984375" lon="11.958717741072177886962890625">
        <ele>306.600006103515625</ele>
        <time>2018-08-18T06:40:47.000Z</time>
      </trkpt>
      <trkpt lat="50.785914771258831024169921875" lon="11.9595768861472606658935546875">
        <ele>307.20001220703125</ele>
        <time>2018-08-18T06:40:55.000Z</time>
      </trkpt>
      <trkpt lat="50.78584712930023670196533203125" lon="11.96042622439563274383544921875">
        <ele>307.600006103515625</ele>
        <time>2018-08-18T06:41:03.000Z</time>
      </trkpt>
      <trkpt lat="50.78579231165349483489990234375" lon="11.9613793306052684783935546875">
        <ele>308</ele>
        <time>2018-08-18T06:41:12.000Z</time>
      </trkpt>
      <trkpt lat="50.7858854345977306365966796875" lon="11.962301842868328094482421875">
        <ele>308.20001220703125</ele>
        <time>2018-08-18T06:41:20.000Z</time>
      </trkpt>
      <trkpt lat="50.78600420616567134857177734375" lon="11.96325109340250492095947265625">
        <ele>307.600006103515625</ele>
        <time>2018-08-18T06:41:28.000Z</time>
      </trkpt>
      <trkpt lat="50.78610545955598354339599609375" lon="11.9640876911580562591552734375">
        <ele>307</ele>
        <time>2018-08-18T06:41:35.000Z</time>
      </trkpt>
      <trkpt lat="50.78623504377901554107666015625" lon="11.96496301330626010894775390625">
        <ele>307</ele>
        <time>2018-08-18T06:41:43.000Z</time>
      </trkpt>
      <trkpt lat="50.78644073568284511566162109375" lon="11.9658049754798412322998046875">
        <ele>307.600006103515625</ele>
        <time>2018-08-18T06:41:52.000Z</time>
      </trkpt>
      <trkpt lat="50.7865787856280803680419921875" lon="11.96631534956395626068115234375">
        <ele>308.600006103515625</ele>
        <time>2018-08-18T06:41:58.000Z</time>
      </trkpt>
      <trkpt lat="50.7866988144814968109130859375" lon="11.96673377417027950286865234375">
        <ele>309.79998779296875</ele>
        <time>2018-08-18T06:42:03.000Z</time>
      </trkpt>
      <trkpt lat="50.78683870844542980194091796875" lon="11.96712973527610301971435546875">
        <ele>310.79998779296875</ele>
        <time>2018-08-18T06:42:08.000Z</time>
      </trkpt>
      <trkpt lat="50.78705043531954288482666015625" lon="11.96761739440262317657470703125">
        <ele>311.79998779296875</ele>
        <time>2018-08-18T06:42:15.000Z</time>
      </trkpt>
      <trkpt lat="50.787195526063442230224609375" lon="11.9679294526576995849609375">
        <ele>312.79998779296875</ele>
        <time>2018-08-18T06:42:20.000Z</time>
      </trkpt>
      <trkpt lat="50.7873713783919811248779296875" lon="11.96828308515250682830810546875">
        <ele>314</ele>
        <time>2018-08-18T06:42:26.000Z</time>
      </trkpt>
      <trkpt lat="50.78752350993454456329345703125" lon="11.96856471709907054901123046875">
        <ele>315.20001220703125</ele>
        <time>2018-08-18T06:42:31.000Z</time>
      </trkpt>
      <trkpt lat="50.787693075835704803466796875" lon="11.9688777811825275421142578125">
        <ele>316.20001220703125</ele>
        <time>2018-08-18T06:42:37.000Z</time>
      </trkpt>
      <trkpt lat="50.7878514938056468963623046875" lon="11.96911524049937725067138671875">
        <ele>317.20001220703125</ele>
        <time>2018-08-18T06:42:42.000Z</time>
      </trkpt>
      <trkpt lat="50.788031034171581268310546875" lon="11.96932353079319000244140625">
        <ele>318.399993896484375</ele>
        <time>2018-08-18T06:42:47.000Z</time>
      </trkpt>
      <trkpt lat="50.788216106593608856201171875" lon="11.96949510835111141204833984375">
        <ele>319.399993896484375</ele>
        <time>2018-08-18T06:42:52.000Z</time>
      </trkpt>
      <trkpt lat="50.78837125562131404876708984375" lon="11.9696123711764812469482421875">
        <ele>320.600006103515625</ele>
        <time>2018-08-18T06:42:56.000Z</time>
      </trkpt>
      <trkpt lat="50.78848893754184246063232421875" lon="11.969679929316043853759765625">
        <ele>321.600006103515625</ele>
        <time>2018-08-18T06:42:59.000Z</time>
      </trkpt>
      <trkpt lat="50.7886930368840694427490234375" lon="11.969767101109027862548828125">
        <ele>322.79998779296875</ele>
        <time>2018-08-18T06:43:04.000Z</time>
      </trkpt>
      <trkpt lat="50.78885237686336040496826171875" lon="11.96981881745159626007080078125">
        <ele>324</ele>
        <time>2018-08-18T06:43:08.000Z</time>
      </trkpt>
      <trkpt lat="50.789051949977874755859375" lon="11.969870030879974365234375">
        <ele>325.20001220703125</ele>
        <time>2018-08-18T06:43:13.000Z</time>
      </trkpt>
      <trkpt lat="50.78925286419689655303955078125" lon="11.96991604752838611602783203125">
        <ele>326.399993896484375</ele>
        <time>2018-08-18T06:43:18.000Z</time>
      </trkpt>
      <trkpt lat="50.78942410647869110107421875" lon="11.9699370861053466796875">
        <ele>327.399993896484375</ele>
        <time>2018-08-18T06:43:22.000Z</time>
      </trkpt>
      <trkpt lat="50.7896406948566436767578125" lon="11.9699644111096858978271484375">
        <ele>328.600006103515625</ele>
        <time>2018-08-18T06:43:27.000Z</time>
      </trkpt>
      <trkpt lat="50.78985904343426227569580078125" lon="11.96998343802988529205322265625">
        <ele>329.79998779296875</ele>
        <time>2018-08-18T06:43:32.000Z</time>
      </trkpt>
      <trkpt lat="50.79012592323124408721923828125" lon="11.9700108468532562255859375">
        <ele>331</ele>
        <time>2018-08-18T06:43:38.000Z</time>
      </trkpt>
      <trkpt lat="50.79034066759049892425537109375" lon="11.9700254313647747039794921875">
        <ele>331.79998779296875</ele>
        <time>2018-08-18T06:43:43.000Z</time>
      </trkpt>
      <trkpt lat="50.7905474491417407989501953125" lon="11.97006273083388805389404296875">
        <ele>332.79998779296875</ele>
        <time>2018-08-18T06:43:48.000Z</time>
      </trkpt>
      <trkpt lat="50.79077082686126232147216796875" lon="11.97012525983154773712158203125">
        <ele>334</ele>
        <time>2018-08-18T06:43:54.000Z</time>
      </trkpt>
      <trkpt lat="50.79095891676843166351318359375" lon="11.97021796368062496185302734375">
        <ele>335.399993896484375</ele>
        <time>2018-08-18T06:44:00.000Z</time>
      </trkpt>
      <trkpt lat="50.79115237109363079071044921875" lon="11.97038426063954830169677734375">
        <ele>336.399993896484375</ele>
        <time>2018-08-18T06:44:05.000Z</time>
      </trkpt>
      <trkpt lat="50.79131162725389003753662109375" lon="11.9705561734735965728759765625">
        <ele>337.399993896484375</ele>
        <time>2018-08-18T06:44:09.000Z</time>
      </trkpt>
      <trkpt lat="50.79146518371999263763427734375" lon="11.9707388989627361297607421875">
        <ele>338.399993896484375</ele>
        <time>2018-08-18T06:44:13.000Z</time>
      </trkpt>
      <trkpt lat="50.7916122861206531524658203125" lon="11.97092992253601551055908203125">
        <ele>339.600006103515625</ele>
        <time>2018-08-18T06:44:17.000Z</time>
      </trkpt>
      <trkpt lat="50.79178973101079463958740234375" lon="11.97115338407456874847412109375">
        <ele>340.79998779296875</ele>
        <time>2018-08-18T06:44:22.000Z</time>
      </trkpt>
      <trkpt lat="50.7919465564191341400146484375" lon="11.97138019837439060211181640625">
        <ele>341.79998779296875</ele>
        <time>2018-08-18T06:44:27.000Z</time>
      </trkpt>
      <trkpt lat="50.79203247092664241790771484375" lon="11.971518583595752716064453125">
        <ele>342.79998779296875</ele>
        <time>2018-08-18T06:44:30.000Z</time>
      </trkpt>
      <trkpt lat="50.79214344732463359832763671875" lon="11.9717101939022541046142578125">
        <ele>343.79998779296875</ele>
        <time>2018-08-18T06:44:34.000Z</time>
      </trkpt>
      <trkpt lat="50.79233564436435699462890625" lon="11.9718463160097599029541015625">
        <ele>345</ele>
        <time>2018-08-18T06:44:39.000Z</time>
      </trkpt>
      <trkpt lat="50.7925396598875522613525390625" lon="11.9720209948718547821044921875">
        <ele>346</ele>
        <time>2018-08-18T06:44:45.000Z</time>
      </trkpt>
      <trkpt lat="50.792746357619762420654296875" lon="11.9721748866140842437744140625">
        <ele>347.20001220703125</ele>
        <time>2018-08-18T06:44:51.000Z</time>
      </trkpt>
      <trkpt lat="50.792962610721588134765625" lon="11.972321569919586181640625">
        <ele>348.20001220703125</ele>
        <time>2018-08-18T06:44:56.000Z</time>
      </trkpt>
      <trkpt lat="50.793108455836772918701171875" lon="11.972431205213069915771484375">
        <ele>349.399993896484375</ele>
        <time>2018-08-18T06:45:00.000Z</time>
      </trkpt>
      <trkpt lat="50.79344415105879306793212890625" lon="11.97270923294126987457275390625">
        <ele>350.399993896484375</ele>
        <time>2018-08-18T06:45:07.000Z</time>
      </trkpt>
      <trkpt lat="50.79375394620001316070556640625" lon="11.97296706028282642364501953125">
        <ele>351.20001220703125</ele>
        <time>2018-08-18T06:45:13.000Z</time>
      </trkpt>
      <trkpt lat="50.79410833306610584259033203125" lon="11.973131932318210601806640625">
        <ele>352.399993896484375</ele>
        <time>2018-08-18T06:45:20.000Z</time>
      </trkpt>
      <trkpt lat="50.79468534328043460845947265625" lon="11.973385401070117950439453125">
        <ele>353.399993896484375</ele>
        <time>2018-08-18T06:45:30.000Z</time>
      </trkpt>
      <trkpt lat="50.7952493615448474884033203125" lon="11.9734526239335536956787109375">
        <ele>353.600006103515625</ele>
        <time>2018-08-18T06:45:39.000Z</time>
      </trkpt>
      <trkpt lat="50.795806758105754852294921875" lon="11.97339353151619434356689453125">
        <ele>354</ele>
        <time>2018-08-18T06:45:48.000Z</time>
      </trkpt>
      <trkpt lat="50.7960377633571624755859375" lon="11.97328188456594944000244140625">
        <ele>354.20001220703125</ele>
        <time>2018-08-18T06:45:52.000Z</time>
      </trkpt>
      <trkpt lat="50.79654671251773834228515625" lon="11.97297125123441219329833984375">
        <ele>355</ele>
        <time>2018-08-18T06:46:01.000Z</time>
      </trkpt>
      <trkpt lat="50.79660329036414623260498046875" lon="11.9729359634220600128173828125">
        <ele>355</ele>
        <time>2018-08-18T06:46:02.000Z</time>
      </trkpt>
      <trkpt lat="50.79714174382388591766357421875" lon="11.97266397066414356231689453125">
        <ele>355.79998779296875</ele>
        <time>2018-08-18T06:46:11.000Z</time>
      </trkpt>
      <trkpt lat="50.79733419232070446014404296875" lon="11.97259255684912204742431640625">
        <ele>356.20001220703125</ele>
        <time>2018-08-18T06:46:14.000Z</time>
      </trkpt>
      <trkpt lat="50.797921679913997650146484375" lon="11.972376890480518341064453125">
        <ele>357.20001220703125</ele>
        <time>2018-08-18T06:46:23.000Z</time>
      </trkpt>
      <trkpt lat="50.7981300540268421173095703125" lon="11.9723046384751796722412109375">
        <ele>357.20001220703125</ele>
        <time>2018-08-18T06:46:26.000Z</time>
      </trkpt>
      <trkpt lat="50.79869172535836696624755859375" lon="11.9721078313887119293212890625">
        <ele>357</ele>
        <time>2018-08-18T06:46:34.000Z</time>
      </trkpt>
      <trkpt lat="50.79924367368221282958984375" lon="11.97189803235232830047607421875">
        <ele>357</ele>
        <time>2018-08-18T06:46:42.000Z</time>
      </trkpt>
      <trkpt lat="50.79981657676398754119873046875" lon="11.97166501544415950775146484375">
        <ele>356.79998779296875</ele>
        <time>2018-08-18T06:46:50.000Z</time>
      </trkpt>
      <trkpt lat="50.8004102669656276702880859375" lon="11.97142763994634151458740234375">
        <ele>356.20001220703125</ele>
        <time>2018-08-18T06:46:58.000Z</time>
      </trkpt>
      <trkpt lat="50.80064110457897186279296875" lon="11.971350945532321929931640625">
        <ele>355.79998779296875</ele>
        <time>2018-08-18T06:47:01.000Z</time>
      </trkpt>
      <trkpt lat="50.8012008480727672576904296875" lon="11.97112404741346836090087890625">
        <ele>355.399993896484375</ele>
        <time>2018-08-18T06:47:09.000Z</time>
      </trkpt>
      <trkpt lat="50.80176017247140407562255859375" lon="11.97094224393367767333984375">
        <ele>355.600006103515625</ele>
        <time>2018-08-18T06:47:18.000Z</time>
      </trkpt>
      <trkpt lat="50.8020447380840778350830078125" lon="11.97088348679244518280029296875">
        <ele>356.79998779296875</ele>
        <time>2018-08-18T06:47:23.000Z</time>
      </trkpt>
      <trkpt lat="50.80233248881995677947998046875" lon="11.97085347957909107208251953125">
        <ele>358</ele>
        <time>2018-08-18T06:47:28.000Z</time>
      </trkpt>
      <trkpt lat="50.80261948518455028533935546875" lon="11.97085440158843994140625">
        <ele>359</ele>
        <time>2018-08-18T06:47:33.000Z</time>
      </trkpt>
      <trkpt lat="50.80296699889004230499267578125" lon="11.97089136578142642974853515625">
        <ele>360.20001220703125</ele>
        <time>2018-08-18T06:47:39.000Z</time>
      </trkpt>
      <trkpt lat="50.803307555615901947021484375" lon="11.97096143849194049835205078125">
        <ele>361.399993896484375</ele>
        <time>2018-08-18T06:47:45.000Z</time>
      </trkpt>
      <trkpt lat="50.80359413288533687591552734375" lon="11.9710517115890979766845703125">
        <ele>362.600006103515625</ele>
        <time>2018-08-18T06:47:50.000Z</time>
      </trkpt>
      <trkpt lat="50.80393343232572078704833984375" lon="11.97118766605854034423828125">
        <ele>363.600006103515625</ele>
        <time>2018-08-18T06:47:56.000Z</time>
      </trkpt>
      <trkpt lat="50.804159156978130340576171875" lon="11.97129637934267520904541015625">
        <ele>364.79998779296875</ele>
        <time>2018-08-18T06:48:00.000Z</time>
      </trkpt>
      <trkpt lat="50.80438069067895412445068359375" lon="11.9714335910975933074951171875">
        <ele>365.600006103515625</ele>
        <time>2018-08-18T06:48:04.000Z</time>
      </trkpt>
      <trkpt lat="50.8047118596732616424560546875" lon="11.9716706313192844390869140625">
        <ele>366.79998779296875</ele>
        <time>2018-08-18T06:48:10.000Z</time>
      </trkpt>
      <trkpt lat="50.8052057214081287384033203125" lon="11.972118057310581207275390625">
        <ele>367.79998779296875</ele>
        <time>2018-08-18T06:48:19.000Z</time>
      </trkpt>
      <trkpt lat="50.80525995232164859771728515625" lon="11.97217061184346675872802734375">
        <ele>367.79998779296875</ele>
        <time>2018-08-18T06:48:20.000Z</time>
      </trkpt>
      <trkpt lat="50.8057565800845623016357421875" lon="11.97263094596564769744873046875">
        <ele>368.600006103515625</ele>
        <time>2018-08-18T06:48:29.000Z</time>
      </trkpt>
      <trkpt lat="50.8059808798134326934814453125" lon="11.9728360511362552642822265625">
        <ele>368.79998779296875</ele>
        <time>2018-08-18T06:48:33.000Z</time>
      </trkpt>
      <trkpt lat="50.80649527721107006072998046875" lon="11.97330057621002197265625">
        <ele>369.399993896484375</ele>
        <time>2018-08-18T06:48:42.000Z</time>
      </trkpt>
      <trkpt lat="50.8066698722541332244873046875" lon="11.9734462536871433258056640625">
        <ele>370</ele>
        <time>2018-08-18T06:48:45.000Z</time>
      </trkpt>
      <trkpt lat="50.80716432072222232818603515625" lon="11.9738569669425487518310546875">
        <ele>370.79998779296875</ele>
        <time>2018-08-18T06:48:54.000Z</time>
      </trkpt>
      <trkpt lat="50.80727211199700832366943359375" lon="11.973948664963245391845703125">
        <ele>371</ele>
        <time>2018-08-18T06:48:56.000Z</time>
      </trkpt>
      <trkpt lat="50.8075419254601001739501953125" lon="11.97416089475154876708984375">
        <ele>372.20001220703125</ele>
        <time>2018-08-18T06:49:01.000Z</time>
      </trkpt>
      <trkpt lat="50.80786689184606075286865234375" lon="11.9744203984737396240234375">
        <ele>373.20001220703125</ele>
        <time>2018-08-18T06:49:07.000Z</time>
      </trkpt>
      <trkpt lat="50.8082024194300174713134765625" lon="11.97467386722564697265625">
        <ele>374.20001220703125</ele>
        <time>2018-08-18T06:49:13.000Z</time>
      </trkpt>
      <trkpt lat="50.80872260034084320068359375" lon="11.9750790484249591827392578125">
        <ele>375.20001220703125</ele>
        <time>2018-08-18T06:49:22.000Z</time>
      </trkpt>
      <trkpt lat="50.8087827824056148529052734375" lon="11.9751303456723690032958984375">
        <ele>375.20001220703125</ele>
        <time>2018-08-18T06:49:23.000Z</time>
      </trkpt>
      <trkpt lat="50.80929416231811046600341796875" lon="11.975554637610912322998046875">
        <ele>375.20001220703125</ele>
        <time>2018-08-18T06:49:31.000Z</time>
      </trkpt>
      <trkpt lat="50.80981333740055561065673828125" lon="11.9759812764823436737060546875">
        <ele>374.79998779296875</ele>
        <time>2018-08-18T06:49:38.000Z</time>
      </trkpt>
      <trkpt lat="50.810136459767818450927734375" lon="11.9762444682419300079345703125">
        <ele>374.20001220703125</ele>
        <time>2018-08-18T06:49:42.000Z</time>
      </trkpt>
      <trkpt lat="50.81063409335911273956298828125" lon="11.9766412675380706787109375">
        <ele>373</ele>
        <time>2018-08-18T06:49:48.000Z</time>
      </trkpt>
      <trkpt lat="50.81105050630867481231689453125" lon="11.9769765436649322509765625">
        <ele>372</ele>
        <time>2018-08-18T06:49:53.000Z</time>
      </trkpt>
      <trkpt lat="50.8115568570792675018310546875" lon="11.9773842394351959228515625">
        <ele>371</ele>
        <time>2018-08-18T06:49:59.000Z</time>
      </trkpt>
      <trkpt lat="50.8118964917957782745361328125" lon="11.97765648365020751953125">
        <ele>370</ele>
        <time>2018-08-18T06:50:03.000Z</time>
      </trkpt>
      <trkpt lat="50.81230645067989826202392578125" lon="11.97798379696905612945556640625">
        <ele>368.79998779296875</ele>
        <time>2018-08-18T06:50:08.000Z</time>
      </trkpt>
      <trkpt lat="50.8126297406852245330810546875" lon="11.97824195958673954010009765625">
        <ele>367.600006103515625</ele>
        <time>2018-08-18T06:50:12.000Z</time>
      </trkpt>
      <trkpt lat="50.813181437551975250244140625" lon="11.978680752217769622802734375">
        <ele>367</ele>
        <time>2018-08-18T06:50:19.000Z</time>
      </trkpt>
      <trkpt lat="50.8134907297790050506591796875" lon="11.97892692871391773223876953125">
        <ele>366.600006103515625</ele>
        <time>2018-08-18T06:50:23.000Z</time>
      </trkpt>
      <trkpt lat="50.81404946744441986083984375" lon="11.97937468998134136199951171875">
        <ele>365.79998779296875</ele>
        <time>2018-08-18T06:50:30.000Z</time>
      </trkpt>
      <trkpt lat="50.81429421901702880859375" lon="11.9795982353389263153076171875">
        <ele>365.399993896484375</ele>
        <time>2018-08-18T06:50:33.000Z</time>
      </trkpt>
      <trkpt lat="50.81467182375490665435791015625" lon="11.9801155664026737213134765625">
        <ele>364.399993896484375</ele>
        <time>2018-08-18T06:50:38.000Z</time>
      </trkpt>
      <trkpt lat="50.8148935250937938690185546875" lon="11.98065452277660369873046875">
        <ele>363</ele>
        <time>2018-08-18T06:50:42.000Z</time>
      </trkpt>
      <trkpt lat="50.81502218730747699737548828125" lon="11.9810910522937774658203125">
        <ele>362</ele>
        <time>2018-08-18T06:50:45.000Z</time>
      </trkpt>
      <trkpt lat="50.81514271907508373260498046875" lon="11.98153621517121791839599609375">
        <ele>360.600006103515625</ele>
        <time>2018-08-18T06:50:48.000Z</time>
      </trkpt>
      <trkpt lat="50.81530331633985042572021484375" lon="11.9821305759251117706298828125">
        <ele>359.600006103515625</ele>
        <time>2018-08-18T06:50:52.000Z</time>
      </trkpt>
      <trkpt lat="50.81550230272114276885986328125" lon="11.98282635770738124847412109375">
        <ele>358</ele>
        <time>2018-08-18T06:50:57.000Z</time>
      </trkpt>
      <trkpt lat="50.81570078618824481964111328125" lon="11.9835021905601024627685546875">
        <ele>357.79998779296875</ele>
        <time>2018-08-18T06:51:03.000Z</time>
      </trkpt>
      <trkpt lat="50.815948806703090667724609375" lon="11.984316073358058929443359375">
        <ele>358.79998779296875</ele>
        <time>2018-08-18T06:51:11.000Z</time>
      </trkpt>
      <trkpt lat="50.81600555218756198883056640625" lon="11.98452763259410858154296875">
        <ele>359.399993896484375</ele>
        <time>2018-08-18T06:51:13.000Z</time>
      </trkpt>
      <trkpt lat="50.8161856792867183685302734375" lon="11.98519625701010227203369140625">
        <ele>360.20001220703125</ele>
        <time>2018-08-18T06:51:19.000Z</time>
      </trkpt>
      <trkpt lat="50.816509723663330078125" lon="11.98600276373326778411865234375">
        <ele>360.399993896484375</ele>
        <time>2018-08-18T06:51:26.000Z</time>
      </trkpt>
      <trkpt lat="50.81693686544895172119140625" lon="11.98663794435560703277587890625">
        <ele>359.79998779296875</ele>
        <time>2018-08-18T06:51:32.000Z</time>
      </trkpt>
      <trkpt lat="50.81708748824894428253173828125" lon="11.986848413944244384765625">
        <ele>359.20001220703125</ele>
        <time>2018-08-18T06:51:34.000Z</time>
      </trkpt>
      <trkpt lat="50.81731262616813182830810546875" lon="11.98716902174055576324462890625">
        <ele>358.20001220703125</ele>
        <time>2018-08-18T06:51:37.000Z</time>
      </trkpt>
      <trkpt lat="50.81755117513239383697509765625" lon="11.9874852709472179412841796875">
        <ele>357</ele>
        <time>2018-08-18T06:51:40.000Z</time>
      </trkpt>
      <trkpt lat="50.81786130554974079132080078125" lon="11.98792808689177036285400390625">
        <ele>355.79998779296875</ele>
        <time>2018-08-18T06:51:44.000Z</time>
      </trkpt>
      <trkpt lat="50.81823798827826976776123046875" lon="11.9884780235588550567626953125">
        <ele>354.600006103515625</ele>
        <time>2018-08-18T06:51:49.000Z</time>
      </trkpt>
      <trkpt lat="50.81860251724720001220703125" lon="11.988994516432285308837890625">
        <ele>353.600006103515625</ele>
        <time>2018-08-18T06:51:54.000Z</time>
      </trkpt>
      <trkpt lat="50.81905002705752849578857421875" lon="11.989662386476993560791015625">
        <ele>352.79998779296875</ele>
        <time>2018-08-18T06:52:01.000Z</time>
      </trkpt>
      <trkpt lat="50.8194633387029170989990234375" lon="11.99020964093506336212158203125">
        <ele>352.79998779296875</ele>
        <time>2018-08-18T06:52:08.000Z</time>
      </trkpt>
      <trkpt lat="50.8199092559516429901123046875" lon="11.99079587124288082122802734375">
        <ele>354.399993896484375</ele>
        <time>2018-08-18T06:52:16.000Z</time>
      </trkpt>
      <trkpt lat="50.82024361006915569305419921875" lon="11.9912396930158138275146484375">
        <ele>355.600006103515625</ele>
        <time>2018-08-18T06:52:22.000Z</time>
      </trkpt>
      <trkpt lat="50.8206297643482685089111328125" lon="11.99191703461110591888427734375">
        <ele>356.600006103515625</ele>
        <time>2018-08-18T06:52:30.000Z</time>
      </trkpt>
      <trkpt lat="50.82073621451854705810546875" lon="11.99220872484147548675537109375">
        <ele>356.600006103515625</ele>
        <time>2018-08-18T06:52:33.000Z</time>
      </trkpt>
      <trkpt lat="50.82090226002037525177001953125" lon="11.99306921102106571197509765625">
        <ele>357</ele>
        <time>2018-08-18T06:52:41.000Z</time>
      </trkpt>
      <trkpt lat="50.82098029553890228271484375" lon="11.99400144629180431365966796875">
        <ele>357.399993896484375</ele>
        <time>2018-08-18T06:52:49.000Z</time>
      </trkpt>
      <trkpt lat="50.82105212844908237457275390625" lon="11.99493334628641605377197265625">
        <ele>357.79998779296875</ele>
        <time>2018-08-18T06:52:57.000Z</time>
      </trkpt>
      <trkpt lat="50.8211246319115161895751953125" lon="11.9958312995731830596923828125">
        <ele>358.399993896484375</ele>
        <time>2018-08-18T06:53:05.000Z</time>
      </trkpt>
      <trkpt lat="50.82118473015725612640380859375" lon="11.99627227149903774261474609375">
        <ele>358.600006103515625</ele>
        <time>2018-08-18T06:53:09.000Z</time>
      </trkpt>
      <trkpt lat="50.82140953280031681060791015625" lon="11.99715153314173221588134765625">
        <ele>359.600006103515625</ele>
        <time>2018-08-18T06:53:17.000Z</time>
      </trkpt>
      <trkpt lat="50.8214421384036540985107421875" lon="11.99726435355842113494873046875">
        <ele>359.600006103515625</ele>
        <time>2018-08-18T06:53:18.000Z</time>
      </trkpt>
      <trkpt lat="50.82168839871883392333984375" lon="11.99811025522649288177490234375">
        <ele>359.600006103515625</ele>
        <time>2018-08-18T06:53:25.000Z</time>
      </trkpt>
      <trkpt lat="50.82188596017658710479736328125" lon="11.9988082163035869598388671875">
        <ele>358.600006103515625</ele>
        <time>2018-08-18T06:53:30.000Z</time>
      </trkpt>
      <trkpt lat="50.82205443643033504486083984375" lon="11.99939888902008533477783203125">
        <ele>357.399993896484375</ele>
        <time>2018-08-18T06:53:34.000Z</time>
      </trkpt>
      <trkpt lat="50.82218167372047901153564453125" lon="11.999842710793018341064453125">
        <ele>356</ele>
        <time>2018-08-18T06:53:37.000Z</time>
      </trkpt>
      <trkpt lat="50.8223514072597026824951171875" lon="12.00044193305075168609619140625">
        <ele>354.79998779296875</ele>
        <time>2018-08-18T06:53:41.000Z</time>
      </trkpt>
      <trkpt lat="50.82252348773181438446044921875" lon="12.00104693882167339324951171875">
        <ele>353.600006103515625</ele>
        <time>2018-08-18T06:53:45.000Z</time>
      </trkpt>
      <trkpt lat="50.82265407778322696685791015625" lon="12.00150425545871257781982421875">
        <ele>352.600006103515625</ele>
        <time>2018-08-18T06:53:48.000Z</time>
      </trkpt>
      <trkpt lat="50.82278768531978130340576171875" lon="12.0019618235528469085693359375">
        <ele>351.399993896484375</ele>
        <time>2018-08-18T06:53:51.000Z</time>
      </trkpt>
      <trkpt lat="50.82291961647570133209228515625" lon="12.002422325313091278076171875">
        <ele>350.399993896484375</ele>
        <time>2018-08-18T06:53:54.000Z</time>
      </trkpt>
      <trkpt lat="50.82304827868938446044921875" lon="12.00288039632141590118408203125">
        <ele>349</ele>
        <time>2018-08-18T06:53:57.000Z</time>
      </trkpt>
      <trkpt lat="50.8232194371521472930908203125" lon="12.00347886420786380767822265625">
        <ele>347.79998779296875</ele>
        <time>2018-08-18T06:54:01.000Z</time>
      </trkpt>
      <trkpt lat="50.823430828750133514404296875" lon="12.00421378947794437408447265625">
        <ele>346.79998779296875</ele>
        <time>2018-08-18T06:54:06.000Z</time>
      </trkpt>
      <trkpt lat="50.82364372909069061279296875" lon="12.00495491735637187957763671875">
        <ele>345.600006103515625</ele>
        <time>2018-08-18T06:54:11.000Z</time>
      </trkpt>
      <trkpt lat="50.823858641088008880615234375" lon="12.00568514876067638397216796875">
        <ele>344.600006103515625</ele>
        <time>2018-08-18T06:54:16.000Z</time>
      </trkpt>
      <trkpt lat="50.8241553604602813720703125" lon="12.00650573708117008209228515625">
        <ele>343.399993896484375</ele>
        <time>2018-08-18T06:54:22.000Z</time>
      </trkpt>
      <trkpt lat="50.82451351918280124664306640625" lon="12.0072930492460727691650390625">
        <ele>343</ele>
        <time>2018-08-18T06:54:28.000Z</time>
      </trkpt>
      <trkpt lat="50.8247615396976470947265625" lon="12.00782806612551212310791015625">
        <ele>342.399993896484375</ele>
        <time>2018-08-18T06:54:32.000Z</time>
      </trkpt>
      <trkpt lat="50.82500738091766834259033203125" lon="12.00836014933884143829345703125">
        <ele>341</ele>
        <time>2018-08-18T06:54:36.000Z</time>
      </trkpt>
      <trkpt lat="50.8252461813390254974365234375" lon="12.0088809169828891754150390625">
        <ele>339.79998779296875</ele>
        <time>2018-08-18T06:54:40.000Z</time>
      </trkpt>
      <trkpt lat="50.82548581995069980621337890625" lon="12.0094009302556514739990234375">
        <ele>338.79998779296875</ele>
        <time>2018-08-18T06:54:44.000Z</time>
      </trkpt>
      <trkpt lat="50.825786478817462921142578125" lon="12.010050527751445770263671875">
        <ele>337.399993896484375</ele>
        <time>2018-08-18T06:54:49.000Z</time>
      </trkpt>
      <trkpt lat="50.82608051598072052001953125" lon="12.0106880553066730499267578125">
        <ele>336.20001220703125</ele>
        <time>2018-08-18T06:54:54.000Z</time>
      </trkpt>
      <trkpt lat="50.82642811350524425506591796875" lon="12.0114348828792572021484375">
        <ele>335.399993896484375</ele>
        <time>2018-08-18T06:55:00.000Z</time>
      </trkpt>
      <trkpt lat="50.82648427225649356842041015625" lon="12.0115580968558788299560546875">
        <ele>335.20001220703125</ele>
        <time>2018-08-18T06:55:01.000Z</time>
      </trkpt>
      <trkpt lat="50.82682156004011631011962890625" lon="12.01228572987020015716552734375">
        <ele>334.399993896484375</ele>
        <time>2018-08-18T06:55:07.000Z</time>
      </trkpt>
      <trkpt lat="50.82715281285345554351806640625" lon="12.01298746280372142791748046875">
        <ele>334</ele>
        <time>2018-08-18T06:55:13.000Z</time>
      </trkpt>
      <trkpt lat="50.82752983085811138153076171875" lon="12.01360118575394153594970703125">
        <ele>333.600006103515625</ele>
        <time>2018-08-18T06:55:19.000Z</time>
      </trkpt>
      <trkpt lat="50.8279682882130146026611328125" lon="12.01413980685174465179443359375">
        <ele>333.20001220703125</ele>
        <time>2018-08-18T06:55:25.000Z</time>
      </trkpt>
      <trkpt lat="50.82811765372753143310546875" lon="12.01431515626609325408935546875">
        <ele>333</ele>
        <time>2018-08-18T06:55:27.000Z</time>
      </trkpt>
      <trkpt lat="50.8285577036440372467041015625" lon="12.01484019868075847625732421875">
        <ele>332.600006103515625</ele>
        <time>2018-08-18T06:55:33.000Z</time>
      </trkpt>
      <trkpt lat="50.82870371639728546142578125" lon="12.01501638628542423248291015625">
        <ele>332</ele>
        <time>2018-08-18T06:55:35.000Z</time>
      </trkpt>
      <trkpt lat="50.82915038801729679107666015625" lon="12.0155452005565166473388671875">
        <ele>331.600006103515625</ele>
        <time>2018-08-18T06:55:41.000Z</time>
      </trkpt>
      <trkpt lat="50.82945046015083789825439453125" lon="12.015897743403911590576171875">
        <ele>331</ele>
        <time>2018-08-18T06:55:45.000Z</time>
      </trkpt>
      <trkpt lat="50.8299008198082447052001953125" lon="12.01643250882625579833984375">
        <ele>330.20001220703125</ele>
        <time>2018-08-18T06:55:51.000Z</time>
      </trkpt>
      <trkpt lat="50.8301234431564807891845703125" lon="12.016687653958797454833984375">
        <ele>329.79998779296875</ele>
        <time>2018-08-18T06:55:54.000Z</time>
      </trkpt>
      <trkpt lat="50.83056827075779438018798828125" lon="12.01721512712538242340087890625">
        <ele>329.20001220703125</ele>
        <time>2018-08-18T06:56:00.000Z</time>
      </trkpt>
      <trkpt lat="50.83100295625627040863037109375" lon="12.0177600346505641937255859375">
        <ele>328.79998779296875</ele>
        <time>2018-08-18T06:56:06.000Z</time>
      </trkpt>
      <trkpt lat="50.8314280025660991668701171875" lon="12.01834618113934993743896484375">
        <ele>327.79998779296875</ele>
        <time>2018-08-18T06:56:12.000Z</time>
      </trkpt>
      <trkpt lat="50.831575356423854827880859375" lon="12.0185543037950992584228515625">
        <ele>327.399993896484375</ele>
        <time>2018-08-18T06:56:14.000Z</time>
      </trkpt>
      <trkpt lat="50.83196620456874370574951171875" lon="12.019104659557342529296875">
        <ele>326.399993896484375</ele>
        <time>2018-08-18T06:56:19.000Z</time>
      </trkpt>
      <trkpt lat="50.83221070468425750732421875" lon="12.01944706030189990997314453125">
        <ele>325.20001220703125</ele>
        <time>2018-08-18T06:56:22.000Z</time>
      </trkpt>
      <trkpt lat="50.83237624727189540863037109375" lon="12.01968192122876644134521484375">
        <ele>324.20001220703125</ele>
        <time>2018-08-18T06:56:24.000Z</time>
      </trkpt>
      <trkpt lat="50.83270959556102752685546875" lon="12.0201495476067066192626953125">
        <ele>323</ele>
        <time>2018-08-18T06:56:28.000Z</time>
      </trkpt>
      <trkpt lat="50.8329521678388118743896484375" lon="12.0204900205135345458984375">
        <ele>321.600006103515625</ele>
        <time>2018-08-18T06:56:31.000Z</time>
      </trkpt>
      <trkpt lat="50.83310781978070735931396484375" lon="12.02070618979632854461669921875">
        <ele>320</ele>
        <time>2018-08-18T06:56:33.000Z</time>
      </trkpt>
      <trkpt lat="50.833335220813751220703125" lon="12.021022774279117584228515625">
        <ele>319</ele>
        <time>2018-08-18T06:56:36.000Z</time>
      </trkpt>
      <trkpt lat="50.8337092213332653045654296875" lon="12.02154253609478473663330078125">
        <ele>317.79998779296875</ele>
        <time>2018-08-18T06:56:41.000Z</time>
      </trkpt>
      <trkpt lat="50.8341407217085361480712890625" lon="12.02213823795318603515625">
        <ele>317</ele>
        <time>2018-08-18T06:56:47.000Z</time>
      </trkpt>
      <trkpt lat="50.83460432477295398712158203125" lon="12.0227831415832042694091796875">
        <ele>316.79998779296875</ele>
        <time>2018-08-18T06:56:54.000Z</time>
      </trkpt>
      <trkpt lat="50.8350902236998081207275390625" lon="12.02332067303359508514404296875">
        <ele>317.20001220703125</ele>
        <time>2018-08-18T06:57:01.000Z</time>
      </trkpt>
      <trkpt lat="50.83565692417323589324951171875" lon="12.02372233383357524871826171875">
        <ele>317.399993896484375</ele>
        <time>2018-08-18T06:57:08.000Z</time>
      </trkpt>
      <trkpt lat="50.83619185723364353179931640625" lon="12.024077475070953369140625">
        <ele>317</ele>
        <time>2018-08-18T06:57:14.000Z</time>
      </trkpt>
      <trkpt lat="50.8363763429224491119384765625" lon="12.02419742010533809661865234375">
        <ele>316.600006103515625</ele>
        <time>2018-08-18T06:57:16.000Z</time>
      </trkpt>
      <trkpt lat="50.836817733943462371826171875" lon="12.02449447475373744964599609375">
        <ele>315.399993896484375</ele>
        <time>2018-08-18T06:57:21.000Z</time>
      </trkpt>
      <trkpt lat="50.83715510554611682891845703125" lon="12.0247223787009716033935546875">
        <ele>314.20001220703125</ele>
        <time>2018-08-18T06:57:25.000Z</time>
      </trkpt>
      <trkpt lat="50.83756246604025363922119140625" lon="12.0249698124825954437255859375">
        <ele>313</ele>
        <time>2018-08-18T06:57:30.000Z</time>
      </trkpt>
      <trkpt lat="50.8376463688910007476806640625" lon="12.02500526793301105499267578125">
        <ele>312.79998779296875</ele>
        <time>2018-08-18T06:57:31.000Z</time>
      </trkpt>
      <trkpt lat="50.83823092281818389892578125" lon="12.0250479318201541900634765625">
        <ele>312.600006103515625</ele>
        <time>2018-08-18T06:57:38.000Z</time>
      </trkpt>
      <trkpt lat="50.83874381147325038909912109375" lon="12.02506511472165584564208984375">
        <ele>312.600006103515625</ele>
        <time>2018-08-18T06:57:45.000Z</time>
      </trkpt>
      <trkpt lat="50.8390786685049533843994140625" lon="12.0252108760178089141845703125">
        <ele>313</ele>
        <time>2018-08-18T06:57:51.000Z</time>
      </trkpt>
      <trkpt lat="50.83962567150592803955078125" lon="12.02527231536805629730224609375">
        <ele>313.399993896484375</ele>
        <time>2018-08-18T06:57:59.000Z</time>
      </trkpt>
      <trkpt lat="50.8402062021195888519287109375" lon="12.02544473111629486083984375">
        <ele>313.399993896484375</ele>
        <time>2018-08-18T06:58:06.000Z</time>
      </trkpt>
      <trkpt lat="50.84077340550720691680908203125" lon="12.02565033920109272003173828125">
        <ele>312.600006103515625</ele>
        <time>2018-08-18T06:58:14.000Z</time>
      </trkpt>
      <trkpt lat="50.8412341587245464324951171875" lon="12.02588385902345180511474609375">
        <ele>314.20001220703125</ele>
        <time>2018-08-18T06:58:24.000Z</time>
      </trkpt>
      <trkpt lat="50.84132409654557704925537109375" lon="12.025931887328624725341796875">
        <ele>315.399993896484375</ele>
        <time>2018-08-18T06:58:26.000Z</time>
      </trkpt>
      <trkpt lat="50.84151168353855609893798828125" lon="12.026019394397735595703125">
        <ele>316.399993896484375</ele>
        <time>2018-08-18T06:58:30.000Z</time>
      </trkpt>
      <trkpt lat="50.841794908046722412109375" lon="12.0261556841433048248291015625">
        <ele>317.600006103515625</ele>
        <time>2018-08-18T06:58:36.000Z</time>
      </trkpt>
      <trkpt lat="50.84227611310780048370361328125" lon="12.02634327113628387451171875">
        <ele>318.600006103515625</ele>
        <time>2018-08-18T06:58:45.000Z</time>
      </trkpt>
      <trkpt lat="50.84284423850476741790771484375" lon="12.02654988504946231842041015625">
        <ele>318.79998779296875</ele>
        <time>2018-08-18T06:58:54.000Z</time>
      </trkpt>
      <trkpt lat="50.84337296895682811737060546875" lon="12.0267276652157306671142578125">
        <ele>318.600006103515625</ele>
        <time>2018-08-18T06:59:01.000Z</time>
      </trkpt>
      <trkpt lat="50.84388962946832180023193359375" lon="12.0269010029733180999755859375">
        <ele>317.600006103515625</ele>
        <time>2018-08-18T06:59:07.000Z</time>
      </trkpt>
      <trkpt lat="50.8441440202295780181884765625" lon="12.02698742039501667022705078125">
        <ele>316.600006103515625</ele>
        <time>2018-08-18T06:59:10.000Z</time>
      </trkpt>
      <trkpt lat="50.8445611037313938140869140625" lon="12.02712907455861568450927734375">
        <ele>315.399993896484375</ele>
        <time>2018-08-18T06:59:15.000Z</time>
      </trkpt>
      <trkpt lat="50.84512822329998016357421875" lon="12.02730811201035976409912109375">
        <ele>315</ele>
        <time>2018-08-18T06:59:22.000Z</time>
      </trkpt>
      <trkpt lat="50.8456648327410221099853515625" lon="12.02747558243572711944580078125">
        <ele>314.399993896484375</ele>
        <time>2018-08-18T06:59:29.000Z</time>
      </trkpt>
      <trkpt lat="50.84581495262682437896728515625" lon="12.02752101235091686248779296875">
        <ele>314.399993896484375</ele>
        <time>2018-08-18T06:59:31.000Z</time>
      </trkpt>
      <trkpt lat="50.84638995118439197540283203125" lon="12.027698121964931488037109375">
        <ele>314.600006103515625</ele>
        <time>2018-08-18T06:59:39.000Z</time>
      </trkpt>
      <trkpt lat="50.84698221646249294281005859375" lon="12.0278964377939701080322265625">
        <ele>314.79998779296875</ele>
        <time>2018-08-18T06:59:47.000Z</time>
      </trkpt>
      <trkpt lat="50.84751882590353488922119140625" lon="12.0280556939542293548583984375">
        <ele>314.600006103515625</ele>
        <time>2018-08-18T06:59:54.000Z</time>
      </trkpt>
      <trkpt lat="50.84759049117565155029296875" lon="12.02807220630347728729248046875">
        <ele>314.600006103515625</ele>
        <time>2018-08-18T06:59:55.000Z</time>
      </trkpt>
      <trkpt lat="50.84787472151219844818115234375" lon="12.02809718437492847442626953125">
        <ele>314.600006103515625</ele>
        <time>2018-08-18T06:59:59.000Z</time>
      </trkpt>
      <trkpt lat="50.8484181202948093414306640625" lon="12.02827446162700653076171875">
        <ele>314.20001220703125</ele>
        <time>2018-08-18T07:00:06.000Z</time>
      </trkpt>
      <trkpt lat="50.84897543303668498992919921875" lon="12.02848392538726329803466796875">
        <ele>314</ele>
        <time>2018-08-18T07:00:13.000Z</time>
      </trkpt>
      <trkpt lat="50.8492667041718959808349609375" lon="12.028701268136501312255859375">
        <ele>313.399993896484375</ele>
        <time>2018-08-18T07:00:17.000Z</time>
      </trkpt>
      <trkpt lat="50.8496492542326450347900390625" lon="12.0293344371020793914794921875">
        <ele>313</ele>
        <time>2018-08-18T07:00:24.000Z</time>
      </trkpt>
      <trkpt lat="50.849948488175868988037109375" lon="12.0300804264843463897705078125">
        <ele>312.399993896484375</ele>
        <time>2018-08-18T07:00:31.000Z</time>
      </trkpt>
      <trkpt lat="50.85012408904731273651123046875" lon="12.03051217831671237945556640625">
        <ele>312.20001220703125</ele>
        <time>2018-08-18T07:00:35.000Z</time>
      </trkpt>
      <trkpt lat="50.85043690167367458343505859375" lon="12.031271494925022125244140625">
        <ele>312</ele>
        <time>2018-08-18T07:00:42.000Z</time>
      </trkpt>
      <trkpt lat="50.85074099712073802947998046875" lon="12.0320267044007778167724609375">
        <ele>311.79998779296875</ele>
        <time>2018-08-18T07:00:49.000Z</time>
      </trkpt>
      <trkpt lat="50.85105783306062221527099609375" lon="12.0327933132648468017578125">
        <ele>311.79998779296875</ele>
        <time>2018-08-18T07:00:56.000Z</time>
      </trkpt>
      <trkpt lat="50.8513668738305568695068359375" lon="12.03354206867516040802001953125">
        <ele>311.79998779296875</ele>
        <time>2018-08-18T07:01:03.000Z</time>
      </trkpt>
      <trkpt lat="50.8516723103821277618408203125" lon="12.03428068198263645172119140625">
        <ele>311.79998779296875</ele>
        <time>2018-08-18T07:01:10.000Z</time>
      </trkpt>
      <trkpt lat="50.851976908743381500244140625" lon="12.0350361429154872894287109375">
        <ele>311.600006103515625</ele>
        <time>2018-08-18T07:01:17.000Z</time>
      </trkpt>
      <trkpt lat="50.8522714488208293914794921875" lon="12.03581892885267734527587890625">
        <ele>311.399993896484375</ele>
        <time>2018-08-18T07:01:24.000Z</time>
      </trkpt>
      <trkpt lat="50.85245895199477672576904296875" lon="12.0364265330135822296142578125">
        <ele>311.20001220703125</ele>
        <time>2018-08-18T07:01:29.000Z</time>
      </trkpt>
      <trkpt lat="50.8527364768087863922119140625" lon="12.0373103208839893341064453125">
        <ele>310.20001220703125</ele>
        <time>2018-08-18T07:01:36.000Z</time>
      </trkpt>
      <trkpt lat="50.8527787216007709503173828125" lon="12.03744183294475078582763671875">
        <ele>310</ele>
        <time>2018-08-18T07:01:37.000Z</time>
      </trkpt>
      <trkpt lat="50.85290386341512203216552734375" lon="12.0378481037914752960205078125">
        <ele>309.600006103515625</ele>
        <time>2018-08-18T07:01:40.000Z</time>
      </trkpt>
      <trkpt lat="50.85303009487688541412353515625" lon="12.0382621698081493377685546875">
        <ele>308.79998779296875</ele>
        <time>2018-08-18T07:01:43.000Z</time>
      </trkpt>
      <trkpt lat="50.85319421254098415374755859375" lon="12.03881646506488323211669921875">
        <ele>307.79998779296875</ele>
        <time>2018-08-18T07:01:47.000Z</time>
      </trkpt>
      <trkpt lat="50.8532923646271228790283203125" lon="12.03916691243648529052734375">
        <ele>307</ele>
        <time>2018-08-18T07:01:50.000Z</time>
      </trkpt>
      <trkpt lat="50.85330988280475139617919921875" lon="12.03926238231360912322998046875">
        <ele>306.79998779296875</ele>
        <time>2018-08-18T07:01:51.000Z</time>
      </trkpt>
      <trkpt lat="50.8534103818237781524658203125" lon="12.03983184881508350372314453125">
        <ele>305.600006103515625</ele>
        <time>2018-08-18T07:01:57.000Z</time>
      </trkpt>
      <trkpt lat="50.85357340984046459197998046875" lon="12.04031179659068584442138671875">
        <ele>304.399993896484375</ele>
        <time>2018-08-18T07:02:02.000Z</time>
      </trkpt>
      <trkpt lat="50.853923521935939788818359375" lon="12.041065581142902374267578125">
        <ele>304</ele>
        <time>2018-08-18T07:02:09.000Z</time>
      </trkpt>
      <trkpt lat="50.85418059490621089935302734375" lon="12.0415324531495571136474609375">
        <ele>303.20001220703125</ele>
        <time>2018-08-18T07:02:13.000Z</time>
      </trkpt>
      <trkpt lat="50.85446356795728206634521484375" lon="12.041946686804294586181640625">
        <ele>302.20001220703125</ele>
        <time>2018-08-18T07:02:17.000Z</time>
      </trkpt>
      <trkpt lat="50.8548386581242084503173828125" lon="12.04237793572247028350830078125">
        <ele>301</ele>
        <time>2018-08-18T07:02:22.000Z</time>
      </trkpt>
      <trkpt lat="50.85511551238596439361572265625" lon="12.04269963316619396209716796875">
        <ele>300</ele>
        <time>2018-08-18T07:02:26.000Z</time>
      </trkpt>
      <trkpt lat="50.85518918931484222412109375" lon="12.04276601783931255340576171875">
        <ele>299.79998779296875</ele>
        <time>2018-08-18T07:02:27.000Z</time>
      </trkpt>
      <trkpt lat="50.85567994974553585052490234375" lon="12.04316332004964351654052734375">
        <ele>299.79998779296875</ele>
        <time>2018-08-18T07:02:34.000Z</time>
      </trkpt>
      <trkpt lat="50.8560107834637165069580078125" lon="12.043358869850635528564453125">
        <ele>299.79998779296875</ele>
        <time>2018-08-18T07:02:39.000Z</time>
      </trkpt>
      <trkpt lat="50.8561970293521881103515625" lon="12.04344369471073150634765625">
        <ele>300.20001220703125</ele>
        <time>2018-08-18T07:02:42.000Z</time>
      </trkpt>
      <trkpt lat="50.856556110084056854248046875" lon="12.04386756755411624908447265625">
        <ele>300.399993896484375</ele>
        <time>2018-08-18T07:02:51.000Z</time>
      </trkpt>
      <trkpt lat="50.856721401214599609375" lon="12.04397619701921939849853515625">
        <ele>300.399993896484375</ele>
        <time>2018-08-18T07:02:54.000Z</time>
      </trkpt>
      <trkpt lat="50.85733856074512004852294921875" lon="12.04408516176044940948486328125">
        <ele>300.20001220703125</ele>
        <time>2018-08-18T07:03:01.000Z</time>
      </trkpt>
      <trkpt lat="50.857912637293338775634765625" lon="12.04429127275943756103515625">
        <ele>298.399993896484375</ele>
        <time>2018-08-18T07:03:07.000Z</time>
      </trkpt>
      <trkpt lat="50.8581143058836460113525390625" lon="12.0443829707801342010498046875">
        <ele>297</ele>
        <time>2018-08-18T07:03:09.000Z</time>
      </trkpt>
      <trkpt lat="50.8583094365894794464111328125" lon="12.044478692114353179931640625">
        <ele>296</ele>
        <time>2018-08-18T07:03:11.000Z</time>
      </trkpt>
      <trkpt lat="50.85838931612670421600341796875" lon="12.0445439033210277557373046875">
        <ele>295.600006103515625</ele>
        <time>2018-08-18T07:03:12.000Z</time>
      </trkpt>
      <trkpt lat="50.85853616707026958465576171875" lon="12.04472176730632781982421875">
        <ele>294.79998779296875</ele>
        <time>2018-08-18T07:03:14.000Z</time>
      </trkpt>
      <trkpt lat="50.85869139991700649261474609375" lon="12.0448711328208446502685546875">
        <ele>294.20001220703125</ele>
        <time>2018-08-18T07:03:16.000Z</time>
      </trkpt>
      <trkpt lat="50.85888083092868328094482421875" lon="12.0449720509350299835205078125">
        <ele>293.399993896484375</ele>
        <time>2018-08-18T07:03:18.000Z</time>
      </trkpt>
      <trkpt lat="50.85908417589962482452392578125" lon="12.0450089313089847564697265625">
        <ele>292.20001220703125</ele>
        <time>2018-08-18T07:03:20.000Z</time>
      </trkpt>
      <trkpt lat="50.85918995551764965057373046875" lon="12.04501722939312458038330078125">
        <ele>291.600006103515625</ele>
        <time>2018-08-18T07:03:21.000Z</time>
      </trkpt>
      <trkpt lat="50.85940855555236339569091796875" lon="12.0450686104595661163330078125">
        <ele>290.79998779296875</ele>
        <time>2018-08-18T07:03:23.000Z</time>
      </trkpt>
      <trkpt lat="50.85963436402380466461181640625" lon="12.04516927711665630340576171875">
        <ele>289.20001220703125</ele>
        <time>2018-08-18T07:03:25.000Z</time>
      </trkpt>
      <trkpt lat="50.85974902845919132232666015625" lon="12.04522669315338134765625">
        <ele>288</ele>
        <time>2018-08-18T07:03:26.000Z</time>
      </trkpt>
      <trkpt lat="50.85986184887588024139404296875" lon="12.0452794991433620452880859375">
        <ele>287</ele>
        <time>2018-08-18T07:03:27.000Z</time>
      </trkpt>
      <trkpt lat="50.8599714003503322601318359375" lon="12.04532836563885211944580078125">
        <ele>286</ele>
        <time>2018-08-18T07:03:28.000Z</time>
      </trkpt>
      <trkpt lat="50.86008581332862377166748046875" lon="12.045393325388431549072265625">
        <ele>284.79998779296875</ele>
        <time>2018-08-18T07:03:29.000Z</time>
      </trkpt>
      <trkpt lat="50.86018706671893596649169921875" lon="12.04544864594936370849609375">
        <ele>283.399993896484375</ele>
        <time>2018-08-18T07:03:30.000Z</time>
      </trkpt>
      <trkpt lat="50.8602724783122539520263671875" lon="12.04548351466655731201171875">
        <ele>282.399993896484375</ele>
        <time>2018-08-18T07:03:31.000Z</time>
      </trkpt>
      <trkpt lat="50.86043517105281352996826171875" lon="12.045570351183414459228515625">
        <ele>280.399993896484375</ele>
        <time>2018-08-18T07:03:33.000Z</time>
      </trkpt>
      <trkpt lat="50.86055620573461055755615234375" lon="12.04554713331162929534912109375">
        <ele>278.79998779296875</ele>
        <time>2018-08-18T07:03:35.000Z</time>
      </trkpt>
      <trkpt lat="50.86062946356832981109619140625" lon="12.0454954169690608978271484375">
        <ele>277.20001220703125</ele>
        <time>2018-08-18T07:03:37.000Z</time>
      </trkpt>
      <trkpt lat="50.8607103489339351654052734375" lon="12.04549818299710750579833984375">
        <ele>275.79998779296875</ele>
        <time>2018-08-18T07:03:39.000Z</time>
      </trkpt>
      <trkpt lat="50.860755108296871185302734375" lon="12.04541989602148532867431640625">
        <ele>274.399993896484375</ele>
        <time>2018-08-18T07:03:41.000Z</time>
      </trkpt>
      <trkpt lat="50.860787965357303619384765625" lon="12.04524253495037555694580078125">
        <ele>273.20001220703125</ele>
        <time>2018-08-18T07:03:44.000Z</time>
      </trkpt>
      <trkpt lat="50.86097395978868007659912109375" lon="12.04519509337842464447021484375">
        <ele>272.79998779296875</ele>
        <time>2018-08-18T07:03:48.000Z</time>
      </trkpt>
      <trkpt lat="50.86103917099535465240478515625" lon="12.04519459046423435211181640625">
        <ele>272.600006103515625</ele>
        <time>2018-08-18T07:03:49.000Z</time>
      </trkpt>
      <trkpt lat="50.86111075244843959808349609375" lon="12.04518335871398448944091796875">
        <ele>272.20001220703125</ele>
        <time>2018-08-18T07:03:50.000Z</time>
      </trkpt>
      <trkpt lat="50.86133949458599090576171875" lon="12.04510356299579143524169921875">
        <ele>271.399993896484375</ele>
        <time>2018-08-18T07:03:53.000Z</time>
      </trkpt>
      <trkpt lat="50.86142054758965969085693359375" lon="12.04506819136440753936767578125">
        <ele>271.20001220703125</ele>
        <time>2018-08-18T07:03:54.000Z</time>
      </trkpt>
      <trkpt lat="50.86175649426877498626708984375" lon="12.04489937983453273773193359375">
        <ele>270.399993896484375</ele>
        <time>2018-08-18T07:03:58.000Z</time>
      </trkpt>
      <trkpt lat="50.86183779872953891754150390625" lon="12.04483467154204845428466796875">
        <ele>270</ele>
        <time>2018-08-18T07:03:59.000Z</time>
      </trkpt>
      <trkpt lat="50.8620839752256870269775390625" lon="12.0446716435253620147705078125">
        <ele>268.600006103515625</ele>
        <time>2018-08-18T07:04:02.000Z</time>
      </trkpt>
      <trkpt lat="50.8623361028730869293212890625" lon="12.0445452444255352020263671875">
        <ele>267.399993896484375</ele>
        <time>2018-08-18T07:04:05.000Z</time>
      </trkpt>
      <trkpt lat="50.86268118582665920257568359375" lon="12.04437173902988433837890625">
        <ele>266.399993896484375</ele>
        <time>2018-08-18T07:04:09.000Z</time>
      </trkpt>
      <trkpt lat="50.8631310425698757171630859375" lon="12.04416227526962757110595703125">
        <ele>265.399993896484375</ele>
        <time>2018-08-18T07:04:14.000Z</time>
      </trkpt>
      <trkpt lat="50.863414518535137176513671875" lon="12.0440282486379146575927734375">
        <ele>264.20001220703125</ele>
        <time>2018-08-18T07:04:17.000Z</time>
      </trkpt>
      <trkpt lat="50.863946266472339630126953125" lon="12.043750472366809844970703125">
        <ele>263.20001220703125</ele>
        <time>2018-08-18T07:04:22.000Z</time>
      </trkpt>
      <trkpt lat="50.86428347043693065643310546875" lon="12.0435964129865169525146484375">
        <ele>262</ele>
        <time>2018-08-18T07:04:25.000Z</time>
      </trkpt>
      <trkpt lat="50.8645147271454334259033203125" lon="12.04348518513143062591552734375">
        <ele>260.600006103515625</ele>
        <time>2018-08-18T07:04:27.000Z</time>
      </trkpt>
      <trkpt lat="50.86474615149199962615966796875" lon="12.04337186180055141448974609375">
        <ele>259.20001220703125</ele>
        <time>2018-08-18T07:04:29.000Z</time>
      </trkpt>
      <trkpt lat="50.86498101241886615753173828125" lon="12.043258287012577056884765625">
        <ele>258</ele>
        <time>2018-08-18T07:04:31.000Z</time>
      </trkpt>
      <trkpt lat="50.86521687917411327362060546875" lon="12.04314462840557098388671875">
        <ele>256.600006103515625</ele>
        <time>2018-08-18T07:04:33.000Z</time>
      </trkpt>
      <trkpt lat="50.8654518239200115203857421875" lon="12.043024264276027679443359375">
        <ele>255</ele>
        <time>2018-08-18T07:04:35.000Z</time>
      </trkpt>
      <trkpt lat="50.86566749028861522674560546875" lon="12.0429106056690216064453125">
        <ele>253</ele>
        <time>2018-08-18T07:04:37.000Z</time>
      </trkpt>
      <trkpt lat="50.86576840840280055999755859375" lon="12.04285671003162860870361328125">
        <ele>251.8000030517578125</ele>
        <time>2018-08-18T07:04:38.000Z</time>
      </trkpt>
      <trkpt lat="50.8659684844315052032470703125" lon="12.04274657182395458221435546875">
        <ele>250.399993896484375</ele>
        <time>2018-08-18T07:04:40.000Z</time>
      </trkpt>
      <trkpt lat="50.86614794097840785980224609375" lon="12.04264615662395954132080078125">
        <ele>248.1999969482421875</ele>
        <time>2018-08-18T07:04:42.000Z</time>
      </trkpt>
      <trkpt lat="50.86630417965352535247802734375" lon="12.04255848191678524017333984375">
        <ele>246.600006103515625</ele>
        <time>2018-08-18T07:04:44.000Z</time>
      </trkpt>
      <trkpt lat="50.8664211072027683258056640625" lon="12.04251657240092754364013671875">
        <ele>244.8000030517578125</ele>
        <time>2018-08-18T07:04:46.000Z</time>
      </trkpt>
      <trkpt lat="50.8664948679506778717041015625" lon="12.042504586279392242431640625">
        <ele>243.1999969482421875</ele>
        <time>2018-08-18T07:04:48.000Z</time>
      </trkpt>
      <trkpt lat="50.86654608137905597686767578125" lon="12.04251489602029323577880859375">
        <ele>242</ele>
        <time>2018-08-18T07:04:50.000Z</time>
      </trkpt>
      <trkpt lat="50.8665847219526767730712890625" lon="12.04253434203565120697021484375">
        <ele>240.8000030517578125</ele>
        <time>2018-08-18T07:04:52.000Z</time>
      </trkpt>
      <trkpt lat="50.866681449115276336669921875" lon="12.0424963720142841339111328125">
        <ele>239.600006103515625</ele>
        <time>2018-08-18T07:04:55.000Z</time>
      </trkpt>
      <trkpt lat="50.86672327481210231781005859375" lon="12.0424725674092769622802734375">
        <ele>238.8000030517578125</ele>
        <time>2018-08-18T07:04:56.000Z</time>
      </trkpt>
      <trkpt lat="50.86676099337637424468994140625" lon="12.04246846027672290802001953125">
        <ele>238.600006103515625</ele>
        <time>2018-08-18T07:04:57.000Z</time>
      </trkpt>
      <trkpt lat="50.866782702505588531494140625" lon="12.04249595291912555694580078125">
        <ele>238.399993896484375</ele>
        <time>2018-08-18T07:04:58.000Z</time>
      </trkpt>
      <trkpt lat="50.8668267913162708282470703125" lon="12.04295846633613109588623046875">
        <ele>237.399993896484375</ele>
        <time>2018-08-18T07:05:06.000Z</time>
      </trkpt>
      <trkpt lat="50.86684472858905792236328125" lon="12.04310975968837738037109375">
        <ele>237.1999969482421875</ele>
        <time>2018-08-18T07:05:08.000Z</time>
      </trkpt>
      <trkpt lat="50.86696048267185688018798828125" lon="12.04392381012439727783203125">
        <ele>236.399993896484375</ele>
        <time>2018-08-18T07:05:16.000Z</time>
      </trkpt>
      <trkpt lat="50.866973809897899627685546875" lon="12.0441631972789764404296875">
        <ele>236</ele>
        <time>2018-08-18T07:05:18.000Z</time>
      </trkpt>
      <trkpt lat="50.8669820241630077362060546875" lon="12.04453376121819019317626953125">
        <ele>235.1999969482421875</ele>
        <time>2018-08-18T07:05:21.000Z</time>
      </trkpt>
      <trkpt lat="50.8669706247746944427490234375" lon="12.04465739428997039794921875">
        <ele>234.8000030517578125</ele>
        <time>2018-08-18T07:05:22.000Z</time>
      </trkpt>
      <trkpt lat="50.866930894553661346435546875" lon="12.04502217471599578857421875">
        <ele>233.600006103515625</ele>
        <time>2018-08-18T07:05:25.000Z</time>
      </trkpt>
      <trkpt lat="50.86688990704715251922607421875" lon="12.0455242507159709930419921875">
        <ele>232.399993896484375</ele>
        <time>2018-08-18T07:05:29.000Z</time>
      </trkpt>
      <trkpt lat="50.8668385259807109832763671875" lon="12.0460291765630245208740234375">
        <ele>231.1999969482421875</ele>
        <time>2018-08-18T07:05:33.000Z</time>
      </trkpt>
      <trkpt lat="50.866780020296573638916015625" lon="12.046757899224758148193359375">
        <ele>230.1999969482421875</ele>
        <time>2018-08-18T07:05:39.000Z</time>
      </trkpt>
      <trkpt lat="50.86677121929824352264404296875" lon="12.0477300323545932769775390625">
        <ele>230</ele>
        <time>2018-08-18T07:05:47.000Z</time>
      </trkpt>
      <trkpt lat="50.86677222512662410736083984375" lon="12.04795357771217823028564453125">
        <ele>230</ele>
        <time>2018-08-18T07:05:49.000Z</time>
      </trkpt>
      <trkpt lat="50.86671489290893077850341796875" lon="12.04887290485203266143798828125">
        <ele>230.600006103515625</ele>
        <time>2018-08-18T07:05:58.000Z</time>
      </trkpt>
      <trkpt lat="50.86670391261577606201171875" lon="12.04917213879525661468505859375">
        <ele>231.1999969482421875</ele>
        <time>2018-08-18T07:06:01.000Z</time>
      </trkpt>
      <trkpt lat="50.86668924428522586822509765625" lon="12.0493621565401554107666015625">
        <ele>231.600006103515625</ele>
        <time>2018-08-18T07:06:03.000Z</time>
      </trkpt>
      <trkpt lat="50.8666547946631908416748046875" lon="12.0496427826583385467529296875">
        <ele>232</ele>
        <time>2018-08-18T07:06:06.000Z</time>
      </trkpt>
      <trkpt lat="50.86659402586519718170166015625" lon="12.05030738376080989837646484375">
        <ele>233.1999969482421875</ele>
        <time>2018-08-18T07:06:13.000Z</time>
      </trkpt>
      <trkpt lat="50.86654256097972393035888671875" lon="12.05077425576746463775634765625">
        <ele>234.399993896484375</ele>
        <time>2018-08-18T07:06:18.000Z</time>
      </trkpt>
      <trkpt lat="50.8664975501596927642822265625" lon="12.05140926875174045562744140625">
        <ele>235.399993896484375</ele>
        <time>2018-08-18T07:06:25.000Z</time>
      </trkpt>
      <trkpt lat="50.86650836281478404998779296875" lon="12.05159962177276611328125">
        <ele>235.600006103515625</ele>
        <time>2018-08-18T07:06:27.000Z</time>
      </trkpt>
      <trkpt lat="50.86649872362613677978515625" lon="12.0523005165159702301025390625">
        <ele>236.1999969482421875</ele>
        <time>2018-08-18T07:06:34.000Z</time>
      </trkpt>
      <trkpt lat="50.86648422293365001678466796875" lon="12.05270536243915557861328125">
        <ele>236.1999969482421875</ele>
        <time>2018-08-18T07:06:38.000Z</time>
      </trkpt>
      <trkpt lat="50.86653954349458217620849609375" lon="12.0535859651863574981689453125">
        <ele>235.8000030517578125</ele>
        <time>2018-08-18T07:06:46.000Z</time>
      </trkpt>
      <trkpt lat="50.8666078560054302215576171875" lon="12.05429683439433574676513671875">
        <ele>234.1999969482421875</ele>
        <time>2018-08-18T07:06:51.000Z</time>
      </trkpt>
      <trkpt lat="50.8666621707379817962646484375" lon="12.0547617785632610321044921875">
        <ele>233</ele>
        <time>2018-08-18T07:06:54.000Z</time>
      </trkpt>
      <trkpt lat="50.86667214520275592803955078125" lon="12.054920196533203125">
        <ele>232.8000030517578125</ele>
        <time>2018-08-18T07:06:55.000Z</time>
      </trkpt>
      <trkpt lat="50.86669460870325565338134765625" lon="12.05525253899395465850830078125">
        <ele>231.8000030517578125</ele>
        <time>2018-08-18T07:06:57.000Z</time>
      </trkpt>
      <trkpt lat="50.8667201735079288482666015625" lon="12.0556033216416835784912109375">
        <ele>230.600006103515625</ele>
        <time>2018-08-18T07:06:59.000Z</time>
      </trkpt>
      <trkpt lat="50.8667528629302978515625" lon="12.05594991333782672882080078125">
        <ele>229.399993896484375</ele>
        <time>2018-08-18T07:07:01.000Z</time>
      </trkpt>
      <trkpt lat="50.86680005304515361785888671875" lon="12.05648124217987060546875">
        <ele>228</ele>
        <time>2018-08-18T07:07:04.000Z</time>
      </trkpt>
      <trkpt lat="50.866836346685886383056640625" lon="12.05683554522693157196044921875">
        <ele>226.399993896484375</ele>
        <time>2018-08-18T07:07:06.000Z</time>
      </trkpt>
      <trkpt lat="50.8668606542050838470458984375" lon="12.05717534758150577545166015625">
        <ele>225</ele>
        <time>2018-08-18T07:07:08.000Z</time>
      </trkpt>
      <trkpt lat="50.86689158342778682708740234375" lon="12.05746762454509735107421875">
        <ele>224</ele>
        <time>2018-08-18T07:07:10.000Z</time>
      </trkpt>
      <trkpt lat="50.8669203333556652069091796875" lon="12.05770558677613735198974609375">
        <ele>222.399993896484375</ele>
        <time>2018-08-18T07:07:12.000Z</time>
      </trkpt>
      <trkpt lat="50.86693726480007171630859375" lon="12.057811282575130462646484375">
        <ele>221.8000030517578125</ele>
        <time>2018-08-18T07:07:13.000Z</time>
      </trkpt>
      <trkpt lat="50.86695243604481220245361328125" lon="12.0579014718532562255859375">
        <ele>221.1999969482421875</ele>
        <time>2018-08-18T07:07:14.000Z</time>
      </trkpt>
      <trkpt lat="50.86698696948587894439697265625" lon="12.058066427707672119140625">
        <ele>220.1999969482421875</ele>
        <time>2018-08-18T07:07:17.000Z</time>
      </trkpt>
      <trkpt lat="50.86699350737035274505615234375" lon="12.058122418820858001708984375">
        <ele>219</ele>
        <time>2018-08-18T07:07:20.000Z</time>
      </trkpt>
      <trkpt lat="50.8669904060661792755126953125" lon="12.0581309683620929718017578125">
        <ele>218.399993896484375</ele>
        <time>2018-08-18T07:07:22.000Z</time>
      </trkpt>
      <trkpt lat="50.86697439663112163543701171875" lon="12.0581809245049953460693359375">
        <ele>216.1999969482421875</ele>
        <time>2018-08-18T07:07:50.000Z</time>
      </trkpt>
      <trkpt lat="50.8669687807559967041015625" lon="12.05824471078813076019287109375">
        <ele>216.1999969482421875</ele>
        <time>2018-08-18T07:07:52.000Z</time>
      </trkpt>
      <trkpt lat="50.86691438220441341400146484375" lon="12.05894191749393939971923828125">
        <ele>215.8000030517578125</ele>
        <time>2018-08-18T07:08:06.000Z</time>
      </trkpt>
      <trkpt lat="50.8668958581984043121337890625" lon="12.05923059023916721343994140625">
        <ele>215.1999969482421875</ele>
        <time>2018-08-18T07:08:10.000Z</time>
      </trkpt>
      <trkpt lat="50.86690432392060756683349609375" lon="12.059425972402095794677734375">
        <ele>215</ele>
        <time>2018-08-18T07:08:13.000Z</time>
      </trkpt>
      <trkpt lat="50.866908095777034759521484375" lon="12.0597309060394763946533203125">
        <ele>213.8000030517578125</ele>
        <time>2018-08-18T07:08:21.000Z</time>
      </trkpt>
      <trkpt lat="50.866897366940975189208984375" lon="12.06066548824310302734375">
        <ele>213</ele>
        <time>2018-08-18T07:08:33.000Z</time>
      </trkpt>
      <trkpt lat="50.866887979209423065185546875" lon="12.0608443580567836761474609375">
        <ele>212.600006103515625</ele>
        <time>2018-08-18T07:08:36.000Z</time>
      </trkpt>
      <trkpt lat="50.8668378554284572601318359375" lon="12.0610867626965045928955078125">
        <ele>211.399993896484375</ele>
        <time>2018-08-18T07:08:43.000Z</time>
      </trkpt>
      <trkpt lat="50.8668070100247859954833984375" lon="12.0614364556968212127685546875">
        <ele>210.600006103515625</ele>
        <time>2018-08-18T07:08:47.000Z</time>
      </trkpt>
      <trkpt lat="50.86680457927286624908447265625" lon="12.061660252511501312255859375">
        <ele>210.399993896484375</ele>
        <time>2018-08-18T07:08:49.000Z</time>
      </trkpt>
      <trkpt lat="50.86681279353797435760498046875" lon="12.0626404322683811187744140625">
        <ele>210</ele>
        <time>2018-08-18T07:08:56.000Z</time>
      </trkpt>
      <trkpt lat="50.866837017238140106201171875" lon="12.06296481192111968994140625">
        <ele>209.399993896484375</ele>
        <time>2018-08-18T07:08:58.000Z</time>
      </trkpt>
      <trkpt lat="50.8669317327439785003662109375" lon="12.06347954459488391876220703125">
        <ele>208.1999969482421875</ele>
        <time>2018-08-18T07:09:01.000Z</time>
      </trkpt>
      <trkpt lat="50.8670001290738582611083984375" lon="12.06384683959186077117919921875">
        <ele>207</ele>
        <time>2018-08-18T07:09:03.000Z</time>
      </trkpt>
      <trkpt lat="50.86707715876400470733642578125" lon="12.06423508934676647186279296875">
        <ele>205.8000030517578125</ele>
        <time>2018-08-18T07:09:05.000Z</time>
      </trkpt>
      <trkpt lat="50.86717857979238033294677734375" lon="12.0646259374916553497314453125">
        <ele>204.399993896484375</ele>
        <time>2018-08-18T07:09:07.000Z</time>
      </trkpt>
      <trkpt lat="50.867321491241455078125" lon="12.0649945735931396484375">
        <ele>203</ele>
        <time>2018-08-18T07:09:09.000Z</time>
      </trkpt>
      <trkpt lat="50.86749021895229816436767578125" lon="12.06534200347959995269775390625">
        <ele>201.399993896484375</ele>
        <time>2018-08-18T07:09:11.000Z</time>
      </trkpt>
      <trkpt lat="50.86757688783109188079833984375" lon="12.0655124075710773468017578125">
        <ele>199.399993896484375</ele>
        <time>2018-08-18T07:09:12.000Z</time>
      </trkpt>
      <trkpt lat="50.8677488006651401519775390625" lon="12.06584751605987548828125">
        <ele>197.600006103515625</ele>
        <time>2018-08-18T07:09:14.000Z</time>
      </trkpt>
      <trkpt lat="50.8678309433162212371826171875" lon="12.06601507030427455902099609375">
        <ele>196.600006103515625</ele>
        <time>2018-08-18T07:09:15.000Z</time>
      </trkpt>
      <trkpt lat="50.8679979108273983001708984375" lon="12.06633877940475940704345703125">
        <ele>194.600006103515625</ele>
        <time>2018-08-18T07:09:17.000Z</time>
      </trkpt>
      <trkpt lat="50.8681601844727993011474609375" lon="12.066659890115261077880859375">
        <ele>193</ele>
        <time>2018-08-18T07:09:19.000Z</time>
      </trkpt>
      <trkpt lat="50.8683164231479167938232421875" lon="12.06697345711290836334228515625">
        <ele>191.1999969482421875</ele>
        <time>2018-08-18T07:09:21.000Z</time>
      </trkpt>
      <trkpt lat="50.86847509257495403289794921875" lon="12.06727445125579833984375">
        <ele>190</ele>
        <time>2018-08-18T07:09:23.000Z</time>
      </trkpt>
      <trkpt lat="50.8687100373208522796630859375" lon="12.0676856674253940582275390625">
        <ele>188.8000030517578125</ele>
        <time>2018-08-18T07:09:26.000Z</time>
      </trkpt>
      <trkpt lat="50.8689044974744319915771484375" lon="12.0680819638073444366455078125">
        <ele>187.399993896484375</ele>
        <time>2018-08-18T07:09:29.000Z</time>
      </trkpt>
      <trkpt lat="50.86908428929746150970458984375" lon="12.06844598986208438873291015625">
        <ele>186</ele>
        <time>2018-08-18T07:09:32.000Z</time>
      </trkpt>
      <trkpt lat="50.86925209499895572662353515625" lon="12.06877590157091617584228515625">
        <ele>185</ele>
        <time>2018-08-18T07:09:35.000Z</time>
      </trkpt>
      <trkpt lat="50.8694513328373432159423828125" lon="12.06919717602431774139404296875">
        <ele>184</ele>
        <time>2018-08-18T07:09:39.000Z</time>
      </trkpt>
      <trkpt lat="50.86978040635585784912109375" lon="12.06988214515149593353271484375">
        <ele>183.1999969482421875</ele>
        <time>2018-08-18T07:09:46.000Z</time>
      </trkpt>
      <trkpt lat="50.86995919235050678253173828125" lon="12.0702458359301090240478515625">
        <ele>183</ele>
        <time>2018-08-18T07:09:50.000Z</time>
      </trkpt>
      <trkpt lat="50.87011023424565792083740234375" lon="12.07050642929971218109130859375">
        <ele>182.600006103515625</ele>
        <time>2018-08-18T07:09:58.000Z</time>
      </trkpt>
      <trkpt lat="50.8701580949127674102783203125" lon="12.07058538682758808135986328125">
        <ele>182.399993896484375</ele>
        <time>2018-08-18T07:10:06.000Z</time>
      </trkpt>
      <trkpt lat="50.87024400942027568817138671875" lon="12.07078303210437297821044921875">
        <ele>182.1999969482421875</ele>
        <time>2018-08-18T07:10:10.000Z</time>
      </trkpt>
      <trkpt lat="50.8703720010817050933837890625" lon="12.07103448919951915740966796875">
        <ele>182.1999969482421875</ele>
        <time>2018-08-18T07:10:14.000Z</time>
      </trkpt>
      <trkpt lat="50.87070132605731487274169921875" lon="12.071717195212841033935546875">
        <ele>182.1999969482421875</ele>
        <time>2018-08-18T07:10:23.000Z</time>
      </trkpt>
      <trkpt lat="50.87098027579486370086669921875" lon="12.0722960494458675384521484375">
        <ele>182.399993896484375</ele>
        <time>2018-08-18T07:10:30.000Z</time>
      </trkpt>
      <trkpt lat="50.8711267076432704925537109375" lon="12.07286057062447071075439453125">
        <ele>182.8000030517578125</ele>
        <time>2018-08-18T07:10:36.000Z</time>
      </trkpt>
      <trkpt lat="50.8713407814502716064453125" lon="12.073611505329608917236328125">
        <ele>184</ele>
        <time>2018-08-18T07:10:45.000Z</time>
      </trkpt>
      <trkpt lat="50.8713476546108722686767578125" lon="12.0736656524240970611572265625">
        <ele>184.600006103515625</ele>
        <time>2018-08-18T07:10:49.000Z</time>
      </trkpt>
      <trkpt lat="50.87135846726596355438232421875" lon="12.0737270079553127288818359375">
        <ele>184.600006103515625</ele>
        <time>2018-08-18T07:11:48.000Z</time>
      </trkpt>
      <trkpt lat="50.8714167214930057525634765625" lon="12.0739298500120639801025390625">
        <ele>184.600006103515625</ele>
        <time>2018-08-18T07:11:52.000Z</time>
      </trkpt>
      <trkpt lat="50.871745459735393524169921875" lon="12.0740005932748317718505859375">
        <ele>184.600006103515625</ele>
        <time>2018-08-18T07:11:59.000Z</time>
      </trkpt>
      <trkpt lat="50.8723269961774349212646484375" lon="12.073679231107234954833984375">
        <ele>184.1999969482421875</ele>
        <time>2018-08-18T07:12:07.000Z</time>
      </trkpt>
      <trkpt lat="50.8728620968759059906005859375" lon="12.0733696036040782928466796875">
        <ele>183.1999969482421875</ele>
        <time>2018-08-18T07:12:14.000Z</time>
      </trkpt>
      <trkpt lat="50.87293778546154499053955078125" lon="12.07332710735499858856201171875">
        <ele>183</ele>
        <time>2018-08-18T07:12:15.000Z</time>
      </trkpt>
      <trkpt lat="50.87348277680575847625732421875" lon="12.073015384376049041748046875">
        <ele>182.1999969482421875</ele>
        <time>2018-08-18T07:12:22.000Z</time>
      </trkpt>
      <trkpt lat="50.873795337975025177001953125" lon="12.072818242013454437255859375">
        <ele>182</ele>
        <time>2018-08-18T07:12:26.000Z</time>
      </trkpt>
      <trkpt lat="50.8743520639836788177490234375" lon="12.07248237915337085723876953125">
        <ele>181.8000030517578125</ele>
        <time>2018-08-18T07:12:33.000Z</time>
      </trkpt>
      <trkpt lat="50.87491189129650592803955078125" lon="12.07216772250831127166748046875">
        <ele>181.600006103515625</ele>
        <time>2018-08-18T07:12:40.000Z</time>
      </trkpt>
      <trkpt lat="50.87545436806976795196533203125" lon="12.071852982044219970703125">
        <ele>181.1999969482421875</ele>
        <time>2018-08-18T07:12:47.000Z</time>
      </trkpt>
      <trkpt lat="50.8760123513638973236083984375" lon="12.07164318300783634185791015625">
        <ele>181.1999969482421875</ele>
        <time>2018-08-18T07:12:54.000Z</time>
      </trkpt>
      <trkpt lat="50.8766059577465057373046875" lon="12.07170856185257434844970703125">
        <ele>181</ele>
        <time>2018-08-18T07:13:01.000Z</time>
      </trkpt>
      <trkpt lat="50.87692723609507083892822265625" lon="12.07185625098645687103271484375">
        <ele>181</ele>
        <time>2018-08-18T07:13:05.000Z</time>
      </trkpt>
      <trkpt lat="50.877443812787532806396484375" lon="12.0721565745770931243896484375">
        <ele>180.600006103515625</ele>
        <time>2018-08-18T07:13:12.000Z</time>
      </trkpt>
      <trkpt lat="50.87783717550337314605712890625" lon="12.072429321706295013427734375">
        <ele>180.399993896484375</ele>
        <time>2018-08-18T07:13:18.000Z</time>
      </trkpt>
      <trkpt lat="50.878050327301025390625" lon="12.07273936830461025238037109375">
        <ele>180.399993896484375</ele>
        <time>2018-08-18T07:13:22.000Z</time>
      </trkpt>
      <trkpt lat="50.87845467031002044677734375" lon="12.07343758083879947662353515625">
        <ele>180.600006103515625</ele>
        <time>2018-08-18T07:13:30.000Z</time>
      </trkpt>
      <trkpt lat="50.87888709269464015960693359375" lon="12.07407544367015361785888671875">
        <ele>181</ele>
        <time>2018-08-18T07:13:38.000Z</time>
      </trkpt>
      <trkpt lat="50.8793605864048004150390625" lon="12.074567377567291259765625">
        <ele>181.600006103515625</ele>
        <time>2018-08-18T07:13:45.000Z</time>
      </trkpt>
      <trkpt lat="50.87988403625786304473876953125" lon="12.07499611191451549530029296875">
        <ele>181.1999969482421875</ele>
        <time>2018-08-18T07:13:52.000Z</time>
      </trkpt>
      <trkpt lat="50.880461633205413818359375" lon="12.07527212798595428466796875">
        <ele>180.399993896484375</ele>
        <time>2018-08-18T07:13:59.000Z</time>
      </trkpt>
      <trkpt lat="50.8810046128928661346435546875" lon="12.07554261200129985809326171875">
        <ele>180.1999969482421875</ele>
        <time>2018-08-18T07:14:06.000Z</time>
      </trkpt>
      <trkpt lat="50.8815279789268970489501953125" lon="12.0757909677922725677490234375">
        <ele>180.399993896484375</ele>
        <time>2018-08-18T07:14:13.000Z</time>
      </trkpt>
      <trkpt lat="50.88191245682537555694580078125" lon="12.07597662694752216339111328125">
        <ele>180.399993896484375</ele>
        <time>2018-08-18T07:14:24.000Z</time>
      </trkpt>
      <trkpt lat="50.881960652768611907958984375" lon="12.07601283676922321319580078125">
        <ele>179.399993896484375</ele>
        <time>2018-08-18T07:15:14.000Z</time>
      </trkpt>
      <trkpt lat="50.8820587210357189178466796875" lon="12.07605122588574886322021484375">
        <ele>179.399993896484375</ele>
        <time>2018-08-18T07:15:17.000Z</time>
      </trkpt>
      <trkpt lat="50.88214815594255924224853515625" lon="12.07606195472180843353271484375">
        <ele>179.399993896484375</ele>
        <time>2018-08-18T07:15:19.000Z</time>
      </trkpt>
      <trkpt lat="50.88237874209880828857421875" lon="12.075858525931835174560546875">
        <ele>179.399993896484375</ele>
        <time>2018-08-18T07:15:24.000Z</time>
      </trkpt>
      <trkpt lat="50.88272516615688800811767578125" lon="12.07533976994454860687255859375">
        <ele>179.600006103515625</ele>
        <time>2018-08-18T07:15:32.000Z</time>
      </trkpt>
      <trkpt lat="50.8829485438764095306396484375" lon="12.0752049051225185394287109375">
        <ele>179.8000030517578125</ele>
        <time>2018-08-18T07:15:36.000Z</time>
      </trkpt>
      <trkpt lat="50.8834829740226268768310546875" lon="12.07503584213554859161376953125">
        <ele>180.1999969482421875</ele>
        <time>2018-08-18T07:15:44.000Z</time>
      </trkpt>
      <trkpt lat="50.8840412087738513946533203125" lon="12.07483828067779541015625">
        <ele>180</ele>
        <time>2018-08-18T07:15:52.000Z</time>
      </trkpt>
      <trkpt lat="50.88460807688534259796142578125" lon="12.0746654458343982696533203125">
        <ele>179.8000030517578125</ele>
        <time>2018-08-18T07:16:00.000Z</time>
      </trkpt>
      <trkpt lat="50.8851771242916584014892578125" lon="12.0745115540921688079833984375">
        <ele>179.600006103515625</ele>
        <time>2018-08-18T07:16:09.000Z</time>
      </trkpt>
      <trkpt lat="50.88559546507894992828369140625" lon="12.07442530430853366851806640625">
        <ele>179.8000030517578125</ele>
        <time>2018-08-18T07:16:15.000Z</time>
      </trkpt>
      <trkpt lat="50.88615688495337963104248046875" lon="12.07435925491154193878173828125">
        <ele>180</ele>
        <time>2018-08-18T07:16:23.000Z</time>
      </trkpt>
      <trkpt lat="50.886738337576389312744140625" lon="12.07424609921872615814208984375">
        <ele>180.1999969482421875</ele>
        <time>2018-08-18T07:16:31.000Z</time>
      </trkpt>
      <trkpt lat="50.88732012547552585601806640625" lon="12.0741266570985317230224609375">
        <ele>180.399993896484375</ele>
        <time>2018-08-18T07:16:39.000Z</time>
      </trkpt>
      <trkpt lat="50.8875455148518085479736328125" lon="12.07408927381038665771484375">
        <ele>180.399993896484375</ele>
        <time>2018-08-18T07:16:42.000Z</time>
      </trkpt>
      <trkpt lat="50.8879069425165653228759765625" lon="12.07398072816431522369384765625">
        <ele>180.8000030517578125</ele>
        <time>2018-08-18T07:16:47.000Z</time>
      </trkpt>
      <trkpt lat="50.8884953521192073822021484375" lon="12.0739207975566387176513671875">
        <ele>181.399993896484375</ele>
        <time>2018-08-18T07:16:55.000Z</time>
      </trkpt>
      <trkpt lat="50.8887035585939884185791015625" lon="12.07390747033059597015380859375">
        <ele>181.399993896484375</ele>
        <time>2018-08-18T07:16:58.000Z</time>
      </trkpt>
      <trkpt lat="50.889242179691791534423828125" lon="12.0741051994264125823974609375">
        <ele>182</ele>
        <time>2018-08-18T07:17:06.000Z</time>
      </trkpt>
      <trkpt lat="50.88947980664670467376708984375" lon="12.0742828957736492156982421875">
        <ele>182.600006103515625</ele>
        <time>2018-08-18T07:17:10.000Z</time>
      </trkpt>
      <trkpt lat="50.8898056112229824066162109375" lon="12.074614651501178741455078125">
        <ele>183.600006103515625</ele>
        <time>2018-08-18T07:17:16.000Z</time>
      </trkpt>
      <trkpt lat="50.88998012244701385498046875" lon="12.0748257078230381011962890625">
        <ele>184.8000030517578125</ele>
        <time>2018-08-18T07:17:20.000Z</time>
      </trkpt>
      <trkpt lat="50.89014667086303234100341796875" lon="12.0750702917575836181640625">
        <ele>185.8000030517578125</ele>
        <time>2018-08-18T07:17:24.000Z</time>
      </trkpt>
      <trkpt lat="50.8902991376817226409912109375" lon="12.07533306442201137542724609375">
        <ele>187</ele>
        <time>2018-08-18T07:17:28.000Z</time>
      </trkpt>
      <trkpt lat="50.89044054038822650909423828125" lon="12.075629867613315582275390625">
        <ele>188</ele>
        <time>2018-08-18T07:17:32.000Z</time>
      </trkpt>
      <trkpt lat="50.89058370329439640045166015625" lon="12.07596036605536937713623046875">
        <ele>189</ele>
        <time>2018-08-18T07:17:36.000Z</time>
      </trkpt>
      <trkpt lat="50.890903137624263763427734375" lon="12.07668975926935672760009765625">
        <ele>189.600006103515625</ele>
        <time>2018-08-18T07:17:44.000Z</time>
      </trkpt>
      <trkpt lat="50.8912454545497894287109375" lon="12.07744471728801727294921875">
        <ele>189.399993896484375</ele>
        <time>2018-08-18T07:17:52.000Z</time>
      </trkpt>
      <trkpt lat="50.8916298486292362213134765625" lon="12.07807294093072414398193359375">
        <ele>189</ele>
        <time>2018-08-18T07:17:59.000Z</time>
      </trkpt>
      <trkpt lat="50.8917699940502643585205078125" lon="12.07822389900684356689453125">
        <ele>188.8000030517578125</ele>
        <time>2018-08-18T07:18:01.000Z</time>
      </trkpt>
      <trkpt lat="50.89208724908530712127685546875" lon="12.07836764864623546600341796875">
        <ele>188</ele>
        <time>2018-08-18T07:18:05.000Z</time>
      </trkpt>
      <trkpt lat="50.8921706490218639373779296875" lon="12.0783712528645992279052734375">
        <ele>187.8000030517578125</ele>
        <time>2018-08-18T07:18:06.000Z</time>
      </trkpt>
      <trkpt lat="50.892496369779109954833984375" lon="12.07834937609732151031494140625">
        <ele>187</ele>
        <time>2018-08-18T07:18:10.000Z</time>
      </trkpt>
      <trkpt lat="50.892973132431507110595703125" lon="12.07835935056209564208984375">
        <ele>186.1999969482421875</ele>
        <time>2018-08-18T07:18:16.000Z</time>
      </trkpt>
      <trkpt lat="50.89350731112062931060791015625" lon="12.07873896695673465728759765625">
        <ele>186.1999969482421875</ele>
        <time>2018-08-18T07:18:24.000Z</time>
      </trkpt>
      <trkpt lat="50.893895812332630157470703125" lon="12.0793780870735645294189453125">
        <ele>187.399993896484375</ele>
        <time>2018-08-18T07:18:33.000Z</time>
      </trkpt>
      <trkpt lat="50.893962197005748748779296875" lon="12.079579420387744903564453125">
        <ele>188.399993896484375</ele>
        <time>2018-08-18T07:18:36.000Z</time>
      </trkpt>
      <trkpt lat="50.8939915336668491363525390625" lon="12.07969953306019306182861328125">
        <ele>189.399993896484375</ele>
        <time>2018-08-18T07:18:41.000Z</time>
      </trkpt>
      <trkpt lat="50.89400066994130611419677734375" lon="12.079732976853847503662109375">
        <ele>190.399993896484375</ele>
        <time>2018-08-18T07:19:29.000Z</time>
      </trkpt>
      <trkpt lat="50.894005112349987030029296875" lon="12.0797542668879032135009765625">
        <ele>190.399993896484375</ele>
        <time>2018-08-18T07:19:30.000Z</time>
      </trkpt>
      <trkpt lat="50.89414291083812713623046875" lon="12.07992685027420520782470703125">
        <ele>190.399993896484375</ele>
        <time>2018-08-18T07:19:36.000Z</time>
      </trkpt>
      <trkpt lat="50.89433913119137287139892578125" lon="12.07993539981544017791748046875">
        <ele>190.8000030517578125</ele>
        <time>2018-08-18T07:19:41.000Z</time>
      </trkpt>
      <trkpt lat="50.89439780451357364654541015625" lon="12.0799235813319683074951171875">
        <ele>190.8000030517578125</ele>
        <time>2018-08-18T07:19:43.000Z</time>
      </trkpt>
      <trkpt lat="50.89466057717800140380859375" lon="12.07960163243114948272705078125">
        <ele>191.1999969482421875</ele>
        <time>2018-08-18T07:19:51.000Z</time>
      </trkpt>
      <trkpt lat="50.89497414417564868927001953125" lon="12.0791464112699031829833984375">
        <ele>191.399993896484375</ele>
        <time>2018-08-18T07:19:58.000Z</time>
      </trkpt>
      <trkpt lat="50.8950204961001873016357421875" lon="12.0790882408618927001953125">
        <ele>191.399993896484375</ele>
        <time>2018-08-18T07:19:59.000Z</time>
      </trkpt>
      <trkpt lat="50.8954593725502490997314453125" lon="12.0784969814121723175048828125">
        <ele>191.8000030517578125</ele>
        <time>2018-08-18T07:20:09.000Z</time>
      </trkpt>
      <trkpt lat="50.895552746951580047607421875" lon="12.0783856697380542755126953125">
        <ele>191.8000030517578125</ele>
        <time>2018-08-18T07:20:11.000Z</time>
      </trkpt>
      <trkpt lat="50.8959763683378696441650390625" lon="12.07780857570469379425048828125">
        <ele>192</ele>
        <time>2018-08-18T07:20:20.000Z</time>
      </trkpt>
      <trkpt lat="50.89642253704369068145751953125" lon="12.0772256143391132354736328125">
        <ele>192.1999969482421875</ele>
        <time>2018-08-18T07:20:29.000Z</time>
      </trkpt>
      <trkpt lat="50.896614231169223785400390625" lon="12.07697541452944278717041015625">
        <ele>192.399993896484375</ele>
        <time>2018-08-18T07:20:33.000Z</time>
      </trkpt>
      <trkpt lat="50.8970572985708713531494140625" lon="12.0764085464179515838623046875">
        <ele>192.600006103515625</ele>
        <time>2018-08-18T07:20:43.000Z</time>
      </trkpt>
      <trkpt lat="50.897489301860332489013671875" lon="12.07586615346372127532958984375">
        <ele>193</ele>
        <time>2018-08-18T07:20:53.000Z</time>
      </trkpt>
      <trkpt lat="50.89766205288469791412353515625" lon="12.07553104497492313385009765625">
        <ele>193.1999969482421875</ele>
        <time>2018-08-18T07:21:01.000Z</time>
      </trkpt>
      <trkpt lat="50.8976983465254306793212890625" lon="12.07548846490681171417236328125">
        <ele>193.1999969482421875</ele>
        <time>2018-08-18T07:21:02.000Z</time>
      </trkpt>
      <trkpt lat="50.8980689942836761474609375" lon="12.07502092234790325164794921875">
        <ele>193.399993896484375</ele>
        <time>2018-08-18T07:21:10.000Z</time>
      </trkpt>
      <trkpt lat="50.898513905704021453857421875" lon="12.0744927786290645599365234375">
        <ele>193.8000030517578125</ele>
        <time>2018-08-18T07:21:18.000Z</time>
      </trkpt>
      <trkpt lat="50.8989888243377208709716796875" lon="12.07395541481673717498779296875">
        <ele>194.399993896484375</ele>
        <time>2018-08-18T07:21:26.000Z</time>
      </trkpt>
      <trkpt lat="50.8994344063103199005126953125" lon="12.07347278483211994171142578125">
        <ele>194.399993896484375</ele>
        <time>2018-08-18T07:21:33.000Z</time>
      </trkpt>
      <trkpt lat="50.8999406732618808746337890625" lon="12.0731067471206188201904296875">
        <ele>194.1999969482421875</ele>
        <time>2018-08-18T07:21:40.000Z</time>
      </trkpt>
      <trkpt lat="50.90051307342946529388427734375" lon="12.0727661065757274627685546875">
        <ele>193.600006103515625</ele>
        <time>2018-08-18T07:21:48.000Z</time>
      </trkpt>
      <trkpt lat="50.90102101676166057586669921875" lon="12.07243443466722965240478515625">
        <ele>193.399993896484375</ele>
        <time>2018-08-18T07:21:55.000Z</time>
      </trkpt>
      <trkpt lat="50.90152091346681118011474609375" lon="12.07209731452167034149169921875">
        <ele>193.1999969482421875</ele>
        <time>2018-08-18T07:22:02.000Z</time>
      </trkpt>
      <trkpt lat="50.90183624066412448883056640625" lon="12.0719627849757671356201171875">
        <ele>193</ele>
        <time>2018-08-18T07:22:06.000Z</time>
      </trkpt>
      <trkpt lat="50.90244409628212451934814453125" lon="12.07214257679879665374755859375">
        <ele>192.1999969482421875</ele>
        <time>2018-08-18T07:22:13.000Z</time>
      </trkpt>
      <trkpt lat="50.902531854808330535888671875" lon="12.072206698358058929443359375">
        <ele>191.8000030517578125</ele>
        <time>2018-08-18T07:22:14.000Z</time>
      </trkpt>
      <trkpt lat="50.90290677733719348907470703125" lon="12.0724422298371791839599609375">
        <ele>191</ele>
        <time>2018-08-18T07:22:18.000Z</time>
      </trkpt>
      <trkpt lat="50.903219170868396759033203125" lon="12.072451449930667877197265625">
        <ele>189.8000030517578125</ele>
        <time>2018-08-18T07:22:21.000Z</time>
      </trkpt>
      <trkpt lat="50.90332251973450183868408203125" lon="12.072426974773406982421875">
        <ele>189.1999969482421875</ele>
        <time>2018-08-18T07:22:22.000Z</time>
      </trkpt>
      <trkpt lat="50.90342494659125804901123046875" lon="12.07239688374102115631103515625">
        <ele>188.8000030517578125</ele>
        <time>2018-08-18T07:22:23.000Z</time>
      </trkpt>
      <trkpt lat="50.9036273695528507232666015625" lon="12.0723292417824268341064453125">
        <ele>187.600006103515625</ele>
        <time>2018-08-18T07:22:25.000Z</time>
      </trkpt>
      <trkpt lat="50.90381604619324207305908203125" lon="12.07222555764019489288330078125">
        <ele>186.600006103515625</ele>
        <time>2018-08-18T07:22:27.000Z</time>
      </trkpt>
      <trkpt lat="50.90399676002562046051025390625" lon="12.0721118152141571044921875">
        <ele>185.399993896484375</ele>
        <time>2018-08-18T07:22:29.000Z</time>
      </trkpt>
      <trkpt lat="50.90416590683162212371826171875" lon="12.072001509368419647216796875">
        <ele>184.1999969482421875</ele>
        <time>2018-08-18T07:22:31.000Z</time>
      </trkpt>
      <trkpt lat="50.9044075571000576019287109375" lon="12.0718427561223506927490234375">
        <ele>183</ele>
        <time>2018-08-18T07:22:34.000Z</time>
      </trkpt>
      <trkpt lat="50.90470544993877410888671875" lon="12.07162356935441493988037109375">
        <ele>181.8000030517578125</ele>
        <time>2018-08-18T07:22:38.000Z</time>
      </trkpt>
      <trkpt lat="50.9052048437297344207763671875" lon="12.07117195241153240203857421875">
        <ele>181.399993896484375</ele>
        <time>2018-08-18T07:22:51.000Z</time>
      </trkpt>
      <trkpt lat="50.90564916841685771942138671875" lon="12.07058840431272983551025390625">
        <ele>181</ele>
        <time>2018-08-18T07:23:00.000Z</time>
      </trkpt>
      <trkpt lat="50.90584765188395977020263671875" lon="12.070288248360157012939453125">
        <ele>180.8000030517578125</ele>
        <time>2018-08-18T07:23:04.000Z</time>
      </trkpt>
      <trkpt lat="50.906215198338031768798828125" lon="12.06964753568172454833984375">
        <ele>180.8000030517578125</ele>
        <time>2018-08-18T07:23:12.000Z</time>
      </trkpt>
      <trkpt lat="50.90660470537841320037841796875" lon="12.0690059848129749298095703125">
        <ele>180.8000030517578125</ele>
        <time>2018-08-18T07:23:20.000Z</time>
      </trkpt>
      <trkpt lat="50.90684627182781696319580078125" lon="12.068607844412326812744140625">
        <ele>180.8000030517578125</ele>
        <time>2018-08-18T07:23:25.000Z</time>
      </trkpt>
      <trkpt lat="50.90731850825250148773193359375" lon="12.06818841397762298583984375">
        <ele>180.8000030517578125</ele>
        <time>2018-08-18T07:23:33.000Z</time>
      </trkpt>
      <trkpt lat="50.9078456461429595947265625" lon="12.0678325183689594268798828125">
        <ele>181.399993896484375</ele>
        <time>2018-08-18T07:23:42.000Z</time>
      </trkpt>
      <trkpt lat="50.90787758119404315948486328125" lon="12.0677818916738033294677734375">
        <ele>181.399993896484375</ele>
        <time>2018-08-18T07:23:45.000Z</time>
      </trkpt>
      <trkpt lat="50.9078816883265972137451171875" lon="12.067738808691501617431640625">
        <ele>181</ele>
        <time>2018-08-18T07:23:55.000Z</time>
      </trkpt>
      <trkpt lat="50.90789996087551116943359375" lon="12.06768172793090343475341796875">
        <ele>180.8000030517578125</ele>
        <time>2018-08-18T07:23:59.000Z</time>
      </trkpt>
      <trkpt lat="50.90792971663177013397216796875" lon="12.06764669157564640045166015625">
        <ele>180.8000030517578125</ele>
        <time>2018-08-18T07:24:31.000Z</time>
      </trkpt>
      <trkpt lat="50.90811931528151035308837890625" lon="12.0674378983676433563232421875">
        <ele>180.600006103515625</ele>
        <time>2018-08-18T07:24:39.000Z</time>
      </trkpt>
      <trkpt lat="50.9086390770971775054931640625" lon="12.06707923673093318939208984375">
        <ele>180.8000030517578125</ele>
        <time>2018-08-18T07:24:49.000Z</time>
      </trkpt>
      <trkpt lat="50.90918197296559810638427734375" lon="12.06672392785549163818359375">
        <ele>180.8000030517578125</ele>
        <time>2018-08-18T07:24:58.000Z</time>
      </trkpt>
      <trkpt lat="50.9097339212894439697265625" lon="12.0663462392985820770263671875">
        <ele>180.600006103515625</ele>
        <time>2018-08-18T07:25:07.000Z</time>
      </trkpt>
      <trkpt lat="50.91027103364467620849609375" lon="12.0660015754401683807373046875">
        <ele>181</ele>
        <time>2018-08-18T07:25:23.000Z</time>
      </trkpt>
      <trkpt lat="50.91081845574080944061279296875" lon="12.06562824547290802001953125">
        <ele>181.1999969482421875</ele>
        <time>2018-08-18T07:25:33.000Z</time>
      </trkpt>
      <trkpt lat="50.9112854115664958953857421875" lon="12.06519347615540027618408203125">
        <ele>181.399993896484375</ele>
        <time>2018-08-18T07:25:41.000Z</time>
      </trkpt>
      <trkpt lat="50.9117625094950199127197265625" lon="12.0646906457841396331787109375">
        <ele>181.399993896484375</ele>
        <time>2018-08-18T07:25:49.000Z</time>
      </trkpt>
      <trkpt lat="50.9122074209153652191162109375" lon="12.0641257055103778839111328125">
        <ele>181.399993896484375</ele>
        <time>2018-08-18T07:25:57.000Z</time>
      </trkpt>
      <trkpt lat="50.912554264068603515625" lon="12.0636345259845256805419921875">
        <ele>181.600006103515625</ele>
        <time>2018-08-18T07:26:04.000Z</time>
      </trkpt>
      <trkpt lat="50.9128229878842830657958984375" lon="12.06312012858688831329345703125">
        <ele>182.600006103515625</ele>
        <time>2018-08-18T07:26:11.000Z</time>
      </trkpt>
      <trkpt lat="50.9128944016993045806884765625" lon="12.06298216246068477630615234375">
        <ele>183</ele>
        <time>2018-08-18T07:26:13.000Z</time>
      </trkpt>
      <trkpt lat="50.91293388046324253082275390625" lon="12.06291762180626392364501953125">
        <ele>183.8000030517578125</ele>
        <time>2018-08-18T07:26:14.000Z</time>
      </trkpt>
      <trkpt lat="50.91308601200580596923828125" lon="12.06267245113849639892578125">
        <ele>185</ele>
        <time>2018-08-18T07:26:18.000Z</time>
      </trkpt>
      <trkpt lat="50.91323227621614933013916015625" lon="12.0624325610697269439697265625">
        <ele>186</ele>
        <time>2018-08-18T07:26:22.000Z</time>
      </trkpt>
      <trkpt lat="50.91340745799243450164794921875" lon="12.06214682199060916900634765625">
        <ele>187.1999969482421875</ele>
        <time>2018-08-18T07:26:27.000Z</time>
      </trkpt>
      <trkpt lat="50.91354726813733577728271484375" lon="12.06191849894821643829345703125">
        <ele>188.1999969482421875</ele>
        <time>2018-08-18T07:26:31.000Z</time>
      </trkpt>
      <trkpt lat="50.9136812947690486907958984375" lon="12.06169570796191692352294921875">
        <ele>189.1999969482421875</ele>
        <time>2018-08-18T07:26:35.000Z</time>
      </trkpt>
      <trkpt lat="50.91381196863949298858642578125" lon="12.06147576682269573211669921875">
        <ele>190.399993896484375</ele>
        <time>2018-08-18T07:26:39.000Z</time>
      </trkpt>
      <trkpt lat="50.91394121758639812469482421875" lon="12.061253227293491363525390625">
        <ele>191.600006103515625</ele>
        <time>2018-08-18T07:26:43.000Z</time>
      </trkpt>
      <trkpt lat="50.9140360169112682342529296875" lon="12.0610743574798107147216796875">
        <ele>192.600006103515625</ele>
        <time>2018-08-18T07:26:46.000Z</time>
      </trkpt>
      <trkpt lat="50.9141560457646846771240234375" lon="12.06081845797598361968994140625">
        <ele>193.8000030517578125</ele>
        <time>2018-08-18T07:26:50.000Z</time>
      </trkpt>
      <trkpt lat="50.91428822837769985198974609375" lon="12.06046423874795436859130859375">
        <ele>195</ele>
        <time>2018-08-18T07:26:55.000Z</time>
      </trkpt>
      <trkpt lat="50.91442921198904514312744140625" lon="12.0601235143840312957763671875">
        <ele>196.1999969482421875</ele>
        <time>2018-08-18T07:27:00.000Z</time>
      </trkpt>
      <trkpt lat="50.91456902213394641876220703125" lon="12.05974347889423370361328125">
        <ele>197.1999969482421875</ele>
        <time>2018-08-18T07:27:05.000Z</time>
      </trkpt>
      <trkpt lat="50.91478996910154819488525390625" lon="12.0591706596314907073974609375">
        <ele>198.1999969482421875</ele>
        <time>2018-08-18T07:27:12.000Z</time>
      </trkpt>
      <trkpt lat="50.9151739440858364105224609375" lon="12.05848812125623226165771484375">
        <ele>198.600006103515625</ele>
        <time>2018-08-18T07:27:21.000Z</time>
      </trkpt>
      <trkpt lat="50.91561692766845226287841796875" lon="12.05789786763489246368408203125">
        <ele>198.600006103515625</ele>
        <time>2018-08-18T07:27:29.000Z</time>
      </trkpt>
      <trkpt lat="50.91605982743203639984130859375" lon="12.05731348134577274322509765625">
        <ele>198</ele>
        <time>2018-08-18T07:27:36.000Z</time>
      </trkpt>
      <trkpt lat="50.916476659476757049560546875" lon="12.0567694120109081268310546875">
        <ele>197.1999969482421875</ele>
        <time>2018-08-18T07:27:42.000Z</time>
      </trkpt>
      <trkpt lat="50.91683448292315006256103515625" lon="12.0562956668436527252197265625">
        <ele>196</ele>
        <time>2018-08-18T07:27:47.000Z</time>
      </trkpt>
      <trkpt lat="50.91705827973783016204833984375" lon="12.05600657500326633453369140625">
        <ele>195</ele>
        <time>2018-08-18T07:27:50.000Z</time>
      </trkpt>
      <trkpt lat="50.91736321337521076202392578125" lon="12.05561229027807712554931640625">
        <ele>193.8000030517578125</ele>
        <time>2018-08-18T07:27:54.000Z</time>
      </trkpt>
      <trkpt lat="50.91767451725900173187255859375" lon="12.05520912073552608489990234375">
        <ele>192.600006103515625</ele>
        <time>2018-08-18T07:27:58.000Z</time>
      </trkpt>
      <trkpt lat="50.9179983101785182952880859375" lon="12.05481936223804950714111328125">
        <ele>191.1999969482421875</ele>
        <time>2018-08-18T07:28:02.000Z</time>
      </trkpt>
      <trkpt lat="50.9182276390492916107177734375" lon="12.054504789412021636962890625">
        <ele>190</ele>
        <time>2018-08-18T07:28:05.000Z</time>
      </trkpt>
      <trkpt lat="50.91845017857849597930908203125" lon="12.05418803729116916656494140625">
        <ele>188.8000030517578125</ele>
        <time>2018-08-18T07:28:08.000Z</time>
      </trkpt>
      <trkpt lat="50.91867380775511264801025390625" lon="12.05388997681438922882080078125">
        <ele>187.600006103515625</ele>
        <time>2018-08-18T07:28:11.000Z</time>
      </trkpt>
      <trkpt lat="50.91889978386461734771728515625" lon="12.05362477339804172515869140625">
        <ele>186.1999969482421875</ele>
        <time>2018-08-18T07:28:14.000Z</time>
      </trkpt>
      <trkpt lat="50.9192985109984874725341796875" lon="12.05326334573328495025634765625">
        <ele>185.1999969482421875</ele>
        <time>2018-08-18T07:28:20.000Z</time>
      </trkpt>
      <trkpt lat="50.9193531610071659088134765625" lon="12.053211629390716552734375">
        <ele>185.1999969482421875</ele>
        <time>2018-08-18T07:28:21.000Z</time>
      </trkpt>
      <trkpt lat="50.91962347738444805145263671875" lon="12.05295472405850887298583984375">
        <ele>185.1999969482421875</ele>
        <time>2018-08-18T07:28:27.000Z</time>
      </trkpt>
      <trkpt lat="50.9198134951293468475341796875" lon="12.05317047424614429473876953125">
        <ele>186.1999969482421875</ele>
        <time>2018-08-18T07:28:32.000Z</time>
      </trkpt>
      <trkpt lat="50.92000384815037250518798828125" lon="12.05351145006716251373291015625">
        <ele>187.600006103515625</ele>
        <time>2018-08-18T07:28:37.000Z</time>
      </trkpt>
      <trkpt lat="50.92020803131163120269775390625" lon="12.0538173057138919830322265625">
        <ele>188.600006103515625</ele>
        <time>2018-08-18T07:28:42.000Z</time>
      </trkpt>
      <trkpt lat="50.9203827939927577972412109375" lon="12.0541515760123729705810546875">
        <ele>189.600006103515625</ele>
        <time>2018-08-18T07:28:47.000Z</time>
      </trkpt>
      <trkpt lat="50.92052252031862735748291015625" lon="12.05446698702871799468994140625">
        <ele>190.600006103515625</ele>
        <time>2018-08-18T07:28:51.000Z</time>
      </trkpt>
      <trkpt lat="50.92062494717538356781005859375" lon="12.0547409914433956146240234375">
        <ele>191.8000030517578125</ele>
        <time>2018-08-18T07:28:54.000Z</time>
      </trkpt>
      <trkpt lat="50.9209011308848857879638671875" lon="12.05551740713417530059814453125">
        <ele>192.8000030517578125</ele>
        <time>2018-08-18T07:29:02.000Z</time>
      </trkpt>
      <trkpt lat="50.92096558772027492523193359375" lon="12.05571672879159450531005859375">
        <ele>192.8000030517578125</ele>
        <time>2018-08-18T07:29:04.000Z</time>
      </trkpt>
      <trkpt lat="50.9212015382945537567138671875" lon="12.0565286837518215179443359375">
        <ele>192.600006103515625</ele>
        <time>2018-08-18T07:29:12.000Z</time>
      </trkpt>
      <trkpt lat="50.92141628265380859375" lon="12.0573926903307437896728515625">
        <ele>192.600006103515625</ele>
        <time>2018-08-18T07:29:20.000Z</time>
      </trkpt>
      <trkpt lat="50.92160210944712162017822265625" lon="12.05824873410165309906005859375">
        <ele>192.8000030517578125</ele>
        <time>2018-08-18T07:29:28.000Z</time>
      </trkpt>
      <trkpt lat="50.92180511914193630218505859375" lon="12.05892481841146945953369140625">
        <ele>193.8000030517578125</ele>
        <time>2018-08-18T07:29:35.000Z</time>
      </trkpt>
      <trkpt lat="50.92202690429985523223876953125" lon="12.059689499437808990478515625">
        <ele>195</ele>
        <time>2018-08-18T07:29:43.000Z</time>
      </trkpt>
      <trkpt lat="50.922210216522216796875" lon="12.06030447967350482940673828125">
        <ele>196</ele>
        <time>2018-08-18T07:29:49.000Z</time>
      </trkpt>
      <trkpt lat="50.92243082821369171142578125" lon="12.06112749874591827392578125">
        <ele>196.399993896484375</ele>
        <time>2018-08-18T07:29:57.000Z</time>
      </trkpt>
      <trkpt lat="50.9224987216293811798095703125" lon="12.0615162514150142669677734375">
        <ele>196.8000030517578125</ele>
        <time>2018-08-18T07:30:01.000Z</time>
      </trkpt>
      <trkpt lat="50.92256091535091400146484375" lon="12.0620235241949558258056640625">
        <ele>198</ele>
        <time>2018-08-18T07:30:07.000Z</time>
      </trkpt>
      <trkpt lat="50.92259285040199756622314453125" lon="12.062303982675075531005859375">
        <ele>199.1999969482421875</ele>
        <time>2018-08-18T07:30:11.000Z</time>
      </trkpt>
      <trkpt lat="50.92264900915324687957763671875" lon="12.062554769217967987060546875">
        <ele>200.399993896484375</ele>
        <time>2018-08-18T07:30:15.000Z</time>
      </trkpt>
      <trkpt lat="50.92269980348646640777587890625" lon="12.06273724325001239776611328125">
        <ele>201.600006103515625</ele>
        <time>2018-08-18T07:30:18.000Z</time>
      </trkpt>
      <trkpt lat="50.92277348041534423828125" lon="12.0629609562456607818603515625">
        <ele>203</ele>
        <time>2018-08-18T07:30:22.000Z</time>
      </trkpt>
      <trkpt lat="50.92279024422168731689453125" lon="12.0630236528813838958740234375">
        <ele>203.1999969482421875</ele>
        <time>2018-08-18T07:30:23.000Z</time>
      </trkpt>
      <trkpt lat="50.922862328588962554931640625" lon="12.063165642321109771728515625">
        <ele>204.1999969482421875</ele>
        <time>2018-08-18T07:30:26.000Z</time>
      </trkpt>
      <trkpt lat="50.92287213541567325592041015625" lon="12.06321970559656620025634765625">
        <ele>204.399993896484375</ele>
        <time>2018-08-18T07:30:27.000Z</time>
      </trkpt>
      <trkpt lat="50.92291505075991153717041015625" lon="12.06339756958186626434326171875">
        <ele>205.399993896484375</ele>
        <time>2018-08-18T07:30:30.000Z</time>
      </trkpt>
      <trkpt lat="50.92297372408211231231689453125" lon="12.063651122152805328369140625">
        <ele>206.1999969482421875</ele>
        <time>2018-08-18T07:30:34.000Z</time>
      </trkpt>
      <trkpt lat="50.92302384786307811737060546875" lon="12.0638816244900226593017578125">
        <ele>207.399993896484375</ele>
        <time>2018-08-18T07:30:38.000Z</time>
      </trkpt>
      <trkpt lat="50.92307464219629764556884765625" lon="12.06409812904894351959228515625">
        <ele>208.8000030517578125</ele>
        <time>2018-08-18T07:30:42.000Z</time>
      </trkpt>
      <trkpt lat="50.92310833744704723358154296875" lon="12.06426476128399372100830078125">
        <ele>209.8000030517578125</ele>
        <time>2018-08-18T07:30:45.000Z</time>
      </trkpt>
      <trkpt lat="50.92317606322467327117919921875" lon="12.06452786922454833984375">
        <ele>210.8000030517578125</ele>
        <time>2018-08-18T07:30:50.000Z</time>
      </trkpt>
      <trkpt lat="50.92322551645338535308837890625" lon="12.06467472016811370849609375">
        <ele>212.1999969482421875</ele>
        <time>2018-08-18T07:30:53.000Z</time>
      </trkpt>
      <trkpt lat="50.92331503517925739288330078125" lon="12.06490815617144107818603515625">
        <ele>213.1999969482421875</ele>
        <time>2018-08-18T07:30:58.000Z</time>
      </trkpt>
      <trkpt lat="50.9234304539859294891357421875" lon="12.065147124230861663818359375">
        <ele>214.399993896484375</ele>
        <time>2018-08-18T07:31:03.000Z</time>
      </trkpt>
      <trkpt lat="50.92358493246138095855712890625" lon="12.06540637649595737457275390625">
        <ele>215.399993896484375</ele>
        <time>2018-08-18T07:31:09.000Z</time>
      </trkpt>
      <trkpt lat="50.9237291850149631500244140625" lon="12.06558876670897006988525390625">
        <ele>216.600006103515625</ele>
        <time>2018-08-18T07:31:14.000Z</time>
      </trkpt>
      <trkpt lat="50.92388014309108257293701171875" lon="12.06577652134001255035400390625">
        <ele>217.8000030517578125</ele>
        <time>2018-08-18T07:31:19.000Z</time>
      </trkpt>
      <trkpt lat="50.9240185283124446868896484375" lon="12.06594608724117279052734375">
        <ele>218.8000030517578125</ele>
        <time>2018-08-18T07:31:24.000Z</time>
      </trkpt>
      <trkpt lat="50.92410259880125522613525390625" lon="12.06603988073766231536865234375">
        <ele>220</ele>
        <time>2018-08-18T07:31:27.000Z</time>
      </trkpt>
      <trkpt lat="50.92427216470241546630859375" lon="12.0662297308444976806640625">
        <ele>221.1999969482421875</ele>
        <time>2018-08-18T07:31:33.000Z</time>
      </trkpt>
      <trkpt lat="50.92439060099422931671142578125" lon="12.0663650147616863250732421875">
        <ele>222.1999969482421875</ele>
        <time>2018-08-18T07:31:37.000Z</time>
      </trkpt>
      <trkpt lat="50.92454306781291961669921875" lon="12.06656928174197673797607421875">
        <ele>223.399993896484375</ele>
        <time>2018-08-18T07:31:42.000Z</time>
      </trkpt>
      <trkpt lat="50.92467273585498332977294921875" lon="12.0667438767850399017333984375">
        <ele>224.600006103515625</ele>
        <time>2018-08-18T07:31:46.000Z</time>
      </trkpt>
      <trkpt lat="50.92480382882058620452880859375" lon="12.0669390074908733367919921875">
        <ele>225.600006103515625</ele>
        <time>2018-08-18T07:31:50.000Z</time>
      </trkpt>
      <trkpt lat="50.9249291382730007171630859375" lon="12.06714930944144725799560546875">
        <ele>226.600006103515625</ele>
        <time>2018-08-18T07:31:54.000Z</time>
      </trkpt>
      <trkpt lat="50.9250278770923614501953125" lon="12.06734762527048587799072265625">
        <ele>227.600006103515625</ele>
        <time>2018-08-18T07:31:58.000Z</time>
      </trkpt>
      <trkpt lat="50.9251353330910205841064453125" lon="12.06760880537331104278564453125">
        <ele>229</ele>
        <time>2018-08-18T07:32:03.000Z</time>
      </trkpt>
      <trkpt lat="50.925216637551784515380859375" lon="12.06781969405710697174072265625">
        <ele>230</ele>
        <time>2018-08-18T07:32:07.000Z</time>
      </trkpt>
      <trkpt lat="50.925308503210544586181640625" lon="12.0680960454046726226806640625">
        <ele>231.1999969482421875</ele>
        <time>2018-08-18T07:32:12.000Z</time>
      </trkpt>
      <trkpt lat="50.9254052303731441497802734375" lon="12.0684319920837879180908203125">
        <ele>232.399993896484375</ele>
        <time>2018-08-18T07:32:18.000Z</time>
      </trkpt>
      <trkpt lat="50.92545577324926853179931640625" lon="12.06872309558093547821044921875">
        <ele>233.8000030517578125</ele>
        <time>2018-08-18T07:32:23.000Z</time>
      </trkpt>
      <trkpt lat="50.92548720538616180419921875" lon="12.0689017139375209808349609375">
        <ele>235</ele>
        <time>2018-08-18T07:32:26.000Z</time>
      </trkpt>
      <trkpt lat="50.925535149872303009033203125" lon="12.06914386712014675140380859375">
        <ele>235.8000030517578125</ele>
        <time>2018-08-18T07:32:30.000Z</time>
      </trkpt>
      <trkpt lat="50.925588794052600860595703125" lon="12.06943086348474025726318359375">
        <ele>237</ele>
        <time>2018-08-18T07:32:35.000Z</time>
      </trkpt>
      <trkpt lat="50.925635062158107757568359375" lon="12.06966455094516277313232421875">
        <ele>238.1999969482421875</ele>
        <time>2018-08-18T07:32:39.000Z</time>
      </trkpt>
      <trkpt lat="50.92567722313106060028076171875" lon="12.06990963779389858245849609375">
        <ele>239.399993896484375</ele>
        <time>2018-08-18T07:32:43.000Z</time>
      </trkpt>
      <trkpt lat="50.9257237426936626434326171875" lon="12.07015036605298519134521484375">
        <ele>240.399993896484375</ele>
        <time>2018-08-18T07:32:47.000Z</time>
      </trkpt>
      <trkpt lat="50.9257327951490879058837890625" lon="12.07021272741258144378662109375">
        <ele>240.8000030517578125</ele>
        <time>2018-08-18T07:32:48.000Z</time>
      </trkpt>
      <trkpt lat="50.92577177099883556365966796875" lon="12.0704515278339385986328125">
        <ele>241.600006103515625</ele>
        <time>2018-08-18T07:32:52.000Z</time>
      </trkpt>
      <trkpt lat="50.92583295889198780059814453125" lon="12.07074414007365703582763671875">
        <ele>243.1999969482421875</ele>
        <time>2018-08-18T07:32:57.000Z</time>
      </trkpt>
      <trkpt lat="50.92587604187428951263427734375" lon="12.0709718763828277587890625">
        <ele>244.1999969482421875</ele>
        <time>2018-08-18T07:33:01.000Z</time>
      </trkpt>
      <trkpt lat="50.92595114372670650482177734375" lon="12.07125342451035976409912109375">
        <ele>245.1999969482421875</ele>
        <time>2018-08-18T07:33:06.000Z</time>
      </trkpt>
      <trkpt lat="50.92600495554506778717041015625" lon="12.07148644141852855682373046875">
        <ele>246.399993896484375</ele>
        <time>2018-08-18T07:33:10.000Z</time>
      </trkpt>
      <trkpt lat="50.92606765218079090118408203125" lon="12.07170881330966949462890625">
        <ele>247.399993896484375</ele>
        <time>2018-08-18T07:33:14.000Z</time>
      </trkpt>
      <trkpt lat="50.92614225111901760101318359375" lon="12.07192649133503437042236328125">
        <ele>248.399993896484375</ele>
        <time>2018-08-18T07:33:18.000Z</time>
      </trkpt>
      <trkpt lat="50.9262202866375446319580078125" lon="12.07215079106390476226806640625">
        <ele>249.600006103515625</ele>
        <time>2018-08-18T07:33:22.000Z</time>
      </trkpt>
      <trkpt lat="50.92629379592835903167724609375" lon="12.07237458787858486175537109375">
        <ele>250.8000030517578125</ele>
        <time>2018-08-18T07:33:26.000Z</time>
      </trkpt>
      <trkpt lat="50.92636336572468280792236328125" lon="12.0725838840007781982421875">
        <ele>252</ele>
        <time>2018-08-18T07:33:30.000Z</time>
      </trkpt>
      <trkpt lat="50.92645070515573024749755859375" lon="12.07284875214099884033203125">
        <ele>253</ele>
        <time>2018-08-18T07:33:35.000Z</time>
      </trkpt>
      <trkpt lat="50.9265505336225032806396484375" lon="12.07313331775367259979248046875">
        <ele>254.1999969482421875</ele>
        <time>2018-08-18T07:33:40.000Z</time>
      </trkpt>
      <trkpt lat="50.926610715687274932861328125" lon="12.0733417756855487823486328125">
        <ele>255.399993896484375</ele>
        <time>2018-08-18T07:33:44.000Z</time>
      </trkpt>
      <trkpt lat="50.92670534737408161163330078125" lon="12.0736009441316127777099609375">
        <ele>256.600006103515625</ele>
        <time>2018-08-18T07:33:49.000Z</time>
      </trkpt>
      <trkpt lat="50.92677542008459568023681640625" lon="12.073781155049800872802734375">
        <ele>257.600006103515625</ele>
        <time>2018-08-18T07:33:52.000Z</time>
      </trkpt>
      <trkpt lat="50.92685957439243793487548828125" lon="12.074047029018402099609375">
        <ele>258.79998779296875</ele>
        <time>2018-08-18T07:33:57.000Z</time>
      </trkpt>
      <trkpt lat="50.926953367888927459716796875" lon="12.07434676587581634521484375">
        <ele>260</ele>
        <time>2018-08-18T07:34:02.000Z</time>
      </trkpt>
      <trkpt lat="50.92702318914234638214111328125" lon="12.07457877695560455322265625">
        <ele>261</ele>
        <time>2018-08-18T07:34:06.000Z</time>
      </trkpt>
      <trkpt lat="50.9271272085607051849365234375" lon="12.07486753351986408233642578125">
        <ele>262.399993896484375</ele>
        <time>2018-08-18T07:34:11.000Z</time>
      </trkpt>
      <trkpt lat="50.927224941551685333251953125" lon="12.07516777329146862030029296875">
        <ele>263.600006103515625</ele>
        <time>2018-08-18T07:34:16.000Z</time>
      </trkpt>
      <trkpt lat="50.9272908233106136322021484375" lon="12.0753329806029796600341796875">
        <ele>264.399993896484375</ele>
        <time>2018-08-18T07:34:19.000Z</time>
      </trkpt>
      <trkpt lat="50.92736885882914066314697265625" lon="12.07556641660630702972412109375">
        <ele>265.600006103515625</ele>
        <time>2018-08-18T07:34:23.000Z</time>
      </trkpt>
      <trkpt lat="50.92744295485317707061767578125" lon="12.0757896266877651214599609375">
        <ele>266.600006103515625</ele>
        <time>2018-08-18T07:34:27.000Z</time>
      </trkpt>
      <trkpt lat="50.9275181405246257781982421875" lon="12.0760223083198070526123046875">
        <ele>267.600006103515625</ele>
        <time>2018-08-18T07:34:31.000Z</time>
      </trkpt>
      <trkpt lat="50.9276076592504978179931640625" lon="12.07630419172346591949462890625">
        <ele>269</ele>
        <time>2018-08-18T07:34:36.000Z</time>
      </trkpt>
      <trkpt lat="50.9276824258267879486083984375" lon="12.07652798853814601898193359375">
        <ele>270</ele>
        <time>2018-08-18T07:34:40.000Z</time>
      </trkpt>
      <trkpt lat="50.92776297591626644134521484375" lon="12.07675497047603130340576171875">
        <ele>271.20001220703125</ele>
        <time>2018-08-18T07:34:44.000Z</time>
      </trkpt>
      <trkpt lat="50.92784713022410869598388671875" lon="12.07698899321258068084716796875">
        <ele>272.20001220703125</ele>
        <time>2018-08-18T07:34:48.000Z</time>
      </trkpt>
      <trkpt lat="50.9279295243322849273681640625" lon="12.07721396349370479583740234375">
        <ele>273.79998779296875</ele>
        <time>2018-08-18T07:34:52.000Z</time>
      </trkpt>
      <trkpt lat="50.92797135002911090850830078125" lon="12.0773305557668209075927734375">
        <ele>274.20001220703125</ele>
        <time>2018-08-18T07:34:54.000Z</time>
      </trkpt>
      <trkpt lat="50.9280239045619964599609375" lon="12.0775062404572963714599609375">
        <ele>274.600006103515625</ele>
        <time>2018-08-18T07:34:57.000Z</time>
      </trkpt>
      <trkpt lat="50.92813312076032161712646484375" lon="12.0777825079858303070068359375">
        <ele>276</ele>
        <time>2018-08-18T07:35:02.000Z</time>
      </trkpt>
      <trkpt lat="50.928233452141284942626953125" lon="12.077987529337406158447265625">
        <ele>277</ele>
        <time>2018-08-18T07:35:06.000Z</time>
      </trkpt>
      <trkpt lat="50.92834820039570331573486328125" lon="12.07816966809332370758056640625">
        <ele>278.399993896484375</ele>
        <time>2018-08-18T07:35:10.000Z</time>
      </trkpt>
      <trkpt lat="50.92846387065947055816650390625" lon="12.0783598534762859344482421875">
        <ele>279.600006103515625</ele>
        <time>2018-08-18T07:35:14.000Z</time>
      </trkpt>
      <trkpt lat="50.928517766296863555908203125" lon="12.078455574810504913330078125">
        <ele>280.20001220703125</ele>
        <time>2018-08-18T07:35:16.000Z</time>
      </trkpt>
      <trkpt lat="50.92860703356564044952392578125" lon="12.07859647460281848907470703125">
        <ele>280.600006103515625</ele>
        <time>2018-08-18T07:35:19.000Z</time>
      </trkpt>
      <trkpt lat="50.92876059003174304962158203125" lon="12.07879923284053802490234375">
        <ele>281.79998779296875</ele>
        <time>2018-08-18T07:35:24.000Z</time>
      </trkpt>
      <trkpt lat="50.92891247011721134185791015625" lon="12.079000733792781829833984375">
        <ele>283.20001220703125</ele>
        <time>2018-08-18T07:35:29.000Z</time>
      </trkpt>
      <trkpt lat="50.9290449880063533782958984375" lon="12.07914481870830059051513671875">
        <ele>284</ele>
        <time>2018-08-18T07:35:33.000Z</time>
      </trkpt>
      <trkpt lat="50.9291844628751277923583984375" lon="12.07929703406989574432373046875">
        <ele>285.20001220703125</ele>
        <time>2018-08-18T07:35:37.000Z</time>
      </trkpt>
      <trkpt lat="50.9293728880584239959716796875" lon="12.0794893987476825714111328125">
        <ele>286.600006103515625</ele>
        <time>2018-08-18T07:35:42.000Z</time>
      </trkpt>
      <trkpt lat="50.92952652834355831146240234375" lon="12.0796461403369903564453125">
        <ele>287.600006103515625</ele>
        <time>2018-08-18T07:35:46.000Z</time>
      </trkpt>
      <trkpt lat="50.92971998266875743865966796875" lon="12.0798437856137752532958984375">
        <ele>288.79998779296875</ele>
        <time>2018-08-18T07:35:51.000Z</time>
      </trkpt>
      <trkpt lat="50.92991109006106853485107421875" lon="12.0800431072711944580078125">
        <ele>289.79998779296875</ele>
        <time>2018-08-18T07:35:56.000Z</time>
      </trkpt>
      <trkpt lat="50.93009498901665210723876953125" lon="12.0802523195743560791015625">
        <ele>291</ele>
        <time>2018-08-18T07:36:01.000Z</time>
      </trkpt>
      <trkpt lat="50.9302375651895999908447265625" lon="12.08042406477034091949462890625">
        <ele>292</ele>
        <time>2018-08-18T07:36:05.000Z</time>
      </trkpt>
      <trkpt lat="50.93043982051312923431396484375" lon="12.080711312592029571533203125">
        <ele>293.20001220703125</ele>
        <time>2018-08-18T07:36:11.000Z</time>
      </trkpt>
      <trkpt lat="50.930673591792583465576171875" lon="12.08109428174793720245361328125">
        <ele>294.399993896484375</ele>
        <time>2018-08-18T07:36:18.000Z</time>
      </trkpt>
      <trkpt lat="50.93094860203564167022705078125" lon="12.08170632831752300262451171875">
        <ele>295.399993896484375</ele>
        <time>2018-08-18T07:36:27.000Z</time>
      </trkpt>
      <trkpt lat="50.931179523468017578125" lon="12.082326672971248626708984375">
        <ele>296.399993896484375</ele>
        <time>2018-08-18T07:36:35.000Z</time>
      </trkpt>
      <trkpt lat="50.9313791804015636444091796875" lon="12.083119936287403106689453125">
        <ele>297</ele>
        <time>2018-08-18T07:36:44.000Z</time>
      </trkpt>
      <trkpt lat="50.931566096842288970947265625" lon="12.08401076495647430419921875">
        <ele>297.20001220703125</ele>
        <time>2018-08-18T07:36:53.000Z</time>
      </trkpt>
      <trkpt lat="50.9317360818386077880859375" lon="12.08483462221920490264892578125">
        <ele>297.399993896484375</ele>
        <time>2018-08-18T07:37:01.000Z</time>
      </trkpt>
      <trkpt lat="50.93186281621456146240234375" lon="12.0854516141116619110107421875">
        <ele>297.399993896484375</ele>
        <time>2018-08-18T07:37:07.000Z</time>
      </trkpt>
      <trkpt lat="50.93203313648700714111328125" lon="12.0862703584134578704833984375">
        <ele>297.600006103515625</ele>
        <time>2018-08-18T07:37:15.000Z</time>
      </trkpt>
      <trkpt lat="50.93220613896846771240234375" lon="12.08711349405348300933837890625">
        <ele>297.79998779296875</ele>
        <time>2018-08-18T07:37:23.000Z</time>
      </trkpt>
      <trkpt lat="50.9323457814753055572509765625" lon="12.087899632751941680908203125">
        <ele>298.20001220703125</ele>
        <time>2018-08-18T07:37:31.000Z</time>
      </trkpt>
      <trkpt lat="50.9323464520275592803955078125" lon="12.0880858786404132843017578125">
        <ele>298.600006103515625</ele>
        <time>2018-08-18T07:37:33.000Z</time>
      </trkpt>
      <trkpt lat="50.93234184198081493377685546875" lon="12.08827254362404346466064453125">
        <ele>299.20001220703125</ele>
        <time>2018-08-18T07:37:35.000Z</time>
      </trkpt>
      <trkpt lat="50.9323878586292266845703125" lon="12.0884263515472412109375">
        <ele>299.600006103515625</ele>
        <time>2018-08-18T07:37:37.000Z</time>
      </trkpt>
      <trkpt lat="50.93259028159081935882568359375" lon="12.0884141139686107635498046875">
        <ele>300.399993896484375</ele>
        <time>2018-08-18T07:37:41.000Z</time>
      </trkpt>
      <trkpt lat="50.93265079893171787261962890625" lon="12.08837966434657573699951171875">
        <ele>300.79998779296875</ele>
        <time>2018-08-18T07:37:42.000Z</time>
      </trkpt>
      <trkpt lat="50.9329794533550739288330078125" lon="12.088401205837726593017578125">
        <ele>301.79998779296875</ele>
        <time>2018-08-18T07:37:47.000Z</time>
      </trkpt>
      <trkpt lat="50.93353022821247577667236328125" lon="12.0883391797542572021484375">
        <ele>302.399993896484375</ele>
        <time>2018-08-18T07:37:56.000Z</time>
      </trkpt>
      <trkpt lat="50.9340473078191280364990234375" lon="12.08825728856027126312255859375">
        <ele>302.79998779296875</ele>
        <time>2018-08-18T07:38:04.000Z</time>
      </trkpt>
      <trkpt lat="50.93461836688220500946044921875" lon="12.0881579630076885223388671875">
        <ele>302.399993896484375</ele>
        <time>2018-08-18T07:38:12.000Z</time>
      </trkpt>
      <trkpt lat="50.9351131506264209747314453125" lon="12.08807255141437053680419921875">
        <ele>301.600006103515625</ele>
        <time>2018-08-18T07:38:18.000Z</time>
      </trkpt>
      <trkpt lat="50.93538128770887851715087890625" lon="12.0880077593028545379638671875">
        <ele>300.600006103515625</ele>
        <time>2018-08-18T07:38:21.000Z</time>
      </trkpt>
      <trkpt lat="50.93565789051353931427001953125" lon="12.0879252813756465911865234375">
        <ele>299.399993896484375</ele>
        <time>2018-08-18T07:38:24.000Z</time>
      </trkpt>
      <trkpt lat="50.93593843281269073486328125" lon="12.08784322254359722137451171875">
        <ele>298</ele>
        <time>2018-08-18T07:38:27.000Z</time>
      </trkpt>
      <trkpt lat="50.93622433952987194061279296875" lon="12.08775605075061321258544921875">
        <ele>296.79998779296875</ele>
        <time>2018-08-18T07:38:30.000Z</time>
      </trkpt>
      <trkpt lat="50.93651049770414829254150390625" lon="12.0876694656908512115478515625">
        <ele>295.79998779296875</ele>
        <time>2018-08-18T07:38:33.000Z</time>
      </trkpt>
      <trkpt lat="50.93679632060229778289794921875" lon="12.0875913463532924652099609375">
        <ele>294.79998779296875</ele>
        <time>2018-08-18T07:38:36.000Z</time>
      </trkpt>
      <trkpt lat="50.93708549626171588897705078125" lon="12.0875075273215770721435546875">
        <ele>293.600006103515625</ele>
        <time>2018-08-18T07:38:39.000Z</time>
      </trkpt>
      <trkpt lat="50.93737282790243625640869140625" lon="12.0874206908047199249267578125">
        <ele>292.399993896484375</ele>
        <time>2018-08-18T07:38:42.000Z</time>
      </trkpt>
      <trkpt lat="50.93765915371477603912353515625" lon="12.08732907660305500030517578125">
        <ele>291.20001220703125</ele>
        <time>2018-08-18T07:38:45.000Z</time>
      </trkpt>
      <trkpt lat="50.9378506802022457122802734375" lon="12.08726118318736553192138671875">
        <ele>290</ele>
        <time>2018-08-18T07:38:47.000Z</time>
      </trkpt>
      <trkpt lat="50.938134826719760894775390625" lon="12.08714467473328113555908203125">
        <ele>289</ele>
        <time>2018-08-18T07:38:50.000Z</time>
      </trkpt>
      <trkpt lat="50.93840631656348705291748046875" lon="12.08700989373028278350830078125">
        <ele>287.79998779296875</ele>
        <time>2018-08-18T07:38:53.000Z</time>
      </trkpt>
      <trkpt lat="50.9386647306382656097412109375" lon="12.086842171847820281982421875">
        <ele>286.600006103515625</ele>
        <time>2018-08-18T07:38:56.000Z</time>
      </trkpt>
      <trkpt lat="50.939081646502017974853515625" lon="12.08653564564883708953857421875">
        <ele>285.600006103515625</ele>
        <time>2018-08-18T07:39:01.000Z</time>
      </trkpt>
      <trkpt lat="50.9394918568432331085205078125" lon="12.0862549357116222381591796875">
        <ele>284.600006103515625</ele>
        <time>2018-08-18T07:39:06.000Z</time>
      </trkpt>
      <trkpt lat="50.94001899473369121551513671875" lon="12.08602912724018096923828125">
        <ele>283.600006103515625</ele>
        <time>2018-08-18T07:39:12.000Z</time>
      </trkpt>
      <trkpt lat="50.94011119566857814788818359375" lon="12.08600959740579128265380859375">
        <ele>283.20001220703125</ele>
        <time>2018-08-18T07:39:13.000Z</time>
      </trkpt>
      <trkpt lat="50.9406750462949275970458984375" lon="12.08603926934301853179931640625">
        <ele>282.20001220703125</ele>
        <time>2018-08-18T07:39:19.000Z</time>
      </trkpt>
      <trkpt lat="50.9411444328725337982177734375" lon="12.0861570350825786590576171875">
        <ele>281</ele>
        <time>2018-08-18T07:39:24.000Z</time>
      </trkpt>
      <trkpt lat="50.941527821123600006103515625" lon="12.086230628192424774169921875">
        <ele>280</ele>
        <time>2018-08-18T07:39:28.000Z</time>
      </trkpt>
      <trkpt lat="50.94191196374595165252685546875" lon="12.0862489007413387298583984375">
        <ele>278.79998779296875</ele>
        <time>2018-08-18T07:39:32.000Z</time>
      </trkpt>
      <trkpt lat="50.94221002422273159027099609375" lon="12.086211182177066802978515625">
        <ele>277.399993896484375</ele>
        <time>2018-08-18T07:39:35.000Z</time>
      </trkpt>
      <trkpt lat="50.9425183944404125213623046875" lon="12.08612392656505107879638671875">
        <ele>276.20001220703125</ele>
        <time>2018-08-18T07:39:38.000Z</time>
      </trkpt>
      <trkpt lat="50.9428245015442371368408203125" lon="12.0860148780047893524169921875">
        <ele>275</ele>
        <time>2018-08-18T07:39:41.000Z</time>
      </trkpt>
      <trkpt lat="50.94311912544071674346923828125" lon="12.08588940091431140899658203125">
        <ele>273.79998779296875</ele>
        <time>2018-08-18T07:39:44.000Z</time>
      </trkpt>
      <trkpt lat="50.94330972991883754730224609375" lon="12.0858026482164859771728515625">
        <ele>272.79998779296875</ele>
        <time>2018-08-18T07:39:46.000Z</time>
      </trkpt>
      <trkpt lat="50.94350016675889492034912109375" lon="12.0857148058712482452392578125">
        <ele>271.600006103515625</ele>
        <time>2018-08-18T07:39:48.000Z</time>
      </trkpt>
      <trkpt lat="50.9437894262373447418212890625" lon="12.085583209991455078125">
        <ele>270.20001220703125</ele>
        <time>2018-08-18T07:39:51.000Z</time>
      </trkpt>
      <trkpt lat="50.9442772530019283294677734375" lon="12.08537123166024684906005859375">
        <ele>269</ele>
        <time>2018-08-18T07:39:56.000Z</time>
      </trkpt>
      <trkpt lat="50.94467145390808582305908203125" lon="12.085205018520355224609375">
        <ele>267.79998779296875</ele>
        <time>2018-08-18T07:40:00.000Z</time>
      </trkpt>
      <trkpt lat="50.9450638107955455780029296875" lon="12.08514860831201076507568359375">
        <ele>266.79998779296875</ele>
        <time>2018-08-18T07:40:04.000Z</time>
      </trkpt>
      <trkpt lat="50.94515441916882991790771484375" lon="12.08515766076743602752685546875">
        <ele>266.399993896484375</ele>
        <time>2018-08-18T07:40:05.000Z</time>
      </trkpt>
      <trkpt lat="50.9452383220195770263671875" lon="12.08517492748796939849853515625">
        <ele>266.20001220703125</ele>
        <time>2018-08-18T07:40:06.000Z</time>
      </trkpt>
      <trkpt lat="50.94581164419651031494140625" lon="12.08531876094639301300048828125">
        <ele>265.399993896484375</ele>
        <time>2018-08-18T07:40:14.000Z</time>
      </trkpt>
      <trkpt lat="50.946004427969455718994140625" lon="12.0853404700756072998046875">
        <ele>266.20001220703125</ele>
        <time>2018-08-18T07:40:17.000Z</time>
      </trkpt>
      <trkpt lat="50.94634280540049076080322265625" lon="12.08533803932368755340576171875">
        <ele>267.399993896484375</ele>
        <time>2018-08-18T07:40:22.000Z</time>
      </trkpt>
      <trkpt lat="50.94641556032001972198486328125" lon="12.085346169769763946533203125">
        <ele>267.600006103515625</ele>
        <time>2018-08-18T07:40:23.000Z</time>
      </trkpt>
      <trkpt lat="50.94670272432267665863037109375" lon="12.08555429242551326751708984375">
        <ele>268</ele>
        <time>2018-08-18T07:40:27.000Z</time>
      </trkpt>
      <trkpt lat="50.9471388347446918487548828125" lon="12.08602820523083209991455078125">
        <ele>268</ele>
        <time>2018-08-18T07:40:33.000Z</time>
      </trkpt>
      <trkpt lat="50.94763420522212982177734375" lon="12.0862616412341594696044921875">
        <ele>266.20001220703125</ele>
        <time>2018-08-18T07:40:39.000Z</time>
      </trkpt>
      <trkpt lat="50.94818615354597568511962890625" lon="12.0864802412688732147216796875">
        <ele>265.399993896484375</ele>
        <time>2018-08-18T07:40:46.000Z</time>
      </trkpt>
      <trkpt lat="50.9485124610364437103271484375" lon="12.08654419519007205963134765625">
        <ele>265.20001220703125</ele>
        <time>2018-08-18T07:40:50.000Z</time>
      </trkpt>
      <trkpt lat="50.94912610016763210296630859375" lon="12.08661309443414211273193359375">
        <ele>265</ele>
        <time>2018-08-18T07:40:57.000Z</time>
      </trkpt>
      <trkpt lat="50.94948048703372478485107421875" lon="12.08665366284549236297607421875">
        <ele>264.20001220703125</ele>
        <time>2018-08-18T07:41:01.000Z</time>
      </trkpt>
      <trkpt lat="50.95007627271115779876708984375" lon="12.08679984323680400848388671875">
        <ele>263.399993896484375</ele>
        <time>2018-08-18T07:41:08.000Z</time>
      </trkpt>
      <trkpt lat="50.95033225603401660919189453125" lon="12.086884416639804840087890625">
        <ele>263.20001220703125</ele>
        <time>2018-08-18T07:41:11.000Z</time>
      </trkpt>
      <trkpt lat="50.95087490044534206390380859375" lon="12.08705599419772624969482421875">
        <ele>263</ele>
        <time>2018-08-18T07:41:17.000Z</time>
      </trkpt>
      <trkpt lat="50.95144051127135753631591796875" lon="12.0872386358678340911865234375">
        <ele>262</ele>
        <time>2018-08-18T07:41:23.000Z</time>
      </trkpt>
      <trkpt lat="50.95202020369470119476318359375" lon="12.0874183438718318939208984375">
        <ele>261</ele>
        <time>2018-08-18T07:41:29.000Z</time>
      </trkpt>
      <trkpt lat="50.95211642794311046600341796875" lon="12.08744927309453487396240234375">
        <ele>260.79998779296875</ele>
        <time>2018-08-18T07:41:30.000Z</time>
      </trkpt>
      <trkpt lat="50.9524990618228912353515625" lon="12.08756896667182445526123046875">
        <ele>259.600006103515625</ele>
        <time>2018-08-18T07:41:34.000Z</time>
      </trkpt>
      <trkpt lat="50.9528794325888156890869140625" lon="12.0876889117062091827392578125">
        <ele>258.399993896484375</ele>
        <time>2018-08-18T07:41:38.000Z</time>
      </trkpt>
      <trkpt lat="50.9534738771617412567138671875" lon="12.08786954171955585479736328125">
        <ele>257.600006103515625</ele>
        <time>2018-08-18T07:41:44.000Z</time>
      </trkpt>
      <trkpt lat="50.9536797367036342620849609375" lon="12.08793307654559612274169921875">
        <ele>257.20001220703125</ele>
        <time>2018-08-18T07:41:46.000Z</time>
      </trkpt>
      <trkpt lat="50.95431500114500522613525390625" lon="12.08813491277396678924560546875">
        <ele>256.20001220703125</ele>
        <time>2018-08-18T07:41:52.000Z</time>
      </trkpt>
      <trkpt lat="50.95464072190225124359130859375" lon="12.08823214285075664520263671875">
        <ele>255</ele>
        <time>2018-08-18T07:41:55.000Z</time>
      </trkpt>
      <trkpt lat="50.954962670803070068359375" lon="12.08833389915525913238525390625">
        <ele>253.8000030517578125</ele>
        <time>2018-08-18T07:41:58.000Z</time>
      </trkpt>
      <trkpt lat="50.95528260804712772369384765625" lon="12.08842962048947811126708984375">
        <ele>252.399993896484375</ele>
        <time>2018-08-18T07:42:01.000Z</time>
      </trkpt>
      <trkpt lat="50.95559575594961643218994140625" lon="12.08852198906242847442626953125">
        <ele>251.399993896484375</ele>
        <time>2018-08-18T07:42:04.000Z</time>
      </trkpt>
      <trkpt lat="50.9558949060738086700439453125" lon="12.0886142738163471221923828125">
        <ele>250.1999969482421875</ele>
        <time>2018-08-18T07:42:07.000Z</time>
      </trkpt>
      <trkpt lat="50.95627971924841403961181640625" lon="12.08873254247009754180908203125">
        <ele>249.1999969482421875</ele>
        <time>2018-08-18T07:42:11.000Z</time>
      </trkpt>
      <trkpt lat="50.956754721701145172119140625" lon="12.08888308145105838775634765625">
        <ele>248</ele>
        <time>2018-08-18T07:42:16.000Z</time>
      </trkpt>
      <trkpt lat="50.957030989229679107666015625" lon="12.08895114250481128692626953125">
        <ele>247.8000030517578125</ele>
        <time>2018-08-18T07:42:19.000Z</time>
      </trkpt>
      <trkpt lat="50.95755569636821746826171875" lon="12.0887731947004795074462890625">
        <ele>247</ele>
        <time>2018-08-18T07:42:25.000Z</time>
      </trkpt>
      <trkpt lat="50.95788971520960330963134765625" lon="12.08888928405940532684326171875">
        <ele>246.600006103515625</ele>
        <time>2018-08-18T07:42:29.000Z</time>
      </trkpt>
      <trkpt lat="50.95812256447970867156982421875" lon="12.08902222104370594024658203125">
        <ele>246.399993896484375</ele>
        <time>2018-08-18T07:42:32.000Z</time>
      </trkpt>
      <trkpt lat="50.9585948847234249114990234375" lon="12.08923495374619960784912109375">
        <ele>246.1999969482421875</ele>
        <time>2018-08-18T07:42:38.000Z</time>
      </trkpt>
      <trkpt lat="50.95885598100721836090087890625" lon="12.0895171724259853363037109375">
        <ele>246.1999969482421875</ele>
        <time>2018-08-18T07:42:42.000Z</time>
      </trkpt>
      <trkpt lat="50.95903401263058185577392578125" lon="12.08972026593983173370361328125">
        <ele>246.1999969482421875</ele>
        <time>2018-08-18T07:42:45.000Z</time>
      </trkpt>
      <trkpt lat="50.95936241559684276580810546875" lon="12.089832834899425506591796875">
        <ele>246.399993896484375</ele>
        <time>2018-08-18T07:42:50.000Z</time>
      </trkpt>
      <trkpt lat="50.9597589634358882904052734375" lon="12.08981900475919246673583984375">
        <ele>247.1999969482421875</ele>
        <time>2018-08-18T07:42:56.000Z</time>
      </trkpt>
      <trkpt lat="50.9603242389857769012451171875" lon="12.0899681188166141510009765625">
        <ele>247.600006103515625</ele>
        <time>2018-08-18T07:43:04.000Z</time>
      </trkpt>
      <trkpt lat="50.96039607189595699310302734375" lon="12.0900143869221210479736328125">
        <ele>247.600006103515625</ele>
        <time>2018-08-18T07:43:05.000Z</time>
      </trkpt>
      <trkpt lat="50.96071760170161724090576171875" lon="12.09020138718187808990478515625">
        <ele>247.600006103515625</ele>
        <time>2018-08-18T07:43:10.000Z</time>
      </trkpt>
      <trkpt lat="50.960959084331989288330078125" lon="12.09007951430976390838623046875">
        <ele>247.8000030517578125</ele>
        <time>2018-08-18T07:43:14.000Z</time>
      </trkpt>
      <trkpt lat="50.9610162489116191864013671875" lon="12.09003374911844730377197265625">
        <ele>248</ele>
        <time>2018-08-18T07:43:15.000Z</time>
      </trkpt>
      <trkpt lat="50.96151287667453289031982421875" lon="12.08963694982230663299560546875">
        <ele>249</ele>
        <time>2018-08-18T07:43:23.000Z</time>
      </trkpt>
      <trkpt lat="50.962032638490200042724609375" lon="12.089265547692775726318359375">
        <ele>249</ele>
        <time>2018-08-18T07:43:30.000Z</time>
      </trkpt>
      <trkpt lat="50.96256363205611705780029296875" lon="12.08886933512985706329345703125">
        <ele>247.600006103515625</ele>
        <time>2018-08-18T07:43:37.000Z</time>
      </trkpt>
      <trkpt lat="50.9631556458771228790283203125" lon="12.088662721216678619384765625">
        <ele>247</ele>
        <time>2018-08-18T07:43:44.000Z</time>
      </trkpt>
      <trkpt lat="50.96343015320599079132080078125" lon="12.0885431952774524688720703125">
        <ele>246.600006103515625</ele>
        <time>2018-08-18T07:43:47.000Z</time>
      </trkpt>
      <trkpt lat="50.96385746262967586517333984375" lon="12.0881475694477558135986328125">
        <ele>245.8000030517578125</ele>
        <time>2018-08-18T07:43:52.000Z</time>
      </trkpt>
      <trkpt lat="50.96407053060829639434814453125" lon="12.0878572203218936920166015625">
        <ele>244.600006103515625</ele>
        <time>2018-08-18T07:43:55.000Z</time>
      </trkpt>
      <trkpt lat="50.96453472040593624114990234375" lon="12.08735304884612560272216796875">
        <ele>243.8000030517578125</ele>
        <time>2018-08-18T07:44:03.000Z</time>
      </trkpt>
      <trkpt lat="50.96461049281060695648193359375" lon="12.087277360260486602783203125">
        <ele>243.8000030517578125</ele>
        <time>2018-08-18T07:44:05.000Z</time>
      </trkpt>
      <trkpt lat="50.9645607881247997283935546875" lon="12.0870763622224330902099609375">
        <ele>244.8000030517578125</ele>
        <time>2018-08-18T07:44:09.000Z</time>
      </trkpt>
      <trkpt lat="50.96453924663364887237548828125" lon="12.087021209299564361572265625">
        <ele>245.1999969482421875</ele>
        <time>2018-08-18T07:44:10.000Z</time>
      </trkpt>
      <trkpt lat="50.96449566073715686798095703125" lon="12.086905203759670257568359375">
        <ele>245.8000030517578125</ele>
        <time>2018-08-18T07:44:12.000Z</time>
      </trkpt>
      <trkpt lat="50.96443313173949718475341796875" lon="12.08670462481677532196044921875">
        <ele>246.399993896484375</ele>
        <time>2018-08-18T07:44:15.000Z</time>
      </trkpt>
      <trkpt lat="50.96442843787372112274169921875" lon="12.0863602124154567718505859375">
        <ele>247.1999969482421875</ele>
        <time>2018-08-18T07:44:20.000Z</time>
      </trkpt>
      <trkpt lat="50.9645708464086055755615234375" lon="12.0862086676061153411865234375">
        <ele>247.399993896484375</ele>
        <time>2018-08-18T07:44:26.000Z</time>
      </trkpt>
      <trkpt lat="50.964647792279720306396484375" lon="12.0862193964421749114990234375">
        <ele>248</ele>
        <time>2018-08-18T07:44:28.000Z</time>
      </trkpt>
      <trkpt lat="50.96491106785833835601806640625" lon="12.0863286964595317840576171875">
        <ele>248.399993896484375</ele>
        <time>2018-08-18T07:44:34.000Z</time>
      </trkpt>
      <trkpt lat="50.9654351882636547088623046875" lon="12.086588703095912933349609375">
        <ele>247.8000030517578125</ele>
        <time>2018-08-18T07:44:42.000Z</time>
      </trkpt>
      <trkpt lat="50.965664349496364593505859375" lon="12.086650393903255462646484375">
        <ele>246.8000030517578125</ele>
        <time>2018-08-18T07:44:45.000Z</time>
      </trkpt>
      <trkpt lat="50.965911783277988433837890625" lon="12.086658775806427001953125">
        <ele>245.600006103515625</ele>
        <time>2018-08-18T07:44:48.000Z</time>
      </trkpt>
      <trkpt lat="50.966170616447925567626953125" lon="12.0867296867072582244873046875">
        <ele>244.399993896484375</ele>
        <time>2018-08-18T07:44:51.000Z</time>
      </trkpt>
      <trkpt lat="50.9664250910282135009765625" lon="12.08678022958338260650634765625">
        <ele>243.8000030517578125</ele>
        <time>2018-08-18T07:44:54.000Z</time>
      </trkpt>
      <trkpt lat="50.96650547347962856292724609375" lon="12.08676447160542011260986328125">
        <ele>243.399993896484375</ele>
        <time>2018-08-18T07:44:55.000Z</time>
      </trkpt>
      <trkpt lat="50.96671502105891704559326171875" lon="12.08663237281143665313720703125">
        <ele>242.1999969482421875</ele>
        <time>2018-08-18T07:44:58.000Z</time>
      </trkpt>
      <trkpt lat="50.966917611658573150634765625" lon="12.08653313107788562774658203125">
        <ele>241</ele>
        <time>2018-08-18T07:45:01.000Z</time>
      </trkpt>
      <trkpt lat="50.9672238864004611968994140625" lon="12.0863900519907474517822265625">
        <ele>240.1999969482421875</ele>
        <time>2018-08-18T07:45:06.000Z</time>
      </trkpt>
      <trkpt lat="50.967772565782070159912109375" lon="12.08637806586921215057373046875">
        <ele>240.600006103515625</ele>
        <time>2018-08-18T07:45:15.000Z</time>
      </trkpt>
      <trkpt lat="50.96794380806386470794677734375" lon="12.0863598771393299102783203125">
        <ele>240.8000030517578125</ele>
        <time>2018-08-18T07:45:18.000Z</time>
      </trkpt>
      <trkpt lat="50.96847371198236942291259765625" lon="12.08637714385986328125">
        <ele>242</ele>
        <time>2018-08-18T07:45:28.000Z</time>
      </trkpt>
      <trkpt lat="50.9687768854200839996337890625" lon="12.0862344838678836822509765625">
        <ele>243.1999969482421875</ele>
        <time>2018-08-18T07:45:34.000Z</time>
      </trkpt>
      <trkpt lat="50.96922137774527072906494140625" lon="12.08608319051563739776611328125">
        <ele>243.8000030517578125</ele>
        <time>2018-08-18T07:45:41.000Z</time>
      </trkpt>
      <trkpt lat="50.96971406601369380950927734375" lon="12.085907757282257080078125">
        <ele>243.399993896484375</ele>
        <time>2018-08-18T07:45:47.000Z</time>
      </trkpt>
      <trkpt lat="50.97006996162235736846923828125" lon="12.085733748972415924072265625">
        <ele>242.1999969482421875</ele>
        <time>2018-08-18T07:45:51.000Z</time>
      </trkpt>
      <trkpt lat="50.9703464806079864501953125" lon="12.0856462419033050537109375">
        <ele>240.8000030517578125</ele>
        <time>2018-08-18T07:45:54.000Z</time>
      </trkpt>
      <trkpt lat="50.9705333970487117767333984375" lon="12.0856504328548908233642578125">
        <ele>239.600006103515625</ele>
        <time>2018-08-18T07:45:56.000Z</time>
      </trkpt>
      <trkpt lat="50.97080606035888195037841796875" lon="12.08567951805889606475830078125">
        <ele>238.399993896484375</ele>
        <time>2018-08-18T07:45:59.000Z</time>
      </trkpt>
      <trkpt lat="50.97106003202497959136962890625" lon="12.08571203984320163726806640625">
        <ele>237.1999969482421875</ele>
        <time>2018-08-18T07:46:02.000Z</time>
      </trkpt>
      <trkpt lat="50.97114301286637783050537109375" lon="12.085732407867908477783203125">
        <ele>237</ele>
        <time>2018-08-18T07:46:03.000Z</time>
      </trkpt>
      <trkpt lat="50.97138809971511363983154296875" lon="12.0858153887093067169189453125">
        <ele>236</ele>
        <time>2018-08-18T07:46:06.000Z</time>
      </trkpt>
      <trkpt lat="50.97193057648837566375732421875" lon="12.085861153900623321533203125">
        <ele>235</ele>
        <time>2018-08-18T07:46:13.000Z</time>
      </trkpt>
      <trkpt lat="50.97214599139988422393798828125" lon="12.08583525381982326507568359375">
        <ele>235</ele>
        <time>2018-08-18T07:46:16.000Z</time>
      </trkpt>
      <trkpt lat="50.97262459807097911834716796875" lon="12.08558999933302402496337890625">
        <ele>236</ele>
        <time>2018-08-18T07:46:25.000Z</time>
      </trkpt>
      <trkpt lat="50.97273440100252628326416015625" lon="12.08550517447292804718017578125">
        <ele>237</ele>
        <time>2018-08-18T07:46:28.000Z</time>
      </trkpt>
      <trkpt lat="50.972838588058948516845703125" lon="12.085414230823516845703125">
        <ele>238</ele>
        <time>2018-08-18T07:46:31.000Z</time>
      </trkpt>
      <trkpt lat="50.9729668311774730682373046875" lon="12.08527634851634502410888671875">
        <ele>239.399993896484375</ele>
        <time>2018-08-18T07:46:35.000Z</time>
      </trkpt>
      <trkpt lat="50.9730528295040130615234375" lon="12.08516336046159267425537109375">
        <ele>240.399993896484375</ele>
        <time>2018-08-18T07:46:38.000Z</time>
      </trkpt>
      <trkpt lat="50.97317780368030071258544921875" lon="12.08499806933104991912841796875">
        <ele>241.8000030517578125</ele>
        <time>2018-08-18T07:46:42.000Z</time>
      </trkpt>
      <trkpt lat="50.973312668502330780029296875" lon="12.08486446179449558258056640625">
        <ele>242.8000030517578125</ele>
        <time>2018-08-18T07:46:46.000Z</time>
      </trkpt>
      <trkpt lat="50.97341719083487987518310546875" lon="12.084788940846920013427734375">
        <ele>244</ele>
        <time>2018-08-18T07:46:49.000Z</time>
      </trkpt>
      <trkpt lat="50.973609387874603271484375" lon="12.08471694029867649078369140625">
        <ele>245.399993896484375</ele>
        <time>2018-08-18T07:46:54.000Z</time>
      </trkpt>
      <trkpt lat="50.973762609064579010009765625" lon="12.08464334718883037567138671875">
        <ele>246.600006103515625</ele>
        <time>2018-08-18T07:46:58.000Z</time>
      </trkpt>
      <trkpt lat="50.9738843142986297607421875" lon="12.0846082270145416259765625">
        <ele>247.600006103515625</ele>
        <time>2018-08-18T07:47:01.000Z</time>
      </trkpt>
      <trkpt lat="50.97407667897641658782958984375" lon="12.084518037736415863037109375">
        <ele>248.600006103515625</ele>
        <time>2018-08-18T07:47:06.000Z</time>
      </trkpt>
      <trkpt lat="50.97411372698843479156494140625" lon="12.084499932825565338134765625">
        <ele>248.8000030517578125</ele>
        <time>2018-08-18T07:47:07.000Z</time>
      </trkpt>
      <trkpt lat="50.97428237088024616241455078125" lon="12.08442491479218006134033203125">
        <ele>250</ele>
        <time>2018-08-18T07:47:12.000Z</time>
      </trkpt>
      <trkpt lat="50.974385552108287811279296875" lon="12.08437864668667316436767578125">
        <ele>251.1999969482421875</ele>
        <time>2018-08-18T07:47:15.000Z</time>
      </trkpt>
      <trkpt lat="50.974489152431488037109375" lon="12.08434394560754299163818359375">
        <ele>252.399993896484375</ele>
        <time>2018-08-18T07:47:18.000Z</time>
      </trkpt>
      <trkpt lat="50.9745942614972591400146484375" lon="12.08431192673742771148681640625">
        <ele>253.399993896484375</ele>
        <time>2018-08-18T07:47:21.000Z</time>
      </trkpt>
      <trkpt lat="50.9747387655079364776611328125" lon="12.08429449237883090972900390625">
        <ele>254.8000030517578125</ele>
        <time>2018-08-18T07:47:25.000Z</time>
      </trkpt>
      <trkpt lat="50.974821411073207855224609375" lon="12.0842905528843402862548828125">
        <ele>255.600006103515625</ele>
        <time>2018-08-18T07:47:27.000Z</time>
      </trkpt>
      <trkpt lat="50.97486575134098529815673828125" lon="12.0842917263507843017578125">
        <ele>256</ele>
        <time>2018-08-18T07:47:28.000Z</time>
      </trkpt>
      <trkpt lat="50.9749959222972393035888671875" lon="12.084290720522403717041015625">
        <ele>257</ele>
        <time>2018-08-18T07:47:31.000Z</time>
      </trkpt>
      <trkpt lat="50.97512760199606418609619140625" lon="12.0842714421451091766357421875">
        <ele>258.20001220703125</ele>
        <time>2018-08-18T07:47:34.000Z</time>
      </trkpt>
      <trkpt lat="50.97530865110456943511962890625" lon="12.084240429103374481201171875">
        <ele>259.399993896484375</ele>
        <time>2018-08-18T07:47:38.000Z</time>
      </trkpt>
      <trkpt lat="50.97553529776632785797119140625" lon="12.084211595356464385986328125">
        <ele>260.20001220703125</ele>
        <time>2018-08-18T07:47:42.000Z</time>
      </trkpt>
      <trkpt lat="50.97566622309386730194091796875" lon="12.0842359028756618499755859375">
        <ele>260.399993896484375</ele>
        <time>2018-08-18T07:47:44.000Z</time>
      </trkpt>
      <trkpt lat="50.97627223469316959381103515625" lon="12.084455676376819610595703125">
        <ele>260.20001220703125</ele>
        <time>2018-08-18T07:47:52.000Z</time>
      </trkpt>
      <trkpt lat="50.97673483192920684814453125" lon="12.084677629172801971435546875">
        <ele>259</ele>
        <time>2018-08-18T07:47:57.000Z</time>
      </trkpt>
      <trkpt lat="50.97694094292819499969482421875" lon="12.08475717343389987945556640625">
        <ele>258.20001220703125</ele>
        <time>2018-08-18T07:47:59.000Z</time>
      </trkpt>
      <trkpt lat="50.9770525060594081878662109375" lon="12.084774188697338104248046875">
        <ele>258</ele>
        <time>2018-08-18T07:48:00.000Z</time>
      </trkpt>
      <trkpt lat="50.97739733755588531494140625" lon="12.08479388616979122161865234375">
        <ele>256.399993896484375</ele>
        <time>2018-08-18T07:48:03.000Z</time>
      </trkpt>
      <trkpt lat="50.97763546742498874664306640625" lon="12.08479975350201129913330078125">
        <ele>255</ele>
        <time>2018-08-18T07:48:05.000Z</time>
      </trkpt>
      <trkpt lat="50.97788910381495952606201171875" lon="12.0848067104816436767578125">
        <ele>253.1999969482421875</ele>
        <time>2018-08-18T07:48:07.000Z</time>
      </trkpt>
      <trkpt lat="50.97815145738422870635986328125" lon="12.08484417758882045745849609375">
        <ele>250.399993896484375</ele>
        <time>2018-08-18T07:48:09.000Z</time>
      </trkpt>
      <trkpt lat="50.97828690893948078155517578125" lon="12.0848823152482509613037109375">
        <ele>249.1999969482421875</ele>
        <time>2018-08-18T07:48:10.000Z</time>
      </trkpt>
      <trkpt lat="50.978419594466686248779296875" lon="12.08493478596210479736328125">
        <ele>248</ele>
        <time>2018-08-18T07:48:11.000Z</time>
      </trkpt>
      <trkpt lat="50.9785459935665130615234375" lon="12.0849971473217010498046875">
        <ele>246.8000030517578125</ele>
        <time>2018-08-18T07:48:12.000Z</time>
      </trkpt>
      <trkpt lat="50.97866627387702465057373046875" lon="12.08506344817578792572021484375">
        <ele>245.600006103515625</ele>
        <time>2018-08-18T07:48:13.000Z</time>
      </trkpt>
      <trkpt lat="50.97878135740756988525390625" lon="12.08513016812503337860107421875">
        <ele>244.399993896484375</ele>
        <time>2018-08-18T07:48:14.000Z</time>
      </trkpt>
      <trkpt lat="50.97889124415814876556396484375" lon="12.08520040847361087799072265625">
        <ele>243</ele>
        <time>2018-08-18T07:48:15.000Z</time>
      </trkpt>
      <trkpt lat="50.9789927490055561065673828125" lon="12.08527986891567707061767578125">
        <ele>241.399993896484375</ele>
        <time>2018-08-18T07:48:16.000Z</time>
      </trkpt>
      <trkpt lat="50.9790836088359355926513671875" lon="12.08536787889897823333740234375">
        <ele>239.600006103515625</ele>
        <time>2018-08-18T07:48:17.000Z</time>
      </trkpt>
      <trkpt lat="50.97915879450738430023193359375" lon="12.085466869175434112548828125">
        <ele>237.8000030517578125</ele>
        <time>2018-08-18T07:48:18.000Z</time>
      </trkpt>
      <trkpt lat="50.979232974350452423095703125" lon="12.08556334488093852996826171875">
        <ele>236</ele>
        <time>2018-08-18T07:48:19.000Z</time>
      </trkpt>
      <trkpt lat="50.97931444644927978515625" lon="12.08564959466457366943359375">
        <ele>234</ele>
        <time>2018-08-18T07:48:20.000Z</time>
      </trkpt>
      <trkpt lat="50.97940522246062755584716796875" lon="12.08571891300380229949951171875">
        <ele>232.399993896484375</ele>
        <time>2018-08-18T07:48:21.000Z</time>
      </trkpt>
      <trkpt lat="50.97950412891805171966552734375" lon="12.0857795141637325286865234375">
        <ele>230.8000030517578125</ele>
        <time>2018-08-18T07:48:22.000Z</time>
      </trkpt>
      <trkpt lat="50.97960236482322216033935546875" lon="12.0858489163219928741455078125">
        <ele>229.1999969482421875</ele>
        <time>2018-08-18T07:48:23.000Z</time>
      </trkpt>
      <trkpt lat="50.979694984853267669677734375" lon="12.08593256771564483642578125">
        <ele>227.8000030517578125</ele>
        <time>2018-08-18T07:48:24.000Z</time>
      </trkpt>
      <trkpt lat="50.9797809831798076629638671875" lon="12.0860289596021175384521484375">
        <ele>226.600006103515625</ele>
        <time>2018-08-18T07:48:25.000Z</time>
      </trkpt>
      <trkpt lat="50.97985767759382724761962890625" lon="12.08613331429660320281982421875">
        <ele>225.399993896484375</ele>
        <time>2018-08-18T07:48:26.000Z</time>
      </trkpt>
      <trkpt lat="50.97998164594173431396484375" lon="12.08633297123014926910400390625">
        <ele>223.8000030517578125</ele>
        <time>2018-08-18T07:48:28.000Z</time>
      </trkpt>
      <trkpt lat="50.9801088832318782806396484375" lon="12.08645232953131198883056640625">
        <ele>222</ele>
        <time>2018-08-18T07:48:30.000Z</time>
      </trkpt>
      <trkpt lat="50.98017568700015544891357421875" lon="12.08649205975234508514404296875">
        <ele>221</ele>
        <time>2018-08-18T07:48:31.000Z</time>
      </trkpt>
      <trkpt lat="50.98024257458746433258056640625" lon="12.08653078414499759674072265625">
        <ele>220.399993896484375</ele>
        <time>2018-08-18T07:48:32.000Z</time>
      </trkpt>
      <trkpt lat="50.980373583734035491943359375" lon="12.08660370670258998870849609375">
        <ele>219.1999969482421875</ele>
        <time>2018-08-18T07:48:34.000Z</time>
      </trkpt>
      <trkpt lat="50.9807834587991237640380859375" lon="12.0868034474551677703857421875">
        <ele>218.600006103515625</ele>
        <time>2018-08-18T07:48:40.000Z</time>
      </trkpt>
      <trkpt lat="50.9810275398194789886474609375" lon="12.08686606027185916900634765625">
        <ele>218.600006103515625</ele>
        <time>2018-08-18T07:48:44.000Z</time>
      </trkpt>
      <trkpt lat="50.981091745197772979736328125" lon="12.08724224008619785308837890625">
        <ele>218.8000030517578125</ele>
        <time>2018-08-18T07:48:50.000Z</time>
      </trkpt>
      <trkpt lat="50.98112518899142742156982421875" lon="12.08765479736030101776123046875">
        <ele>220.399993896484375</ele>
        <time>2018-08-18T07:48:58.000Z</time>
      </trkpt>
      <trkpt lat="50.9811582975089550018310546875" lon="12.0877774246037006378173828125">
        <ele>221.399993896484375</ele>
        <time>2018-08-18T07:49:01.000Z</time>
      </trkpt>
      <trkpt lat="50.9811861254274845123291015625" lon="12.08788814954459667205810546875">
        <ele>223</ele>
        <time>2018-08-18T07:49:04.000Z</time>
      </trkpt>
      <trkpt lat="50.98124387674033641815185546875" lon="12.0879904925823211669921875">
        <ele>224.1999969482421875</ele>
        <time>2018-08-18T07:49:07.000Z</time>
      </trkpt>
      <trkpt lat="50.98133121617138385772705078125" lon="12.0880677737295627593994140625">
        <ele>225.399993896484375</ele>
        <time>2018-08-18T07:49:10.000Z</time>
      </trkpt>
      <trkpt lat="50.98145644180476665496826171875" lon="12.08809040486812591552734375">
        <ele>226.600006103515625</ele>
        <time>2018-08-18T07:49:14.000Z</time>
      </trkpt>
      <trkpt lat="50.9816105850040912628173828125" lon="12.08808177150785923004150390625">
        <ele>227.8000030517578125</ele>
        <time>2018-08-18T07:49:19.000Z</time>
      </trkpt>
      <trkpt lat="50.9817607887089252471923828125" lon="12.08808043040335178375244140625">
        <ele>229.1999969482421875</ele>
        <time>2018-08-18T07:49:24.000Z</time>
      </trkpt>
      <trkpt lat="50.98184703849256038665771484375" lon="12.08807833492755889892578125">
        <ele>230.1999969482421875</ele>
        <time>2018-08-18T07:49:27.000Z</time>
      </trkpt>
      <trkpt lat="50.98195650614798069000244140625" lon="12.08807372488081455230712890625">
        <ele>231.8000030517578125</ele>
        <time>2018-08-18T07:49:31.000Z</time>
      </trkpt>
      <trkpt lat="50.98204149864614009857177734375" lon="12.08809987641870975494384765625">
        <ele>232.8000030517578125</ele>
        <time>2018-08-18T07:49:34.000Z</time>
      </trkpt>
      <trkpt lat="50.9821627847850322723388671875" lon="12.08817514590919017791748046875">
        <ele>234.1999969482421875</ele>
        <time>2018-08-18T07:49:38.000Z</time>
      </trkpt>
      <trkpt lat="50.98224802874028682708740234375" lon="12.0882506668567657470703125">
        <ele>235.399993896484375</ele>
        <time>2018-08-18T07:49:41.000Z</time>
      </trkpt>
      <trkpt lat="50.98232832737267017364501953125" lon="12.0883316360414028167724609375">
        <ele>236.399993896484375</ele>
        <time>2018-08-18T07:49:44.000Z</time>
      </trkpt>
      <trkpt lat="50.9824390523135662078857421875" lon="12.08844755776226520538330078125">
        <ele>237.600006103515625</ele>
        <time>2018-08-18T07:49:48.000Z</time>
      </trkpt>
      <trkpt lat="50.9825827181339263916015625" lon="12.08859507925808429718017578125">
        <ele>238.8000030517578125</ele>
        <time>2018-08-18T07:49:53.000Z</time>
      </trkpt>
      <trkpt lat="50.98272177390754222869873046875" lon="12.08874561823904514312744140625">
        <ele>240.1999969482421875</ele>
        <time>2018-08-18T07:49:58.000Z</time>
      </trkpt>
      <trkpt lat="50.9828336723148822784423828125" lon="12.0888734422624111175537109375">
        <ele>241.399993896484375</ele>
        <time>2018-08-18T07:50:02.000Z</time>
      </trkpt>
      <trkpt lat="50.98298706114292144775390625" lon="12.0890269987285137176513671875">
        <ele>242.600006103515625</ele>
        <time>2018-08-18T07:50:07.000Z</time>
      </trkpt>
      <trkpt lat="50.9831562079489231109619140625" lon="12.0891773700714111328125">
        <ele>243.8000030517578125</ele>
        <time>2018-08-18T07:50:12.000Z</time>
      </trkpt>
      <trkpt lat="50.98326743580400943756103515625" lon="12.08927988074719905853271484375">
        <ele>244.600006103515625</ele>
        <time>2018-08-18T07:50:15.000Z</time>
      </trkpt>
      <trkpt lat="50.9833084233105182647705078125" lon="12.08930552937090396881103515625">
        <ele>244.8000030517578125</ele>
        <time>2018-08-18T07:50:16.000Z</time>
      </trkpt>
      <trkpt lat="50.983539260923862457275390625" lon="12.08941969089210033416748046875">
        <ele>246</ele>
        <time>2018-08-18T07:50:21.000Z</time>
      </trkpt>
      <trkpt lat="50.98406128585338592529296875" lon="12.08964130841195583343505859375">
        <ele>246.8000030517578125</ele>
        <time>2018-08-18T07:50:32.000Z</time>
      </trkpt>
      <trkpt lat="50.98431047983467578887939453125" lon="12.0897357724606990814208984375">
        <ele>247</ele>
        <time>2018-08-18T07:50:37.000Z</time>
      </trkpt>
      <trkpt lat="50.98487944342195987701416015625" lon="12.0899691246449947357177734375">
        <ele>248</ele>
        <time>2018-08-18T07:50:48.000Z</time>
      </trkpt>
      <trkpt lat="50.98493141122162342071533203125" lon="12.08999074995517730712890625">
        <ele>248.1999969482421875</ele>
        <time>2018-08-18T07:50:49.000Z</time>
      </trkpt>
      <trkpt lat="50.98538923077285289764404296875" lon="12.0901843719184398651123046875">
        <ele>249.1999969482421875</ele>
        <time>2018-08-18T07:50:58.000Z</time>
      </trkpt>
      <trkpt lat="50.98577580414712429046630859375" lon="12.09040842019021511077880859375">
        <ele>250.1999969482421875</ele>
        <time>2018-08-18T07:51:06.000Z</time>
      </trkpt>
      <trkpt lat="50.9861445240676403045654296875" lon="12.0907305367290973663330078125">
        <ele>251.399993896484375</ele>
        <time>2018-08-18T07:51:14.000Z</time>
      </trkpt>
      <trkpt lat="50.98664333112537860870361328125" lon="12.09118299186229705810546875">
        <ele>252.1999969482421875</ele>
        <time>2018-08-18T07:51:24.000Z</time>
      </trkpt>
      <trkpt lat="50.98715429194271564483642578125" lon="12.09162496961653232574462890625">
        <ele>252</ele>
        <time>2018-08-18T07:51:32.000Z</time>
      </trkpt>
      <trkpt lat="50.98770640790462493896484375" lon="12.09212176501750946044921875">
        <ele>251.399993896484375</ele>
        <time>2018-08-18T07:51:39.000Z</time>
      </trkpt>
      <trkpt lat="50.98806221969425678253173828125" lon="12.09244371391832828521728515625">
        <ele>250.399993896484375</ele>
        <time>2018-08-18T07:51:43.000Z</time>
      </trkpt>
      <trkpt lat="50.9883526526391506195068359375" lon="12.0926999486982822418212890625">
        <ele>249</ele>
        <time>2018-08-18T07:51:46.000Z</time>
      </trkpt>
      <trkpt lat="50.9885561652481555938720703125" lon="12.0928855240345001220703125">
        <ele>247.8000030517578125</ele>
        <time>2018-08-18T07:51:48.000Z</time>
      </trkpt>
      <trkpt lat="50.98866471089422702789306640625" lon="12.09298141300678253173828125">
        <ele>246.8000030517578125</ele>
        <time>2018-08-18T07:51:49.000Z</time>
      </trkpt>
      <trkpt lat="50.988892279565334320068359375" lon="12.09318551234900951385498046875">
        <ele>245.600006103515625</ele>
        <time>2018-08-18T07:51:51.000Z</time>
      </trkpt>
      <trkpt lat="50.98912823013961315155029296875" lon="12.093412578105926513671875">
        <ele>244.1999969482421875</ele>
        <time>2018-08-18T07:51:53.000Z</time>
      </trkpt>
      <trkpt lat="50.989235937595367431640625" lon="12.09355272352695465087890625">
        <ele>243.399993896484375</ele>
        <time>2018-08-18T07:51:54.000Z</time>
      </trkpt>
      <trkpt lat="50.98932805471122264862060546875" lon="12.093718014657497406005859375">
        <ele>242.8000030517578125</ele>
        <time>2018-08-18T07:51:55.000Z</time>
      </trkpt>
      <trkpt lat="50.98949234001338481903076171875" lon="12.094053290784358978271484375">
        <ele>241.399993896484375</ele>
        <time>2018-08-18T07:51:57.000Z</time>
      </trkpt>
      <trkpt lat="50.98957800306379795074462890625" lon="12.0941986329853534698486328125">
        <ele>240.600006103515625</ele>
        <time>2018-08-18T07:51:58.000Z</time>
      </trkpt>
      <trkpt lat="50.9896699525415897369384765625" lon="12.094318829476833343505859375">
        <ele>239.600006103515625</ele>
        <time>2018-08-18T07:51:59.000Z</time>
      </trkpt>
      <trkpt lat="50.9897668473422527313232421875" lon="12.09441195242106914520263671875">
        <ele>238.600006103515625</ele>
        <time>2018-08-18T07:52:00.000Z</time>
      </trkpt>
      <trkpt lat="50.9898627363145351409912109375" lon="12.09448168985545635223388671875">
        <ele>237.1999969482421875</ele>
        <time>2018-08-18T07:52:01.000Z</time>
      </trkpt>
      <trkpt lat="50.98995518870651721954345703125" lon="12.09453047253191471099853515625">
        <ele>236.1999969482421875</ele>
        <time>2018-08-18T07:52:02.000Z</time>
      </trkpt>
      <trkpt lat="50.990131460130214691162109375" lon="12.09458847530186176300048828125">
        <ele>235.1999969482421875</ele>
        <time>2018-08-18T07:52:04.000Z</time>
      </trkpt>
      <trkpt lat="50.99021435715258121490478515625" lon="12.09460808895528316497802734375">
        <ele>235</ele>
        <time>2018-08-18T07:52:05.000Z</time>
      </trkpt>
      <trkpt lat="50.99081148393452167510986328125" lon="12.094777487218379974365234375">
        <ele>235.399993896484375</ele>
        <time>2018-08-18T07:52:13.000Z</time>
      </trkpt>
      <trkpt lat="50.9909574128687381744384765625" lon="12.0948530919849872589111328125">
        <ele>236.1999969482421875</ele>
        <time>2018-08-18T07:52:15.000Z</time>
      </trkpt>
      <trkpt lat="50.99154942668974399566650390625" lon="12.09515308029949665069580078125">
        <ele>236.600006103515625</ele>
        <time>2018-08-18T07:52:23.000Z</time>
      </trkpt>
      <trkpt lat="50.99207706749439239501953125" lon="12.09542297758162021636962890625">
        <ele>235</ele>
        <time>2018-08-18T07:52:29.000Z</time>
      </trkpt>
      <trkpt lat="50.9923759661614894866943359375" lon="12.09557519294321537017822265625">
        <ele>233.600006103515625</ele>
        <time>2018-08-18T07:52:32.000Z</time>
      </trkpt>
      <trkpt lat="50.992675535380840301513671875" lon="12.09572774358093738555908203125">
        <ele>232.1999969482421875</ele>
        <time>2018-08-18T07:52:35.000Z</time>
      </trkpt>
      <trkpt lat="50.99286018870770931243896484375" lon="12.0958398096263408660888671875">
        <ele>231</ele>
        <time>2018-08-18T07:52:37.000Z</time>
      </trkpt>
      <trkpt lat="50.99301273934543132781982421875" lon="12.09602060727775096893310546875">
        <ele>229.8000030517578125</ele>
        <time>2018-08-18T07:52:39.000Z</time>
      </trkpt>
      <trkpt lat="50.993122123181819915771484375" lon="12.09625245071947574615478515625">
        <ele>228.1999969482421875</ele>
        <time>2018-08-18T07:52:41.000Z</time>
      </trkpt>
      <trkpt lat="50.993230082094669342041015625" lon="12.0964754931628704071044921875">
        <ele>226.8000030517578125</ele>
        <time>2018-08-18T07:52:43.000Z</time>
      </trkpt>
      <trkpt lat="50.9932922758162021636962890625" lon="12.09657817147672176361083984375">
        <ele>226.399993896484375</ele>
        <time>2018-08-18T07:52:44.000Z</time>
      </trkpt>
      <trkpt lat="50.99343166686594486236572265625" lon="12.09676726721227169036865234375">
        <ele>225.600006103515625</ele>
        <time>2018-08-18T07:52:46.000Z</time>
      </trkpt>
      <trkpt lat="50.993496961891651153564453125" lon="12.09687271155416965484619140625">
        <ele>225.1999969482421875</ele>
        <time>2018-08-18T07:52:47.000Z</time>
      </trkpt>
      <trkpt lat="50.99378806538879871368408203125" lon="12.09736959077417850494384765625">
        <ele>224.600006103515625</ele>
        <time>2018-08-18T07:52:51.000Z</time>
      </trkpt>
      <trkpt lat="50.99387951195240020751953125" lon="12.09749783389270305633544921875">
        <ele>224.1999969482421875</ele>
        <time>2018-08-18T07:52:52.000Z</time>
      </trkpt>
      <trkpt lat="50.99409299902617931365966796875" lon="12.09774501621723175048828125">
        <ele>223.399993896484375</ele>
        <time>2018-08-18T07:52:54.000Z</time>
      </trkpt>
      <trkpt lat="50.99433456547558307647705078125" lon="12.09797711111605167388916015625">
        <ele>221.600006103515625</ele>
        <time>2018-08-18T07:52:56.000Z</time>
      </trkpt>
      <trkpt lat="50.9945867769420146942138671875" lon="12.09821331314742565155029296875">
        <ele>219.8000030517578125</ele>
        <time>2018-08-18T07:52:58.000Z</time>
      </trkpt>
      <trkpt lat="50.99471636116504669189453125" lon="12.0983449928462505340576171875">
        <ele>218.600006103515625</ele>
        <time>2018-08-18T07:52:59.000Z</time>
      </trkpt>
      <trkpt lat="50.99484938196837902069091796875" lon="12.0984831266105175018310546875">
        <ele>217.399993896484375</ele>
        <time>2018-08-18T07:53:00.000Z</time>
      </trkpt>
      <trkpt lat="50.99498483352363109588623046875" lon="12.0986259542405605316162109375">
        <ele>216</ele>
        <time>2018-08-18T07:53:01.000Z</time>
      </trkpt>
      <trkpt lat="50.99511860869824886322021484375" lon="12.0987734757363796234130859375">
        <ele>214.600006103515625</ele>
        <time>2018-08-18T07:53:02.000Z</time>
      </trkpt>
      <trkpt lat="50.99525070749223232269287109375" lon="12.0989216677844524383544921875">
        <ele>213</ele>
        <time>2018-08-18T07:53:03.000Z</time>
      </trkpt>
      <trkpt lat="50.99537123925983905792236328125" lon="12.09905804134905338287353515625">
        <ele>211.399993896484375</ele>
        <time>2018-08-18T07:53:04.000Z</time>
      </trkpt>
      <trkpt lat="50.99548137746751308441162109375" lon="12.0991818420588970184326171875">
        <ele>209.600006103515625</ele>
        <time>2018-08-18T07:53:05.000Z</time>
      </trkpt>
      <trkpt lat="50.995580367743968963623046875" lon="12.09929558448493480682373046875">
        <ele>207.600006103515625</ele>
        <time>2018-08-18T07:53:06.000Z</time>
      </trkpt>
      <trkpt lat="50.9956683777272701263427734375" lon="12.099392898380756378173828125">
        <ele>205.399993896484375</ele>
        <time>2018-08-18T07:53:07.000Z</time>
      </trkpt>
      <trkpt lat="50.9957381151616573333740234375" lon="12.09946942515671253204345703125">
        <ele>203.600006103515625</ele>
        <time>2018-08-18T07:53:08.000Z</time>
      </trkpt>
      <trkpt lat="50.9957927651703357696533203125" lon="12.09952960722148418426513671875">
        <ele>202</ele>
        <time>2018-08-18T07:53:09.000Z</time>
      </trkpt>
      <trkpt lat="50.99584364332258701324462890625" lon="12.09957964718341827392578125">
        <ele>200</ele>
        <time>2018-08-18T07:53:10.000Z</time>
      </trkpt>
      <trkpt lat="50.99589510820806026458740234375" lon="12.0996304415166378021240234375">
        <ele>198</ele>
        <time>2018-08-18T07:53:11.000Z</time>
      </trkpt>
      <trkpt lat="50.99594573490321636199951171875" lon="12.0996797271072864532470703125">
        <ele>196.399993896484375</ele>
        <time>2018-08-18T07:53:12.000Z</time>
      </trkpt>
      <trkpt lat="50.99599384702742099761962890625" lon="12.0997249893844127655029296875">
        <ele>194.600006103515625</ele>
        <time>2018-08-18T07:53:13.000Z</time>
      </trkpt>
      <trkpt lat="50.99604128859937191009521484375" lon="12.09976497106254100799560546875">
        <ele>193.1999969482421875</ele>
        <time>2018-08-18T07:53:14.000Z</time>
      </trkpt>
      <trkpt lat="50.99609208293259143829345703125" lon="12.0997953973710536956787109375">
        <ele>190.600006103515625</ele>
        <time>2018-08-18T07:53:15.000Z</time>
      </trkpt>
      <trkpt lat="50.99619962275028228759765625" lon="12.09981844760477542877197265625">
        <ele>189.600006103515625</ele>
        <time>2018-08-18T07:53:17.000Z</time>
      </trkpt>
      <trkpt lat="50.9963503293693065643310546875" lon="12.099777795374393463134765625">
        <ele>189</ele>
        <time>2018-08-18T07:53:20.000Z</time>
      </trkpt>
      <trkpt lat="50.99650329910218715667724609375" lon="12.09974669851362705230712890625">
        <ele>187.399993896484375</ele>
        <time>2018-08-18T07:53:23.000Z</time>
      </trkpt>
      <trkpt lat="50.99659851752221584320068359375" lon="12.09973228164017200469970703125">
        <ele>186</ele>
        <time>2018-08-18T07:53:25.000Z</time>
      </trkpt>
      <trkpt lat="50.9967513196170330047607421875" lon="12.09970772266387939453125">
        <ele>185.399993896484375</ele>
        <time>2018-08-18T07:53:28.000Z</time>
      </trkpt>
      <trkpt lat="50.99687243811786174774169921875" lon="12.099620215594768524169921875">
        <ele>185</ele>
        <time>2018-08-18T07:53:31.000Z</time>
      </trkpt>
      <trkpt lat="50.99742807447910308837890625" lon="12.09978525526821613311767578125">
        <ele>184.1999969482421875</ele>
        <time>2018-08-18T07:53:47.000Z</time>
      </trkpt>
      <trkpt lat="50.99794699810445308685302734375" lon="12.1000428311526775360107421875">
        <ele>184.399993896484375</ele>
        <time>2018-08-18T07:54:05.000Z</time>
      </trkpt>
      <trkpt lat="50.99849014542996883392333984375" lon="12.09986220113933086395263671875">
        <ele>184.600006103515625</ele>
        <time>2018-08-18T07:54:22.000Z</time>
      </trkpt>
      <trkpt lat="50.99897109903395175933837890625" lon="12.09939130581915378570556640625">
        <ele>185.600006103515625</ele>
        <time>2018-08-18T07:54:40.000Z</time>
      </trkpt>
      <trkpt lat="50.999413914978504180908203125" lon="12.0992358215153217315673828125">
        <ele>186</ele>
        <time>2018-08-18T07:54:54.000Z</time>
      </trkpt>
      <trkpt lat="50.99970837123692035675048828125" lon="12.09930312819778919219970703125">
        <ele>187.1999969482421875</ele>
        <time>2018-08-18T07:55:04.000Z</time>
      </trkpt>
      <trkpt lat="50.999910794198513031005859375" lon="12.099427096545696258544921875">
        <ele>188.1999969482421875</ele>
        <time>2018-08-18T07:55:12.000Z</time>
      </trkpt>
      <trkpt lat="50.99994977004826068878173828125" lon="12.0994557626545429229736328125">
        <ele>189.399993896484375</ele>
        <time>2018-08-18T07:55:14.000Z</time>
      </trkpt>
      <trkpt lat="51.00003643892705440521240234375" lon="12.0995375700294971466064453125">
        <ele>190.399993896484375</ele>
        <time>2018-08-18T07:55:18.000Z</time>
      </trkpt>
      <trkpt lat="51.00015244446694850921630859375" lon="12.09962013177573680877685546875">
        <ele>191.600006103515625</ele>
        <time>2018-08-18T07:55:23.000Z</time>
      </trkpt>
      <trkpt lat="51.000255458056926727294921875" lon="12.0997306890785694122314453125">
        <ele>192.8000030517578125</ele>
        <time>2018-08-18T07:55:28.000Z</time>
      </trkpt>
      <trkpt lat="51.00027389824390411376953125" lon="12.099756337702274322509765625">
        <ele>193.1999969482421875</ele>
        <time>2018-08-18T07:55:29.000Z</time>
      </trkpt>
      <trkpt lat="51.000308096408843994140625" lon="12.09980486892163753509521484375">
        <ele>194.1999969482421875</ele>
        <time>2018-08-18T07:55:31.000Z</time>
      </trkpt>
      <trkpt lat="51.0003424622118473052978515625" lon="12.0998544059693813323974609375">
        <ele>194.600006103515625</ele>
        <time>2018-08-18T07:55:33.000Z</time>
      </trkpt>
      <trkpt lat="51.0003957711160182952880859375" lon="12.09995775483548641204833984375">
        <ele>195.1999969482421875</ele>
        <time>2018-08-18T07:55:36.000Z</time>
      </trkpt>
      <trkpt lat="51.0005124472081661224365234375" lon="12.1001864969730377197265625">
        <ele>196.1999969482421875</ele>
        <time>2018-08-18T07:55:42.000Z</time>
      </trkpt>
      <trkpt lat="51.0006780736148357391357421875" lon="12.1004233695566654205322265625">
        <ele>197.399993896484375</ele>
        <time>2018-08-18T07:55:49.000Z</time>
      </trkpt>
      <trkpt lat="51.0008029639720916748046875" lon="12.100613303482532501220703125">
        <ele>198.399993896484375</ele>
        <time>2018-08-18T07:55:54.000Z</time>
      </trkpt>
      <trkpt lat="51.0009234957396984100341796875" lon="12.10082410834729671478271484375">
        <ele>199.600006103515625</ele>
        <time>2018-08-18T07:55:59.000Z</time>
      </trkpt>
      <trkpt lat="51.00102667696774005889892578125" lon="12.100980766117572784423828125">
        <ele>201</ele>
        <time>2018-08-18T07:56:03.000Z</time>
      </trkpt>
      <trkpt lat="51.0011622123420238494873046875" lon="12.10123381577432155609130859375">
        <ele>202</ele>
        <time>2018-08-18T07:56:09.000Z</time>
      </trkpt>
      <trkpt lat="51.00127997808158397674560546875" lon="12.1014462970197200775146484375">
        <ele>203</ele>
        <time>2018-08-18T07:56:14.000Z</time>
      </trkpt>
      <trkpt lat="51.001390703022480010986328125" lon="12.10167705081403255462646484375">
        <ele>204</ele>
        <time>2018-08-18T07:56:19.000Z</time>
      </trkpt>
      <trkpt lat="51.00150595419108867645263671875" lon="12.1019004285335540771484375">
        <ele>205.1999969482421875</ele>
        <time>2018-08-18T07:56:24.000Z</time>
      </trkpt>
      <trkpt lat="51.00163486786186695098876953125" lon="12.102189771831035614013671875">
        <ele>206</ele>
        <time>2018-08-18T07:56:30.000Z</time>
      </trkpt>
      <trkpt lat="51.00174106657505035400390625" lon="12.1024261415004730224609375">
        <ele>207</ele>
        <time>2018-08-18T07:56:35.000Z</time>
      </trkpt>
      <trkpt lat="51.00184776820242404937744140625" lon="12.10267600603401660919189453125">
        <ele>208.1999969482421875</ele>
        <time>2018-08-18T07:56:40.000Z</time>
      </trkpt>
      <trkpt lat="51.00197902880609035491943359375" lon="12.102993093430995941162109375">
        <ele>209.399993896484375</ele>
        <time>2018-08-18T07:56:46.000Z</time>
      </trkpt>
      <trkpt lat="51.002095453441143035888671875" lon="12.103272378444671630859375">
        <ele>210.399993896484375</ele>
        <time>2018-08-18T07:56:51.000Z</time>
      </trkpt>
      <trkpt lat="51.0022961162030696868896484375" lon="12.103807143867015838623046875">
        <ele>211.600006103515625</ele>
        <time>2018-08-18T07:57:00.000Z</time>
      </trkpt>
      <trkpt lat="51.0023115389049053192138671875" lon="12.10387763567268848419189453125">
        <ele>211.600006103515625</ele>
        <time>2018-08-18T07:57:01.000Z</time>
      </trkpt>
      <trkpt lat="51.00237146951258182525634765625" lon="12.10417586378753185272216796875">
        <ele>212</ele>
        <time>2018-08-18T07:57:05.000Z</time>
      </trkpt>
      <trkpt lat="51.00251915864646434783935546875" lon="12.10503919981420040130615234375">
        <ele>212.1999969482421875</ele>
        <time>2018-08-18T07:57:16.000Z</time>
      </trkpt>
      <trkpt lat="51.0026709549129009246826171875" lon="12.1058065630495548248291015625">
        <ele>212.600006103515625</ele>
        <time>2018-08-18T07:57:26.000Z</time>
      </trkpt>
      <trkpt lat="51.002800203859806060791015625" lon="12.10633772425353527069091796875">
        <ele>213.1999969482421875</ele>
        <time>2018-08-18T07:57:33.000Z</time>
      </trkpt>
      <trkpt lat="51.00284957326948642730712890625" lon="12.10657057352364063262939453125">
        <ele>213.600006103515625</ele>
        <time>2018-08-18T07:57:36.000Z</time>
      </trkpt>
      <trkpt lat="51.0028882138431072235107421875" lon="12.10681666620075702667236328125">
        <ele>214</ele>
        <time>2018-08-18T07:57:39.000Z</time>
      </trkpt>
      <trkpt lat="51.00295233540236949920654296875" lon="12.1072083525359630584716796875">
        <ele>214.600006103515625</ele>
        <time>2018-08-18T07:57:44.000Z</time>
      </trkpt>
      <trkpt lat="51.00306917913258075714111328125" lon="12.1079461276531219482421875">
        <ele>215.399993896484375</ele>
        <time>2018-08-18T07:57:54.000Z</time>
      </trkpt>
      <trkpt lat="51.0031111724674701690673828125" lon="12.10815223865211009979248046875">
        <ele>215.8000030517578125</ele>
        <time>2018-08-18T07:57:57.000Z</time>
      </trkpt>
      <trkpt lat="51.00314931012690067291259765625" lon="12.10828165523707866668701171875">
        <ele>216.399993896484375</ele>
        <time>2018-08-18T07:57:59.000Z</time>
      </trkpt>
      <trkpt lat="51.00320312194526195526123046875" lon="12.10847930051386356353759765625">
        <ele>216.8000030517578125</ele>
        <time>2018-08-18T07:58:02.000Z</time>
      </trkpt>
      <trkpt lat="51.00325089879333972930908203125" lon="12.1086885966360569000244140625">
        <ele>217.399993896484375</ele>
        <time>2018-08-18T07:58:05.000Z</time>
      </trkpt>
      <trkpt lat="51.00335215218365192413330078125" lon="12.10909771732985973358154296875">
        <ele>218.399993896484375</ele>
        <time>2018-08-18T07:58:11.000Z</time>
      </trkpt>
      <trkpt lat="51.00342557765543460845947265625" lon="12.109425701200962066650390625">
        <ele>219.399993896484375</ele>
        <time>2018-08-18T07:58:16.000Z</time>
      </trkpt>
      <trkpt lat="51.00350461900234222412109375" lon="12.10971546359360218048095703125">
        <ele>220.399993896484375</ele>
        <time>2018-08-18T07:58:21.000Z</time>
      </trkpt>
      <trkpt lat="51.0035865940153598785400390625" lon="12.11000346578657627105712890625">
        <ele>221.600006103515625</ele>
        <time>2018-08-18T07:58:26.000Z</time>
      </trkpt>
      <trkpt lat="51.0036461055278778076171875" lon="12.11017630062997341156005859375">
        <ele>222.600006103515625</ele>
        <time>2018-08-18T07:58:29.000Z</time>
      </trkpt>
      <trkpt lat="51.00366421043872833251953125" lon="12.1102365665137767791748046875">
        <ele>222.8000030517578125</ele>
        <time>2018-08-18T07:58:30.000Z</time>
      </trkpt>
      <trkpt lat="51.003751046955585479736328125" lon="12.11055315099656581878662109375">
        <ele>224</ele>
        <time>2018-08-18T07:58:35.000Z</time>
      </trkpt>
      <trkpt lat="51.003826148808002471923828125" lon="12.110829167068004608154296875">
        <ele>225</ele>
        <time>2018-08-18T07:58:40.000Z</time>
      </trkpt>
      <trkpt lat="51.00388071499764919281005859375" lon="12.11111105047166347503662109375">
        <ele>226</ele>
        <time>2018-08-18T07:58:45.000Z</time>
      </trkpt>
      <trkpt lat="51.00392664782702922821044921875" lon="12.11140776984393596649169921875">
        <ele>227.1999969482421875</ele>
        <time>2018-08-18T07:58:50.000Z</time>
      </trkpt>
      <trkpt lat="51.0039714910089969635009765625" lon="12.1117064170539379119873046875">
        <ele>228.399993896484375</ele>
        <time>2018-08-18T07:58:55.000Z</time>
      </trkpt>
      <trkpt lat="51.003996469080448150634765625" lon="12.1118767373263835906982421875">
        <ele>229.1999969482421875</ele>
        <time>2018-08-18T07:58:58.000Z</time>
      </trkpt>
      <trkpt lat="51.004043407738208770751953125" lon="12.1121115982532501220703125">
        <ele>230.399993896484375</ele>
        <time>2018-08-18T07:59:02.000Z</time>
      </trkpt>
      <trkpt lat="51.00410166196525096893310546875" lon="12.1123675815761089324951171875">
        <ele>231.399993896484375</ele>
        <time>2018-08-18T07:59:06.000Z</time>
      </trkpt>
      <trkpt lat="51.004173494875431060791015625" lon="12.11263119243085384368896484375">
        <ele>232.600006103515625</ele>
        <time>2018-08-18T07:59:10.000Z</time>
      </trkpt>
      <trkpt lat="51.00425773300230503082275390625" lon="12.11289304308593273162841796875">
        <ele>233.600006103515625</ele>
        <time>2018-08-18T07:59:14.000Z</time>
      </trkpt>
      <trkpt lat="51.00435462780296802520751953125" lon="12.11320870555937290191650390625">
        <ele>234.8000030517578125</ele>
        <time>2018-08-18T07:59:19.000Z</time>
      </trkpt>
      <trkpt lat="51.0044311545789241790771484375" lon="12.11342881433665752410888671875">
        <ele>235.8000030517578125</ele>
        <time>2018-08-18T07:59:23.000Z</time>
      </trkpt>
      <trkpt lat="51.0044861398637294769287109375" lon="12.11360868997871875762939453125">
        <ele>236.8000030517578125</ele>
        <time>2018-08-18T07:59:26.000Z</time>
      </trkpt>
      <trkpt lat="51.00457021035254001617431640625" lon="12.11385411210358142852783203125">
        <ele>237.8000030517578125</ele>
        <time>2018-08-18T07:59:30.000Z</time>
      </trkpt>
      <trkpt lat="51.00465369410812854766845703125" lon="12.1141002885997295379638671875">
        <ele>239</ele>
        <time>2018-08-18T07:59:34.000Z</time>
      </trkpt>
      <trkpt lat="51.00473080761730670928955078125" lon="12.11434110067784786224365234375">
        <ele>240.1999969482421875</ele>
        <time>2018-08-18T07:59:38.000Z</time>
      </trkpt>
      <trkpt lat="51.004799120128154754638671875" lon="12.11458333767950534820556640625">
        <ele>241.399993896484375</ele>
        <time>2018-08-18T07:59:42.000Z</time>
      </trkpt>
      <trkpt lat="51.00486910901963710784912109375" lon="12.11487938649952411651611328125">
        <ele>242.8000030517578125</ele>
        <time>2018-08-18T07:59:47.000Z</time>
      </trkpt>
      <trkpt lat="51.004910767078399658203125" lon="12.11506445892155170440673828125">
        <ele>243.600006103515625</ele>
        <time>2018-08-18T07:59:50.000Z</time>
      </trkpt>
      <trkpt lat="51.00492359139025211334228515625" lon="12.11513084359467029571533203125">
        <ele>243.600006103515625</ele>
        <time>2018-08-18T07:59:51.000Z</time>
      </trkpt>
      <trkpt lat="51.00497103296220302581787109375" lon="12.11532513611018657684326171875">
        <ele>244.399993896484375</ele>
        <time>2018-08-18T07:59:54.000Z</time>
      </trkpt>
      <trkpt lat="51.004983521997928619384765625" lon="12.1153911016881465911865234375">
        <ele>244.8000030517578125</ele>
        <time>2018-08-18T07:59:55.000Z</time>
      </trkpt>
      <trkpt lat="51.00503691472113132476806640625" lon="12.1156495995819568634033203125">
        <ele>245.8000030517578125</ele>
        <time>2018-08-18T07:59:59.000Z</time>
      </trkpt>
      <trkpt lat="51.00510212592780590057373046875" lon="12.115970961749553680419921875">
        <ele>247</ele>
        <time>2018-08-18T08:00:04.000Z</time>
      </trkpt>
      <trkpt lat="51.00517689250409603118896484375" lon="12.11635124869644641876220703125">
        <ele>248.1999969482421875</ele>
        <time>2018-08-18T08:00:10.000Z</time>
      </trkpt>
      <trkpt lat="51.005243360996246337890625" lon="12.1167134307324886322021484375">
        <ele>249.399993896484375</ele>
        <time>2018-08-18T08:00:16.000Z</time>
      </trkpt>
      <trkpt lat="51.0053018666803836822509765625" lon="12.1170691587030887603759765625">
        <ele>250.600006103515625</ele>
        <time>2018-08-18T08:00:22.000Z</time>
      </trkpt>
      <trkpt lat="51.00536431185901165008544921875" lon="12.11737652309238910675048828125">
        <ele>251.600006103515625</ele>
        <time>2018-08-18T08:00:27.000Z</time>
      </trkpt>
      <trkpt lat="51.00543849170207977294921875" lon="12.11776980198919773101806640625">
        <ele>252.8000030517578125</ele>
        <time>2018-08-18T08:00:33.000Z</time>
      </trkpt>
      <trkpt lat="51.005513258278369903564453125" lon="12.118191160261631011962890625">
        <ele>253.8000030517578125</ele>
        <time>2018-08-18T08:00:39.000Z</time>
      </trkpt>
      <trkpt lat="51.0055918805301189422607421875" lon="12.11860396899282932281494140625">
        <ele>255</ele>
        <time>2018-08-18T08:00:45.000Z</time>
      </trkpt>
      <trkpt lat="51.00569321773946285247802734375" lon="12.11921048350632190704345703125">
        <ele>256.20001220703125</ele>
        <time>2018-08-18T08:00:53.000Z</time>
      </trkpt>
      <trkpt lat="51.00577510893344879150390625" lon="12.1195947937667369842529296875">
        <ele>257</ele>
        <time>2018-08-18T08:00:58.000Z</time>
      </trkpt>
      <trkpt lat="51.00587510503828525543212890625" lon="12.119780369102954864501953125">
        <ele>257.399993896484375</ele>
        <time>2018-08-18T08:01:01.000Z</time>
      </trkpt>
      <trkpt lat="51.005964539945125579833984375" lon="12.11986913345754146575927734375">
        <ele>257.600006103515625</ele>
        <time>2018-08-18T08:01:03.000Z</time>
      </trkpt>
      <trkpt lat="51.0062550567090511322021484375" lon="12.12007281370460987091064453125">
        <ele>258.399993896484375</ele>
        <time>2018-08-18T08:01:09.000Z</time>
      </trkpt>
      <trkpt lat="51.00654683075845241546630859375" lon="12.120249085128307342529296875">
        <ele>259.399993896484375</ele>
        <time>2018-08-18T08:01:15.000Z</time>
      </trkpt>
      <trkpt lat="51.0069588012993335723876953125" lon="12.12051705457270145416259765625">
        <ele>260</ele>
        <time>2018-08-18T08:01:23.000Z</time>
      </trkpt>
      <trkpt lat="51.00722014904022216796875" lon="12.1207582019269466400146484375">
        <ele>260</ele>
        <time>2018-08-18T08:01:28.000Z</time>
      </trkpt>
      <trkpt lat="51.00742860697209835052490234375" lon="12.12129238061606884002685546875">
        <ele>260</ele>
        <time>2018-08-18T08:01:34.000Z</time>
      </trkpt>
      <trkpt lat="51.0074821673333644866943359375" lon="12.1217211149632930755615234375">
        <ele>259.79998779296875</ele>
        <time>2018-08-18T08:01:38.000Z</time>
      </trkpt>
      <trkpt lat="51.0074546746909618377685546875" lon="12.1220312453806400299072265625">
        <ele>259.399993896484375</ele>
        <time>2018-08-18T08:01:41.000Z</time>
      </trkpt>
      <trkpt lat="51.0072563588619232177734375" lon="12.1226017177104949951171875">
        <ele>258.399993896484375</ele>
        <time>2018-08-18T08:01:47.000Z</time>
      </trkpt>
      <trkpt lat="51.00718318484723567962646484375" lon="12.122780419886112213134765625">
        <ele>258.20001220703125</ele>
        <time>2018-08-18T08:01:49.000Z</time>
      </trkpt>
      <trkpt lat="51.007122583687305450439453125" lon="12.122970521450042724609375">
        <ele>258</ele>
        <time>2018-08-18T08:01:51.000Z</time>
      </trkpt>
      <trkpt lat="51.00730128586292266845703125" lon="12.123437225818634033203125">
        <ele>257.399993896484375</ele>
        <time>2018-08-18T08:02:00.000Z</time>
      </trkpt>
      <trkpt lat="51.007447130978107452392578125" lon="12.1234300173819065093994140625">
        <ele>257.20001220703125</ele>
        <time>2018-08-18T08:02:02.000Z</time>
      </trkpt>
      <trkpt lat="51.0080152563750743865966796875" lon="12.12339372374117374420166015625">
        <ele>256.20001220703125</ele>
        <time>2018-08-18T08:02:09.000Z</time>
      </trkpt>
      <trkpt lat="51.0084531269967555999755859375" lon="12.1233867667615413665771484375">
        <ele>255.1999969482421875</ele>
        <time>2018-08-18T08:02:14.000Z</time>
      </trkpt>
      <trkpt lat="51.008719168603420257568359375" lon="12.12338249199092388153076171875">
        <ele>254</ele>
        <time>2018-08-18T08:02:17.000Z</time>
      </trkpt>
      <trkpt lat="51.00906810723245143890380859375" lon="12.12337545119225978851318359375">
        <ele>252.8000030517578125</ele>
        <time>2018-08-18T08:02:21.000Z</time>
      </trkpt>
      <trkpt lat="51.00961594842374324798583984375" lon="12.1233676560223102569580078125">
        <ele>252</ele>
        <time>2018-08-18T08:02:28.000Z</time>
      </trkpt>
      <trkpt lat="51.0101692378520965576171875" lon="12.12336220778524875640869140625">
        <ele>252.1999969482421875</ele>
        <time>2018-08-18T08:02:37.000Z</time>
      </trkpt>
      <trkpt lat="51.01058875210583209991455078125" lon="12.12335717864334583282470703125">
        <ele>254.1999969482421875</ele>
        <time>2018-08-18T08:02:44.000Z</time>
      </trkpt>
      <trkpt lat="51.01084205321967601776123046875" lon="12.1233565919101238250732421875">
        <ele>255.399993896484375</ele>
        <time>2018-08-18T08:02:48.000Z</time>
      </trkpt>
      <trkpt lat="51.01116442121565341949462890625" lon="12.12335214950144290924072265625">
        <ele>256.399993896484375</ele>
        <time>2018-08-18T08:02:53.000Z</time>
      </trkpt>
      <trkpt lat="51.0114216618239879608154296875" lon="12.1233488805592060089111328125">
        <ele>257.399993896484375</ele>
        <time>2018-08-18T08:02:57.000Z</time>
      </trkpt>
      <trkpt lat="51.01180915720760822296142578125" lon="12.12335013784468173980712890625">
        <ele>258.600006103515625</ele>
        <time>2018-08-18T08:03:03.000Z</time>
      </trkpt>
      <trkpt lat="51.012404859066009521484375" lon="12.12334494106471538543701171875">
        <ele>259.20001220703125</ele>
        <time>2018-08-18T08:03:12.000Z</time>
      </trkpt>
      <trkpt lat="51.01260644383728504180908203125" lon="12.12334401905536651611328125">
        <ele>259.600006103515625</ele>
        <time>2018-08-18T08:03:15.000Z</time>
      </trkpt>
      <trkpt lat="51.0131624154746532440185546875" lon="12.12333739735186100006103515625">
        <ele>260.600006103515625</ele>
        <time>2018-08-18T08:03:23.000Z</time>
      </trkpt>
      <trkpt lat="51.01337539963424205780029296875" lon="12.12333387695252895355224609375">
        <ele>260.600006103515625</ele>
        <time>2018-08-18T08:03:26.000Z</time>
      </trkpt>
      <trkpt lat="51.01396565325558185577392578125" lon="12.12333002127707004547119140625">
        <ele>260.79998779296875</ele>
        <time>2018-08-18T08:03:34.000Z</time>
      </trkpt>
      <trkpt lat="51.01456915028393268585205078125" lon="12.12332398630678653717041015625">
        <ele>260.79998779296875</ele>
        <time>2018-08-18T08:03:42.000Z</time>
      </trkpt>
      <trkpt lat="51.01518337614834308624267578125" lon="12.12331962771713733673095703125">
        <ele>260.79998779296875</ele>
        <time>2018-08-18T08:03:50.000Z</time>
      </trkpt>
      <trkpt lat="51.01572602055966854095458984375" lon="12.12331476621329784393310546875">
        <ele>260.79998779296875</ele>
        <time>2018-08-18T08:03:57.000Z</time>
      </trkpt>
      <trkpt lat="51.01628475822508335113525390625" lon="12.123308479785919189453125">
        <ele>260.600006103515625</ele>
        <time>2018-08-18T08:04:04.000Z</time>
      </trkpt>
      <trkpt lat="51.016832180321216583251953125" lon="12.12330319918692111968994140625">
        <ele>260.20001220703125</ele>
        <time>2018-08-18T08:04:11.000Z</time>
      </trkpt>
      <trkpt lat="51.017373986542224884033203125" lon="12.12330705486238002777099609375">
        <ele>260</ele>
        <time>2018-08-18T08:04:18.000Z</time>
      </trkpt>
      <trkpt lat="51.0179333947598934173583984375" lon="12.12339766323566436767578125">
        <ele>259.79998779296875</ele>
        <time>2018-08-18T08:04:25.000Z</time>
      </trkpt>
      <trkpt lat="51.01809022016823291778564453125" lon="12.12345876730978488922119140625">
        <ele>259.600006103515625</ele>
        <time>2018-08-18T08:04:27.000Z</time>
      </trkpt>
      <trkpt lat="51.01863102056086063385009765625" lon="12.12377476505935192108154296875">
        <ele>259.20001220703125</ele>
        <time>2018-08-18T08:04:34.000Z</time>
      </trkpt>
      <trkpt lat="51.01918372325599193572998046875" lon="12.12415463291108608245849609375">
        <ele>258.600006103515625</ele>
        <time>2018-08-18T08:04:41.000Z</time>
      </trkpt>
      <trkpt lat="51.019684374332427978515625" lon="12.12449409998953342437744140625">
        <ele>257.600006103515625</ele>
        <time>2018-08-18T08:04:47.000Z</time>
      </trkpt>
      <trkpt lat="51.01976819336414337158203125" lon="12.12455076165497303009033203125">
        <ele>257.399993896484375</ele>
        <time>2018-08-18T08:04:48.000Z</time>
      </trkpt>
      <trkpt lat="51.02017999626696109771728515625" lon="12.12483423762023448944091796875">
        <ele>256.600006103515625</ele>
        <time>2018-08-18T08:04:53.000Z</time>
      </trkpt>
      <trkpt lat="51.02051384747028350830078125" lon="12.1250621415674686431884765625">
        <ele>255.600006103515625</ele>
        <time>2018-08-18T08:04:57.000Z</time>
      </trkpt>
      <trkpt lat="51.02103176526725292205810546875" lon="12.12541292421519756317138671875">
        <ele>254.8000030517578125</ele>
        <time>2018-08-18T08:05:03.000Z</time>
      </trkpt>
      <trkpt lat="51.0212051868438720703125" lon="12.12552993558347225189208984375">
        <ele>254.399993896484375</ele>
        <time>2018-08-18T08:05:05.000Z</time>
      </trkpt>
      <trkpt lat="51.02171656675636768341064453125" lon="12.12587694637477397918701171875">
        <ele>253.1999969482421875</ele>
        <time>2018-08-18T08:05:11.000Z</time>
      </trkpt>
      <trkpt lat="51.022046394646167755126953125" lon="12.12611633352935314178466796875">
        <ele>252.1999969482421875</ele>
        <time>2018-08-18T08:05:15.000Z</time>
      </trkpt>
      <trkpt lat="51.02212392725050449371337890625" lon="12.12618892081081867218017578125">
        <ele>252</ele>
        <time>2018-08-18T08:05:16.000Z</time>
      </trkpt>
      <trkpt lat="51.022640503942966461181640625" lon="12.1264994703233242034912109375">
        <ele>250.8000030517578125</ele>
        <time>2018-08-18T08:05:22.000Z</time>
      </trkpt>
      <trkpt lat="51.02309253998100757598876953125" lon="12.12673592381179332733154296875">
        <ele>249.600006103515625</ele>
        <time>2018-08-18T08:05:27.000Z</time>
      </trkpt>
      <trkpt lat="51.0232750140130519866943359375" lon="12.1268342435359954833984375">
        <ele>249.399993896484375</ele>
        <time>2018-08-18T08:05:29.000Z</time>
      </trkpt>
      <trkpt lat="51.0236471705138683319091796875" lon="12.12701487354934215545654296875">
        <ele>248.399993896484375</ele>
        <time>2018-08-18T08:05:33.000Z</time>
      </trkpt>
      <trkpt lat="51.02411739528179168701171875" lon="12.12717798538506031036376953125">
        <ele>247</ele>
        <time>2018-08-18T08:05:38.000Z</time>
      </trkpt>
      <trkpt lat="51.0243951715528964996337890625" lon="12.12729357182979583740234375">
        <ele>246</ele>
        <time>2018-08-18T08:05:41.000Z</time>
      </trkpt>
      <trkpt lat="51.0244836844503879547119140625" lon="12.12735660374164581298828125">
        <ele>245.8000030517578125</ele>
        <time>2018-08-18T08:05:42.000Z</time>
      </trkpt>
      <trkpt lat="51.02476573549211025238037109375" lon="12.1277725137770175933837890625">
        <ele>245</ele>
        <time>2018-08-18T08:05:46.000Z</time>
      </trkpt>
      <trkpt lat="51.024829186499118804931640625" lon="12.12788960896432399749755859375">
        <ele>244.600006103515625</ele>
        <time>2018-08-18T08:05:47.000Z</time>
      </trkpt>
      <trkpt lat="51.02505155839025974273681640625" lon="12.1281678043305873870849609375">
        <ele>243.1999969482421875</ele>
        <time>2018-08-18T08:05:50.000Z</time>
      </trkpt>
      <trkpt lat="51.0252977348864078521728515625" lon="12.12829864583909511566162109375">
        <ele>241.8000030517578125</ele>
        <time>2018-08-18T08:05:53.000Z</time>
      </trkpt>
      <trkpt lat="51.025464534759521484375" lon="12.128395624458789825439453125">
        <ele>241</ele>
        <time>2018-08-18T08:05:55.000Z</time>
      </trkpt>
      <trkpt lat="51.0255495272576808929443359375" lon="12.12845220230519771575927734375">
        <ele>241</ele>
        <time>2018-08-18T08:05:56.000Z</time>
      </trkpt>
      <trkpt lat="51.025993935763835906982421875" lon="12.12875193916261196136474609375">
        <ele>239.8000030517578125</ele>
        <time>2018-08-18T08:06:01.000Z</time>
      </trkpt>
      <trkpt lat="51.02626626379787921905517578125" lon="12.128939442336559295654296875">
        <ele>238.600006103515625</ele>
        <time>2018-08-18T08:06:04.000Z</time>
      </trkpt>
      <trkpt lat="51.02663322351872920989990234375" lon="12.12918980978429317474365234375">
        <ele>237.399993896484375</ele>
        <time>2018-08-18T08:06:08.000Z</time>
      </trkpt>
      <trkpt lat="51.02700353600084781646728515625" lon="12.1294378302991390228271484375">
        <ele>236.1999969482421875</ele>
        <time>2018-08-18T08:06:12.000Z</time>
      </trkpt>
      <trkpt lat="51.027455069124698638916015625" lon="12.1297425962984561920166015625">
        <ele>235</ele>
        <time>2018-08-18T08:06:17.000Z</time>
      </trkpt>
      <trkpt lat="51.02789319120347499847412109375" lon="12.13004493154585361480712890625">
        <ele>233.600006103515625</ele>
        <time>2018-08-18T08:06:22.000Z</time>
      </trkpt>
      <trkpt lat="51.02832620032131671905517578125" lon="12.13033913634717464447021484375">
        <ele>232.399993896484375</ele>
        <time>2018-08-18T08:06:27.000Z</time>
      </trkpt>
      <trkpt lat="51.0287649929523468017578125" lon="12.13063183240592479705810546875">
        <ele>231.1999969482421875</ele>
        <time>2018-08-18T08:06:32.000Z</time>
      </trkpt>
      <trkpt lat="51.02936220355331897735595703125" lon="12.1309031546115875244140625">
        <ele>230.1999969482421875</ele>
        <time>2018-08-18T08:06:38.000Z</time>
      </trkpt>
      <trkpt lat="51.02969395928084850311279296875" lon="12.13096023537218570709228515625">
        <ele>228.8000030517578125</ele>
        <time>2018-08-18T08:06:41.000Z</time>
      </trkpt>
      <trkpt lat="51.030043400824069976806640625" lon="12.130935005843639373779296875">
        <ele>227.8000030517578125</ele>
        <time>2018-08-18T08:06:44.000Z</time>
      </trkpt>
      <trkpt lat="51.03028488345444202423095703125" lon="12.1308902464807033538818359375">
        <ele>226.600006103515625</ele>
        <time>2018-08-18T08:06:46.000Z</time>
      </trkpt>
      <trkpt lat="51.03053080849349498748779296875" lon="12.13083065114915370941162109375">
        <ele>225.1999969482421875</ele>
        <time>2018-08-18T08:06:48.000Z</time>
      </trkpt>
      <trkpt lat="51.03077271021902561187744140625" lon="12.13076527230441570281982421875">
        <ele>223.8000030517578125</ele>
        <time>2018-08-18T08:06:50.000Z</time>
      </trkpt>
      <trkpt lat="51.03101762942969799041748046875" lon="12.13069804944097995758056640625">
        <ele>222.8000030517578125</ele>
        <time>2018-08-18T08:06:52.000Z</time>
      </trkpt>
      <trkpt lat="51.03126606903970241546630859375" lon="12.13062864728271961212158203125">
        <ele>221.600006103515625</ele>
        <time>2018-08-18T08:06:54.000Z</time>
      </trkpt>
      <trkpt lat="51.0315194539725780487060546875" lon="12.13056075386703014373779296875">
        <ele>220.1999969482421875</ele>
        <time>2018-08-18T08:06:56.000Z</time>
      </trkpt>
      <trkpt lat="51.031770408153533935546875" lon="12.13049135170876979827880859375">
        <ele>218.600006103515625</ele>
        <time>2018-08-18T08:06:58.000Z</time>
      </trkpt>
      <trkpt lat="51.03189236484467983245849609375" lon="12.13045991957187652587890625">
        <ele>217.1999969482421875</ele>
        <time>2018-08-18T08:06:59.000Z</time>
      </trkpt>
      <trkpt lat="51.0321366973221302032470703125" lon="12.13039529509842395782470703125">
        <ele>215.8000030517578125</ele>
        <time>2018-08-18T08:07:01.000Z</time>
      </trkpt>
      <trkpt lat="51.0323801077902317047119140625" lon="12.13032823987305164337158203125">
        <ele>214.399993896484375</ele>
        <time>2018-08-18T08:07:03.000Z</time>
      </trkpt>
      <trkpt lat="51.03260952048003673553466796875" lon="12.1302408166229724884033203125">
        <ele>213</ele>
        <time>2018-08-18T08:07:05.000Z</time>
      </trkpt>
      <trkpt lat="51.0328151285648345947265625" lon="12.13013461790978908538818359375">
        <ele>211.399993896484375</ele>
        <time>2018-08-18T08:07:07.000Z</time>
      </trkpt>
      <trkpt lat="51.03300112299621105194091796875" lon="12.13001978583633899688720703125">
        <ele>210</ele>
        <time>2018-08-18T08:07:09.000Z</time>
      </trkpt>
      <trkpt lat="51.03318418376147747039794921875" lon="12.12988860905170440673828125">
        <ele>208.600006103515625</ele>
        <time>2018-08-18T08:07:11.000Z</time>
      </trkpt>
      <trkpt lat="51.03334846906363964080810546875" lon="12.12976028211414813995361328125">
        <ele>207.1999969482421875</ele>
        <time>2018-08-18T08:07:13.000Z</time>
      </trkpt>
      <trkpt lat="51.0334261693060398101806640625" lon="12.129715271294116973876953125">
        <ele>206.399993896484375</ele>
        <time>2018-08-18T08:07:14.000Z</time>
      </trkpt>
      <trkpt lat="51.03350671939551830291748046875" lon="12.12970328517258167266845703125">
        <ele>205.8000030517578125</ele>
        <time>2018-08-18T08:07:15.000Z</time>
      </trkpt>
      <trkpt lat="51.03365021757781505584716796875" lon="12.129807136952877044677734375">
        <ele>204.1999969482421875</ele>
        <time>2018-08-18T08:07:17.000Z</time>
      </trkpt>
      <trkpt lat="51.03375784121453762054443359375" lon="12.1299933828413486480712890625">
        <ele>203</ele>
        <time>2018-08-18T08:07:19.000Z</time>
      </trkpt>
      <trkpt lat="51.03385976515710353851318359375" lon="12.130174599587917327880859375">
        <ele>201.8000030517578125</ele>
        <time>2018-08-18T08:07:21.000Z</time>
      </trkpt>
      <trkpt lat="51.033963449299335479736328125" lon="12.13035170920193195343017578125">
        <ele>200.600006103515625</ele>
        <time>2018-08-18T08:07:23.000Z</time>
      </trkpt>
      <trkpt lat="51.03412874042987823486328125" lon="12.13062043301761150360107421875">
        <ele>199.600006103515625</ele>
        <time>2018-08-18T08:07:26.000Z</time>
      </trkpt>
      <trkpt lat="51.03453853167593479156494140625" lon="12.13132434524595737457275390625">
        <ele>199.1999969482421875</ele>
        <time>2018-08-18T08:07:33.000Z</time>
      </trkpt>
      <trkpt lat="51.0349419526755809783935546875" lon="12.131998501718044281005859375">
        <ele>199</ele>
        <time>2018-08-18T08:07:39.000Z</time>
      </trkpt>
      <trkpt lat="51.0351566970348358154296875" lon="12.13235733099281787872314453125">
        <ele>198.1999969482421875</ele>
        <time>2018-08-18T08:07:42.000Z</time>
      </trkpt>
      <trkpt lat="51.035450398921966552734375" lon="12.13284448720514774322509765625">
        <ele>196.8000030517578125</ele>
        <time>2018-08-18T08:07:46.000Z</time>
      </trkpt>
      <trkpt lat="51.0356698371469974517822265625" lon="12.13320809416472911834716796875">
        <ele>195.600006103515625</ele>
        <time>2018-08-18T08:07:49.000Z</time>
      </trkpt>
      <trkpt lat="51.03589036501944065093994140625" lon="12.13356415741145610809326171875">
        <ele>194</ele>
        <time>2018-08-18T08:07:52.000Z</time>
      </trkpt>
      <trkpt lat="51.03610284626483917236328125" lon="12.13391938246786594390869140625">
        <ele>192.600006103515625</ele>
        <time>2018-08-18T08:07:55.000Z</time>
      </trkpt>
      <trkpt lat="51.03652395308017730712890625" lon="12.13463771156966686248779296875">
        <ele>191.600006103515625</ele>
        <time>2018-08-18T08:08:01.000Z</time>
      </trkpt>
      <trkpt lat="51.03681229054927825927734375" lon="12.13512293994426727294921875">
        <ele>190.399993896484375</ele>
        <time>2018-08-18T08:08:05.000Z</time>
      </trkpt>
      <trkpt lat="51.03717028163373470306396484375" lon="12.13572383858263492584228515625">
        <ele>189.399993896484375</ele>
        <time>2018-08-18T08:08:10.000Z</time>
      </trkpt>
      <trkpt lat="51.03738636709749698638916015625" lon="12.1360893733799457550048828125">
        <ele>188.1999969482421875</ele>
        <time>2018-08-18T08:08:13.000Z</time>
      </trkpt>
      <trkpt lat="51.0376141034066677093505859375" lon="12.13646362535655498504638671875">
        <ele>186.8000030517578125</ele>
        <time>2018-08-18T08:08:16.000Z</time>
      </trkpt>
      <trkpt lat="51.0378464497625827789306640625" lon="12.1368457563221454620361328125">
        <ele>185.8000030517578125</ele>
        <time>2018-08-18T08:08:19.000Z</time>
      </trkpt>
      <trkpt lat="51.03800411336123943328857421875" lon="12.13709897361695766448974609375">
        <ele>184.8000030517578125</ele>
        <time>2018-08-18T08:08:21.000Z</time>
      </trkpt>
      <trkpt lat="51.03821500204503536224365234375" lon="12.13744573295116424560546875">
        <ele>183.399993896484375</ele>
        <time>2018-08-18T08:08:24.000Z</time>
      </trkpt>
      <trkpt lat="51.03835078887641429901123046875" lon="12.13764446787536144256591796875">
        <ele>182.399993896484375</ele>
        <time>2018-08-18T08:08:26.000Z</time>
      </trkpt>
      <trkpt lat="51.038528569042682647705078125" lon="12.13773935101926326751708984375">
        <ele>181.1999969482421875</ele>
        <time>2018-08-18T08:08:28.000Z</time>
      </trkpt>
      <trkpt lat="51.0387231968343257904052734375" lon="12.13770951144397258758544921875">
        <ele>180.1999969482421875</ele>
        <time>2018-08-18T08:08:30.000Z</time>
      </trkpt>
      <trkpt lat="51.0388231091201305389404296875" lon="12.13767849840223789215087890625">
        <ele>179.399993896484375</ele>
        <time>2018-08-18T08:08:31.000Z</time>
      </trkpt>
      <trkpt lat="51.03892385959625244140625" lon="12.1376462280750274658203125">
        <ele>178.8000030517578125</ele>
        <time>2018-08-18T08:08:32.000Z</time>
      </trkpt>
      <trkpt lat="51.039129383862018585205078125" lon="12.137582190334796905517578125">
        <ele>177.8000030517578125</ele>
        <time>2018-08-18T08:08:34.000Z</time>
      </trkpt>
      <trkpt lat="51.039341278374195098876953125" lon="12.1375206671655178070068359375">
        <ele>176.600006103515625</ele>
        <time>2018-08-18T08:08:36.000Z</time>
      </trkpt>
      <trkpt lat="51.0395570285618305206298828125" lon="12.137458138167858123779296875">
        <ele>175.600006103515625</ele>
        <time>2018-08-18T08:08:38.000Z</time>
      </trkpt>
      <trkpt lat="51.0397779755294322967529296875" lon="12.13739351369440555572509765625">
        <ele>174.1999969482421875</ele>
        <time>2018-08-18T08:08:40.000Z</time>
      </trkpt>
      <trkpt lat="51.0399999283254146575927734375" lon="12.137328721582889556884765625">
        <ele>172.8000030517578125</ele>
        <time>2018-08-18T08:08:42.000Z</time>
      </trkpt>
      <trkpt lat="51.04022934101521968841552734375" lon="12.13726426474750041961669921875">
        <ele>171.600006103515625</ele>
        <time>2018-08-18T08:08:44.000Z</time>
      </trkpt>
      <trkpt lat="51.0404599271714687347412109375" lon="12.13719821535050868988037109375">
        <ele>170.399993896484375</ele>
        <time>2018-08-18T08:08:46.000Z</time>
      </trkpt>
      <trkpt lat="51.0405735857784748077392578125" lon="12.13715848512947559356689453125">
        <ele>169.1999969482421875</ele>
        <time>2018-08-18T08:08:47.000Z</time>
      </trkpt>
      <trkpt lat="51.0408049263060092926025390625" lon="12.13708765804767608642578125">
        <ele>167.8000030517578125</ele>
        <time>2018-08-18T08:08:49.000Z</time>
      </trkpt>
      <trkpt lat="51.04111597873270511627197265625" lon="12.1369909308850765228271484375">
        <ele>166.399993896484375</ele>
        <time>2018-08-18T08:08:52.000Z</time>
      </trkpt>
      <trkpt lat="51.041299961507320404052734375" lon="12.13690258562564849853515625">
        <ele>164.8000030517578125</ele>
        <time>2018-08-18T08:08:54.000Z</time>
      </trkpt>
      <trkpt lat="51.04143247939646244049072265625" lon="12.13670854456722736358642578125">
        <ele>163.8000030517578125</ele>
        <time>2018-08-18T08:08:56.000Z</time>
      </trkpt>
      <trkpt lat="51.0415257699787616729736328125" lon="12.1364635415375232696533203125">
        <ele>162.399993896484375</ele>
        <time>2018-08-18T08:08:58.000Z</time>
      </trkpt>
      <trkpt lat="51.041613779962062835693359375" lon="12.13622524403035640716552734375">
        <ele>161</ele>
        <time>2018-08-18T08:09:00.000Z</time>
      </trkpt>
      <trkpt lat="51.04167069308459758758544921875" lon="12.1361406706273555755615234375">
        <ele>160.399993896484375</ele>
        <time>2018-08-18T08:09:01.000Z</time>
      </trkpt>
      <trkpt lat="51.0417406819760799407958984375" lon="12.13609029538929462432861328125">
        <ele>159.8000030517578125</ele>
        <time>2018-08-18T08:09:02.000Z</time>
      </trkpt>
      <trkpt lat="51.04204636998474597930908203125" lon="12.1361654810607433319091796875">
        <ele>158.8000030517578125</ele>
        <time>2018-08-18T08:09:07.000Z</time>
      </trkpt>
      <trkpt lat="51.04254274629056453704833984375" lon="12.136545516550540924072265625">
        <ele>160.399993896484375</ele>
        <time>2018-08-18T08:09:19.000Z</time>
      </trkpt>
      <trkpt lat="51.04261265136301517486572265625" lon="12.13661030866205692291259765625">
        <ele>160.8000030517578125</ele>
        <time>2018-08-18T08:09:21.000Z</time>
      </trkpt>
      <trkpt lat="51.0427421517670154571533203125" lon="12.1367391385138034820556640625">
        <ele>161.8000030517578125</ele>
        <time>2018-08-18T08:09:25.000Z</time>
      </trkpt>
      <trkpt lat="51.0428715683519840240478515625" lon="12.136866711080074310302734375">
        <ele>163.1999969482421875</ele>
        <time>2018-08-18T08:09:29.000Z</time>
      </trkpt>
      <trkpt lat="51.042975001037120819091796875" lon="12.13702957145869731903076171875">
        <ele>164.399993896484375</ele>
        <time>2018-08-18T08:09:33.000Z</time>
      </trkpt>
      <trkpt lat="51.04306359775364398956298828125" lon="12.13722721673548221588134765625">
        <ele>165.600006103515625</ele>
        <time>2018-08-18T08:09:37.000Z</time>
      </trkpt>
      <trkpt lat="51.04311070404946804046630859375" lon="12.13747716508805751800537109375">
        <ele>166.8000030517578125</ele>
        <time>2018-08-18T08:09:41.000Z</time>
      </trkpt>
      <trkpt lat="51.04313082061707973480224609375" lon="12.13766575790941715240478515625">
        <ele>167.8000030517578125</ele>
        <time>2018-08-18T08:09:44.000Z</time>
      </trkpt>
      <trkpt lat="51.0431542061269283294677734375" lon="12.13803741149604320526123046875">
        <ele>169</ele>
        <time>2018-08-18T08:09:50.000Z</time>
      </trkpt>
      <trkpt lat="51.0431424714624881744384765625" lon="12.13835776783525943756103515625">
        <ele>170</ele>
        <time>2018-08-18T08:09:55.000Z</time>
      </trkpt>
      <trkpt lat="51.04312411509454250335693359375" lon="12.1386713348329067230224609375">
        <ele>171</ele>
        <time>2018-08-18T08:10:00.000Z</time>
      </trkpt>
      <trkpt lat="51.043104417622089385986328125" lon="12.138972245156764984130859375">
        <ele>172.399993896484375</ele>
        <time>2018-08-18T08:10:05.000Z</time>
      </trkpt>
      <trkpt lat="51.04308731853961944580078125" lon="12.13927843607962131500244140625">
        <ele>173.600006103515625</ele>
        <time>2018-08-18T08:10:10.000Z</time>
      </trkpt>
      <trkpt lat="51.04308907873928546905517578125" lon="12.1395051665604114532470703125">
        <ele>174.600006103515625</ele>
        <time>2018-08-18T08:10:14.000Z</time>
      </trkpt>
      <trkpt lat="51.04310810565948486328125" lon="12.1397544443607330322265625">
        <ele>175.8000030517578125</ele>
        <time>2018-08-18T08:10:18.000Z</time>
      </trkpt>
      <trkpt lat="51.04317658580839633941650390625" lon="12.13997731916606426239013671875">
        <ele>176.8000030517578125</ele>
        <time>2018-08-18T08:10:22.000Z</time>
      </trkpt>
      <trkpt lat="51.04330181144177913665771484375" lon="12.140199355781078338623046875">
        <ele>178</ele>
        <time>2018-08-18T08:10:27.000Z</time>
      </trkpt>
      <trkpt lat="51.043367274105548858642578125" lon="12.14028040878474712371826171875">
        <ele>178.600006103515625</ele>
        <time>2018-08-18T08:10:29.000Z</time>
      </trkpt>
      <trkpt lat="51.0434418730437755584716796875" lon="12.14031594805419445037841796875">
        <ele>179.1999969482421875</ele>
        <time>2018-08-18T08:10:31.000Z</time>
      </trkpt>
      <trkpt lat="51.043565757572650909423828125" lon="12.1402441151440143585205078125">
        <ele>180</ele>
        <time>2018-08-18T08:10:34.000Z</time>
      </trkpt>
      <trkpt lat="51.043609678745269775390625" lon="12.14021184481680393218994140625">
        <ele>180.1999969482421875</ele>
        <time>2018-08-18T08:10:35.000Z</time>
      </trkpt>
      <trkpt lat="51.04397638700902462005615234375" lon="12.1398893930017948150634765625">
        <ele>181.1999969482421875</ele>
        <time>2018-08-18T08:10:44.000Z</time>
      </trkpt>
      <trkpt lat="51.0440131835639476776123046875" lon="12.13984941132366657257080078125">
        <ele>181.399993896484375</ele>
        <time>2018-08-18T08:10:45.000Z</time>
      </trkpt>
      <trkpt lat="51.04416648857295513153076171875" lon="12.13970188982784748077392578125">
        <ele>182.1999969482421875</ele>
        <time>2018-08-18T08:10:49.000Z</time>
      </trkpt>
      <trkpt lat="51.04420286603271961212158203125" lon="12.1396605670452117919921875">
        <ele>182.399993896484375</ele>
        <time>2018-08-18T08:10:50.000Z</time>
      </trkpt>
      <trkpt lat="51.04438693262636661529541015625" lon="12.13946811854839324951171875">
        <ele>183.600006103515625</ele>
        <time>2018-08-18T08:10:55.000Z</time>
      </trkpt>
      <trkpt lat="51.04457871057093143463134765625" lon="12.13926502503454685211181640625">
        <ele>184.600006103515625</ele>
        <time>2018-08-18T08:11:00.000Z</time>
      </trkpt>
      <trkpt lat="51.04482983238995075225830078125" lon="12.1390267275273799896240234375">
        <ele>185.399993896484375</ele>
        <time>2018-08-18T08:11:06.000Z</time>
      </trkpt>
      <trkpt lat="51.04503451846539974212646484375" lon="12.13882044889032840728759765625">
        <ele>186.600006103515625</ele>
        <time>2018-08-18T08:11:11.000Z</time>
      </trkpt>
      <trkpt lat="51.04530424810945987701416015625" lon="12.13855625130236148834228515625">
        <ele>187.8000030517578125</ele>
        <time>2018-08-18T08:11:17.000Z</time>
      </trkpt>
      <trkpt lat="51.04539745487272739410400390625" lon="12.1384765394032001495361328125">
        <ele>188</ele>
        <time>2018-08-18T08:11:19.000Z</time>
      </trkpt>
      <trkpt lat="51.04568302631378173828125" lon="12.13846153579652309417724609375">
        <ele>188.399993896484375</ele>
        <time>2018-08-18T08:11:24.000Z</time>
      </trkpt>
      <trkpt lat="51.0460513271391391754150390625" lon="12.1384929679334163665771484375">
        <ele>188.8000030517578125</ele>
        <time>2018-08-18T08:11:30.000Z</time>
      </trkpt>
      <trkpt lat="51.04662523604929447174072265625" lon="12.13845851831138134002685546875">
        <ele>189</ele>
        <time>2018-08-18T08:11:39.000Z</time>
      </trkpt>
      <trkpt lat="51.0472046770155429840087890625" lon="12.13841862045228481292724609375">
        <ele>188.8000030517578125</ele>
        <time>2018-08-18T08:11:48.000Z</time>
      </trkpt>
      <trkpt lat="51.04725421406328678131103515625" lon="12.1384306065738201141357421875">
        <ele>188.8000030517578125</ele>
        <time>2018-08-18T08:11:49.000Z</time>
      </trkpt>
      <trkpt lat="51.0476043261587619781494140625" lon="12.1385724283754825592041015625">
        <ele>187.8000030517578125</ele>
        <time>2018-08-18T08:11:56.000Z</time>
      </trkpt>
      <trkpt lat="51.0479060746729373931884765625" lon="12.13863135315477848052978515625">
        <ele>186.600006103515625</ele>
        <time>2018-08-18T08:12:01.000Z</time>
      </trkpt>
      <trkpt lat="51.04796986095607280731201171875" lon="12.1387058682739734649658203125">
        <ele>186.600006103515625</ele>
        <time>2018-08-18T08:12:02.000Z</time>
      </trkpt>
      <trkpt lat="51.04811402969062328338623046875" lon="12.1388436667621135711669921875">
        <ele>186.600006103515625</ele>
        <time>2018-08-18T08:12:04.000Z</time>
      </trkpt>
      <trkpt lat="51.04844578541815280914306640625" lon="12.13906846940517425537109375">
        <ele>185.600006103515625</ele>
        <time>2018-08-18T08:12:08.000Z</time>
      </trkpt>
      <trkpt lat="51.048720292747020721435546875" lon="12.1391809545457363128662109375">
        <ele>184.399993896484375</ele>
        <time>2018-08-18T08:12:11.000Z</time>
      </trkpt>
      <trkpt lat="51.04900695383548736572265625" lon="12.13928380049765110015869140625">
        <ele>183</ele>
        <time>2018-08-18T08:12:14.000Z</time>
      </trkpt>
      <trkpt lat="51.04929135181009769439697265625" lon="12.13937767781317234039306640625">
        <ele>181.8000030517578125</ele>
        <time>2018-08-18T08:12:17.000Z</time>
      </trkpt>
      <trkpt lat="51.0495891608297824859619140625" lon="12.13947574608027935028076171875">
        <ele>180.600006103515625</ele>
        <time>2018-08-18T08:12:20.000Z</time>
      </trkpt>
      <trkpt lat="51.049964167177677154541015625" lon="12.13957138359546661376953125">
        <ele>178.8000030517578125</ele>
        <time>2018-08-18T08:12:24.000Z</time>
      </trkpt>
      <trkpt lat="51.0501551069319248199462890625" lon="12.139571718871593475341796875">
        <ele>177.600006103515625</ele>
        <time>2018-08-18T08:12:27.000Z</time>
      </trkpt>
      <trkpt lat="51.05020279996097087860107421875" lon="12.13957062922418117523193359375">
        <ele>176.8000030517578125</ele>
        <time>2018-08-18T08:12:28.000Z</time>
      </trkpt>
      <trkpt lat="51.05023900978267192840576171875" lon="12.1395953558385372161865234375">
        <ele>176.399993896484375</ele>
        <time>2018-08-18T08:12:29.000Z</time>
      </trkpt>
      <trkpt lat="51.05029952712357044219970703125" lon="12.1398429572582244873046875">
        <ele>175.399993896484375</ele>
        <time>2018-08-18T08:12:33.000Z</time>
      </trkpt>
      <trkpt lat="51.05030841194093227386474609375" lon="12.14006113819777965545654296875">
        <ele>174.399993896484375</ele>
        <time>2018-08-18T08:12:36.000Z</time>
      </trkpt>
      <trkpt lat="51.0503084957599639892578125" lon="12.1401433646678924560546875">
        <ele>174.1999969482421875</ele>
        <time>2018-08-18T08:12:37.000Z</time>
      </trkpt>
      <trkpt lat="51.050346381962299346923828125" lon="12.1410377137362957000732421875">
        <ele>173.8000030517578125</ele>
        <time>2018-08-18T08:12:46.000Z</time>
      </trkpt>
      <trkpt lat="51.05038016103208065032958984375" lon="12.1419315598905086517333984375">
        <ele>174</ele>
        <time>2018-08-18T08:12:54.000Z</time>
      </trkpt>
      <trkpt lat="51.05047202669084072113037109375" lon="12.14286438189446926116943359375">
        <ele>174</ele>
        <time>2018-08-18T08:13:02.000Z</time>
      </trkpt>
      <trkpt lat="51.050530113279819488525390625" lon="12.14342094026505947113037109375">
        <ele>173.600006103515625</ele>
        <time>2018-08-18T08:13:07.000Z</time>
      </trkpt>
      <trkpt lat="51.05068777687847614288330078125" lon="12.143916897475719451904296875">
        <ele>173.600006103515625</ele>
        <time>2018-08-18T08:13:13.000Z</time>
      </trkpt>
      <trkpt lat="51.05074577964842319488525390625" lon="12.14396811090409755706787109375">
        <ele>173.600006103515625</ele>
        <time>2018-08-18T08:13:14.000Z</time>
      </trkpt>
      <trkpt lat="51.05092112906277179718017578125" lon="12.1441360004246234893798828125">
        <ele>173.600006103515625</ele>
        <time>2018-08-18T08:13:17.000Z</time>
      </trkpt>
      <trkpt lat="51.05151507072150707244873046875" lon="12.1443535946309566497802734375">
        <ele>173.399993896484375</ele>
        <time>2018-08-18T08:13:25.000Z</time>
      </trkpt>
      <trkpt lat="51.0518693737685680389404296875" lon="12.1445011161267757415771484375">
        <ele>173.1999969482421875</ele>
        <time>2018-08-18T08:13:29.000Z</time>
      </trkpt>
      <trkpt lat="51.05245493352413177490234375" lon="12.14483479969203472137451171875">
        <ele>171.8000030517578125</ele>
        <time>2018-08-18T08:13:35.000Z</time>
      </trkpt>
      <trkpt lat="51.0526726953685283660888671875" lon="12.14489012025296688079833984375">
        <ele>170.600006103515625</ele>
        <time>2018-08-18T08:13:37.000Z</time>
      </trkpt>
      <trkpt lat="51.0528986714780330657958984375" lon="12.14493253268301486968994140625">
        <ele>169.600006103515625</ele>
        <time>2018-08-18T08:13:39.000Z</time>
      </trkpt>
      <trkpt lat="51.05312339030206203460693359375" lon="12.14496874250471591949462890625">
        <ele>168.399993896484375</ele>
        <time>2018-08-18T08:13:41.000Z</time>
      </trkpt>
      <trkpt lat="51.0533281601965427398681640625" lon="12.1450161002576351165771484375">
        <ele>167</ele>
        <time>2018-08-18T08:13:43.000Z</time>
      </trkpt>
      <trkpt lat="51.053422875702381134033203125" lon="12.14506127871572971343994140625">
        <ele>166.1999969482421875</ele>
        <time>2018-08-18T08:13:44.000Z</time>
      </trkpt>
      <trkpt lat="51.05350744910538196563720703125" lon="12.14514392428100109100341796875">
        <ele>165.600006103515625</ele>
        <time>2018-08-18T08:13:45.000Z</time>
      </trkpt>
      <trkpt lat="51.05358280241489410400390625" lon="12.14525657705962657928466796875">
        <ele>164.1999969482421875</ele>
        <time>2018-08-18T08:13:46.000Z</time>
      </trkpt>
      <trkpt lat="51.05371414683759212493896484375" lon="12.14554776437580585479736328125">
        <ele>162.8000030517578125</ele>
        <time>2018-08-18T08:13:48.000Z</time>
      </trkpt>
      <trkpt lat="51.05381774716079235076904296875" lon="12.14588287286460399627685546875">
        <ele>161</ele>
        <time>2018-08-18T08:13:50.000Z</time>
      </trkpt>
      <trkpt lat="51.05389586649835109710693359375" lon="12.1462522633373737335205078125">
        <ele>159.1999969482421875</ele>
        <time>2018-08-18T08:13:52.000Z</time>
      </trkpt>
      <trkpt lat="51.0539309866726398468017578125" lon="12.14644244872033596038818359375">
        <ele>158.1999969482421875</ele>
        <time>2018-08-18T08:13:53.000Z</time>
      </trkpt>
      <trkpt lat="51.0539671964943408966064453125" lon="12.1466294489800930023193359375">
        <ele>157</ele>
        <time>2018-08-18T08:13:54.000Z</time>
      </trkpt>
      <trkpt lat="51.054034419357776641845703125" lon="12.146997414529323577880859375">
        <ele>155.1999969482421875</ele>
        <time>2018-08-18T08:13:56.000Z</time>
      </trkpt>
      <trkpt lat="51.054104827344417572021484375" lon="12.1473563276231288909912109375">
        <ele>153.399993896484375</ele>
        <time>2018-08-18T08:13:58.000Z</time>
      </trkpt>
      <trkpt lat="51.0541837848722934722900390625" lon="12.14769453741610050201416015625">
        <ele>151.399993896484375</ele>
        <time>2018-08-18T08:14:00.000Z</time>
      </trkpt>
      <trkpt lat="51.054261736571788787841796875" lon="12.14800282381474971771240234375">
        <ele>149.600006103515625</ele>
        <time>2018-08-18T08:14:02.000Z</time>
      </trkpt>
      <trkpt lat="51.0543333180248737335205078125" lon="12.1482873894274234771728515625">
        <ele>148.1999969482421875</ele>
        <time>2018-08-18T08:14:04.000Z</time>
      </trkpt>
      <trkpt lat="51.05438344180583953857421875" lon="12.14853809215128421783447265625">
        <ele>146.8000030517578125</ele>
        <time>2018-08-18T08:14:06.000Z</time>
      </trkpt>
      <trkpt lat="51.05440749786794185638427734375" lon="12.1487577818334102630615234375">
        <ele>145.600006103515625</ele>
        <time>2018-08-18T08:14:08.000Z</time>
      </trkpt>
      <trkpt lat="51.0544325597584247589111328125" lon="12.14904301799833774566650390625">
        <ele>144.600006103515625</ele>
        <time>2018-08-18T08:14:11.000Z</time>
      </trkpt>
      <trkpt lat="51.05457513593137264251708984375" lon="12.14994558133184909820556640625">
        <ele>143.8000030517578125</ele>
        <time>2018-08-18T08:14:21.000Z</time>
      </trkpt>
      <trkpt lat="51.05472165159881114959716796875" lon="12.15077471919357776641845703125">
        <ele>144</ele>
        <time>2018-08-18T08:14:30.000Z</time>
      </trkpt>
      <trkpt lat="51.05489498935639858245849609375" lon="12.151697315275669097900390625">
        <ele>143.8000030517578125</ele>
        <time>2018-08-18T08:14:39.000Z</time>
      </trkpt>
      <trkpt lat="51.0550484620034694671630859375" lon="12.15253039263188838958740234375">
        <ele>144</ele>
        <time>2018-08-18T08:14:47.000Z</time>
      </trkpt>
      <trkpt lat="51.05528105981647968292236328125" lon="12.1533282659947872161865234375">
        <ele>144.600006103515625</ele>
        <time>2018-08-18T08:14:55.000Z</time>
      </trkpt>
      <trkpt lat="51.05570166371762752532958984375" lon="12.153971828520298004150390625">
        <ele>144.8000030517578125</ele>
        <time>2018-08-18T08:15:03.000Z</time>
      </trkpt>
      <trkpt lat="51.05589461512863636016845703125" lon="12.1541496925055980682373046875">
        <ele>144.8000030517578125</ele>
        <time>2018-08-18T08:15:06.000Z</time>
      </trkpt>
      <trkpt lat="51.0564029775559902191162109375" lon="12.15446242131292819976806640625">
        <ele>144.399993896484375</ele>
        <time>2018-08-18T08:15:13.000Z</time>
      </trkpt>
      <trkpt lat="51.05675719678401947021484375" lon="12.1547528542578220367431640625">
        <ele>143.8000030517578125</ele>
        <time>2018-08-18T08:15:18.000Z</time>
      </trkpt>
      <trkpt lat="51.05694520287215709686279296875" lon="12.15497036464512348175048828125">
        <ele>143.600006103515625</ele>
        <time>2018-08-18T08:15:21.000Z</time>
      </trkpt>
      <trkpt lat="51.057205460965633392333984375" lon="12.1554341353476047515869140625">
        <ele>142.8000030517578125</ele>
        <time>2018-08-18T08:15:26.000Z</time>
      </trkpt>
      <trkpt lat="51.0575442574918270111083984375" lon="12.15621046721935272216796875">
        <ele>142.600006103515625</ele>
        <time>2018-08-18T08:15:34.000Z</time>
      </trkpt>
      <trkpt lat="51.05787643231451511383056640625" lon="12.1569707058370113372802734375">
        <ele>142.600006103515625</ele>
        <time>2018-08-18T08:15:42.000Z</time>
      </trkpt>
      <trkpt lat="51.05819209478795528411865234375" lon="12.15768568217754364013671875">
        <ele>142.8000030517578125</ele>
        <time>2018-08-18T08:15:50.000Z</time>
      </trkpt>
      <trkpt lat="51.0583016462624073028564453125" lon="12.15791258029639720916748046875">
        <ele>143</ele>
        <time>2018-08-18T08:15:53.000Z</time>
      </trkpt>
      <trkpt lat="51.0586818493902683258056640625" lon="12.1584418974816799163818359375">
        <ele>143.8000030517578125</ele>
        <time>2018-08-18T08:16:01.000Z</time>
      </trkpt>
      <trkpt lat="51.059111170470714569091796875" lon="12.1590296365320682525634765625">
        <ele>144.1999969482421875</ele>
        <time>2018-08-18T08:16:09.000Z</time>
      </trkpt>
      <trkpt lat="51.059545688331127166748046875" lon="12.15962014161050319671630859375">
        <ele>144.1999969482421875</ele>
        <time>2018-08-18T08:16:17.000Z</time>
      </trkpt>
      <trkpt lat="51.0599843971431255340576171875" lon="12.1602282486855983734130859375">
        <ele>144.399993896484375</ele>
        <time>2018-08-18T08:16:25.000Z</time>
      </trkpt>
      <trkpt lat="51.06037189252674579620361328125" lon="12.16092034243047237396240234375">
        <ele>144.600006103515625</ele>
        <time>2018-08-18T08:16:33.000Z</time>
      </trkpt>
      <trkpt lat="51.060717143118381500244140625" lon="12.16159558854997158050537109375">
        <ele>144.399993896484375</ele>
        <time>2018-08-18T08:16:40.000Z</time>
      </trkpt>
      <trkpt lat="51.06098326854407787322998046875" lon="12.162418775260448455810546875">
        <ele>143.8000030517578125</ele>
        <time>2018-08-18T08:16:47.000Z</time>
      </trkpt>
      <trkpt lat="51.0612091608345508575439453125" lon="12.16320139355957508087158203125">
        <ele>142.8000030517578125</ele>
        <time>2018-08-18T08:16:53.000Z</time>
      </trkpt>
      <trkpt lat="51.06137922964990139007568359375" lon="12.1637191437184810638427734375">
        <ele>141.8000030517578125</ele>
        <time>2018-08-18T08:16:57.000Z</time>
      </trkpt>
      <trkpt lat="51.061501689255237579345703125" lon="12.16410513035953044891357421875">
        <ele>140.8000030517578125</ele>
        <time>2018-08-18T08:17:00.000Z</time>
      </trkpt>
      <trkpt lat="51.06165650300681591033935546875" lon="12.1646025963127613067626953125">
        <ele>139.8000030517578125</ele>
        <time>2018-08-18T08:17:04.000Z</time>
      </trkpt>
      <trkpt lat="51.06190703809261322021484375" lon="12.16544757597148418426513671875">
        <ele>138.8000030517578125</ele>
        <time>2018-08-18T08:17:11.000Z</time>
      </trkpt>
      <trkpt lat="51.06201860122382640838623046875" lon="12.165786959230899810791015625">
        <ele>138.8000030517578125</ele>
        <time>2018-08-18T08:17:14.000Z</time>
      </trkpt>
      <trkpt lat="51.0623460821807384490966796875" lon="12.16647922061383724212646484375">
        <ele>138.8000030517578125</ele>
        <time>2018-08-18T08:17:21.000Z</time>
      </trkpt>
      <trkpt lat="51.06271815486252307891845703125" lon="12.1672442369163036346435546875">
        <ele>138.8000030517578125</ele>
        <time>2018-08-18T08:17:29.000Z</time>
      </trkpt>
      <trkpt lat="51.0628925822675228118896484375" lon="12.16758261434733867645263671875">
        <ele>138.8000030517578125</ele>
        <time>2018-08-18T08:17:33.000Z</time>
      </trkpt>
      <trkpt lat="51.06335341930389404296875" lon="12.16809340752661228179931640625">
        <ele>139</ele>
        <time>2018-08-18T08:17:41.000Z</time>
      </trkpt>
      <trkpt lat="51.0638394020497798919677734375" lon="12.16862582601606845855712890625">
        <ele>139</ele>
        <time>2018-08-18T08:17:48.000Z</time>
      </trkpt>
      <trkpt lat="51.06425791047513484954833984375" lon="12.169053889811038970947265625">
        <ele>137.8000030517578125</ele>
        <time>2018-08-18T08:17:54.000Z</time>
      </trkpt>
      <trkpt lat="51.0647060908377170562744140625" lon="12.16963903047144412994384765625">
        <ele>137.1999969482421875</ele>
        <time>2018-08-18T08:18:01.000Z</time>
      </trkpt>
      <trkpt lat="51.06499551795423030853271484375" lon="12.17027488164603710174560546875">
        <ele>136.600006103515625</ele>
        <time>2018-08-18T08:18:07.000Z</time>
      </trkpt>
      <trkpt lat="51.06522568501532077789306640625" lon="12.1710799634456634521484375">
        <ele>136.399993896484375</ele>
        <time>2018-08-18T08:18:14.000Z</time>
      </trkpt>
      <trkpt lat="51.06544344685971736907958984375" lon="12.17189191840589046478271484375">
        <ele>136.1999969482421875</ele>
        <time>2018-08-18T08:18:21.000Z</time>
      </trkpt>
      <trkpt lat="51.06565517373383045196533203125" lon="12.1726884506642818450927734375">
        <ele>136.1999969482421875</ele>
        <time>2018-08-18T08:18:28.000Z</time>
      </trkpt>
      <trkpt lat="51.0657151043415069580078125" lon="12.17288911342620849609375">
        <ele>136.1999969482421875</ele>
        <time>2018-08-18T08:18:30.000Z</time>
      </trkpt>
      <trkpt lat="51.0657544992864131927490234375" lon="12.17297603376209735870361328125">
        <ele>136.1999969482421875</ele>
        <time>2018-08-18T08:18:31.000Z</time>
      </trkpt>
      <trkpt lat="51.0658725164830684661865234375" lon="12.17323570512235164642333984375">
        <ele>136.1999969482421875</ele>
        <time>2018-08-18T08:18:34.000Z</time>
      </trkpt>
      <trkpt lat="51.06609120033681392669677734375" lon="12.1740679442882537841796875">
        <ele>136.1999969482421875</ele>
        <time>2018-08-18T08:18:42.000Z</time>
      </trkpt>
      <trkpt lat="51.0663174279034137725830078125" lon="12.17493153177201747894287109375">
        <ele>136.1999969482421875</ele>
        <time>2018-08-18T08:18:50.000Z</time>
      </trkpt>
      <trkpt lat="51.06642714701592922210693359375" lon="12.17548750340938568115234375">
        <ele>136.399993896484375</ele>
        <time>2018-08-18T08:18:55.000Z</time>
      </trkpt>
      <trkpt lat="51.0664565674960613250732421875" lon="12.1759508550167083740234375">
        <ele>136.399993896484375</ele>
        <time>2018-08-18T08:18:59.000Z</time>
      </trkpt>
      <trkpt lat="51.06661389581859111785888671875" lon="12.17687152326107025146484375">
        <ele>136.399993896484375</ele>
        <time>2018-08-18T08:19:07.000Z</time>
      </trkpt>
      <trkpt lat="51.06677390635013580322265625" lon="12.17778942547738552093505859375">
        <ele>136</ele>
        <time>2018-08-18T08:19:15.000Z</time>
      </trkpt>
      <trkpt lat="51.06693441979587078094482421875" lon="12.1787130273878574371337890625">
        <ele>136</ele>
        <time>2018-08-18T08:19:23.000Z</time>
      </trkpt>
      <trkpt lat="51.067093424499034881591796875" lon="12.17962958849966526031494140625">
        <ele>136</ele>
        <time>2018-08-18T08:19:31.000Z</time>
      </trkpt>
      <trkpt lat="51.0672535188496112823486328125" lon="12.1805325709283351898193359375">
        <ele>136.1999969482421875</ele>
        <time>2018-08-18T08:19:39.000Z</time>
      </trkpt>
      <trkpt lat="51.06741369701921939849853515625" lon="12.18143236823379993438720703125">
        <ele>136.399993896484375</ele>
        <time>2018-08-18T08:19:47.000Z</time>
      </trkpt>
      <trkpt lat="51.06757027097046375274658203125" lon="12.18229637481272220611572265625">
        <ele>136.600006103515625</ele>
        <time>2018-08-18T08:19:55.000Z</time>
      </trkpt>
      <trkpt lat="51.06771511025726795196533203125" lon="12.1831949986517429351806640625">
        <ele>137.1999969482421875</ele>
        <time>2018-08-18T08:20:03.000Z</time>
      </trkpt>
      <trkpt lat="51.06797687709331512451171875" lon="12.1840264834463596343994140625">
        <ele>137.399993896484375</ele>
        <time>2018-08-18T08:20:11.000Z</time>
      </trkpt>
      <trkpt lat="51.06806882657110691070556640625" lon="12.1841843985021114349365234375">
        <ele>137.399993896484375</ele>
        <time>2018-08-18T08:20:13.000Z</time>
      </trkpt>
      <trkpt lat="51.06827653013169765472412109375" lon="12.18447851948440074920654296875">
        <ele>137.399993896484375</ele>
        <time>2018-08-18T08:20:18.000Z</time>
      </trkpt>
      <trkpt lat="51.06859604828059673309326171875" lon="12.18488420359790325164794921875">
        <ele>137.8000030517578125</ele>
        <time>2018-08-18T08:20:25.000Z</time>
      </trkpt>
      <trkpt lat="51.06907733716070652008056640625" lon="12.18535459600389003753662109375">
        <ele>138.1999969482421875</ele>
        <time>2018-08-18T08:20:38.000Z</time>
      </trkpt>
      <trkpt lat="51.0695920698344707489013671875" lon="12.1858108229935169219970703125">
        <ele>137.8000030517578125</ele>
        <time>2018-08-18T08:20:50.000Z</time>
      </trkpt>
      <trkpt lat="51.0699545033276081085205078125" lon="12.18631532974541187286376953125">
        <ele>137.8000030517578125</ele>
        <time>2018-08-18T08:20:58.000Z</time>
      </trkpt>
      <trkpt lat="51.07026052661240100860595703125" lon="12.1871043182909488677978515625">
        <ele>137.1999969482421875</ele>
        <time>2018-08-18T08:21:07.000Z</time>
      </trkpt>
      <trkpt lat="51.070488430559635162353515625" lon="12.18773782253265380859375">
        <ele>137</ele>
        <time>2018-08-18T08:21:14.000Z</time>
      </trkpt>
      <trkpt lat="51.0708017461001873016357421875" lon="12.18854608945548534393310546875">
        <ele>136.8000030517578125</ele>
        <time>2018-08-18T08:21:23.000Z</time>
      </trkpt>
      <trkpt lat="51.071103997528553009033203125" lon="12.18925788067281246185302734375">
        <ele>136.8000030517578125</ele>
        <time>2018-08-18T08:21:31.000Z</time>
      </trkpt>
      <trkpt lat="51.071384958922863006591796875" lon="12.18998140655457973480224609375">
        <ele>136.8000030517578125</ele>
        <time>2018-08-18T08:21:39.000Z</time>
      </trkpt>
      <trkpt lat="51.07159785926342010498046875" lon="12.19048582948744297027587890625">
        <ele>136.8000030517578125</ele>
        <time>2018-08-18T08:21:45.000Z</time>
      </trkpt>
      <trkpt lat="51.07151580043137073516845703125" lon="12.1907662041485309600830078125">
        <ele>136.8000030517578125</ele>
        <time>2018-08-18T08:21:49.000Z</time>
      </trkpt>
      <trkpt lat="51.07145276851952075958251953125" lon="12.1908746659755706787109375">
        <ele>136.8000030517578125</ele>
        <time>2018-08-18T08:21:51.000Z</time>
      </trkpt>
      <trkpt lat="51.07185593806207180023193359375" lon="12.1912144683301448822021484375">
        <ele>136.600006103515625</ele>
        <time>2018-08-18T08:22:05.000Z</time>
      </trkpt>
      <trkpt lat="51.071883849799633026123046875" lon="12.1912912465631961822509765625">
        <ele>136.600006103515625</ele>
        <time>2018-08-18T08:22:06.000Z</time>
      </trkpt>
      <trkpt lat="51.07218970544636249542236328125" lon="12.192090041935443878173828125">
        <ele>136.600006103515625</ele>
        <time>2018-08-18T08:22:15.000Z</time>
      </trkpt>
      <trkpt lat="51.07239288277924060821533203125" lon="12.19255062751471996307373046875">
        <ele>136.600006103515625</ele>
        <time>2018-08-18T08:22:20.000Z</time>
      </trkpt>
      <trkpt lat="51.07255683280527591705322265625" lon="12.19288473017513751983642578125">
        <ele>136.600006103515625</ele>
        <time>2018-08-18T08:22:24.000Z</time>
      </trkpt>
      <trkpt lat="51.0728529654443264007568359375" lon="12.193666510283946990966796875">
        <ele>136.8000030517578125</ele>
        <time>2018-08-18T08:22:32.000Z</time>
      </trkpt>
      <trkpt lat="51.0731855593621730804443359375" lon="12.1944364719092845916748046875">
        <ele>137</ele>
        <time>2018-08-18T08:22:40.000Z</time>
      </trkpt>
      <trkpt lat="51.07359618879854679107666015625" lon="12.19516209326684474945068359375">
        <ele>137</ele>
        <time>2018-08-18T08:22:48.000Z</time>
      </trkpt>
      <trkpt lat="51.07401276938617229461669921875" lon="12.19573558308184146881103515625">
        <ele>136.600006103515625</ele>
        <time>2018-08-18T08:22:55.000Z</time>
      </trkpt>
      <trkpt lat="51.0744555853307247161865234375" lon="12.19624185003340244293212890625">
        <ele>136.1999969482421875</ele>
        <time>2018-08-18T08:23:02.000Z</time>
      </trkpt>
      <trkpt lat="51.074642501771450042724609375" lon="12.1964471228420734405517578125">
        <ele>136</ele>
        <time>2018-08-18T08:23:05.000Z</time>
      </trkpt>
      <trkpt lat="51.07512437738478183746337890625" lon="12.19700016081333160400390625">
        <ele>135.600006103515625</ele>
        <time>2018-08-18T08:23:13.000Z</time>
      </trkpt>
      <trkpt lat="51.075560152530670166015625" lon="12.19750500284135341644287109375">
        <ele>135.600006103515625</ele>
        <time>2018-08-18T08:23:20.000Z</time>
      </trkpt>
      <trkpt lat="51.076060049235820770263671875" lon="12.198072709143161773681640625">
        <ele>135.399993896484375</ele>
        <time>2018-08-18T08:23:28.000Z</time>
      </trkpt>
      <trkpt lat="51.0765027813613414764404296875" lon="12.1985620446503162384033203125">
        <ele>135.399993896484375</ele>
        <time>2018-08-18T08:23:35.000Z</time>
      </trkpt>
      <trkpt lat="51.0769493691623210906982421875" lon="12.1990833990275859832763671875">
        <ele>135.399993896484375</ele>
        <time>2018-08-18T08:23:42.000Z</time>
      </trkpt>
      <trkpt lat="51.07739168219268321990966796875" lon="12.19959461130201816558837890625">
        <ele>135.399993896484375</ele>
        <time>2018-08-18T08:23:49.000Z</time>
      </trkpt>
      <trkpt lat="51.07784430496394634246826171875" lon="12.2001083381474018096923828125">
        <ele>135.1999969482421875</ele>
        <time>2018-08-18T08:23:56.000Z</time>
      </trkpt>
      <trkpt lat="51.07829491607844829559326171875" lon="12.20062114298343658447265625">
        <ele>135.1999969482421875</ele>
        <time>2018-08-18T08:24:03.000Z</time>
      </trkpt>
      <trkpt lat="51.07873060740530490875244140625" lon="12.20112212933599948883056640625">
        <ele>135</ele>
        <time>2018-08-18T08:24:10.000Z</time>
      </trkpt>
      <trkpt lat="51.07917518354952335357666015625" lon="12.20162722282111644744873046875">
        <ele>134.8000030517578125</ele>
        <time>2018-08-18T08:24:17.000Z</time>
      </trkpt>
      <trkpt lat="51.07962780632078647613525390625" lon="12.2021387703716754913330078125">
        <ele>134.600006103515625</ele>
        <time>2018-08-18T08:24:24.000Z</time>
      </trkpt>
      <trkpt lat="51.0800748132169246673583984375" lon="12.20267429016530513763427734375">
        <ele>134.399993896484375</ele>
        <time>2018-08-18T08:24:31.000Z</time>
      </trkpt>
      <trkpt lat="51.08045074157416820526123046875" lon="12.20334668643772602081298828125">
        <ele>134.1999969482421875</ele>
        <time>2018-08-18T08:24:38.000Z</time>
      </trkpt>
      <trkpt lat="51.08055149205029010772705078125" lon="12.20355212688446044921875">
        <ele>134</ele>
        <time>2018-08-18T08:24:40.000Z</time>
      </trkpt>
      <trkpt lat="51.08090286143124103546142578125" lon="12.204277329146862030029296875">
        <ele>133.8000030517578125</ele>
        <time>2018-08-18T08:24:47.000Z</time>
      </trkpt>
      <trkpt lat="51.081260852515697479248046875" lon="12.205004878342151641845703125">
        <ele>133.8000030517578125</ele>
        <time>2018-08-18T08:24:54.000Z</time>
      </trkpt>
      <trkpt lat="51.08161884360015392303466796875" lon="12.20573754049837589263916015625">
        <ele>133.399993896484375</ele>
        <time>2018-08-18T08:25:01.000Z</time>
      </trkpt>
      <trkpt lat="51.08197960071265697479248046875" lon="12.20647062174975872039794921875">
        <ele>133.1999969482421875</ele>
        <time>2018-08-18T08:25:08.000Z</time>
      </trkpt>
      <trkpt lat="51.082371287047863006591796875" lon="12.20717118121683597564697265625">
        <ele>133</ele>
        <time>2018-08-18T08:25:15.000Z</time>
      </trkpt>
      <trkpt lat="51.082801781594753265380859375" lon="12.20782010816037654876708984375">
        <ele>132.399993896484375</ele>
        <time>2018-08-18T08:25:22.000Z</time>
      </trkpt>
      <trkpt lat="51.083252727985382080078125" lon="12.2084592282772064208984375">
        <ele>132.1999969482421875</ele>
        <time>2018-08-18T08:25:29.000Z</time>
      </trkpt>
      <trkpt lat="51.0837149061262607574462890625" lon="12.2091138549149036407470703125">
        <ele>131.8000030517578125</ele>
        <time>2018-08-18T08:25:36.000Z</time>
      </trkpt>
      <trkpt lat="51.0841598175466060638427734375" lon="12.2097455151379108428955078125">
        <ele>131.600006103515625</ele>
        <time>2018-08-18T08:25:43.000Z</time>
      </trkpt>
      <trkpt lat="51.084608249366283416748046875" lon="12.210383713245391845703125">
        <ele>131.399993896484375</ele>
        <time>2018-08-18T08:25:50.000Z</time>
      </trkpt>
      <trkpt lat="51.08491829596459865570068359375" lon="12.2108646668493747711181640625">
        <ele>131.1999969482421875</ele>
        <time>2018-08-18T08:25:55.000Z</time>
      </trkpt>
      <trkpt lat="51.0853440128266811370849609375" lon="12.21156363375484943389892578125">
        <ele>130.8000030517578125</ele>
        <time>2018-08-18T08:26:02.000Z</time>
      </trkpt>
      <trkpt lat="51.08569345436990261077880859375" lon="12.21234331838786602020263671875">
        <ele>130.600006103515625</ele>
        <time>2018-08-18T08:26:09.000Z</time>
      </trkpt>
      <trkpt lat="51.08603510074317455291748046875" lon="12.21311160363256931304931640625">
        <ele>130.8000030517578125</ele>
        <time>2018-08-18T08:26:16.000Z</time>
      </trkpt>
      <trkpt lat="51.08637037687003612518310546875" lon="12.21386631019413471221923828125">
        <ele>131</ele>
        <time>2018-08-18T08:26:23.000Z</time>
      </trkpt>
      <trkpt lat="51.086699701845645904541015625" lon="12.21461380831897258758544921875">
        <ele>131</ele>
        <time>2018-08-18T08:26:30.000Z</time>
      </trkpt>
      <trkpt lat="51.08702651225030422210693359375" lon="12.21535342745482921600341796875">
        <ele>131</ele>
        <time>2018-08-18T08:26:37.000Z</time>
      </trkpt>
      <trkpt lat="51.08735173009335994720458984375" lon="12.2160906158387660980224609375">
        <ele>131</ele>
        <time>2018-08-18T08:26:44.000Z</time>
      </trkpt>
      <trkpt lat="51.08767745085060596466064453125" lon="12.21682730130851268768310546875">
        <ele>131</ele>
        <time>2018-08-18T08:26:51.000Z</time>
      </trkpt>
      <trkpt lat="51.0880007408559322357177734375" lon="12.2175584547221660614013671875">
        <ele>131</ele>
        <time>2018-08-18T08:26:58.000Z</time>
      </trkpt>
      <trkpt lat="51.08834087848663330078125" lon="12.21828575246036052703857421875">
        <ele>131</ele>
        <time>2018-08-18T08:27:05.000Z</time>
      </trkpt>
      <trkpt lat="51.08873625285923480987548828125" lon="12.21892093308269977569580078125">
        <ele>131</ele>
        <time>2018-08-18T08:27:12.000Z</time>
      </trkpt>
      <trkpt lat="51.08922374434769153594970703125" lon="12.21941194497048854827880859375">
        <ele>131</ele>
        <time>2018-08-18T08:27:19.000Z</time>
      </trkpt>
      <trkpt lat="51.08972162939608097076416015625" lon="12.21988384611904621124267578125">
        <ele>130.600006103515625</ele>
        <time>2018-08-18T08:27:26.000Z</time>
      </trkpt>
      <trkpt lat="51.08984836377203464508056640625" lon="12.2200378216803073883056640625">
        <ele>130.399993896484375</ele>
        <time>2018-08-18T08:27:28.000Z</time>
      </trkpt>
      <trkpt lat="51.090269386768341064453125" lon="12.220749445259571075439453125">
        <ele>130.1999969482421875</ele>
        <time>2018-08-18T08:27:36.000Z</time>
      </trkpt>
      <trkpt lat="51.09063441865146160125732421875" lon="12.22140113823115825653076171875">
        <ele>130.600006103515625</ele>
        <time>2018-08-18T08:27:43.000Z</time>
      </trkpt>
      <trkpt lat="51.0910162143409252166748046875" lon="12.22208007238805294036865234375">
        <ele>130.8000030517578125</ele>
        <time>2018-08-18T08:27:50.000Z</time>
      </trkpt>
      <trkpt lat="51.091404296457767486572265625" lon="12.22276680171489715576171875">
        <ele>130.8000030517578125</ele>
        <time>2018-08-18T08:27:57.000Z</time>
      </trkpt>
      <trkpt lat="51.09178324230015277862548828125" lon="12.22343676723539829254150390625">
        <ele>130.600006103515625</ele>
        <time>2018-08-18T08:28:04.000Z</time>
      </trkpt>
      <trkpt lat="51.09217685647308826446533203125" lon="12.22408711910247802734375">
        <ele>130.8000030517578125</ele>
        <time>2018-08-18T08:28:11.000Z</time>
      </trkpt>
      <trkpt lat="51.09260651282966136932373046875" lon="12.22470226697623729705810546875">
        <ele>131</ele>
        <time>2018-08-18T08:28:18.000Z</time>
      </trkpt>
      <trkpt lat="51.09312518499791622161865234375" lon="12.22506855614483356475830078125">
        <ele>130.8000030517578125</ele>
        <time>2018-08-18T08:28:25.000Z</time>
      </trkpt>
      <trkpt lat="51.0936367325484752655029296875" lon="12.22543719224631786346435546875">
        <ele>130.600006103515625</ele>
        <time>2018-08-18T08:28:32.000Z</time>
      </trkpt>
      <trkpt lat="51.094171665608882904052734375" lon="12.22577498294413089752197265625">
        <ele>130.399993896484375</ele>
        <time>2018-08-18T08:28:39.000Z</time>
      </trkpt>
      <trkpt lat="51.09438934363424777984619140625" lon="12.22595318220555782318115234375">
        <ele>130.399993896484375</ele>
        <time>2018-08-18T08:28:42.000Z</time>
      </trkpt>
      <trkpt lat="51.09485856257379055023193359375" lon="12.22650873474776744842529296875">
        <ele>130.1999969482421875</ele>
        <time>2018-08-18T08:28:49.000Z</time>
      </trkpt>
      <trkpt lat="51.095321662724018096923828125" lon="12.22705841995775699615478515625">
        <ele>130</ele>
        <time>2018-08-18T08:28:56.000Z</time>
      </trkpt>
      <trkpt lat="51.09578643925487995147705078125" lon="12.227616570889949798583984375">
        <ele>129.8000030517578125</ele>
        <time>2018-08-18T08:29:03.000Z</time>
      </trkpt>
      <trkpt lat="51.09624241478741168975830078125" lon="12.2281686030328273773193359375">
        <ele>129.8000030517578125</ele>
        <time>2018-08-18T08:29:10.000Z</time>
      </trkpt>
      <trkpt lat="51.09670107252895832061767578125" lon="12.22870579920709133148193359375">
        <ele>129.8000030517578125</ele>
        <time>2018-08-18T08:29:17.000Z</time>
      </trkpt>
      <trkpt lat="51.0971869714558124542236328125" lon="12.2291861660778522491455078125">
        <ele>129.8000030517578125</ele>
        <time>2018-08-18T08:29:24.000Z</time>
      </trkpt>
      <trkpt lat="51.09775115735828876495361328125" lon="12.2294040955603122711181640625">
        <ele>129.8000030517578125</ele>
        <time>2018-08-18T08:29:31.000Z</time>
      </trkpt>
      <trkpt lat="51.09834794886410236358642578125" lon="12.229492105543613433837890625">
        <ele>129.600006103515625</ele>
        <time>2018-08-18T08:29:38.000Z</time>
      </trkpt>
      <trkpt lat="51.0984291695058345794677734375" lon="12.22953594289720058441162109375">
        <ele>129.600006103515625</ele>
        <time>2018-08-18T08:29:39.000Z</time>
      </trkpt>
      <trkpt lat="51.0987996496260166168212890625" lon="12.22985277883708477020263671875">
        <ele>129.399993896484375</ele>
        <time>2018-08-18T08:29:44.000Z</time>
      </trkpt>
      <trkpt lat="51.09930164180696010589599609375" lon="12.23025896586477756500244140625">
        <ele>129.1999969482421875</ele>
        <time>2018-08-18T08:29:51.000Z</time>
      </trkpt>
      <trkpt lat="51.09984378330409526824951171875" lon="12.230511009693145751953125">
        <ele>129.399993896484375</ele>
        <time>2018-08-18T08:29:58.000Z</time>
      </trkpt>
      <trkpt lat="51.10040453262627124786376953125" lon="12.23072952590882778167724609375">
        <ele>129.399993896484375</ele>
        <time>2018-08-18T08:30:05.000Z</time>
      </trkpt>
      <trkpt lat="51.1009947024285793304443359375" lon="12.23093052394688129425048828125">
        <ele>129.399993896484375</ele>
        <time>2018-08-18T08:30:12.000Z</time>
      </trkpt>
      <trkpt lat="51.10151932574808597564697265625" lon="12.23114795051515102386474609375">
        <ele>129</ele>
        <time>2018-08-18T08:30:18.000Z</time>
      </trkpt>
      <trkpt lat="51.101870276033878326416015625" lon="12.23135649226605892181396484375">
        <ele>128.600006103515625</ele>
        <time>2018-08-18T08:30:22.000Z</time>
      </trkpt>
      <trkpt lat="51.10204336233437061309814453125" lon="12.23146579228341579437255859375">
        <ele>128.399993896484375</ele>
        <time>2018-08-18T08:30:24.000Z</time>
      </trkpt>
      <trkpt lat="51.10262271948158740997314453125" lon="12.2318375296890735626220703125">
        <ele>128.1999969482421875</ele>
        <time>2018-08-18T08:30:31.000Z</time>
      </trkpt>
      <trkpt lat="51.10295196063816547393798828125" lon="12.232047580182552337646484375">
        <ele>128.1999969482421875</ele>
        <time>2018-08-18T08:30:35.000Z</time>
      </trkpt>
      <trkpt lat="51.1033047549426555633544921875" lon="12.23247262649238109588623046875">
        <ele>128.1999969482421875</ele>
        <time>2018-08-18T08:30:40.000Z</time>
      </trkpt>
      <trkpt lat="51.1036054976284503936767578125" lon="12.23295793868601322174072265625">
        <ele>128.1999969482421875</ele>
        <time>2018-08-18T08:30:45.000Z</time>
      </trkpt>
      <trkpt lat="51.1040852777659893035888671875" lon="12.233411483466625213623046875">
        <ele>128.1999969482421875</ele>
        <time>2018-08-18T08:30:52.000Z</time>
      </trkpt>
      <trkpt lat="51.1042143590748310089111328125" lon="12.2335655428469181060791015625">
        <ele>128.1999969482421875</ele>
        <time>2018-08-18T08:30:54.000Z</time>
      </trkpt>
      <trkpt lat="51.1044381558895111083984375" lon="12.23409603349864482879638671875">
        <ele>128.399993896484375</ele>
        <time>2018-08-18T08:30:59.000Z</time>
      </trkpt>
      <trkpt lat="51.1044859327375888824462890625" lon="12.23433726467192173004150390625">
        <ele>128.399993896484375</ele>
        <time>2018-08-18T08:31:01.000Z</time>
      </trkpt>
      <trkpt lat="51.1045684106647968292236328125" lon="12.23482760600745677947998046875">
        <ele>128.399993896484375</ele>
        <time>2018-08-18T08:31:05.000Z</time>
      </trkpt>
      <trkpt lat="51.10489857383072376251220703125" lon="12.235335297882556915283203125">
        <ele>128.399993896484375</ele>
        <time>2018-08-18T08:31:11.000Z</time>
      </trkpt>
      <trkpt lat="51.10541380941867828369140625" lon="12.23571441136300563812255859375">
        <ele>128.8000030517578125</ele>
        <time>2018-08-18T08:31:18.000Z</time>
      </trkpt>
      <trkpt lat="51.10548228956758975982666015625" lon="12.23579051904380321502685546875">
        <ele>129</ele>
        <time>2018-08-18T08:31:19.000Z</time>
      </trkpt>
      <trkpt lat="51.1058619059622287750244140625" lon="12.23644246347248554229736328125">
        <ele>129.1999969482421875</ele>
        <time>2018-08-18T08:31:26.000Z</time>
      </trkpt>
      <trkpt lat="51.10612534917891025543212890625" lon="12.23679349757730960845947265625">
        <ele>129.1999969482421875</ele>
        <time>2018-08-18T08:31:31.000Z</time>
      </trkpt>
      <trkpt lat="51.1063664965331554412841796875" lon="12.23686910234391689300537109375">
        <ele>129.600006103515625</ele>
        <time>2018-08-18T08:31:35.000Z</time>
      </trkpt>
      <trkpt lat="51.10647998750209808349609375" lon="12.236771620810031890869140625">
        <ele>129.600006103515625</ele>
        <time>2018-08-18T08:31:37.000Z</time>
      </trkpt>
      <trkpt lat="51.106674782931804656982421875" lon="12.23661563359200954437255859375">
        <ele>130.1999969482421875</ele>
        <time>2018-08-18T08:31:40.000Z</time>
      </trkpt>
      <trkpt lat="51.10712111927568912506103515625" lon="12.23678997717797756195068359375">
        <ele>130.1999969482421875</ele>
        <time>2018-08-18T08:31:46.000Z</time>
      </trkpt>
      <trkpt lat="51.10750685445964336395263671875" lon="12.23717705346643924713134765625">
        <ele>130.1999969482421875</ele>
        <time>2018-08-18T08:31:51.000Z</time>
      </trkpt>
      <trkpt lat="51.1079067550599575042724609375" lon="12.23749673925340175628662109375">
        <ele>129</ele>
        <time>2018-08-18T08:31:56.000Z</time>
      </trkpt>
      <trkpt lat="51.10816181637346744537353515625" lon="12.237615175545215606689453125">
        <ele>128.600006103515625</ele>
        <time>2018-08-18T08:31:59.000Z</time>
      </trkpt>
      <trkpt lat="51.1083429493010044097900390625" lon="12.23764392547309398651123046875">
        <ele>128.1999969482421875</ele>
        <time>2018-08-18T08:32:01.000Z</time>
      </trkpt>
      <trkpt lat="51.10861645080149173736572265625" lon="12.23767678253352642059326171875">
        <ele>127.8000030517578125</ele>
        <time>2018-08-18T08:32:04.000Z</time>
      </trkpt>
      <trkpt lat="51.10887251794338226318359375" lon="12.237777449190616607666015625">
        <ele>127.40000152587890625</ele>
        <time>2018-08-18T08:32:07.000Z</time>
      </trkpt>
      <trkpt lat="51.10932421870529651641845703125" lon="12.23818941973149776458740234375">
        <ele>127.1999969482421875</ele>
        <time>2018-08-18T08:32:13.000Z</time>
      </trkpt>
      <trkpt lat="51.10981556586921215057373046875" lon="12.23867791704833507537841796875">
        <ele>127.1999969482421875</ele>
        <time>2018-08-18T08:32:20.000Z</time>
      </trkpt>
      <trkpt lat="51.11032065935432910919189453125" lon="12.2390848584473133087158203125">
        <ele>127.1999969482421875</ele>
        <time>2018-08-18T08:32:27.000Z</time>
      </trkpt>
      <trkpt lat="51.1108095757663249969482421875" lon="12.23954058252274990081787109375">
        <ele>127.1999969482421875</ele>
        <time>2018-08-18T08:32:34.000Z</time>
      </trkpt>
      <trkpt lat="51.11127552576363086700439453125" lon="12.24006294272840023040771484375">
        <ele>127.1999969482421875</ele>
        <time>2018-08-18T08:32:41.000Z</time>
      </trkpt>
      <trkpt lat="51.11168305389583110809326171875" lon="12.2407313995063304901123046875">
        <ele>127</ele>
        <time>2018-08-18T08:32:48.000Z</time>
      </trkpt>
      <trkpt lat="51.1120906658470630645751953125" lon="12.2413747943937778472900390625">
        <ele>126.8000030517578125</ele>
        <time>2018-08-18T08:32:55.000Z</time>
      </trkpt>
      <trkpt lat="51.1125721223652362823486328125" lon="12.241884581744670867919921875">
        <ele>126.8000030517578125</ele>
        <time>2018-08-18T08:33:02.000Z</time>
      </trkpt>
      <trkpt lat="51.113093309104442596435546875" lon="12.242290936410427093505859375">
        <ele>126.59999847412109375</ele>
        <time>2018-08-18T08:33:09.000Z</time>
      </trkpt>
      <trkpt lat="51.1136084608733654022216796875" lon="12.242703326046466827392578125">
        <ele>126.40000152587890625</ele>
        <time>2018-08-18T08:33:16.000Z</time>
      </trkpt>
      <trkpt lat="51.11382764764130115509033203125" lon="12.24287557415664196014404296875">
        <ele>126.40000152587890625</ele>
        <time>2018-08-18T08:33:19.000Z</time>
      </trkpt>
      <trkpt lat="51.11425428651273250579833984375" lon="12.24324253387749195098876953125">
        <ele>126.1999969482421875</ele>
        <time>2018-08-18T08:33:25.000Z</time>
      </trkpt>
      <trkpt lat="51.11472970806062221527099609375" lon="12.24369934760034084320068359375">
        <ele>126.1999969482421875</ele>
        <time>2018-08-18T08:33:32.000Z</time>
      </trkpt>
      <trkpt lat="51.11520311795175075531005859375" lon="12.24419136531651020050048828125">
        <ele>125.8000030517578125</ele>
        <time>2018-08-18T08:33:39.000Z</time>
      </trkpt>
      <trkpt lat="51.115672588348388671875" lon="12.2447039186954498291015625">
        <ele>126</ele>
        <time>2018-08-18T08:33:46.000Z</time>
      </trkpt>
      <trkpt lat="51.1161441542208194732666015625" lon="12.2452368400990962982177734375">
        <ele>126</ele>
        <time>2018-08-18T08:33:53.000Z</time>
      </trkpt>
      <trkpt lat="51.11659669317305088043212890625" lon="12.245847545564174652099609375">
        <ele>125.8000030517578125</ele>
        <time>2018-08-18T08:34:00.000Z</time>
      </trkpt>
      <trkpt lat="51.1169461347162723541259765625" lon="12.24659613333642482757568359375">
        <ele>125.8000030517578125</ele>
        <time>2018-08-18T08:34:07.000Z</time>
      </trkpt>
      <trkpt lat="51.11722399480640888214111328125" lon="12.24739559926092624664306640625">
        <ele>125.8000030517578125</ele>
        <time>2018-08-18T08:34:14.000Z</time>
      </trkpt>
      <trkpt lat="51.1174996756017208099365234375" lon="12.24819690920412540435791015625">
        <ele>125.8000030517578125</ele>
        <time>2018-08-18T08:34:21.000Z</time>
      </trkpt>
      <trkpt lat="51.117773763835430145263671875" lon="12.24899218417704105377197265625">
        <ele>126</ele>
        <time>2018-08-18T08:34:28.000Z</time>
      </trkpt>
      <trkpt lat="51.1180776916444301605224609375" lon="12.24977974779903888702392578125">
        <ele>126.40000152587890625</ele>
        <time>2018-08-18T08:34:35.000Z</time>
      </trkpt>
      <trkpt lat="51.11851480789482593536376953125" lon="12.25040034390985965728759765625">
        <ele>126.59999847412109375</ele>
        <time>2018-08-18T08:34:42.000Z</time>
      </trkpt>
      <trkpt lat="51.11908410675823688507080078125" lon="12.25081206299364566802978515625">
        <ele>126.8000030517578125</ele>
        <time>2018-08-18T08:34:49.000Z</time>
      </trkpt>
      <trkpt lat="51.1196176148951053619384765625" lon="12.25102328695356845855712890625">
        <ele>126.59999847412109375</ele>
        <time>2018-08-18T08:34:55.000Z</time>
      </trkpt>
      <trkpt lat="51.12014056183397769927978515625" lon="12.251243479549884796142578125">
        <ele>126.1999969482421875</ele>
        <time>2018-08-18T08:35:01.000Z</time>
      </trkpt>
      <trkpt lat="51.12059368751943111419677734375" lon="12.25160063244402408599853515625">
        <ele>125.8000030517578125</ele>
        <time>2018-08-18T08:35:07.000Z</time>
      </trkpt>
      <trkpt lat="51.12106852233409881591796875" lon="12.2520317137241363525390625">
        <ele>125.8000030517578125</ele>
        <time>2018-08-18T08:35:14.000Z</time>
      </trkpt>
      <trkpt lat="51.12161627970635890960693359375" lon="12.2524166107177734375">
        <ele>127</ele>
        <time>2018-08-18T08:35:22.000Z</time>
      </trkpt>
      <trkpt lat="51.1218173615634441375732421875" lon="12.25255801342427730560302734375">
        <ele>127.40000152587890625</ele>
        <time>2018-08-18T08:35:25.000Z</time>
      </trkpt>
      <trkpt lat="51.1223434098064899444580078125" lon="12.2529401443898677825927734375">
        <ele>128.399993896484375</ele>
        <time>2018-08-18T08:35:33.000Z</time>
      </trkpt>
      <trkpt lat="51.1227832920849323272705078125" lon="12.25324281491339206695556640625">
        <ele>129.600006103515625</ele>
        <time>2018-08-18T08:35:40.000Z</time>
      </trkpt>
      <trkpt lat="51.12320900894701480865478515625" lon="12.2536442242562770843505859375">
        <ele>130.8000030517578125</ele>
        <time>2018-08-18T08:35:47.000Z</time>
      </trkpt>
      <trkpt lat="51.1236526630818843841552734375" lon="12.254240177571773529052734375">
        <ele>131.399993896484375</ele>
        <time>2018-08-18T08:35:55.000Z</time>
      </trkpt>
      <trkpt lat="51.12394175492227077484130859375" lon="12.25460168905556201934814453125">
        <ele>131.8000030517578125</ele>
        <time>2018-08-18T08:36:00.000Z</time>
      </trkpt>
      <trkpt lat="51.1244742572307586669921875" lon="12.25509588606655597686767578125">
        <ele>131.8000030517578125</ele>
        <time>2018-08-18T08:36:08.000Z</time>
      </trkpt>
      <trkpt lat="51.12501363269984722137451171875" lon="12.25542747415602207183837890625">
        <ele>131</ele>
        <time>2018-08-18T08:36:16.000Z</time>
      </trkpt>
      <trkpt lat="51.12559097819030284881591796875" lon="12.255715392529964447021484375">
        <ele>131.600006103515625</ele>
        <time>2018-08-18T08:36:25.000Z</time>
      </trkpt>
      <trkpt lat="51.1261259950697422027587890625" lon="12.2560236789286136627197265625">
        <ele>132.8000030517578125</ele>
        <time>2018-08-18T08:36:34.000Z</time>
      </trkpt>
      <trkpt lat="51.12634048797190189361572265625" lon="12.25618704222142696380615234375">
        <ele>133.8000030517578125</ele>
        <time>2018-08-18T08:36:38.000Z</time>
      </trkpt>
      <trkpt lat="51.1263920366764068603515625" lon="12.256237752735614776611328125">
        <ele>134</ele>
        <time>2018-08-18T08:36:39.000Z</time>
      </trkpt>
      <trkpt lat="51.12649806775152683258056640625" lon="12.25633640773594379425048828125">
        <ele>134.600006103515625</ele>
        <time>2018-08-18T08:36:41.000Z</time>
      </trkpt>
      <trkpt lat="51.1265474371612071990966796875" lon="12.25639499723911285400390625">
        <ele>135</ele>
        <time>2018-08-18T08:36:42.000Z</time>
      </trkpt>
      <trkpt lat="51.12677986733615398406982421875" lon="12.25671577267348766326904296875">
        <ele>136.1999969482421875</ele>
        <time>2018-08-18T08:36:47.000Z</time>
      </trkpt>
      <trkpt lat="51.1270496807992458343505859375" lon="12.257145009934902191162109375">
        <ele>137.399993896484375</ele>
        <time>2018-08-18T08:36:53.000Z</time>
      </trkpt>
      <trkpt lat="51.12723827362060546875" lon="12.25744114257395267486572265625">
        <ele>138.600006103515625</ele>
        <time>2018-08-18T08:36:57.000Z</time>
      </trkpt>
      <trkpt lat="51.12760229967534542083740234375" lon="12.25791455246508121490478515625">
        <ele>139.8000030517578125</ele>
        <time>2018-08-18T08:37:04.000Z</time>
      </trkpt>
      <trkpt lat="51.12813974730670452117919921875" lon="12.2583297081291675567626953125">
        <ele>140.8000030517578125</ele>
        <time>2018-08-18T08:37:12.000Z</time>
      </trkpt>
      <trkpt lat="51.12858851440250873565673828125" lon="12.25864134728908538818359375">
        <ele>141.1999969482421875</ele>
        <time>2018-08-18T08:37:18.000Z</time>
      </trkpt>
      <trkpt lat="51.12907215021550655364990234375" lon="12.25926755927503108978271484375">
        <ele>140.1999969482421875</ele>
        <time>2018-08-18T08:37:25.000Z</time>
      </trkpt>
      <trkpt lat="51.129371635615825653076171875" lon="12.259645499289035797119140625">
        <ele>139.8000030517578125</ele>
        <time>2018-08-18T08:37:29.000Z</time>
      </trkpt>
      <trkpt lat="51.12971034832298755645751953125" lon="12.26014380343258380889892578125">
        <ele>138.399993896484375</ele>
        <time>2018-08-18T08:37:34.000Z</time>
      </trkpt>
      <trkpt lat="51.12984077073633670806884765625" lon="12.26031445898115634918212890625">
        <ele>137.600006103515625</ele>
        <time>2018-08-18T08:37:36.000Z</time>
      </trkpt>
      <trkpt lat="51.129977144300937652587890625" lon="12.260454185307025909423828125">
        <ele>137.399993896484375</ele>
        <time>2018-08-18T08:37:38.000Z</time>
      </trkpt>
      <trkpt lat="51.13051031716167926788330078125" lon="12.26094846613705158233642578125">
        <ele>137.1999969482421875</ele>
        <time>2018-08-18T08:37:45.000Z</time>
      </trkpt>
      <trkpt lat="51.1309811286628246307373046875" lon="12.26139723323285579681396484375">
        <ele>137</ele>
        <time>2018-08-18T08:37:51.000Z</time>
      </trkpt>
      <trkpt lat="51.13125194795429706573486328125" lon="12.2613792121410369873046875">
        <ele>135.8000030517578125</ele>
        <time>2018-08-18T08:37:54.000Z</time>
      </trkpt>
      <trkpt lat="51.1313506029546260833740234375" lon="12.2613528929650783538818359375">
        <ele>135.600006103515625</ele>
        <time>2018-08-18T08:37:55.000Z</time>
      </trkpt>
      <trkpt lat="51.13193825818598270416259765625" lon="12.261203862726688385009765625">
        <ele>134.8000030517578125</ele>
        <time>2018-08-18T08:38:01.000Z</time>
      </trkpt>
      <trkpt lat="51.13252197392284870147705078125" lon="12.2610622085630893707275390625">
        <ele>134.1999969482421875</ele>
        <time>2018-08-18T08:38:09.000Z</time>
      </trkpt>
      <trkpt lat="51.13266496919095516204833984375" lon="12.2610605321824550628662109375">
        <ele>134.1999969482421875</ele>
        <time>2018-08-18T08:38:11.000Z</time>
      </trkpt>
      <trkpt lat="51.1329347826540470123291015625" lon="12.26122188381850719451904296875">
        <ele>134.8000030517578125</ele>
        <time>2018-08-18T08:38:15.000Z</time>
      </trkpt>
      <trkpt lat="51.13337927497923374176025390625" lon="12.2616646997630596160888671875">
        <ele>136</ele>
        <time>2018-08-18T08:38:23.000Z</time>
      </trkpt>
      <trkpt lat="51.13366643898189067840576171875" lon="12.2618809528648853302001953125">
        <ele>137.1999969482421875</ele>
        <time>2018-08-18T08:38:28.000Z</time>
      </trkpt>
      <trkpt lat="51.13389509730041027069091796875" lon="12.2620532847940921783447265625">
        <ele>138.1999969482421875</ele>
        <time>2018-08-18T08:38:32.000Z</time>
      </trkpt>
      <trkpt lat="51.1341846920549869537353515625" lon="12.26228705607354640960693359375">
        <ele>139.399993896484375</ele>
        <time>2018-08-18T08:38:37.000Z</time>
      </trkpt>
      <trkpt lat="51.1344787292182445526123046875" lon="12.2625099308788776397705078125">
        <ele>140.399993896484375</ele>
        <time>2018-08-18T08:38:42.000Z</time>
      </trkpt>
      <trkpt lat="51.1347658932209014892578125" lon="12.26272769272327423095703125">
        <ele>141.399993896484375</ele>
        <time>2018-08-18T08:38:47.000Z</time>
      </trkpt>
      <trkpt lat="51.13510795868933200836181640625" lon="12.2630078159272670745849609375">
        <ele>142.399993896484375</ele>
        <time>2018-08-18T08:38:53.000Z</time>
      </trkpt>
      <trkpt lat="51.13533711992204189300537109375" lon="12.26320353336632251739501953125">
        <ele>143.600006103515625</ele>
        <time>2018-08-18T08:38:57.000Z</time>
      </trkpt>
      <trkpt lat="51.1356384493410587310791015625" lon="12.26346303708851337432861328125">
        <ele>144.600006103515625</ele>
        <time>2018-08-18T08:39:02.000Z</time>
      </trkpt>
      <trkpt lat="51.13614966161549091339111328125" lon="12.26391331292688846588134765625">
        <ele>145.399993896484375</ele>
        <time>2018-08-18T08:39:10.000Z</time>
      </trkpt>
      <trkpt lat="51.136666238307952880859375" lon="12.2643509320914745330810546875">
        <ele>145.399993896484375</ele>
        <time>2018-08-18T08:39:18.000Z</time>
      </trkpt>
      <trkpt lat="51.1371637880802154541015625" lon="12.26473708637058734893798828125">
        <ele>145.399993896484375</ele>
        <time>2018-08-18T08:39:25.000Z</time>
      </trkpt>
      <trkpt lat="51.13767885603010654449462890625" lon="12.2650955803692340850830078125">
        <ele>145</ele>
        <time>2018-08-18T08:39:32.000Z</time>
      </trkpt>
      <trkpt lat="51.1380038224160671234130859375" lon="12.26541635580360889434814453125">
        <ele>144.8000030517578125</ele>
        <time>2018-08-18T08:39:37.000Z</time>
      </trkpt>
      <trkpt lat="51.13846021704375743865966796875" lon="12.26595112122595310211181640625">
        <ele>144.600006103515625</ele>
        <time>2018-08-18T08:39:44.000Z</time>
      </trkpt>
      <trkpt lat="51.1389932222664356231689453125" lon="12.266370467841625213623046875">
        <ele>144.399993896484375</ele>
        <time>2018-08-18T08:39:51.000Z</time>
      </trkpt>
      <trkpt lat="51.13905667327344417572021484375" lon="12.26645118556916713714599609375">
        <ele>144.1999969482421875</ele>
        <time>2018-08-18T08:39:52.000Z</time>
      </trkpt>
      <trkpt lat="51.13931198604404926300048828125" lon="12.266941778361797332763671875">
        <ele>143.600006103515625</ele>
        <time>2018-08-18T08:39:57.000Z</time>
      </trkpt>
      <trkpt lat="51.13943184725940227508544921875" lon="12.267115451395511627197265625">
        <ele>143.399993896484375</ele>
        <time>2018-08-18T08:39:59.000Z</time>
      </trkpt>
      <trkpt lat="51.1399484239518642425537109375" lon="12.267519794404506683349609375">
        <ele>143.600006103515625</ele>
        <time>2018-08-18T08:40:06.000Z</time>
      </trkpt>
      <trkpt lat="51.1405098438262939453125" lon="12.26781173609197139739990234375">
        <ele>143.8000030517578125</ele>
        <time>2018-08-18T08:40:13.000Z</time>
      </trkpt>
      <trkpt lat="51.1410705931484699249267578125" lon="12.26809521205723285675048828125">
        <ele>143.8000030517578125</ele>
        <time>2018-08-18T08:40:20.000Z</time>
      </trkpt>
      <trkpt lat="51.1416082084178924560546875" lon="12.26837164722383022308349609375">
        <ele>144</ele>
        <time>2018-08-18T08:40:27.000Z</time>
      </trkpt>
      <trkpt lat="51.1421515233814716339111328125" lon="12.2686260379850864410400390625">
        <ele>144.600006103515625</ele>
        <time>2018-08-18T08:40:34.000Z</time>
      </trkpt>
      <trkpt lat="51.14223073236644268035888671875" lon="12.26865562610328197479248046875">
        <ele>144.8000030517578125</ele>
        <time>2018-08-18T08:40:35.000Z</time>
      </trkpt>
      <trkpt lat="51.14280858077108860015869140625" lon="12.26885117590427398681640625">
        <ele>144.8000030517578125</ele>
        <time>2018-08-18T08:40:42.000Z</time>
      </trkpt>
      <trkpt lat="51.1433489620685577392578125" lon="12.26904706098139286041259765625">
        <ele>144.8000030517578125</ele>
        <time>2018-08-18T08:40:48.000Z</time>
      </trkpt>
      <trkpt lat="51.14371935836970806121826171875" lon="12.26918938569724559783935546875">
        <ele>143.399993896484375</ele>
        <time>2018-08-18T08:40:52.000Z</time>
      </trkpt>
      <trkpt lat="51.1442630924284458160400390625" lon="12.269440256059169769287109375">
        <ele>142.399993896484375</ele>
        <time>2018-08-18T08:40:58.000Z</time>
      </trkpt>
      <trkpt lat="51.1448048986494541168212890625" lon="12.2696992568671703338623046875">
        <ele>141.600006103515625</ele>
        <time>2018-08-18T08:41:04.000Z</time>
      </trkpt>
      <trkpt lat="51.14489450119435787200927734375" lon="12.2697450220584869384765625">
        <ele>141.399993896484375</ele>
        <time>2018-08-18T08:41:05.000Z</time>
      </trkpt>
      <trkpt lat="51.14535458385944366455078125" lon="12.26996504701673984527587890625">
        <ele>140.1999969482421875</ele>
        <time>2018-08-18T08:41:10.000Z</time>
      </trkpt>
      <trkpt lat="51.145904101431369781494140625" lon="12.27018951438367366790771484375">
        <ele>139.600006103515625</ele>
        <time>2018-08-18T08:41:16.000Z</time>
      </trkpt>
      <trkpt lat="51.14627785049378871917724609375" lon="12.2703470103442668914794921875">
        <ele>139</ele>
        <time>2018-08-18T08:41:20.000Z</time>
      </trkpt>
      <trkpt lat="51.1468363367021083831787109375" lon="12.2705756686627864837646484375">
        <ele>138.399993896484375</ele>
        <time>2018-08-18T08:41:26.000Z</time>
      </trkpt>
      <trkpt lat="51.1470227502286434173583984375" lon="12.27065554820001125335693359375">
        <ele>138</ele>
        <time>2018-08-18T08:41:28.000Z</time>
      </trkpt>
      <trkpt lat="51.1475788056850433349609375" lon="12.27089661173522472381591796875">
        <ele>137.399993896484375</ele>
        <time>2018-08-18T08:41:34.000Z</time>
      </trkpt>
      <trkpt lat="51.14786337129771709442138671875" lon="12.27101580239832401275634765625">
        <ele>137</ele>
        <time>2018-08-18T08:41:37.000Z</time>
      </trkpt>
      <trkpt lat="51.14843300543725490570068359375" lon="12.2712497413158416748046875">
        <ele>135.8000030517578125</ele>
        <time>2018-08-18T08:41:43.000Z</time>
      </trkpt>
      <trkpt lat="51.1490028910338878631591796875" lon="12.27151905186474323272705078125">
        <ele>135.1999969482421875</ele>
        <time>2018-08-18T08:41:49.000Z</time>
      </trkpt>
      <trkpt lat="51.14937722682952880859375" lon="12.27167017757892608642578125">
        <ele>134.8000030517578125</ele>
        <time>2018-08-18T08:41:53.000Z</time>
      </trkpt>
      <trkpt lat="51.1499312706291675567626953125" lon="12.27180789224803447723388671875">
        <ele>134.8000030517578125</ele>
        <time>2018-08-18T08:42:00.000Z</time>
      </trkpt>
      <trkpt lat="51.1504925228655338287353515625" lon="12.27197184227406978607177734375">
        <ele>135.8000030517578125</ele>
        <time>2018-08-18T08:42:08.000Z</time>
      </trkpt>
      <trkpt lat="51.15056435577571392059326171875" lon="12.272004783153533935546875">
        <ele>136</ele>
        <time>2018-08-18T08:42:09.000Z</time>
      </trkpt>
      <trkpt lat="51.151013709604740142822265625" lon="12.27229253388941287994384765625">
        <ele>137</ele>
        <time>2018-08-18T08:42:15.000Z</time>
      </trkpt>
      <trkpt lat="51.1515157856047153472900390625" lon="12.27264574728906154632568359375">
        <ele>137.1999969482421875</ele>
        <time>2018-08-18T08:42:21.000Z</time>
      </trkpt>
      <trkpt lat="51.152038984000682830810546875" lon="12.273025028407573699951171875">
        <ele>137</ele>
        <time>2018-08-18T08:42:27.000Z</time>
      </trkpt>
      <trkpt lat="51.15229773335158824920654296875" lon="12.2732186503708362579345703125">
        <ele>136</ele>
        <time>2018-08-18T08:42:30.000Z</time>
      </trkpt>
      <trkpt lat="51.15264826454222202301025390625" lon="12.2734623961150646209716796875">
        <ele>134.8000030517578125</ele>
        <time>2018-08-18T08:42:34.000Z</time>
      </trkpt>
      <trkpt lat="51.15300365723669528961181640625" lon="12.273706309497356414794921875">
        <ele>133.8000030517578125</ele>
        <time>2018-08-18T08:42:38.000Z</time>
      </trkpt>
      <trkpt lat="51.15335837937891483306884765625" lon="12.27394871413707733154296875">
        <ele>132.8000030517578125</ele>
        <time>2018-08-18T08:42:42.000Z</time>
      </trkpt>
      <trkpt lat="51.15379474125802516937255859375" lon="12.27425389923155307769775390625">
        <ele>131.8000030517578125</ele>
        <time>2018-08-18T08:42:47.000Z</time>
      </trkpt>
      <trkpt lat="51.154356412589550018310546875" lon="12.2746613435447216033935546875">
        <ele>130.8000030517578125</ele>
        <time>2018-08-18T08:42:54.000Z</time>
      </trkpt>
      <trkpt lat="51.154433190822601318359375" lon="12.27471725083887577056884765625">
        <ele>130.8000030517578125</ele>
        <time>2018-08-18T08:42:55.000Z</time>
      </trkpt>
      <trkpt lat="51.155003495514392852783203125" lon="12.27512025274336338043212890625">
        <ele>129.8000030517578125</ele>
        <time>2018-08-18T08:43:02.000Z</time>
      </trkpt>
      <trkpt lat="51.155313290655612945556640625" lon="12.2753724642097949981689453125">
        <ele>129.399993896484375</ele>
        <time>2018-08-18T08:43:06.000Z</time>
      </trkpt>
      <trkpt lat="51.1553647555410861968994140625" lon="12.2757768072187900543212890625">
        <ele>128.8000030517578125</ele>
        <time>2018-08-18T08:43:10.000Z</time>
      </trkpt>
      <trkpt lat="51.15535578690469264984130859375" lon="12.2758904658257961273193359375">
        <ele>128.600006103515625</ele>
        <time>2018-08-18T08:43:11.000Z</time>
      </trkpt>
      <trkpt lat="51.15534137003123760223388671875" lon="12.2760064713656902313232421875">
        <ele>128.399993896484375</ele>
        <time>2018-08-18T08:43:12.000Z</time>
      </trkpt>
      <trkpt lat="51.15524522960186004638671875" lon="12.2767429053783416748046875">
        <ele>127.59999847412109375</ele>
        <time>2018-08-18T08:43:18.000Z</time>
      </trkpt>
      <trkpt lat="51.1552504263818264007568359375" lon="12.276870310306549072265625">
        <ele>127.40000152587890625</ele>
        <time>2018-08-18T08:43:19.000Z</time>
      </trkpt>
      <trkpt lat="51.1553248576819896697998046875" lon="12.27723869495093822479248046875">
        <ele>127.1999969482421875</ele>
        <time>2018-08-18T08:43:22.000Z</time>
      </trkpt>
      <trkpt lat="51.15546517074108123779296875" lon="12.2778618894517421722412109375">
        <ele>127.1999969482421875</ele>
        <time>2018-08-18T08:43:27.000Z</time>
      </trkpt>
      <trkpt lat="51.15549090318381786346435546875" lon="12.2783892787992954254150390625">
        <ele>126.59999847412109375</ele>
        <time>2018-08-18T08:43:31.000Z</time>
      </trkpt>
      <trkpt lat="51.15549190901219844818115234375" lon="12.2786487825214862823486328125">
        <ele>126.40000152587890625</ele>
        <time>2018-08-18T08:43:33.000Z</time>
      </trkpt>
      <trkpt lat="51.15549869835376739501953125" lon="12.2795350849628448486328125">
        <ele>126</ele>
        <time>2018-08-18T08:43:40.000Z</time>
      </trkpt>
      <trkpt lat="51.1554767377674579620361328125" lon="12.28008183650672435760498046875">
        <ele>125.8000030517578125</ele>
        <time>2018-08-18T08:43:45.000Z</time>
      </trkpt>
      <trkpt lat="51.15545888431370258331298828125" lon="12.28051115758717060089111328125">
        <ele>125.59999847412109375</ele>
        <time>2018-08-18T08:43:56.000Z</time>
      </trkpt>
      <trkpt lat="51.15549257956445217132568359375" lon="12.2805427573621273040771484375">
        <ele>125.59999847412109375</ele>
        <time>2018-08-18T08:43:57.000Z</time>
      </trkpt>
      <trkpt lat="51.15597956813871860504150390625" lon="12.2810151614248752593994140625">
        <ele>125.59999847412109375</ele>
        <time>2018-08-18T08:44:08.000Z</time>
      </trkpt>
      <trkpt lat="51.15608341991901397705078125" lon="12.28109001182019710540771484375">
        <ele>125.40000152587890625</ele>
        <time>2018-08-18T08:44:10.000Z</time>
      </trkpt>
      <trkpt lat="51.15613262169063091278076171875" lon="12.2811256349086761474609375">
        <ele>125.40000152587890625</ele>
        <time>2018-08-18T08:44:11.000Z</time>
      </trkpt>
      <trkpt lat="51.156374774873256683349609375" lon="12.280931510031223297119140625">
        <ele>124.8000030517578125</ele>
        <time>2018-08-18T08:44:19.000Z</time>
      </trkpt>
      <trkpt lat="51.15639111958444118499755859375" lon="12.2808854095637798309326171875">
        <ele>124.59999847412109375</ele>
        <time>2018-08-18T08:44:21.000Z</time>
      </trkpt>
      <trkpt lat="51.15648918785154819488525390625" lon="12.280875854194164276123046875">
        <ele>124.1999969482421875</ele>
        <time>2018-08-18T08:44:25.000Z</time>
      </trkpt>
      <trkpt lat="51.15661357529461383819580078125" lon="12.28089085780084133148193359375">
        <ele>123.8000030517578125</ele>
        <time>2018-08-18T08:44:28.000Z</time>
      </trkpt>
      <trkpt lat="51.15666436962783336639404296875" lon="12.28089840151369571685791015625">
        <ele>123.59999847412109375</ele>
        <time>2018-08-18T08:44:29.000Z</time>
      </trkpt>
      <trkpt lat="51.15688598714768886566162109375" lon="12.28091835044324398040771484375">
        <ele>123.1999969482421875</ele>
        <time>2018-08-18T08:44:33.000Z</time>
      </trkpt>
      <trkpt lat="51.1569948680698871612548828125" lon="12.2809316776692867279052734375">
        <ele>123</ele>
        <time>2018-08-18T08:44:35.000Z</time>
      </trkpt>
      <trkpt lat="51.1575655080378055572509765625" lon="12.28093829937279224395751953125">
        <ele>122.40000152587890625</ele>
        <time>2018-08-18T08:44:44.000Z</time>
      </trkpt>
      <trkpt lat="51.15770976059138774871826171875" lon="12.28094735182821750640869140625">
        <ele>121.8000030517578125</ele>
        <time>2018-08-18T08:44:46.000Z</time>
      </trkpt>
      <trkpt lat="51.1579991877079010009765625" lon="12.280969731509685516357421875">
        <ele>121.1999969482421875</ele>
        <time>2018-08-18T08:44:50.000Z</time>
      </trkpt>
      <trkpt lat="51.15809314884245395660400390625" lon="12.28106939233839511871337890625">
        <ele>121</ele>
        <time>2018-08-18T08:44:52.000Z</time>
      </trkpt>
      <trkpt lat="51.1583544127643108367919921875" lon="12.28108984418213367462158203125">
        <ele>120.40000152587890625</ele>
        <time>2018-08-18T08:44:57.000Z</time>
      </trkpt>
      <trkpt lat="51.15839808247983455657958984375" lon="12.28105313144624233245849609375">
        <ele>120</ele>
        <time>2018-08-18T08:44:58.000Z</time>
      </trkpt>
      <trkpt lat="51.15843395702540874481201171875" lon="12.281022034585475921630859375">
        <ele>120</ele>
        <time>2018-08-18T08:44:59.000Z</time>
      </trkpt>
      <trkpt lat="51.15846614353358745574951171875" lon="12.28104139678180217742919921875">
        <ele>119.1999969482421875</ele>
        <time>2018-08-18T08:45:05.000Z</time>
      </trkpt>
      <trkpt lat="51.15847083739936351776123046875" lon="12.28140735067427158355712890625">
        <ele>119</ele>
        <time>2018-08-18T08:45:13.000Z</time>
      </trkpt>
      <trkpt lat="51.158499754965305328369140625" lon="12.28147725574672222137451171875">
        <ele>119</ele>
        <time>2018-08-18T08:45:14.000Z</time>
      </trkpt>
      <trkpt lat="51.15853705443441867828369140625" lon="12.28181001730263233184814453125">
        <ele>118.8000030517578125</ele>
        <time>2018-08-18T08:45:18.000Z</time>
      </trkpt>
      <trkpt lat="51.158509142696857452392578125" lon="12.282328940927982330322265625">
        <ele>118.8000030517578125</ele>
        <time>2018-08-18T08:45:23.000Z</time>
      </trkpt>
      <trkpt lat="51.15850939415395259857177734375" lon="12.28290620259940624237060546875">
        <ele>118.59999847412109375</ele>
        <time>2018-08-18T08:45:28.000Z</time>
      </trkpt>
      <trkpt lat="51.1585136689245700836181640625" lon="12.2838861308991909027099609375">
        <ele>117.59999847412109375</ele>
        <time>2018-08-18T08:45:36.000Z</time>
      </trkpt>
      <trkpt lat="51.15851392038166522979736328125" lon="12.28400766849517822265625">
        <ele>117.59999847412109375</ele>
        <time>2018-08-18T08:45:37.000Z</time>
      </trkpt>
      <trkpt lat="51.15852196700870990753173828125" lon="12.2848819009959697723388671875">
        <ele>117.40000152587890625</ele>
        <time>2018-08-18T08:45:44.000Z</time>
      </trkpt>
      <trkpt lat="51.15852364338934421539306640625" lon="12.285759486258029937744140625">
        <ele>117.40000152587890625</ele>
        <time>2018-08-18T08:45:51.000Z</time>
      </trkpt>
      <trkpt lat="51.158580891788005828857421875" lon="12.28644303046166896820068359375">
        <ele>117.40000152587890625</ele>
        <time>2018-08-18T08:45:57.000Z</time>
      </trkpt>
      <trkpt lat="51.1587218753993511199951171875" lon="12.2872888483107089996337890625">
        <ele>117.40000152587890625</ele>
        <time>2018-08-18T08:46:04.000Z</time>
      </trkpt>
      <trkpt lat="51.1588519625365734100341796875" lon="12.28815679438412189483642578125">
        <ele>117</ele>
        <time>2018-08-18T08:46:13.000Z</time>
      </trkpt>
      <trkpt lat="51.15888557396829128265380859375" lon="12.28820926509797573089599609375">
        <ele>116.59999847412109375</ele>
        <time>2018-08-18T08:46:17.000Z</time>
      </trkpt>
      <trkpt lat="51.15913719870150089263916015625" lon="12.288262657821178436279296875">
        <ele>116.59999847412109375</ele>
        <time>2018-08-18T08:46:25.000Z</time>
      </trkpt>
      <trkpt lat="51.1593322455883026123046875" lon="12.288121841847896575927734375">
        <ele>116.59999847412109375</ele>
        <time>2018-08-18T08:46:29.000Z</time>
      </trkpt>
      <trkpt lat="51.15972275845706462860107421875" lon="12.28788723237812519073486328125">
        <ele>116.59999847412109375</ele>
        <time>2018-08-18T08:46:36.000Z</time>
      </trkpt>
      <trkpt lat="51.15995652973651885986328125" lon="12.2878876514732837677001953125">
        <ele>116.59999847412109375</ele>
        <time>2018-08-18T08:46:40.000Z</time>
      </trkpt>
      <trkpt lat="51.1604924686253070831298828125" lon="12.28807414881885051727294921875">
        <ele>116.59999847412109375</ele>
        <time>2018-08-18T08:46:48.000Z</time>
      </trkpt>
      <trkpt lat="51.1609254777431488037109375" lon="12.2882232628762722015380859375">
        <ele>116.40000152587890625</ele>
        <time>2018-08-18T08:46:54.000Z</time>
      </trkpt>
      <trkpt lat="51.16152285598218441009521484375" lon="12.28819719515740871429443359375">
        <ele>116</ele>
        <time>2018-08-18T08:47:02.000Z</time>
      </trkpt>
      <trkpt lat="51.16175989620387554168701171875" lon="12.28845007717609405517578125">
        <ele>116</ele>
        <time>2018-08-18T08:47:06.000Z</time>
      </trkpt>
      <trkpt lat="51.16185628809034824371337890625" lon="12.28863171301782131195068359375">
        <ele>115.8000030517578125</ele>
        <time>2018-08-18T08:47:08.000Z</time>
      </trkpt>
      <trkpt lat="51.161968521773815155029296875" lon="12.28878661058843135833740234375">
        <ele>115.8000030517578125</ele>
        <time>2018-08-18T08:47:10.000Z</time>
      </trkpt>
      <trkpt lat="51.16222660057246685028076171875" lon="12.2889038734138011932373046875">
        <ele>115.59999847412109375</ele>
        <time>2018-08-18T08:47:14.000Z</time>
      </trkpt>
      <trkpt lat="51.16249524056911468505859375" lon="12.28897285647690296173095703125">
        <ele>115.8000030517578125</ele>
        <time>2018-08-18T08:47:19.000Z</time>
      </trkpt>
      <trkpt lat="51.1628806404769420623779296875" lon="12.28902230970561504364013671875">
        <ele>117.8000030517578125</ele>
        <time>2018-08-18T08:47:25.000Z</time>
      </trkpt>
      <trkpt lat="51.16342328488826751708984375" lon="12.28906002826988697052001953125">
        <ele>118.40000152587890625</ele>
        <time>2018-08-18T08:47:33.000Z</time>
      </trkpt>
      <trkpt lat="51.16385377943515777587890625" lon="12.28914636187255382537841796875">
        <ele>118.40000152587890625</ele>
        <time>2018-08-18T08:47:40.000Z</time>
      </trkpt>
      <trkpt lat="51.16394204087555408477783203125" lon="12.289171256124973297119140625">
        <ele>118.40000152587890625</ele>
        <time>2018-08-18T08:47:42.000Z</time>
      </trkpt>
      <trkpt lat="51.1639712937176227569580078125" lon="12.28932757861912250518798828125">
        <ele>119</ele>
        <time>2018-08-18T08:47:45.000Z</time>
      </trkpt>
      <trkpt lat="51.1639625765383243560791015625" lon="12.2893893532454967498779296875">
        <ele>119</ele>
        <time>2018-08-18T08:47:46.000Z</time>
      </trkpt>
      <trkpt lat="51.16399467922747135162353515625" lon="12.28973711840808391571044921875">
        <ele>120</ele>
        <time>2018-08-18T08:47:55.000Z</time>
      </trkpt>
      <trkpt lat="51.164056621491909027099609375" lon="12.2897333465516567230224609375">
        <ele>121.1999969482421875</ele>
        <time>2018-08-18T08:48:51.000Z</time>
      </trkpt>
      <trkpt lat="51.16462181322276592254638671875" lon="12.28975270874798297882080078125">
        <ele>121.40000152587890625</ele>
        <time>2018-08-18T08:49:08.000Z</time>
      </trkpt>
      <trkpt lat="51.16520653478801250457763671875" lon="12.289804257452487945556640625">
        <ele>121.59999847412109375</ele>
        <time>2018-08-18T08:49:18.000Z</time>
      </trkpt>
      <trkpt lat="51.16532321088016033172607421875" lon="12.2898133099079132080078125">
        <ele>121.59999847412109375</ele>
        <time>2018-08-18T08:49:20.000Z</time>
      </trkpt>
      <trkpt lat="51.1655822955071926116943359375" lon="12.28982982225716114044189453125">
        <ele>121.59999847412109375</ele>
        <time>2018-08-18T08:49:24.000Z</time>
      </trkpt>
      <trkpt lat="51.166132651269435882568359375" lon="12.28985999710857868194580078125">
        <ele>122</ele>
        <time>2018-08-18T08:49:32.000Z</time>
      </trkpt>
      <trkpt lat="51.1662069149315357208251953125" lon="12.289866618812084197998046875">
        <ele>122</ele>
        <time>2018-08-18T08:49:33.000Z</time>
      </trkpt>
      <trkpt lat="51.16681049577891826629638671875" lon="12.28989352472126483917236328125">
        <ele>122.40000152587890625</ele>
        <time>2018-08-18T08:49:43.000Z</time>
      </trkpt>
      <trkpt lat="51.167111657559871673583984375" lon="12.28991766460239887237548828125">
        <ele>123</ele>
        <time>2018-08-18T08:49:47.000Z</time>
      </trkpt>
      <trkpt lat="51.1677099578082561492919921875" lon="12.289968542754650115966796875">
        <ele>123.8000030517578125</ele>
        <time>2018-08-18T08:49:55.000Z</time>
      </trkpt>
      <trkpt lat="51.1683208309113979339599609375" lon="12.29002646170556545257568359375">
        <ele>124</ele>
        <time>2018-08-18T08:50:03.000Z</time>
      </trkpt>
      <trkpt lat="51.16893094964325428009033203125" lon="12.29008144699037075042724609375">
        <ele>124</ele>
        <time>2018-08-18T08:50:11.000Z</time>
      </trkpt>
      <trkpt lat="51.16950276307761669158935546875" lon="12.29012637399137020111083984375">
        <ele>124</ele>
        <time>2018-08-18T08:50:19.000Z</time>
      </trkpt>
      <trkpt lat="51.16972018964588642120361328125" lon="12.2901376895606517791748046875">
        <ele>124.1999969482421875</ele>
        <time>2018-08-18T08:50:22.000Z</time>
      </trkpt>
      <trkpt lat="51.17031614296138286590576171875" lon="12.29017985053360462188720703125">
        <ele>124.40000152587890625</ele>
        <time>2018-08-18T08:50:30.000Z</time>
      </trkpt>
      <trkpt lat="51.17091310210525989532470703125" lon="12.29021966457366943359375">
        <ele>124.8000030517578125</ele>
        <time>2018-08-18T08:50:38.000Z</time>
      </trkpt>
      <trkpt lat="51.17123186588287353515625" lon="12.29024455882608890533447265625">
        <ele>125.40000152587890625</ele>
        <time>2018-08-18T08:50:42.000Z</time>
      </trkpt>
      <trkpt lat="51.1717912741005420684814453125" lon="12.2903110273182392120361328125">
        <ele>125.59999847412109375</ele>
        <time>2018-08-18T08:50:49.000Z</time>
      </trkpt>
      <trkpt lat="51.172371804714202880859375" lon="12.290413118898868560791015625">
        <ele>126</ele>
        <time>2018-08-18T08:50:57.000Z</time>
      </trkpt>
      <trkpt lat="51.172608174383640289306640625" lon="12.29047539643943309783935546875">
        <ele>126.40000152587890625</ele>
        <time>2018-08-18T08:51:01.000Z</time>
      </trkpt>
      <trkpt lat="51.1731826700270175933837890625" lon="12.290657199919223785400390625">
        <ele>127</ele>
        <time>2018-08-18T08:51:10.000Z</time>
      </trkpt>
      <trkpt lat="51.1737357079982757568359375" lon="12.2908996045589447021484375">
        <ele>127.40000152587890625</ele>
        <time>2018-08-18T08:51:19.000Z</time>
      </trkpt>
      <trkpt lat="51.17429084144532680511474609375" lon="12.29120411910116672515869140625">
        <ele>128.1999969482421875</ele>
        <time>2018-08-18T08:51:28.000Z</time>
      </trkpt>
      <trkpt lat="51.17478101514279842376708984375" lon="12.2915471903979778289794921875">
        <ele>128.399993896484375</ele>
        <time>2018-08-18T08:51:36.000Z</time>
      </trkpt>
      <trkpt lat="51.17527957074344158172607421875" lon="12.29193535633385181427001953125">
        <ele>128.8000030517578125</ele>
        <time>2018-08-18T08:51:44.000Z</time>
      </trkpt>
      <trkpt lat="51.1757619492709636688232421875" lon="12.29237079620361328125">
        <ele>129.1999969482421875</ele>
        <time>2018-08-18T08:51:52.000Z</time>
      </trkpt>
      <trkpt lat="51.1760375462472438812255859375" lon="12.29267321527004241943359375">
        <ele>129.399993896484375</ele>
        <time>2018-08-18T08:51:57.000Z</time>
      </trkpt>
      <trkpt lat="51.17638933472335338592529296875" lon="12.29306238703429698944091796875">
        <ele>129.8000030517578125</ele>
        <time>2018-08-18T08:52:03.000Z</time>
      </trkpt>
      <trkpt lat="51.17685721255838871002197265625" lon="12.29365356266498565673828125">
        <ele>130.1999969482421875</ele>
        <time>2018-08-18T08:52:11.000Z</time>
      </trkpt>
      <trkpt lat="51.17731201462447643280029296875" lon="12.2942803613841533660888671875">
        <ele>130.1999969482421875</ele>
        <time>2018-08-18T08:52:19.000Z</time>
      </trkpt>
      <trkpt lat="51.17774418555200099945068359375" lon="12.29496709071099758148193359375">
        <ele>130</ele>
        <time>2018-08-18T08:52:27.000Z</time>
      </trkpt>
      <trkpt lat="51.17818213999271392822265625" lon="12.2956523112952709197998046875">
        <ele>129.399993896484375</ele>
        <time>2018-08-18T08:52:35.000Z</time>
      </trkpt>
      <trkpt lat="51.1785655282437801361083984375" lon="12.29625999927520751953125">
        <ele>129.399993896484375</ele>
        <time>2018-08-18T08:52:42.000Z</time>
      </trkpt>
      <trkpt lat="51.17899359203875064849853515625" lon="12.2969370894134044647216796875">
        <ele>129</ele>
        <time>2018-08-18T08:52:50.000Z</time>
      </trkpt>
      <trkpt lat="51.17941997945308685302734375" lon="12.29762532748281955718994140625">
        <ele>129</ele>
        <time>2018-08-18T08:52:58.000Z</time>
      </trkpt>
      <trkpt lat="51.1798489652574062347412109375" lon="12.2983097098767757415771484375">
        <ele>128.8000030517578125</ele>
        <time>2018-08-18T08:53:06.000Z</time>
      </trkpt>
      <trkpt lat="51.18023268878459930419921875" lon="12.29892167262732982635498046875">
        <ele>128.399993896484375</ele>
        <time>2018-08-18T08:53:13.000Z</time>
      </trkpt>
      <trkpt lat="51.18066729046404361724853515625" lon="12.29960764758288860321044921875">
        <ele>128.399993896484375</ele>
        <time>2018-08-18T08:53:21.000Z</time>
      </trkpt>
      <trkpt lat="51.18110214360058307647705078125" lon="12.300296723842620849609375">
        <ele>128.1999969482421875</ele>
        <time>2018-08-18T08:53:29.000Z</time>
      </trkpt>
      <trkpt lat="51.18148871697485446929931640625" lon="12.3009141348302364349365234375">
        <ele>128</ele>
        <time>2018-08-18T08:53:36.000Z</time>
      </trkpt>
      <trkpt lat="51.18190764449536800384521484375" lon="12.3015846870839595794677734375">
        <ele>127.8000030517578125</ele>
        <time>2018-08-18T08:53:44.000Z</time>
      </trkpt>
      <trkpt lat="51.18227728642523288726806640625" lon="12.3021700792014598846435546875">
        <ele>127.40000152587890625</ele>
        <time>2018-08-18T08:53:51.000Z</time>
      </trkpt>
      <trkpt lat="51.1826857365667819976806640625" lon="12.3028295673429965972900390625">
        <ele>127.40000152587890625</ele>
        <time>2018-08-18T08:53:59.000Z</time>
      </trkpt>
      <trkpt lat="51.18309200741350650787353515625" lon="12.3035091720521450042724609375">
        <ele>127.1999969482421875</ele>
        <time>2018-08-18T08:54:07.000Z</time>
      </trkpt>
      <trkpt lat="51.18351839482784271240234375" lon="12.30418567545711994171142578125">
        <ele>127</ele>
        <time>2018-08-18T08:54:15.000Z</time>
      </trkpt>
      <trkpt lat="51.18393958546221256256103515625" lon="12.30485689826309680938720703125">
        <ele>126.8000030517578125</ele>
        <time>2018-08-18T08:54:23.000Z</time>
      </trkpt>
      <trkpt lat="51.18433001451194286346435546875" lon="12.3054693639278411865234375">
        <ele>126.40000152587890625</ele>
        <time>2018-08-18T08:54:30.000Z</time>
      </trkpt>
      <trkpt lat="51.18438617326319217681884765625" lon="12.30555879883468151092529296875">
        <ele>126.40000152587890625</ele>
        <time>2018-08-18T08:54:31.000Z</time>
      </trkpt>
      <trkpt lat="51.184786073863506317138671875" lon="12.3061705939471721649169921875">
        <ele>126.1999969482421875</ele>
        <time>2018-08-18T08:54:38.000Z</time>
      </trkpt>
      <trkpt lat="51.1851738207042217254638671875" lon="12.30677090585231781005859375">
        <ele>126</ele>
        <time>2018-08-18T08:54:45.000Z</time>
      </trkpt>
      <trkpt lat="51.18558461777865886688232421875" lon="12.30736811645328998565673828125">
        <ele>126</ele>
        <time>2018-08-18T08:54:52.000Z</time>
      </trkpt>
      <trkpt lat="51.18600840680301189422607421875" lon="12.307934649288654327392578125">
        <ele>126</ele>
        <time>2018-08-18T08:54:59.000Z</time>
      </trkpt>
      <trkpt lat="51.18644510395824909210205078125" lon="12.30845130980014801025390625">
        <ele>125.8000030517578125</ele>
        <time>2018-08-18T08:55:07.000Z</time>
      </trkpt>
      <trkpt lat="51.18695572949945926666259765625" lon="12.308965623378753662109375">
        <ele>126</ele>
        <time>2018-08-18T08:55:15.000Z</time>
      </trkpt>
      <trkpt lat="51.18745042942464351654052734375" lon="12.30946711264550685882568359375">
        <ele>126</ele>
        <time>2018-08-18T08:55:23.000Z</time>
      </trkpt>
      <trkpt lat="51.1879556067287921905517578125" lon="12.30997488833963871002197265625">
        <ele>126</ele>
        <time>2018-08-18T08:55:31.000Z</time>
      </trkpt>
      <trkpt lat="51.1884690821170806884765625" lon="12.31051216833293437957763671875">
        <ele>126</ele>
        <time>2018-08-18T08:55:39.000Z</time>
      </trkpt>
      <trkpt lat="51.1889275722205638885498046875" lon="12.310984320938587188720703125">
        <ele>126</ele>
        <time>2018-08-18T08:55:46.000Z</time>
      </trkpt>
      <trkpt lat="51.18938706815242767333984375" lon="12.31144943274557590484619140625">
        <ele>125.59999847412109375</ele>
        <time>2018-08-18T08:55:53.000Z</time>
      </trkpt>
      <trkpt lat="51.189650930464267730712890625" lon="12.3117251135408878326416015625">
        <ele>125.40000152587890625</ele>
        <time>2018-08-18T08:55:57.000Z</time>
      </trkpt>
      <trkpt lat="51.19012333452701568603515625" lon="12.3121971823275089263916015625">
        <ele>124.8000030517578125</ele>
        <time>2018-08-18T08:56:04.000Z</time>
      </trkpt>
      <trkpt lat="51.1905995942652225494384765625" lon="12.312688864767551422119140625">
        <ele>124.59999847412109375</ele>
        <time>2018-08-18T08:56:11.000Z</time>
      </trkpt>
      <trkpt lat="51.19080595672130584716796875" lon="12.312903441488742828369140625">
        <ele>124.40000152587890625</ele>
        <time>2018-08-18T08:56:14.000Z</time>
      </trkpt>
      <trkpt lat="51.191283054649829864501953125" lon="12.3133864067494869232177734375">
        <ele>124.1999969482421875</ele>
        <time>2018-08-18T08:56:21.000Z</time>
      </trkpt>
      <trkpt lat="51.19180331937968730926513671875" lon="12.31390767730772495269775390625">
        <ele>123.40000152587890625</ele>
        <time>2018-08-18T08:56:29.000Z</time>
      </trkpt>
      <trkpt lat="51.19186819531023502349853515625" lon="12.3139707930386066436767578125">
        <ele>123.40000152587890625</ele>
        <time>2018-08-18T08:56:30.000Z</time>
      </trkpt>
      <trkpt lat="51.1923272721469402313232421875" lon="12.3144301213324069976806640625">
        <ele>123</ele>
        <time>2018-08-18T08:56:37.000Z</time>
      </trkpt>
      <trkpt lat="51.1928435973823070526123046875" lon="12.3149536550045013427734375">
        <ele>123</ele>
        <time>2018-08-18T08:56:45.000Z</time>
      </trkpt>
      <trkpt lat="51.1933062784373760223388671875" lon="12.31542245484888553619384765625">
        <ele>122.40000152587890625</ele>
        <time>2018-08-18T08:56:52.000Z</time>
      </trkpt>
      <trkpt lat="51.19337308220565319061279296875" lon="12.315489761531352996826171875">
        <ele>122.40000152587890625</ele>
        <time>2018-08-18T08:56:53.000Z</time>
      </trkpt>
      <trkpt lat="51.19384096004068851470947265625" lon="12.3159660212695598602294921875">
        <ele>122</ele>
        <time>2018-08-18T08:57:00.000Z</time>
      </trkpt>
      <trkpt lat="51.1943134479224681854248046875" lon="12.3164401017129421234130859375">
        <ele>121.40000152587890625</ele>
        <time>2018-08-18T08:57:07.000Z</time>
      </trkpt>
      <trkpt lat="51.19438041932880878448486328125" lon="12.316505648195743560791015625">
        <ele>121.1999969482421875</ele>
        <time>2018-08-18T08:57:08.000Z</time>
      </trkpt>
      <trkpt lat="51.1948445253074169158935546875" lon="12.31697344221174716949462890625">
        <ele>121</ele>
        <time>2018-08-18T08:57:15.000Z</time>
      </trkpt>
      <trkpt lat="51.1953031830489635467529296875" lon="12.3174341954290866851806640625">
        <ele>120.59999847412109375</ele>
        <time>2018-08-18T08:57:22.000Z</time>
      </trkpt>
      <trkpt lat="51.19568749330937862396240234375" lon="12.317819930613040924072265625">
        <ele>120.1999969482421875</ele>
        <time>2018-08-18T08:57:28.000Z</time>
      </trkpt>
      <trkpt lat="51.1961755715310573577880859375" lon="12.31832192279398441314697265625">
        <ele>120</ele>
        <time>2018-08-18T08:57:36.000Z</time>
      </trkpt>
      <trkpt lat="51.1963160522282123565673828125" lon="12.31844949536025524139404296875">
        <ele>119.8000030517578125</ele>
        <time>2018-08-18T08:57:39.000Z</time>
      </trkpt>
      <trkpt lat="51.19641336612403392791748046875" lon="12.3182526044547557830810546875">
        <ele>119.59999847412109375</ele>
        <time>2018-08-18T08:57:43.000Z</time>
      </trkpt>
      <trkpt lat="51.19650288484990596771240234375" lon="12.31788656674325466156005859375">
        <ele>119.8000030517578125</ele>
        <time>2018-08-18T08:57:47.000Z</time>
      </trkpt>
      <trkpt lat="51.19655770249664783477783203125" lon="12.31747828423976898193359375">
        <ele>119.1999969482421875</ele>
        <time>2018-08-18T08:57:51.000Z</time>
      </trkpt>
      <trkpt lat="51.196589134633541107177734375" lon="12.317412905395030975341796875">
        <ele>119.1999969482421875</ele>
        <time>2018-08-18T08:57:52.000Z</time>
      </trkpt>
      <trkpt lat="51.19678996503353118896484375" lon="12.31747032143175601959228515625">
        <ele>118.1999969482421875</ele>
        <time>2018-08-18T08:57:57.000Z</time>
      </trkpt>
      <trkpt lat="51.19732380844652652740478515625" lon="12.31786586344242095947265625">
        <ele>117.40000152587890625</ele>
        <time>2018-08-18T08:58:06.000Z</time>
      </trkpt>
      <trkpt lat="51.19779403321444988250732421875" lon="12.31829342432320117950439453125">
        <ele>117.8000030517578125</ele>
        <time>2018-08-18T08:58:14.000Z</time>
      </trkpt>
      <trkpt lat="51.19803073816001415252685546875" lon="12.3185397684574127197265625">
        <ele>118</ele>
        <time>2018-08-18T08:58:18.000Z</time>
      </trkpt>
      <trkpt lat="51.19822050444781780242919921875" lon="12.3186683468520641326904296875">
        <ele>118</ele>
        <time>2018-08-18T08:58:21.000Z</time>
      </trkpt>
      <trkpt lat="51.1987162940204143524169921875" lon="12.3192081414163112640380859375">
        <ele>117.8000030517578125</ele>
        <time>2018-08-18T08:58:29.000Z</time>
      </trkpt>
      <trkpt lat="51.19919330812990665435791015625" lon="12.319653891026973724365234375">
        <ele>117.40000152587890625</ele>
        <time>2018-08-18T08:58:36.000Z</time>
      </trkpt>
      <trkpt lat="51.19959530420601367950439453125" lon="12.32003468088805675506591796875">
        <ele>117.1999969482421875</ele>
        <time>2018-08-18T08:58:42.000Z</time>
      </trkpt>
      <trkpt lat="51.2001234479248523712158203125" lon="12.32049015350639820098876953125">
        <ele>116.59999847412109375</ele>
        <time>2018-08-18T08:58:50.000Z</time>
      </trkpt>
      <trkpt lat="51.20060347951948642730712890625" lon="12.320917546749114990234375">
        <ele>116.40000152587890625</ele>
        <time>2018-08-18T08:58:58.000Z</time>
      </trkpt>
      <trkpt lat="51.20077572762966156005859375" lon="12.3210370726883411407470703125">
        <ele>116.59999847412109375</ele>
        <time>2018-08-18T08:59:07.000Z</time>
      </trkpt>
      <trkpt lat="51.20080296881496906280517578125" lon="12.32105433940887451171875">
        <ele>117.1999969482421875</ele>
        <time>2018-08-18T08:59:23.000Z</time>
      </trkpt>
      <trkpt lat="51.20091679506003856658935546875" lon="12.3213207162916660308837890625">
        <ele>117.1999969482421875</ele>
        <time>2018-08-18T08:59:30.000Z</time>
      </trkpt>
      <trkpt lat="51.20110756717622280120849609375" lon="12.3216013424098491668701171875">
        <ele>117.1999969482421875</ele>
        <time>2018-08-18T08:59:35.000Z</time>
      </trkpt>
      <trkpt lat="51.2015755288302898406982421875" lon="12.322057150304317474365234375">
        <ele>118.40000152587890625</ele>
        <time>2018-08-18T08:59:44.000Z</time>
      </trkpt>
      <trkpt lat="51.202086992561817169189453125" lon="12.3225458152592182159423828125">
        <ele>119</ele>
        <time>2018-08-18T08:59:53.000Z</time>
      </trkpt>
      <trkpt lat="51.20255042798817157745361328125" lon="12.32302106916904449462890625">
        <ele>119.1999969482421875</ele>
        <time>2018-08-18T09:00:01.000Z</time>
      </trkpt>
      <trkpt lat="51.20266391895711421966552734375" lon="12.32315626926720142364501953125">
        <ele>119.1999969482421875</ele>
        <time>2018-08-18T09:00:03.000Z</time>
      </trkpt>
      <trkpt lat="51.20307446457445621490478515625" lon="12.3237196169793605804443359375">
        <ele>120</ele>
        <time>2018-08-18T09:00:11.000Z</time>
      </trkpt>
      <trkpt lat="51.2032569386065006256103515625" lon="12.324001081287860870361328125">
        <ele>120.59999847412109375</ele>
        <time>2018-08-18T09:00:15.000Z</time>
      </trkpt>
      <trkpt lat="51.20356924831867218017578125" lon="12.3245863057672977447509765625">
        <ele>121.8000030517578125</ele>
        <time>2018-08-18T09:00:23.000Z</time>
      </trkpt>
      <trkpt lat="51.20372657664120197296142578125" lon="12.32500548474490642547607421875">
        <ele>123</ele>
        <time>2018-08-18T09:00:28.000Z</time>
      </trkpt>
      <trkpt lat="51.20384149253368377685546875" lon="12.32535735704004764556884765625">
        <ele>124.1999969482421875</ele>
        <time>2018-08-18T09:00:32.000Z</time>
      </trkpt>
      <trkpt lat="51.2039695680141448974609375" lon="12.32582087628543376922607421875">
        <ele>125.59999847412109375</ele>
        <time>2018-08-18T09:00:37.000Z</time>
      </trkpt>
      <trkpt lat="51.2040713243186473846435546875" lon="12.3263263888657093048095703125">
        <ele>126.59999847412109375</ele>
        <time>2018-08-18T09:00:42.000Z</time>
      </trkpt>
      <trkpt lat="51.20417417027056217193603515625" lon="12.32719433493912220001220703125">
        <ele>127.1999969482421875</ele>
        <time>2018-08-18T09:00:50.000Z</time>
      </trkpt>
      <trkpt lat="51.204181797802448272705078125" lon="12.3281412385404109954833984375">
        <ele>127.59999847412109375</ele>
        <time>2018-08-18T09:00:58.000Z</time>
      </trkpt>
      <trkpt lat="51.2041734158992767333984375" lon="12.32904673554003238677978515625">
        <ele>127.59999847412109375</ele>
        <time>2018-08-18T09:01:05.000Z</time>
      </trkpt>
      <trkpt lat="51.20421172119677066802978515625" lon="12.330001182854175567626953125">
        <ele>126.59999847412109375</ele>
        <time>2018-08-18T09:01:12.000Z</time>
      </trkpt>
      <trkpt lat="51.20433895848691463470458984375" lon="12.33094624243676662445068359375">
        <ele>126.1999969482421875</ele>
        <time>2018-08-18T09:01:19.000Z</time>
      </trkpt>
      <trkpt lat="51.20454917661845684051513671875" lon="12.331871688365936279296875">
        <ele>126</ele>
        <time>2018-08-18T09:01:26.000Z</time>
      </trkpt>
      <trkpt lat="51.20482586324214935302734375" lon="12.332672663033008575439453125">
        <ele>126.1999969482421875</ele>
        <time>2018-08-18T09:01:33.000Z</time>
      </trkpt>
      <trkpt lat="51.20515988208353519439697265625" lon="12.33338068239390850067138671875">
        <ele>126.40000152587890625</ele>
        <time>2018-08-18T09:01:40.000Z</time>
      </trkpt>
      <trkpt lat="51.2055451981723308563232421875" lon="12.33400563709437847137451171875">
        <ele>127.1999969482421875</ele>
        <time>2018-08-18T09:01:47.000Z</time>
      </trkpt>
      <trkpt lat="51.20595867745578289031982421875" lon="12.33459555543959140777587890625">
        <ele>127.40000152587890625</ele>
        <time>2018-08-18T09:01:54.000Z</time>
      </trkpt>
      <trkpt lat="51.2063914351165294647216796875" lon="12.33519737608730792999267578125">
        <ele>127.40000152587890625</ele>
        <time>2018-08-18T09:02:01.000Z</time>
      </trkpt>
      <trkpt lat="51.20683156885206699371337890625" lon="12.3358069919049739837646484375">
        <ele>127.59999847412109375</ele>
        <time>2018-08-18T09:02:08.000Z</time>
      </trkpt>
      <trkpt lat="51.2072829343378543853759765625" lon="12.33643881976604461669921875">
        <ele>128</ele>
        <time>2018-08-18T09:02:15.000Z</time>
      </trkpt>
      <trkpt lat="51.2077325396239757537841796875" lon="12.33707039617002010345458984375">
        <ele>128</ele>
        <time>2018-08-18T09:02:22.000Z</time>
      </trkpt>
      <trkpt lat="51.208189018070697784423828125" lon="12.3377130366861820220947265625">
        <ele>127.8000030517578125</ele>
        <time>2018-08-18T09:02:29.000Z</time>
      </trkpt>
      <trkpt lat="51.2086444906890392303466796875" lon="12.33835819177329540252685546875">
        <ele>127.8000030517578125</ele>
        <time>2018-08-18T09:02:36.000Z</time>
      </trkpt>
      <trkpt lat="51.20911228470504283905029296875" lon="12.33901583589613437652587890625">
        <ele>127.59999847412109375</ele>
        <time>2018-08-18T09:02:43.000Z</time>
      </trkpt>
      <trkpt lat="51.2095229141414165496826171875" lon="12.33959334902465343475341796875">
        <ele>127.59999847412109375</ele>
        <time>2018-08-18T09:02:49.000Z</time>
      </trkpt>
      <trkpt lat="51.2099336273968219757080078125" lon="12.34017153270542621612548828125">
        <ele>127.40000152587890625</ele>
        <time>2018-08-18T09:02:55.000Z</time>
      </trkpt>
      <trkpt lat="51.21034962125122547149658203125" lon="12.34075910411775112152099609375">
        <ele>127.40000152587890625</ele>
        <time>2018-08-18T09:03:01.000Z</time>
      </trkpt>
      <trkpt lat="51.2107738293707370758056640625" lon="12.34135757200419902801513671875">
        <ele>127.1999969482421875</ele>
        <time>2018-08-18T09:03:07.000Z</time>
      </trkpt>
      <trkpt lat="51.21119887568056583404541015625" lon="12.34196257777512073516845703125">
        <ele>127</ele>
        <time>2018-08-18T09:03:13.000Z</time>
      </trkpt>
      <trkpt lat="51.2116224132478237152099609375" lon="12.3425815813243389129638671875">
        <ele>127</ele>
        <time>2018-08-18T09:03:19.000Z</time>
      </trkpt>
      <trkpt lat="51.2120337970554828643798828125" lon="12.3432058654725551605224609375">
        <ele>126.8000030517578125</ele>
        <time>2018-08-18T09:03:25.000Z</time>
      </trkpt>
      <trkpt lat="51.21243403293192386627197265625" lon="12.34387566335499286651611328125">
        <ele>127</ele>
        <time>2018-08-18T09:03:32.000Z</time>
      </trkpt>
      <trkpt lat="51.21276176534593105316162109375" lon="12.34458276070654392242431640625">
        <ele>127.40000152587890625</ele>
        <time>2018-08-18T09:03:43.000Z</time>
      </trkpt>
      <trkpt lat="51.21306066401302814483642578125" lon="12.345382310450077056884765625">
        <ele>128</ele>
        <time>2018-08-18T09:03:52.000Z</time>
      </trkpt>
      <trkpt lat="51.213212795555591583251953125" lon="12.34589737839996814727783203125">
        <ele>128.8000030517578125</ele>
        <time>2018-08-18T09:03:57.000Z</time>
      </trkpt>
      <trkpt lat="51.21335101313889026641845703125" lon="12.3465891368687152862548828125">
        <ele>129.8000030517578125</ele>
        <time>2018-08-18T09:04:03.000Z</time>
      </trkpt>
      <trkpt lat="51.21343751437962055206298828125" lon="12.34721953980624675750732421875">
        <ele>131.1999969482421875</ele>
        <time>2018-08-18T09:04:08.000Z</time>
      </trkpt>
      <trkpt lat="51.21350758709013462066650390625" lon="12.34819234348833560943603515625">
        <ele>131.399993896484375</ele>
        <time>2018-08-18T09:04:15.000Z</time>
      </trkpt>
      <trkpt lat="51.21353633701801300048828125" lon="12.34909608028829097747802734375">
        <ele>131.399993896484375</ele>
        <time>2018-08-18T09:04:21.000Z</time>
      </trkpt>
      <trkpt lat="51.21356894262135028839111328125" lon="12.35004960559308528900146484375">
        <ele>131.1999969482421875</ele>
        <time>2018-08-18T09:04:27.000Z</time>
      </trkpt>
      <trkpt lat="51.213594339787960052490234375" lon="12.35087857581675052642822265625">
        <ele>129.8000030517578125</ele>
        <time>2018-08-18T09:04:32.000Z</time>
      </trkpt>
      <trkpt lat="51.213615797460079193115234375" lon="12.35155063681304454803466796875">
        <ele>128.600006103515625</ele>
        <time>2018-08-18T09:04:36.000Z</time>
      </trkpt>
      <trkpt lat="51.2136387638747692108154296875" lon="12.35222370363771915435791015625">
        <ele>127.59999847412109375</ele>
        <time>2018-08-18T09:04:40.000Z</time>
      </trkpt>
      <trkpt lat="51.21367287822067737579345703125" lon="12.3528993688523769378662109375">
        <ele>126.59999847412109375</ele>
        <time>2018-08-18T09:04:44.000Z</time>
      </trkpt>
      <trkpt lat="51.213727779686450958251953125" lon="12.35358215868473052978515625">
        <ele>125.1999969482421875</ele>
        <time>2018-08-18T09:04:48.000Z</time>
      </trkpt>
      <trkpt lat="51.2138007022440433502197265625" lon="12.3542723245918750762939453125">
        <ele>124.1999969482421875</ele>
        <time>2018-08-18T09:04:52.000Z</time>
      </trkpt>
      <trkpt lat="51.21387136168777942657470703125" lon="12.35478688962757587432861328125">
        <ele>123</ele>
        <time>2018-08-18T09:04:55.000Z</time>
      </trkpt>
      <trkpt lat="51.2139810808002948760986328125" lon="12.355462051928043365478515625">
        <ele>122</ele>
        <time>2018-08-18T09:04:59.000Z</time>
      </trkpt>
      <trkpt lat="51.2141118384897708892822265625" lon="12.3561282455921173095703125">
        <ele>121</ele>
        <time>2018-08-18T09:05:03.000Z</time>
      </trkpt>
      <trkpt lat="51.21426246128976345062255859375" lon="12.356782369315624237060546875">
        <ele>120</ele>
        <time>2018-08-18T09:05:07.000Z</time>
      </trkpt>
      <trkpt lat="51.21452112682163715362548828125" lon="12.35772223211824893951416015625">
        <ele>119.40000152587890625</ele>
        <time>2018-08-18T09:05:13.000Z</time>
      </trkpt>
      <trkpt lat="51.21481306850910186767578125" lon="12.3585950396955013275146484375">
        <ele>119.1999969482421875</ele>
        <time>2018-08-18T09:05:19.000Z</time>
      </trkpt>
      <trkpt lat="51.21512076817452907562255859375" lon="12.35939660109579563140869140625">
        <ele>119</ele>
        <time>2018-08-18T09:05:25.000Z</time>
      </trkpt>
      <trkpt lat="51.21544397436082363128662109375" lon="12.36014225520193576812744140625">
        <ele>119</ele>
        <time>2018-08-18T09:05:31.000Z</time>
      </trkpt>
      <trkpt lat="51.21549862436950206756591796875" lon="12.36026496626436710357666015625">
        <ele>119</ele>
        <time>2018-08-18T09:05:32.000Z</time>
      </trkpt>
      <trkpt lat="51.21582618914544582366943359375" lon="12.36099117435514926910400390625">
        <ele>118.8000030517578125</ele>
        <time>2018-08-18T09:05:38.000Z</time>
      </trkpt>
      <trkpt lat="51.21614973060786724090576171875" lon="12.36171084456145763397216796875">
        <ele>118.40000152587890625</ele>
        <time>2018-08-18T09:05:44.000Z</time>
      </trkpt>
      <trkpt lat="51.2164272554218769073486328125" lon="12.36232540570199489593505859375">
        <ele>117.8000030517578125</ele>
        <time>2018-08-18T09:05:49.000Z</time>
      </trkpt>
      <trkpt lat="51.21676228009164333343505859375" lon="12.3630692996084690093994140625">
        <ele>117.8000030517578125</ele>
        <time>2018-08-18T09:05:55.000Z</time>
      </trkpt>
      <trkpt lat="51.21709621511399745941162109375" lon="12.363815121352672576904296875">
        <ele>117.59999847412109375</ele>
        <time>2018-08-18T09:06:01.000Z</time>
      </trkpt>
      <trkpt lat="51.21746309101581573486328125" lon="12.36461483873426914215087890625">
        <ele>117.40000152587890625</ele>
        <time>2018-08-18T09:06:08.000Z</time>
      </trkpt>
      <trkpt lat="51.21780549176037311553955078125" lon="12.3652868159115314483642578125">
        <ele>117.1999969482421875</ele>
        <time>2018-08-18T09:06:14.000Z</time>
      </trkpt>
      <trkpt lat="51.2181244231760501861572265625" lon="12.365985028445720672607421875">
        <ele>117</ele>
        <time>2018-08-18T09:06:20.000Z</time>
      </trkpt>
      <trkpt lat="51.218371689319610595703125" lon="12.36654351465404033660888671875">
        <ele>117</ele>
        <time>2018-08-18T09:06:25.000Z</time>
      </trkpt>
      <trkpt lat="51.21856237761676311492919921875" lon="12.3667000047862529754638671875">
        <ele>116.8000030517578125</ele>
        <time>2018-08-18T09:06:28.000Z</time>
      </trkpt>
      <trkpt lat="51.21875851415097713470458984375" lon="12.3664207197725772857666015625">
        <ele>116.8000030517578125</ele>
        <time>2018-08-18T09:06:32.000Z</time>
      </trkpt>
      <trkpt lat="51.21879338286817073822021484375" lon="12.36634151078760623931884765625">
        <ele>116.8000030517578125</ele>
        <time>2018-08-18T09:06:33.000Z</time>
      </trkpt>
      <trkpt lat="51.2188710831105709075927734375" lon="12.36614269204437732696533203125">
        <ele>116.59999847412109375</ele>
        <time>2018-08-18T09:06:37.000Z</time>
      </trkpt>
      <trkpt lat="51.21892699040472507476806640625" lon="12.36598075367510318756103515625">
        <ele>116.40000152587890625</ele>
        <time>2018-08-18T09:06:40.000Z</time>
      </trkpt>
      <trkpt lat="51.21911943890154361724853515625" lon="12.36546191386878490447998046875">
        <ele>116.1999969482421875</ele>
        <time>2018-08-18T09:06:48.000Z</time>
      </trkpt>
      <trkpt lat="51.21917475946247577667236328125" lon="12.36532126553356647491455078125">
        <ele>116.1999969482421875</ele>
        <time>2018-08-18T09:06:50.000Z</time>
      </trkpt>
      <trkpt lat="51.21922798454761505126953125" lon="12.36516938544809818267822265625">
        <ele>116.1999969482421875</ele>
        <time>2018-08-18T09:06:52.000Z</time>
      </trkpt>
      <trkpt lat="51.21937810443341732025146484375" lon="12.36478817649185657501220703125">
        <ele>116.40000152587890625</ele>
        <time>2018-08-18T09:06:57.000Z</time>
      </trkpt>
      <trkpt lat="51.21950383298099040985107421875" lon="12.36446614377200603485107421875">
        <ele>116.40000152587890625</ele>
        <time>2018-08-18T09:07:01.000Z</time>
      </trkpt>
      <trkpt lat="51.21977381408214569091796875" lon="12.36366190016269683837890625">
        <ele>116.8000030517578125</ele>
        <time>2018-08-18T09:07:10.000Z</time>
      </trkpt>
      <trkpt lat="51.22004530392587184906005859375" lon="12.36283418722450733184814453125">
        <ele>116.8000030517578125</ele>
        <time>2018-08-18T09:07:19.000Z</time>
      </trkpt>
      <trkpt lat="51.220347471535205841064453125" lon="12.3620235733687877655029296875">
        <ele>117</ele>
        <time>2018-08-18T09:07:28.000Z</time>
      </trkpt>
      <trkpt lat="51.220474205911159515380859375" lon="12.36169056035578250885009765625">
        <ele>116.8000030517578125</ele>
        <time>2018-08-18T09:07:32.000Z</time>
      </trkpt>
      <trkpt lat="51.220873184502124786376953125" lon="12.3616497404873371124267578125">
        <ele>116.59999847412109375</ele>
        <time>2018-08-18T09:07:39.000Z</time>
      </trkpt>
      <trkpt lat="51.221376098692417144775390625" lon="12.36208249814808368682861328125">
        <ele>116.40000152587890625</ele>
        <time>2018-08-18T09:07:47.000Z</time>
      </trkpt>
      <trkpt lat="51.22187792323529720306396484375" lon="12.36253000795841217041015625">
        <ele>116.40000152587890625</ele>
        <time>2018-08-18T09:07:55.000Z</time>
      </trkpt>
      <trkpt lat="51.22238033451139926910400390625" lon="12.36296989023685455322265625">
        <ele>116.40000152587890625</ele>
        <time>2018-08-18T09:08:03.000Z</time>
      </trkpt>
      <trkpt lat="51.2228833325207233428955078125" lon="12.36342544667422771453857421875">
        <ele>116.8000030517578125</ele>
        <time>2018-08-18T09:08:11.000Z</time>
      </trkpt>
      <trkpt lat="51.22339479625225067138671875" lon="12.3638717830181121826171875">
        <ele>117</ele>
        <time>2018-08-18T09:08:19.000Z</time>
      </trkpt>
      <trkpt lat="51.22390952892601490020751953125" lon="12.3643358051776885986328125">
        <ele>117.1999969482421875</ele>
        <time>2018-08-18T09:08:27.000Z</time>
      </trkpt>
      <trkpt lat="51.224406994879245758056640625" lon="12.36477878876030445098876953125">
        <ele>117.59999847412109375</ele>
        <time>2018-08-18T09:08:35.000Z</time>
      </trkpt>
      <trkpt lat="51.22466088272631168365478515625" lon="12.36500727944076061248779296875">
        <ele>118</ele>
        <time>2018-08-18T09:08:39.000Z</time>
      </trkpt>
      <trkpt lat="51.22518274001777172088623046875" lon="12.365456633269786834716796875">
        <ele>118</ele>
        <time>2018-08-18T09:08:47.000Z</time>
      </trkpt>
      <trkpt lat="51.22570258565247058868408203125" lon="12.36592509783804416656494140625">
        <ele>118</ele>
        <time>2018-08-18T09:08:55.000Z</time>
      </trkpt>
      <trkpt lat="51.2262350879609584808349609375" lon="12.366400100290775299072265625">
        <ele>117.59999847412109375</ele>
        <time>2018-08-18T09:09:03.000Z</time>
      </trkpt>
      <trkpt lat="51.2267567776143550872802734375" lon="12.366864122450351715087890625">
        <ele>117.40000152587890625</ele>
        <time>2018-08-18T09:09:11.000Z</time>
      </trkpt>
      <trkpt lat="51.2272700853645801544189453125" lon="12.36731079407036304473876953125">
        <ele>117.59999847412109375</ele>
        <time>2018-08-18T09:09:19.000Z</time>
      </trkpt>
      <trkpt lat="51.2277793698012828826904296875" lon="12.36775419674813747406005859375">
        <ele>118.1999969482421875</ele>
        <time>2018-08-18T09:09:27.000Z</time>
      </trkpt>
      <trkpt lat="51.22829787433147430419921875" lon="12.36821101047098636627197265625">
        <ele>118.8000030517578125</ele>
        <time>2018-08-18T09:09:35.000Z</time>
      </trkpt>
      <trkpt lat="51.2283620797097682952880859375" lon="12.3682680912315845489501953125">
        <ele>119</ele>
        <time>2018-08-18T09:09:36.000Z</time>
      </trkpt>
      <trkpt lat="51.2288551032543182373046875" lon="12.36865885555744171142578125">
        <ele>119.40000152587890625</ele>
        <time>2018-08-18T09:09:44.000Z</time>
      </trkpt>
      <trkpt lat="51.229143440723419189453125" lon="12.36869364045560359954833984375">
        <ele>119.40000152587890625</ele>
        <time>2018-08-18T09:09:48.000Z</time>
      </trkpt>
      <trkpt lat="51.22968281619250774383544921875" lon="12.36860747449100017547607421875">
        <ele>119.1999969482421875</ele>
        <time>2018-08-18T09:09:55.000Z</time>
      </trkpt>
      <trkpt lat="51.23025379143655300140380859375" lon="12.3685017786920070648193359375">
        <ele>118.59999847412109375</ele>
        <time>2018-08-18T09:10:02.000Z</time>
      </trkpt>
      <trkpt lat="51.2306493334472179412841796875" lon="12.36843329854309558868408203125">
        <ele>118</ele>
        <time>2018-08-18T09:10:07.000Z</time>
      </trkpt>
      <trkpt lat="51.23125392012298107147216796875" lon="12.3683277703821659088134765625">
        <ele>117.8000030517578125</ele>
        <time>2018-08-18T09:10:15.000Z</time>
      </trkpt>
      <trkpt lat="51.231791116297245025634765625" lon="12.36823213286697864532470703125">
        <ele>117.8000030517578125</ele>
        <time>2018-08-18T09:10:22.000Z</time>
      </trkpt>
      <trkpt lat="51.232342980802059173583984375" lon="12.368129789829254150390625">
        <ele>117.40000152587890625</ele>
        <time>2018-08-18T09:10:29.000Z</time>
      </trkpt>
      <trkpt lat="51.23289828188717365264892578125" lon="12.36804052256047725677490234375">
        <ele>117</ele>
        <time>2018-08-18T09:10:36.000Z</time>
      </trkpt>
      <trkpt lat="51.23305083252489566802978515625" lon="12.3680152930319309234619140625">
        <ele>116.8000030517578125</ele>
        <time>2018-08-18T09:10:38.000Z</time>
      </trkpt>
      <trkpt lat="51.23359146527945995330810546875" lon="12.36792267300188541412353515625">
        <ele>116.8000030517578125</ele>
        <time>2018-08-18T09:10:45.000Z</time>
      </trkpt>
      <trkpt lat="51.2341439165174961090087890625" lon="12.36782309599220752716064453125">
        <ele>117</ele>
        <time>2018-08-18T09:10:52.000Z</time>
      </trkpt>
      <trkpt lat="51.2347487546503543853759765625" lon="12.36771631054580211639404296875">
        <ele>117.1999969482421875</ele>
        <time>2018-08-18T09:11:00.000Z</time>
      </trkpt>
      <trkpt lat="51.2353535927832126617431640625" lon="12.36760667525231838226318359375">
        <ele>117.59999847412109375</ele>
        <time>2018-08-18T09:11:08.000Z</time>
      </trkpt>
      <trkpt lat="51.23590688221156597137451171875" lon="12.36750659532845020294189453125">
        <ele>117.59999847412109375</ele>
        <time>2018-08-18T09:11:15.000Z</time>
      </trkpt>
      <trkpt lat="51.236474923789501190185546875" lon="12.36741104163229465484619140625">
        <ele>117.40000152587890625</ele>
        <time>2018-08-18T09:11:22.000Z</time>
      </trkpt>
      <trkpt lat="51.2370306439697742462158203125" lon="12.36732101999223232269287109375">
        <ele>117.40000152587890625</ele>
        <time>2018-08-18T09:11:29.000Z</time>
      </trkpt>
      <trkpt lat="51.23761025257408618927001953125" lon="12.367224209010601043701171875">
        <ele>117.1999969482421875</ele>
        <time>2018-08-18T09:11:36.000Z</time>
      </trkpt>
      <trkpt lat="51.23817921616137027740478515625" lon="12.36712823621928691864013671875">
        <ele>117</ele>
        <time>2018-08-18T09:11:43.000Z</time>
      </trkpt>
      <trkpt lat="51.23873627744615077972412109375" lon="12.36703050322830677032470703125">
        <ele>116.59999847412109375</ele>
        <time>2018-08-18T09:11:50.000Z</time>
      </trkpt>
      <trkpt lat="51.23930633068084716796875" lon="12.36693645827472209930419921875">
        <ele>116.40000152587890625</ele>
        <time>2018-08-18T09:11:57.000Z</time>
      </trkpt>
      <trkpt lat="51.23986565507948398590087890625" lon="12.36683386377990245819091796875">
        <ele>116</ele>
        <time>2018-08-18T09:12:04.000Z</time>
      </trkpt>
      <trkpt lat="51.2404239736497402191162109375" lon="12.3667311854660511016845703125">
        <ele>116.40000152587890625</ele>
        <time>2018-08-18T09:12:11.000Z</time>
      </trkpt>
      <trkpt lat="51.24099419452250003814697265625" lon="12.366643846035003662109375">
        <ele>116.59999847412109375</ele>
        <time>2018-08-18T09:12:18.000Z</time>
      </trkpt>
      <trkpt lat="51.24158360995352268218994140625" lon="12.366561703383922576904296875">
        <ele>116.8000030517578125</ele>
        <time>2018-08-18T09:12:25.000Z</time>
      </trkpt>
      <trkpt lat="51.24217562377452850341796875" lon="12.36651283688843250274658203125">
        <ele>116.8000030517578125</ele>
        <time>2018-08-18T09:12:32.000Z</time>
      </trkpt>
      <trkpt lat="51.2427457608282566070556640625" lon="12.3664995096623897552490234375">
        <ele>116.8000030517578125</ele>
        <time>2018-08-18T09:12:39.000Z</time>
      </trkpt>
      <trkpt lat="51.24333173967897891998291015625" lon="12.36653588712215423583984375">
        <ele>116.8000030517578125</ele>
        <time>2018-08-18T09:12:46.000Z</time>
      </trkpt>
      <trkpt lat="51.2437492422759532928466796875" lon="12.36660830676555633544921875">
        <ele>116</ele>
        <time>2018-08-18T09:12:51.000Z</time>
      </trkpt>
      <trkpt lat="51.24436003156006336212158203125" lon="12.36677183769643306732177734375">
        <ele>115.8000030517578125</ele>
        <time>2018-08-18T09:12:58.000Z</time>
      </trkpt>
      <trkpt lat="51.24489404261112213134765625" lon="12.36697434447705745697021484375">
        <ele>115.40000152587890625</ele>
        <time>2018-08-18T09:13:04.000Z</time>
      </trkpt>
      <trkpt lat="51.2450591661036014556884765625" lon="12.36705363728106021881103515625">
        <ele>115</ele>
        <time>2018-08-18T09:13:06.000Z</time>
      </trkpt>
      <trkpt lat="51.245370805263519287109375" lon="12.36725178547203540802001953125">
        <ele>114.40000152587890625</ele>
        <time>2018-08-18T09:13:10.000Z</time>
      </trkpt>
      <trkpt lat="51.2458165548741817474365234375" lon="12.36785016953945159912109375">
        <ele>114.40000152587890625</ele>
        <time>2018-08-18T09:13:18.000Z</time>
      </trkpt>
      <trkpt lat="51.24616499058902263641357421875" lon="12.36838803626596927642822265625">
        <ele>116</ele>
        <time>2018-08-18T09:13:26.000Z</time>
      </trkpt>
      <trkpt lat="51.24636665917932987213134765625" lon="12.36858098767697811126708984375">
        <ele>117.1999969482421875</ele>
        <time>2018-08-18T09:13:30.000Z</time>
      </trkpt>
      <trkpt lat="51.24642147682607173919677734375" lon="12.3686204664409160614013671875">
        <ele>117.59999847412109375</ele>
        <time>2018-08-18T09:13:31.000Z</time>
      </trkpt>
      <trkpt lat="51.24653647653758525848388671875" lon="12.36868307925760746002197265625">
        <ele>118.59999847412109375</ele>
        <time>2018-08-18T09:13:33.000Z</time>
      </trkpt>
      <trkpt lat="51.24677921645343303680419921875" lon="12.368759773671627044677734375">
        <ele>120</ele>
        <time>2018-08-18T09:13:37.000Z</time>
      </trkpt>
      <trkpt lat="51.24726050533354282379150390625" lon="12.3687629587948322296142578125">
        <ele>121.1999969482421875</ele>
        <time>2018-08-18T09:13:44.000Z</time>
      </trkpt>
      <trkpt lat="51.24773726798593997955322265625" lon="12.36873798072338104248046875">
        <ele>121.59999847412109375</ele>
        <time>2018-08-18T09:13:50.000Z</time>
      </trkpt>
      <trkpt lat="51.2482821755111217498779296875" lon="12.36892464570701122283935546875">
        <ele>121.40000152587890625</ele>
        <time>2018-08-18T09:13:56.000Z</time>
      </trkpt>
      <trkpt lat="51.248662211000919342041015625" lon="12.36923712305724620819091796875">
        <ele>119.8000030517578125</ele>
        <time>2018-08-18T09:14:00.000Z</time>
      </trkpt>
      <trkpt lat="51.24894191510975360870361328125" lon="12.36953132785856723785400390625">
        <ele>118.59999847412109375</ele>
        <time>2018-08-18T09:14:03.000Z</time>
      </trkpt>
      <trkpt lat="51.2491146661341190338134765625" lon="12.3697565495967864990234375">
        <ele>117.40000152587890625</ele>
        <time>2018-08-18T09:14:05.000Z</time>
      </trkpt>
      <trkpt lat="51.24935681931674480438232421875" lon="12.3701241798698902130126953125">
        <ele>116.1999969482421875</ele>
        <time>2018-08-18T09:14:08.000Z</time>
      </trkpt>
      <trkpt lat="51.249507777392864227294921875" lon="12.37037773244082927703857421875">
        <ele>115.1999969482421875</ele>
        <time>2018-08-18T09:14:10.000Z</time>
      </trkpt>
      <trkpt lat="51.24964666552841663360595703125" lon="12.37062986008822917938232421875">
        <ele>114.1999969482421875</ele>
        <time>2018-08-18T09:14:12.000Z</time>
      </trkpt>
      <trkpt lat="51.2497687898576259613037109375" lon="12.37088500522077083587646484375">
        <ele>112.8000030517578125</ele>
        <time>2018-08-18T09:14:14.000Z</time>
      </trkpt>
      <trkpt lat="51.24987297691404819488525390625" lon="12.371143586933612823486328125">
        <ele>111.1999969482421875</ele>
        <time>2018-08-18T09:14:16.000Z</time>
      </trkpt>
      <trkpt lat="51.2499679438769817352294921875" lon="12.3714049346745014190673828125">
        <ele>110</ele>
        <time>2018-08-18T09:14:18.000Z</time>
      </trkpt>
      <trkpt lat="51.2501754797995090484619140625" lon="12.3720721341669559478759765625">
        <ele>109</ele>
        <time>2018-08-18T09:14:23.000Z</time>
      </trkpt>
      <trkpt lat="51.250343956053256988525390625" lon="12.3728915490210056304931640625">
        <ele>108.59999847412109375</ele>
        <time>2018-08-18T09:14:29.000Z</time>
      </trkpt>
      <trkpt lat="51.25046490691602230072021484375" lon="12.3737919330596923828125">
        <ele>108</ele>
        <time>2018-08-18T09:14:36.000Z</time>
      </trkpt>
      <trkpt lat="51.2504916451871395111083984375" lon="12.37404464744031429290771484375">
        <ele>107.8000030517578125</ele>
        <time>2018-08-18T09:14:38.000Z</time>
      </trkpt>
      <trkpt lat="51.2505563534796237945556640625" lon="12.3749224841594696044921875">
        <ele>107.59999847412109375</ele>
        <time>2018-08-18T09:14:45.000Z</time>
      </trkpt>
      <trkpt lat="51.250601112842559814453125" lon="12.3756592534482479095458984375">
        <ele>107.59999847412109375</ele>
        <time>2018-08-18T09:14:51.000Z</time>
      </trkpt>
      <trkpt lat="51.25064595602452754974365234375" lon="12.3765671811997890472412109375">
        <ele>107.8000030517578125</ele>
        <time>2018-08-18T09:14:59.000Z</time>
      </trkpt>
      <trkpt lat="51.2506777234375476837158203125" lon="12.3774737678468227386474609375">
        <ele>108.59999847412109375</ele>
        <time>2018-08-18T09:15:07.000Z</time>
      </trkpt>
      <trkpt lat="51.2507467903196811676025390625" lon="12.37829527817666530609130859375">
        <ele>108.8000030517578125</ele>
        <time>2018-08-18T09:15:14.000Z</time>
      </trkpt>
      <trkpt lat="51.25097050331532955169677734375" lon="12.3785660974681377410888671875">
        <ele>108.8000030517578125</ele>
        <time>2018-08-18T09:15:18.000Z</time>
      </trkpt>
      <trkpt lat="51.25103001482784748077392578125" lon="12.378622256219387054443359375">
        <ele>108.8000030517578125</ele>
        <time>2018-08-18T09:15:19.000Z</time>
      </trkpt>
      <trkpt lat="51.25115163624286651611328125" lon="12.37900338135659694671630859375">
        <ele>108</ele>
        <time>2018-08-18T09:15:24.000Z</time>
      </trkpt>
      <trkpt lat="51.25117250718176364898681640625" lon="12.37916297279298305511474609375">
        <ele>107.1999969482421875</ele>
        <time>2018-08-18T09:15:26.000Z</time>
      </trkpt>
      <trkpt lat="51.25117451883852481842041015625" lon="12.3793120868504047393798828125">
        <ele>106.59999847412109375</ele>
        <time>2018-08-18T09:15:28.000Z</time>
      </trkpt>
      <trkpt lat="51.251175440847873687744140625" lon="12.379618026316165924072265625">
        <ele>106.40000152587890625</ele>
        <time>2018-08-18T09:15:32.000Z</time>
      </trkpt>
      <trkpt lat="51.25132472254335880279541015625" lon="12.3798012547194957733154296875">
        <ele>106.40000152587890625</ele>
        <time>2018-08-18T09:15:38.000Z</time>
      </trkpt>
      <trkpt lat="51.25143201090395450592041015625" lon="12.37979496829211711883544921875">
        <ele>106.59999847412109375</ele>
        <time>2018-08-18T09:15:40.000Z</time>
      </trkpt>
      <trkpt lat="51.251631081104278564453125" lon="12.3797922022640705108642578125">
        <ele>106.8000030517578125</ele>
        <time>2018-08-18T09:15:43.000Z</time>
      </trkpt>
      <trkpt lat="51.252206079661846160888671875" lon="12.379844002425670623779296875">
        <ele>107</ele>
        <time>2018-08-18T09:15:51.000Z</time>
      </trkpt>
      <trkpt lat="51.25278183259069919586181640625" lon="12.3800225369632244110107421875">
        <ele>107</ele>
        <time>2018-08-18T09:16:00.000Z</time>
      </trkpt>
      <trkpt lat="51.2533666379749774932861328125" lon="12.3800996504724025726318359375">
        <ele>107</ele>
        <time>2018-08-18T09:16:10.000Z</time>
      </trkpt>
      <trkpt lat="51.253967620432376861572265625" lon="12.380080036818981170654296875">
        <ele>107.40000152587890625</ele>
        <time>2018-08-18T09:16:19.000Z</time>
      </trkpt>
      <trkpt lat="51.25451085157692432403564453125" lon="12.37998942844569683074951171875">
        <ele>107.40000152587890625</ele>
        <time>2018-08-18T09:16:26.000Z</time>
      </trkpt>
      <trkpt lat="51.25508165918290615081787109375" lon="12.37998004071414470672607421875">
        <ele>107.40000152587890625</ele>
        <time>2018-08-18T09:16:33.000Z</time>
      </trkpt>
      <trkpt lat="51.25567384064197540283203125" lon="12.38004692830145359039306640625">
        <ele>107.1999969482421875</ele>
        <time>2018-08-18T09:16:40.000Z</time>
      </trkpt>
      <trkpt lat="51.2562778405845165252685546875" lon="12.38023283891379833221435546875">
        <ele>107</ele>
        <time>2018-08-18T09:16:47.000Z</time>
      </trkpt>
      <trkpt lat="51.2568171322345733642578125" lon="12.38017751835286617279052734375">
        <ele>107</ele>
        <time>2018-08-18T09:16:53.000Z</time>
      </trkpt>
      <trkpt lat="51.25735558569431304931640625" lon="12.38010543398559093475341796875">
        <ele>107.1999969482421875</ele>
        <time>2018-08-18T09:16:59.000Z</time>
      </trkpt>
      <trkpt lat="51.25753303058445453643798828125" lon="12.38005933351814746856689453125">
        <ele>107.1999969482421875</ele>
        <time>2018-08-18T09:17:01.000Z</time>
      </trkpt>
      <trkpt lat="51.2580400519073009490966796875" lon="12.37972137518227100372314453125">
        <ele>107</ele>
        <time>2018-08-18T09:17:07.000Z</time>
      </trkpt>
      <trkpt lat="51.2584980390965938568115234375" lon="12.37925182096660137176513671875">
        <ele>106.8000030517578125</ele>
        <time>2018-08-18T09:17:13.000Z</time>
      </trkpt>
      <trkpt lat="51.25857322476804256439208984375" lon="12.3791763000190258026123046875">
        <ele>106.8000030517578125</ele>
        <time>2018-08-18T09:17:14.000Z</time>
      </trkpt>
      <trkpt lat="51.25889073126018047332763671875" lon="12.37896130420267581939697265625">
        <ele>106.8000030517578125</ele>
        <time>2018-08-18T09:17:18.000Z</time>
      </trkpt>
      <trkpt lat="51.25897136516869068145751953125" lon="12.3789188079535961151123046875">
        <ele>106.8000030517578125</ele>
        <time>2018-08-18T09:17:19.000Z</time>
      </trkpt>
      <trkpt lat="51.259541250765323638916015625" lon="12.37865117378532886505126953125">
        <ele>107.40000152587890625</ele>
        <time>2018-08-18T09:17:26.000Z</time>
      </trkpt>
      <trkpt lat="51.259709559381008148193359375" lon="12.37860557623207569122314453125">
        <ele>107.8000030517578125</ele>
        <time>2018-08-18T09:17:28.000Z</time>
      </trkpt>
      <trkpt lat="51.26029335893690586090087890625" lon="12.37841145135462284088134765625">
        <ele>108.8000030517578125</ele>
        <time>2018-08-18T09:17:35.000Z</time>
      </trkpt>
      <trkpt lat="51.26037734560668468475341796875" lon="12.37838882021605968475341796875">
        <ele>108.8000030517578125</ele>
        <time>2018-08-18T09:17:36.000Z</time>
      </trkpt>
      <trkpt lat="51.2609737180173397064208984375" lon="12.3782224394381046295166015625">
        <ele>109.1999969482421875</ele>
        <time>2018-08-18T09:17:43.000Z</time>
      </trkpt>
      <trkpt lat="51.26154444180428981781005859375" lon="12.37794063985347747802734375">
        <ele>109.1999969482421875</ele>
        <time>2018-08-18T09:17:50.000Z</time>
      </trkpt>
      <trkpt lat="51.2617026083171367645263671875" lon="12.377869226038455963134765625">
        <ele>109.1999969482421875</ele>
        <time>2018-08-18T09:17:52.000Z</time>
      </trkpt>
      <trkpt lat="51.26224433071911334991455078125" lon="12.37770116887986660003662109375">
        <ele>108.8000030517578125</ele>
        <time>2018-08-18T09:17:59.000Z</time>
      </trkpt>
      <trkpt lat="51.26263207755982875823974609375" lon="12.3775592632591724395751953125">
        <ele>108.8000030517578125</ele>
        <time>2018-08-18T09:18:04.000Z</time>
      </trkpt>
      <trkpt lat="51.26318025402724742889404296875" lon="12.37748726271092891693115234375">
        <ele>109.1999969482421875</ele>
        <time>2018-08-18T09:18:11.000Z</time>
      </trkpt>
      <trkpt lat="51.2637601979076862335205078125" lon="12.3773916251957416534423828125">
        <ele>110</ele>
        <time>2018-08-18T09:18:18.000Z</time>
      </trkpt>
      <trkpt lat="51.2643395550549030303955078125" lon="12.37728810869157314300537109375">
        <ele>110.1999969482421875</ele>
        <time>2018-08-18T09:18:25.000Z</time>
      </trkpt>
      <trkpt lat="51.26490793190896511077880859375" lon="12.37720194272696971893310546875">
        <ele>110.1999969482421875</ele>
        <time>2018-08-18T09:18:32.000Z</time>
      </trkpt>
      <trkpt lat="51.2652397714555263519287109375" lon="12.3771451972424983978271484375">
        <ele>110.1999969482421875</ele>
        <time>2018-08-18T09:18:36.000Z</time>
      </trkpt>
      <trkpt lat="51.26581870950758457183837890625" lon="12.37718836404383182525634765625">
        <ele>109.8000030517578125</ele>
        <time>2018-08-18T09:18:43.000Z</time>
      </trkpt>
      <trkpt lat="51.2663631141185760498046875" lon="12.3774271644651889801025390625">
        <ele>109.40000152587890625</ele>
        <time>2018-08-18T09:18:50.000Z</time>
      </trkpt>
      <trkpt lat="51.266882121562957763671875" lon="12.3777870833873748779296875">
        <ele>109</ele>
        <time>2018-08-18T09:18:57.000Z</time>
      </trkpt>
      <trkpt lat="51.26703157089650630950927734375" lon="12.37790032289922237396240234375">
        <ele>109</ele>
        <time>2018-08-18T09:18:59.000Z</time>
      </trkpt>
      <trkpt lat="51.26758427359163761138916015625" lon="12.37829879857599735260009765625">
        <ele>108.40000152587890625</ele>
        <time>2018-08-18T09:19:06.000Z</time>
      </trkpt>
      <trkpt lat="51.2680088169872760772705078125" lon="12.37854924984276294708251953125">
        <ele>107.8000030517578125</ele>
        <time>2018-08-18T09:19:11.000Z</time>
      </trkpt>
      <trkpt lat="51.2686027586460113525390625" lon="12.378647066652774810791015625">
        <ele>107.40000152587890625</ele>
        <time>2018-08-18T09:19:18.000Z</time>
      </trkpt>
      <trkpt lat="51.2691980414092540740966796875" lon="12.3785406164824962615966796875">
        <ele>107.40000152587890625</ele>
        <time>2018-08-18T09:19:25.000Z</time>
      </trkpt>
      <trkpt lat="51.2697830982506275177001953125" lon="12.37836669199168682098388671875">
        <ele>107.8000030517578125</ele>
        <time>2018-08-18T09:19:32.000Z</time>
      </trkpt>
      <trkpt lat="51.27036807127296924591064453125" lon="12.378165610134601593017578125">
        <ele>108.1999969482421875</ele>
        <time>2018-08-18T09:19:39.000Z</time>
      </trkpt>
      <trkpt lat="51.27097877673804759979248046875" lon="12.3779614269733428955078125">
        <ele>108</ele>
        <time>2018-08-18T09:19:46.000Z</time>
      </trkpt>
      <trkpt lat="51.27157590351998805999755859375" lon="12.37775883637368679046630859375">
        <ele>107.59999847412109375</ele>
        <time>2018-08-18T09:19:53.000Z</time>
      </trkpt>
      <trkpt lat="51.271956861019134521484375" lon="12.377582229673862457275390625">
        <ele>106.8000030517578125</ele>
        <time>2018-08-18T09:19:58.000Z</time>
      </trkpt>
      <trkpt lat="51.27228149212896823883056640625" lon="12.37743680365383625030517578125">
        <ele>105.8000030517578125</ele>
        <time>2018-08-18T09:20:06.000Z</time>
      </trkpt>
      <trkpt lat="51.27228551544249057769775390625" lon="12.37743294797837734222412109375">
        <ele>105.59999847412109375</ele>
        <time>2018-08-18T09:20:08.000Z</time>
      </trkpt>
      <trkpt lat="51.27231284044682979583740234375" lon="12.37742565572261810302734375">
        <ele>104.59999847412109375</ele>
        <time>2018-08-18T09:20:41.000Z</time>
      </trkpt>
      <trkpt lat="51.27273797057569026947021484375" lon="12.37732381559908390045166015625">
        <ele>104.59999847412109375</ele>
        <time>2018-08-18T09:20:51.000Z</time>
      </trkpt>
      <trkpt lat="51.27294860780239105224609375" lon="12.37726313062012195587158203125">
        <ele>104.59999847412109375</ele>
        <time>2018-08-18T09:20:54.000Z</time>
      </trkpt>
      <trkpt lat="51.27348714508116245269775390625" lon="12.37718735821545124053955078125">
        <ele>104.40000152587890625</ele>
        <time>2018-08-18T09:21:01.000Z</time>
      </trkpt>
      <trkpt lat="51.27405376173555850982666015625" lon="12.37716439180076122283935546875">
        <ele>104</ele>
        <time>2018-08-18T09:21:08.000Z</time>
      </trkpt>
      <trkpt lat="51.274639070034027099609375" lon="12.3771478794515132904052734375">
        <ele>103.8000030517578125</ele>
        <time>2018-08-18T09:21:15.000Z</time>
      </trkpt>
      <trkpt lat="51.27489589154720306396484375" lon="12.37714276649057865142822265625">
        <ele>103.59999847412109375</ele>
        <time>2018-08-18T09:21:18.000Z</time>
      </trkpt>
      <trkpt lat="51.2755042500793933868408203125" lon="12.37719054333865642547607421875">
        <ele>103.40000152587890625</ele>
        <time>2018-08-18T09:21:25.000Z</time>
      </trkpt>
      <trkpt lat="51.275590918958187103271484375" lon="12.3771884478628635406494140625">
        <ele>103.1999969482421875</ele>
        <time>2018-08-18T09:21:26.000Z</time>
      </trkpt>
      <trkpt lat="51.27619014121592044830322265625" lon="12.37693774513900279998779296875">
        <ele>103.40000152587890625</ele>
        <time>2018-08-18T09:21:33.000Z</time>
      </trkpt>
      <trkpt lat="51.27678726799786090850830078125" lon="12.3766375891864299774169921875">
        <ele>103.40000152587890625</ele>
        <time>2018-08-18T09:21:40.000Z</time>
      </trkpt>
      <trkpt lat="51.27703084610402584075927734375" lon="12.3764803446829319000244140625">
        <ele>103.40000152587890625</ele>
        <time>2018-08-18T09:21:43.000Z</time>
      </trkpt>
      <trkpt lat="51.27751347608864307403564453125" lon="12.37589721567928791046142578125">
        <ele>103.1999969482421875</ele>
        <time>2018-08-18T09:21:50.000Z</time>
      </trkpt>
      <trkpt lat="51.2779953517019748687744140625" lon="12.37531341612339019775390625">
        <ele>103</ele>
        <time>2018-08-18T09:21:57.000Z</time>
      </trkpt>
      <trkpt lat="51.2780664302408695220947265625" lon="12.375235967338085174560546875">
        <ele>103</ele>
        <time>2018-08-18T09:21:58.000Z</time>
      </trkpt>
      <trkpt lat="51.278633885085582733154296875" lon="12.37490597181022167205810546875">
        <ele>103</ele>
        <time>2018-08-18T09:22:05.000Z</time>
      </trkpt>
      <trkpt lat="51.2792083807289600372314453125" lon="12.37461193464696407318115234375">
        <ele>102.8000030517578125</ele>
        <time>2018-08-18T09:22:12.000Z</time>
      </trkpt>
      <trkpt lat="51.2796998955309391021728515625" lon="12.3743431270122528076171875">
        <ele>102.59999847412109375</ele>
        <time>2018-08-18T09:22:18.000Z</time>
      </trkpt>
      <trkpt lat="51.28029945306479930877685546875" lon="12.37416182644665241241455078125">
        <ele>102.59999847412109375</ele>
        <time>2018-08-18T09:22:25.000Z</time>
      </trkpt>
      <trkpt lat="51.28065316937863826751708984375" lon="12.37413056194782257080078125">
        <ele>102.40000152587890625</ele>
        <time>2018-08-18T09:22:29.000Z</time>
      </trkpt>
      <trkpt lat="51.28126940689980983734130859375" lon="12.3740086890757083892822265625">
        <ele>102.40000152587890625</ele>
        <time>2018-08-18T09:22:36.000Z</time>
      </trkpt>
      <trkpt lat="51.28187927417457103729248046875" lon="12.37394372932612895965576171875">
        <ele>102</ele>
        <time>2018-08-18T09:22:43.000Z</time>
      </trkpt>
      <trkpt lat="51.2824082560837268829345703125" lon="12.3738806135952472686767578125">
        <ele>101.59999847412109375</ele>
        <time>2018-08-18T09:22:49.000Z</time>
      </trkpt>
      <trkpt lat="51.2830141000449657440185546875" lon="12.37378966994583606719970703125">
        <ele>101.59999847412109375</ele>
        <time>2018-08-18T09:22:56.000Z</time>
      </trkpt>
      <trkpt lat="51.2836343608796596527099609375" lon="12.37366075627505779266357421875">
        <ele>102</ele>
        <time>2018-08-18T09:23:03.000Z</time>
      </trkpt>
      <trkpt lat="51.2840430624783039093017578125" lon="12.37355229444801807403564453125">
        <ele>102</ele>
        <time>2018-08-18T09:23:09.000Z</time>
      </trkpt>
      <trkpt lat="51.28417541272938251495361328125" lon="12.37355145625770092010498046875">
        <ele>102</ele>
        <time>2018-08-18T09:23:11.000Z</time>
      </trkpt>
      <trkpt lat="51.28471906296908855438232421875" lon="12.37348691560328006744384765625">
        <ele>102</ele>
        <time>2018-08-18T09:23:18.000Z</time>
      </trkpt>
      <trkpt lat="51.2852721847593784332275390625" lon="12.3733877576887607574462890625">
        <ele>101.59999847412109375</ele>
        <time>2018-08-18T09:23:25.000Z</time>
      </trkpt>
      <trkpt lat="51.28582312725484371185302734375" lon="12.37329631112515926361083984375">
        <ele>101.59999847412109375</ele>
        <time>2018-08-18T09:23:32.000Z</time>
      </trkpt>
      <trkpt lat="51.28641438670456409454345703125" lon="12.37319975160062313079833984375">
        <ele>101.59999847412109375</ele>
        <time>2018-08-18T09:23:39.000Z</time>
      </trkpt>
      <trkpt lat="51.2870008684694766998291015625" lon="12.37309665419161319732666015625">
        <ele>101.8000030517578125</ele>
        <time>2018-08-18T09:23:46.000Z</time>
      </trkpt>
      <trkpt lat="51.287559606134891510009765625" lon="12.3729840852320194244384765625">
        <ele>101.59999847412109375</ele>
        <time>2018-08-18T09:23:53.000Z</time>
      </trkpt>
      <trkpt lat="51.28767770715057849884033203125" lon="12.37295977771282196044921875">
        <ele>101.59999847412109375</ele>
        <time>2018-08-18T09:23:55.000Z</time>
      </trkpt>
      <trkpt lat="51.28801365382969379425048828125" lon="12.3721469007432460784912109375">
        <ele>101.59999847412109375</ele>
        <time>2018-08-18T09:24:04.000Z</time>
      </trkpt>
      <trkpt lat="51.2880828045308589935302734375" lon="12.37190826795995235443115234375">
        <ele>101.40000152587890625</ele>
        <time>2018-08-18T09:24:06.000Z</time>
      </trkpt>
      <trkpt lat="51.28832059912383556365966796875" lon="12.3711115680634975433349609375">
        <ele>101</ele>
        <time>2018-08-18T09:24:13.000Z</time>
      </trkpt>
      <trkpt lat="51.28856367431581020355224609375" lon="12.37030648626387119293212890625">
        <ele>100.8000030517578125</ele>
        <time>2018-08-18T09:24:20.000Z</time>
      </trkpt>
      <trkpt lat="51.28881244920194149017333984375" lon="12.3695428110659122467041015625">
        <ele>101</ele>
        <time>2018-08-18T09:24:27.000Z</time>
      </trkpt>
      <trkpt lat="51.289015710353851318359375" lon="12.36894057132303714752197265625">
        <ele>100.8000030517578125</ele>
        <time>2018-08-18T09:24:41.000Z</time>
      </trkpt>
      <trkpt lat="51.2890504114329814910888671875" lon="12.3688390664756298065185546875">
        <ele>100.59999847412109375</ele>
        <time>2018-08-18T09:25:25.000Z</time>
      </trkpt>
      <trkpt lat="51.28910891711711883544921875" lon="12.3687693290412425994873046875">
        <ele>100.59999847412109375</ele>
        <time>2018-08-18T09:25:27.000Z</time>
      </trkpt>
      <trkpt lat="51.28933883272111415863037109375" lon="12.36882339231669902801513671875">
        <ele>100.59999847412109375</ele>
        <time>2018-08-18T09:25:32.000Z</time>
      </trkpt>
      <trkpt lat="51.2898485362529754638671875" lon="12.36920560710132122039794921875">
        <ele>100.8000030517578125</ele>
        <time>2018-08-18T09:25:41.000Z</time>
      </trkpt>
      <trkpt lat="51.29037533886730670928955078125" lon="12.36959871836006641387939453125">
        <ele>100.8000030517578125</ele>
        <time>2018-08-18T09:25:49.000Z</time>
      </trkpt>
      <trkpt lat="51.29086215980350971221923828125" lon="12.369969785213470458984375">
        <ele>100.8000030517578125</ele>
        <time>2018-08-18T09:25:56.000Z</time>
      </trkpt>
      <trkpt lat="51.2913758866488933563232421875" lon="12.370356358587741851806640625">
        <ele>100.8000030517578125</ele>
        <time>2018-08-18T09:26:03.000Z</time>
      </trkpt>
      <trkpt lat="51.29191375337541103363037109375" lon="12.37077134661376476287841796875">
        <ele>100.8000030517578125</ele>
        <time>2018-08-18T09:26:10.000Z</time>
      </trkpt>
      <trkpt lat="51.29245002754032611846923828125" lon="12.3712030984461307525634765625">
        <ele>101</ele>
        <time>2018-08-18T09:26:17.000Z</time>
      </trkpt>
      <trkpt lat="51.29300038330256938934326171875" lon="12.37156234681606292724609375">
        <ele>101.1999969482421875</ele>
        <time>2018-08-18T09:26:24.000Z</time>
      </trkpt>
      <trkpt lat="51.293592564761638641357421875" lon="12.3717308230698108673095703125">
        <ele>101.1999969482421875</ele>
        <time>2018-08-18T09:26:31.000Z</time>
      </trkpt>
      <trkpt lat="51.29418357275426387786865234375" lon="12.3718776740133762359619140625">
        <ele>102</ele>
        <time>2018-08-18T09:26:38.000Z</time>
      </trkpt>
      <trkpt lat="51.294776089489459991455078125" lon="12.3720188252627849578857421875">
        <ele>102.1999969482421875</ele>
        <time>2018-08-18T09:26:45.000Z</time>
      </trkpt>
      <trkpt lat="51.29486368037760257720947265625" lon="12.372039444744586944580078125">
        <ele>102.1999969482421875</ele>
        <time>2018-08-18T09:26:46.000Z</time>
      </trkpt>
      <trkpt lat="51.29548025317490100860595703125" lon="12.372184954583644866943359375">
        <ele>102.1999969482421875</ele>
        <time>2018-08-18T09:26:53.000Z</time>
      </trkpt>
      <trkpt lat="51.29601954482495784759521484375" lon="12.372327111661434173583984375">
        <ele>102.1999969482421875</ele>
        <time>2018-08-18T09:26:59.000Z</time>
      </trkpt>
      <trkpt lat="51.2966336868703365325927734375" lon="12.3724590428173542022705078125">
        <ele>101.59999847412109375</ele>
        <time>2018-08-18T09:27:06.000Z</time>
      </trkpt>
      <trkpt lat="51.29717490635812282562255859375" lon="12.37247270531952381134033203125">
        <ele>101.1999969482421875</ele>
        <time>2018-08-18T09:27:12.000Z</time>
      </trkpt>
      <trkpt lat="51.29772241227328777313232421875" lon="12.372408919036388397216796875">
        <ele>101.1999969482421875</ele>
        <time>2018-08-18T09:27:18.000Z</time>
      </trkpt>
      <trkpt lat="51.298324652016162872314453125" lon="12.372340857982635498046875">
        <ele>101.40000152587890625</ele>
        <time>2018-08-18T09:27:25.000Z</time>
      </trkpt>
      <trkpt lat="51.298892609775066375732421875" lon="12.37226818688213825225830078125">
        <ele>102.8000030517578125</ele>
        <time>2018-08-18T09:27:32.000Z</time>
      </trkpt>
      <trkpt lat="51.2990537099540233612060546875" lon="12.37224505282938480377197265625">
        <ele>103</ele>
        <time>2018-08-18T09:27:34.000Z</time>
      </trkpt>
      <trkpt lat="51.29961739294230937957763671875" lon="12.3721995390951633453369140625">
        <ele>103.40000152587890625</ele>
        <time>2018-08-18T09:27:41.000Z</time>
      </trkpt>
      <trkpt lat="51.30018501542508602142333984375" lon="12.37233624793589115142822265625">
        <ele>103.40000152587890625</ele>
        <time>2018-08-18T09:27:48.000Z</time>
      </trkpt>
      <trkpt lat="51.30071424879133701324462890625" lon="12.3726293630897998809814453125">
        <ele>103.1999969482421875</ele>
        <time>2018-08-18T09:27:55.000Z</time>
      </trkpt>
      <trkpt lat="51.30122671835124492645263671875" lon="12.37295248545706272125244140625">
        <ele>103.40000152587890625</ele>
        <time>2018-08-18T09:28:02.000Z</time>
      </trkpt>
      <trkpt lat="51.301798783242702484130859375" lon="12.37323428504168987274169921875">
        <ele>103.59999847412109375</ele>
        <time>2018-08-18T09:28:09.000Z</time>
      </trkpt>
      <trkpt lat="51.3019694387912750244140625" lon="12.373322881758213043212890625">
        <ele>103.59999847412109375</ele>
        <time>2018-08-18T09:28:11.000Z</time>
      </trkpt>
      <trkpt lat="51.30227847956120967864990234375" lon="12.373460344970226287841796875">
        <ele>103</ele>
        <time>2018-08-18T09:28:15.000Z</time>
      </trkpt>
      <trkpt lat="51.3023514859378337860107421875" lon="12.37350015901029109954833984375">
        <ele>102.8000030517578125</ele>
        <time>2018-08-18T09:28:16.000Z</time>
      </trkpt>
      <trkpt lat="51.30261559970676898956298828125" lon="12.3736844770610332489013671875">
        <ele>102</ele>
        <time>2018-08-18T09:28:20.000Z</time>
      </trkpt>
      <trkpt lat="51.30316159687936305999755859375" lon="12.37403894774615764617919921875">
        <ele>101.40000152587890625</ele>
        <time>2018-08-18T09:28:28.000Z</time>
      </trkpt>
      <trkpt lat="51.3035671971738338470458984375" lon="12.3742068372666835784912109375">
        <ele>101.40000152587890625</ele>
        <time>2018-08-18T09:28:34.000Z</time>
      </trkpt>
      <trkpt lat="51.30414613522589206695556640625" lon="12.37413316033780574798583984375">
        <ele>101.8000030517578125</ele>
        <time>2018-08-18T09:28:42.000Z</time>
      </trkpt>
      <trkpt lat="51.30469213239848613739013671875" lon="12.37399787642061710357666015625">
        <ele>102.40000152587890625</ele>
        <time>2018-08-18T09:28:50.000Z</time>
      </trkpt>
      <trkpt lat="51.3047621212899684906005859375" lon="12.37397658638656139373779296875">
        <ele>102.8000030517578125</ele>
        <time>2018-08-18T09:28:51.000Z</time>
      </trkpt>
      <trkpt lat="51.30511231720447540283203125" lon="12.37388488836586475372314453125">
        <ele>103.40000152587890625</ele>
        <time>2018-08-18T09:28:56.000Z</time>
      </trkpt>
      <trkpt lat="51.3051835633814334869384765625" lon="12.37388203851878643035888671875">
        <ele>103.8000030517578125</ele>
        <time>2018-08-18T09:28:57.000Z</time>
      </trkpt>
      <trkpt lat="51.3057545386254787445068359375" lon="12.37378514371812343597412109375">
        <ele>104.59999847412109375</ele>
        <time>2018-08-18T09:29:05.000Z</time>
      </trkpt>
      <trkpt lat="51.30589686334133148193359375" lon="12.3737562261521816253662109375">
        <ele>104.8000030517578125</ele>
        <time>2018-08-18T09:29:07.000Z</time>
      </trkpt>
      <trkpt lat="51.30649290047585964202880859375" lon="12.3736214451491832733154296875">
        <ele>106</ele>
        <time>2018-08-18T09:29:15.000Z</time>
      </trkpt>
      <trkpt lat="51.30708239972591400146484375" lon="12.3735074512660503387451171875">
        <ele>106.8000030517578125</ele>
        <time>2018-08-18T09:29:23.000Z</time>
      </trkpt>
      <trkpt lat="51.307131014764308929443359375" lon="12.37349764443933963775634765625">
        <ele>107</ele>
        <time>2018-08-18T09:29:24.000Z</time>
      </trkpt>
      <trkpt lat="51.30731516517698764801025390625" lon="12.373440898954868316650390625">
        <ele>107.1999969482421875</ele>
        <time>2018-08-18T09:29:38.000Z</time>
      </trkpt>
      <trkpt lat="51.3073296658694744110107421875" lon="12.37344031222164630889892578125">
        <ele>107.1999969482421875</ele>
        <time>2018-08-18T09:29:44.000Z</time>
      </trkpt>
      <trkpt lat="51.30786987952888011932373046875" lon="12.37333654426038265228271484375">
        <ele>107</ele>
        <time>2018-08-18T09:29:56.000Z</time>
      </trkpt>
      <trkpt lat="51.308425180613994598388671875" lon="12.37321618013083934783935546875">
        <ele>107</ele>
        <time>2018-08-18T09:30:04.000Z</time>
      </trkpt>
      <trkpt lat="51.308992803096771240234375" lon="12.37309782765805721282958984375">
        <ele>107</ele>
        <time>2018-08-18T09:30:12.000Z</time>
      </trkpt>
      <trkpt lat="51.30952949635684490203857421875" lon="12.373000681400299072265625">
        <ele>107.59999847412109375</ele>
        <time>2018-08-18T09:30:20.000Z</time>
      </trkpt>
      <trkpt lat="51.309845410287380218505859375" lon="12.37298634834587574005126953125">
        <ele>108</ele>
        <time>2018-08-18T09:30:25.000Z</time>
      </trkpt>
      <trkpt lat="51.309898383915424346923828125" lon="12.37300713546574115753173828125">
        <ele>108.1999969482421875</ele>
        <time>2018-08-18T09:30:26.000Z</time>
      </trkpt>
      <trkpt lat="51.31004615686833858489990234375" lon="12.373143844306468963623046875">
        <ele>108.40000152587890625</ele>
        <time>2018-08-18T09:30:29.000Z</time>
      </trkpt>
      <trkpt lat="51.31013609468936920166015625" lon="12.3732137493789196014404296875">
        <ele>108.8000030517578125</ele>
        <time>2018-08-18T09:30:31.000Z</time>
      </trkpt>
      <trkpt lat="51.31018747575581073760986328125" lon="12.37323093228042125701904296875">
        <ele>109</ele>
        <time>2018-08-18T09:30:32.000Z</time>
      </trkpt>
      <trkpt lat="51.31076800636947154998779296875" lon="12.37320930697023868560791015625">
        <ele>110</ele>
        <time>2018-08-18T09:30:50.000Z</time>
      </trkpt>
      <trkpt lat="51.31130696274340152740478515625" lon="12.37325607798993587493896484375">
        <ele>109.59999847412109375</ele>
        <time>2018-08-18T09:30:58.000Z</time>
      </trkpt>
      <trkpt lat="51.3118495233356952667236328125" lon="12.373274601995944976806640625">
        <ele>109.59999847412109375</ele>
        <time>2018-08-18T09:31:05.000Z</time>
      </trkpt>
      <trkpt lat="51.31239644251763820648193359375" lon="12.3732898570597171783447265625">
        <ele>109.40000152587890625</ele>
        <time>2018-08-18T09:31:12.000Z</time>
      </trkpt>
      <trkpt lat="51.31301167421042919158935546875" lon="12.37326110713183879852294921875">
        <ele>109</ele>
        <time>2018-08-18T09:31:20.000Z</time>
      </trkpt>
      <trkpt lat="51.31356806494295597076416015625" lon="12.37324233166873455047607421875">
        <ele>108.40000152587890625</ele>
        <time>2018-08-18T09:31:27.000Z</time>
      </trkpt>
      <trkpt lat="51.314131915569305419921875" lon="12.3732358776032924652099609375">
        <ele>108.1999969482421875</ele>
        <time>2018-08-18T09:31:35.000Z</time>
      </trkpt>
      <trkpt lat="51.3143573887646198272705078125" lon="12.37323881126940250396728515625">
        <ele>108.1999969482421875</ele>
        <time>2018-08-18T09:31:39.000Z</time>
      </trkpt>
      <trkpt lat="51.3145505078136920928955078125" lon="12.37322665750980377197265625">
        <ele>107</ele>
        <time>2018-08-18T09:31:49.000Z</time>
      </trkpt>
      <trkpt lat="51.3145987875759601593017578125" lon="12.3732623644173145294189453125">
        <ele>106.8000030517578125</ele>
        <time>2018-08-18T09:31:58.000Z</time>
      </trkpt>
      <trkpt lat="51.31466123275458812713623046875" lon="12.373296730220317840576171875">
        <ele>106.59999847412109375</ele>
        <time>2018-08-18T09:32:02.000Z</time>
      </trkpt>
      <trkpt lat="51.31525240838527679443359375" lon="12.3733870871365070343017578125">
        <ele>106.59999847412109375</ele>
        <time>2018-08-18T09:32:13.000Z</time>
      </trkpt>
      <trkpt lat="51.315749622881412506103515625" lon="12.3733480274677276611328125">
        <ele>106.59999847412109375</ele>
        <time>2018-08-18T09:32:24.000Z</time>
      </trkpt>
      <trkpt lat="51.316345743834972381591796875" lon="12.373317517340183258056640625">
        <ele>106.59999847412109375</ele>
        <time>2018-08-18T09:32:34.000Z</time>
      </trkpt>
      <trkpt lat="51.31640634499490261077880859375" lon="12.373325563967227935791015625">
        <ele>106.59999847412109375</ele>
        <time>2018-08-18T09:32:35.000Z</time>
      </trkpt>
      <trkpt lat="51.31696977652609348297119140625" lon="12.3733572475612163543701171875">
        <ele>106.59999847412109375</ele>
        <time>2018-08-18T09:32:44.000Z</time>
      </trkpt>
      <trkpt lat="51.31732667796313762664794921875" lon="12.37337929196655750274658203125">
        <ele>106.59999847412109375</ele>
        <time>2018-08-18T09:32:50.000Z</time>
      </trkpt>
      <trkpt lat="51.317919194698333740234375" lon="12.3734142445027828216552734375">
        <ele>106.40000152587890625</ele>
        <time>2018-08-18T09:32:59.000Z</time>
      </trkpt>
      <trkpt lat="51.31836905144155025482177734375" lon="12.37339136190712451934814453125">
        <ele>106.1999969482421875</ele>
        <time>2018-08-18T09:33:06.000Z</time>
      </trkpt>
      <trkpt lat="51.31864548660814762115478515625" lon="12.37343142740428447723388671875">
        <ele>106.1999969482421875</ele>
        <time>2018-08-18T09:33:10.000Z</time>
      </trkpt>
      <trkpt lat="51.31924060173332691192626953125" lon="12.37347501330077648162841796875">
        <ele>106</ele>
        <time>2018-08-18T09:33:18.000Z</time>
      </trkpt>
      <trkpt lat="51.31960353814065456390380859375" lon="12.37350451759994029998779296875">
        <ele>105.8000030517578125</ele>
        <time>2018-08-18T09:33:23.000Z</time>
      </trkpt>
      <trkpt lat="51.32020502351224422454833984375" lon="12.37353779375553131103515625">
        <ele>105.59999847412109375</ele>
        <time>2018-08-18T09:33:31.000Z</time>
      </trkpt>
      <trkpt lat="51.32081187330186367034912109375" lon="12.37354793585836887359619140625">
        <ele>105.59999847412109375</ele>
        <time>2018-08-18T09:33:39.000Z</time>
      </trkpt>
      <trkpt lat="51.32141922600567340850830078125" lon="12.37353905104100704193115234375">
        <ele>105.40000152587890625</ele>
        <time>2018-08-18T09:33:47.000Z</time>
      </trkpt>
      <trkpt lat="51.32200746797025203704833984375" lon="12.37353603355586528778076171875">
        <ele>105.1999969482421875</ele>
        <time>2018-08-18T09:33:55.000Z</time>
      </trkpt>
      <trkpt lat="51.322154067456722259521484375" lon="12.3735228739678859710693359375">
        <ele>105</ele>
        <time>2018-08-18T09:33:57.000Z</time>
      </trkpt>
      <trkpt lat="51.322575844824314117431640625" lon="12.3734920285642147064208984375">
        <ele>104.8000030517578125</ele>
        <time>2018-08-18T09:34:03.000Z</time>
      </trkpt>
      <trkpt lat="51.32306459359824657440185546875" lon="12.37351893447339534759521484375">
        <ele>104.59999847412109375</ele>
        <time>2018-08-18T09:34:11.000Z</time>
      </trkpt>
      <trkpt lat="51.323149167001247406005859375" lon="12.3739101178944110870361328125">
        <ele>104.40000152587890625</ele>
        <time>2018-08-18T09:34:16.000Z</time>
      </trkpt>
      <trkpt lat="51.32316291332244873046875" lon="12.37420910038053989410400390625">
        <ele>104.59999847412109375</ele>
        <time>2018-08-18T09:34:19.000Z</time>
      </trkpt>
      <trkpt lat="51.32319820113480091094970703125" lon="12.37510160543024539947509765625">
        <ele>104.8000030517578125</ele>
        <time>2018-08-18T09:34:28.000Z</time>
      </trkpt>
      <trkpt lat="51.32318596355617046356201171875" lon="12.37590350210666656494140625">
        <ele>105.1999969482421875</ele>
        <time>2018-08-18T09:34:36.000Z</time>
      </trkpt>
      <trkpt lat="51.32316316477954387664794921875" lon="12.3764793388545513153076171875">
        <ele>105.40000152587890625</ele>
        <time>2018-08-18T09:34:42.000Z</time>
      </trkpt>
      <trkpt lat="51.323145814239978790283203125" lon="12.37674931995570659637451171875">
        <ele>105.59999847412109375</ele>
        <time>2018-08-18T09:34:48.000Z</time>
      </trkpt>
      <trkpt lat="51.32313684560358524322509765625" lon="12.37682509236037731170654296875">
        <ele>105.40000152587890625</ele>
        <time>2018-08-18T09:34:53.000Z</time>
      </trkpt>
      <trkpt lat="51.323136426508426666259765625" lon="12.3770355619490146636962890625">
        <ele>105.59999847412109375</ele>
        <time>2018-08-18T09:34:57.000Z</time>
      </trkpt>
      <trkpt lat="51.323159895837306976318359375" lon="12.37725357525050640106201171875">
        <ele>105.59999847412109375</ele>
        <time>2018-08-18T09:35:00.000Z</time>
      </trkpt>
      <trkpt lat="51.32315930910408496856689453125" lon="12.3773426748812198638916015625">
        <ele>105.59999847412109375</ele>
        <time>2018-08-18T09:35:01.000Z</time>
      </trkpt>
      <trkpt lat="51.3231536932289600372314453125" lon="12.37824079580605030059814453125">
        <ele>106</ele>
        <time>2018-08-18T09:35:10.000Z</time>
      </trkpt>
      <trkpt lat="51.32315780036151409149169921875" lon="12.37848001532256603240966796875">
        <ele>106</ele>
        <time>2018-08-18T09:35:13.000Z</time>
      </trkpt>
      <trkpt lat="51.32321429438889026641845703125" lon="12.378604821860790252685546875">
        <ele>106.40000152587890625</ele>
        <time>2018-08-18T09:35:16.000Z</time>
      </trkpt>
      <trkpt lat="51.323322840034961700439453125" lon="12.3786319792270660400390625">
        <ele>106.59999847412109375</ele>
        <time>2018-08-18T09:35:19.000Z</time>
      </trkpt>
      <trkpt lat="51.32337019778788089752197265625" lon="12.37863021902740001678466796875">
        <ele>106.59999847412109375</ele>
        <time>2018-08-18T09:35:20.000Z</time>
      </trkpt>
      <trkpt lat="51.3234209083020687103271484375" lon="12.37863407470285892486572265625">
        <ele>106.59999847412109375</ele>
        <time>2018-08-18T09:35:21.000Z</time>
      </trkpt>
      <trkpt lat="51.32376749999821186065673828125" lon="12.3786331526935100555419921875">
        <ele>106.8000030517578125</ele>
        <time>2018-08-18T09:35:27.000Z</time>
      </trkpt>
      <trkpt lat="51.3243006728589534759521484375" lon="12.37861915491521358489990234375">
        <ele>107</ele>
        <time>2018-08-18T09:35:36.000Z</time>
      </trkpt>
      <trkpt lat="51.3247777707874774932861328125" lon="12.37877053208649158477783203125">
        <ele>107.40000152587890625</ele>
        <time>2018-08-18T09:35:51.000Z</time>
      </trkpt>
      <trkpt lat="51.324799060821533203125" lon="12.37876810133457183837890625">
        <ele>107.1999969482421875</ele>
        <time>2018-08-18T09:36:01.000Z</time>
      </trkpt>
      <trkpt lat="51.325356625020503997802734375" lon="12.378963567316532135009765625">
        <ele>107.40000152587890625</ele>
        <time>2018-08-18T09:36:14.000Z</time>
      </trkpt>
      <trkpt lat="51.325922906398773193359375" lon="12.37914252094924449920654296875">
        <ele>107.59999847412109375</ele>
        <time>2018-08-18T09:36:23.000Z</time>
      </trkpt>
      <trkpt lat="51.32647904567420482635498046875" lon="12.37931200303137302398681640625">
        <ele>107.8000030517578125</ele>
        <time>2018-08-18T09:36:31.000Z</time>
      </trkpt>
      <trkpt lat="51.32704264484345912933349609375" lon="12.379426248371601104736328125">
        <ele>107.8000030517578125</ele>
        <time>2018-08-18T09:36:39.000Z</time>
      </trkpt>
      <trkpt lat="51.32763960398733615875244140625" lon="12.37959547899663448333740234375">
        <ele>107.8000030517578125</ele>
        <time>2018-08-18T09:36:47.000Z</time>
      </trkpt>
      <trkpt lat="51.32823790423572063446044921875" lon="12.3797724209725856781005859375">
        <ele>107.8000030517578125</ele>
        <time>2018-08-18T09:36:55.000Z</time>
      </trkpt>
      <trkpt lat="51.3288222067058086395263671875" lon="12.37995229661464691162109375">
        <ele>107.8000030517578125</ele>
        <time>2018-08-18T09:37:03.000Z</time>
      </trkpt>
      <trkpt lat="51.32941924966871738433837890625" lon="12.3801455833017826080322265625">
        <ele>107.59999847412109375</ele>
        <time>2018-08-18T09:37:11.000Z</time>
      </trkpt>
      <trkpt lat="51.33001185022294521331787109375" lon="12.38030777312815189361572265625">
        <ele>107.1999969482421875</ele>
        <time>2018-08-18T09:37:19.000Z</time>
      </trkpt>
      <trkpt lat="51.33038920350372791290283203125" lon="12.38060097210109233856201171875">
        <ele>106.59999847412109375</ele>
        <time>2018-08-18T09:37:31.000Z</time>
      </trkpt>
      <trkpt lat="51.3304224796593189239501953125" lon="12.380633912980556488037109375">
        <ele>106</ele>
        <time>2018-08-18T09:38:13.000Z</time>
      </trkpt>
      <trkpt lat="51.33081466890871524810791015625" lon="12.380977906286716461181640625">
        <ele>106.1999969482421875</ele>
        <time>2018-08-18T09:38:23.000Z</time>
      </trkpt>
      <trkpt lat="51.33130216039717197418212890625" lon="12.38139054737985134124755859375">
        <ele>105.8000030517578125</ele>
        <time>2018-08-18T09:38:32.000Z</time>
      </trkpt>
      <trkpt lat="51.3314299844205379486083984375" lon="12.3814578540623188018798828125">
        <ele>105.59999847412109375</ele>
        <time>2018-08-18T09:38:34.000Z</time>
      </trkpt>
      <trkpt lat="51.3315540365874767303466796875" lon="12.3815356381237506866455078125">
        <ele>105.40000152587890625</ele>
        <time>2018-08-18T09:38:36.000Z</time>
      </trkpt>
      <trkpt lat="51.33168001659214496612548828125" lon="12.3816114105284214019775390625">
        <ele>105</ele>
        <time>2018-08-18T09:38:38.000Z</time>
      </trkpt>
      <trkpt lat="51.33186735212802886962890625" lon="12.381743676960468292236328125">
        <ele>104.8000030517578125</ele>
        <time>2018-08-18T09:38:41.000Z</time>
      </trkpt>
      <trkpt lat="51.332217045128345489501953125" lon="12.3819366283714771270751953125">
        <ele>103.8000030517578125</ele>
        <time>2018-08-18T09:38:46.000Z</time>
      </trkpt>
      <trkpt lat="51.33264594711363315582275390625" lon="12.38217274658381938934326171875">
        <ele>102.59999847412109375</ele>
        <time>2018-08-18T09:38:52.000Z</time>
      </trkpt>
      <trkpt lat="51.33298189379274845123291015625" lon="12.382360585033893585205078125">
        <ele>101.59999847412109375</ele>
        <time>2018-08-18T09:38:57.000Z</time>
      </trkpt>
      <trkpt lat="51.3335217721760272979736328125" lon="12.38266359083354473114013671875">
        <ele>101</ele>
        <time>2018-08-18T09:39:05.000Z</time>
      </trkpt>
      <trkpt lat="51.33406366221606731414794921875" lon="12.38297858275473117828369140625">
        <ele>100.59999847412109375</ele>
        <time>2018-08-18T09:39:13.000Z</time>
      </trkpt>
      <trkpt lat="51.33459960110485553741455078125" lon="12.3832784034311771392822265625">
        <ele>100.59999847412109375</ele>
        <time>2018-08-18T09:39:22.000Z</time>
      </trkpt>
      <trkpt lat="51.33514073677361011505126953125" lon="12.38356112502515316009521484375">
        <ele>100.40000152587890625</ele>
        <time>2018-08-18T09:39:31.000Z</time>
      </trkpt>
      <trkpt lat="51.3353969715535640716552734375" lon="12.38370336592197418212890625">
        <ele>100.59999847412109375</ele>
        <time>2018-08-18T09:39:36.000Z</time>
      </trkpt>
      <trkpt lat="51.33567743003368377685546875" lon="12.3837970755994319915771484375">
        <ele>101.40000152587890625</ele>
        <time>2018-08-18T09:39:50.000Z</time>
      </trkpt>
      <trkpt lat="51.33567474782466888427734375" lon="12.38380252383649349212646484375">
        <ele>101.59999847412109375</ele>
        <time>2018-08-18T09:39:52.000Z</time>
      </trkpt>
      <trkpt lat="51.3357201777398586273193359375" lon="12.38389070145785808563232421875">
        <ele>101.8000030517578125</ele>
        <time>2018-08-18T09:40:17.000Z</time>
      </trkpt>
      <trkpt lat="51.336017735302448272705078125" lon="12.3840559087693691253662109375">
        <ele>102.1999969482421875</ele>
        <time>2018-08-18T09:40:27.000Z</time>
      </trkpt>
      <trkpt lat="51.3361080922186374664306640625" lon="12.38408650271594524383544921875">
        <ele>102.40000152587890625</ele>
        <time>2018-08-18T09:40:29.000Z</time>
      </trkpt>
      <trkpt lat="51.33640590123832225799560546875" lon="12.3842094652354717254638671875">
        <ele>103.40000152587890625</ele>
        <time>2018-08-18T09:40:35.000Z</time>
      </trkpt>
      <trkpt lat="51.33672256954014301300048828125" lon="12.38432505168020725250244140625">
        <ele>104.1999969482421875</ele>
        <time>2018-08-18T09:40:42.000Z</time>
      </trkpt>
      <trkpt lat="51.33726253174245357513427734375" lon="12.38446989096701145172119140625">
        <ele>104.40000152587890625</ele>
        <time>2018-08-18T09:40:53.000Z</time>
      </trkpt>
      <trkpt lat="51.33777625858783721923828125" lon="12.384727299213409423828125">
        <ele>104.1999969482421875</ele>
        <time>2018-08-18T09:41:04.000Z</time>
      </trkpt>
      <trkpt lat="51.33783803321421146392822265625" lon="12.384815476834774017333984375">
        <ele>104.1999969482421875</ele>
        <time>2018-08-18T09:41:05.000Z</time>
      </trkpt>
      <trkpt lat="51.338067613542079925537109375" lon="12.38522862084209918975830078125">
        <ele>104</ele>
        <time>2018-08-18T09:41:12.000Z</time>
      </trkpt>
      <trkpt lat="51.3380892388522624969482421875" lon="12.38559901714324951171875">
        <ele>103.8000030517578125</ele>
        <time>2018-08-18T09:41:17.000Z</time>
      </trkpt>
      <trkpt lat="51.338083706796169281005859375" lon="12.385852821171283721923828125">
        <ele>103.8000030517578125</ele>
        <time>2018-08-18T09:41:20.000Z</time>
      </trkpt>
      <trkpt lat="51.33806551806628704071044921875" lon="12.38655187189579010009765625">
        <ele>103.8000030517578125</ele>
        <time>2018-08-18T09:41:28.000Z</time>
      </trkpt>
      <trkpt lat="51.3380476646125316619873046875" lon="12.386978007853031158447265625">
        <ele>103.8000030517578125</ele>
        <time>2018-08-18T09:41:33.000Z</time>
      </trkpt>
      <trkpt lat="51.33805193938314914703369140625" lon="12.38713600672781467437744140625">
        <ele>103.8000030517578125</ele>
        <time>2018-08-18T09:41:35.000Z</time>
      </trkpt>
      <trkpt lat="51.3381019793450832366943359375" lon="12.3880252428352832794189453125">
        <ele>103.1999969482421875</ele>
        <time>2018-08-18T09:41:54.000Z</time>
      </trkpt>
      <trkpt lat="51.3381282985210418701171875" lon="12.38815960474312305450439453125">
        <ele>103.1999969482421875</ele>
        <time>2018-08-18T09:41:56.000Z</time>
      </trkpt>
      <trkpt lat="51.3383014686405658721923828125" lon="12.38883711397647857666015625">
        <ele>103.1999969482421875</ele>
        <time>2018-08-18T09:42:03.000Z</time>
      </trkpt>
      <trkpt lat="51.33846147917211055755615234375" lon="12.38971277140080928802490234375">
        <ele>103.40000152587890625</ele>
        <time>2018-08-18T09:42:11.000Z</time>
      </trkpt>
      <trkpt lat="51.33863029070198535919189453125" lon="12.390558756887912750244140625">
        <ele>103.40000152587890625</ele>
        <time>2018-08-18T09:42:19.000Z</time>
      </trkpt>
      <trkpt lat="51.33877580054104328155517578125" lon="12.39145956002175807952880859375">
        <ele>102.8000030517578125</ele>
        <time>2018-08-18T09:42:27.000Z</time>
      </trkpt>
      <trkpt lat="51.33893229067325592041015625" lon="12.39238307811319828033447265625">
        <ele>102.8000030517578125</ele>
        <time>2018-08-18T09:42:35.000Z</time>
      </trkpt>
      <trkpt lat="51.33903312496840953826904296875" lon="12.39332419820129871368408203125">
        <ele>102.8000030517578125</ele>
        <time>2018-08-18T09:42:43.000Z</time>
      </trkpt>
      <trkpt lat="51.33902507834136486053466796875" lon="12.3942476324737071990966796875">
        <ele>102.8000030517578125</ele>
        <time>2018-08-18T09:42:51.000Z</time>
      </trkpt>
      <trkpt lat="51.33904217742383480072021484375" lon="12.39464418031275272369384765625">
        <ele>102.40000152587890625</ele>
        <time>2018-08-18T09:43:01.000Z</time>
      </trkpt>
      <trkpt lat="51.33903228677809238433837890625" lon="12.39471190609037876129150390625">
        <ele>102.1999969482421875</ele>
        <time>2018-08-18T09:43:54.000Z</time>
      </trkpt>
      <trkpt lat="51.3390551693737506866455078125" lon="12.394971661269664764404296875">
        <ele>102.1999969482421875</ele>
        <time>2018-08-18T09:43:59.000Z</time>
      </trkpt>
      <trkpt lat="51.33910906501114368438720703125" lon="12.3953584022819995880126953125">
        <ele>102.1999969482421875</ele>
        <time>2018-08-18T09:44:04.000Z</time>
      </trkpt>
      <trkpt lat="51.3391493819653987884521484375" lon="12.39629424177110195159912109375">
        <ele>102.59999847412109375</ele>
        <time>2018-08-18T09:44:13.000Z</time>
      </trkpt>
      <trkpt lat="51.33919741027057170867919921875" lon="12.39707660861313343048095703125">
        <ele>102.59999847412109375</ele>
        <time>2018-08-18T09:44:20.000Z</time>
      </trkpt>
      <trkpt lat="51.33922138251364231109619140625" lon="12.397931478917598724365234375">
        <ele>102.40000152587890625</ele>
        <time>2018-08-18T09:44:29.000Z</time>
      </trkpt>
      <trkpt lat="51.339284665882587432861328125" lon="12.398413605988025665283203125">
        <ele>102.1999969482421875</ele>
        <time>2018-08-18T09:44:39.000Z</time>
      </trkpt>
      <trkpt lat="51.33955816738307476043701171875" lon="12.39835920743644237518310546875">
        <ele>102.1999969482421875</ele>
        <time>2018-08-18T09:44:47.000Z</time>
      </trkpt>
      <trkpt lat="51.33971759118139743804931640625" lon="12.3983517475426197052001953125">
        <ele>102.1999969482421875</ele>
        <time>2018-08-18T09:44:50.000Z</time>
      </trkpt>
      <trkpt lat="51.34027800522744655609130859375" lon="12.39834881387650966644287109375">
        <ele>102.1999969482421875</ele>
        <time>2018-08-18T09:45:01.000Z</time>
      </trkpt>
      <trkpt lat="51.34072895161807537078857421875" lon="12.39833657629787921905517578125">
        <ele>101.8000030517578125</ele>
        <time>2018-08-18T09:45:10.000Z</time>
      </trkpt>
      <trkpt lat="51.341206133365631103515625" lon="12.39831159822642803192138671875">
        <ele>101.59999847412109375</ele>
        <time>2018-08-18T09:45:20.000Z</time>
      </trkpt>
      <trkpt lat="51.34130244143307209014892578125" lon="12.3986109159886837005615234375">
        <ele>101.40000152587890625</ele>
        <time>2018-08-18T09:45:25.000Z</time>
      </trkpt>
      <trkpt lat="51.3412968255579471588134765625" lon="12.39939504303038120269775390625">
        <ele>101.1999969482421875</ele>
        <time>2018-08-18T09:45:34.000Z</time>
      </trkpt>
      <trkpt lat="51.3412592746317386627197265625" lon="12.39950291812419891357421875">
        <ele>101</ele>
        <time>2018-08-18T09:45:36.000Z</time>
      </trkpt>
      <trkpt lat="51.34117134846746921539306640625" lon="12.3995102941989898681640625">
        <ele>101</ele>
        <time>2018-08-18T09:45:38.000Z</time>
      </trkpt>
      <trkpt lat="51.34107160381972789764404296875" lon="12.39951825700700283050537109375">
        <ele>101</ele>
        <time>2018-08-18T09:45:40.000Z</time>
      </trkpt>
      <trkpt lat="51.341021396219730377197265625" lon="12.39979016594588756561279296875">
        <ele>101</ele>
        <time>2018-08-18T09:45:44.000Z</time>
      </trkpt>
      <trkpt lat="51.3410550914704799652099609375" lon="12.400521822273731231689453125">
        <ele>100.8000030517578125</ele>
        <time>2018-08-18T09:45:52.000Z</time>
      </trkpt>
      <trkpt lat="51.34137989021837711334228515625" lon="12.40124727599322795867919921875">
        <ele>100.59999847412109375</ele>
        <time>2018-08-18T09:46:05.000Z</time>
      </trkpt>
      <trkpt lat="51.34156621992588043212890625" lon="12.4015621840953826904296875">
        <ele>100</ele>
        <time>2018-08-18T09:46:10.000Z</time>
      </trkpt>
      <trkpt lat="51.341990344226360321044921875" lon="12.4021624960005283355712890625">
        <ele>99.59999847412109375</ele>
        <time>2018-08-18T09:46:19.000Z</time>
      </trkpt>
      <trkpt lat="51.34215136058628559112548828125" lon="12.402472794055938720703125">
        <ele>99.59999847412109375</ele>
        <time>2018-08-18T09:46:23.000Z</time>
      </trkpt>
      <trkpt lat="51.342478506267070770263671875" lon="12.40325273014605045318603515625">
        <ele>99.8000030517578125</ele>
        <time>2018-08-18T09:46:32.000Z</time>
      </trkpt>
      <trkpt lat="51.342716217041015625" lon="12.4038338474929332733154296875">
        <ele>100.1999969482421875</ele>
        <time>2018-08-18T09:46:40.000Z</time>
      </trkpt>
      <trkpt lat="51.3426986150443553924560546875" lon="12.4042690359055995941162109375">
        <ele>101.1999969482421875</ele>
        <time>2018-08-18T09:46:45.000Z</time>
      </trkpt>
      <trkpt lat="51.3426840305328369140625" lon="12.40518358536064624786376953125">
        <ele>101.59999847412109375</ele>
        <time>2018-08-18T09:46:54.000Z</time>
      </trkpt>
      <trkpt lat="51.342660896480083465576171875" lon="12.40585279650986194610595703125">
        <ele>101.40000152587890625</ele>
        <time>2018-08-18T09:47:06.000Z</time>
      </trkpt>
      <trkpt lat="51.34266802109777927398681640625" lon="12.405921779572963714599609375">
        <ele>101.1999969482421875</ele>
        <time>2018-08-18T09:47:11.000Z</time>
      </trkpt>
      <trkpt lat="51.342685036361217498779296875" lon="12.4059504456818103790283203125">
        <ele>101.1999969482421875</ele>
        <time>2018-08-18T09:47:12.000Z</time>
      </trkpt>
      <trkpt lat="51.342862062156200408935546875" lon="12.40595421753823757171630859375">
        <ele>101.1999969482421875</ele>
        <time>2018-08-18T09:47:17.000Z</time>
      </trkpt>
      <trkpt lat="51.34345876984298229217529296875" lon="12.40596444346010684967041015625">
        <ele>101.40000152587890625</ele>
        <time>2018-08-18T09:47:27.000Z</time>
      </trkpt>
      <trkpt lat="51.34401666931807994842529296875" lon="12.4059437401592731475830078125">
        <ele>101.8000030517578125</ele>
        <time>2018-08-18T09:47:36.000Z</time>
      </trkpt>
      <trkpt lat="51.34445470757782459259033203125" lon="12.40592286922037601470947265625">
        <ele>102.1999969482421875</ele>
        <time>2018-08-18T09:47:43.000Z</time>
      </trkpt>
      <trkpt lat="51.344919987022876739501953125" lon="12.40593619644641876220703125">
        <ele>102.59999847412109375</ele>
        <time>2018-08-18T09:47:51.000Z</time>
      </trkpt>
      <trkpt lat="51.34548082016408443450927734375" lon="12.4059320054948329925537109375">
        <ele>103</ele>
        <time>2018-08-18T09:48:09.000Z</time>
      </trkpt>
      <trkpt lat="51.34555240161716938018798828125" lon="12.405943907797336578369140625">
        <ele>103</ele>
        <time>2018-08-18T09:48:11.000Z</time>
      </trkpt>
      <trkpt lat="51.34613611735403537750244140625" lon="12.4060121364891529083251953125">
        <ele>103</ele>
        <time>2018-08-18T09:48:23.000Z</time>
      </trkpt>
      <trkpt lat="51.34668127633631229400634765625" lon="12.40605312399566173553466796875">
        <ele>102.8000030517578125</ele>
        <time>2018-08-18T09:48:32.000Z</time>
      </trkpt>
      <trkpt lat="51.3472426123917102813720703125" lon="12.40616762079298496246337890625">
        <ele>102.59999847412109375</ele>
        <time>2018-08-18T09:48:40.000Z</time>
      </trkpt>
      <trkpt lat="51.3478338718414306640625" lon="12.40621925331652164459228515625">
        <ele>102.59999847412109375</ele>
        <time>2018-08-18T09:48:48.000Z</time>
      </trkpt>
      <trkpt lat="51.3483770191669464111328125" lon="12.406204082071781158447265625">
        <ele>102.59999847412109375</ele>
        <time>2018-08-18T09:48:56.000Z</time>
      </trkpt>
      <trkpt lat="51.34879670105874538421630859375" lon="12.4061335064470767974853515625">
        <ele>103.40000152587890625</ele>
        <time>2018-08-18T09:49:03.000Z</time>
      </trkpt>
      <trkpt lat="51.349252760410308837890625" lon="12.40610727109014987945556640625">
        <ele>104.40000152587890625</ele>
        <time>2018-08-18T09:49:11.000Z</time>
      </trkpt>
      <trkpt lat="51.34952324442565441131591796875" lon="12.40608715452253818511962890625">
        <ele>105.40000152587890625</ele>
        <time>2018-08-18T09:49:16.000Z</time>
      </trkpt>
      <trkpt lat="51.34968350641429424285888671875" lon="12.406072653830051422119140625">
        <ele>106.59999847412109375</ele>
        <time>2018-08-18T09:49:19.000Z</time>
      </trkpt>
      <trkpt lat="51.3499580137431621551513671875" lon="12.4060361087322235107421875">
        <ele>107.59999847412109375</ele>
        <time>2018-08-18T09:49:24.000Z</time>
      </trkpt>
      <trkpt lat="51.3505118899047374725341796875" lon="12.40596033632755279541015625">
        <ele>108.40000152587890625</ele>
        <time>2018-08-18T09:49:34.000Z</time>
      </trkpt>
      <trkpt lat="51.3506617583334445953369140625" lon="12.40595438517630100250244140625">
        <ele>108.1999969482421875</ele>
        <time>2018-08-18T09:49:38.000Z</time>
      </trkpt>
      <trkpt lat="51.35083015076816082000732421875" lon="12.40628697909414768218994140625">
        <ele>106.8000030517578125</ele>
        <time>2018-08-18T09:49:44.000Z</time>
      </trkpt>
      <trkpt lat="51.35085663758218288421630859375" lon="12.4063611589372158050537109375">
        <ele>106.59999847412109375</ele>
        <time>2018-08-18T09:49:45.000Z</time>
      </trkpt>
      <trkpt lat="51.350906006991863250732421875" lon="12.40650658495724201202392578125">
        <ele>106</ele>
        <time>2018-08-18T09:49:47.000Z</time>
      </trkpt>
      <trkpt lat="51.35097968392074108123779296875" lon="12.406748570501804351806640625">
        <ele>105.59999847412109375</ele>
        <time>2018-08-18T09:49:50.000Z</time>
      </trkpt>
      <trkpt lat="51.35121521539986133575439453125" lon="12.40755222737789154052734375">
        <ele>104.8000030517578125</ele>
        <time>2018-08-18T09:49:59.000Z</time>
      </trkpt>
      <trkpt lat="51.35136642493307590484619140625" lon="12.407885156571865081787109375">
        <ele>104.59999847412109375</ele>
        <time>2018-08-18T09:50:03.000Z</time>
      </trkpt>
      <trkpt lat="51.351412944495677947998046875" lon="12.407969646155834197998046875">
        <ele>104.40000152587890625</ele>
        <time>2018-08-18T09:50:04.000Z</time>
      </trkpt>
      <trkpt lat="51.3518348895013332366943359375" lon="12.40863726474344730377197265625">
        <ele>104</ele>
        <time>2018-08-18T09:50:13.000Z</time>
      </trkpt>
      <trkpt lat="51.3522630371153354644775390625" lon="12.4092804081737995147705078125">
        <ele>104.1999969482421875</ele>
        <time>2018-08-18T09:50:22.000Z</time>
      </trkpt>
      <trkpt lat="51.35260309092700481414794921875" lon="12.4097994156181812286376953125">
        <ele>104.1999969482421875</ele>
        <time>2018-08-18T09:50:29.000Z</time>
      </trkpt>
      <trkpt lat="51.352846585214138031005859375" lon="12.41019009612500667572021484375">
        <ele>104.1999969482421875</ele>
        <time>2018-08-18T09:50:34.000Z</time>
      </trkpt>
      <trkpt lat="51.35326869785785675048828125" lon="12.41083349101245403289794921875">
        <ele>104.40000152587890625</ele>
        <time>2018-08-18T09:50:42.000Z</time>
      </trkpt>
      <trkpt lat="51.3536896370351314544677734375" lon="12.4114580266177654266357421875">
        <ele>104.40000152587890625</ele>
        <time>2018-08-18T09:50:50.000Z</time>
      </trkpt>
      <trkpt lat="51.354126669466495513916015625" lon="12.412115000188350677490234375">
        <ele>104.59999847412109375</ele>
        <time>2018-08-18T09:50:58.000Z</time>
      </trkpt>
      <trkpt lat="51.3545407354831695556640625" lon="12.4127622507512569427490234375">
        <ele>104.59999847412109375</ele>
        <time>2018-08-18T09:51:06.000Z</time>
      </trkpt>
      <trkpt lat="51.35495354421436786651611328125" lon="12.41342115215957164764404296875">
        <ele>104.59999847412109375</ele>
        <time>2018-08-18T09:51:14.000Z</time>
      </trkpt>
      <trkpt lat="51.355365179479122161865234375" lon="12.414064966142177581787109375">
        <ele>104.59999847412109375</ele>
        <time>2018-08-18T09:51:22.000Z</time>
      </trkpt>
      <trkpt lat="51.3557324744760990142822265625" lon="12.41472453810274600982666015625">
        <ele>104.59999847412109375</ele>
        <time>2018-08-18T09:51:30.000Z</time>
      </trkpt>
      <trkpt lat="51.35612600483000278472900390625" lon="12.41541109979152679443359375">
        <ele>104.59999847412109375</ele>
        <time>2018-08-18T09:51:38.000Z</time>
      </trkpt>
      <trkpt lat="51.35655364952981472015380859375" lon="12.41603831760585308074951171875">
        <ele>104.1999969482421875</ele>
        <time>2018-08-18T09:51:46.000Z</time>
      </trkpt>
      <trkpt lat="51.35664098896086215972900390625" lon="12.416173852980136871337890625">
        <ele>104</ele>
        <time>2018-08-18T09:51:48.000Z</time>
      </trkpt>
      <trkpt lat="51.3567714951932430267333984375" lon="12.41699921898543834686279296875">
        <ele>104</ele>
        <time>2018-08-18T09:51:58.000Z</time>
      </trkpt>
      <trkpt lat="51.35703611187636852264404296875" lon="12.41779063828289508819580078125">
        <ele>104</ele>
        <time>2018-08-18T09:52:08.000Z</time>
      </trkpt>
      <trkpt lat="51.35721146129071712493896484375" lon="12.4182294309139251708984375">
        <ele>104.1999969482421875</ele>
        <time>2018-08-18T09:52:21.000Z</time>
      </trkpt>
      <trkpt lat="51.35722604580223560333251953125" lon="12.41831417195498943328857421875">
        <ele>104</ele>
        <time>2018-08-18T09:52:47.000Z</time>
      </trkpt>
      <trkpt lat="51.3572905026376247406005859375" lon="12.41849790327250957489013671875">
        <ele>104</ele>
        <time>2018-08-18T09:52:51.000Z</time>
      </trkpt>
      <trkpt lat="51.35757741518318653106689453125" lon="12.41848331876099109649658203125">
        <ele>104</ele>
        <time>2018-08-18T09:52:57.000Z</time>
      </trkpt>
      <trkpt lat="51.3576338253915309906005859375" lon="12.41844601929187774658203125">
        <ele>104</ele>
        <time>2018-08-18T09:52:58.000Z</time>
      </trkpt>
      <trkpt lat="51.3581776432693004608154296875" lon="12.4180542491376399993896484375">
        <ele>104</ele>
        <time>2018-08-18T09:53:07.000Z</time>
      </trkpt>
      <trkpt lat="51.358489952981472015380859375" lon="12.41779617033898830413818359375">
        <ele>103.40000152587890625</ele>
        <time>2018-08-18T09:53:12.000Z</time>
      </trkpt>
      <trkpt lat="51.35855667293071746826171875" lon="12.41775426082313060760498046875">
        <ele>103.40000152587890625</ele>
        <time>2018-08-18T09:53:13.000Z</time>
      </trkpt>
      <trkpt lat="51.35888264514505863189697265625" lon="12.4176814220845699310302734375">
        <ele>103.1999969482421875</ele>
        <time>2018-08-18T09:53:18.000Z</time>
      </trkpt>
      <trkpt lat="51.35904156602919101715087890625" lon="12.41769407875835895538330078125">
        <ele>102.8000030517578125</ele>
        <time>2018-08-18T09:53:26.000Z</time>
      </trkpt>
      <trkpt lat="51.3590882532298564910888671875" lon="12.41770028136670589447021484375">
        <ele>102.40000152587890625</ele>
        <time>2018-08-18T09:53:42.000Z</time>
      </trkpt>
      <trkpt lat="51.3592796958982944488525390625" lon="12.4177233316004276275634765625">
        <ele>102.59999847412109375</ele>
        <time>2018-08-18T09:53:47.000Z</time>
      </trkpt>
      <trkpt lat="51.35965931229293346405029296875" lon="12.41790463216602802276611328125">
        <ele>102.59999847412109375</ele>
        <time>2018-08-18T09:53:54.000Z</time>
      </trkpt>
      <trkpt lat="51.359836421906948089599609375" lon="12.41793447174131870269775390625">
        <ele>102.8000030517578125</ele>
        <time>2018-08-18T09:53:57.000Z</time>
      </trkpt>
      <trkpt lat="51.3600766472518444061279296875" lon="12.41819120943546295166015625">
        <ele>102.8000030517578125</ele>
        <time>2018-08-18T09:54:02.000Z</time>
      </trkpt>
      <trkpt lat="51.36047654785215854644775390625" lon="12.41888665594160556793212890625">
        <ele>103.59999847412109375</ele>
        <time>2018-08-18T09:54:11.000Z</time>
      </trkpt>
      <trkpt lat="51.3608451001346111297607421875" lon="12.41952988319098949432373046875">
        <ele>103.8000030517578125</ele>
        <time>2018-08-18T09:54:19.000Z</time>
      </trkpt>
      <trkpt lat="51.36095146648585796356201171875" lon="12.41966315545141696929931640625">
        <ele>103.8000030517578125</ele>
        <time>2018-08-18T09:54:21.000Z</time>
      </trkpt>
      <trkpt lat="51.36144918389618396759033203125" lon="12.41998418234288692474365234375">
        <ele>104.59999847412109375</ele>
        <time>2018-08-18T09:54:29.000Z</time>
      </trkpt>
      <trkpt lat="51.36196835897862911224365234375" lon="12.42029632441699504852294921875">
        <ele>105.59999847412109375</ele>
        <time>2018-08-18T09:54:37.000Z</time>
      </trkpt>
      <trkpt lat="51.3625095784664154052734375" lon="12.420642077922821044921875">
        <ele>106.1999969482421875</ele>
        <time>2018-08-18T09:54:45.000Z</time>
      </trkpt>
      <trkpt lat="51.3626517355442047119140625" lon="12.4207305908203125">
        <ele>106.1999969482421875</ele>
        <time>2018-08-18T09:54:47.000Z</time>
      </trkpt>
      <trkpt lat="51.3631648756563663482666015625" lon="12.421020604670047760009765625">
        <ele>106.1999969482421875</ele>
        <time>2018-08-18T09:54:54.000Z</time>
      </trkpt>
      <trkpt lat="51.3637026585638523101806640625" lon="12.42131556384265422821044921875">
        <ele>105.8000030517578125</ele>
        <time>2018-08-18T09:55:01.000Z</time>
      </trkpt>
      <trkpt lat="51.364245973527431488037109375" lon="12.42160876281559467315673828125">
        <ele>105.1999969482421875</ele>
        <time>2018-08-18T09:55:08.000Z</time>
      </trkpt>
      <trkpt lat="51.3647913001477718353271484375" lon="12.42191805504262447357177734375">
        <ele>104.8000030517578125</ele>
        <time>2018-08-18T09:55:15.000Z</time>
      </trkpt>
      <trkpt lat="51.3648670725524425506591796875" lon="12.4219628982245922088623046875">
        <ele>104.8000030517578125</ele>
        <time>2018-08-18T09:55:16.000Z</time>
      </trkpt>
      <trkpt lat="51.36538683436810970306396484375" lon="12.422271855175495147705078125">
        <ele>104.59999847412109375</ele>
        <time>2018-08-18T09:55:23.000Z</time>
      </trkpt>
      <trkpt lat="51.36589528061449527740478515625" lon="12.422580979764461517333984375">
        <ele>104.59999847412109375</ele>
        <time>2018-08-18T09:55:30.000Z</time>
      </trkpt>
      <trkpt lat="51.3664095103740692138671875" lon="12.422860600054264068603515625">
        <ele>105.40000152587890625</ele>
        <time>2018-08-18T09:55:37.000Z</time>
      </trkpt>
      <trkpt lat="51.36670178733766078948974609375" lon="12.422992028295993804931640625">
        <ele>105.8000030517578125</ele>
        <time>2018-08-18T09:55:41.000Z</time>
      </trkpt>
      <trkpt lat="51.36728080920875072479248046875" lon="12.4233197607100009918212890625">
        <ele>106.40000152587890625</ele>
        <time>2018-08-18T09:55:49.000Z</time>
      </trkpt>
      <trkpt lat="51.36775170452892780303955078125" lon="12.42376886308193206787109375">
        <ele>106.8000030517578125</ele>
        <time>2018-08-18T09:55:56.000Z</time>
      </trkpt>
      <trkpt lat="51.36795111000537872314453125" lon="12.42396466434001922607421875">
        <ele>106.8000030517578125</ele>
        <time>2018-08-18T09:55:59.000Z</time>
      </trkpt>
      <trkpt lat="51.36847238056361675262451171875" lon="12.4244781397283077239990234375">
        <ele>107.40000152587890625</ele>
        <time>2018-08-18T09:56:07.000Z</time>
      </trkpt>
      <trkpt lat="51.3689361512660980224609375" lon="12.424935288727283477783203125">
        <ele>107.8000030517578125</ele>
        <time>2018-08-18T09:56:14.000Z</time>
      </trkpt>
      <trkpt lat="51.3691265881061553955078125" lon="12.4251067824661731719970703125">
        <ele>107.8000030517578125</ele>
        <time>2018-08-18T09:56:17.000Z</time>
      </trkpt>
      <trkpt lat="51.3696308434009552001953125" lon="12.425607852637767791748046875">
        <ele>108</ele>
        <time>2018-08-18T09:56:25.000Z</time>
      </trkpt>
      <trkpt lat="51.3701510243117809295654296875" lon="12.42613566108047962188720703125">
        <ele>107.8000030517578125</ele>
        <time>2018-08-18T09:56:33.000Z</time>
      </trkpt>
      <trkpt lat="51.37065536342561244964599609375" lon="12.4266242422163486480712890625">
        <ele>107.59999847412109375</ele>
        <time>2018-08-18T09:56:40.000Z</time>
      </trkpt>
      <trkpt lat="51.37112148106098175048828125" lon="12.42708046920597553253173828125">
        <ele>106.8000030517578125</ele>
        <time>2018-08-18T09:56:46.000Z</time>
      </trkpt>
      <trkpt lat="51.37120102532207965850830078125" lon="12.42715758271515369415283203125">
        <ele>106.59999847412109375</ele>
        <time>2018-08-18T09:56:47.000Z</time>
      </trkpt>
      <trkpt lat="51.37166865170001983642578125" lon="12.42763451300561428070068359375">
        <ele>105.40000152587890625</ele>
        <time>2018-08-18T09:56:53.000Z</time>
      </trkpt>
      <trkpt lat="51.37197576463222503662109375" lon="12.4279529415071010589599609375">
        <ele>104.1999969482421875</ele>
        <time>2018-08-18T09:56:57.000Z</time>
      </trkpt>
      <trkpt lat="51.3724902458488941192626953125" lon="12.4285038001835346221923828125">
        <ele>103.8000030517578125</ele>
        <time>2018-08-18T09:57:04.000Z</time>
      </trkpt>
      <trkpt lat="51.37296558357775211334228515625" lon="12.42900059558451175689697265625">
        <ele>103.8000030517578125</ele>
        <time>2018-08-18T09:57:11.000Z</time>
      </trkpt>
      <trkpt lat="51.37344829738140106201171875" lon="12.4294854886829853057861328125">
        <ele>105.40000152587890625</ele>
        <time>2018-08-18T09:57:18.000Z</time>
      </trkpt>
      <trkpt lat="51.37401214800775051116943359375" lon="12.4297969602048397064208984375">
        <ele>105.8000030517578125</ele>
        <time>2018-08-18T09:57:25.000Z</time>
      </trkpt>
      <trkpt lat="51.3745434768497943878173828125" lon="12.4299652688205242156982421875">
        <ele>105.59999847412109375</ele>
        <time>2018-08-18T09:57:31.000Z</time>
      </trkpt>
      <trkpt lat="51.37507748790085315704345703125" lon="12.4301151372492313385009765625">
        <ele>105.40000152587890625</ele>
        <time>2018-08-18T09:57:37.000Z</time>
      </trkpt>
      <trkpt lat="51.375668160617351531982421875" lon="12.43025821633636951446533203125">
        <ele>105.40000152587890625</ele>
        <time>2018-08-18T09:57:44.000Z</time>
      </trkpt>
      <trkpt lat="51.3762057758867740631103515625" lon="12.43034404702484607696533203125">
        <ele>106.1999969482421875</ele>
        <time>2018-08-18T09:57:51.000Z</time>
      </trkpt>
      <trkpt lat="51.37635539285838603973388671875" lon="12.430356033146381378173828125">
        <ele>106.59999847412109375</ele>
        <time>2018-08-18T09:57:53.000Z</time>
      </trkpt>
      <trkpt lat="51.376730315387248992919921875" lon="12.4303508363664150238037109375">
        <ele>107.8000030517578125</ele>
        <time>2018-08-18T09:57:58.000Z</time>
      </trkpt>
      <trkpt lat="51.377271451056003570556640625" lon="12.43027213029563426971435546875">
        <ele>108.40000152587890625</ele>
        <time>2018-08-18T09:58:05.000Z</time>
      </trkpt>
      <trkpt lat="51.3778234831988811492919921875" lon="12.4301774986088275909423828125">
        <ele>108.40000152587890625</ele>
        <time>2018-08-18T09:58:12.000Z</time>
      </trkpt>
      <trkpt lat="51.3783961348235607147216796875" lon="12.43007431738078594207763671875">
        <ele>107.8000030517578125</ele>
        <time>2018-08-18T09:58:20.000Z</time>
      </trkpt>
      <trkpt lat="51.378443241119384765625" lon="12.43008554913103580474853515625">
        <ele>107.59999847412109375</ele>
        <time>2018-08-18T09:58:21.000Z</time>
      </trkpt>
      <trkpt lat="51.3786164112389087677001953125" lon="12.43066943250596523284912109375">
        <ele>107</ele>
        <time>2018-08-18T09:58:33.000Z</time>
      </trkpt>
      <trkpt lat="51.37862973846495151519775390625" lon="12.43067664094269275665283203125">
        <ele>106.8000030517578125</ele>
        <time>2018-08-18T09:58:34.000Z</time>
      </trkpt>
      <trkpt lat="51.37863979674875736236572265625" lon="12.43067932315170764923095703125">
        <ele>106.8000030517578125</ele>
        <time>2018-08-18T09:58:37.000Z</time>
      </trkpt>
      <trkpt lat="51.37862554751336574554443359375" lon="12.430602125823497772216796875">
        <ele>109</ele>
        <time>2018-08-18T10:29:07.000Z</time>
      </trkpt>
      <trkpt lat="51.37857760302722454071044921875" lon="12.43059583939611911773681640625">
        <ele>109</ele>
        <time>2018-08-18T10:29:10.000Z</time>
      </trkpt>
      <trkpt lat="51.37854223139584064483642578125" lon="12.430425100028514862060546875">
        <ele>109</ele>
        <time>2018-08-18T10:29:15.000Z</time>
      </trkpt>
      <trkpt lat="51.37852228246629238128662109375" lon="12.4301652610301971435546875">
        <ele>109</ele>
        <time>2018-08-18T10:29:20.000Z</time>
      </trkpt>
      <trkpt lat="51.37867164798080921173095703125" lon="12.43003676645457744598388671875">
        <ele>109</ele>
        <time>2018-08-18T10:29:26.000Z</time>
      </trkpt>
      <trkpt lat="51.37921613641083240509033203125" lon="12.4299210123717784881591796875">
        <ele>109</ele>
        <time>2018-08-18T10:29:39.000Z</time>
      </trkpt>
      <trkpt lat="51.37937321327626705169677734375" lon="12.429887987673282623291015625">
        <ele>108.59999847412109375</ele>
        <time>2018-08-18T10:29:45.000Z</time>
      </trkpt>
      <trkpt lat="51.3793898932635784149169921875" lon="12.4298878200352191925048828125">
        <ele>108.59999847412109375</ele>
        <time>2018-08-18T10:29:47.000Z</time>
      </trkpt>
      <trkpt lat="51.37939802370965480804443359375" lon="12.42988337762653827667236328125">
        <ele>108.1999969482421875</ele>
        <time>2018-08-18T10:29:50.000Z</time>
      </trkpt>
      <trkpt lat="51.37943456880748271942138671875" lon="12.4298794381320476531982421875">
        <ele>107.1999969482421875</ele>
        <time>2018-08-18T10:29:56.000Z</time>
      </trkpt>
      <trkpt lat="51.3795531727373600006103515625" lon="12.4300309829413890838623046875">
        <ele>107.1999969482421875</ele>
        <time>2018-08-18T10:30:01.000Z</time>
      </trkpt>
      <trkpt lat="51.37950631789863109588623046875" lon="12.43089289404451847076416015625">
        <ele>106.59999847412109375</ele>
        <time>2018-08-18T10:30:12.000Z</time>
      </trkpt>
      <trkpt lat="51.37945803813636302947998046875" lon="12.4317543022334575653076171875">
        <ele>106.40000152587890625</ele>
        <time>2018-08-18T10:30:21.000Z</time>
      </trkpt>
      <trkpt lat="51.37948653660714626312255859375" lon="12.4319621734321117401123046875">
        <ele>106.1999969482421875</ele>
        <time>2018-08-18T10:30:23.000Z</time>
      </trkpt>
      <trkpt lat="51.3796242512762546539306640625" lon="12.4328426085412502288818359375">
        <ele>105.1999969482421875</ele>
        <time>2018-08-18T10:30:31.000Z</time>
      </trkpt>
      <trkpt lat="51.37963950634002685546875" lon="12.4329475499689579010009765625">
        <ele>105.1999969482421875</ele>
        <time>2018-08-18T10:30:32.000Z</time>
      </trkpt>
      <trkpt lat="51.37970865704119205474853515625" lon="12.43344468064606189727783203125">
        <ele>104.40000152587890625</ele>
        <time>2018-08-18T10:30:37.000Z</time>
      </trkpt>
      <trkpt lat="51.37975140474736690521240234375" lon="12.43364014662802219390869140625">
        <ele>104.1999969482421875</ele>
        <time>2018-08-18T10:30:39.000Z</time>
      </trkpt>
      <trkpt lat="51.37993698008358478546142578125" lon="12.43445319123566150665283203125">
        <ele>103.40000152587890625</ele>
        <time>2018-08-18T10:30:49.000Z</time>
      </trkpt>
      <trkpt lat="51.37996547855436801910400390625" lon="12.43457070551812648773193359375">
        <ele>103.40000152587890625</ele>
        <time>2018-08-18T10:30:58.000Z</time>
      </trkpt>
      <trkpt lat="51.3799672387540340423583984375" lon="12.43461110629141330718994140625">
        <ele>103.40000152587890625</ele>
        <time>2018-08-18T10:31:03.000Z</time>
      </trkpt>
      <trkpt lat="51.37998995371162891387939453125" lon="12.4346775747835636138916015625">
        <ele>103.40000152587890625</ele>
        <time>2018-08-18T10:31:17.000Z</time>
      </trkpt>
      <trkpt lat="51.38013680465519428253173828125" lon="12.43478125892579555511474609375">
        <ele>103.40000152587890625</ele>
        <time>2018-08-18T10:31:22.000Z</time>
      </trkpt>
      <trkpt lat="51.38069202192127704620361328125" lon="12.4345944263041019439697265625">
        <ele>103.40000152587890625</ele>
        <time>2018-08-18T10:31:33.000Z</time>
      </trkpt>
      <trkpt lat="51.3811494223773479461669921875" lon="12.4344589747488498687744140625">
        <ele>103.40000152587890625</ele>
        <time>2018-08-18T10:31:41.000Z</time>
      </trkpt>
      <trkpt lat="51.38170707039535045623779296875" lon="12.43427482433617115020751953125">
        <ele>103.40000152587890625</ele>
        <time>2018-08-18T10:31:51.000Z</time>
      </trkpt>
      <trkpt lat="51.381992809474468231201171875" lon="12.43420802056789398193359375">
        <ele>103.59999847412109375</ele>
        <time>2018-08-18T10:31:56.000Z</time>
      </trkpt>
      <trkpt lat="51.3822209648787975311279296875" lon="12.4346205778419971466064453125">
        <ele>103.8000030517578125</ele>
        <time>2018-08-18T10:32:03.000Z</time>
      </trkpt>
      <trkpt lat="51.38227410614490509033203125" lon="12.435305379331111907958984375">
        <ele>104.1999969482421875</ele>
        <time>2018-08-18T10:32:11.000Z</time>
      </trkpt>
      <trkpt lat="51.38230486772954463958740234375" lon="12.43570460937917232513427734375">
        <ele>104.40000152587890625</ele>
        <time>2018-08-18T10:32:15.000Z</time>
      </trkpt>
      <trkpt lat="51.38245171867311000823974609375" lon="12.43626787327229976654052734375">
        <ele>104.1999969482421875</ele>
        <time>2018-08-18T10:32:22.000Z</time>
      </trkpt>
      <trkpt lat="51.3826797902584075927734375" lon="12.43648949079215526580810546875">
        <ele>104.1999969482421875</ele>
        <time>2018-08-18T10:32:27.000Z</time>
      </trkpt>
      <trkpt lat="51.3827305845916271209716796875" lon="12.43650223128497600555419921875">
        <ele>104.1999969482421875</ele>
        <time>2018-08-18T10:32:28.000Z</time>
      </trkpt>
      <trkpt lat="51.38312730006873607635498046875" lon="12.4366573803126811981201171875">
        <ele>104.40000152587890625</ele>
        <time>2018-08-18T10:32:36.000Z</time>
      </trkpt>
      <trkpt lat="51.38326694257557392120361328125" lon="12.43684639222919940948486328125">
        <ele>104.59999847412109375</ele>
        <time>2018-08-18T10:32:40.000Z</time>
      </trkpt>
      <trkpt lat="51.38332846574485301971435546875" lon="12.43697614409029483795166015625">
        <ele>104.59999847412109375</ele>
        <time>2018-08-18T10:32:42.000Z</time>
      </trkpt>
      <trkpt lat="51.38340532779693603515625" lon="12.437102459371089935302734375">
        <ele>104.59999847412109375</ele>
        <time>2018-08-18T10:32:44.000Z</time>
      </trkpt>
      <trkpt lat="51.38385585509240627288818359375" lon="12.43768122978508472442626953125">
        <ele>104</ele>
        <time>2018-08-18T10:32:55.000Z</time>
      </trkpt>
      <trkpt lat="51.384021230041980743408203125" lon="12.4379260651767253875732421875">
        <ele>103.59999847412109375</ele>
        <time>2018-08-18T10:33:00.000Z</time>
      </trkpt>
      <trkpt lat="51.38407261110842227935791015625" lon="12.43803075514733791351318359375">
        <ele>103.40000152587890625</ele>
        <time>2018-08-18T10:33:08.000Z</time>
      </trkpt>
      <trkpt lat="51.384072862565517425537109375" lon="12.4380333535373210906982421875">
        <ele>103.40000152587890625</ele>
        <time>2018-08-18T10:33:09.000Z</time>
      </trkpt>
      <trkpt lat="51.38411167077720165252685546875" lon="12.43804651312530040740966796875">
        <ele>103</ele>
        <time>2018-08-18T10:34:03.000Z</time>
      </trkpt>
      <trkpt lat="51.38447779230773448944091796875" lon="12.43854138068854808807373046875">
        <ele>103</ele>
        <time>2018-08-18T10:34:16.000Z</time>
      </trkpt>
      <trkpt lat="51.3849247992038726806640625" lon="12.43914504535496234893798828125">
        <ele>103</ele>
        <time>2018-08-18T10:34:26.000Z</time>
      </trkpt>
      <trkpt lat="51.385149769484996795654296875" lon="12.43947864510118961334228515625">
        <ele>102.8000030517578125</ele>
        <time>2018-08-18T10:34:31.000Z</time>
      </trkpt>
      <trkpt lat="51.38550641946494579315185546875" lon="12.440139390528202056884765625">
        <ele>102.8000030517578125</ele>
        <time>2018-08-18T10:34:40.000Z</time>
      </trkpt>
      <trkpt lat="51.3857440464198589324951171875" lon="12.4405710585415363311767578125">
        <ele>103</ele>
        <time>2018-08-18T10:34:46.000Z</time>
      </trkpt>
      <trkpt lat="51.38607974164187908172607421875" lon="12.44126097299158573150634765625">
        <ele>103.40000152587890625</ele>
        <time>2018-08-18T10:34:55.000Z</time>
      </trkpt>
      <trkpt lat="51.3864456117153167724609375" lon="12.44197896681725978851318359375">
        <ele>103.8000030517578125</ele>
        <time>2018-08-18T10:35:05.000Z</time>
      </trkpt>
      <trkpt lat="51.38663663528859615325927734375" lon="12.44230167008936405181884765625">
        <ele>104</ele>
        <time>2018-08-18T10:35:10.000Z</time>
      </trkpt>
      <trkpt lat="51.38685590587556362152099609375" lon="12.44270081631839275360107421875">
        <ele>104</ele>
        <time>2018-08-18T10:35:16.000Z</time>
      </trkpt>
      <trkpt lat="51.386963613331317901611328125" lon="12.44290600530803203582763671875">
        <ele>104</ele>
        <time>2018-08-18T10:35:19.000Z</time>
      </trkpt>
      <trkpt lat="51.3871032558381557464599609375" lon="12.4432988651096820831298828125">
        <ele>104.1999969482421875</ele>
        <time>2018-08-18T10:35:24.000Z</time>
      </trkpt>
      <trkpt lat="51.3874140568077564239501953125" lon="12.44405248202383518218994140625">
        <ele>104.1999969482421875</ele>
        <time>2018-08-18T10:35:33.000Z</time>
      </trkpt>
      <trkpt lat="51.38771538622677326202392578125" lon="12.44480484165251255035400390625">
        <ele>103.8000030517578125</ele>
        <time>2018-08-18T10:35:41.000Z</time>
      </trkpt>
      <trkpt lat="51.38807932846248149871826171875" lon="12.44545678608119487762451171875">
        <ele>103.8000030517578125</ele>
        <time>2018-08-18T10:35:50.000Z</time>
      </trkpt>
      <trkpt lat="51.38846891932189464569091796875" lon="12.4461282603442668914794921875">
        <ele>104.8000030517578125</ele>
        <time>2018-08-18T10:35:59.000Z</time>
      </trkpt>
      <trkpt lat="51.3886951468884944915771484375" lon="12.4464972317218780517578125">
        <ele>105</ele>
        <time>2018-08-18T10:36:04.000Z</time>
      </trkpt>
      <trkpt lat="51.38916092924773693084716796875" lon="12.44699955917894840240478515625">
        <ele>105.40000152587890625</ele>
        <time>2018-08-18T10:36:13.000Z</time>
      </trkpt>
      <trkpt lat="51.389694772660732269287109375" lon="12.4473962746560573577880859375">
        <ele>105.40000152587890625</ele>
        <time>2018-08-18T10:36:22.000Z</time>
      </trkpt>
      <trkpt lat="51.39013390056788921356201171875" lon="12.44789005257189273834228515625">
        <ele>105.40000152587890625</ele>
        <time>2018-08-18T10:36:30.000Z</time>
      </trkpt>
      <trkpt lat="51.39050203375518321990966796875" lon="12.44853914715349674224853515625">
        <ele>105.1999969482421875</ele>
        <time>2018-08-18T10:36:38.000Z</time>
      </trkpt>
      <trkpt lat="51.3906819932162761688232421875" lon="12.44885279797017574310302734375">
        <ele>105</ele>
        <time>2018-08-18T10:36:42.000Z</time>
      </trkpt>
      <trkpt lat="51.391040571033954620361328125" lon="12.44949887506663799285888671875">
        <ele>104.8000030517578125</ele>
        <time>2018-08-18T10:36:50.000Z</time>
      </trkpt>
      <trkpt lat="51.391458995640277862548828125" lon="12.4501673318445682525634765625">
        <ele>104.8000030517578125</ele>
        <time>2018-08-18T10:36:59.000Z</time>
      </trkpt>
      <trkpt lat="51.39163794927299022674560546875" lon="12.45046757161617279052734375">
        <ele>104.8000030517578125</ele>
        <time>2018-08-18T10:37:03.000Z</time>
      </trkpt>
      <trkpt lat="51.3919315673410892486572265625" lon="12.4508258141577243804931640625">
        <ele>105</ele>
        <time>2018-08-18T10:37:09.000Z</time>
      </trkpt>
      <trkpt lat="51.3920514285564422607421875" lon="12.4510531313717365264892578125">
        <ele>105</ele>
        <time>2018-08-18T10:37:12.000Z</time>
      </trkpt>
      <trkpt lat="51.39215134084224700927734375" lon="12.45116620324552059173583984375">
        <ele>105</ele>
        <time>2018-08-18T10:37:14.000Z</time>
      </trkpt>
      <trkpt lat="51.39228234998881816864013671875" lon="12.4513305723667144775390625">
        <ele>105</ele>
        <time>2018-08-18T10:37:17.000Z</time>
      </trkpt>
      <trkpt lat="51.39233750291168689727783203125" lon="12.45186894200742244720458984375">
        <ele>105.1999969482421875</ele>
        <time>2018-08-18T10:37:23.000Z</time>
      </trkpt>
      <trkpt lat="51.3923258520662784576416015625" lon="12.451968602836132049560546875">
        <ele>105.1999969482421875</ele>
        <time>2018-08-18T10:37:24.000Z</time>
      </trkpt>
      <trkpt lat="51.39218780212104320526123046875" lon="12.45288734324276447296142578125">
        <ele>105.1999969482421875</ele>
        <time>2018-08-18T10:37:33.000Z</time>
      </trkpt>
      <trkpt lat="51.3920809328556060791015625" lon="12.45382511056959629058837890625">
        <ele>105.40000152587890625</ele>
        <time>2018-08-18T10:37:42.000Z</time>
      </trkpt>
      <trkpt lat="51.392089314758777618408203125" lon="12.45477695949375629425048828125">
        <ele>105.8000030517578125</ele>
        <time>2018-08-18T10:37:51.000Z</time>
      </trkpt>
      <trkpt lat="51.39211907051503658294677734375" lon="12.45519052259624004364013671875">
        <ele>106</ele>
        <time>2018-08-18T10:37:55.000Z</time>
      </trkpt>
      <trkpt lat="51.392175145447254180908203125" lon="12.45582385919988155364990234375">
        <ele>106.59999847412109375</ele>
        <time>2018-08-18T10:38:01.000Z</time>
      </trkpt>
      <trkpt lat="51.3922634907066822052001953125" lon="12.456717453896999359130859375">
        <ele>106.40000152587890625</ele>
        <time>2018-08-18T10:38:09.000Z</time>
      </trkpt>
      <trkpt lat="51.3923384249210357666015625" lon="12.45703923515975475311279296875">
        <ele>106.40000152587890625</ele>
        <time>2018-08-18T10:38:12.000Z</time>
      </trkpt>
      <trkpt lat="51.39263212680816650390625" lon="12.45784473605453968048095703125">
        <ele>106</ele>
        <time>2018-08-18T10:38:20.000Z</time>
      </trkpt>
      <trkpt lat="51.39271301217377185821533203125" lon="12.45804271660745143890380859375">
        <ele>106</ele>
        <time>2018-08-18T10:38:22.000Z</time>
      </trkpt>
      <trkpt lat="51.3929451070725917816162109375" lon="12.45833809487521648406982421875">
        <ele>105.8000030517578125</ele>
        <time>2018-08-18T10:38:26.000Z</time>
      </trkpt>
      <trkpt lat="51.3935053534805774688720703125" lon="12.45843951590359210968017578125">
        <ele>105.8000030517578125</ele>
        <time>2018-08-18T10:38:34.000Z</time>
      </trkpt>
      <trkpt lat="51.39377885498106479644775390625" lon="12.458446808159351348876953125">
        <ele>105.8000030517578125</ele>
        <time>2018-08-18T10:38:38.000Z</time>
      </trkpt>
      <trkpt lat="51.39420323073863983154296875" lon="12.45854764245450496673583984375">
        <ele>106.1999969482421875</ele>
        <time>2018-08-18T10:38:45.000Z</time>
      </trkpt>
      <trkpt lat="51.39454445801675319671630859375" lon="12.45877839624881744384765625">
        <ele>107.1999969482421875</ele>
        <time>2018-08-18T10:38:51.000Z</time>
      </trkpt>
      <trkpt lat="51.39459349215030670166015625" lon="12.45882960967719554901123046875">
        <ele>107.1999969482421875</ele>
        <time>2018-08-18T10:38:52.000Z</time>
      </trkpt>
      <trkpt lat="51.394919715821743011474609375" lon="12.45925943367183208465576171875">
        <ele>108.40000152587890625</ele>
        <time>2018-08-18T10:38:59.000Z</time>
      </trkpt>
      <trkpt lat="51.395166814327239990234375" lon="12.4595797061920166015625">
        <ele>108.8000030517578125</ele>
        <time>2018-08-18T10:39:04.000Z</time>
      </trkpt>
      <trkpt lat="51.3955652900040149688720703125" lon="12.460198290646076202392578125">
        <ele>109.40000152587890625</ele>
        <time>2018-08-18T10:39:12.000Z</time>
      </trkpt>
      <trkpt lat="51.39599150978028774261474609375" lon="12.46082852594554424285888671875">
        <ele>109.40000152587890625</ele>
        <time>2018-08-18T10:39:20.000Z</time>
      </trkpt>
      <trkpt lat="51.39631069265305995941162109375" lon="12.46130143292248249053955078125">
        <ele>108.8000030517578125</ele>
        <time>2018-08-18T10:39:26.000Z</time>
      </trkpt>
      <trkpt lat="51.39651688747107982635498046875" lon="12.4613578431308269500732421875">
        <ele>108.1999969482421875</ele>
        <time>2018-08-18T10:39:30.000Z</time>
      </trkpt>
      <trkpt lat="51.3966110162436962127685546875" lon="12.461530007421970367431640625">
        <ele>108</ele>
        <time>2018-08-18T10:39:34.000Z</time>
      </trkpt>
      <trkpt lat="51.39687295071780681610107421875" lon="12.4621340073645114898681640625">
        <ele>108</ele>
        <time>2018-08-18T10:39:42.000Z</time>
      </trkpt>
      <trkpt lat="51.39730730094015598297119140625" lon="12.462649829685688018798828125">
        <ele>108</ele>
        <time>2018-08-18T10:39:50.000Z</time>
      </trkpt>
      <trkpt lat="51.39779915101826190948486328125" lon="12.463163472712039947509765625">
        <ele>108</ele>
        <time>2018-08-18T10:39:58.000Z</time>
      </trkpt>
      <trkpt lat="51.39798581600189208984375" lon="12.463341169059276580810546875">
        <ele>108</ele>
        <time>2018-08-18T10:40:01.000Z</time>
      </trkpt>
      <trkpt lat="51.3984954357147216796875" lon="12.46384567581117153167724609375">
        <ele>108.1999969482421875</ele>
        <time>2018-08-18T10:40:10.000Z</time>
      </trkpt>
      <trkpt lat="51.398988626897335052490234375" lon="12.46432009153068065643310546875">
        <ele>109.40000152587890625</ele>
        <time>2018-08-18T10:40:19.000Z</time>
      </trkpt>
      <trkpt lat="51.3990447856485843658447265625" lon="12.46437725611031055450439453125">
        <ele>109.59999847412109375</ele>
        <time>2018-08-18T10:40:20.000Z</time>
      </trkpt>
      <trkpt lat="51.39922005124390125274658203125" lon="12.46455344371497631072998046875">
        <ele>110.1999969482421875</ele>
        <time>2018-08-18T10:40:23.000Z</time>
      </trkpt>
      <trkpt lat="51.39958533458411693572998046875" lon="12.46491939760744571685791015625">
        <ele>110.59999847412109375</ele>
        <time>2018-08-18T10:40:29.000Z</time>
      </trkpt>
      <trkpt lat="51.40005405060946941375732421875" lon="12.46541962958872318267822265625">
        <ele>110.59999847412109375</ele>
        <time>2018-08-18T10:40:37.000Z</time>
      </trkpt>
      <trkpt lat="51.4005257003009319305419921875" lon="12.4659311771392822265625">
        <ele>110.59999847412109375</ele>
        <time>2018-08-18T10:40:45.000Z</time>
      </trkpt>
      <trkpt lat="51.401015706360340118408203125" lon="12.4664939381182193756103515625">
        <ele>110.1999969482421875</ele>
        <time>2018-08-18T10:40:53.000Z</time>
      </trkpt>
      <trkpt lat="51.4014923013746738433837890625" lon="12.4670924060046672821044921875">
        <ele>109.8000030517578125</ele>
        <time>2018-08-18T10:41:01.000Z</time>
      </trkpt>
      <trkpt lat="51.40166756696999073028564453125" lon="12.4673200584948062896728515625">
        <ele>109.40000152587890625</ele>
        <time>2018-08-18T10:41:04.000Z</time>
      </trkpt>
      <trkpt lat="51.40211834572255611419677734375" lon="12.46794358827173709869384765625">
        <ele>109.1999969482421875</ele>
        <time>2018-08-18T10:41:12.000Z</time>
      </trkpt>
      <trkpt lat="51.402571387588977813720703125" lon="12.4686001427471637725830078125">
        <ele>109</ele>
        <time>2018-08-18T10:41:20.000Z</time>
      </trkpt>
      <trkpt lat="51.403009593486785888671875" lon="12.469238676130771636962890625">
        <ele>109.40000152587890625</ele>
        <time>2018-08-18T10:41:28.000Z</time>
      </trkpt>
      <trkpt lat="51.40343279577791690826416015625" lon="12.46984242461621761322021484375">
        <ele>109.8000030517578125</ele>
        <time>2018-08-18T10:41:36.000Z</time>
      </trkpt>
      <trkpt lat="51.40375600196421146392822265625" lon="12.4702302552759647369384765625">
        <ele>110.40000152587890625</ele>
        <time>2018-08-18T10:41:42.000Z</time>
      </trkpt>
      <trkpt lat="51.4041379652917385101318359375" lon="12.470595203340053558349609375">
        <ele>111.59999847412109375</ele>
        <time>2018-08-18T10:41:49.000Z</time>
      </trkpt>
      <trkpt lat="51.40441515482962131500244140625" lon="12.47081221081316471099853515625">
        <ele>113</ele>
        <time>2018-08-18T10:41:54.000Z</time>
      </trkpt>
      <trkpt lat="51.4047018997371196746826171875" lon="12.47100231237709522247314453125">
        <ele>114</ele>
        <time>2018-08-18T10:41:59.000Z</time>
      </trkpt>
      <trkpt lat="51.4052430354058742523193359375" lon="12.471362315118312835693359375">
        <ele>115</ele>
        <time>2018-08-18T10:42:08.000Z</time>
      </trkpt>
      <trkpt lat="51.405483596026897430419921875" lon="12.47151620686054229736328125">
        <ele>115.1999969482421875</ele>
        <time>2018-08-18T10:42:12.000Z</time>
      </trkpt>
      <trkpt lat="51.40603311359882354736328125" lon="12.4718895368278026580810546875">
        <ele>115.59999847412109375</ele>
        <time>2018-08-18T10:42:21.000Z</time>
      </trkpt>
      <trkpt lat="51.4065368659794330596923828125" lon="12.4722303450107574462890625">
        <ele>115.8000030517578125</ele>
        <time>2018-08-18T10:42:29.000Z</time>
      </trkpt>
      <trkpt lat="51.4070099405944347381591796875" lon="12.47253888286650180816650390625">
        <ele>115.59999847412109375</ele>
        <time>2018-08-18T10:42:37.000Z</time>
      </trkpt>
      <trkpt lat="51.40738938935101032257080078125" lon="12.4732145480811595916748046875">
        <ele>115</ele>
        <time>2018-08-18T10:42:47.000Z</time>
      </trkpt>
      <trkpt lat="51.4076898805797100067138671875" lon="12.47400504536926746368408203125">
        <ele>115.1999969482421875</ele>
        <time>2018-08-18T10:42:57.000Z</time>
      </trkpt>
      <trkpt lat="51.40790990553796291351318359375" lon="12.474483065307140350341796875">
        <ele>116.1999969482421875</ele>
        <time>2018-08-18T10:43:04.000Z</time>
      </trkpt>
      <trkpt lat="51.408062875270843505859375" lon="12.4747839756309986114501953125">
        <ele>117.40000152587890625</ele>
        <time>2018-08-18T10:43:09.000Z</time>
      </trkpt>
      <trkpt lat="51.40822104178369045257568359375" lon="12.474985308945178985595703125">
        <ele>118.1999969482421875</ele>
        <time>2018-08-18T10:43:13.000Z</time>
      </trkpt>
      <trkpt lat="51.40826194547116756439208984375" lon="12.4750357680022716522216796875">
        <ele>118.59999847412109375</ele>
        <time>2018-08-18T10:43:14.000Z</time>
      </trkpt>
      <trkpt lat="51.408480964601039886474609375" lon="12.47529208660125732421875">
        <ele>119.8000030517578125</ele>
        <time>2018-08-18T10:43:19.000Z</time>
      </trkpt>
      <trkpt lat="51.40873049385845661163330078125" lon="12.4755235947668552398681640625">
        <ele>120.59999847412109375</ele>
        <time>2018-08-18T10:43:25.000Z</time>
      </trkpt>
      <trkpt lat="51.40877625904977321624755859375" lon="12.4755299650132656097412109375">
        <ele>120.8000030517578125</ele>
        <time>2018-08-18T10:43:26.000Z</time>
      </trkpt>
      <trkpt lat="51.40900357626378536224365234375" lon="12.475262582302093505859375">
        <ele>121.40000152587890625</ele>
        <time>2018-08-18T10:43:31.000Z</time>
      </trkpt>
      <trkpt lat="51.4093784987926483154296875" lon="12.474544085562229156494140625">
        <ele>121.40000152587890625</ele>
        <time>2018-08-18T10:43:40.000Z</time>
      </trkpt>
      <trkpt lat="51.40954689122736454010009765625" lon="12.47435071505606174468994140625">
        <ele>121.59999847412109375</ele>
        <time>2018-08-18T10:43:43.000Z</time>
      </trkpt>
      <trkpt lat="51.4100760407745838165283203125" lon="12.473917789757251739501953125">
        <ele>121.59999847412109375</ele>
        <time>2018-08-18T10:43:51.000Z</time>
      </trkpt>
      <trkpt lat="51.41021006740629673004150390625" lon="12.47379348613321781158447265625">
        <ele>121.59999847412109375</ele>
        <time>2018-08-18T10:43:53.000Z</time>
      </trkpt>
      <trkpt lat="51.4106134884059429168701171875" lon="12.473194599151611328125">
        <ele>120.59999847412109375</ele>
        <time>2018-08-18T10:44:00.000Z</time>
      </trkpt>
      <trkpt lat="51.4110468327999114990234375" lon="12.4726221151649951934814453125">
        <ele>119.8000030517578125</ele>
        <time>2018-08-18T10:44:07.000Z</time>
      </trkpt>
      <trkpt lat="51.4111147262156009674072265625" lon="12.47255128808319568634033203125">
        <ele>119.8000030517578125</ele>
        <time>2018-08-18T10:44:08.000Z</time>
      </trkpt>
      <trkpt lat="51.41152703203260898590087890625" lon="12.47213370166718959808349609375">
        <ele>118.8000030517578125</ele>
        <time>2018-08-18T10:44:14.000Z</time>
      </trkpt>
      <trkpt lat="51.41160272061824798583984375" lon="12.472103275358676910400390625">
        <ele>118.8000030517578125</ele>
        <time>2018-08-18T10:44:15.000Z</time>
      </trkpt>
      <trkpt lat="51.4119763858616352081298828125" lon="12.47225574217736721038818359375">
        <ele>118.40000152587890625</ele>
        <time>2018-08-18T10:44:20.000Z</time>
      </trkpt>
      <trkpt lat="51.41204553656280040740966796875" lon="12.47232581488788127899169921875">
        <ele>118.1999969482421875</ele>
        <time>2018-08-18T10:44:21.000Z</time>
      </trkpt>
      <trkpt lat="51.41250452958047389984130859375" lon="12.4728097021579742431640625">
        <ele>117.8000030517578125</ele>
        <time>2018-08-18T10:44:28.000Z</time>
      </trkpt>
      <trkpt lat="51.413048766553401947021484375" lon="12.4731310643255710601806640625">
        <ele>117.40000152587890625</ele>
        <time>2018-08-18T10:44:36.000Z</time>
      </trkpt>
      <trkpt lat="51.413615047931671142578125" lon="12.47329794801771640777587890625">
        <ele>117.40000152587890625</ele>
        <time>2018-08-18T10:44:44.000Z</time>
      </trkpt>
      <trkpt lat="51.41415962018072605133056640625" lon="12.4734422005712985992431640625">
        <ele>117.40000152587890625</ele>
        <time>2018-08-18T10:44:52.000Z</time>
      </trkpt>
      <trkpt lat="51.4147122390568256378173828125" lon="12.473486624658107757568359375">
        <ele>117.8000030517578125</ele>
        <time>2018-08-18T10:45:00.000Z</time>
      </trkpt>
      <trkpt lat="51.4152579009532928466796875" lon="12.4733359180390834808349609375">
        <ele>118.1999969482421875</ele>
        <time>2018-08-18T10:45:08.000Z</time>
      </trkpt>
      <trkpt lat="51.41532470472157001495361328125" lon="12.47330725193023681640625">
        <ele>118.1999969482421875</ele>
        <time>2018-08-18T10:45:09.000Z</time>
      </trkpt>
      <trkpt lat="51.41585938632488250732421875" lon="12.47312360443174839019775390625">
        <ele>118.59999847412109375</ele>
        <time>2018-08-18T10:45:17.000Z</time>
      </trkpt>
      <trkpt lat="51.416199691593647003173828125" lon="12.47308873571455478668212890625">
        <ele>119</ele>
        <time>2018-08-18T10:45:22.000Z</time>
      </trkpt>
      <trkpt lat="51.41676119528710842132568359375" lon="12.4731012247502803802490234375">
        <ele>119.40000152587890625</ele>
        <time>2018-08-18T10:45:30.000Z</time>
      </trkpt>
      <trkpt lat="51.4173352718353271484375" lon="12.47320708818733692169189453125">
        <ele>119.59999847412109375</ele>
        <time>2018-08-18T10:45:38.000Z</time>
      </trkpt>
      <trkpt lat="51.41791689209640026092529296875" lon="12.47332225553691387176513671875">
        <ele>119.59999847412109375</ele>
        <time>2018-08-18T10:45:46.000Z</time>
      </trkpt>
      <trkpt lat="51.4182822592556476593017578125" lon="12.47343490831553936004638671875">
        <ele>119.8000030517578125</ele>
        <time>2018-08-18T10:45:51.000Z</time>
      </trkpt>
      <trkpt lat="51.41879129223525524139404296875" lon="12.47389373369514942169189453125">
        <ele>119.59999847412109375</ele>
        <time>2018-08-18T10:45:59.000Z</time>
      </trkpt>
      <trkpt lat="51.41925145871937274932861328125" lon="12.47438441030681133270263671875">
        <ele>119.8000030517578125</ele>
        <time>2018-08-18T10:46:07.000Z</time>
      </trkpt>
      <trkpt lat="51.419591009616851806640625" lon="12.47476100921630859375">
        <ele>120.1999969482421875</ele>
        <time>2018-08-18T10:46:13.000Z</time>
      </trkpt>
      <trkpt lat="51.41987264156341552734375" lon="12.4750810302793979644775390625">
        <ele>121.1999969482421875</ele>
        <time>2018-08-18T10:46:18.000Z</time>
      </trkpt>
      <trkpt lat="51.420300118625164031982421875" lon="12.475610263645648956298828125">
        <ele>121.8000030517578125</ele>
        <time>2018-08-18T10:46:26.000Z</time>
      </trkpt>
      <trkpt lat="51.4204575307667255401611328125" lon="12.47579298913478851318359375">
        <ele>122</ele>
        <time>2018-08-18T10:46:29.000Z</time>
      </trkpt>
      <trkpt lat="51.420907638967037200927734375" lon="12.47642389498651027679443359375">
        <ele>122.1999969482421875</ele>
        <time>2018-08-18T10:46:37.000Z</time>
      </trkpt>
      <trkpt lat="51.42135263420641422271728515625" lon="12.47699285857379436492919921875">
        <ele>122.40000152587890625</ele>
        <time>2018-08-18T10:46:44.000Z</time>
      </trkpt>
      <trkpt lat="51.42179913818836212158203125" lon="12.47756592929363250732421875">
        <ele>122.40000152587890625</ele>
        <time>2018-08-18T10:46:51.000Z</time>
      </trkpt>
      <trkpt lat="51.422252096235752105712890625" lon="12.47811754234135150909423828125">
        <ele>122</ele>
        <time>2018-08-18T10:46:58.000Z</time>
      </trkpt>
      <trkpt lat="51.42269005067646503448486328125" lon="12.47869404964148998260498046875">
        <ele>121.8000030517578125</ele>
        <time>2018-08-18T10:47:05.000Z</time>
      </trkpt>
      <trkpt lat="51.4230723492801189422607421875" lon="12.479163520038127899169921875">
        <ele>121.59999847412109375</ele>
        <time>2018-08-18T10:47:11.000Z</time>
      </trkpt>
      <trkpt lat="51.4233796298503875732421875" lon="12.47927575372159481048583984375">
        <ele>121.40000152587890625</ele>
        <time>2018-08-18T10:47:15.000Z</time>
      </trkpt>
      <trkpt lat="51.42354282550513744354248046875" lon="12.4792947806417942047119140625">
        <ele>121.1999969482421875</ele>
        <time>2018-08-18T10:47:17.000Z</time>
      </trkpt>
      <trkpt lat="51.42412017099559307098388671875" lon="12.479372061789035797119140625">
        <ele>120.8000030517578125</ele>
        <time>2018-08-18T10:47:24.000Z</time>
      </trkpt>
      <trkpt lat="51.4247138611972332000732421875" lon="12.47944037429988384246826171875">
        <ele>120.59999847412109375</ele>
        <time>2018-08-18T10:47:32.000Z</time>
      </trkpt>
      <trkpt lat="51.4247896336019039154052734375" lon="12.479433082044124603271484375">
        <ele>120.59999847412109375</ele>
        <time>2018-08-18T10:47:33.000Z</time>
      </trkpt>
      <trkpt lat="51.4251537434756755828857421875" lon="12.47931263409554958343505859375">
        <ele>120.59999847412109375</ele>
        <time>2018-08-18T10:47:38.000Z</time>
      </trkpt>
      <trkpt lat="51.42529414035379886627197265625" lon="12.47925127856433391571044921875">
        <ele>120.59999847412109375</ele>
        <time>2018-08-18T10:47:40.000Z</time>
      </trkpt>
      <trkpt lat="51.4256595075130462646484375" lon="12.479302994906902313232421875">
        <ele>120.59999847412109375</ele>
        <time>2018-08-18T10:47:45.000Z</time>
      </trkpt>
      <trkpt lat="51.42594960518181324005126953125" lon="12.4793661944568157196044921875">
        <ele>120.59999847412109375</ele>
        <time>2018-08-18T10:47:49.000Z</time>
      </trkpt>
      <trkpt lat="51.42608203925192356109619140625" lon="12.479740865528583526611328125">
        <ele>120.59999847412109375</ele>
        <time>2018-08-18T10:47:53.000Z</time>
      </trkpt>
      <trkpt lat="51.4261052571237087249755859375" lon="12.479846142232418060302734375">
        <ele>120.59999847412109375</ele>
        <time>2018-08-18T10:47:54.000Z</time>
      </trkpt>
      <trkpt lat="51.42634204588830471038818359375" lon="12.4800615571439266204833984375">
        <ele>120.59999847412109375</ele>
        <time>2018-08-18T10:47:58.000Z</time>
      </trkpt>
      <trkpt lat="51.42641815356910228729248046875" lon="12.480088211596012115478515625">
        <ele>120.8000030517578125</ele>
        <time>2018-08-18T10:47:59.000Z</time>
      </trkpt>
      <trkpt lat="51.426970101892948150634765625" lon="12.480186782777309417724609375">
        <ele>121</ele>
        <time>2018-08-18T10:48:06.000Z</time>
      </trkpt>
      <trkpt lat="51.42727243714034557342529296875" lon="12.480269260704517364501953125">
        <ele>121.1999969482421875</ele>
        <time>2018-08-18T10:48:10.000Z</time>
      </trkpt>
      <trkpt lat="51.4276227168738842010498046875" lon="12.48100644908845424652099609375">
        <ele>122</ele>
        <time>2018-08-18T10:48:18.000Z</time>
      </trkpt>
      <trkpt lat="51.42766387201845645904541015625" lon="12.48135966248810291290283203125">
        <ele>122.1999969482421875</ele>
        <time>2018-08-18T10:48:21.000Z</time>
      </trkpt>
      <trkpt lat="51.427704356610774993896484375" lon="12.4819484911859035491943359375">
        <ele>122.40000152587890625</ele>
        <time>2018-08-18T10:48:26.000Z</time>
      </trkpt>
      <trkpt lat="51.42794181592762470245361328125" lon="12.482486777007579803466796875">
        <ele>123</ele>
        <time>2018-08-18T10:48:32.000Z</time>
      </trkpt>
      <trkpt lat="51.42816427163779735565185546875" lon="12.48276664875447750091552734375">
        <ele>123.40000152587890625</ele>
        <time>2018-08-18T10:48:36.000Z</time>
      </trkpt>
      <trkpt lat="51.42861622385680675506591796875" lon="12.4833025038242340087890625">
        <ele>124.1999969482421875</ele>
        <time>2018-08-18T10:48:44.000Z</time>
      </trkpt>
      <trkpt lat="51.4287955127656459808349609375" lon="12.4835088662803173065185546875">
        <ele>124.40000152587890625</ele>
        <time>2018-08-18T10:48:47.000Z</time>
      </trkpt>
      <trkpt lat="51.42928375862538814544677734375" lon="12.484089396893978118896484375">
        <ele>124.59999847412109375</ele>
        <time>2018-08-18T10:48:55.000Z</time>
      </trkpt>
      <trkpt lat="51.429753564298152923583984375" lon="12.48465257696807384490966796875">
        <ele>124.40000152587890625</ele>
        <time>2018-08-18T10:49:03.000Z</time>
      </trkpt>
      <trkpt lat="51.429980210959911346435546875" lon="12.4849297665059566497802734375">
        <ele>124.40000152587890625</ele>
        <time>2018-08-18T10:49:07.000Z</time>
      </trkpt>
      <trkpt lat="51.43044264055788516998291015625" lon="12.48547081835567951202392578125">
        <ele>124.40000152587890625</ele>
        <time>2018-08-18T10:49:15.000Z</time>
      </trkpt>
      <trkpt lat="51.43090515397489070892333984375" lon="12.4860264547169208526611328125">
        <ele>124.8000030517578125</ele>
        <time>2018-08-18T10:49:23.000Z</time>
      </trkpt>
      <trkpt lat="51.43137454055249691009521484375" lon="12.48659265227615833282470703125">
        <ele>125.1999969482421875</ele>
        <time>2018-08-18T10:49:31.000Z</time>
      </trkpt>
      <trkpt lat="51.43166673369705677032470703125" lon="12.48697252012789249420166015625">
        <ele>125.59999847412109375</ele>
        <time>2018-08-18T10:49:36.000Z</time>
      </trkpt>
      <trkpt lat="51.4321301691234111785888671875" lon="12.4875908531248569488525390625">
        <ele>125.8000030517578125</ele>
        <time>2018-08-18T10:49:44.000Z</time>
      </trkpt>
      <trkpt lat="51.43259762786328792572021484375" lon="12.488177753984928131103515625">
        <ele>125.8000030517578125</ele>
        <time>2018-08-18T10:49:52.000Z</time>
      </trkpt>
      <trkpt lat="51.4330650866031646728515625" lon="12.48875610530376434326171875">
        <ele>125.8000030517578125</ele>
        <time>2018-08-18T10:50:00.000Z</time>
      </trkpt>
      <trkpt lat="51.4335358142852783203125" lon="12.489347867667675018310546875">
        <ele>126</ele>
        <time>2018-08-18T10:50:08.000Z</time>
      </trkpt>
      <trkpt lat="51.43399522639811038970947265625" lon="12.4899223633110523223876953125">
        <ele>125.59999847412109375</ele>
        <time>2018-08-18T10:50:16.000Z</time>
      </trkpt>
      <trkpt lat="51.4344522915780544281005859375" lon="12.4904889799654483795166015625">
        <ele>125.1999969482421875</ele>
        <time>2018-08-18T10:50:24.000Z</time>
      </trkpt>
      <trkpt lat="51.4349119551479816436767578125" lon="12.4910566024482250213623046875">
        <ele>125</ele>
        <time>2018-08-18T10:50:32.000Z</time>
      </trkpt>
      <trkpt lat="51.43521529622375965118408203125" lon="12.4913596920669078826904296875">
        <ele>125</ele>
        <time>2018-08-18T10:50:37.000Z</time>
      </trkpt>
      <trkpt lat="51.435778476297855377197265625" lon="12.49156530015170574188232421875">
        <ele>125.1999969482421875</ele>
        <time>2018-08-18T10:50:45.000Z</time>
      </trkpt>
      <trkpt lat="51.436343751847743988037109375" lon="12.49173067510128021240234375">
        <ele>125.1999969482421875</ele>
        <time>2018-08-18T10:50:53.000Z</time>
      </trkpt>
      <trkpt lat="51.43689804710447788238525390625" lon="12.491888590157032012939453125">
        <ele>125.1999969482421875</ele>
        <time>2018-08-18T10:51:01.000Z</time>
      </trkpt>
      <trkpt lat="51.43748469650745391845703125" lon="12.49199084937572479248046875">
        <ele>125.40000152587890625</ele>
        <time>2018-08-18T10:51:09.000Z</time>
      </trkpt>
      <trkpt lat="51.43803480081260204315185546875" lon="12.4920620955526828765869140625">
        <ele>125.1999969482421875</ele>
        <time>2018-08-18T10:51:16.000Z</time>
      </trkpt>
      <trkpt lat="51.4383270777761936187744140625" lon="12.49222193844616413116455078125">
        <ele>124.8000030517578125</ele>
        <time>2018-08-18T10:51:20.000Z</time>
      </trkpt>
      <trkpt lat="51.4383994974195957183837890625" lon="12.49223467893898487091064453125">
        <ele>124.40000152587890625</ele>
        <time>2018-08-18T10:51:21.000Z</time>
      </trkpt>
      <trkpt lat="51.43900819122791290283203125" lon="12.49209956265985965728759765625">
        <ele>124.1999969482421875</ele>
        <time>2018-08-18T10:51:29.000Z</time>
      </trkpt>
      <trkpt lat="51.43950599245727062225341796875" lon="12.49229603447020053863525390625">
        <ele>124.1999969482421875</ele>
        <time>2018-08-18T10:51:36.000Z</time>
      </trkpt>
      <trkpt lat="51.4397208206355571746826171875" lon="12.49234146438539028167724609375">
        <ele>124.1999969482421875</ele>
        <time>2018-08-18T10:51:39.000Z</time>
      </trkpt>
      <trkpt lat="51.4401442743837833404541015625" lon="12.49255838803946971893310546875">
        <ele>124.40000152587890625</ele>
        <time>2018-08-18T10:51:45.000Z</time>
      </trkpt>
      <trkpt lat="51.44071382470428943634033203125" lon="12.4927993677556514739990234375">
        <ele>125.40000152587890625</ele>
        <time>2018-08-18T10:51:53.000Z</time>
      </trkpt>
      <trkpt lat="51.4408577419817447662353515625" lon="12.49286365695297718048095703125">
        <ele>125.59999847412109375</ele>
        <time>2018-08-18T10:51:55.000Z</time>
      </trkpt>
      <trkpt lat="51.441439278423786163330078125" lon="12.49311092309653759002685546875">
        <ele>126</ele>
        <time>2018-08-18T10:52:03.000Z</time>
      </trkpt>
      <trkpt lat="51.44199172966182231903076171875" lon="12.4933522380888462066650390625">
        <ele>126.40000152587890625</ele>
        <time>2018-08-18T10:52:11.000Z</time>
      </trkpt>
      <trkpt lat="51.44252381287515163421630859375" lon="12.49359103851020336151123046875">
        <ele>126.59999847412109375</ele>
        <time>2018-08-18T10:52:19.000Z</time>
      </trkpt>
      <trkpt lat="51.44299722276628017425537109375" lon="12.49380544759333133697509765625">
        <ele>126.8000030517578125</ele>
        <time>2018-08-18T10:52:26.000Z</time>
      </trkpt>
      <trkpt lat="51.44352729432284832000732421875" lon="12.49405791051685810089111328125">
        <ele>127</ele>
        <time>2018-08-18T10:52:34.000Z</time>
      </trkpt>
      <trkpt lat="51.4437867142260074615478515625" lon="12.49416989274322986602783203125">
        <ele>127.40000152587890625</ele>
        <time>2018-08-18T10:52:38.000Z</time>
      </trkpt>
      <trkpt lat="51.44404814578592777252197265625" lon="12.494263350963592529296875">
        <ele>127.59999847412109375</ele>
        <time>2018-08-18T10:52:42.000Z</time>
      </trkpt>
      <trkpt lat="51.44424243830144405364990234375" lon="12.49435446225106716156005859375">
        <ele>127.8000030517578125</ele>
        <time>2018-08-18T10:52:45.000Z</time>
      </trkpt>
      <trkpt lat="51.444766223430633544921875" lon="12.4945840425789356231689453125">
        <ele>128.1999969482421875</ele>
        <time>2018-08-18T10:52:53.000Z</time>
      </trkpt>
      <trkpt lat="51.445152461528778076171875" lon="12.4947563745081424713134765625">
        <ele>128.8000030517578125</ele>
        <time>2018-08-18T10:52:59.000Z</time>
      </trkpt>
      <trkpt lat="51.445706002414226531982421875" lon="12.49499249272048473358154296875">
        <ele>129.600006103515625</ele>
        <time>2018-08-18T10:53:08.000Z</time>
      </trkpt>
      <trkpt lat="51.4458255283534526824951171875" lon="12.49504378996789455413818359375">
        <ele>130</ele>
        <time>2018-08-18T10:53:10.000Z</time>
      </trkpt>
      <trkpt lat="51.4462369121611118316650390625" lon="12.49524093233048915863037109375">
        <ele>131</ele>
        <time>2018-08-18T10:53:17.000Z</time>
      </trkpt>
      <trkpt lat="51.44664351828396320343017578125" lon="12.4954346381127834320068359375">
        <ele>132.1999969482421875</ele>
        <time>2018-08-18T10:53:24.000Z</time>
      </trkpt>
      <trkpt lat="51.4470227994024753570556640625" lon="12.4956433475017547607421875">
        <ele>133.399993896484375</ele>
        <time>2018-08-18T10:53:30.000Z</time>
      </trkpt>
      <trkpt lat="51.4475847221910953521728515625" lon="12.49593143351376056671142578125">
        <ele>134.1999969482421875</ele>
        <time>2018-08-18T10:53:39.000Z</time>
      </trkpt>
      <trkpt lat="51.44770525395870208740234375" lon="12.49598809517920017242431640625">
        <ele>134.399993896484375</ele>
        <time>2018-08-18T10:53:41.000Z</time>
      </trkpt>
      <trkpt lat="51.44823775626718997955322265625" lon="12.496248185634613037109375">
        <ele>135.1999969482421875</ele>
        <time>2018-08-18T10:53:50.000Z</time>
      </trkpt>
      <trkpt lat="51.4483528397977352142333984375" lon="12.4963093735277652740478515625">
        <ele>135.399993896484375</ele>
        <time>2018-08-18T10:53:52.000Z</time>
      </trkpt>
      <trkpt lat="51.44881543703377246856689453125" lon="12.496545575559139251708984375">
        <ele>136.600006103515625</ele>
        <time>2018-08-18T10:54:00.000Z</time>
      </trkpt>
      <trkpt lat="51.4492470212280750274658203125" lon="12.49677716754376888275146484375">
        <ele>137.600006103515625</ele>
        <time>2018-08-18T10:54:07.000Z</time>
      </trkpt>
      <trkpt lat="51.44979025237262248992919921875" lon="12.49704874120652675628662109375">
        <ele>138.1999969482421875</ele>
        <time>2018-08-18T10:54:15.000Z</time>
      </trkpt>
      <trkpt lat="51.450374387204647064208984375" lon="12.497364319860935211181640625">
        <ele>138.1999969482421875</ele>
        <time>2018-08-18T10:54:23.000Z</time>
      </trkpt>
      <trkpt lat="51.45094645209610462188720703125" lon="12.49765567481517791748046875">
        <ele>138</ele>
        <time>2018-08-18T10:54:30.000Z</time>
      </trkpt>
      <trkpt lat="51.451516337692737579345703125" lon="12.4979532323777675628662109375">
        <ele>136.8000030517578125</ele>
        <time>2018-08-18T10:54:37.000Z</time>
      </trkpt>
      <trkpt lat="51.45167358219623565673828125" lon="12.498042248189449310302734375">
        <ele>136.600006103515625</ele>
        <time>2018-08-18T10:54:39.000Z</time>
      </trkpt>
      <trkpt lat="51.45223089493811130523681640625" lon="12.49831658788025379180908203125">
        <ele>135.600006103515625</ele>
        <time>2018-08-18T10:54:46.000Z</time>
      </trkpt>
      <trkpt lat="51.45254018716514110565185546875" lon="12.49847684986889362335205078125">
        <ele>135.600006103515625</ele>
        <time>2018-08-18T10:54:50.000Z</time>
      </trkpt>
      <trkpt lat="51.4530953206121921539306640625" lon="12.49873652122914791107177734375">
        <ele>135.399993896484375</ele>
        <time>2018-08-18T10:54:57.000Z</time>
      </trkpt>
      <trkpt lat="51.45367761142551898956298828125" lon="12.49889041297137737274169921875">
        <ele>135</ele>
        <time>2018-08-18T10:55:04.000Z</time>
      </trkpt>
      <trkpt lat="51.45409167744219303131103515625" lon="12.49897004105150699615478515625">
        <ele>134.399993896484375</ele>
        <time>2018-08-18T10:55:09.000Z</time>
      </trkpt>
      <trkpt lat="51.45440407097339630126953125" lon="12.49901832081377506256103515625">
        <ele>133.8000030517578125</ele>
        <time>2018-08-18T10:55:13.000Z</time>
      </trkpt>
      <trkpt lat="51.454804725944995880126953125" lon="12.49912862665951251983642578125">
        <ele>133.399993896484375</ele>
        <time>2018-08-18T10:55:18.000Z</time>
      </trkpt>
      <trkpt lat="51.45536019466817378997802734375" lon="12.49915008433163166046142578125">
        <ele>133</ele>
        <time>2018-08-18T10:55:24.000Z</time>
      </trkpt>
      <trkpt lat="51.45586453378200531005859375" lon="12.4991940893232822418212890625">
        <ele>132.399993896484375</ele>
        <time>2018-08-18T10:55:29.000Z</time>
      </trkpt>
      <trkpt lat="51.45627231337130069732666015625" lon="12.49923457391560077667236328125">
        <ele>131.1999969482421875</ele>
        <time>2018-08-18T10:55:33.000Z</time>
      </trkpt>
      <trkpt lat="51.4565754868090152740478515625" lon="12.49925552867352962493896484375">
        <ele>129.8000030517578125</ele>
        <time>2018-08-18T10:55:36.000Z</time>
      </trkpt>
      <trkpt lat="51.4569608867168426513671875" lon="12.49939634464681148529052734375">
        <ele>128.8000030517578125</ele>
        <time>2018-08-18T10:55:40.000Z</time>
      </trkpt>
      <trkpt lat="51.45726741291582584381103515625" lon="12.49978023581206798553466796875">
        <ele>127.59999847412109375</ele>
        <time>2018-08-18T10:55:44.000Z</time>
      </trkpt>
      <trkpt lat="51.4575933851301670074462890625" lon="12.500357329845428466796875">
        <ele>126.8000030517578125</ele>
        <time>2018-08-18T10:55:49.000Z</time>
      </trkpt>
      <trkpt lat="51.45766873843967914581298828125" lon="12.50044559128582477569580078125">
        <ele>126.59999847412109375</ele>
        <time>2018-08-18T10:55:50.000Z</time>
      </trkpt>
      <trkpt lat="51.457923464477062225341796875" lon="12.5006294064223766326904296875">
        <ele>126.40000152587890625</ele>
        <time>2018-08-18T10:55:53.000Z</time>
      </trkpt>
      <trkpt lat="51.45846627652645111083984375" lon="12.50096744857728481292724609375">
        <ele>126</ele>
        <time>2018-08-18T10:55:59.000Z</time>
      </trkpt>
      <trkpt lat="51.4589951746165752410888671875" lon="12.50131378881633281707763671875">
        <ele>125.40000152587890625</ele>
        <time>2018-08-18T10:56:05.000Z</time>
      </trkpt>
      <trkpt lat="51.45953019149601459503173828125" lon="12.501680664718151092529296875">
        <ele>124.1999969482421875</ele>
        <time>2018-08-18T10:56:11.000Z</time>
      </trkpt>
      <trkpt lat="51.4600610174238681793212890625" lon="12.50206329859793186187744140625">
        <ele>123.1999969482421875</ele>
        <time>2018-08-18T10:56:17.000Z</time>
      </trkpt>
      <trkpt lat="51.46050618030130863189697265625" lon="12.50234954059123992919921875">
        <ele>122</ele>
        <time>2018-08-18T10:56:22.000Z</time>
      </trkpt>
      <trkpt lat="51.46096718497574329376220703125" lon="12.502630837261676788330078125">
        <ele>120.8000030517578125</ele>
        <time>2018-08-18T10:56:27.000Z</time>
      </trkpt>
      <trkpt lat="51.46143103949725627899169921875" lon="12.5028864853084087371826171875">
        <ele>119.8000030517578125</ele>
        <time>2018-08-18T10:56:32.000Z</time>
      </trkpt>
      <trkpt lat="51.4618845842778682708740234375" lon="12.503075413405895233154296875">
        <ele>118.59999847412109375</ele>
        <time>2018-08-18T10:56:37.000Z</time>
      </trkpt>
      <trkpt lat="51.46238707937300205230712890625" lon="12.50314691103994846343994140625">
        <ele>117.59999847412109375</ele>
        <time>2018-08-18T10:56:44.000Z</time>
      </trkpt>
      <trkpt lat="51.4629866369068622589111328125" lon="12.503169290721416473388671875">
        <ele>117</ele>
        <time>2018-08-18T10:56:53.000Z</time>
      </trkpt>
      <trkpt lat="51.46328008733689785003662109375" lon="12.5032214261591434478759765625">
        <ele>116.59999847412109375</ele>
        <time>2018-08-18T10:56:57.000Z</time>
      </trkpt>
      <trkpt lat="51.46368392743170261383056640625" lon="12.50322402454912662506103515625">
        <ele>116.1999969482421875</ele>
        <time>2018-08-18T10:57:03.000Z</time>
      </trkpt>
      <trkpt lat="51.4642482809722423553466796875" lon="12.50298245809972286224365234375">
        <ele>116</ele>
        <time>2018-08-18T10:57:13.000Z</time>
      </trkpt>
      <trkpt lat="51.46478480659425258636474609375" lon="12.50284516252577304840087890625">
        <ele>115.8000030517578125</ele>
        <time>2018-08-18T10:57:20.000Z</time>
      </trkpt>
      <trkpt lat="51.46540909074246883392333984375" lon="12.50278405845165252685546875">
        <ele>115.40000152587890625</ele>
        <time>2018-08-18T10:57:27.000Z</time>
      </trkpt>
      <trkpt lat="51.465856768190860748291015625" lon="12.5027731619775295257568359375">
        <ele>114.1999969482421875</ele>
        <time>2018-08-18T10:57:32.000Z</time>
      </trkpt>
      <trkpt lat="51.4664513804018497467041015625" lon="12.50292931683361530303955078125">
        <ele>113.40000152587890625</ele>
        <time>2018-08-18T10:57:39.000Z</time>
      </trkpt>
      <trkpt lat="51.466617174446582794189453125" lon="12.50299519859254360198974609375">
        <ele>113.1999969482421875</ele>
        <time>2018-08-18T10:57:41.000Z</time>
      </trkpt>
      <trkpt lat="51.467189826071262359619140625" lon="12.5032418780028820037841796875">
        <ele>112.8000030517578125</ele>
        <time>2018-08-18T10:57:48.000Z</time>
      </trkpt>
      <trkpt lat="51.46776616573333740234375" lon="12.503490485250949859619140625">
        <ele>112.40000152587890625</ele>
        <time>2018-08-18T10:57:55.000Z</time>
      </trkpt>
      <trkpt lat="51.46836538799107074737548828125" lon="12.5037384219467639923095703125">
        <ele>112.1999969482421875</ele>
        <time>2018-08-18T10:58:02.000Z</time>
      </trkpt>
      <trkpt lat="51.468956731259822845458984375" lon="12.50398811884224414825439453125">
        <ele>112</ele>
        <time>2018-08-18T10:58:09.000Z</time>
      </trkpt>
      <trkpt lat="51.4695225097239017486572265625" lon="12.50422901473939418792724609375">
        <ele>111.59999847412109375</ele>
        <time>2018-08-18T10:58:16.000Z</time>
      </trkpt>
      <trkpt lat="51.46993297152221202850341796875" lon="12.5043873488903045654296875">
        <ele>111.1999969482421875</ele>
        <time>2018-08-18T10:58:21.000Z</time>
      </trkpt>
      <trkpt lat="51.47027461789548397064208984375" lon="12.504522465169429779052734375">
        <ele>110.1999969482421875</ele>
        <time>2018-08-18T10:58:25.000Z</time>
      </trkpt>
      <trkpt lat="51.4708669669926166534423828125" lon="12.50477400608360767364501953125">
        <ele>109.59999847412109375</ele>
        <time>2018-08-18T10:58:32.000Z</time>
      </trkpt>
      <trkpt lat="51.47103854455053806304931640625" lon="12.50484357587993144989013671875">
        <ele>109.1999969482421875</ele>
        <time>2018-08-18T10:58:34.000Z</time>
      </trkpt>
      <trkpt lat="51.471300311386585235595703125" lon="12.504909373819828033447265625">
        <ele>108.8000030517578125</ele>
        <time>2018-08-18T10:58:37.000Z</time>
      </trkpt>
      <trkpt lat="51.47167858667671680450439453125" lon="12.50423622317612171173095703125">
        <ele>108.40000152587890625</ele>
        <time>2018-08-18T10:58:44.000Z</time>
      </trkpt>
      <trkpt lat="51.4717639982700347900390625" lon="12.503678910434246063232421875">
        <ele>108.1999969482421875</ele>
        <time>2018-08-18T10:58:48.000Z</time>
      </trkpt>
      <trkpt lat="51.47192157804965972900390625" lon="12.5027377903461456298828125">
        <ele>107.8000030517578125</ele>
        <time>2018-08-18T10:58:55.000Z</time>
      </trkpt>
      <trkpt lat="51.471951417624950408935546875" lon="12.50261113978922367095947265625">
        <ele>107.8000030517578125</ele>
        <time>2018-08-18T10:58:56.000Z</time>
      </trkpt>
      <trkpt lat="51.47245525382459163665771484375" lon="12.50227980315685272216796875">
        <ele>108.1999969482421875</ele>
        <time>2018-08-18T10:59:03.000Z</time>
      </trkpt>
      <trkpt lat="51.4725403301417827606201171875" lon="12.50229530967772006988525390625">
        <ele>108.1999969482421875</ele>
        <time>2018-08-18T10:59:04.000Z</time>
      </trkpt>
      <trkpt lat="51.473130919039249420166015625" lon="12.5023842416703701019287109375">
        <ele>108.1999969482421875</ele>
        <time>2018-08-18T10:59:11.000Z</time>
      </trkpt>
      <trkpt lat="51.4737382717430591583251953125" lon="12.502469904720783233642578125">
        <ele>108</ele>
        <time>2018-08-18T10:59:18.000Z</time>
      </trkpt>
      <trkpt lat="51.47433732636272907257080078125" lon="12.5025528855621814727783203125">
        <ele>108</ele>
        <time>2018-08-18T10:59:25.000Z</time>
      </trkpt>
      <trkpt lat="51.4749362133443355560302734375" lon="12.50263226218521595001220703125">
        <ele>107.8000030517578125</ele>
        <time>2018-08-18T10:59:32.000Z</time>
      </trkpt>
      <trkpt lat="51.47519923746585845947265625" lon="12.50266428105533123016357421875">
        <ele>107.1999969482421875</ele>
        <time>2018-08-18T10:59:35.000Z</time>
      </trkpt>
      <trkpt lat="51.47582419216632843017578125" lon="12.5027446635067462921142578125">
        <ele>106.59999847412109375</ele>
        <time>2018-08-18T10:59:42.000Z</time>
      </trkpt>
      <trkpt lat="51.47618385963141918182373046875" lon="12.50277710147202014923095703125">
        <ele>106.1999969482421875</ele>
        <time>2018-08-18T10:59:46.000Z</time>
      </trkpt>
      <trkpt lat="51.47673170082271099090576171875" lon="12.5027030892670154571533203125">
        <ele>105.8000030517578125</ele>
        <time>2018-08-18T10:59:52.000Z</time>
      </trkpt>
      <trkpt lat="51.4772730879485607147216796875" lon="12.5025740079581737518310546875">
        <ele>105</ele>
        <time>2018-08-18T10:59:58.000Z</time>
      </trkpt>
      <trkpt lat="51.47781028412282466888427734375" lon="12.502451799809932708740234375">
        <ele>104.59999847412109375</ele>
        <time>2018-08-18T11:00:04.000Z</time>
      </trkpt>
      <trkpt lat="51.478271372616291046142578125" lon="12.50233344733715057373046875">
        <ele>104</ele>
        <time>2018-08-18T11:00:09.000Z</time>
      </trkpt>
      <trkpt lat="51.47880471311509609222412109375" lon="12.50205357559025287628173828125">
        <ele>103.40000152587890625</ele>
        <time>2018-08-18T11:00:15.000Z</time>
      </trkpt>
      <trkpt lat="51.47896614857017993927001953125" lon="12.501912005245685577392578125">
        <ele>103</ele>
        <time>2018-08-18T11:00:17.000Z</time>
      </trkpt>
      <trkpt lat="51.47938708774745464324951171875" lon="12.50135318376123905181884765625">
        <ele>102.1999969482421875</ele>
        <time>2018-08-18T11:00:23.000Z</time>
      </trkpt>
      <trkpt lat="51.47966218180954456329345703125" lon="12.500761337578296661376953125">
        <ele>101.8000030517578125</ele>
        <time>2018-08-18T11:00:28.000Z</time>
      </trkpt>
      <trkpt lat="51.4798553846776485443115234375" lon="12.49993295408785343170166015625">
        <ele>101.40000152587890625</ele>
        <time>2018-08-18T11:00:34.000Z</time>
      </trkpt>
      <trkpt lat="51.47988731972873210906982421875" lon="12.499795742332935333251953125">
        <ele>101.40000152587890625</ele>
        <time>2018-08-18T11:00:35.000Z</time>
      </trkpt>
      <trkpt lat="51.48039710707962512969970703125" lon="12.49936818145215511322021484375">
        <ele>101.1999969482421875</ele>
        <time>2018-08-18T11:00:42.000Z</time>
      </trkpt>
      <trkpt lat="51.4804816804826259613037109375" lon="12.49937958084046840667724609375">
        <ele>101.1999969482421875</ele>
        <time>2018-08-18T11:00:43.000Z</time>
      </trkpt>
      <trkpt lat="51.48056491278111934661865234375" lon="12.499400116503238677978515625">
        <ele>101.1999969482421875</ele>
        <time>2018-08-18T11:00:44.000Z</time>
      </trkpt>
      <trkpt lat="51.48115080781280994415283203125" lon="12.49952827580273151397705078125">
        <ele>100.8000030517578125</ele>
        <time>2018-08-18T11:00:51.000Z</time>
      </trkpt>
      <trkpt lat="51.481236554682254791259765625" lon="12.4995457939803600311279296875">
        <ele>100.8000030517578125</ele>
        <time>2018-08-18T11:00:52.000Z</time>
      </trkpt>
      <trkpt lat="51.48183208890259265899658203125" lon="12.4996601231396198272705078125">
        <ele>100.59999847412109375</ele>
        <time>2018-08-18T11:00:59.000Z</time>
      </trkpt>
      <trkpt lat="51.4824256114661693572998046875" lon="12.4998663179576396942138671875">
        <ele>100.1999969482421875</ele>
        <time>2018-08-18T11:01:06.000Z</time>
      </trkpt>
      <trkpt lat="51.48276499472558498382568359375" lon="12.49996849335730075836181640625">
        <ele>99.8000030517578125</ele>
        <time>2018-08-18T11:01:10.000Z</time>
      </trkpt>
      <trkpt lat="51.483096666634082794189453125" lon="12.50009153969585895538330078125">
        <ele>99.40000152587890625</ele>
        <time>2018-08-18T11:01:14.000Z</time>
      </trkpt>
      <trkpt lat="51.4834683202207088470458984375" lon="12.4998249113559722900390625">
        <ele>99.1999969482421875</ele>
        <time>2018-08-18T11:01:20.000Z</time>
      </trkpt>
      <trkpt lat="51.483860425651073455810546875" lon="12.4991779960691928863525390625">
        <ele>99</ele>
        <time>2018-08-18T11:01:28.000Z</time>
      </trkpt>
      <trkpt lat="51.484222523868083953857421875" lon="12.4984930269420146942138671875">
        <ele>99.40000152587890625</ele>
        <time>2018-08-18T11:01:36.000Z</time>
      </trkpt>
      <trkpt lat="51.48440164513885974884033203125" lon="12.4981565773487091064453125">
        <ele>99.59999847412109375</ele>
        <time>2018-08-18T11:01:40.000Z</time>
      </trkpt>
      <trkpt lat="51.48462108336389064788818359375" lon="12.4979344569146633148193359375">
        <ele>99.59999847412109375</ele>
        <time>2018-08-18T11:01:44.000Z</time>
      </trkpt>
      <trkpt lat="51.48473457433283329010009765625" lon="12.49783161096274852752685546875">
        <ele>99.59999847412109375</ele>
        <time>2018-08-18T11:01:46.000Z</time>
      </trkpt>
      <trkpt lat="51.48515023291110992431640625" lon="12.497119568288326263427734375">
        <ele>100.40000152587890625</ele>
        <time>2018-08-18T11:01:54.000Z</time>
      </trkpt>
      <trkpt lat="51.48555398918688297271728515625" lon="12.4964478425681591033935546875">
        <ele>100.59999847412109375</ele>
        <time>2018-08-18T11:02:01.000Z</time>
      </trkpt>
      <trkpt lat="51.48597073741257190704345703125" lon="12.4957689084112644195556640625">
        <ele>100.59999847412109375</ele>
        <time>2018-08-18T11:02:08.000Z</time>
      </trkpt>
      <trkpt lat="51.486398465931415557861328125" lon="12.49506533145904541015625">
        <ele>100.59999847412109375</ele>
        <time>2018-08-18T11:02:15.000Z</time>
      </trkpt>
      <trkpt lat="51.48678512312471866607666015625" lon="12.4944630078971385955810546875">
        <ele>100.59999847412109375</ele>
        <time>2018-08-18T11:02:21.000Z</time>
      </trkpt>
      <trkpt lat="51.48713179863989353179931640625" lon="12.49436485581099987030029296875">
        <ele>100.40000152587890625</ele>
        <time>2018-08-18T11:02:25.000Z</time>
      </trkpt>
      <trkpt lat="51.48768550716340541839599609375" lon="12.49449242837727069854736328125">
        <ele>99.59999847412109375</ele>
        <time>2018-08-18T11:02:31.000Z</time>
      </trkpt>
      <trkpt lat="51.488253213465213775634765625" lon="12.4946026504039764404296875">
        <ele>99.1999969482421875</ele>
        <time>2018-08-18T11:02:37.000Z</time>
      </trkpt>
      <trkpt lat="51.4884344302117824554443359375" lon="12.4946373514831066131591796875">
        <ele>98.8000030517578125</ele>
        <time>2018-08-18T11:02:39.000Z</time>
      </trkpt>
      <trkpt lat="51.48904287256300449371337890625" lon="12.4947432987391948699951171875">
        <ele>98.1999969482421875</ele>
        <time>2018-08-18T11:02:46.000Z</time>
      </trkpt>
      <trkpt lat="51.48965408094227313995361328125" lon="12.4948586337268352508544921875">
        <ele>98</ele>
        <time>2018-08-18T11:02:53.000Z</time>
      </trkpt>
      <trkpt lat="51.4902365393936634063720703125" lon="12.4950747191905975341796875">
        <ele>98.1999969482421875</ele>
        <time>2018-08-18T11:03:00.000Z</time>
      </trkpt>
      <trkpt lat="51.490476764738559722900390625" lon="12.49522467143833637237548828125">
        <ele>98.40000152587890625</ele>
        <time>2018-08-18T11:03:03.000Z</time>
      </trkpt>
      <trkpt lat="51.4907634258270263671875" lon="12.4957452714443206787109375">
        <ele>98.40000152587890625</ele>
        <time>2018-08-18T11:03:08.000Z</time>
      </trkpt>
      <trkpt lat="51.49085537530481815338134765625" lon="12.495980300009250640869140625">
        <ele>98.59999847412109375</ele>
        <time>2018-08-18T11:03:10.000Z</time>
      </trkpt>
      <trkpt lat="51.491310596466064453125" lon="12.496300153434276580810546875">
        <ele>98.40000152587890625</ele>
        <time>2018-08-18T11:03:16.000Z</time>
      </trkpt>
      <trkpt lat="51.49192071519792079925537109375" lon="12.49640618450939655303955078125">
        <ele>98.40000152587890625</ele>
        <time>2018-08-18T11:03:23.000Z</time>
      </trkpt>
      <trkpt lat="51.49254047311842441558837890625" lon="12.4965097010135650634765625">
        <ele>98.1999969482421875</ele>
        <time>2018-08-18T11:03:30.000Z</time>
      </trkpt>
      <trkpt lat="51.4930808544158935546875" lon="12.496600560843944549560546875">
        <ele>98</ele>
        <time>2018-08-18T11:03:36.000Z</time>
      </trkpt>
      <trkpt lat="51.493342705070972442626953125" lon="12.49665294773876667022705078125">
        <ele>97.8000030517578125</ele>
        <time>2018-08-18T11:03:39.000Z</time>
      </trkpt>
      <trkpt lat="51.49396573193371295928955078125" lon="12.49678152613341808319091796875">
        <ele>97</ele>
        <time>2018-08-18T11:03:46.000Z</time>
      </trkpt>
      <trkpt lat="51.49451156146824359893798828125" lon="12.49686576426029205322265625">
        <ele>96.59999847412109375</ele>
        <time>2018-08-18T11:03:52.000Z</time>
      </trkpt>
      <trkpt lat="51.495060659945011138916015625" lon="12.4969604797661304473876953125">
        <ele>96.40000152587890625</ele>
        <time>2018-08-18T11:03:58.000Z</time>
      </trkpt>
      <trkpt lat="51.4956157095730304718017578125" lon="12.49706433154642581939697265625">
        <ele>96</ele>
        <time>2018-08-18T11:04:04.000Z</time>
      </trkpt>
      <trkpt lat="51.49616447277367115020751953125" lon="12.49717061407864093780517578125">
        <ele>95.59999847412109375</ele>
        <time>2018-08-18T11:04:10.000Z</time>
      </trkpt>
      <trkpt lat="51.49634434841573238372802734375" lon="12.49724722467362880706787109375">
        <ele>95.1999969482421875</ele>
        <time>2018-08-18T11:04:12.000Z</time>
      </trkpt>
      <trkpt lat="51.49663369171321392059326171875" lon="12.49757998622953891754150390625">
        <ele>94.59999847412109375</ele>
        <time>2018-08-18T11:04:16.000Z</time>
      </trkpt>
      <trkpt lat="51.49682429619133472442626953125" lon="12.49789615161716938018798828125">
        <ele>94.59999847412109375</ele>
        <time>2018-08-18T11:04:19.000Z</time>
      </trkpt>
      <trkpt lat="51.49721858091652393341064453125" lon="12.4985138140618801116943359375">
        <ele>94.40000152587890625</ele>
        <time>2018-08-18T11:04:25.000Z</time>
      </trkpt>
      <trkpt lat="51.497614793479442596435546875" lon="12.49910733662545680999755859375">
        <ele>94</ele>
        <time>2018-08-18T11:04:31.000Z</time>
      </trkpt>
      <trkpt lat="51.49791947565972805023193359375" lon="12.4996125139296054840087890625">
        <ele>94</ele>
        <time>2018-08-18T11:04:36.000Z</time>
      </trkpt>
      <trkpt lat="51.49819574318826198577880859375" lon="12.5004902668297290802001953125">
        <ele>94</ele>
        <time>2018-08-18T11:04:43.000Z</time>
      </trkpt>
      <trkpt lat="51.4984635449945926666259765625" lon="12.501393668353557586669921875">
        <ele>94</ele>
        <time>2018-08-18T11:04:50.000Z</time>
      </trkpt>
      <trkpt lat="51.4987041056156158447265625" lon="12.50217980705201625823974609375">
        <ele>94.1999969482421875</ele>
        <time>2018-08-18T11:04:56.000Z</time>
      </trkpt>
      <trkpt lat="51.498951874673366546630859375" lon="12.50299704261124134063720703125">
        <ele>94</ele>
        <time>2018-08-18T11:05:02.000Z</time>
      </trkpt>
      <trkpt lat="51.499198637902736663818359375" lon="12.50382182188332080841064453125">
        <ele>94</ele>
        <time>2018-08-18T11:05:08.000Z</time>
      </trkpt>
      <trkpt lat="51.49928103201091289520263671875" lon="12.50409238971769809722900390625">
        <ele>93.59999847412109375</ele>
        <time>2018-08-18T11:05:10.000Z</time>
      </trkpt>
      <trkpt lat="51.49952528066933155059814453125" lon="12.50490300357341766357421875">
        <ele>92.8000030517578125</ele>
        <time>2018-08-18T11:05:16.000Z</time>
      </trkpt>
      <trkpt lat="51.499649249017238616943359375" lon="12.50530726276338100433349609375">
        <ele>92.59999847412109375</ele>
        <time>2018-08-18T11:05:19.000Z</time>
      </trkpt>
      <trkpt lat="51.49992023594677448272705078125" lon="12.50607135705649852752685546875">
        <ele>92</ele>
        <time>2018-08-18T11:05:25.000Z</time>
      </trkpt>
      <trkpt lat="51.50022684596478939056396484375" lon="12.50694458372890949249267578125">
        <ele>91.8000030517578125</ele>
        <time>2018-08-18T11:05:32.000Z</time>
      </trkpt>
      <trkpt lat="51.5004654787480831146240234375" lon="12.5078281201422214508056640625">
        <ele>91.8000030517578125</ele>
        <time>2018-08-18T11:05:39.000Z</time>
      </trkpt>
      <trkpt lat="51.50069723837077617645263671875" lon="12.50867879949510097503662109375">
        <ele>92</ele>
        <time>2018-08-18T11:05:46.000Z</time>
      </trkpt>
      <trkpt lat="51.5009249746799468994140625" lon="12.509525120258331298828125">
        <ele>92.8000030517578125</ele>
        <time>2018-08-18T11:05:53.000Z</time>
      </trkpt>
      <trkpt lat="51.50116302073001861572265625" lon="12.51040161587297916412353515625">
        <ele>93</ele>
        <time>2018-08-18T11:06:00.000Z</time>
      </trkpt>
      <trkpt lat="51.50140265934169292449951171875" lon="12.51129261218011379241943359375">
        <ele>93.1999969482421875</ele>
        <time>2018-08-18T11:06:07.000Z</time>
      </trkpt>
      <trkpt lat="51.50164623744785785675048828125" lon="12.51219886355102062225341796875">
        <ele>93.40000152587890625</ele>
        <time>2018-08-18T11:06:14.000Z</time>
      </trkpt>
      <trkpt lat="51.5018610656261444091796875" lon="12.512995563447475433349609375">
        <ele>93.40000152587890625</ele>
        <time>2018-08-18T11:06:20.000Z</time>
      </trkpt>
      <trkpt lat="51.50207807309925556182861328125" lon="12.51379192806780338287353515625">
        <ele>93.40000152587890625</ele>
        <time>2018-08-18T11:06:26.000Z</time>
      </trkpt>
      <trkpt lat="51.50229583494365215301513671875" lon="12.51459575258195400238037109375">
        <ele>93.40000152587890625</ele>
        <time>2018-08-18T11:06:32.000Z</time>
      </trkpt>
      <trkpt lat="51.502512507140636444091796875" lon="12.5154085457324981689453125">
        <ele>93.40000152587890625</ele>
        <time>2018-08-18T11:06:38.000Z</time>
      </trkpt>
      <trkpt lat="51.50272834114730358123779296875" lon="12.51623206771910190582275390625">
        <ele>93.40000152587890625</ele>
        <time>2018-08-18T11:06:44.000Z</time>
      </trkpt>
      <trkpt lat="51.50277829729020595550537109375" lon="12.516515292227268218994140625">
        <ele>93.40000152587890625</ele>
        <time>2018-08-18T11:06:46.000Z</time>
      </trkpt>
      <trkpt lat="51.50274342857301235198974609375" lon="12.51726656220853328704833984375">
        <ele>93.40000152587890625</ele>
        <time>2018-08-18T11:06:51.000Z</time>
      </trkpt>
      <trkpt lat="51.50262842886149883270263671875" lon="12.5181739032268524169921875">
        <ele>93.1999969482421875</ele>
        <time>2018-08-18T11:06:57.000Z</time>
      </trkpt>
      <trkpt lat="51.5025106631219387054443359375" lon="12.51908543519675731658935546875">
        <ele>93</ele>
        <time>2018-08-18T11:07:03.000Z</time>
      </trkpt>
      <trkpt lat="51.50239323265850543975830078125" lon="12.520007528364658355712890625">
        <ele>93</ele>
        <time>2018-08-18T11:07:09.000Z</time>
      </trkpt>
      <trkpt lat="51.50227488018572330474853515625" lon="12.52092995680868625640869140625">
        <ele>93</ele>
        <time>2018-08-18T11:07:15.000Z</time>
      </trkpt>
      <trkpt lat="51.50215619243681430816650390625" lon="12.521854229271411895751953125">
        <ele>93</ele>
        <time>2018-08-18T11:07:21.000Z</time>
      </trkpt>
      <trkpt lat="51.50204152800142765045166015625" lon="12.5227811001241207122802734375">
        <ele>93</ele>
        <time>2018-08-18T11:07:27.000Z</time>
      </trkpt>
      <trkpt lat="51.50192954577505588531494140625" lon="12.523697912693023681640625">
        <ele>93.1999969482421875</ele>
        <time>2018-08-18T11:07:33.000Z</time>
      </trkpt>
      <trkpt lat="51.50192535482347011566162109375" lon="12.5238509662449359893798828125">
        <ele>93.1999969482421875</ele>
        <time>2018-08-18T11:07:34.000Z</time>
      </trkpt>
      <trkpt lat="51.50205594487488269805908203125" lon="12.5247260369360446929931640625">
        <ele>93.40000152587890625</ele>
        <time>2018-08-18T11:07:40.000Z</time>
      </trkpt>
      <trkpt lat="51.50218318216502666473388671875" lon="12.52542969770729541778564453125">
        <ele>93.8000030517578125</ele>
        <time>2018-08-18T11:07:45.000Z</time>
      </trkpt>
      <trkpt lat="51.50235467590391635894775390625" lon="12.52637366764247417449951171875">
        <ele>94.40000152587890625</ele>
        <time>2018-08-18T11:07:52.000Z</time>
      </trkpt>
      <trkpt lat="51.50236599147319793701171875" lon="12.52648866735398769378662109375">
        <ele>94.40000152587890625</ele>
        <time>2018-08-18T11:07:53.000Z</time>
      </trkpt>
      <trkpt lat="51.50237806141376495361328125" lon="12.526685893535614013671875">
        <ele>94.59999847412109375</ele>
        <time>2018-08-18T11:07:55.000Z</time>
      </trkpt>
      <trkpt lat="51.50251627899706363677978515625" lon="12.52702779136598110198974609375">
        <ele>94.59999847412109375</ele>
        <time>2018-08-18T11:07:59.000Z</time>
      </trkpt>
      <trkpt lat="51.502810232341289520263671875" lon="12.527528107166290283203125">
        <ele>94.40000152587890625</ele>
        <time>2018-08-18T11:08:05.000Z</time>
      </trkpt>
      <trkpt lat="51.50307753123342990875244140625" lon="12.52771829254925251007080078125">
        <ele>94.1999969482421875</ele>
        <time>2018-08-18T11:08:09.000Z</time>
      </trkpt>
      <trkpt lat="51.5031503699719905853271484375" lon="12.5277411751449108123779296875">
        <ele>94.1999969482421875</ele>
        <time>2018-08-18T11:08:10.000Z</time>
      </trkpt>
      <trkpt lat="51.50374204851686954498291015625" lon="12.52772198058664798736572265625">
        <ele>94</ele>
        <time>2018-08-18T11:08:18.000Z</time>
      </trkpt>
      <trkpt lat="51.50432224385440349578857421875" lon="12.52755224704742431640625">
        <ele>94.1999969482421875</ele>
        <time>2018-08-18T11:08:26.000Z</time>
      </trkpt>
      <trkpt lat="51.50487251579761505126953125" lon="12.52737161703407764434814453125">
        <ele>94.1999969482421875</ele>
        <time>2018-08-18T11:08:33.000Z</time>
      </trkpt>
      <trkpt lat="51.505410633981227874755859375" lon="12.527096606791019439697265625">
        <ele>94.1999969482421875</ele>
        <time>2018-08-18T11:08:40.000Z</time>
      </trkpt>
      <trkpt lat="51.50577264837920665740966796875" lon="12.52682561986148357391357421875">
        <ele>94.40000152587890625</ele>
        <time>2018-08-18T11:08:45.000Z</time>
      </trkpt>
      <trkpt lat="51.50617732666432857513427734375" lon="12.5268433056771755218505859375">
        <ele>94.40000152587890625</ele>
        <time>2018-08-18T11:08:50.000Z</time>
      </trkpt>
      <trkpt lat="51.5063411928713321685791015625" lon="12.52689200453460216522216796875">
        <ele>94.8000030517578125</ele>
        <time>2018-08-18T11:08:52.000Z</time>
      </trkpt>
      <trkpt lat="51.50690831243991851806640625" lon="12.5270652584731578826904296875">
        <ele>95.59999847412109375</ele>
        <time>2018-08-18T11:08:59.000Z</time>
      </trkpt>
      <trkpt lat="51.5074714086949825286865234375" lon="12.52723038196563720703125">
        <ele>95.8000030517578125</ele>
        <time>2018-08-18T11:09:06.000Z</time>
      </trkpt>
      <trkpt lat="51.50771859101951122283935546875" lon="12.5272862054407596588134765625">
        <ele>96</ele>
        <time>2018-08-18T11:09:09.000Z</time>
      </trkpt>
      <trkpt lat="51.5083038993179798126220703125" lon="12.5274129398167133331298828125">
        <ele>96.40000152587890625</ele>
        <time>2018-08-18T11:09:16.000Z</time>
      </trkpt>
      <trkpt lat="51.50890178047120571136474609375" lon="12.52753087319433689117431640625">
        <ele>96.59999847412109375</ele>
        <time>2018-08-18T11:09:23.000Z</time>
      </trkpt>
      <trkpt lat="51.5095132403075695037841796875" lon="12.5276640616357326507568359375">
        <ele>96.59999847412109375</ele>
        <time>2018-08-18T11:09:30.000Z</time>
      </trkpt>
      <trkpt lat="51.51012905873358249664306640625" lon="12.5277884490787982940673828125">
        <ele>96.40000152587890625</ele>
        <time>2018-08-18T11:09:37.000Z</time>
      </trkpt>
      <trkpt lat="51.5107525885105133056640625" lon="12.527920715510845184326171875">
        <ele>96.40000152587890625</ele>
        <time>2018-08-18T11:09:44.000Z</time>
      </trkpt>
      <trkpt lat="51.511293388903141021728515625" lon="12.5280355475842952728271484375">
        <ele>96.40000152587890625</ele>
        <time>2018-08-18T11:09:50.000Z</time>
      </trkpt>
      <trkpt lat="51.51183192618191242218017578125" lon="12.52815146930515766143798828125">
        <ele>96.40000152587890625</ele>
        <time>2018-08-18T11:09:56.000Z</time>
      </trkpt>
      <trkpt lat="51.512449420988559722900390625" lon="12.528277449309825897216796875">
        <ele>96.40000152587890625</ele>
        <time>2018-08-18T11:10:03.000Z</time>
      </trkpt>
      <trkpt lat="51.5130641497671604156494140625" lon="12.52831525169312953948974609375">
        <ele>96.1999969482421875</ele>
        <time>2018-08-18T11:10:10.000Z</time>
      </trkpt>
      <trkpt lat="51.51368080638349056243896484375" lon="12.52820678986608982086181640625">
        <ele>96.1999969482421875</ele>
        <time>2018-08-18T11:10:17.000Z</time>
      </trkpt>
      <trkpt lat="51.5143063478171825408935546875" lon="12.528087683022022247314453125">
        <ele>96</ele>
        <time>2018-08-18T11:10:24.000Z</time>
      </trkpt>
      <trkpt lat="51.5148451365530490875244140625" lon="12.52798802219331264495849609375">
        <ele>96</ele>
        <time>2018-08-18T11:10:30.000Z</time>
      </trkpt>
      <trkpt lat="51.5154653973877429962158203125" lon="12.527873106300830841064453125">
        <ele>95.8000030517578125</ele>
        <time>2018-08-18T11:10:37.000Z</time>
      </trkpt>
      <trkpt lat="51.51608004234731197357177734375" lon="12.52775198780000209808349609375">
        <ele>95.59999847412109375</ele>
        <time>2018-08-18T11:10:44.000Z</time>
      </trkpt>
      <trkpt lat="51.51670415885746479034423828125" lon="12.52763246186077594757080078125">
        <ele>95.1999969482421875</ele>
        <time>2018-08-18T11:10:51.000Z</time>
      </trkpt>
      <trkpt lat="51.51697036810219287872314453125" lon="12.5275812484323978424072265625">
        <ele>95</ele>
        <time>2018-08-18T11:10:54.000Z</time>
      </trkpt>
      <trkpt lat="51.51757973246276378631591796875" lon="12.527500279247760772705078125">
        <ele>94.59999847412109375</ele>
        <time>2018-08-18T11:11:01.000Z</time>
      </trkpt>
      <trkpt lat="51.518202759325504302978515625" lon="12.527476139366626739501953125">
        <ele>94.40000152587890625</ele>
        <time>2018-08-18T11:11:08.000Z</time>
      </trkpt>
      <trkpt lat="51.51875018142163753509521484375" lon="12.52746348269283771514892578125">
        <ele>94.40000152587890625</ele>
        <time>2018-08-18T11:11:14.000Z</time>
      </trkpt>
      <trkpt lat="51.5193026326596736907958984375" lon="12.52745610661804676055908203125">
        <ele>94.40000152587890625</ele>
        <time>2018-08-18T11:11:20.000Z</time>
      </trkpt>
      <trkpt lat="51.5198601968586444854736328125" lon="12.52744160592555999755859375">
        <ele>94.1999969482421875</ele>
        <time>2018-08-18T11:11:26.000Z</time>
      </trkpt>
      <trkpt lat="51.5201394818723201751708984375" lon="12.52743397839367389678955078125">
        <ele>93.8000030517578125</ele>
        <time>2018-08-18T11:11:29.000Z</time>
      </trkpt>
      <trkpt lat="51.5206950344145298004150390625" lon="12.5274194777011871337890625">
        <ele>93.40000152587890625</ele>
        <time>2018-08-18T11:11:35.000Z</time>
      </trkpt>
      <trkpt lat="51.52125268243253231048583984375" lon="12.5274022109806537628173828125">
        <ele>93</ele>
        <time>2018-08-18T11:11:41.000Z</time>
      </trkpt>
      <trkpt lat="51.52152962051331996917724609375" lon="12.52739408053457736968994140625">
        <ele>92.8000030517578125</ele>
        <time>2018-08-18T11:11:44.000Z</time>
      </trkpt>
      <trkpt lat="51.522084586322307586669921875" lon="12.5273765623569488525390625">
        <ele>92.59999847412109375</ele>
        <time>2018-08-18T11:11:50.000Z</time>
      </trkpt>
      <trkpt lat="51.5226292423903942108154296875" lon="12.5273559428751468658447265625">
        <ele>92.40000152587890625</ele>
        <time>2018-08-18T11:11:56.000Z</time>
      </trkpt>
      <trkpt lat="51.523170210421085357666015625" lon="12.52734194509685039520263671875">
        <ele>92.1999969482421875</ele>
        <time>2018-08-18T11:12:02.000Z</time>
      </trkpt>
      <trkpt lat="51.52371142990887165069580078125" lon="12.527325265109539031982421875">
        <ele>92.1999969482421875</ele>
        <time>2018-08-18T11:12:08.000Z</time>
      </trkpt>
      <trkpt lat="51.52425927110016345977783203125" lon="12.527305148541927337646484375">
        <ele>92</ele>
        <time>2018-08-18T11:12:14.000Z</time>
      </trkpt>
      <trkpt lat="51.524803005158901214599609375" lon="12.52728930674493312835693359375">
        <ele>92</ele>
        <time>2018-08-18T11:12:20.000Z</time>
      </trkpt>
      <trkpt lat="51.5250697173178195953369140625" lon="12.52726349048316478729248046875">
        <ele>92</ele>
        <time>2018-08-18T11:12:23.000Z</time>
      </trkpt>
      <trkpt lat="51.5254645049571990966796875" lon="12.5269529409706592559814453125">
        <ele>92</ele>
        <time>2018-08-18T11:12:28.000Z</time>
      </trkpt>
      <trkpt lat="51.5258991904556751251220703125" lon="12.526438124477863311767578125">
        <ele>92</ele>
        <time>2018-08-18T11:12:34.000Z</time>
      </trkpt>
      <trkpt lat="51.52639498002827167510986328125" lon="12.5258404947817325592041015625">
        <ele>92</ele>
        <time>2018-08-18T11:12:41.000Z</time>
      </trkpt>
      <trkpt lat="51.526830755174160003662109375" lon="12.525322996079921722412109375">
        <ele>91.8000030517578125</ele>
        <time>2018-08-18T11:12:47.000Z</time>
      </trkpt>
      <trkpt lat="51.5269036777317523956298828125" lon="12.52523574046790599822998046875">
        <ele>91.8000030517578125</ele>
        <time>2018-08-18T11:12:48.000Z</time>
      </trkpt>
      <trkpt lat="51.5273385308682918548583984375" lon="12.5247129611670970916748046875">
        <ele>91.8000030517578125</ele>
        <time>2018-08-18T11:12:54.000Z</time>
      </trkpt>
      <trkpt lat="51.52783063240349292755126953125" lon="12.524111978709697723388671875">
        <ele>91.59999847412109375</ele>
        <time>2018-08-18T11:13:01.000Z</time>
      </trkpt>
      <trkpt lat="51.52830940671265125274658203125" lon="12.52352960407733917236328125">
        <ele>91</ele>
        <time>2018-08-18T11:13:08.000Z</time>
      </trkpt>
      <trkpt lat="51.52837327681481838226318359375" lon="12.5234486348927021026611328125">
        <ele>91</ele>
        <time>2018-08-18T11:13:09.000Z</time>
      </trkpt>
      <trkpt lat="51.5285518951714038848876953125" lon="12.5232508219778537750244140625">
        <ele>91</ele>
        <time>2018-08-18T11:13:12.000Z</time>
      </trkpt>
      <trkpt lat="51.5288362093269824981689453125" lon="12.52348358742892742156982421875">
        <ele>91</ele>
        <time>2018-08-18T11:13:17.000Z</time>
      </trkpt>
      <trkpt lat="51.5292737446725368499755859375" lon="12.523996643722057342529296875">
        <ele>91.59999847412109375</ele>
        <time>2018-08-18T11:13:24.000Z</time>
      </trkpt>
      <trkpt lat="51.529771797358989715576171875" lon="12.524506263434886932373046875">
        <ele>91.8000030517578125</ele>
        <time>2018-08-18T11:13:31.000Z</time>
      </trkpt>
      <trkpt lat="51.53023020364344120025634765625" lon="12.52496802248060703277587890625">
        <ele>91.59999847412109375</ele>
        <time>2018-08-18T11:13:37.000Z</time>
      </trkpt>
      <trkpt lat="51.53069640509784221649169921875" lon="12.52543556503951549530029296875">
        <ele>90.59999847412109375</ele>
        <time>2018-08-18T11:13:43.000Z</time>
      </trkpt>
      <trkpt lat="51.5310657955706119537353515625" lon="12.5258394889533519744873046875">
        <ele>90</ele>
        <time>2018-08-18T11:13:48.000Z</time>
      </trkpt>
      <trkpt lat="51.53151313774287700653076171875" lon="12.5264838896691799163818359375">
        <ele>89.8000030517578125</ele>
        <time>2018-08-18T11:13:55.000Z</time>
      </trkpt>
      <trkpt lat="51.53185763396322727203369140625" lon="12.52719693817198276519775390625">
        <ele>89.8000030517578125</ele>
        <time>2018-08-18T11:14:02.000Z</time>
      </trkpt>
      <trkpt lat="51.53216508217155933380126953125" lon="12.5279192067682743072509765625">
        <ele>90</ele>
        <time>2018-08-18T11:14:09.000Z</time>
      </trkpt>
      <trkpt lat="51.53248141519725322723388671875" lon="12.52867902629077434539794921875">
        <ele>90.40000152587890625</ele>
        <time>2018-08-18T11:14:16.000Z</time>
      </trkpt>
      <trkpt lat="51.532722897827625274658203125" lon="12.52920105122029781341552734375">
        <ele>91.1999969482421875</ele>
        <time>2018-08-18T11:14:21.000Z</time>
      </trkpt>
      <trkpt lat="51.53304400853812694549560546875" lon="12.52975006587803363800048828125">
        <ele>92.1999969482421875</ele>
        <time>2018-08-18T11:14:27.000Z</time>
      </trkpt>
      <trkpt lat="51.53348104096949100494384765625" lon="12.530309222638607025146484375">
        <ele>93.1999969482421875</ele>
        <time>2018-08-18T11:14:34.000Z</time>
      </trkpt>
      <trkpt lat="51.53354608453810214996337890625" lon="12.530380301177501678466796875">
        <ele>93.40000152587890625</ele>
        <time>2018-08-18T11:14:35.000Z</time>
      </trkpt>
      <trkpt lat="51.53402737341821193695068359375" lon="12.53077969886362552642822265625">
        <ele>93.59999847412109375</ele>
        <time>2018-08-18T11:14:42.000Z</time>
      </trkpt>
      <trkpt lat="51.53416953049600124359130859375" lon="12.53087407909333705902099609375">
        <ele>93.8000030517578125</ele>
        <time>2018-08-18T11:14:44.000Z</time>
      </trkpt>
      <trkpt lat="51.5346730314195156097412109375" lon="12.53121924586594104766845703125">
        <ele>93.8000030517578125</ele>
        <time>2018-08-18T11:14:51.000Z</time>
      </trkpt>
      <trkpt lat="51.53516404330730438232421875" lon="12.53160313703119754791259765625">
        <ele>94</ele>
        <time>2018-08-18T11:14:58.000Z</time>
      </trkpt>
      <trkpt lat="51.5355051867663860321044921875" lon="12.5319026224315166473388671875">
        <ele>94.40000152587890625</ele>
        <time>2018-08-18T11:15:03.000Z</time>
      </trkpt>
      <trkpt lat="51.53598605655133724212646484375" lon="12.5323332846164703369140625">
        <ele>95</ele>
        <time>2018-08-18T11:15:10.000Z</time>
      </trkpt>
      <trkpt lat="51.5364540182054042816162109375" lon="12.532746009528636932373046875">
        <ele>95.40000152587890625</ele>
        <time>2018-08-18T11:15:17.000Z</time>
      </trkpt>
      <trkpt lat="51.536963470280170440673828125" lon="12.53320156596601009368896484375">
        <ele>96.40000152587890625</ele>
        <time>2018-08-18T11:15:25.000Z</time>
      </trkpt>
      <trkpt lat="51.5370883606374263763427734375" lon="12.53331589512526988983154296875">
        <ele>96.40000152587890625</ele>
        <time>2018-08-18T11:15:27.000Z</time>
      </trkpt>
      <trkpt lat="51.53746076859533786773681640625" lon="12.53362988121807575225830078125">
        <ele>97.40000152587890625</ele>
        <time>2018-08-18T11:15:33.000Z</time>
      </trkpt>
      <trkpt lat="51.53775882907211780548095703125" lon="12.53390572965145111083984375">
        <ele>98.59999847412109375</ele>
        <time>2018-08-18T11:15:38.000Z</time>
      </trkpt>
      <trkpt lat="51.5381344221532344818115234375" lon="12.53421745263040065765380859375">
        <ele>99.59999847412109375</ele>
        <time>2018-08-18T11:15:44.000Z</time>
      </trkpt>
      <trkpt lat="51.5386256016790866851806640625" lon="12.534652054309844970703125">
        <ele>100.1999969482421875</ele>
        <time>2018-08-18T11:15:51.000Z</time>
      </trkpt>
      <trkpt lat="51.5391640551388263702392578125" lon="12.53512479364871978759765625">
        <ele>100.1999969482421875</ele>
        <time>2018-08-18T11:15:58.000Z</time>
      </trkpt>
      <trkpt lat="51.5396622754633426666259765625" lon="12.535551600158214569091796875">
        <ele>99.1999969482421875</ele>
        <time>2018-08-18T11:16:04.000Z</time>
      </trkpt>
      <trkpt lat="51.540162675082683563232421875" lon="12.53598184324800968170166015625">
        <ele>98.40000152587890625</ele>
        <time>2018-08-18T11:16:10.000Z</time>
      </trkpt>
      <trkpt lat="51.54024724848568439483642578125" lon="12.5360560230910778045654296875">
        <ele>98.1999969482421875</ele>
        <time>2018-08-18T11:16:11.000Z</time>
      </trkpt>
      <trkpt lat="51.54077078215777873992919921875" lon="12.5365103222429752349853515625">
        <ele>97.40000152587890625</ele>
        <time>2018-08-18T11:16:17.000Z</time>
      </trkpt>
      <trkpt lat="51.5410446189343929290771484375" lon="12.53673906438052654266357421875">
        <ele>97</ele>
        <time>2018-08-18T11:16:20.000Z</time>
      </trkpt>
      <trkpt lat="51.541411578655242919921875" lon="12.53703662194311618804931640625">
        <ele>96</ele>
        <time>2018-08-18T11:16:24.000Z</time>
      </trkpt>
      <trkpt lat="51.54197425581514835357666015625" lon="12.53742705099284648895263671875">
        <ele>94.8000030517578125</ele>
        <time>2018-08-18T11:16:30.000Z</time>
      </trkpt>
      <trkpt lat="51.54257339425384998321533203125" lon="12.53760407678782939910888671875">
        <ele>94.1999969482421875</ele>
        <time>2018-08-18T11:16:36.000Z</time>
      </trkpt>
      <trkpt lat="51.54316146858036518096923828125" lon="12.5376841239631175994873046875">
        <ele>94</ele>
        <time>2018-08-18T11:16:42.000Z</time>
      </trkpt>
      <trkpt lat="51.54376186430454254150390625" lon="12.53778680227696895599365234375">
        <ele>94</ele>
        <time>2018-08-18T11:16:48.000Z</time>
      </trkpt>
      <trkpt lat="51.544352285563945770263671875" lon="12.53789878450334072113037109375">
        <ele>94</ele>
        <time>2018-08-18T11:16:54.000Z</time>
      </trkpt>
      <trkpt lat="51.5449395217001438140869140625" lon="12.53801428712904453277587890625">
        <ele>93.8000030517578125</ele>
        <time>2018-08-18T11:17:00.000Z</time>
      </trkpt>
      <trkpt lat="51.54522945173084735870361328125" lon="12.53807128407061100006103515625">
        <ele>93.8000030517578125</ele>
        <time>2018-08-18T11:17:03.000Z</time>
      </trkpt>
      <trkpt lat="51.545797996222972869873046875" lon="12.5381751358509063720703125">
        <ele>93.59999847412109375</ele>
        <time>2018-08-18T11:17:09.000Z</time>
      </trkpt>
      <trkpt lat="51.5463460050523281097412109375" lon="12.5382805801928043365478515625">
        <ele>93.1999969482421875</ele>
        <time>2018-08-18T11:17:15.000Z</time>
      </trkpt>
      <trkpt lat="51.54696752317249774932861328125" lon="12.538408152759075164794921875">
        <ele>93.1999969482421875</ele>
        <time>2018-08-18T11:17:22.000Z</time>
      </trkpt>
      <trkpt lat="51.54750622808933258056640625" lon="12.53851753659546375274658203125">
        <ele>93.1999969482421875</ele>
        <time>2018-08-18T11:17:28.000Z</time>
      </trkpt>
      <trkpt lat="51.54804660938680171966552734375" lon="12.53864376805722713470458984375">
        <ele>93.40000152587890625</ele>
        <time>2018-08-18T11:17:34.000Z</time>
      </trkpt>
      <trkpt lat="51.5485967136919498443603515625" lon="12.5387767888605594635009765625">
        <ele>93.59999847412109375</ele>
        <time>2018-08-18T11:17:40.000Z</time>
      </trkpt>
      <trkpt lat="51.54913843609392642974853515625" lon="12.53889338113367557525634765625">
        <ele>93.59999847412109375</ele>
        <time>2018-08-18T11:17:46.000Z</time>
      </trkpt>
      <trkpt lat="51.54967269860208034515380859375" lon="12.5390114821493625640869140625">
        <ele>93.59999847412109375</ele>
        <time>2018-08-18T11:17:52.000Z</time>
      </trkpt>
      <trkpt lat="51.55029379762709140777587890625" lon="12.53915975801646709442138671875">
        <ele>93.59999847412109375</ele>
        <time>2018-08-18T11:17:59.000Z</time>
      </trkpt>
      <trkpt lat="51.5509117953479290008544921875" lon="12.53931381739675998687744140625">
        <ele>93.40000152587890625</ele>
        <time>2018-08-18T11:18:06.000Z</time>
      </trkpt>
      <trkpt lat="51.55144798569381237030029296875" lon="12.539491765201091766357421875">
        <ele>93.1999969482421875</ele>
        <time>2018-08-18T11:18:12.000Z</time>
      </trkpt>
      <trkpt lat="51.55198685824871063232421875" lon="12.5397554598748683929443359375">
        <ele>92.8000030517578125</ele>
        <time>2018-08-18T11:18:18.000Z</time>
      </trkpt>
      <trkpt lat="51.55251902528107166290283203125" lon="12.54000775516033172607421875">
        <ele>92.59999847412109375</ele>
        <time>2018-08-18T11:18:24.000Z</time>
      </trkpt>
      <trkpt lat="51.552608124911785125732421875" lon="12.540048994123935699462890625">
        <ele>92.40000152587890625</ele>
        <time>2018-08-18T11:18:25.000Z</time>
      </trkpt>
      <trkpt lat="51.552789509296417236328125" lon="12.54013390280306339263916015625">
        <ele>92.1999969482421875</ele>
        <time>2018-08-18T11:18:27.000Z</time>
      </trkpt>
      <trkpt lat="51.5533407032489776611328125" lon="12.540400028228759765625">
        <ele>91.59999847412109375</ele>
        <time>2018-08-18T11:18:33.000Z</time>
      </trkpt>
      <trkpt lat="51.55379776842892169952392578125" lon="12.54065140150487422943115234375">
        <ele>91.1999969482421875</ele>
        <time>2018-08-18T11:18:38.000Z</time>
      </trkpt>
      <trkpt lat="51.55435734428465366363525390625" lon="12.54100461490452289581298828125">
        <ele>90.59999847412109375</ele>
        <time>2018-08-18T11:18:44.000Z</time>
      </trkpt>
      <trkpt lat="51.55453763902187347412109375" lon="12.54114811308681964874267578125">
        <ele>90.1999969482421875</ele>
        <time>2018-08-18T11:18:46.000Z</time>
      </trkpt>
      <trkpt lat="51.55497844330966472625732421875" lon="12.54155631177127361297607421875">
        <ele>89</ele>
        <time>2018-08-18T11:18:51.000Z</time>
      </trkpt>
      <trkpt lat="51.5555124543607234954833984375" lon="12.542101554572582244873046875">
        <ele>87.8000030517578125</ele>
        <time>2018-08-18T11:18:57.000Z</time>
      </trkpt>
      <trkpt lat="51.555968262255191802978515625" lon="12.54252861253917217254638671875">
        <ele>86.59999847412109375</ele>
        <time>2018-08-18T11:19:02.000Z</time>
      </trkpt>
      <trkpt lat="51.5564170293509960174560546875" lon="12.542945444583892822265625">
        <ele>85.59999847412109375</ele>
        <time>2018-08-18T11:19:07.000Z</time>
      </trkpt>
      <trkpt lat="51.5569243021309375762939453125" lon="12.543483562767505645751953125">
        <ele>84.59999847412109375</ele>
        <time>2018-08-18T11:19:13.000Z</time>
      </trkpt>
      <trkpt lat="51.557004936039447784423828125" lon="12.5435839779675006866455078125">
        <ele>84.40000152587890625</ele>
        <time>2018-08-18T11:19:14.000Z</time>
      </trkpt>
      <trkpt lat="51.5574617497622966766357421875" lon="12.54418118856847286224365234375">
        <ele>83.8000030517578125</ele>
        <time>2018-08-18T11:19:20.000Z</time>
      </trkpt>
      <trkpt lat="51.5579187311232089996337890625" lon="12.544753588736057281494140625">
        <ele>83.40000152587890625</ele>
        <time>2018-08-18T11:19:26.000Z</time>
      </trkpt>
      <trkpt lat="51.558374203741550445556640625" lon="12.54534107632935047149658203125">
        <ele>83</ele>
        <time>2018-08-18T11:19:32.000Z</time>
      </trkpt>
      <trkpt lat="51.55886144377291202545166015625" lon="12.54594222642481327056884765625">
        <ele>82.8000030517578125</ele>
        <time>2018-08-18T11:19:38.000Z</time>
      </trkpt>
      <trkpt lat="51.5593771822750568389892578125" lon="12.5464633293449878692626953125">
        <ele>82.8000030517578125</ele>
        <time>2018-08-18T11:19:44.000Z</time>
      </trkpt>
      <trkpt lat="51.559924520552158355712890625" lon="12.5469199754297733306884765625">
        <ele>82.8000030517578125</ele>
        <time>2018-08-18T11:19:50.000Z</time>
      </trkpt>
      <trkpt lat="51.5604574419558048248291015625" lon="12.54736027680337429046630859375">
        <ele>82.59999847412109375</ele>
        <time>2018-08-18T11:19:56.000Z</time>
      </trkpt>
      <trkpt lat="51.56097636558115482330322265625" lon="12.54778909496963024139404296875">
        <ele>82.8000030517578125</ele>
        <time>2018-08-18T11:20:02.000Z</time>
      </trkpt>
      <trkpt lat="51.56149570830166339874267578125" lon="12.5482141412794589996337890625">
        <ele>83</ele>
        <time>2018-08-18T11:20:08.000Z</time>
      </trkpt>
      <trkpt lat="51.5619866363704204559326171875" lon="12.5486717931926250457763671875">
        <ele>83</ele>
        <time>2018-08-18T11:20:14.000Z</time>
      </trkpt>
      <trkpt lat="51.56245308928191661834716796875" lon="12.5491659902036190032958984375">
        <ele>83</ele>
        <time>2018-08-18T11:20:20.000Z</time>
      </trkpt>
      <trkpt lat="51.562917530536651611328125" lon="12.54966161213815212249755859375">
        <ele>83</ele>
        <time>2018-08-18T11:20:26.000Z</time>
      </trkpt>
      <trkpt lat="51.5633914433419704437255859375" lon="12.5501699745655059814453125">
        <ele>82.8000030517578125</ele>
        <time>2018-08-18T11:20:32.000Z</time>
      </trkpt>
      <trkpt lat="51.563858650624752044677734375" lon="12.55066945217549800872802734375">
        <ele>82.59999847412109375</ele>
        <time>2018-08-18T11:20:38.000Z</time>
      </trkpt>
      <trkpt lat="51.56436064280569553375244140625" lon="12.55109055899083614349365234375">
        <ele>82.59999847412109375</ele>
        <time>2018-08-18T11:20:44.000Z</time>
      </trkpt>
      <trkpt lat="51.5648867748677730560302734375" lon="12.551475875079631805419921875">
        <ele>82.59999847412109375</ele>
        <time>2018-08-18T11:20:50.000Z</time>
      </trkpt>
      <trkpt lat="51.5653910301625728607177734375" lon="12.5518458522856235504150390625">
        <ele>82.59999847412109375</ele>
        <time>2018-08-18T11:20:56.000Z</time>
      </trkpt>
      <trkpt lat="51.565949432551860809326171875" lon="12.55229336209595203399658203125">
        <ele>82.59999847412109375</ele>
        <time>2018-08-18T11:21:03.000Z</time>
      </trkpt>
      <trkpt lat="51.5664379298686981201171875" lon="12.55268228240311145782470703125">
        <ele>82.59999847412109375</ele>
        <time>2018-08-18T11:21:09.000Z</time>
      </trkpt>
      <trkpt lat="51.56698971055448055267333984375" lon="12.55310825072228908538818359375">
        <ele>83</ele>
        <time>2018-08-18T11:21:16.000Z</time>
      </trkpt>
      <trkpt lat="51.567557752132415771484375" lon="12.55346347577869892120361328125">
        <ele>83.40000152587890625</ele>
        <time>2018-08-18T11:21:23.000Z</time>
      </trkpt>
      <trkpt lat="51.56812277622520923614501953125" lon="12.553868405520915985107421875">
        <ele>83.40000152587890625</ele>
        <time>2018-08-18T11:21:30.000Z</time>
      </trkpt>
      <trkpt lat="51.5684376843273639678955078125" lon="12.5543745048344135284423828125">
        <ele>83.1999969482421875</ele>
        <time>2018-08-18T11:21:35.000Z</time>
      </trkpt>
      <trkpt lat="51.56881897710263729095458984375" lon="12.55517187528312206268310546875">
        <ele>82.59999847412109375</ele>
        <time>2018-08-18T11:21:42.000Z</time>
      </trkpt>
      <trkpt lat="51.56925751827657222747802734375" lon="12.5557062216103076934814453125">
        <ele>82.40000152587890625</ele>
        <time>2018-08-18T11:21:48.000Z</time>
      </trkpt>
      <trkpt lat="51.5697844885289669036865234375" lon="12.55603889934718608856201171875">
        <ele>82.40000152587890625</ele>
        <time>2018-08-18T11:21:54.000Z</time>
      </trkpt>
      <trkpt lat="51.57032956369221210479736328125" lon="12.556136883795261383056640625">
        <ele>82</ele>
        <time>2018-08-18T11:22:00.000Z</time>
      </trkpt>
      <trkpt lat="51.570927612483501434326171875" lon="12.55615859292447566986083984375">
        <ele>81.8000030517578125</ele>
        <time>2018-08-18T11:22:07.000Z</time>
      </trkpt>
      <trkpt lat="51.571312844753265380859375" lon="12.556293122470378875732421875">
        <ele>82</ele>
        <time>2018-08-18T11:22:12.000Z</time>
      </trkpt>
      <trkpt lat="51.57158953137695789337158203125" lon="12.555997073650360107421875">
        <ele>82.40000152587890625</ele>
        <time>2018-08-18T11:22:17.000Z</time>
      </trkpt>
      <trkpt lat="51.571968980133533477783203125" lon="12.55534118972718715667724609375">
        <ele>82.59999847412109375</ele>
        <time>2018-08-18T11:22:25.000Z</time>
      </trkpt>
      <trkpt lat="51.5720880031585693359375" lon="12.5552234239876270294189453125">
        <ele>82.59999847412109375</ele>
        <time>2018-08-18T11:22:27.000Z</time>
      </trkpt>
      <trkpt lat="51.572359241545200347900390625" lon="12.55526307038962841033935546875">
        <ele>82.8000030517578125</ele>
        <time>2018-08-18T11:22:31.000Z</time>
      </trkpt>
      <trkpt lat="51.57264078967273235321044921875" lon="12.5554118491709232330322265625">
        <ele>82.8000030517578125</ele>
        <time>2018-08-18T11:22:35.000Z</time>
      </trkpt>
      <trkpt lat="51.57317337580025196075439453125" lon="12.55585449747741222381591796875">
        <ele>82.8000030517578125</ele>
        <time>2018-08-18T11:22:42.000Z</time>
      </trkpt>
      <trkpt lat="51.5733015350997447967529296875" lon="12.55598709918558597564697265625">
        <ele>82.8000030517578125</ele>
        <time>2018-08-18T11:22:44.000Z</time>
      </trkpt>
      <trkpt lat="51.5734208934009075164794921875" lon="12.55609455518424510955810546875">
        <ele>82.40000152587890625</ele>
        <time>2018-08-18T11:22:46.000Z</time>
      </trkpt>
      <trkpt lat="51.57368551008403301239013671875" lon="12.55620469339191913604736328125">
        <ele>81.40000152587890625</ele>
        <time>2018-08-18T11:22:50.000Z</time>
      </trkpt>
      <trkpt lat="51.57384409569203853607177734375" lon="12.55620486102998256683349609375">
        <ele>81.1999969482421875</ele>
        <time>2018-08-18T11:22:52.000Z</time>
      </trkpt>
      <trkpt lat="51.57440342009067535400390625" lon="12.55620201118290424346923828125">
        <ele>80.59999847412109375</ele>
        <time>2018-08-18T11:22:59.000Z</time>
      </trkpt>
      <trkpt lat="51.57448044978082180023193359375" lon="12.55619865842163562774658203125">
        <ele>80.1999969482421875</ele>
        <time>2018-08-18T11:23:00.000Z</time>
      </trkpt>
      <trkpt lat="51.57507531344890594482421875" lon="12.55618021823465824127197265625">
        <ele>79.1999969482421875</ele>
        <time>2018-08-18T11:23:08.000Z</time>
      </trkpt>
      <trkpt lat="51.57535635866224765777587890625" lon="12.5561491213738918304443359375">
        <ele>79</ele>
        <time>2018-08-18T11:23:12.000Z</time>
      </trkpt>
      <trkpt lat="51.57549683935940265655517578125" lon="12.5561075471341609954833984375">
        <ele>79</ele>
        <time>2018-08-18T11:23:14.000Z</time>
      </trkpt>
      <trkpt lat="51.57600863836705684661865234375" lon="12.55608969368040561676025390625">
        <ele>79</ele>
        <time>2018-08-18T11:23:21.000Z</time>
      </trkpt>
      <trkpt lat="51.57640703022480010986328125" lon="12.55609472282230854034423828125">
        <ele>78.8000030517578125</ele>
        <time>2018-08-18T11:23:27.000Z</time>
      </trkpt>
      <trkpt lat="51.57647383399307727813720703125" lon="12.5561326928436756134033203125">
        <ele>78.8000030517578125</ele>
        <time>2018-08-18T11:23:28.000Z</time>
      </trkpt>
      <trkpt lat="51.57705838792026042938232421875" lon="12.5563432462513446807861328125">
        <ele>78.8000030517578125</ele>
        <time>2018-08-18T11:23:36.000Z</time>
      </trkpt>
      <trkpt lat="51.57758317887783050537109375" lon="12.5566597469151020050048828125">
        <ele>79</ele>
        <time>2018-08-18T11:23:43.000Z</time>
      </trkpt>
      <trkpt lat="51.5780567564070224761962890625" lon="12.55708345212042331695556640625">
        <ele>79</ele>
        <time>2018-08-18T11:23:50.000Z</time>
      </trkpt>
      <trkpt lat="51.5781207941472530364990234375" lon="12.55715377628803253173828125">
        <ele>79</ele>
        <time>2018-08-18T11:23:51.000Z</time>
      </trkpt>
      <trkpt lat="51.57840083353221416473388671875" lon="12.5575908087193965911865234375">
        <ele>79.1999969482421875</ele>
        <time>2018-08-18T11:23:56.000Z</time>
      </trkpt>
      <trkpt lat="51.5788376145064830780029296875" lon="12.55813588388264179229736328125">
        <ele>79.1999969482421875</ele>
        <time>2018-08-18T11:24:03.000Z</time>
      </trkpt>
      <trkpt lat="51.57931865192949771881103515625" lon="12.55874005146324634552001953125">
        <ele>78.40000152587890625</ele>
        <time>2018-08-18T11:24:11.000Z</time>
      </trkpt>
      <trkpt lat="51.5797954984009265899658203125" lon="12.5593375973403453826904296875">
        <ele>78.40000152587890625</ele>
        <time>2018-08-18T11:24:19.000Z</time>
      </trkpt>
      <trkpt lat="51.58022473566234111785888671875" lon="12.55986926145851612091064453125">
        <ele>78.40000152587890625</ele>
        <time>2018-08-18T11:24:26.000Z</time>
      </trkpt>
      <trkpt lat="51.58053050749003887176513671875" lon="12.56027712486684322357177734375">
        <ele>78.40000152587890625</ele>
        <time>2018-08-18T11:24:31.000Z</time>
      </trkpt>
      <trkpt lat="51.58097474835813045501708984375" lon="12.5608030892908573150634765625">
        <ele>78.40000152587890625</ele>
        <time>2018-08-18T11:24:38.000Z</time>
      </trkpt>
      <trkpt lat="51.58145092427730560302734375" lon="12.561393342912197113037109375">
        <ele>78.59999847412109375</ele>
        <time>2018-08-18T11:24:46.000Z</time>
      </trkpt>
      <trkpt lat="51.581936739385128021240234375" lon="12.56199382245540618896484375">
        <ele>78.59999847412109375</ele>
        <time>2018-08-18T11:24:54.000Z</time>
      </trkpt>
      <trkpt lat="51.582362540066242218017578125" lon="12.562525570392608642578125">
        <ele>78.8000030517578125</ele>
        <time>2018-08-18T11:25:01.000Z</time>
      </trkpt>
      <trkpt lat="51.58279160968959331512451171875" lon="12.56305874325335025787353515625">
        <ele>78.8000030517578125</ele>
        <time>2018-08-18T11:25:08.000Z</time>
      </trkpt>
      <trkpt lat="51.58327675424516201019287109375" lon="12.56366458721458911895751953125">
        <ele>78.59999847412109375</ele>
        <time>2018-08-18T11:25:16.000Z</time>
      </trkpt>
      <trkpt lat="51.58375971950590610504150390625" lon="12.56426556967198848724365234375">
        <ele>78.59999847412109375</ele>
        <time>2018-08-18T11:25:24.000Z</time>
      </trkpt>
      <trkpt lat="51.58423530869185924530029296875" lon="12.56486135534942150115966796875">
        <ele>78.40000152587890625</ele>
        <time>2018-08-18T11:25:32.000Z</time>
      </trkpt>
      <trkpt lat="51.58471047878265380859375" lon="12.56545328535139560699462890625">
        <ele>78.59999847412109375</ele>
        <time>2018-08-18T11:25:40.000Z</time>
      </trkpt>
      <trkpt lat="51.58514021895825862884521484375" lon="12.56598084233701229095458984375">
        <ele>78.59999847412109375</ele>
        <time>2018-08-18T11:25:47.000Z</time>
      </trkpt>
      <trkpt lat="51.5855649299919605255126953125" lon="12.5665353052318096160888671875">
        <ele>78.59999847412109375</ele>
        <time>2018-08-18T11:25:54.000Z</time>
      </trkpt>
      <trkpt lat="51.58594689331948757171630859375" lon="12.56717375479638576507568359375">
        <ele>78.40000152587890625</ele>
        <time>2018-08-18T11:26:01.000Z</time>
      </trkpt>
      <trkpt lat="51.58617873676121234893798828125" lon="12.56770902313292026519775390625">
        <ele>78.40000152587890625</ele>
        <time>2018-08-18T11:26:06.000Z</time>
      </trkpt>
      <trkpt lat="51.58645282499492168426513671875" lon="12.56847429089248180389404296875">
        <ele>78.40000152587890625</ele>
        <time>2018-08-18T11:26:13.000Z</time>
      </trkpt>
      <trkpt lat="51.58678256906569004058837890625" lon="12.5693030096590518951416015625">
        <ele>78.59999847412109375</ele>
        <time>2018-08-18T11:26:21.000Z</time>
      </trkpt>
      <trkpt lat="51.58682581968605518341064453125" lon="12.56939881481230258941650390625">
        <ele>78.59999847412109375</ele>
        <time>2018-08-18T11:26:22.000Z</time>
      </trkpt>
      <trkpt lat="51.5869139134883880615234375" lon="12.5695786066353321075439453125">
        <ele>78.59999847412109375</ele>
        <time>2018-08-18T11:26:24.000Z</time>
      </trkpt>
      <trkpt lat="51.587047018110752105712890625" lon="12.56995973177254199981689453125">
        <ele>78.8000030517578125</ele>
        <time>2018-08-18T11:26:28.000Z</time>
      </trkpt>
      <trkpt lat="51.58731381408870220184326171875" lon="12.5708042085170745849609375">
        <ele>79.40000152587890625</ele>
        <time>2018-08-18T11:26:36.000Z</time>
      </trkpt>
      <trkpt lat="51.58735823817551136016845703125" lon="12.57090420462191104888916015625">
        <ele>79.40000152587890625</ele>
        <time>2018-08-18T11:26:37.000Z</time>
      </trkpt>
      <trkpt lat="51.58768177963793277740478515625" lon="12.57168003357946872711181640625">
        <ele>79.40000152587890625</ele>
        <time>2018-08-18T11:26:44.000Z</time>
      </trkpt>
      <trkpt lat="51.58796374686062335968017578125" lon="12.5724328123033046722412109375">
        <ele>78.59999847412109375</ele>
        <time>2018-08-18T11:26:51.000Z</time>
      </trkpt>
      <trkpt lat="51.58826448954641819000244140625" lon="12.5732401572167873382568359375">
        <ele>78.40000152587890625</ele>
        <time>2018-08-18T11:26:59.000Z</time>
      </trkpt>
      <trkpt lat="51.5885767154395580291748046875" lon="12.5740729831159114837646484375">
        <ele>78.40000152587890625</ele>
        <time>2018-08-18T11:27:07.000Z</time>
      </trkpt>
      <trkpt lat="51.5887631289660930633544921875" lon="12.5745514221489429473876953125">
        <ele>78.40000152587890625</ele>
        <time>2018-08-18T11:27:12.000Z</time>
      </trkpt>
      <trkpt lat="51.58890478312969207763671875" lon="12.57493740878999233245849609375">
        <ele>78.8000030517578125</ele>
        <time>2018-08-18T11:27:16.000Z</time>
      </trkpt>
      <trkpt lat="51.589054651558399200439453125" lon="12.57547938264906406402587890625">
        <ele>79.1999969482421875</ele>
        <time>2018-08-18T11:27:22.000Z</time>
      </trkpt>
      <trkpt lat="51.589067392051219940185546875" lon="12.57568675093352794647216796875">
        <ele>79.40000152587890625</ele>
        <time>2018-08-18T11:27:25.000Z</time>
      </trkpt>
      <trkpt lat="51.5892455913126468658447265625" lon="12.57622369565069675445556640625">
        <ele>81</ele>
        <time>2018-08-18T11:27:32.000Z</time>
      </trkpt>
      <trkpt lat="51.58948338590562343597412109375" lon="12.576918639242649078369140625">
        <ele>82</ele>
        <time>2018-08-18T11:27:40.000Z</time>
      </trkpt>
      <trkpt lat="51.589767448604106903076171875" lon="12.5776706635951995849609375">
        <ele>82.1999969482421875</ele>
        <time>2018-08-18T11:27:48.000Z</time>
      </trkpt>
      <trkpt lat="51.59006944857537746429443359375" lon="12.57842629216611385345458984375">
        <ele>82.59999847412109375</ele>
        <time>2018-08-18T11:27:56.000Z</time>
      </trkpt>
      <trkpt lat="51.5903820097446441650390625" lon="12.5791762210428714752197265625">
        <ele>82.8000030517578125</ele>
        <time>2018-08-18T11:28:04.000Z</time>
      </trkpt>
      <trkpt lat="51.59069540910422801971435546875" lon="12.5799168460071086883544921875">
        <ele>82.59999847412109375</ele>
        <time>2018-08-18T11:28:12.000Z</time>
      </trkpt>
      <trkpt lat="51.59102498553693294525146484375" lon="12.58068404160439968109130859375">
        <ele>82.40000152587890625</ele>
        <time>2018-08-18T11:28:20.000Z</time>
      </trkpt>
      <trkpt lat="51.591339223086833953857421875" lon="12.5813893787562847137451171875">
        <ele>81.59999847412109375</ele>
        <time>2018-08-18T11:28:29.000Z</time>
      </trkpt>
      <trkpt lat="51.59140535630285739898681640625" lon="12.58153681643307209014892578125">
        <ele>81.40000152587890625</ele>
        <time>2018-08-18T11:28:32.000Z</time>
      </trkpt>
      <trkpt lat="51.59140552394092082977294921875" lon="12.58191031403839588165283203125">
        <ele>81</ele>
        <time>2018-08-18T11:28:38.000Z</time>
      </trkpt>
      <trkpt lat="51.59130527637898921966552734375" lon="12.58224257268011569976806640625">
        <ele>80.8000030517578125</ele>
        <time>2018-08-18T11:28:43.000Z</time>
      </trkpt>
      <trkpt lat="51.59126638434827327728271484375" lon="12.58239713497459888458251953125">
        <ele>80.8000030517578125</ele>
        <time>2018-08-18T11:28:45.000Z</time>
      </trkpt>
      <trkpt lat="51.59116714261472225189208984375" lon="12.58327924646437168121337890625">
        <ele>81.59999847412109375</ele>
        <time>2018-08-18T11:28:54.000Z</time>
      </trkpt>
      <trkpt lat="51.5911335311830043792724609375" lon="12.58347236551344394683837890625">
        <ele>81.59999847412109375</ele>
        <time>2018-08-18T11:28:56.000Z</time>
      </trkpt>
      <trkpt lat="51.59137501381337642669677734375" lon="12.58395164273679256439208984375">
        <ele>81.59999847412109375</ele>
        <time>2018-08-18T11:29:04.000Z</time>
      </trkpt>
      <trkpt lat="51.59192034043371677398681640625" lon="12.5840342044830322265625">
        <ele>81</ele>
        <time>2018-08-18T11:29:11.000Z</time>
      </trkpt>
      <trkpt lat="51.59250103868544101715087890625" lon="12.58400830440223217010498046875">
        <ele>80.40000152587890625</ele>
        <time>2018-08-18T11:29:20.000Z</time>
      </trkpt>
      <trkpt lat="51.5925524197518825531005859375" lon="12.58400310762226581573486328125">
        <ele>80.40000152587890625</ele>
        <time>2018-08-18T11:29:21.000Z</time>
      </trkpt>
      <trkpt lat="51.5927368216216564178466796875" lon="12.58411123417317867279052734375">
        <ele>80.8000030517578125</ele>
        <time>2018-08-18T11:29:25.000Z</time>
      </trkpt>
      <trkpt lat="51.59277646802365779876708984375" lon="12.5841503776609897613525390625">
        <ele>80.8000030517578125</ele>
        <time>2018-08-18T11:29:26.000Z</time>
      </trkpt>
      <trkpt lat="51.59293488599359989166259765625" lon="12.5842258147895336151123046875">
        <ele>80.8000030517578125</ele>
        <time>2018-08-18T11:29:29.000Z</time>
      </trkpt>
      <trkpt lat="51.593050472438335418701171875" lon="12.5842164270579814910888671875">
        <ele>81</ele>
        <time>2018-08-18T11:29:31.000Z</time>
      </trkpt>
      <trkpt lat="51.59360443241894245147705078125" lon="12.58412229828536510467529296875">
        <ele>81.8000030517578125</ele>
        <time>2018-08-18T11:29:40.000Z</time>
      </trkpt>
      <trkpt lat="51.59371423535048961639404296875" lon="12.58416739292442798614501953125">
        <ele>82</ele>
        <time>2018-08-18T11:29:42.000Z</time>
      </trkpt>
      <trkpt lat="51.59381632693111896514892578125" lon="12.58425707928836345672607421875">
        <ele>82.1999969482421875</ele>
        <time>2018-08-18T11:29:44.000Z</time>
      </trkpt>
      <trkpt lat="51.5940252877771854400634765625" lon="12.58445866405963897705078125">
        <ele>83.1999969482421875</ele>
        <time>2018-08-18T11:29:48.000Z</time>
      </trkpt>
      <trkpt lat="51.5941768325865268707275390625" lon="12.584570311009883880615234375">
        <ele>84.1999969482421875</ele>
        <time>2018-08-18T11:29:51.000Z</time>
      </trkpt>
      <trkpt lat="51.594412364065647125244140625" lon="12.5846911780536174774169921875">
        <ele>85.40000152587890625</ele>
        <time>2018-08-18T11:29:56.000Z</time>
      </trkpt>
      <trkpt lat="51.594579331576824188232421875" lon="12.58479201234877109527587890625">
        <ele>86.59999847412109375</ele>
        <time>2018-08-18T11:30:02.000Z</time>
      </trkpt>
      <trkpt lat="51.59461596049368381500244140625" lon="12.58479435928165912628173828125">
        <ele>87.59999847412109375</ele>
        <time>2018-08-18T11:30:05.000Z</time>
      </trkpt>
      <trkpt lat="51.59462367184460163116455078125" lon="12.5847977958619594573974609375">
        <ele>88.1999969482421875</ele>
        <time>2018-08-18T11:30:07.000Z</time>
      </trkpt>
      <trkpt lat="51.59466206096112728118896484375" lon="12.58482000790536403656005859375">
        <ele>88.8000030517578125</ele>
        <time>2018-08-18T11:30:22.000Z</time>
      </trkpt>
      <trkpt lat="51.59488476812839508056640625" lon="12.5848960317671298980712890625">
        <ele>88.8000030517578125</ele>
        <time>2018-08-18T11:30:29.000Z</time>
      </trkpt>
      <trkpt lat="51.59524342976510524749755859375" lon="12.58486568927764892578125">
        <ele>89.8000030517578125</ele>
        <time>2018-08-18T11:30:37.000Z</time>
      </trkpt>
      <trkpt lat="51.59548851661384105682373046875" lon="12.58479435928165912628173828125">
        <ele>91</ele>
        <time>2018-08-18T11:30:42.000Z</time>
      </trkpt>
      <trkpt lat="51.5957305021584033966064453125" lon="12.5847525335848331451416015625">
        <ele>91.40000152587890625</ele>
        <time>2018-08-18T11:30:47.000Z</time>
      </trkpt>
      <trkpt lat="51.59614129923284053802490234375" lon="12.5847250409424304962158203125">
        <ele>92</ele>
        <time>2018-08-18T11:30:54.000Z</time>
      </trkpt>
      <trkpt lat="51.596506498754024505615234375" lon="12.58471288718283176422119140625">
        <ele>93</ele>
        <time>2018-08-18T11:31:00.000Z</time>
      </trkpt>
      <trkpt lat="51.59705962054431438446044921875" lon="12.58469947613775730133056640625">
        <ele>93.40000152587890625</ele>
        <time>2018-08-18T11:31:09.000Z</time>
      </trkpt>
      <trkpt lat="51.59761433489620685577392578125" lon="12.58469402790069580078125">
        <ele>93.59999847412109375</ele>
        <time>2018-08-18T11:31:18.000Z</time>
      </trkpt>
      <trkpt lat="51.59780393354594707489013671875" lon="12.5846874900162220001220703125">
        <ele>94</ele>
        <time>2018-08-18T11:31:21.000Z</time>
      </trkpt>
      <trkpt lat="51.59838848747313022613525390625" lon="12.58464801125228404998779296875">
        <ele>94.59999847412109375</ele>
        <time>2018-08-18T11:31:30.000Z</time>
      </trkpt>
      <trkpt lat="51.59873700700700283050537109375" lon="12.58462353609502315521240234375">
        <ele>95</ele>
        <time>2018-08-18T11:31:35.000Z</time>
      </trkpt>
      <trkpt lat="51.5993206389248371124267578125" lon="12.58458414115011692047119140625">
        <ele>95.40000152587890625</ele>
        <time>2018-08-18T11:31:43.000Z</time>
      </trkpt>
      <trkpt lat="51.59985548816621303558349609375" lon="12.5844400562345981597900390625">
        <ele>95.59999847412109375</ele>
        <time>2018-08-18T11:31:50.000Z</time>
      </trkpt>
      <trkpt lat="51.6004508547484874725341796875" lon="12.5841775350272655487060546875">
        <ele>95.40000152587890625</ele>
        <time>2018-08-18T11:31:57.000Z</time>
      </trkpt>
      <trkpt lat="51.60101051442325115203857421875" lon="12.58395214565098285675048828125">
        <ele>94</ele>
        <time>2018-08-18T11:32:03.000Z</time>
      </trkpt>
      <trkpt lat="51.6011069901287555694580078125" lon="12.583941332995891571044921875">
        <ele>93.1999969482421875</ele>
        <time>2018-08-18T11:32:04.000Z</time>
      </trkpt>
      <trkpt lat="51.6012028791010379791259765625" lon="12.5839435122907161712646484375">
        <ele>93</ele>
        <time>2018-08-18T11:32:05.000Z</time>
      </trkpt>
      <trkpt lat="51.601500101387500762939453125" lon="12.58404023945331573486328125">
        <ele>92</ele>
        <time>2018-08-18T11:32:08.000Z</time>
      </trkpt>
      <trkpt lat="51.60179556347429752349853515625" lon="12.5842020101845264434814453125">
        <ele>91</ele>
        <time>2018-08-18T11:32:11.000Z</time>
      </trkpt>
      <trkpt lat="51.6018885187804698944091796875" lon="12.584276609122753143310546875">
        <ele>90.8000030517578125</ele>
        <time>2018-08-18T11:32:12.000Z</time>
      </trkpt>
      <trkpt lat="51.60205959342420101165771484375" lon="12.584454976022243499755859375">
        <ele>90</ele>
        <time>2018-08-18T11:32:14.000Z</time>
      </trkpt>
      <trkpt lat="51.60229009576141834259033203125" lon="12.584766782820224761962890625">
        <ele>88.8000030517578125</ele>
        <time>2018-08-18T11:32:17.000Z</time>
      </trkpt>
      <trkpt lat="51.60271237604320049285888671875" lon="12.58538964204490184783935546875">
        <ele>87.8000030517578125</ele>
        <time>2018-08-18T11:32:23.000Z</time>
      </trkpt>
      <trkpt lat="51.603147983551025390625" lon="12.5859756208956241607666015625">
        <ele>87.8000030517578125</ele>
        <time>2018-08-18T11:32:29.000Z</time>
      </trkpt>
      <trkpt lat="51.60321998409926891326904296875" lon="12.58605851791799068450927734375">
        <ele>87.8000030517578125</ele>
        <time>2018-08-18T11:32:30.000Z</time>
      </trkpt>
      <trkpt lat="51.603746116161346435546875" lon="12.586255408823490142822265625">
        <ele>87.8000030517578125</ele>
        <time>2018-08-18T11:32:36.000Z</time>
      </trkpt>
      <trkpt lat="51.60392926074564456939697265625" lon="12.586252726614475250244140625">
        <ele>87.8000030517578125</ele>
        <time>2018-08-18T11:32:38.000Z</time>
      </trkpt>
      <trkpt lat="51.604105196893215179443359375" lon="12.5862391479313373565673828125">
        <ele>87.59999847412109375</ele>
        <time>2018-08-18T11:32:40.000Z</time>
      </trkpt>
      <trkpt lat="51.6044528782367706298828125" lon="12.58599733002483844757080078125">
        <ele>87.1999969482421875</ele>
        <time>2018-08-18T11:32:45.000Z</time>
      </trkpt>
      <trkpt lat="51.604506187140941619873046875" lon="12.58594972081482410430908203125">
        <ele>87.1999969482421875</ele>
        <time>2018-08-18T11:32:46.000Z</time>
      </trkpt>
      <trkpt lat="51.60481036640703678131103515625" lon="12.586056254804134368896484375">
        <ele>87</ele>
        <time>2018-08-18T11:32:51.000Z</time>
      </trkpt>
      <trkpt lat="51.60515150986611843109130859375" lon="12.58621157146990299224853515625">
        <ele>86.59999847412109375</ele>
        <time>2018-08-18T11:32:56.000Z</time>
      </trkpt>
      <trkpt lat="51.605291403830051422119140625" lon="12.58623638190329074859619140625">
        <ele>86.59999847412109375</ele>
        <time>2018-08-18T11:32:58.000Z</time>
      </trkpt>
      <trkpt lat="51.60564738325774669647216796875" lon="12.58622515015304088592529296875">
        <ele>86.59999847412109375</ele>
        <time>2018-08-18T11:33:03.000Z</time>
      </trkpt>
      <trkpt lat="51.60590889863669872283935546875" lon="12.58612004108726978302001953125">
        <ele>86.8000030517578125</ele>
        <time>2018-08-18T11:33:07.000Z</time>
      </trkpt>
      <trkpt lat="51.60610034130513668060302734375" lon="12.5859618745744228363037109375">
        <ele>87.1999969482421875</ele>
        <time>2018-08-18T11:33:13.000Z</time>
      </trkpt>
      <trkpt lat="51.60601995885372161865234375" lon="12.586037479341030120849609375">
        <ele>87.1999969482421875</ele>
        <time>2018-08-18T11:33:19.000Z</time>
      </trkpt>
      <trkpt lat="51.60591174848377704620361328125" lon="12.5861838273704051971435546875">
        <ele>87.1999969482421875</ele>
        <time>2018-08-18T11:33:28.000Z</time>
      </trkpt>
      <trkpt lat="51.6060147620737552642822265625" lon="12.58627451956272125244140625">
        <ele>87.1999969482421875</ele>
        <time>2018-08-18T11:33:34.000Z</time>
      </trkpt>
      <trkpt lat="51.60614996217191219329833984375" lon="12.5862880982458591461181640625">
        <ele>87.1999969482421875</ele>
        <time>2018-08-18T11:33:37.000Z</time>
      </trkpt>
      <trkpt lat="51.606606356799602508544921875" lon="12.5863360427320003509521484375">
        <ele>87.8000030517578125</ele>
        <time>2018-08-18T11:33:45.000Z</time>
      </trkpt>
      <trkpt lat="51.60666880197823047637939453125" lon="12.5863476097583770751953125">
        <ele>87.8000030517578125</ele>
        <time>2018-08-18T11:33:46.000Z</time>
      </trkpt>
      <trkpt lat="51.6071382723748683929443359375" lon="12.5864093005657196044921875">
        <ele>89.40000152587890625</ele>
        <time>2018-08-18T11:33:54.000Z</time>
      </trkpt>
      <trkpt lat="51.60736902616918087005615234375" lon="12.58643050678074359893798828125">
        <ele>90.40000152587890625</ele>
        <time>2018-08-18T11:33:58.000Z</time>
      </trkpt>
      <trkpt lat="51.6077654063701629638671875" lon="12.58649705909192562103271484375">
        <ele>91.59999847412109375</ele>
        <time>2018-08-18T11:34:05.000Z</time>
      </trkpt>
      <trkpt lat="51.60804770886898040771484375" lon="12.58655481040477752685546875">
        <ele>92.40000152587890625</ele>
        <time>2018-08-18T11:34:10.000Z</time>
      </trkpt>
      <trkpt lat="51.6082718409597873687744140625" lon="12.58660786785185337066650390625">
        <ele>93</ele>
        <time>2018-08-18T11:34:14.000Z</time>
      </trkpt>
      <trkpt lat="51.60849823616445064544677734375" lon="12.58666746318340301513671875">
        <ele>93.40000152587890625</ele>
        <time>2018-08-18T11:34:18.000Z</time>
      </trkpt>
      <trkpt lat="51.60878757946193218231201171875" lon="12.58675195276737213134765625">
        <ele>94.59999847412109375</ele>
        <time>2018-08-18T11:34:23.000Z</time>
      </trkpt>
      <trkpt lat="51.60915546119213104248046875" lon="12.586837112903594970703125">
        <ele>95.8000030517578125</ele>
        <time>2018-08-18T11:34:29.000Z</time>
      </trkpt>
      <trkpt lat="51.60962308757007122039794921875" lon="12.5869650207459926605224609375">
        <ele>96.8000030517578125</ele>
        <time>2018-08-18T11:34:36.000Z</time>
      </trkpt>
      <trkpt lat="51.6101617924869060516357421875" lon="12.58709183894097805023193359375">
        <ele>97.59999847412109375</ele>
        <time>2018-08-18T11:34:44.000Z</time>
      </trkpt>
      <trkpt lat="51.6106140799820423126220703125" lon="12.58719879202544689178466796875">
        <ele>97.8000030517578125</ele>
        <time>2018-08-18T11:34:51.000Z</time>
      </trkpt>
      <trkpt lat="51.6108740866184234619140625" lon="12.5872607342898845672607421875">
        <ele>98</ele>
        <time>2018-08-18T11:34:55.000Z</time>
      </trkpt>
      <trkpt lat="51.61142637021839618682861328125" lon="12.5873760692775249481201171875">
        <ele>98</ele>
        <time>2018-08-18T11:35:03.000Z</time>
      </trkpt>
      <trkpt lat="51.61201243288815021514892578125" lon="12.5874843634665012359619140625">
        <ele>98</ele>
        <time>2018-08-18T11:35:11.000Z</time>
      </trkpt>
      <trkpt lat="51.6125948913395404815673828125" lon="12.58761034347116947174072265625">
        <ele>98.1999969482421875</ele>
        <time>2018-08-18T11:35:19.000Z</time>
      </trkpt>
      <trkpt lat="51.61274023354053497314453125" lon="12.58763649500906467437744140625">
        <ele>98.1999969482421875</ele>
        <time>2018-08-18T11:35:21.000Z</time>
      </trkpt>
      <trkpt lat="51.6133254580199718475341796875" lon="12.5877619720995426177978515625">
        <ele>98.40000152587890625</ele>
        <time>2018-08-18T11:35:29.000Z</time>
      </trkpt>
      <trkpt lat="51.6138660907745361328125" lon="12.58792215026915073394775390625">
        <ele>98.59999847412109375</ele>
        <time>2018-08-18T11:35:36.000Z</time>
      </trkpt>
      <trkpt lat="51.61440429277718067169189453125" lon="12.58805709891021251678466796875">
        <ele>98.59999847412109375</ele>
        <time>2018-08-18T11:35:43.000Z</time>
      </trkpt>
      <trkpt lat="51.61455919034779071807861328125" lon="12.58810755796730518341064453125">
        <ele>98.8000030517578125</ele>
        <time>2018-08-18T11:35:45.000Z</time>
      </trkpt>
      <trkpt lat="51.6151071153581142425537109375" lon="12.58826245553791522979736328125">
        <ele>98.8000030517578125</ele>
        <time>2018-08-18T11:35:52.000Z</time>
      </trkpt>
      <trkpt lat="51.6156412102282047271728515625" lon="12.58840327151119709014892578125">
        <ele>99</ele>
        <time>2018-08-18T11:35:59.000Z</time>
      </trkpt>
      <trkpt lat="51.61617924459278583526611328125" lon="12.58852916769683361053466796875">
        <ele>99.1999969482421875</ele>
        <time>2018-08-18T11:36:06.000Z</time>
      </trkpt>
      <trkpt lat="51.61671660840511322021484375" lon="12.58864684961736202239990234375">
        <ele>99.40000152587890625</ele>
        <time>2018-08-18T11:36:13.000Z</time>
      </trkpt>
      <trkpt lat="51.617259420454502105712890625" lon="12.58876201696693897247314453125">
        <ele>99.59999847412109375</ele>
        <time>2018-08-18T11:36:20.000Z</time>
      </trkpt>
      <trkpt lat="51.6178610734641551971435546875" lon="12.58885321207344532012939453125">
        <ele>99.59999847412109375</ele>
        <time>2018-08-18T11:36:28.000Z</time>
      </trkpt>
      <trkpt lat="51.6184602119028568267822265625" lon="12.58892051875591278076171875">
        <ele>99.59999847412109375</ele>
        <time>2018-08-18T11:36:36.000Z</time>
      </trkpt>
      <trkpt lat="51.6187602840363979339599609375" lon="12.58893853984773159027099609375">
        <ele>99.40000152587890625</ele>
        <time>2018-08-18T11:36:40.000Z</time>
      </trkpt>
      <trkpt lat="51.61913554184138774871826171875" lon="12.58893853984773159027099609375">
        <ele>99.59999847412109375</ele>
        <time>2018-08-18T11:36:45.000Z</time>
      </trkpt>
      <trkpt lat="51.6196883283555507659912109375" lon="12.588971145451068878173828125">
        <ele>99.59999847412109375</ele>
        <time>2018-08-18T11:36:52.000Z</time>
      </trkpt>
      <trkpt lat="51.62027296610176563262939453125" lon="12.5889813713729381561279296875">
        <ele>99.59999847412109375</ele>
        <time>2018-08-18T11:36:59.000Z</time>
      </trkpt>
      <trkpt lat="51.62084947340190410614013671875" lon="12.588946335017681121826171875">
        <ele>98.59999847412109375</ele>
        <time>2018-08-18T11:37:06.000Z</time>
      </trkpt>
      <trkpt lat="51.6214527189731597900390625" lon="12.58887366391718387603759765625">
        <ele>98.59999847412109375</ele>
        <time>2018-08-18T11:37:14.000Z</time>
      </trkpt>
      <trkpt lat="51.622029058635234832763671875" lon="12.588802166283130645751953125">
        <ele>99.8000030517578125</ele>
        <time>2018-08-18T11:37:22.000Z</time>
      </trkpt>
      <trkpt lat="51.6222635842859745025634765625" lon="12.58877073414623737335205078125">
        <ele>100.40000152587890625</ele>
        <time>2018-08-18T11:37:25.000Z</time>
      </trkpt>
      <trkpt lat="51.62258150987327098846435546875" lon="12.58869948796927928924560546875">
        <ele>101.59999847412109375</ele>
        <time>2018-08-18T11:37:29.000Z</time>
      </trkpt>
      <trkpt lat="51.623154915869235992431640625" lon="12.58855682797729969024658203125">
        <ele>101.59999847412109375</ele>
        <time>2018-08-18T11:37:36.000Z</time>
      </trkpt>
      <trkpt lat="51.62378012202680110931396484375" lon="12.588415928184986114501953125">
        <ele>101.59999847412109375</ele>
        <time>2018-08-18T11:37:43.000Z</time>
      </trkpt>
      <trkpt lat="51.62387098185718059539794921875" lon="12.58840595372021198272705078125">
        <ele>101.40000152587890625</ele>
        <time>2018-08-18T11:37:44.000Z</time>
      </trkpt>
      <trkpt lat="51.6244314797222614288330078125" lon="12.5883684866130352020263671875">
        <ele>100.40000152587890625</ele>
        <time>2018-08-18T11:37:50.000Z</time>
      </trkpt>
      <trkpt lat="51.6248147003352642059326171875" lon="12.58833370171487331390380859375">
        <ele>99.1999969482421875</ele>
        <time>2018-08-18T11:37:54.000Z</time>
      </trkpt>
      <trkpt lat="51.62519238889217376708984375" lon="12.588283158838748931884765625">
        <ele>98.1999969482421875</ele>
        <time>2018-08-18T11:37:58.000Z</time>
      </trkpt>
      <trkpt lat="51.62566445767879486083984375" lon="12.588244937360286712646484375">
        <ele>97</ele>
        <time>2018-08-18T11:38:03.000Z</time>
      </trkpt>
      <trkpt lat="51.626233421266078948974609375" lon="12.58822876028716564178466796875">
        <ele>95.59999847412109375</ele>
        <time>2018-08-18T11:38:09.000Z</time>
      </trkpt>
      <trkpt lat="51.6268028877675533294677734375" lon="12.5882256589829921722412109375">
        <ele>94.59999847412109375</ele>
        <time>2018-08-18T11:38:15.000Z</time>
      </trkpt>
      <trkpt lat="51.62689886055886745452880859375" lon="12.588225491344928741455078125">
        <ele>94.40000152587890625</ele>
        <time>2018-08-18T11:38:16.000Z</time>
      </trkpt>
      <trkpt lat="51.62745885550975799560546875" lon="12.5882062129676342010498046875">
        <ele>94</ele>
        <time>2018-08-18T11:38:22.000Z</time>
      </trkpt>
      <trkpt lat="51.62806696258485317230224609375" lon="12.588183581829071044921875">
        <ele>94</ele>
        <time>2018-08-18T11:38:29.000Z</time>
      </trkpt>
      <trkpt lat="51.6286249458789825439453125" lon="12.588155083358287811279296875">
        <ele>94.1999969482421875</ele>
        <time>2018-08-18T11:38:36.000Z</time>
      </trkpt>
      <trkpt lat="51.629237495362758636474609375" lon="12.5881170295178890228271484375">
        <ele>95.1999969482421875</ele>
        <time>2018-08-18T11:38:44.000Z</time>
      </trkpt>
      <trkpt lat="51.62945467047393321990966796875" lon="12.5880962423980236053466796875">
        <ele>95.59999847412109375</ele>
        <time>2018-08-18T11:38:47.000Z</time>
      </trkpt>
      <trkpt lat="51.62982095964252948760986328125" lon="12.5880871899425983428955078125">
        <ele>96.59999847412109375</ele>
        <time>2018-08-18T11:38:52.000Z</time>
      </trkpt>
      <trkpt lat="51.63031280972063541412353515625" lon="12.58814142085611820220947265625">
        <ele>97.59999847412109375</ele>
        <time>2018-08-18T11:38:59.000Z</time>
      </trkpt>
      <trkpt lat="51.630869619548320770263671875" lon="12.58829422295093536376953125">
        <ele>98.8000030517578125</ele>
        <time>2018-08-18T11:39:07.000Z</time>
      </trkpt>
      <trkpt lat="51.63139726035296916961669921875" lon="12.588505446910858154296875">
        <ele>99.8000030517578125</ele>
        <time>2018-08-18T11:39:15.000Z</time>
      </trkpt>
      <trkpt lat="51.63178852759301662445068359375" lon="12.58864165283739566802978515625">
        <ele>100.8000030517578125</ele>
        <time>2018-08-18T11:39:21.000Z</time>
      </trkpt>
      <trkpt lat="51.63224550895392894744873046875" lon="12.5888180918991565704345703125">
        <ele>101.8000030517578125</ele>
        <time>2018-08-18T11:39:28.000Z</time>
      </trkpt>
      <trkpt lat="51.632707603275775909423828125" lon="12.58893258869647979736328125">
        <ele>102.8000030517578125</ele>
        <time>2018-08-18T11:39:35.000Z</time>
      </trkpt>
      <trkpt lat="51.63322619162499904632568359375" lon="12.58900643326342105865478515625">
        <ele>104</ele>
        <time>2018-08-18T11:39:43.000Z</time>
      </trkpt>
      <trkpt lat="51.6337534971535205841064453125" lon="12.5890512764453887939453125">
        <ele>105.1999969482421875</ele>
        <time>2018-08-18T11:39:51.000Z</time>
      </trkpt>
      <trkpt lat="51.6343005001544952392578125" lon="12.58904616348445415496826171875">
        <ele>105.8000030517578125</ele>
        <time>2018-08-18T11:39:59.000Z</time>
      </trkpt>
      <trkpt lat="51.63463301025331020355224609375" lon="12.5890323333442211151123046875">
        <ele>106.1999969482421875</ele>
        <time>2018-08-18T11:40:04.000Z</time>
      </trkpt>
      <trkpt lat="51.63517515175044536590576171875" lon="12.5889713130891323089599609375">
        <ele>106.59999847412109375</ele>
        <time>2018-08-18T11:40:12.000Z</time>
      </trkpt>
      <trkpt lat="51.63574746809899806976318359375" lon="12.5889361090958118438720703125">
        <ele>107</ele>
        <time>2018-08-18T11:40:20.000Z</time>
      </trkpt>
      <trkpt lat="51.63636806420981884002685546875" lon="12.58889595977962017059326171875">
        <ele>107</ele>
        <time>2018-08-18T11:40:28.000Z</time>
      </trkpt>
      <trkpt lat="51.63698597811162471771240234375" lon="12.588851787149906158447265625">
        <ele>106.59999847412109375</ele>
        <time>2018-08-18T11:40:35.000Z</time>
      </trkpt>
      <trkpt lat="51.63753164000809192657470703125" lon="12.588829658925533294677734375">
        <ele>105.1999969482421875</ele>
        <time>2018-08-18T11:40:41.000Z</time>
      </trkpt>
      <trkpt lat="51.63762149401009082794189453125" lon="12.5888372026383876800537109375">
        <ele>105</ele>
        <time>2018-08-18T11:40:42.000Z</time>
      </trkpt>
      <trkpt lat="51.63820722140371799468994140625" lon="12.58892378769814968109130859375">
        <ele>104.1999969482421875</ele>
        <time>2018-08-18T11:40:49.000Z</time>
      </trkpt>
      <trkpt lat="51.6388124786317348480224609375" lon="12.588942982256412506103515625">
        <ele>104.40000152587890625</ele>
        <time>2018-08-18T11:40:57.000Z</time>
      </trkpt>
      <trkpt lat="51.63941220380365848541259765625" lon="12.58894507773220539093017578125">
        <ele>105.40000152587890625</ele>
        <time>2018-08-18T11:41:05.000Z</time>
      </trkpt>
      <trkpt lat="51.63986566476523876190185546875" lon="12.58894273079931735992431640625">
        <ele>106.1999969482421875</ele>
        <time>2018-08-18T11:41:11.000Z</time>
      </trkpt>
      <trkpt lat="51.64047637023031711578369140625" lon="12.58894423954188823699951171875">
        <ele>106.59999847412109375</ele>
        <time>2018-08-18T11:41:19.000Z</time>
      </trkpt>
      <trkpt lat="51.6410474292933940887451171875" lon="12.588968463242053985595703125">
        <ele>106.59999847412109375</ele>
        <time>2018-08-18T11:41:26.000Z</time>
      </trkpt>
      <trkpt lat="51.64162050001323223114013671875" lon="12.58894289843738079071044921875">
        <ele>106.1999969482421875</ele>
        <time>2018-08-18T11:41:33.000Z</time>
      </trkpt>
      <trkpt lat="51.64220404811203479766845703125" lon="12.58889646269381046295166015625">
        <ele>105.59999847412109375</ele>
        <time>2018-08-18T11:41:40.000Z</time>
      </trkpt>
      <trkpt lat="51.6427482850849628448486328125" lon="12.58889897726476192474365234375">
        <ele>105.59999847412109375</ele>
        <time>2018-08-18T11:41:47.000Z</time>
      </trkpt>
      <trkpt lat="51.64333057589828968048095703125" lon="12.5890172459185123443603515625">
        <ele>106.1999969482421875</ele>
        <time>2018-08-18T11:41:55.000Z</time>
      </trkpt>
      <trkpt lat="51.64367892779409885406494140625" lon="12.5891198404133319854736328125">
        <ele>107.40000152587890625</ele>
        <time>2018-08-18T11:42:00.000Z</time>
      </trkpt>
      <trkpt lat="51.6439593024551868438720703125" lon="12.58920106105506420135498046875">
        <ele>108.40000152587890625</ele>
        <time>2018-08-18T11:42:04.000Z</time>
      </trkpt>
      <trkpt lat="51.6443163715302944183349609375" lon="12.58930549956858158111572265625">
        <ele>109.40000152587890625</ele>
        <time>2018-08-18T11:42:09.000Z</time>
      </trkpt>
      <trkpt lat="51.6448906995356082916259765625" lon="12.5894735567271709442138671875">
        <ele>110.40000152587890625</ele>
        <time>2018-08-18T11:42:17.000Z</time>
      </trkpt>
      <trkpt lat="51.64544817991554737091064453125" lon="12.58963624946773052215576171875">
        <ele>111.1999969482421875</ele>
        <time>2018-08-18T11:42:25.000Z</time>
      </trkpt>
      <trkpt lat="51.645588576793670654296875" lon="12.5896753929555416107177734375">
        <ele>111.59999847412109375</ele>
        <time>2018-08-18T11:42:27.000Z</time>
      </trkpt>
      <trkpt lat="51.64615452289581298828125" lon="12.589841187000274658203125">
        <ele>112.40000152587890625</ele>
        <time>2018-08-18T11:42:35.000Z</time>
      </trkpt>
      <trkpt lat="51.64629592560231685638427734375" lon="12.5898829288780689239501953125">
        <ele>112.8000030517578125</ele>
        <time>2018-08-18T11:42:37.000Z</time>
      </trkpt>
      <trkpt lat="51.64687142707407474517822265625" lon="12.59004302322864532470703125">
        <ele>113.8000030517578125</ele>
        <time>2018-08-18T11:42:45.000Z</time>
      </trkpt>
      <trkpt lat="51.6469435952603816986083984375" lon="12.59006590582430362701416015625">
        <ele>113.8000030517578125</ele>
        <time>2018-08-18T11:42:46.000Z</time>
      </trkpt>
      <trkpt lat="51.6474428214132785797119140625" lon="12.59020437486469745635986328125">
        <ele>115</ele>
        <time>2018-08-18T11:42:53.000Z</time>
      </trkpt>
      <trkpt lat="51.648009605705738067626953125" lon="12.590366899967193603515625">
        <ele>116</ele>
        <time>2018-08-18T11:43:01.000Z</time>
      </trkpt>
      <trkpt lat="51.6485076583921909332275390625" lon="12.59051014669239521026611328125">
        <ele>117</ele>
        <time>2018-08-18T11:43:08.000Z</time>
      </trkpt>
      <trkpt lat="51.64900730364024639129638671875" lon="12.5906419940292835235595703125">
        <ele>118</ele>
        <time>2018-08-18T11:43:15.000Z</time>
      </trkpt>
      <trkpt lat="51.64959780871868133544921875" lon="12.59078758768737316131591796875">
        <ele>119</ele>
        <time>2018-08-18T11:43:23.000Z</time>
      </trkpt>
      <trkpt lat="51.6496740840375423431396484375" lon="12.59080233983695507049560546875">
        <ele>119</ele>
        <time>2018-08-18T11:43:24.000Z</time>
      </trkpt>
      <trkpt lat="51.65023692883551120758056640625" lon="12.590860761702060699462890625">
        <ele>119.59999847412109375</ele>
        <time>2018-08-18T11:43:31.000Z</time>
      </trkpt>
      <trkpt lat="51.6507546789944171905517578125" lon="12.5909266434609889984130859375">
        <ele>120</ele>
        <time>2018-08-18T11:43:37.000Z</time>
      </trkpt>
      <trkpt lat="51.65137301199138164520263671875" lon="12.59099428541958332061767578125">
        <ele>120.1999969482421875</ele>
        <time>2018-08-18T11:43:44.000Z</time>
      </trkpt>
      <trkpt lat="51.6519311629235744476318359375" lon="12.5910446606576442718505859375">
        <ele>119.40000152587890625</ele>
        <time>2018-08-18T11:43:50.000Z</time>
      </trkpt>
      <trkpt lat="51.65232519619166851043701171875" lon="12.59109268896281719207763671875">
        <ele>118.8000030517578125</ele>
        <time>2018-08-18T11:43:54.000Z</time>
      </trkpt>
      <trkpt lat="51.6529423557221889495849609375" lon="12.5911968760192394256591796875">
        <ele>117.59999847412109375</ele>
        <time>2018-08-18T11:44:00.000Z</time>
      </trkpt>
      <trkpt lat="51.6533637978136539459228515625" lon="12.5912689603865146636962890625">
        <ele>116.40000152587890625</ele>
        <time>2018-08-18T11:44:04.000Z</time>
      </trkpt>
      <trkpt lat="51.6536859981715679168701171875" lon="12.5913400389254093170166015625">
        <ele>115.40000152587890625</ele>
        <time>2018-08-18T11:44:07.000Z</time>
      </trkpt>
      <trkpt lat="51.65411473251879215240478515625" lon="12.59142930619418621063232421875">
        <ele>114.40000152587890625</ele>
        <time>2018-08-18T11:44:11.000Z</time>
      </trkpt>
      <trkpt lat="51.65443089790642261505126953125" lon="12.59149200282990932464599609375">
        <ele>113.1999969482421875</ele>
        <time>2018-08-18T11:44:14.000Z</time>
      </trkpt>
      <trkpt lat="51.65463658981025218963623046875" lon="12.59152670390903949737548828125">
        <ele>112.1999969482421875</ele>
        <time>2018-08-18T11:44:16.000Z</time>
      </trkpt>
      <trkpt lat="51.65514503605663776397705078125" lon="12.59161203168332576751708984375">
        <ele>111</ele>
        <time>2018-08-18T11:44:21.000Z</time>
      </trkpt>
      <trkpt lat="51.65573311038315296173095703125" lon="12.59171043522655963897705078125">
        <ele>110.59999847412109375</ele>
        <time>2018-08-18T11:44:27.000Z</time>
      </trkpt>
      <trkpt lat="51.656285226345062255859375" lon="12.59181587956845760345458984375">
        <ele>110.59999847412109375</ele>
        <time>2018-08-18T11:44:33.000Z</time>
      </trkpt>
      <trkpt lat="51.65687464177608489990234375" lon="12.59211947210133075714111328125">
        <ele>111</ele>
        <time>2018-08-18T11:44:40.000Z</time>
      </trkpt>
      <trkpt lat="51.657250486314296722412109375" lon="12.59246061556041240692138671875">
        <ele>111.8000030517578125</ele>
        <time>2018-08-18T11:44:45.000Z</time>
      </trkpt>
      <trkpt lat="51.65772490203380584716796875" lon="12.59303377009928226470947265625">
        <ele>112</ele>
        <time>2018-08-18T11:44:52.000Z</time>
      </trkpt>
      <trkpt lat="51.65818179957568645477294921875" lon="12.59360860101878643035888671875">
        <ele>112</ele>
        <time>2018-08-18T11:44:59.000Z</time>
      </trkpt>
      <trkpt lat="51.658652611076831817626953125" lon="12.5941969268023967742919921875">
        <ele>112.1999969482421875</ele>
        <time>2018-08-18T11:45:06.000Z</time>
      </trkpt>
      <trkpt lat="51.6591282002627849578857421875" lon="12.59480570442974567413330078125">
        <ele>112.40000152587890625</ele>
        <time>2018-08-18T11:45:13.000Z</time>
      </trkpt>
      <trkpt lat="51.65959716774523258209228515625" lon="12.59541238658130168914794921875">
        <ele>112.8000030517578125</ele>
        <time>2018-08-18T11:45:20.000Z</time>
      </trkpt>
      <trkpt lat="51.6596646420657634735107421875" lon="12.59549687616527080535888671875">
        <ele>113</ele>
        <time>2018-08-18T11:45:21.000Z</time>
      </trkpt>
      <trkpt lat="51.66011801920831203460693359375" lon="12.59606592357158660888671875">
        <ele>113.8000030517578125</ele>
        <time>2018-08-18T11:45:28.000Z</time>
      </trkpt>
      <trkpt lat="51.66018088348209857940673828125" lon="12.59614177979528903961181640625">
        <ele>114</ele>
        <time>2018-08-18T11:45:29.000Z</time>
      </trkpt>
      <trkpt lat="51.660555638372898101806640625" lon="12.59657445363700389862060546875">
        <ele>115</ele>
        <time>2018-08-18T11:45:35.000Z</time>
      </trkpt>
      <trkpt lat="51.6609852947294712066650390625" lon="12.59707032702863216400146484375">
        <ele>116</ele>
        <time>2018-08-18T11:45:42.000Z</time>
      </trkpt>
      <trkpt lat="51.6613514162600040435791015625" lon="12.59748606942594051361083984375">
        <ele>117.1999969482421875</ele>
        <time>2018-08-18T11:45:48.000Z</time>
      </trkpt>
      <trkpt lat="51.6617705114185810089111328125" lon="12.59795562364161014556884765625">
        <ele>118</ele>
        <time>2018-08-18T11:45:55.000Z</time>
      </trkpt>
      <trkpt lat="51.66227166540920734405517578125" lon="12.598513104021549224853515625">
        <ele>118.8000030517578125</ele>
        <time>2018-08-18T11:46:03.000Z</time>
      </trkpt>
      <trkpt lat="51.66251809336245059967041015625" lon="12.59880286641418933868408203125">
        <ele>119</ele>
        <time>2018-08-18T11:46:07.000Z</time>
      </trkpt>
      <trkpt lat="51.66289075277745723724365234375" lon="12.5992126576602458953857421875">
        <ele>120.1999969482421875</ele>
        <time>2018-08-18T11:46:13.000Z</time>
      </trkpt>
      <trkpt lat="51.66344144381582736968994140625" lon="12.59965446777641773223876953125">
        <ele>120.8000030517578125</ele>
        <time>2018-08-18T11:46:21.000Z</time>
      </trkpt>
      <trkpt lat="51.663986854255199432373046875" lon="12.5998681224882602691650390625">
        <ele>121</ele>
        <time>2018-08-18T11:46:28.000Z</time>
      </trkpt>
      <trkpt lat="51.66458322666585445404052734375" lon="12.59992017410695552825927734375">
        <ele>120.8000030517578125</ele>
        <time>2018-08-18T11:46:35.000Z</time>
      </trkpt>
      <trkpt lat="51.66517633013427257537841796875" lon="12.59994364343583583831787109375">
        <ele>120</ele>
        <time>2018-08-18T11:46:42.000Z</time>
      </trkpt>
      <trkpt lat="51.665756441652774810791015625" lon="12.59997549466788768768310546875">
        <ele>119.40000152587890625</ele>
        <time>2018-08-18T11:46:49.000Z</time>
      </trkpt>
      <trkpt lat="51.66636739857494831085205078125" lon="12.60001589544117450714111328125">
        <ele>119.40000152587890625</ele>
        <time>2018-08-18T11:46:57.000Z</time>
      </trkpt>
      <trkpt lat="51.6669475100934505462646484375" lon="12.60005378164350986480712890625">
        <ele>120</ele>
        <time>2018-08-18T11:47:05.000Z</time>
      </trkpt>
      <trkpt lat="51.66736342012882232666015625" lon="12.6000679470598697662353515625">
        <ele>121</ele>
        <time>2018-08-18T11:47:11.000Z</time>
      </trkpt>
      <trkpt lat="51.66762468405067920684814453125" lon="12.6000719703733921051025390625">
        <ele>122</ele>
        <time>2018-08-18T11:47:15.000Z</time>
      </trkpt>
      <trkpt lat="51.6678718663752079010009765625" lon="12.6000756584107875823974609375">
        <ele>123</ele>
        <time>2018-08-18T11:47:19.000Z</time>
      </trkpt>
      <trkpt lat="51.66810396127402782440185546875" lon="12.60007289238274097442626953125">
        <ele>124.1999969482421875</ele>
        <time>2018-08-18T11:47:23.000Z</time>
      </trkpt>
      <trkpt lat="51.6683952324092388153076171875" lon="12.6000907458364963531494140625">
        <ele>125.1999969482421875</ele>
        <time>2018-08-18T11:47:28.000Z</time>
      </trkpt>
      <trkpt lat="51.668682061135768890380859375" lon="12.6001207530498504638671875">
        <ele>126.40000152587890625</ele>
        <time>2018-08-18T11:47:33.000Z</time>
      </trkpt>
      <trkpt lat="51.668960340321063995361328125" lon="12.60018688626587390899658203125">
        <ele>127.59999847412109375</ele>
        <time>2018-08-18T11:47:38.000Z</time>
      </trkpt>
      <trkpt lat="51.66920936666429042816162109375" lon="12.60027137584984302520751953125">
        <ele>128.600006103515625</ele>
        <time>2018-08-18T11:47:42.000Z</time>
      </trkpt>
      <trkpt lat="51.6694557107985019683837890625" lon="12.600376904010772705078125">
        <ele>129.8000030517578125</ele>
        <time>2018-08-18T11:47:46.000Z</time>
      </trkpt>
      <trkpt lat="51.6696320660412311553955078125" lon="12.6004474796354770660400390625">
        <ele>130.600006103515625</ele>
        <time>2018-08-18T11:47:49.000Z</time>
      </trkpt>
      <trkpt lat="51.6696907393634319305419921875" lon="12.60046583600342273712158203125">
        <ele>130.8000030517578125</ele>
        <time>2018-08-18T11:47:50.000Z</time>
      </trkpt>
      <trkpt lat="51.66998100467026233673095703125" lon="12.6005426980555057525634765625">
        <ele>131.8000030517578125</ele>
        <time>2018-08-18T11:47:55.000Z</time>
      </trkpt>
      <trkpt lat="51.67027872987091541290283203125" lon="12.60063699446618556976318359375">
        <ele>133</ele>
        <time>2018-08-18T11:48:00.000Z</time>
      </trkpt>
      <trkpt lat="51.6707247309386730194091796875" lon="12.6007683388888835906982421875">
        <ele>134</ele>
        <time>2018-08-18T11:48:07.000Z</time>
      </trkpt>
      <trkpt lat="51.67105548083782196044921875" lon="12.6008732803165912628173828125">
        <ele>135</ele>
        <time>2018-08-18T11:48:12.000Z</time>
      </trkpt>
      <trkpt lat="51.67158387601375579833984375" lon="12.60105273686349391937255859375">
        <ele>135.8000030517578125</ele>
        <time>2018-08-18T11:48:20.000Z</time>
      </trkpt>
      <trkpt lat="51.671780683100223541259765625" lon="12.6011284254491329193115234375">
        <ele>136</ele>
        <time>2018-08-18T11:48:23.000Z</time>
      </trkpt>
      <trkpt lat="51.67227982543408870697021484375" lon="12.60147652588784694671630859375">
        <ele>136.600006103515625</ele>
        <time>2018-08-18T11:48:31.000Z</time>
      </trkpt>
      <trkpt lat="51.67264980264008045196533203125" lon="12.60191624052822589874267578125">
        <ele>137</ele>
        <time>2018-08-18T11:48:37.000Z</time>
      </trkpt>
      <trkpt lat="51.6730719991028308868408203125" lon="12.6026227511465549468994140625">
        <ele>137.1999969482421875</ele>
        <time>2018-08-18T11:48:44.000Z</time>
      </trkpt>
      <trkpt lat="51.6734418086707592010498046875" lon="12.6033446006476879119873046875">
        <ele>137.399993896484375</ele>
        <time>2018-08-18T11:48:51.000Z</time>
      </trkpt>
      <trkpt lat="51.67374297045171260833740234375" lon="12.60378825478255748748779296875">
        <ele>137.8000030517578125</ele>
        <time>2018-08-18T11:48:56.000Z</time>
      </trkpt>
      <trkpt lat="51.6742072440683841705322265625" lon="12.60426769964396953582763671875">
        <ele>138.8000030517578125</ele>
        <time>2018-08-18T11:49:03.000Z</time>
      </trkpt>
      <trkpt lat="51.674277819693088531494140625" lon="12.60432419367134571075439453125">
        <ele>138.8000030517578125</ele>
        <time>2018-08-18T11:49:04.000Z</time>
      </trkpt>
      <trkpt lat="51.67477226816117763519287109375" lon="12.6046625711023807525634765625">
        <ele>140</ele>
        <time>2018-08-18T11:49:11.000Z</time>
      </trkpt>
      <trkpt lat="51.675291694700717926025390625" lon="12.60492349974811077117919921875">
        <ele>140.8000030517578125</ele>
        <time>2018-08-18T11:49:18.000Z</time>
      </trkpt>
      <trkpt lat="51.67536235414445400238037109375" lon="12.60495434515178203582763671875">
        <ele>141</ele>
        <time>2018-08-18T11:49:19.000Z</time>
      </trkpt>
      <trkpt lat="51.67592343874275684356689453125" lon="12.6052915491163730621337890625">
        <ele>141.8000030517578125</ele>
        <time>2018-08-18T11:49:27.000Z</time>
      </trkpt>
      <trkpt lat="51.67613198049366474151611328125" lon="12.6054610311985015869140625">
        <ele>142</ele>
        <time>2018-08-18T11:49:30.000Z</time>
      </trkpt>
      <trkpt lat="51.67664830572903156280517578125" lon="12.60591658763587474822998046875">
        <ele>142.8000030517578125</ele>
        <time>2018-08-18T11:49:38.000Z</time>
      </trkpt>
      <trkpt lat="51.67671435512602329254150390625" lon="12.605978362262248992919921875">
        <ele>143</ele>
        <time>2018-08-18T11:49:39.000Z</time>
      </trkpt>
      <trkpt lat="51.67718223296105861663818359375" lon="12.60641656816005706787109375">
        <ele>143.8000030517578125</ele>
        <time>2018-08-18T11:49:46.000Z</time>
      </trkpt>
      <trkpt lat="51.6773843206465244293212890625" lon="12.60659300722181797027587890625">
        <ele>143.8000030517578125</ele>
        <time>2018-08-18T11:49:49.000Z</time>
      </trkpt>
      <trkpt lat="51.6778781823813915252685546875" lon="12.60701562277972698211669921875">
        <ele>144.1999969482421875</ele>
        <time>2018-08-18T11:49:56.000Z</time>
      </trkpt>
      <trkpt lat="51.6782248578965663909912109375" lon="12.60726758278906345367431640625">
        <ele>144.8000030517578125</ele>
        <time>2018-08-18T11:50:01.000Z</time>
      </trkpt>
      <trkpt lat="51.67873707599937915802001953125" lon="12.6075724326074123382568359375">
        <ele>145.8000030517578125</ele>
        <time>2018-08-18T11:50:08.000Z</time>
      </trkpt>
      <trkpt lat="51.678882502019405364990234375" lon="12.6076468639075756072998046875">
        <ele>146.1999969482421875</ele>
        <time>2018-08-18T11:50:10.000Z</time>
      </trkpt>
      <trkpt lat="51.67945825494825839996337890625" lon="12.607942409813404083251953125">
        <ele>147.1999969482421875</ele>
        <time>2018-08-18T11:50:18.000Z</time>
      </trkpt>
      <trkpt lat="51.67995463125407695770263671875" lon="12.6082932762801647186279296875">
        <ele>148</ele>
        <time>2018-08-18T11:50:25.000Z</time>
      </trkpt>
      <trkpt lat="51.680161245167255401611328125" lon="12.60851246304810047149658203125">
        <ele>148.399993896484375</ele>
        <time>2018-08-18T11:50:28.000Z</time>
      </trkpt>
      <trkpt lat="51.6806088387966156005859375" lon="12.6090739667415618896484375">
        <ele>149.399993896484375</ele>
        <time>2018-08-18T11:50:35.000Z</time>
      </trkpt>
      <trkpt lat="51.6810170374810695648193359375" lon="12.6095889508724212646484375">
        <ele>150.600006103515625</ele>
        <time>2018-08-18T11:50:42.000Z</time>
      </trkpt>
      <trkpt lat="51.68129540048539638519287109375" lon="12.60992095805704593658447265625">
        <ele>151.600006103515625</ele>
        <time>2018-08-18T11:50:47.000Z</time>
      </trkpt>
      <trkpt lat="51.681521795690059661865234375" lon="12.610178031027317047119140625">
        <ele>152.600006103515625</ele>
        <time>2018-08-18T11:50:51.000Z</time>
      </trkpt>
      <trkpt lat="51.6817479394376277923583984375" lon="12.61043208651244640350341796875">
        <ele>153.8000030517578125</ele>
        <time>2018-08-18T11:50:55.000Z</time>
      </trkpt>
      <trkpt lat="51.68202881701290607452392578125" lon="12.61073601432144641876220703125">
        <ele>155</ele>
        <time>2018-08-18T11:51:00.000Z</time>
      </trkpt>
      <trkpt lat="51.68231296353042125701904296875" lon="12.61102938093245029449462890625">
        <ele>156</ele>
        <time>2018-08-18T11:51:05.000Z</time>
      </trkpt>
      <trkpt lat="51.68248311616480350494384765625" lon="12.6112004555761814117431640625">
        <ele>157</ele>
        <time>2018-08-18T11:51:08.000Z</time>
      </trkpt>
      <trkpt lat="51.68265829794108867645263671875" lon="12.6113617233932018280029296875">
        <ele>158.1999969482421875</ele>
        <time>2018-08-18T11:51:11.000Z</time>
      </trkpt>
      <trkpt lat="51.68289802037179470062255859375" lon="12.61155568063259124755859375">
        <ele>159.399993896484375</ele>
        <time>2018-08-18T11:51:15.000Z</time>
      </trkpt>
      <trkpt lat="51.683227680623531341552734375" lon="12.61176212690770626068115234375">
        <ele>160.399993896484375</ele>
        <time>2018-08-18T11:51:20.000Z</time>
      </trkpt>
      <trkpt lat="51.683774851262569427490234375" lon="12.611916102468967437744140625">
        <ele>160.600006103515625</ele>
        <time>2018-08-18T11:51:27.000Z</time>
      </trkpt>
      <trkpt lat="51.68432512320578098297119140625" lon="12.6119330339133739471435546875">
        <ele>160</ele>
        <time>2018-08-18T11:51:33.000Z</time>
      </trkpt>
      <trkpt lat="51.68480875901877880096435546875" lon="12.6119506359100341796875">
        <ele>158.8000030517578125</ele>
        <time>2018-08-18T11:51:38.000Z</time>
      </trkpt>
      <trkpt lat="51.68500741012394428253173828125" lon="12.611995898187160491943359375">
        <ele>157.8000030517578125</ele>
        <time>2018-08-18T11:51:40.000Z</time>
      </trkpt>
      <trkpt lat="51.68529264628887176513671875" lon="12.612102515995502471923828125">
        <ele>156.399993896484375</ele>
        <time>2018-08-18T11:51:43.000Z</time>
      </trkpt>
      <trkpt lat="51.6855845041573047637939453125" lon="12.61224995367228984832763671875">
        <ele>155</ele>
        <time>2018-08-18T11:51:46.000Z</time>
      </trkpt>
      <trkpt lat="51.68586454354226589202880859375" lon="12.61239445768296718597412109375">
        <ele>153.8000030517578125</ele>
        <time>2018-08-18T11:51:49.000Z</time>
      </trkpt>
      <trkpt lat="51.68645295314490795135498046875" lon="12.61257869191467761993408203125">
        <ele>152.8000030517578125</ele>
        <time>2018-08-18T11:51:55.000Z</time>
      </trkpt>
      <trkpt lat="51.68703163973987102508544921875" lon="12.61267927475273609161376953125">
        <ele>152</ele>
        <time>2018-08-18T11:52:01.000Z</time>
      </trkpt>
      <trkpt lat="51.68743162415921688079833984375" lon="12.61272780597209930419921875">
        <ele>151.600006103515625</ele>
        <time>2018-08-18T11:52:05.000Z</time>
      </trkpt>
      <trkpt lat="51.6879622824490070343017578125" lon="12.6127980463206768035888671875">
        <ele>150.600006103515625</ele>
        <time>2018-08-18T11:52:10.000Z</time>
      </trkpt>
      <trkpt lat="51.6883924417197704315185546875" lon="12.61286954395473003387451171875">
        <ele>149.399993896484375</ele>
        <time>2018-08-18T11:52:14.000Z</time>
      </trkpt>
      <trkpt lat="51.68882888741791248321533203125" lon="12.61295470409095287322998046875">
        <ele>148</ele>
        <time>2018-08-18T11:52:18.000Z</time>
      </trkpt>
      <trkpt lat="51.689174473285675048828125" lon="12.6130731403827667236328125">
        <ele>146.399993896484375</ele>
        <time>2018-08-18T11:52:21.000Z</time>
      </trkpt>
      <trkpt lat="51.68940103612840175628662109375" lon="12.6132010482251644134521484375">
        <ele>145.399993896484375</ele>
        <time>2018-08-18T11:52:23.000Z</time>
      </trkpt>
      <trkpt lat="51.6897090710699558258056640625" lon="12.61340481229126453399658203125">
        <ele>143.8000030517578125</ele>
        <time>2018-08-18T11:52:26.000Z</time>
      </trkpt>
      <trkpt lat="51.68989892117679119110107421875" lon="12.6135425269603729248046875">
        <ele>142.8000030517578125</ele>
        <time>2018-08-18T11:52:28.000Z</time>
      </trkpt>
      <trkpt lat="51.69018055312335491180419921875" lon="12.6137391664087772369384765625">
        <ele>141.8000030517578125</ele>
        <time>2018-08-18T11:52:31.000Z</time>
      </trkpt>
      <trkpt lat="51.69073727913200855255126953125" lon="12.61411375366151332855224609375">
        <ele>141</ele>
        <time>2018-08-18T11:52:37.000Z</time>
      </trkpt>
      <trkpt lat="51.69083048589527606964111328125" lon="12.614161781966686248779296875">
        <ele>140.8000030517578125</ele>
        <time>2018-08-18T11:52:38.000Z</time>
      </trkpt>
      <trkpt lat="51.691398359835147857666015625" lon="12.6143101416528224945068359375">
        <ele>140.1999969482421875</ele>
        <time>2018-08-18T11:52:44.000Z</time>
      </trkpt>
      <trkpt lat="51.69173556379973888397216796875" lon="12.61433310806751251220703125">
        <ele>139.600006103515625</ele>
        <time>2018-08-18T11:52:47.000Z</time>
      </trkpt>
      <trkpt lat="51.69207620434463024139404296875" lon="12.614298574626445770263671875">
        <ele>138.600006103515625</ele>
        <time>2018-08-18T11:52:50.000Z</time>
      </trkpt>
      <trkpt lat="51.69240326620638370513916015625" lon="12.61423378251492977142333984375">
        <ele>137.600006103515625</ele>
        <time>2018-08-18T11:52:53.000Z</time>
      </trkpt>
      <trkpt lat="51.69282923452556133270263671875" lon="12.614152729511260986328125">
        <ele>136.399993896484375</ele>
        <time>2018-08-18T11:52:57.000Z</time>
      </trkpt>
      <trkpt lat="51.69331823475658893585205078125" lon="12.6140560023486614227294921875">
        <ele>135.399993896484375</ele>
        <time>2018-08-18T11:53:02.000Z</time>
      </trkpt>
      <trkpt lat="51.69390999712049961090087890625" lon="12.61394091881811618804931640625">
        <ele>135</ele>
        <time>2018-08-18T11:53:08.000Z</time>
      </trkpt>
      <trkpt lat="51.69428500346839427947998046875" lon="12.61397461406886577606201171875">
        <ele>134.8000030517578125</ele>
        <time>2018-08-18T11:53:12.000Z</time>
      </trkpt>
      <trkpt lat="51.69486637227237224578857421875" lon="12.61435833759605884552001953125">
        <ele>134.8000030517578125</ele>
        <time>2018-08-18T11:53:18.000Z</time>
      </trkpt>
      <trkpt lat="51.6954094357788562774658203125" lon="12.61483744718134403228759765625">
        <ele>134.399993896484375</ele>
        <time>2018-08-18T11:53:24.000Z</time>
      </trkpt>
      <trkpt lat="51.69566013850271701812744140625" lon="12.61506266891956329345703125">
        <ele>134.1999969482421875</ele>
        <time>2018-08-18T11:53:27.000Z</time>
      </trkpt>
      <trkpt lat="51.69616640545427799224853515625" lon="12.61550816707313060760498046875">
        <ele>134</ele>
        <time>2018-08-18T11:53:34.000Z</time>
      </trkpt>
      <trkpt lat="51.6965544037520885467529296875" lon="12.6157950796186923980712890625">
        <ele>135.1999969482421875</ele>
        <time>2018-08-18T11:53:40.000Z</time>
      </trkpt>
      <trkpt lat="51.696929745376110076904296875" lon="12.61597369797527790069580078125">
        <ele>136.1999969482421875</ele>
        <time>2018-08-18T11:53:46.000Z</time>
      </trkpt>
      <trkpt lat="51.6972631774842739105224609375" lon="12.61604846455156803131103515625">
        <ele>137.600006103515625</ele>
        <time>2018-08-18T11:53:51.000Z</time>
      </trkpt>
      <trkpt lat="51.697604991495609283447265625" lon="12.61605533771216869354248046875">
        <ele>138.600006103515625</ele>
        <time>2018-08-18T11:53:56.000Z</time>
      </trkpt>
      <trkpt lat="51.69794772751629352569580078125" lon="12.61602197773754596710205078125">
        <ele>139.8000030517578125</ele>
        <time>2018-08-18T11:54:01.000Z</time>
      </trkpt>
      <trkpt lat="51.69853228144347667694091796875" lon="12.61592541821300983428955078125">
        <ele>140.600006103515625</ele>
        <time>2018-08-18T11:54:09.000Z</time>
      </trkpt>
      <trkpt lat="51.69868416152894496917724609375" lon="12.615914605557918548583984375">
        <ele>140.8000030517578125</ele>
        <time>2018-08-18T11:54:11.000Z</time>
      </trkpt>
      <trkpt lat="51.69925086200237274169921875" lon="12.61589038185775279998779296875">
        <ele>140.8000030517578125</ele>
        <time>2018-08-18T11:54:18.000Z</time>
      </trkpt>
      <trkpt lat="51.69979132711887359619140625" lon="12.61590613983571529388427734375">
        <ele>140.8000030517578125</ele>
        <time>2018-08-18T11:54:25.000Z</time>
      </trkpt>
      <trkpt lat="51.70022089965641498565673828125" lon="12.61595106683671474456787109375">
        <ele>141.600006103515625</ele>
        <time>2018-08-18T11:54:31.000Z</time>
      </trkpt>
      <trkpt lat="51.70056623406708240509033203125" lon="12.61609263718128204345703125">
        <ele>142.8000030517578125</ele>
        <time>2018-08-18T11:54:36.000Z</time>
      </trkpt>
      <trkpt lat="51.7010311782360076904296875" lon="12.61640243232250213623046875">
        <ele>143.8000030517578125</ele>
        <time>2018-08-18T11:54:43.000Z</time>
      </trkpt>
      <trkpt lat="51.7015771754086017608642578125" lon="12.6168069429695606231689453125">
        <ele>144.8000030517578125</ele>
        <time>2018-08-18T11:54:51.000Z</time>
      </trkpt>
      <trkpt lat="51.7021276988089084625244140625" lon="12.6171462424099445343017578125">
        <ele>145.600006103515625</ele>
        <time>2018-08-18T11:54:59.000Z</time>
      </trkpt>
      <trkpt lat="51.7022789083421230316162109375" lon="12.6171948574483394622802734375">
        <ele>146</ele>
        <time>2018-08-18T11:55:01.000Z</time>
      </trkpt>
      <trkpt lat="51.7028327845036983489990234375" lon="12.61730792932212352752685546875">
        <ele>147</ele>
        <time>2018-08-18T11:55:08.000Z</time>
      </trkpt>
      <trkpt lat="51.7034349404275417327880859375" lon="12.6174342446029186248779296875">
        <ele>147</ele>
        <time>2018-08-18T11:55:15.000Z</time>
      </trkpt>
      <trkpt lat="51.70404338277876377105712890625" lon="12.61760498397052288055419921875">
        <ele>146.8000030517578125</ele>
        <time>2018-08-18T11:55:22.000Z</time>
      </trkpt>
      <trkpt lat="51.70458334498107433319091796875" lon="12.61776206083595752716064453125">
        <ele>146.399993896484375</ele>
        <time>2018-08-18T11:55:28.000Z</time>
      </trkpt>
      <trkpt lat="51.70496019534766674041748046875" lon="12.617871947586536407470703125">
        <ele>145.8000030517578125</ele>
        <time>2018-08-18T11:55:32.000Z</time>
      </trkpt>
      <trkpt lat="51.70545053668320178985595703125" lon="12.618005387485027313232421875">
        <ele>144.600006103515625</ele>
        <time>2018-08-18T11:55:37.000Z</time>
      </trkpt>
      <trkpt lat="51.70604414306581020355224609375" lon="12.61816891841590404510498046875">
        <ele>143.399993896484375</ele>
        <time>2018-08-18T11:55:43.000Z</time>
      </trkpt>
      <trkpt lat="51.70635025016963481903076171875" lon="12.6182539947330951690673828125">
        <ele>142</ele>
        <time>2018-08-18T11:55:46.000Z</time>
      </trkpt>
      <trkpt lat="51.70676909387111663818359375" lon="12.61835901997983455657958984375">
        <ele>141</ele>
        <time>2018-08-18T11:55:50.000Z</time>
      </trkpt>
      <trkpt lat="51.70709389261901378631591796875" lon="12.6184407435357570648193359375">
        <ele>140</ele>
        <time>2018-08-18T11:55:53.000Z</time>
      </trkpt>
      <trkpt lat="51.70742363668978214263916015625" lon="12.61852179653942584991455078125">
        <ele>138.8000030517578125</ele>
        <time>2018-08-18T11:55:56.000Z</time>
      </trkpt>
      <trkpt lat="51.7076453380286693572998046875" lon="12.61857594363391399383544921875">
        <ele>137.399993896484375</ele>
        <time>2018-08-18T11:55:58.000Z</time>
      </trkpt>
      <trkpt lat="51.707867123186588287353515625" lon="12.6186315156519412994384765625">
        <ele>135.8000030517578125</ele>
        <time>2018-08-18T11:56:00.000Z</time>
      </trkpt>
      <trkpt lat="51.70809234492480754852294921875" lon="12.6186871714890003204345703125">
        <ele>134.8000030517578125</ele>
        <time>2018-08-18T11:56:02.000Z</time>
      </trkpt>
      <trkpt lat="51.7084421217441558837890625" lon="12.618774510920047760009765625">
        <ele>133.600006103515625</ele>
        <time>2018-08-18T11:56:05.000Z</time>
      </trkpt>
      <trkpt lat="51.7086813412606716156005859375" lon="12.61882941238582134246826171875">
        <ele>132.1999969482421875</ele>
        <time>2018-08-18T11:56:07.000Z</time>
      </trkpt>
      <trkpt lat="51.709040589630603790283203125" lon="12.6188814640045166015625">
        <ele>131</ele>
        <time>2018-08-18T11:56:10.000Z</time>
      </trkpt>
      <trkpt lat="51.70940562151372432708740234375" lon="12.618885152041912078857421875">
        <ele>129.600006103515625</ele>
        <time>2018-08-18T11:56:13.000Z</time>
      </trkpt>
      <trkpt lat="51.70965070836246013641357421875" lon="12.61886679567396640777587890625">
        <ele>128.399993896484375</ele>
        <time>2018-08-18T11:56:15.000Z</time>
      </trkpt>
      <trkpt lat="51.70989545993506908416748046875" lon="12.6188417337834835052490234375">
        <ele>127.40000152587890625</ele>
        <time>2018-08-18T11:56:17.000Z</time>
      </trkpt>
      <trkpt lat="51.71025990508496761322021484375" lon="12.61879672296345233917236328125">
        <ele>126</ele>
        <time>2018-08-18T11:56:20.000Z</time>
      </trkpt>
      <trkpt lat="51.71049828641116619110107421875" lon="12.61876621283590793609619140625">
        <ele>125</ele>
        <time>2018-08-18T11:56:22.000Z</time>
      </trkpt>
      <trkpt lat="51.71072862111032009124755859375" lon="12.6187347806990146636962890625">
        <ele>123.8000030517578125</ele>
        <time>2018-08-18T11:56:24.000Z</time>
      </trkpt>
      <trkpt lat="51.7110651545226573944091796875" lon="12.61869630776345729827880859375">
        <ele>122.59999847412109375</ele>
        <time>2018-08-18T11:56:27.000Z</time>
      </trkpt>
      <trkpt lat="51.711608134210109710693359375" lon="12.6186668872833251953125">
        <ele>122</ele>
        <time>2018-08-18T11:56:32.000Z</time>
      </trkpt>
      <trkpt lat="51.7122225277125835418701171875" lon="12.61866864748299121856689453125">
        <ele>122</ele>
        <time>2018-08-18T11:56:38.000Z</time>
      </trkpt>
      <trkpt lat="51.7128166370093822479248046875" lon="12.6187066175043582916259765625">
        <ele>122.1999969482421875</ele>
        <time>2018-08-18T11:56:44.000Z</time>
      </trkpt>
      <trkpt lat="51.7133913002908229827880859375" lon="12.61874157004058361053466796875">
        <ele>122.40000152587890625</ele>
        <time>2018-08-18T11:56:50.000Z</time>
      </trkpt>
      <trkpt lat="51.713985241949558258056640625" lon="12.61867158114910125732421875">
        <ele>122.40000152587890625</ele>
        <time>2018-08-18T11:56:56.000Z</time>
      </trkpt>
      <trkpt lat="51.71459854580461978912353515625" lon="12.61842171661555767059326171875">
        <ele>122</ele>
        <time>2018-08-18T11:57:02.000Z</time>
      </trkpt>
      <trkpt lat="51.715010516345500946044921875" lon="12.61822507716715335845947265625">
        <ele>121.40000152587890625</ele>
        <time>2018-08-18T11:57:06.000Z</time>
      </trkpt>
      <trkpt lat="51.715551316738128662109375" lon="12.61805576272308826446533203125">
        <ele>120</ele>
        <time>2018-08-18T11:57:11.000Z</time>
      </trkpt>
      <trkpt lat="51.716114580631256103515625" lon="12.61790539138019084930419921875">
        <ele>118.8000030517578125</ele>
        <time>2018-08-18T11:57:16.000Z</time>
      </trkpt>
      <trkpt lat="51.7165740765631198883056640625" lon="12.6177792437374591827392578125">
        <ele>117.59999847412109375</ele>
        <time>2018-08-18T11:57:20.000Z</time>
      </trkpt>
      <trkpt lat="51.71703415922820568084716796875" lon="12.61767111718654632568359375">
        <ele>116.1999969482421875</ele>
        <time>2018-08-18T11:57:24.000Z</time>
      </trkpt>
      <trkpt lat="51.7173881269991397857666015625" lon="12.61759039945900440216064453125">
        <ele>114.8000030517578125</ele>
        <time>2018-08-18T11:57:27.000Z</time>
      </trkpt>
      <trkpt lat="51.71773807145655155181884765625" lon="12.6175217516720294952392578125">
        <ele>113.59999847412109375</ele>
        <time>2018-08-18T11:57:30.000Z</time>
      </trkpt>
      <trkpt lat="51.71809933148324489593505859375" lon="12.6174838654696941375732421875">
        <ele>112.40000152587890625</ele>
        <time>2018-08-18T11:57:33.000Z</time>
      </trkpt>
      <trkpt lat="51.718346178531646728515625" lon="12.61745746247470378875732421875">
        <ele>111.1999969482421875</ele>
        <time>2018-08-18T11:57:35.000Z</time>
      </trkpt>
      <trkpt lat="51.718809194862842559814453125" lon="12.6174030639231204986572265625">
        <ele>110</ele>
        <time>2018-08-18T11:57:39.000Z</time>
      </trkpt>
      <trkpt lat="51.71926374547183513641357421875" lon="12.61735771782696247100830078125">
        <ele>108.59999847412109375</ele>
        <time>2018-08-18T11:57:43.000Z</time>
      </trkpt>
      <trkpt lat="51.7198047973215579986572265625" lon="12.61729099787771701812744140625">
        <ele>108</ele>
        <time>2018-08-18T11:57:48.000Z</time>
      </trkpt>
      <trkpt lat="51.72042153775691986083984375" lon="12.6172371022403240203857421875">
        <ele>108</ele>
        <time>2018-08-18T11:57:54.000Z</time>
      </trkpt>
      <trkpt lat="51.7209769226610660552978515625" lon="12.6171324960887432098388671875">
        <ele>108</ele>
        <time>2018-08-18T11:58:00.000Z</time>
      </trkpt>
      <trkpt lat="51.72152660787105560302734375" lon="12.6169209368526935577392578125">
        <ele>108</ele>
        <time>2018-08-18T11:58:06.000Z</time>
      </trkpt>
      <trkpt lat="51.72210395336151123046875" lon="12.61670392937958240509033203125">
        <ele>107.8000030517578125</ele>
        <time>2018-08-18T11:58:12.000Z</time>
      </trkpt>
      <trkpt lat="51.72240377403795719146728515625" lon="12.6166419871151447296142578125">
        <ele>107.59999847412109375</ele>
        <time>2018-08-18T11:58:15.000Z</time>
      </trkpt>
      <trkpt lat="51.7230154015123844146728515625" lon="12.61669286526739597320556640625">
        <ele>106.40000152587890625</ele>
        <time>2018-08-18T11:58:21.000Z</time>
      </trkpt>
      <trkpt lat="51.723556034266948699951171875" lon="12.61683049611747264862060546875">
        <ele>105.59999847412109375</ele>
        <time>2018-08-18T11:58:27.000Z</time>
      </trkpt>
      <trkpt lat="51.72411091625690460205078125" lon="12.61694935150444507598876953125">
        <ele>105.59999847412109375</ele>
        <time>2018-08-18T11:58:34.000Z</time>
      </trkpt>
      <trkpt lat="51.72467292286455631256103515625" lon="12.61700014583766460418701171875">
        <ele>107.40000152587890625</ele>
        <time>2018-08-18T11:58:43.000Z</time>
      </trkpt>
      <trkpt lat="51.7247259803116321563720703125" lon="12.616998217999935150146484375">
        <ele>107.59999847412109375</ele>
        <time>2018-08-18T11:58:44.000Z</time>
      </trkpt>
      <trkpt lat="51.72493435442447662353515625" lon="12.61696477420628070831298828125">
        <ele>108.8000030517578125</ele>
        <time>2018-08-18T11:58:48.000Z</time>
      </trkpt>
      <trkpt lat="51.725147254765033721923828125" lon="12.61689889244735240936279296875">
        <ele>110</ele>
        <time>2018-08-18T11:58:52.000Z</time>
      </trkpt>
      <trkpt lat="51.7252939380705356597900390625" lon="12.61682379059493541717529296875">
        <ele>110.8000030517578125</ele>
        <time>2018-08-18T11:58:55.000Z</time>
      </trkpt>
      <trkpt lat="51.7253358475863933563232421875" lon="12.61679797433316707611083984375">
        <ele>111.1999969482421875</ele>
        <time>2018-08-18T11:58:56.000Z</time>
      </trkpt>
      <trkpt lat="51.72537851147353649139404296875" lon="12.61676721274852752685546875">
        <ele>111.40000152587890625</ele>
        <time>2018-08-18T11:58:57.000Z</time>
      </trkpt>
      <trkpt lat="51.72556375153362751007080078125" lon="12.61662044562399387359619140625">
        <ele>112.59999847412109375</ele>
        <time>2018-08-18T11:59:01.000Z</time>
      </trkpt>
      <trkpt lat="51.72580548562109470367431640625" lon="12.61643051169812679290771484375">
        <ele>113.59999847412109375</ele>
        <time>2018-08-18T11:59:06.000Z</time>
      </trkpt>
      <trkpt lat="51.72600195743143558502197265625" lon="12.61629237793385982513427734375">
        <ele>114.8000030517578125</ele>
        <time>2018-08-18T11:59:10.000Z</time>
      </trkpt>
      <trkpt lat="51.72625659964978694915771484375" lon="12.6161085627973079681396484375">
        <ele>115.59999847412109375</ele>
        <time>2018-08-18T11:59:15.000Z</time>
      </trkpt>
      <trkpt lat="51.7265631258487701416015625" lon="12.61590421199798583984375">
        <ele>116.8000030517578125</ele>
        <time>2018-08-18T11:59:21.000Z</time>
      </trkpt>
      <trkpt lat="51.72675683163106441497802734375" lon="12.615797929465770721435546875">
        <ele>117.59999847412109375</ele>
        <time>2018-08-18T11:59:25.000Z</time>
      </trkpt>
      <trkpt lat="51.72680779360234737396240234375" lon="12.6157769747078418731689453125">
        <ele>117.8000030517578125</ele>
        <time>2018-08-18T11:59:26.000Z</time>
      </trkpt>
      <trkpt lat="51.72706327401101589202880859375" lon="12.61568033136427402496337890625">
        <ele>119.1999969482421875</ele>
        <time>2018-08-18T11:59:31.000Z</time>
      </trkpt>
      <trkpt lat="51.72733317129313945770263671875" lon="12.6156267710030078887939453125">
        <ele>120.59999847412109375</ele>
        <time>2018-08-18T11:59:36.000Z</time>
      </trkpt>
      <trkpt lat="51.727642714977264404296875" lon="12.61558192782104015350341796875">
        <ele>121.59999847412109375</ele>
        <time>2018-08-18T11:59:42.000Z</time>
      </trkpt>
      <trkpt lat="51.72790314070880413055419921875" lon="12.6155622303485870361328125">
        <ele>122.8000030517578125</ele>
        <time>2018-08-18T11:59:47.000Z</time>
      </trkpt>
      <trkpt lat="51.72795712016522884368896484375" lon="12.61556558310985565185546875">
        <ele>122.8000030517578125</ele>
        <time>2018-08-18T11:59:48.000Z</time>
      </trkpt>
      <trkpt lat="51.72817521728575229644775390625" lon="12.61557404883205890655517578125">
        <ele>123.59999847412109375</ele>
        <time>2018-08-18T11:59:52.000Z</time>
      </trkpt>
      <trkpt lat="51.72844695858657360076904296875" lon="12.615651749074459075927734375">
        <ele>124.8000030517578125</ele>
        <time>2018-08-18T11:59:57.000Z</time>
      </trkpt>
      <trkpt lat="51.72866438515484333038330078125" lon="12.61575392447412014007568359375">
        <ele>126</ele>
        <time>2018-08-18T12:00:01.000Z</time>
      </trkpt>
      <trkpt lat="51.7288716696202754974365234375" lon="12.61588074266910552978515625">
        <ele>127</ele>
        <time>2018-08-18T12:00:05.000Z</time>
      </trkpt>
      <trkpt lat="51.72907526604831218719482421875" lon="12.6160047948360443115234375">
        <ele>128.1999969482421875</ele>
        <time>2018-08-18T12:00:09.000Z</time>
      </trkpt>
      <trkpt lat="51.72935689799487590789794921875" lon="12.616153657436370849609375">
        <ele>129.1999969482421875</ele>
        <time>2018-08-18T12:00:14.000Z</time>
      </trkpt>
      <trkpt lat="51.72967188991606235504150390625" lon="12.61626002378761768341064453125">
        <ele>130.1999969482421875</ele>
        <time>2018-08-18T12:00:19.000Z</time>
      </trkpt>
      <trkpt lat="51.73025309108197689056396484375" lon="12.6163918711245059967041015625">
        <ele>131</ele>
        <time>2018-08-18T12:00:27.000Z</time>
      </trkpt>
      <trkpt lat="51.73083580099046230316162109375" lon="12.61654936708509922027587890625">
        <ele>131</ele>
        <time>2018-08-18T12:00:34.000Z</time>
      </trkpt>
      <trkpt lat="51.73136151395738124847412109375" lon="12.6168552227318286895751953125">
        <ele>130.600006103515625</ele>
        <time>2018-08-18T12:00:40.000Z</time>
      </trkpt>
      <trkpt lat="51.73184213228523731231689453125" lon="12.61725269258022308349609375">
        <ele>129.8000030517578125</ele>
        <time>2018-08-18T12:00:46.000Z</time>
      </trkpt>
      <trkpt lat="51.7323984391987323760986328125" lon="12.61771679855883121490478515625">
        <ele>129.1999969482421875</ele>
        <time>2018-08-18T12:00:53.000Z</time>
      </trkpt>
      <trkpt lat="51.7329003475606441497802734375" lon="12.618095576763153076171875">
        <ele>129</ele>
        <time>2018-08-18T12:00:59.000Z</time>
      </trkpt>
      <trkpt lat="51.7329851724207401275634765625" lon="12.61815684847533702850341796875">
        <ele>129</ele>
        <time>2018-08-18T12:01:00.000Z</time>
      </trkpt>
      <trkpt lat="51.73353913240134716033935546875" lon="12.61851961724460124969482421875">
        <ele>128.399993896484375</ele>
        <time>2018-08-18T12:01:06.000Z</time>
      </trkpt>
      <trkpt lat="51.7338330857455730438232421875" lon="12.61871315538883209228515625">
        <ele>127.59999847412109375</ele>
        <time>2018-08-18T12:01:09.000Z</time>
      </trkpt>
      <trkpt lat="51.73432216979563236236572265625" lon="12.619052790105342864990234375">
        <ele>126.40000152587890625</ele>
        <time>2018-08-18T12:01:14.000Z</time>
      </trkpt>
      <trkpt lat="51.73482231795787811279296875" lon="12.61939250864088535308837890625">
        <ele>125.1999969482421875</ele>
        <time>2018-08-18T12:01:19.000Z</time>
      </trkpt>
      <trkpt lat="51.73533805646002292633056640625" lon="12.6197315566241741180419921875">
        <ele>124.1999969482421875</ele>
        <time>2018-08-18T12:01:24.000Z</time>
      </trkpt>
      <trkpt lat="51.7357780225574970245361328125" lon="12.6200152002274990081787109375">
        <ele>122.8000030517578125</ele>
        <time>2018-08-18T12:01:28.000Z</time>
      </trkpt>
      <trkpt lat="51.7359999753534793853759765625" lon="12.6201586984097957611083984375">
        <ele>121.59999847412109375</ele>
        <time>2018-08-18T12:01:30.000Z</time>
      </trkpt>
      <trkpt lat="51.73643189482390880584716796875" lon="12.62043152935802936553955078125">
        <ele>120.40000152587890625</ele>
        <time>2018-08-18T12:01:34.000Z</time>
      </trkpt>
      <trkpt lat="51.736759878695011138916015625" lon="12.62064635753631591796875">
        <ele>119.1999969482421875</ele>
        <time>2018-08-18T12:01:37.000Z</time>
      </trkpt>
      <trkpt lat="51.737100519239902496337890625" lon="12.62087325565516948699951171875">
        <ele>118</ele>
        <time>2018-08-18T12:01:40.000Z</time>
      </trkpt>
      <trkpt lat="51.73733328469097614288330078125" lon="12.62102681212127208709716796875">
        <ele>116.8000030517578125</ele>
        <time>2018-08-18T12:01:42.000Z</time>
      </trkpt>
      <trkpt lat="51.73768197186291217803955078125" lon="12.6212577335536479949951171875">
        <ele>115.1999969482421875</ele>
        <time>2018-08-18T12:01:45.000Z</time>
      </trkpt>
      <trkpt lat="51.73791398294270038604736328125" lon="12.62141305021941661834716796875">
        <ele>114.1999969482421875</ele>
        <time>2018-08-18T12:01:47.000Z</time>
      </trkpt>
      <trkpt lat="51.738139204680919647216796875" lon="12.62157331220805644989013671875">
        <ele>113</ele>
        <time>2018-08-18T12:01:49.000Z</time>
      </trkpt>
      <trkpt lat="51.73834967426955699920654296875" lon="12.6217515952885150909423828125">
        <ele>111.8000030517578125</ele>
        <time>2018-08-18T12:01:51.000Z</time>
      </trkpt>
      <trkpt lat="51.7386466450989246368408203125" lon="12.6220322214066982269287109375">
        <ele>110.40000152587890625</ele>
        <time>2018-08-18T12:01:54.000Z</time>
      </trkpt>
      <trkpt lat="51.7389477230608463287353515625" lon="12.6223428547382354736328125">
        <ele>109.1999969482421875</ele>
        <time>2018-08-18T12:01:57.000Z</time>
      </trkpt>
      <trkpt lat="51.7392481304705142974853515625" lon="12.62265709228813648223876953125">
        <ele>108</ele>
        <time>2018-08-18T12:02:00.000Z</time>
      </trkpt>
      <trkpt lat="51.7397493682801723480224609375" lon="12.62319604866206645965576171875">
        <ele>107</ele>
        <time>2018-08-18T12:02:05.000Z</time>
      </trkpt>
      <trkpt lat="51.7398489452898502349853515625" lon="12.6233039237558841705322265625">
        <ele>107</ele>
        <time>2018-08-18T12:02:06.000Z</time>
      </trkpt>
      <trkpt lat="51.74023727886378765106201171875" lon="12.623727209866046905517578125">
        <ele>105.8000030517578125</ele>
        <time>2018-08-18T12:02:10.000Z</time>
      </trkpt>
      <trkpt lat="51.74061597324907779693603515625" lon="12.6241320557892322540283203125">
        <ele>104.59999847412109375</ele>
        <time>2018-08-18T12:02:14.000Z</time>
      </trkpt>
      <trkpt lat="51.7410022951662540435791015625" lon="12.6245504803955554962158203125">
        <ele>103.1999969482421875</ele>
        <time>2018-08-18T12:02:18.000Z</time>
      </trkpt>
      <trkpt lat="51.7413704283535480499267578125" lon="12.62499799020588397979736328125">
        <ele>102.1999969482421875</ele>
        <time>2018-08-18T12:02:22.000Z</time>
      </trkpt>
      <trkpt lat="51.74163772724568843841552734375" lon="12.62535338290035724639892578125">
        <ele>101</ele>
        <time>2018-08-18T12:02:25.000Z</time>
      </trkpt>
      <trkpt lat="51.74192790873348712921142578125" lon="12.62571414001286029815673828125">
        <ele>99.40000152587890625</ele>
        <time>2018-08-18T12:02:28.000Z</time>
      </trkpt>
      <trkpt lat="51.74220501445233821868896484375" lon="12.62605327181518077850341796875">
        <ele>98</ele>
        <time>2018-08-18T12:02:31.000Z</time>
      </trkpt>
      <trkpt lat="51.742482371628284454345703125" lon="12.6263901405036449432373046875">
        <ele>96.59999847412109375</ele>
        <time>2018-08-18T12:02:34.000Z</time>
      </trkpt>
      <trkpt lat="51.74266903661191463470458984375" lon="12.62661301530897617340087890625">
        <ele>95.59999847412109375</ele>
        <time>2018-08-18T12:02:36.000Z</time>
      </trkpt>
      <trkpt lat="51.74285553395748138427734375" lon="12.62684427201747894287109375">
        <ele>94.59999847412109375</ele>
        <time>2018-08-18T12:02:38.000Z</time>
      </trkpt>
      <trkpt lat="51.7431145347654819488525390625" lon="12.6271971501410007476806640625">
        <ele>93.40000152587890625</ele>
        <time>2018-08-18T12:02:41.000Z</time>
      </trkpt>
      <trkpt lat="51.74338392913341522216796875" lon="12.6275468431413173675537109375">
        <ele>92</ele>
        <time>2018-08-18T12:02:44.000Z</time>
      </trkpt>
      <trkpt lat="51.743569336831569671630859375" lon="12.62778044678270816802978515625">
        <ele>91</ele>
        <time>2018-08-18T12:02:46.000Z</time>
      </trkpt>
      <trkpt lat="51.74383646808564662933349609375" lon="12.6281221769750118255615234375">
        <ele>89.59999847412109375</ele>
        <time>2018-08-18T12:02:49.000Z</time>
      </trkpt>
      <trkpt lat="51.744119189679622650146484375" lon="12.62844630517065525054931640625">
        <ele>88.40000152587890625</ele>
        <time>2018-08-18T12:02:52.000Z</time>
      </trkpt>
      <trkpt lat="51.74458497203886508941650390625" lon="12.628899179399013519287109375">
        <ele>87.1999969482421875</ele>
        <time>2018-08-18T12:02:57.000Z</time>
      </trkpt>
      <trkpt lat="51.745145134627819061279296875" lon="12.6292641274631023406982421875">
        <ele>87</ele>
        <time>2018-08-18T12:03:03.000Z</time>
      </trkpt>
      <trkpt lat="51.7456877790391445159912109375" lon="12.62950058095157146453857421875">
        <ele>87.1999969482421875</ele>
        <time>2018-08-18T12:03:09.000Z</time>
      </trkpt>
      <trkpt lat="51.74610829912126064300537109375" lon="12.62968079186975955963134765625">
        <ele>88.1999969482421875</ele>
        <time>2018-08-18T12:03:14.000Z</time>
      </trkpt>
      <trkpt lat="51.74650132656097412109375" lon="12.629834599792957305908203125">
        <ele>89.40000152587890625</ele>
        <time>2018-08-18T12:03:19.000Z</time>
      </trkpt>
      <trkpt lat="51.74679963849484920501708984375" lon="12.62990324757993221282958984375">
        <ele>90.40000152587890625</ele>
        <time>2018-08-18T12:03:23.000Z</time>
      </trkpt>
      <trkpt lat="51.74709820188581943511962890625" lon="12.6299648545682430267333984375">
        <ele>91.40000152587890625</ele>
        <time>2018-08-18T12:03:27.000Z</time>
      </trkpt>
      <trkpt lat="51.7477034591138362884521484375" lon="12.630085051059722900390625">
        <ele>92.1999969482421875</ele>
        <time>2018-08-18T12:03:35.000Z</time>
      </trkpt>
      <trkpt lat="51.74792096950113773345947265625" lon="12.63012737967073917388916015625">
        <ele>92.59999847412109375</ele>
        <time>2018-08-18T12:03:38.000Z</time>
      </trkpt>
      <trkpt lat="51.74829798750579357147216796875" lon="12.630181610584259033203125">
        <ele>93.59999847412109375</ele>
        <time>2018-08-18T12:03:44.000Z</time>
      </trkpt>
      <trkpt lat="51.748542822897434234619140625" lon="12.630209438502788543701171875">
        <ele>94.8000030517578125</ele>
        <time>2018-08-18T12:03:48.000Z</time>
      </trkpt>
      <trkpt lat="51.748822443187236785888671875" lon="12.63023793697357177734375">
        <ele>95.8000030517578125</ele>
        <time>2018-08-18T12:03:53.000Z</time>
      </trkpt>
      <trkpt lat="51.74905722029507160186767578125" lon="12.6302580535411834716796875">
        <ele>97</ele>
        <time>2018-08-18T12:03:57.000Z</time>
      </trkpt>
      <trkpt lat="51.7493238486349582672119140625" lon="12.63032033108174800872802734375">
        <ele>98.1999969482421875</ele>
        <time>2018-08-18T12:04:01.000Z</time>
      </trkpt>
      <trkpt lat="51.74961411394178867340087890625" lon="12.6303970254957675933837890625">
        <ele>99.1999969482421875</ele>
        <time>2018-08-18T12:04:05.000Z</time>
      </trkpt>
      <trkpt lat="51.7500765435397624969482421875" lon="12.63050414621829986572265625">
        <ele>100.1999969482421875</ele>
        <time>2018-08-18T12:04:11.000Z</time>
      </trkpt>
      <trkpt lat="51.75062312744557857513427734375" lon="12.63062953948974609375">
        <ele>101</ele>
        <time>2018-08-18T12:04:18.000Z</time>
      </trkpt>
      <trkpt lat="51.7510320805013179779052734375" lon="12.63071344234049320220947265625">
        <ele>101.1999969482421875</ele>
        <time>2018-08-18T12:04:23.000Z</time>
      </trkpt>
      <trkpt lat="51.751625351607799530029296875" lon="12.63083715923130512237548828125">
        <ele>101.1999969482421875</ele>
        <time>2018-08-18T12:04:30.000Z</time>
      </trkpt>
      <trkpt lat="51.75223848782479763031005859375" lon="12.63096841983497142791748046875">
        <ele>100.59999847412109375</ele>
        <time>2018-08-18T12:04:37.000Z</time>
      </trkpt>
      <trkpt lat="51.7527631111443042755126953125" lon="12.63107587583363056182861328125">
        <ele>100</ele>
        <time>2018-08-18T12:04:43.000Z</time>
      </trkpt>
      <trkpt lat="51.753370463848114013671875" lon="12.63119959272444248199462890625">
        <ele>99.59999847412109375</ele>
        <time>2018-08-18T12:04:50.000Z</time>
      </trkpt>
      <trkpt lat="51.75391067750751972198486328125" lon="12.631295733153820037841796875">
        <ele>99.1999969482421875</ele>
        <time>2018-08-18T12:04:56.000Z</time>
      </trkpt>
      <trkpt lat="51.75428836606442928314208984375" lon="12.631366141140460968017578125">
        <ele>99</ele>
        <time>2018-08-18T12:05:00.000Z</time>
      </trkpt>
      <trkpt lat="51.75487610511481761932373046875" lon="12.6314730942249298095703125">
        <ele>98.59999847412109375</ele>
        <time>2018-08-18T12:05:06.000Z</time>
      </trkpt>
      <trkpt lat="51.7552790232002735137939453125" lon="12.6315500400960445404052734375">
        <ele>97.8000030517578125</ele>
        <time>2018-08-18T12:05:10.000Z</time>
      </trkpt>
      <trkpt lat="51.75579761154949665069580078125" lon="12.63163981027901172637939453125">
        <ele>96.8000030517578125</ele>
        <time>2018-08-18T12:05:15.000Z</time>
      </trkpt>
      <trkpt lat="51.75633287988603115081787109375" lon="12.63173687271773815155029296875">
        <ele>95.59999847412109375</ele>
        <time>2018-08-18T12:05:20.000Z</time>
      </trkpt>
      <trkpt lat="51.7566583491861820220947265625" lon="12.6317981444299221038818359375">
        <ele>94.40000152587890625</ele>
        <time>2018-08-18T12:05:23.000Z</time>
      </trkpt>
      <trkpt lat="51.756964288651943206787109375" lon="12.63185354880988597869873046875">
        <ele>93.1999969482421875</ele>
        <time>2018-08-18T12:05:26.000Z</time>
      </trkpt>
      <trkpt lat="51.75737625919282436370849609375" lon="12.63194725848734378814697265625">
        <ele>92</ele>
        <time>2018-08-18T12:05:30.000Z</time>
      </trkpt>
      <trkpt lat="51.75797824747860431671142578125" lon="12.6321649365127086639404296875">
        <ele>91</ele>
        <time>2018-08-18T12:05:36.000Z</time>
      </trkpt>
      <trkpt lat="51.75808109343051910400390625" lon="12.63221045024693012237548828125">
        <ele>91</ele>
        <time>2018-08-18T12:05:37.000Z</time>
      </trkpt>
      <trkpt lat="51.7586827464401721954345703125" lon="12.6325191557407379150390625">
        <ele>90.40000152587890625</ele>
        <time>2018-08-18T12:05:43.000Z</time>
      </trkpt>
      <trkpt lat="51.7592753469944000244140625" lon="12.6329216547310352325439453125">
        <ele>89.8000030517578125</ele>
        <time>2018-08-18T12:05:49.000Z</time>
      </trkpt>
      <trkpt lat="51.75937500782310962677001953125" lon="12.6330017857253551483154296875">
        <ele>89.59999847412109375</ele>
        <time>2018-08-18T12:05:50.000Z</time>
      </trkpt>
      <trkpt lat="51.75986132584512233734130859375" lon="12.63343177735805511474609375">
        <ele>89</ele>
        <time>2018-08-18T12:05:55.000Z</time>
      </trkpt>
      <trkpt lat="51.76004488952457904815673828125" lon="12.633617185056209564208984375">
        <ele>88.59999847412109375</ele>
        <time>2018-08-18T12:05:57.000Z</time>
      </trkpt>
      <trkpt lat="51.760516203939914703369140625" lon="12.63409168459475040435791015625">
        <ele>87.40000152587890625</ele>
        <time>2018-08-18T12:06:02.000Z</time>
      </trkpt>
      <trkpt lat="51.7608992569148540496826171875" lon="12.63448060490190982818603515625">
        <ele>86.1999969482421875</ele>
        <time>2018-08-18T12:06:06.000Z</time>
      </trkpt>
      <trkpt lat="51.7613022588193416595458984375" lon="12.634889222681522369384765625">
        <ele>85</ele>
        <time>2018-08-18T12:06:10.000Z</time>
      </trkpt>
      <trkpt lat="51.76161280833184719085693359375" lon="12.63520262204110622406005859375">
        <ele>83.8000030517578125</ele>
        <time>2018-08-18T12:06:13.000Z</time>
      </trkpt>
      <trkpt lat="51.761931739747524261474609375" lon="12.63552633114159107208251953125">
        <ele>82.59999847412109375</ele>
        <time>2018-08-18T12:06:16.000Z</time>
      </trkpt>
      <trkpt lat="51.76225419156253337860107421875" lon="12.6358455978333950042724609375">
        <ele>81.59999847412109375</ele>
        <time>2018-08-18T12:06:19.000Z</time>
      </trkpt>
      <trkpt lat="51.7625659145414829254150390625" lon="12.636162601411342620849609375">
        <ele>80.1999969482421875</ele>
        <time>2018-08-18T12:06:22.000Z</time>
      </trkpt>
      <trkpt lat="51.7627700977027416229248046875" lon="12.6363709755241870880126953125">
        <ele>79.1999969482421875</ele>
        <time>2018-08-18T12:06:24.000Z</time>
      </trkpt>
      <trkpt lat="51.76307377405464649200439453125" lon="12.63668085448443889617919921875">
        <ele>78</ele>
        <time>2018-08-18T12:06:27.000Z</time>
      </trkpt>
      <trkpt lat="51.763359345495700836181640625" lon="12.63696852140128612518310546875">
        <ele>76.8000030517578125</ele>
        <time>2018-08-18T12:06:30.000Z</time>
      </trkpt>
      <trkpt lat="51.76362521946430206298828125" lon="12.63724260963499546051025390625">
        <ele>75.8000030517578125</ele>
        <time>2018-08-18T12:06:33.000Z</time>
      </trkpt>
      <trkpt lat="51.763864941895008087158203125" lon="12.637494318187236785888671875">
        <ele>74.59999847412109375</ele>
        <time>2018-08-18T12:06:36.000Z</time>
      </trkpt>
      <trkpt lat="51.7640830390155315399169921875" lon="12.63772138394415378570556640625">
        <ele>73.40000152587890625</ele>
        <time>2018-08-18T12:06:39.000Z</time>
      </trkpt>
      <trkpt lat="51.76434128545224666595458984375" lon="12.63799781911075115203857421875">
        <ele>72.40000152587890625</ele>
        <time>2018-08-18T12:06:43.000Z</time>
      </trkpt>
      <trkpt lat="51.7644853703677654266357421875" lon="12.63815187849104404449462890625">
        <ele>71.1999969482421875</ele>
        <time>2018-08-18T12:06:47.000Z</time>
      </trkpt>
      <trkpt lat="51.7645500786602497100830078125" lon="12.63821147382259368896484375">
        <ele>70.40000152587890625</ele>
        <time>2018-08-18T12:06:52.000Z</time>
      </trkpt>
      <trkpt lat="51.76456265151500701904296875" lon="12.6382227055728435516357421875">
        <ele>69.59999847412109375</ele>
        <time>2018-08-18T12:06:55.000Z</time>
      </trkpt>
      <trkpt lat="51.76459710113704204559326171875" lon="12.6382488571107387542724609375">
        <ele>69</ele>
        <time>2018-08-18T12:07:08.000Z</time>
      </trkpt>
      <trkpt lat="51.76471847109496593475341796875" lon="12.6383886672556400299072265625">
        <ele>69</ele>
        <time>2018-08-18T12:07:13.000Z</time>
      </trkpt>
      <trkpt lat="51.765221469104290008544921875" lon="12.638834081590175628662109375">
        <ele>68.8000030517578125</ele>
        <time>2018-08-18T12:07:22.000Z</time>
      </trkpt>
      <trkpt lat="51.76575045101344585418701171875" lon="12.63924655504524707794189453125">
        <ele>68.1999969482421875</ele>
        <time>2018-08-18T12:07:29.000Z</time>
      </trkpt>
      <trkpt lat="51.76630818285048007965087890625" lon="12.6397143490612506866455078125">
        <ele>67</ele>
        <time>2018-08-18T12:07:36.000Z</time>
      </trkpt>
      <trkpt lat="51.76678561605513095855712890625" lon="12.6401076279580593109130859375">
        <ele>66</ele>
        <time>2018-08-18T12:07:42.000Z</time>
      </trkpt>
      <trkpt lat="51.76732398569583892822265625" lon="12.6405582390725612640380859375">
        <ele>65</ele>
        <time>2018-08-18T12:07:49.000Z</time>
      </trkpt>
      <trkpt lat="51.7674005962908267974853515625" lon="12.64062277972698211669921875">
        <ele>64.8000030517578125</ele>
        <time>2018-08-18T12:07:50.000Z</time>
      </trkpt>
      <trkpt lat="51.7679370380938053131103515625" lon="12.641069032251834869384765625">
        <ele>64.40000152587890625</ele>
        <time>2018-08-18T12:07:57.000Z</time>
      </trkpt>
      <trkpt lat="51.7684875614941120147705078125" lon="12.64153263531625270843505859375">
        <ele>64.1999969482421875</ele>
        <time>2018-08-18T12:08:04.000Z</time>
      </trkpt>
      <trkpt lat="51.7689827643334865570068359375" lon="12.6419436000287532806396484375">
        <ele>64</ele>
        <time>2018-08-18T12:08:10.000Z</time>
      </trkpt>
      <trkpt lat="51.76906473934650421142578125" lon="12.64201208017766475677490234375">
        <ele>64</ele>
        <time>2018-08-18T12:08:11.000Z</time>
      </trkpt>
      <trkpt lat="51.7695523984730243682861328125" lon="12.64241307042539119720458984375">
        <ele>63.59999847412109375</ele>
        <time>2018-08-18T12:08:17.000Z</time>
      </trkpt>
      <trkpt lat="51.7700395546853542327880859375" lon="12.642811797559261322021484375">
        <ele>63.40000152587890625</ele>
        <time>2018-08-18T12:08:23.000Z</time>
      </trkpt>
      <trkpt lat="51.77053601481020450592041015625" lon="12.64315268956124782562255859375">
        <ele>63</ele>
        <time>2018-08-18T12:08:29.000Z</time>
      </trkpt>
      <trkpt lat="51.77079216577112674713134765625" lon="12.643298618495464324951171875">
        <ele>63</ele>
        <time>2018-08-18T12:08:32.000Z</time>
      </trkpt>
      <trkpt lat="51.771320141851902008056640625" lon="12.64354798011481761932373046875">
        <ele>63</ele>
        <time>2018-08-18T12:08:38.000Z</time>
      </trkpt>
      <trkpt lat="51.77192171104252338409423828125" lon="12.64382055960595607757568359375">
        <ele>62.799999237060546875</ele>
        <time>2018-08-18T12:08:45.000Z</time>
      </trkpt>
      <trkpt lat="51.7725216038525104522705078125" lon="12.64406614936888217926025390625">
        <ele>62</ele>
        <time>2018-08-18T12:08:52.000Z</time>
      </trkpt>
      <trkpt lat="51.7726086080074310302734375" lon="12.6441034488379955291748046875">
        <ele>61.799999237060546875</ele>
        <time>2018-08-18T12:08:53.000Z</time>
      </trkpt>
      <trkpt lat="51.77313767373561859130859375" lon="12.6443307660520076751708984375">
        <ele>61.59999847412109375</ele>
        <time>2018-08-18T12:08:59.000Z</time>
      </trkpt>
      <trkpt lat="51.77366900257766246795654296875" lon="12.64456587843596935272216796875">
        <ele>61.200000762939453125</ele>
        <time>2018-08-18T12:09:05.000Z</time>
      </trkpt>
      <trkpt lat="51.77402171306312084197998046875" lon="12.64472161419689655303955078125">
        <ele>60.799999237060546875</ele>
        <time>2018-08-18T12:09:09.000Z</time>
      </trkpt>
      <trkpt lat="51.7745523713529109954833984375" lon="12.64494876377284526824951171875">
        <ele>60.799999237060546875</ele>
        <time>2018-08-18T12:09:15.000Z</time>
      </trkpt>
      <trkpt lat="51.77507984451949596405029296875" lon="12.64517541043460369110107421875">
        <ele>60.59999847412109375</ele>
        <time>2018-08-18T12:09:21.000Z</time>
      </trkpt>
      <trkpt lat="51.775615029036998748779296875" lon="12.64540524221956729888916015625">
        <ele>60.40000152587890625</ele>
        <time>2018-08-18T12:09:27.000Z</time>
      </trkpt>
      <trkpt lat="51.77621458657085895538330078125" lon="12.64566139318048954010009765625">
        <ele>60.200000762939453125</ele>
        <time>2018-08-18T12:09:34.000Z</time>
      </trkpt>
      <trkpt lat="51.77679427899420261383056640625" lon="12.64592659659683704376220703125">
        <ele>60.200000762939453125</ele>
        <time>2018-08-18T12:09:41.000Z</time>
      </trkpt>
      <trkpt lat="51.77735553123056888580322265625" lon="12.6461984217166900634765625">
        <ele>60.200000762939453125</ele>
        <time>2018-08-18T12:09:48.000Z</time>
      </trkpt>
      <trkpt lat="51.77793706767261028289794921875" lon="12.64648164622485637664794921875">
        <ele>60.40000152587890625</ele>
        <time>2018-08-18T12:09:55.000Z</time>
      </trkpt>
      <trkpt lat="51.7785066179931163787841796875" lon="12.64675565063953399658203125">
        <ele>60.59999847412109375</ele>
        <time>2018-08-18T12:10:02.000Z</time>
      </trkpt>
      <trkpt lat="51.77908890880644321441650390625" lon="12.6470397971570491790771484375">
        <ele>60.40000152587890625</ele>
        <time>2018-08-18T12:10:09.000Z</time>
      </trkpt>
      <trkpt lat="51.77941848523914813995361328125" lon="12.64718974940478801727294921875">
        <ele>60.40000152587890625</ele>
        <time>2018-08-18T12:10:13.000Z</time>
      </trkpt>
      <trkpt lat="51.77994151599705219268798828125" lon="12.64744497835636138916015625">
        <ele>60.59999847412109375</ele>
        <time>2018-08-18T12:10:19.000Z</time>
      </trkpt>
      <trkpt lat="51.7804703302681446075439453125" lon="12.64771990478038787841796875">
        <ele>60.799999237060546875</ele>
        <time>2018-08-18T12:10:25.000Z</time>
      </trkpt>
      <trkpt lat="51.7810637690126895904541015625" lon="12.64801771380007266998291015625">
        <ele>60.799999237060546875</ele>
        <time>2018-08-18T12:10:32.000Z</time>
      </trkpt>
      <trkpt lat="51.7816568724811077117919921875" lon="12.64828509651124477386474609375">
        <ele>60.799999237060546875</ele>
        <time>2018-08-18T12:10:39.000Z</time>
      </trkpt>
      <trkpt lat="51.78226657211780548095703125" lon="12.648395486176013946533203125">
        <ele>61.200000762939453125</ele>
        <time>2018-08-18T12:10:46.000Z</time>
      </trkpt>
      <trkpt lat="51.7828638665378093719482421875" lon="12.64830873347818851470947265625">
        <ele>61.200000762939453125</ele>
        <time>2018-08-18T12:10:53.000Z</time>
      </trkpt>
      <trkpt lat="51.7834556289017200469970703125" lon="12.648116536438465118408203125">
        <ele>61.40000152587890625</ele>
        <time>2018-08-18T12:11:00.000Z</time>
      </trkpt>
      <trkpt lat="51.78406557999551296234130859375" lon="12.64791327528655529022216796875">
        <ele>61.200000762939453125</ele>
        <time>2018-08-18T12:11:07.000Z</time>
      </trkpt>
      <trkpt lat="51.78459799848496913909912109375" lon="12.64776608906686305999755859375">
        <ele>61.200000762939453125</ele>
        <time>2018-08-18T12:11:13.000Z</time>
      </trkpt>
      <trkpt lat="51.7851506173610687255859375" lon="12.64771261252462863922119140625">
        <ele>61.200000762939453125</ele>
        <time>2018-08-18T12:11:19.000Z</time>
      </trkpt>
      <trkpt lat="51.78570340387523174285888671875" lon="12.6477318070828914642333984375">
        <ele>61</ele>
        <time>2018-08-18T12:11:25.000Z</time>
      </trkpt>
      <trkpt lat="51.78625526838004589080810546875" lon="12.6478104293346405029296875">
        <ele>61</ele>
        <time>2018-08-18T12:11:31.000Z</time>
      </trkpt>
      <trkpt lat="51.7868001759052276611328125" lon="12.648000530898571014404296875">
        <ele>60.799999237060546875</ele>
        <time>2018-08-18T12:11:37.000Z</time>
      </trkpt>
      <trkpt lat="51.78733821026980876922607421875" lon="12.648286521434783935546875">
        <ele>60.799999237060546875</ele>
        <time>2018-08-18T12:11:43.000Z</time>
      </trkpt>
      <trkpt lat="51.7878437228500843048095703125" lon="12.64867200516164302825927734375">
        <ele>61</ele>
        <time>2018-08-18T12:11:49.000Z</time>
      </trkpt>
      <trkpt lat="51.7884029634296894073486328125" lon="12.6491262204945087432861328125">
        <ele>61.40000152587890625</ele>
        <time>2018-08-18T12:11:56.000Z</time>
      </trkpt>
      <trkpt lat="51.7889548279345035552978515625" lon="12.6495288871228694915771484375">
        <ele>61.799999237060546875</ele>
        <time>2018-08-18T12:12:03.000Z</time>
      </trkpt>
      <trkpt lat="51.78952270187437534332275390625" lon="12.64983356930315494537353515625">
        <ele>62.40000152587890625</ele>
        <time>2018-08-18T12:12:10.000Z</time>
      </trkpt>
      <trkpt lat="51.79012334905564785003662109375" lon="12.6500425301492214202880859375">
        <ele>62.40000152587890625</ele>
        <time>2018-08-18T12:12:17.000Z</time>
      </trkpt>
      <trkpt lat="51.79074159823358058929443359375" lon="12.65021813102066516876220703125">
        <ele>62</ele>
        <time>2018-08-18T12:12:24.000Z</time>
      </trkpt>
      <trkpt lat="51.79128281772136688232421875" lon="12.65037101693451404571533203125">
        <ele>61.59999847412109375</ele>
        <time>2018-08-18T12:12:30.000Z</time>
      </trkpt>
      <trkpt lat="51.7918373644351959228515625" lon="12.6505301892757415771484375">
        <ele>61</ele>
        <time>2018-08-18T12:12:36.000Z</time>
      </trkpt>
      <trkpt lat="51.792392246425151824951171875" lon="12.65070947818458080291748046875">
        <ele>61</ele>
        <time>2018-08-18T12:12:42.000Z</time>
      </trkpt>
      <trkpt lat="51.792944781482219696044921875" lon="12.6508954726159572601318359375">
        <ele>61.200000762939453125</ele>
        <time>2018-08-18T12:12:48.000Z</time>
      </trkpt>
      <trkpt lat="51.79350276477634906768798828125" lon="12.65108431689441204071044921875">
        <ele>61</ele>
        <time>2018-08-18T12:12:54.000Z</time>
      </trkpt>
      <trkpt lat="51.79368766956031322479248046875" lon="12.65114701353013515472412109375">
        <ele>61</ele>
        <time>2018-08-18T12:12:56.000Z</time>
      </trkpt>
      <trkpt lat="51.79424523375928401947021484375" lon="12.65132688917219638824462890625">
        <ele>61</ele>
        <time>2018-08-18T12:13:02.000Z</time>
      </trkpt>
      <trkpt lat="51.7948087491095066070556640625" lon="12.65146426856517791748046875">
        <ele>60.799999237060546875</ele>
        <time>2018-08-18T12:13:08.000Z</time>
      </trkpt>
      <trkpt lat="51.795376203954219818115234375" lon="12.65152067877352237701416015625">
        <ele>60.799999237060546875</ele>
        <time>2018-08-18T12:13:14.000Z</time>
      </trkpt>
      <trkpt lat="51.7959443293511867523193359375" lon="12.65148899517953395843505859375">
        <ele>60.799999237060546875</ele>
        <time>2018-08-18T12:13:20.000Z</time>
      </trkpt>
      <trkpt lat="51.79652125574648380279541015625" lon="12.651462256908416748046875">
        <ele>60.799999237060546875</ele>
        <time>2018-08-18T12:13:26.000Z</time>
      </trkpt>
      <trkpt lat="51.7970829270780086517333984375" lon="12.651510201394557952880859375">
        <ele>60.59999847412109375</ele>
        <time>2018-08-18T12:13:32.000Z</time>
      </trkpt>
      <trkpt lat="51.797630600631237030029296875" lon="12.651636265218257904052734375">
        <ele>60.59999847412109375</ele>
        <time>2018-08-18T12:13:38.000Z</time>
      </trkpt>
      <trkpt lat="51.79815891198813915252685546875" lon="12.65183617360889911651611328125">
        <ele>60.59999847412109375</ele>
        <time>2018-08-18T12:13:44.000Z</time>
      </trkpt>
      <trkpt lat="51.79869015701115131378173828125" lon="12.6520323939621448516845703125">
        <ele>60.59999847412109375</ele>
        <time>2018-08-18T12:13:50.000Z</time>
      </trkpt>
      <trkpt lat="51.7992387525737285614013671875" lon="12.6521556079387664794921875">
        <ele>60.799999237060546875</ele>
        <time>2018-08-18T12:13:56.000Z</time>
      </trkpt>
      <trkpt lat="51.7998050339519977569580078125" lon="12.65220548026263713836669921875">
        <ele>61</ele>
        <time>2018-08-18T12:14:02.000Z</time>
      </trkpt>
      <trkpt lat="51.80038481019437313079833984375" lon="12.65218435786664485931396484375">
        <ele>61.200000762939453125</ele>
        <time>2018-08-18T12:14:08.000Z</time>
      </trkpt>
      <trkpt lat="51.800966598093509674072265625" lon="12.6521396823227405548095703125">
        <ele>61.40000152587890625</ele>
        <time>2018-08-18T12:14:14.000Z</time>
      </trkpt>
      <trkpt lat="51.80153824388980865478515625" lon="12.65210087411105632781982421875">
        <ele>61.40000152587890625</ele>
        <time>2018-08-18T12:14:20.000Z</time>
      </trkpt>
      <trkpt lat="51.80211148224771022796630859375" lon="12.65203298069536685943603515625">
        <ele>61.40000152587890625</ele>
        <time>2018-08-18T12:14:26.000Z</time>
      </trkpt>
      <trkpt lat="51.80268094874918460845947265625" lon="12.65191228128969669342041015625">
        <ele>61.40000152587890625</ele>
        <time>2018-08-18T12:14:32.000Z</time>
      </trkpt>
      <trkpt lat="51.8032287061214447021484375" lon="12.6517775841057300567626953125">
        <ele>61.40000152587890625</ele>
        <time>2018-08-18T12:14:38.000Z</time>
      </trkpt>
      <trkpt lat="51.80383999831974506378173828125" lon="12.651623189449310302734375">
        <ele>61.59999847412109375</ele>
        <time>2018-08-18T12:14:45.000Z</time>
      </trkpt>
      <trkpt lat="51.804455816745758056640625" lon="12.65144038014113903045654296875">
        <ele>61.799999237060546875</ele>
        <time>2018-08-18T12:14:52.000Z</time>
      </trkpt>
      <trkpt lat="51.80500340647995471954345703125" lon="12.651247344911098480224609375">
        <ele>61.799999237060546875</ele>
        <time>2018-08-18T12:14:58.000Z</time>
      </trkpt>
      <trkpt lat="51.8055573664605617523193359375" lon="12.651050202548503875732421875">
        <ele>61.59999847412109375</ele>
        <time>2018-08-18T12:15:04.000Z</time>
      </trkpt>
      <trkpt lat="51.806107051670551300048828125" lon="12.6508334465324878692626953125">
        <ele>61.59999847412109375</ele>
        <time>2018-08-18T12:15:10.000Z</time>
      </trkpt>
      <trkpt lat="51.80662061087787151336669921875" lon="12.65051099471747875213623046875">
        <ele>61.59999847412109375</ele>
        <time>2018-08-18T12:15:16.000Z</time>
      </trkpt>
      <trkpt lat="51.80711296387016773223876953125" lon="12.64991437084972858428955078125">
        <ele>61.40000152587890625</ele>
        <time>2018-08-18T12:15:23.000Z</time>
      </trkpt>
      <trkpt lat="51.80749769322574138641357421875" lon="12.64915513806045055389404296875">
        <ele>61.40000152587890625</ele>
        <time>2018-08-18T12:15:30.000Z</time>
      </trkpt>
      <trkpt lat="51.8078674189746379852294921875" lon="12.648341841995716094970703125">
        <ele>61</ele>
        <time>2018-08-18T12:15:37.000Z</time>
      </trkpt>
      <trkpt lat="51.80825424380600452423095703125" lon="12.64754866249859333038330078125">
        <ele>60.799999237060546875</ele>
        <time>2018-08-18T12:15:44.000Z</time>
      </trkpt>
      <trkpt lat="51.8084735982120037078857421875" lon="12.64707894064486026763916015625">
        <ele>60.799999237060546875</ele>
        <time>2018-08-18T12:15:48.000Z</time>
      </trkpt>
      <trkpt lat="51.80879051797091960906982421875" lon="12.6463263295590877532958984375">
        <ele>60.799999237060546875</ele>
        <time>2018-08-18T12:15:54.000Z</time>
      </trkpt>
      <trkpt lat="51.8090888299047946929931640625" lon="12.64553499408066272735595703125">
        <ele>60.799999237060546875</ele>
        <time>2018-08-18T12:16:00.000Z</time>
      </trkpt>
      <trkpt lat="51.809430308640003204345703125" lon="12.64476218260824680328369140625">
        <ele>61</ele>
        <time>2018-08-18T12:16:06.000Z</time>
      </trkpt>
      <trkpt lat="51.8098770640790462493896484375" lon="12.644114010035991668701171875">
        <ele>61</ele>
        <time>2018-08-18T12:16:12.000Z</time>
      </trkpt>
      <trkpt lat="51.81040696799755096435546875" lon="12.643645964562892913818359375">
        <ele>60.40000152587890625</ele>
        <time>2018-08-18T12:16:18.000Z</time>
      </trkpt>
      <trkpt lat="51.81094969622790813446044921875" lon="12.64325796626508235931396484375">
        <ele>60.40000152587890625</ele>
        <time>2018-08-18T12:16:24.000Z</time>
      </trkpt>
      <trkpt lat="51.8114870600402355194091796875" lon="12.6428682915866374969482421875">
        <ele>60.40000152587890625</ele>
        <time>2018-08-18T12:16:30.000Z</time>
      </trkpt>
      <trkpt lat="51.81202408857643604278564453125" lon="12.64247895218431949615478515625">
        <ele>60.59999847412109375</ele>
        <time>2018-08-18T12:16:36.000Z</time>
      </trkpt>
      <trkpt lat="51.81254695169627666473388671875" lon="12.64209321700036525726318359375">
        <ele>60.59999847412109375</ele>
        <time>2018-08-18T12:16:42.000Z</time>
      </trkpt>
      <trkpt lat="51.8130621872842311859130859375" lon="12.64170329086482524871826171875">
        <ele>60.59999847412109375</ele>
        <time>2018-08-18T12:16:48.000Z</time>
      </trkpt>
      <trkpt lat="51.81357541121542453765869140625" lon="12.64129542745649814605712890625">
        <ele>60.799999237060546875</ele>
        <time>2018-08-18T12:16:54.000Z</time>
      </trkpt>
      <trkpt lat="51.81408804841339588165283203125" lon="12.64088555239140987396240234375">
        <ele>60.799999237060546875</ele>
        <time>2018-08-18T12:17:00.000Z</time>
      </trkpt>
      <trkpt lat="51.81459951214492321014404296875" lon="12.64047282747924327850341796875">
        <ele>61</ele>
        <time>2018-08-18T12:17:06.000Z</time>
      </trkpt>
      <trkpt lat="51.81509077548980712890625" lon="12.6400046981871128082275390625">
        <ele>61</ele>
        <time>2018-08-18T12:17:12.000Z</time>
      </trkpt>
      <trkpt lat="51.8155159056186676025390625" lon="12.6393639855086803436279296875">
        <ele>60.799999237060546875</ele>
        <time>2018-08-18T12:17:18.000Z</time>
      </trkpt>
      <trkpt lat="51.81587398052215576171875" lon="12.63863048516213893890380859375">
        <ele>60.59999847412109375</ele>
        <time>2018-08-18T12:17:24.000Z</time>
      </trkpt>
      <trkpt lat="51.8159338273108005523681640625" lon="12.63851322233676910400390625">
        <ele>60.59999847412109375</ele>
        <time>2018-08-18T12:17:25.000Z</time>
      </trkpt>
      <trkpt lat="51.8163192272186279296875" lon="12.6378850825130939483642578125">
        <ele>60.200000762939453125</ele>
        <time>2018-08-18T12:17:31.000Z</time>
      </trkpt>
      <trkpt lat="51.81678417138755321502685546875" lon="12.63724110089242458343505859375">
        <ele>60</ele>
        <time>2018-08-18T12:17:38.000Z</time>
      </trkpt>
      <trkpt lat="51.81693387217819690704345703125" lon="12.6370991952717304229736328125">
        <ele>60</ele>
        <time>2018-08-18T12:17:40.000Z</time>
      </trkpt>
      <trkpt lat="51.8174361996352672576904296875" lon="12.63698562048375606536865234375">
        <ele>59.799999237060546875</ele>
        <time>2018-08-18T12:17:46.000Z</time>
      </trkpt>
      <trkpt lat="51.81803307496011257171630859375" lon="12.63716415502130985260009765625">
        <ele>60</ele>
        <time>2018-08-18T12:17:53.000Z</time>
      </trkpt>
      <trkpt lat="51.8184567801654338836669921875" lon="12.63738669455051422119140625">
        <ele>60.200000762939453125</ele>
        <time>2018-08-18T12:17:58.000Z</time>
      </trkpt>
      <trkpt lat="51.81853347457945346832275390625" lon="12.637461125850677490234375">
        <ele>60.200000762939453125</ele>
        <time>2018-08-18T12:17:59.000Z</time>
      </trkpt>
      <trkpt lat="51.81876607239246368408203125" lon="12.63766103424131870269775390625">
        <ele>60.40000152587890625</ele>
        <time>2018-08-18T12:18:02.000Z</time>
      </trkpt>
      <trkpt lat="51.8192936293780803680419921875" lon="12.63787209056317806243896484375">
        <ele>60.59999847412109375</ele>
        <time>2018-08-18T12:18:08.000Z</time>
      </trkpt>
      <trkpt lat="51.81983736343681812286376953125" lon="12.6378981582820415496826171875">
        <ele>60.799999237060546875</ele>
        <time>2018-08-18T12:18:14.000Z</time>
      </trkpt>
      <trkpt lat="51.82044907473027706146240234375" lon="12.63788214884698390960693359375">
        <ele>61</ele>
        <time>2018-08-18T12:18:21.000Z</time>
      </trkpt>
      <trkpt lat="51.8209981732070446014404296875" lon="12.63785046525299549102783203125">
        <ele>61.40000152587890625</ele>
        <time>2018-08-18T12:18:28.000Z</time>
      </trkpt>
      <trkpt lat="51.8214001692831516265869140625" lon="12.63784937560558319091796875">
        <ele>61.40000152587890625</ele>
        <time>2018-08-18T12:18:33.000Z</time>
      </trkpt>
      <trkpt lat="51.821965612471103668212890625" lon="12.637841999530792236328125">
        <ele>61.40000152587890625</ele>
        <time>2018-08-18T12:18:40.000Z</time>
      </trkpt>
      <trkpt lat="51.82252585887908935546875" lon="12.63783303089439868927001953125">
        <ele>61.40000152587890625</ele>
        <time>2018-08-18T12:18:47.000Z</time>
      </trkpt>
      <trkpt lat="51.82306825183331966400146484375" lon="12.6378084719181060791015625">
        <ele>61.200000762939453125</ele>
        <time>2018-08-18T12:18:54.000Z</time>
      </trkpt>
      <trkpt lat="51.823676861822605133056640625" lon="12.6377593539655208587646484375">
        <ele>61</ele>
        <time>2018-08-18T12:19:02.000Z</time>
      </trkpt>
      <trkpt lat="51.82396528311073780059814453125" lon="12.63767561875283718109130859375">
        <ele>61</ele>
        <time>2018-08-18T12:19:06.000Z</time>
      </trkpt>
      <trkpt lat="51.8242885731160640716552734375" lon="12.63767930679023265838623046875">
        <ele>61</ele>
        <time>2018-08-18T12:19:11.000Z</time>
      </trkpt>
      <trkpt lat="51.82488410733640193939208984375" lon="12.63780780136585235595703125">
        <ele>61</ele>
        <time>2018-08-18T12:19:20.000Z</time>
      </trkpt>
      <trkpt lat="51.82543312199413776397705078125" lon="12.63810594566166400909423828125">
        <ele>61</ele>
        <time>2018-08-18T12:19:29.000Z</time>
      </trkpt>
      <trkpt lat="51.82575364597141742706298828125" lon="12.6383846439421176910400390625">
        <ele>61.200000762939453125</ele>
        <time>2018-08-18T12:19:35.000Z</time>
      </trkpt>
      <trkpt lat="51.82625454850494861602783203125" lon="12.6382703147828578948974609375">
        <ele>61.40000152587890625</ele>
        <time>2018-08-18T12:19:44.000Z</time>
      </trkpt>
      <trkpt lat="51.82679082266986370086669921875" lon="12.63845647685229778289794921875">
        <ele>61</ele>
        <time>2018-08-18T12:19:54.000Z</time>
      </trkpt>
      <trkpt lat="51.826839186251163482666015625" lon="12.6384614221751689910888671875">
        <ele>61</ele>
        <time>2018-08-18T12:19:55.000Z</time>
      </trkpt>
      <trkpt lat="51.8270118534564971923828125" lon="12.638360671699047088623046875">
        <ele>60.799999237060546875</ele>
        <time>2018-08-18T12:19:59.000Z</time>
      </trkpt>
      <trkpt lat="51.82744209654629230499267578125" lon="12.63783168978989124298095703125">
        <ele>60.799999237060546875</ele>
        <time>2018-08-18T12:20:09.000Z</time>
      </trkpt>
      <trkpt lat="51.827545277774333953857421875" lon="12.63772356323897838592529296875">
        <ele>60.799999237060546875</ele>
        <time>2018-08-18T12:20:16.000Z</time>
      </trkpt>
      <trkpt lat="51.82761459611356258392333984375" lon="12.637831270694732666015625">
        <ele>60.799999237060546875</ele>
        <time>2018-08-18T12:20:21.000Z</time>
      </trkpt>
      <trkpt lat="51.8276329524815082550048828125" lon="12.6378713361918926239013671875">
        <ele>61</ele>
        <time>2018-08-18T12:20:25.000Z</time>
      </trkpt>
      <trkpt lat="51.8276466988027095794677734375" lon="12.6379239745438098907470703125">
        <ele>60.799999237060546875</ele>
        <time>2018-08-18T12:21:20.000Z</time>
      </trkpt>
      <trkpt lat="51.8276118300855159759521484375" lon="12.63803444802761077880859375">
        <ele>60.799999237060546875</ele>
        <time>2018-08-18T12:21:25.000Z</time>
      </trkpt>
      <trkpt lat="51.8275337107479572296142578125" lon="12.63830761425197124481201171875">
        <ele>60.59999847412109375</ele>
        <time>2018-08-18T12:21:31.000Z</time>
      </trkpt>
      <trkpt lat="51.8273895420134067535400390625" lon="12.63855387456715106964111328125">
        <ele>60.40000152587890625</ele>
        <time>2018-08-18T12:21:37.000Z</time>
      </trkpt>
      <trkpt lat="51.82743899524211883544921875" lon="12.63864356093108654022216796875">
        <ele>60.40000152587890625</ele>
        <time>2018-08-18T12:21:41.000Z</time>
      </trkpt>
      <trkpt lat="51.8276473693549633026123046875" lon="12.6387365162372589111328125">
        <ele>60.200000762939453125</ele>
        <time>2018-08-18T12:21:47.000Z</time>
      </trkpt>
      <trkpt lat="51.827842332422733306884765625" lon="12.63889543712139129638671875">
        <ele>60.200000762939453125</ele>
        <time>2018-08-18T12:21:51.000Z</time>
      </trkpt>
      <trkpt lat="51.82840065099298954010009765625" lon="12.63911940157413482666015625">
        <ele>60.40000152587890625</ele>
        <time>2018-08-18T12:22:00.000Z</time>
      </trkpt>
      <trkpt lat="51.82894547469913959503173828125" lon="12.63929550535976886749267578125">
        <ele>60.59999847412109375</ele>
        <time>2018-08-18T12:22:08.000Z</time>
      </trkpt>
      <trkpt lat="51.829502619802951812744140625" lon="12.639478482306003570556640625">
        <ele>60.59999847412109375</ele>
        <time>2018-08-18T12:22:16.000Z</time>
      </trkpt>
      <trkpt lat="51.83008038438856601715087890625" lon="12.639668248593807220458984375">
        <ele>61</ele>
        <time>2018-08-18T12:22:24.000Z</time>
      </trkpt>
      <trkpt lat="51.830675415694713592529296875" lon="12.63986027799546718597412109375">
        <ele>61</ele>
        <time>2018-08-18T12:22:32.000Z</time>
      </trkpt>
      <trkpt lat="51.83127480559051036834716796875" lon="12.640044428408145904541015625">
        <ele>61</ele>
        <time>2018-08-18T12:22:40.000Z</time>
      </trkpt>
      <trkpt lat="51.8318768776953220367431640625" lon="12.64023729600012302398681640625">
        <ele>60.799999237060546875</ele>
        <time>2018-08-18T12:22:48.000Z</time>
      </trkpt>
      <trkpt lat="51.83241449296474456787109375" lon="12.6404201053082942962646484375">
        <ele>60.59999847412109375</ele>
        <time>2018-08-18T12:22:55.000Z</time>
      </trkpt>
      <trkpt lat="51.83296434581279754638671875" lon="12.64059771783649921417236328125">
        <ele>60.59999847412109375</ele>
        <time>2018-08-18T12:23:02.000Z</time>
      </trkpt>
      <trkpt lat="51.83351696468889713287353515625" lon="12.6407795213162899017333984375">
        <ele>60.59999847412109375</ele>
        <time>2018-08-18T12:23:09.000Z</time>
      </trkpt>
      <trkpt lat="51.83407285250723361968994140625" lon="12.64096350409090518951416015625">
        <ele>60.799999237060546875</ele>
        <time>2018-08-18T12:23:16.000Z</time>
      </trkpt>
      <trkpt lat="51.83463946916162967681884765625" lon="12.64114321209490299224853515625">
        <ele>60.799999237060546875</ele>
        <time>2018-08-18T12:23:23.000Z</time>
      </trkpt>
      <trkpt lat="51.8351974524557590484619140625" lon="12.64133130200207233428955078125">
        <ele>60.799999237060546875</ele>
        <time>2018-08-18T12:23:30.000Z</time>
      </trkpt>
      <trkpt lat="51.83574336580932140350341796875" lon="12.641510255634784698486328125">
        <ele>60.59999847412109375</ele>
        <time>2018-08-18T12:23:37.000Z</time>
      </trkpt>
      <trkpt lat="51.8362881056964397430419921875" lon="12.6416948251426219940185546875">
        <ele>60.59999847412109375</ele>
        <time>2018-08-18T12:23:44.000Z</time>
      </trkpt>
      <trkpt lat="51.836824715137481689453125" lon="12.641867659986019134521484375">
        <ele>60.799999237060546875</ele>
        <time>2018-08-18T12:23:51.000Z</time>
      </trkpt>
      <trkpt lat="51.83742351830005645751953125" lon="12.64208164997398853302001953125">
        <ele>60.799999237060546875</ele>
        <time>2018-08-18T12:23:59.000Z</time>
      </trkpt>
      <trkpt lat="51.83801653794944286346435546875" lon="12.642267309129238128662109375">
        <ele>61.200000762939453125</ele>
        <time>2018-08-18T12:24:07.000Z</time>
      </trkpt>
      <trkpt lat="51.83860930614173412322998046875" lon="12.64245833270251750946044921875">
        <ele>61.40000152587890625</ele>
        <time>2018-08-18T12:24:15.000Z</time>
      </trkpt>
      <trkpt lat="51.83913753367960453033447265625" lon="12.6426364481449127197265625">
        <ele>61.40000152587890625</ele>
        <time>2018-08-18T12:24:22.000Z</time>
      </trkpt>
      <trkpt lat="51.8396757356822490692138671875" lon="12.64280609786510467529296875">
        <ele>60.799999237060546875</ele>
        <time>2018-08-18T12:24:29.000Z</time>
      </trkpt>
      <trkpt lat="51.84027948416769504547119140625" lon="12.643011622130870819091796875">
        <ele>61</ele>
        <time>2018-08-18T12:24:37.000Z</time>
      </trkpt>
      <trkpt lat="51.8408210389316082000732421875" lon="12.6431941799819469451904296875">
        <ele>60.799999237060546875</ele>
        <time>2018-08-18T12:24:44.000Z</time>
      </trkpt>
      <trkpt lat="51.8413563072681427001953125" lon="12.64329736120998859405517578125">
        <ele>60.799999237060546875</ele>
        <time>2018-08-18T12:24:51.000Z</time>
      </trkpt>
      <trkpt lat="51.84195519424974918365478515625" lon="12.6432193256914615631103515625">
        <ele>61.799999237060546875</ele>
        <time>2018-08-18T12:24:59.000Z</time>
      </trkpt>
      <trkpt lat="51.842507310211658477783203125" lon="12.64320231042802333831787109375">
        <ele>62</ele>
        <time>2018-08-18T12:25:07.000Z</time>
      </trkpt>
      <trkpt lat="51.84277050197124481201171875" lon="12.64325536787509918212890625">
        <ele>62</ele>
        <time>2018-08-18T12:25:11.000Z</time>
      </trkpt>
      <trkpt lat="51.842992790043354034423828125" lon="12.64295504428446292877197265625">
        <ele>62.40000152587890625</ele>
        <time>2018-08-18T12:25:16.000Z</time>
      </trkpt>
      <trkpt lat="51.84314408339560031890869140625" lon="12.64244358055293560028076171875">
        <ele>62.59999847412109375</ele>
        <time>2018-08-18T12:25:21.000Z</time>
      </trkpt>
      <trkpt lat="51.84328506700694561004638671875" lon="12.6415608823299407958984375">
        <ele>63</ele>
        <time>2018-08-18T12:25:29.000Z</time>
      </trkpt>
      <trkpt lat="51.8433330953121185302734375" lon="12.6406219415366649627685546875">
        <ele>63.200000762939453125</ele>
        <time>2018-08-18T12:25:37.000Z</time>
      </trkpt>
      <trkpt lat="51.84347868897020816802978515625" lon="12.64021131210029125213623046875">
        <ele>63.200000762939453125</ele>
        <time>2018-08-18T12:25:41.000Z</time>
      </trkpt>
      <trkpt lat="51.843821592628955841064453125" lon="12.63951930217444896697998046875">
        <ele>62.799999237060546875</ele>
        <time>2018-08-18T12:25:49.000Z</time>
      </trkpt>
      <trkpt lat="51.84393734671175479888916015625" lon="12.63895712792873382568359375">
        <ele>62</ele>
        <time>2018-08-18T12:25:55.000Z</time>
      </trkpt>
      <trkpt lat="51.84400054626166820526123046875" lon="12.6387306489050388336181640625">
        <ele>62</ele>
        <time>2018-08-18T12:25:58.000Z</time>
      </trkpt>
      <trkpt lat="51.84401714242994785308837890625" lon="12.63866552151739597320556640625">
        <ele>61.799999237060546875</ele>
        <time>2018-08-18T12:25:59.000Z</time>
      </trkpt>
      <trkpt lat="51.844223253428936004638671875" lon="12.6378408260643482208251953125">
        <ele>61</ele>
        <time>2018-08-18T12:26:10.000Z</time>
      </trkpt>
      <trkpt lat="51.84424395672976970672607421875" lon="12.63775005005300045013427734375">
        <ele>61</ele>
        <time>2018-08-18T12:26:11.000Z</time>
      </trkpt>
      <trkpt lat="51.84432190842926502227783203125" lon="12.63755022548139095306396484375">
        <ele>60.59999847412109375</ele>
        <time>2018-08-18T12:26:14.000Z</time>
      </trkpt>
      <trkpt lat="51.844354011118412017822265625" lon="12.63749423436820507049560546875">
        <ele>60.40000152587890625</ele>
        <time>2018-08-18T12:26:15.000Z</time>
      </trkpt>
      <trkpt lat="51.84450991451740264892578125" lon="12.637108080089092254638671875">
        <ele>60.200000762939453125</ele>
        <time>2018-08-18T12:26:21.000Z</time>
      </trkpt>
      <trkpt lat="51.8448792211711406707763671875" lon="12.636395283043384552001953125">
        <ele>61.200000762939453125</ele>
        <time>2018-08-18T12:26:31.000Z</time>
      </trkpt>
      <trkpt lat="51.8452320992946624755859375" lon="12.63589228503406047821044921875">
        <ele>61.59999847412109375</ele>
        <time>2018-08-18T12:26:41.000Z</time>
      </trkpt>
      <trkpt lat="51.84542245231568813323974609375" lon="12.63611189089715480804443359375">
        <ele>61.59999847412109375</ele>
        <time>2018-08-18T12:26:47.000Z</time>
      </trkpt>
      <trkpt lat="51.84566200710833072662353515625" lon="12.63638363219797611236572265625">
        <ele>61.59999847412109375</ele>
        <time>2018-08-18T12:26:53.000Z</time>
      </trkpt>
      <trkpt lat="51.8455906771123409271240234375" lon="12.636638022959232330322265625">
        <ele>61.59999847412109375</ele>
        <time>2018-08-18T12:26:57.000Z</time>
      </trkpt>
      <trkpt lat="51.8455155752599239349365234375" lon="12.6367635838687419891357421875">
        <ele>61.59999847412109375</ele>
        <time>2018-08-18T12:26:59.000Z</time>
      </trkpt>
      <trkpt lat="51.8454719893634319305419921875" lon="12.63682611286640167236328125">
        <ele>61.799999237060546875</ele>
        <time>2018-08-18T12:27:00.000Z</time>
      </trkpt>
      <trkpt lat="51.84506203047931194305419921875" lon="12.63743941672146320343017578125">
        <ele>61.799999237060546875</ele>
        <time>2018-08-18T12:27:09.000Z</time>
      </trkpt>
      <trkpt lat="51.84487192891538143157958984375" lon="12.637783996760845184326171875">
        <ele>62</ele>
        <time>2018-08-18T12:27:14.000Z</time>
      </trkpt>
      <trkpt lat="51.8449295125901699066162109375" lon="12.638476006686687469482421875">
        <ele>62.40000152587890625</ele>
        <time>2018-08-18T12:27:22.000Z</time>
      </trkpt>
      <trkpt lat="51.84500738047063350677490234375" lon="12.63864406384527683258056640625">
        <ele>63</ele>
        <time>2018-08-18T12:27:24.000Z</time>
      </trkpt>
      <trkpt lat="51.8452996574342250823974609375" lon="12.63927086256444454193115234375">
        <ele>64.1999969482421875</ele>
        <time>2018-08-18T12:27:31.000Z</time>
      </trkpt>
      <trkpt lat="51.84565094299614429473876953125" lon="12.63999640010297298431396484375">
        <ele>64.8000030517578125</ele>
        <time>2018-08-18T12:27:39.000Z</time>
      </trkpt>
      <trkpt lat="51.84600046835839748382568359375" lon="12.64072679914534091949462890625">
        <ele>65.1999969482421875</ele>
        <time>2018-08-18T12:27:47.000Z</time>
      </trkpt>
      <trkpt lat="51.8460416235029697418212890625" lon="12.64081648550927639007568359375">
        <ele>65.1999969482421875</ele>
        <time>2018-08-18T12:27:48.000Z</time>
      </trkpt>
      <trkpt lat="51.84638452716171741485595703125" lon="12.641571275889873504638671875">
        <ele>65.59999847412109375</ele>
        <time>2018-08-18T12:27:57.000Z</time>
      </trkpt>
      <trkpt lat="51.84672047384083271026611328125" lon="12.6422835700213909149169921875">
        <ele>66.40000152587890625</ele>
        <time>2018-08-18T12:28:05.000Z</time>
      </trkpt>
      <trkpt lat="51.84691258706152439117431640625" lon="12.64264382421970367431640625">
        <ele>66.40000152587890625</ele>
        <time>2018-08-18T12:28:09.000Z</time>
      </trkpt>
      <trkpt lat="51.84726278297603130340576171875" lon="12.64338436536490917205810546875">
        <ele>66.40000152587890625</ele>
        <time>2018-08-18T12:28:17.000Z</time>
      </trkpt>
      <trkpt lat="51.847598142921924591064453125" lon="12.644079141318798065185546875">
        <ele>66.1999969482421875</ele>
        <time>2018-08-18T12:28:25.000Z</time>
      </trkpt>
      <trkpt lat="51.84797172434628009796142578125" lon="12.64482152648270130157470703125">
        <ele>66.1999969482421875</ele>
        <time>2018-08-18T12:28:33.000Z</time>
      </trkpt>
      <trkpt lat="51.84836651198565959930419921875" lon="12.64554454945027828216552734375">
        <ele>66.59999847412109375</ele>
        <time>2018-08-18T12:28:41.000Z</time>
      </trkpt>
      <trkpt lat="51.848776973783969879150390625" lon="12.6462555862963199615478515625">
        <ele>66.59999847412109375</ele>
        <time>2018-08-18T12:28:49.000Z</time>
      </trkpt>
      <trkpt lat="51.8492138385772705078125" lon="12.64689981937408447265625">
        <ele>66.59999847412109375</ele>
        <time>2018-08-18T12:28:57.000Z</time>
      </trkpt>
      <trkpt lat="51.849689595401287078857421875" lon="12.64750256203114986419677734375">
        <ele>66.59999847412109375</ele>
        <time>2018-08-18T12:29:05.000Z</time>
      </trkpt>
      <trkpt lat="51.8501896597445011138916015625" lon="12.6480519957840442657470703125">
        <ele>66.1999969482421875</ele>
        <time>2018-08-18T12:29:13.000Z</time>
      </trkpt>
      <trkpt lat="51.8506831862032413482666015625" lon="12.64849238097667694091796875">
        <ele>65.8000030517578125</ele>
        <time>2018-08-18T12:29:20.000Z</time>
      </trkpt>
      <trkpt lat="51.850904636085033416748046875" lon="12.64867954887449741363525390625">
        <ele>65.59999847412109375</ele>
        <time>2018-08-18T12:29:23.000Z</time>
      </trkpt>
      <trkpt lat="51.851443760097026824951171875" lon="12.6490829698741436004638671875">
        <ele>65.40000152587890625</ele>
        <time>2018-08-18T12:29:30.000Z</time>
      </trkpt>
      <trkpt lat="51.85200341977179050445556640625" lon="12.6494279690086841583251953125">
        <ele>65.1999969482421875</ele>
        <time>2018-08-18T12:29:37.000Z</time>
      </trkpt>
      <trkpt lat="51.85236417688429355621337890625" lon="12.64960147440433502197265625">
        <ele>65</ele>
        <time>2018-08-18T12:29:42.000Z</time>
      </trkpt>
      <trkpt lat="51.85256056487560272216796875" lon="12.6496584713459014892578125">
        <ele>64.59999847412109375</ele>
        <time>2018-08-18T12:29:45.000Z</time>
      </trkpt>
      <trkpt lat="51.853111423552036285400390625" lon="12.64993348158895969390869140625">
        <ele>64.59999847412109375</ele>
        <time>2018-08-18T12:29:53.000Z</time>
      </trkpt>
      <trkpt lat="51.8536413274705410003662109375" lon="12.65018795616924762725830078125">
        <ele>64.59999847412109375</ele>
        <time>2018-08-18T12:30:00.000Z</time>
      </trkpt>
      <trkpt lat="51.854229234158992767333984375" lon="12.65039532445371150970458984375">
        <ele>65.1999969482421875</ele>
        <time>2018-08-18T12:30:08.000Z</time>
      </trkpt>
      <trkpt lat="51.8548022210597991943359375" lon="12.650569416582584381103515625">
        <ele>65.59999847412109375</ele>
        <time>2018-08-18T12:30:16.000Z</time>
      </trkpt>
      <trkpt lat="51.85487003065645694732666015625" lon="12.650587521493434906005859375">
        <ele>65.8000030517578125</ele>
        <time>2018-08-18T12:30:17.000Z</time>
      </trkpt>
      <trkpt lat="51.8553398363292217254638671875" lon="12.65072070993483066558837890625">
        <ele>67.1999969482421875</ele>
        <time>2018-08-18T12:30:24.000Z</time>
      </trkpt>
      <trkpt lat="51.85579597949981689453125" lon="12.65085800550878047943115234375">
        <ele>68.1999969482421875</ele>
        <time>2018-08-18T12:30:31.000Z</time>
      </trkpt>
      <trkpt lat="51.8561540544033050537109375" lon="12.65096671879291534423828125">
        <ele>69.40000152587890625</ele>
        <time>2018-08-18T12:30:37.000Z</time>
      </trkpt>
      <trkpt lat="51.85640224255621433258056640625" lon="12.65102832578122615814208984375">
        <ele>70.59999847412109375</ele>
        <time>2018-08-18T12:30:41.000Z</time>
      </trkpt>
      <trkpt lat="51.8569025583565235137939453125" lon="12.651152126491069793701171875">
        <ele>72</ele>
        <time>2018-08-18T12:30:49.000Z</time>
      </trkpt>
      <trkpt lat="51.85748107731342315673828125" lon="12.65129864215850830078125">
        <ele>72.59999847412109375</ele>
        <time>2018-08-18T12:30:58.000Z</time>
      </trkpt>
      <trkpt lat="51.858043670654296875" lon="12.65146384947001934051513671875">
        <ele>72.8000030517578125</ele>
        <time>2018-08-18T12:31:06.000Z</time>
      </trkpt>
      <trkpt lat="51.8586444854736328125" lon="12.65161707065999507904052734375">
        <ele>73</ele>
        <time>2018-08-18T12:31:14.000Z</time>
      </trkpt>
      <trkpt lat="51.85922392643988132476806640625" lon="12.65176744200289249420166015625">
        <ele>72.40000152587890625</ele>
        <time>2018-08-18T12:31:21.000Z</time>
      </trkpt>
      <trkpt lat="51.859804876148700714111328125" lon="12.6519195735454559326171875">
        <ele>71.40000152587890625</ele>
        <time>2018-08-18T12:31:28.000Z</time>
      </trkpt>
      <trkpt lat="51.85988676734268665313720703125" lon="12.6519411988556385040283203125">
        <ele>71.40000152587890625</ele>
        <time>2018-08-18T12:31:29.000Z</time>
      </trkpt>
      <trkpt lat="51.8604973889887332916259765625" lon="12.65205997042357921600341796875">
        <ele>70.40000152587890625</ele>
        <time>2018-08-18T12:31:36.000Z</time>
      </trkpt>
      <trkpt lat="51.86059109866619110107421875" lon="12.65207874588668346405029296875">
        <ele>70.1999969482421875</ele>
        <time>2018-08-18T12:31:37.000Z</time>
      </trkpt>
      <trkpt lat="51.8611354194581508636474609375" lon="12.65215703286230564117431640625">
        <ele>69.40000152587890625</ele>
        <time>2018-08-18T12:31:43.000Z</time>
      </trkpt>
      <trkpt lat="51.8612100183963775634765625" lon="12.6521614752709865570068359375">
        <ele>69</ele>
        <time>2018-08-18T12:31:44.000Z</time>
      </trkpt>
      <trkpt lat="51.86141244135797023773193359375" lon="12.65216122381389141082763671875">
        <ele>67.59999847412109375</ele>
        <time>2018-08-18T12:31:49.000Z</time>
      </trkpt>
      <trkpt lat="51.8614220805466175079345703125" lon="12.6521717011928558349609375">
        <ele>67.1999969482421875</ele>
        <time>2018-08-18T12:31:52.000Z</time>
      </trkpt>
      <trkpt lat="51.8614267744123935699462890625" lon="12.65220782719552516937255859375">
        <ele>66.40000152587890625</ele>
        <time>2018-08-18T12:34:16.000Z</time>
      </trkpt>
      <trkpt lat="51.86143331229686737060546875" lon="12.6524028740823268890380859375">
        <ele>66.1999969482421875</ele>
        <time>2018-08-18T12:34:20.000Z</time>
      </trkpt>
      <trkpt lat="51.86144043691456317901611328125" lon="12.65255416743457317352294921875">
        <ele>66.1999969482421875</ele>
        <time>2018-08-18T12:34:22.000Z</time>
      </trkpt>
      <trkpt lat="51.8615001998841762542724609375" lon="12.65278869308531284332275390625">
        <ele>66.1999969482421875</ele>
        <time>2018-08-18T12:34:25.000Z</time>
      </trkpt>
      <trkpt lat="51.86162802390754222869873046875" lon="12.6537362672388553619384765625">
        <ele>66</ele>
        <time>2018-08-18T12:34:34.000Z</time>
      </trkpt>
      <trkpt lat="51.86180555261671543121337890625" lon="12.654615528881549835205078125">
        <ele>65.8000030517578125</ele>
        <time>2018-08-18T12:34:42.000Z</time>
      </trkpt>
      <trkpt lat="51.86187881045043468475341796875" lon="12.65493881888687610626220703125">
        <ele>66</ele>
        <time>2018-08-18T12:34:45.000Z</time>
      </trkpt>
      <trkpt lat="51.86213873326778411865234375" lon="12.655766196548938751220703125">
        <ele>65.8000030517578125</ele>
        <time>2018-08-18T12:34:53.000Z</time>
      </trkpt>
      <trkpt lat="51.86236345209181308746337890625" lon="12.656349577009677886962890625">
        <ele>65.8000030517578125</ele>
        <time>2018-08-18T12:34:59.000Z</time>
      </trkpt>
      <trkpt lat="51.86255942098796367645263671875" lon="12.65725649893283843994140625">
        <ele>65.8000030517578125</ele>
        <time>2018-08-18T12:35:07.000Z</time>
      </trkpt>
      <trkpt lat="51.8626324273645877838134765625" lon="12.657583057880401611328125">
        <ele>65.40000152587890625</ele>
        <time>2018-08-18T12:35:10.000Z</time>
      </trkpt>
      <trkpt lat="51.863006092607975006103515625" lon="12.65737141482532024383544921875">
        <ele>65</ele>
        <time>2018-08-18T12:35:18.000Z</time>
      </trkpt>
      <trkpt lat="51.86324782669544219970703125" lon="12.6569938100874423980712890625">
        <ele>64.59999847412109375</ele>
        <time>2018-08-18T12:35:23.000Z</time>
      </trkpt>
      <trkpt lat="51.8633700348436832427978515625" lon="12.65709154307842254638671875">
        <ele>64.1999969482421875</ele>
        <time>2018-08-18T12:35:25.000Z</time>
      </trkpt>
      <trkpt lat="51.86345125548541545867919921875" lon="12.65716555528342723846435546875">
        <ele>64</ele>
        <time>2018-08-18T12:35:27.000Z</time>
      </trkpt>
      <trkpt lat="51.86349458992481231689453125" lon="12.65718600712716579437255859375">
        <ele>63.59999847412109375</ele>
        <time>2018-08-18T12:35:28.000Z</time>
      </trkpt>
      <trkpt lat="51.863657869398593902587890625" lon="12.657114677131175994873046875">
        <ele>63.59999847412109375</ele>
        <time>2018-08-18T12:35:34.000Z</time>
      </trkpt>
      <trkpt lat="51.86371260322630405426025390625" lon="12.65685710124671459197998046875">
        <ele>63.59999847412109375</ele>
        <time>2018-08-18T12:35:38.000Z</time>
      </trkpt>
      <trkpt lat="51.8637455441057682037353515625" lon="12.6567135192453861236572265625">
        <ele>63.799999237060546875</ele>
        <time>2018-08-18T12:35:40.000Z</time>
      </trkpt>
      <trkpt lat="51.86390572227537631988525390625" lon="12.65630699694156646728515625">
        <ele>64</ele>
        <time>2018-08-18T12:35:48.000Z</time>
      </trkpt>
      <trkpt lat="51.86391075141727924346923828125" lon="12.65614665113389492034912109375">
        <ele>64</ele>
        <time>2018-08-18T12:35:50.000Z</time>
      </trkpt>
      <trkpt lat="51.86390957795083522796630859375" lon="12.65597716905176639556884765625">
        <ele>64</ele>
        <time>2018-08-18T12:35:52.000Z</time>
      </trkpt>
      <trkpt lat="51.8639738671481609344482421875" lon="12.65566804446280002593994140625">
        <ele>64.1999969482421875</ele>
        <time>2018-08-18T12:35:56.000Z</time>
      </trkpt>
      <trkpt lat="51.8642417527735233306884765625" lon="12.65551507472991943359375">
        <ele>64.40000152587890625</ele>
        <time>2018-08-18T12:36:02.000Z</time>
      </trkpt>
      <trkpt lat="51.86447384767234325408935546875" lon="12.6555487699806690216064453125">
        <ele>64.59999847412109375</ele>
        <time>2018-08-18T12:36:06.000Z</time>
      </trkpt>
      <trkpt lat="51.8650115467607975006103515625" lon="12.655595876276493072509765625">
        <ele>65</ele>
        <time>2018-08-18T12:36:15.000Z</time>
      </trkpt>
      <trkpt lat="51.86518915928900241851806640625" lon="12.65556997619569301605224609375">
        <ele>65.1999969482421875</ele>
        <time>2018-08-18T12:36:18.000Z</time>
      </trkpt>
      <trkpt lat="51.8654648400843143463134765625" lon="12.65544039197266101837158203125">
        <ele>65.40000152587890625</ele>
        <time>2018-08-18T12:36:23.000Z</time>
      </trkpt>
      <trkpt lat="51.86560523696243762969970703125" lon="12.65530745498836040496826171875">
        <ele>65.40000152587890625</ele>
        <time>2018-08-18T12:36:26.000Z</time>
      </trkpt>
      <trkpt lat="51.8659923970699310302734375" lon="12.65459164045751094818115234375">
        <ele>65.59999847412109375</ele>
        <time>2018-08-18T12:36:36.000Z</time>
      </trkpt>
      <trkpt lat="51.86610848642885684967041015625" lon="12.65439433045685291290283203125">
        <ele>65.8000030517578125</ele>
        <time>2018-08-18T12:36:39.000Z</time>
      </trkpt>
      <trkpt lat="51.86628081835806369781494140625" lon="12.65406022779643535614013671875">
        <ele>66.40000152587890625</ele>
        <time>2018-08-18T12:36:45.000Z</time>
      </trkpt>
      <trkpt lat="51.8663338758051395416259765625" lon="12.65397490002214908599853515625">
        <ele>66.8000030517578125</ele>
        <time>2018-08-18T12:36:50.000Z</time>
      </trkpt>
      <trkpt lat="51.86637838371098041534423828125" lon="12.6539776660501956939697265625">
        <ele>67</ele>
        <time>2018-08-18T12:37:05.000Z</time>
      </trkpt>
      <trkpt lat="51.86644904315471649169921875" lon="12.65392896719276905059814453125">
        <ele>67</ele>
        <time>2018-08-18T12:37:10.000Z</time>
      </trkpt>
      <trkpt lat="51.8670118041336536407470703125" lon="12.65390331856906414031982421875">
        <ele>67.1999969482421875</ele>
        <time>2018-08-18T12:37:25.000Z</time>
      </trkpt>
      <trkpt lat="51.86729016713798046112060546875" lon="12.6538695394992828369140625">
        <ele>67.1999969482421875</ele>
        <time>2018-08-18T12:37:31.000Z</time>
      </trkpt>
      <trkpt lat="51.8676572106778621673583984375" lon="12.65378898940980434417724609375">
        <ele>67.1999969482421875</ele>
        <time>2018-08-18T12:37:38.000Z</time>
      </trkpt>
      <trkpt lat="51.8678282015025615692138671875" lon="12.65376694500446319580078125">
        <ele>67.1999969482421875</ele>
        <time>2018-08-18T12:37:41.000Z</time>
      </trkpt>
      <trkpt lat="51.8682845123112201690673828125" lon="12.65370198525488376617431640625">
        <ele>66.8000030517578125</ele>
        <time>2018-08-18T12:37:49.000Z</time>
      </trkpt>
      <trkpt lat="51.8688705749809741973876953125" lon="12.6536333374679088592529296875">
        <ele>66.8000030517578125</ele>
        <time>2018-08-18T12:38:01.000Z</time>
      </trkpt>
      <trkpt lat="51.86918632127344608306884765625" lon="12.6536286436021327972412109375">
        <ele>67</ele>
        <time>2018-08-18T12:38:06.000Z</time>
      </trkpt>
      <trkpt lat="51.86972443945705890655517578125" lon="12.65355773270130157470703125">
        <ele>67.1999969482421875</ele>
        <time>2018-08-18T12:38:14.000Z</time>
      </trkpt>
      <trkpt lat="51.870087124407291412353515625" lon="12.65357977710664272308349609375">
        <ele>67.40000152587890625</ele>
        <time>2018-08-18T12:38:19.000Z</time>
      </trkpt>
      <trkpt lat="51.87029072083532810211181640625" lon="12.65353736467659473419189453125">
        <ele>67.59999847412109375</ele>
        <time>2018-08-18T12:38:22.000Z</time>
      </trkpt>
      <trkpt lat="51.87084074132144451141357421875" lon="12.65350534580647945404052734375">
        <ele>67.8000030517578125</ele>
        <time>2018-08-18T12:38:30.000Z</time>
      </trkpt>
      <trkpt lat="51.8714049272239208221435546875" lon="12.6534730754792690277099609375">
        <ele>68</ele>
        <time>2018-08-18T12:38:38.000Z</time>
      </trkpt>
      <trkpt lat="51.87175084836781024932861328125" lon="12.6534516178071498870849609375">
        <ele>68.40000152587890625</ele>
        <time>2018-08-18T12:38:43.000Z</time>
      </trkpt>
      <trkpt lat="51.872328780591487884521484375" lon="12.6534108817577362060546875">
        <ele>68.8000030517578125</ele>
        <time>2018-08-18T12:38:51.000Z</time>
      </trkpt>
      <trkpt lat="51.8729327805340290069580078125" lon="12.65337291173636913299560546875">
        <ele>69</ele>
        <time>2018-08-18T12:38:59.000Z</time>
      </trkpt>
      <trkpt lat="51.87350518070161342620849609375" lon="12.6533272303640842437744140625">
        <ele>69.59999847412109375</ele>
        <time>2018-08-18T12:39:07.000Z</time>
      </trkpt>
      <trkpt lat="51.87407347373664379119873046875" lon="12.65330082736909389495849609375">
        <ele>69.59999847412109375</ele>
        <time>2018-08-18T12:39:15.000Z</time>
      </trkpt>
      <trkpt lat="51.87466758303344249725341796875" lon="12.6532383821904659271240234375">
        <ele>69.59999847412109375</ele>
        <time>2018-08-18T12:39:23.000Z</time>
      </trkpt>
      <trkpt lat="51.87525230459868907928466796875" lon="12.6531703211367130279541015625">
        <ele>69.8000030517578125</ele>
        <time>2018-08-18T12:39:31.000Z</time>
      </trkpt>
      <trkpt lat="51.8754667975008487701416015625" lon="12.65316822566092014312744140625">
        <ele>70</ele>
        <time>2018-08-18T12:39:34.000Z</time>
      </trkpt>
      <trkpt lat="51.8758024089038372039794921875" lon="12.6530420780181884765625">
        <ele>70.1999969482421875</ele>
        <time>2018-08-18T12:39:39.000Z</time>
      </trkpt>
      <trkpt lat="51.87636248767375946044921875" lon="12.652958929538726806640625">
        <ele>70.40000152587890625</ele>
        <time>2018-08-18T12:39:47.000Z</time>
      </trkpt>
      <trkpt lat="51.8767212331295013427734375" lon="12.6529141701757907867431640625">
        <ele>70.59999847412109375</ele>
        <time>2018-08-18T12:39:52.000Z</time>
      </trkpt>
      <trkpt lat="51.87731492333114147186279296875" lon="12.6528380624949932098388671875">
        <ele>70.59999847412109375</ele>
        <time>2018-08-18T12:40:00.000Z</time>
      </trkpt>
      <trkpt lat="51.87791255302727222442626953125" lon="12.65277142636477947235107421875">
        <ele>71.1999969482421875</ele>
        <time>2018-08-18T12:40:08.000Z</time>
      </trkpt>
      <trkpt lat="51.8784537725150585174560546875" lon="12.6527066342532634735107421875">
        <ele>71.40000152587890625</ele>
        <time>2018-08-18T12:40:16.000Z</time>
      </trkpt>
      <trkpt lat="51.87857707031071186065673828125" lon="12.6526885293424129486083984375">
        <ele>71.40000152587890625</ele>
        <time>2018-08-18T12:40:18.000Z</time>
      </trkpt>
      <trkpt lat="51.8786348216235637664794921875" lon="12.65266564674675464630126953125">
        <ele>71.59999847412109375</ele>
        <time>2018-08-18T12:40:19.000Z</time>
      </trkpt>
      <trkpt lat="51.8791192956268787384033203125" lon="12.65250069089233875274658203125">
        <ele>72</ele>
        <time>2018-08-18T12:40:30.000Z</time>
      </trkpt>
      <trkpt lat="51.879545934498310089111328125" lon="12.6528451032936573028564453125">
        <ele>72</ele>
        <time>2018-08-18T12:40:38.000Z</time>
      </trkpt>
      <trkpt lat="51.8797253072261810302734375" lon="12.65281476080417633056640625">
        <ele>72.1999969482421875</ele>
        <time>2018-08-18T12:40:44.000Z</time>
      </trkpt>
      <trkpt lat="51.87981993891298770904541015625" lon="12.65278316102921962738037109375">
        <ele>72.40000152587890625</ele>
        <time>2018-08-18T12:40:49.000Z</time>
      </trkpt>
      <trkpt lat="51.8800956197082996368408203125" lon="12.6526171155273914337158203125">
        <ele>72.8000030517578125</ele>
        <time>2018-08-18T12:40:57.000Z</time>
      </trkpt>
      <trkpt lat="51.88018262386322021484375" lon="12.6525835879147052764892578125">
        <ele>72.8000030517578125</ele>
        <time>2018-08-18T12:40:59.000Z</time>
      </trkpt>
      <trkpt lat="51.880288906395435333251953125" lon="12.6525359787046909332275390625">
        <ele>72.8000030517578125</ele>
        <time>2018-08-18T12:41:02.000Z</time>
      </trkpt>
      <trkpt lat="51.8804382719099521636962890625" lon="12.65224638395011425018310546875">
        <ele>73</ele>
        <time>2018-08-18T12:41:11.000Z</time>
      </trkpt>
      <trkpt lat="51.88079081475734710693359375" lon="12.65205091796815395355224609375">
        <ele>73</ele>
        <time>2018-08-18T12:41:21.000Z</time>
      </trkpt>
      <trkpt lat="51.88081051222980022430419921875" lon="12.651805914938449859619140625">
        <ele>73</ele>
        <time>2018-08-18T12:41:25.000Z</time>
      </trkpt>
      <trkpt lat="51.8809076584875583648681640625" lon="12.65097669325768947601318359375">
        <ele>73</ele>
        <time>2018-08-18T12:41:42.000Z</time>
      </trkpt>
      <trkpt lat="51.88091478310525417327880859375" lon="12.650901339948177337646484375">
        <ele>73</ele>
        <time>2018-08-18T12:41:44.000Z</time>
      </trkpt>
      <trkpt lat="51.8813453614711761474609375" lon="12.650780975818634033203125">
        <ele>72.59999847412109375</ele>
        <time>2018-08-18T12:42:13.000Z</time>
      </trkpt>
      <trkpt lat="51.8814320303499698638916015625" lon="12.651011310517787933349609375">
        <ele>76.59999847412109375</ele>
        <time>2018-08-18T13:32:37.000Z</time>
      </trkpt>
      <trkpt lat="51.8815148435533046722412109375" lon="12.6518091000616550445556640625">
        <ele>76.8000030517578125</ele>
        <time>2018-08-18T13:33:01.000Z</time>
      </trkpt>
      <trkpt lat="51.88176982104778289794921875" lon="12.651718743145465850830078125">
        <ele>76.59999847412109375</ele>
        <time>2018-08-18T13:33:11.000Z</time>
      </trkpt>
      <trkpt lat="51.88193217851221561431884765625" lon="12.65184002928435802459716796875">
        <ele>77</ele>
        <time>2018-08-18T13:33:22.000Z</time>
      </trkpt>
      <trkpt lat="51.88201884739100933074951171875" lon="12.6517881453037261962890625">
        <ele>77.40000152587890625</ele>
        <time>2018-08-18T13:33:26.000Z</time>
      </trkpt>
      <trkpt lat="51.8820563144981861114501953125" lon="12.65178387053310871124267578125">
        <ele>78</ele>
        <time>2018-08-18T13:33:31.000Z</time>
      </trkpt>
      <trkpt lat="51.88208892010152339935302734375" lon="12.65181840397417545318603515625">
        <ele>77.8000030517578125</ele>
        <time>2018-08-18T13:34:02.000Z</time>
      </trkpt>
      <trkpt lat="51.88211171887814998626708984375" lon="12.65197925269603729248046875">
        <ele>77.8000030517578125</ele>
        <time>2018-08-18T13:34:07.000Z</time>
      </trkpt>
      <trkpt lat="51.88228840939700603485107421875" lon="12.65266279689967632293701171875">
        <ele>78</ele>
        <time>2018-08-18T13:34:22.000Z</time>
      </trkpt>
      <trkpt lat="51.882415227591991424560546875" lon="12.6535515300929546356201171875">
        <ele>78</ele>
        <time>2018-08-18T13:34:34.000Z</time>
      </trkpt>
      <trkpt lat="51.88254824839532375335693359375" lon="12.65446373261511325836181640625">
        <ele>78</ele>
        <time>2018-08-18T13:34:45.000Z</time>
      </trkpt>
      <trkpt lat="51.88260910101234912872314453125" lon="12.65504367649555206298828125">
        <ele>77.59999847412109375</ele>
        <time>2018-08-18T13:34:52.000Z</time>
      </trkpt>
      <trkpt lat="51.882546655833721160888671875" lon="12.65532271005213260650634765625">
        <ele>77.59999847412109375</ele>
        <time>2018-08-18T13:34:56.000Z</time>
      </trkpt>
      <trkpt lat="51.8824888207018375396728515625" lon="12.65548892319202423095703125">
        <ele>77.59999847412109375</ele>
        <time>2018-08-18T13:35:05.000Z</time>
      </trkpt>
      <trkpt lat="51.88249058090150356292724609375" lon="12.65558606944978237152099609375">
        <ele>77.59999847412109375</ele>
        <time>2018-08-18T13:35:10.000Z</time>
      </trkpt>
      <trkpt lat="51.88279685564339160919189453125" lon="12.65622611157596111297607421875">
        <ele>78</ele>
        <time>2018-08-18T13:35:25.000Z</time>
      </trkpt>
      <trkpt lat="51.8831665813922882080078125" lon="12.65655183233320713043212890625">
        <ele>78</ele>
        <time>2018-08-18T13:35:34.000Z</time>
      </trkpt>
      <trkpt lat="51.8836270831525325775146484375" lon="12.65706606209278106689453125">
        <ele>78</ele>
        <time>2018-08-18T13:35:44.000Z</time>
      </trkpt>
      <trkpt lat="51.884087584912776947021484375" lon="12.65757107175886631011962890625">
        <ele>78</ele>
        <time>2018-08-18T13:35:54.000Z</time>
      </trkpt>
      <trkpt lat="51.88454263843595981597900390625" lon="12.65807323157787322998046875">
        <ele>78.8000030517578125</ele>
        <time>2018-08-18T13:36:05.000Z</time>
      </trkpt>
      <trkpt lat="51.8847807683050632476806640625" lon="12.65832728706300258636474609375">
        <ele>79</ele>
        <time>2018-08-18T13:36:10.000Z</time>
      </trkpt>
      <trkpt lat="51.88525426201522350311279296875" lon="12.65886020846664905548095703125">
        <ele>79.59999847412109375</ele>
        <time>2018-08-18T13:36:21.000Z</time>
      </trkpt>
      <trkpt lat="51.8854737840592861175537109375" lon="12.6591127552092075347900390625">
        <ele>80</ele>
        <time>2018-08-18T13:36:26.000Z</time>
      </trkpt>
      <trkpt lat="51.88592783175408840179443359375" lon="12.6596201956272125244140625">
        <ele>80.8000030517578125</ele>
        <time>2018-08-18T13:36:36.000Z</time>
      </trkpt>
      <trkpt lat="51.88597342930734157562255859375" lon="12.6596726663410663604736328125">
        <ele>80.8000030517578125</ele>
        <time>2018-08-18T13:36:37.000Z</time>
      </trkpt>
      <trkpt lat="51.88610963523387908935546875" lon="12.65982328914105892181396484375">
        <ele>81.1999969482421875</ele>
        <time>2018-08-18T13:36:40.000Z</time>
      </trkpt>
      <trkpt lat="51.88643954694271087646484375" lon="12.66020734794437885284423828125">
        <ele>81.8000030517578125</ele>
        <time>2018-08-18T13:36:48.000Z</time>
      </trkpt>
      <trkpt lat="51.88666627742350101470947265625" lon="12.660481519997119903564453125">
        <ele>82.1999969482421875</ele>
        <time>2018-08-18T13:36:54.000Z</time>
      </trkpt>
      <trkpt lat="51.88671522773802280426025390625" lon="12.6605024747550487518310546875">
        <ele>82.1999969482421875</ele>
        <time>2018-08-18T13:36:55.000Z</time>
      </trkpt>
      <trkpt lat="51.8868470750749111175537109375" lon="12.66063080169260501861572265625">
        <ele>82.40000152587890625</ele>
        <time>2018-08-18T13:36:58.000Z</time>
      </trkpt>
      <trkpt lat="51.886976994574069976806640625" lon="12.66089013777673244476318359375">
        <ele>82.8000030517578125</ele>
        <time>2018-08-18T13:37:02.000Z</time>
      </trkpt>
      <trkpt lat="51.887145973742008209228515625" lon="12.661076299846172332763671875">
        <ele>83</ele>
        <time>2018-08-18T13:37:06.000Z</time>
      </trkpt>
      <trkpt lat="51.88733540475368499755859375" lon="12.661175541579723358154296875">
        <ele>83.1999969482421875</ele>
        <time>2018-08-18T13:37:10.000Z</time>
      </trkpt>
      <trkpt lat="51.88737873919308185577392578125" lon="12.6612216420471668243408203125">
        <ele>83.40000152587890625</ele>
        <time>2018-08-18T13:37:11.000Z</time>
      </trkpt>
      <trkpt lat="51.88782549463212490081787109375" lon="12.6617141626775264739990234375">
        <ele>84.1999969482421875</ele>
        <time>2018-08-18T13:37:21.000Z</time>
      </trkpt>
      <trkpt lat="51.88791316933929920196533203125" lon="12.66180912964046001434326171875">
        <ele>84.40000152587890625</ele>
        <time>2018-08-18T13:37:23.000Z</time>
      </trkpt>
      <trkpt lat="51.88835690729320049285888671875" lon="12.662314139306545257568359375">
        <ele>85.1999969482421875</ele>
        <time>2018-08-18T13:37:34.000Z</time>
      </trkpt>
      <trkpt lat="51.88839764334261417388916015625" lon="12.66235898248851299285888671875">
        <ele>85.40000152587890625</ele>
        <time>2018-08-18T13:37:35.000Z</time>
      </trkpt>
      <trkpt lat="51.88855840824544429779052734375" lon="12.662538774311542510986328125">
        <ele>86</ele>
        <time>2018-08-18T13:37:39.000Z</time>
      </trkpt>
      <trkpt lat="51.8888486735522747039794921875" lon="12.66285032965242862701416015625">
        <ele>86.40000152587890625</ele>
        <time>2018-08-18T13:37:46.000Z</time>
      </trkpt>
      <trkpt lat="51.88913558609783649444580078125" lon="12.66318191774189472198486328125">
        <ele>87.59999847412109375</ele>
        <time>2018-08-18T13:37:53.000Z</time>
      </trkpt>
      <trkpt lat="51.88917363993823528289794921875" lon="12.66323539428412914276123046875">
        <ele>87.8000030517578125</ele>
        <time>2018-08-18T13:37:54.000Z</time>
      </trkpt>
      <trkpt lat="51.8892654217779636383056640625" lon="12.663409151136875152587890625">
        <ele>88</ele>
        <time>2018-08-18T13:37:57.000Z</time>
      </trkpt>
      <trkpt lat="51.889417804777622222900390625" lon="12.66360017471015453338623046875">
        <ele>88.1999969482421875</ele>
        <time>2018-08-18T13:38:01.000Z</time>
      </trkpt>
      <trkpt lat="51.8895255960524082183837890625" lon="12.66375540755689144134521484375">
        <ele>88.59999847412109375</ele>
        <time>2018-08-18T13:38:04.000Z</time>
      </trkpt>
      <trkpt lat="51.8895614705979824066162109375" lon="12.6638072915375232696533203125">
        <ele>88.59999847412109375</ele>
        <time>2018-08-18T13:38:05.000Z</time>
      </trkpt>
      <trkpt lat="51.88973975367844104766845703125" lon="12.6640496961772441864013671875">
        <ele>89.40000152587890625</ele>
        <time>2018-08-18T13:38:10.000Z</time>
      </trkpt>
      <trkpt lat="51.88977755606174468994140625" lon="12.66408850438892841339111328125">
        <ele>89.59999847412109375</ele>
        <time>2018-08-18T13:38:11.000Z</time>
      </trkpt>
      <trkpt lat="51.8898182921111583709716796875" lon="12.6641155779361724853515625">
        <ele>89.8000030517578125</ele>
        <time>2018-08-18T13:38:12.000Z</time>
      </trkpt>
      <trkpt lat="51.88992884941399097442626953125" lon="12.6642143167555332183837890625">
        <ele>90</ele>
        <time>2018-08-18T13:38:15.000Z</time>
      </trkpt>
      <trkpt lat="51.89018902368843555450439453125" lon="12.664540708065032958984375">
        <ele>90.8000030517578125</ele>
        <time>2018-08-18T13:38:22.000Z</time>
      </trkpt>
      <trkpt lat="51.8904368765652179718017578125" lon="12.66478084959089756011962890625">
        <ele>91.59999847412109375</ele>
        <time>2018-08-18T13:38:28.000Z</time>
      </trkpt>
      <trkpt lat="51.8905247189104557037353515625" lon="12.6648412831127643585205078125">
        <ele>91.8000030517578125</ele>
        <time>2018-08-18T13:38:30.000Z</time>
      </trkpt>
      <trkpt lat="51.89056570641696453094482421875" lon="12.66487522982060909271240234375">
        <ele>92</ele>
        <time>2018-08-18T13:38:31.000Z</time>
      </trkpt>
      <trkpt lat="51.89075295813381671905517578125" lon="12.66503280960023403167724609375">
        <ele>92.59999847412109375</ele>
        <time>2018-08-18T13:38:36.000Z</time>
      </trkpt>
      <trkpt lat="51.890839375555515289306640625" lon="12.665064074099063873291015625">
        <ele>93</ele>
        <time>2018-08-18T13:38:38.000Z</time>
      </trkpt>
      <trkpt lat="51.89087952487170696258544921875" lon="12.6650913991034030914306640625">
        <ele>93.1999969482421875</ele>
        <time>2018-08-18T13:38:39.000Z</time>
      </trkpt>
      <trkpt lat="51.89134572632610797882080078125" lon="12.66559087671339511871337890625">
        <ele>94.1999969482421875</ele>
        <time>2018-08-18T13:38:51.000Z</time>
      </trkpt>
      <trkpt lat="51.89163900911808013916015625" lon="12.665923722088336944580078125">
        <ele>95.1999969482421875</ele>
        <time>2018-08-18T13:38:59.000Z</time>
      </trkpt>
      <trkpt lat="51.89209557138383388519287109375" lon="12.6664003171026706695556640625">
        <ele>96.1999969482421875</ele>
        <time>2018-08-18T13:39:10.000Z</time>
      </trkpt>
      <trkpt lat="51.892300508916378021240234375" lon="12.6666172407567501068115234375">
        <ele>96.40000152587890625</ele>
        <time>2018-08-18T13:39:15.000Z</time>
      </trkpt>
      <trkpt lat="51.89276562072336673736572265625" lon="12.667117975652217864990234375">
        <ele>96.40000152587890625</ele>
        <time>2018-08-18T13:39:26.000Z</time>
      </trkpt>
      <trkpt lat="51.892819516360759735107421875" lon="12.66721998341381549835205078125">
        <ele>96.40000152587890625</ele>
        <time>2018-08-18T13:39:28.000Z</time>
      </trkpt>
      <trkpt lat="51.8928572349250316619873046875" lon="12.667459286749362945556640625">
        <ele>96.40000152587890625</ele>
        <time>2018-08-18T13:39:33.000Z</time>
      </trkpt>
      <trkpt lat="51.89286075532436370849609375" lon="12.667476050555706024169921875">
        <ele>96.40000152587890625</ele>
        <time>2018-08-18T13:39:34.000Z</time>
      </trkpt>
      <trkpt lat="51.89285731874406337738037109375" lon="12.667516283690929412841796875">
        <ele>96.59999847412109375</ele>
        <time>2018-08-18T13:39:37.000Z</time>
      </trkpt>
      <trkpt lat="51.89285446889698505401611328125" lon="12.6675461232662200927734375">
        <ele>96.8000030517578125</ele>
        <time>2018-08-18T13:39:40.000Z</time>
      </trkpt>
      <trkpt lat="51.89293812029063701629638671875" lon="12.66752525232732295989990234375">
        <ele>96.8000030517578125</ele>
        <time>2018-08-18T13:40:29.000Z</time>
      </trkpt>
      <trkpt lat="51.8930027447640895843505859375" lon="12.667445875704288482666015625">
        <ele>96.8000030517578125</ele>
        <time>2018-08-18T13:40:32.000Z</time>
      </trkpt>
      <trkpt lat="51.8931874819099903106689453125" lon="12.6676079817116260528564453125">
        <ele>96.8000030517578125</ele>
        <time>2018-08-18T13:40:38.000Z</time>
      </trkpt>
      <trkpt lat="51.89367212355136871337890625" lon="12.66815087758004665374755859375">
        <ele>96.59999847412109375</ele>
        <time>2018-08-18T13:40:49.000Z</time>
      </trkpt>
      <trkpt lat="51.894145868718624114990234375" lon="12.66867223195731639862060546875">
        <ele>96.8000030517578125</ele>
        <time>2018-08-18T13:40:59.000Z</time>
      </trkpt>
      <trkpt lat="51.894613243639469146728515625" lon="12.66918134875595569610595703125">
        <ele>97.40000152587890625</ele>
        <time>2018-08-18T13:41:10.000Z</time>
      </trkpt>
      <trkpt lat="51.8946489505469799041748046875" lon="12.669226191937923431396484375">
        <ele>97.59999847412109375</ele>
        <time>2018-08-18T13:41:11.000Z</time>
      </trkpt>
      <trkpt lat="51.8949882499873638153076171875" lon="12.66961502842605113983154296875">
        <ele>98.8000030517578125</ele>
        <time>2018-08-18T13:41:20.000Z</time>
      </trkpt>
      <trkpt lat="51.8952091969549655914306640625" lon="12.6698689162731170654296875">
        <ele>100</ele>
        <time>2018-08-18T13:41:26.000Z</time>
      </trkpt>
      <trkpt lat="51.895521171391010284423828125" lon="12.67022405751049518585205078125">
        <ele>101.1999969482421875</ele>
        <time>2018-08-18T13:41:35.000Z</time>
      </trkpt>
      <trkpt lat="51.895660646259784698486328125" lon="12.6703719981014728546142578125">
        <ele>101.59999847412109375</ele>
        <time>2018-08-18T13:41:39.000Z</time>
      </trkpt>
      <trkpt lat="51.8957724608480930328369140625" lon="12.67048255540430545806884765625">
        <ele>102.1999969482421875</ele>
        <time>2018-08-18T13:41:42.000Z</time>
      </trkpt>
      <trkpt lat="51.8959893845021724700927734375" lon="12.67072521150112152099609375">
        <ele>103.1999969482421875</ele>
        <time>2018-08-18T13:41:48.000Z</time>
      </trkpt>
      <trkpt lat="51.89602911472320556640625" lon="12.67076569609344005584716796875">
        <ele>103.40000152587890625</ele>
        <time>2018-08-18T13:41:49.000Z</time>
      </trkpt>
      <trkpt lat="51.89614369533956050872802734375" lon="12.67089955508708953857421875">
        <ele>103.8000030517578125</ele>
        <time>2018-08-18T13:41:52.000Z</time>
      </trkpt>
      <trkpt lat="51.8962589465081691741943359375" lon="12.67102687619626522064208984375">
        <ele>104.40000152587890625</ele>
        <time>2018-08-18T13:41:55.000Z</time>
      </trkpt>
      <trkpt lat="51.89651099033653736114501953125" lon="12.67131320200860500335693359375">
        <ele>105.1999969482421875</ele>
        <time>2018-08-18T13:42:01.000Z</time>
      </trkpt>
      <trkpt lat="51.8965543247759342193603515625" lon="12.6713575422763824462890625">
        <ele>105.40000152587890625</ele>
        <time>2018-08-18T13:42:02.000Z</time>
      </trkpt>
      <trkpt lat="51.8968029320240020751953125" lon="12.6716416887938976287841796875">
        <ele>106.59999847412109375</ele>
        <time>2018-08-18T13:42:09.000Z</time>
      </trkpt>
      <trkpt lat="51.89699294976890087127685546875" lon="12.67185132019221782684326171875">
        <ele>107.59999847412109375</ele>
        <time>2018-08-18T13:42:14.000Z</time>
      </trkpt>
      <trkpt lat="51.8972882442176342010498046875" lon="12.672149799764156341552734375">
        <ele>108.59999847412109375</ele>
        <time>2018-08-18T13:42:22.000Z</time>
      </trkpt>
      <trkpt lat="51.897570379078388214111328125" lon="12.67247878946363925933837890625">
        <ele>109.8000030517578125</ele>
        <time>2018-08-18T13:42:29.000Z</time>
      </trkpt>
      <trkpt lat="51.89790976233780384063720703125" lon="12.67285429872572422027587890625">
        <ele>110.8000030517578125</ele>
        <time>2018-08-18T13:42:37.000Z</time>
      </trkpt>
      <trkpt lat="51.8981445394456386566162109375" lon="12.67312386073172092437744140625">
        <ele>112</ele>
        <time>2018-08-18T13:42:43.000Z</time>
      </trkpt>
      <trkpt lat="51.89818133600056171417236328125" lon="12.673171050846576690673828125">
        <ele>112.1999969482421875</ele>
        <time>2018-08-18T13:42:44.000Z</time>
      </trkpt>
      <trkpt lat="51.89827990718185901641845703125" lon="12.6733153872191905975341796875">
        <ele>112.59999847412109375</ele>
        <time>2018-08-18T13:42:47.000Z</time>
      </trkpt>
      <trkpt lat="51.89840513281524181365966796875" lon="12.6734444685280323028564453125">
        <ele>113</ele>
        <time>2018-08-18T13:42:50.000Z</time>
      </trkpt>
      <trkpt lat="51.89852801151573657989501953125" lon="12.6735554449260234832763671875">
        <ele>113.40000152587890625</ele>
        <time>2018-08-18T13:42:53.000Z</time>
      </trkpt>
      <trkpt lat="51.89861551858484745025634765625" lon="12.6736186444759368896484375">
        <ele>113.8000030517578125</ele>
        <time>2018-08-18T13:42:55.000Z</time>
      </trkpt>
      <trkpt lat="51.89870218746364116668701171875" lon="12.6737066544592380523681640625">
        <ele>114</ele>
        <time>2018-08-18T13:42:57.000Z</time>
      </trkpt>
      <trkpt lat="51.89900125376880168914794921875" lon="12.6740231551229953765869140625">
        <ele>115.1999969482421875</ele>
        <time>2018-08-18T13:43:04.000Z</time>
      </trkpt>
      <trkpt lat="51.8992415629327297210693359375" lon="12.67429145984351634979248046875">
        <ele>116.1999969482421875</ele>
        <time>2018-08-18T13:43:10.000Z</time>
      </trkpt>
      <trkpt lat="51.8995084427297115325927734375" lon="12.6745850779116153717041015625">
        <ele>117.1999969482421875</ele>
        <time>2018-08-18T13:43:17.000Z</time>
      </trkpt>
      <trkpt lat="51.89974104054272174835205078125" lon="12.67484734766185283660888671875">
        <ele>118.1999969482421875</ele>
        <time>2018-08-18T13:43:23.000Z</time>
      </trkpt>
      <trkpt lat="51.90001227892935276031494140625" lon="12.67515194602310657501220703125">
        <ele>119.1999969482421875</ele>
        <time>2018-08-18T13:43:30.000Z</time>
      </trkpt>
      <trkpt lat="51.90021411515772342681884765625" lon="12.67537272535264492034912109375">
        <ele>120.40000152587890625</ele>
        <time>2018-08-18T13:43:35.000Z</time>
      </trkpt>
      <trkpt lat="51.90053799189627170562744140625" lon="12.67573826014995574951171875">
        <ele>121.40000152587890625</ele>
        <time>2018-08-18T13:43:43.000Z</time>
      </trkpt>
      <trkpt lat="51.900877542793750762939453125" lon="12.67610932700335979461669921875">
        <ele>122.40000152587890625</ele>
        <time>2018-08-18T13:43:51.000Z</time>
      </trkpt>
      <trkpt lat="51.9013749249279499053955078125" lon="12.676627077162265777587890625">
        <ele>123.1999969482421875</ele>
        <time>2018-08-18T13:44:02.000Z</time>
      </trkpt>
      <trkpt lat="51.90185160376131534576416015625" lon="12.6771586574614048004150390625">
        <ele>123.40000152587890625</ele>
        <time>2018-08-18T13:44:11.000Z</time>
      </trkpt>
      <trkpt lat="51.90230657346546649932861328125" lon="12.67764941789209842681884765625">
        <ele>123.1999969482421875</ele>
        <time>2018-08-18T13:44:19.000Z</time>
      </trkpt>
      <trkpt lat="51.90280311740934848785400390625" lon="12.6782030425965785980224609375">
        <ele>122.59999847412109375</ele>
        <time>2018-08-18T13:44:27.000Z</time>
      </trkpt>
      <trkpt lat="51.90330435521900653839111328125" lon="12.67877317965030670166015625">
        <ele>122</ele>
        <time>2018-08-18T13:44:35.000Z</time>
      </trkpt>
      <trkpt lat="51.90378581173717975616455078125" lon="12.6792843081057071685791015625">
        <ele>122.59999847412109375</ele>
        <time>2018-08-18T13:44:43.000Z</time>
      </trkpt>
      <trkpt lat="51.90426257438957691192626953125" lon="12.67980474047362804412841796875">
        <ele>123.40000152587890625</ele>
        <time>2018-08-18T13:44:51.000Z</time>
      </trkpt>
      <trkpt lat="51.9043240137398242950439453125" lon="12.67987162806093692779541015625">
        <ele>123.40000152587890625</ele>
        <time>2018-08-18T13:44:52.000Z</time>
      </trkpt>
      <trkpt lat="51.90462601371109485626220703125" lon="12.6802069880068302154541015625">
        <ele>123.8000030517578125</ele>
        <time>2018-08-18T13:44:57.000Z</time>
      </trkpt>
      <trkpt lat="51.90511249937117099761962890625" lon="12.680765725672245025634765625">
        <ele>124</ele>
        <time>2018-08-18T13:45:05.000Z</time>
      </trkpt>
      <trkpt lat="51.90554668195545673370361328125" lon="12.68124994821846485137939453125">
        <ele>124.40000152587890625</ele>
        <time>2018-08-18T13:45:12.000Z</time>
      </trkpt>
      <trkpt lat="51.906040124595165252685546875" lon="12.68179058097302913665771484375">
        <ele>124.59999847412109375</ele>
        <time>2018-08-18T13:45:20.000Z</time>
      </trkpt>
      <trkpt lat="51.9065311364829540252685546875" lon="12.68232819624245166778564453125">
        <ele>124.8000030517578125</ele>
        <time>2018-08-18T13:45:28.000Z</time>
      </trkpt>
      <trkpt lat="51.907020471990108489990234375" lon="12.68286664970219135284423828125">
        <ele>125</ele>
        <time>2018-08-18T13:45:36.000Z</time>
      </trkpt>
      <trkpt lat="51.90750804729759693145751953125" lon="12.683403678238391876220703125">
        <ele>125.1999969482421875</ele>
        <time>2018-08-18T13:45:44.000Z</time>
      </trkpt>
      <trkpt lat="51.90799235366284847259521484375" lon="12.683945484459400177001953125">
        <ele>125.1999969482421875</ele>
        <time>2018-08-18T13:45:52.000Z</time>
      </trkpt>
      <trkpt lat="51.9083513505756855010986328125" lon="12.68434588797390460968017578125">
        <ele>125.59999847412109375</ele>
        <time>2018-08-18T13:45:58.000Z</time>
      </trkpt>
      <trkpt lat="51.9088271073997020721435546875" lon="12.68486372195184230804443359375">
        <ele>126.1999969482421875</ele>
        <time>2018-08-18T13:46:06.000Z</time>
      </trkpt>
      <trkpt lat="51.90930412150919437408447265625" lon="12.6853870041668415069580078125">
        <ele>126.59999847412109375</ele>
        <time>2018-08-18T13:46:14.000Z</time>
      </trkpt>
      <trkpt lat="51.9095456041395664215087890625" lon="12.6856512017548084259033203125">
        <ele>126.59999847412109375</ele>
        <time>2018-08-18T13:46:18.000Z</time>
      </trkpt>
      <trkpt lat="51.9100289046764373779296875" lon="12.68618605099618434906005859375">
        <ele>126.59999847412109375</ele>
        <time>2018-08-18T13:46:26.000Z</time>
      </trkpt>
      <trkpt lat="51.91052167676389217376708984375" lon="12.6867321319878101348876953125">
        <ele>126.8000030517578125</ele>
        <time>2018-08-18T13:46:34.000Z</time>
      </trkpt>
      <trkpt lat="51.91101285628974437713623046875" lon="12.687276117503643035888671875">
        <ele>127</ele>
        <time>2018-08-18T13:46:42.000Z</time>
      </trkpt>
      <trkpt lat="51.9114928878843784332275390625" lon="12.68781247548758983612060546875">
        <ele>127</ele>
        <time>2018-08-18T13:46:50.000Z</time>
      </trkpt>
      <trkpt lat="51.91199161112308502197265625" lon="12.6883605681359767913818359375">
        <ele>127.40000152587890625</ele>
        <time>2018-08-18T13:46:58.000Z</time>
      </trkpt>
      <trkpt lat="51.9124802760779857635498046875" lon="12.68890497274696826934814453125">
        <ele>127.40000152587890625</ele>
        <time>2018-08-18T13:47:06.000Z</time>
      </trkpt>
      <trkpt lat="51.91260525025427341461181640625" lon="12.68903975374996662139892578125">
        <ele>127.59999847412109375</ele>
        <time>2018-08-18T13:47:08.000Z</time>
      </trkpt>
      <trkpt lat="51.912730224430561065673828125" lon="12.68917688168585300445556640625">
        <ele>127.59999847412109375</ele>
        <time>2018-08-18T13:47:10.000Z</time>
      </trkpt>
      <trkpt lat="51.91323389299213886260986328125" lon="12.68972991965711116790771484375">
        <ele>127.8000030517578125</ele>
        <time>2018-08-18T13:47:18.000Z</time>
      </trkpt>
      <trkpt lat="51.91368618048727512359619140625" lon="12.69023266620934009552001953125">
        <ele>128</ele>
        <time>2018-08-18T13:47:25.000Z</time>
      </trkpt>
      <trkpt lat="51.9141568243503570556640625" lon="12.69075133837759494781494140625">
        <ele>128.399993896484375</ele>
        <time>2018-08-18T13:47:32.000Z</time>
      </trkpt>
      <trkpt lat="51.91461388953030109405517578125" lon="12.691255174577236175537109375">
        <ele>128.1999969482421875</ele>
        <time>2018-08-18T13:47:39.000Z</time>
      </trkpt>
      <trkpt lat="51.9150753132998943328857421875" lon="12.6917609386146068572998046875">
        <ele>128.600006103515625</ele>
        <time>2018-08-18T13:47:46.000Z</time>
      </trkpt>
      <trkpt lat="51.915529780089855194091796875" lon="12.69225597381591796875">
        <ele>128.600006103515625</ele>
        <time>2018-08-18T13:47:53.000Z</time>
      </trkpt>
      <trkpt lat="51.91578090190887451171875" lon="12.6925340853631496429443359375">
        <ele>128.8000030517578125</ele>
        <time>2018-08-18T13:47:57.000Z</time>
      </trkpt>
      <trkpt lat="51.9162303395569324493408203125" lon="12.69303054548799991607666015625">
        <ele>129.1999969482421875</ele>
        <time>2018-08-18T13:48:04.000Z</time>
      </trkpt>
      <trkpt lat="51.91667617298662662506103515625" lon="12.69352398812770843505859375">
        <ele>129.1999969482421875</ele>
        <time>2018-08-18T13:48:11.000Z</time>
      </trkpt>
      <trkpt lat="51.9171798415482044219970703125" lon="12.694077529013156890869140625">
        <ele>129.600006103515625</ele>
        <time>2018-08-18T13:48:19.000Z</time>
      </trkpt>
      <trkpt lat="51.9174277782440185546875" lon="12.69435388036072254180908203125">
        <ele>129.8000030517578125</ele>
        <time>2018-08-18T13:48:23.000Z</time>
      </trkpt>
      <trkpt lat="51.917902529239654541015625" lon="12.6948831975460052490234375">
        <ele>130.399993896484375</ele>
        <time>2018-08-18T13:48:31.000Z</time>
      </trkpt>
      <trkpt lat="51.9181908667087554931640625" lon="12.695202715694904327392578125">
        <ele>131</ele>
        <time>2018-08-18T13:48:36.000Z</time>
      </trkpt>
      <trkpt lat="51.91864441148936748504638671875" lon="12.69570370204746723175048828125">
        <ele>131.8000030517578125</ele>
        <time>2018-08-18T13:48:44.000Z</time>
      </trkpt>
      <trkpt lat="51.9187013246119022369384765625" lon="12.695766650140285491943359375">
        <ele>132</ele>
        <time>2018-08-18T13:48:45.000Z</time>
      </trkpt>
      <trkpt lat="51.9192002154886722564697265625" lon="12.69632664509117603302001953125">
        <ele>133.1999969482421875</ele>
        <time>2018-08-18T13:48:54.000Z</time>
      </trkpt>
      <trkpt lat="51.9196427799761295318603515625" lon="12.696815393865108489990234375">
        <ele>134.399993896484375</ele>
        <time>2018-08-18T13:49:02.000Z</time>
      </trkpt>
      <trkpt lat="51.9201366417109966278076171875" lon="12.69735828973352909088134765625">
        <ele>135.399993896484375</ele>
        <time>2018-08-18T13:49:11.000Z</time>
      </trkpt>
      <trkpt lat="51.9206237979233264923095703125" lon="12.69789121113717555999755859375">
        <ele>136.399993896484375</ele>
        <time>2018-08-18T13:49:20.000Z</time>
      </trkpt>
      <trkpt lat="51.920730583369731903076171875" lon="12.698006965219974517822265625">
        <ele>136.600006103515625</ele>
        <time>2018-08-18T13:49:22.000Z</time>
      </trkpt>
      <trkpt lat="51.92111489363014698028564453125" lon="12.69842547364532947540283203125">
        <ele>137.600006103515625</ele>
        <time>2018-08-18T13:49:29.000Z</time>
      </trkpt>
      <trkpt lat="51.9214941747486591339111328125" lon="12.69884674809873104095458984375">
        <ele>138.600006103515625</ele>
        <time>2018-08-18T13:49:36.000Z</time>
      </trkpt>
      <trkpt lat="51.9218592904508113861083984375" lon="12.69926768727600574493408203125">
        <ele>139.600006103515625</ele>
        <time>2018-08-18T13:49:43.000Z</time>
      </trkpt>
      <trkpt lat="51.92232423461973667144775390625" lon="12.699777223169803619384765625">
        <ele>140.600006103515625</ele>
        <time>2018-08-18T13:49:51.000Z</time>
      </trkpt>
      <trkpt lat="51.92244007252156734466552734375" lon="12.69990286789834499359130859375">
        <ele>140.8000030517578125</ele>
        <time>2018-08-18T13:49:53.000Z</time>
      </trkpt>
      <trkpt lat="51.92289789207279682159423828125" lon="12.70041315816342830657958984375">
        <ele>141.399993896484375</ele>
        <time>2018-08-18T13:50:01.000Z</time>
      </trkpt>
      <trkpt lat="51.92334515042603015899658203125" lon="12.7009116299450397491455078125">
        <ele>141.600006103515625</ele>
        <time>2018-08-18T13:50:09.000Z</time>
      </trkpt>
      <trkpt lat="51.9236080907285213470458984375" lon="12.70121463574469089508056640625">
        <ele>141.8000030517578125</ele>
        <time>2018-08-18T13:50:14.000Z</time>
      </trkpt>
      <trkpt lat="51.9238686002790927886962890625" lon="12.701522670686244964599609375">
        <ele>142.8000030517578125</ele>
        <time>2018-08-18T13:50:19.000Z</time>
      </trkpt>
      <trkpt lat="51.92433371208608150482177734375" lon="12.70201980136334896087646484375">
        <ele>143.1999969482421875</ele>
        <time>2018-08-18T13:50:27.000Z</time>
      </trkpt>
      <trkpt lat="51.9247728399932384490966796875" lon="12.7025122381746768951416015625">
        <ele>144</ele>
        <time>2018-08-18T13:50:35.000Z</time>
      </trkpt>
      <trkpt lat="51.92525370977818965911865234375" lon="12.70302814431488513946533203125">
        <ele>144.399993896484375</ele>
        <time>2018-08-18T13:50:43.000Z</time>
      </trkpt>
      <trkpt lat="51.92572644911706447601318359375" lon="12.70354731939733028411865234375">
        <ele>144.1999969482421875</ele>
        <time>2018-08-18T13:50:50.000Z</time>
      </trkpt>
      <trkpt lat="51.92620505578815937042236328125" lon="12.704088203608989715576171875">
        <ele>143.399993896484375</ele>
        <time>2018-08-18T13:50:57.000Z</time>
      </trkpt>
      <trkpt lat="51.9267228059470653533935546875" lon="12.70467317663133144378662109375">
        <ele>142.600006103515625</ele>
        <time>2018-08-18T13:51:04.000Z</time>
      </trkpt>
      <trkpt lat="51.92695121280848979949951171875" lon="12.70492547191679477691650390625">
        <ele>141.600006103515625</ele>
        <time>2018-08-18T13:51:07.000Z</time>
      </trkpt>
      <trkpt lat="51.92740601487457752227783203125" lon="12.7054304815828800201416015625">
        <ele>140.8000030517578125</ele>
        <time>2018-08-18T13:51:13.000Z</time>
      </trkpt>
      <trkpt lat="51.92747994326055049896240234375" lon="12.70551455207169055938720703125">
        <ele>140.600006103515625</ele>
        <time>2018-08-18T13:51:14.000Z</time>
      </trkpt>
      <trkpt lat="51.9279190711677074432373046875" lon="12.70600908435881137847900390625">
        <ele>139.399993896484375</ele>
        <time>2018-08-18T13:51:20.000Z</time>
      </trkpt>
      <trkpt lat="51.9283904694020748138427734375" lon="12.706538401544094085693359375">
        <ele>139</ele>
        <time>2018-08-18T13:51:27.000Z</time>
      </trkpt>
      <trkpt lat="51.92884669639170169830322265625" lon="12.70705330185592174530029296875">
        <ele>139</ele>
        <time>2018-08-18T13:51:34.000Z</time>
      </trkpt>
      <trkpt lat="51.92930635996162891387939453125" lon="12.70756543613970279693603515625">
        <ele>140.600006103515625</ele>
        <time>2018-08-18T13:51:41.000Z</time>
      </trkpt>
      <trkpt lat="51.92978429608047008514404296875" lon="12.70807706750929355621337890625">
        <ele>141</ele>
        <time>2018-08-18T13:51:48.000Z</time>
      </trkpt>
      <trkpt lat="51.93027379922568798065185546875" lon="12.708611749112606048583984375">
        <ele>141.1999969482421875</ele>
        <time>2018-08-18T13:51:55.000Z</time>
      </trkpt>
      <trkpt lat="51.9307665713131427764892578125" lon="12.709143497049808502197265625">
        <ele>140.600006103515625</ele>
        <time>2018-08-18T13:52:02.000Z</time>
      </trkpt>
      <trkpt lat="51.9312875904142856597900390625" lon="12.70971782505512237548828125">
        <ele>140.1999969482421875</ele>
        <time>2018-08-18T13:52:09.000Z</time>
      </trkpt>
      <trkpt lat="51.93167374469339847564697265625" lon="12.710154354572296142578125">
        <ele>139</ele>
        <time>2018-08-18T13:52:14.000Z</time>
      </trkpt>
      <trkpt lat="51.9319940172135829925537109375" lon="12.71050279028713703155517578125">
        <ele>137.600006103515625</ele>
        <time>2018-08-18T13:52:18.000Z</time>
      </trkpt>
      <trkpt lat="51.932322084903717041015625" lon="12.71086773835122585296630859375">
        <ele>136.399993896484375</ele>
        <time>2018-08-18T13:52:22.000Z</time>
      </trkpt>
      <trkpt lat="51.93266968242824077606201171875" lon="12.71125338971614837646484375">
        <ele>135.399993896484375</ele>
        <time>2018-08-18T13:52:26.000Z</time>
      </trkpt>
      <trkpt lat="51.93312196992337703704833984375" lon="12.71175219677388668060302734375">
        <ele>134.399993896484375</ele>
        <time>2018-08-18T13:52:31.000Z</time>
      </trkpt>
      <trkpt lat="51.93321702070534229278564453125" lon="12.71185345016419887542724609375">
        <ele>134</ele>
        <time>2018-08-18T13:52:32.000Z</time>
      </trkpt>
      <trkpt lat="51.93359420634806156158447265625" lon="12.71226726472377777099609375">
        <ele>132.8000030517578125</ele>
        <time>2018-08-18T13:52:36.000Z</time>
      </trkpt>
      <trkpt lat="51.9338819570839405059814453125" lon="12.7125839330255985260009765625">
        <ele>131.600006103515625</ele>
        <time>2018-08-18T13:52:39.000Z</time>
      </trkpt>
      <trkpt lat="51.93425956182181835174560546875" lon="12.71299590356647968292236328125">
        <ele>130.600006103515625</ele>
        <time>2018-08-18T13:52:43.000Z</time>
      </trkpt>
      <trkpt lat="51.93452887237071990966796875" lon="12.71328709088265895843505859375">
        <ele>129.399993896484375</ele>
        <time>2018-08-18T13:52:46.000Z</time>
      </trkpt>
      <trkpt lat="51.934708915650844573974609375" lon="12.71348071284592151641845703125">
        <ele>128</ele>
        <time>2018-08-18T13:52:48.000Z</time>
      </trkpt>
      <trkpt lat="51.93498375825583934783935546875" lon="12.7137805335223674774169921875">
        <ele>126.8000030517578125</ele>
        <time>2018-08-18T13:52:51.000Z</time>
      </trkpt>
      <trkpt lat="51.9352443516254425048828125" lon="12.71406610496342182159423828125">
        <ele>125.59999847412109375</ele>
        <time>2018-08-18T13:52:54.000Z</time>
      </trkpt>
      <trkpt lat="51.93557216785848140716552734375" lon="12.7144370041787624359130859375">
        <ele>124.40000152587890625</ele>
        <time>2018-08-18T13:52:58.000Z</time>
      </trkpt>
      <trkpt lat="51.9360411353409290313720703125" lon="12.71497000940144062042236328125">
        <ele>123.40000152587890625</ele>
        <time>2018-08-18T13:53:04.000Z</time>
      </trkpt>
      <trkpt lat="51.93648244254291057586669921875" lon="12.71547895856201648712158203125">
        <ele>123</ele>
        <time>2018-08-18T13:53:10.000Z</time>
      </trkpt>
      <trkpt lat="51.93696574307978153228759765625" lon="12.716020680963993072509765625">
        <ele>122.59999847412109375</ele>
        <time>2018-08-18T13:53:17.000Z</time>
      </trkpt>
      <trkpt lat="51.93741031922399997711181640625" lon="12.71651680581271648406982421875">
        <ele>122.59999847412109375</ele>
        <time>2018-08-18T13:53:23.000Z</time>
      </trkpt>
      <trkpt lat="51.937884651124477386474609375" lon="12.71706598810851573944091796875">
        <ele>122.40000152587890625</ele>
        <time>2018-08-18T13:53:29.000Z</time>
      </trkpt>
      <trkpt lat="51.937970481812953948974609375" lon="12.7171621285378932952880859375">
        <ele>122</ele>
        <time>2018-08-18T13:53:30.000Z</time>
      </trkpt>
      <trkpt lat="51.9384065084159374237060546875" lon="12.7176469378173351287841796875">
        <ele>120.8000030517578125</ele>
        <time>2018-08-18T13:53:35.000Z</time>
      </trkpt>
      <trkpt lat="51.93876408040523529052734375" lon="12.71804952062666416168212890625">
        <ele>119.59999847412109375</ele>
        <time>2018-08-18T13:53:39.000Z</time>
      </trkpt>
      <trkpt lat="51.9390492327511310577392578125" lon="12.7183540351688861846923828125">
        <ele>118.40000152587890625</ele>
        <time>2018-08-18T13:53:42.000Z</time>
      </trkpt>
      <trkpt lat="51.93934335373342037200927734375" lon="12.71866500377655029296875">
        <ele>117.1999969482421875</ele>
        <time>2018-08-18T13:53:45.000Z</time>
      </trkpt>
      <trkpt lat="51.93972489796578884124755859375" lon="12.7190819196403026580810546875">
        <ele>116</ele>
        <time>2018-08-18T13:53:49.000Z</time>
      </trkpt>
      <trkpt lat="51.94008666090667247772216796875" lon="12.71948634646832942962646484375">
        <ele>114.8000030517578125</ele>
        <time>2018-08-18T13:53:53.000Z</time>
      </trkpt>
      <trkpt lat="51.94043509662151336669921875" lon="12.7198708243668079376220703125">
        <ele>113.8000030517578125</ele>
        <time>2018-08-18T13:53:57.000Z</time>
      </trkpt>
      <trkpt lat="51.94086416624486446380615234375" lon="12.72034532390534877777099609375">
        <ele>112.59999847412109375</ele>
        <time>2018-08-18T13:54:02.000Z</time>
      </trkpt>
      <trkpt lat="51.9413468800485134124755859375" lon="12.72088394500315189361572265625">
        <ele>111.8000030517578125</ele>
        <time>2018-08-18T13:54:08.000Z</time>
      </trkpt>
      <trkpt lat="51.94179363548755645751953125" lon="12.72138752974569797515869140625">
        <ele>111.8000030517578125</ele>
        <time>2018-08-18T13:54:14.000Z</time>
      </trkpt>
      <trkpt lat="51.94228875450789928436279296875" lon="12.721938304603099822998046875">
        <ele>111.8000030517578125</ele>
        <time>2018-08-18T13:54:21.000Z</time>
      </trkpt>
      <trkpt lat="51.94275277666747570037841796875" lon="12.72245974279940128326416015625">
        <ele>112</ele>
        <time>2018-08-18T13:54:28.000Z</time>
      </trkpt>
      <trkpt lat="51.94320674054324626922607421875" lon="12.72296517156064510345458984375">
        <ele>112.8000030517578125</ele>
        <time>2018-08-18T13:54:35.000Z</time>
      </trkpt>
      <trkpt lat="51.94369540549814701080322265625" lon="12.72350513376295566558837890625">
        <ele>113.40000152587890625</ele>
        <time>2018-08-18T13:54:43.000Z</time>
      </trkpt>
      <trkpt lat="51.94386874325573444366455078125" lon="12.72370227612555027008056640625">
        <ele>113.8000030517578125</ele>
        <time>2018-08-18T13:54:46.000Z</time>
      </trkpt>
      <trkpt lat="51.94419966079294681549072265625" lon="12.72407225333154201507568359375">
        <ele>114.40000152587890625</ele>
        <time>2018-08-18T13:54:52.000Z</time>
      </trkpt>
      <trkpt lat="51.944378949701786041259765625" lon="12.7242729999125003814697265625">
        <ele>114.8000030517578125</ele>
        <time>2018-08-18T13:54:55.000Z</time>
      </trkpt>
      <trkpt lat="51.9448629207909107208251953125" lon="12.72482000291347503662109375">
        <ele>115.59999847412109375</ele>
        <time>2018-08-18T13:55:03.000Z</time>
      </trkpt>
      <trkpt lat="51.944984458386898040771484375" lon="12.72496039979159832000732421875">
        <ele>115.8000030517578125</ele>
        <time>2018-08-18T13:55:05.000Z</time>
      </trkpt>
      <trkpt lat="51.94546750746667385101318359375" lon="12.725506313145160675048828125">
        <ele>116.40000152587890625</ele>
        <time>2018-08-18T13:55:13.000Z</time>
      </trkpt>
      <trkpt lat="51.945930607616901397705078125" lon="12.725999839603900909423828125">
        <ele>116.40000152587890625</ele>
        <time>2018-08-18T13:55:20.000Z</time>
      </trkpt>
      <trkpt lat="51.94639856927096843719482421875" lon="12.7265119738876819610595703125">
        <ele>116</ele>
        <time>2018-08-18T13:55:27.000Z</time>
      </trkpt>
      <trkpt lat="51.9468910060822963714599609375" lon="12.727073393762111663818359375">
        <ele>115</ele>
        <time>2018-08-18T13:55:34.000Z</time>
      </trkpt>
      <trkpt lat="51.947173140943050384521484375" lon="12.72740640677511692047119140625">
        <ele>114.8000030517578125</ele>
        <time>2018-08-18T13:55:38.000Z</time>
      </trkpt>
      <trkpt lat="51.9476691819727420806884765625" lon="12.727963216602802276611328125">
        <ele>114.40000152587890625</ele>
        <time>2018-08-18T13:55:45.000Z</time>
      </trkpt>
      <trkpt lat="51.94813546724617481231689453125" lon="12.728456072509288787841796875">
        <ele>114.40000152587890625</ele>
        <time>2018-08-18T13:55:52.000Z</time>
      </trkpt>
      <trkpt lat="51.94862597621977329254150390625" lon="12.7290134690701961517333984375">
        <ele>115.1999969482421875</ele>
        <time>2018-08-18T13:56:01.000Z</time>
      </trkpt>
      <trkpt lat="51.94891758263111114501953125" lon="12.72932787425816059112548828125">
        <ele>116</ele>
        <time>2018-08-18T13:56:06.000Z</time>
      </trkpt>
      <trkpt lat="51.9492453150451183319091796875" lon="12.72968460805714130401611328125">
        <ele>117</ele>
        <time>2018-08-18T13:56:12.000Z</time>
      </trkpt>
      <trkpt lat="51.949451006948947906494140625" lon="12.729911170899868011474609375">
        <ele>118</ele>
        <time>2018-08-18T13:56:16.000Z</time>
      </trkpt>
      <trkpt lat="51.94964454509317874908447265625" lon="12.73014142177999019622802734375">
        <ele>118.8000030517578125</ele>
        <time>2018-08-18T13:56:20.000Z</time>
      </trkpt>
      <trkpt lat="51.94968963973224163055419921875" lon="12.730198167264461517333984375">
        <ele>119</ele>
        <time>2018-08-18T13:56:21.000Z</time>
      </trkpt>
      <trkpt lat="51.949888207018375396728515625" lon="12.73042540065944194793701171875">
        <ele>120</ele>
        <time>2018-08-18T13:56:25.000Z</time>
      </trkpt>
      <trkpt lat="51.95024200715124607086181640625" lon="12.73083074949681758880615234375">
        <ele>121.1999969482421875</ele>
        <time>2018-08-18T13:56:32.000Z</time>
      </trkpt>
      <trkpt lat="51.950577199459075927734375" lon="12.731202654540538787841796875">
        <ele>122.1999969482421875</ele>
        <time>2018-08-18T13:56:38.000Z</time>
      </trkpt>
      <trkpt lat="51.95097391493618488311767578125" lon="12.73162635974586009979248046875">
        <ele>123.40000152587890625</ele>
        <time>2018-08-18T13:56:45.000Z</time>
      </trkpt>
      <trkpt lat="51.95142385549843311309814453125" lon="12.73212323896586894989013671875">
        <ele>123.8000030517578125</ele>
        <time>2018-08-18T13:56:53.000Z</time>
      </trkpt>
      <trkpt lat="51.95187337696552276611328125" lon="12.73262145929038524627685546875">
        <ele>124.1999969482421875</ele>
        <time>2018-08-18T13:57:01.000Z</time>
      </trkpt>
      <trkpt lat="51.95204243995249271392822265625" lon="12.732812650501728057861328125">
        <ele>124.40000152587890625</ele>
        <time>2018-08-18T13:57:04.000Z</time>
      </trkpt>
      <trkpt lat="51.9525085575878620147705078125" lon="12.73332067765295505523681640625">
        <ele>124.8000030517578125</ele>
        <time>2018-08-18T13:57:12.000Z</time>
      </trkpt>
      <trkpt lat="51.9529913552105426788330078125" lon="12.7338575385510921478271484375">
        <ele>125.1999969482421875</ele>
        <time>2018-08-18T13:57:20.000Z</time>
      </trkpt>
      <trkpt lat="51.953485719859600067138671875" lon="12.7344090677797794342041015625">
        <ele>125.40000152587890625</ele>
        <time>2018-08-18T13:57:28.000Z</time>
      </trkpt>
      <trkpt lat="51.9539757259190082550048828125" lon="12.7349616028368473052978515625">
        <ele>125.8000030517578125</ele>
        <time>2018-08-18T13:57:36.000Z</time>
      </trkpt>
      <trkpt lat="51.95442893542349338531494140625" lon="12.7354574762284755706787109375">
        <ele>126</ele>
        <time>2018-08-18T13:57:43.000Z</time>
      </trkpt>
      <trkpt lat="51.95493939332664012908935546875" lon="12.7360187284648418426513671875">
        <ele>126.1999969482421875</ele>
        <time>2018-08-18T13:57:51.000Z</time>
      </trkpt>
      <trkpt lat="51.95539704523980617523193359375" lon="12.73651803843677043914794921875">
        <ele>126.1999969482421875</ele>
        <time>2018-08-18T13:57:58.000Z</time>
      </trkpt>
      <trkpt lat="51.9558472372591495513916015625" lon="12.7370252273976802825927734375">
        <ele>126.1999969482421875</ele>
        <time>2018-08-18T13:58:05.000Z</time>
      </trkpt>
      <trkpt lat="51.95629139430820941925048828125" lon="12.7375398762524127960205078125">
        <ele>126</ele>
        <time>2018-08-18T13:58:12.000Z</time>
      </trkpt>
      <trkpt lat="51.95676396600902080535888671875" lon="12.7380649186670780181884765625">
        <ele>125.59999847412109375</ele>
        <time>2018-08-18T13:58:19.000Z</time>
      </trkpt>
      <trkpt lat="51.95705448277294635772705078125" lon="12.7383794076740741729736328125">
        <ele>125.1999969482421875</ele>
        <time>2018-08-18T13:58:23.000Z</time>
      </trkpt>
      <trkpt lat="51.95750760845839977264404296875" lon="12.73888676427304744720458984375">
        <ele>124.1999969482421875</ele>
        <time>2018-08-18T13:58:29.000Z</time>
      </trkpt>
      <trkpt lat="51.95757969282567501068115234375" lon="12.7389768697321414947509765625">
        <ele>124.1999969482421875</ele>
        <time>2018-08-18T13:58:30.000Z</time>
      </trkpt>
      <trkpt lat="51.9580163061618804931640625" lon="12.73958967067301273345947265625">
        <ele>123.59999847412109375</ele>
        <time>2018-08-18T13:58:36.000Z</time>
      </trkpt>
      <trkpt lat="51.9583312980830669403076171875" lon="12.74018478579819202423095703125">
        <ele>123</ele>
        <time>2018-08-18T13:58:41.000Z</time>
      </trkpt>
      <trkpt lat="51.958575882017612457275390625" lon="12.74086992256343364715576171875">
        <ele>122</ele>
        <time>2018-08-18T13:58:46.000Z</time>
      </trkpt>
      <trkpt lat="51.9587741978466510772705078125" lon="12.741618342697620391845703125">
        <ele>121</ele>
        <time>2018-08-18T13:58:51.000Z</time>
      </trkpt>
      <trkpt lat="51.958921886980533599853515625" lon="12.74241286329925060272216796875">
        <ele>120</ele>
        <time>2018-08-18T13:58:56.000Z</time>
      </trkpt>
      <trkpt lat="51.95904560387134552001953125" lon="12.74319573305547237396240234375">
        <ele>118.8000030517578125</ele>
        <time>2018-08-18T13:59:01.000Z</time>
      </trkpt>
      <trkpt lat="51.9591857492923736572265625" lon="12.744103409349918365478515625">
        <ele>117.8000030517578125</ele>
        <time>2018-08-18T13:59:07.000Z</time>
      </trkpt>
      <trkpt lat="51.95920662023127079010009765625" lon="12.744254283607006072998046875">
        <ele>117.8000030517578125</ele>
        <time>2018-08-18T13:59:08.000Z</time>
      </trkpt>
      <trkpt lat="51.95931709371507167816162109375" lon="12.74511200375854969024658203125">
        <ele>117</ele>
        <time>2018-08-18T13:59:14.000Z</time>
      </trkpt>
      <trkpt lat="51.95936420001089572906494140625" lon="12.7454989962279796600341796875">
        <ele>116.8000030517578125</ele>
        <time>2018-08-18T13:59:17.000Z</time>
      </trkpt>
      <trkpt lat="51.95953183807432651519775390625" lon="12.7462530322372913360595703125">
        <ele>116.8000030517578125</ele>
        <time>2018-08-18T13:59:35.000Z</time>
      </trkpt>
      <trkpt lat="51.9595366157591342926025390625" lon="12.74629217572510242462158203125">
        <ele>116.8000030517578125</ele>
        <time>2018-08-18T13:59:52.000Z</time>
      </trkpt>
      <trkpt lat="51.95979335345327854156494140625" lon="12.74717160500586032867431640625">
        <ele>116.8000030517578125</ele>
        <time>2018-08-18T14:00:04.000Z</time>
      </trkpt>
      <trkpt lat="51.96010750718414783477783203125" lon="12.74790988303720951080322265625">
        <ele>116.8000030517578125</ele>
        <time>2018-08-18T14:00:11.000Z</time>
      </trkpt>
      <trkpt lat="51.9604388438165187835693359375" lon="12.74861630983650684356689453125">
        <ele>116.40000152587890625</ele>
        <time>2018-08-18T14:00:17.000Z</time>
      </trkpt>
      <trkpt lat="51.96055233478546142578125" lon="12.74886868894100189208984375">
        <ele>115.8000030517578125</ele>
        <time>2018-08-18T14:00:19.000Z</time>
      </trkpt>
      <trkpt lat="51.9608379900455474853515625" lon="12.74951669387519359588623046875">
        <ele>114.59999847412109375</ele>
        <time>2018-08-18T14:00:24.000Z</time>
      </trkpt>
      <trkpt lat="51.9610815681517124176025390625" lon="12.750063277781009674072265625">
        <ele>113.59999847412109375</ele>
        <time>2018-08-18T14:00:28.000Z</time>
      </trkpt>
      <trkpt lat="51.96139790117740631103515625" lon="12.75077967904508113861083984375">
        <ele>112.8000030517578125</ele>
        <time>2018-08-18T14:00:33.000Z</time>
      </trkpt>
      <trkpt lat="51.96146219037473201751708984375" lon="12.750924266874790191650390625">
        <ele>112.40000152587890625</ele>
        <time>2018-08-18T14:00:34.000Z</time>
      </trkpt>
      <trkpt lat="51.9617189280688762664794921875" lon="12.75149457156658172607421875">
        <ele>111.40000152587890625</ele>
        <time>2018-08-18T14:00:38.000Z</time>
      </trkpt>
      <trkpt lat="51.961992345750331878662109375" lon="12.7520559914410114288330078125">
        <ele>110.1999969482421875</ele>
        <time>2018-08-18T14:00:42.000Z</time>
      </trkpt>
      <trkpt lat="51.96230021305382251739501953125" lon="12.75255211628973484039306640625">
        <ele>109.1999969482421875</ele>
        <time>2018-08-18T14:00:46.000Z</time>
      </trkpt>
      <trkpt lat="51.96274076588451862335205078125" lon="12.75308671407401561737060546875">
        <ele>108</ele>
        <time>2018-08-18T14:00:51.000Z</time>
      </trkpt>
      <trkpt lat="51.96322104893624782562255859375" lon="12.75351787917315959930419921875">
        <ele>107</ele>
        <time>2018-08-18T14:00:56.000Z</time>
      </trkpt>
      <trkpt lat="51.96341785602271556854248046875" lon="12.7536468766629695892333984375">
        <ele>106.59999847412109375</ele>
        <time>2018-08-18T14:00:58.000Z</time>
      </trkpt>
      <trkpt lat="51.963923536241054534912109375" lon="12.7538778819143772125244140625">
        <ele>105.59999847412109375</ele>
        <time>2018-08-18T14:01:03.000Z</time>
      </trkpt>
      <trkpt lat="51.96450850926339626312255859375" lon="12.75410913862287998199462890625">
        <ele>105.1999969482421875</ele>
        <time>2018-08-18T14:01:09.000Z</time>
      </trkpt>
      <trkpt lat="51.96507118642330169677734375" lon="12.75434165261685848236083984375">
        <ele>105</ele>
        <time>2018-08-18T14:01:15.000Z</time>
      </trkpt>
      <trkpt lat="51.9656235538423061370849609375" lon="12.75457818992435932159423828125">
        <ele>105</ele>
        <time>2018-08-18T14:01:21.000Z</time>
      </trkpt>
      <trkpt lat="51.96616494096815586090087890625" lon="12.75480969808995723724365234375">
        <ele>104.8000030517578125</ele>
        <time>2018-08-18T14:01:27.000Z</time>
      </trkpt>
      <trkpt lat="51.966711692512035369873046875" lon="12.75503651238977909088134765625">
        <ele>104.8000030517578125</ele>
        <time>2018-08-18T14:01:33.000Z</time>
      </trkpt>
      <trkpt lat="51.9672499783337116241455078125" lon="12.7552679367363452911376953125">
        <ele>104.8000030517578125</ele>
        <time>2018-08-18T14:01:39.000Z</time>
      </trkpt>
      <trkpt lat="51.96784014813601970672607421875" lon="12.755509503185749053955078125">
        <ele>104.8000030517578125</ele>
        <time>2018-08-18T14:01:46.000Z</time>
      </trkpt>
      <trkpt lat="51.9683897495269775390625" lon="12.75572986342012882232666015625">
        <ele>104.8000030517578125</ele>
        <time>2018-08-18T14:01:53.000Z</time>
      </trkpt>
      <trkpt lat="51.96891923435032367706298828125" lon="12.75594326667487621307373046875">
        <ele>105.40000152587890625</ele>
        <time>2018-08-18T14:02:00.000Z</time>
      </trkpt>
      <trkpt lat="51.96950144134461879730224609375" lon="12.7561829052865505218505859375">
        <ele>106.1999969482421875</ele>
        <time>2018-08-18T14:02:08.000Z</time>
      </trkpt>
      <trkpt lat="51.96980436332523822784423828125" lon="12.7563079632818698883056640625">
        <ele>106.8000030517578125</ele>
        <time>2018-08-18T14:02:12.000Z</time>
      </trkpt>
      <trkpt lat="51.97033242322504520416259765625" lon="12.75652371346950531005859375">
        <ele>108</ele>
        <time>2018-08-18T14:02:19.000Z</time>
      </trkpt>
      <trkpt lat="51.97083533741533756256103515625" lon="12.75672865100204944610595703125">
        <ele>109</ele>
        <time>2018-08-18T14:02:26.000Z</time>
      </trkpt>
      <trkpt lat="51.97129768319427967071533203125" lon="12.756916321814060211181640625">
        <ele>110</ele>
        <time>2018-08-18T14:02:33.000Z</time>
      </trkpt>
      <trkpt lat="51.97175114415585994720458984375" lon="12.7571032382547855377197265625">
        <ele>111</ele>
        <time>2018-08-18T14:02:40.000Z</time>
      </trkpt>
      <trkpt lat="51.97212380357086658477783203125" lon="12.75725821964442729949951171875">
        <ele>112.1999969482421875</ele>
        <time>2018-08-18T14:02:46.000Z</time>
      </trkpt>
      <trkpt lat="51.9724947027862071990966796875" lon="12.75742267258465290069580078125">
        <ele>113.40000152587890625</ele>
        <time>2018-08-18T14:02:52.000Z</time>
      </trkpt>
      <trkpt lat="51.97274138219654560089111328125" lon="12.757515795528888702392578125">
        <ele>114.40000152587890625</ele>
        <time>2018-08-18T14:02:56.000Z</time>
      </trkpt>
      <trkpt lat="51.973035335540771484375" lon="12.75763238780200481414794921875">
        <ele>115.40000152587890625</ele>
        <time>2018-08-18T14:03:01.000Z</time>
      </trkpt>
      <trkpt lat="51.9733235053718090057373046875" lon="12.75774789042770862579345703125">
        <ele>116.8000030517578125</ele>
        <time>2018-08-18T14:03:06.000Z</time>
      </trkpt>
      <trkpt lat="51.973602287471294403076171875" lon="12.75784830562770366668701171875">
        <ele>118</ele>
        <time>2018-08-18T14:03:11.000Z</time>
      </trkpt>
      <trkpt lat="51.97408516891300678253173828125" lon="12.758066318929195404052734375">
        <ele>119.1999969482421875</ele>
        <time>2018-08-18T14:03:19.000Z</time>
      </trkpt>
      <trkpt lat="51.97462529875338077545166015625" lon="12.75839379988610744476318359375">
        <ele>120.1999969482421875</ele>
        <time>2018-08-18T14:03:27.000Z</time>
      </trkpt>
      <trkpt lat="51.9751782529056072235107421875" lon="12.7587333507835865020751953125">
        <ele>120.1999969482421875</ele>
        <time>2018-08-18T14:03:34.000Z</time>
      </trkpt>
      <trkpt lat="51.97573506273329257965087890625" lon="12.75907985866069793701171875">
        <ele>118.59999847412109375</ele>
        <time>2018-08-18T14:03:40.000Z</time>
      </trkpt>
      <trkpt lat="51.9758340530097484588623046875" lon="12.75913978926837444305419921875">
        <ele>118</ele>
        <time>2018-08-18T14:03:41.000Z</time>
      </trkpt>
      <trkpt lat="51.9761378131806850433349609375" lon="12.75933525525033473968505859375">
        <ele>117</ele>
        <time>2018-08-18T14:03:44.000Z</time>
      </trkpt>
      <trkpt lat="51.9764529727399349212646484375" lon="12.759533487260341644287109375">
        <ele>115.59999847412109375</ele>
        <time>2018-08-18T14:03:47.000Z</time>
      </trkpt>
      <trkpt lat="51.9767676293849945068359375" lon="12.75973188690841197967529296875">
        <ele>114.1999969482421875</ele>
        <time>2018-08-18T14:03:50.000Z</time>
      </trkpt>
      <trkpt lat="51.97708480060100555419921875" lon="12.759931124746799468994140625">
        <ele>112.8000030517578125</ele>
        <time>2018-08-18T14:03:53.000Z</time>
      </trkpt>
      <trkpt lat="51.9773987866938114166259765625" lon="12.76012985967099666595458984375">
        <ele>111.59999847412109375</ele>
        <time>2018-08-18T14:03:56.000Z</time>
      </trkpt>
      <trkpt lat="51.977800615131855010986328125" lon="12.76037913747131824493408203125">
        <ele>110.1999969482421875</ele>
        <time>2018-08-18T14:04:00.000Z</time>
      </trkpt>
      <trkpt lat="51.97819481603801250457763671875" lon="12.7606233023107051849365234375">
        <ele>109.1999969482421875</ele>
        <time>2018-08-18T14:04:04.000Z</time>
      </trkpt>
      <trkpt lat="51.97859060950577259063720703125" lon="12.7608757652342319488525390625">
        <ele>108</ele>
        <time>2018-08-18T14:04:08.000Z</time>
      </trkpt>
      <trkpt lat="51.97915638796985149383544921875" lon="12.76122026145458221435546875">
        <ele>107.1999969482421875</ele>
        <time>2018-08-18T14:04:14.000Z</time>
      </trkpt>
      <trkpt lat="51.97924791835248470306396484375" lon="12.761274240911006927490234375">
        <ele>107</ele>
        <time>2018-08-18T14:04:15.000Z</time>
      </trkpt>
      <trkpt lat="51.979797184467315673828125" lon="12.76161563582718372344970703125">
        <ele>106.40000152587890625</ele>
        <time>2018-08-18T14:04:21.000Z</time>
      </trkpt>
      <trkpt lat="51.98031485080718994140625" lon="12.7619509957730770111083984375">
        <ele>106.1999969482421875</ele>
        <time>2018-08-18T14:04:27.000Z</time>
      </trkpt>
      <trkpt lat="51.98064350523054599761962890625" lon="12.76214855723083019256591796875">
        <ele>105.8000030517578125</ele>
        <time>2018-08-18T14:04:31.000Z</time>
      </trkpt>
      <trkpt lat="51.98094072751700878143310546875" lon="12.76235206983983516693115234375">
        <ele>105.40000152587890625</ele>
        <time>2018-08-18T14:04:35.000Z</time>
      </trkpt>
      <trkpt lat="51.98149435222148895263671875" lon="12.76272271759808063507080078125">
        <ele>105.1999969482421875</ele>
        <time>2018-08-18T14:04:42.000Z</time>
      </trkpt>
      <trkpt lat="51.9820676743984222412109375" lon="12.76308171451091766357421875">
        <ele>104.8000030517578125</ele>
        <time>2018-08-18T14:04:49.000Z</time>
      </trkpt>
      <trkpt lat="51.98263621889054775238037109375" lon="12.76343031786382198333740234375">
        <ele>105.1999969482421875</ele>
        <time>2018-08-18T14:04:57.000Z</time>
      </trkpt>
      <trkpt lat="51.98318992741405963897705078125" lon="12.7637899853289127349853515625">
        <ele>106.40000152587890625</ele>
        <time>2018-08-18T14:05:06.000Z</time>
      </trkpt>
      <trkpt lat="51.98336427100002765655517578125" lon="12.76389584876596927642822265625">
        <ele>106.8000030517578125</ele>
        <time>2018-08-18T14:05:09.000Z</time>
      </trkpt>
      <trkpt lat="51.983643807470798492431640625" lon="12.764082513749599456787109375">
        <ele>107.8000030517578125</ele>
        <time>2018-08-18T14:05:14.000Z</time>
      </trkpt>
      <trkpt lat="51.98392577469348907470703125" lon="12.7642580308020114898681640625">
        <ele>109</ele>
        <time>2018-08-18T14:05:19.000Z</time>
      </trkpt>
      <trkpt lat="51.98426239192485809326171875" lon="12.7644692547619342803955078125">
        <ele>110.1999969482421875</ele>
        <time>2018-08-18T14:05:25.000Z</time>
      </trkpt>
      <trkpt lat="51.9845378212630748748779296875" lon="12.76464384980499744415283203125">
        <ele>111.1999969482421875</ele>
        <time>2018-08-18T14:05:30.000Z</time>
      </trkpt>
      <trkpt lat="51.9848207943141460418701171875" lon="12.7648192830383777618408203125">
        <ele>112.40000152587890625</ele>
        <time>2018-08-18T14:05:35.000Z</time>
      </trkpt>
      <trkpt lat="51.9850994087755680084228515625" lon="12.76499169878661632537841796875">
        <ele>113.40000152587890625</ele>
        <time>2018-08-18T14:05:40.000Z</time>
      </trkpt>
      <trkpt lat="51.98543946258723735809326171875" lon="12.7651800401508808135986328125">
        <ele>114.59999847412109375</ele>
        <time>2018-08-18T14:05:46.000Z</time>
      </trkpt>
      <trkpt lat="51.9857994653284549713134765625" lon="12.765406854450702667236328125">
        <ele>115.59999847412109375</ele>
        <time>2018-08-18T14:05:52.000Z</time>
      </trkpt>
      <trkpt lat="51.9861722923815250396728515625" lon="12.7656370215117931365966796875">
        <ele>116.59999847412109375</ele>
        <time>2018-08-18T14:05:58.000Z</time>
      </trkpt>
      <trkpt lat="51.98649524711072444915771484375" lon="12.76583659462630748748779296875">
        <ele>117.59999847412109375</ele>
        <time>2018-08-18T14:06:03.000Z</time>
      </trkpt>
      <trkpt lat="51.98702498339116573333740234375" lon="12.7661670930683612823486328125">
        <ele>118.59999847412109375</ele>
        <time>2018-08-18T14:06:11.000Z</time>
      </trkpt>
      <trkpt lat="51.98756796307861804962158203125" lon="12.76651117019355297088623046875">
        <ele>119</ele>
        <time>2018-08-18T14:06:19.000Z</time>
      </trkpt>
      <trkpt lat="51.98808051645755767822265625" lon="12.76682834140956401824951171875">
        <ele>119.59999847412109375</ele>
        <time>2018-08-18T14:06:26.000Z</time>
      </trkpt>
      <trkpt lat="51.9881551153957843780517578125" lon="12.7668748609721660614013671875">
        <ele>119.59999847412109375</ele>
        <time>2018-08-18T14:06:27.000Z</time>
      </trkpt>
      <trkpt lat="51.98869013227522373199462890625" lon="12.7671973966062068939208984375">
        <ele>119.8000030517578125</ele>
        <time>2018-08-18T14:06:34.000Z</time>
      </trkpt>
      <trkpt lat="51.989226825535297393798828125" lon="12.767522446811199188232421875">
        <ele>120.1999969482421875</ele>
        <time>2018-08-18T14:06:41.000Z</time>
      </trkpt>
      <trkpt lat="51.98976485989987850189208984375" lon="12.767854034900665283203125">
        <ele>120.40000152587890625</ele>
        <time>2018-08-18T14:06:48.000Z</time>
      </trkpt>
      <trkpt lat="51.99030264280736446380615234375" lon="12.76818218640983104705810546875">
        <ele>120.59999847412109375</ele>
        <time>2018-08-18T14:06:55.000Z</time>
      </trkpt>
      <trkpt lat="51.990847885608673095703125" lon="12.76852249167859554290771484375">
        <ele>121</ele>
        <time>2018-08-18T14:07:02.000Z</time>
      </trkpt>
      <trkpt lat="51.99138876982033252716064453125" lon="12.76885609142482280731201171875">
        <ele>121.59999847412109375</ele>
        <time>2018-08-18T14:07:09.000Z</time>
      </trkpt>
      <trkpt lat="51.9918394647538661956787109375" lon="12.7691399864852428436279296875">
        <ele>121.59999847412109375</ele>
        <time>2018-08-18T14:07:15.000Z</time>
      </trkpt>
      <trkpt lat="51.99236257933080196380615234375" lon="12.76946612633764743804931640625">
        <ele>121.8000030517578125</ele>
        <time>2018-08-18T14:07:22.000Z</time>
      </trkpt>
      <trkpt lat="51.99289918877184391021728515625" lon="12.76980089955031871795654296875">
        <ele>122.1999969482421875</ele>
        <time>2018-08-18T14:07:29.000Z</time>
      </trkpt>
      <trkpt lat="51.99343848042190074920654296875" lon="12.77013869024813175201416015625">
        <ele>122.1999969482421875</ele>
        <time>2018-08-18T14:07:36.000Z</time>
      </trkpt>
      <trkpt lat="51.9939887523651123046875" lon="12.7704864554107189178466796875">
        <ele>122.1999969482421875</ele>
        <time>2018-08-18T14:07:43.000Z</time>
      </trkpt>
      <trkpt lat="51.994536258280277252197265625" lon="12.77082583867013454437255859375">
        <ele>122.1999969482421875</ele>
        <time>2018-08-18T14:07:50.000Z</time>
      </trkpt>
      <trkpt lat="51.9950978457927703857421875" lon="12.77117016725242137908935546875">
        <ele>121.8000030517578125</ele>
        <time>2018-08-18T14:07:57.000Z</time>
      </trkpt>
      <trkpt lat="51.99568700976669788360595703125" lon="12.77153628878295421600341796875">
        <ele>120.8000030517578125</ele>
        <time>2018-08-18T14:08:04.000Z</time>
      </trkpt>
      <trkpt lat="51.99577434919774532318115234375" lon="12.7715908549726009368896484375">
        <ele>120.59999847412109375</ele>
        <time>2018-08-18T14:08:05.000Z</time>
      </trkpt>
      <trkpt lat="51.99612605385482311248779296875" lon="12.77180870063602924346923828125">
        <ele>119.59999847412109375</ele>
        <time>2018-08-18T14:08:09.000Z</time>
      </trkpt>
      <trkpt lat="51.99663952924311161041259765625" lon="12.7721256203949451446533203125">
        <ele>118.8000030517578125</ele>
        <time>2018-08-18T14:08:15.000Z</time>
      </trkpt>
      <trkpt lat="51.99672251008450984954833984375" lon="12.77217708528041839599609375">
        <ele>118.59999847412109375</ele>
        <time>2018-08-18T14:08:16.000Z</time>
      </trkpt>
      <trkpt lat="51.9970496557652950286865234375" lon="12.772382609546184539794921875">
        <ele>117.59999847412109375</ele>
        <time>2018-08-18T14:08:20.000Z</time>
      </trkpt>
      <trkpt lat="51.9972870312631130218505859375" lon="12.772512026131153106689453125">
        <ele>116.8000030517578125</ele>
        <time>2018-08-18T14:08:23.000Z</time>
      </trkpt>
      <trkpt lat="51.99744503013789653778076171875" lon="12.77256005443632602691650390625">
        <ele>116.59999847412109375</ele>
        <time>2018-08-18T14:08:25.000Z</time>
      </trkpt>
      <trkpt lat="51.99752147309482097625732421875" lon="12.77260313741862773895263671875">
        <ele>116.59999847412109375</ele>
        <time>2018-08-18T14:08:26.000Z</time>
      </trkpt>
      <trkpt lat="51.99767150916159152984619140625" lon="12.77271076105535030364990234375">
        <ele>116.40000152587890625</ele>
        <time>2018-08-18T14:08:28.000Z</time>
      </trkpt>
      <trkpt lat="51.99789379723370075225830078125" lon="12.77291276492178440093994140625">
        <ele>116</ele>
        <time>2018-08-18T14:08:31.000Z</time>
      </trkpt>
      <trkpt lat="51.99820962734520435333251953125" lon="12.77304880321025848388671875">
        <ele>116</ele>
        <time>2018-08-18T14:08:35.000Z</time>
      </trkpt>
      <trkpt lat="51.99874020181596279144287109375" lon="12.77336823754012584686279296875">
        <ele>116.1999969482421875</ele>
        <time>2018-08-18T14:08:43.000Z</time>
      </trkpt>
      <trkpt lat="51.99911202304065227508544921875" lon="12.77359656058251857757568359375">
        <ele>118</ele>
        <time>2018-08-18T14:08:49.000Z</time>
      </trkpt>
      <trkpt lat="51.99949775822460651397705078125" lon="12.7738328464329242706298828125">
        <ele>119</ele>
        <time>2018-08-18T14:08:55.000Z</time>
      </trkpt>
      <trkpt lat="51.9998042844235897064208984375" lon="12.774038873612880706787109375">
        <ele>120.1999969482421875</ele>
        <time>2018-08-18T14:09:00.000Z</time>
      </trkpt>
      <trkpt lat="51.99992473237216472625732421875" lon="12.77412780560553073883056640625">
        <ele>120.59999847412109375</ele>
        <time>2018-08-18T14:09:02.000Z</time>
      </trkpt>
      <trkpt lat="52.00023603625595569610595703125" lon="12.77429812587797641754150390625">
        <ele>121.40000152587890625</ele>
        <time>2018-08-18T14:09:07.000Z</time>
      </trkpt>
      <trkpt lat="52.00073962099850177764892578125" lon="12.77469299733638763427734375">
        <ele>122.59999847412109375</ele>
        <time>2018-08-18T14:09:15.000Z</time>
      </trkpt>
      <trkpt lat="52.0011313073337078094482421875" lon="12.77537084184587001800537109375">
        <ele>123</ele>
        <time>2018-08-18T14:09:23.000Z</time>
      </trkpt>
      <trkpt lat="52.00144135393202304840087890625" lon="12.77620266191661357879638671875">
        <ele>123.59999847412109375</ele>
        <time>2018-08-18T14:09:31.000Z</time>
      </trkpt>
      <trkpt lat="52.0015567727386951446533203125" lon="12.77651689946651458740234375">
        <ele>123.8000030517578125</ele>
        <time>2018-08-18T14:09:34.000Z</time>
      </trkpt>
      <trkpt lat="52.00187168084084987640380859375" lon="12.7773477137088775634765625">
        <ele>124.40000152587890625</ele>
        <time>2018-08-18T14:09:42.000Z</time>
      </trkpt>
      <trkpt lat="52.0019902847707271575927734375" lon="12.77764870785176753997802734375">
        <ele>124.59999847412109375</ele>
        <time>2018-08-18T14:09:45.000Z</time>
      </trkpt>
      <trkpt lat="52.00230955146253108978271484375" lon="12.7784244529902935028076171875">
        <ele>125</ele>
        <time>2018-08-18T14:09:53.000Z</time>
      </trkpt>
      <trkpt lat="52.00246528722345829010009765625" lon="12.77880859561264514923095703125">
        <ele>125.8000030517578125</ele>
        <time>2018-08-18T14:09:57.000Z</time>
      </trkpt>
      <trkpt lat="52.00279067270457744598388671875" lon="12.77957872487604618072509765625">
        <ele>126.8000030517578125</ele>
        <time>2018-08-18T14:10:05.000Z</time>
      </trkpt>
      <trkpt lat="52.0030390284955501556396484375" lon="12.78017015196382999420166015625">
        <ele>127.8000030517578125</ele>
        <time>2018-08-18T14:10:11.000Z</time>
      </trkpt>
      <trkpt lat="52.0034028030931949615478515625" lon="12.78088697232306003570556640625">
        <ele>129</ele>
        <time>2018-08-18T14:10:19.000Z</time>
      </trkpt>
      <trkpt lat="52.00384519994258880615234375" lon="12.78144168667495250701904296875">
        <ele>129.8000030517578125</ele>
        <time>2018-08-18T14:10:27.000Z</time>
      </trkpt>
      <trkpt lat="52.00388610363006591796875" lon="12.7815089933574199676513671875">
        <ele>130</ele>
        <time>2018-08-18T14:10:28.000Z</time>
      </trkpt>
      <trkpt lat="52.00422699563205242156982421875" lon="12.78189397417008876800537109375">
        <ele>131</ele>
        <time>2018-08-18T14:10:35.000Z</time>
      </trkpt>
      <trkpt lat="52.0042875967919826507568359375" lon="12.781946361064910888671875">
        <ele>131.1999969482421875</ele>
        <time>2018-08-18T14:10:36.000Z</time>
      </trkpt>
      <trkpt lat="52.0044864155352115631103515625" lon="12.78208306990563869476318359375">
        <ele>131.1999969482421875</ele>
        <time>2018-08-18T14:10:39.000Z</time>
      </trkpt>
      <trkpt lat="52.004703842103481292724609375" lon="12.78216353617608547210693359375">
        <ele>131.1999969482421875</ele>
        <time>2018-08-18T14:10:42.000Z</time>
      </trkpt>
      <trkpt lat="52.00522762723267078399658203125" lon="12.7825470082461833953857421875">
        <ele>131.399993896484375</ele>
        <time>2018-08-18T14:10:49.000Z</time>
      </trkpt>
      <trkpt lat="52.005781419575214385986328125" lon="12.78296099044382572174072265625">
        <ele>131.399993896484375</ele>
        <time>2018-08-18T14:10:56.000Z</time>
      </trkpt>
      <trkpt lat="52.0063471980392932891845703125" lon="12.78338276781141757965087890625">
        <ele>130.8000030517578125</ele>
        <time>2018-08-18T14:11:03.000Z</time>
      </trkpt>
      <trkpt lat="52.00684164650738239288330078125" lon="12.7837566845118999481201171875">
        <ele>130.399993896484375</ele>
        <time>2018-08-18T14:11:09.000Z</time>
      </trkpt>
      <trkpt lat="52.006924040615558624267578125" lon="12.78381879441440105438232421875">
        <ele>130.1999969482421875</ele>
        <time>2018-08-18T14:11:10.000Z</time>
      </trkpt>
      <trkpt lat="52.0074130408465862274169921875" lon="12.7841935493052005767822265625">
        <ele>129.399993896484375</ele>
        <time>2018-08-18T14:11:16.000Z</time>
      </trkpt>
      <trkpt lat="52.0079659111797809600830078125" lon="12.78461272828280925750732421875">
        <ele>129.1999969482421875</ele>
        <time>2018-08-18T14:11:23.000Z</time>
      </trkpt>
      <trkpt lat="52.00849606655538082122802734375" lon="12.78502218425273895263671875">
        <ele>129.1999969482421875</ele>
        <time>2018-08-18T14:11:30.000Z</time>
      </trkpt>
      <trkpt lat="52.00901507399976253509521484375" lon="12.78541655279695987701416015625">
        <ele>129.600006103515625</ele>
        <time>2018-08-18T14:11:37.000Z</time>
      </trkpt>
      <trkpt lat="52.0095685310661792755126953125" lon="12.78582994826138019561767578125">
        <ele>130.1999969482421875</ele>
        <time>2018-08-18T14:11:45.000Z</time>
      </trkpt>
      <trkpt lat="52.010109163820743560791015625" lon="12.78623445890843868255615234375">
        <ele>131.399993896484375</ele>
        <time>2018-08-18T14:11:53.000Z</time>
      </trkpt>
      <trkpt lat="52.01051627285778522491455078125" lon="12.7865471877157688140869140625">
        <ele>132.399993896484375</ele>
        <time>2018-08-18T14:11:59.000Z</time>
      </trkpt>
      <trkpt lat="52.01091089285910129547119140625" lon="12.7868472598493099212646484375">
        <ele>133.399993896484375</ele>
        <time>2018-08-18T14:12:05.000Z</time>
      </trkpt>
      <trkpt lat="52.011434845626354217529296875" lon="12.78725185431540012359619140625">
        <ele>134.399993896484375</ele>
        <time>2018-08-18T14:12:13.000Z</time>
      </trkpt>
      <trkpt lat="52.0115661062300205230712890625" lon="12.78735176660120487213134765625">
        <ele>134.600006103515625</ele>
        <time>2018-08-18T14:12:15.000Z</time>
      </trkpt>
      <trkpt lat="52.0120896399021148681640625" lon="12.7877493202686309814453125">
        <ele>135.600006103515625</ele>
        <time>2018-08-18T14:12:23.000Z</time>
      </trkpt>
      <trkpt lat="52.012605965137481689453125" lon="12.788146622478961944580078125">
        <ele>136.600006103515625</ele>
        <time>2018-08-18T14:12:31.000Z</time>
      </trkpt>
      <trkpt lat="52.01304777525365352630615234375" lon="12.78848248533904552459716796875">
        <ele>137.8000030517578125</ele>
        <time>2018-08-18T14:12:38.000Z</time>
      </trkpt>
      <trkpt lat="52.01341934502124786376953125" lon="12.788774259388446807861328125">
        <ele>138.8000030517578125</ele>
        <time>2018-08-18T14:12:44.000Z</time>
      </trkpt>
      <trkpt lat="52.01394933275878429412841796875" lon="12.78918136842548847198486328125">
        <ele>139.8000030517578125</ele>
        <time>2018-08-18T14:12:52.000Z</time>
      </trkpt>
      <trkpt lat="52.0140163041651248931884765625" lon="12.789232917129993438720703125">
        <ele>140.1999969482421875</ele>
        <time>2018-08-18T14:12:53.000Z</time>
      </trkpt>
      <trkpt lat="52.0144659094512462615966796875" lon="12.78957800008356571197509765625">
        <ele>141.1999969482421875</ele>
        <time>2018-08-18T14:13:00.000Z</time>
      </trkpt>
      <trkpt lat="52.01498634181916713714599609375" lon="12.78997354209423065185546875">
        <ele>141.600006103515625</ele>
        <time>2018-08-18T14:13:08.000Z</time>
      </trkpt>
      <trkpt lat="52.01552219688892364501953125" lon="12.79038031585514545440673828125">
        <ele>142</ele>
        <time>2018-08-18T14:13:16.000Z</time>
      </trkpt>
      <trkpt lat="52.0156547985970973968505859375" lon="12.79048073105514049530029296875">
        <ele>142.1999969482421875</ele>
        <time>2018-08-18T14:13:18.000Z</time>
      </trkpt>
      <trkpt lat="52.0161929167807102203369140625" lon="12.79090049676597118377685546875">
        <ele>142.399993896484375</ele>
        <time>2018-08-18T14:13:26.000Z</time>
      </trkpt>
      <trkpt lat="52.01672072522342205047607421875" lon="12.79130701906979084014892578125">
        <ele>142.8000030517578125</ele>
        <time>2018-08-18T14:13:34.000Z</time>
      </trkpt>
      <trkpt lat="52.01698668301105499267578125" lon="12.7915049158036708831787109375">
        <ele>143.1999969482421875</ele>
        <time>2018-08-18T14:13:38.000Z</time>
      </trkpt>
      <trkpt lat="52.0175159163773059844970703125" lon="12.79190531931817531585693359375">
        <ele>144.1999969482421875</ele>
        <time>2018-08-18T14:13:46.000Z</time>
      </trkpt>
      <trkpt lat="52.01764742843806743621826171875" lon="12.79200665652751922607421875">
        <ele>144.399993896484375</ele>
        <time>2018-08-18T14:13:48.000Z</time>
      </trkpt>
      <trkpt lat="52.01818102039396762847900390625" lon="12.79240940697491168975830078125">
        <ele>145.1999969482421875</ele>
        <time>2018-08-18T14:13:56.000Z</time>
      </trkpt>
      <trkpt lat="52.01851596124470233917236328125" lon="12.7926622889935970306396484375">
        <ele>145.600006103515625</ele>
        <time>2018-08-18T14:14:01.000Z</time>
      </trkpt>
      <trkpt lat="52.01904083602130413055419921875" lon="12.7930626086890697479248046875">
        <ele>146.1999969482421875</ele>
        <time>2018-08-18T14:14:09.000Z</time>
      </trkpt>
      <trkpt lat="52.0193022675812244415283203125" lon="12.7932647801935672760009765625">
        <ele>146.600006103515625</ele>
        <time>2018-08-18T14:14:13.000Z</time>
      </trkpt>
      <trkpt lat="52.01983393169939517974853515625" lon="12.7936689555644989013671875">
        <ele>147.399993896484375</ele>
        <time>2018-08-18T14:14:21.000Z</time>
      </trkpt>
      <trkpt lat="52.0200375281274318695068359375" lon="12.793826200067996978759765625">
        <ele>147.8000030517578125</ele>
        <time>2018-08-18T14:14:24.000Z</time>
      </trkpt>
      <trkpt lat="52.02059048227965831756591796875" lon="12.79424839653074741363525390625">
        <ele>148.399993896484375</ele>
        <time>2018-08-18T14:14:32.000Z</time>
      </trkpt>
      <trkpt lat="52.0210792310535907745361328125" lon="12.7946238219738006591796875">
        <ele>148.600006103515625</ele>
        <time>2018-08-18T14:14:39.000Z</time>
      </trkpt>
      <trkpt lat="52.02122054994106292724609375" lon="12.79473018832504749298095703125">
        <ele>148.8000030517578125</ele>
        <time>2018-08-18T14:14:41.000Z</time>
      </trkpt>
      <trkpt lat="52.02171985991299152374267578125" lon="12.7951064519584178924560546875">
        <ele>149</ele>
        <time>2018-08-18T14:14:48.000Z</time>
      </trkpt>
      <trkpt lat="52.02221372164785861968994140625" lon="12.79548824764788150787353515625">
        <ele>149.1999969482421875</ele>
        <time>2018-08-18T14:14:55.000Z</time>
      </trkpt>
      <trkpt lat="52.0227063260972499847412109375" lon="12.7958638407289981842041015625">
        <ele>149</ele>
        <time>2018-08-18T14:15:02.000Z</time>
      </trkpt>
      <trkpt lat="52.02320999465882778167724609375" lon="12.7962504141032695770263671875">
        <ele>149</ele>
        <time>2018-08-18T14:15:09.000Z</time>
      </trkpt>
      <trkpt lat="52.02342758886516094207763671875" lon="12.79641729779541492462158203125">
        <ele>148.8000030517578125</ele>
        <time>2018-08-18T14:15:12.000Z</time>
      </trkpt>
      <trkpt lat="52.023933939635753631591796875" lon="12.79680705629289150238037109375">
        <ele>148.1999969482421875</ele>
        <time>2018-08-18T14:15:19.000Z</time>
      </trkpt>
      <trkpt lat="52.02438513748347759246826171875" lon="12.79715381562709808349609375">
        <ele>147.8000030517578125</ele>
        <time>2018-08-18T14:15:25.000Z</time>
      </trkpt>
      <trkpt lat="52.02494957484304904937744140625" lon="12.79758506454527378082275390625">
        <ele>146.8000030517578125</ele>
        <time>2018-08-18T14:15:32.000Z</time>
      </trkpt>
      <trkpt lat="52.02535509131848812103271484375" lon="12.79789351858198642730712890625">
        <ele>145.8000030517578125</ele>
        <time>2018-08-18T14:15:37.000Z</time>
      </trkpt>
      <trkpt lat="52.02584777958691120147705078125" lon="12.7982687763869762420654296875">
        <ele>144.399993896484375</ele>
        <time>2018-08-18T14:15:43.000Z</time>
      </trkpt>
      <trkpt lat="52.02618062496185302734375" lon="12.7985245920717716217041015625">
        <ele>143.1999969482421875</ele>
        <time>2018-08-18T14:15:47.000Z</time>
      </trkpt>
      <trkpt lat="52.02660315670073032379150390625" lon="12.7988494746387004852294921875">
        <ele>142.399993896484375</ele>
        <time>2018-08-18T14:15:52.000Z</time>
      </trkpt>
      <trkpt lat="52.02693792991340160369873046875" lon="12.79912632890045642852783203125">
        <ele>141.1999969482421875</ele>
        <time>2018-08-18T14:15:56.000Z</time>
      </trkpt>
      <trkpt lat="52.02710338868200778961181640625" lon="12.7992588467895984649658203125">
        <ele>140.1999969482421875</ele>
        <time>2018-08-18T14:15:58.000Z</time>
      </trkpt>
      <trkpt lat="52.02744671143591403961181640625" lon="12.79950586147606372833251953125">
        <ele>138.8000030517578125</ele>
        <time>2018-08-18T14:16:02.000Z</time>
      </trkpt>
      <trkpt lat="52.0278893597424030303955078125" lon="12.79983124695718288421630859375">
        <ele>137.600006103515625</ele>
        <time>2018-08-18T14:16:07.000Z</time>
      </trkpt>
      <trkpt lat="52.02824768610298633575439453125" lon="12.800110280513763427734375">
        <ele>136.1999969482421875</ele>
        <time>2018-08-18T14:16:11.000Z</time>
      </trkpt>
      <trkpt lat="52.02860542573034763336181640625" lon="12.8003773279488086700439453125">
        <ele>135</ele>
        <time>2018-08-18T14:16:15.000Z</time>
      </trkpt>
      <trkpt lat="52.028778009116649627685546875" lon="12.8005161322653293609619140625">
        <ele>134.1999969482421875</ele>
        <time>2018-08-18T14:16:17.000Z</time>
      </trkpt>
      <trkpt lat="52.02893701381981372833251953125" lon="12.8006934933364391326904296875">
        <ele>133.8000030517578125</ele>
        <time>2018-08-18T14:16:19.000Z</time>
      </trkpt>
      <trkpt lat="52.029106914997100830078125" lon="12.80084277503192424774169921875">
        <ele>133.399993896484375</ele>
        <time>2018-08-18T14:16:21.000Z</time>
      </trkpt>
      <trkpt lat="52.0292827673256397247314453125" lon="12.80097889713943004608154296875">
        <ele>132.600006103515625</ele>
        <time>2018-08-18T14:16:23.000Z</time>
      </trkpt>
      <trkpt lat="52.02963103540241718292236328125" lon="12.8012490458786487579345703125">
        <ele>131.399993896484375</ele>
        <time>2018-08-18T14:16:27.000Z</time>
      </trkpt>
      <trkpt lat="52.0300733484327793121337890625" lon="12.80157987959682941436767578125">
        <ele>130.399993896484375</ele>
        <time>2018-08-18T14:16:32.000Z</time>
      </trkpt>
      <trkpt lat="52.030636109411716461181640625" lon="12.80200333334505558013916015625">
        <ele>129.1999969482421875</ele>
        <time>2018-08-18T14:16:38.000Z</time>
      </trkpt>
      <trkpt lat="52.0310258679091930389404296875" lon="12.8023016452789306640625">
        <ele>128</ele>
        <time>2018-08-18T14:16:42.000Z</time>
      </trkpt>
      <trkpt lat="52.03131730668246746063232421875" lon="12.80252091586589813232421875">
        <ele>127</ele>
        <time>2018-08-18T14:16:45.000Z</time>
      </trkpt>
      <trkpt lat="52.0316058956086635589599609375" lon="12.80273876152932643890380859375">
        <ele>126</ele>
        <time>2018-08-18T14:16:48.000Z</time>
      </trkpt>
      <trkpt lat="52.03198282979428768157958984375" lon="12.803025506436824798583984375">
        <ele>124.8000030517578125</ele>
        <time>2018-08-18T14:16:52.000Z</time>
      </trkpt>
      <trkpt lat="52.03243209980428218841552734375" lon="12.80336891300976276397705078125">
        <ele>123.59999847412109375</ele>
        <time>2018-08-18T14:16:57.000Z</time>
      </trkpt>
      <trkpt lat="52.032946161925792694091796875" lon="12.8037619404494762420654296875">
        <ele>123</ele>
        <time>2018-08-18T14:17:03.000Z</time>
      </trkpt>
      <trkpt lat="52.03317557461559772491455078125" lon="12.803921364247798919677734375">
        <ele>122.8000030517578125</ele>
        <time>2018-08-18T14:17:06.000Z</time>
      </trkpt>
      <trkpt lat="52.03352778218686580657958984375" lon="12.80407181940972805023193359375">
        <ele>122.8000030517578125</ele>
        <time>2018-08-18T14:17:11.000Z</time>
      </trkpt>
      <trkpt lat="52.0340701751410961151123046875" lon="12.80449594371020793914794921875">
        <ele>123.40000152587890625</ele>
        <time>2018-08-18T14:17:19.000Z</time>
      </trkpt>
      <trkpt lat="52.03456210903823375701904296875" lon="12.8048663400113582611083984375">
        <ele>123.8000030517578125</ele>
        <time>2018-08-18T14:17:26.000Z</time>
      </trkpt>
      <trkpt lat="52.03511774539947509765625" lon="12.8052931465208530426025390625">
        <ele>124.8000030517578125</ele>
        <time>2018-08-18T14:17:34.000Z</time>
      </trkpt>
      <trkpt lat="52.03518672846257686614990234375" lon="12.8053471259772777557373046875">
        <ele>124.8000030517578125</ele>
        <time>2018-08-18T14:17:35.000Z</time>
      </trkpt>
      <trkpt lat="52.03571520745754241943359375" lon="12.80574685893952846527099609375">
        <ele>125.1999969482421875</ele>
        <time>2018-08-18T14:17:43.000Z</time>
      </trkpt>
      <trkpt lat="52.035977058112621307373046875" lon="12.80594970099627971649169921875">
        <ele>126</ele>
        <time>2018-08-18T14:17:47.000Z</time>
      </trkpt>
      <trkpt lat="52.03644317574799060821533203125" lon="12.80631599016487598419189453125">
        <ele>127</ele>
        <time>2018-08-18T14:17:54.000Z</time>
      </trkpt>
      <trkpt lat="52.0369538851082324981689453125" lon="12.806703485548496246337890625">
        <ele>128</ele>
        <time>2018-08-18T14:18:02.000Z</time>
      </trkpt>
      <trkpt lat="52.037013731896877288818359375" lon="12.80674715526401996612548828125">
        <ele>128</ele>
        <time>2018-08-18T14:18:03.000Z</time>
      </trkpt>
      <trkpt lat="52.03737608157098293304443359375" lon="12.8070214949548244476318359375">
        <ele>129.1999969482421875</ele>
        <time>2018-08-18T14:18:09.000Z</time>
      </trkpt>
      <trkpt lat="52.03774002380669116973876953125" lon="12.80730103142559528350830078125">
        <ele>130.1999969482421875</ele>
        <time>2018-08-18T14:18:15.000Z</time>
      </trkpt>
      <trkpt lat="52.03809432685375213623046875" lon="12.8075669892132282257080078125">
        <ele>131.1999969482421875</ele>
        <time>2018-08-18T14:18:21.000Z</time>
      </trkpt>
      <trkpt lat="52.03848282806575298309326171875" lon="12.80785473994910717010498046875">
        <ele>132.399993896484375</ele>
        <time>2018-08-18T14:18:28.000Z</time>
      </trkpt>
      <trkpt lat="52.0387492887675762176513671875" lon="12.80806839466094970703125">
        <ele>133.600006103515625</ele>
        <time>2018-08-18T14:18:33.000Z</time>
      </trkpt>
      <trkpt lat="52.03901432454586029052734375" lon="12.808271907269954681396484375">
        <ele>134.600006103515625</ele>
        <time>2018-08-18T14:18:38.000Z</time>
      </trkpt>
      <trkpt lat="52.03928514383733272552490234375" lon="12.80847198329865932464599609375">
        <ele>135.600006103515625</ele>
        <time>2018-08-18T14:18:43.000Z</time>
      </trkpt>
      <trkpt lat="52.039626203477382659912109375" lon="12.8087270446121692657470703125">
        <ele>136.8000030517578125</ele>
        <time>2018-08-18T14:18:49.000Z</time>
      </trkpt>
      <trkpt lat="52.03978872857987880706787109375" lon="12.808854617178440093994140625">
        <ele>137.1999969482421875</ele>
        <time>2018-08-18T14:18:52.000Z</time>
      </trkpt>
      <trkpt lat="52.0399720408022403717041015625" lon="12.80913029797375202178955078125">
        <ele>138</ele>
        <time>2018-08-18T14:18:56.000Z</time>
      </trkpt>
      <trkpt lat="52.04003146849572658538818359375" lon="12.8091748058795928955078125">
        <ele>138</ele>
        <time>2018-08-18T14:18:57.000Z</time>
      </trkpt>
      <trkpt lat="52.0403485558927059173583984375" lon="12.80940874479711055755615234375">
        <ele>139</ele>
        <time>2018-08-18T14:19:02.000Z</time>
      </trkpt>
      <trkpt lat="52.040863372385501861572265625" lon="12.8098158538341522216796875">
        <ele>139.399993896484375</ele>
        <time>2018-08-18T14:19:10.000Z</time>
      </trkpt>
      <trkpt lat="52.04139118082821369171142578125" lon="12.81022028066217899322509765625">
        <ele>140</ele>
        <time>2018-08-18T14:19:18.000Z</time>
      </trkpt>
      <trkpt lat="52.04145873896777629852294921875" lon="12.810259759426116943359375">
        <ele>140</ele>
        <time>2018-08-18T14:19:19.000Z</time>
      </trkpt>
      <trkpt lat="52.04195997677743434906005859375" lon="12.8106580674648284912109375">
        <ele>140.600006103515625</ele>
        <time>2018-08-18T14:19:27.000Z</time>
      </trkpt>
      <trkpt lat="52.0424752123653888702392578125" lon="12.81105210073292255401611328125">
        <ele>141</ele>
        <time>2018-08-18T14:19:35.000Z</time>
      </trkpt>
      <trkpt lat="52.04260655678808689117431640625" lon="12.81115285120904445648193359375">
        <ele>141</ele>
        <time>2018-08-18T14:19:37.000Z</time>
      </trkpt>
      <trkpt lat="52.0431605167686939239501953125" lon="12.81154931522905826568603515625">
        <ele>141.8000030517578125</ele>
        <time>2018-08-18T14:19:45.000Z</time>
      </trkpt>
      <trkpt lat="52.0436570607125759124755859375" lon="12.8119416721165180206298828125">
        <ele>141.8000030517578125</ele>
        <time>2018-08-18T14:19:52.000Z</time>
      </trkpt>
      <trkpt lat="52.04378991387784481048583984375" lon="12.8120844997465610504150390625">
        <ele>141.8000030517578125</ele>
        <time>2018-08-18T14:19:54.000Z</time>
      </trkpt>
      <trkpt lat="52.04430992715060710906982421875" lon="12.81248205341398715972900390625">
        <ele>141.1999969482421875</ele>
        <time>2018-08-18T14:20:01.000Z</time>
      </trkpt>
      <trkpt lat="52.04486413858830928802490234375" lon="12.8129005618393421173095703125">
        <ele>140.399993896484375</ele>
        <time>2018-08-18T14:20:08.000Z</time>
      </trkpt>
      <trkpt lat="52.04494577832520008087158203125" lon="12.81296317465603351593017578125">
        <ele>140.1999969482421875</ele>
        <time>2018-08-18T14:20:09.000Z</time>
      </trkpt>
      <trkpt lat="52.0451909489929676055908203125" lon="12.8131610713899135589599609375">
        <ele>139</ele>
        <time>2018-08-18T14:20:12.000Z</time>
      </trkpt>
      <trkpt lat="52.045264542102813720703125" lon="12.8132536076009273529052734375">
        <ele>138.8000030517578125</ele>
        <time>2018-08-18T14:20:13.000Z</time>
      </trkpt>
      <trkpt lat="52.04545975662767887115478515625" lon="12.81359785236418247222900390625">
        <ele>137.8000030517578125</ele>
        <time>2018-08-18T14:20:16.000Z</time>
      </trkpt>
      <trkpt lat="52.0457129739224910736083984375" lon="12.8138037957251071929931640625">
        <ele>137</ele>
        <time>2018-08-18T14:20:19.000Z</time>
      </trkpt>
      <trkpt lat="52.04580391757190227508544921875" lon="12.81385484151542186737060546875">
        <ele>136.600006103515625</ele>
        <time>2018-08-18T14:20:20.000Z</time>
      </trkpt>
      <trkpt lat="52.0461753197014331817626953125" lon="12.81399808824062347412109375">
        <ele>136</ele>
        <time>2018-08-18T14:20:24.000Z</time>
      </trkpt>
      <trkpt lat="52.04635896719992160797119140625" lon="12.8141350485384464263916015625">
        <ele>135.600006103515625</ele>
        <time>2018-08-18T14:20:26.000Z</time>
      </trkpt>
      <trkpt lat="52.04686171375215053558349609375" lon="12.81453763134777545928955078125">
        <ele>134.600006103515625</ele>
        <time>2018-08-18T14:20:31.000Z</time>
      </trkpt>
      <trkpt lat="52.0470648072659969329833984375" lon="12.814738713204860687255859375">
        <ele>134.399993896484375</ele>
        <time>2018-08-18T14:20:33.000Z</time>
      </trkpt>
      <trkpt lat="52.0473580062389373779296875" lon="12.81502109952270984649658203125">
        <ele>133</ele>
        <time>2018-08-18T14:20:36.000Z</time>
      </trkpt>
      <trkpt lat="52.0476418174803256988525390625" lon="12.81523081474006175994873046875">
        <ele>131.8000030517578125</ele>
        <time>2018-08-18T14:20:39.000Z</time>
      </trkpt>
      <trkpt lat="52.04773359932005405426025390625" lon="12.81528177671134471893310546875">
        <ele>131.600006103515625</ele>
        <time>2018-08-18T14:20:40.000Z</time>
      </trkpt>
      <trkpt lat="52.0480875670909881591796875" lon="12.81535168178379535675048828125">
        <ele>130.600006103515625</ele>
        <time>2018-08-18T14:20:44.000Z</time>
      </trkpt>
      <trkpt lat="52.04817029647529125213623046875" lon="12.81541706062853336334228515625">
        <ele>130.600006103515625</ele>
        <time>2018-08-18T14:20:45.000Z</time>
      </trkpt>
      <trkpt lat="52.04867388121783733367919921875" lon="12.8158033825457096099853515625">
        <ele>130.1999969482421875</ele>
        <time>2018-08-18T14:20:51.000Z</time>
      </trkpt>
      <trkpt lat="52.0487478934228420257568359375" lon="12.81586566008627414703369140625">
        <ele>130</ele>
        <time>2018-08-18T14:20:52.000Z</time>
      </trkpt>
      <trkpt lat="52.04886339604854583740234375" lon="12.81601904891431331634521484375">
        <ele>129.600006103515625</ele>
        <time>2018-08-18T14:20:54.000Z</time>
      </trkpt>
      <trkpt lat="52.04916086979210376739501953125" lon="12.81642573885619640350341796875">
        <ele>128.600006103515625</ele>
        <time>2018-08-18T14:20:59.000Z</time>
      </trkpt>
      <trkpt lat="52.049235217273235321044921875" lon="12.81649296171963214874267578125">
        <ele>128.600006103515625</ele>
        <time>2018-08-18T14:21:00.000Z</time>
      </trkpt>
      <trkpt lat="52.04953369684517383575439453125" lon="12.81674257479608058929443359375">
        <ele>127.40000152587890625</ele>
        <time>2018-08-18T14:21:04.000Z</time>
      </trkpt>
      <trkpt lat="52.0500739105045795440673828125" lon="12.81713493168354034423828125">
        <ele>127.1999969482421875</ele>
        <time>2018-08-18T14:21:12.000Z</time>
      </trkpt>
      <trkpt lat="52.05060523934662342071533203125" lon="12.81756341457366943359375">
        <ele>128.1999969482421875</ele>
        <time>2018-08-18T14:21:20.000Z</time>
      </trkpt>
      <trkpt lat="52.05080757848918437957763671875" lon="12.81770758330821990966796875">
        <ele>128.399993896484375</ele>
        <time>2018-08-18T14:21:23.000Z</time>
      </trkpt>
      <trkpt lat="52.0513187907636165618896484375" lon="12.8180725313723087310791015625">
        <ele>129</ele>
        <time>2018-08-18T14:21:32.000Z</time>
      </trkpt>
      <trkpt lat="52.0514351315796375274658203125" lon="12.81815308146178722381591796875">
        <ele>129.399993896484375</ele>
        <time>2018-08-18T14:21:34.000Z</time>
      </trkpt>
      <trkpt lat="52.05166555009782314300537109375" lon="12.81832055188715457916259765625">
        <ele>130.600006103515625</ele>
        <time>2018-08-18T14:21:38.000Z</time>
      </trkpt>
      <trkpt lat="52.05191030167043209075927734375" lon="12.81853479333221912384033203125">
        <ele>131.600006103515625</ele>
        <time>2018-08-18T14:21:42.000Z</time>
      </trkpt>
      <trkpt lat="52.05244774930179119110107421875" lon="12.81890208832919597625732421875">
        <ele>131.8000030517578125</ele>
        <time>2018-08-18T14:21:49.000Z</time>
      </trkpt>
      <trkpt lat="52.053015790879726409912109375" lon="12.81931078992784023284912109375">
        <ele>131</ele>
        <time>2018-08-18T14:21:56.000Z</time>
      </trkpt>
      <trkpt lat="52.05328862182796001434326171875" lon="12.8195219300687313079833984375">
        <ele>130.600006103515625</ele>
        <time>2018-08-18T14:21:59.000Z</time>
      </trkpt>
      <trkpt lat="52.05376773141324520111083984375" lon="12.8198929131031036376953125">
        <ele>129.1999969482421875</ele>
        <time>2018-08-18T14:22:04.000Z</time>
      </trkpt>
      <trkpt lat="52.0539562404155731201171875" lon="12.8200292028486728668212890625">
        <ele>128</ele>
        <time>2018-08-18T14:22:06.000Z</time>
      </trkpt>
      <trkpt lat="52.0542405545711517333984375" lon="12.82025207765400409698486328125">
        <ele>126.8000030517578125</ele>
        <time>2018-08-18T14:22:09.000Z</time>
      </trkpt>
      <trkpt lat="52.05473232083022594451904296875" lon="12.82064552418887615203857421875">
        <ele>125.8000030517578125</ele>
        <time>2018-08-18T14:22:14.000Z</time>
      </trkpt>
      <trkpt lat="52.0551114343106746673583984375" lon="12.82098096795380115509033203125">
        <ele>124.8000030517578125</ele>
        <time>2018-08-18T14:22:18.000Z</time>
      </trkpt>
      <trkpt lat="52.05552474595606327056884765625" lon="12.82135496847331523895263671875">
        <ele>123.40000152587890625</ele>
        <time>2018-08-18T14:22:22.000Z</time>
      </trkpt>
      <trkpt lat="52.05584594048559665679931640625" lon="12.82159812748432159423828125">
        <ele>122.1999969482421875</ele>
        <time>2018-08-18T14:22:25.000Z</time>
      </trkpt>
      <trkpt lat="52.0561635307967662811279296875" lon="12.82182452268898487091064453125">
        <ele>120.8000030517578125</ele>
        <time>2018-08-18T14:22:28.000Z</time>
      </trkpt>
      <trkpt lat="52.05647357739508152008056640625" lon="12.82205368392169475555419921875">
        <ele>119.8000030517578125</ele>
        <time>2018-08-18T14:22:31.000Z</time>
      </trkpt>
      <trkpt lat="52.056985795497894287109375" lon="12.82244461588561534881591796875">
        <ele>118.59999847412109375</ele>
        <time>2018-08-18T14:22:36.000Z</time>
      </trkpt>
      <trkpt lat="52.057084701955318450927734375" lon="12.82252307049930095672607421875">
        <ele>118.1999969482421875</ele>
        <time>2018-08-18T14:22:37.000Z</time>
      </trkpt>
      <trkpt lat="52.0572813414037227630615234375" lon="12.82268249429762363433837890625">
        <ele>117.40000152587890625</ele>
        <time>2018-08-18T14:22:39.000Z</time>
      </trkpt>
      <trkpt lat="52.057770676910877227783203125" lon="12.82306705601513385772705078125">
        <ele>116.1999969482421875</ele>
        <time>2018-08-18T14:22:44.000Z</time>
      </trkpt>
      <trkpt lat="52.05805306322872638702392578125" lon="12.82329202629625797271728515625">
        <ele>115.1999969482421875</ele>
        <time>2018-08-18T14:22:47.000Z</time>
      </trkpt>
      <trkpt lat="52.05842320807278156280517578125" lon="12.82357617281377315521240234375">
        <ele>114</ele>
        <time>2018-08-18T14:22:51.000Z</time>
      </trkpt>
      <trkpt lat="52.058992087841033935546875" lon="12.82401639036834239959716796875">
        <ele>112.8000030517578125</ele>
        <time>2018-08-18T14:22:57.000Z</time>
      </trkpt>
      <trkpt lat="52.05954906530678272247314453125" lon="12.82445065677165985107421875">
        <ele>111.59999847412109375</ele>
        <time>2018-08-18T14:23:03.000Z</time>
      </trkpt>
      <trkpt lat="52.06009271554648876190185546875" lon="12.82484452240169048309326171875">
        <ele>110.59999847412109375</ele>
        <time>2018-08-18T14:23:09.000Z</time>
      </trkpt>
      <trkpt lat="52.0604460127651691436767578125" lon="12.8251089714467525482177734375">
        <ele>109.59999847412109375</ele>
        <time>2018-08-18T14:23:13.000Z</time>
      </trkpt>
      <trkpt lat="52.06094364635646343231201171875" lon="12.8254848159849643707275390625">
        <ele>109.1999969482421875</ele>
        <time>2018-08-18T14:23:19.000Z</time>
      </trkpt>
      <trkpt lat="52.06150774843990802764892578125" lon="12.8259171545505523681640625">
        <ele>109.59999847412109375</ele>
        <time>2018-08-18T14:23:26.000Z</time>
      </trkpt>
      <trkpt lat="52.06203932873904705047607421875" lon="12.82630414701998233795166015625">
        <ele>109.8000030517578125</ele>
        <time>2018-08-18T14:23:33.000Z</time>
      </trkpt>
      <trkpt lat="52.06226647831499576568603515625" lon="12.82648167572915554046630859375">
        <ele>109.8000030517578125</ele>
        <time>2018-08-18T14:23:36.000Z</time>
      </trkpt>
      <trkpt lat="52.0627580769360065460205078125" lon="12.82686271704733371734619140625">
        <ele>110</ele>
        <time>2018-08-18T14:23:42.000Z</time>
      </trkpt>
      <trkpt lat="52.06324498169124126434326171875" lon="12.8272845782339572906494140625">
        <ele>109.59999847412109375</ele>
        <time>2018-08-18T14:23:48.000Z</time>
      </trkpt>
      <trkpt lat="52.0637330599129199981689453125" lon="12.827701829373836517333984375">
        <ele>108.8000030517578125</ele>
        <time>2018-08-18T14:23:54.000Z</time>
      </trkpt>
      <trkpt lat="52.0642309449613094329833984375" lon="12.828118242323398590087890625">
        <ele>108.40000152587890625</ele>
        <time>2018-08-18T14:24:00.000Z</time>
      </trkpt>
      <trkpt lat="52.0647425763309001922607421875" lon="12.828497104346752166748046875">
        <ele>107.40000152587890625</ele>
        <time>2018-08-18T14:24:06.000Z</time>
      </trkpt>
      <trkpt lat="52.06527541391551494598388671875" lon="12.8288902156054973602294921875">
        <ele>107</ele>
        <time>2018-08-18T14:24:12.000Z</time>
      </trkpt>
      <trkpt lat="52.06563332118093967437744140625" lon="12.8291653096675872802734375">
        <ele>106.40000152587890625</ele>
        <time>2018-08-18T14:24:16.000Z</time>
      </trkpt>
      <trkpt lat="52.06600279547274112701416015625" lon="12.82945842482149600982666015625">
        <ele>105</ele>
        <time>2018-08-18T14:24:20.000Z</time>
      </trkpt>
      <trkpt lat="52.0663673244416713714599609375" lon="12.829743660986423492431640625">
        <ele>103.8000030517578125</ele>
        <time>2018-08-18T14:24:24.000Z</time>
      </trkpt>
      <trkpt lat="52.06671525724232196807861328125" lon="12.83001766540110111236572265625">
        <ele>102.59999847412109375</ele>
        <time>2018-08-18T14:24:28.000Z</time>
      </trkpt>
      <trkpt lat="52.0670650340616703033447265625" lon="12.830291502177715301513671875">
        <ele>101.59999847412109375</ele>
        <time>2018-08-18T14:24:32.000Z</time>
      </trkpt>
      <trkpt lat="52.06760608591139316558837890625" lon="12.83068989403545856475830078125">
        <ele>100.59999847412109375</ele>
        <time>2018-08-18T14:24:38.000Z</time>
      </trkpt>
      <trkpt lat="52.06778638064861297607421875" lon="12.830844037234783172607421875">
        <ele>100.40000152587890625</ele>
        <time>2018-08-18T14:24:40.000Z</time>
      </trkpt>
      <trkpt lat="52.06821897067129611968994140625" lon="12.8312026150524616241455078125">
        <ele>99.1999969482421875</ele>
        <time>2018-08-18T14:24:45.000Z</time>
      </trkpt>
      <trkpt lat="52.06862230785191059112548828125" lon="12.83149438910186290740966796875">
        <ele>98</ele>
        <time>2018-08-18T14:24:50.000Z</time>
      </trkpt>
      <trkpt lat="52.06915053538978099822998046875" lon="12.83189051784574985504150390625">
        <ele>98</ele>
        <time>2018-08-18T14:24:57.000Z</time>
      </trkpt>
      <trkpt lat="52.06972771324217319488525390625" lon="12.83231279812753200531005859375">
        <ele>98</ele>
        <time>2018-08-18T14:25:04.000Z</time>
      </trkpt>
      <trkpt lat="52.07022476010024547576904296875" lon="12.83270574174821376800537109375">
        <ele>97.40000152587890625</ele>
        <time>2018-08-18T14:25:09.000Z</time>
      </trkpt>
      <trkpt lat="52.07041234709322452545166015625" lon="12.8328558616340160369873046875">
        <ele>96.59999847412109375</ele>
        <time>2018-08-18T14:25:11.000Z</time>
      </trkpt>
      <trkpt lat="52.07071040757000446319580078125" lon="12.8330868668854236602783203125">
        <ele>95.40000152587890625</ele>
        <time>2018-08-18T14:25:14.000Z</time>
      </trkpt>
      <trkpt lat="52.07091358490288257598876953125" lon="12.8332471288740634918212890625">
        <ele>94.1999969482421875</ele>
        <time>2018-08-18T14:25:16.000Z</time>
      </trkpt>
      <trkpt lat="52.07110318355262279510498046875" lon="12.8333986736834049224853515625">
        <ele>93.1999969482421875</ele>
        <time>2018-08-18T14:25:18.000Z</time>
      </trkpt>
      <trkpt lat="52.0713059417903423309326171875" lon="12.8335049562156200408935546875">
        <ele>92</ele>
        <time>2018-08-18T14:25:20.000Z</time>
      </trkpt>
      <trkpt lat="52.0715971291065216064453125" lon="12.83357293345034122467041015625">
        <ele>90.59999847412109375</ele>
        <time>2018-08-18T14:25:23.000Z</time>
      </trkpt>
      <trkpt lat="52.072130553424358367919921875" lon="12.83396705053746700286865234375">
        <ele>89.59999847412109375</ele>
        <time>2018-08-18T14:25:30.000Z</time>
      </trkpt>
      <trkpt lat="52.0726604573428630828857421875" lon="12.834410034120082855224609375">
        <ele>90.59999847412109375</ele>
        <time>2018-08-18T14:25:38.000Z</time>
      </trkpt>
      <trkpt lat="52.0729702524840831756591796875" lon="12.83467649482190608978271484375">
        <ele>91.8000030517578125</ele>
        <time>2018-08-18T14:25:44.000Z</time>
      </trkpt>
      <trkpt lat="52.07314484752714633941650390625" lon="12.83481932245194911956787109375">
        <ele>93</ele>
        <time>2018-08-18T14:25:47.000Z</time>
      </trkpt>
      <trkpt lat="52.07334836013615131378173828125" lon="12.83496818505227565765380859375">
        <ele>94.1999969482421875</ele>
        <time>2018-08-18T14:25:50.000Z</time>
      </trkpt>
      <trkpt lat="52.0738748274743556976318359375" lon="12.83538811840116977691650390625">
        <ele>94.40000152587890625</ele>
        <time>2018-08-18T14:25:58.000Z</time>
      </trkpt>
      <trkpt lat="52.074419148266315460205078125" lon="12.83585406839847564697265625">
        <ele>94.40000152587890625</ele>
        <time>2018-08-18T14:26:06.000Z</time>
      </trkpt>
      <trkpt lat="52.07491745240986347198486328125" lon="12.836284898221492767333984375">
        <ele>94.1999969482421875</ele>
        <time>2018-08-18T14:26:12.000Z</time>
      </trkpt>
      <trkpt lat="52.0752434246242046356201171875" lon="12.83657449297606945037841796875">
        <ele>92.8000030517578125</ele>
        <time>2018-08-18T14:26:16.000Z</time>
      </trkpt>
      <trkpt lat="52.07559538073837757110595703125" lon="12.83685587346553802490234375">
        <ele>91.8000030517578125</ele>
        <time>2018-08-18T14:26:20.000Z</time>
      </trkpt>
      <trkpt lat="52.07577005960047245025634765625" lon="12.83699392341077327728271484375">
        <ele>90.59999847412109375</ele>
        <time>2018-08-18T14:26:22.000Z</time>
      </trkpt>
      <trkpt lat="52.07612209953367710113525390625" lon="12.8372838534414768218994140625">
        <ele>89.59999847412109375</ele>
        <time>2018-08-18T14:26:26.000Z</time>
      </trkpt>
      <trkpt lat="52.0766348205506801605224609375" lon="12.837672941386699676513671875">
        <ele>89</ele>
        <time>2018-08-18T14:26:32.000Z</time>
      </trkpt>
      <trkpt lat="52.07680807448923587799072265625" lon="12.8377998434007167816162109375">
        <ele>88.59999847412109375</ele>
        <time>2018-08-18T14:26:34.000Z</time>
      </trkpt>
      <trkpt lat="52.07736815325915813446044921875" lon="12.83821047283709049224853515625">
        <ele>87.59999847412109375</ele>
        <time>2018-08-18T14:26:40.000Z</time>
      </trkpt>
      <trkpt lat="52.0774632878601551055908203125" lon="12.83827668987214565277099609375">
        <ele>87.40000152587890625</ele>
        <time>2018-08-18T14:26:41.000Z</time>
      </trkpt>
      <trkpt lat="52.0778466761112213134765625" lon="12.83855907618999481201171875">
        <ele>86.40000152587890625</ele>
        <time>2018-08-18T14:26:45.000Z</time>
      </trkpt>
      <trkpt lat="52.07810257561504840850830078125" lon="12.83874138258397579193115234375">
        <ele>85</ele>
        <time>2018-08-18T14:26:48.000Z</time>
      </trkpt>
      <trkpt lat="52.078191675245761871337890625" lon="12.83880022354423999786376953125">
        <ele>84</ele>
        <time>2018-08-18T14:26:49.000Z</time>
      </trkpt>
      <trkpt lat="52.0785398595035076141357421875" lon="12.8390157222747802734375">
        <ele>83</ele>
        <time>2018-08-18T14:26:53.000Z</time>
      </trkpt>
      <trkpt lat="52.07906984724104404449462890625" lon="12.83938678912818431854248046875">
        <ele>82.40000152587890625</ele>
        <time>2018-08-18T14:26:59.000Z</time>
      </trkpt>
      <trkpt lat="52.0791604556143283843994140625" lon="12.839457951486110687255859375">
        <ele>81.8000030517578125</ele>
        <time>2018-08-18T14:27:00.000Z</time>
      </trkpt>
      <trkpt lat="52.0795778743922710418701171875" lon="12.839787192642688751220703125">
        <ele>81.59999847412109375</ele>
        <time>2018-08-18T14:27:05.000Z</time>
      </trkpt>
      <trkpt lat="52.07998263649642467498779296875" lon="12.8399335406720638275146484375">
        <ele>80.8000030517578125</ele>
        <time>2018-08-18T14:27:10.000Z</time>
      </trkpt>
      <trkpt lat="52.080059163272380828857421875" lon="12.83997260034084320068359375">
        <ele>80.8000030517578125</ele>
        <time>2018-08-18T14:27:11.000Z</time>
      </trkpt>
      <trkpt lat="52.080572806298732757568359375" lon="12.840341068804264068603515625">
        <ele>80.8000030517578125</ele>
        <time>2018-08-18T14:27:17.000Z</time>
      </trkpt>
      <trkpt lat="52.0811248384416103363037109375" lon="12.84077265299856662750244140625">
        <ele>80.8000030517578125</ele>
        <time>2018-08-18T14:27:24.000Z</time>
      </trkpt>
      <trkpt lat="52.081669159233570098876953125" lon="12.841186635196208953857421875">
        <ele>80.8000030517578125</ele>
        <time>2018-08-18T14:27:31.000Z</time>
      </trkpt>
      <trkpt lat="52.0822319202125072479248046875" lon="12.84161419607698917388916015625">
        <ele>80.40000152587890625</ele>
        <time>2018-08-18T14:27:38.000Z</time>
      </trkpt>
      <trkpt lat="52.08239578641951084136962890625" lon="12.84173958934843540191650390625">
        <ele>80</ele>
        <time>2018-08-18T14:27:40.000Z</time>
      </trkpt>
      <trkpt lat="52.08272117190062999725341796875" lon="12.841986604034900665283203125">
        <ele>78.8000030517578125</ele>
        <time>2018-08-18T14:27:44.000Z</time>
      </trkpt>
      <trkpt lat="52.08311931230127811431884765625" lon="12.842298410832881927490234375">
        <ele>77.8000030517578125</ele>
        <time>2018-08-18T14:27:49.000Z</time>
      </trkpt>
      <trkpt lat="52.083612419664859771728515625" lon="12.8426863253116607666015625">
        <ele>76.8000030517578125</ele>
        <time>2018-08-18T14:27:55.000Z</time>
      </trkpt>
      <trkpt lat="52.083693556487560272216796875" lon="12.84275329671800136566162109375">
        <ele>76.8000030517578125</ele>
        <time>2018-08-18T14:27:56.000Z</time>
      </trkpt>
      <trkpt lat="52.08415581844747066497802734375" lon="12.8432809375226497650146484375">
        <ele>75.59999847412109375</ele>
        <time>2018-08-18T14:28:02.000Z</time>
      </trkpt>
      <trkpt lat="52.08453719504177570343017578125" lon="12.8439638949930667877197265625">
        <ele>74.8000030517578125</ele>
        <time>2018-08-18T14:28:08.000Z</time>
      </trkpt>
      <trkpt lat="52.08459318615496158599853515625" lon="12.8440842591226100921630859375">
        <ele>74.59999847412109375</ele>
        <time>2018-08-18T14:28:09.000Z</time>
      </trkpt>
      <trkpt lat="52.08492561243474483489990234375" lon="12.84481859765946865081787109375">
        <ele>73.8000030517578125</ele>
        <time>2018-08-18T14:28:15.000Z</time>
      </trkpt>
      <trkpt lat="52.0852624811232089996337890625" lon="12.84554128535091876983642578125">
        <ele>73.59999847412109375</ele>
        <time>2018-08-18T14:28:21.000Z</time>
      </trkpt>
      <trkpt lat="52.0855457894504070281982421875" lon="12.84613422118127346038818359375">
        <ele>73.59999847412109375</ele>
        <time>2018-08-18T14:28:26.000Z</time>
      </trkpt>
      <trkpt lat="52.08588584326207637786865234375" lon="12.8468596749007701873779296875">
        <ele>73.8000030517578125</ele>
        <time>2018-08-18T14:28:32.000Z</time>
      </trkpt>
      <trkpt lat="52.0862260647118091583251953125" lon="12.84758345223963260650634765625">
        <ele>73.8000030517578125</ele>
        <time>2018-08-18T14:28:38.000Z</time>
      </trkpt>
      <trkpt lat="52.086560837924480438232421875" lon="12.8483001887798309326171875">
        <ele>73.59999847412109375</ele>
        <time>2018-08-18T14:28:44.000Z</time>
      </trkpt>
      <trkpt lat="52.086889743804931640625" lon="12.8490222059190273284912109375">
        <ele>73</ele>
        <time>2018-08-18T14:28:50.000Z</time>
      </trkpt>
      <trkpt lat="52.0871681906282901763916015625" lon="12.84962126053869724273681640625">
        <ele>72.8000030517578125</ele>
        <time>2018-08-18T14:28:55.000Z</time>
      </trkpt>
      <trkpt lat="52.08748963661491870880126953125" lon="12.85035920329391956329345703125">
        <ele>72.40000152587890625</ele>
        <time>2018-08-18T14:29:01.000Z</time>
      </trkpt>
      <trkpt lat="52.08784796297550201416015625" lon="12.851067893207073211669921875">
        <ele>72</ele>
        <time>2018-08-18T14:29:07.000Z</time>
      </trkpt>
      <trkpt lat="52.08813722245395183563232421875" lon="12.8516873158514499664306640625">
        <ele>71.8000030517578125</ele>
        <time>2018-08-18T14:29:12.000Z</time>
      </trkpt>
      <trkpt lat="52.08847694098949432373046875" lon="12.8524249233305454254150390625">
        <ele>71.40000152587890625</ele>
        <time>2018-08-18T14:29:18.000Z</time>
      </trkpt>
      <trkpt lat="52.088818587362766265869140625" lon="12.853159010410308837890625">
        <ele>71.1999969482421875</ele>
        <time>2018-08-18T14:29:24.000Z</time>
      </trkpt>
      <trkpt lat="52.0889850519597530364990234375" lon="12.8535278141498565673828125">
        <ele>70.8000030517578125</ele>
        <time>2018-08-18T14:29:27.000Z</time>
      </trkpt>
      <trkpt lat="52.089326865971088409423828125" lon="12.854270450770854949951171875">
        <ele>70</ele>
        <time>2018-08-18T14:29:33.000Z</time>
      </trkpt>
      <trkpt lat="52.0895023830235004425048828125" lon="12.8546484746038913726806640625">
        <ele>69.8000030517578125</ele>
        <time>2018-08-18T14:29:36.000Z</time>
      </trkpt>
      <trkpt lat="52.08967898972332477569580078125" lon="12.855036556720733642578125">
        <ele>69.59999847412109375</ele>
        <time>2018-08-18T14:29:39.000Z</time>
      </trkpt>
      <trkpt lat="52.09003337658941745758056640625" lon="12.855801992118358612060546875">
        <ele>69</ele>
        <time>2018-08-18T14:29:45.000Z</time>
      </trkpt>
      <trkpt lat="52.09020738489925861358642578125" lon="12.8561830334365367889404296875">
        <ele>68.8000030517578125</ele>
        <time>2018-08-18T14:29:48.000Z</time>
      </trkpt>
      <trkpt lat="52.090550623834133148193359375" lon="12.8569283522665500640869140625">
        <ele>68.40000152587890625</ele>
        <time>2018-08-18T14:29:54.000Z</time>
      </trkpt>
      <trkpt lat="52.0908914320170879364013671875" lon="12.85767308436334133148193359375">
        <ele>68</ele>
        <time>2018-08-18T14:30:00.000Z</time>
      </trkpt>
      <trkpt lat="52.09111950360238552093505859375" lon="12.8581631742417812347412109375">
        <ele>67.8000030517578125</ele>
        <time>2018-08-18T14:30:04.000Z</time>
      </trkpt>
      <trkpt lat="52.091455198824405670166015625" lon="12.85889692604541778564453125">
        <ele>67.40000152587890625</ele>
        <time>2018-08-18T14:30:10.000Z</time>
      </trkpt>
      <trkpt lat="52.0917893014848232269287109375" lon="12.85961366258561611175537109375">
        <ele>67.1999969482421875</ele>
        <time>2018-08-18T14:30:16.000Z</time>
      </trkpt>
      <trkpt lat="52.0921329595148563385009765625" lon="12.86035093478858470916748046875">
        <ele>67</ele>
        <time>2018-08-18T14:30:23.000Z</time>
      </trkpt>
      <trkpt lat="52.09250587038695812225341796875" lon="12.86116867326200008392333984375">
        <ele>67</ele>
        <time>2018-08-18T14:30:30.000Z</time>
      </trkpt>
      <trkpt lat="52.092678286135196685791015625" lon="12.8615370579063892364501953125">
        <ele>67</ele>
        <time>2018-08-18T14:30:33.000Z</time>
      </trkpt>
      <trkpt lat="52.093006186187267303466796875" lon="12.86225480027496814727783203125">
        <ele>66.40000152587890625</ele>
        <time>2018-08-18T14:30:39.000Z</time>
      </trkpt>
      <trkpt lat="52.093303911387920379638671875" lon="12.86301755346357822418212890625">
        <ele>65.8000030517578125</ele>
        <time>2018-08-18T14:30:46.000Z</time>
      </trkpt>
      <trkpt lat="52.09366810508072376251220703125" lon="12.8636772930622100830078125">
        <ele>65.59999847412109375</ele>
        <time>2018-08-18T14:30:55.000Z</time>
      </trkpt>
      <trkpt lat="52.09399801678955554962158203125" lon="12.86440216004848480224609375">
        <ele>65.59999847412109375</ele>
        <time>2018-08-18T14:31:02.000Z</time>
      </trkpt>
      <trkpt lat="52.09439883939921855926513671875" lon="12.86507698707282543182373046875">
        <ele>65.40000152587890625</ele>
        <time>2018-08-18T14:31:09.000Z</time>
      </trkpt>
      <trkpt lat="52.09478641860187053680419921875" lon="12.8656203858554363250732421875">
        <ele>64.8000030517578125</ele>
        <time>2018-08-18T14:31:15.000Z</time>
      </trkpt>
      <trkpt lat="52.095214314758777618408203125" lon="12.86621826700866222381591796875">
        <ele>64.59999847412109375</ele>
        <time>2018-08-18T14:31:22.000Z</time>
      </trkpt>
      <trkpt lat="52.0955913327634334564208984375" lon="12.866755463182926177978515625">
        <ele>64.40000152587890625</ele>
        <time>2018-08-18T14:31:28.000Z</time>
      </trkpt>
      <trkpt lat="52.09580565802752971649169921875" lon="12.86718956194818019866943359375">
        <ele>64.1999969482421875</ele>
        <time>2018-08-18T14:31:32.000Z</time>
      </trkpt>
      <trkpt lat="52.0961234159767627716064453125" lon="12.867984585464000701904296875">
        <ele>64.1999969482421875</ele>
        <time>2018-08-18T14:31:39.000Z</time>
      </trkpt>
      <trkpt lat="52.09639373235404491424560546875" lon="12.8688531182706356048583984375">
        <ele>64.1999969482421875</ele>
        <time>2018-08-18T14:31:46.000Z</time>
      </trkpt>
      <trkpt lat="52.0966856740415096282958984375" lon="12.86969021894037723541259765625">
        <ele>64.1999969482421875</ele>
        <time>2018-08-18T14:31:53.000Z</time>
      </trkpt>
      <trkpt lat="52.09704986773431301116943359375" lon="12.87043905816972255706787109375">
        <ele>64.1999969482421875</ele>
        <time>2018-08-18T14:32:00.000Z</time>
      </trkpt>
      <trkpt lat="52.09743292070925235748291015625" lon="12.87114565260708332061767578125">
        <ele>64.1999969482421875</ele>
        <time>2018-08-18T14:32:07.000Z</time>
      </trkpt>
      <trkpt lat="52.09780968725681304931640625" lon="12.87186783738434314727783203125">
        <ele>64.1999969482421875</ele>
        <time>2018-08-18T14:32:14.000Z</time>
      </trkpt>
      <trkpt lat="52.09816784597933292388916015625" lon="12.8726360388100147247314453125">
        <ele>64.1999969482421875</ele>
        <time>2018-08-18T14:32:21.000Z</time>
      </trkpt>
      <trkpt lat="52.098511420190334320068359375" lon="12.873393595218658447265625">
        <ele>64.1999969482421875</ele>
        <time>2018-08-18T14:32:28.000Z</time>
      </trkpt>
      <trkpt lat="52.0988510549068450927734375" lon="12.874139249324798583984375">
        <ele>64</ele>
        <time>2018-08-18T14:32:35.000Z</time>
      </trkpt>
      <trkpt lat="52.09890075959265232086181640625" lon="12.8742473758757114410400390625">
        <ele>64</ele>
        <time>2018-08-18T14:32:36.000Z</time>
      </trkpt>
      <trkpt lat="52.09924240596592426300048828125" lon="12.87500149570405483245849609375">
        <ele>64</ele>
        <time>2018-08-18T14:32:43.000Z</time>
      </trkpt>
      <trkpt lat="52.09951045922935009002685546875" lon="12.87576843984425067901611328125">
        <ele>64.1999969482421875</ele>
        <time>2018-08-18T14:32:54.000Z</time>
      </trkpt>
      <trkpt lat="52.09951213560998439788818359375" lon="12.87577866576611995697021484375">
        <ele>64.1999969482421875</ele>
        <time>2018-08-18T14:32:56.000Z</time>
      </trkpt>
      <trkpt lat="52.09951817058026790618896484375" lon="12.87581219337880611419677734375">
        <ele>64.1999969482421875</ele>
        <time>2018-08-18T14:33:47.000Z</time>
      </trkpt>
      <trkpt lat="52.0996096171438694000244140625" lon="12.87610329687595367431640625">
        <ele>64.1999969482421875</ele>
        <time>2018-08-18T14:33:53.000Z</time>
      </trkpt>
      <trkpt lat="52.0998674444854259490966796875" lon="12.87694819271564483642578125">
        <ele>64.59999847412109375</ele>
        <time>2018-08-18T14:34:03.000Z</time>
      </trkpt>
      <trkpt lat="52.1000813506543636322021484375" lon="12.87786290980875492095947265625">
        <ele>64.59999847412109375</ele>
        <time>2018-08-18T14:34:11.000Z</time>
      </trkpt>
      <trkpt lat="52.100330293178558349609375" lon="12.8787601925432682037353515625">
        <ele>63.799999237060546875</ele>
        <time>2018-08-18T14:34:19.000Z</time>
      </trkpt>
      <trkpt lat="52.10038016550242900848388671875" lon="12.87898524664342403411865234375">
        <ele>63.59999847412109375</ele>
        <time>2018-08-18T14:34:21.000Z</time>
      </trkpt>
      <trkpt lat="52.1003973484039306640625" lon="12.87910326384007930755615234375">
        <ele>63.40000152587890625</ele>
        <time>2018-08-18T14:34:22.000Z</time>
      </trkpt>
      <trkpt lat="52.1004189737141132354736328125" lon="12.879219017922878265380859375">
        <ele>63.40000152587890625</ele>
        <time>2018-08-18T14:34:23.000Z</time>
      </trkpt>
      <trkpt lat="52.10057638585567474365234375" lon="12.87963652051985263824462890625">
        <ele>62.799999237060546875</ele>
        <time>2018-08-18T14:34:27.000Z</time>
      </trkpt>
      <trkpt lat="52.1010177768766880035400390625" lon="12.88031461648643016815185546875">
        <ele>62.799999237060546875</ele>
        <time>2018-08-18T14:34:35.000Z</time>
      </trkpt>
      <trkpt lat="52.1015243791043758392333984375" lon="12.8806742839515209197998046875">
        <ele>62.59999847412109375</ele>
        <time>2018-08-18T14:34:45.000Z</time>
      </trkpt>
      <trkpt lat="52.1015361137688159942626953125" lon="12.8806771337985992431640625">
        <ele>62.40000152587890625</ele>
        <time>2018-08-18T14:34:48.000Z</time>
      </trkpt>
      <trkpt lat="52.101551704108715057373046875" lon="12.8806779719889163970947265625">
        <ele>62.59999847412109375</ele>
        <time>2018-08-18T14:35:26.000Z</time>
      </trkpt>
      <trkpt lat="52.10170098580420017242431640625" lon="12.88069046102464199066162109375">
        <ele>62.59999847412109375</ele>
        <time>2018-08-18T14:35:31.000Z</time>
      </trkpt>
      <trkpt lat="52.10220959968864917755126953125" lon="12.8806162811815738677978515625">
        <ele>62.59999847412109375</ele>
        <time>2018-08-18T14:35:39.000Z</time>
      </trkpt>
      <trkpt lat="52.1027417667210102081298828125" lon="12.8805428557097911834716796875">
        <ele>62.40000152587890625</ele>
        <time>2018-08-18T14:35:46.000Z</time>
      </trkpt>
      <trkpt lat="52.10310411639511585235595703125" lon="12.8806431032717227935791015625">
        <ele>62.200000762939453125</ele>
        <time>2018-08-18T14:35:51.000Z</time>
      </trkpt>
      <trkpt lat="52.1037164144217967987060546875" lon="12.88075097836554050445556640625">
        <ele>62</ele>
        <time>2018-08-18T14:35:59.000Z</time>
      </trkpt>
      <trkpt lat="52.1042629145085811614990234375" lon="12.8809227235615253448486328125">
        <ele>61.59999847412109375</ele>
        <time>2018-08-18T14:36:06.000Z</time>
      </trkpt>
      <trkpt lat="52.10449098609387874603271484375" lon="12.88103378377854824066162109375">
        <ele>61.59999847412109375</ele>
        <time>2018-08-18T14:36:09.000Z</time>
      </trkpt>
      <trkpt lat="52.10500664077699184417724609375" lon="12.88145522587001323699951171875">
        <ele>61.40000152587890625</ele>
        <time>2018-08-18T14:36:16.000Z</time>
      </trkpt>
      <trkpt lat="52.10552162490785121917724609375" lon="12.88190298713743686676025390625">
        <ele>61.40000152587890625</ele>
        <time>2018-08-18T14:36:23.000Z</time>
      </trkpt>
      <trkpt lat="52.106028981506824493408203125" lon="12.882382683455944061279296875">
        <ele>61.200000762939453125</ele>
        <time>2018-08-18T14:36:30.000Z</time>
      </trkpt>
      <trkpt lat="52.10652762092649936676025390625" lon="12.88287176750600337982177734375">
        <ele>61.200000762939453125</ele>
        <time>2018-08-18T14:36:37.000Z</time>
      </trkpt>
      <trkpt lat="52.1070286072790622711181640625" lon="12.8833481110632419586181640625">
        <ele>61</ele>
        <time>2018-08-18T14:36:44.000Z</time>
      </trkpt>
      <trkpt lat="52.107539065182209014892578125" lon="12.8838233649730682373046875">
        <ele>60.799999237060546875</ele>
        <time>2018-08-18T14:36:51.000Z</time>
      </trkpt>
      <trkpt lat="52.10798305459320545196533203125" lon="12.884245477616786956787109375">
        <ele>60.799999237060546875</ele>
        <time>2018-08-18T14:36:57.000Z</time>
      </trkpt>
      <trkpt lat="52.108484208583831787109375" lon="12.88473330438137054443359375">
        <ele>60.59999847412109375</ele>
        <time>2018-08-18T14:37:04.000Z</time>
      </trkpt>
      <trkpt lat="52.10897379554808139801025390625" lon="12.88520311005413532257080078125">
        <ele>60.40000152587890625</ele>
        <time>2018-08-18T14:37:11.000Z</time>
      </trkpt>
      <trkpt lat="52.10948660038411617279052734375" lon="12.88570166565477848052978515625">
        <ele>60.200000762939453125</ele>
        <time>2018-08-18T14:37:18.000Z</time>
      </trkpt>
      <trkpt lat="52.10990971885621547698974609375" lon="12.88609963841736316680908203125">
        <ele>59.59999847412109375</ele>
        <time>2018-08-18T14:37:24.000Z</time>
      </trkpt>
      <trkpt lat="52.10996923036873340606689453125" lon="12.88615143857896327972412109375">
        <ele>59.59999847412109375</ele>
        <time>2018-08-18T14:37:25.000Z</time>
      </trkpt>
      <trkpt lat="52.1104940213263034820556640625" lon="12.88655879907310009002685546875">
        <ele>59</ele>
        <time>2018-08-18T14:37:36.000Z</time>
      </trkpt>
      <trkpt lat="52.11100121028721332550048828125" lon="12.88705584593117237091064453125">
        <ele>59</ele>
        <time>2018-08-18T14:37:44.000Z</time>
      </trkpt>
      <trkpt lat="52.111481912434101104736328125" lon="12.8875041939318180084228515625">
        <ele>59</ele>
        <time>2018-08-18T14:37:51.000Z</time>
      </trkpt>
      <trkpt lat="52.1119806356728076934814453125" lon="12.8879668749868869781494140625">
        <ele>59</ele>
        <time>2018-08-18T14:37:58.000Z</time>
      </trkpt>
      <trkpt lat="52.11241565644741058349609375" lon="12.88838437758386135101318359375">
        <ele>58.799999237060546875</ele>
        <time>2018-08-18T14:38:04.000Z</time>
      </trkpt>
      <trkpt lat="52.112930305302143096923828125" lon="12.88882425986230373382568359375">
        <ele>58.59999847412109375</ele>
        <time>2018-08-18T14:38:11.000Z</time>
      </trkpt>
      <trkpt lat="52.11315468885004520416259765625" lon="12.88892199285328388214111328125">
        <ele>58.59999847412109375</ele>
        <time>2018-08-18T14:38:14.000Z</time>
      </trkpt>
      <trkpt lat="52.1136479638516902923583984375" lon="12.889373190701007843017578125">
        <ele>58.59999847412109375</ele>
        <time>2018-08-18T14:38:21.000Z</time>
      </trkpt>
      <trkpt lat="52.11414727382361888885498046875" lon="12.88983696140348911285400390625">
        <ele>58</ele>
        <time>2018-08-18T14:38:28.000Z</time>
      </trkpt>
      <trkpt lat="52.1144338510930538177490234375" lon="12.89011842571198940277099609375">
        <ele>57.799999237060546875</ele>
        <time>2018-08-18T14:38:32.000Z</time>
      </trkpt>
      <trkpt lat="52.11493316106498241424560546875" lon="12.89060256443917751312255859375">
        <ele>57</ele>
        <time>2018-08-18T14:38:39.000Z</time>
      </trkpt>
      <trkpt lat="52.11544445715844631195068359375" lon="12.89108837954699993133544921875">
        <ele>57</ele>
        <time>2018-08-18T14:38:46.000Z</time>
      </trkpt>
      <trkpt lat="52.11595206521451473236083984375" lon="12.89156489074230194091796875">
        <ele>56.799999237060546875</ele>
        <time>2018-08-18T14:38:53.000Z</time>
      </trkpt>
      <trkpt lat="52.1164605952799320220947265625" lon="12.89204894565045833587646484375">
        <ele>56.799999237060546875</ele>
        <time>2018-08-18T14:39:00.000Z</time>
      </trkpt>
      <trkpt lat="52.1167442388832569122314453125" lon="12.89227894507348537445068359375">
        <ele>56.59999847412109375</ele>
        <time>2018-08-18T14:39:04.000Z</time>
      </trkpt>
      <trkpt lat="52.117244303226470947265625" lon="12.89273659698665142059326171875">
        <ele>56.200000762939453125</ele>
        <time>2018-08-18T14:39:11.000Z</time>
      </trkpt>
      <trkpt lat="52.11767680943012237548828125" lon="12.8931586258113384246826171875">
        <ele>56</ele>
        <time>2018-08-18T14:39:17.000Z</time>
      </trkpt>
      <trkpt lat="52.1180494688451290130615234375" lon="12.89350002072751522064208984375">
        <ele>55.799999237060546875</ele>
        <time>2018-08-18T14:39:22.000Z</time>
      </trkpt>
      <trkpt lat="52.11856688372790813446044921875" lon="12.89398156106472015380859375">
        <ele>55.40000152587890625</ele>
        <time>2018-08-18T14:39:29.000Z</time>
      </trkpt>
      <trkpt lat="52.11908387951552867889404296875" lon="12.8945171646773815155029296875">
        <ele>55</ele>
        <time>2018-08-18T14:39:36.000Z</time>
      </trkpt>
      <trkpt lat="52.11960791610181331634521484375" lon="12.895005159080028533935546875">
        <ele>54.799999237060546875</ele>
        <time>2018-08-18T14:39:43.000Z</time>
      </trkpt>
      <trkpt lat="52.12013882584869861602783203125" lon="12.8955122642219066619873046875">
        <ele>54.799999237060546875</ele>
        <time>2018-08-18T14:39:50.000Z</time>
      </trkpt>
      <trkpt lat="52.12066554464399814605712890625" lon="12.89601895026862621307373046875">
        <ele>54.799999237060546875</ele>
        <time>2018-08-18T14:39:57.000Z</time>
      </trkpt>
      <trkpt lat="52.12081524543464183807373046875" lon="12.89615808986127376556396484375">
        <ele>54.799999237060546875</ele>
        <time>2018-08-18T14:39:59.000Z</time>
      </trkpt>
      <trkpt lat="52.121354453265666961669921875" lon="12.89666779339313507080078125">
        <ele>54.59999847412109375</ele>
        <time>2018-08-18T14:40:06.000Z</time>
      </trkpt>
      <trkpt lat="52.1218900568783283233642578125" lon="12.89718235842883586883544921875">
        <ele>54.40000152587890625</ele>
        <time>2018-08-18T14:40:13.000Z</time>
      </trkpt>
      <trkpt lat="52.1224184520542621612548828125" lon="12.8976868651807308197021484375">
        <ele>54.200000762939453125</ele>
        <time>2018-08-18T14:40:20.000Z</time>
      </trkpt>
      <trkpt lat="52.12294123135507106781005859375" lon="12.89820201694965362548828125">
        <ele>54.40000152587890625</ele>
        <time>2018-08-18T14:40:27.000Z</time>
      </trkpt>
      <trkpt lat="52.123459987342357635498046875" lon="12.89869629777967929840087890625">
        <ele>54.200000762939453125</ele>
        <time>2018-08-18T14:40:34.000Z</time>
      </trkpt>
      <trkpt lat="52.12391084991395473480224609375" lon="12.89912863634526729583740234375">
        <ele>53.799999237060546875</ele>
        <time>2018-08-18T14:40:40.000Z</time>
      </trkpt>
      <trkpt lat="52.12444159202277660369873046875" lon="12.8996274434030055999755859375">
        <ele>53.59999847412109375</ele>
        <time>2018-08-18T14:40:47.000Z</time>
      </trkpt>
      <trkpt lat="52.12497417815029621124267578125" lon="12.9001337103545665740966796875">
        <ele>53.40000152587890625</ele>
        <time>2018-08-18T14:40:54.000Z</time>
      </trkpt>
      <trkpt lat="52.12549871765077114105224609375" lon="12.90062564425170421600341796875">
        <ele>53.40000152587890625</ele>
        <time>2018-08-18T14:41:01.000Z</time>
      </trkpt>
      <trkpt lat="52.125834412872791290283203125" lon="12.9009457491338253021240234375">
        <ele>53.59999847412109375</ele>
        <time>2018-08-18T14:41:06.000Z</time>
      </trkpt>
      <trkpt lat="52.1260940842330455780029296875" lon="12.90088783018290996551513671875">
        <ele>53.59999847412109375</ele>
        <time>2018-08-18T14:41:10.000Z</time>
      </trkpt>
      <trkpt lat="52.12632936425507068634033203125" lon="12.90119812823832035064697265625">
        <ele>53.799999237060546875</ele>
        <time>2018-08-18T14:41:15.000Z</time>
      </trkpt>
      <trkpt lat="52.126610912382602691650390625" lon="12.9016632400453090667724609375">
        <ele>53.799999237060546875</ele>
        <time>2018-08-18T14:41:20.000Z</time>
      </trkpt>
      <trkpt lat="52.12711608968675136566162109375" lon="12.9021500609815120697021484375">
        <ele>53.59999847412109375</ele>
        <time>2018-08-18T14:41:27.000Z</time>
      </trkpt>
      <trkpt lat="52.127616740763187408447265625" lon="12.902628667652606964111328125">
        <ele>53.59999847412109375</ele>
        <time>2018-08-18T14:41:34.000Z</time>
      </trkpt>
      <trkpt lat="52.1280537731945514678955078125" lon="12.9030281491577625274658203125">
        <ele>53.40000152587890625</ele>
        <time>2018-08-18T14:41:40.000Z</time>
      </trkpt>
      <trkpt lat="52.12851963937282562255859375" lon="12.903267703950405120849609375">
        <ele>53.40000152587890625</ele>
        <time>2018-08-18T14:41:46.000Z</time>
      </trkpt>
      <trkpt lat="52.128650061786174774169921875" lon="12.90357724763453006744384765625">
        <ele>53.40000152587890625</ele>
        <time>2018-08-18T14:41:49.000Z</time>
      </trkpt>
      <trkpt lat="52.129123471677303314208984375" lon="12.904063649475574493408203125">
        <ele>53.40000152587890625</ele>
        <time>2018-08-18T14:41:56.000Z</time>
      </trkpt>
      <trkpt lat="52.12965144775807857513427734375" lon="12.9045452736318111419677734375">
        <ele>53.59999847412109375</ele>
        <time>2018-08-18T14:42:03.000Z</time>
      </trkpt>
      <trkpt lat="52.1301767416298389434814453125" lon="12.90504827164113521575927734375">
        <ele>53.200000762939453125</ele>
        <time>2018-08-18T14:42:10.000Z</time>
      </trkpt>
      <trkpt lat="52.13032736442983150482177734375" lon="12.9051913507282733917236328125">
        <ele>53</ele>
        <time>2018-08-18T14:42:12.000Z</time>
      </trkpt>
      <trkpt lat="52.13085475377738475799560546875" lon="12.90569610893726348876953125">
        <ele>53</ele>
        <time>2018-08-18T14:42:19.000Z</time>
      </trkpt>
      <trkpt lat="52.13138021528720855712890625" lon="12.90619676001369953155517578125">
        <ele>53</ele>
        <time>2018-08-18T14:42:26.000Z</time>
      </trkpt>
      <trkpt lat="52.13190634734928607940673828125" lon="12.9067021049559116363525390625">
        <ele>52.799999237060546875</ele>
        <time>2018-08-18T14:42:33.000Z</time>
      </trkpt>
      <trkpt lat="52.13244413025677204132080078125" lon="12.90722169913351535797119140625">
        <ele>52.799999237060546875</ele>
        <time>2018-08-18T14:42:40.000Z</time>
      </trkpt>
      <trkpt lat="52.13291309773921966552734375" lon="12.90766627527773380279541015625">
        <ele>52.799999237060546875</ele>
        <time>2018-08-18T14:42:46.000Z</time>
      </trkpt>
      <trkpt lat="52.1333863399922847747802734375" lon="12.90811604820191860198974609375">
        <ele>52.799999237060546875</ele>
        <time>2018-08-18T14:42:52.000Z</time>
      </trkpt>
      <trkpt lat="52.13386637158691883087158203125" lon="12.90857671760022640228271484375">
        <ele>52.59999847412109375</ele>
        <time>2018-08-18T14:42:58.000Z</time>
      </trkpt>
      <trkpt lat="52.1343438886106014251708984375" lon="12.9090299271047115325927734375">
        <ele>52.40000152587890625</ele>
        <time>2018-08-18T14:43:04.000Z</time>
      </trkpt>
      <trkpt lat="52.13488108478486537933349609375" lon="12.90953778661787509918212890625">
        <ele>52.40000152587890625</ele>
        <time>2018-08-18T14:43:11.000Z</time>
      </trkpt>
      <trkpt lat="52.13540880940854549407958984375" lon="12.9100210033357143402099609375">
        <ele>52.40000152587890625</ele>
        <time>2018-08-18T14:43:18.000Z</time>
      </trkpt>
      <trkpt lat="52.13554526679217815399169921875" lon="12.91016341187059879302978515625">
        <ele>52.59999847412109375</ele>
        <time>2018-08-18T14:43:20.000Z</time>
      </trkpt>
      <trkpt lat="52.13604683987796306610107421875" lon="12.9107140190899372100830078125">
        <ele>52.799999237060546875</ele>
        <time>2018-08-18T14:43:28.000Z</time>
      </trkpt>
      <trkpt lat="52.13650717400014400482177734375" lon="12.91117242537438869476318359375">
        <ele>53.40000152587890625</ele>
        <time>2018-08-18T14:43:35.000Z</time>
      </trkpt>
      <trkpt lat="52.137028612196445465087890625" lon="12.9116789437830448150634765625">
        <ele>53.59999847412109375</ele>
        <time>2018-08-18T14:43:43.000Z</time>
      </trkpt>
      <trkpt lat="52.13750814087688922882080078125" lon="12.91213885881006717681884765625">
        <ele>53.59999847412109375</ele>
        <time>2018-08-18T14:43:50.000Z</time>
      </trkpt>
      <trkpt lat="52.13799588382244110107421875" lon="12.91261528618633747100830078125">
        <ele>53.59999847412109375</ele>
        <time>2018-08-18T14:43:57.000Z</time>
      </trkpt>
      <trkpt lat="52.1384922601282596588134765625" lon="12.9130954854190349578857421875">
        <ele>53.59999847412109375</ele>
        <time>2018-08-18T14:44:04.000Z</time>
      </trkpt>
      <trkpt lat="52.1390095911920070648193359375" lon="12.91359253227710723876953125">
        <ele>53.40000152587890625</ele>
        <time>2018-08-18T14:44:11.000Z</time>
      </trkpt>
      <trkpt lat="52.1395294368267059326171875" lon="12.91408245451748371124267578125">
        <ele>53.200000762939453125</ele>
        <time>2018-08-18T14:44:18.000Z</time>
      </trkpt>
      <trkpt lat="52.14005690999329090118408203125" lon="12.91457179002463817596435546875">
        <ele>53</ele>
        <time>2018-08-18T14:44:25.000Z</time>
      </trkpt>
      <trkpt lat="52.14058128185570240020751953125" lon="12.91507353074848651885986328125">
        <ele>52.59999847412109375</ele>
        <time>2018-08-18T14:44:32.000Z</time>
      </trkpt>
      <trkpt lat="52.14109576307237148284912109375" lon="12.91556538082659244537353515625">
        <ele>52.59999847412109375</ele>
        <time>2018-08-18T14:44:39.000Z</time>
      </trkpt>
      <trkpt lat="52.14159130118787288665771484375" lon="12.9160439036786556243896484375">
        <ele>52.799999237060546875</ele>
        <time>2018-08-18T14:44:46.000Z</time>
      </trkpt>
      <trkpt lat="52.1420887671411037445068359375" lon="12.91652695275843143463134765625">
        <ele>52.799999237060546875</ele>
        <time>2018-08-18T14:44:53.000Z</time>
      </trkpt>
      <trkpt lat="52.142602913081645965576171875" lon="12.91701972484588623046875">
        <ele>53.200000762939453125</ele>
        <time>2018-08-18T14:45:00.000Z</time>
      </trkpt>
      <trkpt lat="52.14312971569597721099853515625" lon="12.91751861572265625">
        <ele>53.59999847412109375</ele>
        <time>2018-08-18T14:45:07.000Z</time>
      </trkpt>
      <trkpt lat="52.143655009567737579345703125" lon="12.91801138781011104583740234375">
        <ele>53.799999237060546875</ele>
        <time>2018-08-18T14:45:14.000Z</time>
      </trkpt>
      <trkpt lat="52.1441772021353244781494140625" lon="12.91851597838103771209716796875">
        <ele>53.59999847412109375</ele>
        <time>2018-08-18T14:45:21.000Z</time>
      </trkpt>
      <trkpt lat="52.14471003971993923187255859375" lon="12.91900732554495334625244140625">
        <ele>53.40000152587890625</ele>
        <time>2018-08-18T14:45:28.000Z</time>
      </trkpt>
      <trkpt lat="52.1452344954013824462890625" lon="12.9195016063749790191650390625">
        <ele>52.59999847412109375</ele>
        <time>2018-08-18T14:45:35.000Z</time>
      </trkpt>
      <trkpt lat="52.14573497883975505828857421875" lon="12.919969819486141204833984375">
        <ele>52.40000152587890625</ele>
        <time>2018-08-18T14:45:42.000Z</time>
      </trkpt>
      <trkpt lat="52.14622666127979755401611328125" lon="12.9204537905752658843994140625">
        <ele>52.200000762939453125</ele>
        <time>2018-08-18T14:45:49.000Z</time>
      </trkpt>
      <trkpt lat="52.14673049747943878173828125" lon="12.92093315161764621734619140625">
        <ele>52.200000762939453125</ele>
        <time>2018-08-18T14:45:56.000Z</time>
      </trkpt>
      <trkpt lat="52.14694649912416934967041015625" lon="12.92114160954952239990234375">
        <ele>52</ele>
        <time>2018-08-18T14:45:59.000Z</time>
      </trkpt>
      <trkpt lat="52.14725143276154994964599609375" lon="12.9214173741638660430908203125">
        <ele>51.59999847412109375</ele>
        <time>2018-08-18T14:46:03.000Z</time>
      </trkpt>
      <trkpt lat="52.1475587971508502960205078125" lon="12.92166036553680896759033203125">
        <ele>51.40000152587890625</ele>
        <time>2018-08-18T14:46:07.000Z</time>
      </trkpt>
      <trkpt lat="52.148082666099071502685546875" lon="12.922145761549472808837890625">
        <ele>51.200000762939453125</ele>
        <time>2018-08-18T14:46:14.000Z</time>
      </trkpt>
      <trkpt lat="52.14837427251040935516357421875" lon="12.92242546565830707550048828125">
        <ele>51</ele>
        <time>2018-08-18T14:46:18.000Z</time>
      </trkpt>
      <trkpt lat="52.1488952077925205230712890625" lon="12.9229197464883327484130859375">
        <ele>50.59999847412109375</ele>
        <time>2018-08-18T14:46:25.000Z</time>
      </trkpt>
      <trkpt lat="52.149422429502010345458984375" lon="12.92341805063188076019287109375">
        <ele>50.59999847412109375</ele>
        <time>2018-08-18T14:46:32.000Z</time>
      </trkpt>
      <trkpt lat="52.14994872920215129852294921875" lon="12.92391962371766567230224609375">
        <ele>50.40000152587890625</ele>
        <time>2018-08-18T14:46:39.000Z</time>
      </trkpt>
      <trkpt lat="52.150471173226833343505859375" lon="12.924449443817138671875">
        <ele>50.40000152587890625</ele>
        <time>2018-08-18T14:46:46.000Z</time>
      </trkpt>
      <trkpt lat="52.150992192327976226806640625" lon="12.92495110072195529937744140625">
        <ele>50.59999847412109375</ele>
        <time>2018-08-18T14:46:53.000Z</time>
      </trkpt>
      <trkpt lat="52.151513881981372833251953125" lon="12.92542937211692333221435546875">
        <ele>50.799999237060546875</ele>
        <time>2018-08-18T14:47:00.000Z</time>
      </trkpt>
      <trkpt lat="52.1520821750164031982421875" lon="12.92586355470120906829833984375">
        <ele>50.59999847412109375</ele>
        <time>2018-08-18T14:47:07.000Z</time>
      </trkpt>
      <trkpt lat="52.152588777244091033935546875" lon="12.92618541978299617767333984375">
        <ele>50.40000152587890625</ele>
        <time>2018-08-18T14:47:13.000Z</time>
      </trkpt>
      <trkpt lat="52.15311742387712001800537109375" lon="12.9263804666697978973388671875">
        <ele>50.200000762939453125</ele>
        <time>2018-08-18T14:47:19.000Z</time>
      </trkpt>
      <trkpt lat="52.15373885817825794219970703125" lon="12.9264947958290576934814453125">
        <ele>50</ele>
        <time>2018-08-18T14:47:26.000Z</time>
      </trkpt>
      <trkpt lat="52.15391202829778194427490234375" lon="12.92650057934224605560302734375">
        <ele>50</ele>
        <time>2018-08-18T14:47:28.000Z</time>
      </trkpt>
      <trkpt lat="52.15450982563197612762451171875" lon="12.9265206120908260345458984375">
        <ele>49.59999847412109375</ele>
        <time>2018-08-18T14:47:35.000Z</time>
      </trkpt>
      <trkpt lat="52.1551095508038997650146484375" lon="12.926539890468120574951171875">
        <ele>49.200000762939453125</ele>
        <time>2018-08-18T14:47:42.000Z</time>
      </trkpt>
      <trkpt lat="52.1556858904659748077392578125" lon="12.926551289856433868408203125">
        <ele>49.200000762939453125</ele>
        <time>2018-08-18T14:47:49.000Z</time>
      </trkpt>
      <trkpt lat="52.15594388544559478759765625" lon="12.92657366953790187835693359375">
        <ele>49.200000762939453125</ele>
        <time>2018-08-18T14:47:53.000Z</time>
      </trkpt>
      <trkpt lat="52.155973054468631744384765625" lon="12.9267593286931514739990234375">
        <ele>49.200000762939453125</ele>
        <time>2018-08-18T14:47:57.000Z</time>
      </trkpt>
      <trkpt lat="52.15598009526729583740234375" lon="12.92681238614022731781005859375">
        <ele>49.40000152587890625</ele>
        <time>2018-08-18T14:47:58.000Z</time>
      </trkpt>
      <trkpt lat="52.15614681132137775421142578125" lon="12.9268220253288745880126953125">
        <ele>49.59999847412109375</ele>
        <time>2018-08-18T14:48:03.000Z</time>
      </trkpt>
      <trkpt lat="52.15619266033172607421875" lon="12.92680383659899234771728515625">
        <ele>49.59999847412109375</ele>
        <time>2018-08-18T14:48:04.000Z</time>
      </trkpt>
      <trkpt lat="52.15664301998913288116455078125" lon="12.92669118382036685943603515625">
        <ele>49.799999237060546875</ele>
        <time>2018-08-18T14:48:12.000Z</time>
      </trkpt>
      <trkpt lat="52.15681317262351512908935546875" lon="12.926567383110523223876953125">
        <ele>49.799999237060546875</ele>
        <time>2018-08-18T14:48:15.000Z</time>
      </trkpt>
      <trkpt lat="52.15734659694135189056396484375" lon="12.92624174617230892181396484375">
        <ele>50</ele>
        <time>2018-08-18T14:48:23.000Z</time>
      </trkpt>
      <trkpt lat="52.157840542495250701904296875" lon="12.92588920332491397857666015625">
        <ele>50</ele>
        <time>2018-08-18T14:48:30.000Z</time>
      </trkpt>
      <trkpt lat="52.1583503298461437225341796875" lon="12.9255255125463008880615234375">
        <ele>49.40000152587890625</ele>
        <time>2018-08-18T14:48:37.000Z</time>
      </trkpt>
      <trkpt lat="52.15857169590890407562255859375" lon="12.92537271045148372650146484375">
        <ele>49.40000152587890625</ele>
        <time>2018-08-18T14:48:40.000Z</time>
      </trkpt>
      <trkpt lat="52.1591020189225673675537109375" lon="12.92503491975367069244384765625">
        <ele>49</ele>
        <time>2018-08-18T14:48:47.000Z</time>
      </trkpt>
      <trkpt lat="52.159623540937900543212890625" lon="12.92479050345718860626220703125">
        <ele>49</ele>
        <time>2018-08-18T14:48:54.000Z</time>
      </trkpt>
      <trkpt lat="52.159768380224704742431640625" lon="12.92473032139241695404052734375">
        <ele>49</ele>
        <time>2018-08-18T14:48:56.000Z</time>
      </trkpt>
      <trkpt lat="52.16036844067275524139404296875" lon="12.9247270524501800537109375">
        <ele>49</ele>
        <time>2018-08-18T14:49:04.000Z</time>
      </trkpt>
      <trkpt lat="52.16090018860995769500732421875" lon="12.92489494197070598602294921875">
        <ele>49</ele>
        <time>2018-08-18T14:49:11.000Z</time>
      </trkpt>
      <trkpt lat="52.1614362113177776336669921875" lon="12.92506643570959568023681640625">
        <ele>49</ele>
        <time>2018-08-18T14:49:18.000Z</time>
      </trkpt>
      <trkpt lat="52.161973826587200164794921875" lon="12.92523239739239215850830078125">
        <ele>49.200000762939453125</ele>
        <time>2018-08-18T14:49:25.000Z</time>
      </trkpt>
      <trkpt lat="52.1625258587300777435302734375" lon="12.9254061542451381683349609375">
        <ele>49</ele>
        <time>2018-08-18T14:49:32.000Z</time>
      </trkpt>
      <trkpt lat="52.1630840934813022613525390625" lon="12.9255794920027256011962890625">
        <ele>49</ele>
        <time>2018-08-18T14:49:39.000Z</time>
      </trkpt>
      <trkpt lat="52.16362774372100830078125" lon="12.92575324885547161102294921875">
        <ele>49</ele>
        <time>2018-08-18T14:49:46.000Z</time>
      </trkpt>
      <trkpt lat="52.16398757882416248321533203125" lon="12.92589590884745121002197265625">
        <ele>49.200000762939453125</ele>
        <time>2018-08-18T14:49:51.000Z</time>
      </trkpt>
      <trkpt lat="52.164233587682247161865234375" lon="12.92607226409018039703369140625">
        <ele>49.200000762939453125</ele>
        <time>2018-08-18T14:49:57.000Z</time>
      </trkpt>
      <trkpt lat="52.16483431868255138397216796875" lon="12.9262872599065303802490234375">
        <ele>48.799999237060546875</ele>
        <time>2018-08-18T14:50:06.000Z</time>
      </trkpt>
      <trkpt lat="52.165429182350635528564453125" lon="12.92651466093957424163818359375">
        <ele>49</ele>
        <time>2018-08-18T14:50:13.000Z</time>
      </trkpt>
      <trkpt lat="52.16603678651154041290283203125" lon="12.92674398981034755706787109375">
        <ele>49.200000762939453125</ele>
        <time>2018-08-18T14:50:20.000Z</time>
      </trkpt>
      <trkpt lat="52.1666289679706096649169921875" lon="12.92697004973888397216796875">
        <ele>49.200000762939453125</ele>
        <time>2018-08-18T14:50:27.000Z</time>
      </trkpt>
      <trkpt lat="52.167235314846038818359375" lon="12.92720415629446506500244140625">
        <ele>49.200000762939453125</ele>
        <time>2018-08-18T14:50:34.000Z</time>
      </trkpt>
      <trkpt lat="52.167764715850353240966796875" lon="12.9274090938270092010498046875">
        <ele>49</ele>
        <time>2018-08-18T14:50:40.000Z</time>
      </trkpt>
      <trkpt lat="52.16835186816751956939697265625" lon="12.92763381265103816986083984375">
        <ele>48.799999237060546875</ele>
        <time>2018-08-18T14:50:47.000Z</time>
      </trkpt>
      <trkpt lat="52.16890507377684116363525390625" lon="12.92784604243934154510498046875">
        <ele>48.799999237060546875</ele>
        <time>2018-08-18T14:50:54.000Z</time>
      </trkpt>
      <trkpt lat="52.16946423053741455078125" lon="12.9280628822743892669677734375">
        <ele>49.200000762939453125</ele>
        <time>2018-08-18T14:51:01.000Z</time>
      </trkpt>
      <trkpt lat="52.170039229094982147216796875" lon="12.928280644118785858154296875">
        <ele>49</ele>
        <time>2018-08-18T14:51:08.000Z</time>
      </trkpt>
      <trkpt lat="52.1706060133874416351318359375" lon="12.92849496938288211822509765625">
        <ele>48.799999237060546875</ele>
        <time>2018-08-18T14:51:15.000Z</time>
      </trkpt>
      <trkpt lat="52.17068790458142757415771484375" lon="12.92851156555116176605224609375">
        <ele>48.799999237060546875</ele>
        <time>2018-08-18T14:51:16.000Z</time>
      </trkpt>
      <trkpt lat="52.17084833420813083648681640625" lon="12.928540818393230438232421875">
        <ele>48.799999237060546875</ele>
        <time>2018-08-18T14:51:18.000Z</time>
      </trkpt>
      <trkpt lat="52.17139986343681812286376953125" lon="12.92879068292677402496337890625">
        <ele>48.799999237060546875</ele>
        <time>2018-08-18T14:51:25.000Z</time>
      </trkpt>
      <trkpt lat="52.17193923890590667724609375" lon="12.92911179363727569580078125">
        <ele>49</ele>
        <time>2018-08-18T14:51:32.000Z</time>
      </trkpt>
      <trkpt lat="52.17245900072157382965087890625" lon="12.9294951818883419036865234375">
        <ele>49</ele>
        <time>2018-08-18T14:51:39.000Z</time>
      </trkpt>
      <trkpt lat="52.17295940034091472625732421875" lon="12.9299385845661163330078125">
        <ele>49.40000152587890625</ele>
        <time>2018-08-18T14:51:46.000Z</time>
      </trkpt>
      <trkpt lat="52.17344488017261028289794921875" lon="12.9304698295891284942626953125">
        <ele>49.59999847412109375</ele>
        <time>2018-08-18T14:51:53.000Z</time>
      </trkpt>
      <trkpt lat="52.1739168651401996612548828125" lon="12.931072823703289031982421875">
        <ele>49.799999237060546875</ele>
        <time>2018-08-18T14:52:00.000Z</time>
      </trkpt>
      <trkpt lat="52.1743567474186420440673828125" lon="12.93172820471227169036865234375">
        <ele>49.200000762939453125</ele>
        <time>2018-08-18T14:52:07.000Z</time>
      </trkpt>
      <trkpt lat="52.17476628720760345458984375" lon="12.93240864761173725128173828125">
        <ele>49</ele>
        <time>2018-08-18T14:52:14.000Z</time>
      </trkpt>
      <trkpt lat="52.17513584531843662261962890625" lon="12.93307702057063579559326171875">
        <ele>49</ele>
        <time>2018-08-18T14:52:21.000Z</time>
      </trkpt>
      <trkpt lat="52.1755372546613216400146484375" lon="12.9338158853352069854736328125">
        <ele>49</ele>
        <time>2018-08-18T14:52:28.000Z</time>
      </trkpt>
      <trkpt lat="52.17591502703726291656494140625" lon="12.9344706796109676361083984375">
        <ele>49</ele>
        <time>2018-08-18T14:52:34.000Z</time>
      </trkpt>
      <trkpt lat="52.17603773809969425201416015625" lon="12.93467746116220951080322265625">
        <ele>48.799999237060546875</ele>
        <time>2018-08-18T14:52:36.000Z</time>
      </trkpt>
      <trkpt lat="52.17645968310534954071044921875" lon="12.93535388074815273284912109375">
        <ele>48.59999847412109375</ele>
        <time>2018-08-18T14:52:43.000Z</time>
      </trkpt>
      <trkpt lat="52.176872156560420989990234375" lon="12.93604756705462932586669921875">
        <ele>48.59999847412109375</ele>
        <time>2018-08-18T14:52:50.000Z</time>
      </trkpt>
      <trkpt lat="52.17729385010898113250732421875" lon="12.93675734661519527435302734375">
        <ele>48.59999847412109375</ele>
        <time>2018-08-18T14:52:57.000Z</time>
      </trkpt>
      <trkpt lat="52.177712358534336090087890625" lon="12.9374640248715877532958984375">
        <ele>48.59999847412109375</ele>
        <time>2018-08-18T14:53:04.000Z</time>
      </trkpt>
      <trkpt lat="52.1781379915773868560791015625" lon="12.93818210251629352569580078125">
        <ele>48.59999847412109375</ele>
        <time>2018-08-18T14:53:11.000Z</time>
      </trkpt>
      <trkpt lat="52.1785530634224414825439453125" lon="12.93889054097235202789306640625">
        <ele>48.40000152587890625</ele>
        <time>2018-08-18T14:53:18.000Z</time>
      </trkpt>
      <trkpt lat="52.17897333204746246337890625" lon="12.9395983926951885223388671875">
        <ele>48.200000762939453125</ele>
        <time>2018-08-18T14:53:25.000Z</time>
      </trkpt>
      <trkpt lat="52.17939150519669055938720703125" lon="12.9403068311512470245361328125">
        <ele>48.40000152587890625</ele>
        <time>2018-08-18T14:53:32.000Z</time>
      </trkpt>
      <trkpt lat="52.17979920096695423126220703125" lon="12.940999008715152740478515625">
        <ele>48.40000152587890625</ele>
        <time>2018-08-18T14:53:39.000Z</time>
      </trkpt>
      <trkpt lat="52.18021578155457973480224609375" lon="12.94170736335217952728271484375">
        <ele>48.40000152587890625</ele>
        <time>2018-08-18T14:53:46.000Z</time>
      </trkpt>
      <trkpt lat="52.18064795248210430145263671875" lon="12.9424445517361164093017578125">
        <ele>48.59999847412109375</ele>
        <time>2018-08-18T14:53:53.000Z</time>
      </trkpt>
      <trkpt lat="52.1810263954102993011474609375" lon="12.94308702461421489715576171875">
        <ele>48.59999847412109375</ele>
        <time>2018-08-18T14:53:59.000Z</time>
      </trkpt>
      <trkpt lat="52.1814079396426677703857421875" lon="12.94373544864356517791748046875">
        <ele>48.799999237060546875</ele>
        <time>2018-08-18T14:54:05.000Z</time>
      </trkpt>
      <trkpt lat="52.18166652135550975799560546875" lon="12.9441454075276851654052734375">
        <ele>48.59999847412109375</ele>
        <time>2018-08-18T14:54:09.000Z</time>
      </trkpt>
      <trkpt lat="52.18216239474713802337646484375" lon="12.94469676911830902099609375">
        <ele>48.799999237060546875</ele>
        <time>2018-08-18T14:54:16.000Z</time>
      </trkpt>
      <trkpt lat="52.18269866891205310821533203125" lon="12.945116199553012847900390625">
        <ele>49.40000152587890625</ele>
        <time>2018-08-18T14:54:23.000Z</time>
      </trkpt>
      <trkpt lat="52.18328188173472881317138671875" lon="12.94549162499606609344482421875">
        <ele>49.40000152587890625</ele>
        <time>2018-08-18T14:54:30.000Z</time>
      </trkpt>
      <trkpt lat="52.18379099853336811065673828125" lon="12.9458197765052318572998046875">
        <ele>49.40000152587890625</ele>
        <time>2018-08-18T14:54:36.000Z</time>
      </trkpt>
      <trkpt lat="52.1842946670949459075927734375" lon="12.94615178368985652923583984375">
        <ele>49.40000152587890625</ele>
        <time>2018-08-18T14:54:42.000Z</time>
      </trkpt>
      <trkpt lat="52.18487293459475040435791015625" lon="12.94651840813457965850830078125">
        <ele>49.40000152587890625</ele>
        <time>2018-08-18T14:54:49.000Z</time>
      </trkpt>
      <trkpt lat="52.18542094342410564422607421875" lon="12.9468584619462490081787109375">
        <ele>49.40000152587890625</ele>
        <time>2018-08-18T14:54:56.000Z</time>
      </trkpt>
      <trkpt lat="52.18563468195497989654541015625" lon="12.947020232677459716796875">
        <ele>49.40000152587890625</ele>
        <time>2018-08-18T14:54:59.000Z</time>
      </trkpt>
      <trkpt lat="52.1857635118067264556884765625" lon="12.9471488110721111297607421875">
        <ele>49.40000152587890625</ele>
        <time>2018-08-18T14:55:01.000Z</time>
      </trkpt>
      <trkpt lat="52.18601681292057037353515625" lon="12.94730060733854770660400390625">
        <ele>49.40000152587890625</ele>
        <time>2018-08-18T14:55:05.000Z</time>
      </trkpt>
      <trkpt lat="52.18656708486378192901611328125" lon="12.9476329497992992401123046875">
        <ele>49.40000152587890625</ele>
        <time>2018-08-18T14:55:12.000Z</time>
      </trkpt>
      <trkpt lat="52.18712900765240192413330078125" lon="12.9479880072176456451416015625">
        <ele>49</ele>
        <time>2018-08-18T14:55:19.000Z</time>
      </trkpt>
      <trkpt lat="52.18768422491848468780517578125" lon="12.94832873158156871795654296875">
        <ele>48.799999237060546875</ele>
        <time>2018-08-18T14:55:26.000Z</time>
      </trkpt>
      <trkpt lat="52.18823893927037715911865234375" lon="12.9486729763448238372802734375">
        <ele>48.40000152587890625</ele>
        <time>2018-08-18T14:55:33.000Z</time>
      </trkpt>
      <trkpt lat="52.18877856619656085968017578125" lon="12.949015460908412933349609375">
        <ele>48.200000762939453125</ele>
        <time>2018-08-18T14:55:40.000Z</time>
      </trkpt>
      <trkpt lat="52.188931368291378021240234375" lon="12.94910958968102931976318359375">
        <ele>48</ele>
        <time>2018-08-18T14:55:42.000Z</time>
      </trkpt>
      <trkpt lat="52.18947954475879669189453125" lon="12.9494618810713291168212890625">
        <ele>47.799999237060546875</ele>
        <time>2018-08-18T14:55:49.000Z</time>
      </trkpt>
      <trkpt lat="52.19003953970968723297119140625" lon="12.94981978833675384521484375">
        <ele>47.799999237060546875</ele>
        <time>2018-08-18T14:55:56.000Z</time>
      </trkpt>
      <trkpt lat="52.19059794209897518157958984375" lon="12.95019320212304592132568359375">
        <ele>48</ele>
        <time>2018-08-18T14:56:03.000Z</time>
      </trkpt>
      <trkpt lat="52.19115014187991619110107421875" lon="12.9505620896816253662109375">
        <ele>48.200000762939453125</ele>
        <time>2018-08-18T14:56:10.000Z</time>
      </trkpt>
      <trkpt lat="52.19170016236603260040283203125" lon="12.95090985484421253204345703125">
        <ele>48.200000762939453125</ele>
        <time>2018-08-18T14:56:17.000Z</time>
      </trkpt>
      <trkpt lat="52.19224800355732440948486328125" lon="12.9512418620288372039794921875">
        <ele>48</ele>
        <time>2018-08-18T14:56:24.000Z</time>
      </trkpt>
      <trkpt lat="52.19280824996531009674072265625" lon="12.95158644206821918487548828125">
        <ele>48</ele>
        <time>2018-08-18T14:56:31.000Z</time>
      </trkpt>
      <trkpt lat="52.1933491341769695281982421875" lon="12.95193336904048919677734375">
        <ele>47.799999237060546875</ele>
        <time>2018-08-18T14:56:38.000Z</time>
      </trkpt>
      <trkpt lat="52.19387543387711048126220703125" lon="12.95223771594464778900146484375">
        <ele>48</ele>
        <time>2018-08-18T14:56:45.000Z</time>
      </trkpt>
      <trkpt lat="52.19394718296825885772705078125" lon="12.95228163711726665496826171875">
        <ele>48</ele>
        <time>2018-08-18T14:56:46.000Z</time>
      </trkpt>
      <trkpt lat="52.1944803558290004730224609375" lon="12.9526570625603199005126953125">
        <ele>48.40000152587890625</ele>
        <time>2018-08-18T14:56:53.000Z</time>
      </trkpt>
      <trkpt lat="52.19502040185034275054931640625" lon="12.95300214551389217376708984375">
        <ele>48.40000152587890625</ele>
        <time>2018-08-18T14:57:00.000Z</time>
      </trkpt>
      <trkpt lat="52.1955502219498157501220703125" lon="12.953349240124225616455078125">
        <ele>48.59999847412109375</ele>
        <time>2018-08-18T14:57:07.000Z</time>
      </trkpt>
      <trkpt lat="52.19609445892274379730224609375" lon="12.9536895453929901123046875">
        <ele>48.40000152587890625</ele>
        <time>2018-08-18T14:57:14.000Z</time>
      </trkpt>
      <trkpt lat="52.1966417133808135986328125" lon="12.95402741990983486175537109375">
        <ele>48.59999847412109375</ele>
        <time>2018-08-18T14:57:21.000Z</time>
      </trkpt>
      <trkpt lat="52.1971903927624225616455078125" lon="12.954359762370586395263671875">
        <ele>48.59999847412109375</ele>
        <time>2018-08-18T14:57:28.000Z</time>
      </trkpt>
      <trkpt lat="52.19773110933601856231689453125" lon="12.95469202101230621337890625">
        <ele>48.799999237060546875</ele>
        <time>2018-08-18T14:57:35.000Z</time>
      </trkpt>
      <trkpt lat="52.19823000021278858184814453125" lon="12.9550123773515224456787109375">
        <ele>48.799999237060546875</ele>
        <time>2018-08-18T14:57:42.000Z</time>
      </trkpt>
      <trkpt lat="52.19872335903346538543701171875" lon="12.95529476366937160491943359375">
        <ele>49</ele>
        <time>2018-08-18T14:57:50.000Z</time>
      </trkpt>
      <trkpt lat="52.19883349724113941192626953125" lon="12.95537405647337436676025390625">
        <ele>49.200000762939453125</ele>
        <time>2018-08-18T14:57:52.000Z</time>
      </trkpt>
      <trkpt lat="52.19935652799904346466064453125" lon="12.95570547692477703094482421875">
        <ele>49.59999847412109375</ele>
        <time>2018-08-18T14:58:00.000Z</time>
      </trkpt>
      <trkpt lat="52.19991057179868221282958984375" lon="12.95608802698552608489990234375">
        <ele>49.59999847412109375</ele>
        <time>2018-08-18T14:58:08.000Z</time>
      </trkpt>
      <trkpt lat="52.20042438246309757232666015625" lon="12.95640151016414165496826171875">
        <ele>49.40000152587890625</ele>
        <time>2018-08-18T14:58:15.000Z</time>
      </trkpt>
      <trkpt lat="52.20093769021332263946533203125" lon="12.9567330144345760345458984375">
        <ele>49.200000762939453125</ele>
        <time>2018-08-18T14:58:22.000Z</time>
      </trkpt>
      <trkpt lat="52.201462648808956146240234375" lon="12.9570503532886505126953125">
        <ele>49</ele>
        <time>2018-08-18T14:58:29.000Z</time>
      </trkpt>
      <trkpt lat="52.20196195878088474273681640625" lon="12.95739702880382537841796875">
        <ele>49</ele>
        <time>2018-08-18T14:58:36.000Z</time>
      </trkpt>
      <trkpt lat="52.2024880908429622650146484375" lon="12.9578018747270107269287109375">
        <ele>49</ele>
        <time>2018-08-18T14:58:44.000Z</time>
      </trkpt>
      <trkpt lat="52.2027303278446197509765625" lon="12.9579802416265010833740234375">
        <ele>49</ele>
        <time>2018-08-18T14:58:48.000Z</time>
      </trkpt>
      <trkpt lat="52.203018665313720703125" lon="12.95808040536940097808837890625">
        <ele>48.799999237060546875</ele>
        <time>2018-08-18T14:58:53.000Z</time>
      </trkpt>
      <trkpt lat="52.20343214459717273712158203125" lon="12.95833739452064037322998046875">
        <ele>48.799999237060546875</ele>
        <time>2018-08-18T14:58:59.000Z</time>
      </trkpt>
      <trkpt lat="52.20394075848162174224853515625" lon="12.95868239365518093109130859375">
        <ele>49</ele>
        <time>2018-08-18T14:59:06.000Z</time>
      </trkpt>
      <trkpt lat="52.20443554222583770751953125" lon="12.95898615382611751556396484375">
        <ele>49</ele>
        <time>2018-08-18T14:59:13.000Z</time>
      </trkpt>
      <trkpt lat="52.20496368594467639923095703125" lon="12.95933886431157588958740234375">
        <ele>49.40000152587890625</ele>
        <time>2018-08-18T14:59:21.000Z</time>
      </trkpt>
      <trkpt lat="52.20536484383046627044677734375" lon="12.95959400944411754608154296875">
        <ele>50</ele>
        <time>2018-08-18T14:59:27.000Z</time>
      </trkpt>
      <trkpt lat="52.2056128643453121185302734375" lon="12.9597649164497852325439453125">
        <ele>50.59999847412109375</ele>
        <time>2018-08-18T14:59:31.000Z</time>
      </trkpt>
      <trkpt lat="52.20579550601541996002197265625" lon="12.95997731387615203857421875">
        <ele>51</ele>
        <time>2018-08-18T14:59:37.000Z</time>
      </trkpt>
      <trkpt lat="52.20587211661040782928466796875" lon="12.960027940571308135986328125">
        <ele>51.200000762939453125</ele>
        <time>2018-08-18T14:59:39.000Z</time>
      </trkpt>
      <trkpt lat="52.20612667500972747802734375" lon="12.96020530164241790771484375">
        <ele>51.40000152587890625</ele>
        <time>2018-08-18T14:59:44.000Z</time>
      </trkpt>
      <trkpt lat="52.20654367469251155853271484375" lon="12.9604889452457427978515625">
        <ele>51.799999237060546875</ele>
        <time>2018-08-18T14:59:51.000Z</time>
      </trkpt>
      <trkpt lat="52.20679831691086292266845703125" lon="12.96058944426476955413818359375">
        <ele>52</ele>
        <time>2018-08-18T14:59:55.000Z</time>
      </trkpt>
      <trkpt lat="52.2068631090223789215087890625" lon="12.9606195352971553802490234375">
        <ele>52</ele>
        <time>2018-08-18T14:59:56.000Z</time>
      </trkpt>
      <trkpt lat="52.20738203264772891998291015625" lon="12.96089303679764270782470703125">
        <ele>52.40000152587890625</ele>
        <time>2018-08-18T15:00:03.000Z</time>
      </trkpt>
      <trkpt lat="52.2079249285161495208740234375" lon="12.9612290672957897186279296875">
        <ele>52.200000762939453125</ele>
        <time>2018-08-18T15:00:10.000Z</time>
      </trkpt>
      <trkpt lat="52.20844888128340244293212890625" lon="12.96150893904268741607666015625">
        <ele>52</ele>
        <time>2018-08-18T15:00:17.000Z</time>
      </trkpt>
      <trkpt lat="52.20898322761058807373046875" lon="12.9618805088102817535400390625">
        <ele>52</ele>
        <time>2018-08-18T15:00:24.000Z</time>
      </trkpt>
      <trkpt lat="52.20953031443059444427490234375" lon="12.96222039498388767242431640625">
        <ele>52.200000762939453125</ele>
        <time>2018-08-18T15:00:31.000Z</time>
      </trkpt>
      <trkpt lat="52.210103385150432586669921875" lon="12.96257930807769298553466796875">
        <ele>52.200000762939453125</ele>
        <time>2018-08-18T15:00:38.000Z</time>
      </trkpt>
      <trkpt lat="52.2106111608445644378662109375" lon="12.9629265703260898590087890625">
        <ele>52.200000762939453125</ele>
        <time>2018-08-18T15:00:44.000Z</time>
      </trkpt>
      <trkpt lat="52.211121283471584320068359375" lon="12.96325203962624073028564453125">
        <ele>52</ele>
        <time>2018-08-18T15:00:50.000Z</time>
      </trkpt>
      <trkpt lat="52.21163584850728511810302734375" lon="12.96358429826796054840087890625">
        <ele>52.200000762939453125</ele>
        <time>2018-08-18T15:00:56.000Z</time>
      </trkpt>
      <trkpt lat="52.21218469552695751190185546875" lon="12.9639334045350551605224609375">
        <ele>52.200000762939453125</ele>
        <time>2018-08-18T15:01:02.000Z</time>
      </trkpt>
      <trkpt lat="52.21272650174796581268310546875" lon="12.9642800800502300262451171875">
        <ele>51.59999847412109375</ele>
        <time>2018-08-18T15:01:08.000Z</time>
      </trkpt>
      <trkpt lat="52.2131828963756561279296875" lon="12.96456866897642612457275390625">
        <ele>51</ele>
        <time>2018-08-18T15:01:13.000Z</time>
      </trkpt>
      <trkpt lat="52.21371858380734920501708984375" lon="12.9648959822952747344970703125">
        <ele>50.40000152587890625</ele>
        <time>2018-08-18T15:01:19.000Z</time>
      </trkpt>
      <trkpt lat="52.21424379386007785797119140625" lon="12.965228743851184844970703125">
        <ele>50</ele>
        <time>2018-08-18T15:01:25.000Z</time>
      </trkpt>
      <trkpt lat="52.21476799808442592620849609375" lon="12.965566702187061309814453125">
        <ele>49.799999237060546875</ele>
        <time>2018-08-18T15:01:31.000Z</time>
      </trkpt>
      <trkpt lat="52.2152803838253021240234375" lon="12.9658917523920536041259765625">
        <ele>49.59999847412109375</ele>
        <time>2018-08-18T15:01:37.000Z</time>
      </trkpt>
      <trkpt lat="52.21581003628671169281005859375" lon="12.96623683534562587738037109375">
        <ele>49.40000152587890625</ele>
        <time>2018-08-18T15:01:43.000Z</time>
      </trkpt>
      <trkpt lat="52.21631479449570178985595703125" lon="12.966564483940601348876953125">
        <ele>49.40000152587890625</ele>
        <time>2018-08-18T15:01:49.000Z</time>
      </trkpt>
      <trkpt lat="52.2168560139834880828857421875" lon="12.9669461958110332489013671875">
        <ele>49</ele>
        <time>2018-08-18T15:01:56.000Z</time>
      </trkpt>
      <trkpt lat="52.21739488653838634490966796875" lon="12.96730703674256801605224609375">
        <ele>49</ele>
        <time>2018-08-18T15:02:03.000Z</time>
      </trkpt>
      <trkpt lat="52.21793753094971179962158203125" lon="12.9676455818116664886474609375">
        <ele>49</ele>
        <time>2018-08-18T15:02:10.000Z</time>
      </trkpt>
      <trkpt lat="52.2184935025870800018310546875" lon="12.96799267642199993133544921875">
        <ele>49</ele>
        <time>2018-08-18T15:02:17.000Z</time>
      </trkpt>
      <trkpt lat="52.21889541484415531158447265625" lon="12.9682326503098011016845703125">
        <ele>49</ele>
        <time>2018-08-18T15:02:22.000Z</time>
      </trkpt>
      <trkpt lat="52.219428084790706634521484375" lon="12.96859122812747955322265625">
        <ele>48.799999237060546875</ele>
        <time>2018-08-18T15:02:29.000Z</time>
      </trkpt>
      <trkpt lat="52.21997550688683986663818359375" lon="12.96892658807337284088134765625">
        <ele>48.799999237060546875</ele>
        <time>2018-08-18T15:02:36.000Z</time>
      </trkpt>
      <trkpt lat="52.22049669362604618072509765625" lon="12.969262786209583282470703125">
        <ele>48.799999237060546875</ele>
        <time>2018-08-18T15:02:43.000Z</time>
      </trkpt>
      <trkpt lat="52.2210238315165042877197265625" lon="12.9696113057434558868408203125">
        <ele>48.799999237060546875</ele>
        <time>2018-08-18T15:02:50.000Z</time>
      </trkpt>
      <trkpt lat="52.22125626169145107269287109375" lon="12.96970576979219913482666015625">
        <ele>48.799999237060546875</ele>
        <time>2018-08-18T15:02:53.000Z</time>
      </trkpt>
      <trkpt lat="52.22133069299161434173583984375" lon="12.969750948250293731689453125">
        <ele>48.799999237060546875</ele>
        <time>2018-08-18T15:02:54.000Z</time>
      </trkpt>
      <trkpt lat="52.22182966768741607666015625" lon="12.970219664275646209716796875">
        <ele>48.799999237060546875</ele>
        <time>2018-08-18T15:03:02.000Z</time>
      </trkpt>
      <trkpt lat="52.2222127206623554229736328125" lon="12.97082223929464817047119140625">
        <ele>49</ele>
        <time>2018-08-18T15:03:11.000Z</time>
      </trkpt>
      <trkpt lat="52.22225739620625972747802734375" lon="12.97090019099414348602294921875">
        <ele>49</ele>
        <time>2018-08-18T15:03:13.000Z</time>
      </trkpt>
      <trkpt lat="52.2223904170095920562744140625" lon="12.970823161303997039794921875">
        <ele>49.200000762939453125</ele>
        <time>2018-08-18T15:03:19.000Z</time>
      </trkpt>
      <trkpt lat="52.2227060794830322265625" lon="12.97050070948898792266845703125">
        <ele>49.40000152587890625</ele>
        <time>2018-08-18T15:03:27.000Z</time>
      </trkpt>
      <trkpt lat="52.22293331287801265716552734375" lon="12.97050406225025653839111328125">
        <ele>49.59999847412109375</ele>
        <time>2018-08-18T15:03:31.000Z</time>
      </trkpt>
      <trkpt lat="52.2234525717794895172119140625" lon="12.97075920738279819488525390625">
        <ele>49.59999847412109375</ele>
        <time>2018-08-18T15:03:40.000Z</time>
      </trkpt>
      <trkpt lat="52.22354770638048648834228515625" lon="12.9708280228078365325927734375">
        <ele>49.59999847412109375</ele>
        <time>2018-08-18T15:03:42.000Z</time>
      </trkpt>
      <trkpt lat="52.2238357923924922943115234375" lon="12.97127922065556049346923828125">
        <ele>49.40000152587890625</ele>
        <time>2018-08-18T15:03:51.000Z</time>
      </trkpt>
      <trkpt lat="52.2243672050535678863525390625" lon="12.9716179333627223968505859375">
        <ele>49</ele>
        <time>2018-08-18T15:03:59.000Z</time>
      </trkpt>
      <trkpt lat="52.224893756210803985595703125" lon="12.97196201048791408538818359375">
        <ele>48.59999847412109375</ele>
        <time>2018-08-18T15:04:06.000Z</time>
      </trkpt>
      <trkpt lat="52.22545525990426540374755859375" lon="12.97232058830559253692626953125">
        <ele>48.200000762939453125</ele>
        <time>2018-08-18T15:04:13.000Z</time>
      </trkpt>
      <trkpt lat="52.22553648054599761962890625" lon="12.9723709635436534881591796875">
        <ele>48</ele>
        <time>2018-08-18T15:04:14.000Z</time>
      </trkpt>
      <trkpt lat="52.2260942123830318450927734375" lon="12.9727367497980594635009765625">
        <ele>47.200000762939453125</ele>
        <time>2018-08-18T15:04:21.000Z</time>
      </trkpt>
      <trkpt lat="52.2264935262501239776611328125" lon="12.97299801371991634368896484375">
        <ele>47.200000762939453125</ele>
        <time>2018-08-18T15:04:26.000Z</time>
      </trkpt>
      <trkpt lat="52.2270722128450870513916015625" lon="12.973379306495189666748046875">
        <ele>47</ele>
        <time>2018-08-18T15:04:33.000Z</time>
      </trkpt>
      <trkpt lat="52.22764930687844753265380859375" lon="12.973773591220378875732421875">
        <ele>46.40000152587890625</ele>
        <time>2018-08-18T15:04:40.000Z</time>
      </trkpt>
      <trkpt lat="52.22788768820464611053466796875" lon="12.9739407263696193695068359375">
        <ele>46.200000762939453125</ele>
        <time>2018-08-18T15:04:43.000Z</time>
      </trkpt>
      <trkpt lat="52.228460423648357391357421875" lon="12.974214144051074981689453125">
        <ele>46</ele>
        <time>2018-08-18T15:04:50.000Z</time>
      </trkpt>
      <trkpt lat="52.22906501032412052154541015625" lon="12.974265106022357940673828125">
        <ele>46</ele>
        <time>2018-08-18T15:04:57.000Z</time>
      </trkpt>
      <trkpt lat="52.22968610934913158416748046875" lon="12.9743467457592487335205078125">
        <ele>45.799999237060546875</ele>
        <time>2018-08-18T15:05:04.000Z</time>
      </trkpt>
      <trkpt lat="52.23028541542589664459228515625" lon="12.974416650831699371337890625">
        <ele>45.59999847412109375</ele>
        <time>2018-08-18T15:05:11.000Z</time>
      </trkpt>
      <trkpt lat="52.230884470045566558837890625" lon="12.974485717713832855224609375">
        <ele>45.59999847412109375</ele>
        <time>2018-08-18T15:05:18.000Z</time>
      </trkpt>
      <trkpt lat="52.23144982941448688507080078125" lon="12.974529974162578582763671875">
        <ele>45.799999237060546875</ele>
        <time>2018-08-18T15:05:25.000Z</time>
      </trkpt>
      <trkpt lat="52.231661640107631683349609375" lon="12.97458202578127384185791015625">
        <ele>45.799999237060546875</ele>
        <time>2018-08-18T15:05:28.000Z</time>
      </trkpt>
      <trkpt lat="52.23192273639142513275146484375" lon="12.97473876737058162689208984375">
        <ele>45.799999237060546875</ele>
        <time>2018-08-18T15:05:32.000Z</time>
      </trkpt>
      <trkpt lat="52.2321164421737194061279296875" lon="12.9753009416162967681884765625">
        <ele>46.200000762939453125</ele>
        <time>2018-08-18T15:05:38.000Z</time>
      </trkpt>
      <trkpt lat="52.23222456872463226318359375" lon="12.976248599588871002197265625">
        <ele>46.200000762939453125</ele>
        <time>2018-08-18T15:05:46.000Z</time>
      </trkpt>
      <trkpt lat="52.23232506774365901947021484375" lon="12.97722601331770420074462890625">
        <ele>46</ele>
        <time>2018-08-18T15:05:54.000Z</time>
      </trkpt>
      <trkpt lat="52.2323585115373134613037109375" lon="12.97759917564690113067626953125">
        <ele>46</ele>
        <time>2018-08-18T15:05:57.000Z</time>
      </trkpt>
      <trkpt lat="52.2326512075960636138916015625" lon="12.9778651334345340728759765625">
        <ele>46</ele>
        <time>2018-08-18T15:06:02.000Z</time>
      </trkpt>
      <trkpt lat="52.2331373579800128936767578125" lon="12.97792531549930572509765625">
        <ele>46.40000152587890625</ele>
        <time>2018-08-18T15:06:09.000Z</time>
      </trkpt>
      <trkpt lat="52.23371160216629505157470703125" lon="12.97808314673602581024169921875">
        <ele>46.799999237060546875</ele>
        <time>2018-08-18T15:06:17.000Z</time>
      </trkpt>
      <trkpt lat="52.2342940606176853179931640625" lon="12.97823050059378147125244140625">
        <ele>46.40000152587890625</ele>
        <time>2018-08-18T15:06:25.000Z</time>
      </trkpt>
      <trkpt lat="52.23486394621431827545166015625" lon="12.9783658683300018310546875">
        <ele>47</ele>
        <time>2018-08-18T15:06:34.000Z</time>
      </trkpt>
      <trkpt lat="52.23499084822833538055419921875" lon="12.9784025810658931732177734375">
        <ele>47</ele>
        <time>2018-08-18T15:06:42.000Z</time>
      </trkpt>
      <trkpt lat="52.2350460849702358245849609375" lon="12.978409789502620697021484375">
        <ele>46.799999237060546875</ele>
        <time>2018-08-18T15:06:59.000Z</time>
      </trkpt>
      <trkpt lat="52.23542670719325542449951171875" lon="12.97854356467723846435546875">
        <ele>46.799999237060546875</ele>
        <time>2018-08-18T15:07:07.000Z</time>
      </trkpt>
      <trkpt lat="52.235631309449672698974609375" lon="12.978537194430828094482421875">
        <ele>47</ele>
        <time>2018-08-18T15:07:10.000Z</time>
      </trkpt>
      <trkpt lat="52.236202619969844818115234375" lon="12.9786208458244800567626953125">
        <ele>46.799999237060546875</ele>
        <time>2018-08-18T15:07:18.000Z</time>
      </trkpt>
      <trkpt lat="52.23678809590637683868408203125" lon="12.97870458103716373443603515625">
        <ele>47</ele>
        <time>2018-08-18T15:07:26.000Z</time>
      </trkpt>
      <trkpt lat="52.23716611973941326141357421875" lon="12.97875135205686092376708984375">
        <ele>47</ele>
        <time>2018-08-18T15:07:31.000Z</time>
      </trkpt>
      <trkpt lat="52.23770432174205780029296875" lon="12.978847324848175048828125">
        <ele>47</ele>
        <time>2018-08-18T15:07:38.000Z</time>
      </trkpt>
      <trkpt lat="52.238255180418491363525390625" lon="12.97891178168356418609619140625">
        <ele>47</ele>
        <time>2018-08-18T15:07:45.000Z</time>
      </trkpt>
      <trkpt lat="52.238812409341335296630859375" lon="12.97896995209157466888427734375">
        <ele>47.200000762939453125</ele>
        <time>2018-08-18T15:07:52.000Z</time>
      </trkpt>
      <trkpt lat="52.23937625996768474578857421875" lon="12.9790055751800537109375">
        <ele>47.200000762939453125</ele>
        <time>2018-08-18T15:07:59.000Z</time>
      </trkpt>
      <trkpt lat="52.23994187079370021820068359375" lon="12.979002892971038818359375">
        <ele>47.200000762939453125</ele>
        <time>2018-08-18T15:08:06.000Z</time>
      </trkpt>
      <trkpt lat="52.24051259458065032958984375" lon="12.97904019244015216827392578125">
        <ele>47.200000762939453125</ele>
        <time>2018-08-18T15:08:13.000Z</time>
      </trkpt>
      <trkpt lat="52.24100000225007534027099609375" lon="12.9791120253503322601318359375">
        <ele>46.799999237060546875</ele>
        <time>2018-08-18T15:08:19.000Z</time>
      </trkpt>
      <trkpt lat="52.24115431308746337890625" lon="12.9791696928441524505615234375">
        <ele>46.799999237060546875</ele>
        <time>2018-08-18T15:08:21.000Z</time>
      </trkpt>
      <trkpt lat="52.24146477878093719482421875" lon="12.97916105948388576507568359375">
        <ele>46.799999237060546875</ele>
        <time>2018-08-18T15:08:25.000Z</time>
      </trkpt>
      <trkpt lat="52.2420107759535312652587890625" lon="12.979186959564685821533203125">
        <ele>46.799999237060546875</ele>
        <time>2018-08-18T15:08:32.000Z</time>
      </trkpt>
      <trkpt lat="52.242565155029296875" lon="12.979282177984714508056640625">
        <ele>46.59999847412109375</ele>
        <time>2018-08-18T15:08:39.000Z</time>
      </trkpt>
      <trkpt lat="52.24316353909671306610107421875" lon="12.979432381689548492431640625">
        <ele>46.59999847412109375</ele>
        <time>2018-08-18T15:08:47.000Z</time>
      </trkpt>
      <trkpt lat="52.24370039999485015869140625" lon="12.979646958410739898681640625">
        <ele>46.59999847412109375</ele>
        <time>2018-08-18T15:08:54.000Z</time>
      </trkpt>
      <trkpt lat="52.24425234831869602203369140625" lon="12.97987218014895915985107421875">
        <ele>46.799999237060546875</ele>
        <time>2018-08-18T15:09:01.000Z</time>
      </trkpt>
      <trkpt lat="52.2447905503213405609130859375" lon="12.980140484869480133056640625">
        <ele>47</ele>
        <time>2018-08-18T15:09:08.000Z</time>
      </trkpt>
      <trkpt lat="52.24530478008091449737548828125" lon="12.9804759286344051361083984375">
        <ele>47.40000152587890625</ele>
        <time>2018-08-18T15:09:15.000Z</time>
      </trkpt>
      <trkpt lat="52.245853878557682037353515625" lon="12.98084951005876064300537109375">
        <ele>47.59999847412109375</ele>
        <time>2018-08-18T15:09:23.000Z</time>
      </trkpt>
      <trkpt lat="52.2461162321269512176513671875" lon="12.981030642986297607421875">
        <ele>47.799999237060546875</ele>
        <time>2018-08-18T15:09:27.000Z</time>
      </trkpt>
      <trkpt lat="52.24666348658502101898193359375" lon="12.98142903484404087066650390625">
        <ele>48</ele>
        <time>2018-08-18T15:09:36.000Z</time>
      </trkpt>
      <trkpt lat="52.246716879308223724365234375" lon="12.98148460686206817626953125">
        <ele>48.200000762939453125</ele>
        <time>2018-08-18T15:09:37.000Z</time>
      </trkpt>
      <trkpt lat="52.246932126581668853759765625" lon="12.981636486947536468505859375">
        <ele>48.40000152587890625</ele>
        <time>2018-08-18T15:09:41.000Z</time>
      </trkpt>
      <trkpt lat="52.24704016931354999542236328125" lon="12.9816929809749126434326171875">
        <ele>48.40000152587890625</ele>
        <time>2018-08-18T15:09:43.000Z</time>
      </trkpt>
      <trkpt lat="52.24714293144643306732177734375" lon="12.98177151940762996673583984375">
        <ele>48.799999237060546875</ele>
        <time>2018-08-18T15:09:45.000Z</time>
      </trkpt>
      <trkpt lat="52.24762639962136745452880859375" lon="12.9822807200253009796142578125">
        <ele>49.59999847412109375</ele>
        <time>2018-08-18T15:09:54.000Z</time>
      </trkpt>
      <trkpt lat="52.24774223752319812774658203125" lon="12.982394881546497344970703125">
        <ele>50</ele>
        <time>2018-08-18T15:09:56.000Z</time>
      </trkpt>
      <trkpt lat="52.24821631796658039093017578125" lon="12.9828567244112491607666015625">
        <ele>50.59999847412109375</ele>
        <time>2018-08-18T15:10:04.000Z</time>
      </trkpt>
      <trkpt lat="52.2486913204193115234375" lon="12.98331714235246181488037109375">
        <ele>51</ele>
        <time>2018-08-18T15:10:12.000Z</time>
      </trkpt>
      <trkpt lat="52.24892676807940006256103515625" lon="12.98355133272707462310791015625">
        <ele>51.200000762939453125</ele>
        <time>2018-08-18T15:10:16.000Z</time>
      </trkpt>
      <trkpt lat="52.24930931814014911651611328125" lon="12.98393882811069488525390625">
        <ele>51.59999847412109375</ele>
        <time>2018-08-18T15:10:23.000Z</time>
      </trkpt>
      <trkpt lat="52.24945398978888988494873046875" lon="12.98477676697075366973876953125">
        <ele>52.200000762939453125</ele>
        <time>2018-08-18T15:10:32.000Z</time>
      </trkpt>
      <trkpt lat="52.24944191984832286834716796875" lon="12.984847761690616607666015625">
        <ele>51.59999847412109375</ele>
        <time>2018-08-18T15:10:35.000Z</time>
      </trkpt>
      <trkpt lat="52.24943940527737140655517578125" lon="12.98487885855138301849365234375">
        <ele>50.200000762939453125</ele>
        <time>2018-08-18T15:10:39.000Z</time>
      </trkpt>
      <trkpt lat="52.249437309801578521728515625" lon="12.9849158227443695068359375">
        <ele>49.59999847412109375</ele>
        <time>2018-08-18T15:11:21.000Z</time>
      </trkpt>
      <trkpt lat="52.24946287460625171661376953125" lon="12.985142134130001068115234375">
        <ele>49.59999847412109375</ele>
        <time>2018-08-18T15:11:26.000Z</time>
      </trkpt>
      <trkpt lat="52.24963621236383914947509765625" lon="12.9852242767810821533203125">
        <ele>49.59999847412109375</ele>
        <time>2018-08-18T15:11:30.000Z</time>
      </trkpt>
      <trkpt lat="52.250194363296031951904296875" lon="12.98536844551563262939453125">
        <ele>49.799999237060546875</ele>
        <time>2018-08-18T15:11:39.000Z</time>
      </trkpt>
      <trkpt lat="52.2507346607744693756103515625" lon="12.98559215851128101348876953125">
        <ele>50</ele>
        <time>2018-08-18T15:11:47.000Z</time>
      </trkpt>
      <trkpt lat="52.25126280449330806732177734375" lon="12.98590379767119884490966796875">
        <ele>50.40000152587890625</ele>
        <time>2018-08-18T15:11:55.000Z</time>
      </trkpt>
      <trkpt lat="52.25151308812201023101806640625" lon="12.98609373159706592559814453125">
        <ele>50.59999847412109375</ele>
        <time>2018-08-18T15:11:59.000Z</time>
      </trkpt>
      <trkpt lat="52.25199890322983264923095703125" lon="12.98650444485247135162353515625">
        <ele>51</ele>
        <time>2018-08-18T15:12:07.000Z</time>
      </trkpt>
      <trkpt lat="52.252466864883899688720703125" lon="12.98696746118366718292236328125">
        <ele>51.59999847412109375</ele>
        <time>2018-08-18T15:12:15.000Z</time>
      </trkpt>
      <trkpt lat="52.25297790952026844024658203125" lon="12.9874808527529239654541015625">
        <ele>52.40000152587890625</ele>
        <time>2018-08-18T15:12:24.000Z</time>
      </trkpt>
      <trkpt lat="52.25332089699804782867431640625" lon="12.98779525794088840484619140625">
        <ele>52.799999237060546875</ele>
        <time>2018-08-18T15:12:30.000Z</time>
      </trkpt>
      <trkpt lat="52.253843508660793304443359375" lon="12.9882915504276752471923828125">
        <ele>53.799999237060546875</ele>
        <time>2018-08-18T15:12:39.000Z</time>
      </trkpt>
      <trkpt lat="52.25430292077362537384033203125" lon="12.98867904581129550933837890625">
        <ele>54.59999847412109375</ele>
        <time>2018-08-18T15:12:47.000Z</time>
      </trkpt>
      <trkpt lat="52.254479862749576568603515625" lon="12.98880443908274173736572265625">
        <ele>54.799999237060546875</ele>
        <time>2018-08-18T15:12:50.000Z</time>
      </trkpt>
      <trkpt lat="52.25477331317961215972900390625" lon="12.98900694586336612701416015625">
        <ele>56.200000762939453125</ele>
        <time>2018-08-18T15:12:55.000Z</time>
      </trkpt>
      <trkpt lat="52.25483148358762264251708984375" lon="12.9890465922653675079345703125">
        <ele>56.40000152587890625</ele>
        <time>2018-08-18T15:12:56.000Z</time>
      </trkpt>
      <trkpt lat="52.25520447827875614166259765625" lon="12.98930768854916095733642578125">
        <ele>56.799999237060546875</ele>
        <time>2018-08-18T15:13:02.000Z</time>
      </trkpt>
      <trkpt lat="52.25533054210245609283447265625" lon="12.9893808625638484954833984375">
        <ele>57</ele>
        <time>2018-08-18T15:13:04.000Z</time>
      </trkpt>
      <trkpt lat="52.25582809187471866607666015625" lon="12.98972158692777156829833984375">
        <ele>58</ele>
        <time>2018-08-18T15:13:12.000Z</time>
      </trkpt>
      <trkpt lat="52.2560792975127696990966796875" lon="12.98991143703460693359375">
        <ele>58.200000762939453125</ele>
        <time>2018-08-18T15:13:16.000Z</time>
      </trkpt>
      <trkpt lat="52.256612889468669891357421875" lon="12.9902988485991954803466796875">
        <ele>58.40000152587890625</ele>
        <time>2018-08-18T15:13:24.000Z</time>
      </trkpt>
      <trkpt lat="52.25674389861524105072021484375" lon="12.99040085636079311370849609375">
        <ele>58.40000152587890625</ele>
        <time>2018-08-18T15:13:26.000Z</time>
      </trkpt>
      <trkpt lat="52.2572574578225612640380859375" lon="12.9908252321183681488037109375">
        <ele>58.40000152587890625</ele>
        <time>2018-08-18T15:13:34.000Z</time>
      </trkpt>
      <trkpt lat="52.2575917281210422515869140625" lon="12.99107057042419910430908203125">
        <ele>58.200000762939453125</ele>
        <time>2018-08-18T15:13:39.000Z</time>
      </trkpt>
      <trkpt lat="52.2577902115881443023681640625" lon="12.9912252165377140045166015625">
        <ele>58</ele>
        <time>2018-08-18T15:13:42.000Z</time>
      </trkpt>
      <trkpt lat="52.2583296708762645721435546875" lon="12.99161606468260288238525390625">
        <ele>57.799999237060546875</ele>
        <time>2018-08-18T15:13:50.000Z</time>
      </trkpt>
      <trkpt lat="52.25883937440812587738037109375" lon="12.9919199086725711822509765625">
        <ele>57.200000762939453125</ele>
        <time>2018-08-18T15:13:57.000Z</time>
      </trkpt>
      <trkpt lat="52.258976586163043975830078125" lon="12.99201454035937786102294921875">
        <ele>57.200000762939453125</ele>
        <time>2018-08-18T15:13:59.000Z</time>
      </trkpt>
      <trkpt lat="52.25918001495301723480224609375" lon="12.99216776154935359954833984375">
        <ele>57</ele>
        <time>2018-08-18T15:14:02.000Z</time>
      </trkpt>
      <trkpt lat="52.259445302188396453857421875" lon="12.99235451035201549530029296875">
        <ele>56.200000762939453125</ele>
        <time>2018-08-18T15:14:06.000Z</time>
      </trkpt>
      <trkpt lat="52.2599928081035614013671875" lon="12.9927580989897251129150390625">
        <ele>55.59999847412109375</ele>
        <time>2018-08-18T15:14:14.000Z</time>
      </trkpt>
      <trkpt lat="52.2605337761342525482177734375" lon="12.99314391799271106719970703125">
        <ele>55.59999847412109375</ele>
        <time>2018-08-18T15:14:22.000Z</time>
      </trkpt>
      <trkpt lat="52.261037193238735198974609375" lon="12.99351355992257595062255859375">
        <ele>55.59999847412109375</ele>
        <time>2018-08-18T15:14:29.000Z</time>
      </trkpt>
      <trkpt lat="52.2615858726203441619873046875" lon="12.9938953556120395660400390625">
        <ele>55.200000762939453125</ele>
        <time>2018-08-18T15:14:36.000Z</time>
      </trkpt>
      <trkpt lat="52.26166005246341228485107421875" lon="12.99394975416362285614013671875">
        <ele>55</ele>
        <time>2018-08-18T15:14:37.000Z</time>
      </trkpt>
      <trkpt lat="52.261740267276763916015625" lon="12.99399769864976406097412109375">
        <ele>54.40000152587890625</ele>
        <time>2018-08-18T15:14:38.000Z</time>
      </trkpt>
      <trkpt lat="52.26195408962666988372802734375" lon="12.99416533671319484710693359375">
        <ele>53.40000152587890625</ele>
        <time>2018-08-18T15:14:41.000Z</time>
      </trkpt>
      <trkpt lat="52.26202013902366161346435546875" lon="12.994205653667449951171875">
        <ele>53.200000762939453125</ele>
        <time>2018-08-18T15:14:42.000Z</time>
      </trkpt>
      <trkpt lat="52.26227511651813983917236328125" lon="12.9943704418838024139404296875">
        <ele>53</ele>
        <time>2018-08-18T15:14:46.000Z</time>
      </trkpt>
      <trkpt lat="52.26276914589107036590576171875" lon="12.99474787898361682891845703125">
        <ele>52.799999237060546875</ele>
        <time>2018-08-18T15:14:53.000Z</time>
      </trkpt>
      <trkpt lat="52.263274826109409332275390625" lon="12.99511366523802280426025390625">
        <ele>53</ele>
        <time>2018-08-18T15:15:00.000Z</time>
      </trkpt>
      <trkpt lat="52.26377564482390880584716796875" lon="12.9954810440540313720703125">
        <ele>53</ele>
        <time>2018-08-18T15:15:07.000Z</time>
      </trkpt>
      <trkpt lat="52.26427738554775714874267578125" lon="12.99585630185902118682861328125">
        <ele>53</ele>
        <time>2018-08-18T15:15:14.000Z</time>
      </trkpt>
      <trkpt lat="52.26482740603387355804443359375" lon="12.996238432824611663818359375">
        <ele>52.799999237060546875</ele>
        <time>2018-08-18T15:15:22.000Z</time>
      </trkpt>
      <trkpt lat="52.26533685810863971710205078125" lon="12.996603548526763916015625">
        <ele>54.200000762939453125</ele>
        <time>2018-08-18T15:15:31.000Z</time>
      </trkpt>
      <trkpt lat="52.26538413204252719879150390625" lon="12.99663950689136981964111328125">
        <ele>54.200000762939453125</ele>
        <time>2018-08-18T15:15:32.000Z</time>
      </trkpt>
      <trkpt lat="52.26547633297741413116455078125" lon="12.99671293236315250396728515625">
        <ele>55.200000762939453125</ele>
        <time>2018-08-18T15:15:34.000Z</time>
      </trkpt>
      <trkpt lat="52.2655243612825870513916015625" lon="12.9967482201755046844482421875">
        <ele>55.59999847412109375</ele>
        <time>2018-08-18T15:15:35.000Z</time>
      </trkpt>
      <trkpt lat="52.2657644189894199371337890625" lon="12.9969001002609729766845703125">
        <ele>56.799999237060546875</ele>
        <time>2018-08-18T15:15:39.000Z</time>
      </trkpt>
      <trkpt lat="52.2663236595690250396728515625" lon="12.9972729273140430450439453125">
        <ele>57.200000762939453125</ele>
        <time>2018-08-18T15:15:48.000Z</time>
      </trkpt>
      <trkpt lat="52.266620881855487823486328125" lon="12.99747065640985965728759765625">
        <ele>57.40000152587890625</ele>
        <time>2018-08-18T15:15:53.000Z</time>
      </trkpt>
      <trkpt lat="52.2668512165546417236328125" lon="12.9976263083517551422119140625">
        <ele>57.799999237060546875</ele>
        <time>2018-08-18T15:15:57.000Z</time>
      </trkpt>
      <trkpt lat="52.26740500889718532562255859375" lon="12.99799787811934947967529296875">
        <ele>58.59999847412109375</ele>
        <time>2018-08-18T15:16:06.000Z</time>
      </trkpt>
      <trkpt lat="52.2678163088858127593994140625" lon="12.99827917478978633880615234375">
        <ele>58.59999847412109375</ele>
        <time>2018-08-18T15:16:12.000Z</time>
      </trkpt>
      <trkpt lat="52.26830338127911090850830078125" lon="12.99867111258208751678466796875">
        <ele>58</ele>
        <time>2018-08-18T15:16:19.000Z</time>
      </trkpt>
      <trkpt lat="52.26885206066071987152099609375" lon="12.99912557937204837799072265625">
        <ele>56.40000152587890625</ele>
        <time>2018-08-18T15:16:26.000Z</time>
      </trkpt>
      <trkpt lat="52.269008047878742218017578125" lon="12.99924929626286029815673828125">
        <ele>55</ele>
        <time>2018-08-18T15:16:28.000Z</time>
      </trkpt>
      <trkpt lat="52.2692556492984294891357421875" lon="12.99944467842578887939453125">
        <ele>53.799999237060546875</ele>
        <time>2018-08-18T15:16:31.000Z</time>
      </trkpt>
      <trkpt lat="52.2696247883141040802001953125" lon="12.9997264780104160308837890625">
        <ele>52.799999237060546875</ele>
        <time>2018-08-18T15:16:36.000Z</time>
      </trkpt>
      <trkpt lat="52.27012443356215953826904296875" lon="13.0000984668731689453125">
        <ele>51.799999237060546875</ele>
        <time>2018-08-18T15:16:43.000Z</time>
      </trkpt>
      <trkpt lat="52.27047462947666645050048828125" lon="13.00036869943141937255859375">
        <ele>51.799999237060546875</ele>
        <time>2018-08-18T15:16:48.000Z</time>
      </trkpt>
      <trkpt lat="52.270972430706024169921875" lon="13.00074244849383831024169921875">
        <ele>51.799999237060546875</ele>
        <time>2018-08-18T15:16:55.000Z</time>
      </trkpt>
      <trkpt lat="52.27151650004088878631591796875" lon="13.0011326260864734649658203125">
        <ele>51.799999237060546875</ele>
        <time>2018-08-18T15:17:02.000Z</time>
      </trkpt>
      <trkpt lat="52.27202720940113067626953125" lon="13.001518361270427703857421875">
        <ele>51</ele>
        <time>2018-08-18T15:17:09.000Z</time>
      </trkpt>
      <trkpt lat="52.272543199360370635986328125" lon="13.001861684024333953857421875">
        <ele>51</ele>
        <time>2018-08-18T15:17:16.000Z</time>
      </trkpt>
      <trkpt lat="52.2730633802711963653564453125" lon="13.00222118385136127471923828125">
        <ele>51.200000762939453125</ele>
        <time>2018-08-18T15:17:23.000Z</time>
      </trkpt>
      <trkpt lat="52.27356989867985248565673828125" lon="13.00257657654583454132080078125">
        <ele>51</ele>
        <time>2018-08-18T15:17:33.000Z</time>
      </trkpt>
      <trkpt lat="52.27361583150923252105712890625" lon="13.002611696720123291015625">
        <ele>51</ele>
        <time>2018-08-18T15:17:37.000Z</time>
      </trkpt>
      <trkpt lat="52.273656316101551055908203125" lon="13.00264547578990459442138671875">
        <ele>50.799999237060546875</ele>
        <time>2018-08-18T15:17:47.000Z</time>
      </trkpt>
      <trkpt lat="52.27370551787316799163818359375" lon="13.00269191153347492218017578125">
        <ele>50.799999237060546875</ele>
        <time>2018-08-18T15:17:49.000Z</time>
      </trkpt>
      <trkpt lat="52.2742143832147121429443359375" lon="13.0030815862119197845458984375">
        <ele>50.799999237060546875</ele>
        <time>2018-08-18T15:18:00.000Z</time>
      </trkpt>
      <trkpt lat="52.27448989637196063995361328125" lon="13.0033474601805210113525390625">
        <ele>50.799999237060546875</ele>
        <time>2018-08-18T15:18:05.000Z</time>
      </trkpt>
      <trkpt lat="52.2749774716794490814208984375" lon="13.00384819507598876953125">
        <ele>50</ele>
        <time>2018-08-18T15:18:13.000Z</time>
      </trkpt>
      <trkpt lat="52.27511334232985973358154296875" lon="13.0039918608963489532470703125">
        <ele>49.59999847412109375</ele>
        <time>2018-08-18T15:18:15.000Z</time>
      </trkpt>
      <trkpt lat="52.27559714578092098236083984375" lon="13.0044959485530853271484375">
        <ele>49.200000762939453125</ele>
        <time>2018-08-18T15:18:22.000Z</time>
      </trkpt>
      <trkpt lat="52.27586586959660053253173828125" lon="13.00476551055908203125">
        <ele>48.799999237060546875</ele>
        <time>2018-08-18T15:18:26.000Z</time>
      </trkpt>
      <trkpt lat="52.27623718790709972381591796875" lon="13.0051624774932861328125">
        <ele>48.799999237060546875</ele>
        <time>2018-08-18T15:18:32.000Z</time>
      </trkpt>
      <trkpt lat="52.27671512402594089508056640625" lon="13.00565290264785289764404296875">
        <ele>48.799999237060546875</ele>
        <time>2018-08-18T15:18:40.000Z</time>
      </trkpt>
      <trkpt lat="52.2772073931992053985595703125" lon="13.0061704851686954498291015625">
        <ele>49.799999237060546875</ele>
        <time>2018-08-18T15:18:49.000Z</time>
      </trkpt>
      <trkpt lat="52.2772600315511226654052734375" lon="13.0062258057296276092529296875">
        <ele>50.200000762939453125</ele>
        <time>2018-08-18T15:18:50.000Z</time>
      </trkpt>
      <trkpt lat="52.27736639790236949920654296875" lon="13.00634063780307769775390625">
        <ele>50.200000762939453125</ele>
        <time>2018-08-18T15:18:52.000Z</time>
      </trkpt>
      <trkpt lat="52.27761701680719852447509765625" lon="13.00660005770623683929443359375">
        <ele>51</ele>
        <time>2018-08-18T15:18:57.000Z</time>
      </trkpt>
      <trkpt lat="52.277851291000843048095703125" lon="13.00686392001807689666748046875">
        <ele>52</ele>
        <time>2018-08-18T15:19:02.000Z</time>
      </trkpt>
      <trkpt lat="52.2779877483844757080078125" lon="13.0070331506431102752685546875">
        <ele>53.200000762939453125</ele>
        <time>2018-08-18T15:19:05.000Z</time>
      </trkpt>
      <trkpt lat="52.278172485530376434326171875" lon="13.00723372958600521087646484375">
        <ele>54.40000152587890625</ele>
        <time>2018-08-18T15:19:09.000Z</time>
      </trkpt>
      <trkpt lat="52.27836082689464092254638671875" lon="13.00743975676596164703369140625">
        <ele>55.59999847412109375</ele>
        <time>2018-08-18T15:19:13.000Z</time>
      </trkpt>
      <trkpt lat="52.278533242642879486083984375" lon="13.00764746032655239105224609375">
        <ele>56.59999847412109375</ele>
        <time>2018-08-18T15:19:17.000Z</time>
      </trkpt>
      <trkpt lat="52.27876986376941204071044921875" lon="13.007889948785305023193359375">
        <ele>57.799999237060546875</ele>
        <time>2018-08-18T15:19:22.000Z</time>
      </trkpt>
      <trkpt lat="52.27895225398242473602294921875" lon="13.00808784551918506622314453125">
        <ele>58.799999237060546875</ele>
        <time>2018-08-18T15:19:26.000Z</time>
      </trkpt>
      <trkpt lat="52.27899466641247272491455078125" lon="13.00813696347177028656005859375">
        <ele>59.200000762939453125</ele>
        <time>2018-08-18T15:19:27.000Z</time>
      </trkpt>
      <trkpt lat="52.27925173938274383544921875" lon="13.0084253847599029541015625">
        <ele>60.200000762939453125</ele>
        <time>2018-08-18T15:19:32.000Z</time>
      </trkpt>
      <trkpt lat="52.27942608296871185302734375" lon="13.0086203478276729583740234375">
        <ele>60.799999237060546875</ele>
        <time>2018-08-18T15:19:35.000Z</time>
      </trkpt>
      <trkpt lat="52.279600091278553009033203125" lon="13.0088035762310028076171875">
        <ele>61.200000762939453125</ele>
        <time>2018-08-18T15:19:38.000Z</time>
      </trkpt>
      <trkpt lat="52.2800745069980621337890625" lon="13.00928964279592037200927734375">
        <ele>61.59999847412109375</ele>
        <time>2018-08-18T15:19:46.000Z</time>
      </trkpt>
      <trkpt lat="52.280583791434764862060546875" lon="13.00977964885532855987548828125">
        <ele>62</ele>
        <time>2018-08-18T15:19:54.000Z</time>
      </trkpt>
      <trkpt lat="52.281102798879146575927734375" lon="13.01031030714511871337890625">
        <ele>62</ele>
        <time>2018-08-18T15:20:02.000Z</time>
      </trkpt>
      <trkpt lat="52.2815971635282039642333984375" lon="13.01077575422823429107666015625">
        <ele>61.40000152587890625</ele>
        <time>2018-08-18T15:20:09.000Z</time>
      </trkpt>
      <trkpt lat="52.28210770525038242340087890625" lon="13.01124664954841136932373046875">
        <ele>61</ele>
        <time>2018-08-18T15:20:16.000Z</time>
      </trkpt>
      <trkpt lat="52.28260894306004047393798828125" lon="13.0117397569119930267333984375">
        <ele>60.59999847412109375</ele>
        <time>2018-08-18T15:20:23.000Z</time>
      </trkpt>
      <trkpt lat="52.28307967074215412139892578125" lon="13.01221861504018306732177734375">
        <ele>60.40000152587890625</ele>
        <time>2018-08-18T15:20:30.000Z</time>
      </trkpt>
      <trkpt lat="52.283412180840969085693359375" lon="13.01255875267088413238525390625">
        <ele>60</ele>
        <time>2018-08-18T15:20:35.000Z</time>
      </trkpt>
      <trkpt lat="52.28388014249503612518310546875" lon="13.0130307376384735107421875">
        <ele>59.40000152587890625</ele>
        <time>2018-08-18T15:20:42.000Z</time>
      </trkpt>
      <trkpt lat="52.2842748463153839111328125" lon="13.01342125050723552703857421875">
        <ele>59</ele>
        <time>2018-08-18T15:20:48.000Z</time>
      </trkpt>
      <trkpt lat="52.28433745913207530975341796875" lon="13.01348998211324214935302734375">
        <ele>59</ele>
        <time>2018-08-18T15:20:49.000Z</time>
      </trkpt>
      <trkpt lat="52.28480433113873004913330078125" lon="13.01396221853792667388916015625">
        <ele>59</ele>
        <time>2018-08-18T15:20:56.000Z</time>
      </trkpt>
      <trkpt lat="52.2852734662592411041259765625" lon="13.01445825956761837005615234375">
        <ele>59</ele>
        <time>2018-08-18T15:21:03.000Z</time>
      </trkpt>
      <trkpt lat="52.285765148699283599853515625" lon="13.0149151571094989776611328125">
        <ele>59.200000762939453125</ele>
        <time>2018-08-18T15:21:10.000Z</time>
      </trkpt>
      <trkpt lat="52.28624937124550342559814453125" lon="13.015372641384601593017578125">
        <ele>59.200000762939453125</ele>
        <time>2018-08-18T15:21:17.000Z</time>
      </trkpt>
      <trkpt lat="52.2867366112768650054931640625" lon="13.0158371664583683013916015625">
        <ele>59.200000762939453125</ele>
        <time>2018-08-18T15:21:24.000Z</time>
      </trkpt>
      <trkpt lat="52.28721731342375278472900390625" lon="13.016296662390232086181640625">
        <ele>59.200000762939453125</ele>
        <time>2018-08-18T15:21:31.000Z</time>
      </trkpt>
      <trkpt lat="52.28768267668783664703369140625" lon="13.0167725868523120880126953125">
        <ele>59.40000152587890625</ele>
        <time>2018-08-18T15:21:38.000Z</time>
      </trkpt>
      <trkpt lat="52.2882007621228694915771484375" lon="13.01729938946664333343505859375">
        <ele>59.59999847412109375</ele>
        <time>2018-08-18T15:21:46.000Z</time>
      </trkpt>
      <trkpt lat="52.28849756531417369842529296875" lon="13.0176335759460926055908203125">
        <ele>59.59999847412109375</ele>
        <time>2018-08-18T15:21:51.000Z</time>
      </trkpt>
      <trkpt lat="52.28874382562935352325439453125" lon="13.0178629048168659210205078125">
        <ele>59.59999847412109375</ele>
        <time>2018-08-18T15:21:56.000Z</time>
      </trkpt>
      <trkpt lat="52.288796044886112213134765625" lon="13.01790003664791584014892578125">
        <ele>59.799999237060546875</ele>
        <time>2018-08-18T15:21:57.000Z</time>
      </trkpt>
      <trkpt lat="52.2890171594917774200439453125" lon="13.01807203330099582672119140625">
        <ele>60.200000762939453125</ele>
        <time>2018-08-18T15:22:01.000Z</time>
      </trkpt>
      <trkpt lat="52.28931647725403308868408203125" lon="13.01840764470398426055908203125">
        <ele>60.40000152587890625</ele>
        <time>2018-08-18T15:22:06.000Z</time>
      </trkpt>
      <trkpt lat="52.2898137755692005157470703125" lon="13.01889848895370960235595703125">
        <ele>60.59999847412109375</ele>
        <time>2018-08-18T15:22:14.000Z</time>
      </trkpt>
      <trkpt lat="52.2903311066329479217529296875" lon="13.01941506564617156982421875">
        <ele>60.799999237060546875</ele>
        <time>2018-08-18T15:22:23.000Z</time>
      </trkpt>
      <trkpt lat="52.29080401360988616943359375" lon="13.01986928097903728485107421875">
        <ele>61</ele>
        <time>2018-08-18T15:22:31.000Z</time>
      </trkpt>
      <trkpt lat="52.29096989147365093231201171875" lon="13.0200445465743541717529296875">
        <ele>61</ele>
        <time>2018-08-18T15:22:34.000Z</time>
      </trkpt>
      <trkpt lat="52.29120592586696147918701171875" lon="13.02027404308319091796875">
        <ele>61.200000762939453125</ele>
        <time>2018-08-18T15:22:38.000Z</time>
      </trkpt>
      <trkpt lat="52.2915545292198657989501953125" lon="13.02062742412090301513671875">
        <ele>61.799999237060546875</ele>
        <time>2018-08-18T15:22:44.000Z</time>
      </trkpt>
      <trkpt lat="52.2919082455337047576904296875" lon="13.0209756083786487579345703125">
        <ele>63</ele>
        <time>2018-08-18T15:22:50.000Z</time>
      </trkpt>
      <trkpt lat="52.2924111597239971160888671875" lon="13.02147097885608673095703125">
        <ele>63.40000152587890625</ele>
        <time>2018-08-18T15:22:58.000Z</time>
      </trkpt>
      <trkpt lat="52.2929311729967594146728515625" lon="13.0219754017889499664306640625">
        <ele>64</ele>
        <time>2018-08-18T15:23:06.000Z</time>
      </trkpt>
      <trkpt lat="52.2934230230748653411865234375" lon="13.02245761267840862274169921875">
        <ele>64.1999969482421875</ele>
        <time>2018-08-18T15:23:14.000Z</time>
      </trkpt>
      <trkpt lat="52.2939286194741725921630859375" lon="13.022937476634979248046875">
        <ele>64.59999847412109375</ele>
        <time>2018-08-18T15:23:22.000Z</time>
      </trkpt>
      <trkpt lat="52.29439507238566875457763671875" lon="13.023450113832950592041015625">
        <ele>64.8000030517578125</ele>
        <time>2018-08-18T15:23:30.000Z</time>
      </trkpt>
      <trkpt lat="52.29475063271820545196533203125" lon="13.0238100327551364898681640625">
        <ele>64.8000030517578125</ele>
        <time>2018-08-18T15:23:36.000Z</time>
      </trkpt>
      <trkpt lat="52.295101918280124664306640625" lon="13.0241526849567890167236328125">
        <ele>65.59999847412109375</ele>
        <time>2018-08-18T15:23:42.000Z</time>
      </trkpt>
      <trkpt lat="52.29516101069748401641845703125" lon="13.0241959355771541595458984375">
        <ele>65.8000030517578125</ele>
        <time>2018-08-18T15:23:43.000Z</time>
      </trkpt>
      <trkpt lat="52.29541833512485027313232421875" lon="13.02437975071370601654052734375">
        <ele>66.59999847412109375</ele>
        <time>2018-08-18T15:23:47.000Z</time>
      </trkpt>
      <trkpt lat="52.29555713944137096405029296875" lon="13.02446139045059680938720703125">
        <ele>66.8000030517578125</ele>
        <time>2018-08-18T15:23:49.000Z</time>
      </trkpt>
      <trkpt lat="52.2961337305605411529541015625" lon="13.02467898465692996978759765625">
        <ele>67.59999847412109375</ele>
        <time>2018-08-18T15:23:57.000Z</time>
      </trkpt>
      <trkpt lat="52.29664728976786136627197265625" lon="13.02488735876977443695068359375">
        <ele>67.59999847412109375</ele>
        <time>2018-08-18T15:24:04.000Z</time>
      </trkpt>
      <trkpt lat="52.29720787145197391510009765625" lon="13.02503890357911586761474609375">
        <ele>67</ele>
        <time>2018-08-18T15:24:11.000Z</time>
      </trkpt>
      <trkpt lat="52.29780466295778751373291015625" lon="13.02523185499012470245361328125">
        <ele>66</ele>
        <time>2018-08-18T15:24:18.000Z</time>
      </trkpt>
      <trkpt lat="52.29797163046896457672119140625" lon="13.0252741836011409759521484375">
        <ele>65.8000030517578125</ele>
        <time>2018-08-18T15:24:20.000Z</time>
      </trkpt>
      <trkpt lat="52.29839466512203216552734375" lon="13.02543804980814456939697265625">
        <ele>64.59999847412109375</ele>
        <time>2018-08-18T15:24:29.000Z</time>
      </trkpt>
      <trkpt lat="52.2984079085290431976318359375" lon="13.025437295436859130859375">
        <ele>64</ele>
        <time>2018-08-18T15:24:32.000Z</time>
      </trkpt>
      <trkpt lat="52.2984246723353862762451171875" lon="13.02538826130330562591552734375">
        <ele>63</ele>
        <time>2018-08-18T15:26:04.000Z</time>
      </trkpt>
      <trkpt lat="52.29841520078480243682861328125" lon="13.02530025132000446319580078125">
        <ele>63</ele>
        <time>2018-08-18T15:26:07.000Z</time>
      </trkpt>
      <trkpt lat="52.29876480996608734130859375" lon="13.02513445727527141571044921875">
        <ele>63.40000152587890625</ele>
        <time>2018-08-18T15:26:19.000Z</time>
      </trkpt>
      <trkpt lat="52.2989067994058132171630859375" lon="13.0252084694802761077880859375">
        <ele>63.799999237060546875</ele>
        <time>2018-08-18T15:26:22.000Z</time>
      </trkpt>
      <trkpt lat="52.29941734112799167633056640625" lon="13.0255890078842639923095703125">
        <ele>64</ele>
        <time>2018-08-18T15:26:31.000Z</time>
      </trkpt>
      <trkpt lat="52.29964482598006725311279296875" lon="13.02581640891730785369873046875">
        <ele>63.799999237060546875</ele>
        <time>2018-08-18T15:26:35.000Z</time>
      </trkpt>
      <trkpt lat="52.30005537159740924835205078125" lon="13.0263906531035900115966796875">
        <ele>63.200000762939453125</ele>
        <time>2018-08-18T15:26:43.000Z</time>
      </trkpt>
      <trkpt lat="52.30049910955131053924560546875" lon="13.0269921384751796722412109375">
        <ele>62.40000152587890625</ele>
        <time>2018-08-18T15:26:57.000Z</time>
      </trkpt>
      <trkpt lat="52.30068988166749477386474609375" lon="13.02717310376465320587158203125">
        <ele>62.200000762939453125</ele>
        <time>2018-08-18T15:27:04.000Z</time>
      </trkpt>
      <trkpt lat="52.30087998323142528533935546875" lon="13.02691175602376461029052734375">
        <ele>62.200000762939453125</ele>
        <time>2018-08-18T15:27:09.000Z</time>
      </trkpt>
      <trkpt lat="52.30097763240337371826171875" lon="13.026766665279865264892578125">
        <ele>62.200000762939453125</ele>
        <time>2018-08-18T15:27:12.000Z</time>
      </trkpt>
      <trkpt lat="52.3010029457509517669677734375" lon="13.02634815685451030731201171875">
        <ele>62.59999847412109375</ele>
        <time>2018-08-18T15:27:18.000Z</time>
      </trkpt>
      <trkpt lat="52.30099515058100223541259765625" lon="13.026273138821125030517578125">
        <ele>62.59999847412109375</ele>
        <time>2018-08-18T15:27:19.000Z</time>
      </trkpt>
      <trkpt lat="52.30111836455762386322021484375" lon="13.02599041722714900970458984375">
        <ele>62.799999237060546875</ele>
        <time>2018-08-18T15:27:24.000Z</time>
      </trkpt>
      <trkpt lat="52.3011459410190582275390625" lon="13.0259330011904239654541015625">
        <ele>62.799999237060546875</ele>
        <time>2018-08-18T15:27:25.000Z</time>
      </trkpt>
      <trkpt lat="52.30121542699635028839111328125" lon="13.0257740803062915802001953125">
        <ele>63</ele>
        <time>2018-08-18T15:27:28.000Z</time>
      </trkpt>
      <trkpt lat="52.30124442838132381439208984375" lon="13.02575647830963134765625">
        <ele>63</ele>
        <time>2018-08-18T15:27:29.000Z</time>
      </trkpt>
      <trkpt lat="52.30143603868782520294189453125" lon="13.02581322379410266876220703125">
        <ele>63</ele>
        <time>2018-08-18T15:27:34.000Z</time>
      </trkpt>
      <trkpt lat="52.30157199315726757049560546875" lon="13.0258585698902606964111328125">
        <ele>63</ele>
        <time>2018-08-18T15:27:37.000Z</time>
      </trkpt>
      <trkpt lat="52.3021009750664234161376953125" lon="13.02604707889258861541748046875">
        <ele>63</ele>
        <time>2018-08-18T15:27:51.000Z</time>
      </trkpt>
      <trkpt lat="52.30240993201732635498046875" lon="13.02615554071962833404541015625">
        <ele>63.200000762939453125</ele>
        <time>2018-08-18T15:27:57.000Z</time>
      </trkpt>
      <trkpt lat="52.3025800846517086029052734375" lon="13.0263339914381504058837890625">
        <ele>63.200000762939453125</ele>
        <time>2018-08-18T15:28:03.000Z</time>
      </trkpt>
      <trkpt lat="52.30280245654284954071044921875" lon="13.026388473808765411376953125">
        <ele>63</ele>
        <time>2018-08-18T15:28:07.000Z</time>
      </trkpt>
      <trkpt lat="52.30338499881327152252197265625" lon="13.02654580213129520416259765625">
        <ele>62.59999847412109375</ele>
        <time>2018-08-18T15:28:15.000Z</time>
      </trkpt>
      <trkpt lat="52.30379554443061351776123046875" lon="13.0266588740050792694091796875">
        <ele>62</ele>
        <time>2018-08-18T15:28:20.000Z</time>
      </trkpt>
      <trkpt lat="52.30440876446664333343505859375" lon="13.02681821398437023162841796875">
        <ele>61</ele>
        <time>2018-08-18T15:28:27.000Z</time>
      </trkpt>
      <trkpt lat="52.30499700643122196197509765625" lon="13.02695433609187602996826171875">
        <ele>60.200000762939453125</ele>
        <time>2018-08-18T15:28:34.000Z</time>
      </trkpt>
      <trkpt lat="52.305157184600830078125" lon="13.02699088118970394134521484375">
        <ele>60</ele>
        <time>2018-08-18T15:28:36.000Z</time>
      </trkpt>
      <trkpt lat="52.30551517568528652191162109375" lon="13.0270893685519695281982421875">
        <ele>59.799999237060546875</ele>
        <time>2018-08-18T15:28:41.000Z</time>
      </trkpt>
      <trkpt lat="52.30588263832032680511474609375" lon="13.02715013734996318817138671875">
        <ele>59.59999847412109375</ele>
        <time>2018-08-18T15:28:51.000Z</time>
      </trkpt>
      <trkpt lat="52.3064847104251384735107421875" lon="13.02729883231222629547119140625">
        <ele>59.59999847412109375</ele>
        <time>2018-08-18T15:29:01.000Z</time>
      </trkpt>
      <trkpt lat="52.3070687614381313323974609375" lon="13.0274719186127185821533203125">
        <ele>59.799999237060546875</ele>
        <time>2018-08-18T15:29:08.000Z</time>
      </trkpt>
      <trkpt lat="52.30762012302875518798828125" lon="13.027641065418720245361328125">
        <ele>59.40000152587890625</ele>
        <time>2018-08-18T15:29:14.000Z</time>
      </trkpt>
      <trkpt lat="52.30781458318233489990234375" lon="13.027695380151271820068359375">
        <ele>58.799999237060546875</ele>
        <time>2018-08-18T15:29:16.000Z</time>
      </trkpt>
      <trkpt lat="52.308323197066783905029296875" lon="13.02782923914492130279541015625">
        <ele>57.799999237060546875</ele>
        <time>2018-08-18T15:29:21.000Z</time>
      </trkpt>
      <trkpt lat="52.30891923420131206512451171875" lon="13.02798346616327762603759765625">
        <ele>56.59999847412109375</ele>
        <time>2018-08-18T15:29:27.000Z</time>
      </trkpt>
      <trkpt lat="52.309113778173923492431640625" lon="13.02808606065809726715087890625">
        <ele>56.200000762939453125</ele>
        <time>2018-08-18T15:29:29.000Z</time>
      </trkpt>
      <trkpt lat="52.30936028994619846343994140625" lon="13.02838076837360858917236328125">
        <ele>55.59999847412109375</ele>
        <time>2018-08-18T15:29:32.000Z</time>
      </trkpt>
      <trkpt lat="52.30957369320094585418701171875" lon="13.02871562540531158447265625">
        <ele>54.40000152587890625</ele>
        <time>2018-08-18T15:29:35.000Z</time>
      </trkpt>
      <trkpt lat="52.30980553664267063140869140625" lon="13.02900287322700023651123046875">
        <ele>53.799999237060546875</ele>
        <time>2018-08-18T15:29:38.000Z</time>
      </trkpt>
      <trkpt lat="52.31024608947336673736572265625" lon="13.02926321513950824737548828125">
        <ele>53.40000152587890625</ele>
        <time>2018-08-18T15:29:43.000Z</time>
      </trkpt>
      <trkpt lat="52.31077549047768115997314453125" lon="13.02952154539525508880615234375">
        <ele>53</ele>
        <time>2018-08-18T15:29:49.000Z</time>
      </trkpt>
      <trkpt lat="52.3113559372723102569580078125" lon="13.02978037856519222259521484375">
        <ele>52.799999237060546875</ele>
        <time>2018-08-18T15:29:56.000Z</time>
      </trkpt>
      <trkpt lat="52.31188206933438777923583984375" lon="13.03000886924564838409423828125">
        <ele>52.799999237060546875</ele>
        <time>2018-08-18T15:30:03.000Z</time>
      </trkpt>
      <trkpt lat="52.31245120055973529815673828125" lon="13.03027893416583538055419921875">
        <ele>53.200000762939453125</ele>
        <time>2018-08-18T15:30:11.000Z</time>
      </trkpt>
      <trkpt lat="52.31301781721413135528564453125" lon="13.03055302239954471588134765625">
        <ele>53.40000152587890625</ele>
        <time>2018-08-18T15:30:19.000Z</time>
      </trkpt>
      <trkpt lat="52.31359348632395267486572265625" lon="13.03082945756614208221435546875">
        <ele>54</ele>
        <time>2018-08-18T15:30:27.000Z</time>
      </trkpt>
      <trkpt lat="52.313662134110927581787109375" lon="13.03086214698851108551025390625">
        <ele>54</ele>
        <time>2018-08-18T15:30:28.000Z</time>
      </trkpt>
      <trkpt lat="52.31407326646149158477783203125" lon="13.031082339584827423095703125">
        <ele>54.40000152587890625</ele>
        <time>2018-08-18T15:30:34.000Z</time>
      </trkpt>
      <trkpt lat="52.31461054645478725433349609375" lon="13.03131393156945705413818359375">
        <ele>55.200000762939453125</ele>
        <time>2018-08-18T15:30:42.000Z</time>
      </trkpt>
      <trkpt lat="52.31500935740768909454345703125" lon="13.031512834131717681884765625">
        <ele>55.59999847412109375</ele>
        <time>2018-08-18T15:30:48.000Z</time>
      </trkpt>
      <trkpt lat="52.31556859798729419708251953125" lon="13.03177560679614543914794921875">
        <ele>56.59999847412109375</ele>
        <time>2018-08-18T15:30:56.000Z</time>
      </trkpt>
      <trkpt lat="52.315629534423351287841796875" lon="13.03180678747594356536865234375">
        <ele>56.59999847412109375</ele>
        <time>2018-08-18T15:30:57.000Z</time>
      </trkpt>
      <trkpt lat="52.316025830805301666259765625" lon="13.031990937888622283935546875">
        <ele>56.799999237060546875</ele>
        <time>2018-08-18T15:31:09.000Z</time>
      </trkpt>
      <trkpt lat="52.31603966094553470611572265625" lon="13.03198515437543392181396484375">
        <ele>56.59999847412109375</ele>
        <time>2018-08-18T15:31:12.000Z</time>
      </trkpt>
      <trkpt lat="52.3160804808139801025390625" lon="13.032013736665248870849609375">
        <ele>56.40000152587890625</ele>
        <time>2018-08-18T15:31:20.000Z</time>
      </trkpt>
      <trkpt lat="52.31665137223899364471435546875" lon="13.03229377605020999908447265625">
        <ele>56.200000762939453125</ele>
        <time>2018-08-18T15:31:32.000Z</time>
      </trkpt>
      <trkpt lat="52.3172272928059101104736328125" lon="13.0325786769390106201171875">
        <ele>55.59999847412109375</ele>
        <time>2018-08-18T15:31:40.000Z</time>
      </trkpt>
      <trkpt lat="52.3177178017795085906982421875" lon="13.03294722922146320343017578125">
        <ele>55</ele>
        <time>2018-08-18T15:31:47.000Z</time>
      </trkpt>
      <trkpt lat="52.3178566060960292816162109375" lon="13.03301814012229442596435546875">
        <ele>54.799999237060546875</ele>
        <time>2018-08-18T15:31:49.000Z</time>
      </trkpt>
      <trkpt lat="52.31813563965260982513427734375" lon="13.0331528373062610626220703125">
        <ele>54.799999237060546875</ele>
        <time>2018-08-18T15:31:53.000Z</time>
      </trkpt>
      <trkpt lat="52.31872455216944217681884765625" lon="13.033378981053829193115234375">
        <ele>54.799999237060546875</ele>
        <time>2018-08-18T15:32:01.000Z</time>
      </trkpt>
      <trkpt lat="52.31895907782018184661865234375" lon="13.0334887839853763580322265625">
        <ele>55.200000762939453125</ele>
        <time>2018-08-18T15:32:05.000Z</time>
      </trkpt>
      <trkpt lat="52.319137193262577056884765625" lon="13.03358106873929500579833984375">
        <ele>55.799999237060546875</ele>
        <time>2018-08-18T15:32:09.000Z</time>
      </trkpt>
      <trkpt lat="52.3196154646575450897216796875" lon="13.03378097712993621826171875">
        <ele>57</ele>
        <time>2018-08-18T15:32:18.000Z</time>
      </trkpt>
      <trkpt lat="52.3197274468839168548583984375" lon="13.03381492383778095245361328125">
        <ele>57.40000152587890625</ele>
        <time>2018-08-18T15:32:20.000Z</time>
      </trkpt>
      <trkpt lat="52.319904975593090057373046875" lon="13.03389421664178371429443359375">
        <ele>58</ele>
        <time>2018-08-18T15:32:23.000Z</time>
      </trkpt>
      <trkpt lat="52.3202337138354778289794921875" lon="13.03404542617499828338623046875">
        <ele>59</ele>
        <time>2018-08-18T15:32:28.000Z</time>
      </trkpt>
      <trkpt lat="52.320301271975040435791015625" lon="13.0340731702744960784912109375">
        <ele>59.200000762939453125</ele>
        <time>2018-08-18T15:32:29.000Z</time>
      </trkpt>
      <trkpt lat="52.32049933634698390960693359375" lon="13.03416931070387363433837890625">
        <ele>59.59999847412109375</ele>
        <time>2018-08-18T15:32:32.000Z</time>
      </trkpt>
      <trkpt lat="52.3207443393766880035400390625" lon="13.03431850858032703399658203125">
        <ele>59.799999237060546875</ele>
        <time>2018-08-18T15:32:36.000Z</time>
      </trkpt>
      <trkpt lat="52.3212479241192340850830078125" lon="13.034553788602352142333984375">
        <ele>60</ele>
        <time>2018-08-18T15:32:45.000Z</time>
      </trkpt>
      <trkpt lat="52.32135663740336894989013671875" lon="13.03462008945643901824951171875">
        <ele>60</ele>
        <time>2018-08-18T15:32:47.000Z</time>
      </trkpt>
      <trkpt lat="52.32182451523840427398681640625" lon="13.03486995398998260498046875">
        <ele>59.40000152587890625</ele>
        <time>2018-08-18T15:32:58.000Z</time>
      </trkpt>
      <trkpt lat="52.32199114747345447540283203125" lon="13.03496056236326694488525390625">
        <ele>59.200000762939453125</ele>
        <time>2018-08-18T15:33:01.000Z</time>
      </trkpt>
      <trkpt lat="52.3225685767829418182373046875" lon="13.0351876281201839447021484375">
        <ele>59.200000762939453125</ele>
        <time>2018-08-18T15:33:10.000Z</time>
      </trkpt>
      <trkpt lat="52.323046512901782989501953125" lon="13.035387285053730010986328125">
        <ele>59.200000762939453125</ele>
        <time>2018-08-18T15:33:17.000Z</time>
      </trkpt>
      <trkpt lat="52.32357122004032135009765625" lon="13.035613261163234710693359375">
        <ele>59.200000762939453125</ele>
        <time>2018-08-18T15:33:24.000Z</time>
      </trkpt>
      <trkpt lat="52.32409634627401828765869140625" lon="13.03585055284202098846435546875">
        <ele>59</ele>
        <time>2018-08-18T15:33:31.000Z</time>
      </trkpt>
      <trkpt lat="52.32461870647966861724853515625" lon="13.03607200272381305694580078125">
        <ele>58.799999237060546875</ele>
        <time>2018-08-18T15:33:38.000Z</time>
      </trkpt>
      <trkpt lat="52.32517425902187824249267578125" lon="13.036364950239658355712890625">
        <ele>58.59999847412109375</ele>
        <time>2018-08-18T15:33:46.000Z</time>
      </trkpt>
      <trkpt lat="52.32545052655041217803955078125" lon="13.03652278147637844085693359375">
        <ele>58.59999847412109375</ele>
        <time>2018-08-18T15:33:50.000Z</time>
      </trkpt>
      <trkpt lat="52.3260051570832729339599609375" lon="13.0367832072079181671142578125">
        <ele>58.40000152587890625</ele>
        <time>2018-08-18T15:33:58.000Z</time>
      </trkpt>
      <trkpt lat="52.32656716369092464447021484375" lon="13.037042208015918731689453125">
        <ele>58.59999847412109375</ele>
        <time>2018-08-18T15:34:07.000Z</time>
      </trkpt>
      <trkpt lat="52.32714316807687282562255859375" lon="13.037306405603885650634765625">
        <ele>58.799999237060546875</ele>
        <time>2018-08-18T15:34:16.000Z</time>
      </trkpt>
      <trkpt lat="52.32720670290291309356689453125" lon="13.037324510514736175537109375">
        <ele>58.799999237060546875</ele>
        <time>2018-08-18T15:34:17.000Z</time>
      </trkpt>
      <trkpt lat="52.32748196460306644439697265625" lon="13.03741914220154285430908203125">
        <ele>58.799999237060546875</ele>
        <time>2018-08-18T15:34:21.000Z</time>
      </trkpt>
      <trkpt lat="52.328038103878498077392578125" lon="13.03768451325595378875732421875">
        <ele>58.59999847412109375</ele>
        <time>2018-08-18T15:34:29.000Z</time>
      </trkpt>
      <trkpt lat="52.32847698032855987548828125" lon="13.03793127648532390594482421875">
        <ele>58.59999847412109375</ele>
        <time>2018-08-18T15:34:35.000Z</time>
      </trkpt>
      <trkpt lat="52.32884109020233154296875" lon="13.03856360726058483123779296875">
        <ele>59</ele>
        <time>2018-08-18T15:34:42.000Z</time>
      </trkpt>
      <trkpt lat="52.328886687755584716796875" lon="13.03879008628427982330322265625">
        <ele>59</ele>
        <time>2018-08-18T15:34:44.000Z</time>
      </trkpt>
      <trkpt lat="52.32895374298095703125" lon="13.0394094251096248626708984375">
        <ele>59</ele>
        <time>2018-08-18T15:34:50.000Z</time>
      </trkpt>
      <trkpt lat="52.32911827974021434783935546875" lon="13.03944555111229419708251953125">
        <ele>58.799999237060546875</ele>
        <time>2018-08-18T15:34:54.000Z</time>
      </trkpt>
      <trkpt lat="52.3295114748179912567138671875" lon="13.03933675400912761688232421875">
        <ele>58.200000762939453125</ele>
        <time>2018-08-18T15:35:00.000Z</time>
      </trkpt>
      <trkpt lat="52.3300505988299846649169921875" lon="13.03926986642181873321533203125">
        <ele>58</ele>
        <time>2018-08-18T15:35:07.000Z</time>
      </trkpt>
      <trkpt lat="52.330621071159839630126953125" lon="13.03927472792565822601318359375">
        <ele>58.200000762939453125</ele>
        <time>2018-08-18T15:35:15.000Z</time>
      </trkpt>
      <trkpt lat="52.3311834968626499176025390625" lon="13.0393373407423496246337890625">
        <ele>58.59999847412109375</ele>
        <time>2018-08-18T15:35:23.000Z</time>
      </trkpt>
      <trkpt lat="52.3316632770001888275146484375" lon="13.03947354666888713836669921875">
        <ele>59</ele>
        <time>2018-08-18T15:35:30.000Z</time>
      </trkpt>
      <trkpt lat="52.33221254311501979827880859375" lon="13.0396883748471736907958984375">
        <ele>59.40000152587890625</ele>
        <time>2018-08-18T15:35:38.000Z</time>
      </trkpt>
      <trkpt lat="52.33278050087392330169677734375" lon="13.03994880057871341705322265625">
        <ele>59.40000152587890625</ele>
        <time>2018-08-18T15:35:46.000Z</time>
      </trkpt>
      <trkpt lat="52.3333249054849147796630859375" lon="13.04020025767385959625244140625">
        <ele>58.59999847412109375</ele>
        <time>2018-08-18T15:35:53.000Z</time>
      </trkpt>
      <trkpt lat="52.33379018492996692657470703125" lon="13.04042103700339794158935546875">
        <ele>57.799999237060546875</ele>
        <time>2018-08-18T15:35:59.000Z</time>
      </trkpt>
      <trkpt lat="52.334364093840122222900390625" lon="13.040685318410396575927734375">
        <ele>57</ele>
        <time>2018-08-18T15:36:06.000Z</time>
      </trkpt>
      <trkpt lat="52.33452670276165008544921875" lon="13.040760420262813568115234375">
        <ele>56.59999847412109375</ele>
        <time>2018-08-18T15:36:08.000Z</time>
      </trkpt>
      <trkpt lat="52.3351001925766468048095703125" lon="13.04103023372590541839599609375">
        <ele>56</ele>
        <time>2018-08-18T15:36:15.000Z</time>
      </trkpt>
      <trkpt lat="52.33541124500334262847900390625" lon="13.0411478318274021148681640625">
        <ele>55.59999847412109375</ele>
        <time>2018-08-18T15:36:19.000Z</time>
      </trkpt>
      <trkpt lat="52.33598406426608562469482421875" lon="13.04147179238498210906982421875">
        <ele>55.40000152587890625</ele>
        <time>2018-08-18T15:36:27.000Z</time>
      </trkpt>
      <trkpt lat="52.33605145476758480072021484375" lon="13.04153013043105602264404296875">
        <ele>55.40000152587890625</ele>
        <time>2018-08-18T15:36:28.000Z</time>
      </trkpt>
      <trkpt lat="52.3363175801932811737060546875" lon="13.0417278595268726348876953125">
        <ele>55.40000152587890625</ele>
        <time>2018-08-18T15:36:32.000Z</time>
      </trkpt>
      <trkpt lat="52.33637315221130847930908203125" lon="13.04175728000700473785400390625">
        <ele>55.40000152587890625</ele>
        <time>2018-08-18T15:36:33.000Z</time>
      </trkpt>
      <trkpt lat="52.33676760457456111907958984375" lon="13.04181058891117572784423828125">
        <ele>55.40000152587890625</ele>
        <time>2018-08-18T15:36:40.000Z</time>
      </trkpt>
      <trkpt lat="52.33729331754148006439208984375" lon="13.0420792289078235626220703125">
        <ele>55.59999847412109375</ele>
        <time>2018-08-18T15:36:47.000Z</time>
      </trkpt>
      <trkpt lat="52.3375738598406314849853515625" lon="13.04222851060330867767333984375">
        <ele>55.799999237060546875</ele>
        <time>2018-08-18T15:36:51.000Z</time>
      </trkpt>
      <trkpt lat="52.3381550610065460205078125" lon="13.042509220540523529052734375">
        <ele>56</ele>
        <time>2018-08-18T15:36:59.000Z</time>
      </trkpt>
      <trkpt lat="52.3387198336422443389892578125" lon="13.042770065367221832275390625">
        <ele>56</ele>
        <time>2018-08-18T15:37:07.000Z</time>
      </trkpt>
      <trkpt lat="52.33904664404690265655517578125" lon="13.04292521439492702484130859375">
        <ele>56.200000762939453125</ele>
        <time>2018-08-18T15:37:12.000Z</time>
      </trkpt>
      <trkpt lat="52.33959917910397052764892578125" lon="13.043154962360858917236328125">
        <ele>56.40000152587890625</ele>
        <time>2018-08-18T15:37:20.000Z</time>
      </trkpt>
      <trkpt lat="52.340176440775394439697265625" lon="13.043394349515438079833984375">
        <ele>56.59999847412109375</ele>
        <time>2018-08-18T15:37:28.000Z</time>
      </trkpt>
      <trkpt lat="52.3407717235386371612548828125" lon="13.04365259595215320587158203125">
        <ele>56.59999847412109375</ele>
        <time>2018-08-18T15:37:36.000Z</time>
      </trkpt>
      <trkpt lat="52.341327108442783355712890625" lon="13.04392601363360881805419921875">
        <ele>56.40000152587890625</ele>
        <time>2018-08-18T15:37:43.000Z</time>
      </trkpt>
      <trkpt lat="52.341476976871490478515625" lon="13.04401737637817859649658203125">
        <ele>56.40000152587890625</ele>
        <time>2018-08-18T15:37:45.000Z</time>
      </trkpt>
      <trkpt lat="52.34197762794792652130126953125" lon="13.0442357249557971954345703125">
        <ele>56.40000152587890625</ele>
        <time>2018-08-18T15:37:52.000Z</time>
      </trkpt>
      <trkpt lat="52.34253971837460994720458984375" lon="13.0445237271487712860107421875">
        <ele>56.799999237060546875</ele>
        <time>2018-08-18T15:38:00.000Z</time>
      </trkpt>
      <trkpt lat="52.34305746853351593017578125" lon="13.04478147067129611968994140625">
        <ele>57</ele>
        <time>2018-08-18T15:38:07.000Z</time>
      </trkpt>
      <trkpt lat="52.343590557575225830078125" lon="13.0450447462499141693115234375">
        <ele>57</ele>
        <time>2018-08-18T15:38:14.000Z</time>
      </trkpt>
      <trkpt lat="52.34412758611142635345458984375" lon="13.045277260243892669677734375">
        <ele>56.799999237060546875</ele>
        <time>2018-08-18T15:38:21.000Z</time>
      </trkpt>
      <trkpt lat="52.34467023052275180816650390625" lon="13.04546828381717205047607421875">
        <ele>56.59999847412109375</ele>
        <time>2018-08-18T15:38:28.000Z</time>
      </trkpt>
      <trkpt lat="52.345265932381153106689453125" lon="13.0456586368381977081298828125">
        <ele>56.799999237060546875</ele>
        <time>2018-08-18T15:38:36.000Z</time>
      </trkpt>
      <trkpt lat="52.34541035257279872894287109375" lon="13.04568571038544178009033203125">
        <ele>57.40000152587890625</ele>
        <time>2018-08-18T15:38:38.000Z</time>
      </trkpt>
      <trkpt lat="52.34555661678314208984375" lon="13.045730553567409515380859375">
        <ele>57.40000152587890625</ele>
        <time>2018-08-18T15:38:40.000Z</time>
      </trkpt>
      <trkpt lat="52.346173189580440521240234375" lon="13.04580724798142910003662109375">
        <ele>58</ele>
        <time>2018-08-18T15:38:48.000Z</time>
      </trkpt>
      <trkpt lat="52.346734106540679931640625" lon="13.04586441256105899810791015625">
        <ele>58.59999847412109375</ele>
        <time>2018-08-18T15:38:55.000Z</time>
      </trkpt>
      <trkpt lat="52.3470799438655376434326171875" lon="13.04577925242483615875244140625">
        <ele>58.799999237060546875</ele>
        <time>2018-08-18T15:39:00.000Z</time>
      </trkpt>
      <trkpt lat="52.347647733986377716064453125" lon="13.04559116251766681671142578125">
        <ele>59.40000152587890625</ele>
        <time>2018-08-18T15:39:08.000Z</time>
      </trkpt>
      <trkpt lat="52.3482161946594715118408203125" lon="13.04538764990866184234619140625">
        <ele>59.40000152587890625</ele>
        <time>2018-08-18T15:39:15.000Z</time>
      </trkpt>
      <trkpt lat="52.3487724177539348602294921875" lon="13.04516100324690341949462890625">
        <ele>58.799999237060546875</ele>
        <time>2018-08-18T15:39:22.000Z</time>
      </trkpt>
      <trkpt lat="52.349309027194976806640625" lon="13.04493703879415988922119140625">
        <ele>58.200000762939453125</ele>
        <time>2018-08-18T15:39:29.000Z</time>
      </trkpt>
      <trkpt lat="52.3498627357184886932373046875" lon="13.04473268799483776092529296875">
        <ele>58</ele>
        <time>2018-08-18T15:39:37.000Z</time>
      </trkpt>
      <trkpt lat="52.35010991804301738739013671875" lon="13.04464786313474178314208984375">
        <ele>58.200000762939453125</ele>
        <time>2018-08-18T15:39:41.000Z</time>
      </trkpt>
      <trkpt lat="52.3505772091448307037353515625" lon="13.04444669745862483978271484375">
        <ele>59.799999237060546875</ele>
        <time>2018-08-18T15:39:49.000Z</time>
      </trkpt>
      <trkpt lat="52.3507753573358058929443359375" lon="13.04438643157482147216796875">
        <ele>60.799999237060546875</ele>
        <time>2018-08-18T15:39:52.000Z</time>
      </trkpt>
      <trkpt lat="52.35135647468268871307373046875" lon="13.0441827513277530670166015625">
        <ele>61.799999237060546875</ele>
        <time>2018-08-18T15:40:00.000Z</time>
      </trkpt>
      <trkpt lat="52.35164347104728221893310546875" lon="13.0441059730947017669677734375">
        <ele>61.799999237060546875</ele>
        <time>2018-08-18T15:40:04.000Z</time>
      </trkpt>
      <trkpt lat="52.3522116802632808685302734375" lon="13.0440811626613140106201171875">
        <ele>62.40000152587890625</ele>
        <time>2018-08-18T15:40:12.000Z</time>
      </trkpt>
      <trkpt lat="52.35242902301251888275146484375" lon="13.04410002194344997406005859375">
        <ele>62.799999237060546875</ele>
        <time>2018-08-18T15:40:15.000Z</time>
      </trkpt>
      <trkpt lat="52.35298273153603076934814453125" lon="13.0441602878272533416748046875">
        <ele>63</ele>
        <time>2018-08-18T15:40:22.000Z</time>
      </trkpt>
      <trkpt lat="52.35357172787189483642578125" lon="13.04420026950538158416748046875">
        <ele>62.59999847412109375</ele>
        <time>2018-08-18T15:40:29.000Z</time>
      </trkpt>
      <trkpt lat="52.354178242385387420654296875" lon="13.04423647932708263397216796875">
        <ele>62</ele>
        <time>2018-08-18T15:40:36.000Z</time>
      </trkpt>
      <trkpt lat="52.35472314991056919097900390625" lon="13.04427486844360828399658203125">
        <ele>62</ele>
        <time>2018-08-18T15:40:43.000Z</time>
      </trkpt>
      <trkpt lat="52.3553351126611232757568359375" lon="13.04431124590337276458740234375">
        <ele>62.40000152587890625</ele>
        <time>2018-08-18T15:40:51.000Z</time>
      </trkpt>
      <trkpt lat="52.35587549395859241485595703125" lon="13.0443601123988628387451171875">
        <ele>62.799999237060546875</ele>
        <time>2018-08-18T15:40:58.000Z</time>
      </trkpt>
      <trkpt lat="52.35642735846340656280517578125" lon="13.04440931417047977447509765625">
        <ele>63</ele>
        <time>2018-08-18T15:41:05.000Z</time>
      </trkpt>
      <trkpt lat="52.356974780559539794921875" lon="13.04448223672807216644287109375">
        <ele>63.40000152587890625</ele>
        <time>2018-08-18T15:41:12.000Z</time>
      </trkpt>
      <trkpt lat="52.3575179278850555419921875" lon="13.0445451848208904266357421875">
        <ele>64</ele>
        <time>2018-08-18T15:41:19.000Z</time>
      </trkpt>
      <trkpt lat="52.35775069333612918853759765625" lon="13.04455247707664966583251953125">
        <ele>64</ele>
        <time>2018-08-18T15:41:22.000Z</time>
      </trkpt>
      <trkpt lat="52.35833667218685150146484375" lon="13.04460561834275722503662109375">
        <ele>65</ele>
        <time>2018-08-18T15:41:30.000Z</time>
      </trkpt>
      <trkpt lat="52.35868846066296100616455078125" lon="13.04463922977447509765625">
        <ele>66.1999969482421875</ele>
        <time>2018-08-18T15:41:35.000Z</time>
      </trkpt>
      <trkpt lat="52.35903731547296047210693359375" lon="13.04467753507196903228759765625">
        <ele>67.40000152587890625</ele>
        <time>2018-08-18T15:41:40.000Z</time>
      </trkpt>
      <trkpt lat="52.3593963123857975006103515625" lon="13.04469346068799495697021484375">
        <ele>68.40000152587890625</ele>
        <time>2018-08-18T15:41:45.000Z</time>
      </trkpt>
      <trkpt lat="52.3599146492779254913330078125" lon="13.044742830097675323486328125">
        <ele>69.1999969482421875</ele>
        <time>2018-08-18T15:41:52.000Z</time>
      </trkpt>
      <trkpt lat="52.36045536585152149200439453125" lon="13.0448006652295589447021484375">
        <ele>70.1999969482421875</ele>
        <time>2018-08-18T15:41:59.000Z</time>
      </trkpt>
      <trkpt lat="52.36061680130660533905029296875" lon="13.0448110587894916534423828125">
        <ele>70.1999969482421875</ele>
        <time>2018-08-18T15:42:01.000Z</time>
      </trkpt>
      <trkpt lat="52.361229769885540008544921875" lon="13.0448358692228794097900390625">
        <ele>70.1999969482421875</ele>
        <time>2018-08-18T15:42:08.000Z</time>
      </trkpt>
      <trkpt lat="52.361852042376995086669921875" lon="13.044883310794830322265625">
        <ele>70</ele>
        <time>2018-08-18T15:42:15.000Z</time>
      </trkpt>
      <trkpt lat="52.36239577643573284149169921875" lon="13.044915162026882171630859375">
        <ele>69.8000030517578125</ele>
        <time>2018-08-18T15:42:21.000Z</time>
      </trkpt>
      <trkpt lat="52.362575568258762359619140625" lon="13.04492848925292491912841796875">
        <ele>69.40000152587890625</ele>
        <time>2018-08-18T15:42:23.000Z</time>
      </trkpt>
      <trkpt lat="52.36311946995556354522705078125" lon="13.04496721364557743072509765625">
        <ele>68.8000030517578125</ele>
        <time>2018-08-18T15:42:29.000Z</time>
      </trkpt>
      <trkpt lat="52.36374375410377979278564453125" lon="13.04501079954206943511962890625">
        <ele>68.59999847412109375</ele>
        <time>2018-08-18T15:42:36.000Z</time>
      </trkpt>
      <trkpt lat="52.3643731512129306793212890625" lon="13.04506863467395305633544921875">
        <ele>68.59999847412109375</ele>
        <time>2018-08-18T15:42:43.000Z</time>
      </trkpt>
      <trkpt lat="52.3649199865758419036865234375" lon="13.04511423222720623016357421875">
        <ele>68.59999847412109375</ele>
        <time>2018-08-18T15:42:49.000Z</time>
      </trkpt>
      <trkpt lat="52.36552767455577850341796875" lon="13.04522923193871974945068359375">
        <ele>68.8000030517578125</ele>
        <time>2018-08-18T15:42:56.000Z</time>
      </trkpt>
      <trkpt lat="52.3660703189671039581298828125" lon="13.0455268733203411102294921875">
        <ele>69</ele>
        <time>2018-08-18T15:43:03.000Z</time>
      </trkpt>
      <trkpt lat="52.36657373607158660888671875" lon="13.04595024324953556060791015625">
        <ele>69.1999969482421875</ele>
        <time>2018-08-18T15:43:10.000Z</time>
      </trkpt>
      <trkpt lat="52.36705427058041095733642578125" lon="13.04641325958073139190673828125">
        <ele>69.40000152587890625</ele>
        <time>2018-08-18T15:43:17.000Z</time>
      </trkpt>
      <trkpt lat="52.36711864359676837921142578125" lon="13.0464988388121128082275390625">
        <ele>69.59999847412109375</ele>
        <time>2018-08-18T15:43:18.000Z</time>
      </trkpt>
      <trkpt lat="52.36723624169826507568359375" lon="13.0466698296368122100830078125">
        <ele>69.59999847412109375</ele>
        <time>2018-08-18T15:43:20.000Z</time>
      </trkpt>
      <trkpt lat="52.367523573338985443115234375" lon="13.0469445884227752685546875">
        <ele>70.40000152587890625</ele>
        <time>2018-08-18T15:43:24.000Z</time>
      </trkpt>
      <trkpt lat="52.3680316843092441558837890625" lon="13.0474117957055568695068359375">
        <ele>70.8000030517578125</ele>
        <time>2018-08-18T15:43:31.000Z</time>
      </trkpt>
      <trkpt lat="52.3685144819319248199462890625" lon="13.0478748120367527008056640625">
        <ele>70.8000030517578125</ele>
        <time>2018-08-18T15:43:38.000Z</time>
      </trkpt>
      <trkpt lat="52.368981353938579559326171875" lon="13.04828745312988758087158203125">
        <ele>71.40000152587890625</ele>
        <time>2018-08-18T15:43:44.000Z</time>
      </trkpt>
      <trkpt lat="52.36945736221969127655029296875" lon="13.04873219691216945648193359375">
        <ele>71.59999847412109375</ele>
        <time>2018-08-18T15:43:50.000Z</time>
      </trkpt>
      <trkpt lat="52.3699316941201686859130859375" lon="13.04917610250413417816162109375">
        <ele>71.40000152587890625</ele>
        <time>2018-08-18T15:43:56.000Z</time>
      </trkpt>
      <trkpt lat="52.3704483546316623687744140625" lon="13.04963023401796817779541015625">
        <ele>70.1999969482421875</ele>
        <time>2018-08-18T15:44:02.000Z</time>
      </trkpt>
      <trkpt lat="52.37063837237656116485595703125" lon="13.0497406236827373504638671875">
        <ele>69.40000152587890625</ele>
        <time>2018-08-18T15:44:04.000Z</time>
      </trkpt>
      <trkpt lat="52.37072906456887722015380859375" lon="13.04981547407805919647216796875">
        <ele>69</ele>
        <time>2018-08-18T15:44:05.000Z</time>
      </trkpt>
      <trkpt lat="52.37098907120525836944580078125" lon="13.05005486123263835906982421875">
        <ele>67.8000030517578125</ele>
        <time>2018-08-18T15:44:08.000Z</time>
      </trkpt>
      <trkpt lat="52.371253184974193572998046875" lon="13.050296008586883544921875">
        <ele>66.40000152587890625</ele>
        <time>2018-08-18T15:44:11.000Z</time>
      </trkpt>
      <trkpt lat="52.37150967121124267578125" lon="13.05053279735147953033447265625">
        <ele>65.1999969482421875</ele>
        <time>2018-08-18T15:44:14.000Z</time>
      </trkpt>
      <trkpt lat="52.37184955738484859466552734375" lon="13.05084946565330028533935546875">
        <ele>64</ele>
        <time>2018-08-18T15:44:18.000Z</time>
      </trkpt>
      <trkpt lat="52.37212398089468479156494140625" lon="13.05111953057348728179931640625">
        <ele>63</ele>
        <time>2018-08-18T15:44:21.000Z</time>
      </trkpt>
      <trkpt lat="52.372424639761447906494140625" lon="13.0514066107571125030517578125">
        <ele>61.799999237060546875</ele>
        <time>2018-08-18T15:44:24.000Z</time>
      </trkpt>
      <trkpt lat="52.37271624617278575897216796875" lon="13.051688410341739654541015625">
        <ele>60.40000152587890625</ele>
        <time>2018-08-18T15:44:27.000Z</time>
      </trkpt>
      <trkpt lat="52.3729897476732730865478515625" lon="13.0519685335457324981689453125">
        <ele>58.799999237060546875</ele>
        <time>2018-08-18T15:44:30.000Z</time>
      </trkpt>
      <trkpt lat="52.3731721378862857818603515625" lon="13.0521408654749393463134765625">
        <ele>57.59999847412109375</ele>
        <time>2018-08-18T15:44:32.000Z</time>
      </trkpt>
      <trkpt lat="52.37334824167191982269287109375" lon="13.05231261067092418670654296875">
        <ele>56.59999847412109375</ele>
        <time>2018-08-18T15:44:34.000Z</time>
      </trkpt>
      <trkpt lat="52.3738269321620464324951171875" lon="13.05277235805988311767578125">
        <ele>55.799999237060546875</ele>
        <time>2018-08-18T15:44:40.000Z</time>
      </trkpt>
      <trkpt lat="52.37432775087654590606689453125" lon="13.05321819148957729339599609375">
        <ele>56.200000762939453125</ele>
        <time>2018-08-18T15:44:47.000Z</time>
      </trkpt>
      <trkpt lat="52.3748253844678401947021484375" lon="13.05360677652060985565185546875">
        <ele>58</ele>
        <time>2018-08-18T15:44:54.000Z</time>
      </trkpt>
      <trkpt lat="52.3750272206962108612060546875" lon="13.05373392999172210693359375">
        <ele>59</ele>
        <time>2018-08-18T15:44:57.000Z</time>
      </trkpt>
      <trkpt lat="52.37552133388817310333251953125" lon="13.05394842289388179779052734375">
        <ele>60</ele>
        <time>2018-08-18T15:45:04.000Z</time>
      </trkpt>
      <trkpt lat="52.3755898140370845794677734375" lon="13.05396535433828830718994140625">
        <ele>60.200000762939453125</ele>
        <time>2018-08-18T15:45:05.000Z</time>
      </trkpt>
      <trkpt lat="52.3760011978447437286376953125" lon="13.054068870842456817626953125">
        <ele>61.200000762939453125</ele>
        <time>2018-08-18T15:45:11.000Z</time>
      </trkpt>
      <trkpt lat="52.37647821195423603057861328125" lon="13.05411974899470806121826171875">
        <ele>62.40000152587890625</ele>
        <time>2018-08-18T15:45:18.000Z</time>
      </trkpt>
      <trkpt lat="52.376850284636020660400390625" lon="13.054190240800380706787109375">
        <ele>63.200000762939453125</ele>
        <time>2018-08-18T15:45:24.000Z</time>
      </trkpt>
      <trkpt lat="52.3769129812717437744140625" lon="13.05418613366782665252685546875">
        <ele>63.40000152587890625</ele>
        <time>2018-08-18T15:45:25.000Z</time>
      </trkpt>
      <trkpt lat="52.377037368714809417724609375" lon="13.05418479256331920623779296875">
        <ele>63.799999237060546875</ele>
        <time>2018-08-18T15:45:27.000Z</time>
      </trkpt>
      <trkpt lat="52.37728974781930446624755859375" lon="13.05416107177734375">
        <ele>64.40000152587890625</ele>
        <time>2018-08-18T15:45:31.000Z</time>
      </trkpt>
      <trkpt lat="52.37780682742595672607421875" lon="13.05418127216398715972900390625">
        <ele>65.40000152587890625</ele>
        <time>2018-08-18T15:45:39.000Z</time>
      </trkpt>
      <trkpt lat="52.37835927866399288177490234375" lon="13.0542470701038837432861328125">
        <ele>65.8000030517578125</ele>
        <time>2018-08-18T15:45:47.000Z</time>
      </trkpt>
      <trkpt lat="52.37894902937114238739013671875" lon="13.05433684028685092926025390625">
        <ele>65.8000030517578125</ele>
        <time>2018-08-18T15:45:56.000Z</time>
      </trkpt>
      <trkpt lat="52.37953542731702327728271484375" lon="13.0544038116931915283203125">
        <ele>65.59999847412109375</ele>
        <time>2018-08-18T15:46:04.000Z</time>
      </trkpt>
      <trkpt lat="52.3799671791493892669677734375" lon="13.05443155579268932342529296875">
        <ele>64.40000152587890625</ele>
        <time>2018-08-18T15:46:09.000Z</time>
      </trkpt>
      <trkpt lat="52.380350567400455474853515625" lon="13.05445519275963306427001953125">
        <ele>62.799999237060546875</ele>
        <time>2018-08-18T15:46:13.000Z</time>
      </trkpt>
      <trkpt lat="52.3805401660501956939697265625" lon="13.05446944199502468109130859375">
        <ele>61.40000152587890625</ele>
        <time>2018-08-18T15:46:15.000Z</time>
      </trkpt>
      <trkpt lat="52.3808228038251399993896484375" lon="13.054489307105541229248046875">
        <ele>60.40000152587890625</ele>
        <time>2018-08-18T15:46:18.000Z</time>
      </trkpt>
      <trkpt lat="52.381078787147998809814453125" lon="13.05451218970119953155517578125">
        <ele>59</ele>
        <time>2018-08-18T15:46:21.000Z</time>
      </trkpt>
      <trkpt lat="52.3812931962311267852783203125" lon="13.05452660657465457916259765625">
        <ele>57.799999237060546875</ele>
        <time>2018-08-18T15:46:24.000Z</time>
      </trkpt>
      <trkpt lat="52.38141263835132122039794921875" lon="13.0545488186180591583251953125">
        <ele>56.799999237060546875</ele>
        <time>2018-08-18T15:46:26.000Z</time>
      </trkpt>
      <trkpt lat="52.381471060216426849365234375" lon="13.05457480251789093017578125">
        <ele>56.40000152587890625</ele>
        <time>2018-08-18T15:46:27.000Z</time>
      </trkpt>
      <trkpt lat="52.38157759420573711395263671875" lon="13.054650239646434783935546875">
        <ele>55.59999847412109375</ele>
        <time>2018-08-18T15:46:29.000Z</time>
      </trkpt>
      <trkpt lat="52.38168639130890369415283203125" lon="13.0547509901225566864013671875">
        <ele>54.40000152587890625</ele>
        <time>2018-08-18T15:46:33.000Z</time>
      </trkpt>
      <trkpt lat="52.38171212375164031982421875" lon="13.054744787514209747314453125">
        <ele>53.799999237060546875</ele>
        <time>2018-08-18T15:46:36.000Z</time>
      </trkpt>
      <trkpt lat="52.38172595389187335968017578125" lon="13.05472710169851779937744140625">
        <ele>53.40000152587890625</ele>
        <time>2018-08-18T15:46:37.000Z</time>
      </trkpt>
      <trkpt lat="52.38183257170021533966064453125" lon="13.05463775061070919036865234375">
        <ele>53</ele>
        <time>2018-08-18T15:46:41.000Z</time>
      </trkpt>
      <trkpt lat="52.38204580731689929962158203125" lon="13.05460824631154537200927734375">
        <ele>52.799999237060546875</ele>
        <time>2018-08-18T15:46:45.000Z</time>
      </trkpt>
      <trkpt lat="52.38262348808348178863525390625" lon="13.05467027239501476287841796875">
        <ele>52.59999847412109375</ele>
        <time>2018-08-18T15:46:54.000Z</time>
      </trkpt>
      <trkpt lat="52.38276296295225620269775390625" lon="13.054682426154613494873046875">
        <ele>52.40000152587890625</ele>
        <time>2018-08-18T15:46:56.000Z</time>
      </trkpt>
      <trkpt lat="52.38306253217160701751708984375" lon="13.05473506450653076171875">
        <ele>51.799999237060546875</ele>
        <time>2018-08-18T15:47:00.000Z</time>
      </trkpt>
      <trkpt lat="52.383356653153896331787109375" lon="13.0547469668090343475341796875">
        <ele>51.59999847412109375</ele>
        <time>2018-08-18T15:47:04.000Z</time>
      </trkpt>
      <trkpt lat="52.38370475359261035919189453125" lon="13.05478057824075222015380859375">
        <ele>51.40000152587890625</ele>
        <time>2018-08-18T15:47:09.000Z</time>
      </trkpt>
      <trkpt lat="52.38428712822496891021728515625" lon="13.054943270981311798095703125">
        <ele>51</ele>
        <time>2018-08-18T15:47:17.000Z</time>
      </trkpt>
      <trkpt lat="52.3846350610256195068359375" lon="13.05526019074022769927978515625">
        <ele>50.200000762939453125</ele>
        <time>2018-08-18T15:47:22.000Z</time>
      </trkpt>
      <trkpt lat="52.384978048503398895263671875" lon="13.05560166947543621063232421875">
        <ele>49</ele>
        <time>2018-08-18T15:47:27.000Z</time>
      </trkpt>
      <trkpt lat="52.3853188566863536834716796875" lon="13.055934347212314605712890625">
        <ele>47.799999237060546875</ele>
        <time>2018-08-18T15:47:32.000Z</time>
      </trkpt>
      <trkpt lat="52.385651282966136932373046875" lon="13.05631379596889019012451171875">
        <ele>46.799999237060546875</ele>
        <time>2018-08-18T15:47:37.000Z</time>
      </trkpt>
      <trkpt lat="52.38597013056278228759765625" lon="13.0567763932049274444580078125">
        <ele>45.799999237060546875</ele>
        <time>2018-08-18T15:47:42.000Z</time>
      </trkpt>
      <trkpt lat="52.386262156069278717041015625" lon="13.05720613338053226470947265625">
        <ele>44.59999847412109375</ele>
        <time>2018-08-18T15:47:47.000Z</time>
      </trkpt>
      <trkpt lat="52.38653264008462429046630859375" lon="13.05755683220922946929931640625">
        <ele>43.59999847412109375</ele>
        <time>2018-08-18T15:47:52.000Z</time>
      </trkpt>
      <trkpt lat="52.38658444024622440338134765625" lon="13.05763520300388336181640625">
        <ele>43.40000152587890625</ele>
        <time>2018-08-18T15:47:53.000Z</time>
      </trkpt>
      <trkpt lat="52.38703639246523380279541015625" lon="13.05833098478615283966064453125">
        <ele>42.799999237060546875</ele>
        <time>2018-08-18T15:48:01.000Z</time>
      </trkpt>
      <trkpt lat="52.387461103498935699462890625" lon="13.0589798279106616973876953125">
        <ele>42.40000152587890625</ele>
        <time>2018-08-18T15:48:08.000Z</time>
      </trkpt>
      <trkpt lat="52.3875236324965953826904296875" lon="13.05906155146658420562744140625">
        <ele>42.40000152587890625</ele>
        <time>2018-08-18T15:48:09.000Z</time>
      </trkpt>
      <trkpt lat="52.3877854831516742706298828125" lon="13.05934553034603595733642578125">
        <ele>42.200000762939453125</ele>
        <time>2018-08-18T15:48:13.000Z</time>
      </trkpt>
      <trkpt lat="52.388163506984710693359375" lon="13.0594961531460285186767578125">
        <ele>41.799999237060546875</ele>
        <time>2018-08-18T15:48:18.000Z</time>
      </trkpt>
      <trkpt lat="52.3887259326875209808349609375" lon="13.0596775375306606292724609375">
        <ele>41.59999847412109375</ele>
        <time>2018-08-18T15:48:25.000Z</time>
      </trkpt>
      <trkpt lat="52.3891168646514415740966796875" lon="13.059891276061534881591796875">
        <ele>41.40000152587890625</ele>
        <time>2018-08-18T15:48:30.000Z</time>
      </trkpt>
      <trkpt lat="52.38959052599966526031494140625" lon="13.06041120551526546478271484375">
        <ele>41.200000762939453125</ele>
        <time>2018-08-18T15:48:38.000Z</time>
      </trkpt>
      <trkpt lat="52.38994105719029903411865234375" lon="13.0611892975866794586181640625">
        <ele>41</ele>
        <time>2018-08-18T15:48:47.000Z</time>
      </trkpt>
      <trkpt lat="52.39023760892450809478759765625" lon="13.0619755201041698455810546875">
        <ele>40.799999237060546875</ele>
        <time>2018-08-18T15:48:57.000Z</time>
      </trkpt>
      <trkpt lat="52.390325702726840972900390625" lon="13.0622276477515697479248046875">
        <ele>41</ele>
        <time>2018-08-18T15:49:01.000Z</time>
      </trkpt>
      <trkpt lat="52.39048336632549762725830078125" lon="13.06267239153385162353515625">
        <ele>41.799999237060546875</ele>
        <time>2018-08-18T15:49:07.000Z</time>
      </trkpt>
      <trkpt lat="52.3905458115041255950927734375" lon="13.06304094381630420684814453125">
        <ele>42.40000152587890625</ele>
        <time>2018-08-18T15:49:11.000Z</time>
      </trkpt>
      <trkpt lat="52.39059291779994964599609375" lon="13.06343547999858856201171875">
        <ele>43.200000762939453125</ele>
        <time>2018-08-18T15:49:15.000Z</time>
      </trkpt>
      <trkpt lat="52.39063843153417110443115234375" lon="13.06361560709774494171142578125">
        <ele>43.799999237060546875</ele>
        <time>2018-08-18T15:49:17.000Z</time>
      </trkpt>
      <trkpt lat="52.39085870794951915740966796875" lon="13.06379665620625019073486328125">
        <ele>44.799999237060546875</ele>
        <time>2018-08-18T15:49:22.000Z</time>
      </trkpt>
      <trkpt lat="52.39099315367639064788818359375" lon="13.063715435564517974853515625">
        <ele>45.40000152587890625</ele>
        <time>2018-08-18T15:49:25.000Z</time>
      </trkpt>
      <trkpt lat="52.3910815827548503875732421875" lon="13.06365885771811008453369140625">
        <ele>45.799999237060546875</ele>
        <time>2018-08-18T15:49:27.000Z</time>
      </trkpt>
      <trkpt lat="52.3912198841571807861328125" lon="13.06359180249273777008056640625">
        <ele>46.59999847412109375</ele>
        <time>2018-08-18T15:49:30.000Z</time>
      </trkpt>
      <trkpt lat="52.39130931906402111053466796875" lon="13.06356531567871570587158203125">
        <ele>47</ele>
        <time>2018-08-18T15:49:32.000Z</time>
      </trkpt>
      <trkpt lat="52.39155524410307407379150390625" lon="13.06350798346102237701416015625">
        <ele>47.799999237060546875</ele>
        <time>2018-08-18T15:49:37.000Z</time>
      </trkpt>
      <trkpt lat="52.39179848693311214447021484375" lon="13.063434474170207977294921875">
        <ele>48</ele>
        <time>2018-08-18T15:49:42.000Z</time>
      </trkpt>
      <trkpt lat="52.39223132841289043426513671875" lon="13.06321528740227222442626953125">
        <ele>48.59999847412109375</ele>
        <time>2018-08-18T15:49:52.000Z</time>
      </trkpt>
      <trkpt lat="52.3926677741110324859619140625" lon="13.06269527412950992584228515625">
        <ele>47.59999847412109375</ele>
        <time>2018-08-18T15:50:04.000Z</time>
      </trkpt>
      <trkpt lat="52.3927489109337329864501953125" lon="13.062584884464740753173828125">
        <ele>47.200000762939453125</ele>
        <time>2018-08-18T15:50:06.000Z</time>
      </trkpt>
      <trkpt lat="52.39316758699715137481689453125" lon="13.0619971454143524169921875">
        <ele>46.59999847412109375</ele>
        <time>2018-08-18T15:50:16.000Z</time>
      </trkpt>
      <trkpt lat="52.39338182844221591949462890625" lon="13.06168936192989349365234375">
        <ele>46.200000762939453125</ele>
        <time>2018-08-18T15:50:21.000Z</time>
      </trkpt>
      <trkpt lat="52.3937027715146541595458984375" lon="13.061234392225742340087890625">
        <ele>45.200000762939453125</ele>
        <time>2018-08-18T15:50:28.000Z</time>
      </trkpt>
      <trkpt lat="52.3940102197229862213134765625" lon="13.06077665649354457855224609375">
        <ele>44.59999847412109375</ele>
        <time>2018-08-18T15:50:35.000Z</time>
      </trkpt>
      <trkpt lat="52.3940896801650524139404296875" lon="13.060488402843475341796875">
        <ele>44.200000762939453125</ele>
        <time>2018-08-18T15:50:38.000Z</time>
      </trkpt>
      <trkpt lat="52.39411977119743824005126953125" lon="13.06028715334832668304443359375">
        <ele>44</ele>
        <time>2018-08-18T15:50:40.000Z</time>
      </trkpt>
      <trkpt lat="52.3941557295620441436767578125" lon="13.06002295576035976409912109375">
        <ele>43.200000762939453125</ele>
        <time>2018-08-18T15:50:43.000Z</time>
      </trkpt>
      <trkpt lat="52.39416000433266162872314453125" lon="13.05993377231061458587646484375">
        <ele>42.40000152587890625</ele>
        <time>2018-08-18T15:50:45.000Z</time>
      </trkpt>
      <trkpt lat="52.39415262825787067413330078125" lon="13.0599279887974262237548828125">
        <ele>42</ele>
        <time>2018-08-18T15:50:47.000Z</time>
      </trkpt>
      <trkpt lat="52.3941530473530292510986328125" lon="13.059954307973384857177734375">
        <ele>41.799999237060546875</ele>
        <time>2018-08-18T15:50:49.000Z</time>
      </trkpt>
      <trkpt lat="52.3941409774124622344970703125" lon="13.0600245483219623565673828125">
        <ele>41.40000152587890625</ele>
        <time>2018-08-18T15:50:55.000Z</time>
      </trkpt>
      <trkpt lat="52.39416285417973995208740234375" lon="13.05993251502513885498046875">
        <ele>41.40000152587890625</ele>
        <time>2018-08-18T15:50:59.000Z</time>
      </trkpt>
      <trkpt lat="52.3943364433944225311279296875" lon="13.05923656560480594635009765625">
        <ele>41.40000152587890625</ele>
        <time>2018-08-18T15:51:15.000Z</time>
      </trkpt>
      <trkpt lat="52.39452579058706760406494140625" lon="13.058976642787456512451171875">
        <ele>41.200000762939453125</ele>
        <time>2018-08-18T15:51:20.000Z</time>
      </trkpt>
      <trkpt lat="52.3945714719593524932861328125" lon="13.05893263779580593109130859375">
        <ele>41.200000762939453125</ele>
        <time>2018-08-18T15:51:21.000Z</time>
      </trkpt>
      <trkpt lat="52.3946076817810535430908203125" lon="13.05887564085423946380615234375">
        <ele>41.200000762939453125</ele>
        <time>2018-08-18T15:51:22.000Z</time>
      </trkpt>
      <trkpt lat="52.3949848674237728118896484375" lon="13.0590395070612430572509765625">
        <ele>40.799999237060546875</ele>
        <time>2018-08-18T15:51:37.000Z</time>
      </trkpt>
      <trkpt lat="52.3953690938651561737060546875" lon="13.05919918231666088104248046875">
        <ele>41.200000762939453125</ele>
        <time>2018-08-18T15:51:50.000Z</time>
      </trkpt>
      <trkpt lat="52.39558962173759937286376953125" lon="13.05901997722685337066650390625">
        <ele>41.40000152587890625</ele>
        <time>2018-08-18T15:51:56.000Z</time>
      </trkpt>
      <trkpt lat="52.3957224749028682708740234375" lon="13.05897756479680538177490234375">
        <ele>41.40000152587890625</ele>
        <time>2018-08-18T15:51:59.000Z</time>
      </trkpt>
      <trkpt lat="52.39626084454357624053955078125" lon="13.05878109298646450042724609375">
        <ele>41.799999237060546875</ele>
        <time>2018-08-18T15:52:09.000Z</time>
      </trkpt>
      <trkpt lat="52.39664523862302303314208984375" lon="13.058643378317356109619140625">
        <ele>42.200000762939453125</ele>
        <time>2018-08-18T15:52:16.000Z</time>
      </trkpt>
      <trkpt lat="52.3970375955104827880859375" lon="13.0585164763033390045166015625">
        <ele>42.200000762939453125</ele>
        <time>2018-08-18T15:52:23.000Z</time>
      </trkpt>
      <trkpt lat="52.39743615500628948211669921875" lon="13.05906440131366252899169921875">
        <ele>42</ele>
        <time>2018-08-18T15:52:35.000Z</time>
      </trkpt>
      <trkpt lat="52.397578395903110504150390625" lon="13.06000216864049434661865234375">
        <ele>41</ele>
        <time>2018-08-18T15:52:45.000Z</time>
      </trkpt>
      <trkpt lat="52.3977140150964260101318359375" lon="13.0609254352748394012451171875">
        <ele>40.799999237060546875</ele>
        <time>2018-08-18T15:52:54.000Z</time>
      </trkpt>
      <trkpt lat="52.3978655599057674407958984375" lon="13.06187099777162075042724609375">
        <ele>41</ele>
        <time>2018-08-18T15:53:03.000Z</time>
      </trkpt>
      <trkpt lat="52.39800528623163700103759765625" lon="13.06279954500496387481689453125">
        <ele>41.40000152587890625</ele>
        <time>2018-08-18T15:53:12.000Z</time>
      </trkpt>
      <trkpt lat="52.39814006723463535308837890625" lon="13.06368601508438587188720703125">
        <ele>41.799999237060546875</ele>
        <time>2018-08-18T15:53:20.000Z</time>
      </trkpt>
      <trkpt lat="52.3982598446309566497802734375" lon="13.064640797674655914306640625">
        <ele>41.799999237060546875</ele>
        <time>2018-08-18T15:53:28.000Z</time>
      </trkpt>
      <trkpt lat="52.39835380576550960540771484375" lon="13.06535351090133190155029296875">
        <ele>41.200000762939453125</ele>
        <time>2018-08-18T15:53:40.000Z</time>
      </trkpt>
      <trkpt lat="52.39836922846734523773193359375" lon="13.065384440124034881591796875">
        <ele>41.40000152587890625</ele>
        <time>2018-08-18T15:53:45.000Z</time>
      </trkpt>
      <trkpt lat="52.39862537942826747894287109375" lon="13.06614073924720287322998046875">
        <ele>41.59999847412109375</ele>
        <time>2018-08-18T15:53:57.000Z</time>
      </trkpt>
      <trkpt lat="52.39908822812139987945556640625" lon="13.066670559346675872802734375">
        <ele>41.799999237060546875</ele>
        <time>2018-08-18T15:54:05.000Z</time>
      </trkpt>
      <trkpt lat="52.39958762191236019134521484375" lon="13.06716777384281158447265625">
        <ele>41.59999847412109375</ele>
        <time>2018-08-18T15:54:14.000Z</time>
      </trkpt>
      <trkpt lat="52.40007041953504085540771484375" lon="13.06768250651657581329345703125">
        <ele>41.59999847412109375</ele>
        <time>2018-08-18T15:54:23.000Z</time>
      </trkpt>
      <trkpt lat="52.40054366178810596466064453125" lon="13.068177960813045501708984375">
        <ele>41.59999847412109375</ele>
        <time>2018-08-18T15:54:31.000Z</time>
      </trkpt>
      <trkpt lat="52.400984130799770355224609375" lon="13.068694956600666046142578125">
        <ele>41.40000152587890625</ele>
        <time>2018-08-18T15:54:39.000Z</time>
      </trkpt>
      <trkpt lat="52.40147463977336883544921875" lon="13.06924522854387760162353515625">
        <ele>41.40000152587890625</ele>
        <time>2018-08-18T15:54:48.000Z</time>
      </trkpt>
      <trkpt lat="52.40197462029755115509033203125" lon="13.06976675055921077728271484375">
        <ele>41.59999847412109375</ele>
        <time>2018-08-18T15:54:57.000Z</time>
      </trkpt>
      <trkpt lat="52.40207369439303874969482421875" lon="13.06987219490110874176025390625">
        <ele>41.59999847412109375</ele>
        <time>2018-08-18T15:54:59.000Z</time>
      </trkpt>
      <trkpt lat="52.4023575894534587860107421875" lon="13.07018383406102657318115234375">
        <ele>41.59999847412109375</ele>
        <time>2018-08-18T15:55:12.000Z</time>
      </trkpt>
      <trkpt lat="52.40240377373993396759033203125" lon="13.070183582603931427001953125">
        <ele>41.59999847412109375</ele>
        <time>2018-08-18T15:55:17.000Z</time>
      </trkpt>
      <trkpt lat="52.40243998356163501739501953125" lon="13.07022289372980594635009765625">
        <ele>41.40000152587890625</ele>
        <time>2018-08-18T15:55:51.000Z</time>
      </trkpt>
      <trkpt lat="52.40256093442440032958984375" lon="13.0703641287982463836669921875">
        <ele>41.40000152587890625</ele>
        <time>2018-08-18T15:56:02.000Z</time>
      </trkpt>
      <trkpt lat="52.4025857448577880859375" lon="13.0703844130039215087890625">
        <ele>41.200000762939453125</ele>
        <time>2018-08-18T15:56:05.000Z</time>
      </trkpt>
      <trkpt lat="52.40280794911086559295654296875" lon="13.07053805328905582427978515625">
        <ele>41.200000762939453125</ele>
        <time>2018-08-18T15:56:12.000Z</time>
      </trkpt>
      <trkpt lat="52.4030593223869800567626953125" lon="13.07074910961091518402099609375">
        <ele>41.200000762939453125</ele>
        <time>2018-08-18T15:56:18.000Z</time>
      </trkpt>
      <trkpt lat="52.40349995903670787811279296875" lon="13.071260154247283935546875">
        <ele>41.40000152587890625</ele>
        <time>2018-08-18T15:56:29.000Z</time>
      </trkpt>
      <trkpt lat="52.40362367592751979827880859375" lon="13.0714108608663082122802734375">
        <ele>41.40000152587890625</ele>
        <time>2018-08-18T15:56:32.000Z</time>
      </trkpt>
      <trkpt lat="52.40379885770380496978759765625" lon="13.07168235071003437042236328125">
        <ele>41.200000762939453125</ele>
        <time>2018-08-18T15:56:38.000Z</time>
      </trkpt>
      <trkpt lat="52.40424804389476776123046875" lon="13.072172440588474273681640625">
        <ele>41.200000762939453125</ele>
        <time>2018-08-18T15:56:49.000Z</time>
      </trkpt>
      <trkpt lat="52.404599077999591827392578125" lon="13.07255876250565052032470703125">
        <ele>41.200000762939453125</ele>
        <time>2018-08-18T15:56:57.000Z</time>
      </trkpt>
      <trkpt lat="52.4047521315515041351318359375" lon="13.0726010911166667938232421875">
        <ele>41.200000762939453125</ele>
        <time>2018-08-18T15:57:02.000Z</time>
      </trkpt>
      <trkpt lat="52.40523065440356731414794921875" lon="13.07308598421514034271240234375">
        <ele>41</ele>
        <time>2018-08-18T15:57:14.000Z</time>
      </trkpt>
      <trkpt lat="52.4056996218860149383544921875" lon="13.073542378842830657958984375">
        <ele>41</ele>
        <time>2018-08-18T15:57:24.000Z</time>
      </trkpt>
      <trkpt lat="52.4061874486505985260009765625" lon="13.07402140460908412933349609375">
        <ele>41.200000762939453125</ele>
        <time>2018-08-18T15:57:35.000Z</time>
      </trkpt>
      <trkpt lat="52.40666463039815425872802734375" lon="13.0745430104434490203857421875">
        <ele>41.200000762939453125</ele>
        <time>2018-08-18T15:57:46.000Z</time>
      </trkpt>
      <trkpt lat="52.40713401697576045989990234375" lon="13.0750087089836597442626953125">
        <ele>41.200000762939453125</ele>
        <time>2018-08-18T15:57:54.000Z</time>
      </trkpt>
      <trkpt lat="52.40759753622114658355712890625" lon="13.075506426393985748291015625">
        <ele>41.200000762939453125</ele>
        <time>2018-08-18T15:58:03.000Z</time>
      </trkpt>
      <trkpt lat="52.40805434994399547576904296875" lon="13.07600498199462890625">
        <ele>41.200000762939453125</ele>
        <time>2018-08-18T15:58:12.000Z</time>
      </trkpt>
      <trkpt lat="52.408417202532291412353515625" lon="13.076704032719135284423828125">
        <ele>41.200000762939453125</ele>
        <time>2018-08-18T15:58:21.000Z</time>
      </trkpt>
      <trkpt lat="52.40874853916466236114501953125" lon="13.0774609185755252838134765625">
        <ele>41.40000152587890625</ele>
        <time>2018-08-18T15:58:30.000Z</time>
      </trkpt>
      <trkpt lat="52.409091107547283172607421875" lon="13.07822492904961109161376953125">
        <ele>41.59999847412109375</ele>
        <time>2018-08-18T15:58:40.000Z</time>
      </trkpt>
      <trkpt lat="52.40941691212356090545654296875" lon="13.07901567779481410980224609375">
        <ele>42</ele>
        <time>2018-08-18T15:58:49.000Z</time>
      </trkpt>
      <trkpt lat="52.40953333675861358642578125" lon="13.07928943075239658355712890625">
        <ele>42.200000762939453125</ele>
        <time>2018-08-18T15:58:52.000Z</time>
      </trkpt>
      <trkpt lat="52.409885041415691375732421875" lon="13.0800837837159633636474609375">
        <ele>42.799999237060546875</ele>
        <time>2018-08-18T15:59:01.000Z</time>
      </trkpt>
      <trkpt lat="52.41020900197327136993408203125" lon="13.08084511198103427886962890625">
        <ele>42.799999237060546875</ele>
        <time>2018-08-18T15:59:09.000Z</time>
      </trkpt>
      <trkpt lat="52.41052432917058467864990234375" lon="13.0815683864057064056396484375">
        <ele>43</ele>
        <time>2018-08-18T15:59:17.000Z</time>
      </trkpt>
      <trkpt lat="52.4108477868139743804931640625" lon="13.0823187343776226043701171875">
        <ele>42.799999237060546875</ele>
        <time>2018-08-18T15:59:25.000Z</time>
      </trkpt>
      <trkpt lat="52.41118214093148708343505859375" lon="13.083067573606967926025390625">
        <ele>42.799999237060546875</ele>
        <time>2018-08-18T15:59:33.000Z</time>
      </trkpt>
      <trkpt lat="52.41149780340492725372314453125" lon="13.08381163515150547027587890625">
        <ele>42.799999237060546875</ele>
        <time>2018-08-18T15:59:41.000Z</time>
      </trkpt>
      <trkpt lat="52.411822937428951263427734375" lon="13.0845741368830204010009765625">
        <ele>42.59999847412109375</ele>
        <time>2018-08-18T15:59:50.000Z</time>
      </trkpt>
      <trkpt lat="52.412187717854976654052734375" lon="13.0853489600121974945068359375">
        <ele>42.799999237060546875</ele>
        <time>2018-08-18T15:59:59.000Z</time>
      </trkpt>
      <trkpt lat="52.412536405026912689208984375" lon="13.08612152002751827239990234375">
        <ele>42.799999237060546875</ele>
        <time>2018-08-18T16:00:09.000Z</time>
      </trkpt>
      <trkpt lat="52.4128611199557781219482421875" lon="13.0868858657777309417724609375">
        <ele>43.200000762939453125</ele>
        <time>2018-08-18T16:00:19.000Z</time>
      </trkpt>
      <trkpt lat="52.41316680796444416046142578125" lon="13.08753470890223979949951171875">
        <ele>43.40000152587890625</ele>
        <time>2018-08-18T16:00:28.000Z</time>
      </trkpt>
      <trkpt lat="52.41325557231903076171875" lon="13.08780142106115818023681640625">
        <ele>43.59999847412109375</ele>
        <time>2018-08-18T16:00:32.000Z</time>
      </trkpt>
      <trkpt lat="52.413307540118694305419921875" lon="13.08794558979570865631103515625">
        <ele>43.59999847412109375</ele>
        <time>2018-08-18T16:00:34.000Z</time>
      </trkpt>
      <trkpt lat="52.41338624618947505950927734375" lon="13.08826611377298831939697265625">
        <ele>43.799999237060546875</ele>
        <time>2018-08-18T16:00:38.000Z</time>
      </trkpt>
      <trkpt lat="52.413447685539722442626953125" lon="13.0891697667539119720458984375">
        <ele>44.40000152587890625</ele>
        <time>2018-08-18T16:00:48.000Z</time>
      </trkpt>
      <trkpt lat="52.413448356091976165771484375" lon="13.08947897516191005706787109375">
        <ele>44.59999847412109375</ele>
        <time>2018-08-18T16:00:51.000Z</time>
      </trkpt>
      <trkpt lat="52.41344911046326160430908203125" lon="13.09033728204667568206787109375">
        <ele>45.59999847412109375</ele>
        <time>2018-08-18T16:01:01.000Z</time>
      </trkpt>
      <trkpt lat="52.41345740854740142822265625" lon="13.09124168939888477325439453125">
        <ele>46</ele>
        <time>2018-08-18T16:01:10.000Z</time>
      </trkpt>
      <trkpt lat="52.41346470080316066741943359375" lon="13.09205087833106517791748046875">
        <ele>45.799999237060546875</ele>
        <time>2018-08-18T16:01:17.000Z</time>
      </trkpt>
      <trkpt lat="52.4134849011898040771484375" lon="13.09240006841719150543212890625">
        <ele>45.59999847412109375</ele>
        <time>2018-08-18T16:01:20.000Z</time>
      </trkpt>
      <trkpt lat="52.41346520371735095977783203125" lon="13.09311102144420146942138671875">
        <ele>44.799999237060546875</ele>
        <time>2018-08-18T16:01:26.000Z</time>
      </trkpt>
      <trkpt lat="52.4134056083858013153076171875" lon="13.0940419994294643402099609375">
        <ele>44.200000762939453125</ele>
        <time>2018-08-18T16:01:33.000Z</time>
      </trkpt>
      <trkpt lat="52.41337954066693782806396484375" lon="13.09432103298604488372802734375">
        <ele>43.799999237060546875</ele>
        <time>2018-08-18T16:01:35.000Z</time>
      </trkpt>
      <trkpt lat="52.4133036844432353973388671875" lon="13.094978593289852142333984375">
        <ele>42.59999847412109375</ele>
        <time>2018-08-18T16:01:40.000Z</time>
      </trkpt>
      <trkpt lat="52.4132032692432403564453125" lon="13.09584737755358219146728515625">
        <ele>42.40000152587890625</ele>
        <time>2018-08-18T16:01:47.000Z</time>
      </trkpt>
      <trkpt lat="52.41320067085325717926025390625" lon="13.0967506952583789825439453125">
        <ele>42.40000152587890625</ele>
        <time>2018-08-18T16:01:55.000Z</time>
      </trkpt>
      <trkpt lat="52.41320955567061901092529296875" lon="13.09685622341930866241455078125">
        <ele>42.40000152587890625</ele>
        <time>2018-08-18T16:01:56.000Z</time>
      </trkpt>
      <trkpt lat="52.413372583687305450439453125" lon="13.0977290309965610504150390625">
        <ele>43.799999237060546875</ele>
        <time>2018-08-18T16:02:05.000Z</time>
      </trkpt>
      <trkpt lat="52.4135226197540760040283203125" lon="13.09828785248100757598876953125">
        <ele>44.799999237060546875</ele>
        <time>2018-08-18T16:02:11.000Z</time>
      </trkpt>
      <trkpt lat="52.4136791937053203582763671875" lon="13.0988451652228832244873046875">
        <ele>45.799999237060546875</ele>
        <time>2018-08-18T16:02:17.000Z</time>
      </trkpt>
      <trkpt lat="52.4138143099844455718994140625" lon="13.09964169748127460479736328125">
        <ele>47</ele>
        <time>2018-08-18T16:02:25.000Z</time>
      </trkpt>
      <trkpt lat="52.4138538725674152374267578125" lon="13.10024335049092769622802734375">
        <ele>48.200000762939453125</ele>
        <time>2018-08-18T16:02:31.000Z</time>
      </trkpt>
      <trkpt lat="52.41383828222751617431640625" lon="13.10083687305450439453125">
        <ele>49.200000762939453125</ele>
        <time>2018-08-18T16:02:37.000Z</time>
      </trkpt>
      <trkpt lat="52.4137992225587368011474609375" lon="13.10160859487950801849365234375">
        <ele>50.40000152587890625</ele>
        <time>2018-08-18T16:02:45.000Z</time>
      </trkpt>
      <trkpt lat="52.4137757532298564910888671875" lon="13.10218526981770992279052734375">
        <ele>51.40000152587890625</ele>
        <time>2018-08-18T16:02:51.000Z</time>
      </trkpt>
      <trkpt lat="52.41375253535807132720947265625" lon="13.10296160168945789337158203125">
        <ele>52.40000152587890625</ele>
        <time>2018-08-18T16:02:59.000Z</time>
      </trkpt>
      <trkpt lat="52.41375085897743701934814453125" lon="13.10345445759594440460205078125">
        <ele>53.59999847412109375</ele>
        <time>2018-08-18T16:03:04.000Z</time>
      </trkpt>
      <trkpt lat="52.41375706158578395843505859375" lon="13.104051835834980010986328125">
        <ele>54.59999847412109375</ele>
        <time>2018-08-18T16:03:10.000Z</time>
      </trkpt>
      <trkpt lat="52.4137710593640804290771484375" lon="13.10444913804531097412109375">
        <ele>55.59999847412109375</ele>
        <time>2018-08-18T16:03:14.000Z</time>
      </trkpt>
      <trkpt lat="52.41380886174738407135009765625" lon="13.10526679269969463348388671875">
        <ele>56.59999847412109375</ele>
        <time>2018-08-18T16:03:22.000Z</time>
      </trkpt>
      <trkpt lat="52.41384171880781650543212890625" lon="13.1059692800045013427734375">
        <ele>57.799999237060546875</ele>
        <time>2018-08-18T16:03:29.000Z</time>
      </trkpt>
      <trkpt lat="52.41387172602117061614990234375" lon="13.10656665824353694915771484375">
        <ele>58.799999237060546875</ele>
        <time>2018-08-18T16:03:35.000Z</time>
      </trkpt>
      <trkpt lat="52.4139075167477130889892578125" lon="13.1071707420051097869873046875">
        <ele>60</ele>
        <time>2018-08-18T16:03:41.000Z</time>
      </trkpt>
      <trkpt lat="52.41395252756774425506591796875" lon="13.10787473805248737335205078125">
        <ele>61</ele>
        <time>2018-08-18T16:03:48.000Z</time>
      </trkpt>
      <trkpt lat="52.4139906652271747589111328125" lon="13.10846767388284206390380859375">
        <ele>62</ele>
        <time>2018-08-18T16:03:54.000Z</time>
      </trkpt>
      <trkpt lat="52.4139920063316822052001953125" lon="13.10930955223739147186279296875">
        <ele>63</ele>
        <time>2018-08-18T16:04:02.000Z</time>
      </trkpt>
      <trkpt lat="52.414016984403133392333984375" lon="13.10991757549345493316650390625">
        <ele>64.1999969482421875</ele>
        <time>2018-08-18T16:04:08.000Z</time>
      </trkpt>
      <trkpt lat="52.41405059583485126495361328125" lon="13.1104225851595401763916015625">
        <ele>65</ele>
        <time>2018-08-18T16:04:13.000Z</time>
      </trkpt>
      <trkpt lat="52.41407976485788822174072265625" lon="13.1109328754246234893798828125">
        <ele>66.1999969482421875</ele>
        <time>2018-08-18T16:04:18.000Z</time>
      </trkpt>
      <trkpt lat="52.41412653587758541107177734375" lon="13.11166352592408657073974609375">
        <ele>67.40000152587890625</ele>
        <time>2018-08-18T16:04:25.000Z</time>
      </trkpt>
      <trkpt lat="52.4141811020672321319580078125" lon="13.11240029521286487579345703125">
        <ele>68.40000152587890625</ele>
        <time>2018-08-18T16:04:32.000Z</time>
      </trkpt>
      <trkpt lat="52.4142394401133060455322265625" lon="13.11301385052502155303955078125">
        <ele>69.40000152587890625</ele>
        <time>2018-08-18T16:04:38.000Z</time>
      </trkpt>
      <trkpt lat="52.4142857082188129425048828125" lon="13.11352849937975406646728515625">
        <ele>70.40000152587890625</ele>
        <time>2018-08-18T16:04:43.000Z</time>
      </trkpt>
      <trkpt lat="52.41435402072966098785400390625" lon="13.11426375992596149444580078125">
        <ele>71.59999847412109375</ele>
        <time>2018-08-18T16:04:50.000Z</time>
      </trkpt>
      <trkpt lat="52.41440984420478343963623046875" lon="13.11479165218770503997802734375">
        <ele>72.59999847412109375</ele>
        <time>2018-08-18T16:04:55.000Z</time>
      </trkpt>
      <trkpt lat="52.4144778214395046234130859375" lon="13.11553663574159145355224609375">
        <ele>73.8000030517578125</ele>
        <time>2018-08-18T16:05:02.000Z</time>
      </trkpt>
      <trkpt lat="52.41454009898006916046142578125" lon="13.1161826290190219879150390625">
        <ele>74.8000030517578125</ele>
        <time>2018-08-18T16:05:08.000Z</time>
      </trkpt>
      <trkpt lat="52.41458519361913204193115234375" lon="13.11661018989980220794677734375">
        <ele>75.59999847412109375</ele>
        <time>2018-08-18T16:05:12.000Z</time>
      </trkpt>
      <trkpt lat="52.4145981855690479278564453125" lon="13.11671555042266845703125">
        <ele>75.8000030517578125</ele>
        <time>2018-08-18T16:05:13.000Z</time>
      </trkpt>
      <trkpt lat="52.4146535061299800872802734375" lon="13.11725358478724956512451171875">
        <ele>76.8000030517578125</ele>
        <time>2018-08-18T16:05:18.000Z</time>
      </trkpt>
      <trkpt lat="52.41473036818206310272216796875" lon="13.118019439280033111572265625">
        <ele>77.8000030517578125</ele>
        <time>2018-08-18T16:05:25.000Z</time>
      </trkpt>
      <trkpt lat="52.414818964898586273193359375" lon="13.11889685690402984619140625">
        <ele>78.8000030517578125</ele>
        <time>2018-08-18T16:05:33.000Z</time>
      </trkpt>
      <trkpt lat="52.41482935845851898193359375" lon="13.119005151093006134033203125">
        <ele>79</ele>
        <time>2018-08-18T16:05:34.000Z</time>
      </trkpt>
      <trkpt lat="52.41488275118172168731689453125" lon="13.1195618771016597747802734375">
        <ele>80.40000152587890625</ele>
        <time>2018-08-18T16:05:39.000Z</time>
      </trkpt>
      <trkpt lat="52.414943687617778778076171875" lon="13.12024869024753570556640625">
        <ele>81.40000152587890625</ele>
        <time>2018-08-18T16:05:45.000Z</time>
      </trkpt>
      <trkpt lat="52.414995990693569183349609375" lon="13.12082268297672271728515625">
        <ele>82.40000152587890625</ele>
        <time>2018-08-18T16:05:50.000Z</time>
      </trkpt>
      <trkpt lat="52.41509179584681987762451171875" lon="13.12174092046916484832763671875">
        <ele>83.59999847412109375</ele>
        <time>2018-08-18T16:05:58.000Z</time>
      </trkpt>
      <trkpt lat="52.41514057852327823638916015625" lon="13.1223361194133758544921875">
        <ele>84.59999847412109375</ele>
        <time>2018-08-18T16:06:03.000Z</time>
      </trkpt>
      <trkpt lat="52.41520847193896770477294921875" lon="13.1230790913105010986328125">
        <ele>85.59999847412109375</ele>
        <time>2018-08-18T16:06:09.000Z</time>
      </trkpt>
      <trkpt lat="52.41530234925448894500732421875" lon="13.1239583529531955718994140625">
        <ele>86.40000152587890625</ele>
        <time>2018-08-18T16:06:16.000Z</time>
      </trkpt>
      <trkpt lat="52.4153364636003971099853515625" lon="13.12434869818389415740966796875">
        <ele>86.59999847412109375</ele>
        <time>2018-08-18T16:06:19.000Z</time>
      </trkpt>
      <trkpt lat="52.41543629206717014312744140625" lon="13.125279508531093597412109375">
        <ele>87.1999969482421875</ele>
        <time>2018-08-18T16:06:26.000Z</time>
      </trkpt>
      <trkpt lat="52.41553938947618007659912109375" lon="13.12623647041618824005126953125">
        <ele>87.1999969482421875</ele>
        <time>2018-08-18T16:06:33.000Z</time>
      </trkpt>
      <trkpt lat="52.41564852185547351837158203125" lon="13.12724246643483638763427734375">
        <ele>86.8000030517578125</ele>
        <time>2018-08-18T16:06:40.000Z</time>
      </trkpt>
      <trkpt lat="52.4157398007810115814208984375" lon="13.1281194649636745452880859375">
        <ele>86.40000152587890625</ele>
        <time>2018-08-18T16:06:46.000Z</time>
      </trkpt>
      <trkpt lat="52.41585270501673221588134765625" lon="13.1290538795292377471923828125">
        <ele>85.59999847412109375</ele>
        <time>2018-08-18T16:06:52.000Z</time>
      </trkpt>
      <trkpt lat="52.41589813493192195892333984375" lon="13.12951915897428989410400390625">
        <ele>84.40000152587890625</ele>
        <time>2018-08-18T16:06:55.000Z</time>
      </trkpt>
      <trkpt lat="52.4159738235175609588623046875" lon="13.130132295191287994384765625">
        <ele>83.40000152587890625</ele>
        <time>2018-08-18T16:06:59.000Z</time>
      </trkpt>
      <trkpt lat="52.4160489253699779510498046875" lon="13.1307493709027767181396484375">
        <ele>82.1999969482421875</ele>
        <time>2018-08-18T16:07:03.000Z</time>
      </trkpt>
      <trkpt lat="52.4161029048264026641845703125" lon="13.13123258762061595916748046875">
        <ele>81</ele>
        <time>2018-08-18T16:07:06.000Z</time>
      </trkpt>
      <trkpt lat="52.4162038229405879974365234375" lon="13.1321156211197376251220703125">
        <ele>79.8000030517578125</ele>
        <time>2018-08-18T16:07:11.000Z</time>
      </trkpt>
      <trkpt lat="52.4163040705025196075439453125" lon="13.133029080927371978759765625">
        <ele>78.59999847412109375</ele>
        <time>2018-08-18T16:07:16.000Z</time>
      </trkpt>
      <trkpt lat="52.41638378240168094635009765625" lon="13.1337440572679042816162109375">
        <ele>77.1999969482421875</ele>
        <time>2018-08-18T16:07:20.000Z</time>
      </trkpt>
      <trkpt lat="52.4164837785065174102783203125" lon="13.1346030347049236297607421875">
        <ele>76.1999969482421875</ele>
        <time>2018-08-18T16:07:25.000Z</time>
      </trkpt>
      <trkpt lat="52.4165739677846431732177734375" lon="13.1354435719549655914306640625">
        <ele>74.8000030517578125</ele>
        <time>2018-08-18T16:07:30.000Z</time>
      </trkpt>
      <trkpt lat="52.416695840656757354736328125" lon="13.136260472238063812255859375">
        <ele>73.40000152587890625</ele>
        <time>2018-08-18T16:07:35.000Z</time>
      </trkpt>
      <trkpt lat="52.416835315525531768798828125" lon="13.13712020404636859893798828125">
        <ele>72.1999969482421875</ele>
        <time>2018-08-18T16:07:40.000Z</time>
      </trkpt>
      <trkpt lat="52.416954673826694488525390625" lon="13.13779595308005809783935546875">
        <ele>71</ele>
        <time>2018-08-18T16:07:44.000Z</time>
      </trkpt>
      <trkpt lat="52.41706741042435169219970703125" lon="13.13846893608570098876953125">
        <ele>69.8000030517578125</ele>
        <time>2018-08-18T16:07:48.000Z</time>
      </trkpt>
      <trkpt lat="52.417151816189289093017578125" lon="13.13896925188601016998291015625">
        <ele>68.8000030517578125</ele>
        <time>2018-08-18T16:07:51.000Z</time>
      </trkpt>
      <trkpt lat="52.4173045344650745391845703125" lon="13.139784224331378936767578125">
        <ele>67.40000152587890625</ele>
        <time>2018-08-18T16:07:56.000Z</time>
      </trkpt>
      <trkpt lat="52.41737418808043003082275390625" lon="13.14026073552668094635009765625">
        <ele>66.40000152587890625</ele>
        <time>2018-08-18T16:07:59.000Z</time>
      </trkpt>
      <trkpt lat="52.4174882657825946807861328125" lon="13.1410470418632030487060546875">
        <ele>65</ele>
        <time>2018-08-18T16:08:04.000Z</time>
      </trkpt>
      <trkpt lat="52.41753880865871906280517578125" lon="13.14151952974498271942138671875">
        <ele>63.799999237060546875</ele>
        <time>2018-08-18T16:08:07.000Z</time>
      </trkpt>
      <trkpt lat="52.41762178950011730194091796875" lon="13.14229401759803295135498046875">
        <ele>62.40000152587890625</ele>
        <time>2018-08-18T16:08:12.000Z</time>
      </trkpt>
      <trkpt lat="52.41767845116555690765380859375" lon="13.14289969392120838165283203125">
        <ele>61.40000152587890625</ele>
        <time>2018-08-18T16:08:16.000Z</time>
      </trkpt>
      <trkpt lat="52.417732514441013336181640625" lon="13.143489025533199310302734375">
        <ele>60.200000762939453125</ele>
        <time>2018-08-18T16:08:20.000Z</time>
      </trkpt>
      <trkpt lat="52.41780920885503292083740234375" lon="13.14420375041663646697998046875">
        <ele>59.200000762939453125</ele>
        <time>2018-08-18T16:08:25.000Z</time>
      </trkpt>
      <trkpt lat="52.4178503639996051788330078125" lon="13.144640363752841949462890625">
        <ele>58</ele>
        <time>2018-08-18T16:08:28.000Z</time>
      </trkpt>
      <trkpt lat="52.4179489351809024810791015625" lon="13.14552708528935909271240234375">
        <ele>56.799999237060546875</ele>
        <time>2018-08-18T16:08:34.000Z</time>
      </trkpt>
      <trkpt lat="52.4180183373391628265380859375" lon="13.1461160816252231597900390625">
        <ele>55.799999237060546875</ele>
        <time>2018-08-18T16:08:38.000Z</time>
      </trkpt>
      <trkpt lat="52.4180827103555202484130859375" lon="13.1466396152973175048828125">
        <ele>54.59999847412109375</ele>
        <time>2018-08-18T16:08:42.000Z</time>
      </trkpt>
      <trkpt lat="52.41814331151545047760009765625" lon="13.147278986871242523193359375">
        <ele>53.59999847412109375</ele>
        <time>2018-08-18T16:08:48.000Z</time>
      </trkpt>
      <trkpt lat="52.41818957962095737457275390625" lon="13.14783663488924503326416015625">
        <ele>52.40000152587890625</ele>
        <time>2018-08-18T16:08:54.000Z</time>
      </trkpt>
      <trkpt lat="52.41830860264599323272705078125" lon="13.14879703335464000701904296875">
        <ele>51.799999237060546875</ele>
        <time>2018-08-18T16:09:02.000Z</time>
      </trkpt>
      <trkpt lat="52.4184121191501617431640625" lon="13.14973027445375919342041015625">
        <ele>51.40000152587890625</ele>
        <time>2018-08-18T16:09:09.000Z</time>
      </trkpt>
      <trkpt lat="52.4184256978332996368408203125" lon="13.14986404962837696075439453125">
        <ele>51.40000152587890625</ele>
        <time>2018-08-18T16:09:10.000Z</time>
      </trkpt>
      <trkpt lat="52.4185142107307910919189453125" lon="13.1504870764911174774169921875">
        <ele>51.200000762939453125</ele>
        <time>2018-08-18T16:09:15.000Z</time>
      </trkpt>
      <trkpt lat="52.41863851435482501983642578125" lon="13.1513737142086029052734375">
        <ele>50.59999847412109375</ele>
        <time>2018-08-18T16:09:22.000Z</time>
      </trkpt>
      <trkpt lat="52.4187019653618335723876953125" lon="13.15197176299989223480224609375">
        <ele>50.40000152587890625</ele>
        <time>2018-08-18T16:09:26.000Z</time>
      </trkpt>
      <trkpt lat="52.4188008718192577362060546875" lon="13.15289410762488842010498046875">
        <ele>50</ele>
        <time>2018-08-18T16:09:32.000Z</time>
      </trkpt>
      <trkpt lat="52.4189007841050624847412109375" lon="13.15383506007492542266845703125">
        <ele>49.59999847412109375</ele>
        <time>2018-08-18T16:09:38.000Z</time>
      </trkpt>
      <trkpt lat="52.41896172054111957550048828125" lon="13.15447526983916759490966796875">
        <ele>49.40000152587890625</ele>
        <time>2018-08-18T16:09:42.000Z</time>
      </trkpt>
      <trkpt lat="52.4190731160342693328857421875" lon="13.15544690005481243133544921875">
        <ele>49</ele>
        <time>2018-08-18T16:09:48.000Z</time>
      </trkpt>
      <trkpt lat="52.4191830866038799285888671875" lon="13.156400509178638458251953125">
        <ele>49.200000762939453125</ele>
        <time>2018-08-18T16:09:54.000Z</time>
      </trkpt>
      <trkpt lat="52.41928677074611186981201171875" lon="13.15734229981899261474609375">
        <ele>49.40000152587890625</ele>
        <time>2018-08-18T16:10:00.000Z</time>
      </trkpt>
      <trkpt lat="52.419370673596858978271484375" lon="13.158115446567535400390625">
        <ele>50.40000152587890625</ele>
        <time>2018-08-18T16:10:05.000Z</time>
      </trkpt>
      <trkpt lat="52.4194660596549510955810546875" lon="13.159049190580844879150390625">
        <ele>51.59999847412109375</ele>
        <time>2018-08-18T16:10:12.000Z</time>
      </trkpt>
      <trkpt lat="52.4195753596723079681396484375" lon="13.1599579565227031707763671875">
        <ele>52.799999237060546875</ele>
        <time>2018-08-18T16:10:20.000Z</time>
      </trkpt>
      <trkpt lat="52.4195897765457630157470703125" lon="13.16006876528263092041015625">
        <ele>52.799999237060546875</ele>
        <time>2018-08-18T16:10:21.000Z</time>
      </trkpt>
      <trkpt lat="52.41969429887831211090087890625" lon="13.16100007854402065277099609375">
        <ele>53.799999237060546875</ele>
        <time>2018-08-18T16:10:29.000Z</time>
      </trkpt>
      <trkpt lat="52.41972506046295166015625" lon="13.16136854700744152069091796875">
        <ele>53.799999237060546875</ele>
        <time>2018-08-18T16:10:32.000Z</time>
      </trkpt>
      <trkpt lat="52.4197947978973388671875" lon="13.16228468902409076690673828125">
        <ele>54.799999237060546875</ele>
        <time>2018-08-18T16:10:40.000Z</time>
      </trkpt>
      <trkpt lat="52.41980661638081073760986328125" lon="13.16239901818335056304931640625">
        <ele>55</ele>
        <time>2018-08-18T16:10:41.000Z</time>
      </trkpt>
      <trkpt lat="52.41988540627062320709228515625" lon="13.16310360096395015716552734375">
        <ele>56</ele>
        <time>2018-08-18T16:10:47.000Z</time>
      </trkpt>
      <trkpt lat="52.42000375874340534210205078125" lon="13.16409073770046234130859375">
        <ele>56.59999847412109375</ele>
        <time>2018-08-18T16:10:55.000Z</time>
      </trkpt>
      <trkpt lat="52.420121692121028900146484375" lon="13.16499137319624423980712890625">
        <ele>56.59999847412109375</ele>
        <time>2018-08-18T16:11:02.000Z</time>
      </trkpt>
      <trkpt lat="52.42024046368896961212158203125" lon="13.16589586436748504638671875">
        <ele>55.59999847412109375</ele>
        <time>2018-08-18T16:11:09.000Z</time>
      </trkpt>
      <trkpt lat="52.4202784337103366851806640625" lon="13.16615662537515163421630859375">
        <ele>55</ele>
        <time>2018-08-18T16:11:11.000Z</time>
      </trkpt>
      <trkpt lat="52.420395947992801666259765625" lon="13.1670404970645904541015625">
        <ele>54</ele>
        <time>2018-08-18T16:11:18.000Z</time>
      </trkpt>
      <trkpt lat="52.4204118736088275909423828125" lon="13.167159520089626312255859375">
        <ele>53.799999237060546875</ele>
        <time>2018-08-18T16:11:19.000Z</time>
      </trkpt>
      <trkpt lat="52.4204809404909610748291015625" lon="13.167776428163051605224609375">
        <ele>52.799999237060546875</ele>
        <time>2018-08-18T16:11:24.000Z</time>
      </trkpt>
      <trkpt lat="52.420564591884613037109375" lon="13.16853825934231281280517578125">
        <ele>51.59999847412109375</ele>
        <time>2018-08-18T16:11:30.000Z</time>
      </trkpt>
      <trkpt lat="52.42066693492233753204345703125" lon="13.16944970749318599700927734375">
        <ele>50.799999237060546875</ele>
        <time>2018-08-18T16:11:37.000Z</time>
      </trkpt>
      <trkpt lat="52.420681603252887725830078125" lon="13.1695832312107086181640625">
        <ele>50.40000152587890625</ele>
        <time>2018-08-18T16:11:38.000Z</time>
      </trkpt>
      <trkpt lat="52.4207696132361888885498046875" lon="13.17050951533019542694091796875">
        <ele>49.40000152587890625</ele>
        <time>2018-08-18T16:11:45.000Z</time>
      </trkpt>
      <trkpt lat="52.4207813479006290435791015625" lon="13.17063725553452968597412109375">
        <ele>49.200000762939453125</ele>
        <time>2018-08-18T16:11:46.000Z</time>
      </trkpt>
      <trkpt lat="52.42078646086156368255615234375" lon="13.1711414270102977752685546875">
        <ele>48.40000152587890625</ele>
        <time>2018-08-18T16:11:50.000Z</time>
      </trkpt>
      <trkpt lat="52.4207424558699131011962890625" lon="13.1718579120934009552001953125">
        <ele>47.40000152587890625</ele>
        <time>2018-08-18T16:11:56.000Z</time>
      </trkpt>
      <trkpt lat="52.42069861851632595062255859375" lon="13.1721962057054042816162109375">
        <ele>47.200000762939453125</ele>
        <time>2018-08-18T16:11:59.000Z</time>
      </trkpt>
      <trkpt lat="52.420527376234531402587890625" lon="13.17305644042789936065673828125">
        <ele>46.59999847412109375</ele>
        <time>2018-08-18T16:12:07.000Z</time>
      </trkpt>
      <trkpt lat="52.42045168764889240264892578125" lon="13.17335617728531360626220703125">
        <ele>46.200000762939453125</ele>
        <time>2018-08-18T16:12:10.000Z</time>
      </trkpt>
      <trkpt lat="52.42019520141184329986572265625" lon="13.1741778552532196044921875">
        <ele>45.59999847412109375</ele>
        <time>2018-08-18T16:12:20.000Z</time>
      </trkpt>
      <trkpt lat="52.4201248772442340850830078125" lon="13.17437692545354366302490234375">
        <ele>45.40000152587890625</ele>
        <time>2018-08-18T16:12:23.000Z</time>
      </trkpt>
      <trkpt lat="52.420061342418193817138671875" lon="13.17455277778208255767822265625">
        <ele>45.40000152587890625</ele>
        <time>2018-08-18T16:12:26.000Z</time>
      </trkpt>
      <trkpt lat="52.41990736685693264007568359375" lon="13.17497639916837215423583984375">
        <ele>45.59999847412109375</ele>
        <time>2018-08-18T16:12:36.000Z</time>
      </trkpt>
      <trkpt lat="52.41990518756210803985595703125" lon="13.17500506527721881866455078125">
        <ele>45.59999847412109375</ele>
        <time>2018-08-18T16:12:39.000Z</time>
      </trkpt>
      <trkpt lat="52.41987786255776882171630859375" lon="13.1750671751797199249267578125">
        <ele>45.59999847412109375</ele>
        <time>2018-08-18T16:12:45.000Z</time>
      </trkpt>
      <trkpt lat="52.419833354651927947998046875" lon="13.17524872720241546630859375">
        <ele>45.799999237060546875</ele>
        <time>2018-08-18T16:12:54.000Z</time>
      </trkpt>
      <trkpt lat="52.41980041377246379852294921875" lon="13.17533665336668491363525390625">
        <ele>45.59999847412109375</ele>
        <time>2018-08-18T16:12:58.000Z</time>
      </trkpt>
      <trkpt lat="52.41979991085827350616455078125" lon="13.175361044704914093017578125">
        <ele>45.799999237060546875</ele>
        <time>2018-08-18T16:13:01.000Z</time>
      </trkpt>
      <trkpt lat="52.4198382161557674407958984375" lon="13.175369761884212493896484375">
        <ele>45.799999237060546875</ele>
        <time>2018-08-18T16:13:08.000Z</time>
      </trkpt>
      <trkpt lat="52.41994835436344146728515625" lon="13.17544796504080295562744140625">
        <ele>45.799999237060546875</ele>
        <time>2018-08-18T16:13:12.000Z</time>
      </trkpt>
      <trkpt lat="52.420422099530696868896484375" lon="13.17590360529720783233642578125">
        <ele>46.200000762939453125</ele>
        <time>2018-08-18T16:13:24.000Z</time>
      </trkpt>
      <trkpt lat="52.4205114506185054779052734375" lon="13.1759908609092235565185546875">
        <ele>46.59999847412109375</ele>
        <time>2018-08-18T16:13:26.000Z</time>
      </trkpt>
      <trkpt lat="52.42069090716540813446044921875" lon="13.1761752627789974212646484375">
        <ele>47</ele>
        <time>2018-08-18T16:13:30.000Z</time>
      </trkpt>
      <trkpt lat="52.42076684720814228057861328125" lon="13.17627492360770702362060546875">
        <ele>47</ele>
        <time>2018-08-18T16:13:32.000Z</time>
      </trkpt>
      <trkpt lat="52.4208574555814266204833984375" lon="13.17644859664142131805419921875">
        <ele>47.200000762939453125</ele>
        <time>2018-08-18T16:13:35.000Z</time>
      </trkpt>
      <trkpt lat="52.42094077169895172119140625" lon="13.1766332499682903289794921875">
        <ele>47.59999847412109375</ele>
        <time>2018-08-18T16:13:38.000Z</time>
      </trkpt>
      <trkpt lat="52.42113196291029453277587890625" lon="13.1771100126206874847412109375">
        <ele>48.40000152587890625</ele>
        <time>2018-08-18T16:13:45.000Z</time>
      </trkpt>
      <trkpt lat="52.42117839865386486053466796875" lon="13.17726633511483669281005859375">
        <ele>48.799999237060546875</ele>
        <time>2018-08-18T16:13:47.000Z</time>
      </trkpt>
      <trkpt lat="52.42121594958007335662841796875" lon="13.1774345599114894866943359375">
        <ele>49</ele>
        <time>2018-08-18T16:13:49.000Z</time>
      </trkpt>
      <trkpt lat="52.42126263678073883056640625" lon="13.1777044571936130523681640625">
        <ele>49.40000152587890625</ele>
        <time>2018-08-18T16:13:52.000Z</time>
      </trkpt>
      <trkpt lat="52.42138107307255268096923828125" lon="13.1781312637031078338623046875">
        <ele>50</ele>
        <time>2018-08-18T16:13:57.000Z</time>
      </trkpt>
      <trkpt lat="52.42155231535434722900390625" lon="13.1787394545972347259521484375">
        <ele>51.200000762939453125</ele>
        <time>2018-08-18T16:14:04.000Z</time>
      </trkpt>
      <trkpt lat="52.42180100642144680023193359375" lon="13.17962734960019588470458984375">
        <ele>51.799999237060546875</ele>
        <time>2018-08-18T16:14:14.000Z</time>
      </trkpt>
      <trkpt lat="52.42191500030457973480224609375" lon="13.180068992078304290771484375">
        <ele>52.200000762939453125</ele>
        <time>2018-08-18T16:14:19.000Z</time>
      </trkpt>
      <trkpt lat="52.42193712852895259857177734375" lon="13.18015473894774913787841796875">
        <ele>52.200000762939453125</ele>
        <time>2018-08-18T16:14:20.000Z</time>
      </trkpt>
      <trkpt lat="52.4222384579479694366455078125" lon="13.18091631866991519927978515625">
        <ele>52.59999847412109375</ele>
        <time>2018-08-18T16:14:29.000Z</time>
      </trkpt>
      <trkpt lat="52.42263056337833404541015625" lon="13.18167203105986118316650390625">
        <ele>53.200000762939453125</ele>
        <time>2018-08-18T16:14:38.000Z</time>
      </trkpt>
      <trkpt lat="52.423001043498516082763671875" lon="13.182371668517589569091796875">
        <ele>52.59999847412109375</ele>
        <time>2018-08-18T16:14:46.000Z</time>
      </trkpt>
      <trkpt lat="52.42336339317262172698974609375" lon="13.1830574758350849151611328125">
        <ele>52.200000762939453125</ele>
        <time>2018-08-18T16:14:54.000Z</time>
      </trkpt>
      <trkpt lat="52.42373454384505748748779296875" lon="13.18375862203538417816162109375">
        <ele>52</ele>
        <time>2018-08-18T16:15:02.000Z</time>
      </trkpt>
      <trkpt lat="52.4240881763398647308349609375" lon="13.18451031111180782318115234375">
        <ele>51.40000152587890625</ele>
        <time>2018-08-18T16:15:10.000Z</time>
      </trkpt>
      <trkpt lat="52.42413201369345188140869140625" lon="13.18460284732282161712646484375">
        <ele>51.40000152587890625</ele>
        <time>2018-08-18T16:15:11.000Z</time>
      </trkpt>
      <trkpt lat="52.424497045576572418212890625" lon="13.185320757329463958740234375">
        <ele>50.799999237060546875</ele>
        <time>2018-08-18T16:15:19.000Z</time>
      </trkpt>
      <trkpt lat="52.42470516823232173919677734375" lon="13.1856377609074115753173828125">
        <ele>50.59999847412109375</ele>
        <time>2018-08-18T16:15:23.000Z</time>
      </trkpt>
      <trkpt lat="52.42516256868839263916015625" lon="13.186248131096363067626953125">
        <ele>49.799999237060546875</ele>
        <time>2018-08-18T16:15:31.000Z</time>
      </trkpt>
      <trkpt lat="52.4252767302095890045166015625" lon="13.1863917969167232513427734375">
        <ele>49.40000152587890625</ele>
        <time>2018-08-18T16:15:33.000Z</time>
      </trkpt>
      <trkpt lat="52.4257595278322696685791015625" lon="13.18679203279316425323486328125">
        <ele>48.59999847412109375</ele>
        <time>2018-08-18T16:15:41.000Z</time>
      </trkpt>
      <trkpt lat="52.42582331411540508270263671875" lon="13.18681684322655200958251953125">
        <ele>48.40000152587890625</ele>
        <time>2018-08-18T16:15:42.000Z</time>
      </trkpt>
      <trkpt lat="52.4263640306890010833740234375" lon="13.18683997727930545806884765625">
        <ele>47.40000152587890625</ele>
        <time>2018-08-18T16:15:50.000Z</time>
      </trkpt>
      <trkpt lat="52.4268739856779575347900390625" lon="13.1865282543003559112548828125">
        <ele>46.40000152587890625</ele>
        <time>2018-08-18T16:15:58.000Z</time>
      </trkpt>
      <trkpt lat="52.42707909084856510162353515625" lon="13.18634460680186748504638671875">
        <ele>46.200000762939453125</ele>
        <time>2018-08-18T16:16:02.000Z</time>
      </trkpt>
      <trkpt lat="52.42721739225089550018310546875" lon="13.18619742058217525482177734375">
        <ele>46.200000762939453125</ele>
        <time>2018-08-18T16:16:05.000Z</time>
      </trkpt>
      <trkpt lat="52.4275874532759189605712890625" lon="13.18582777865231037139892578125">
        <ele>45.200000762939453125</ele>
        <time>2018-08-18T16:16:12.000Z</time>
      </trkpt>
      <trkpt lat="52.42811568081378936767578125" lon="13.18535755388438701629638671875">
        <ele>44.799999237060546875</ele>
        <time>2018-08-18T16:16:20.000Z</time>
      </trkpt>
      <trkpt lat="52.4286385439336299896240234375" lon="13.185095451772212982177734375">
        <ele>44.59999847412109375</ele>
        <time>2018-08-18T16:16:27.000Z</time>
      </trkpt>
      <trkpt lat="52.429207004606723785400390625" lon="13.1849581561982631683349609375">
        <ele>44.40000152587890625</ele>
        <time>2018-08-18T16:16:34.000Z</time>
      </trkpt>
      <trkpt lat="52.42937573231756687164306640625" lon="13.18495438434183597564697265625">
        <ele>44.200000762939453125</ele>
        <time>2018-08-18T16:16:36.000Z</time>
      </trkpt>
      <trkpt lat="52.42996028624475002288818359375" lon="13.18503719754517078399658203125">
        <ele>43.200000762939453125</ele>
        <time>2018-08-18T16:16:43.000Z</time>
      </trkpt>
      <trkpt lat="52.43004377000033855438232421875" lon="13.18505622446537017822265625">
        <ele>43.200000762939453125</ele>
        <time>2018-08-18T16:16:44.000Z</time>
      </trkpt>
      <trkpt lat="52.43063167668879032135009765625" lon="13.18517767824232578277587890625">
        <ele>42.40000152587890625</ele>
        <time>2018-08-18T16:16:51.000Z</time>
      </trkpt>
      <trkpt lat="52.43079747073352336883544921875" lon="13.1852089427411556243896484375">
        <ele>42.40000152587890625</ele>
        <time>2018-08-18T16:16:53.000Z</time>
      </trkpt>
      <trkpt lat="52.431323267519474029541015625" lon="13.18551597185432910919189453125">
        <ele>42.59999847412109375</ele>
        <time>2018-08-18T16:17:00.000Z</time>
      </trkpt>
      <trkpt lat="52.43145628832280635833740234375" lon="13.18563398905098438262939453125">
        <ele>42.59999847412109375</ele>
        <time>2018-08-18T16:17:02.000Z</time>
      </trkpt>
      <trkpt lat="52.43189231492578983306884765625" lon="13.186258859932422637939453125">
        <ele>43.40000152587890625</ele>
        <time>2018-08-18T16:17:10.000Z</time>
      </trkpt>
      <trkpt lat="52.43232540786266326904296875" lon="13.18688624538481235504150390625">
        <ele>44.40000152587890625</ele>
        <time>2018-08-18T16:17:19.000Z</time>
      </trkpt>
      <trkpt lat="52.4323715083301067352294921875" lon="13.18695229478180408477783203125">
        <ele>44.200000762939453125</ele>
        <time>2018-08-18T16:17:20.000Z</time>
      </trkpt>
      <trkpt lat="52.4326216243207454681396484375" lon="13.18734255619347095489501953125">
        <ele>45.799999237060546875</ele>
        <time>2018-08-18T16:17:26.000Z</time>
      </trkpt>
      <trkpt lat="52.4329253844916820526123046875" lon="13.18780121393501758575439453125">
        <ele>46.799999237060546875</ele>
        <time>2018-08-18T16:17:33.000Z</time>
      </trkpt>
      <trkpt lat="52.43313484825193881988525390625" lon="13.1881516613066196441650390625">
        <ele>48</ele>
        <time>2018-08-18T16:17:38.000Z</time>
      </trkpt>
      <trkpt lat="52.4333371035754680633544921875" lon="13.1885325349867343902587890625">
        <ele>49</ele>
        <time>2018-08-18T16:17:43.000Z</time>
      </trkpt>
      <trkpt lat="52.4335302226245403289794921875" lon="13.18891013972461223602294921875">
        <ele>50.200000762939453125</ele>
        <time>2018-08-18T16:17:48.000Z</time>
      </trkpt>
      <trkpt lat="52.4337447993457317352294921875" lon="13.1893281452357769012451171875">
        <ele>51.200000762939453125</ele>
        <time>2018-08-18T16:17:53.000Z</time>
      </trkpt>
      <trkpt lat="52.434124164283275604248046875" lon="13.19001034833490848541259765625">
        <ele>52.40000152587890625</ele>
        <time>2018-08-18T16:18:01.000Z</time>
      </trkpt>
      <trkpt lat="52.43449489586055278778076171875" lon="13.1906734406948089599609375">
        <ele>53</ele>
        <time>2018-08-18T16:18:09.000Z</time>
      </trkpt>
      <trkpt lat="52.43466404266655445098876953125" lon="13.19101634435355663299560546875">
        <ele>53.40000152587890625</ele>
        <time>2018-08-18T16:18:13.000Z</time>
      </trkpt>
      <trkpt lat="52.435015998780727386474609375" lon="13.19169477559626102447509765625">
        <ele>54.40000152587890625</ele>
        <time>2018-08-18T16:18:21.000Z</time>
      </trkpt>
      <trkpt lat="52.4354020692408084869384765625" lon="13.19241276942193508148193359375">
        <ele>55</ele>
        <time>2018-08-18T16:18:29.000Z</time>
      </trkpt>
      <trkpt lat="52.4357970245182514190673828125" lon="13.19314417429268360137939453125">
        <ele>55.40000152587890625</ele>
        <time>2018-08-18T16:18:37.000Z</time>
      </trkpt>
      <trkpt lat="52.43620011024177074432373046875" lon="13.19388127885758876800537109375">
        <ele>56</ele>
        <time>2018-08-18T16:18:45.000Z</time>
      </trkpt>
      <trkpt lat="52.43651342578232288360595703125" lon="13.19439542479813098907470703125">
        <ele>56.59999847412109375</ele>
        <time>2018-08-18T16:18:51.000Z</time>
      </trkpt>
      <trkpt lat="52.4369842372834682464599609375" lon="13.1950207985937595367431640625">
        <ele>57.200000762939453125</ele>
        <time>2018-08-18T16:18:59.000Z</time>
      </trkpt>
      <trkpt lat="52.4374187551438808441162109375" lon="13.195577524602413177490234375">
        <ele>57.200000762939453125</ele>
        <time>2018-08-18T16:19:06.000Z</time>
      </trkpt>
      <trkpt lat="52.43785553611814975738525390625" lon="13.196103237569332122802734375">
        <ele>57.200000762939453125</ele>
        <time>2018-08-18T16:19:13.000Z</time>
      </trkpt>
      <trkpt lat="52.438344620168209075927734375" lon="13.19671084173023700714111328125">
        <ele>57.200000762939453125</ele>
        <time>2018-08-18T16:19:20.000Z</time>
      </trkpt>
      <trkpt lat="52.438781820237636566162109375" lon="13.19726102985441684722900390625">
        <ele>55.59999847412109375</ele>
        <time>2018-08-18T16:19:26.000Z</time>
      </trkpt>
      <trkpt lat="52.43885281495749950408935546875" lon="13.197354488074779510498046875">
        <ele>55.200000762939453125</ele>
        <time>2018-08-18T16:19:27.000Z</time>
      </trkpt>
      <trkpt lat="52.43934097699820995330810546875" lon="13.19797240197658538818359375">
        <ele>54.40000152587890625</ele>
        <time>2018-08-18T16:19:34.000Z</time>
      </trkpt>
      <trkpt lat="52.43981203995645046234130859375" lon="13.1985998712480068206787109375">
        <ele>54.799999237060546875</ele>
        <time>2018-08-18T16:19:41.000Z</time>
      </trkpt>
      <trkpt lat="52.44030003435909748077392578125" lon="13.19921770133078098297119140625">
        <ele>54.799999237060546875</ele>
        <time>2018-08-18T16:19:48.000Z</time>
      </trkpt>
      <trkpt lat="52.4407805688679218292236328125" lon="13.19980376400053501129150390625">
        <ele>55.200000762939453125</ele>
        <time>2018-08-18T16:19:55.000Z</time>
      </trkpt>
      <trkpt lat="52.44121282361447811126708984375" lon="13.20035646669566631317138671875">
        <ele>55.40000152587890625</ele>
        <time>2018-08-18T16:20:02.000Z</time>
      </trkpt>
      <trkpt lat="52.44167466647922992706298828125" lon="13.20091704837977886199951171875">
        <ele>55.40000152587890625</ele>
        <time>2018-08-18T16:20:10.000Z</time>
      </trkpt>
      <trkpt lat="52.44210549630224704742431640625" lon="13.201453574001789093017578125">
        <ele>55.40000152587890625</ele>
        <time>2018-08-18T16:20:17.000Z</time>
      </trkpt>
      <trkpt lat="52.44256348349153995513916015625" lon="13.2020206935703754425048828125">
        <ele>55.200000762939453125</ele>
        <time>2018-08-18T16:20:24.000Z</time>
      </trkpt>
      <trkpt lat="52.44304351508617401123046875" lon="13.20263902656733989715576171875">
        <ele>54.799999237060546875</ele>
        <time>2018-08-18T16:20:31.000Z</time>
      </trkpt>
      <trkpt lat="52.44347141124308109283447265625" lon="13.20320346392691135406494140625">
        <ele>54.59999847412109375</ele>
        <time>2018-08-18T16:20:37.000Z</time>
      </trkpt>
      <trkpt lat="52.4439435638487339019775390625" lon="13.20381961762905120849609375">
        <ele>54.59999847412109375</ele>
        <time>2018-08-18T16:20:44.000Z</time>
      </trkpt>
      <trkpt lat="52.44440884329378604888916015625" lon="13.20441682823002338409423828125">
        <ele>55</ele>
        <time>2018-08-18T16:20:51.000Z</time>
      </trkpt>
      <trkpt lat="52.444883175194263458251953125" lon="13.205021582543849945068359375">
        <ele>55.200000762939453125</ele>
        <time>2018-08-18T16:20:58.000Z</time>
      </trkpt>
      <trkpt lat="52.44535314850509166717529296875" lon="13.20560420863330364227294921875">
        <ele>55.200000762939453125</ele>
        <time>2018-08-18T16:21:05.000Z</time>
      </trkpt>
      <trkpt lat="52.4457832239568233489990234375" lon="13.20614534430205821990966796875">
        <ele>55</ele>
        <time>2018-08-18T16:21:11.000Z</time>
      </trkpt>
      <trkpt lat="52.44628085754811763763427734375" lon="13.20675638504326343536376953125">
        <ele>55</ele>
        <time>2018-08-18T16:21:18.000Z</time>
      </trkpt>
      <trkpt lat="52.4467508308589458465576171875" lon="13.20734680630266666412353515625">
        <ele>55.40000152587890625</ele>
        <time>2018-08-18T16:21:25.000Z</time>
      </trkpt>
      <trkpt lat="52.44695811532437801361083984375" lon="13.2076040469110012054443359375">
        <ele>55.59999847412109375</ele>
        <time>2018-08-18T16:21:28.000Z</time>
      </trkpt>
      <trkpt lat="52.447432614862918853759765625" lon="13.20821098051965236663818359375">
        <ele>55.59999847412109375</ele>
        <time>2018-08-18T16:21:35.000Z</time>
      </trkpt>
      <trkpt lat="52.447903342545032501220703125" lon="13.2088066823780536651611328125">
        <ele>55.59999847412109375</ele>
        <time>2018-08-18T16:21:42.000Z</time>
      </trkpt>
      <trkpt lat="52.44835956953465938568115234375" lon="13.20939534343779087066650390625">
        <ele>56</ele>
        <time>2018-08-18T16:21:49.000Z</time>
      </trkpt>
      <trkpt lat="52.448422349989414215087890625" lon="13.2094755582511425018310546875">
        <ele>56.200000762939453125</ele>
        <time>2018-08-18T16:21:50.000Z</time>
      </trkpt>
      <trkpt lat="52.44885527528822422027587890625" lon="13.21000001393258571624755859375">
        <ele>57.200000762939453125</ele>
        <time>2018-08-18T16:21:57.000Z</time>
      </trkpt>
      <trkpt lat="52.4491554312407970428466796875" lon="13.21038834750652313232421875">
        <ele>58.40000152587890625</ele>
        <time>2018-08-18T16:22:02.000Z</time>
      </trkpt>
      <trkpt lat="52.44952733628451824188232421875" lon="13.210863433778285980224609375">
        <ele>59.40000152587890625</ele>
        <time>2018-08-18T16:22:08.000Z</time>
      </trkpt>
      <trkpt lat="52.44965306483209133148193359375" lon="13.211020343005657196044921875">
        <ele>59.40000152587890625</ele>
        <time>2018-08-18T16:22:10.000Z</time>
      </trkpt>
      <trkpt lat="52.44977510534226894378662109375" lon="13.211185298860073089599609375">
        <ele>59.799999237060546875</ele>
        <time>2018-08-18T16:22:12.000Z</time>
      </trkpt>
      <trkpt lat="52.4501387961208820343017578125" lon="13.21167471818625926971435546875">
        <ele>60.40000152587890625</ele>
        <time>2018-08-18T16:22:18.000Z</time>
      </trkpt>
      <trkpt lat="52.4505702964961528778076171875" lon="13.2122472859919071197509765625">
        <ele>61</ele>
        <time>2018-08-18T16:22:25.000Z</time>
      </trkpt>
      <trkpt lat="52.4510028026998043060302734375" lon="13.2128132320940494537353515625">
        <ele>61.40000152587890625</ele>
        <time>2018-08-18T16:22:32.000Z</time>
      </trkpt>
      <trkpt lat="52.45113481767475605010986328125" lon="13.212966620922088623046875">
        <ele>61.40000152587890625</ele>
        <time>2018-08-18T16:22:34.000Z</time>
      </trkpt>
      <trkpt lat="52.4515345506370067596435546875" lon="13.21341413073241710662841796875">
        <ele>61.799999237060546875</ele>
        <time>2018-08-18T16:22:40.000Z</time>
      </trkpt>
      <trkpt lat="52.45187359862029552459716796875" lon="13.2138096727430820465087890625">
        <ele>62.59999847412109375</ele>
        <time>2018-08-18T16:22:45.000Z</time>
      </trkpt>
      <trkpt lat="52.45233946479856967926025390625" lon="13.21435424499213695526123046875">
        <ele>63.200000762939453125</ele>
        <time>2018-08-18T16:22:52.000Z</time>
      </trkpt>
      <trkpt lat="52.4527995474636554718017578125" lon="13.21494005620479583740234375">
        <ele>63.200000762939453125</ele>
        <time>2018-08-18T16:22:59.000Z</time>
      </trkpt>
      <trkpt lat="52.4532642401754856109619140625" lon="13.2155214250087738037109375">
        <ele>63.200000762939453125</ele>
        <time>2018-08-18T16:23:06.000Z</time>
      </trkpt>
      <trkpt lat="52.45375567115843296051025390625" lon="13.216140009462833404541015625">
        <ele>63</ele>
        <time>2018-08-18T16:23:13.000Z</time>
      </trkpt>
      <trkpt lat="52.4541919492185115814208984375" lon="13.216676451265811920166015625">
        <ele>63</ele>
        <time>2018-08-18T16:23:19.000Z</time>
      </trkpt>
      <trkpt lat="52.4546697176992893218994140625" lon="13.21724801324307918548583984375">
        <ele>62.40000152587890625</ele>
        <time>2018-08-18T16:23:26.000Z</time>
      </trkpt>
      <trkpt lat="52.45510029606521129608154296875" lon="13.21782334707677364349365234375">
        <ele>62.799999237060546875</ele>
        <time>2018-08-18T16:23:33.000Z</time>
      </trkpt>
      <trkpt lat="52.45536214672029018402099609375" lon="13.21815527044236660003662109375">
        <ele>63.40000152587890625</ele>
        <time>2018-08-18T16:23:37.000Z</time>
      </trkpt>
      <trkpt lat="52.45582750998437404632568359375" lon="13.2187275029718875885009765625">
        <ele>64</ele>
        <time>2018-08-18T16:23:44.000Z</time>
      </trkpt>
      <trkpt lat="52.45623596012592315673828125" lon="13.2192230410873889923095703125">
        <ele>64.40000152587890625</ele>
        <time>2018-08-18T16:23:50.000Z</time>
      </trkpt>
      <trkpt lat="52.45667022652924060821533203125" lon="13.21976241655647754669189453125">
        <ele>64.59999847412109375</ele>
        <time>2018-08-18T16:23:56.000Z</time>
      </trkpt>
      <trkpt lat="52.4571048282086849212646484375" lon="13.22032283060252666473388671875">
        <ele>64.1999969482421875</ele>
        <time>2018-08-18T16:24:02.000Z</time>
      </trkpt>
      <trkpt lat="52.457584105432033538818359375" lon="13.22093906812369823455810546875">
        <ele>63.59999847412109375</ele>
        <time>2018-08-18T16:24:09.000Z</time>
      </trkpt>
      <trkpt lat="52.458076290786266326904296875" lon="13.221531920135021209716796875">
        <ele>64</ele>
        <time>2018-08-18T16:24:16.000Z</time>
      </trkpt>
      <trkpt lat="52.458515502512454986572265625" lon="13.22208168916404247283935546875">
        <ele>64.1999969482421875</ele>
        <time>2018-08-18T16:24:22.000Z</time>
      </trkpt>
      <trkpt lat="52.45901799760758876800537109375" lon="13.2226909697055816650390625">
        <ele>64.1999969482421875</ele>
        <time>2018-08-18T16:24:29.000Z</time>
      </trkpt>
      <trkpt lat="52.45950154960155487060546875" lon="13.22329287417232990264892578125">
        <ele>64.59999847412109375</ele>
        <time>2018-08-18T16:24:36.000Z</time>
      </trkpt>
      <trkpt lat="52.45988368056714534759521484375" lon="13.22378472425043582916259765625">
        <ele>65.59999847412109375</ele>
        <time>2018-08-18T16:24:42.000Z</time>
      </trkpt>
      <trkpt lat="52.46026824228465557098388671875" lon="13.2242924161255359649658203125">
        <ele>66.59999847412109375</ele>
        <time>2018-08-18T16:24:48.000Z</time>
      </trkpt>
      <trkpt lat="52.4607239663600921630859375" lon="13.22488727979362010955810546875">
        <ele>66.8000030517578125</ele>
        <time>2018-08-18T16:24:55.000Z</time>
      </trkpt>
      <trkpt lat="52.4612203426659107208251953125" lon="13.22549245320260524749755859375">
        <ele>67.1999969482421875</ele>
        <time>2018-08-18T16:25:02.000Z</time>
      </trkpt>
      <trkpt lat="52.46171562932431697845458984375" lon="13.22611606679856777191162109375">
        <ele>67.1999969482421875</ele>
        <time>2018-08-18T16:25:09.000Z</time>
      </trkpt>
      <trkpt lat="52.46215827763080596923828125" lon="13.226662985980510711669921875">
        <ele>66.40000152587890625</ele>
        <time>2018-08-18T16:25:15.000Z</time>
      </trkpt>
      <trkpt lat="52.4625892750918865203857421875" lon="13.227206133306026458740234375">
        <ele>65.59999847412109375</ele>
        <time>2018-08-18T16:25:21.000Z</time>
      </trkpt>
      <trkpt lat="52.4630871601402759552001953125" lon="13.22782429866492748260498046875">
        <ele>65.40000152587890625</ele>
        <time>2018-08-18T16:25:28.000Z</time>
      </trkpt>
      <trkpt lat="52.46355193667113780975341796875" lon="13.2284313999116420745849609375">
        <ele>66</ele>
        <time>2018-08-18T16:25:35.000Z</time>
      </trkpt>
      <trkpt lat="52.4640232510864734649658203125" lon="13.22902500629425048828125">
        <ele>66.40000152587890625</ele>
        <time>2018-08-18T16:25:42.000Z</time>
      </trkpt>
      <trkpt lat="52.46452121995389461517333984375" lon="13.22965306229889392852783203125">
        <ele>66.40000152587890625</ele>
        <time>2018-08-18T16:25:49.000Z</time>
      </trkpt>
      <trkpt lat="52.4646562524139881134033203125" lon="13.2298395596444606781005859375">
        <ele>66.59999847412109375</ele>
        <time>2018-08-18T16:25:51.000Z</time>
      </trkpt>
      <trkpt lat="52.46514550410211086273193359375" lon="13.2304229401051998138427734375">
        <ele>66.59999847412109375</ele>
        <time>2018-08-18T16:25:58.000Z</time>
      </trkpt>
      <trkpt lat="52.465621344745159149169921875" lon="13.23103188537061214447021484375">
        <ele>66.40000152587890625</ele>
        <time>2018-08-18T16:26:05.000Z</time>
      </trkpt>
      <trkpt lat="52.466096095740795135498046875" lon="13.23165281675755977630615234375">
        <ele>66.40000152587890625</ele>
        <time>2018-08-18T16:26:12.000Z</time>
      </trkpt>
      <trkpt lat="52.4665938131511211395263671875" lon="13.23227659799158573150634765625">
        <ele>66</ele>
        <time>2018-08-18T16:26:19.000Z</time>
      </trkpt>
      <trkpt lat="52.46702237986028194427490234375" lon="13.232834078371524810791015625">
        <ele>65.8000030517578125</ele>
        <time>2018-08-18T16:26:25.000Z</time>
      </trkpt>
      <trkpt lat="52.46724248863756656646728515625" lon="13.23311126790940761566162109375">
        <ele>65.59999847412109375</ele>
        <time>2018-08-18T16:26:28.000Z</time>
      </trkpt>
      <trkpt lat="52.4677360989153385162353515625" lon="13.2337381504476070404052734375">
        <ele>65.1999969482421875</ele>
        <time>2018-08-18T16:26:35.000Z</time>
      </trkpt>
      <trkpt lat="52.46817539446055889129638671875" lon="13.2343349419534206390380859375">
        <ele>65.1999969482421875</ele>
        <time>2018-08-18T16:26:41.000Z</time>
      </trkpt>
      <trkpt lat="52.4686366505920886993408203125" lon="13.234887309372425079345703125">
        <ele>65</ele>
        <time>2018-08-18T16:26:47.000Z</time>
      </trkpt>
      <trkpt lat="52.46909455396234989166259765625" lon="13.2354768924415111541748046875">
        <ele>64.8000030517578125</ele>
        <time>2018-08-18T16:26:53.000Z</time>
      </trkpt>
      <trkpt lat="52.4694956280291080474853515625" lon="13.23601207695901393890380859375">
        <ele>64.40000152587890625</ele>
        <time>2018-08-18T16:26:59.000Z</time>
      </trkpt>
      <trkpt lat="52.469552457332611083984375" lon="13.23609824292361736297607421875">
        <ele>64.1999969482421875</ele>
        <time>2018-08-18T16:27:00.000Z</time>
      </trkpt>
      <trkpt lat="52.46977868489921092987060546875" lon="13.2364565692842006683349609375">
        <ele>64</ele>
        <time>2018-08-18T16:27:04.000Z</time>
      </trkpt>
      <trkpt lat="52.4702565371990203857421875" lon="13.23695470578968524932861328125">
        <ele>63.799999237060546875</ele>
        <time>2018-08-18T16:27:12.000Z</time>
      </trkpt>
      <trkpt lat="52.47036977671086788177490234375" lon="13.2371002994477748870849609375">
        <ele>64</ele>
        <time>2018-08-18T16:27:14.000Z</time>
      </trkpt>
      <trkpt lat="52.470844946801662445068359375" lon="13.2376872003078460693359375">
        <ele>64.59999847412109375</ele>
        <time>2018-08-18T16:27:22.000Z</time>
      </trkpt>
      <trkpt lat="52.4713091365993022918701171875" lon="13.23834761045873165130615234375">
        <ele>64.40000152587890625</ele>
        <time>2018-08-18T16:27:30.000Z</time>
      </trkpt>
      <trkpt lat="52.47177223674952983856201171875" lon="13.23894607834517955780029296875">
        <ele>63.799999237060546875</ele>
        <time>2018-08-18T16:27:37.000Z</time>
      </trkpt>
      <trkpt lat="52.47226676903665065765380859375" lon="13.239550329744815826416015625">
        <ele>63.59999847412109375</ele>
        <time>2018-08-18T16:27:44.000Z</time>
      </trkpt>
      <trkpt lat="52.47275040484964847564697265625" lon="13.24014837853610515594482421875">
        <ele>63.799999237060546875</ele>
        <time>2018-08-18T16:27:51.000Z</time>
      </trkpt>
      <trkpt lat="52.47325331903994083404541015625" lon="13.24076176621019840240478515625">
        <ele>64.59999847412109375</ele>
        <time>2018-08-18T16:27:58.000Z</time>
      </trkpt>
      <trkpt lat="52.47372664511203765869140625" lon="13.24134682305157184600830078125">
        <ele>64.59999847412109375</ele>
        <time>2018-08-18T16:28:04.000Z</time>
      </trkpt>
      <trkpt lat="52.474202401936054229736328125" lon="13.24193791486322879791259765625">
        <ele>63.799999237060546875</ele>
        <time>2018-08-18T16:28:10.000Z</time>
      </trkpt>
      <trkpt lat="52.474514879286289215087890625" lon="13.24232683517038822174072265625">
        <ele>63.200000762939453125</ele>
        <time>2018-08-18T16:28:14.000Z</time>
      </trkpt>
      <trkpt lat="52.474954426288604736328125" lon="13.24292027391493320465087890625">
        <ele>62.40000152587890625</ele>
        <time>2018-08-18T16:28:20.000Z</time>
      </trkpt>
      <trkpt lat="52.47517813928425312042236328125" lon="13.2431946136057376861572265625">
        <ele>62.200000762939453125</ele>
        <time>2018-08-18T16:28:23.000Z</time>
      </trkpt>
      <trkpt lat="52.47564501129090785980224609375" lon="13.243773467838764190673828125">
        <ele>62</ele>
        <time>2018-08-18T16:28:29.000Z</time>
      </trkpt>
      <trkpt lat="52.4760915152728557586669921875" lon="13.24434955604374408721923828125">
        <ele>62</ele>
        <time>2018-08-18T16:28:35.000Z</time>
      </trkpt>
      <trkpt lat="52.47652712278068065643310546875" lon="13.2448887638747692108154296875">
        <ele>62</ele>
        <time>2018-08-18T16:28:41.000Z</time>
      </trkpt>
      <trkpt lat="52.477036826312541961669921875" lon="13.24543853290379047393798828125">
        <ele>62.40000152587890625</ele>
        <time>2018-08-18T16:28:48.000Z</time>
      </trkpt>
      <trkpt lat="52.4775187857449054718017578125" lon="13.24597178958356380462646484375">
        <ele>62.799999237060546875</ele>
        <time>2018-08-18T16:28:55.000Z</time>
      </trkpt>
      <trkpt lat="52.477587349712848663330078125" lon="13.24604789726436138153076171875">
        <ele>63.200000762939453125</ele>
        <time>2018-08-18T16:28:56.000Z</time>
      </trkpt>
      <trkpt lat="52.47807308100163936614990234375" lon="13.2465738616883754730224609375">
        <ele>64.1999969482421875</ele>
        <time>2018-08-18T16:29:03.000Z</time>
      </trkpt>
      <trkpt lat="52.4785199202597141265869140625" lon="13.2470693998038768768310546875">
        <ele>64.59999847412109375</ele>
        <time>2018-08-18T16:29:09.000Z</time>
      </trkpt>
      <trkpt lat="52.4789849482476711273193359375" lon="13.24760827235877513885498046875">
        <ele>64.59999847412109375</ele>
        <time>2018-08-18T16:29:15.000Z</time>
      </trkpt>
      <trkpt lat="52.47946523129940032958984375" lon="13.24815611355006694793701171875">
        <ele>64</ele>
        <time>2018-08-18T16:29:21.000Z</time>
      </trkpt>
      <trkpt lat="52.47986513189971446990966796875" lon="13.248591385781764984130859375">
        <ele>63.200000762939453125</ele>
        <time>2018-08-18T16:29:26.000Z</time>
      </trkpt>
      <trkpt lat="52.48034776188433170318603515625" lon="13.24911785311996936798095703125">
        <ele>62.59999847412109375</ele>
        <time>2018-08-18T16:29:32.000Z</time>
      </trkpt>
      <trkpt lat="52.4808319844305515289306640625" lon="13.249657563865184783935546875">
        <ele>62.200000762939453125</ele>
        <time>2018-08-18T16:29:38.000Z</time>
      </trkpt>
      <trkpt lat="52.48130480758845806121826171875" lon="13.25020305812358856201171875">
        <ele>61.59999847412109375</ele>
        <time>2018-08-18T16:29:44.000Z</time>
      </trkpt>
      <trkpt lat="52.48170194216072559356689453125" lon="13.25065098702907562255859375">
        <ele>61</ele>
        <time>2018-08-18T16:29:49.000Z</time>
      </trkpt>
      <trkpt lat="52.4821797944605350494384765625" lon="13.25118835084140300750732421875">
        <ele>60.200000762939453125</ele>
        <time>2018-08-18T16:29:55.000Z</time>
      </trkpt>
      <trkpt lat="52.48225271701812744140625" lon="13.25127284042537212371826171875">
        <ele>60</ele>
        <time>2018-08-18T16:29:56.000Z</time>
      </trkpt>
      <trkpt lat="52.4827179126441478729248046875" lon="13.25185856781899929046630859375">
        <ele>59.59999847412109375</ele>
        <time>2018-08-18T16:30:02.000Z</time>
      </trkpt>
      <trkpt lat="52.4831779114902019500732421875" lon="13.25244831852614879608154296875">
        <ele>59.200000762939453125</ele>
        <time>2018-08-18T16:30:08.000Z</time>
      </trkpt>
      <trkpt lat="52.483408749103546142578125" lon="13.25273967348039150238037109375">
        <ele>59</ele>
        <time>2018-08-18T16:30:11.000Z</time>
      </trkpt>
      <trkpt lat="52.483871094882488250732421875" lon="13.253320120275020599365234375">
        <ele>58.59999847412109375</ele>
        <time>2018-08-18T16:30:17.000Z</time>
      </trkpt>
      <trkpt lat="52.4843342788517475128173828125" lon="13.2539011538028717041015625">
        <ele>58.200000762939453125</ele>
        <time>2018-08-18T16:30:23.000Z</time>
      </trkpt>
      <trkpt lat="52.484775669872760772705078125" lon="13.2544572092592716217041015625">
        <ele>58.40000152587890625</ele>
        <time>2018-08-18T16:30:29.000Z</time>
      </trkpt>
      <trkpt lat="52.4852613173425197601318359375" lon="13.25505391694605350494384765625">
        <ele>58.59999847412109375</ele>
        <time>2018-08-18T16:30:36.000Z</time>
      </trkpt>
      <trkpt lat="52.485705055296421051025390625" lon="13.25562774203717708587646484375">
        <ele>58</ele>
        <time>2018-08-18T16:30:43.000Z</time>
      </trkpt>
      <trkpt lat="52.485983669757843017578125" lon="13.255950696766376495361328125">
        <ele>57</ele>
        <time>2018-08-18T16:30:48.000Z</time>
      </trkpt>
      <trkpt lat="52.48616538941860198974609375" lon="13.25621212832629680633544921875">
        <ele>56.59999847412109375</ele>
        <time>2018-08-18T16:30:52.000Z</time>
      </trkpt>
      <trkpt lat="52.48610730282962322235107421875" lon="13.25666793622076511383056640625">
        <ele>56.200000762939453125</ele>
        <time>2018-08-18T16:30:57.000Z</time>
      </trkpt>
      <trkpt lat="52.4860287643969058990478515625" lon="13.25687681324779987335205078125">
        <ele>55.799999237060546875</ele>
        <time>2018-08-18T16:30:59.000Z</time>
      </trkpt>
      <trkpt lat="52.48587897978723049163818359375" lon="13.2572168670594692230224609375">
        <ele>55.40000152587890625</ele>
        <time>2018-08-18T16:31:03.000Z</time>
      </trkpt>
      <trkpt lat="52.485882081091403961181640625" lon="13.257941566407680511474609375">
        <ele>55</ele>
        <time>2018-08-18T16:31:12.000Z</time>
      </trkpt>
      <trkpt lat="52.48591728508472442626953125" lon="13.25801272876560688018798828125">
        <ele>54.799999237060546875</ele>
        <time>2018-08-18T16:31:13.000Z</time>
      </trkpt>
      <trkpt lat="52.4859635531902313232421875" lon="13.25808464549481868743896484375">
        <ele>54.799999237060546875</ele>
        <time>2018-08-18T16:31:14.000Z</time>
      </trkpt>
      <trkpt lat="52.48619296588003635406494140625" lon="13.2584067620337009429931640625">
        <ele>54.59999847412109375</ele>
        <time>2018-08-18T16:31:18.000Z</time>
      </trkpt>
      <trkpt lat="52.48657266609370708465576171875" lon="13.25903984718024730682373046875">
        <ele>54.59999847412109375</ele>
        <time>2018-08-18T16:31:25.000Z</time>
      </trkpt>
      <trkpt lat="52.4868793599307537078857421875" lon="13.25959305278956890106201171875">
        <ele>54.799999237060546875</ele>
        <time>2018-08-18T16:31:31.000Z</time>
      </trkpt>
      <trkpt lat="52.48695454560220241546630859375" lon="13.2601555623114109039306640625">
        <ele>55.200000762939453125</ele>
        <time>2018-08-18T16:31:36.000Z</time>
      </trkpt>
      <trkpt lat="52.4870617501437664031982421875" lon="13.26069326139986515045166015625">
        <ele>55.799999237060546875</ele>
        <time>2018-08-18T16:31:41.000Z</time>
      </trkpt>
      <trkpt lat="52.48710550367832183837890625" lon="13.26091370545327663421630859375">
        <ele>56</ele>
        <time>2018-08-18T16:31:43.000Z</time>
      </trkpt>
      <trkpt lat="52.48720600269734859466552734375" lon="13.261844851076602935791015625">
        <ele>56.40000152587890625</ele>
        <time>2018-08-18T16:31:51.000Z</time>
      </trkpt>
      <trkpt lat="52.4872723035514354705810546875" lon="13.26272436417639255523681640625">
        <ele>56.40000152587890625</ele>
        <time>2018-08-18T16:31:58.000Z</time>
      </trkpt>
      <trkpt lat="52.48734380118548870086669921875" lon="13.26356490142643451690673828125">
        <ele>56.200000762939453125</ele>
        <time>2018-08-18T16:32:05.000Z</time>
      </trkpt>
      <trkpt lat="52.4873065017163753509521484375" lon="13.2638023607432842254638671875">
        <ele>55.200000762939453125</ele>
        <time>2018-08-18T16:32:13.000Z</time>
      </trkpt>
      <trkpt lat="52.48732251115143299102783203125" lon="13.26383940875530242919921875">
        <ele>55</ele>
        <time>2018-08-18T16:32:14.000Z</time>
      </trkpt>
      <trkpt lat="52.48742409981787204742431640625" lon="13.26388726942241191864013671875">
        <ele>54.59999847412109375</ele>
        <time>2018-08-18T16:32:17.000Z</time>
      </trkpt>
      <trkpt lat="52.48772534541785717010498046875" lon="13.2641922868788242340087890625">
        <ele>54.40000152587890625</ele>
        <time>2018-08-18T16:32:24.000Z</time>
      </trkpt>
      <trkpt lat="52.48803111724555492401123046875" lon="13.2649506814777851104736328125">
        <ele>54.799999237060546875</ele>
        <time>2018-08-18T16:32:33.000Z</time>
      </trkpt>
      <trkpt lat="52.48831274919211864471435546875" lon="13.26572357676923274993896484375">
        <ele>55.40000152587890625</ele>
        <time>2018-08-18T16:32:41.000Z</time>
      </trkpt>
      <trkpt lat="52.4886056967079639434814453125" lon="13.26649521477520465850830078125">
        <ele>56</ele>
        <time>2018-08-18T16:32:49.000Z</time>
      </trkpt>
      <trkpt lat="52.4889191798865795135498046875" lon="13.267266266047954559326171875">
        <ele>56.40000152587890625</ele>
        <time>2018-08-18T16:32:57.000Z</time>
      </trkpt>
      <trkpt lat="52.48912696726620197296142578125" lon="13.26774797402322292327880859375">
        <ele>57</ele>
        <time>2018-08-18T16:33:02.000Z</time>
      </trkpt>
      <trkpt lat="52.48953298665583133697509765625" lon="13.2684841565787792205810546875">
        <ele>57.40000152587890625</ele>
        <time>2018-08-18T16:33:10.000Z</time>
      </trkpt>
      <trkpt lat="52.48958512209355831146240234375" lon="13.26857795007526874542236328125">
        <ele>57.59999847412109375</ele>
        <time>2018-08-18T16:33:11.000Z</time>
      </trkpt>
      <trkpt lat="52.48982585035264492034912109375" lon="13.26906342990696430206298828125">
        <ele>58.200000762939453125</ele>
        <time>2018-08-18T16:33:16.000Z</time>
      </trkpt>
      <trkpt lat="52.490186356008052825927734375" lon="13.26973113231360912322998046875">
        <ele>58.799999237060546875</ele>
        <time>2018-08-18T16:33:23.000Z</time>
      </trkpt>
      <trkpt lat="52.4905496276915073394775390625" lon="13.2704334519803524017333984375">
        <ele>59</ele>
        <time>2018-08-18T16:33:30.000Z</time>
      </trkpt>
      <trkpt lat="52.49092455022037029266357421875" lon="13.27116091735661029815673828125">
        <ele>59</ele>
        <time>2018-08-18T16:33:37.000Z</time>
      </trkpt>
      <trkpt lat="52.49122797511518001556396484375" lon="13.2717494107782840728759765625">
        <ele>58.799999237060546875</ele>
        <time>2018-08-18T16:33:43.000Z</time>
      </trkpt>
      <trkpt lat="52.491212300956249237060546875" lon="13.27219306491315364837646484375">
        <ele>58.59999847412109375</ele>
        <time>2018-08-18T16:33:47.000Z</time>
      </trkpt>
      <trkpt lat="52.49108145944774150848388671875" lon="13.27314290218055248260498046875">
        <ele>58</ele>
        <time>2018-08-18T16:33:55.000Z</time>
      </trkpt>
      <trkpt lat="52.49103100039064884185791015625" lon="13.27351841144263744354248046875">
        <ele>57</ele>
        <time>2018-08-18T16:33:58.000Z</time>
      </trkpt>
      <trkpt lat="52.4909519590437412261962890625" lon="13.2741523347795009613037109375">
        <ele>55.799999237060546875</ele>
        <time>2018-08-18T16:34:03.000Z</time>
      </trkpt>
      <trkpt lat="52.49088339507579803466796875" lon="13.2746777124702930450439453125">
        <ele>54.799999237060546875</ele>
        <time>2018-08-18T16:34:07.000Z</time>
      </trkpt>
      <trkpt lat="52.49079714529216289520263671875" lon="13.275347091257572174072265625">
        <ele>53.799999237060546875</ele>
        <time>2018-08-18T16:34:12.000Z</time>
      </trkpt>
      <trkpt lat="52.490708045661449432373046875" lon="13.27600163407623767852783203125">
        <ele>52.59999847412109375</ele>
        <time>2018-08-18T16:34:17.000Z</time>
      </trkpt>
      <trkpt lat="52.4906683154404163360595703125" lon="13.2761639915406703948974609375">
        <ele>52.200000762939453125</ele>
        <time>2018-08-18T16:34:19.000Z</time>
      </trkpt>
      <trkpt lat="52.49059631489217281341552734375" lon="13.27636021189391613006591796875">
        <ele>51.200000762939453125</ele>
        <time>2018-08-18T16:34:22.000Z</time>
      </trkpt>
      <trkpt lat="52.49057871289551258087158203125" lon="13.27680663205683231353759765625">
        <ele>50.200000762939453125</ele>
        <time>2018-08-18T16:34:27.000Z</time>
      </trkpt>
      <trkpt lat="52.49057770706713199615478515625" lon="13.27690956182777881622314453125">
        <ele>50.200000762939453125</ele>
        <time>2018-08-18T16:34:28.000Z</time>
      </trkpt>
      <trkpt lat="52.4904798902571201324462890625" lon="13.277905918657779693603515625">
        <ele>50.200000762939453125</ele>
        <time>2018-08-18T16:34:37.000Z</time>
      </trkpt>
      <trkpt lat="52.4904658086597919464111328125" lon="13.27815745957195758819580078125">
        <ele>50.200000762939453125</ele>
        <time>2018-08-18T16:34:39.000Z</time>
      </trkpt>
      <trkpt lat="52.49064601957798004150390625" lon="13.27882750891149044036865234375">
        <ele>51.200000762939453125</ele>
        <time>2018-08-18T16:34:45.000Z</time>
      </trkpt>
      <trkpt lat="52.4907645396888256072998046875" lon="13.278982155025005340576171875">
        <ele>51.59999847412109375</ele>
        <time>2018-08-18T16:34:47.000Z</time>
      </trkpt>
      <trkpt lat="52.49094768427312374114990234375" lon="13.27919497154653072357177734375">
        <ele>52.200000762939453125</ele>
        <time>2018-08-18T16:34:50.000Z</time>
      </trkpt>
      <trkpt lat="52.49144908972084522247314453125" lon="13.27976728789508342742919921875">
        <ele>52.799999237060546875</ele>
        <time>2018-08-18T16:34:58.000Z</time>
      </trkpt>
      <trkpt lat="52.4918997846543788909912109375" lon="13.28026928007602691650390625">
        <ele>53.200000762939453125</ele>
        <time>2018-08-18T16:35:05.000Z</time>
      </trkpt>
      <trkpt lat="52.49235324561595916748046875" lon="13.280783258378505706787109375">
        <ele>53.799999237060546875</ele>
        <time>2018-08-18T16:35:12.000Z</time>
      </trkpt>
      <trkpt lat="52.4926749430596828460693359375" lon="13.28115164302289485931396484375">
        <ele>54.40000152587890625</ele>
        <time>2018-08-18T16:35:17.000Z</time>
      </trkpt>
      <trkpt lat="52.49304525554180145263671875" lon="13.2816118933260440826416015625">
        <ele>54.799999237060546875</ele>
        <time>2018-08-18T16:35:23.000Z</time>
      </trkpt>
      <trkpt lat="52.4934040009975433349609375" lon="13.28233701176941394805908203125">
        <ele>55</ele>
        <time>2018-08-18T16:35:30.000Z</time>
      </trkpt>
      <trkpt lat="52.49377523548901081085205078125" lon="13.28308157622814178466796875">
        <ele>55.200000762939453125</ele>
        <time>2018-08-18T16:35:37.000Z</time>
      </trkpt>
      <trkpt lat="52.493868358433246612548828125" lon="13.283311240375041961669921875">
        <ele>55.200000762939453125</ele>
        <time>2018-08-18T16:35:39.000Z</time>
      </trkpt>
      <trkpt lat="52.49396349303424358367919921875" lon="13.284178934991359710693359375">
        <ele>55.200000762939453125</ele>
        <time>2018-08-18T16:35:46.000Z</time>
      </trkpt>
      <trkpt lat="52.49394379556179046630859375" lon="13.28469785861670970916748046875">
        <ele>55.40000152587890625</ele>
        <time>2018-08-18T16:35:51.000Z</time>
      </trkpt>
      <trkpt lat="52.49393817968666553497314453125" lon="13.284984938800334930419921875">
        <ele>55.799999237060546875</ele>
        <time>2018-08-18T16:35:54.000Z</time>
      </trkpt>
      <trkpt lat="52.49409265816211700439453125" lon="13.285309486091136932373046875">
        <ele>56.40000152587890625</ele>
        <time>2018-08-18T16:35:59.000Z</time>
      </trkpt>
      <trkpt lat="52.4941400997340679168701171875" lon="13.285357765853404998779296875">
        <ele>56.59999847412109375</ele>
        <time>2018-08-18T16:36:00.000Z</time>
      </trkpt>
      <trkpt lat="52.49430480413138866424560546875" lon="13.28553789295256137847900390625">
        <ele>57</ele>
        <time>2018-08-18T16:36:04.000Z</time>
      </trkpt>
      <trkpt lat="52.494466491043567657470703125" lon="13.28575900755822658538818359375">
        <ele>57</ele>
        <time>2018-08-18T16:36:10.000Z</time>
      </trkpt>
      <trkpt lat="52.494800426065921783447265625" lon="13.28608573414385318756103515625">
        <ele>57.200000762939453125</ele>
        <time>2018-08-18T16:36:18.000Z</time>
      </trkpt>
      <trkpt lat="52.49510946683585643768310546875" lon="13.2861592434346675872802734375">
        <ele>57.40000152587890625</ele>
        <time>2018-08-18T16:36:26.000Z</time>
      </trkpt>
      <trkpt lat="52.49531817622482776641845703125" lon="13.28633534722030162811279296875">
        <ele>57.40000152587890625</ele>
        <time>2018-08-18T16:36:30.000Z</time>
      </trkpt>
      <trkpt lat="52.4953638575971126556396484375" lon="13.28639804385602474212646484375">
        <ele>57.40000152587890625</ele>
        <time>2018-08-18T16:36:31.000Z</time>
      </trkpt>
      <trkpt lat="52.49574012123048305511474609375" lon="13.2870933227241039276123046875">
        <ele>57.200000762939453125</ele>
        <time>2018-08-18T16:36:39.000Z</time>
      </trkpt>
      <trkpt lat="52.49608377926051616668701171875" lon="13.2877829857170581817626953125">
        <ele>57</ele>
        <time>2018-08-18T16:36:47.000Z</time>
      </trkpt>
      <trkpt lat="52.49617463909089565277099609375" lon="13.2879422418773174285888671875">
        <ele>56.799999237060546875</ele>
        <time>2018-08-18T16:36:49.000Z</time>
      </trkpt>
      <trkpt lat="52.496517710387706756591796875" lon="13.28870122320950031280517578125">
        <ele>56.799999237060546875</ele>
        <time>2018-08-18T16:36:57.000Z</time>
      </trkpt>
      <trkpt lat="52.4967177025973796844482421875" lon="13.28925996087491512298583984375">
        <ele>57</ele>
        <time>2018-08-18T16:37:03.000Z</time>
      </trkpt>
      <trkpt lat="52.49678852967917919158935546875" lon="13.2895109988749027252197265625">
        <ele>57.59999847412109375</ele>
        <time>2018-08-18T16:37:06.000Z</time>
      </trkpt>
      <trkpt lat="52.49682054854929447174072265625" lon="13.28964804299175739288330078125">
        <ele>57.799999237060546875</ele>
        <time>2018-08-18T16:37:09.000Z</time>
      </trkpt>
      <trkpt lat="52.49700729735195636749267578125" lon="13.29055731184780597686767578125">
        <ele>57.40000152587890625</ele>
        <time>2018-08-18T16:37:21.000Z</time>
      </trkpt>
      <trkpt lat="52.4970901943743228912353515625" lon="13.29100088216364383697509765625">
        <ele>56.59999847412109375</ele>
        <time>2018-08-18T16:37:27.000Z</time>
      </trkpt>
      <trkpt lat="52.4971642903983592987060546875" lon="13.29147420823574066162109375">
        <ele>55.40000152587890625</ele>
        <time>2018-08-18T16:37:32.000Z</time>
      </trkpt>
      <trkpt lat="52.497262023389339447021484375" lon="13.29206169582903385162353515625">
        <ele>54.40000152587890625</ele>
        <time>2018-08-18T16:37:38.000Z</time>
      </trkpt>
      <trkpt lat="52.49734240584075450897216796875" lon="13.29259880818426609039306640625">
        <ele>53.200000762939453125</ele>
        <time>2018-08-18T16:37:44.000Z</time>
      </trkpt>
      <trkpt lat="52.49741918407380580902099609375" lon="13.29322041012346744537353515625">
        <ele>52.40000152587890625</ele>
        <time>2018-08-18T16:37:53.000Z</time>
      </trkpt>
      <trkpt lat="52.49759553931653499603271484375" lon="13.29419472254812717437744140625">
        <ele>51.40000152587890625</ele>
        <time>2018-08-18T16:38:02.000Z</time>
      </trkpt>
      <trkpt lat="52.497658319771289825439453125" lon="13.2946423999965190887451171875">
        <ele>51.200000762939453125</ele>
        <time>2018-08-18T16:38:05.000Z</time>
      </trkpt>
      <trkpt lat="52.49771690927445888519287109375" lon="13.2950832881033420562744140625">
        <ele>50.799999237060546875</ele>
        <time>2018-08-18T16:38:08.000Z</time>
      </trkpt>
      <trkpt lat="52.4977708049118518829345703125" lon="13.29565334133803844451904296875">
        <ele>50</ele>
        <time>2018-08-18T16:38:14.000Z</time>
      </trkpt>
      <trkpt lat="52.4978174082934856414794921875" lon="13.29580019228160381317138671875">
        <ele>49.40000152587890625</ele>
        <time>2018-08-18T16:38:19.000Z</time>
      </trkpt>
      <trkpt lat="52.4978452362120151519775390625" lon="13.2958830893039703369140625">
        <ele>49.200000762939453125</ele>
        <time>2018-08-18T16:38:22.000Z</time>
      </trkpt>
      <trkpt lat="52.49785244464874267578125" lon="13.2959157787263393402099609375">
        <ele>48.799999237060546875</ele>
        <time>2018-08-18T16:38:25.000Z</time>
      </trkpt>
      <trkpt lat="52.4978593178093433380126953125" lon="13.29597805626690387725830078125">
        <ele>48.59999847412109375</ele>
        <time>2018-08-18T16:38:36.000Z</time>
      </trkpt>
      <trkpt lat="52.4979558773338794708251953125" lon="13.296540565788745880126953125">
        <ele>48.40000152587890625</ele>
        <time>2018-08-18T16:38:44.000Z</time>
      </trkpt>
      <trkpt lat="52.49814505688846111297607421875" lon="13.29737850464880466461181640625">
        <ele>48.200000762939453125</ele>
        <time>2018-08-18T16:38:56.000Z</time>
      </trkpt>
      <trkpt lat="52.49815159477293491363525390625" lon="13.297451846301555633544921875">
        <ele>48.200000762939453125</ele>
        <time>2018-08-18T16:38:57.000Z</time>
      </trkpt>
      <trkpt lat="52.49820322729647159576416015625" lon="13.29790120013058185577392578125">
        <ele>48.200000762939453125</ele>
        <time>2018-08-18T16:39:02.000Z</time>
      </trkpt>
      <trkpt lat="52.4983444623649120330810546875" lon="13.2987559027969837188720703125">
        <ele>48.200000762939453125</ele>
        <time>2018-08-18T16:39:10.000Z</time>
      </trkpt>
      <trkpt lat="52.4985114298760890960693359375" lon="13.29960775561630725860595703125">
        <ele>48.200000762939453125</ele>
        <time>2018-08-18T16:39:17.000Z</time>
      </trkpt>
      <trkpt lat="52.49865886755287647247314453125" lon="13.3002631366252899169921875">
        <ele>48</ele>
        <time>2018-08-18T16:39:22.000Z</time>
      </trkpt>
      <trkpt lat="52.49882818199694156646728515625" lon="13.3012480102479457855224609375">
        <ele>47.799999237060546875</ele>
        <time>2018-08-18T16:39:29.000Z</time>
      </trkpt>
      <trkpt lat="52.49902817420661449432373046875" lon="13.30212869681417942047119140625">
        <ele>47.40000152587890625</ele>
        <time>2018-08-18T16:39:35.000Z</time>
      </trkpt>
      <trkpt lat="52.49918106012046337127685546875" lon="13.303014747798442840576171875">
        <ele>47.200000762939453125</ele>
        <time>2018-08-18T16:39:41.000Z</time>
      </trkpt>
      <trkpt lat="52.49934601597487926483154296875" lon="13.3038948476314544677734375">
        <ele>47</ele>
        <time>2018-08-18T16:39:47.000Z</time>
      </trkpt>
      <trkpt lat="52.4993720836937427520751953125" lon="13.30403993837535381317138671875">
        <ele>47</ele>
        <time>2018-08-18T16:39:48.000Z</time>
      </trkpt>
      <trkpt lat="52.499513067305088043212890625" lon="13.30489908345043659210205078125">
        <ele>46.799999237060546875</ele>
        <time>2018-08-18T16:39:54.000Z</time>
      </trkpt>
      <trkpt lat="52.49966938979923725128173828125" lon="13.305747918784618377685546875">
        <ele>46.59999847412109375</ele>
        <time>2018-08-18T16:40:00.000Z</time>
      </trkpt>
      <trkpt lat="52.49977701343595981597900390625" lon="13.3063022978603839874267578125">
        <ele>46</ele>
        <time>2018-08-18T16:40:04.000Z</time>
      </trkpt>
      <trkpt lat="52.4997957050800323486328125" lon="13.30641335807740688323974609375">
        <ele>45.799999237060546875</ele>
        <time>2018-08-18T16:40:05.000Z</time>
      </trkpt>
      <trkpt lat="52.499864436686038970947265625" lon="13.306705467402935028076171875">
        <ele>45.59999847412109375</ele>
        <time>2018-08-18T16:40:12.000Z</time>
      </trkpt>
      <trkpt lat="52.4998719803988933563232421875" lon="13.30676020123064517974853515625">
        <ele>45.59999847412109375</ele>
        <time>2018-08-18T16:40:35.000Z</time>
      </trkpt>
      <trkpt lat="52.50000047497451305389404296875" lon="13.3076765947043895721435546875">
        <ele>45.799999237060546875</ele>
        <time>2018-08-18T16:40:46.000Z</time>
      </trkpt>
      <trkpt lat="52.50010080635547637939453125" lon="13.3085506595671176910400390625">
        <ele>45.59999847412109375</ele>
        <time>2018-08-18T16:40:53.000Z</time>
      </trkpt>
      <trkpt lat="52.50017146579921245574951171875" lon="13.30953486263751983642578125">
        <ele>45.799999237060546875</ele>
        <time>2018-08-18T16:41:00.000Z</time>
      </trkpt>
      <trkpt lat="52.50025914050638675689697265625" lon="13.31054245121777057647705078125">
        <ele>45.799999237060546875</ele>
        <time>2018-08-18T16:41:07.000Z</time>
      </trkpt>
      <trkpt lat="52.50034622848033905029296875" lon="13.31151902675628662109375">
        <ele>46</ele>
        <time>2018-08-18T16:41:14.000Z</time>
      </trkpt>
      <trkpt lat="52.50042644329369068145751953125" lon="13.31240088678896427154541015625">
        <ele>46</ele>
        <time>2018-08-18T16:41:22.000Z</time>
      </trkpt>
      <trkpt lat="52.5005519203841686248779296875" lon="13.31332390196621417999267578125">
        <ele>45.59999847412109375</ele>
        <time>2018-08-18T16:41:44.000Z</time>
      </trkpt>
      <trkpt lat="52.500699274241924285888671875" lon="13.31428446806967258453369140625">
        <ele>45.799999237060546875</ele>
        <time>2018-08-18T16:41:52.000Z</time>
      </trkpt>
      <trkpt lat="52.500844784080982208251953125" lon="13.31522785127162933349609375">
        <ele>46</ele>
        <time>2018-08-18T16:41:59.000Z</time>
      </trkpt>
      <trkpt lat="52.5008714385330677032470703125" lon="13.3153604529798030853271484375">
        <ele>45.799999237060546875</ele>
        <time>2018-08-18T16:42:00.000Z</time>
      </trkpt>
      <trkpt lat="52.50093095004558563232421875" lon="13.3157597668468952178955078125">
        <ele>46</ele>
        <time>2018-08-18T16:42:03.000Z</time>
      </trkpt>
      <trkpt lat="52.50108945183455944061279296875" lon="13.316725194454193115234375">
        <ele>46.200000762939453125</ele>
        <time>2018-08-18T16:42:10.000Z</time>
      </trkpt>
      <trkpt lat="52.50123135745525360107421875" lon="13.31773144192993640899658203125">
        <ele>46.40000152587890625</ele>
        <time>2018-08-18T16:42:17.000Z</time>
      </trkpt>
      <trkpt lat="52.5013606064021587371826171875" lon="13.31859536468982696533203125">
        <ele>46.40000152587890625</ele>
        <time>2018-08-18T16:42:23.000Z</time>
      </trkpt>
      <trkpt lat="52.5015238858759403228759765625" lon="13.3195711858570575714111328125">
        <ele>46.40000152587890625</ele>
        <time>2018-08-18T16:42:30.000Z</time>
      </trkpt>
      <trkpt lat="52.50163880176842212677001953125" lon="13.3204915188252925872802734375">
        <ele>46.200000762939453125</ele>
        <time>2018-08-18T16:42:37.000Z</time>
      </trkpt>
      <trkpt lat="52.501730583608150482177734375" lon="13.32126307301223278045654296875">
        <ele>46</ele>
        <time>2018-08-18T16:42:44.000Z</time>
      </trkpt>
      <trkpt lat="52.50184214673936367034912109375" lon="13.321630619466304779052734375">
        <ele>46</ele>
        <time>2018-08-18T16:42:49.000Z</time>
      </trkpt>
      <trkpt lat="52.50197223387658596038818359375" lon="13.322570733726024627685546875">
        <ele>45.799999237060546875</ele>
        <time>2018-08-18T16:42:57.000Z</time>
      </trkpt>
      <trkpt lat="52.50213098712265491485595703125" lon="13.3235250972211360931396484375">
        <ele>45.799999237060546875</ele>
        <time>2018-08-18T16:43:04.000Z</time>
      </trkpt>
      <trkpt lat="52.50226794742047786712646484375" lon="13.324449621140956878662109375">
        <ele>45.59999847412109375</ele>
        <time>2018-08-18T16:43:11.000Z</time>
      </trkpt>
      <trkpt lat="52.5022832863032817840576171875" lon="13.32455598749220371246337890625">
        <ele>45.59999847412109375</ele>
        <time>2018-08-18T16:43:12.000Z</time>
      </trkpt>
      <trkpt lat="52.50239451415836811065673828125" lon="13.3252061717212200164794921875">
        <ele>45.200000762939453125</ele>
        <time>2018-08-18T16:43:27.000Z</time>
      </trkpt>
      <trkpt lat="52.50260707922279834747314453125" lon="13.326111920177936553955078125">
        <ele>45.200000762939453125</ele>
        <time>2018-08-18T16:43:36.000Z</time>
      </trkpt>
      <trkpt lat="52.50277773477137088775634765625" lon="13.327000401914119720458984375">
        <ele>45.200000762939453125</ele>
        <time>2018-08-18T16:43:45.000Z</time>
      </trkpt>
      <trkpt lat="52.50299683772027492523193359375" lon="13.32790539599955081939697265625">
        <ele>45.200000762939453125</ele>
        <time>2018-08-18T16:43:59.000Z</time>
      </trkpt>
      <trkpt lat="52.5031757913529872894287109375" lon="13.32880578003823757171630859375">
        <ele>45.40000152587890625</ele>
        <time>2018-08-18T16:44:07.000Z</time>
      </trkpt>
      <trkpt lat="52.5034044496715068817138671875" lon="13.32969702780246734619140625">
        <ele>45.59999847412109375</ele>
        <time>2018-08-18T16:44:15.000Z</time>
      </trkpt>
      <trkpt lat="52.50363889150321483612060546875" lon="13.33053614012897014617919921875">
        <ele>45.799999237060546875</ele>
        <time>2018-08-18T16:44:22.000Z</time>
      </trkpt>
      <trkpt lat="52.5038279034197330474853515625" lon="13.3312723226845264434814453125">
        <ele>45.799999237060546875</ele>
        <time>2018-08-18T16:44:28.000Z</time>
      </trkpt>
      <trkpt lat="52.50422260724008083343505859375" lon="13.33155051805078983306884765625">
        <ele>46</ele>
        <time>2018-08-18T16:44:34.000Z</time>
      </trkpt>
      <trkpt lat="52.5047740526497364044189453125" lon="13.33161354996263980865478515625">
        <ele>46</ele>
        <time>2018-08-18T16:44:42.000Z</time>
      </trkpt>
      <trkpt lat="52.50502559356391429901123046875" lon="13.3315264619886875152587890625">
        <ele>45.59999847412109375</ele>
        <time>2018-08-18T16:44:51.000Z</time>
      </trkpt>
      <trkpt lat="52.50509507954120635986328125" lon="13.3314384520053863525390625">
        <ele>45.40000152587890625</ele>
        <time>2018-08-18T16:44:56.000Z</time>
      </trkpt>
      <trkpt lat="52.50515970401465892791748046875" lon="13.3314406313002109527587890625">
        <ele>45.40000152587890625</ele>
        <time>2018-08-18T16:45:01.000Z</time>
      </trkpt>
      <trkpt lat="52.50517814420163631439208984375" lon="13.3320401050150394439697265625">
        <ele>45.40000152587890625</ele>
        <time>2018-08-18T16:45:09.000Z</time>
      </trkpt>
      <trkpt lat="52.505188286304473876953125" lon="13.3321678452193737030029296875">
        <ele>45.40000152587890625</ele>
        <time>2018-08-18T16:45:10.000Z</time>
      </trkpt>
      <trkpt lat="52.50520697794854640960693359375" lon="13.33312782458961009979248046875">
        <ele>45.59999847412109375</ele>
        <time>2018-08-18T16:45:19.000Z</time>
      </trkpt>
      <trkpt lat="52.50525332987308502197265625" lon="13.3333347737789154052734375">
        <ele>45.59999847412109375</ele>
        <time>2018-08-18T16:45:21.000Z</time>
      </trkpt>
      <trkpt lat="52.5053705088794231414794921875" lon="13.33416919223964214324951171875">
        <ele>45.799999237060546875</ele>
        <time>2018-08-18T16:45:30.000Z</time>
      </trkpt>
      <trkpt lat="52.505280487239360809326171875" lon="13.33513428457081317901611328125">
        <ele>45.799999237060546875</ele>
        <time>2018-08-18T16:45:39.000Z</time>
      </trkpt>
      <trkpt lat="52.50522189773619174957275390625" lon="13.336017988622188568115234375">
        <ele>45.799999237060546875</ele>
        <time>2018-08-18T16:45:58.000Z</time>
      </trkpt>
      <trkpt lat="52.50522441230714321136474609375" lon="13.3361690305173397064208984375">
        <ele>45.799999237060546875</ele>
        <time>2018-08-18T16:46:01.000Z</time>
      </trkpt>
      <trkpt lat="52.50520161353051662445068359375" lon="13.3366285264492034912109375">
        <ele>45.799999237060546875</ele>
        <time>2018-08-18T16:46:06.000Z</time>
      </trkpt>
      <trkpt lat="52.5051314570009708404541015625" lon="13.33755631931126117706298828125">
        <ele>46</ele>
        <time>2018-08-18T16:46:14.000Z</time>
      </trkpt>
      <trkpt lat="52.505139671266078948974609375" lon="13.33807800896465778350830078125">
        <ele>46</ele>
        <time>2018-08-18T16:46:18.000Z</time>
      </trkpt>
      <trkpt lat="52.5052913837134838104248046875" lon="13.33904913626611232757568359375">
        <ele>45.799999237060546875</ele>
        <time>2018-08-18T16:46:26.000Z</time>
      </trkpt>
      <trkpt lat="52.50533647835254669189453125" lon="13.33953000605106353759765625">
        <ele>45.59999847412109375</ele>
        <time>2018-08-18T16:46:30.000Z</time>
      </trkpt>
      <trkpt lat="52.50528291799128055572509765625" lon="13.3405125327408313751220703125">
        <ele>45.59999847412109375</ele>
        <time>2018-08-18T16:46:38.000Z</time>
      </trkpt>
      <trkpt lat="52.5051978416740894317626953125" lon="13.34087722934782505035400390625">
        <ele>45.59999847412109375</ele>
        <time>2018-08-18T16:46:42.000Z</time>
      </trkpt>
      <trkpt lat="52.50546522438526153564453125" lon="13.341319374740123748779296875">
        <ele>45.799999237060546875</ele>
        <time>2018-08-18T16:46:50.000Z</time>
      </trkpt>
      <trkpt lat="52.50558701343834400177001953125" lon="13.34135918878018856048583984375">
        <ele>45.799999237060546875</ele>
        <time>2018-08-18T16:46:52.000Z</time>
      </trkpt>
      <trkpt lat="52.5058777816593647003173828125" lon="13.3420303277671337127685546875">
        <ele>45.799999237060546875</ele>
        <time>2018-08-18T16:47:00.000Z</time>
      </trkpt>
      <trkpt lat="52.50589395873248577117919921875" lon="13.34213082678616046905517578125">
        <ele>45.799999237060546875</ele>
        <time>2018-08-18T16:47:02.000Z</time>
      </trkpt>
      <trkpt lat="52.505945675075054168701171875" lon="13.34236367605626583099365234375">
        <ele>45.799999237060546875</ele>
        <time>2018-08-18T16:47:06.000Z</time>
      </trkpt>
      <trkpt lat="52.505987584590911865234375" lon="13.34264279343187808990478515625">
        <ele>45.799999237060546875</ele>
        <time>2018-08-18T16:47:09.000Z</time>
      </trkpt>
      <trkpt lat="52.50606562010943889617919921875" lon="13.34309600293636322021484375">
        <ele>45.799999237060546875</ele>
        <time>2018-08-18T16:47:13.000Z</time>
      </trkpt>
      <trkpt lat="52.50622160732746124267578125" lon="13.34395187906920909881591796875">
        <ele>45.799999237060546875</ele>
        <time>2018-08-18T16:47:20.000Z</time>
      </trkpt>
      <trkpt lat="52.506376169621944427490234375" lon="13.34482477046549320220947265625">
        <ele>45.799999237060546875</ele>
        <time>2018-08-18T16:47:28.000Z</time>
      </trkpt>
      <trkpt lat="52.50652679242193698883056640625" lon="13.3452764712274074554443359375">
        <ele>45.799999237060546875</ele>
        <time>2018-08-18T16:47:33.000Z</time>
      </trkpt>
      <trkpt lat="52.50666953623294830322265625" lon="13.3455763757228851318359375">
        <ele>46</ele>
        <time>2018-08-18T16:47:41.000Z</time>
      </trkpt>
      <trkpt lat="52.50671287067234516143798828125" lon="13.34581534378230571746826171875">
        <ele>46</ele>
        <time>2018-08-18T16:47:46.000Z</time>
      </trkpt>
      <trkpt lat="52.5068901479244232177734375" lon="13.346694521605968475341796875">
        <ele>46.59999847412109375</ele>
        <time>2018-08-18T16:47:55.000Z</time>
      </trkpt>
      <trkpt lat="52.50690800137817859649658203125" lon="13.34680038504302501678466796875">
        <ele>46.59999847412109375</ele>
        <time>2018-08-18T16:47:56.000Z</time>
      </trkpt>
      <trkpt lat="52.50714336521923542022705078125" lon="13.3476371504366397857666015625">
        <ele>46.799999237060546875</ele>
        <time>2018-08-18T16:48:04.000Z</time>
      </trkpt>
      <trkpt lat="52.50746824778616428375244140625" lon="13.348455727100372314453125">
        <ele>47.200000762939453125</ele>
        <time>2018-08-18T16:48:13.000Z</time>
      </trkpt>
      <trkpt lat="52.5075243227183818817138671875" lon="13.34852638654410839080810546875">
        <ele>47.200000762939453125</ele>
        <time>2018-08-18T16:48:14.000Z</time>
      </trkpt>
      <trkpt lat="52.50797585584223270416259765625" lon="13.34907825104892253875732421875">
        <ele>47.40000152587890625</ele>
        <time>2018-08-18T16:48:21.000Z</time>
      </trkpt>
      <trkpt lat="52.50854163430631160736083984375" lon="13.34948929958045482635498046875">
        <ele>47</ele>
        <time>2018-08-18T16:48:28.000Z</time>
      </trkpt>
      <trkpt lat="52.508999370038509368896484375" lon="13.349659703671932220458984375">
        <ele>45.59999847412109375</ele>
        <time>2018-08-18T16:48:33.000Z</time>
      </trkpt>
      <trkpt lat="52.50915921293199062347412109375" lon="13.34980496205389499664306640625">
        <ele>45.40000152587890625</ele>
        <time>2018-08-18T16:48:35.000Z</time>
      </trkpt>
      <trkpt lat="52.50944922678172588348388671875" lon="13.35060811601579189300537109375">
        <ele>44.799999237060546875</ele>
        <time>2018-08-18T16:48:42.000Z</time>
      </trkpt>
      <trkpt lat="52.50946196727454662322998046875" lon="13.350704424083232879638671875">
        <ele>44.799999237060546875</ele>
        <time>2018-08-18T16:48:43.000Z</time>
      </trkpt>
      <trkpt lat="52.50948627479374408721923828125" lon="13.35087331943213939666748046875">
        <ele>44.40000152587890625</ele>
        <time>2018-08-18T16:48:46.000Z</time>
      </trkpt>
      <trkpt lat="52.50952181406319141387939453125" lon="13.3510695397853851318359375">
        <ele>43.59999847412109375</ele>
        <time>2018-08-18T16:49:00.000Z</time>
      </trkpt>
      <trkpt lat="52.50953019596636295318603515625" lon="13.3512889780104160308837890625">
        <ele>43.59999847412109375</ele>
        <time>2018-08-18T16:49:04.000Z</time>
      </trkpt>
      <trkpt lat="52.50960915349423885345458984375" lon="13.3522696606814861297607421875">
        <ele>43.59999847412109375</ele>
        <time>2018-08-18T16:49:14.000Z</time>
      </trkpt>
      <trkpt lat="52.50961904413998126983642578125" lon="13.35326216183602809906005859375">
        <ele>43.799999237060546875</ele>
        <time>2018-08-18T16:49:22.000Z</time>
      </trkpt>
      <trkpt lat="52.50964821316301822662353515625" lon="13.35417059250175952911376953125">
        <ele>44</ele>
        <time>2018-08-18T16:49:29.000Z</time>
      </trkpt>
      <trkpt lat="52.50973706133663654327392578125" lon="13.35511355660855770111083984375">
        <ele>44.200000762939453125</ele>
        <time>2018-08-18T16:49:36.000Z</time>
      </trkpt>
      <trkpt lat="52.50982775352895259857177734375" lon="13.35608535446226596832275390625">
        <ele>44.59999847412109375</ele>
        <time>2018-08-18T16:49:43.000Z</time>
      </trkpt>
      <trkpt lat="52.50989514403045177459716796875" lon="13.3570575714111328125">
        <ele>44.59999847412109375</ele>
        <time>2018-08-18T16:49:50.000Z</time>
      </trkpt>
      <trkpt lat="52.50992699526250362396240234375" lon="13.35806080140173435211181640625">
        <ele>44.59999847412109375</ele>
        <time>2018-08-18T16:49:57.000Z</time>
      </trkpt>
      <trkpt lat="52.50988818705081939697265625" lon="13.35906998254358768463134765625">
        <ele>44.59999847412109375</ele>
        <time>2018-08-18T16:50:04.000Z</time>
      </trkpt>
      <trkpt lat="52.5098484568297863006591796875" lon="13.36006700992584228515625">
        <ele>44.59999847412109375</ele>
        <time>2018-08-18T16:50:11.000Z</time>
      </trkpt>
      <trkpt lat="52.5097914598882198333740234375" lon="13.3610565774142742156982421875">
        <ele>44.59999847412109375</ele>
        <time>2018-08-18T16:50:18.000Z</time>
      </trkpt>
      <trkpt lat="52.50978349708020687103271484375" lon="13.36204539053142070770263671875">
        <ele>44.799999237060546875</ele>
        <time>2018-08-18T16:50:25.000Z</time>
      </trkpt>
      <trkpt lat="52.50975315459072589874267578125" lon="13.36288911290466785430908203125">
        <ele>44.799999237060546875</ele>
        <time>2018-08-18T16:50:31.000Z</time>
      </trkpt>
      <trkpt lat="52.509867064654827117919921875" lon="13.3637931011617183685302734375">
        <ele>44.799999237060546875</ele>
        <time>2018-08-18T16:50:38.000Z</time>
      </trkpt>
      <trkpt lat="52.509870417416095733642578125" lon="13.36418177001178264617919921875">
        <ele>44.200000762939453125</ele>
        <time>2018-08-18T16:50:50.000Z</time>
      </trkpt>
      <trkpt lat="52.5098700821399688720703125" lon="13.36421060375869274139404296875">
        <ele>44</ele>
        <time>2018-08-18T16:51:02.000Z</time>
      </trkpt>
      <trkpt lat="52.51003780402243137359619140625" lon="13.3651684038341045379638671875">
        <ele>44.200000762939453125</ele>
        <time>2018-08-18T16:51:14.000Z</time>
      </trkpt>
      <trkpt lat="52.510228492319583892822265625" lon="13.36611061356961727142333984375">
        <ele>44.40000152587890625</ele>
        <time>2018-08-18T16:51:22.000Z</time>
      </trkpt>
      <trkpt lat="52.51038833521306514739990234375" lon="13.366995491087436676025390625">
        <ele>44.200000762939453125</ele>
        <time>2018-08-18T16:51:29.000Z</time>
      </trkpt>
      <trkpt lat="52.5105401314795017242431640625" lon="13.36788020096719264984130859375">
        <ele>44.200000762939453125</ele>
        <time>2018-08-18T16:51:36.000Z</time>
      </trkpt>
      <trkpt lat="52.51071690581738948822021484375" lon="13.36874186061322689056396484375">
        <ele>44.200000762939453125</ele>
        <time>2018-08-18T16:51:43.000Z</time>
      </trkpt>
      <trkpt lat="52.510874234139919281005859375" lon="13.3696617744863033294677734375">
        <ele>44.40000152587890625</ele>
        <time>2018-08-18T16:51:51.000Z</time>
      </trkpt>
      <trkpt lat="52.5109961070120334625244140625" lon="13.3705730549991130828857421875">
        <ele>44.200000762939453125</ele>
        <time>2018-08-18T16:52:09.000Z</time>
      </trkpt>
      <trkpt lat="52.5110497511923313140869140625" lon="13.37088997475802898406982421875">
        <ele>44.200000762939453125</ele>
        <time>2018-08-18T16:52:19.000Z</time>
      </trkpt>
      <trkpt lat="52.5110601447522640228271484375" lon="13.37093758396804332733154296875">
        <ele>44.200000762939453125</ele>
        <time>2018-08-18T16:53:05.000Z</time>
      </trkpt>
      <trkpt lat="52.5112113542854785919189453125" lon="13.37187401019036769866943359375">
        <ele>44.59999847412109375</ele>
        <time>2018-08-18T16:53:18.000Z</time>
      </trkpt>
      <trkpt lat="52.51136130653321743011474609375" lon="13.3728183992207050323486328125">
        <ele>44.799999237060546875</ele>
        <time>2018-08-18T16:53:27.000Z</time>
      </trkpt>
      <trkpt lat="52.51149474643170833587646484375" lon="13.37377854622900485992431640625">
        <ele>44.799999237060546875</ele>
        <time>2018-08-18T16:53:35.000Z</time>
      </trkpt>
      <trkpt lat="52.51153640449047088623046875" lon="13.3740257285535335540771484375">
        <ele>44.799999237060546875</ele>
        <time>2018-08-18T16:53:37.000Z</time>
      </trkpt>
      <trkpt lat="52.51174167729914188385009765625" lon="13.37496693246066570281982421875">
        <ele>45</ele>
        <time>2018-08-18T16:53:45.000Z</time>
      </trkpt>
      <trkpt lat="52.51194854266941547393798828125" lon="13.3758670650422573089599609375">
        <ele>44.799999237060546875</ele>
        <time>2018-08-18T16:53:53.000Z</time>
      </trkpt>
      <trkpt lat="52.51202523708343505859375" lon="13.37606563232839107513427734375">
        <ele>44.799999237060546875</ele>
        <time>2018-08-18T16:53:55.000Z</time>
      </trkpt>
      <trkpt lat="52.51234685070812702178955078125" lon="13.3767927624285221099853515625">
        <ele>44.40000152587890625</ele>
        <time>2018-08-18T16:54:06.000Z</time>
      </trkpt>
      <trkpt lat="52.5124193541705608367919921875" lon="13.3768346719443798065185546875">
        <ele>44.40000152587890625</ele>
        <time>2018-08-18T16:54:09.000Z</time>
      </trkpt>
      <trkpt lat="52.51274331472814083099365234375" lon="13.37691203691065311431884765625">
        <ele>44.200000762939453125</ele>
        <time>2018-08-18T16:54:18.000Z</time>
      </trkpt>
      <trkpt lat="52.51332543790340423583984375" lon="13.3770187385380268096923828125">
        <ele>44.200000762939453125</ele>
        <time>2018-08-18T16:54:29.000Z</time>
      </trkpt>
      <trkpt lat="52.513872273266315460205078125" lon="13.37712678126990795135498046875">
        <ele>44.40000152587890625</ele>
        <time>2018-08-18T16:54:39.000Z</time>
      </trkpt>
      <trkpt lat="52.5144357047975063323974609375" lon="13.3772356621921062469482421875">
        <ele>44.59999847412109375</ele>
        <time>2018-08-18T16:54:49.000Z</time>
      </trkpt>
      <trkpt lat="52.51499176025390625" lon="13.3773110993206501007080078125">
        <ele>44.799999237060546875</ele>
        <time>2018-08-18T16:55:01.000Z</time>
      </trkpt>
      <trkpt lat="52.51541580073535442352294921875" lon="13.37737488560378551483154296875">
        <ele>44.799999237060546875</ele>
        <time>2018-08-18T16:55:10.000Z</time>
      </trkpt>
      <trkpt lat="52.51550079323351383209228515625" lon="13.3774034678936004638671875">
        <ele>44.799999237060546875</ele>
        <time>2018-08-18T16:55:12.000Z</time>
      </trkpt>
      <trkpt lat="52.515671364963054656982421875" lon="13.3773590438067913055419921875">
        <ele>44.799999237060546875</ele>
        <time>2018-08-18T16:55:16.000Z</time>
      </trkpt>
      <trkpt lat="52.515711598098278045654296875" lon="13.37733381427824497222900390625">
        <ele>44.799999237060546875</ele>
        <time>2018-08-18T16:55:17.000Z</time>
      </trkpt>
      <trkpt lat="52.51592257060110569000244140625" lon="13.3769570477306842803955078125">
        <ele>45</ele>
        <time>2018-08-18T16:55:24.000Z</time>
      </trkpt>
      <trkpt lat="52.51600496470928192138671875" lon="13.3768738992512226104736328125">
        <ele>45</ele>
        <time>2018-08-18T16:55:27.000Z</time>
      </trkpt>
      <trkpt lat="52.51605148427188396453857421875" lon="13.376942463219165802001953125">
        <ele>45</ele>
        <time>2018-08-18T16:55:30.000Z</time>
      </trkpt>
    </trkseg>
  </trk>
</gpx>
